<?xml version="1.0" encoding="UTF-8"?>
<gpx version="1.1" creator="https://www.youtrack.es" xsi:schemaLocation="http://www.topografix.com/GPX/1/1 http://www.topografix.com/GPX/1/1/gpx.xsd http://www.garmin.com/xmlschemas/GpxExtensions/v3 http://www.garmin.com/xmlschemas/GpxExtensionsv3.xsd http://www.garmin.com/xmlschemas/TrackPointExtension/v1 http://www.garmin.com/xmlschemas/TrackPointExtensionv1.xsd" xmlns:gpxtpx="http://www.garmin.com/xmlschemas/TrackPointExtension/v1" xmlns:gpxx="http://www.garmin.com/xmlschemas/GpxExtensions/v3" xmlns:xsi="http://www.w3.org/2001/XMLSchema-instance">
  <metadata>
    <link href="https://www.youtrack.es">
      <text>YouTrack.es</text>
    </link>
    <time>2026-05-08T23:19:04Z</time>
  </metadata>
  <trk>
    <src>https://www.youtrack.es</src>
    <link href="https://www.youtrack.es/ruta/7084-lisboa-santiago-ribadeo">
      <text>YouTrack.es</text>
    </link>
    <trkseg>
      <trkpt lat="38.715986" lon="-9.143833">
        <ele>52.542</ele>
        <time>2015-03-19T07:49:51Z</time>
      </trkpt>
      <trkpt lat="38.715900" lon="-9.143769">
        <ele>52.522</ele>
        <time>2015-03-19T07:50:22Z</time>
      </trkpt>
      <trkpt lat="38.715813" lon="-9.143648">
        <ele>53.514</ele>
        <time>2015-03-19T07:50:36Z</time>
      </trkpt>
      <trkpt lat="38.715741" lon="-9.143546">
        <ele>49.707</ele>
        <time>2015-03-19T07:50:51Z</time>
      </trkpt>
      <trkpt lat="38.715748" lon="-9.143408">
        <ele>46.813</ele>
        <time>2015-03-19T07:51:05Z</time>
      </trkpt>
      <trkpt lat="38.715784" lon="-9.143237">
        <ele>43.486</ele>
        <time>2015-03-19T07:51:20Z</time>
      </trkpt>
      <trkpt lat="38.715759" lon="-9.143177">
        <ele>42.098</ele>
        <time>2015-03-19T07:51:29Z</time>
      </trkpt>
      <trkpt lat="38.715867" lon="-9.143099">
        <ele>39.198</ele>
        <time>2015-03-19T07:51:42Z</time>
      </trkpt>
      <trkpt lat="38.715969" lon="-9.143008">
        <ele>37.676</ele>
        <time>2015-03-19T07:51:54Z</time>
      </trkpt>
      <trkpt lat="38.716007" lon="-9.142909">
        <ele>34.731</ele>
        <time>2015-03-19T07:52:02Z</time>
      </trkpt>
      <trkpt lat="38.716115" lon="-9.142732">
        <ele>31.448</ele>
        <time>2015-03-19T07:52:17Z</time>
      </trkpt>
      <trkpt lat="38.716143" lon="-9.142632">
        <ele>30.414</ele>
        <time>2015-03-19T07:52:31Z</time>
      </trkpt>
      <trkpt lat="38.716059" lon="-9.142535">
        <ele>30.954</ele>
        <time>2015-03-19T07:53:21Z</time>
      </trkpt>
      <trkpt lat="38.715849" lon="-9.142277">
        <ele>29.509</ele>
        <time>2015-03-19T07:53:46Z</time>
      </trkpt>
      <trkpt lat="38.715422" lon="-9.141903">
        <ele>28.507</ele>
        <time>2015-03-19T07:54:05Z</time>
      </trkpt>
      <trkpt lat="38.715181" lon="-9.141673">
        <ele>28.010</ele>
        <time>2015-03-19T07:54:17Z</time>
      </trkpt>
      <trkpt lat="38.715024" lon="-9.141390">
        <ele>27.563</ele>
        <time>2015-03-19T07:54:27Z</time>
      </trkpt>
      <trkpt lat="38.714929" lon="-9.141122">
        <ele>26.615</ele>
        <time>2015-03-19T07:54:35Z</time>
      </trkpt>
      <trkpt lat="38.714587" lon="-9.140574">
        <ele>25.645</ele>
        <time>2015-03-19T07:54:51Z</time>
      </trkpt>
      <trkpt lat="38.714388" lon="-9.140041">
        <ele>24.213</ele>
        <time>2015-03-19T07:55:04Z</time>
      </trkpt>
      <trkpt lat="38.713953" lon="-9.139806">
        <ele>23.768</ele>
        <time>2015-03-19T07:55:19Z</time>
      </trkpt>
      <trkpt lat="38.713539" lon="-9.139609">
        <ele>23.775</ele>
        <time>2015-03-19T07:55:34Z</time>
      </trkpt>
      <trkpt lat="38.713093" lon="-9.139318">
        <ele>23.269</ele>
        <time>2015-03-19T07:55:49Z</time>
      </trkpt>
      <trkpt lat="38.713033" lon="-9.138956">
        <ele>24.704</ele>
        <time>2015-03-19T07:55:59Z</time>
      </trkpt>
      <trkpt lat="38.712947" lon="-9.138521">
        <ele>24.224</ele>
        <time>2015-03-19T07:56:12Z</time>
      </trkpt>
      <trkpt lat="38.712713" lon="-9.138353">
        <ele>23.207</ele>
        <time>2015-03-19T07:56:24Z</time>
      </trkpt>
      <trkpt lat="38.712434" lon="-9.138311">
        <ele>23.245</ele>
        <time>2015-03-19T07:56:35Z</time>
      </trkpt>
      <trkpt lat="38.712176" lon="-9.138244">
        <ele>22.738</ele>
        <time>2015-03-19T07:56:41Z</time>
      </trkpt>
      <trkpt lat="38.711604" lon="-9.138024">
        <ele>22.330</ele>
        <time>2015-03-19T07:56:56Z</time>
      </trkpt>
      <trkpt lat="38.711164" lon="-9.137823">
        <ele>21.870</ele>
        <time>2015-03-19T07:57:09Z</time>
      </trkpt>
      <trkpt lat="38.710894" lon="-9.137726">
        <ele>21.398</ele>
        <time>2015-03-19T07:57:19Z</time>
      </trkpt>
      <trkpt lat="38.710463" lon="-9.137563">
        <ele>20.333</ele>
        <time>2015-03-19T07:57:32Z</time>
      </trkpt>
      <trkpt lat="38.710033" lon="-9.137433">
        <ele>20.390</ele>
        <time>2015-03-19T07:57:45Z</time>
      </trkpt>
      <trkpt lat="38.709585" lon="-9.137272">
        <ele>19.472</ele>
        <time>2015-03-19T07:58:00Z</time>
      </trkpt>
      <trkpt lat="38.709574" lon="-9.137174">
        <ele>19.413</ele>
        <time>2015-03-19T07:58:04Z</time>
      </trkpt>
      <trkpt lat="38.709666" lon="-9.136804">
        <ele>19.414</ele>
        <time>2015-03-19T07:58:14Z</time>
      </trkpt>
      <trkpt lat="38.709816" lon="-9.136326">
        <ele>19.407</ele>
        <time>2015-03-19T07:58:27Z</time>
      </trkpt>
      <trkpt lat="38.709881" lon="-9.135961">
        <ele>19.416</ele>
        <time>2015-03-19T07:58:39Z</time>
      </trkpt>
      <trkpt lat="38.709903" lon="-9.135889">
        <ele>20.869</ele>
        <time>2015-03-19T07:58:41Z</time>
      </trkpt>
      <trkpt lat="38.710013" lon="-9.135601">
        <ele>21.861</ele>
        <time>2015-03-19T07:58:50Z</time>
      </trkpt>
      <trkpt lat="38.710085" lon="-9.135242">
        <ele>24.231</ele>
        <time>2015-03-19T07:59:06Z</time>
      </trkpt>
      <trkpt lat="38.710130" lon="-9.135113">
        <ele>24.719</ele>
        <time>2015-03-19T07:59:16Z</time>
      </trkpt>
      <trkpt lat="38.710199" lon="-9.134977">
        <ele>26.194</ele>
        <time>2015-03-19T07:59:22Z</time>
      </trkpt>
      <trkpt lat="38.710237" lon="-9.134915">
        <ele>27.191</ele>
        <time>2015-03-19T07:59:27Z</time>
      </trkpt>
      <trkpt lat="38.710179" lon="-9.134622">
        <ele>29.027</ele>
        <time>2015-03-19T07:59:44Z</time>
      </trkpt>
      <trkpt lat="38.710155" lon="-9.134520">
        <ele>29.968</ele>
        <time>2015-03-19T07:59:50Z</time>
      </trkpt>
      <trkpt lat="38.710097" lon="-9.134289">
        <ele>31.914</ele>
        <time>2015-03-19T08:00:03Z</time>
      </trkpt>
      <trkpt lat="38.710046" lon="-9.134107">
        <ele>32.807</ele>
        <time>2015-03-19T08:00:14Z</time>
      </trkpt>
      <trkpt lat="38.709964" lon="-9.133975">
        <ele>34.391</ele>
        <time>2015-03-19T08:00:21Z</time>
      </trkpt>
      <trkpt lat="38.709839" lon="-9.133732">
        <ele>35.754</ele>
        <time>2015-03-19T08:00:35Z</time>
      </trkpt>
      <trkpt lat="38.709815" lon="-9.133456">
        <ele>38.616</ele>
        <time>2015-03-19T08:00:52Z</time>
      </trkpt>
      <trkpt lat="38.709968" lon="-9.133323">
        <ele>40.036</ele>
        <time>2015-03-19T08:01:04Z</time>
      </trkpt>
      <trkpt lat="38.710012" lon="-9.133258">
        <ele>40.574</ele>
        <time>2015-03-19T08:01:09Z</time>
      </trkpt>
      <trkpt lat="38.710023" lon="-9.133095">
        <ele>42.429</ele>
        <time>2015-03-19T08:01:18Z</time>
      </trkpt>
      <trkpt lat="38.710021" lon="-9.132779">
        <ele>45.386</ele>
        <time>2015-03-19T08:01:35Z</time>
      </trkpt>
      <trkpt lat="38.710139" lon="-9.132441">
        <ele>48.263</ele>
        <time>2015-03-19T08:01:53Z</time>
      </trkpt>
      <trkpt lat="38.710216" lon="-9.132080">
        <ele>50.144</ele>
        <time>2015-03-19T08:02:12Z</time>
      </trkpt>
      <trkpt lat="38.710267" lon="-9.131885">
        <ele>51.618</ele>
        <time>2015-03-19T08:02:23Z</time>
      </trkpt>
      <trkpt lat="38.710374" lon="-9.131635">
        <ele>53.507</ele>
        <time>2015-03-19T08:02:38Z</time>
      </trkpt>
      <trkpt lat="38.710443" lon="-9.131354">
        <ele>55.975</ele>
        <time>2015-03-19T08:02:53Z</time>
      </trkpt>
      <trkpt lat="38.710584" lon="-9.131091">
        <ele>56.958</ele>
        <time>2015-03-19T08:03:11Z</time>
      </trkpt>
      <trkpt lat="38.710677" lon="-9.130867">
        <ele>57.840</ele>
        <time>2015-03-19T08:03:24Z</time>
      </trkpt>
      <trkpt lat="38.710711" lon="-9.130799">
        <ele>58.380</ele>
        <time>2015-03-19T08:03:28Z</time>
      </trkpt>
      <trkpt lat="38.710947" lon="-9.130681">
        <ele>59.738</ele>
        <time>2015-03-19T08:03:44Z</time>
      </trkpt>
      <trkpt lat="38.711037" lon="-9.130632">
        <ele>61.223</ele>
        <time>2015-03-19T08:03:51Z</time>
      </trkpt>
      <trkpt lat="38.711115" lon="-9.130608">
        <ele>61.750</ele>
        <time>2015-03-19T08:03:57Z</time>
      </trkpt>
      <trkpt lat="38.711376" lon="-9.130632">
        <ele>65.076</ele>
        <time>2015-03-19T08:04:16Z</time>
      </trkpt>
      <trkpt lat="38.711471" lon="-9.130710">
        <ele>67.090</ele>
        <time>2015-03-19T08:04:24Z</time>
      </trkpt>
      <trkpt lat="38.711513" lon="-9.130764">
        <ele>67.419</ele>
        <time>2015-03-19T08:04:29Z</time>
      </trkpt>
      <trkpt lat="38.711528" lon="-9.130845">
        <ele>68.407</ele>
        <time>2015-03-19T08:04:35Z</time>
      </trkpt>
      <trkpt lat="38.711556" lon="-9.130915">
        <ele>70.366</ele>
        <time>2015-03-19T08:04:48Z</time>
      </trkpt>
      <trkpt lat="38.711512" lon="-9.130837">
        <ele>68.999</ele>
        <time>2015-03-19T08:05:57Z</time>
      </trkpt>
      <trkpt lat="38.711420" lon="-9.130704">
        <ele>66.561</ele>
        <time>2015-03-19T08:06:03Z</time>
      </trkpt>
      <trkpt lat="38.711330" lon="-9.130678">
        <ele>65.071</ele>
        <time>2015-03-19T08:06:06Z</time>
      </trkpt>
      <trkpt lat="38.711087" lon="-9.130638">
        <ele>62.669</ele>
        <time>2015-03-19T08:06:12Z</time>
      </trkpt>
      <trkpt lat="38.710837" lon="-9.130805">
        <ele>59.784</ele>
        <time>2015-03-19T08:06:18Z</time>
      </trkpt>
      <trkpt lat="38.710667" lon="-9.131070">
        <ele>57.891</ele>
        <time>2015-03-19T08:06:23Z</time>
      </trkpt>
      <trkpt lat="38.710514" lon="-9.131535">
        <ele>54.976</ele>
        <time>2015-03-19T08:06:31Z</time>
      </trkpt>
      <trkpt lat="38.710292" lon="-9.132080">
        <ele>50.190</ele>
        <time>2015-03-19T08:06:38Z</time>
      </trkpt>
      <trkpt lat="38.710243" lon="-9.132172">
        <ele>50.119</ele>
        <time>2015-03-19T08:06:39Z</time>
      </trkpt>
      <trkpt lat="38.710184" lon="-9.132348">
        <ele>49.207</ele>
        <time>2015-03-19T08:06:41Z</time>
      </trkpt>
      <trkpt lat="38.710150" lon="-9.132837">
        <ele>45.336</ele>
        <time>2015-03-19T08:06:47Z</time>
      </trkpt>
      <trkpt lat="38.710120" lon="-9.133112">
        <ele>42.079</ele>
        <time>2015-03-19T08:06:51Z</time>
      </trkpt>
      <trkpt lat="38.710106" lon="-9.133178">
        <ele>42.061</ele>
        <time>2015-03-19T08:06:52Z</time>
      </trkpt>
      <trkpt lat="38.709917" lon="-9.133369">
        <ele>39.161</ele>
        <time>2015-03-19T08:06:58Z</time>
      </trkpt>
      <trkpt lat="38.709863" lon="-9.133381">
        <ele>39.139</ele>
        <time>2015-03-19T08:07:00Z</time>
      </trkpt>
      <trkpt lat="38.709764" lon="-9.133344">
        <ele>38.674</ele>
        <time>2015-03-19T08:07:12Z</time>
      </trkpt>
      <trkpt lat="38.709707" lon="-9.133400">
        <ele>38.671</ele>
        <time>2015-03-19T08:08:03Z</time>
      </trkpt>
      <trkpt lat="38.709596" lon="-9.133350">
        <ele>39.184</ele>
        <time>2015-03-19T08:08:40Z</time>
      </trkpt>
      <trkpt lat="38.709558" lon="-9.133213">
        <ele>38.607</ele>
        <time>2015-03-19T08:08:45Z</time>
      </trkpt>
      <trkpt lat="38.709622" lon="-9.132754">
        <ele>38.117</ele>
        <time>2015-03-19T08:08:57Z</time>
      </trkpt>
      <trkpt lat="38.709652" lon="-9.132607">
        <ele>37.207</ele>
        <time>2015-03-19T08:09:00Z</time>
      </trkpt>
      <trkpt lat="38.709581" lon="-9.132386">
        <ele>34.727</ele>
        <time>2015-03-19T08:09:04Z</time>
      </trkpt>
      <trkpt lat="38.709526" lon="-9.132206">
        <ele>33.810</ele>
        <time>2015-03-19T08:09:07Z</time>
      </trkpt>
      <trkpt lat="38.709534" lon="-9.132084">
        <ele>32.892</ele>
        <time>2015-03-19T08:09:09Z</time>
      </trkpt>
      <trkpt lat="38.709588" lon="-9.131377">
        <ele>29.952</ele>
        <time>2015-03-19T08:09:22Z</time>
      </trkpt>
      <trkpt lat="38.709632" lon="-9.130857">
        <ele>27.150</ele>
        <time>2015-03-19T08:09:33Z</time>
      </trkpt>
      <trkpt lat="38.709631" lon="-9.130515">
        <ele>28.595</ele>
        <time>2015-03-19T08:09:44Z</time>
      </trkpt>
      <trkpt lat="38.709701" lon="-9.130460">
        <ele>29.082</ele>
        <time>2015-03-19T08:09:48Z</time>
      </trkpt>
      <trkpt lat="38.709763" lon="-9.130391">
        <ele>29.552</ele>
        <time>2015-03-19T08:09:52Z</time>
      </trkpt>
      <trkpt lat="38.709918" lon="-9.130032">
        <ele>29.953</ele>
        <time>2015-03-19T08:10:04Z</time>
      </trkpt>
      <trkpt lat="38.710202" lon="-9.129777">
        <ele>28.508</ele>
        <time>2015-03-19T08:10:15Z</time>
      </trkpt>
      <trkpt lat="38.710440" lon="-9.129589">
        <ele>28.007</ele>
        <time>2015-03-19T08:10:26Z</time>
      </trkpt>
      <trkpt lat="38.710654" lon="-9.129259">
        <ele>25.674</ele>
        <time>2015-03-19T08:10:37Z</time>
      </trkpt>
      <trkpt lat="38.710930" lon="-9.128960">
        <ele>21.867</ele>
        <time>2015-03-19T08:10:46Z</time>
      </trkpt>
      <trkpt lat="38.711145" lon="-9.128597">
        <ele>20.879</ele>
        <time>2015-03-19T08:10:57Z</time>
      </trkpt>
      <trkpt lat="38.711312" lon="-9.128439">
        <ele>18.969</ele>
        <time>2015-03-19T08:11:04Z</time>
      </trkpt>
      <trkpt lat="38.711325" lon="-9.128298">
        <ele>18.457</ele>
        <time>2015-03-19T08:11:08Z</time>
      </trkpt>
      <trkpt lat="38.711344" lon="-9.128052">
        <ele>17.962</ele>
        <time>2015-03-19T08:11:15Z</time>
      </trkpt>
      <trkpt lat="38.711251" lon="-9.127843">
        <ele>17.979</ele>
        <time>2015-03-19T08:11:22Z</time>
      </trkpt>
      <trkpt lat="38.711452" lon="-9.127630">
        <ele>19.466</ele>
        <time>2015-03-19T08:11:37Z</time>
      </trkpt>
      <trkpt lat="38.711583" lon="-9.127479">
        <ele>20.829</ele>
        <time>2015-03-19T08:11:50Z</time>
      </trkpt>
      <trkpt lat="38.711745" lon="-9.127383">
        <ele>22.721</ele>
        <time>2015-03-19T08:12:02Z</time>
      </trkpt>
      <trkpt lat="38.711835" lon="-9.127253">
        <ele>24.207</ele>
        <time>2015-03-19T08:12:10Z</time>
      </trkpt>
      <trkpt lat="38.712019" lon="-9.127019">
        <ele>27.115</ele>
        <time>2015-03-19T08:12:28Z</time>
      </trkpt>
      <trkpt lat="38.712071" lon="-9.126988">
        <ele>28.048</ele>
        <time>2015-03-19T08:12:41Z</time>
      </trkpt>
      <trkpt lat="38.712154" lon="-9.126873">
        <ele>29.560</ele>
        <time>2015-03-19T08:12:56Z</time>
      </trkpt>
      <trkpt lat="38.712269" lon="-9.126598">
        <ele>31.920</ele>
        <time>2015-03-19T08:13:10Z</time>
      </trkpt>
      <trkpt lat="38.712303" lon="-9.126539">
        <ele>32.368</ele>
        <time>2015-03-19T08:13:14Z</time>
      </trkpt>
      <trkpt lat="38.712449" lon="-9.126368">
        <ele>35.283</ele>
        <time>2015-03-19T08:13:29Z</time>
      </trkpt>
      <trkpt lat="38.712592" lon="-9.126251">
        <ele>37.240</ele>
        <time>2015-03-19T08:13:43Z</time>
      </trkpt>
      <trkpt lat="38.712642" lon="-9.126183">
        <ele>37.661</ele>
        <time>2015-03-19T08:13:59Z</time>
      </trkpt>
      <trkpt lat="38.712743" lon="-9.126096">
        <ele>38.621</ele>
        <time>2015-03-19T08:14:11Z</time>
      </trkpt>
      <trkpt lat="38.712844" lon="-9.125962">
        <ele>39.613</ele>
        <time>2015-03-19T08:14:26Z</time>
      </trkpt>
      <trkpt lat="38.712899" lon="-9.125941">
        <ele>39.607</ele>
        <time>2015-03-19T08:14:32Z</time>
      </trkpt>
      <trkpt lat="38.712959" lon="-9.125869">
        <ele>39.655</ele>
        <time>2015-03-19T08:14:37Z</time>
      </trkpt>
      <trkpt lat="38.713252" lon="-9.125435">
        <ele>37.698</ele>
        <time>2015-03-19T08:14:51Z</time>
      </trkpt>
      <trkpt lat="38.713338" lon="-9.125360">
        <ele>37.640</ele>
        <time>2015-03-19T08:14:57Z</time>
      </trkpt>
      <trkpt lat="38.713594" lon="-9.125020">
        <ele>37.290</ele>
        <time>2015-03-19T08:15:11Z</time>
      </trkpt>
      <trkpt lat="38.713716" lon="-9.124818">
        <ele>36.228</ele>
        <time>2015-03-19T08:15:23Z</time>
      </trkpt>
      <trkpt lat="38.713854" lon="-9.124578">
        <ele>39.143</ele>
        <time>2015-03-19T08:15:36Z</time>
      </trkpt>
      <trkpt lat="38.713996" lon="-9.124314">
        <ele>40.080</ele>
        <time>2015-03-19T08:15:50Z</time>
      </trkpt>
      <trkpt lat="38.714161" lon="-9.124092">
        <ele>42.091</ele>
        <time>2015-03-19T08:16:04Z</time>
      </trkpt>
      <trkpt lat="38.714357" lon="-9.123889">
        <ele>44.481</ele>
        <time>2015-03-19T08:16:19Z</time>
      </trkpt>
      <trkpt lat="38.714449" lon="-9.123797">
        <ele>45.319</ele>
        <time>2015-03-19T08:16:26Z</time>
      </trkpt>
      <trkpt lat="38.714671" lon="-9.123561">
        <ele>47.207</ele>
        <time>2015-03-19T08:16:43Z</time>
      </trkpt>
      <trkpt lat="38.714963" lon="-9.123329">
        <ele>45.878</ele>
        <time>2015-03-19T08:16:58Z</time>
      </trkpt>
      <trkpt lat="38.715119" lon="-9.123155">
        <ele>43.961</ele>
        <time>2015-03-19T08:17:05Z</time>
      </trkpt>
      <trkpt lat="38.715216" lon="-9.123049">
        <ele>42.083</ele>
        <time>2015-03-19T08:17:08Z</time>
      </trkpt>
      <trkpt lat="38.715417" lon="-9.122883">
        <ele>39.613</ele>
        <time>2015-03-19T08:17:12Z</time>
      </trkpt>
      <trkpt lat="38.715694" lon="-9.122626">
        <ele>39.131</ele>
        <time>2015-03-19T08:17:21Z</time>
      </trkpt>
      <trkpt lat="38.715948" lon="-9.122395">
        <ele>39.186</ele>
        <time>2015-03-19T08:17:32Z</time>
      </trkpt>
      <trkpt lat="38.716162" lon="-9.122175">
        <ele>40.513</ele>
        <time>2015-03-19T08:17:44Z</time>
      </trkpt>
      <trkpt lat="38.716432" lon="-9.121963">
        <ele>40.028</ele>
        <time>2015-03-19T08:17:55Z</time>
      </trkpt>
      <trkpt lat="38.716607" lon="-9.121715">
        <ele>36.789</ele>
        <time>2015-03-19T08:18:02Z</time>
      </trkpt>
      <trkpt lat="38.716664" lon="-9.121608">
        <ele>36.217</ele>
        <time>2015-03-19T08:18:04Z</time>
      </trkpt>
      <trkpt lat="38.716761" lon="-9.121451">
        <ele>34.307</ele>
        <time>2015-03-19T08:18:07Z</time>
      </trkpt>
      <trkpt lat="38.717100" lon="-9.121447">
        <ele>33.311</ele>
        <time>2015-03-19T08:18:14Z</time>
      </trkpt>
      <trkpt lat="38.717137" lon="-9.121484">
        <ele>33.314</ele>
        <time>2015-03-19T08:18:15Z</time>
      </trkpt>
      <trkpt lat="38.717389" lon="-9.121793">
        <ele>31.986</ele>
        <time>2015-03-19T08:18:24Z</time>
      </trkpt>
      <trkpt lat="38.717475" lon="-9.121746">
        <ele>30.986</ele>
        <time>2015-03-19T08:18:31Z</time>
      </trkpt>
      <trkpt lat="38.717623" lon="-9.121653">
        <ele>30.984</ele>
        <time>2015-03-19T08:18:39Z</time>
      </trkpt>
      <trkpt lat="38.717630" lon="-9.121577">
        <ele>30.979</ele>
        <time>2015-03-19T08:18:41Z</time>
      </trkpt>
      <trkpt lat="38.717500" lon="-9.121102">
        <ele>30.996</ele>
        <time>2015-03-19T08:18:56Z</time>
      </trkpt>
      <trkpt lat="38.717410" lon="-9.120666">
        <ele>33.316</ele>
        <time>2015-03-19T08:19:11Z</time>
      </trkpt>
      <trkpt lat="38.717408" lon="-9.120081">
        <ele>34.776</ele>
        <time>2015-03-19T08:19:29Z</time>
      </trkpt>
      <trkpt lat="38.717561" lon="-9.119703">
        <ele>31.913</ele>
        <time>2015-03-19T08:19:37Z</time>
      </trkpt>
      <trkpt lat="38.717701" lon="-9.119419">
        <ele>29.007</ele>
        <time>2015-03-19T08:19:42Z</time>
      </trkpt>
      <trkpt lat="38.717769" lon="-9.119316">
        <ele>28.070</ele>
        <time>2015-03-19T08:19:44Z</time>
      </trkpt>
      <trkpt lat="38.717866" lon="-9.119154">
        <ele>26.643</ele>
        <time>2015-03-19T08:19:49Z</time>
      </trkpt>
      <trkpt lat="38.717906" lon="-9.119051">
        <ele>26.675</ele>
        <time>2015-03-19T08:19:54Z</time>
      </trkpt>
      <trkpt lat="38.718331" lon="-9.118523">
        <ele>25.125</ele>
        <time>2015-03-19T08:20:11Z</time>
      </trkpt>
      <trkpt lat="38.718475" lon="-9.118389">
        <ele>24.233</ele>
        <time>2015-03-19T08:20:15Z</time>
      </trkpt>
      <trkpt lat="38.718971" lon="-9.118211">
        <ele>23.748</ele>
        <time>2015-03-19T08:20:28Z</time>
      </trkpt>
      <trkpt lat="38.719048" lon="-9.118176">
        <ele>23.795</ele>
        <time>2015-03-19T08:20:30Z</time>
      </trkpt>
      <trkpt lat="38.719560" lon="-9.118006">
        <ele>23.791</ele>
        <time>2015-03-19T08:20:43Z</time>
      </trkpt>
      <trkpt lat="38.719726" lon="-9.117828">
        <ele>22.781</ele>
        <time>2015-03-19T08:20:48Z</time>
      </trkpt>
      <trkpt lat="38.719927" lon="-9.117436">
        <ele>26.119</ele>
        <time>2015-03-19T08:21:02Z</time>
      </trkpt>
      <trkpt lat="38.720281" lon="-9.117003">
        <ele>27.507</ele>
        <time>2015-03-19T08:21:21Z</time>
      </trkpt>
      <trkpt lat="38.720675" lon="-9.116768">
        <ele>29.038</ele>
        <time>2015-03-19T08:21:39Z</time>
      </trkpt>
      <trkpt lat="38.721001" lon="-9.116601">
        <ele>29.941</ele>
        <time>2015-03-19T08:21:53Z</time>
      </trkpt>
      <trkpt lat="38.721294" lon="-9.116447">
        <ele>30.973</ele>
        <time>2015-03-19T08:22:06Z</time>
      </trkpt>
      <trkpt lat="38.721624" lon="-9.116232">
        <ele>31.993</ele>
        <time>2015-03-19T08:22:21Z</time>
      </trkpt>
      <trkpt lat="38.721838" lon="-9.116111">
        <ele>32.391</ele>
        <time>2015-03-19T08:22:30Z</time>
      </trkpt>
      <trkpt lat="38.722172" lon="-9.115893">
        <ele>32.366</ele>
        <time>2015-03-19T08:22:43Z</time>
      </trkpt>
      <trkpt lat="38.722680" lon="-9.115522">
        <ele>29.923</ele>
        <time>2015-03-19T08:23:00Z</time>
      </trkpt>
      <trkpt lat="38.722771" lon="-9.115445">
        <ele>29.911</ele>
        <time>2015-03-19T08:23:03Z</time>
      </trkpt>
      <trkpt lat="38.722844" lon="-9.115233">
        <ele>29.521</ele>
        <time>2015-03-19T08:23:08Z</time>
      </trkpt>
      <trkpt lat="38.722928" lon="-9.114997">
        <ele>28.003</ele>
        <time>2015-03-19T08:23:12Z</time>
      </trkpt>
      <trkpt lat="38.723204" lon="-9.114673">
        <ele>25.107</ele>
        <time>2015-03-19T08:23:18Z</time>
      </trkpt>
      <trkpt lat="38.723721" lon="-9.114292">
        <ele>21.350</ele>
        <time>2015-03-19T08:23:26Z</time>
      </trkpt>
      <trkpt lat="38.723995" lon="-9.114081">
        <ele>19.463</ele>
        <time>2015-03-19T08:23:30Z</time>
      </trkpt>
      <trkpt lat="38.724476" lon="-9.113629">
        <ele>17.075</ele>
        <time>2015-03-19T08:23:40Z</time>
      </trkpt>
      <trkpt lat="38.724522" lon="-9.113649">
        <ele>17.085</ele>
        <time>2015-03-19T08:24:12Z</time>
      </trkpt>
      <trkpt lat="38.724595" lon="-9.113584">
        <ele>17.043</ele>
        <time>2015-03-19T08:24:17Z</time>
      </trkpt>
      <trkpt lat="38.725010" lon="-9.113306">
        <ele>17.018</ele>
        <time>2015-03-19T08:24:32Z</time>
      </trkpt>
      <trkpt lat="38.725203" lon="-9.113227">
        <ele>17.075</ele>
        <time>2015-03-19T08:24:46Z</time>
      </trkpt>
      <trkpt lat="38.725282" lon="-9.113187">
        <ele>16.559</ele>
        <time>2015-03-19T08:25:17Z</time>
      </trkpt>
      <trkpt lat="38.725547" lon="-9.112996">
        <ele>17.003</ele>
        <time>2015-03-19T08:25:27Z</time>
      </trkpt>
      <trkpt lat="38.726028" lon="-9.112295">
        <ele>15.523</ele>
        <time>2015-03-19T08:25:44Z</time>
      </trkpt>
      <trkpt lat="38.726444" lon="-9.111604">
        <ele>16.007</ele>
        <time>2015-03-19T08:26:02Z</time>
      </trkpt>
      <trkpt lat="38.726883" lon="-9.110988">
        <ele>15.524</ele>
        <time>2015-03-19T08:26:19Z</time>
      </trkpt>
      <trkpt lat="38.727406" lon="-9.110334">
        <ele>15.547</ele>
        <time>2015-03-19T08:26:38Z</time>
      </trkpt>
      <trkpt lat="38.727949" lon="-9.109818">
        <ele>15.569</ele>
        <time>2015-03-19T08:26:56Z</time>
      </trkpt>
      <trkpt lat="38.728357" lon="-9.109470">
        <ele>17.059</ele>
        <time>2015-03-19T08:27:13Z</time>
      </trkpt>
      <trkpt lat="38.728740" lon="-9.109124">
        <ele>18.487</ele>
        <time>2015-03-19T08:27:32Z</time>
      </trkpt>
      <trkpt lat="38.728990" lon="-9.108836">
        <ele>21.822</ele>
        <time>2015-03-19T08:27:48Z</time>
      </trkpt>
      <trkpt lat="38.729294" lon="-9.108526">
        <ele>24.249</ele>
        <time>2015-03-19T08:28:06Z</time>
      </trkpt>
      <trkpt lat="38.729541" lon="-9.108292">
        <ele>26.656</ele>
        <time>2015-03-19T08:28:21Z</time>
      </trkpt>
      <trkpt lat="38.729863" lon="-9.108132">
        <ele>25.659</ele>
        <time>2015-03-19T08:28:33Z</time>
      </trkpt>
      <trkpt lat="38.730271" lon="-9.107901">
        <ele>23.714</ele>
        <time>2015-03-19T08:28:42Z</time>
      </trkpt>
      <trkpt lat="38.730805" lon="-9.107454">
        <ele>21.807</ele>
        <time>2015-03-19T08:28:53Z</time>
      </trkpt>
      <trkpt lat="38.731558" lon="-9.106848">
        <ele>18.464</ele>
        <time>2015-03-19T08:29:08Z</time>
      </trkpt>
      <trkpt lat="38.732138" lon="-9.106381">
        <ele>17.087</ele>
        <time>2015-03-19T08:29:19Z</time>
      </trkpt>
      <trkpt lat="38.732304" lon="-9.106250">
        <ele>17.099</ele>
        <time>2015-03-19T08:29:23Z</time>
      </trkpt>
      <trkpt lat="38.732875" lon="-9.105680">
        <ele>19.479</ele>
        <time>2015-03-19T08:29:42Z</time>
      </trkpt>
      <trkpt lat="38.733430" lon="-9.105441">
        <ele>19.417</ele>
        <time>2015-03-19T08:29:57Z</time>
      </trkpt>
      <trkpt lat="38.733659" lon="-9.105381">
        <ele>17.922</ele>
        <time>2015-03-19T08:30:03Z</time>
      </trkpt>
      <trkpt lat="38.734120" lon="-9.105261">
        <ele>16.529</ele>
        <time>2015-03-19T08:30:13Z</time>
      </trkpt>
      <trkpt lat="38.734182" lon="-9.105241">
        <ele>16.062</ele>
        <time>2015-03-19T08:30:14Z</time>
      </trkpt>
      <trkpt lat="38.734694" lon="-9.104894">
        <ele>16.083</ele>
        <time>2015-03-19T08:30:28Z</time>
      </trkpt>
      <trkpt lat="38.735310" lon="-9.104433">
        <ele>17.411</ele>
        <time>2015-03-19T08:30:47Z</time>
      </trkpt>
      <trkpt lat="38.735940" lon="-9.104105">
        <ele>17.007</ele>
        <time>2015-03-19T08:31:04Z</time>
      </trkpt>
      <trkpt lat="38.736535" lon="-9.103863">
        <ele>17.415</ele>
        <time>2015-03-19T08:31:21Z</time>
      </trkpt>
      <trkpt lat="38.737167" lon="-9.103626">
        <ele>18.448</ele>
        <time>2015-03-19T08:31:39Z</time>
      </trkpt>
      <trkpt lat="38.737980" lon="-9.103382">
        <ele>19.430</ele>
        <time>2015-03-19T08:32:01Z</time>
      </trkpt>
      <trkpt lat="38.738454" lon="-9.103254">
        <ele>19.460</ele>
        <time>2015-03-19T08:32:14Z</time>
      </trkpt>
      <trkpt lat="38.738685" lon="-9.103184">
        <ele>19.428</ele>
        <time>2015-03-19T08:32:20Z</time>
      </trkpt>
      <trkpt lat="38.739289" lon="-9.102977">
        <ele>19.853</ele>
        <time>2015-03-19T08:32:36Z</time>
      </trkpt>
      <trkpt lat="38.739776" lon="-9.102859">
        <ele>19.840</ele>
        <time>2015-03-19T08:32:49Z</time>
      </trkpt>
      <trkpt lat="38.740541" lon="-9.102700">
        <ele>17.466</ele>
        <time>2015-03-19T08:33:06Z</time>
      </trkpt>
      <trkpt lat="38.741399" lon="-9.102537">
        <ele>15.529</ele>
        <time>2015-03-19T08:33:23Z</time>
      </trkpt>
      <trkpt lat="38.742130" lon="-9.102257">
        <ele>15.521</ele>
        <time>2015-03-19T08:33:43Z</time>
      </trkpt>
      <trkpt lat="38.742705" lon="-9.101966">
        <ele>15.507</ele>
        <time>2015-03-19T08:34:00Z</time>
      </trkpt>
      <trkpt lat="38.743355" lon="-9.101669">
        <ele>17.445</ele>
        <time>2015-03-19T08:34:20Z</time>
      </trkpt>
      <trkpt lat="38.743778" lon="-9.101446">
        <ele>18.478</ele>
        <time>2015-03-19T08:34:38Z</time>
      </trkpt>
      <trkpt lat="38.743975" lon="-9.101345">
        <ele>19.850</ele>
        <time>2015-03-19T08:34:50Z</time>
      </trkpt>
      <trkpt lat="38.744136" lon="-9.101255">
        <ele>20.340</ele>
        <time>2015-03-19T08:35:21Z</time>
      </trkpt>
      <trkpt lat="38.744353" lon="-9.101377">
        <ele>21.378</ele>
        <time>2015-03-19T08:35:32Z</time>
      </trkpt>
      <trkpt lat="38.744633" lon="-9.101430">
        <ele>23.733</ele>
        <time>2015-03-19T08:35:47Z</time>
      </trkpt>
      <trkpt lat="38.744937" lon="-9.101474">
        <ele>25.150</ele>
        <time>2015-03-19T08:36:03Z</time>
      </trkpt>
      <trkpt lat="38.745230" lon="-9.101474">
        <ele>26.687</ele>
        <time>2015-03-19T08:36:18Z</time>
      </trkpt>
      <trkpt lat="38.745510" lon="-9.101480">
        <ele>28.042</ele>
        <time>2015-03-19T08:36:33Z</time>
      </trkpt>
      <trkpt lat="38.745834" lon="-9.101470">
        <ele>29.526</ele>
        <time>2015-03-19T08:36:50Z</time>
      </trkpt>
      <trkpt lat="38.746167" lon="-9.101444">
        <ele>29.907</ele>
        <time>2015-03-19T08:37:05Z</time>
      </trkpt>
      <trkpt lat="38.746649" lon="-9.101357">
        <ele>30.997</ele>
        <time>2015-03-19T08:37:23Z</time>
      </trkpt>
      <trkpt lat="38.747121" lon="-9.101279">
        <ele>30.960</ele>
        <time>2015-03-19T08:37:39Z</time>
      </trkpt>
      <trkpt lat="38.747548" lon="-9.101272">
        <ele>31.962</ele>
        <time>2015-03-19T08:37:54Z</time>
      </trkpt>
      <trkpt lat="38.747949" lon="-9.101279">
        <ele>32.342</ele>
        <time>2015-03-19T08:38:09Z</time>
      </trkpt>
      <trkpt lat="38.748049" lon="-9.101295">
        <ele>32.350</ele>
        <time>2015-03-19T08:38:13Z</time>
      </trkpt>
      <trkpt lat="38.748188" lon="-9.101292">
        <ele>32.345</ele>
        <time>2015-03-19T08:38:18Z</time>
      </trkpt>
      <trkpt lat="38.748746" lon="-9.101293">
        <ele>33.392</ele>
        <time>2015-03-19T08:38:38Z</time>
      </trkpt>
      <trkpt lat="38.749134" lon="-9.101263">
        <ele>33.314</ele>
        <time>2015-03-19T08:38:53Z</time>
      </trkpt>
      <trkpt lat="38.749677" lon="-9.101175">
        <ele>33.854</ele>
        <time>2015-03-19T08:39:10Z</time>
      </trkpt>
      <trkpt lat="38.750298" lon="-9.100955">
        <ele>33.809</ele>
        <time>2015-03-19T08:39:28Z</time>
      </trkpt>
      <trkpt lat="38.750861" lon="-9.100814">
        <ele>34.707</ele>
        <time>2015-03-19T08:39:44Z</time>
      </trkpt>
      <trkpt lat="38.751153" lon="-9.100774">
        <ele>34.710</ele>
        <time>2015-03-19T08:39:55Z</time>
      </trkpt>
      <trkpt lat="38.751640" lon="-9.100701">
        <ele>35.223</ele>
        <time>2015-03-19T08:40:09Z</time>
      </trkpt>
      <trkpt lat="38.752148" lon="-9.100684">
        <ele>35.795</ele>
        <time>2015-03-19T08:40:24Z</time>
      </trkpt>
      <trkpt lat="38.752643" lon="-9.100570">
        <ele>36.755</ele>
        <time>2015-03-19T08:40:39Z</time>
      </trkpt>
      <trkpt lat="38.753192" lon="-9.100469">
        <ele>37.693</ele>
        <time>2015-03-19T08:40:55Z</time>
      </trkpt>
      <trkpt lat="38.753848" lon="-9.100451">
        <ele>37.688</ele>
        <time>2015-03-19T08:41:12Z</time>
      </trkpt>
      <trkpt lat="38.754510" lon="-9.100391">
        <ele>38.635</ele>
        <time>2015-03-19T08:41:30Z</time>
      </trkpt>
      <trkpt lat="38.754765" lon="-9.100317">
        <ele>36.797</ele>
        <time>2015-03-19T08:41:35Z</time>
      </trkpt>
      <trkpt lat="38.755361" lon="-9.100239">
        <ele>35.723</ele>
        <time>2015-03-19T08:41:47Z</time>
      </trkpt>
      <trkpt lat="38.756137" lon="-9.100149">
        <ele>34.325</ele>
        <time>2015-03-19T08:42:06Z</time>
      </trkpt>
      <trkpt lat="38.756371" lon="-9.100124">
        <ele>34.307</ele>
        <time>2015-03-19T08:42:12Z</time>
      </trkpt>
      <trkpt lat="38.756375" lon="-9.099927">
        <ele>33.838</ele>
        <time>2015-03-19T08:42:17Z</time>
      </trkpt>
      <trkpt lat="38.756054" lon="-9.099208">
        <ele>32.811</ele>
        <time>2015-03-19T08:42:34Z</time>
      </trkpt>
      <trkpt lat="38.756036" lon="-9.099150">
        <ele>34.353</ele>
        <time>2015-03-19T08:42:36Z</time>
      </trkpt>
      <trkpt lat="38.756107" lon="-9.098939">
        <ele>32.863</ele>
        <time>2015-03-19T08:42:48Z</time>
      </trkpt>
      <trkpt lat="38.756190" lon="-9.099078">
        <ele>32.881</ele>
        <time>2015-03-19T08:42:57Z</time>
      </trkpt>
      <trkpt lat="38.756288" lon="-9.099029">
        <ele>31.946</ele>
        <time>2015-03-19T08:43:00Z</time>
      </trkpt>
      <trkpt lat="38.756646" lon="-9.098750">
        <ele>29.013</ele>
        <time>2015-03-19T08:43:08Z</time>
      </trkpt>
      <trkpt lat="38.757053" lon="-9.098458">
        <ele>26.197</ele>
        <time>2015-03-19T08:43:20Z</time>
      </trkpt>
      <trkpt lat="38.757713" lon="-9.097961">
        <ele>23.723</ele>
        <time>2015-03-19T08:43:36Z</time>
      </trkpt>
      <trkpt lat="38.758209" lon="-9.097557">
        <ele>20.825</ele>
        <time>2015-03-19T08:43:50Z</time>
      </trkpt>
      <trkpt lat="38.758556" lon="-9.097315">
        <ele>20.307</ele>
        <time>2015-03-19T08:44:01Z</time>
      </trkpt>
      <trkpt lat="38.759240" lon="-9.096780">
        <ele>18.478</ele>
        <time>2015-03-19T08:44:18Z</time>
      </trkpt>
      <trkpt lat="38.759758" lon="-9.096492">
        <ele>17.911</ele>
        <time>2015-03-19T08:44:32Z</time>
      </trkpt>
      <trkpt lat="38.760555" lon="-9.096434">
        <ele>17.043</ele>
        <time>2015-03-19T08:44:52Z</time>
      </trkpt>
      <trkpt lat="38.761220" lon="-9.096423">
        <ele>16.543</ele>
        <time>2015-03-19T08:45:09Z</time>
      </trkpt>
      <trkpt lat="38.761525" lon="-9.096580">
        <ele>16.521</ele>
        <time>2015-03-19T08:45:20Z</time>
      </trkpt>
      <trkpt lat="38.761859" lon="-9.096523">
        <ele>16.036</ele>
        <time>2015-03-19T08:45:32Z</time>
      </trkpt>
      <trkpt lat="38.761923" lon="-9.096447">
        <ele>16.063</ele>
        <time>2015-03-19T08:45:35Z</time>
      </trkpt>
      <trkpt lat="38.762011" lon="-9.096226">
        <ele>16.534</ele>
        <time>2015-03-19T08:45:45Z</time>
      </trkpt>
      <trkpt lat="38.762063" lon="-9.096236">
        <ele>16.555</ele>
        <time>2015-03-19T08:45:47Z</time>
      </trkpt>
      <trkpt lat="38.762542" lon="-9.096229">
        <ele>16.510</ele>
        <time>2015-03-19T08:46:02Z</time>
      </trkpt>
      <trkpt lat="38.763083" lon="-9.096188">
        <ele>16.507</ele>
        <time>2015-03-19T08:46:18Z</time>
      </trkpt>
      <trkpt lat="38.763497" lon="-9.095997">
        <ele>16.582</ele>
        <time>2015-03-19T08:46:32Z</time>
      </trkpt>
      <trkpt lat="38.763815" lon="-9.095915">
        <ele>16.585</ele>
        <time>2015-03-19T08:46:43Z</time>
      </trkpt>
      <trkpt lat="38.764306" lon="-9.095887">
        <ele>16.567</ele>
        <time>2015-03-19T08:46:58Z</time>
      </trkpt>
      <trkpt lat="38.764863" lon="-9.095843">
        <ele>16.577</ele>
        <time>2015-03-19T08:47:15Z</time>
      </trkpt>
      <trkpt lat="38.765217" lon="-9.095788">
        <ele>17.955</ele>
        <time>2015-03-19T08:47:27Z</time>
      </trkpt>
      <trkpt lat="38.765257" lon="-9.095660">
        <ele>16.560</ele>
        <time>2015-03-19T08:47:33Z</time>
      </trkpt>
      <trkpt lat="38.765369" lon="-9.095618">
        <ele>16.537</ele>
        <time>2015-03-19T08:47:47Z</time>
      </trkpt>
      <trkpt lat="38.765388" lon="-9.095187">
        <ele>16.568</ele>
        <time>2015-03-19T08:49:39Z</time>
      </trkpt>
      <trkpt lat="38.765284" lon="-9.094769">
        <ele>16.042</ele>
        <time>2015-03-19T08:49:51Z</time>
      </trkpt>
      <trkpt lat="38.765336" lon="-9.094747">
        <ele>15.526</ele>
        <time>2015-03-19T08:50:13Z</time>
      </trkpt>
      <trkpt lat="38.765508" lon="-9.094726">
        <ele>15.507</ele>
        <time>2015-03-19T08:50:57Z</time>
      </trkpt>
      <trkpt lat="38.766067" lon="-9.094651">
        <ele>15.585</ele>
        <time>2015-03-19T08:51:14Z</time>
      </trkpt>
      <trkpt lat="38.766548" lon="-9.094678">
        <ele>15.088</ele>
        <time>2015-03-19T08:51:28Z</time>
      </trkpt>
      <trkpt lat="38.766937" lon="-9.094535">
        <ele>15.040</ele>
        <time>2015-03-19T08:51:40Z</time>
      </trkpt>
      <trkpt lat="38.767289" lon="-9.093942">
        <ele>15.010</ele>
        <time>2015-03-19T08:51:56Z</time>
      </trkpt>
      <trkpt lat="38.767325" lon="-9.093291">
        <ele>16.058</ele>
        <time>2015-03-19T08:52:10Z</time>
      </trkpt>
      <trkpt lat="38.767280" lon="-9.092317">
        <ele>16.013</ele>
        <time>2015-03-19T08:52:30Z</time>
      </trkpt>
      <trkpt lat="38.767418" lon="-9.092115">
        <ele>16.040</ele>
        <time>2015-03-19T08:52:38Z</time>
      </trkpt>
      <trkpt lat="38.767474" lon="-9.092119">
        <ele>16.079</ele>
        <time>2015-03-19T08:52:40Z</time>
      </trkpt>
      <trkpt lat="38.767956" lon="-9.092079">
        <ele>16.005</ele>
        <time>2015-03-19T08:52:55Z</time>
      </trkpt>
      <trkpt lat="38.768294" lon="-9.092102">
        <ele>16.025</ele>
        <time>2015-03-19T08:53:06Z</time>
      </trkpt>
      <trkpt lat="38.768694" lon="-9.092099">
        <ele>14.607</ele>
        <time>2015-03-19T08:53:19Z</time>
      </trkpt>
      <trkpt lat="38.769174" lon="-9.092039">
        <ele>14.186</ele>
        <time>2015-03-19T08:53:32Z</time>
      </trkpt>
      <trkpt lat="38.769487" lon="-9.091969">
        <ele>14.159</ele>
        <time>2015-03-19T08:53:42Z</time>
      </trkpt>
      <trkpt lat="38.769680" lon="-9.091945">
        <ele>15.571</ele>
        <time>2015-03-19T08:53:48Z</time>
      </trkpt>
      <trkpt lat="38.770043" lon="-9.091926">
        <ele>15.581</ele>
        <time>2015-03-19T08:54:00Z</time>
      </trkpt>
      <trkpt lat="38.770401" lon="-9.091885">
        <ele>15.539</ele>
        <time>2015-03-19T08:54:12Z</time>
      </trkpt>
      <trkpt lat="38.770773" lon="-9.091828">
        <ele>15.514</ele>
        <time>2015-03-19T08:54:22Z</time>
      </trkpt>
      <trkpt lat="38.771299" lon="-9.091774">
        <ele>15.511</ele>
        <time>2015-03-19T08:54:37Z</time>
      </trkpt>
      <trkpt lat="38.771738" lon="-9.091745">
        <ele>15.553</ele>
        <time>2015-03-19T08:54:50Z</time>
      </trkpt>
      <trkpt lat="38.772183" lon="-9.091715">
        <ele>15.504</ele>
        <time>2015-03-19T08:55:05Z</time>
      </trkpt>
      <trkpt lat="38.772543" lon="-9.091709">
        <ele>15.514</ele>
        <time>2015-03-19T08:55:16Z</time>
      </trkpt>
      <trkpt lat="38.772886" lon="-9.091672">
        <ele>15.507</ele>
        <time>2015-03-19T08:55:27Z</time>
      </trkpt>
      <trkpt lat="38.773403" lon="-9.091623">
        <ele>15.554</ele>
        <time>2015-03-19T08:55:41Z</time>
      </trkpt>
      <trkpt lat="38.773748" lon="-9.091664">
        <ele>15.027</ele>
        <time>2015-03-19T08:55:53Z</time>
      </trkpt>
      <trkpt lat="38.774092" lon="-9.091653">
        <ele>16.099</ele>
        <time>2015-03-19T08:56:04Z</time>
      </trkpt>
      <trkpt lat="38.774323" lon="-9.091698">
        <ele>16.519</ele>
        <time>2015-03-19T08:56:16Z</time>
      </trkpt>
      <trkpt lat="38.774468" lon="-9.091689">
        <ele>18.437</ele>
        <time>2015-03-19T09:03:39Z</time>
      </trkpt>
      <trkpt lat="38.774509" lon="-9.091724">
        <ele>17.932</ele>
        <time>2015-03-19T09:04:41Z</time>
      </trkpt>
      <trkpt lat="38.774768" lon="-9.091717">
        <ele>18.419</ele>
        <time>2015-03-19T09:04:54Z</time>
      </trkpt>
      <trkpt lat="38.775065" lon="-9.091456">
        <ele>15.595</ele>
        <time>2015-03-19T09:05:08Z</time>
      </trkpt>
      <trkpt lat="38.775552" lon="-9.091369">
        <ele>16.049</ele>
        <time>2015-03-19T09:05:23Z</time>
      </trkpt>
      <trkpt lat="38.775611" lon="-9.091361">
        <ele>16.023</ele>
        <time>2015-03-19T09:05:32Z</time>
      </trkpt>
      <trkpt lat="38.775745" lon="-9.091341">
        <ele>16.007</ele>
        <time>2015-03-19T09:06:17Z</time>
      </trkpt>
      <trkpt lat="38.776440" lon="-9.091314">
        <ele>16.518</ele>
        <time>2015-03-19T09:06:38Z</time>
      </trkpt>
      <trkpt lat="38.777091" lon="-9.091258">
        <ele>16.071</ele>
        <time>2015-03-19T09:06:57Z</time>
      </trkpt>
      <trkpt lat="38.777824" lon="-9.091194">
        <ele>16.033</ele>
        <time>2015-03-19T09:07:18Z</time>
      </trkpt>
      <trkpt lat="38.778618" lon="-9.091120">
        <ele>16.083</ele>
        <time>2015-03-19T09:07:41Z</time>
      </trkpt>
      <trkpt lat="38.779501" lon="-9.091067">
        <ele>16.031</ele>
        <time>2015-03-19T09:08:06Z</time>
      </trkpt>
      <trkpt lat="38.780090" lon="-9.091023">
        <ele>16.016</ele>
        <time>2015-03-19T09:08:23Z</time>
      </trkpt>
      <trkpt lat="38.780907" lon="-9.090952">
        <ele>16.063</ele>
        <time>2015-03-19T09:08:46Z</time>
      </trkpt>
      <trkpt lat="38.781670" lon="-9.090891">
        <ele>16.032</ele>
        <time>2015-03-19T09:09:09Z</time>
      </trkpt>
      <trkpt lat="38.782354" lon="-9.090845">
        <ele>15.592</ele>
        <time>2015-03-19T09:09:30Z</time>
      </trkpt>
      <trkpt lat="38.783047" lon="-9.090788">
        <ele>17.011</ele>
        <time>2015-03-19T09:09:51Z</time>
      </trkpt>
      <trkpt lat="38.783587" lon="-9.090767">
        <ele>16.507</ele>
        <time>2015-03-19T09:10:08Z</time>
      </trkpt>
      <trkpt lat="38.784074" lon="-9.091034">
        <ele>17.462</ele>
        <time>2015-03-19T09:10:25Z</time>
      </trkpt>
      <trkpt lat="38.784380" lon="-9.091264">
        <ele>17.415</ele>
        <time>2015-03-19T09:10:41Z</time>
      </trkpt>
      <trkpt lat="38.784498" lon="-9.091397">
        <ele>16.087</ele>
        <time>2015-03-19T09:11:11Z</time>
      </trkpt>
      <trkpt lat="38.785007" lon="-9.091910">
        <ele>17.437</ele>
        <time>2015-03-19T09:11:30Z</time>
      </trkpt>
      <trkpt lat="38.785480" lon="-9.092274">
        <ele>18.455</ele>
        <time>2015-03-19T09:11:47Z</time>
      </trkpt>
      <trkpt lat="38.786042" lon="-9.092345">
        <ele>19.430</ele>
        <time>2015-03-19T09:12:04Z</time>
      </trkpt>
      <trkpt lat="38.786474" lon="-9.092317">
        <ele>18.987</ele>
        <time>2015-03-19T09:12:19Z</time>
      </trkpt>
      <trkpt lat="38.787061" lon="-9.092222">
        <ele>17.067</ele>
        <time>2015-03-19T09:12:32Z</time>
      </trkpt>
      <trkpt lat="38.787808" lon="-9.091875">
        <ele>15.581</ele>
        <time>2015-03-19T09:12:51Z</time>
      </trkpt>
      <trkpt lat="38.788360" lon="-9.091454">
        <ele>15.019</ele>
        <time>2015-03-19T09:13:07Z</time>
      </trkpt>
      <trkpt lat="38.789040" lon="-9.090845">
        <ele>15.007</ele>
        <time>2015-03-19T09:13:29Z</time>
      </trkpt>
      <trkpt lat="38.789626" lon="-9.090735">
        <ele>14.665</ele>
        <time>2015-03-19T09:13:45Z</time>
      </trkpt>
      <trkpt lat="38.790384" lon="-9.090456">
        <ele>14.678</ele>
        <time>2015-03-19T09:14:06Z</time>
      </trkpt>
      <trkpt lat="38.790921" lon="-9.090300">
        <ele>16.060</ele>
        <time>2015-03-19T09:14:21Z</time>
      </trkpt>
      <trkpt lat="38.791567" lon="-9.090417">
        <ele>15.520</ele>
        <time>2015-03-19T09:14:38Z</time>
      </trkpt>
      <trkpt lat="38.792347" lon="-9.090644">
        <ele>15.578</ele>
        <time>2015-03-19T09:14:59Z</time>
      </trkpt>
      <trkpt lat="38.793031" lon="-9.090613">
        <ele>15.523</ele>
        <time>2015-03-19T09:15:17Z</time>
      </trkpt>
      <trkpt lat="38.793704" lon="-9.090597">
        <ele>15.570</ele>
        <time>2015-03-19T09:15:35Z</time>
      </trkpt>
      <trkpt lat="38.794114" lon="-9.090738">
        <ele>16.065</ele>
        <time>2015-03-19T09:15:48Z</time>
      </trkpt>
      <trkpt lat="38.794492" lon="-9.090913">
        <ele>16.068</ele>
        <time>2015-03-19T09:16:00Z</time>
      </trkpt>
      <trkpt lat="38.794861" lon="-9.091177">
        <ele>16.014</ele>
        <time>2015-03-19T09:16:12Z</time>
      </trkpt>
      <trkpt lat="38.795582" lon="-9.091410">
        <ele>16.007</ele>
        <time>2015-03-19T09:16:32Z</time>
      </trkpt>
      <trkpt lat="38.795926" lon="-9.092004">
        <ele>16.595</ele>
        <time>2015-03-19T09:16:48Z</time>
      </trkpt>
      <trkpt lat="38.795972" lon="-9.093082">
        <ele>16.598</ele>
        <time>2015-03-19T09:17:09Z</time>
      </trkpt>
      <trkpt lat="38.796028" lon="-9.094105">
        <ele>16.050</ele>
        <time>2015-03-19T09:17:29Z</time>
      </trkpt>
      <trkpt lat="38.796073" lon="-9.095069">
        <ele>16.050</ele>
        <time>2015-03-19T09:17:48Z</time>
      </trkpt>
      <trkpt lat="38.796110" lon="-9.095959">
        <ele>16.028</ele>
        <time>2015-03-19T09:18:05Z</time>
      </trkpt>
      <trkpt lat="38.796084" lon="-9.097045">
        <ele>16.033</ele>
        <time>2015-03-19T09:18:26Z</time>
      </trkpt>
      <trkpt lat="38.795957" lon="-9.097847">
        <ele>16.050</ele>
        <time>2015-03-19T09:18:42Z</time>
      </trkpt>
      <trkpt lat="38.795954" lon="-9.098514">
        <ele>16.514</ele>
        <time>2015-03-19T09:18:56Z</time>
      </trkpt>
      <trkpt lat="38.796086" lon="-9.099048">
        <ele>16.554</ele>
        <time>2015-03-19T09:19:07Z</time>
      </trkpt>
      <trkpt lat="38.796204" lon="-9.099123">
        <ele>16.009</ele>
        <time>2015-03-19T09:19:11Z</time>
      </trkpt>
      <trkpt lat="38.796275" lon="-9.099133">
        <ele>16.007</ele>
        <time>2015-03-19T09:19:13Z</time>
      </trkpt>
      <trkpt lat="38.796370" lon="-9.099515">
        <ele>16.030</ele>
        <time>2015-03-19T09:19:23Z</time>
      </trkpt>
      <trkpt lat="38.796503" lon="-9.100072">
        <ele>18.493</ele>
        <time>2015-03-19T09:19:39Z</time>
      </trkpt>
      <trkpt lat="38.796794" lon="-9.100797">
        <ele>16.575</ele>
        <time>2015-03-19T09:19:57Z</time>
      </trkpt>
      <trkpt lat="38.797011" lon="-9.101564">
        <ele>15.055</ele>
        <time>2015-03-19T09:20:14Z</time>
      </trkpt>
      <trkpt lat="38.797083" lon="-9.102317">
        <ele>15.033</ele>
        <time>2015-03-19T09:20:31Z</time>
      </trkpt>
      <trkpt lat="38.797070" lon="-9.102686">
        <ele>15.028</ele>
        <time>2015-03-19T09:20:40Z</time>
      </trkpt>
      <trkpt lat="38.797051" lon="-9.103331">
        <ele>15.085</ele>
        <time>2015-03-19T09:20:54Z</time>
      </trkpt>
      <trkpt lat="38.796931" lon="-9.103860">
        <ele>15.094</ele>
        <time>2015-03-19T09:21:06Z</time>
      </trkpt>
      <trkpt lat="38.796674" lon="-9.104079">
        <ele>15.057</ele>
        <time>2015-03-19T09:21:15Z</time>
      </trkpt>
      <trkpt lat="38.796641" lon="-9.104402">
        <ele>16.022</ele>
        <time>2015-03-19T09:21:23Z</time>
      </trkpt>
      <trkpt lat="38.796652" lon="-9.104505">
        <ele>16.007</ele>
        <time>2015-03-19T09:21:26Z</time>
      </trkpt>
      <trkpt lat="38.796710" lon="-9.104530">
        <ele>16.578</ele>
        <time>2015-03-19T09:21:30Z</time>
      </trkpt>
      <trkpt lat="38.796970" lon="-9.104613">
        <ele>17.021</ele>
        <time>2015-03-19T09:21:39Z</time>
      </trkpt>
      <trkpt lat="38.797460" lon="-9.104593">
        <ele>17.083</ele>
        <time>2015-03-19T09:21:54Z</time>
      </trkpt>
      <trkpt lat="38.797622" lon="-9.104553">
        <ele>17.043</ele>
        <time>2015-03-19T09:22:04Z</time>
      </trkpt>
      <trkpt lat="38.797676" lon="-9.104882">
        <ele>15.561</ele>
        <time>2015-03-19T09:22:18Z</time>
      </trkpt>
      <trkpt lat="38.797844" lon="-9.105274">
        <ele>15.086</ele>
        <time>2015-03-19T09:22:30Z</time>
      </trkpt>
      <trkpt lat="38.798188" lon="-9.105930">
        <ele>15.053</ele>
        <time>2015-03-19T09:22:48Z</time>
      </trkpt>
      <trkpt lat="38.798528" lon="-9.106404">
        <ele>14.615</ele>
        <time>2015-03-19T09:23:02Z</time>
      </trkpt>
      <trkpt lat="38.798794" lon="-9.106479">
        <ele>14.665</ele>
        <time>2015-03-19T09:23:10Z</time>
      </trkpt>
      <trkpt lat="38.799036" lon="-9.106890">
        <ele>13.611</ele>
        <time>2015-03-19T09:23:20Z</time>
      </trkpt>
      <trkpt lat="38.799527" lon="-9.107638">
        <ele>13.607</ele>
        <time>2015-03-19T09:23:39Z</time>
      </trkpt>
      <trkpt lat="38.800045" lon="-9.108085">
        <ele>13.620</ele>
        <time>2015-03-19T09:23:55Z</time>
      </trkpt>
      <trkpt lat="38.800195" lon="-9.107842">
        <ele>13.633</ele>
        <time>2015-03-19T09:24:01Z</time>
      </trkpt>
      <trkpt lat="38.800400" lon="-9.107251">
        <ele>13.635</ele>
        <time>2015-03-19T09:24:13Z</time>
      </trkpt>
      <trkpt lat="38.800634" lon="-9.107129">
        <ele>13.125</ele>
        <time>2015-03-19T09:24:20Z</time>
      </trkpt>
      <trkpt lat="38.801050" lon="-9.107497">
        <ele>13.173</ele>
        <time>2015-03-19T09:24:34Z</time>
      </trkpt>
      <trkpt lat="38.801415" lon="-9.107739">
        <ele>13.148</ele>
        <time>2015-03-19T09:24:45Z</time>
      </trkpt>
      <trkpt lat="38.801738" lon="-9.107923">
        <ele>13.185</ele>
        <time>2015-03-19T09:24:57Z</time>
      </trkpt>
      <trkpt lat="38.801846" lon="-9.107941">
        <ele>14.129</ele>
        <time>2015-03-19T09:25:01Z</time>
      </trkpt>
      <trkpt lat="38.802218" lon="-9.107905">
        <ele>16.500</ele>
        <time>2015-03-19T09:25:16Z</time>
      </trkpt>
      <trkpt lat="38.802491" lon="-9.107810">
        <ele>16.520</ele>
        <time>2015-03-19T09:25:27Z</time>
      </trkpt>
      <trkpt lat="38.802648" lon="-9.107709">
        <ele>16.507</ele>
        <time>2015-03-19T09:26:00Z</time>
      </trkpt>
      <trkpt lat="38.803179" lon="-9.107339">
        <ele>16.531</ele>
        <time>2015-03-19T09:26:16Z</time>
      </trkpt>
      <trkpt lat="38.803777" lon="-9.106963">
        <ele>16.524</ele>
        <time>2015-03-19T09:26:33Z</time>
      </trkpt>
      <trkpt lat="38.804398" lon="-9.106600">
        <ele>16.046</ele>
        <time>2015-03-19T09:26:50Z</time>
      </trkpt>
      <trkpt lat="38.805060" lon="-9.106272">
        <ele>16.096</ele>
        <time>2015-03-19T09:27:08Z</time>
      </trkpt>
      <trkpt lat="38.805565" lon="-9.106169">
        <ele>16.014</ele>
        <time>2015-03-19T09:27:23Z</time>
      </trkpt>
      <trkpt lat="38.805888" lon="-9.106180">
        <ele>14.619</ele>
        <time>2015-03-19T09:27:33Z</time>
      </trkpt>
      <trkpt lat="38.805959" lon="-9.106199">
        <ele>14.636</ele>
        <time>2015-03-19T09:27:35Z</time>
      </trkpt>
      <trkpt lat="38.806209" lon="-9.106144">
        <ele>14.193</ele>
        <time>2015-03-19T09:27:42Z</time>
      </trkpt>
      <trkpt lat="38.806730" lon="-9.106030">
        <ele>15.065</ele>
        <time>2015-03-19T09:27:58Z</time>
      </trkpt>
      <trkpt lat="38.807181" lon="-9.105936">
        <ele>15.021</ele>
        <time>2015-03-19T09:28:11Z</time>
      </trkpt>
      <trkpt lat="38.807490" lon="-9.105896">
        <ele>15.007</ele>
        <time>2015-03-19T09:28:22Z</time>
      </trkpt>
      <trkpt lat="38.807787" lon="-9.105888">
        <ele>13.618</ele>
        <time>2015-03-19T09:28:32Z</time>
      </trkpt>
      <trkpt lat="38.807893" lon="-9.105869">
        <ele>13.691</ele>
        <time>2015-03-19T09:28:36Z</time>
      </trkpt>
      <trkpt lat="38.808232" lon="-9.105906">
        <ele>13.633</ele>
        <time>2015-03-19T09:28:49Z</time>
      </trkpt>
      <trkpt lat="38.808553" lon="-9.105926">
        <ele>13.693</ele>
        <time>2015-03-19T09:29:01Z</time>
      </trkpt>
      <trkpt lat="38.808660" lon="-9.105920">
        <ele>13.641</ele>
        <time>2015-03-19T09:29:05Z</time>
      </trkpt>
      <trkpt lat="38.808982" lon="-9.105991">
        <ele>13.686</ele>
        <time>2015-03-19T09:29:17Z</time>
      </trkpt>
      <trkpt lat="38.809359" lon="-9.106103">
        <ele>13.613</ele>
        <time>2015-03-19T09:29:32Z</time>
      </trkpt>
      <trkpt lat="38.809531" lon="-9.106175">
        <ele>13.613</ele>
        <time>2015-03-19T09:29:39Z</time>
      </trkpt>
      <trkpt lat="38.809622" lon="-9.106201">
        <ele>13.643</ele>
        <time>2015-03-19T09:29:43Z</time>
      </trkpt>
      <trkpt lat="38.809873" lon="-9.106334">
        <ele>13.607</ele>
        <time>2015-03-19T09:29:54Z</time>
      </trkpt>
      <trkpt lat="38.810056" lon="-9.106410">
        <ele>13.607</ele>
        <time>2015-03-19T09:30:02Z</time>
      </trkpt>
      <trkpt lat="38.810156" lon="-9.106480">
        <ele>13.650</ele>
        <time>2015-03-19T09:30:07Z</time>
      </trkpt>
      <trkpt lat="38.810295" lon="-9.106578">
        <ele>14.633</ele>
        <time>2015-03-19T09:30:14Z</time>
      </trkpt>
      <trkpt lat="38.810426" lon="-9.106655">
        <ele>14.625</ele>
        <time>2015-03-19T09:30:20Z</time>
      </trkpt>
      <trkpt lat="38.810542" lon="-9.106721">
        <ele>14.625</ele>
        <time>2015-03-19T09:30:25Z</time>
      </trkpt>
      <trkpt lat="38.810801" lon="-9.106895">
        <ele>14.653</ele>
        <time>2015-03-19T09:30:37Z</time>
      </trkpt>
      <trkpt lat="38.810974" lon="-9.107017">
        <ele>14.658</ele>
        <time>2015-03-19T09:30:45Z</time>
      </trkpt>
      <trkpt lat="38.811163" lon="-9.107161">
        <ele>14.675</ele>
        <time>2015-03-19T09:30:54Z</time>
      </trkpt>
      <trkpt lat="38.811440" lon="-9.107398">
        <ele>14.694</ele>
        <time>2015-03-19T09:31:08Z</time>
      </trkpt>
      <trkpt lat="38.811604" lon="-9.107568">
        <ele>14.657</ele>
        <time>2015-03-19T09:31:17Z</time>
      </trkpt>
      <trkpt lat="38.811710" lon="-9.107551">
        <ele>12.622</ele>
        <time>2015-03-19T09:31:30Z</time>
      </trkpt>
      <trkpt lat="38.811919" lon="-9.107718">
        <ele>12.207</ele>
        <time>2015-03-19T09:31:50Z</time>
      </trkpt>
      <trkpt lat="38.811884" lon="-9.107802">
        <ele>12.238</ele>
        <time>2015-03-19T09:31:57Z</time>
      </trkpt>
      <trkpt lat="38.811845" lon="-9.107884">
        <ele>13.621</ele>
        <time>2015-03-19T09:32:06Z</time>
      </trkpt>
      <trkpt lat="38.811860" lon="-9.107941">
        <ele>14.653</ele>
        <time>2015-03-19T09:32:12Z</time>
      </trkpt>
      <trkpt lat="38.811882" lon="-9.108063">
        <ele>14.673</ele>
        <time>2015-03-19T09:32:21Z</time>
      </trkpt>
      <trkpt lat="38.811953" lon="-9.108218">
        <ele>14.641</ele>
        <time>2015-03-19T09:32:33Z</time>
      </trkpt>
      <trkpt lat="38.811978" lon="-9.108290">
        <ele>14.616</ele>
        <time>2015-03-19T09:32:43Z</time>
      </trkpt>
      <trkpt lat="38.812022" lon="-9.108429">
        <ele>14.623</ele>
        <time>2015-03-19T09:32:49Z</time>
      </trkpt>
      <trkpt lat="38.812141" lon="-9.108732">
        <ele>14.625</ele>
        <time>2015-03-19T09:33:01Z</time>
      </trkpt>
      <trkpt lat="38.812292" lon="-9.109061">
        <ele>14.126</ele>
        <time>2015-03-19T09:33:14Z</time>
      </trkpt>
      <trkpt lat="38.812323" lon="-9.109137">
        <ele>14.108</ele>
        <time>2015-03-19T09:33:17Z</time>
      </trkpt>
      <trkpt lat="38.812440" lon="-9.109414">
        <ele>14.107</ele>
        <time>2015-03-19T09:33:30Z</time>
      </trkpt>
      <trkpt lat="38.812544" lon="-9.109672">
        <ele>14.111</ele>
        <time>2015-03-19T09:33:40Z</time>
      </trkpt>
      <trkpt lat="38.812622" lon="-9.109863">
        <ele>14.154</ele>
        <time>2015-03-19T09:33:50Z</time>
      </trkpt>
      <trkpt lat="38.812648" lon="-9.109913">
        <ele>14.146</ele>
        <time>2015-03-19T09:33:52Z</time>
      </trkpt>
      <trkpt lat="38.812846" lon="-9.110260">
        <ele>14.146</ele>
        <time>2015-03-19T09:34:06Z</time>
      </trkpt>
      <trkpt lat="38.813032" lon="-9.110532">
        <ele>14.144</ele>
        <time>2015-03-19T09:34:17Z</time>
      </trkpt>
      <trkpt lat="38.813292" lon="-9.110755">
        <ele>12.249</ele>
        <time>2015-03-19T09:34:32Z</time>
      </trkpt>
      <trkpt lat="38.813478" lon="-9.110904">
        <ele>13.656</ele>
        <time>2015-03-19T09:34:42Z</time>
      </trkpt>
      <trkpt lat="38.813666" lon="-9.111031">
        <ele>13.646</ele>
        <time>2015-03-19T09:34:52Z</time>
      </trkpt>
      <trkpt lat="38.813763" lon="-9.111068">
        <ele>13.688</ele>
        <time>2015-03-19T09:34:56Z</time>
      </trkpt>
      <trkpt lat="38.814038" lon="-9.111170">
        <ele>13.616</ele>
        <time>2015-03-19T09:35:08Z</time>
      </trkpt>
      <trkpt lat="38.814389" lon="-9.111300">
        <ele>13.607</ele>
        <time>2015-03-19T09:35:22Z</time>
      </trkpt>
      <trkpt lat="38.814752" lon="-9.111407">
        <ele>13.113</ele>
        <time>2015-03-19T09:35:37Z</time>
      </trkpt>
      <trkpt lat="38.815096" lon="-9.111447">
        <ele>13.146</ele>
        <time>2015-03-19T09:35:51Z</time>
      </trkpt>
      <trkpt lat="38.815416" lon="-9.111467">
        <ele>13.148</ele>
        <time>2015-03-19T09:36:03Z</time>
      </trkpt>
      <trkpt lat="38.815709" lon="-9.111450">
        <ele>13.668</ele>
        <time>2015-03-19T09:36:15Z</time>
      </trkpt>
      <trkpt lat="38.815983" lon="-9.111394">
        <ele>14.116</ele>
        <time>2015-03-19T09:36:27Z</time>
      </trkpt>
      <trkpt lat="38.816073" lon="-9.111386">
        <ele>14.121</ele>
        <time>2015-03-19T09:36:31Z</time>
      </trkpt>
      <trkpt lat="38.816321" lon="-9.111298">
        <ele>14.188</ele>
        <time>2015-03-19T09:36:42Z</time>
      </trkpt>
      <trkpt lat="38.816576" lon="-9.111179">
        <ele>14.141</ele>
        <time>2015-03-19T09:36:53Z</time>
      </trkpt>
      <trkpt lat="38.816917" lon="-9.111028">
        <ele>13.681</ele>
        <time>2015-03-19T09:37:07Z</time>
      </trkpt>
      <trkpt lat="38.817125" lon="-9.110940">
        <ele>13.609</ele>
        <time>2015-03-19T09:37:16Z</time>
      </trkpt>
      <trkpt lat="38.817227" lon="-9.110907">
        <ele>13.607</ele>
        <time>2015-03-19T09:37:21Z</time>
      </trkpt>
      <trkpt lat="38.817562" lon="-9.110757">
        <ele>13.613</ele>
        <time>2015-03-19T09:37:35Z</time>
      </trkpt>
      <trkpt lat="38.817727" lon="-9.110684">
        <ele>13.626</ele>
        <time>2015-03-19T09:37:42Z</time>
      </trkpt>
      <trkpt lat="38.817875" lon="-9.110606">
        <ele>13.698</ele>
        <time>2015-03-19T09:37:49Z</time>
      </trkpt>
      <trkpt lat="38.818059" lon="-9.110533">
        <ele>12.238</ele>
        <time>2015-03-19T09:37:57Z</time>
      </trkpt>
      <trkpt lat="38.818281" lon="-9.110455">
        <ele>12.256</ele>
        <time>2015-03-19T09:38:07Z</time>
      </trkpt>
      <trkpt lat="38.818570" lon="-9.110392">
        <ele>12.211</ele>
        <time>2015-03-19T09:38:20Z</time>
      </trkpt>
      <trkpt lat="38.818713" lon="-9.110393">
        <ele>12.228</ele>
        <time>2015-03-19T09:38:27Z</time>
      </trkpt>
      <trkpt lat="38.818771" lon="-9.110384">
        <ele>11.797</ele>
        <time>2015-03-19T09:38:37Z</time>
      </trkpt>
      <trkpt lat="38.818903" lon="-9.110377">
        <ele>11.723</ele>
        <time>2015-03-19T09:38:49Z</time>
      </trkpt>
      <trkpt lat="38.819148" lon="-9.110391">
        <ele>11.225</ele>
        <time>2015-03-19T09:39:00Z</time>
      </trkpt>
      <trkpt lat="38.819211" lon="-9.110383">
        <ele>11.207</ele>
        <time>2015-03-19T09:39:03Z</time>
      </trkpt>
      <trkpt lat="38.819486" lon="-9.110420">
        <ele>11.248</ele>
        <time>2015-03-19T09:39:16Z</time>
      </trkpt>
      <trkpt lat="38.819620" lon="-9.110445">
        <ele>11.261</ele>
        <time>2015-03-19T09:39:23Z</time>
      </trkpt>
      <trkpt lat="38.819918" lon="-9.110529">
        <ele>11.293</ele>
        <time>2015-03-19T09:39:36Z</time>
      </trkpt>
      <trkpt lat="38.820137" lon="-9.110632">
        <ele>11.263</ele>
        <time>2015-03-19T09:39:47Z</time>
      </trkpt>
      <trkpt lat="38.820249" lon="-9.110688">
        <ele>11.221</ele>
        <time>2015-03-19T09:39:53Z</time>
      </trkpt>
      <trkpt lat="38.820340" lon="-9.110708">
        <ele>12.256</ele>
        <time>2015-03-19T09:39:59Z</time>
      </trkpt>
      <trkpt lat="38.820585" lon="-9.110846">
        <ele>12.283</ele>
        <time>2015-03-19T09:40:13Z</time>
      </trkpt>
      <trkpt lat="38.820631" lon="-9.110873">
        <ele>12.277</ele>
        <time>2015-03-19T09:40:16Z</time>
      </trkpt>
      <trkpt lat="38.820700" lon="-9.110929">
        <ele>12.261</ele>
        <time>2015-03-19T09:40:20Z</time>
      </trkpt>
      <trkpt lat="38.820910" lon="-9.111066">
        <ele>12.227</ele>
        <time>2015-03-19T09:40:32Z</time>
      </trkpt>
      <trkpt lat="38.821225" lon="-9.111296">
        <ele>12.207</ele>
        <time>2015-03-19T09:40:47Z</time>
      </trkpt>
      <trkpt lat="38.821427" lon="-9.111462">
        <ele>12.256</ele>
        <time>2015-03-19T09:40:58Z</time>
      </trkpt>
      <trkpt lat="38.821631" lon="-9.111629">
        <ele>12.259</ele>
        <time>2015-03-19T09:41:09Z</time>
      </trkpt>
      <trkpt lat="38.821710" lon="-9.111683">
        <ele>12.231</ele>
        <time>2015-03-19T09:41:14Z</time>
      </trkpt>
      <trkpt lat="38.821814" lon="-9.111760">
        <ele>12.271</ele>
        <time>2015-03-19T09:41:20Z</time>
      </trkpt>
      <trkpt lat="38.822082" lon="-9.111985">
        <ele>12.249</ele>
        <time>2015-03-19T09:41:34Z</time>
      </trkpt>
      <trkpt lat="38.822290" lon="-9.112145">
        <ele>12.234</ele>
        <time>2015-03-19T09:41:47Z</time>
      </trkpt>
      <trkpt lat="38.822483" lon="-9.112295">
        <ele>12.271</ele>
        <time>2015-03-19T09:41:59Z</time>
      </trkpt>
      <trkpt lat="38.822664" lon="-9.112451">
        <ele>11.789</ele>
        <time>2015-03-19T09:42:12Z</time>
      </trkpt>
      <trkpt lat="38.822939" lon="-9.112694">
        <ele>12.206</ele>
        <time>2015-03-19T09:42:27Z</time>
      </trkpt>
      <trkpt lat="38.823234" lon="-9.113079">
        <ele>12.226</ele>
        <time>2015-03-19T09:42:44Z</time>
      </trkpt>
      <trkpt lat="38.823323" lon="-9.113162">
        <ele>12.207</ele>
        <time>2015-03-19T09:42:50Z</time>
      </trkpt>
      <trkpt lat="38.823380" lon="-9.113113">
        <ele>10.727</ele>
        <time>2015-03-19T09:42:55Z</time>
      </trkpt>
      <trkpt lat="38.823647" lon="-9.112832">
        <ele>10.750</ele>
        <time>2015-03-19T09:43:10Z</time>
      </trkpt>
      <trkpt lat="38.823980" lon="-9.113039">
        <ele>10.732</ele>
        <time>2015-03-19T09:43:23Z</time>
      </trkpt>
      <trkpt lat="38.824334" lon="-9.113389">
        <ele>10.712</ele>
        <time>2015-03-19T09:43:36Z</time>
      </trkpt>
      <trkpt lat="38.824797" lon="-9.113863">
        <ele>10.270</ele>
        <time>2015-03-19T09:43:51Z</time>
      </trkpt>
      <trkpt lat="38.825301" lon="-9.114362">
        <ele>10.225</ele>
        <time>2015-03-19T09:44:07Z</time>
      </trkpt>
      <trkpt lat="38.825756" lon="-9.114779">
        <ele>9.872</ele>
        <time>2015-03-19T09:44:21Z</time>
      </trkpt>
      <trkpt lat="38.826253" lon="-9.115098">
        <ele>11.242</ele>
        <time>2015-03-19T09:44:36Z</time>
      </trkpt>
      <trkpt lat="38.826792" lon="-9.115488">
        <ele>9.822</ele>
        <time>2015-03-19T09:44:51Z</time>
      </trkpt>
      <trkpt lat="38.826830" lon="-9.115521">
        <ele>9.814</ele>
        <time>2015-03-19T09:44:52Z</time>
      </trkpt>
      <trkpt lat="38.826931" lon="-9.115625">
        <ele>9.307</ele>
        <time>2015-03-19T09:44:55Z</time>
      </trkpt>
      <trkpt lat="38.827305" lon="-9.115722">
        <ele>9.323</ele>
        <time>2015-03-19T09:45:06Z</time>
      </trkpt>
      <trkpt lat="38.827664" lon="-9.115728">
        <ele>9.336</ele>
        <time>2015-03-19T09:45:16Z</time>
      </trkpt>
      <trkpt lat="38.827976" lon="-9.115748">
        <ele>9.368</ele>
        <time>2015-03-19T09:45:25Z</time>
      </trkpt>
      <trkpt lat="38.828343" lon="-9.115677">
        <ele>10.788</ele>
        <time>2015-03-19T09:45:36Z</time>
      </trkpt>
      <trkpt lat="38.828800" lon="-9.115675">
        <ele>10.746</ele>
        <time>2015-03-19T09:45:49Z</time>
      </trkpt>
      <trkpt lat="38.829140" lon="-9.115559">
        <ele>10.771</ele>
        <time>2015-03-19T09:45:59Z</time>
      </trkpt>
      <trkpt lat="38.829704" lon="-9.115512">
        <ele>10.758</ele>
        <time>2015-03-19T09:46:15Z</time>
      </trkpt>
      <trkpt lat="38.830185" lon="-9.115417">
        <ele>11.291</ele>
        <time>2015-03-19T09:46:29Z</time>
      </trkpt>
      <trkpt lat="38.830510" lon="-9.115278">
        <ele>10.781</ele>
        <time>2015-03-19T09:46:39Z</time>
      </trkpt>
      <trkpt lat="38.831054" lon="-9.115077">
        <ele>11.219</ele>
        <time>2015-03-19T09:46:56Z</time>
      </trkpt>
      <trkpt lat="38.831539" lon="-9.114841">
        <ele>12.607</ele>
        <time>2015-03-19T09:47:12Z</time>
      </trkpt>
      <trkpt lat="38.832034" lon="-9.114726">
        <ele>12.658</ele>
        <time>2015-03-19T09:47:27Z</time>
      </trkpt>
      <trkpt lat="38.832475" lon="-9.114676">
        <ele>14.131</ele>
        <time>2015-03-19T09:47:41Z</time>
      </trkpt>
      <trkpt lat="38.833009" lon="-9.114607">
        <ele>14.143</ele>
        <time>2015-03-19T09:47:56Z</time>
      </trkpt>
      <trkpt lat="38.833081" lon="-9.114590">
        <ele>12.623</ele>
        <time>2015-03-19T09:47:58Z</time>
      </trkpt>
      <trkpt lat="38.833172" lon="-9.114571">
        <ele>12.691</ele>
        <time>2015-03-19T09:48:01Z</time>
      </trkpt>
      <trkpt lat="38.833623" lon="-9.114472">
        <ele>12.676</ele>
        <time>2015-03-19T09:48:16Z</time>
      </trkpt>
      <trkpt lat="38.834081" lon="-9.114494">
        <ele>11.743</ele>
        <time>2015-03-19T09:48:31Z</time>
      </trkpt>
      <trkpt lat="38.834174" lon="-9.114431">
        <ele>11.773</ele>
        <time>2015-03-19T09:48:40Z</time>
      </trkpt>
      <trkpt lat="38.834504" lon="-9.114446">
        <ele>11.785</ele>
        <time>2015-03-19T09:49:00Z</time>
      </trkpt>
      <trkpt lat="38.834674" lon="-9.114429">
        <ele>11.713</ele>
        <time>2015-03-19T09:49:07Z</time>
      </trkpt>
      <trkpt lat="38.835053" lon="-9.114602">
        <ele>11.707</ele>
        <time>2015-03-19T09:49:23Z</time>
      </trkpt>
      <trkpt lat="38.835163" lon="-9.114763">
        <ele>11.796</ele>
        <time>2015-03-19T09:49:30Z</time>
      </trkpt>
      <trkpt lat="38.835354" lon="-9.114830">
        <ele>11.789</ele>
        <time>2015-03-19T09:49:41Z</time>
      </trkpt>
      <trkpt lat="38.835475" lon="-9.114860">
        <ele>11.791</ele>
        <time>2015-03-19T09:49:47Z</time>
      </trkpt>
      <trkpt lat="38.835701" lon="-9.114831">
        <ele>11.741</ele>
        <time>2015-03-19T09:49:56Z</time>
      </trkpt>
      <trkpt lat="38.835953" lon="-9.114755">
        <ele>10.719</ele>
        <time>2015-03-19T09:50:10Z</time>
      </trkpt>
      <trkpt lat="38.836057" lon="-9.114696">
        <ele>10.764</ele>
        <time>2015-03-19T09:50:22Z</time>
      </trkpt>
      <trkpt lat="38.836235" lon="-9.114669">
        <ele>10.761</ele>
        <time>2015-03-19T09:50:37Z</time>
      </trkpt>
      <trkpt lat="38.836291" lon="-9.114684">
        <ele>10.775</ele>
        <time>2015-03-19T09:50:46Z</time>
      </trkpt>
      <trkpt lat="38.836396" lon="-9.114684">
        <ele>10.728</ele>
        <time>2015-03-19T09:50:53Z</time>
      </trkpt>
      <trkpt lat="38.836756" lon="-9.114684">
        <ele>10.720</ele>
        <time>2015-03-19T09:51:09Z</time>
      </trkpt>
      <trkpt lat="38.836841" lon="-9.114674">
        <ele>10.707</ele>
        <time>2015-03-19T09:51:13Z</time>
      </trkpt>
      <trkpt lat="38.836936" lon="-9.114633">
        <ele>11.736</ele>
        <time>2015-03-19T09:51:19Z</time>
      </trkpt>
      <trkpt lat="38.837300" lon="-9.114427">
        <ele>12.689</ele>
        <time>2015-03-19T09:51:36Z</time>
      </trkpt>
      <trkpt lat="38.837355" lon="-9.114359">
        <ele>12.691</ele>
        <time>2015-03-19T09:51:39Z</time>
      </trkpt>
      <trkpt lat="38.837545" lon="-9.114131">
        <ele>12.621</ele>
        <time>2015-03-19T09:51:50Z</time>
      </trkpt>
      <trkpt lat="38.837821" lon="-9.113846">
        <ele>12.679</ele>
        <time>2015-03-19T09:52:04Z</time>
      </trkpt>
      <trkpt lat="38.838152" lon="-9.113685">
        <ele>12.624</ele>
        <time>2015-03-19T09:52:16Z</time>
      </trkpt>
      <trkpt lat="38.838542" lon="-9.113667">
        <ele>10.751</ele>
        <time>2015-03-19T09:52:28Z</time>
      </trkpt>
      <trkpt lat="38.838808" lon="-9.113684">
        <ele>10.795</ele>
        <time>2015-03-19T09:52:40Z</time>
      </trkpt>
      <trkpt lat="38.839052" lon="-9.113700">
        <ele>10.749</ele>
        <time>2015-03-19T09:52:51Z</time>
      </trkpt>
      <trkpt lat="38.839395" lon="-9.113655">
        <ele>12.223</ele>
        <time>2015-03-19T09:53:06Z</time>
      </trkpt>
      <trkpt lat="38.839646" lon="-9.113554">
        <ele>13.107</ele>
        <time>2015-03-19T09:53:18Z</time>
      </trkpt>
      <trkpt lat="38.839921" lon="-9.113505">
        <ele>13.678</ele>
        <time>2015-03-19T09:53:31Z</time>
      </trkpt>
      <trkpt lat="38.840235" lon="-9.113474">
        <ele>14.691</ele>
        <time>2015-03-19T09:53:46Z</time>
      </trkpt>
      <trkpt lat="38.840586" lon="-9.113423">
        <ele>16.033</ele>
        <time>2015-03-19T09:54:01Z</time>
      </trkpt>
      <trkpt lat="38.840895" lon="-9.113357">
        <ele>14.193</ele>
        <time>2015-03-19T09:54:10Z</time>
      </trkpt>
      <trkpt lat="38.841265" lon="-9.113203">
        <ele>13.131</ele>
        <time>2015-03-19T09:54:23Z</time>
      </trkpt>
      <trkpt lat="38.841669" lon="-9.113068">
        <ele>12.626</ele>
        <time>2015-03-19T09:54:40Z</time>
      </trkpt>
      <trkpt lat="38.842029" lon="-9.113040">
        <ele>12.643</ele>
        <time>2015-03-19T09:54:55Z</time>
      </trkpt>
      <trkpt lat="38.842401" lon="-9.113228">
        <ele>11.236</ele>
        <time>2015-03-19T09:55:10Z</time>
      </trkpt>
      <trkpt lat="38.842764" lon="-9.113518">
        <ele>9.817</ele>
        <time>2015-03-19T09:55:27Z</time>
      </trkpt>
      <trkpt lat="38.842953" lon="-9.113683">
        <ele>9.318</ele>
        <time>2015-03-19T09:55:37Z</time>
      </trkpt>
      <trkpt lat="38.843015" lon="-9.113759">
        <ele>9.307</ele>
        <time>2015-03-19T09:55:42Z</time>
      </trkpt>
      <trkpt lat="38.843250" lon="-9.113947">
        <ele>9.332</ele>
        <time>2015-03-19T09:55:54Z</time>
      </trkpt>
      <trkpt lat="38.843517" lon="-9.114160">
        <ele>9.315</ele>
        <time>2015-03-19T09:56:07Z</time>
      </trkpt>
      <trkpt lat="38.843837" lon="-9.114365">
        <ele>9.327</ele>
        <time>2015-03-19T09:56:21Z</time>
      </trkpt>
      <trkpt lat="38.844067" lon="-9.114314">
        <ele>10.727</ele>
        <time>2015-03-19T09:56:31Z</time>
      </trkpt>
      <trkpt lat="38.844272" lon="-9.114152">
        <ele>10.745</ele>
        <time>2015-03-19T09:56:41Z</time>
      </trkpt>
      <trkpt lat="38.844523" lon="-9.113980">
        <ele>10.250</ele>
        <time>2015-03-19T09:56:52Z</time>
      </trkpt>
      <trkpt lat="38.844958" lon="-9.113741">
        <ele>10.777</ele>
        <time>2015-03-19T09:57:07Z</time>
      </trkpt>
      <trkpt lat="38.845371" lon="-9.113486">
        <ele>11.242</ele>
        <time>2015-03-19T09:57:21Z</time>
      </trkpt>
      <trkpt lat="38.845767" lon="-9.113197">
        <ele>11.222</ele>
        <time>2015-03-19T09:57:35Z</time>
      </trkpt>
      <trkpt lat="38.845987" lon="-9.112795">
        <ele>12.214</ele>
        <time>2015-03-19T09:57:48Z</time>
      </trkpt>
      <trkpt lat="38.846229" lon="-9.112394">
        <ele>12.207</ele>
        <time>2015-03-19T09:58:00Z</time>
      </trkpt>
      <trkpt lat="38.846722" lon="-9.111930">
        <ele>12.223</ele>
        <time>2015-03-19T09:58:18Z</time>
      </trkpt>
      <trkpt lat="38.847031" lon="-9.111690">
        <ele>12.256</ele>
        <time>2015-03-19T09:58:29Z</time>
      </trkpt>
      <trkpt lat="38.847459" lon="-9.111506">
        <ele>12.248</ele>
        <time>2015-03-19T09:58:43Z</time>
      </trkpt>
      <trkpt lat="38.847920" lon="-9.111319">
        <ele>12.688</ele>
        <time>2015-03-19T09:58:59Z</time>
      </trkpt>
      <trkpt lat="38.848088" lon="-9.111272">
        <ele>12.626</ele>
        <time>2015-03-19T09:59:13Z</time>
      </trkpt>
      <trkpt lat="38.848666" lon="-9.111031">
        <ele>13.141</ele>
        <time>2015-03-19T09:59:32Z</time>
      </trkpt>
      <trkpt lat="38.849102" lon="-9.110884">
        <ele>11.778</ele>
        <time>2015-03-19T09:59:45Z</time>
      </trkpt>
      <trkpt lat="38.849691" lon="-9.110887">
        <ele>12.258</ele>
        <time>2015-03-19T10:00:02Z</time>
      </trkpt>
      <trkpt lat="38.850134" lon="-9.110929">
        <ele>11.752</ele>
        <time>2015-03-19T10:00:15Z</time>
      </trkpt>
      <trkpt lat="38.850442" lon="-9.110912">
        <ele>13.117</ele>
        <time>2015-03-19T10:00:24Z</time>
      </trkpt>
      <trkpt lat="38.850912" lon="-9.110726">
        <ele>13.107</ele>
        <time>2015-03-19T10:00:38Z</time>
      </trkpt>
      <trkpt lat="38.851352" lon="-9.110378">
        <ele>13.164</ele>
        <time>2015-03-19T10:00:53Z</time>
      </trkpt>
      <trkpt lat="38.851693" lon="-9.110068">
        <ele>13.187</ele>
        <time>2015-03-19T10:01:06Z</time>
      </trkpt>
      <trkpt lat="38.852020" lon="-9.109390">
        <ele>13.169</ele>
        <time>2015-03-19T10:01:24Z</time>
      </trkpt>
      <trkpt lat="38.852362" lon="-9.108938">
        <ele>13.199</ele>
        <time>2015-03-19T10:01:39Z</time>
      </trkpt>
      <trkpt lat="38.852835" lon="-9.108614">
        <ele>13.117</ele>
        <time>2015-03-19T10:01:55Z</time>
      </trkpt>
      <trkpt lat="38.853371" lon="-9.108435">
        <ele>13.182</ele>
        <time>2015-03-19T10:02:11Z</time>
      </trkpt>
      <trkpt lat="38.853766" lon="-9.108110">
        <ele>13.129</ele>
        <time>2015-03-19T10:02:25Z</time>
      </trkpt>
      <trkpt lat="38.854191" lon="-9.107746">
        <ele>13.117</ele>
        <time>2015-03-19T10:02:40Z</time>
      </trkpt>
      <trkpt lat="38.854680" lon="-9.107559">
        <ele>13.187</ele>
        <time>2015-03-19T10:02:55Z</time>
      </trkpt>
      <trkpt lat="38.855268" lon="-9.107411">
        <ele>13.615</ele>
        <time>2015-03-19T10:03:13Z</time>
      </trkpt>
      <trkpt lat="38.855682" lon="-9.107315">
        <ele>13.607</ele>
        <time>2015-03-19T10:03:26Z</time>
      </trkpt>
      <trkpt lat="38.855995" lon="-9.106943">
        <ele>14.690</ele>
        <time>2015-03-19T10:03:39Z</time>
      </trkpt>
      <trkpt lat="38.856168" lon="-9.106266">
        <ele>15.563</ele>
        <time>2015-03-19T10:03:55Z</time>
      </trkpt>
      <trkpt lat="38.856430" lon="-9.105469">
        <ele>16.035</ele>
        <time>2015-03-19T10:04:15Z</time>
      </trkpt>
      <trkpt lat="38.856695" lon="-9.104722">
        <ele>16.585</ele>
        <time>2015-03-19T10:04:34Z</time>
      </trkpt>
      <trkpt lat="38.856885" lon="-9.104193">
        <ele>17.083</ele>
        <time>2015-03-19T10:04:47Z</time>
      </trkpt>
      <trkpt lat="38.857149" lon="-9.103387">
        <ele>17.068</ele>
        <time>2015-03-19T10:05:06Z</time>
      </trkpt>
      <trkpt lat="38.857167" lon="-9.102609">
        <ele>18.945</ele>
        <time>2015-03-19T10:05:24Z</time>
      </trkpt>
      <trkpt lat="38.857217" lon="-9.101873">
        <ele>20.342</ele>
        <time>2015-03-19T10:05:42Z</time>
      </trkpt>
      <trkpt lat="38.857399" lon="-9.101098">
        <ele>21.822</ele>
        <time>2015-03-19T10:06:01Z</time>
      </trkpt>
      <trkpt lat="38.857542" lon="-9.100414">
        <ele>23.214</ele>
        <time>2015-03-19T10:06:18Z</time>
      </trkpt>
      <trkpt lat="38.857633" lon="-9.099876">
        <ele>26.607</ele>
        <time>2015-03-19T10:06:33Z</time>
      </trkpt>
      <trkpt lat="38.857596" lon="-9.099710">
        <ele>27.513</ele>
        <time>2015-03-19T10:06:40Z</time>
      </trkpt>
      <trkpt lat="38.857716" lon="-9.099300">
        <ele>28.536</ele>
        <time>2015-03-19T10:06:53Z</time>
      </trkpt>
      <trkpt lat="38.857871" lon="-9.099151">
        <ele>26.638</ele>
        <time>2015-03-19T10:06:58Z</time>
      </trkpt>
      <trkpt lat="38.858280" lon="-9.098609">
        <ele>23.718</ele>
        <time>2015-03-19T10:07:10Z</time>
      </trkpt>
      <trkpt lat="38.858395" lon="-9.098491">
        <ele>23.786</ele>
        <time>2015-03-19T10:07:13Z</time>
      </trkpt>
      <trkpt lat="38.858731" lon="-9.097943">
        <ele>24.741</ele>
        <time>2015-03-19T10:07:28Z</time>
      </trkpt>
      <trkpt lat="38.859128" lon="-9.097292">
        <ele>25.158</ele>
        <time>2015-03-19T10:07:47Z</time>
      </trkpt>
      <trkpt lat="38.859363" lon="-9.096563">
        <ele>27.183</ele>
        <time>2015-03-19T10:08:06Z</time>
      </trkpt>
      <trkpt lat="38.859491" lon="-9.095979">
        <ele>29.025</ele>
        <time>2015-03-19T10:08:21Z</time>
      </trkpt>
      <trkpt lat="38.859788" lon="-9.095445">
        <ele>30.917</ele>
        <time>2015-03-19T10:08:37Z</time>
      </trkpt>
      <trkpt lat="38.860333" lon="-9.094850">
        <ele>30.407</ele>
        <time>2015-03-19T10:08:57Z</time>
      </trkpt>
      <trkpt lat="38.860786" lon="-9.094368">
        <ele>30.487</ele>
        <time>2015-03-19T10:09:14Z</time>
      </trkpt>
      <trkpt lat="38.861190" lon="-9.093940">
        <ele>31.980</ele>
        <time>2015-03-19T10:09:31Z</time>
      </trkpt>
      <trkpt lat="38.861582" lon="-9.093512">
        <ele>33.862</ele>
        <time>2015-03-19T10:09:47Z</time>
      </trkpt>
      <trkpt lat="38.861978" lon="-9.093117">
        <ele>35.722</ele>
        <time>2015-03-19T10:10:02Z</time>
      </trkpt>
      <trkpt lat="38.862445" lon="-9.092652">
        <ele>35.780</ele>
        <time>2015-03-19T10:10:19Z</time>
      </trkpt>
      <trkpt lat="38.862871" lon="-9.092412">
        <ele>35.795</ele>
        <time>2015-03-19T10:10:34Z</time>
      </trkpt>
      <trkpt lat="38.862913" lon="-9.092289">
        <ele>36.712</ele>
        <time>2015-03-19T10:21:56Z</time>
      </trkpt>
      <trkpt lat="38.863089" lon="-9.092295">
        <ele>37.241</ele>
        <time>2015-03-19T10:22:04Z</time>
      </trkpt>
      <trkpt lat="38.863175" lon="-9.092342">
        <ele>37.281</ele>
        <time>2015-03-19T10:22:08Z</time>
      </trkpt>
      <trkpt lat="38.863257" lon="-9.092324">
        <ele>35.709</ele>
        <time>2015-03-19T10:22:12Z</time>
      </trkpt>
      <trkpt lat="38.863455" lon="-9.091832">
        <ele>38.107</ele>
        <time>2015-03-19T10:22:30Z</time>
      </trkpt>
      <trkpt lat="38.863562" lon="-9.091404">
        <ele>39.193</ele>
        <time>2015-03-19T10:22:44Z</time>
      </trkpt>
      <trkpt lat="38.863742" lon="-9.091002">
        <ele>40.536</ele>
        <time>2015-03-19T10:22:59Z</time>
      </trkpt>
      <trkpt lat="38.863952" lon="-9.090615">
        <ele>42.098</ele>
        <time>2015-03-19T10:23:16Z</time>
      </trkpt>
      <trkpt lat="38.864169" lon="-9.090214">
        <ele>43.438</ele>
        <time>2015-03-19T10:23:33Z</time>
      </trkpt>
      <trkpt lat="38.864379" lon="-9.089856">
        <ele>44.466</ele>
        <time>2015-03-19T10:23:48Z</time>
      </trkpt>
      <trkpt lat="38.864652" lon="-9.089441">
        <ele>44.841</ele>
        <time>2015-03-19T10:24:05Z</time>
      </trkpt>
      <trkpt lat="38.865016" lon="-9.089122">
        <ele>44.888</ele>
        <time>2015-03-19T10:24:21Z</time>
      </trkpt>
      <trkpt lat="38.865380" lon="-9.088863">
        <ele>45.812</ele>
        <time>2015-03-19T10:24:37Z</time>
      </trkpt>
      <trkpt lat="38.865788" lon="-9.088528">
        <ele>46.832</ele>
        <time>2015-03-19T10:24:54Z</time>
      </trkpt>
      <trkpt lat="38.866088" lon="-9.088130">
        <ele>47.205</ele>
        <time>2015-03-19T10:25:09Z</time>
      </trkpt>
      <trkpt lat="38.866517" lon="-9.087801">
        <ele>47.207</ele>
        <time>2015-03-19T10:25:26Z</time>
      </trkpt>
      <trkpt lat="38.866939" lon="-9.087582">
        <ele>48.740</ele>
        <time>2015-03-19T10:25:42Z</time>
      </trkpt>
      <trkpt lat="38.867362" lon="-9.087376">
        <ele>50.133</ele>
        <time>2015-03-19T10:25:58Z</time>
      </trkpt>
      <trkpt lat="38.867818" lon="-9.087088">
        <ele>50.695</ele>
        <time>2015-03-19T10:26:15Z</time>
      </trkpt>
      <trkpt lat="38.868311" lon="-9.086861">
        <ele>51.645</ele>
        <time>2015-03-19T10:26:32Z</time>
      </trkpt>
      <trkpt lat="38.868503" lon="-9.086483">
        <ele>51.633</ele>
        <time>2015-03-19T10:27:50Z</time>
      </trkpt>
      <trkpt lat="38.868517" lon="-9.086382">
        <ele>51.618</ele>
        <time>2015-03-19T10:27:53Z</time>
      </trkpt>
      <trkpt lat="38.868566" lon="-9.085850">
        <ele>51.685</ele>
        <time>2015-03-19T10:28:10Z</time>
      </trkpt>
      <trkpt lat="38.868629" lon="-9.085298">
        <ele>53.592</ele>
        <time>2015-03-19T10:28:28Z</time>
      </trkpt>
      <trkpt lat="38.868656" lon="-9.085140">
        <ele>53.073</ele>
        <time>2015-03-19T10:29:12Z</time>
      </trkpt>
      <trkpt lat="38.868678" lon="-9.085062">
        <ele>53.020</ele>
        <time>2015-03-19T10:29:21Z</time>
      </trkpt>
      <trkpt lat="38.868761" lon="-9.084744">
        <ele>52.107</ele>
        <time>2015-03-19T10:29:33Z</time>
      </trkpt>
      <trkpt lat="38.868726" lon="-9.084636">
        <ele>52.188</ele>
        <time>2015-03-19T10:29:37Z</time>
      </trkpt>
      <trkpt lat="38.868778" lon="-9.084250">
        <ele>51.691</ele>
        <time>2015-03-19T10:29:51Z</time>
      </trkpt>
      <trkpt lat="38.868791" lon="-9.083952">
        <ele>51.663</ele>
        <time>2015-03-19T10:30:02Z</time>
      </trkpt>
      <trkpt lat="38.868804" lon="-9.083545">
        <ele>51.633</ele>
        <time>2015-03-19T10:30:16Z</time>
      </trkpt>
      <trkpt lat="38.868764" lon="-9.083217">
        <ele>51.611</ele>
        <time>2015-03-19T10:30:28Z</time>
      </trkpt>
      <trkpt lat="38.868535" lon="-9.083044">
        <ele>51.626</ele>
        <time>2015-03-19T10:30:41Z</time>
      </trkpt>
      <trkpt lat="38.868393" lon="-9.082779">
        <ele>51.653</ele>
        <time>2015-03-19T10:30:53Z</time>
      </trkpt>
      <trkpt lat="38.868451" lon="-9.082508">
        <ele>51.633</ele>
        <time>2015-03-19T10:31:05Z</time>
      </trkpt>
      <trkpt lat="38.868423" lon="-9.082402">
        <ele>51.123</ele>
        <time>2015-03-19T10:31:10Z</time>
      </trkpt>
      <trkpt lat="38.868409" lon="-9.082236">
        <ele>51.115</ele>
        <time>2015-03-19T10:31:16Z</time>
      </trkpt>
      <trkpt lat="38.868491" lon="-9.081836">
        <ele>50.107</ele>
        <time>2015-03-19T10:31:32Z</time>
      </trkpt>
      <trkpt lat="38.868490" lon="-9.081719">
        <ele>50.152</ele>
        <time>2015-03-19T10:31:43Z</time>
      </trkpt>
      <trkpt lat="38.868481" lon="-9.081567">
        <ele>50.135</ele>
        <time>2015-03-19T10:32:08Z</time>
      </trkpt>
      <trkpt lat="38.868483" lon="-9.081498">
        <ele>50.117</ele>
        <time>2015-03-19T10:32:11Z</time>
      </trkpt>
      <trkpt lat="38.868444" lon="-9.081411">
        <ele>50.157</ele>
        <time>2015-03-19T10:32:16Z</time>
      </trkpt>
      <trkpt lat="38.868455" lon="-9.081009">
        <ele>49.765</ele>
        <time>2015-03-19T10:32:31Z</time>
      </trkpt>
      <trkpt lat="38.868469" lon="-9.080542">
        <ele>48.710</ele>
        <time>2015-03-19T10:32:48Z</time>
      </trkpt>
      <trkpt lat="38.868596" lon="-9.080145">
        <ele>48.737</ele>
        <time>2015-03-19T10:33:04Z</time>
      </trkpt>
      <trkpt lat="38.868690" lon="-9.079773">
        <ele>47.258</ele>
        <time>2015-03-19T10:33:19Z</time>
      </trkpt>
      <trkpt lat="38.868705" lon="-9.079348">
        <ele>46.852</ele>
        <time>2015-03-19T10:33:34Z</time>
      </trkpt>
      <trkpt lat="38.868828" lon="-9.078879">
        <ele>46.317</ele>
        <time>2015-03-19T10:33:51Z</time>
      </trkpt>
      <trkpt lat="38.868936" lon="-9.078435">
        <ele>45.307</ele>
        <time>2015-03-19T10:34:08Z</time>
      </trkpt>
      <trkpt lat="38.869037" lon="-9.078005">
        <ele>45.384</ele>
        <time>2015-03-19T10:34:25Z</time>
      </trkpt>
      <trkpt lat="38.869141" lon="-9.077602">
        <ele>45.377</ele>
        <time>2015-03-19T10:34:39Z</time>
      </trkpt>
      <trkpt lat="38.869093" lon="-9.077152">
        <ele>45.339</ele>
        <time>2015-03-19T10:34:54Z</time>
      </trkpt>
      <trkpt lat="38.868732" lon="-9.077009">
        <ele>45.359</ele>
        <time>2015-03-19T10:35:10Z</time>
      </trkpt>
      <trkpt lat="38.868431" lon="-9.076935">
        <ele>45.367</ele>
        <time>2015-03-19T10:35:23Z</time>
      </trkpt>
      <trkpt lat="38.868026" lon="-9.076830">
        <ele>48.272</ele>
        <time>2015-03-19T10:35:41Z</time>
      </trkpt>
      <trkpt lat="38.867662" lon="-9.076643">
        <ele>50.629</ele>
        <time>2015-03-19T10:36:00Z</time>
      </trkpt>
      <trkpt lat="38.867757" lon="-9.076316">
        <ele>51.168</ele>
        <time>2015-03-19T10:36:13Z</time>
      </trkpt>
      <trkpt lat="38.867859" lon="-9.076105">
        <ele>49.742</ele>
        <time>2015-03-19T10:36:22Z</time>
      </trkpt>
      <trkpt lat="38.867931" lon="-9.075741">
        <ele>51.126</ele>
        <time>2015-03-19T10:36:36Z</time>
      </trkpt>
      <trkpt lat="38.868145" lon="-9.075319">
        <ele>49.707</ele>
        <time>2015-03-19T10:36:52Z</time>
      </trkpt>
      <trkpt lat="38.868378" lon="-9.074916">
        <ele>48.715</ele>
        <time>2015-03-19T10:37:08Z</time>
      </trkpt>
      <trkpt lat="38.868635" lon="-9.074388">
        <ele>45.818</ele>
        <time>2015-03-19T10:37:24Z</time>
      </trkpt>
      <trkpt lat="38.868917" lon="-9.073832">
        <ele>45.340</ele>
        <time>2015-03-19T10:37:41Z</time>
      </trkpt>
      <trkpt lat="38.869193" lon="-9.073325">
        <ele>43.940</ele>
        <time>2015-03-19T10:37:58Z</time>
      </trkpt>
      <trkpt lat="38.869254" lon="-9.073225">
        <ele>43.468</ele>
        <time>2015-03-19T10:38:39Z</time>
      </trkpt>
      <trkpt lat="38.869510" lon="-9.072689">
        <ele>41.553</ele>
        <time>2015-03-19T10:38:56Z</time>
      </trkpt>
      <trkpt lat="38.869752" lon="-9.072253">
        <ele>37.660</ele>
        <time>2015-03-19T10:39:05Z</time>
      </trkpt>
      <trkpt lat="38.869782" lon="-9.072197">
        <ele>37.211</ele>
        <time>2015-03-19T10:39:06Z</time>
      </trkpt>
      <trkpt lat="38.869871" lon="-9.072009">
        <ele>35.221</ele>
        <time>2015-03-19T10:39:09Z</time>
      </trkpt>
      <trkpt lat="38.869917" lon="-9.071889">
        <ele>34.303</ele>
        <time>2015-03-19T10:39:11Z</time>
      </trkpt>
      <trkpt lat="38.869995" lon="-9.071697">
        <ele>34.307</ele>
        <time>2015-03-19T10:39:15Z</time>
      </trkpt>
      <trkpt lat="38.870288" lon="-9.071327">
        <ele>33.340</ele>
        <time>2015-03-19T10:39:30Z</time>
      </trkpt>
      <trkpt lat="38.870469" lon="-9.070970">
        <ele>33.353</ele>
        <time>2015-03-19T10:39:43Z</time>
      </trkpt>
      <trkpt lat="38.870656" lon="-9.070688">
        <ele>33.365</ele>
        <time>2015-03-19T10:39:56Z</time>
      </trkpt>
      <trkpt lat="38.870907" lon="-9.070305">
        <ele>35.245</ele>
        <time>2015-03-19T10:40:13Z</time>
      </trkpt>
      <trkpt lat="38.871172" lon="-9.069971">
        <ele>36.283</ele>
        <time>2015-03-19T10:40:29Z</time>
      </trkpt>
      <trkpt lat="38.871352" lon="-9.069752">
        <ele>34.798</ele>
        <time>2015-03-19T10:40:38Z</time>
      </trkpt>
      <trkpt lat="38.871530" lon="-9.069533">
        <ele>35.275</ele>
        <time>2015-03-19T10:40:48Z</time>
      </trkpt>
      <trkpt lat="38.871673" lon="-9.069397">
        <ele>36.769</ele>
        <time>2015-03-19T10:40:57Z</time>
      </trkpt>
      <trkpt lat="38.871665" lon="-9.069212">
        <ele>36.704</ele>
        <time>2015-03-19T10:41:06Z</time>
      </trkpt>
      <trkpt lat="38.871436" lon="-9.068742">
        <ele>35.224</ele>
        <time>2015-03-19T10:41:18Z</time>
      </trkpt>
      <trkpt lat="38.870758" lon="-9.068063">
        <ele>31.407</ele>
        <time>2015-03-19T10:41:34Z</time>
      </trkpt>
      <trkpt lat="38.870362" lon="-9.067376">
        <ele>28.065</ele>
        <time>2015-03-19T10:41:43Z</time>
      </trkpt>
      <trkpt lat="38.870103" lon="-9.066254">
        <ele>26.128</ele>
        <time>2015-03-19T10:41:56Z</time>
      </trkpt>
      <trkpt lat="38.869889" lon="-9.065166">
        <ele>24.760</ele>
        <time>2015-03-19T10:42:11Z</time>
      </trkpt>
      <trkpt lat="38.869685" lon="-9.064229">
        <ele>23.730</ele>
        <time>2015-03-19T10:42:26Z</time>
      </trkpt>
      <trkpt lat="38.869595" lon="-9.063820">
        <ele>23.298</ele>
        <time>2015-03-19T10:42:33Z</time>
      </trkpt>
      <trkpt lat="38.869172" lon="-9.062844">
        <ele>21.893</ele>
        <time>2015-03-19T10:42:51Z</time>
      </trkpt>
      <trkpt lat="38.868675" lon="-9.062112">
        <ele>21.360</ele>
        <time>2015-03-19T10:43:07Z</time>
      </trkpt>
      <trkpt lat="38.868529" lon="-9.061885">
        <ele>21.373</ele>
        <time>2015-03-19T10:43:12Z</time>
      </trkpt>
      <trkpt lat="38.868237" lon="-9.061467">
        <ele>21.385</ele>
        <time>2015-03-19T10:43:22Z</time>
      </trkpt>
      <trkpt lat="38.868159" lon="-9.061183">
        <ele>20.813</ele>
        <time>2015-03-19T10:43:27Z</time>
      </trkpt>
      <trkpt lat="38.868011" lon="-9.060933">
        <ele>19.807</ele>
        <time>2015-03-19T10:43:32Z</time>
      </trkpt>
      <trkpt lat="38.867276" lon="-9.060156">
        <ele>17.446</ele>
        <time>2015-03-19T10:43:50Z</time>
      </trkpt>
      <trkpt lat="38.867045" lon="-9.059955">
        <ele>17.089</ele>
        <time>2015-03-19T10:43:55Z</time>
      </trkpt>
      <trkpt lat="38.866839" lon="-9.059884">
        <ele>16.551</ele>
        <time>2015-03-19T10:43:59Z</time>
      </trkpt>
      <trkpt lat="38.866571" lon="-9.059974">
        <ele>15.571</ele>
        <time>2015-03-19T10:44:08Z</time>
      </trkpt>
      <trkpt lat="38.866443" lon="-9.060040">
        <ele>15.579</ele>
        <time>2015-03-19T10:44:12Z</time>
      </trkpt>
      <trkpt lat="38.866270" lon="-9.060024">
        <ele>15.564</ele>
        <time>2015-03-19T10:44:16Z</time>
      </trkpt>
      <trkpt lat="38.866100" lon="-9.060077">
        <ele>15.531</ele>
        <time>2015-03-19T10:44:20Z</time>
      </trkpt>
      <trkpt lat="38.865773" lon="-9.060324">
        <ele>15.537</ele>
        <time>2015-03-19T10:44:29Z</time>
      </trkpt>
      <trkpt lat="38.865602" lon="-9.060388">
        <ele>15.549</ele>
        <time>2015-03-19T10:44:33Z</time>
      </trkpt>
      <trkpt lat="38.865464" lon="-9.060427">
        <ele>15.513</ele>
        <time>2015-03-19T10:44:36Z</time>
      </trkpt>
      <trkpt lat="38.865287" lon="-9.060462">
        <ele>15.507</ele>
        <time>2015-03-19T10:44:40Z</time>
      </trkpt>
      <trkpt lat="38.865098" lon="-9.060474">
        <ele>15.512</ele>
        <time>2015-03-19T10:44:44Z</time>
      </trkpt>
      <trkpt lat="38.864691" lon="-9.060586">
        <ele>15.515</ele>
        <time>2015-03-19T10:44:58Z</time>
      </trkpt>
      <trkpt lat="38.864600" lon="-9.060620">
        <ele>15.577</ele>
        <time>2015-03-19T10:45:08Z</time>
      </trkpt>
      <trkpt lat="38.864433" lon="-9.060447">
        <ele>15.517</ele>
        <time>2015-03-19T10:45:16Z</time>
      </trkpt>
      <trkpt lat="38.864369" lon="-9.060269">
        <ele>17.485</ele>
        <time>2015-03-19T10:45:22Z</time>
      </trkpt>
      <trkpt lat="38.864089" lon="-9.059707">
        <ele>20.330</ele>
        <time>2015-03-19T10:45:41Z</time>
      </trkpt>
      <trkpt lat="38.863966" lon="-9.059477">
        <ele>19.857</ele>
        <time>2015-03-19T10:45:47Z</time>
      </trkpt>
      <trkpt lat="38.863792" lon="-9.059116">
        <ele>17.069</ele>
        <time>2015-03-19T10:45:53Z</time>
      </trkpt>
      <trkpt lat="38.863755" lon="-9.059038">
        <ele>16.004</ele>
        <time>2015-03-19T10:45:54Z</time>
      </trkpt>
      <trkpt lat="38.863501" lon="-9.058774">
        <ele>12.224</ele>
        <time>2015-03-19T10:45:58Z</time>
      </trkpt>
      <trkpt lat="38.863101" lon="-9.058534">
        <ele>9.807</ele>
        <time>2015-03-19T10:46:03Z</time>
      </trkpt>
      <trkpt lat="38.862848" lon="-9.058286">
        <ele>8.855</ele>
        <time>2015-03-19T10:46:10Z</time>
      </trkpt>
      <trkpt lat="38.862587" lon="-9.058029">
        <ele>8.868</ele>
        <time>2015-03-19T10:46:20Z</time>
      </trkpt>
      <trkpt lat="38.862343" lon="-9.057586">
        <ele>8.880</ele>
        <time>2015-03-19T10:46:32Z</time>
      </trkpt>
      <trkpt lat="38.862134" lon="-9.057247">
        <ele>10.230</ele>
        <time>2015-03-19T10:46:42Z</time>
      </trkpt>
      <trkpt lat="38.861921" lon="-9.057145">
        <ele>10.768</ele>
        <time>2015-03-19T10:46:49Z</time>
      </trkpt>
      <trkpt lat="38.861816" lon="-9.057033">
        <ele>10.723</ele>
        <time>2015-03-19T10:46:53Z</time>
      </trkpt>
      <trkpt lat="38.861594" lon="-9.056832">
        <ele>10.720</ele>
        <time>2015-03-19T10:47:01Z</time>
      </trkpt>
      <trkpt lat="38.861707" lon="-9.056513">
        <ele>9.358</ele>
        <time>2015-03-19T10:47:11Z</time>
      </trkpt>
      <trkpt lat="38.861681" lon="-9.056458">
        <ele>9.352</ele>
        <time>2015-03-19T10:47:13Z</time>
      </trkpt>
      <trkpt lat="38.861555" lon="-9.056293">
        <ele>9.317</ele>
        <time>2015-03-19T10:47:25Z</time>
      </trkpt>
      <trkpt lat="38.861652" lon="-9.056172">
        <ele>10.207</ele>
        <time>2015-03-19T10:47:56Z</time>
      </trkpt>
      <trkpt lat="38.862039" lon="-9.055740">
        <ele>10.244</ele>
        <time>2015-03-19T10:48:10Z</time>
      </trkpt>
      <trkpt lat="38.862564" lon="-9.055164">
        <ele>10.277</ele>
        <time>2015-03-19T10:48:29Z</time>
      </trkpt>
      <trkpt lat="38.863046" lon="-9.054710">
        <ele>10.289</ele>
        <time>2015-03-19T10:48:46Z</time>
      </trkpt>
      <trkpt lat="38.863239" lon="-9.054523">
        <ele>10.759</ele>
        <time>2015-03-19T10:48:56Z</time>
      </trkpt>
      <trkpt lat="38.863749" lon="-9.053987">
        <ele>9.857</ele>
        <time>2015-03-19T10:49:13Z</time>
      </trkpt>
      <trkpt lat="38.864282" lon="-9.053460">
        <ele>9.872</ele>
        <time>2015-03-19T10:49:30Z</time>
      </trkpt>
      <trkpt lat="38.864507" lon="-9.053221">
        <ele>9.339</ele>
        <time>2015-03-19T10:49:39Z</time>
      </trkpt>
      <trkpt lat="38.864414" lon="-9.053045">
        <ele>9.328</ele>
        <time>2015-03-19T10:49:45Z</time>
      </trkpt>
      <trkpt lat="38.863761" lon="-9.052632">
        <ele>9.389</ele>
        <time>2015-03-19T10:50:02Z</time>
      </trkpt>
      <trkpt lat="38.863067" lon="-9.052198">
        <ele>9.317</ele>
        <time>2015-03-19T10:50:20Z</time>
      </trkpt>
      <trkpt lat="38.862577" lon="-9.051999">
        <ele>10.207</ele>
        <time>2015-03-19T10:50:35Z</time>
      </trkpt>
      <trkpt lat="38.862507" lon="-9.051965">
        <ele>10.211</ele>
        <time>2015-03-19T10:51:07Z</time>
      </trkpt>
      <trkpt lat="38.862402" lon="-9.051891">
        <ele>10.284</ele>
        <time>2015-03-19T10:51:12Z</time>
      </trkpt>
      <trkpt lat="38.862170" lon="-9.051746">
        <ele>10.296</ele>
        <time>2015-03-19T10:51:21Z</time>
      </trkpt>
      <trkpt lat="38.862174" lon="-9.051599">
        <ele>10.256</ele>
        <time>2015-03-19T10:51:25Z</time>
      </trkpt>
      <trkpt lat="38.862288" lon="-9.051359">
        <ele>10.734</ele>
        <time>2015-03-19T10:51:31Z</time>
      </trkpt>
      <trkpt lat="38.862392" lon="-9.051291">
        <ele>10.799</ele>
        <time>2015-03-19T10:51:35Z</time>
      </trkpt>
      <trkpt lat="38.862617" lon="-9.050905">
        <ele>9.366</ele>
        <time>2015-03-19T10:51:46Z</time>
      </trkpt>
      <trkpt lat="38.862992" lon="-9.049839">
        <ele>9.387</ele>
        <time>2015-03-19T10:52:09Z</time>
      </trkpt>
      <trkpt lat="38.863462" lon="-9.048642">
        <ele>9.342</ele>
        <time>2015-03-19T10:52:35Z</time>
      </trkpt>
      <trkpt lat="38.863631" lon="-9.048222">
        <ele>9.326</ele>
        <time>2015-03-19T10:52:48Z</time>
      </trkpt>
      <trkpt lat="38.863979" lon="-9.047365">
        <ele>9.307</ele>
        <time>2015-03-19T10:53:08Z</time>
      </trkpt>
      <trkpt lat="38.864427" lon="-9.046368">
        <ele>9.377</ele>
        <time>2015-03-19T10:53:31Z</time>
      </trkpt>
      <trkpt lat="38.864838" lon="-9.045494">
        <ele>9.380</ele>
        <time>2015-03-19T10:53:51Z</time>
      </trkpt>
      <trkpt lat="38.865307" lon="-9.044514">
        <ele>9.312</ele>
        <time>2015-03-19T10:54:13Z</time>
      </trkpt>
      <trkpt lat="38.865515" lon="-9.044088">
        <ele>9.342</ele>
        <time>2015-03-19T10:54:27Z</time>
      </trkpt>
      <trkpt lat="38.865553" lon="-9.044056">
        <ele>9.380</ele>
        <time>2015-03-19T10:54:30Z</time>
      </trkpt>
      <trkpt lat="38.865611" lon="-9.044059">
        <ele>9.375</ele>
        <time>2015-03-19T10:55:10Z</time>
      </trkpt>
      <trkpt lat="38.865671" lon="-9.043931">
        <ele>9.342</ele>
        <time>2015-03-19T10:55:17Z</time>
      </trkpt>
      <trkpt lat="38.865717" lon="-9.043818">
        <ele>9.399</ele>
        <time>2015-03-19T10:55:21Z</time>
      </trkpt>
      <trkpt lat="38.865849" lon="-9.043863">
        <ele>9.307</ele>
        <time>2015-03-19T10:55:27Z</time>
      </trkpt>
      <trkpt lat="38.866479" lon="-9.044281">
        <ele>8.827</ele>
        <time>2015-03-19T10:55:45Z</time>
      </trkpt>
      <trkpt lat="38.867263" lon="-9.044770">
        <ele>8.807</ele>
        <time>2015-03-19T10:56:07Z</time>
      </trkpt>
      <trkpt lat="38.867919" lon="-9.044919">
        <ele>8.858</ele>
        <time>2015-03-19T10:56:24Z</time>
      </trkpt>
      <trkpt lat="38.868511" lon="-9.044598">
        <ele>8.841</ele>
        <time>2015-03-19T10:56:41Z</time>
      </trkpt>
      <trkpt lat="38.869005" lon="-9.044188">
        <ele>8.813</ele>
        <time>2015-03-19T10:56:56Z</time>
      </trkpt>
      <trkpt lat="38.869672" lon="-9.043642">
        <ele>8.843</ele>
        <time>2015-03-19T10:57:16Z</time>
      </trkpt>
      <trkpt lat="38.870490" lon="-9.042986">
        <ele>8.881</ele>
        <time>2015-03-19T10:57:40Z</time>
      </trkpt>
      <trkpt lat="38.870885" lon="-9.042659">
        <ele>8.816</ele>
        <time>2015-03-19T10:57:52Z</time>
      </trkpt>
      <trkpt lat="38.871094" lon="-9.042781">
        <ele>8.873</ele>
        <time>2015-03-19T10:57:59Z</time>
      </trkpt>
      <trkpt lat="38.871157" lon="-9.042738">
        <ele>8.849</ele>
        <time>2015-03-19T10:58:01Z</time>
      </trkpt>
      <trkpt lat="38.871742" lon="-9.042227">
        <ele>8.802</ele>
        <time>2015-03-19T10:58:19Z</time>
      </trkpt>
      <trkpt lat="38.872364" lon="-9.041706">
        <ele>8.822</ele>
        <time>2015-03-19T10:58:38Z</time>
      </trkpt>
      <trkpt lat="38.873110" lon="-9.041099">
        <ele>8.807</ele>
        <time>2015-03-19T10:59:00Z</time>
      </trkpt>
      <trkpt lat="38.873178" lon="-9.041044">
        <ele>9.833</ele>
        <time>2015-03-19T10:59:02Z</time>
      </trkpt>
      <trkpt lat="38.873896" lon="-9.040456">
        <ele>9.886</ele>
        <time>2015-03-19T10:59:23Z</time>
      </trkpt>
      <trkpt lat="38.874567" lon="-9.039931">
        <ele>9.818</ele>
        <time>2015-03-19T10:59:43Z</time>
      </trkpt>
      <trkpt lat="38.875154" lon="-9.039425">
        <ele>9.838</ele>
        <time>2015-03-19T11:00:01Z</time>
      </trkpt>
      <trkpt lat="38.875902" lon="-9.038819">
        <ele>9.826</ele>
        <time>2015-03-19T11:00:23Z</time>
      </trkpt>
      <trkpt lat="38.876527" lon="-9.038604">
        <ele>9.821</ele>
        <time>2015-03-19T11:00:39Z</time>
      </trkpt>
      <trkpt lat="38.877162" lon="-9.038814">
        <ele>10.268</ele>
        <time>2015-03-19T11:00:55Z</time>
      </trkpt>
      <trkpt lat="38.877623" lon="-9.039347">
        <ele>10.792</ele>
        <time>2015-03-19T11:01:10Z</time>
      </trkpt>
      <trkpt lat="38.878140" lon="-9.040090">
        <ele>10.773</ele>
        <time>2015-03-19T11:01:28Z</time>
      </trkpt>
      <trkpt lat="38.878604" lon="-9.040735">
        <ele>10.720</ele>
        <time>2015-03-19T11:01:44Z</time>
      </trkpt>
      <trkpt lat="38.879099" lon="-9.041402">
        <ele>10.707</ele>
        <time>2015-03-19T11:02:01Z</time>
      </trkpt>
      <trkpt lat="38.879634" lon="-9.042100">
        <ele>11.258</ele>
        <time>2015-03-19T11:02:19Z</time>
      </trkpt>
      <trkpt lat="38.879805" lon="-9.042327">
        <ele>11.241</ele>
        <time>2015-03-19T11:02:25Z</time>
      </trkpt>
      <trkpt lat="38.879899" lon="-9.042291">
        <ele>11.243</ele>
        <time>2015-03-19T11:02:29Z</time>
      </trkpt>
      <trkpt lat="38.879932" lon="-9.042236">
        <ele>11.223</ele>
        <time>2015-03-19T11:02:31Z</time>
      </trkpt>
      <trkpt lat="38.880116" lon="-9.042281">
        <ele>9.361</ele>
        <time>2015-03-19T11:02:37Z</time>
      </trkpt>
      <trkpt lat="38.880197" lon="-9.042363">
        <ele>8.326</ele>
        <time>2015-03-19T11:02:39Z</time>
      </trkpt>
      <trkpt lat="38.880660" lon="-9.042864">
        <ele>6.953</ele>
        <time>2015-03-19T11:02:54Z</time>
      </trkpt>
      <trkpt lat="38.880768" lon="-9.042925">
        <ele>7.842</ele>
        <time>2015-03-19T11:02:58Z</time>
      </trkpt>
      <trkpt lat="38.881113" lon="-9.042869">
        <ele>8.322</ele>
        <time>2015-03-19T11:03:10Z</time>
      </trkpt>
      <trkpt lat="38.881452" lon="-9.042432">
        <ele>8.314</ele>
        <time>2015-03-19T11:03:23Z</time>
      </trkpt>
      <trkpt lat="38.881824" lon="-9.042129">
        <ele>8.307</ele>
        <time>2015-03-19T11:03:35Z</time>
      </trkpt>
      <trkpt lat="38.882117" lon="-9.041762">
        <ele>8.353</ele>
        <time>2015-03-19T11:03:47Z</time>
      </trkpt>
      <trkpt lat="38.882518" lon="-9.041540">
        <ele>8.836</ele>
        <time>2015-03-19T11:04:00Z</time>
      </trkpt>
      <trkpt lat="38.882987" lon="-9.040996">
        <ele>8.838</ele>
        <time>2015-03-19T11:04:17Z</time>
      </trkpt>
      <trkpt lat="38.883419" lon="-9.040580">
        <ele>8.818</ele>
        <time>2015-03-19T11:04:31Z</time>
      </trkpt>
      <trkpt lat="38.883587" lon="-9.040391">
        <ele>8.816</ele>
        <time>2015-03-19T11:04:37Z</time>
      </trkpt>
      <trkpt lat="38.883735" lon="-9.040227">
        <ele>8.811</ele>
        <time>2015-03-19T11:04:42Z</time>
      </trkpt>
      <trkpt lat="38.884053" lon="-9.039894">
        <ele>9.858</ele>
        <time>2015-03-19T11:04:54Z</time>
      </trkpt>
      <trkpt lat="38.884418" lon="-9.039594">
        <ele>9.844</ele>
        <time>2015-03-19T11:05:06Z</time>
      </trkpt>
      <trkpt lat="38.884591" lon="-9.039367">
        <ele>9.805</ele>
        <time>2015-03-19T11:05:13Z</time>
      </trkpt>
      <trkpt lat="38.884728" lon="-9.039219">
        <ele>9.815</ele>
        <time>2015-03-19T11:05:18Z</time>
      </trkpt>
      <trkpt lat="38.884868" lon="-9.039062">
        <ele>9.807</ele>
        <time>2015-03-19T11:05:23Z</time>
      </trkpt>
      <trkpt lat="38.885351" lon="-9.038534">
        <ele>9.883</ele>
        <time>2015-03-19T11:05:39Z</time>
      </trkpt>
      <trkpt lat="38.885754" lon="-9.038174">
        <ele>9.856</ele>
        <time>2015-03-19T11:05:52Z</time>
      </trkpt>
      <trkpt lat="38.886212" lon="-9.037662">
        <ele>8.388</ele>
        <time>2015-03-19T11:06:08Z</time>
      </trkpt>
      <trkpt lat="38.886867" lon="-9.036955">
        <ele>7.888</ele>
        <time>2015-03-19T11:06:30Z</time>
      </trkpt>
      <trkpt lat="38.887471" lon="-9.036314">
        <ele>7.486</ele>
        <time>2015-03-19T11:06:50Z</time>
      </trkpt>
      <trkpt lat="38.887960" lon="-9.035792">
        <ele>7.441</ele>
        <time>2015-03-19T11:07:07Z</time>
      </trkpt>
      <trkpt lat="38.888542" lon="-9.035198">
        <ele>7.418</ele>
        <time>2015-03-19T11:07:26Z</time>
      </trkpt>
      <trkpt lat="38.888861" lon="-9.034848">
        <ele>8.325</ele>
        <time>2015-03-19T11:07:37Z</time>
      </trkpt>
      <trkpt lat="38.889369" lon="-9.034347">
        <ele>8.326</ele>
        <time>2015-03-19T11:07:53Z</time>
      </trkpt>
      <trkpt lat="38.889837" lon="-9.033763">
        <ele>9.308</ele>
        <time>2015-03-19T11:08:10Z</time>
      </trkpt>
      <trkpt lat="38.890262" lon="-9.033274">
        <ele>9.807</ele>
        <time>2015-03-19T11:08:26Z</time>
      </trkpt>
      <trkpt lat="38.890298" lon="-9.032995">
        <ele>7.881</ele>
        <time>2015-03-19T11:08:33Z</time>
      </trkpt>
      <trkpt lat="38.890319" lon="-9.032800">
        <ele>7.844</ele>
        <time>2015-03-19T11:08:39Z</time>
      </trkpt>
      <trkpt lat="38.890481" lon="-9.032999">
        <ele>8.836</ele>
        <time>2015-03-19T11:10:35Z</time>
      </trkpt>
      <trkpt lat="38.890464" lon="-9.033128">
        <ele>11.726</ele>
        <time>2015-03-19T11:11:11Z</time>
      </trkpt>
      <trkpt lat="38.890457" lon="-9.033204">
        <ele>11.784</ele>
        <time>2015-03-19T11:11:32Z</time>
      </trkpt>
      <trkpt lat="38.890461" lon="-9.033264">
        <ele>17.999</ele>
        <time>2015-03-19T11:12:20Z</time>
      </trkpt>
      <trkpt lat="38.890514" lon="-9.033354">
        <ele>17.916</ele>
        <time>2015-03-19T11:12:33Z</time>
      </trkpt>
      <trkpt lat="38.890564" lon="-9.033448">
        <ele>17.963</ele>
        <time>2015-03-19T11:12:48Z</time>
      </trkpt>
      <trkpt lat="38.890637" lon="-9.033663">
        <ele>14.644</ele>
        <time>2015-03-19T11:13:03Z</time>
      </trkpt>
      <trkpt lat="38.890787" lon="-9.033609">
        <ele>10.218</ele>
        <time>2015-03-19T11:13:31Z</time>
      </trkpt>
      <trkpt lat="38.890860" lon="-9.033646">
        <ele>8.807</ele>
        <time>2015-03-19T11:14:07Z</time>
      </trkpt>
      <trkpt lat="38.890915" lon="-9.033725">
        <ele>8.865</ele>
        <time>2015-03-19T11:14:15Z</time>
      </trkpt>
      <trkpt lat="38.891220" lon="-9.034117">
        <ele>9.388</ele>
        <time>2015-03-19T11:14:28Z</time>
      </trkpt>
      <trkpt lat="38.891274" lon="-9.034186">
        <ele>19.480</ele>
        <time>2015-03-19T11:43:39Z</time>
      </trkpt>
      <trkpt lat="38.891398" lon="-9.034326">
        <ele>19.830</ele>
        <time>2015-03-19T11:43:49Z</time>
      </trkpt>
      <trkpt lat="38.891734" lon="-9.034724">
        <ele>19.838</ele>
        <time>2015-03-19T11:44:04Z</time>
      </trkpt>
      <trkpt lat="38.892143" lon="-9.035076">
        <ele>19.863</ele>
        <time>2015-03-19T11:44:19Z</time>
      </trkpt>
      <trkpt lat="38.892697" lon="-9.035303">
        <ele>19.440</ele>
        <time>2015-03-19T11:44:36Z</time>
      </trkpt>
      <trkpt lat="38.893318" lon="-9.035401">
        <ele>19.426</ele>
        <time>2015-03-19T11:44:54Z</time>
      </trkpt>
      <trkpt lat="38.893794" lon="-9.035576">
        <ele>19.847</ele>
        <time>2015-03-19T11:45:10Z</time>
      </trkpt>
      <trkpt lat="38.893954" lon="-9.035424">
        <ele>20.311</ele>
        <time>2015-03-19T11:45:18Z</time>
      </trkpt>
      <trkpt lat="38.894299" lon="-9.035415">
        <ele>20.807</ele>
        <time>2015-03-19T11:45:30Z</time>
      </trkpt>
      <trkpt lat="38.894768" lon="-9.035377">
        <ele>21.891</ele>
        <time>2015-03-19T11:45:45Z</time>
      </trkpt>
      <trkpt lat="38.895132" lon="-9.035437">
        <ele>23.244</ele>
        <time>2015-03-19T11:45:57Z</time>
      </trkpt>
      <trkpt lat="38.895232" lon="-9.035331">
        <ele>23.276</ele>
        <time>2015-03-19T11:46:02Z</time>
      </trkpt>
      <trkpt lat="38.895352" lon="-9.035217">
        <ele>21.316</ele>
        <time>2015-03-19T11:46:06Z</time>
      </trkpt>
      <trkpt lat="38.895520" lon="-9.034763">
        <ele>21.334</ele>
        <time>2015-03-19T11:46:16Z</time>
      </trkpt>
      <trkpt lat="38.895680" lon="-9.034275">
        <ele>20.859</ele>
        <time>2015-03-19T11:46:28Z</time>
      </trkpt>
      <trkpt lat="38.895786" lon="-9.034282">
        <ele>20.826</ele>
        <time>2015-03-19T11:46:33Z</time>
      </trkpt>
      <trkpt lat="38.896315" lon="-9.034698">
        <ele>20.814</ele>
        <time>2015-03-19T11:46:51Z</time>
      </trkpt>
      <trkpt lat="38.896530" lon="-9.034883">
        <ele>21.854</ele>
        <time>2015-03-19T11:46:59Z</time>
      </trkpt>
      <trkpt lat="38.896624" lon="-9.034855">
        <ele>22.709</ele>
        <time>2015-03-19T11:47:06Z</time>
      </trkpt>
      <trkpt lat="38.896751" lon="-9.034699">
        <ele>21.807</ele>
        <time>2015-03-19T11:47:13Z</time>
      </trkpt>
      <trkpt lat="38.896847" lon="-9.034580">
        <ele>20.810</ele>
        <time>2015-03-19T11:47:16Z</time>
      </trkpt>
      <trkpt lat="38.897030" lon="-9.034308">
        <ele>20.373</ele>
        <time>2015-03-19T11:47:25Z</time>
      </trkpt>
      <trkpt lat="38.897245" lon="-9.033970">
        <ele>20.335</ele>
        <time>2015-03-19T11:47:41Z</time>
      </trkpt>
      <trkpt lat="38.897429" lon="-9.033642">
        <ele>19.855</ele>
        <time>2015-03-19T11:47:55Z</time>
      </trkpt>
      <trkpt lat="38.897621" lon="-9.033327">
        <ele>19.813</ele>
        <time>2015-03-19T11:48:09Z</time>
      </trkpt>
      <trkpt lat="38.897861" lon="-9.033009">
        <ele>19.898</ele>
        <time>2015-03-19T11:48:24Z</time>
      </trkpt>
      <trkpt lat="38.898115" lon="-9.032536">
        <ele>19.865</ele>
        <time>2015-03-19T11:48:44Z</time>
      </trkpt>
      <trkpt lat="38.898341" lon="-9.032138">
        <ele>20.868</ele>
        <time>2015-03-19T11:49:01Z</time>
      </trkpt>
      <trkpt lat="38.898590" lon="-9.031710">
        <ele>21.342</ele>
        <time>2015-03-19T11:49:20Z</time>
      </trkpt>
      <trkpt lat="38.898819" lon="-9.031363">
        <ele>21.326</ele>
        <time>2015-03-19T11:49:36Z</time>
      </trkpt>
      <trkpt lat="38.899009" lon="-9.031078">
        <ele>22.307</ele>
        <time>2015-03-19T11:49:50Z</time>
      </trkpt>
      <trkpt lat="38.899236" lon="-9.030882">
        <ele>22.365</ele>
        <time>2015-03-19T11:50:03Z</time>
      </trkpt>
      <trkpt lat="38.899513" lon="-9.030660">
        <ele>22.748</ele>
        <time>2015-03-19T11:50:18Z</time>
      </trkpt>
      <trkpt lat="38.899771" lon="-9.030502">
        <ele>23.280</ele>
        <time>2015-03-19T11:50:32Z</time>
      </trkpt>
      <trkpt lat="38.899958" lon="-9.030320">
        <ele>24.270</ele>
        <time>2015-03-19T11:50:45Z</time>
      </trkpt>
      <trkpt lat="38.899943" lon="-9.030216">
        <ele>23.768</ele>
        <time>2015-03-19T11:51:15Z</time>
      </trkpt>
      <trkpt lat="38.899830" lon="-9.029843">
        <ele>23.783</ele>
        <time>2015-03-19T11:51:27Z</time>
      </trkpt>
      <trkpt lat="38.899782" lon="-9.029405">
        <ele>24.210</ele>
        <time>2015-03-19T11:51:39Z</time>
      </trkpt>
      <trkpt lat="38.899919" lon="-9.028966">
        <ele>24.235</ele>
        <time>2015-03-19T11:51:51Z</time>
      </trkpt>
      <trkpt lat="38.900110" lon="-9.028382">
        <ele>24.286</ele>
        <time>2015-03-19T11:52:06Z</time>
      </trkpt>
      <trkpt lat="38.900296" lon="-9.027983">
        <ele>24.214</ele>
        <time>2015-03-19T11:52:18Z</time>
      </trkpt>
      <trkpt lat="38.900495" lon="-9.027693">
        <ele>24.207</ele>
        <time>2015-03-19T11:52:28Z</time>
      </trkpt>
      <trkpt lat="38.900922" lon="-9.027470">
        <ele>24.742</ele>
        <time>2015-03-19T11:52:43Z</time>
      </trkpt>
      <trkpt lat="38.901478" lon="-9.027400">
        <ele>25.615</ele>
        <time>2015-03-19T11:53:00Z</time>
      </trkpt>
      <trkpt lat="38.902146" lon="-9.027397">
        <ele>28.017</ele>
        <time>2015-03-19T11:53:20Z</time>
      </trkpt>
      <trkpt lat="38.902752" lon="-9.027518">
        <ele>28.537</ele>
        <time>2015-03-19T11:53:38Z</time>
      </trkpt>
      <trkpt lat="38.903480" lon="-9.027847">
        <ele>29.515</ele>
        <time>2015-03-19T11:54:00Z</time>
      </trkpt>
      <trkpt lat="38.904108" lon="-9.028120">
        <ele>30.990</ele>
        <time>2015-03-19T11:54:19Z</time>
      </trkpt>
      <trkpt lat="38.904501" lon="-9.027918">
        <ele>30.937</ele>
        <time>2015-03-19T11:54:31Z</time>
      </trkpt>
      <trkpt lat="38.904781" lon="-9.027493">
        <ele>30.925</ele>
        <time>2015-03-19T11:54:42Z</time>
      </trkpt>
      <trkpt lat="38.905248" lon="-9.026948">
        <ele>29.526</ele>
        <time>2015-03-19T11:54:57Z</time>
      </trkpt>
      <trkpt lat="38.905632" lon="-9.026632">
        <ele>27.108</ele>
        <time>2015-03-19T11:55:07Z</time>
      </trkpt>
      <trkpt lat="38.905902" lon="-9.026701">
        <ele>26.107</ele>
        <time>2015-03-19T11:55:13Z</time>
      </trkpt>
      <trkpt lat="38.906508" lon="-9.027145">
        <ele>25.691</ele>
        <time>2015-03-19T11:55:28Z</time>
      </trkpt>
      <trkpt lat="38.907058" lon="-9.027228">
        <ele>28.054</ele>
        <time>2015-03-19T11:55:43Z</time>
      </trkpt>
      <trkpt lat="38.907249" lon="-9.027277">
        <ele>28.036</ele>
        <time>2015-03-19T11:55:48Z</time>
      </trkpt>
      <trkpt lat="38.907681" lon="-9.027424">
        <ele>28.016</ele>
        <time>2015-03-19T11:55:59Z</time>
      </trkpt>
      <trkpt lat="38.908199" lon="-9.028001">
        <ele>26.674</ele>
        <time>2015-03-19T11:56:15Z</time>
      </trkpt>
      <trkpt lat="38.908516" lon="-9.027989">
        <ele>26.169</ele>
        <time>2015-03-19T11:56:25Z</time>
      </trkpt>
      <trkpt lat="38.908636" lon="-9.027738">
        <ele>28.566</ele>
        <time>2015-03-19T11:56:32Z</time>
      </trkpt>
      <trkpt lat="38.908935" lon="-9.027233">
        <ele>29.992</ele>
        <time>2015-03-19T11:56:50Z</time>
      </trkpt>
      <trkpt lat="38.909314" lon="-9.026827">
        <ele>30.973</ele>
        <time>2015-03-19T11:57:05Z</time>
      </trkpt>
      <trkpt lat="38.909899" lon="-9.026350">
        <ele>30.920</ele>
        <time>2015-03-19T11:57:23Z</time>
      </trkpt>
      <trkpt lat="38.910283" lon="-9.026118">
        <ele>29.507</ele>
        <time>2015-03-19T11:57:33Z</time>
      </trkpt>
      <trkpt lat="38.910914" lon="-9.025647">
        <ele>28.028</ele>
        <time>2015-03-19T11:57:48Z</time>
      </trkpt>
      <trkpt lat="38.911529" lon="-9.025086">
        <ele>28.081</ele>
        <time>2015-03-19T11:58:06Z</time>
      </trkpt>
      <trkpt lat="38.912243" lon="-9.024450">
        <ele>27.113</ele>
        <time>2015-03-19T11:58:25Z</time>
      </trkpt>
      <trkpt lat="38.912913" lon="-9.023876">
        <ele>25.693</ele>
        <time>2015-03-19T11:58:43Z</time>
      </trkpt>
      <trkpt lat="38.913502" lon="-9.023285">
        <ele>25.641</ele>
        <time>2015-03-19T11:59:01Z</time>
      </trkpt>
      <trkpt lat="38.913773" lon="-9.022935">
        <ele>26.676</ele>
        <time>2015-03-19T11:59:10Z</time>
      </trkpt>
      <trkpt lat="38.913849" lon="-9.022815">
        <ele>26.633</ele>
        <time>2015-03-19T11:59:13Z</time>
      </trkpt>
      <trkpt lat="38.914270" lon="-9.021985">
        <ele>25.661</ele>
        <time>2015-03-19T11:59:30Z</time>
      </trkpt>
      <trkpt lat="38.914439" lon="-9.021715">
        <ele>24.221</ele>
        <time>2015-03-19T11:59:35Z</time>
      </trkpt>
      <trkpt lat="38.914991" lon="-9.021277">
        <ele>21.313</ele>
        <time>2015-03-19T11:59:45Z</time>
      </trkpt>
      <trkpt lat="38.915729" lon="-9.021036">
        <ele>20.307</ele>
        <time>2015-03-19T11:59:59Z</time>
      </trkpt>
      <trkpt lat="38.916544" lon="-9.020744">
        <ele>18.495</ele>
        <time>2015-03-19T12:00:17Z</time>
      </trkpt>
      <trkpt lat="38.916695" lon="-9.020667">
        <ele>19.448</ele>
        <time>2015-03-19T12:00:20Z</time>
      </trkpt>
      <trkpt lat="38.916788" lon="-9.020603">
        <ele>17.930</ele>
        <time>2015-03-19T12:00:22Z</time>
      </trkpt>
      <trkpt lat="38.917513" lon="-9.019989">
        <ele>17.090</ele>
        <time>2015-03-19T12:00:40Z</time>
      </trkpt>
      <trkpt lat="38.917678" lon="-9.019812">
        <ele>18.448</ele>
        <time>2015-03-19T12:00:45Z</time>
      </trkpt>
      <trkpt lat="38.918239" lon="-9.019158">
        <ele>18.983</ele>
        <time>2015-03-19T12:01:02Z</time>
      </trkpt>
      <trkpt lat="38.918812" lon="-9.018475">
        <ele>20.810</ele>
        <time>2015-03-19T12:01:20Z</time>
      </trkpt>
      <trkpt lat="38.919225" lon="-9.017956">
        <ele>19.429</ele>
        <time>2015-03-19T12:01:32Z</time>
      </trkpt>
      <trkpt lat="38.919885" lon="-9.017114">
        <ele>18.400</ele>
        <time>2015-03-19T12:01:52Z</time>
      </trkpt>
      <trkpt lat="38.920216" lon="-9.016777">
        <ele>18.420</ele>
        <time>2015-03-19T12:02:02Z</time>
      </trkpt>
      <trkpt lat="38.920326" lon="-9.016683">
        <ele>18.407</ele>
        <time>2015-03-19T12:02:05Z</time>
      </trkpt>
      <trkpt lat="38.920631" lon="-9.016392">
        <ele>18.481</ele>
        <time>2015-03-19T12:02:13Z</time>
      </trkpt>
      <trkpt lat="38.920900" lon="-9.016152">
        <ele>18.464</ele>
        <time>2015-03-19T12:02:20Z</time>
      </trkpt>
      <trkpt lat="38.921466" lon="-9.015600">
        <ele>18.416</ele>
        <time>2015-03-19T12:02:35Z</time>
      </trkpt>
      <trkpt lat="38.921972" lon="-9.014895">
        <ele>17.996</ele>
        <time>2015-03-19T12:02:51Z</time>
      </trkpt>
      <trkpt lat="38.922033" lon="-9.014803">
        <ele>18.994</ele>
        <time>2015-03-19T12:02:53Z</time>
      </trkpt>
      <trkpt lat="38.922094" lon="-9.014708">
        <ele>17.949</ele>
        <time>2015-03-19T12:02:55Z</time>
      </trkpt>
      <trkpt lat="38.922278" lon="-9.014429">
        <ele>18.986</ele>
        <time>2015-03-19T12:03:01Z</time>
      </trkpt>
      <trkpt lat="38.922403" lon="-9.014255">
        <ele>19.454</ele>
        <time>2015-03-19T12:03:05Z</time>
      </trkpt>
      <trkpt lat="38.922786" lon="-9.013628">
        <ele>18.956</ele>
        <time>2015-03-19T12:03:19Z</time>
      </trkpt>
      <trkpt lat="38.922852" lon="-9.013539">
        <ele>18.911</ele>
        <time>2015-03-19T12:03:21Z</time>
      </trkpt>
      <trkpt lat="38.923432" lon="-9.012697">
        <ele>18.907</ele>
        <time>2015-03-19T12:03:40Z</time>
      </trkpt>
      <trkpt lat="38.923773" lon="-9.012293">
        <ele>18.444</ele>
        <time>2015-03-19T12:03:52Z</time>
      </trkpt>
      <trkpt lat="38.923841" lon="-9.012231">
        <ele>19.897</ele>
        <time>2015-03-19T12:03:54Z</time>
      </trkpt>
      <trkpt lat="38.924374" lon="-9.011726">
        <ele>22.369</ele>
        <time>2015-03-19T12:04:12Z</time>
      </trkpt>
      <trkpt lat="38.924563" lon="-9.011257">
        <ele>24.789</ele>
        <time>2015-03-19T12:04:26Z</time>
      </trkpt>
      <trkpt lat="38.924359" lon="-9.010694">
        <ele>24.737</ele>
        <time>2015-03-19T12:04:39Z</time>
      </trkpt>
      <trkpt lat="38.924295" lon="-9.010145">
        <ele>21.822</ele>
        <time>2015-03-19T12:04:46Z</time>
      </trkpt>
      <trkpt lat="38.924292" lon="-9.009841">
        <ele>18.939</ele>
        <time>2015-03-19T12:04:50Z</time>
      </trkpt>
      <trkpt lat="38.924373" lon="-9.009547">
        <ele>16.546</ele>
        <time>2015-03-19T12:04:54Z</time>
      </trkpt>
      <trkpt lat="38.924462" lon="-9.009334">
        <ele>15.588</ele>
        <time>2015-03-19T12:04:57Z</time>
      </trkpt>
      <trkpt lat="38.924800" lon="-9.009094">
        <ele>15.016</ele>
        <time>2015-03-19T12:05:05Z</time>
      </trkpt>
      <trkpt lat="38.924889" lon="-9.009092">
        <ele>15.007</ele>
        <time>2015-03-19T12:05:07Z</time>
      </trkpt>
      <trkpt lat="38.925053" lon="-9.009030">
        <ele>15.033</ele>
        <time>2015-03-19T12:05:11Z</time>
      </trkpt>
      <trkpt lat="38.925268" lon="-9.008852">
        <ele>15.016</ele>
        <time>2015-03-19T12:05:17Z</time>
      </trkpt>
      <trkpt lat="38.925486" lon="-9.008619">
        <ele>15.028</ele>
        <time>2015-03-19T12:05:24Z</time>
      </trkpt>
      <trkpt lat="38.925469" lon="-9.008433">
        <ele>15.058</ele>
        <time>2015-03-19T12:05:28Z</time>
      </trkpt>
      <trkpt lat="38.925307" lon="-9.008046">
        <ele>15.026</ele>
        <time>2015-03-19T12:05:36Z</time>
      </trkpt>
      <trkpt lat="38.925245" lon="-9.007899">
        <ele>15.021</ele>
        <time>2015-03-19T12:05:39Z</time>
      </trkpt>
      <trkpt lat="38.925060" lon="-9.007416">
        <ele>15.058</ele>
        <time>2015-03-19T12:05:49Z</time>
      </trkpt>
      <trkpt lat="38.925008" lon="-9.007331">
        <ele>15.031</ele>
        <time>2015-03-19T12:05:51Z</time>
      </trkpt>
      <trkpt lat="38.924721" lon="-9.006648">
        <ele>15.061</ele>
        <time>2015-03-19T12:06:06Z</time>
      </trkpt>
      <trkpt lat="38.924774" lon="-9.006570">
        <ele>15.007</ele>
        <time>2015-03-19T12:06:16Z</time>
      </trkpt>
      <trkpt lat="38.924890" lon="-9.006432">
        <ele>14.607</ele>
        <time>2015-03-19T12:06:27Z</time>
      </trkpt>
      <trkpt lat="38.925455" lon="-9.006127">
        <ele>14.672</ele>
        <time>2015-03-19T12:06:43Z</time>
      </trkpt>
      <trkpt lat="38.925550" lon="-9.006168">
        <ele>14.615</ele>
        <time>2015-03-19T12:06:46Z</time>
      </trkpt>
      <trkpt lat="38.925961" lon="-9.006137">
        <ele>14.137</ele>
        <time>2015-03-19T12:06:59Z</time>
      </trkpt>
      <trkpt lat="38.926497" lon="-9.005960">
        <ele>14.127</ele>
        <time>2015-03-19T12:07:13Z</time>
      </trkpt>
      <trkpt lat="38.926978" lon="-9.005812">
        <ele>14.125</ele>
        <time>2015-03-19T12:07:26Z</time>
      </trkpt>
      <trkpt lat="38.927684" lon="-9.005725">
        <ele>14.170</ele>
        <time>2015-03-19T12:07:44Z</time>
      </trkpt>
      <trkpt lat="38.928396" lon="-9.005670">
        <ele>14.197</ele>
        <time>2015-03-19T12:08:02Z</time>
      </trkpt>
      <trkpt lat="38.929203" lon="-9.005500">
        <ele>13.666</ele>
        <time>2015-03-19T12:08:22Z</time>
      </trkpt>
      <trkpt lat="38.929909" lon="-9.005146">
        <ele>13.629</ele>
        <time>2015-03-19T12:08:40Z</time>
      </trkpt>
      <trkpt lat="38.930549" lon="-9.004879">
        <ele>15.021</ele>
        <time>2015-03-19T12:08:56Z</time>
      </trkpt>
      <trkpt lat="38.930917" lon="-9.005094">
        <ele>15.007</ele>
        <time>2015-03-19T12:09:06Z</time>
      </trkpt>
      <trkpt lat="38.931272" lon="-9.005324">
        <ele>15.015</ele>
        <time>2015-03-19T12:09:16Z</time>
      </trkpt>
      <trkpt lat="38.931406" lon="-9.005247">
        <ele>15.018</ele>
        <time>2015-03-19T12:09:20Z</time>
      </trkpt>
      <trkpt lat="38.932195" lon="-9.004857">
        <ele>16.060</ele>
        <time>2015-03-19T12:09:41Z</time>
      </trkpt>
      <trkpt lat="38.932311" lon="-9.004796">
        <ele>16.030</ele>
        <time>2015-03-19T12:09:44Z</time>
      </trkpt>
      <trkpt lat="38.932378" lon="-9.004562">
        <ele>16.018</ele>
        <time>2015-03-19T12:09:49Z</time>
      </trkpt>
      <trkpt lat="38.932359" lon="-9.004374">
        <ele>16.023</ele>
        <time>2015-03-19T12:09:52Z</time>
      </trkpt>
      <trkpt lat="38.932457" lon="-9.004092">
        <ele>16.060</ele>
        <time>2015-03-19T12:09:57Z</time>
      </trkpt>
      <trkpt lat="38.932976" lon="-9.003678">
        <ele>14.666</ele>
        <time>2015-03-19T12:10:11Z</time>
      </trkpt>
      <trkpt lat="38.933427" lon="-9.003329">
        <ele>14.629</ele>
        <time>2015-03-19T12:10:24Z</time>
      </trkpt>
      <trkpt lat="38.933632" lon="-9.003045">
        <ele>14.621</ele>
        <time>2015-03-19T12:10:31Z</time>
      </trkpt>
      <trkpt lat="38.934215" lon="-9.002565">
        <ele>14.107</ele>
        <time>2015-03-19T12:10:47Z</time>
      </trkpt>
      <trkpt lat="38.934978" lon="-9.001948">
        <ele>14.165</ele>
        <time>2015-03-19T12:11:08Z</time>
      </trkpt>
      <trkpt lat="38.935611" lon="-9.001451">
        <ele>14.168</ele>
        <time>2015-03-19T12:11:25Z</time>
      </trkpt>
      <trkpt lat="38.936221" lon="-9.001066">
        <ele>14.170</ele>
        <time>2015-03-19T12:11:42Z</time>
      </trkpt>
      <trkpt lat="38.936305" lon="-9.000989">
        <ele>14.130</ele>
        <time>2015-03-19T12:12:24Z</time>
      </trkpt>
      <trkpt lat="38.936542" lon="-9.000852">
        <ele>14.158</ele>
        <time>2015-03-19T12:12:31Z</time>
      </trkpt>
      <trkpt lat="38.937201" lon="-9.000208">
        <ele>14.193</ele>
        <time>2015-03-19T12:12:50Z</time>
      </trkpt>
      <trkpt lat="38.938000" lon="-8.999412">
        <ele>14.140</ele>
        <time>2015-03-19T12:13:12Z</time>
      </trkpt>
      <trkpt lat="38.938731" lon="-8.998690">
        <ele>14.133</ele>
        <time>2015-03-19T12:13:32Z</time>
      </trkpt>
      <trkpt lat="38.939524" lon="-8.997899">
        <ele>14.123</ele>
        <time>2015-03-19T12:13:53Z</time>
      </trkpt>
      <trkpt lat="38.940335" lon="-8.997092">
        <ele>13.615</ele>
        <time>2015-03-19T12:14:15Z</time>
      </trkpt>
      <trkpt lat="38.941185" lon="-8.996279">
        <ele>13.607</ele>
        <time>2015-03-19T12:14:38Z</time>
      </trkpt>
      <trkpt lat="38.941224" lon="-8.996246">
        <ele>13.672</ele>
        <time>2015-03-19T12:14:39Z</time>
      </trkpt>
      <trkpt lat="38.942102" lon="-8.995483">
        <ele>13.635</ele>
        <time>2015-03-19T12:15:01Z</time>
      </trkpt>
      <trkpt lat="38.942441" lon="-8.995130">
        <ele>13.647</ele>
        <time>2015-03-19T12:15:10Z</time>
      </trkpt>
      <trkpt lat="38.943021" lon="-8.994771">
        <ele>13.617</ele>
        <time>2015-03-19T12:15:24Z</time>
      </trkpt>
      <trkpt lat="38.943613" lon="-8.994417">
        <ele>13.685</ele>
        <time>2015-03-19T12:15:38Z</time>
      </trkpt>
      <trkpt lat="38.944041" lon="-8.994157">
        <ele>13.670</ele>
        <time>2015-03-19T12:15:48Z</time>
      </trkpt>
      <trkpt lat="38.944129" lon="-8.994124">
        <ele>13.657</ele>
        <time>2015-03-19T12:15:50Z</time>
      </trkpt>
      <trkpt lat="38.944972" lon="-8.993590">
        <ele>13.656</ele>
        <time>2015-03-19T12:16:10Z</time>
      </trkpt>
      <trkpt lat="38.945913" lon="-8.992974">
        <ele>13.659</ele>
        <time>2015-03-19T12:16:33Z</time>
      </trkpt>
      <trkpt lat="38.947022" lon="-8.992254">
        <ele>13.114</ele>
        <time>2015-03-19T12:16:59Z</time>
      </trkpt>
      <trkpt lat="38.947921" lon="-8.991672">
        <ele>13.107</ele>
        <time>2015-03-19T12:17:20Z</time>
      </trkpt>
      <trkpt lat="38.948892" lon="-8.991034">
        <ele>13.134</ele>
        <time>2015-03-19T12:17:43Z</time>
      </trkpt>
      <trkpt lat="38.949695" lon="-8.990492">
        <ele>13.167</ele>
        <time>2015-03-19T12:18:02Z</time>
      </trkpt>
      <trkpt lat="38.950546" lon="-8.989818">
        <ele>13.149</ele>
        <time>2015-03-19T12:18:23Z</time>
      </trkpt>
      <trkpt lat="38.950617" lon="-8.989509">
        <ele>13.119</ele>
        <time>2015-03-19T12:18:30Z</time>
      </trkpt>
      <trkpt lat="38.950591" lon="-8.989270">
        <ele>13.177</ele>
        <time>2015-03-19T12:18:37Z</time>
      </trkpt>
      <trkpt lat="38.951167" lon="-8.988746">
        <ele>13.142</ele>
        <time>2015-03-19T12:18:55Z</time>
      </trkpt>
      <trkpt lat="38.951802" lon="-8.988120">
        <ele>13.139</ele>
        <time>2015-03-19T12:19:14Z</time>
      </trkpt>
      <trkpt lat="38.952132" lon="-8.987689">
        <ele>13.154</ele>
        <time>2015-03-19T12:19:27Z</time>
      </trkpt>
      <trkpt lat="38.952404" lon="-8.987407">
        <ele>12.656</ele>
        <time>2015-03-19T12:19:50Z</time>
      </trkpt>
      <trkpt lat="38.952711" lon="-8.987237">
        <ele>12.211</ele>
        <time>2015-03-19T12:20:14Z</time>
      </trkpt>
      <trkpt lat="38.953151" lon="-8.987329">
        <ele>12.207</ele>
        <time>2015-03-19T12:20:29Z</time>
      </trkpt>
      <trkpt lat="38.953377" lon="-8.987172">
        <ele>13.174</ele>
        <time>2015-03-19T12:20:37Z</time>
      </trkpt>
      <trkpt lat="38.953699" lon="-8.987015">
        <ele>13.617</ele>
        <time>2015-03-19T12:21:52Z</time>
      </trkpt>
      <trkpt lat="38.954207" lon="-8.986661">
        <ele>13.619</ele>
        <time>2015-03-19T12:22:07Z</time>
      </trkpt>
      <trkpt lat="38.954750" lon="-8.986278">
        <ele>13.659</ele>
        <time>2015-03-19T12:22:22Z</time>
      </trkpt>
      <trkpt lat="38.954936" lon="-8.986165">
        <ele>13.627</ele>
        <time>2015-03-19T12:22:27Z</time>
      </trkpt>
      <trkpt lat="38.955429" lon="-8.985812">
        <ele>13.622</ele>
        <time>2015-03-19T12:22:40Z</time>
      </trkpt>
      <trkpt lat="38.956106" lon="-8.985342">
        <ele>13.629</ele>
        <time>2015-03-19T12:22:58Z</time>
      </trkpt>
      <trkpt lat="38.956503" lon="-8.985040">
        <ele>13.656</ele>
        <time>2015-03-19T12:23:10Z</time>
      </trkpt>
      <trkpt lat="38.956476" lon="-8.984720">
        <ele>13.659</ele>
        <time>2015-03-19T12:23:19Z</time>
      </trkpt>
      <trkpt lat="38.956619" lon="-8.984588">
        <ele>13.614</ele>
        <time>2015-03-19T12:23:24Z</time>
      </trkpt>
      <trkpt lat="38.957253" lon="-8.983909">
        <ele>11.707</ele>
        <time>2015-03-19T12:23:43Z</time>
      </trkpt>
      <trkpt lat="38.957879" lon="-8.983222">
        <ele>12.234</ele>
        <time>2015-03-19T12:24:03Z</time>
      </trkpt>
      <trkpt lat="38.958083" lon="-8.983026">
        <ele>13.147</ele>
        <time>2015-03-19T12:24:09Z</time>
      </trkpt>
      <trkpt lat="38.958757" lon="-8.982355">
        <ele>13.139</ele>
        <time>2015-03-19T12:24:29Z</time>
      </trkpt>
      <trkpt lat="38.958919" lon="-8.982176">
        <ele>13.119</ele>
        <time>2015-03-19T12:24:34Z</time>
      </trkpt>
      <trkpt lat="38.959494" lon="-8.981609">
        <ele>13.117</ele>
        <time>2015-03-19T12:24:52Z</time>
      </trkpt>
      <trkpt lat="38.960181" lon="-8.980857">
        <ele>13.192</ele>
        <time>2015-03-19T12:25:14Z</time>
      </trkpt>
      <trkpt lat="38.960797" lon="-8.980072">
        <ele>13.159</ele>
        <time>2015-03-19T12:25:35Z</time>
      </trkpt>
      <trkpt lat="38.961408" lon="-8.979239">
        <ele>13.189</ele>
        <time>2015-03-19T12:25:56Z</time>
      </trkpt>
      <trkpt lat="38.962042" lon="-8.978393">
        <ele>13.106</ele>
        <time>2015-03-19T12:26:18Z</time>
      </trkpt>
      <trkpt lat="38.962802" lon="-8.977895">
        <ele>13.126</ele>
        <time>2015-03-19T12:26:38Z</time>
      </trkpt>
      <trkpt lat="38.963691" lon="-8.977850">
        <ele>13.107</ele>
        <time>2015-03-19T12:26:58Z</time>
      </trkpt>
      <trkpt lat="38.964698" lon="-8.978055">
        <ele>13.187</ele>
        <time>2015-03-19T12:27:21Z</time>
      </trkpt>
      <trkpt lat="38.965442" lon="-8.978204">
        <ele>13.130</ele>
        <time>2015-03-19T12:27:38Z</time>
      </trkpt>
      <trkpt lat="38.966413" lon="-8.978404">
        <ele>13.122</ele>
        <time>2015-03-19T12:28:00Z</time>
      </trkpt>
      <trkpt lat="38.967127" lon="-8.978663">
        <ele>14.172</ele>
        <time>2015-03-19T12:28:18Z</time>
      </trkpt>
      <trkpt lat="38.967317" lon="-8.978519">
        <ele>12.640</ele>
        <time>2015-03-19T12:28:23Z</time>
      </trkpt>
      <trkpt lat="38.967386" lon="-8.978476">
        <ele>12.685</ele>
        <time>2015-03-19T12:28:47Z</time>
      </trkpt>
      <trkpt lat="38.967625" lon="-8.978357">
        <ele>12.682</ele>
        <time>2015-03-19T12:28:55Z</time>
      </trkpt>
      <trkpt lat="38.967765" lon="-8.978270">
        <ele>12.617</ele>
        <time>2015-03-19T12:28:59Z</time>
      </trkpt>
      <trkpt lat="38.968247" lon="-8.978032">
        <ele>12.287</ele>
        <time>2015-03-19T12:29:11Z</time>
      </trkpt>
      <trkpt lat="38.968367" lon="-8.977956">
        <ele>12.215</ele>
        <time>2015-03-19T12:29:14Z</time>
      </trkpt>
      <trkpt lat="38.968526" lon="-8.977852">
        <ele>12.207</ele>
        <time>2015-03-19T12:29:18Z</time>
      </trkpt>
      <trkpt lat="38.969094" lon="-8.977525">
        <ele>11.750</ele>
        <time>2015-03-19T12:29:32Z</time>
      </trkpt>
      <trkpt lat="38.969496" lon="-8.977319">
        <ele>11.783</ele>
        <time>2015-03-19T12:29:42Z</time>
      </trkpt>
      <trkpt lat="38.969652" lon="-8.977224">
        <ele>11.785</ele>
        <time>2015-03-19T12:29:46Z</time>
      </trkpt>
      <trkpt lat="38.970485" lon="-8.976886">
        <ele>11.295</ele>
        <time>2015-03-19T12:30:06Z</time>
      </trkpt>
      <trkpt lat="38.971036" lon="-8.976651">
        <ele>11.253</ele>
        <time>2015-03-19T12:30:19Z</time>
      </trkpt>
      <trkpt lat="38.971169" lon="-8.976597">
        <ele>11.268</ele>
        <time>2015-03-19T12:30:22Z</time>
      </trkpt>
      <trkpt lat="38.971247" lon="-8.976550">
        <ele>11.245</ele>
        <time>2015-03-19T12:30:24Z</time>
      </trkpt>
      <trkpt lat="38.971542" lon="-8.976403">
        <ele>11.264</ele>
        <time>2015-03-19T12:30:31Z</time>
      </trkpt>
      <trkpt lat="38.971800" lon="-8.976537">
        <ele>11.206</ele>
        <time>2015-03-19T12:30:38Z</time>
      </trkpt>
      <trkpt lat="38.972057" lon="-8.977084">
        <ele>11.216</ele>
        <time>2015-03-19T12:30:49Z</time>
      </trkpt>
      <trkpt lat="38.972294" lon="-8.977132">
        <ele>11.207</ele>
        <time>2015-03-19T12:30:55Z</time>
      </trkpt>
      <trkpt lat="38.972756" lon="-8.976795">
        <ele>10.715</ele>
        <time>2015-03-19T12:31:07Z</time>
      </trkpt>
      <trkpt lat="38.972860" lon="-8.976714">
        <ele>10.748</ele>
        <time>2015-03-19T12:31:10Z</time>
      </trkpt>
      <trkpt lat="38.973270" lon="-8.976420">
        <ele>10.760</ele>
        <time>2015-03-19T12:31:21Z</time>
      </trkpt>
      <trkpt lat="38.973354" lon="-8.976378">
        <ele>10.740</ele>
        <time>2015-03-19T12:31:23Z</time>
      </trkpt>
      <trkpt lat="38.973471" lon="-8.976265">
        <ele>10.718</ele>
        <time>2015-03-19T12:31:27Z</time>
      </trkpt>
      <trkpt lat="38.973572" lon="-8.976180">
        <ele>10.783</ele>
        <time>2015-03-19T12:31:30Z</time>
      </trkpt>
      <trkpt lat="38.973974" lon="-8.975921">
        <ele>10.740</ele>
        <time>2015-03-19T12:31:41Z</time>
      </trkpt>
      <trkpt lat="38.974158" lon="-8.975800">
        <ele>10.722</ele>
        <time>2015-03-19T12:31:46Z</time>
      </trkpt>
      <trkpt lat="38.974421" lon="-8.975615">
        <ele>10.762</ele>
        <time>2015-03-19T12:31:53Z</time>
      </trkpt>
      <trkpt lat="38.974489" lon="-8.975550">
        <ele>10.708</ele>
        <time>2015-03-19T12:31:55Z</time>
      </trkpt>
      <trkpt lat="38.974645" lon="-8.975466">
        <ele>10.707</ele>
        <time>2015-03-19T12:31:59Z</time>
      </trkpt>
      <trkpt lat="38.974756" lon="-8.975392">
        <ele>12.231</ele>
        <time>2015-03-19T12:32:02Z</time>
      </trkpt>
      <trkpt lat="38.975439" lon="-8.974915">
        <ele>10.774</ele>
        <time>2015-03-19T12:32:20Z</time>
      </trkpt>
      <trkpt lat="38.976025" lon="-8.974425">
        <ele>10.786</ele>
        <time>2015-03-19T12:32:38Z</time>
      </trkpt>
      <trkpt lat="38.975974" lon="-8.974123">
        <ele>10.736</ele>
        <time>2015-03-19T12:32:47Z</time>
      </trkpt>
      <trkpt lat="38.975998" lon="-8.973776">
        <ele>10.234</ele>
        <time>2015-03-19T12:33:00Z</time>
      </trkpt>
      <trkpt lat="38.976128" lon="-8.973097">
        <ele>10.269</ele>
        <time>2015-03-19T12:33:15Z</time>
      </trkpt>
      <trkpt lat="38.976158" lon="-8.972782">
        <ele>10.236</ele>
        <time>2015-03-19T12:33:24Z</time>
      </trkpt>
      <trkpt lat="38.976337" lon="-8.972663">
        <ele>11.737</ele>
        <time>2015-03-19T12:33:33Z</time>
      </trkpt>
      <trkpt lat="38.976414" lon="-8.972615">
        <ele>11.749</ele>
        <time>2015-03-19T12:33:36Z</time>
      </trkpt>
      <trkpt lat="38.976786" lon="-8.972351">
        <ele>12.213</ele>
        <time>2015-03-19T12:33:51Z</time>
      </trkpt>
      <trkpt lat="38.977134" lon="-8.972106">
        <ele>12.207</ele>
        <time>2015-03-19T12:34:05Z</time>
      </trkpt>
      <trkpt lat="38.977566" lon="-8.971806">
        <ele>12.222</ele>
        <time>2015-03-19T12:34:22Z</time>
      </trkpt>
      <trkpt lat="38.977982" lon="-8.971529">
        <ele>12.215</ele>
        <time>2015-03-19T12:34:38Z</time>
      </trkpt>
      <trkpt lat="38.978383" lon="-8.971234">
        <ele>12.217</ele>
        <time>2015-03-19T12:34:54Z</time>
      </trkpt>
      <trkpt lat="38.978618" lon="-8.971041">
        <ele>11.247</ele>
        <time>2015-03-19T12:35:06Z</time>
      </trkpt>
      <trkpt lat="38.978868" lon="-8.970840">
        <ele>11.255</ele>
        <time>2015-03-19T12:35:22Z</time>
      </trkpt>
      <trkpt lat="38.979213" lon="-8.970746">
        <ele>11.290</ele>
        <time>2015-03-19T12:35:37Z</time>
      </trkpt>
      <trkpt lat="38.979595" lon="-8.970595">
        <ele>11.217</ele>
        <time>2015-03-19T12:35:52Z</time>
      </trkpt>
      <trkpt lat="38.980057" lon="-8.970331">
        <ele>12.231</ele>
        <time>2015-03-19T12:36:09Z</time>
      </trkpt>
      <trkpt lat="38.980612" lon="-8.970226">
        <ele>12.261</ele>
        <time>2015-03-19T12:36:28Z</time>
      </trkpt>
      <trkpt lat="38.981042" lon="-8.970240">
        <ele>12.207</ele>
        <time>2015-03-19T12:36:42Z</time>
      </trkpt>
      <trkpt lat="38.981605" lon="-8.970117">
        <ele>12.207</ele>
        <time>2015-03-19T12:37:00Z</time>
      </trkpt>
      <trkpt lat="38.981716" lon="-8.970135">
        <ele>12.242</ele>
        <time>2015-03-19T12:37:09Z</time>
      </trkpt>
      <trkpt lat="38.982054" lon="-8.969941">
        <ele>12.255</ele>
        <time>2015-03-19T12:37:21Z</time>
      </trkpt>
      <trkpt lat="38.982732" lon="-8.969467">
        <ele>12.217</ele>
        <time>2015-03-19T12:37:40Z</time>
      </trkpt>
      <trkpt lat="38.983465" lon="-8.968945">
        <ele>13.127</ele>
        <time>2015-03-19T12:38:00Z</time>
      </trkpt>
      <trkpt lat="38.984222" lon="-8.968394">
        <ele>13.165</ele>
        <time>2015-03-19T12:38:20Z</time>
      </trkpt>
      <trkpt lat="38.984961" lon="-8.967871">
        <ele>13.170</ele>
        <time>2015-03-19T12:38:40Z</time>
      </trkpt>
      <trkpt lat="38.985690" lon="-8.967360">
        <ele>13.147</ele>
        <time>2015-03-19T12:38:59Z</time>
      </trkpt>
      <trkpt lat="38.986471" lon="-8.966810">
        <ele>13.181</ele>
        <time>2015-03-19T12:39:20Z</time>
      </trkpt>
      <trkpt lat="38.987220" lon="-8.966285">
        <ele>13.161</ele>
        <time>2015-03-19T12:39:40Z</time>
      </trkpt>
      <trkpt lat="38.988004" lon="-8.965737">
        <ele>13.117</ele>
        <time>2015-03-19T12:40:01Z</time>
      </trkpt>
      <trkpt lat="38.988687" lon="-8.965244">
        <ele>13.107</ele>
        <time>2015-03-19T12:40:20Z</time>
      </trkpt>
      <trkpt lat="38.988964" lon="-8.965058">
        <ele>13.177</ele>
        <time>2015-03-19T12:40:27Z</time>
      </trkpt>
      <trkpt lat="38.989287" lon="-8.964873">
        <ele>13.170</ele>
        <time>2015-03-19T12:40:37Z</time>
      </trkpt>
      <trkpt lat="38.989282" lon="-8.964786">
        <ele>13.122</ele>
        <time>2015-03-19T12:42:26Z</time>
      </trkpt>
      <trkpt lat="38.989578" lon="-8.964600">
        <ele>12.612</ele>
        <time>2015-03-19T12:42:39Z</time>
      </trkpt>
      <trkpt lat="38.990015" lon="-8.964314">
        <ele>12.680</ele>
        <time>2015-03-19T12:42:58Z</time>
      </trkpt>
      <trkpt lat="38.990643" lon="-8.963829">
        <ele>12.675</ele>
        <time>2015-03-19T12:43:17Z</time>
      </trkpt>
      <trkpt lat="38.991314" lon="-8.963283">
        <ele>12.632</ele>
        <time>2015-03-19T12:43:36Z</time>
      </trkpt>
      <trkpt lat="38.992078" lon="-8.962704">
        <ele>12.689</ele>
        <time>2015-03-19T12:43:57Z</time>
      </trkpt>
      <trkpt lat="38.992988" lon="-8.962074">
        <ele>12.206</ele>
        <time>2015-03-19T12:44:21Z</time>
      </trkpt>
      <trkpt lat="38.993896" lon="-8.961447">
        <ele>12.226</ele>
        <time>2015-03-19T12:44:45Z</time>
      </trkpt>
      <trkpt lat="38.994786" lon="-8.960828">
        <ele>12.207</ele>
        <time>2015-03-19T12:45:08Z</time>
      </trkpt>
      <trkpt lat="38.995563" lon="-8.960291">
        <ele>13.187</ele>
        <time>2015-03-19T12:45:28Z</time>
      </trkpt>
      <trkpt lat="38.996351" lon="-8.959754">
        <ele>13.110</ele>
        <time>2015-03-19T12:45:48Z</time>
      </trkpt>
      <trkpt lat="38.997143" lon="-8.959205">
        <ele>13.112</ele>
        <time>2015-03-19T12:46:08Z</time>
      </trkpt>
      <trkpt lat="38.997879" lon="-8.958676">
        <ele>13.142</ele>
        <time>2015-03-19T12:46:27Z</time>
      </trkpt>
      <trkpt lat="38.998549" lon="-8.957999">
        <ele>13.130</ele>
        <time>2015-03-19T12:46:46Z</time>
      </trkpt>
      <trkpt lat="38.999241" lon="-8.957060">
        <ele>13.115</ele>
        <time>2015-03-19T12:47:09Z</time>
      </trkpt>
      <trkpt lat="38.999421" lon="-8.956938">
        <ele>13.132</ele>
        <time>2015-03-19T12:47:15Z</time>
      </trkpt>
      <trkpt lat="38.999977" lon="-8.956141">
        <ele>13.668</ele>
        <time>2015-03-19T12:47:35Z</time>
      </trkpt>
      <trkpt lat="39.000562" lon="-8.955252">
        <ele>14.142</ele>
        <time>2015-03-19T12:47:56Z</time>
      </trkpt>
      <trkpt lat="39.000677" lon="-8.955015">
        <ele>14.126</ele>
        <time>2015-03-19T12:48:01Z</time>
      </trkpt>
      <trkpt lat="39.000736" lon="-8.954325">
        <ele>14.607</ele>
        <time>2015-03-19T12:48:14Z</time>
      </trkpt>
      <trkpt lat="39.000842" lon="-8.954062">
        <ele>15.055</ele>
        <time>2015-03-19T12:48:20Z</time>
      </trkpt>
      <trkpt lat="39.000956" lon="-8.953984">
        <ele>15.028</ele>
        <time>2015-03-19T12:48:23Z</time>
      </trkpt>
      <trkpt lat="39.001078" lon="-8.953774">
        <ele>15.030</ele>
        <time>2015-03-19T12:48:28Z</time>
      </trkpt>
      <trkpt lat="39.001139" lon="-8.953496">
        <ele>15.020</ele>
        <time>2015-03-19T12:48:33Z</time>
      </trkpt>
      <trkpt lat="39.001382" lon="-8.952493">
        <ele>14.638</ele>
        <time>2015-03-19T12:48:52Z</time>
      </trkpt>
      <trkpt lat="39.001746" lon="-8.951496">
        <ele>14.613</ele>
        <time>2015-03-19T12:49:12Z</time>
      </trkpt>
      <trkpt lat="39.002165" lon="-8.950752">
        <ele>14.620</ele>
        <time>2015-03-19T12:49:29Z</time>
      </trkpt>
      <trkpt lat="39.002788" lon="-8.949896">
        <ele>14.634</ele>
        <time>2015-03-19T12:49:50Z</time>
      </trkpt>
      <trkpt lat="39.003009" lon="-8.949598">
        <ele>13.655</ele>
        <time>2015-03-19T12:49:57Z</time>
      </trkpt>
      <trkpt lat="39.003377" lon="-8.949065">
        <ele>13.610</ele>
        <time>2015-03-19T12:50:10Z</time>
      </trkpt>
      <trkpt lat="39.003720" lon="-8.949073">
        <ele>13.607</ele>
        <time>2015-03-19T12:50:19Z</time>
      </trkpt>
      <trkpt lat="39.004396" lon="-8.949866">
        <ele>14.672</ele>
        <time>2015-03-19T12:50:40Z</time>
      </trkpt>
      <trkpt lat="39.005014" lon="-8.950589">
        <ele>14.685</ele>
        <time>2015-03-19T12:50:59Z</time>
      </trkpt>
      <trkpt lat="39.005633" lon="-8.951333">
        <ele>14.697</ele>
        <time>2015-03-19T12:51:18Z</time>
      </trkpt>
      <trkpt lat="39.006163" lon="-8.951959">
        <ele>15.037</ele>
        <time>2015-03-19T12:51:35Z</time>
      </trkpt>
      <trkpt lat="39.006435" lon="-8.952258">
        <ele>13.615</ele>
        <time>2015-03-19T12:51:43Z</time>
      </trkpt>
      <trkpt lat="39.006623" lon="-8.952509">
        <ele>13.660</ele>
        <time>2015-03-19T12:51:49Z</time>
      </trkpt>
      <trkpt lat="39.006691" lon="-8.952663">
        <ele>13.647</ele>
        <time>2015-03-19T12:51:53Z</time>
      </trkpt>
      <trkpt lat="39.006632" lon="-8.952768">
        <ele>13.621</ele>
        <time>2015-03-19T12:51:58Z</time>
      </trkpt>
      <trkpt lat="39.006508" lon="-8.952851">
        <ele>15.041</ele>
        <time>2015-03-19T12:52:02Z</time>
      </trkpt>
      <trkpt lat="39.005990" lon="-8.953218">
        <ele>16.005</ele>
        <time>2015-03-19T12:52:18Z</time>
      </trkpt>
      <trkpt lat="39.005871" lon="-8.953266">
        <ele>16.507</ele>
        <time>2015-03-19T12:52:28Z</time>
      </trkpt>
      <trkpt lat="39.005937" lon="-8.953307">
        <ele>22.741</ele>
        <time>2015-03-19T12:53:19Z</time>
      </trkpt>
      <trkpt lat="39.006020" lon="-8.953518">
        <ele>23.774</ele>
        <time>2015-03-19T12:53:37Z</time>
      </trkpt>
      <trkpt lat="39.006071" lon="-8.953600">
        <ele>23.716</ele>
        <time>2015-03-19T12:53:52Z</time>
      </trkpt>
      <trkpt lat="39.005961" lon="-8.953691">
        <ele>15.016</ele>
        <time>2015-03-19T12:55:30Z</time>
      </trkpt>
      <trkpt lat="39.006046" lon="-8.953783">
        <ele>14.114</ele>
        <time>2015-03-19T12:55:37Z</time>
      </trkpt>
      <trkpt lat="39.006544" lon="-8.953418">
        <ele>14.169</ele>
        <time>2015-03-19T12:55:52Z</time>
      </trkpt>
      <trkpt lat="39.006923" lon="-8.953176">
        <ele>14.156</ele>
        <time>2015-03-19T12:56:02Z</time>
      </trkpt>
      <trkpt lat="39.007184" lon="-8.953296">
        <ele>14.111</ele>
        <time>2015-03-19T12:56:10Z</time>
      </trkpt>
      <trkpt lat="39.007577" lon="-8.953983">
        <ele>13.121</ele>
        <time>2015-03-19T12:56:28Z</time>
      </trkpt>
      <trkpt lat="39.007810" lon="-8.954269">
        <ele>13.603</ele>
        <time>2015-03-19T12:56:37Z</time>
      </trkpt>
      <trkpt lat="39.007970" lon="-8.954598">
        <ele>13.607</ele>
        <time>2015-03-19T12:56:44Z</time>
      </trkpt>
      <trkpt lat="39.008561" lon="-8.955636">
        <ele>13.660</ele>
        <time>2015-03-19T12:57:07Z</time>
      </trkpt>
      <trkpt lat="39.008843" lon="-8.956133">
        <ele>14.643</ele>
        <time>2015-03-19T12:57:18Z</time>
      </trkpt>
      <trkpt lat="39.009308" lon="-8.956949">
        <ele>14.685</ele>
        <time>2015-03-19T12:57:36Z</time>
      </trkpt>
      <trkpt lat="39.009878" lon="-8.957782">
        <ele>14.625</ele>
        <time>2015-03-19T12:57:55Z</time>
      </trkpt>
      <trkpt lat="39.010481" lon="-8.958794">
        <ele>14.683</ele>
        <time>2015-03-19T12:58:17Z</time>
      </trkpt>
      <trkpt lat="39.010815" lon="-8.959706">
        <ele>15.078</ele>
        <time>2015-03-19T12:58:36Z</time>
      </trkpt>
      <trkpt lat="39.010845" lon="-8.959858">
        <ele>14.625</ele>
        <time>2015-03-19T13:12:28Z</time>
      </trkpt>
      <trkpt lat="39.011030" lon="-8.960422">
        <ele>14.611</ele>
        <time>2015-03-19T13:12:42Z</time>
      </trkpt>
      <trkpt lat="39.011185" lon="-8.961078">
        <ele>14.621</ele>
        <time>2015-03-19T13:12:57Z</time>
      </trkpt>
      <trkpt lat="39.011265" lon="-8.961350">
        <ele>14.603</ele>
        <time>2015-03-19T13:13:05Z</time>
      </trkpt>
      <trkpt lat="39.011404" lon="-8.961329">
        <ele>15.507</ele>
        <time>2015-03-19T13:13:10Z</time>
      </trkpt>
      <trkpt lat="39.011799" lon="-8.961114">
        <ele>16.060</ele>
        <time>2015-03-19T13:13:22Z</time>
      </trkpt>
      <trkpt lat="39.012418" lon="-8.961078">
        <ele>16.063</ele>
        <time>2015-03-19T13:13:37Z</time>
      </trkpt>
      <trkpt lat="39.012615" lon="-8.960990">
        <ele>15.595</ele>
        <time>2015-03-19T13:13:42Z</time>
      </trkpt>
      <trkpt lat="39.012759" lon="-8.960869">
        <ele>15.515</ele>
        <time>2015-03-19T13:13:46Z</time>
      </trkpt>
      <trkpt lat="39.013021" lon="-8.960316">
        <ele>14.673</ele>
        <time>2015-03-19T13:13:59Z</time>
      </trkpt>
      <trkpt lat="39.013194" lon="-8.959559">
        <ele>14.638</ele>
        <time>2015-03-19T13:14:15Z</time>
      </trkpt>
      <trkpt lat="39.013345" lon="-8.959308">
        <ele>14.685</ele>
        <time>2015-03-19T13:14:21Z</time>
      </trkpt>
      <trkpt lat="39.013936" lon="-8.958526">
        <ele>14.636</ele>
        <time>2015-03-19T13:14:42Z</time>
      </trkpt>
      <trkpt lat="39.014023" lon="-8.958430">
        <ele>15.517</ele>
        <time>2015-03-19T13:14:45Z</time>
      </trkpt>
      <trkpt lat="39.014451" lon="-8.957916">
        <ele>16.018</ele>
        <time>2015-03-19T13:15:00Z</time>
      </trkpt>
      <trkpt lat="39.015055" lon="-8.957192">
        <ele>16.007</ele>
        <time>2015-03-19T13:15:20Z</time>
      </trkpt>
      <trkpt lat="39.015610" lon="-8.956476">
        <ele>15.052</ele>
        <time>2015-03-19T13:15:38Z</time>
      </trkpt>
      <trkpt lat="39.016158" lon="-8.955802">
        <ele>14.695</ele>
        <time>2015-03-19T13:15:56Z</time>
      </trkpt>
      <trkpt lat="39.016921" lon="-8.954952">
        <ele>14.127</ele>
        <time>2015-03-19T13:16:18Z</time>
      </trkpt>
      <trkpt lat="39.017587" lon="-8.954232">
        <ele>13.647</ele>
        <time>2015-03-19T13:16:37Z</time>
      </trkpt>
      <trkpt lat="39.018221" lon="-8.953480">
        <ele>13.135</ele>
        <time>2015-03-19T13:16:56Z</time>
      </trkpt>
      <trkpt lat="39.018891" lon="-8.952606">
        <ele>13.140</ele>
        <time>2015-03-19T13:17:17Z</time>
      </trkpt>
      <trkpt lat="39.019626" lon="-8.951706">
        <ele>13.137</ele>
        <time>2015-03-19T13:17:39Z</time>
      </trkpt>
      <trkpt lat="39.019978" lon="-8.951448">
        <ele>12.619</ele>
        <time>2015-03-19T13:17:48Z</time>
      </trkpt>
      <trkpt lat="39.020170" lon="-8.951226">
        <ele>12.609</ele>
        <time>2015-03-19T13:17:54Z</time>
      </trkpt>
      <trkpt lat="39.020809" lon="-8.950456">
        <ele>12.619</ele>
        <time>2015-03-19T13:18:14Z</time>
      </trkpt>
      <trkpt lat="39.021127" lon="-8.950083">
        <ele>12.607</ele>
        <time>2015-03-19T13:18:24Z</time>
      </trkpt>
      <trkpt lat="39.021218" lon="-8.949966">
        <ele>12.610</ele>
        <time>2015-03-19T13:18:27Z</time>
      </trkpt>
      <trkpt lat="39.021870" lon="-8.949201">
        <ele>12.693</ele>
        <time>2015-03-19T13:18:47Z</time>
      </trkpt>
      <trkpt lat="39.022480" lon="-8.948482">
        <ele>12.635</ele>
        <time>2015-03-19T13:19:06Z</time>
      </trkpt>
      <trkpt lat="39.022545" lon="-8.948410">
        <ele>12.695</ele>
        <time>2015-03-19T13:19:08Z</time>
      </trkpt>
      <trkpt lat="39.023146" lon="-8.947671">
        <ele>12.673</ele>
        <time>2015-03-19T13:19:27Z</time>
      </trkpt>
      <trkpt lat="39.023851" lon="-8.946830">
        <ele>12.628</ele>
        <time>2015-03-19T13:19:49Z</time>
      </trkpt>
      <trkpt lat="39.024590" lon="-8.945964">
        <ele>12.685</ele>
        <time>2015-03-19T13:20:11Z</time>
      </trkpt>
      <trkpt lat="39.025217" lon="-8.945254">
        <ele>12.635</ele>
        <time>2015-03-19T13:20:29Z</time>
      </trkpt>
      <trkpt lat="39.025869" lon="-8.944504">
        <ele>12.286</ele>
        <time>2015-03-19T13:20:47Z</time>
      </trkpt>
      <trkpt lat="39.026135" lon="-8.944225">
        <ele>12.214</ele>
        <time>2015-03-19T13:20:54Z</time>
      </trkpt>
      <trkpt lat="39.026360" lon="-8.944100">
        <ele>12.207</ele>
        <time>2015-03-19T13:20:59Z</time>
      </trkpt>
      <trkpt lat="39.026596" lon="-8.944001">
        <ele>12.222</ele>
        <time>2015-03-19T13:21:04Z</time>
      </trkpt>
      <trkpt lat="39.027397" lon="-8.943263">
        <ele>12.215</ele>
        <time>2015-03-19T13:21:24Z</time>
      </trkpt>
      <trkpt lat="39.028327" lon="-8.942384">
        <ele>12.267</ele>
        <time>2015-03-19T13:21:47Z</time>
      </trkpt>
      <trkpt lat="39.028719" lon="-8.942022">
        <ele>12.247</ele>
        <time>2015-03-19T13:21:57Z</time>
      </trkpt>
      <trkpt lat="39.029317" lon="-8.941442">
        <ele>12.215</ele>
        <time>2015-03-19T13:22:13Z</time>
      </trkpt>
      <trkpt lat="39.029544" lon="-8.941227">
        <ele>13.690</ele>
        <time>2015-03-19T13:22:19Z</time>
      </trkpt>
      <trkpt lat="39.030484" lon="-8.940344">
        <ele>13.667</ele>
        <time>2015-03-19T13:22:44Z</time>
      </trkpt>
      <trkpt lat="39.031252" lon="-8.939617">
        <ele>12.625</ele>
        <time>2015-03-19T13:23:04Z</time>
      </trkpt>
      <trkpt lat="39.031291" lon="-8.939580">
        <ele>12.626</ele>
        <time>2015-03-19T13:23:05Z</time>
      </trkpt>
      <trkpt lat="39.032085" lon="-8.938819">
        <ele>12.208</ele>
        <time>2015-03-19T13:23:26Z</time>
      </trkpt>
      <trkpt lat="39.032782" lon="-8.938161">
        <ele>12.207</ele>
        <time>2015-03-19T13:23:44Z</time>
      </trkpt>
      <trkpt lat="39.033039" lon="-8.937916">
        <ele>13.651</ele>
        <time>2015-03-19T13:23:51Z</time>
      </trkpt>
      <trkpt lat="39.033671" lon="-8.937323">
        <ele>13.684</ele>
        <time>2015-03-19T13:24:08Z</time>
      </trkpt>
      <trkpt lat="39.034423" lon="-8.936604">
        <ele>13.616</ele>
        <time>2015-03-19T13:24:28Z</time>
      </trkpt>
      <trkpt lat="39.034499" lon="-8.936537">
        <ele>13.636</ele>
        <time>2015-03-19T13:24:30Z</time>
      </trkpt>
      <trkpt lat="39.034797" lon="-8.936627">
        <ele>13.634</ele>
        <time>2015-03-19T13:24:38Z</time>
      </trkpt>
      <trkpt lat="39.034915" lon="-8.936796">
        <ele>14.679</ele>
        <time>2015-03-19T13:24:43Z</time>
      </trkpt>
      <trkpt lat="39.034986" lon="-8.936778">
        <ele>16.056</ele>
        <time>2015-03-19T13:24:47Z</time>
      </trkpt>
      <trkpt lat="39.035016" lon="-8.936988">
        <ele>16.046</ele>
        <time>2015-03-19T13:25:02Z</time>
      </trkpt>
      <trkpt lat="39.035099" lon="-8.937034">
        <ele>14.688</ele>
        <time>2015-03-19T13:25:08Z</time>
      </trkpt>
      <trkpt lat="39.035514" lon="-8.936484">
        <ele>14.116</ele>
        <time>2015-03-19T13:25:24Z</time>
      </trkpt>
      <trkpt lat="39.035891" lon="-8.935941">
        <ele>16.007</ele>
        <time>2015-03-19T13:25:40Z</time>
      </trkpt>
      <trkpt lat="39.035978" lon="-8.935676">
        <ele>16.573</ele>
        <time>2015-03-19T13:25:47Z</time>
      </trkpt>
      <trkpt lat="39.036101" lon="-8.935522">
        <ele>14.636</ele>
        <time>2015-03-19T13:25:52Z</time>
      </trkpt>
      <trkpt lat="39.036582" lon="-8.935306">
        <ele>14.638</ele>
        <time>2015-03-19T13:26:04Z</time>
      </trkpt>
      <trkpt lat="39.036940" lon="-8.934876">
        <ele>17.078</ele>
        <time>2015-03-19T13:26:18Z</time>
      </trkpt>
      <trkpt lat="39.037077" lon="-8.934533">
        <ele>18.456</ele>
        <time>2015-03-19T13:26:30Z</time>
      </trkpt>
      <trkpt lat="39.037064" lon="-8.934472">
        <ele>18.441</ele>
        <time>2015-03-19T13:26:40Z</time>
      </trkpt>
      <trkpt lat="39.037129" lon="-8.934210">
        <ele>19.828</ele>
        <time>2015-03-19T13:27:06Z</time>
      </trkpt>
      <trkpt lat="39.037221" lon="-8.933711">
        <ele>20.822</ele>
        <time>2015-03-19T13:27:22Z</time>
      </trkpt>
      <trkpt lat="39.037303" lon="-8.933289">
        <ele>22.362</ele>
        <time>2015-03-19T13:27:35Z</time>
      </trkpt>
      <trkpt lat="39.037549" lon="-8.932861">
        <ele>23.208</ele>
        <time>2015-03-19T13:27:52Z</time>
      </trkpt>
      <trkpt lat="39.037877" lon="-8.932560">
        <ele>24.707</ele>
        <time>2015-03-19T13:28:08Z</time>
      </trkpt>
      <trkpt lat="39.038249" lon="-8.932219">
        <ele>25.171</ele>
        <time>2015-03-19T13:28:25Z</time>
      </trkpt>
      <trkpt lat="39.038356" lon="-8.931799">
        <ele>25.114</ele>
        <time>2015-03-19T13:28:37Z</time>
      </trkpt>
      <trkpt lat="39.038573" lon="-8.931549">
        <ele>25.196</ele>
        <time>2015-03-19T13:28:46Z</time>
      </trkpt>
      <trkpt lat="39.039182" lon="-8.931245">
        <ele>24.796</ele>
        <time>2015-03-19T13:29:04Z</time>
      </trkpt>
      <trkpt lat="39.039246" lon="-8.931202">
        <ele>26.144</ele>
        <time>2015-03-19T13:29:06Z</time>
      </trkpt>
      <trkpt lat="39.039827" lon="-8.930720">
        <ele>26.679</ele>
        <time>2015-03-19T13:29:25Z</time>
      </trkpt>
      <trkpt lat="39.040329" lon="-8.930066">
        <ele>27.186</ele>
        <time>2015-03-19T13:29:44Z</time>
      </trkpt>
      <trkpt lat="39.040798" lon="-8.929340">
        <ele>26.654</ele>
        <time>2015-03-19T13:30:03Z</time>
      </trkpt>
      <trkpt lat="39.041149" lon="-8.928738">
        <ele>26.656</ele>
        <time>2015-03-19T13:30:15Z</time>
      </trkpt>
      <trkpt lat="39.041689" lon="-8.927835">
        <ele>23.211</ele>
        <time>2015-03-19T13:30:33Z</time>
      </trkpt>
      <trkpt lat="39.041949" lon="-8.927390">
        <ele>22.707</ele>
        <time>2015-03-19T13:30:41Z</time>
      </trkpt>
      <trkpt lat="39.042404" lon="-8.926440">
        <ele>21.314</ele>
        <time>2015-03-19T13:30:59Z</time>
      </trkpt>
      <trkpt lat="39.042861" lon="-8.925327">
        <ele>21.377</ele>
        <time>2015-03-19T13:31:21Z</time>
      </trkpt>
      <trkpt lat="39.043116" lon="-8.924707">
        <ele>22.349</ele>
        <time>2015-03-19T13:31:33Z</time>
      </trkpt>
      <trkpt lat="39.043582" lon="-8.923659">
        <ele>23.229</ele>
        <time>2015-03-19T13:31:54Z</time>
      </trkpt>
      <trkpt lat="39.044230" lon="-8.922703">
        <ele>23.237</ele>
        <time>2015-03-19T13:32:14Z</time>
      </trkpt>
      <trkpt lat="39.045080" lon="-8.921486">
        <ele>22.342</ele>
        <time>2015-03-19T13:32:39Z</time>
      </trkpt>
      <trkpt lat="39.045854" lon="-8.920356">
        <ele>21.869</ele>
        <time>2015-03-19T13:33:02Z</time>
      </trkpt>
      <trkpt lat="39.046640" lon="-8.919240">
        <ele>20.857</ele>
        <time>2015-03-19T13:33:25Z</time>
      </trkpt>
      <trkpt lat="39.047284" lon="-8.918305">
        <ele>20.800</ele>
        <time>2015-03-19T13:33:45Z</time>
      </trkpt>
      <trkpt lat="39.048053" lon="-8.917204">
        <ele>19.820</ele>
        <time>2015-03-19T13:34:07Z</time>
      </trkpt>
      <trkpt lat="39.048568" lon="-8.916179">
        <ele>18.407</ele>
        <time>2015-03-19T13:34:25Z</time>
      </trkpt>
      <trkpt lat="39.048893" lon="-8.915098">
        <ele>17.924</ele>
        <time>2015-03-19T13:34:43Z</time>
      </trkpt>
      <trkpt lat="39.049204" lon="-8.914108">
        <ele>17.957</ele>
        <time>2015-03-19T13:35:01Z</time>
      </trkpt>
      <trkpt lat="39.049538" lon="-8.913123">
        <ele>17.999</ele>
        <time>2015-03-19T13:35:20Z</time>
      </trkpt>
      <trkpt lat="39.049888" lon="-8.912160">
        <ele>17.949</ele>
        <time>2015-03-19T13:35:39Z</time>
      </trkpt>
      <trkpt lat="39.049934" lon="-8.912045">
        <ele>19.487</ele>
        <time>2015-03-19T13:35:41Z</time>
      </trkpt>
      <trkpt lat="39.050289" lon="-8.911116">
        <ele>19.422</ele>
        <time>2015-03-19T13:35:58Z</time>
      </trkpt>
      <trkpt lat="39.050617" lon="-8.910237">
        <ele>18.919</ele>
        <time>2015-03-19T13:36:14Z</time>
      </trkpt>
      <trkpt lat="39.051042" lon="-8.909098">
        <ele>18.958</ele>
        <time>2015-03-19T13:36:35Z</time>
      </trkpt>
      <trkpt lat="39.051457" lon="-8.907994">
        <ele>18.952</ele>
        <time>2015-03-19T13:36:55Z</time>
      </trkpt>
      <trkpt lat="39.051685" lon="-8.907390">
        <ele>18.917</ele>
        <time>2015-03-19T13:37:06Z</time>
      </trkpt>
      <trkpt lat="39.051843" lon="-8.907021">
        <ele>18.907</ele>
        <time>2015-03-19T13:37:13Z</time>
      </trkpt>
      <trkpt lat="39.052209" lon="-8.906336">
        <ele>19.424</ele>
        <time>2015-03-19T13:37:27Z</time>
      </trkpt>
      <trkpt lat="39.052269" lon="-8.906228">
        <ele>18.467</ele>
        <time>2015-03-19T13:37:29Z</time>
      </trkpt>
      <trkpt lat="39.052773" lon="-8.905331">
        <ele>17.949</ele>
        <time>2015-03-19T13:37:46Z</time>
      </trkpt>
      <trkpt lat="39.053204" lon="-8.904541">
        <ele>17.939</ele>
        <time>2015-03-19T13:38:01Z</time>
      </trkpt>
      <trkpt lat="39.053646" lon="-8.903730">
        <ele>18.487</ele>
        <time>2015-03-19T13:38:18Z</time>
      </trkpt>
      <trkpt lat="39.053672" lon="-8.903681">
        <ele>18.482</ele>
        <time>2015-03-19T13:38:19Z</time>
      </trkpt>
      <trkpt lat="39.053729" lon="-8.903579">
        <ele>17.029</ele>
        <time>2015-03-19T13:38:21Z</time>
      </trkpt>
      <trkpt lat="39.054228" lon="-8.902599">
        <ele>18.487</ele>
        <time>2015-03-19T13:38:40Z</time>
      </trkpt>
      <trkpt lat="39.054238" lon="-8.902300">
        <ele>18.442</ele>
        <time>2015-03-19T13:38:45Z</time>
      </trkpt>
      <trkpt lat="39.054504" lon="-8.901836">
        <ele>18.426</ele>
        <time>2015-03-19T13:38:55Z</time>
      </trkpt>
      <trkpt lat="39.054863" lon="-8.901463">
        <ele>18.907</ele>
        <time>2015-03-19T13:39:05Z</time>
      </trkpt>
      <trkpt lat="39.055405" lon="-8.900414">
        <ele>18.947</ele>
        <time>2015-03-19T13:39:25Z</time>
      </trkpt>
      <trkpt lat="39.055902" lon="-8.899268">
        <ele>17.940</ele>
        <time>2015-03-19T13:39:46Z</time>
      </trkpt>
      <trkpt lat="39.056251" lon="-8.898198">
        <ele>17.412</ele>
        <time>2015-03-19T13:40:05Z</time>
      </trkpt>
      <trkpt lat="39.056480" lon="-8.897517">
        <ele>16.552</ele>
        <time>2015-03-19T13:40:18Z</time>
      </trkpt>
      <trkpt lat="39.056786" lon="-8.896561">
        <ele>16.550</ele>
        <time>2015-03-19T13:40:36Z</time>
      </trkpt>
      <trkpt lat="39.057078" lon="-8.895655">
        <ele>16.035</ele>
        <time>2015-03-19T13:40:53Z</time>
      </trkpt>
      <trkpt lat="39.057333" lon="-8.894880">
        <ele>16.082</ele>
        <time>2015-03-19T13:41:09Z</time>
      </trkpt>
      <trkpt lat="39.057464" lon="-8.894537">
        <ele>16.018</ele>
        <time>2015-03-19T13:41:16Z</time>
      </trkpt>
      <trkpt lat="39.057514" lon="-8.894371">
        <ele>16.098</ele>
        <time>2015-03-19T13:41:19Z</time>
      </trkpt>
      <trkpt lat="39.057520" lon="-8.894147">
        <ele>16.017</ele>
        <time>2015-03-19T13:41:23Z</time>
      </trkpt>
      <trkpt lat="39.057605" lon="-8.893848">
        <ele>16.007</ele>
        <time>2015-03-19T13:41:29Z</time>
      </trkpt>
      <trkpt lat="39.057699" lon="-8.893730">
        <ele>16.010</ele>
        <time>2015-03-19T13:41:32Z</time>
      </trkpt>
      <trkpt lat="39.057988" lon="-8.892925">
        <ele>15.533</ele>
        <time>2015-03-19T13:41:48Z</time>
      </trkpt>
      <trkpt lat="39.058185" lon="-8.892391">
        <ele>15.085</ele>
        <time>2015-03-19T13:41:59Z</time>
      </trkpt>
      <trkpt lat="39.058418" lon="-8.891636">
        <ele>15.085</ele>
        <time>2015-03-19T13:42:14Z</time>
      </trkpt>
      <trkpt lat="39.058659" lon="-8.890926">
        <ele>14.623</ele>
        <time>2015-03-19T13:42:28Z</time>
      </trkpt>
      <trkpt lat="39.058909" lon="-8.890172">
        <ele>15.528</ele>
        <time>2015-03-19T13:42:43Z</time>
      </trkpt>
      <trkpt lat="39.058946" lon="-8.890067">
        <ele>13.675</ele>
        <time>2015-03-19T13:42:45Z</time>
      </trkpt>
      <trkpt lat="39.059153" lon="-8.889444">
        <ele>13.612</ele>
        <time>2015-03-19T13:42:57Z</time>
      </trkpt>
      <trkpt lat="39.059367" lon="-8.888793">
        <ele>13.132</ele>
        <time>2015-03-19T13:43:10Z</time>
      </trkpt>
      <trkpt lat="39.059669" lon="-8.887826">
        <ele>14.605</ele>
        <time>2015-03-19T13:43:29Z</time>
      </trkpt>
      <trkpt lat="39.059720" lon="-8.887671">
        <ele>13.607</ele>
        <time>2015-03-19T13:43:32Z</time>
      </trkpt>
      <trkpt lat="39.060094" lon="-8.886600">
        <ele>13.660</ele>
        <time>2015-03-19T13:43:53Z</time>
      </trkpt>
      <trkpt lat="39.060129" lon="-8.886498">
        <ele>13.613</ele>
        <time>2015-03-19T13:43:55Z</time>
      </trkpt>
      <trkpt lat="39.060556" lon="-8.885562">
        <ele>14.645</ele>
        <time>2015-03-19T13:44:15Z</time>
      </trkpt>
      <trkpt lat="39.060799" lon="-8.885082">
        <ele>14.615</ele>
        <time>2015-03-19T13:44:25Z</time>
      </trkpt>
      <trkpt lat="39.061184" lon="-8.884419">
        <ele>14.623</ele>
        <time>2015-03-19T13:44:40Z</time>
      </trkpt>
      <trkpt lat="39.061715" lon="-8.883537">
        <ele>14.658</ele>
        <time>2015-03-19T13:45:00Z</time>
      </trkpt>
      <trkpt lat="39.062313" lon="-8.882513">
        <ele>15.595</ele>
        <time>2015-03-19T13:45:22Z</time>
      </trkpt>
      <trkpt lat="39.062895" lon="-8.881545">
        <ele>15.551</ele>
        <time>2015-03-19T13:45:43Z</time>
      </trkpt>
      <trkpt lat="39.063084" lon="-8.881223">
        <ele>14.101</ele>
        <time>2015-03-19T13:45:50Z</time>
      </trkpt>
      <trkpt lat="39.063515" lon="-8.880504">
        <ele>14.111</ele>
        <time>2015-03-19T13:46:06Z</time>
      </trkpt>
      <trkpt lat="39.063973" lon="-8.879721">
        <ele>14.107</ele>
        <time>2015-03-19T13:46:24Z</time>
      </trkpt>
      <trkpt lat="39.064193" lon="-8.879316">
        <ele>14.154</ele>
        <time>2015-03-19T13:46:33Z</time>
      </trkpt>
      <trkpt lat="39.064693" lon="-8.878523">
        <ele>14.157</ele>
        <time>2015-03-19T13:46:51Z</time>
      </trkpt>
      <trkpt lat="39.065153" lon="-8.877650">
        <ele>14.139</ele>
        <time>2015-03-19T13:47:10Z</time>
      </trkpt>
      <trkpt lat="39.065564" lon="-8.876775">
        <ele>13.699</ele>
        <time>2015-03-19T13:47:28Z</time>
      </trkpt>
      <trkpt lat="39.065837" lon="-8.875895">
        <ele>13.657</ele>
        <time>2015-03-19T13:47:46Z</time>
      </trkpt>
      <trkpt lat="39.065888" lon="-8.875281">
        <ele>13.692</ele>
        <time>2015-03-19T13:47:59Z</time>
      </trkpt>
      <trkpt lat="39.065976" lon="-8.875083">
        <ele>13.639</ele>
        <time>2015-03-19T13:48:09Z</time>
      </trkpt>
      <trkpt lat="39.066041" lon="-8.875070">
        <ele>13.658</ele>
        <time>2015-03-19T13:48:14Z</time>
      </trkpt>
      <trkpt lat="39.066160" lon="-8.875119">
        <ele>13.652</ele>
        <time>2015-03-19T13:48:18Z</time>
      </trkpt>
      <trkpt lat="39.066442" lon="-8.875413">
        <ele>13.617</ele>
        <time>2015-03-19T13:48:27Z</time>
      </trkpt>
      <trkpt lat="39.066773" lon="-8.875380">
        <ele>13.607</ele>
        <time>2015-03-19T13:48:36Z</time>
      </trkpt>
      <trkpt lat="39.066947" lon="-8.875256">
        <ele>13.674</ele>
        <time>2015-03-19T13:48:41Z</time>
      </trkpt>
      <trkpt lat="39.067210" lon="-8.874595">
        <ele>15.047</ele>
        <time>2015-03-19T13:48:56Z</time>
      </trkpt>
      <trkpt lat="39.067393" lon="-8.873994">
        <ele>15.049</ele>
        <time>2015-03-19T13:49:11Z</time>
      </trkpt>
      <trkpt lat="39.067397" lon="-8.873889">
        <ele>15.069</ele>
        <time>2015-03-19T14:23:09Z</time>
      </trkpt>
      <trkpt lat="39.067500" lon="-8.873444">
        <ele>15.557</ele>
        <time>2015-03-19T14:23:24Z</time>
      </trkpt>
      <trkpt lat="39.067586" lon="-8.873007">
        <ele>16.062</ele>
        <time>2015-03-19T14:23:37Z</time>
      </trkpt>
      <trkpt lat="39.067669" lon="-8.872545">
        <ele>16.059</ele>
        <time>2015-03-19T14:23:51Z</time>
      </trkpt>
      <trkpt lat="39.067794" lon="-8.872010">
        <ele>16.066</ele>
        <time>2015-03-19T14:24:07Z</time>
      </trkpt>
      <trkpt lat="39.067953" lon="-8.871525">
        <ele>16.029</ele>
        <time>2015-03-19T14:24:22Z</time>
      </trkpt>
      <trkpt lat="39.068048" lon="-8.871035">
        <ele>17.021</ele>
        <time>2015-03-19T14:24:38Z</time>
      </trkpt>
      <trkpt lat="39.068138" lon="-8.870535">
        <ele>17.407</ele>
        <time>2015-03-19T14:24:52Z</time>
      </trkpt>
      <trkpt lat="39.068296" lon="-8.870032">
        <ele>17.425</ele>
        <time>2015-03-19T14:25:06Z</time>
      </trkpt>
      <trkpt lat="39.068420" lon="-8.869683">
        <ele>17.458</ele>
        <time>2015-03-19T14:25:20Z</time>
      </trkpt>
      <trkpt lat="39.068440" lon="-8.869542">
        <ele>17.950</ele>
        <time>2015-03-19T14:27:06Z</time>
      </trkpt>
      <trkpt lat="39.068661" lon="-8.868875">
        <ele>17.970</ele>
        <time>2015-03-19T14:27:24Z</time>
      </trkpt>
      <trkpt lat="39.068783" lon="-8.868571">
        <ele>17.938</ele>
        <time>2015-03-19T14:27:33Z</time>
      </trkpt>
      <trkpt lat="39.068862" lon="-8.868416">
        <ele>17.073</ele>
        <time>2015-03-19T14:29:23Z</time>
      </trkpt>
      <trkpt lat="39.069136" lon="-8.867741">
        <ele>17.950</ele>
        <time>2015-03-19T14:29:42Z</time>
      </trkpt>
      <trkpt lat="39.069269" lon="-8.867360">
        <ele>16.596</ele>
        <time>2015-03-19T14:29:53Z</time>
      </trkpt>
      <trkpt lat="39.068865" lon="-8.867113">
        <ele>16.531</ele>
        <time>2015-03-19T14:30:06Z</time>
      </trkpt>
      <trkpt lat="39.068757" lon="-8.867044">
        <ele>16.524</ele>
        <time>2015-03-19T14:30:10Z</time>
      </trkpt>
      <trkpt lat="39.068571" lon="-8.867142">
        <ele>16.507</ele>
        <time>2015-03-19T14:30:20Z</time>
      </trkpt>
      <trkpt lat="39.068531" lon="-8.866993">
        <ele>16.558</ele>
        <time>2015-03-19T14:30:27Z</time>
      </trkpt>
      <trkpt lat="39.068665" lon="-8.866603">
        <ele>16.591</ele>
        <time>2015-03-19T14:30:42Z</time>
      </trkpt>
      <trkpt lat="39.068660" lon="-8.866538">
        <ele>17.473</ele>
        <time>2015-03-19T14:30:50Z</time>
      </trkpt>
      <trkpt lat="39.068653" lon="-8.866447">
        <ele>17.493</ele>
        <time>2015-03-19T14:31:15Z</time>
      </trkpt>
      <trkpt lat="39.068606" lon="-8.866402">
        <ele>23.741</ele>
        <time>2015-03-19T14:32:21Z</time>
      </trkpt>
      <trkpt lat="39.068559" lon="-8.866345">
        <ele>23.756</ele>
        <time>2015-03-19T14:32:32Z</time>
      </trkpt>
      <trkpt lat="39.068479" lon="-8.866273">
        <ele>22.723</ele>
        <time>2015-03-19T14:32:46Z</time>
      </trkpt>
      <trkpt lat="39.068402" lon="-8.866290">
        <ele>19.856</ele>
        <time>2015-03-19T14:32:59Z</time>
      </trkpt>
      <trkpt lat="39.068282" lon="-8.866292">
        <ele>15.059</ele>
        <time>2015-03-19T14:33:20Z</time>
      </trkpt>
      <trkpt lat="39.068217" lon="-8.866262">
        <ele>14.614</ele>
        <time>2015-03-19T14:33:27Z</time>
      </trkpt>
      <trkpt lat="39.068217" lon="-8.866145">
        <ele>14.107</ele>
        <time>2015-03-19T14:33:32Z</time>
      </trkpt>
      <trkpt lat="39.068435" lon="-8.865643">
        <ele>14.154</ele>
        <time>2015-03-19T14:33:45Z</time>
      </trkpt>
      <trkpt lat="39.068377" lon="-8.865514">
        <ele>14.127</ele>
        <time>2015-03-19T14:33:48Z</time>
      </trkpt>
      <trkpt lat="39.067774" lon="-8.864985">
        <ele>13.659</ele>
        <time>2015-03-19T14:34:06Z</time>
      </trkpt>
      <trkpt lat="39.067186" lon="-8.864322">
        <ele>13.679</ele>
        <time>2015-03-19T14:34:24Z</time>
      </trkpt>
      <trkpt lat="39.066852" lon="-8.863943">
        <ele>13.647</ele>
        <time>2015-03-19T14:34:34Z</time>
      </trkpt>
      <trkpt lat="39.066363" lon="-8.863371">
        <ele>13.622</ele>
        <time>2015-03-19T14:34:49Z</time>
      </trkpt>
      <trkpt lat="39.066064" lon="-8.863019">
        <ele>13.619</ele>
        <time>2015-03-19T14:34:58Z</time>
      </trkpt>
      <trkpt lat="39.065455" lon="-8.862339">
        <ele>13.639</ele>
        <time>2015-03-19T14:35:16Z</time>
      </trkpt>
      <trkpt lat="39.064918" lon="-8.861689">
        <ele>13.601</ele>
        <time>2015-03-19T14:35:32Z</time>
      </trkpt>
      <trkpt lat="39.064412" lon="-8.861108">
        <ele>13.621</ele>
        <time>2015-03-19T14:35:47Z</time>
      </trkpt>
      <trkpt lat="39.063866" lon="-8.860474">
        <ele>13.607</ele>
        <time>2015-03-19T14:36:03Z</time>
      </trkpt>
      <trkpt lat="39.063255" lon="-8.859756">
        <ele>13.662</ele>
        <time>2015-03-19T14:36:21Z</time>
      </trkpt>
      <trkpt lat="39.062740" lon="-8.859144">
        <ele>13.655</ele>
        <time>2015-03-19T14:36:36Z</time>
      </trkpt>
      <trkpt lat="39.062226" lon="-8.858537">
        <ele>14.667</ele>
        <time>2015-03-19T14:36:51Z</time>
      </trkpt>
      <trkpt lat="39.061628" lon="-8.857849">
        <ele>14.647</ele>
        <time>2015-03-19T14:37:08Z</time>
      </trkpt>
      <trkpt lat="39.060997" lon="-8.857120">
        <ele>14.645</ele>
        <time>2015-03-19T14:37:26Z</time>
      </trkpt>
      <trkpt lat="39.060370" lon="-8.856387">
        <ele>14.640</ele>
        <time>2015-03-19T14:37:44Z</time>
      </trkpt>
      <trkpt lat="39.059611" lon="-8.855458">
        <ele>15.067</ele>
        <time>2015-03-19T14:38:06Z</time>
      </trkpt>
      <trkpt lat="39.058989" lon="-8.854742">
        <ele>17.953</ele>
        <time>2015-03-19T14:38:27Z</time>
      </trkpt>
      <trkpt lat="39.058654" lon="-8.854332">
        <ele>17.904</ele>
        <time>2015-03-19T14:38:39Z</time>
      </trkpt>
      <trkpt lat="39.058717" lon="-8.854318">
        <ele>18.414</ele>
        <time>2015-03-19T14:38:47Z</time>
      </trkpt>
      <trkpt lat="39.058695" lon="-8.854264">
        <ele>18.407</ele>
        <time>2015-03-19T14:39:47Z</time>
      </trkpt>
      <trkpt lat="39.058378" lon="-8.853920">
        <ele>18.474</ele>
        <time>2015-03-19T14:39:59Z</time>
      </trkpt>
      <trkpt lat="39.058357" lon="-8.853850">
        <ele>17.087</ele>
        <time>2015-03-19T14:40:02Z</time>
      </trkpt>
      <trkpt lat="39.058508" lon="-8.853907">
        <ele>15.059</ele>
        <time>2015-03-19T14:40:08Z</time>
      </trkpt>
      <trkpt lat="39.058734" lon="-8.853898">
        <ele>13.649</ele>
        <time>2015-03-19T14:40:15Z</time>
      </trkpt>
      <trkpt lat="39.059103" lon="-8.853047">
        <ele>13.167</ele>
        <time>2015-03-19T14:40:34Z</time>
      </trkpt>
      <trkpt lat="39.059524" lon="-8.852208">
        <ele>13.192</ele>
        <time>2015-03-19T14:40:53Z</time>
      </trkpt>
      <trkpt lat="39.059915" lon="-8.851570">
        <ele>13.179</ele>
        <time>2015-03-19T14:41:09Z</time>
      </trkpt>
      <trkpt lat="39.059986" lon="-8.851442">
        <ele>13.116</ele>
        <time>2015-03-19T14:41:12Z</time>
      </trkpt>
      <trkpt lat="39.060516" lon="-8.850601">
        <ele>13.176</ele>
        <time>2015-03-19T14:41:33Z</time>
      </trkpt>
      <trkpt lat="39.060940" lon="-8.849962">
        <ele>13.113</ele>
        <time>2015-03-19T14:41:49Z</time>
      </trkpt>
      <trkpt lat="39.061449" lon="-8.849258">
        <ele>13.107</ele>
        <time>2015-03-19T14:42:07Z</time>
      </trkpt>
      <trkpt lat="39.061540" lon="-8.849152">
        <ele>13.170</ele>
        <time>2015-03-19T14:42:10Z</time>
      </trkpt>
      <trkpt lat="39.061810" lon="-8.848762">
        <ele>12.623</ele>
        <time>2015-03-19T14:42:20Z</time>
      </trkpt>
      <trkpt lat="39.061952" lon="-8.848654">
        <ele>12.645</ele>
        <time>2015-03-19T14:42:24Z</time>
      </trkpt>
      <trkpt lat="39.062101" lon="-8.848498">
        <ele>12.695</ele>
        <time>2015-03-19T14:42:29Z</time>
      </trkpt>
      <trkpt lat="39.062463" lon="-8.848013">
        <ele>12.693</ele>
        <time>2015-03-19T14:42:43Z</time>
      </trkpt>
      <trkpt lat="39.062738" lon="-8.847672">
        <ele>12.648</ele>
        <time>2015-03-19T14:42:57Z</time>
      </trkpt>
      <trkpt lat="39.062895" lon="-8.847440">
        <ele>12.225</ele>
        <time>2015-03-19T14:43:23Z</time>
      </trkpt>
      <trkpt lat="39.062957" lon="-8.847353">
        <ele>12.277</ele>
        <time>2015-03-19T14:43:36Z</time>
      </trkpt>
      <trkpt lat="39.063078" lon="-8.847201">
        <ele>12.261</ele>
        <time>2015-03-19T14:43:55Z</time>
      </trkpt>
      <trkpt lat="39.063276" lon="-8.846938">
        <ele>12.227</ele>
        <time>2015-03-19T14:44:06Z</time>
      </trkpt>
      <trkpt lat="39.063602" lon="-8.846436">
        <ele>12.207</ele>
        <time>2015-03-19T14:44:20Z</time>
      </trkpt>
      <trkpt lat="39.063947" lon="-8.845854">
        <ele>12.266</ele>
        <time>2015-03-19T14:44:35Z</time>
      </trkpt>
      <trkpt lat="39.064334" lon="-8.845176">
        <ele>12.279</ele>
        <time>2015-03-19T14:44:52Z</time>
      </trkpt>
      <trkpt lat="39.064573" lon="-8.844682">
        <ele>12.231</ele>
        <time>2015-03-19T14:45:04Z</time>
      </trkpt>
      <trkpt lat="39.064882" lon="-8.844042">
        <ele>12.271</ele>
        <time>2015-03-19T14:45:20Z</time>
      </trkpt>
      <trkpt lat="39.065266" lon="-8.843592">
        <ele>13.699</ele>
        <time>2015-03-19T14:45:34Z</time>
      </trkpt>
      <trkpt lat="39.065338" lon="-8.843274">
        <ele>12.214</ele>
        <time>2015-03-19T14:45:40Z</time>
      </trkpt>
      <trkpt lat="39.065334" lon="-8.843158">
        <ele>12.231</ele>
        <time>2015-03-19T14:45:42Z</time>
      </trkpt>
      <trkpt lat="39.065314" lon="-8.842281">
        <ele>11.721</ele>
        <time>2015-03-19T14:46:00Z</time>
      </trkpt>
      <trkpt lat="39.065218" lon="-8.841351">
        <ele>11.741</ele>
        <time>2015-03-19T14:46:19Z</time>
      </trkpt>
      <trkpt lat="39.064965" lon="-8.840487">
        <ele>11.705</ele>
        <time>2015-03-19T14:46:37Z</time>
      </trkpt>
      <trkpt lat="39.064545" lon="-8.839549">
        <ele>11.707</ele>
        <time>2015-03-19T14:46:57Z</time>
      </trkpt>
      <trkpt lat="39.064211" lon="-8.838830">
        <ele>11.721</ele>
        <time>2015-03-19T14:47:14Z</time>
      </trkpt>
      <trkpt lat="39.063855" lon="-8.838335">
        <ele>11.754</ele>
        <time>2015-03-19T14:47:28Z</time>
      </trkpt>
      <trkpt lat="39.063247" lon="-8.837694">
        <ele>11.726</ele>
        <time>2015-03-19T14:47:47Z</time>
      </trkpt>
      <trkpt lat="39.062821" lon="-8.837238">
        <ele>11.776</ele>
        <time>2015-03-19T14:48:01Z</time>
      </trkpt>
      <trkpt lat="39.062462" lon="-8.836929">
        <ele>11.794</ele>
        <time>2015-03-19T14:48:12Z</time>
      </trkpt>
      <trkpt lat="39.062070" lon="-8.836558">
        <ele>11.799</ele>
        <time>2015-03-19T14:48:25Z</time>
      </trkpt>
      <trkpt lat="39.062077" lon="-8.836260">
        <ele>11.266</ele>
        <time>2015-03-19T14:48:36Z</time>
      </trkpt>
      <trkpt lat="39.062120" lon="-8.835892">
        <ele>11.219</ele>
        <time>2015-03-19T14:48:48Z</time>
      </trkpt>
      <trkpt lat="39.062091" lon="-8.835155">
        <ele>12.609</ele>
        <time>2015-03-19T14:49:09Z</time>
      </trkpt>
      <trkpt lat="39.061911" lon="-8.834576">
        <ele>12.619</ele>
        <time>2015-03-19T14:49:26Z</time>
      </trkpt>
      <trkpt lat="39.061758" lon="-8.834063">
        <ele>12.607</ele>
        <time>2015-03-19T14:49:40Z</time>
      </trkpt>
      <trkpt lat="39.061728" lon="-8.833559">
        <ele>12.670</ele>
        <time>2015-03-19T14:49:51Z</time>
      </trkpt>
      <trkpt lat="39.061370" lon="-8.833149">
        <ele>13.163</ele>
        <time>2015-03-19T14:50:04Z</time>
      </trkpt>
      <trkpt lat="39.060868" lon="-8.832839">
        <ele>13.195</ele>
        <time>2015-03-19T14:50:18Z</time>
      </trkpt>
      <trkpt lat="39.060140" lon="-8.832421">
        <ele>13.145</ele>
        <time>2015-03-19T14:50:37Z</time>
      </trkpt>
      <trkpt lat="39.059955" lon="-8.832081">
        <ele>13.173</ele>
        <time>2015-03-19T14:50:45Z</time>
      </trkpt>
      <trkpt lat="39.060080" lon="-8.831501">
        <ele>12.698</ele>
        <time>2015-03-19T14:50:58Z</time>
      </trkpt>
      <trkpt lat="39.060523" lon="-8.830687">
        <ele>12.625</ele>
        <time>2015-03-19T14:51:19Z</time>
      </trkpt>
      <trkpt lat="39.060895" lon="-8.830182">
        <ele>12.625</ele>
        <time>2015-03-19T14:51:35Z</time>
      </trkpt>
      <trkpt lat="39.061341" lon="-8.829458">
        <ele>12.626</ele>
        <time>2015-03-19T14:51:56Z</time>
      </trkpt>
      <trkpt lat="39.061246" lon="-8.828992">
        <ele>12.608</ele>
        <time>2015-03-19T14:52:07Z</time>
      </trkpt>
      <trkpt lat="39.060807" lon="-8.828304">
        <ele>12.607</ele>
        <time>2015-03-19T14:52:25Z</time>
      </trkpt>
      <trkpt lat="39.060301" lon="-8.827529">
        <ele>12.671</ele>
        <time>2015-03-19T14:52:44Z</time>
      </trkpt>
      <trkpt lat="39.060118" lon="-8.827186">
        <ele>12.684</ele>
        <time>2015-03-19T14:52:52Z</time>
      </trkpt>
      <trkpt lat="39.059950" lon="-8.826477">
        <ele>12.686</ele>
        <time>2015-03-19T14:53:06Z</time>
      </trkpt>
      <trkpt lat="39.060094" lon="-8.825832">
        <ele>12.696</ele>
        <time>2015-03-19T14:53:20Z</time>
      </trkpt>
      <trkpt lat="39.060151" lon="-8.825782">
        <ele>12.224</ele>
        <time>2015-03-19T14:53:28Z</time>
      </trkpt>
      <trkpt lat="39.060220" lon="-8.825733">
        <ele>12.249</ele>
        <time>2015-03-19T14:54:30Z</time>
      </trkpt>
      <trkpt lat="39.060636" lon="-8.825606">
        <ele>12.266</ele>
        <time>2015-03-19T14:54:43Z</time>
      </trkpt>
      <trkpt lat="39.061426" lon="-8.825477">
        <ele>12.654</ele>
        <time>2015-03-19T14:55:04Z</time>
      </trkpt>
      <trkpt lat="39.061881" lon="-8.825356">
        <ele>12.656</ele>
        <time>2015-03-19T14:55:16Z</time>
      </trkpt>
      <trkpt lat="39.062625" lon="-8.824875">
        <ele>12.211</ele>
        <time>2015-03-19T14:55:37Z</time>
      </trkpt>
      <trkpt lat="39.063246" lon="-8.824410">
        <ele>12.207</ele>
        <time>2015-03-19T14:55:55Z</time>
      </trkpt>
      <trkpt lat="39.063831" lon="-8.824025">
        <ele>12.234</ele>
        <time>2015-03-19T14:56:12Z</time>
      </trkpt>
      <trkpt lat="39.064382" lon="-8.823552">
        <ele>12.257</ele>
        <time>2015-03-19T14:56:30Z</time>
      </trkpt>
      <trkpt lat="39.065039" lon="-8.823017">
        <ele>12.289</ele>
        <time>2015-03-19T14:56:51Z</time>
      </trkpt>
      <trkpt lat="39.065790" lon="-8.822422">
        <ele>12.239</ele>
        <time>2015-03-19T14:57:14Z</time>
      </trkpt>
      <trkpt lat="39.066424" lon="-8.821904">
        <ele>12.217</ele>
        <time>2015-03-19T14:57:34Z</time>
      </trkpt>
      <trkpt lat="39.067027" lon="-8.821299">
        <ele>12.252</ele>
        <time>2015-03-19T14:57:55Z</time>
      </trkpt>
      <trkpt lat="39.067428" lon="-8.820843">
        <ele>12.289</ele>
        <time>2015-03-19T14:58:10Z</time>
      </trkpt>
      <trkpt lat="39.067864" lon="-8.820209">
        <ele>12.293</ele>
        <time>2015-03-19T14:58:29Z</time>
      </trkpt>
      <trkpt lat="39.068328" lon="-8.819611">
        <ele>12.265</ele>
        <time>2015-03-19T14:58:47Z</time>
      </trkpt>
      <trkpt lat="39.068853" lon="-8.818782">
        <ele>12.221</ele>
        <time>2015-03-19T14:59:09Z</time>
      </trkpt>
      <trkpt lat="39.069233" lon="-8.818096">
        <ele>12.207</ele>
        <time>2015-03-19T14:59:26Z</time>
      </trkpt>
      <trkpt lat="39.069718" lon="-8.817215">
        <ele>12.288</ele>
        <time>2015-03-19T14:59:48Z</time>
      </trkpt>
      <trkpt lat="39.070164" lon="-8.816362">
        <ele>12.271</ele>
        <time>2015-03-19T15:00:09Z</time>
      </trkpt>
      <trkpt lat="39.070560" lon="-8.815497">
        <ele>11.773</ele>
        <time>2015-03-19T15:00:30Z</time>
      </trkpt>
      <trkpt lat="39.070885" lon="-8.814696">
        <ele>11.723</ele>
        <time>2015-03-19T15:00:48Z</time>
      </trkpt>
      <trkpt lat="39.071253" lon="-8.813773">
        <ele>11.721</ele>
        <time>2015-03-19T15:01:09Z</time>
      </trkpt>
      <trkpt lat="39.071573" lon="-8.812964">
        <ele>11.726</ele>
        <time>2015-03-19T15:01:27Z</time>
      </trkpt>
      <trkpt lat="39.071893" lon="-8.812168">
        <ele>11.793</ele>
        <time>2015-03-19T15:01:45Z</time>
      </trkpt>
      <trkpt lat="39.072165" lon="-8.811576">
        <ele>11.751</ele>
        <time>2015-03-19T15:01:59Z</time>
      </trkpt>
      <trkpt lat="39.072307" lon="-8.810736">
        <ele>12.201</ele>
        <time>2015-03-19T15:02:17Z</time>
      </trkpt>
      <trkpt lat="39.072278" lon="-8.810528">
        <ele>12.211</ele>
        <time>2015-03-19T15:02:21Z</time>
      </trkpt>
      <trkpt lat="39.072174" lon="-8.810126">
        <ele>10.707</ele>
        <time>2015-03-19T15:02:29Z</time>
      </trkpt>
      <trkpt lat="39.072032" lon="-8.809855">
        <ele>10.784</ele>
        <time>2015-03-19T15:02:35Z</time>
      </trkpt>
      <trkpt lat="39.071780" lon="-8.809562">
        <ele>10.257</ele>
        <time>2015-03-19T15:02:43Z</time>
      </trkpt>
      <trkpt lat="39.071110" lon="-8.808878">
        <ele>10.259</ele>
        <time>2015-03-19T15:03:02Z</time>
      </trkpt>
      <trkpt lat="39.070429" lon="-8.808175">
        <ele>10.229</ele>
        <time>2015-03-19T15:03:21Z</time>
      </trkpt>
      <trkpt lat="39.069805" lon="-8.807517">
        <ele>10.227</ele>
        <time>2015-03-19T15:03:38Z</time>
      </trkpt>
      <trkpt lat="39.069436" lon="-8.807033">
        <ele>9.832</ele>
        <time>2015-03-19T15:03:49Z</time>
      </trkpt>
      <trkpt lat="39.069133" lon="-8.806149">
        <ele>11.219</ele>
        <time>2015-03-19T15:04:05Z</time>
      </trkpt>
      <trkpt lat="39.068669" lon="-8.805780">
        <ele>13.152</ele>
        <time>2015-03-19T15:04:19Z</time>
      </trkpt>
      <trkpt lat="39.068201" lon="-8.805589">
        <ele>12.253</ele>
        <time>2015-03-19T15:04:30Z</time>
      </trkpt>
      <trkpt lat="39.067485" lon="-8.805176">
        <ele>11.708</ele>
        <time>2015-03-19T15:04:47Z</time>
      </trkpt>
      <trkpt lat="39.066810" lon="-8.804754">
        <ele>11.207</ele>
        <time>2015-03-19T15:05:03Z</time>
      </trkpt>
      <trkpt lat="39.065915" lon="-8.804227">
        <ele>11.284</ele>
        <time>2015-03-19T15:05:24Z</time>
      </trkpt>
      <trkpt lat="39.065057" lon="-8.803730">
        <ele>10.727</ele>
        <time>2015-03-19T15:05:44Z</time>
      </trkpt>
      <trkpt lat="39.064234" lon="-8.803218">
        <ele>10.729</ele>
        <time>2015-03-19T15:06:03Z</time>
      </trkpt>
      <trkpt lat="39.063441" lon="-8.802622">
        <ele>10.729</ele>
        <time>2015-03-19T15:06:22Z</time>
      </trkpt>
      <trkpt lat="39.062703" lon="-8.802015">
        <ele>10.777</ele>
        <time>2015-03-19T15:06:40Z</time>
      </trkpt>
      <trkpt lat="39.062380" lon="-8.801734">
        <ele>10.762</ele>
        <time>2015-03-19T15:06:48Z</time>
      </trkpt>
      <trkpt lat="39.061500" lon="-8.800943">
        <ele>10.729</ele>
        <time>2015-03-19T15:07:10Z</time>
      </trkpt>
      <trkpt lat="39.060796" lon="-8.800303">
        <ele>10.763</ele>
        <time>2015-03-19T15:07:28Z</time>
      </trkpt>
      <trkpt lat="39.060088" lon="-8.799575">
        <ele>11.744</ele>
        <time>2015-03-19T15:07:47Z</time>
      </trkpt>
      <trkpt lat="39.059521" lon="-8.798990">
        <ele>11.718</ele>
        <time>2015-03-19T15:08:02Z</time>
      </trkpt>
      <trkpt lat="39.059510" lon="-8.798563">
        <ele>12.207</ele>
        <time>2015-03-19T15:08:11Z</time>
      </trkpt>
      <trkpt lat="39.059620" lon="-8.798409">
        <ele>12.245</ele>
        <time>2015-03-19T15:08:15Z</time>
      </trkpt>
      <trkpt lat="39.060171" lon="-8.797636">
        <ele>12.268</ele>
        <time>2015-03-19T15:08:35Z</time>
      </trkpt>
      <trkpt lat="39.060290" lon="-8.797495">
        <ele>12.280</ele>
        <time>2015-03-19T15:08:39Z</time>
      </trkpt>
      <trkpt lat="39.060925" lon="-8.797038">
        <ele>12.290</ele>
        <time>2015-03-19T15:08:56Z</time>
      </trkpt>
      <trkpt lat="39.061354" lon="-8.796797">
        <ele>12.288</ele>
        <time>2015-03-19T15:09:07Z</time>
      </trkpt>
      <trkpt lat="39.062110" lon="-8.796383">
        <ele>12.243</ele>
        <time>2015-03-19T15:09:26Z</time>
      </trkpt>
      <trkpt lat="39.062398" lon="-8.796210">
        <ele>12.280</ele>
        <time>2015-03-19T15:09:33Z</time>
      </trkpt>
      <trkpt lat="39.063010" lon="-8.795580">
        <ele>12.213</ele>
        <time>2015-03-19T15:09:51Z</time>
      </trkpt>
      <trkpt lat="39.063491" lon="-8.795011">
        <ele>12.243</ele>
        <time>2015-03-19T15:10:06Z</time>
      </trkpt>
      <trkpt lat="39.063851" lon="-8.794213">
        <ele>12.207</ele>
        <time>2015-03-19T15:10:23Z</time>
      </trkpt>
      <trkpt lat="39.064191" lon="-8.793578">
        <ele>11.707</ele>
        <time>2015-03-19T15:10:37Z</time>
      </trkpt>
      <trkpt lat="39.064698" lon="-8.792702">
        <ele>12.240</ele>
        <time>2015-03-19T15:10:57Z</time>
      </trkpt>
      <trkpt lat="39.065184" lon="-8.791845">
        <ele>12.623</ele>
        <time>2015-03-19T15:11:16Z</time>
      </trkpt>
      <trkpt lat="39.065598" lon="-8.791015">
        <ele>13.185</ele>
        <time>2015-03-19T15:11:34Z</time>
      </trkpt>
      <trkpt lat="39.066069" lon="-8.790082">
        <ele>13.175</ele>
        <time>2015-03-19T15:11:54Z</time>
      </trkpt>
      <trkpt lat="39.066465" lon="-8.789373">
        <ele>14.113</ele>
        <time>2015-03-19T15:12:10Z</time>
      </trkpt>
      <trkpt lat="39.066712" lon="-8.789017">
        <ele>12.668</ele>
        <time>2015-03-19T15:12:19Z</time>
      </trkpt>
      <trkpt lat="39.066804" lon="-8.788854">
        <ele>12.255</ele>
        <time>2015-03-19T15:12:28Z</time>
      </trkpt>
      <trkpt lat="39.066894" lon="-8.788683">
        <ele>12.273</ele>
        <time>2015-03-19T15:12:41Z</time>
      </trkpt>
      <trkpt lat="39.067027" lon="-8.788305">
        <ele>11.785</ele>
        <time>2015-03-19T15:14:25Z</time>
      </trkpt>
      <trkpt lat="39.067516" lon="-8.787283">
        <ele>11.713</ele>
        <time>2015-03-19T15:14:48Z</time>
      </trkpt>
      <trkpt lat="39.068057" lon="-8.786316">
        <ele>11.707</ele>
        <time>2015-03-19T15:15:10Z</time>
      </trkpt>
      <trkpt lat="39.068501" lon="-8.785591">
        <ele>11.746</ele>
        <time>2015-03-19T15:15:27Z</time>
      </trkpt>
      <trkpt lat="39.068893" lon="-8.784830">
        <ele>11.799</ele>
        <time>2015-03-19T15:15:44Z</time>
      </trkpt>
      <trkpt lat="39.069332" lon="-8.783730">
        <ele>11.741</ele>
        <time>2015-03-19T15:16:06Z</time>
      </trkpt>
      <trkpt lat="39.069585" lon="-8.783148">
        <ele>14.631</ele>
        <time>2015-03-19T15:16:21Z</time>
      </trkpt>
      <trkpt lat="39.070189" lon="-8.782713">
        <ele>14.649</ele>
        <time>2015-03-19T15:16:39Z</time>
      </trkpt>
      <trkpt lat="39.070778" lon="-8.782128">
        <ele>14.644</ele>
        <time>2015-03-19T15:16:57Z</time>
      </trkpt>
      <trkpt lat="39.071376" lon="-8.781450">
        <ele>14.691</ele>
        <time>2015-03-19T15:17:16Z</time>
      </trkpt>
      <trkpt lat="39.071999" lon="-8.781138">
        <ele>14.662</ele>
        <time>2015-03-19T15:17:32Z</time>
      </trkpt>
      <trkpt lat="39.072248" lon="-8.780780">
        <ele>14.683</ele>
        <time>2015-03-19T15:17:41Z</time>
      </trkpt>
      <trkpt lat="39.072278" lon="-8.780675">
        <ele>14.611</ele>
        <time>2015-03-19T15:17:43Z</time>
      </trkpt>
      <trkpt lat="39.072385" lon="-8.779658">
        <ele>13.107</ele>
        <time>2015-03-19T15:18:00Z</time>
      </trkpt>
      <trkpt lat="39.072412" lon="-8.779448">
        <ele>12.665</ele>
        <time>2015-03-19T15:18:03Z</time>
      </trkpt>
      <trkpt lat="39.072754" lon="-8.778672">
        <ele>12.288</ele>
        <time>2015-03-19T15:18:17Z</time>
      </trkpt>
      <trkpt lat="39.073087" lon="-8.778076">
        <ele>11.750</ele>
        <time>2015-03-19T15:18:29Z</time>
      </trkpt>
      <trkpt lat="39.073269" lon="-8.777892">
        <ele>11.760</ele>
        <time>2015-03-19T15:18:34Z</time>
      </trkpt>
      <trkpt lat="39.074030" lon="-8.777810">
        <ele>11.788</ele>
        <time>2015-03-19T15:18:50Z</time>
      </trkpt>
      <trkpt lat="39.074080" lon="-8.777801">
        <ele>11.793</ele>
        <time>2015-03-19T15:18:51Z</time>
      </trkpt>
      <trkpt lat="39.074172" lon="-8.777768">
        <ele>11.790</ele>
        <time>2015-03-19T15:18:53Z</time>
      </trkpt>
      <trkpt lat="39.074255" lon="-8.777720">
        <ele>11.771</ele>
        <time>2015-03-19T15:18:55Z</time>
      </trkpt>
      <trkpt lat="39.074937" lon="-8.777021">
        <ele>11.741</ele>
        <time>2015-03-19T15:19:14Z</time>
      </trkpt>
      <trkpt lat="39.075521" lon="-8.776419">
        <ele>11.715</ele>
        <time>2015-03-19T15:19:30Z</time>
      </trkpt>
      <trkpt lat="39.076003" lon="-8.775593">
        <ele>11.207</ele>
        <time>2015-03-19T15:19:48Z</time>
      </trkpt>
      <trkpt lat="39.075986" lon="-8.774863">
        <ele>10.746</ele>
        <time>2015-03-19T15:20:01Z</time>
      </trkpt>
      <trkpt lat="39.076018" lon="-8.774589">
        <ele>10.749</ele>
        <time>2015-03-19T15:20:06Z</time>
      </trkpt>
      <trkpt lat="39.076393" lon="-8.773607">
        <ele>12.271</ele>
        <time>2015-03-19T15:20:25Z</time>
      </trkpt>
      <trkpt lat="39.076768" lon="-8.772616">
        <ele>12.271</ele>
        <time>2015-03-19T15:20:44Z</time>
      </trkpt>
      <trkpt lat="39.077112" lon="-8.771331">
        <ele>12.219</ele>
        <time>2015-03-19T15:21:06Z</time>
      </trkpt>
      <trkpt lat="39.077185" lon="-8.770189">
        <ele>12.214</ele>
        <time>2015-03-19T15:21:25Z</time>
      </trkpt>
      <trkpt lat="39.077261" lon="-8.769314">
        <ele>12.211</ele>
        <time>2015-03-19T15:21:40Z</time>
      </trkpt>
      <trkpt lat="39.077373" lon="-8.768208">
        <ele>12.259</ele>
        <time>2015-03-19T15:21:59Z</time>
      </trkpt>
      <trkpt lat="39.077432" lon="-8.767212">
        <ele>11.703</ele>
        <time>2015-03-19T15:22:16Z</time>
      </trkpt>
      <trkpt lat="39.077567" lon="-8.766356">
        <ele>11.723</ele>
        <time>2015-03-19T15:22:31Z</time>
      </trkpt>
      <trkpt lat="39.077798" lon="-8.765313">
        <ele>11.707</ele>
        <time>2015-03-19T15:22:50Z</time>
      </trkpt>
      <trkpt lat="39.078074" lon="-8.764508">
        <ele>11.774</ele>
        <time>2015-03-19T15:23:06Z</time>
      </trkpt>
      <trkpt lat="39.078560" lon="-8.763775">
        <ele>11.777</ele>
        <time>2015-03-19T15:23:23Z</time>
      </trkpt>
      <trkpt lat="39.079003" lon="-8.763172">
        <ele>11.749</ele>
        <time>2015-03-19T15:23:40Z</time>
      </trkpt>
      <trkpt lat="39.079340" lon="-8.762701">
        <ele>11.769</ele>
        <time>2015-03-19T15:23:53Z</time>
      </trkpt>
      <trkpt lat="39.079401" lon="-8.762563">
        <ele>10.257</ele>
        <time>2015-03-19T15:23:56Z</time>
      </trkpt>
      <trkpt lat="39.079628" lon="-8.762141">
        <ele>10.292</ele>
        <time>2015-03-19T15:24:10Z</time>
      </trkpt>
      <trkpt lat="39.079860" lon="-8.761758">
        <ele>10.249</ele>
        <time>2015-03-19T15:24:25Z</time>
      </trkpt>
      <trkpt lat="39.079881" lon="-8.761642">
        <ele>11.733</ele>
        <time>2015-03-19T15:24:33Z</time>
      </trkpt>
      <trkpt lat="39.079969" lon="-8.761527">
        <ele>11.723</ele>
        <time>2015-03-19T15:44:39Z</time>
      </trkpt>
      <trkpt lat="39.080189" lon="-8.761178">
        <ele>11.715</ele>
        <time>2015-03-19T15:44:54Z</time>
      </trkpt>
      <trkpt lat="39.080480" lon="-8.760744">
        <ele>11.707</ele>
        <time>2015-03-19T15:45:10Z</time>
      </trkpt>
      <trkpt lat="39.080750" lon="-8.760331">
        <ele>12.222</ele>
        <time>2015-03-19T15:45:25Z</time>
      </trkpt>
      <trkpt lat="39.081167" lon="-8.759712">
        <ele>12.235</ele>
        <time>2015-03-19T15:45:46Z</time>
      </trkpt>
      <trkpt lat="39.081499" lon="-8.759141">
        <ele>12.677</ele>
        <time>2015-03-19T15:46:04Z</time>
      </trkpt>
      <trkpt lat="39.081879" lon="-8.758586">
        <ele>12.697</ele>
        <time>2015-03-19T15:46:21Z</time>
      </trkpt>
      <trkpt lat="39.082230" lon="-8.758227">
        <ele>12.675</ele>
        <time>2015-03-19T15:46:35Z</time>
      </trkpt>
      <trkpt lat="39.082529" lon="-8.757693">
        <ele>12.610</ele>
        <time>2015-03-19T15:46:53Z</time>
      </trkpt>
      <trkpt lat="39.082548" lon="-8.757556">
        <ele>13.117</ele>
        <time>2015-03-19T15:46:57Z</time>
      </trkpt>
      <trkpt lat="39.082752" lon="-8.757202">
        <ele>14.624</ele>
        <time>2015-03-19T15:47:12Z</time>
      </trkpt>
      <trkpt lat="39.083001" lon="-8.756876">
        <ele>14.604</ele>
        <time>2015-03-19T15:47:27Z</time>
      </trkpt>
      <trkpt lat="39.083175" lon="-8.756760">
        <ele>14.614</ele>
        <time>2015-03-19T15:48:07Z</time>
      </trkpt>
      <trkpt lat="39.083752" lon="-8.756386">
        <ele>14.607</ele>
        <time>2015-03-19T15:48:26Z</time>
      </trkpt>
      <trkpt lat="39.084343" lon="-8.755976">
        <ele>14.621</ele>
        <time>2015-03-19T15:48:46Z</time>
      </trkpt>
      <trkpt lat="39.084411" lon="-8.755996">
        <ele>13.164</ele>
        <time>2015-03-19T15:48:56Z</time>
      </trkpt>
      <trkpt lat="39.084509" lon="-8.755943">
        <ele>12.686</ele>
        <time>2015-03-19T15:49:07Z</time>
      </trkpt>
      <trkpt lat="39.084956" lon="-8.755591">
        <ele>12.696</ele>
        <time>2015-03-19T15:49:22Z</time>
      </trkpt>
      <trkpt lat="39.085623" lon="-8.755116">
        <ele>11.714</ele>
        <time>2015-03-19T15:49:41Z</time>
      </trkpt>
      <trkpt lat="39.086334" lon="-8.754612">
        <ele>11.799</ele>
        <time>2015-03-19T15:50:01Z</time>
      </trkpt>
      <trkpt lat="39.087113" lon="-8.754080">
        <ele>11.746</ele>
        <time>2015-03-19T15:50:23Z</time>
      </trkpt>
      <trkpt lat="39.087916" lon="-8.753466">
        <ele>11.794</ele>
        <time>2015-03-19T15:50:46Z</time>
      </trkpt>
      <trkpt lat="39.088744" lon="-8.752808">
        <ele>11.257</ele>
        <time>2015-03-19T15:51:10Z</time>
      </trkpt>
      <trkpt lat="39.089291" lon="-8.752348">
        <ele>12.622</ele>
        <time>2015-03-19T15:51:27Z</time>
      </trkpt>
      <trkpt lat="39.089757" lon="-8.752231">
        <ele>14.607</ele>
        <time>2015-03-19T15:51:43Z</time>
      </trkpt>
      <trkpt lat="39.090275" lon="-8.752105">
        <ele>14.628</ele>
        <time>2015-03-19T15:51:57Z</time>
      </trkpt>
      <trkpt lat="39.090683" lon="-8.751765">
        <ele>14.611</ele>
        <time>2015-03-19T15:52:10Z</time>
      </trkpt>
      <trkpt lat="39.091091" lon="-8.751224">
        <ele>14.623</ele>
        <time>2015-03-19T15:52:26Z</time>
      </trkpt>
      <trkpt lat="39.091239" lon="-8.750763">
        <ele>14.673</ele>
        <time>2015-03-19T15:52:36Z</time>
      </trkpt>
      <trkpt lat="39.091763" lon="-8.750267">
        <ele>14.671</ele>
        <time>2015-03-19T15:52:51Z</time>
      </trkpt>
      <trkpt lat="39.092399" lon="-8.749854">
        <ele>13.656</ele>
        <time>2015-03-19T15:53:08Z</time>
      </trkpt>
      <trkpt lat="39.093040" lon="-8.749498">
        <ele>13.173</ele>
        <time>2015-03-19T15:53:25Z</time>
      </trkpt>
      <trkpt lat="39.093303" lon="-8.749330">
        <ele>13.183</ele>
        <time>2015-03-19T15:53:32Z</time>
      </trkpt>
      <trkpt lat="39.094215" lon="-8.748693">
        <ele>13.125</ele>
        <time>2015-03-19T15:53:57Z</time>
      </trkpt>
      <trkpt lat="39.094952" lon="-8.748090">
        <ele>13.117</ele>
        <time>2015-03-19T15:54:17Z</time>
      </trkpt>
      <trkpt lat="39.095673" lon="-8.747444">
        <ele>12.207</ele>
        <time>2015-03-19T15:54:36Z</time>
      </trkpt>
      <trkpt lat="39.096422" lon="-8.746788">
        <ele>11.767</ele>
        <time>2015-03-19T15:54:56Z</time>
      </trkpt>
      <trkpt lat="39.097090" lon="-8.746175">
        <ele>11.780</ele>
        <time>2015-03-19T15:55:14Z</time>
      </trkpt>
      <trkpt lat="39.097598" lon="-8.745783">
        <ele>11.282</ele>
        <time>2015-03-19T15:55:27Z</time>
      </trkpt>
      <trkpt lat="39.097856" lon="-8.745450">
        <ele>11.222</ele>
        <time>2015-03-19T15:55:36Z</time>
      </trkpt>
      <trkpt lat="39.098208" lon="-8.745141">
        <ele>12.660</ele>
        <time>2015-03-19T15:55:47Z</time>
      </trkpt>
      <trkpt lat="39.098852" lon="-8.744616">
        <ele>12.655</ele>
        <time>2015-03-19T15:56:05Z</time>
      </trkpt>
      <trkpt lat="39.099397" lon="-8.744106">
        <ele>11.272</ele>
        <time>2015-03-19T15:56:22Z</time>
      </trkpt>
      <trkpt lat="39.100079" lon="-8.743437">
        <ele>12.697</ele>
        <time>2015-03-19T15:56:43Z</time>
      </trkpt>
      <trkpt lat="39.100268" lon="-8.743247">
        <ele>12.623</ele>
        <time>2015-03-19T15:56:49Z</time>
      </trkpt>
      <trkpt lat="39.101026" lon="-8.742584">
        <ele>11.225</ele>
        <time>2015-03-19T15:57:10Z</time>
      </trkpt>
      <trkpt lat="39.101861" lon="-8.741809">
        <ele>10.707</ele>
        <time>2015-03-19T15:57:32Z</time>
      </trkpt>
      <trkpt lat="39.102638" lon="-8.741129">
        <ele>10.278</ele>
        <time>2015-03-19T15:57:53Z</time>
      </trkpt>
      <trkpt lat="39.103388" lon="-8.740660">
        <ele>10.281</ele>
        <time>2015-03-19T15:58:13Z</time>
      </trkpt>
      <trkpt lat="39.103465" lon="-8.740623">
        <ele>10.293</ele>
        <time>2015-03-19T15:58:15Z</time>
      </trkpt>
      <trkpt lat="39.103706" lon="-8.740532">
        <ele>10.243</ele>
        <time>2015-03-19T15:58:21Z</time>
      </trkpt>
      <trkpt lat="39.103939" lon="-8.740368">
        <ele>11.761</ele>
        <time>2015-03-19T15:58:28Z</time>
      </trkpt>
      <trkpt lat="39.104613" lon="-8.739971">
        <ele>12.686</ele>
        <time>2015-03-19T15:58:47Z</time>
      </trkpt>
      <trkpt lat="39.105197" lon="-8.739689">
        <ele>11.733</ele>
        <time>2015-03-19T15:59:02Z</time>
      </trkpt>
      <trkpt lat="39.105828" lon="-8.739428">
        <ele>11.736</ele>
        <time>2015-03-19T15:59:18Z</time>
      </trkpt>
      <trkpt lat="39.106541" lon="-8.739068">
        <ele>11.717</ele>
        <time>2015-03-19T15:59:36Z</time>
      </trkpt>
      <trkpt lat="39.107028" lon="-8.738735">
        <ele>13.118</ele>
        <time>2015-03-19T15:59:50Z</time>
      </trkpt>
      <trkpt lat="39.107392" lon="-8.738450">
        <ele>12.607</ele>
        <time>2015-03-19T16:00:01Z</time>
      </trkpt>
      <trkpt lat="39.107823" lon="-8.738154">
        <ele>11.772</ele>
        <time>2015-03-19T16:00:12Z</time>
      </trkpt>
      <trkpt lat="39.108447" lon="-8.737809">
        <ele>11.775</ele>
        <time>2015-03-19T16:00:29Z</time>
      </trkpt>
      <trkpt lat="39.108989" lon="-8.737452">
        <ele>11.747</ele>
        <time>2015-03-19T16:00:44Z</time>
      </trkpt>
      <trkpt lat="39.109535" lon="-8.736985">
        <ele>11.727</ele>
        <time>2015-03-19T16:01:00Z</time>
      </trkpt>
      <trkpt lat="39.110113" lon="-8.736441">
        <ele>11.715</ele>
        <time>2015-03-19T16:01:18Z</time>
      </trkpt>
      <trkpt lat="39.110657" lon="-8.735986">
        <ele>11.720</ele>
        <time>2015-03-19T16:01:35Z</time>
      </trkpt>
      <trkpt lat="39.111487" lon="-8.735500">
        <ele>11.747</ele>
        <time>2015-03-19T16:01:57Z</time>
      </trkpt>
      <trkpt lat="39.112037" lon="-8.735089">
        <ele>11.719</ele>
        <time>2015-03-19T16:02:14Z</time>
      </trkpt>
      <trkpt lat="39.112352" lon="-8.734888">
        <ele>16.009</ele>
        <time>2015-03-19T16:23:08Z</time>
      </trkpt>
      <trkpt lat="39.112909" lon="-8.734571">
        <ele>16.519</ele>
        <time>2015-03-19T16:23:25Z</time>
      </trkpt>
      <trkpt lat="39.113511" lon="-8.734280">
        <ele>16.507</ele>
        <time>2015-03-19T16:23:41Z</time>
      </trkpt>
      <trkpt lat="39.114257" lon="-8.734091">
        <ele>16.580</ele>
        <time>2015-03-19T16:24:00Z</time>
      </trkpt>
      <trkpt lat="39.114886" lon="-8.733926">
        <ele>16.513</ele>
        <time>2015-03-19T16:24:16Z</time>
      </trkpt>
      <trkpt lat="39.115301" lon="-8.733870">
        <ele>15.065</ele>
        <time>2015-03-19T16:24:25Z</time>
      </trkpt>
      <trkpt lat="39.116220" lon="-8.733636">
        <ele>15.075</ele>
        <time>2015-03-19T16:24:46Z</time>
      </trkpt>
      <trkpt lat="39.117001" lon="-8.733544">
        <ele>15.093</ele>
        <time>2015-03-19T16:25:05Z</time>
      </trkpt>
      <trkpt lat="39.117819" lon="-8.733494">
        <ele>14.668</ele>
        <time>2015-03-19T16:25:24Z</time>
      </trkpt>
      <trkpt lat="39.118714" lon="-8.733452">
        <ele>14.665</ele>
        <time>2015-03-19T16:25:44Z</time>
      </trkpt>
      <trkpt lat="39.119408" lon="-8.733224">
        <ele>14.116</ele>
        <time>2015-03-19T16:26:01Z</time>
      </trkpt>
      <trkpt lat="39.119795" lon="-8.733025">
        <ele>14.176</ele>
        <time>2015-03-19T16:26:11Z</time>
      </trkpt>
      <trkpt lat="39.120515" lon="-8.732678">
        <ele>14.113</ele>
        <time>2015-03-19T16:26:30Z</time>
      </trkpt>
      <trkpt lat="39.121222" lon="-8.732231">
        <ele>14.107</ele>
        <time>2015-03-19T16:26:49Z</time>
      </trkpt>
      <trkpt lat="39.122026" lon="-8.731669">
        <ele>14.110</ele>
        <time>2015-03-19T16:27:11Z</time>
      </trkpt>
      <trkpt lat="39.122848" lon="-8.731023">
        <ele>14.143</ele>
        <time>2015-03-19T16:27:33Z</time>
      </trkpt>
      <trkpt lat="39.123558" lon="-8.730352">
        <ele>14.165</ele>
        <time>2015-03-19T16:27:53Z</time>
      </trkpt>
      <trkpt lat="39.124122" lon="-8.729745">
        <ele>13.615</ele>
        <time>2015-03-19T16:28:09Z</time>
      </trkpt>
      <trkpt lat="39.124646" lon="-8.729188">
        <ele>13.143</ele>
        <time>2015-03-19T16:28:24Z</time>
      </trkpt>
      <trkpt lat="39.125121" lon="-8.728842">
        <ele>13.138</ele>
        <time>2015-03-19T16:28:36Z</time>
      </trkpt>
      <trkpt lat="39.125855" lon="-8.728628">
        <ele>13.195</ele>
        <time>2015-03-19T16:28:53Z</time>
      </trkpt>
      <trkpt lat="39.126460" lon="-8.728273">
        <ele>14.689</ele>
        <time>2015-03-19T16:29:10Z</time>
      </trkpt>
      <trkpt lat="39.127163" lon="-8.727892">
        <ele>15.006</ele>
        <time>2015-03-19T16:29:30Z</time>
      </trkpt>
      <trkpt lat="39.127513" lon="-8.727668">
        <ele>15.526</ele>
        <time>2015-03-19T16:29:42Z</time>
      </trkpt>
      <trkpt lat="39.128153" lon="-8.727566">
        <ele>16.007</ele>
        <time>2015-03-19T16:29:58Z</time>
      </trkpt>
      <trkpt lat="39.128477" lon="-8.727536">
        <ele>16.057</ele>
        <time>2015-03-19T16:30:06Z</time>
      </trkpt>
      <trkpt lat="39.128941" lon="-8.727446">
        <ele>14.670</ele>
        <time>2015-03-19T16:30:17Z</time>
      </trkpt>
      <trkpt lat="39.129646" lon="-8.727302">
        <ele>14.132</ele>
        <time>2015-03-19T16:30:34Z</time>
      </trkpt>
      <trkpt lat="39.130398" lon="-8.727223">
        <ele>14.162</ele>
        <time>2015-03-19T16:30:52Z</time>
      </trkpt>
      <trkpt lat="39.131245" lon="-8.727269">
        <ele>14.150</ele>
        <time>2015-03-19T16:31:11Z</time>
      </trkpt>
      <trkpt lat="39.131630" lon="-8.727359">
        <ele>14.185</ele>
        <time>2015-03-19T16:31:21Z</time>
      </trkpt>
      <trkpt lat="39.132408" lon="-8.727637">
        <ele>13.612</ele>
        <time>2015-03-19T16:31:37Z</time>
      </trkpt>
      <trkpt lat="39.133430" lon="-8.727869">
        <ele>14.171</ele>
        <time>2015-03-19T16:32:00Z</time>
      </trkpt>
      <trkpt lat="39.134118" lon="-8.728097">
        <ele>14.141</ele>
        <time>2015-03-19T16:32:16Z</time>
      </trkpt>
      <trkpt lat="39.134439" lon="-8.728293">
        <ele>14.115</ele>
        <time>2015-03-19T16:32:24Z</time>
      </trkpt>
      <trkpt lat="39.135271" lon="-8.728724">
        <ele>13.607</ele>
        <time>2015-03-19T16:32:44Z</time>
      </trkpt>
      <trkpt lat="39.135746" lon="-8.728924">
        <ele>14.176</ele>
        <time>2015-03-19T16:32:55Z</time>
      </trkpt>
      <trkpt lat="39.136578" lon="-8.729163">
        <ele>14.129</ele>
        <time>2015-03-19T16:33:15Z</time>
      </trkpt>
      <trkpt lat="39.136695" lon="-8.729149">
        <ele>15.051</ele>
        <time>2015-03-19T16:33:25Z</time>
      </trkpt>
      <trkpt lat="39.137105" lon="-8.728976">
        <ele>15.561</ele>
        <time>2015-03-19T16:34:05Z</time>
      </trkpt>
      <trkpt lat="39.137768" lon="-8.728793">
        <ele>15.599</ele>
        <time>2015-03-19T16:34:21Z</time>
      </trkpt>
      <trkpt lat="39.138444" lon="-8.728549">
        <ele>15.534</ele>
        <time>2015-03-19T16:34:37Z</time>
      </trkpt>
      <trkpt lat="39.139457" lon="-8.728364">
        <ele>15.561</ele>
        <time>2015-03-19T16:34:59Z</time>
      </trkpt>
      <trkpt lat="39.139738" lon="-8.728306">
        <ele>15.548</ele>
        <time>2015-03-19T16:35:06Z</time>
      </trkpt>
      <trkpt lat="39.140450" lon="-8.727868">
        <ele>15.561</ele>
        <time>2015-03-19T16:35:25Z</time>
      </trkpt>
      <trkpt lat="39.140917" lon="-8.727534">
        <ele>15.517</ele>
        <time>2015-03-19T16:35:40Z</time>
      </trkpt>
      <trkpt lat="39.140961" lon="-8.727489">
        <ele>15.007</ele>
        <time>2015-03-19T16:37:58Z</time>
      </trkpt>
      <trkpt lat="39.141322" lon="-8.727216">
        <ele>15.053</ele>
        <time>2015-03-19T16:38:11Z</time>
      </trkpt>
      <trkpt lat="39.142001" lon="-8.726811">
        <ele>14.646</ele>
        <time>2015-03-19T16:38:29Z</time>
      </trkpt>
      <trkpt lat="39.142773" lon="-8.726554">
        <ele>14.628</ele>
        <time>2015-03-19T16:38:48Z</time>
      </trkpt>
      <trkpt lat="39.143501" lon="-8.726188">
        <ele>14.658</ele>
        <time>2015-03-19T16:39:06Z</time>
      </trkpt>
      <trkpt lat="39.144164" lon="-8.725888">
        <ele>14.696</ele>
        <time>2015-03-19T16:39:22Z</time>
      </trkpt>
      <trkpt lat="39.144414" lon="-8.725770">
        <ele>14.671</ele>
        <time>2015-03-19T16:39:28Z</time>
      </trkpt>
      <trkpt lat="39.145169" lon="-8.725410">
        <ele>14.668</ele>
        <time>2015-03-19T16:39:46Z</time>
      </trkpt>
      <trkpt lat="39.145981" lon="-8.725006">
        <ele>14.614</ele>
        <time>2015-03-19T16:40:06Z</time>
      </trkpt>
      <trkpt lat="39.146850" lon="-8.724713">
        <ele>14.654</ele>
        <time>2015-03-19T16:40:27Z</time>
      </trkpt>
      <trkpt lat="39.147626" lon="-8.724497">
        <ele>14.609</ele>
        <time>2015-03-19T16:40:46Z</time>
      </trkpt>
      <trkpt lat="39.148016" lon="-8.724304">
        <ele>14.607</ele>
        <time>2015-03-19T16:40:56Z</time>
      </trkpt>
      <trkpt lat="39.148471" lon="-8.724103">
        <ele>14.650</ele>
        <time>2015-03-19T16:41:08Z</time>
      </trkpt>
      <trkpt lat="39.149063" lon="-8.723816">
        <ele>14.673</ele>
        <time>2015-03-19T16:41:23Z</time>
      </trkpt>
      <trkpt lat="39.149582" lon="-8.723581">
        <ele>14.675</ele>
        <time>2015-03-19T16:41:37Z</time>
      </trkpt>
      <trkpt lat="39.149783" lon="-8.723508">
        <ele>15.045</ele>
        <time>2015-03-19T16:41:47Z</time>
      </trkpt>
      <trkpt lat="39.149857" lon="-8.723446">
        <ele>15.063</ele>
        <time>2015-03-19T16:42:21Z</time>
      </trkpt>
      <trkpt lat="39.150414" lon="-8.723085">
        <ele>15.058</ele>
        <time>2015-03-19T16:42:37Z</time>
      </trkpt>
      <trkpt lat="39.151030" lon="-8.722735">
        <ele>14.645</ele>
        <time>2015-03-19T16:42:53Z</time>
      </trkpt>
      <trkpt lat="39.151683" lon="-8.722371">
        <ele>15.087</ele>
        <time>2015-03-19T16:43:10Z</time>
      </trkpt>
      <trkpt lat="39.152492" lon="-8.721961">
        <ele>14.642</ele>
        <time>2015-03-19T16:43:30Z</time>
      </trkpt>
      <trkpt lat="39.153261" lon="-8.721644">
        <ele>14.626</ele>
        <time>2015-03-19T16:43:49Z</time>
      </trkpt>
      <trkpt lat="39.154104" lon="-8.721329">
        <ele>14.607</ele>
        <time>2015-03-19T16:44:09Z</time>
      </trkpt>
      <trkpt lat="39.154929" lon="-8.721004">
        <ele>14.647</ele>
        <time>2015-03-19T16:44:29Z</time>
      </trkpt>
      <trkpt lat="39.155561" lon="-8.720739">
        <ele>14.640</ele>
        <time>2015-03-19T16:44:45Z</time>
      </trkpt>
      <trkpt lat="39.156278" lon="-8.720489">
        <ele>15.022</ele>
        <time>2015-03-19T16:45:02Z</time>
      </trkpt>
      <trkpt lat="39.156976" lon="-8.720202">
        <ele>15.052</ele>
        <time>2015-03-19T16:45:19Z</time>
      </trkpt>
      <trkpt lat="39.157679" lon="-8.719705">
        <ele>13.670</ele>
        <time>2015-03-19T16:45:37Z</time>
      </trkpt>
      <trkpt lat="39.157865" lon="-8.719567">
        <ele>13.635</ele>
        <time>2015-03-19T16:45:42Z</time>
      </trkpt>
      <trkpt lat="39.158418" lon="-8.719098">
        <ele>13.692</ele>
        <time>2015-03-19T16:45:58Z</time>
      </trkpt>
      <trkpt lat="39.158999" lon="-8.718569">
        <ele>13.636</ele>
        <time>2015-03-19T16:46:15Z</time>
      </trkpt>
      <trkpt lat="39.159542" lon="-8.718033">
        <ele>13.117</ele>
        <time>2015-03-19T16:46:31Z</time>
      </trkpt>
      <trkpt lat="39.160171" lon="-8.717362">
        <ele>13.118</ele>
        <time>2015-03-19T16:46:50Z</time>
      </trkpt>
      <trkpt lat="39.160753" lon="-8.716720">
        <ele>13.107</ele>
        <time>2015-03-19T16:47:09Z</time>
      </trkpt>
      <trkpt lat="39.161486" lon="-8.716040">
        <ele>13.162</ele>
        <time>2015-03-19T16:47:31Z</time>
      </trkpt>
      <trkpt lat="39.161934" lon="-8.715559">
        <ele>13.185</ele>
        <time>2015-03-19T16:47:46Z</time>
      </trkpt>
      <trkpt lat="39.162333" lon="-8.715118">
        <ele>14.697</ele>
        <time>2015-03-19T16:48:00Z</time>
      </trkpt>
      <trkpt lat="39.162795" lon="-8.714697">
        <ele>15.047</ele>
        <time>2015-03-19T16:48:14Z</time>
      </trkpt>
      <trkpt lat="39.163211" lon="-8.714279">
        <ele>15.085</ele>
        <time>2015-03-19T16:48:27Z</time>
      </trkpt>
      <trkpt lat="39.163705" lon="-8.713772">
        <ele>13.610</ele>
        <time>2015-03-19T16:48:43Z</time>
      </trkpt>
      <trkpt lat="39.164202" lon="-8.713284">
        <ele>13.617</ele>
        <time>2015-03-19T16:48:58Z</time>
      </trkpt>
      <trkpt lat="39.164612" lon="-8.712890">
        <ele>13.676</ele>
        <time>2015-03-19T16:49:11Z</time>
      </trkpt>
      <trkpt lat="39.165135" lon="-8.712379">
        <ele>13.690</ele>
        <time>2015-03-19T16:49:27Z</time>
      </trkpt>
      <trkpt lat="39.165630" lon="-8.711890">
        <ele>13.619</ele>
        <time>2015-03-19T16:49:42Z</time>
      </trkpt>
      <trkpt lat="39.166184" lon="-8.711339">
        <ele>15.007</ele>
        <time>2015-03-19T16:49:59Z</time>
      </trkpt>
      <trkpt lat="39.166682" lon="-8.710878">
        <ele>15.046</ele>
        <time>2015-03-19T16:50:14Z</time>
      </trkpt>
      <trkpt lat="39.167102" lon="-8.710519">
        <ele>15.069</ele>
        <time>2015-03-19T16:50:29Z</time>
      </trkpt>
      <trkpt lat="39.167279" lon="-8.710361">
        <ele>15.051</ele>
        <time>2015-03-19T16:51:15Z</time>
      </trkpt>
      <trkpt lat="39.167885" lon="-8.709800">
        <ele>15.081</ele>
        <time>2015-03-19T16:51:34Z</time>
      </trkpt>
      <trkpt lat="39.168569" lon="-8.709164">
        <ele>15.079</ele>
        <time>2015-03-19T16:51:55Z</time>
      </trkpt>
      <trkpt lat="39.168901" lon="-8.708864">
        <ele>15.024</ele>
        <time>2015-03-19T16:52:05Z</time>
      </trkpt>
      <trkpt lat="39.169509" lon="-8.708276">
        <ele>15.041</ele>
        <time>2015-03-19T16:52:24Z</time>
      </trkpt>
      <trkpt lat="39.169986" lon="-8.707839">
        <ele>14.195</ele>
        <time>2015-03-19T16:52:38Z</time>
      </trkpt>
      <trkpt lat="39.170566" lon="-8.707302">
        <ele>14.149</ele>
        <time>2015-03-19T16:52:55Z</time>
      </trkpt>
      <trkpt lat="39.170728" lon="-8.707147">
        <ele>14.123</ele>
        <time>2015-03-19T16:53:00Z</time>
      </trkpt>
      <trkpt lat="39.171302" lon="-8.706628">
        <ele>14.107</ele>
        <time>2015-03-19T16:53:17Z</time>
      </trkpt>
      <trkpt lat="39.171913" lon="-8.706067">
        <ele>14.118</ele>
        <time>2015-03-19T16:53:36Z</time>
      </trkpt>
      <trkpt lat="39.172236" lon="-8.705707">
        <ele>13.631</ele>
        <time>2015-03-19T16:53:47Z</time>
      </trkpt>
      <trkpt lat="39.172351" lon="-8.705543">
        <ele>13.623</ele>
        <time>2015-03-19T16:53:51Z</time>
      </trkpt>
      <trkpt lat="39.172930" lon="-8.704911">
        <ele>15.553</ele>
        <time>2015-03-19T16:54:10Z</time>
      </trkpt>
      <trkpt lat="39.173311" lon="-8.704433">
        <ele>15.511</ele>
        <time>2015-03-19T16:54:23Z</time>
      </trkpt>
      <trkpt lat="39.173562" lon="-8.704414">
        <ele>13.656</ele>
        <time>2015-03-19T16:54:30Z</time>
      </trkpt>
      <trkpt lat="39.173677" lon="-8.704567">
        <ele>13.633</ele>
        <time>2015-03-19T16:54:34Z</time>
      </trkpt>
      <trkpt lat="39.173857" lon="-8.704666">
        <ele>13.637</ele>
        <time>2015-03-19T16:54:39Z</time>
      </trkpt>
      <trkpt lat="39.174574" lon="-8.704753">
        <ele>13.649</ele>
        <time>2015-03-19T16:54:57Z</time>
      </trkpt>
      <trkpt lat="39.175197" lon="-8.704827">
        <ele>15.013</ele>
        <time>2015-03-19T16:55:13Z</time>
      </trkpt>
      <trkpt lat="39.175618" lon="-8.704882">
        <ele>15.007</ele>
        <time>2015-03-19T16:55:28Z</time>
      </trkpt>
      <trkpt lat="39.175682" lon="-8.704894">
        <ele>15.082</ele>
        <time>2015-03-19T16:55:55Z</time>
      </trkpt>
      <trkpt lat="39.176039" lon="-8.704948">
        <ele>15.095</ele>
        <time>2015-03-19T16:56:06Z</time>
      </trkpt>
      <trkpt lat="39.176528" lon="-8.704800">
        <ele>15.087</ele>
        <time>2015-03-19T16:56:19Z</time>
      </trkpt>
      <trkpt lat="39.177034" lon="-8.704483">
        <ele>14.197</ele>
        <time>2015-03-19T16:56:33Z</time>
      </trkpt>
      <trkpt lat="39.177677" lon="-8.704235">
        <ele>14.115</ele>
        <time>2015-03-19T16:56:50Z</time>
      </trkpt>
      <trkpt lat="39.178322" lon="-8.703775">
        <ele>15.060</ele>
        <time>2015-03-19T16:57:10Z</time>
      </trkpt>
      <trkpt lat="39.178893" lon="-8.703346">
        <ele>15.057</ele>
        <time>2015-03-19T16:57:27Z</time>
      </trkpt>
      <trkpt lat="39.179463" lon="-8.702884">
        <ele>15.015</ele>
        <time>2015-03-19T16:57:44Z</time>
      </trkpt>
      <trkpt lat="39.179783" lon="-8.702681">
        <ele>15.565</ele>
        <time>2015-03-19T16:57:53Z</time>
      </trkpt>
      <trkpt lat="39.180301" lon="-8.702595">
        <ele>15.511</ele>
        <time>2015-03-19T16:58:07Z</time>
      </trkpt>
      <trkpt lat="39.180624" lon="-8.702124">
        <ele>15.507</ele>
        <time>2015-03-19T16:58:22Z</time>
      </trkpt>
      <trkpt lat="39.181096" lon="-8.701604">
        <ele>15.590</ele>
        <time>2015-03-19T16:58:40Z</time>
      </trkpt>
      <trkpt lat="39.181625" lon="-8.701179">
        <ele>15.573</ele>
        <time>2015-03-19T16:58:56Z</time>
      </trkpt>
      <trkpt lat="39.181901" lon="-8.700976">
        <ele>15.525</ele>
        <time>2015-03-19T16:59:04Z</time>
      </trkpt>
      <trkpt lat="39.182425" lon="-8.700502">
        <ele>15.565</ele>
        <time>2015-03-19T16:59:21Z</time>
      </trkpt>
      <trkpt lat="39.182876" lon="-8.700041">
        <ele>15.553</ele>
        <time>2015-03-19T16:59:36Z</time>
      </trkpt>
      <trkpt lat="39.183396" lon="-8.699579">
        <ele>15.528</ele>
        <time>2015-03-19T16:59:53Z</time>
      </trkpt>
      <trkpt lat="39.183941" lon="-8.699185">
        <ele>15.565</ele>
        <time>2015-03-19T17:00:10Z</time>
      </trkpt>
      <trkpt lat="39.184616" lon="-8.698840">
        <ele>15.521</ele>
        <time>2015-03-19T17:00:28Z</time>
      </trkpt>
      <trkpt lat="39.185013" lon="-8.698627">
        <ele>15.541</ele>
        <time>2015-03-19T17:00:39Z</time>
      </trkpt>
      <trkpt lat="39.185158" lon="-8.698555">
        <ele>15.505</ele>
        <time>2015-03-19T17:00:43Z</time>
      </trkpt>
      <trkpt lat="39.185817" lon="-8.698175">
        <ele>15.507</ele>
        <time>2015-03-19T17:01:02Z</time>
      </trkpt>
      <trkpt lat="39.186391" lon="-8.697841">
        <ele>15.091</ele>
        <time>2015-03-19T17:01:18Z</time>
      </trkpt>
      <trkpt lat="39.187044" lon="-8.697458">
        <ele>15.034</ele>
        <time>2015-03-19T17:01:36Z</time>
      </trkpt>
      <trkpt lat="39.187268" lon="-8.697329">
        <ele>15.046</ele>
        <time>2015-03-19T17:01:42Z</time>
      </trkpt>
      <trkpt lat="39.187807" lon="-8.696975">
        <ele>15.036</ele>
        <time>2015-03-19T17:01:57Z</time>
      </trkpt>
      <trkpt lat="39.188451" lon="-8.696500">
        <ele>15.034</ele>
        <time>2015-03-19T17:02:16Z</time>
      </trkpt>
      <trkpt lat="39.189102" lon="-8.696296">
        <ele>15.059</ele>
        <time>2015-03-19T17:02:33Z</time>
      </trkpt>
      <trkpt lat="39.189626" lon="-8.696164">
        <ele>15.096</ele>
        <time>2015-03-19T17:02:47Z</time>
      </trkpt>
      <trkpt lat="39.190137" lon="-8.695908">
        <ele>15.074</ele>
        <time>2015-03-19T17:03:02Z</time>
      </trkpt>
      <trkpt lat="39.190754" lon="-8.695571">
        <ele>15.056</ele>
        <time>2015-03-19T17:03:19Z</time>
      </trkpt>
      <trkpt lat="39.191365" lon="-8.695217">
        <ele>15.021</ele>
        <time>2015-03-19T17:03:36Z</time>
      </trkpt>
      <trkpt lat="39.192059" lon="-8.694893">
        <ele>15.507</ele>
        <time>2015-03-19T17:03:55Z</time>
      </trkpt>
      <trkpt lat="39.192359" lon="-8.694638">
        <ele>15.566</ele>
        <time>2015-03-19T17:04:04Z</time>
      </trkpt>
      <trkpt lat="39.192974" lon="-8.694141">
        <ele>15.559</ele>
        <time>2015-03-19T17:04:22Z</time>
      </trkpt>
      <trkpt lat="39.193490" lon="-8.693860">
        <ele>15.561</ele>
        <time>2015-03-19T17:04:36Z</time>
      </trkpt>
      <trkpt lat="39.194237" lon="-8.693514">
        <ele>15.511</ele>
        <time>2015-03-19T17:04:56Z</time>
      </trkpt>
      <trkpt lat="39.194929" lon="-8.693162">
        <ele>15.549</ele>
        <time>2015-03-19T17:05:15Z</time>
      </trkpt>
      <trkpt lat="39.195537" lon="-8.692824">
        <ele>15.544</ele>
        <time>2015-03-19T17:05:32Z</time>
      </trkpt>
      <trkpt lat="39.195981" lon="-8.692563">
        <ele>15.521</ele>
        <time>2015-03-19T17:05:44Z</time>
      </trkpt>
      <trkpt lat="39.196559" lon="-8.692210">
        <ele>15.563</ele>
        <time>2015-03-19T17:06:00Z</time>
      </trkpt>
      <trkpt lat="39.197153" lon="-8.691858">
        <ele>15.544</ele>
        <time>2015-03-19T17:06:16Z</time>
      </trkpt>
      <trkpt lat="39.197794" lon="-8.691467">
        <ele>15.018</ele>
        <time>2015-03-19T17:06:33Z</time>
      </trkpt>
      <trkpt lat="39.198393" lon="-8.691094">
        <ele>15.007</ele>
        <time>2015-03-19T17:06:49Z</time>
      </trkpt>
      <trkpt lat="39.198864" lon="-8.690888">
        <ele>15.075</ele>
        <time>2015-03-19T17:07:02Z</time>
      </trkpt>
      <trkpt lat="39.199432" lon="-8.690539">
        <ele>15.088</ele>
        <time>2015-03-19T17:07:18Z</time>
      </trkpt>
      <trkpt lat="39.199983" lon="-8.689919">
        <ele>15.530</ele>
        <time>2015-03-19T17:07:36Z</time>
      </trkpt>
      <trkpt lat="39.200468" lon="-8.689345">
        <ele>15.550</ele>
        <time>2015-03-19T17:07:52Z</time>
      </trkpt>
      <trkpt lat="39.200911" lon="-8.688815">
        <ele>15.598</ele>
        <time>2015-03-19T17:08:07Z</time>
      </trkpt>
      <trkpt lat="39.201348" lon="-8.688333">
        <ele>15.533</ele>
        <time>2015-03-19T17:08:22Z</time>
      </trkpt>
      <trkpt lat="39.201534" lon="-8.688099">
        <ele>15.560</ele>
        <time>2015-03-19T17:08:35Z</time>
      </trkpt>
      <trkpt lat="39.201443" lon="-8.688038">
        <ele>15.061</ele>
        <time>2015-03-19T17:22:43Z</time>
      </trkpt>
      <trkpt lat="39.201244" lon="-8.687700">
        <ele>15.021</ele>
        <time>2015-03-19T17:22:57Z</time>
      </trkpt>
      <trkpt lat="39.200956" lon="-8.687242">
        <ele>15.013</ele>
        <time>2015-03-19T17:23:13Z</time>
      </trkpt>
      <trkpt lat="39.200954" lon="-8.687141">
        <ele>15.007</ele>
        <time>2015-03-19T17:23:16Z</time>
      </trkpt>
      <trkpt lat="39.201077" lon="-8.687089">
        <ele>15.525</ele>
        <time>2015-03-19T17:23:21Z</time>
      </trkpt>
      <trkpt lat="39.201619" lon="-8.687206">
        <ele>15.538</ele>
        <time>2015-03-19T17:23:36Z</time>
      </trkpt>
      <trkpt lat="39.202212" lon="-8.687262">
        <ele>15.020</ele>
        <time>2015-03-19T17:23:52Z</time>
      </trkpt>
      <trkpt lat="39.202825" lon="-8.687295">
        <ele>15.520</ele>
        <time>2015-03-19T17:24:09Z</time>
      </trkpt>
      <trkpt lat="39.203545" lon="-8.687321">
        <ele>15.548</ele>
        <time>2015-03-19T17:24:27Z</time>
      </trkpt>
      <trkpt lat="39.204291" lon="-8.687171">
        <ele>15.523</ele>
        <time>2015-03-19T17:24:46Z</time>
      </trkpt>
      <trkpt lat="39.204761" lon="-8.686967">
        <ele>15.590</ele>
        <time>2015-03-19T17:24:59Z</time>
      </trkpt>
      <trkpt lat="39.205499" lon="-8.686648">
        <ele>15.526</ele>
        <time>2015-03-19T17:25:18Z</time>
      </trkpt>
      <trkpt lat="39.206202" lon="-8.686343">
        <ele>15.547</ele>
        <time>2015-03-19T17:25:36Z</time>
      </trkpt>
      <trkpt lat="39.206969" lon="-8.686003">
        <ele>15.511</ele>
        <time>2015-03-19T17:25:56Z</time>
      </trkpt>
      <trkpt lat="39.207573" lon="-8.685738">
        <ele>16.007</ele>
        <time>2015-03-19T17:26:12Z</time>
      </trkpt>
      <trkpt lat="39.208347" lon="-8.685409">
        <ele>15.561</ele>
        <time>2015-03-19T17:26:32Z</time>
      </trkpt>
      <trkpt lat="39.209093" lon="-8.685084">
        <ele>15.574</ele>
        <time>2015-03-19T17:26:51Z</time>
      </trkpt>
      <trkpt lat="39.209867" lon="-8.684757">
        <ele>15.576</ele>
        <time>2015-03-19T17:27:11Z</time>
      </trkpt>
      <trkpt lat="39.210195" lon="-8.684592">
        <ele>15.516</ele>
        <time>2015-03-19T17:27:20Z</time>
      </trkpt>
      <trkpt lat="39.210707" lon="-8.683946">
        <ele>16.074</ele>
        <time>2015-03-19T17:27:39Z</time>
      </trkpt>
      <trkpt lat="39.211251" lon="-8.683250">
        <ele>16.069</ele>
        <time>2015-03-19T17:27:58Z</time>
      </trkpt>
      <trkpt lat="39.211940" lon="-8.682634">
        <ele>16.056</ele>
        <time>2015-03-19T17:28:18Z</time>
      </trkpt>
      <trkpt lat="39.212709" lon="-8.682075">
        <ele>16.013</ele>
        <time>2015-03-19T17:28:39Z</time>
      </trkpt>
      <trkpt lat="39.212873" lon="-8.682021">
        <ele>16.043</ele>
        <time>2015-03-19T17:28:43Z</time>
      </trkpt>
      <trkpt lat="39.213208" lon="-8.682093">
        <ele>16.007</ele>
        <time>2015-03-19T17:28:51Z</time>
      </trkpt>
      <trkpt lat="39.213868" lon="-8.682574">
        <ele>16.007</ele>
        <time>2015-03-19T17:29:10Z</time>
      </trkpt>
      <trkpt lat="39.214526" lon="-8.682886">
        <ele>16.030</ele>
        <time>2015-03-19T17:29:28Z</time>
      </trkpt>
      <trkpt lat="39.215288" lon="-8.682914">
        <ele>16.023</ele>
        <time>2015-03-19T17:29:47Z</time>
      </trkpt>
      <trkpt lat="39.215970" lon="-8.683030">
        <ele>16.515</ele>
        <time>2015-03-19T17:30:04Z</time>
      </trkpt>
      <trkpt lat="39.216414" lon="-8.683051">
        <ele>17.075</ele>
        <time>2015-03-19T17:30:15Z</time>
      </trkpt>
      <trkpt lat="39.216994" lon="-8.682836">
        <ele>17.443</ele>
        <time>2015-03-19T17:30:30Z</time>
      </trkpt>
      <trkpt lat="39.217595" lon="-8.682401">
        <ele>17.428</ele>
        <time>2015-03-19T17:30:47Z</time>
      </trkpt>
      <trkpt lat="39.217709" lon="-8.682399">
        <ele>17.475</ele>
        <time>2015-03-19T17:30:50Z</time>
      </trkpt>
      <trkpt lat="39.218200" lon="-8.682785">
        <ele>17.452</ele>
        <time>2015-03-19T17:31:05Z</time>
      </trkpt>
      <trkpt lat="39.218600" lon="-8.682995">
        <ele>19.453</ele>
        <time>2015-03-19T17:31:21Z</time>
      </trkpt>
      <trkpt lat="39.219039" lon="-8.683188">
        <ele>20.808</ele>
        <time>2015-03-19T17:31:39Z</time>
      </trkpt>
      <trkpt lat="39.219451" lon="-8.683177">
        <ele>22.707</ele>
        <time>2015-03-19T17:31:56Z</time>
      </trkpt>
      <trkpt lat="39.219805" lon="-8.683060">
        <ele>24.744</ele>
        <time>2015-03-19T17:32:12Z</time>
      </trkpt>
      <trkpt lat="39.220238" lon="-8.682997">
        <ele>26.697</ele>
        <time>2015-03-19T17:32:30Z</time>
      </trkpt>
      <trkpt lat="39.220603" lon="-8.683015">
        <ele>28.029</ele>
        <time>2015-03-19T17:32:47Z</time>
      </trkpt>
      <trkpt lat="39.220929" lon="-8.683104">
        <ele>29.039</ele>
        <time>2015-03-19T17:33:03Z</time>
      </trkpt>
      <trkpt lat="39.221267" lon="-8.683226">
        <ele>30.417</ele>
        <time>2015-03-19T17:33:19Z</time>
      </trkpt>
      <trkpt lat="39.221623" lon="-8.683371">
        <ele>32.392</ele>
        <time>2015-03-19T17:33:37Z</time>
      </trkpt>
      <trkpt lat="39.221937" lon="-8.683425">
        <ele>33.879</ele>
        <time>2015-03-19T17:33:53Z</time>
      </trkpt>
      <trkpt lat="39.222309" lon="-8.683342">
        <ele>36.266</ele>
        <time>2015-03-19T17:34:11Z</time>
      </trkpt>
      <trkpt lat="39.222663" lon="-8.683184">
        <ele>38.629</ele>
        <time>2015-03-19T17:34:30Z</time>
      </trkpt>
      <trkpt lat="39.222990" lon="-8.683016">
        <ele>40.021</ele>
        <time>2015-03-19T17:34:48Z</time>
      </trkpt>
      <trkpt lat="39.223330" lon="-8.682844">
        <ele>42.007</ele>
        <time>2015-03-19T17:35:07Z</time>
      </trkpt>
      <trkpt lat="39.223627" lon="-8.682712">
        <ele>44.435</ele>
        <time>2015-03-19T17:35:24Z</time>
      </trkpt>
      <trkpt lat="39.223894" lon="-8.682597">
        <ele>47.248</ele>
        <time>2015-03-19T17:35:41Z</time>
      </trkpt>
      <trkpt lat="39.224161" lon="-8.682503">
        <ele>49.750</ele>
        <time>2015-03-19T17:35:56Z</time>
      </trkpt>
      <trkpt lat="39.224409" lon="-8.682439">
        <ele>51.630</ele>
        <time>2015-03-19T17:36:11Z</time>
      </trkpt>
      <trkpt lat="39.224802" lon="-8.682445">
        <ele>54.078</ele>
        <time>2015-03-19T17:36:30Z</time>
      </trkpt>
      <trkpt lat="39.224974" lon="-8.682541">
        <ele>54.063</ele>
        <time>2015-03-19T17:37:17Z</time>
      </trkpt>
      <trkpt lat="39.225310" lon="-8.682570">
        <ele>53.010</ele>
        <time>2015-03-19T17:37:32Z</time>
      </trkpt>
      <trkpt lat="39.225379" lon="-8.682547">
        <ele>54.579</ele>
        <time>2015-03-19T17:37:36Z</time>
      </trkpt>
      <trkpt lat="39.225640" lon="-8.682471">
        <ele>56.905</ele>
        <time>2015-03-19T17:37:52Z</time>
      </trkpt>
      <trkpt lat="39.225917" lon="-8.682419">
        <ele>59.725</ele>
        <time>2015-03-19T17:38:09Z</time>
      </trkpt>
      <trkpt lat="39.226130" lon="-8.682384">
        <ele>60.707</ele>
        <time>2015-03-19T17:38:22Z</time>
      </trkpt>
      <trkpt lat="39.226374" lon="-8.682354">
        <ele>64.186</ele>
        <time>2015-03-19T17:38:37Z</time>
      </trkpt>
      <trkpt lat="39.226636" lon="-8.682338">
        <ele>66.539</ele>
        <time>2015-03-19T17:38:53Z</time>
      </trkpt>
      <trkpt lat="39.226928" lon="-8.682417">
        <ele>67.411</ele>
        <time>2015-03-19T17:39:10Z</time>
      </trkpt>
      <trkpt lat="39.227296" lon="-8.682764">
        <ele>67.491</ele>
        <time>2015-03-19T17:39:29Z</time>
      </trkpt>
      <trkpt lat="39.227628" lon="-8.683075">
        <ele>67.479</ele>
        <time>2015-03-19T17:39:49Z</time>
      </trkpt>
      <trkpt lat="39.227849" lon="-8.683274">
        <ele>68.994</ele>
        <time>2015-03-19T17:40:03Z</time>
      </trkpt>
      <trkpt lat="39.228185" lon="-8.683515">
        <ele>70.351</ele>
        <time>2015-03-19T17:40:23Z</time>
      </trkpt>
      <trkpt lat="39.228474" lon="-8.683760">
        <ele>72.722</ele>
        <time>2015-03-19T17:40:43Z</time>
      </trkpt>
      <trkpt lat="39.228677" lon="-8.684026">
        <ele>74.662</ele>
        <time>2015-03-19T17:41:01Z</time>
      </trkpt>
      <trkpt lat="39.228833" lon="-8.684233">
        <ele>77.008</ele>
        <time>2015-03-19T17:41:16Z</time>
      </trkpt>
      <trkpt lat="39.228880" lon="-8.684298">
        <ele>77.507</ele>
        <time>2015-03-19T17:41:21Z</time>
      </trkpt>
      <trkpt lat="39.229036" lon="-8.684563">
        <ele>80.471</ele>
        <time>2015-03-19T17:41:39Z</time>
      </trkpt>
      <trkpt lat="39.229156" lon="-8.684818">
        <ele>82.334</ele>
        <time>2015-03-19T17:41:56Z</time>
      </trkpt>
      <trkpt lat="39.229271" lon="-8.685036">
        <ele>84.746</ele>
        <time>2015-03-19T17:42:12Z</time>
      </trkpt>
      <trkpt lat="39.229390" lon="-8.685238">
        <ele>86.796</ele>
        <time>2015-03-19T17:42:27Z</time>
      </trkpt>
      <trkpt lat="39.229486" lon="-8.685361">
        <ele>88.114</ele>
        <time>2015-03-19T17:42:38Z</time>
      </trkpt>
      <trkpt lat="39.229658" lon="-8.685462">
        <ele>90.549</ele>
        <time>2015-03-19T17:42:53Z</time>
      </trkpt>
      <trkpt lat="39.229820" lon="-8.685525">
        <ele>92.966</ele>
        <time>2015-03-19T17:43:07Z</time>
      </trkpt>
      <trkpt lat="39.229992" lon="-8.685563">
        <ele>95.344</ele>
        <time>2015-03-19T17:43:22Z</time>
      </trkpt>
      <trkpt lat="39.230085" lon="-8.685552">
        <ele>96.305</ele>
        <time>2015-03-19T17:43:30Z</time>
      </trkpt>
      <trkpt lat="39.230279" lon="-8.685528">
        <ele>98.215</ele>
        <time>2015-03-19T17:43:46Z</time>
      </trkpt>
      <trkpt lat="39.230456" lon="-8.685505">
        <ele>100.607</ele>
        <time>2015-03-19T17:44:01Z</time>
      </trkpt>
      <trkpt lat="39.230505" lon="-8.685508">
        <ele>101.123</ele>
        <time>2015-03-19T17:44:05Z</time>
      </trkpt>
      <trkpt lat="39.230719" lon="-8.685574">
        <ele>103.056</ele>
        <time>2015-03-19T17:44:21Z</time>
      </trkpt>
      <trkpt lat="39.230932" lon="-8.685732">
        <ele>104.458</ele>
        <time>2015-03-19T17:44:38Z</time>
      </trkpt>
      <trkpt lat="39.231066" lon="-8.685896">
        <ele>105.468</ele>
        <time>2015-03-19T17:44:51Z</time>
      </trkpt>
      <trkpt lat="39.231120" lon="-8.685911">
        <ele>106.436</ele>
        <time>2015-03-19T17:44:55Z</time>
      </trkpt>
      <trkpt lat="39.231279" lon="-8.686148">
        <ele>107.811</ele>
        <time>2015-03-19T17:45:11Z</time>
      </trkpt>
      <trkpt lat="39.231601" lon="-8.686073">
        <ele>108.818</ele>
        <time>2015-03-19T17:45:30Z</time>
      </trkpt>
      <trkpt lat="39.231900" lon="-8.685958">
        <ele>109.332</ele>
        <time>2015-03-19T17:45:44Z</time>
      </trkpt>
      <trkpt lat="39.232171" lon="-8.685903">
        <ele>109.392</ele>
        <time>2015-03-19T17:45:56Z</time>
      </trkpt>
      <trkpt lat="39.232469" lon="-8.685851">
        <ele>109.311</ele>
        <time>2015-03-19T17:46:08Z</time>
      </trkpt>
      <trkpt lat="39.232878" lon="-8.685785">
        <ele>108.307</ele>
        <time>2015-03-19T17:46:22Z</time>
      </trkpt>
      <trkpt lat="39.233113" lon="-8.685774">
        <ele>108.382</ele>
        <time>2015-03-19T17:46:33Z</time>
      </trkpt>
      <trkpt lat="39.233397" lon="-8.685789">
        <ele>107.825</ele>
        <time>2015-03-19T17:46:44Z</time>
      </trkpt>
      <trkpt lat="39.233771" lon="-8.685589">
        <ele>107.827</ele>
        <time>2015-03-19T17:46:58Z</time>
      </trkpt>
      <trkpt lat="39.233937" lon="-8.685301">
        <ele>106.847</ele>
        <time>2015-03-19T17:47:12Z</time>
      </trkpt>
      <trkpt lat="39.233861" lon="-8.685103">
        <ele>106.875</ele>
        <time>2015-03-19T17:47:55Z</time>
      </trkpt>
      <trkpt lat="39.233957" lon="-8.684836">
        <ele>106.490</ele>
        <time>2015-03-19T17:48:29Z</time>
      </trkpt>
      <trkpt lat="39.234012" lon="-8.684717">
        <ele>106.447</ele>
        <time>2015-03-19T17:48:34Z</time>
      </trkpt>
      <trkpt lat="39.234048" lon="-8.684674">
        <ele>107.823</ele>
        <time>2015-03-19T17:48:36Z</time>
      </trkpt>
      <trkpt lat="39.234200" lon="-8.684322">
        <ele>107.383</ele>
        <time>2015-03-19T17:48:50Z</time>
      </trkpt>
      <trkpt lat="39.234227" lon="-8.684211">
        <ele>107.311</ele>
        <time>2015-03-19T17:48:54Z</time>
      </trkpt>
      <trkpt lat="39.234349" lon="-8.683813">
        <ele>109.307</ele>
        <time>2015-03-19T17:49:09Z</time>
      </trkpt>
      <trkpt lat="39.234429" lon="-8.683458">
        <ele>110.731</ele>
        <time>2015-03-19T17:49:23Z</time>
      </trkpt>
      <trkpt lat="39.234520" lon="-8.683206">
        <ele>110.724</ele>
        <time>2015-03-19T17:49:34Z</time>
      </trkpt>
      <trkpt lat="39.234598" lon="-8.683069">
        <ele>110.756</ele>
        <time>2015-03-19T17:49:41Z</time>
      </trkpt>
      <trkpt lat="39.234809" lon="-8.682607">
        <ele>111.246</ele>
        <time>2015-03-19T17:49:57Z</time>
      </trkpt>
      <trkpt lat="39.234919" lon="-8.682272">
        <ele>111.294</ele>
        <time>2015-03-19T17:50:10Z</time>
      </trkpt>
      <trkpt lat="39.235044" lon="-8.681798">
        <ele>111.759</ele>
        <time>2015-03-19T17:50:26Z</time>
      </trkpt>
      <trkpt lat="39.235087" lon="-8.681628">
        <ele>111.756</ele>
        <time>2015-03-19T17:50:34Z</time>
      </trkpt>
      <trkpt lat="39.235182" lon="-8.681693">
        <ele>111.784</ele>
        <time>2015-03-19T17:50:53Z</time>
      </trkpt>
      <trkpt lat="39.235283" lon="-8.681716">
        <ele>111.207</ele>
        <time>2015-03-19T17:51:27Z</time>
      </trkpt>
      <trkpt lat="39.235330" lon="-8.681714">
        <ele>109.717</ele>
        <time>2015-03-19T17:51:29Z</time>
      </trkpt>
      <trkpt lat="39.235529" lon="-8.681857">
        <ele>109.307</ele>
        <time>2015-03-19T17:51:39Z</time>
      </trkpt>
      <trkpt lat="39.235659" lon="-8.681911">
        <ele>109.377</ele>
        <time>2015-03-19T17:51:48Z</time>
      </trkpt>
      <trkpt lat="39.235716" lon="-8.681999">
        <ele>109.320</ele>
        <time>2015-03-19T17:51:52Z</time>
      </trkpt>
      <trkpt lat="39.235829" lon="-8.682434">
        <ele>110.252</ele>
        <time>2015-03-19T17:52:07Z</time>
      </trkpt>
      <trkpt lat="39.235941" lon="-8.682938">
        <ele>110.282</ele>
        <time>2015-03-19T17:52:22Z</time>
      </trkpt>
      <trkpt lat="39.236078" lon="-8.683378">
        <ele>110.230</ele>
        <time>2015-03-19T17:52:37Z</time>
      </trkpt>
      <trkpt lat="39.236158" lon="-8.683531">
        <ele>110.225</ele>
        <time>2015-03-19T17:52:45Z</time>
      </trkpt>
      <trkpt lat="39.235966" lon="-8.683813">
        <ele>111.782</ele>
        <time>2015-03-19T17:52:59Z</time>
      </trkpt>
      <trkpt lat="39.235796" lon="-8.684091">
        <ele>112.687</ele>
        <time>2015-03-19T17:53:12Z</time>
      </trkpt>
      <trkpt lat="39.235571" lon="-8.684466">
        <ele>113.642</ele>
        <time>2015-03-19T17:53:30Z</time>
      </trkpt>
      <trkpt lat="39.235488" lon="-8.684563">
        <ele>116.526</ele>
        <time>2015-03-19T18:03:09Z</time>
      </trkpt>
      <trkpt lat="39.235266" lon="-8.684950">
        <ele>115.007</ele>
        <time>2015-03-19T18:03:23Z</time>
      </trkpt>
      <trkpt lat="39.235169" lon="-8.685114">
        <ele>114.537</ele>
        <time>2015-03-19T18:03:29Z</time>
      </trkpt>
      <trkpt lat="39.235380" lon="-8.685104">
        <ele>115.590</ele>
        <time>2015-03-19T18:03:47Z</time>
      </trkpt>
      <trkpt lat="39.235586" lon="-8.685065">
        <ele>116.532</ele>
        <time>2015-03-19T18:04:02Z</time>
      </trkpt>
      <trkpt lat="39.235694" lon="-8.684982">
        <ele>118.422</ele>
        <time>2015-03-19T18:06:33Z</time>
      </trkpt>
      <trkpt lat="39.235820" lon="-8.684757">
        <ele>118.460</ele>
        <time>2015-03-19T18:06:55Z</time>
      </trkpt>
      <trkpt lat="39.235955" lon="-8.684540">
        <ele>118.485</ele>
        <time>2015-03-19T18:07:13Z</time>
      </trkpt>
      <trkpt lat="39.236112" lon="-8.684333">
        <ele>118.412</ele>
        <time>2015-03-19T18:07:29Z</time>
      </trkpt>
      <trkpt lat="39.236145" lon="-8.684234">
        <ele>105.453</ele>
        <time>2015-03-20T08:20:09Z</time>
      </trkpt>
      <trkpt lat="39.236204" lon="-8.684143">
        <ele>105.404</ele>
        <time>2015-03-20T08:20:23Z</time>
      </trkpt>
      <trkpt lat="39.236318" lon="-8.684022">
        <ele>105.914</ele>
        <time>2015-03-20T08:20:30Z</time>
      </trkpt>
      <trkpt lat="39.236437" lon="-8.683917">
        <ele>104.907</ele>
        <time>2015-03-20T08:20:38Z</time>
      </trkpt>
      <trkpt lat="39.236594" lon="-8.684153">
        <ele>104.474</ele>
        <time>2015-03-20T08:20:50Z</time>
      </trkpt>
      <trkpt lat="39.236811" lon="-8.684524">
        <ele>103.067</ele>
        <time>2015-03-20T08:21:03Z</time>
      </trkpt>
      <trkpt lat="39.237051" lon="-8.684908">
        <ele>102.549</ele>
        <time>2015-03-20T08:21:19Z</time>
      </trkpt>
      <trkpt lat="39.237108" lon="-8.684950">
        <ele>103.089</ele>
        <time>2015-03-20T08:22:30Z</time>
      </trkpt>
      <trkpt lat="39.237070" lon="-8.685061">
        <ele>103.097</ele>
        <time>2015-03-20T08:23:04Z</time>
      </trkpt>
      <trkpt lat="39.237013" lon="-8.685113">
        <ele>104.982</ele>
        <time>2015-03-20T08:23:08Z</time>
      </trkpt>
      <trkpt lat="39.236658" lon="-8.685058">
        <ele>104.939</ele>
        <time>2015-03-20T08:23:26Z</time>
      </trkpt>
      <trkpt lat="39.236356" lon="-8.684990">
        <ele>106.428</ele>
        <time>2015-03-20T08:23:42Z</time>
      </trkpt>
      <trkpt lat="39.236026" lon="-8.684903">
        <ele>106.889</ele>
        <time>2015-03-20T08:23:57Z</time>
      </trkpt>
      <trkpt lat="39.235766" lon="-8.684715">
        <ele>107.317</ele>
        <time>2015-03-20T08:24:10Z</time>
      </trkpt>
      <trkpt lat="39.235554" lon="-8.684525">
        <ele>108.307</ele>
        <time>2015-03-20T08:24:22Z</time>
      </trkpt>
      <trkpt lat="39.235437" lon="-8.684616">
        <ele>106.821</ele>
        <time>2015-03-20T08:24:28Z</time>
      </trkpt>
      <trkpt lat="39.235079" lon="-8.685135">
        <ele>105.494</ele>
        <time>2015-03-20T08:24:44Z</time>
      </trkpt>
      <trkpt lat="39.234930" lon="-8.685372">
        <ele>105.426</ele>
        <time>2015-03-20T08:24:55Z</time>
      </trkpt>
      <trkpt lat="39.234683" lon="-8.685720">
        <ele>104.026</ele>
        <time>2015-03-20T08:25:06Z</time>
      </trkpt>
      <trkpt lat="39.234620" lon="-8.685762">
        <ele>103.514</ele>
        <time>2015-03-20T08:25:10Z</time>
      </trkpt>
      <trkpt lat="39.234495" lon="-8.685776">
        <ele>103.089</ele>
        <time>2015-03-20T08:25:15Z</time>
      </trkpt>
      <trkpt lat="39.234315" lon="-8.685716">
        <ele>103.066</ele>
        <time>2015-03-20T08:25:22Z</time>
      </trkpt>
      <trkpt lat="39.234241" lon="-8.685753">
        <ele>103.051</ele>
        <time>2015-03-20T08:25:32Z</time>
      </trkpt>
      <trkpt lat="39.234186" lon="-8.685696">
        <ele>102.501</ele>
        <time>2015-03-20T08:26:00Z</time>
      </trkpt>
      <trkpt lat="39.233901" lon="-8.685257">
        <ele>101.111</ele>
        <time>2015-03-20T08:26:17Z</time>
      </trkpt>
      <trkpt lat="39.233854" lon="-8.685278">
        <ele>100.607</ele>
        <time>2015-03-20T08:27:00Z</time>
      </trkpt>
      <trkpt lat="39.233758" lon="-8.685141">
        <ele>100.134</ele>
        <time>2015-03-20T08:27:10Z</time>
      </trkpt>
      <trkpt lat="39.233798" lon="-8.685039">
        <ele>99.637</ele>
        <time>2015-03-20T08:27:14Z</time>
      </trkpt>
      <trkpt lat="39.233880" lon="-8.684850">
        <ele>100.669</ele>
        <time>2015-03-20T08:27:20Z</time>
      </trkpt>
      <trkpt lat="39.234031" lon="-8.684442">
        <ele>101.189</ele>
        <time>2015-03-20T08:27:35Z</time>
      </trkpt>
      <trkpt lat="39.234174" lon="-8.684037">
        <ele>102.057</ele>
        <time>2015-03-20T08:27:50Z</time>
      </trkpt>
      <trkpt lat="39.234308" lon="-8.683595">
        <ele>104.042</ele>
        <time>2015-03-20T08:28:08Z</time>
      </trkpt>
      <trkpt lat="39.234425" lon="-8.683301">
        <ele>105.499</ele>
        <time>2015-03-20T08:28:21Z</time>
      </trkpt>
      <trkpt lat="39.234586" lon="-8.682911">
        <ele>105.961</ele>
        <time>2015-03-20T08:28:36Z</time>
      </trkpt>
      <trkpt lat="39.234752" lon="-8.682550">
        <ele>105.921</ele>
        <time>2015-03-20T08:28:49Z</time>
      </trkpt>
      <trkpt lat="39.234869" lon="-8.682272">
        <ele>105.913</ele>
        <time>2015-03-20T08:29:00Z</time>
      </trkpt>
      <trkpt lat="39.234982" lon="-8.681834">
        <ele>106.407</ele>
        <time>2015-03-20T08:29:16Z</time>
      </trkpt>
      <trkpt lat="39.235026" lon="-8.681669">
        <ele>106.855</ele>
        <time>2015-03-20T08:29:22Z</time>
      </trkpt>
      <trkpt lat="39.235153" lon="-8.681614">
        <ele>107.358</ele>
        <time>2015-03-20T08:29:32Z</time>
      </trkpt>
      <trkpt lat="39.235343" lon="-8.681553">
        <ele>105.460</ele>
        <time>2015-03-20T08:30:03Z</time>
      </trkpt>
      <trkpt lat="39.235498" lon="-8.681287">
        <ele>104.930</ele>
        <time>2015-03-20T08:30:12Z</time>
      </trkpt>
      <trkpt lat="39.235581" lon="-8.681086">
        <ele>104.088</ele>
        <time>2015-03-20T08:30:20Z</time>
      </trkpt>
      <trkpt lat="39.235527" lon="-8.680632">
        <ele>104.483</ele>
        <time>2015-03-20T08:30:35Z</time>
      </trkpt>
      <trkpt lat="39.235594" lon="-8.680214">
        <ele>104.480</ele>
        <time>2015-03-20T08:30:48Z</time>
      </trkpt>
      <trkpt lat="39.235644" lon="-8.679892">
        <ele>105.991</ele>
        <time>2015-03-20T08:31:51Z</time>
      </trkpt>
      <trkpt lat="39.235709" lon="-8.679253">
        <ele>107.381</ele>
        <time>2015-03-20T08:32:08Z</time>
      </trkpt>
      <trkpt lat="39.235456" lon="-8.678706">
        <ele>107.319</ele>
        <time>2015-03-20T08:32:23Z</time>
      </trkpt>
      <trkpt lat="39.235098" lon="-8.678182">
        <ele>107.307</ele>
        <time>2015-03-20T08:32:39Z</time>
      </trkpt>
      <trkpt lat="39.234735" lon="-8.677581">
        <ele>107.348</ele>
        <time>2015-03-20T08:32:56Z</time>
      </trkpt>
      <trkpt lat="39.234549" lon="-8.677291">
        <ele>107.861</ele>
        <time>2015-03-20T08:33:08Z</time>
      </trkpt>
      <trkpt lat="39.234327" lon="-8.676831">
        <ele>108.343</ele>
        <time>2015-03-20T08:33:22Z</time>
      </trkpt>
      <trkpt lat="39.234512" lon="-8.676820">
        <ele>108.333</ele>
        <time>2015-03-20T08:33:30Z</time>
      </trkpt>
      <trkpt lat="39.234774" lon="-8.677142">
        <ele>104.431</ele>
        <time>2015-03-20T08:33:42Z</time>
      </trkpt>
      <trkpt lat="39.234872" lon="-8.677223">
        <ele>103.096</ele>
        <time>2015-03-20T08:33:48Z</time>
      </trkpt>
      <trkpt lat="39.235022" lon="-8.677034">
        <ele>100.143</ele>
        <time>2015-03-20T08:33:56Z</time>
      </trkpt>
      <trkpt lat="39.235217" lon="-8.676812">
        <ele>96.837</ele>
        <time>2015-03-20T08:34:05Z</time>
      </trkpt>
      <trkpt lat="39.235423" lon="-8.676566">
        <ele>94.849</ele>
        <time>2015-03-20T08:34:18Z</time>
      </trkpt>
      <trkpt lat="39.235564" lon="-8.676300">
        <ele>91.513</ele>
        <time>2015-03-20T08:34:57Z</time>
      </trkpt>
      <trkpt lat="39.235592" lon="-8.676171">
        <ele>88.107</ele>
        <time>2015-03-20T08:35:04Z</time>
      </trkpt>
      <trkpt lat="39.235571" lon="-8.676048">
        <ele>85.212</ele>
        <time>2015-03-20T08:35:11Z</time>
      </trkpt>
      <trkpt lat="39.235546" lon="-8.675954">
        <ele>83.315</ele>
        <time>2015-03-20T08:35:22Z</time>
      </trkpt>
      <trkpt lat="39.235515" lon="-8.675851">
        <ele>79.947</ele>
        <time>2015-03-20T08:35:30Z</time>
      </trkpt>
      <trkpt lat="39.235459" lon="-8.675711">
        <ele>76.687</ele>
        <time>2015-03-20T08:35:43Z</time>
      </trkpt>
      <trkpt lat="39.235366" lon="-8.675616">
        <ele>73.235</ele>
        <time>2015-03-20T08:35:50Z</time>
      </trkpt>
      <trkpt lat="39.235248" lon="-8.675488">
        <ele>69.820</ele>
        <time>2015-03-20T08:35:56Z</time>
      </trkpt>
      <trkpt lat="39.235153" lon="-8.675375">
        <ele>67.017</ele>
        <time>2015-03-20T08:36:01Z</time>
      </trkpt>
      <trkpt lat="39.235073" lon="-8.675266">
        <ele>64.624</ele>
        <time>2015-03-20T08:36:06Z</time>
      </trkpt>
      <trkpt lat="39.235025" lon="-8.675165">
        <ele>61.204</ele>
        <time>2015-03-20T08:36:11Z</time>
      </trkpt>
      <trkpt lat="39.235048" lon="-8.675007">
        <ele>57.314</ele>
        <time>2015-03-20T08:36:18Z</time>
      </trkpt>
      <trkpt lat="39.235062" lon="-8.674844">
        <ele>55.407</ele>
        <time>2015-03-20T08:36:22Z</time>
      </trkpt>
      <trkpt lat="39.235082" lon="-8.674727">
        <ele>53.011</ele>
        <time>2015-03-20T08:36:34Z</time>
      </trkpt>
      <trkpt lat="39.234997" lon="-8.674688">
        <ele>50.624</ele>
        <time>2015-03-20T08:36:46Z</time>
      </trkpt>
      <trkpt lat="39.234923" lon="-8.674539">
        <ele>46.326</ele>
        <time>2015-03-20T08:36:54Z</time>
      </trkpt>
      <trkpt lat="39.234905" lon="-8.674433">
        <ele>44.476</ele>
        <time>2015-03-20T08:36:59Z</time>
      </trkpt>
      <trkpt lat="39.234953" lon="-8.674356">
        <ele>42.474</ele>
        <time>2015-03-20T08:37:03Z</time>
      </trkpt>
      <trkpt lat="39.235063" lon="-8.674326">
        <ele>39.159</ele>
        <time>2015-03-20T08:37:08Z</time>
      </trkpt>
      <trkpt lat="39.235097" lon="-8.674263">
        <ele>37.696</ele>
        <time>2015-03-20T08:37:11Z</time>
      </trkpt>
      <trkpt lat="39.235192" lon="-8.674233">
        <ele>36.236</ele>
        <time>2015-03-20T08:37:17Z</time>
      </trkpt>
      <trkpt lat="39.235315" lon="-8.674324">
        <ele>33.817</ele>
        <time>2015-03-20T08:37:32Z</time>
      </trkpt>
      <trkpt lat="39.235544" lon="-8.674300">
        <ele>33.818</ele>
        <time>2015-03-20T08:37:47Z</time>
      </trkpt>
      <trkpt lat="39.235914" lon="-8.674599">
        <ele>32.307</ele>
        <time>2015-03-20T08:37:59Z</time>
      </trkpt>
      <trkpt lat="39.236510" lon="-8.674718">
        <ele>29.522</ele>
        <time>2015-03-20T08:38:13Z</time>
      </trkpt>
      <trkpt lat="39.236943" lon="-8.674804">
        <ele>27.545</ele>
        <time>2015-03-20T08:38:27Z</time>
      </trkpt>
      <trkpt lat="39.236992" lon="-8.674880">
        <ele>27.117</ele>
        <time>2015-03-20T08:38:29Z</time>
      </trkpt>
      <trkpt lat="39.237039" lon="-8.675029">
        <ele>26.167</ele>
        <time>2015-03-20T08:38:32Z</time>
      </trkpt>
      <trkpt lat="39.237049" lon="-8.675263">
        <ele>25.155</ele>
        <time>2015-03-20T08:38:36Z</time>
      </trkpt>
      <trkpt lat="39.237049" lon="-8.675500">
        <ele>24.220</ele>
        <time>2015-03-20T08:38:40Z</time>
      </trkpt>
      <trkpt lat="39.237187" lon="-8.675915">
        <ele>22.757</ele>
        <time>2015-03-20T08:38:51Z</time>
      </trkpt>
      <trkpt lat="39.237454" lon="-8.675906">
        <ele>20.861</ele>
        <time>2015-03-20T08:39:03Z</time>
      </trkpt>
      <trkpt lat="39.237572" lon="-8.675820">
        <ele>20.321</ele>
        <time>2015-03-20T08:39:09Z</time>
      </trkpt>
      <trkpt lat="39.237529" lon="-8.675694">
        <ele>20.313</ele>
        <time>2015-03-20T08:39:15Z</time>
      </trkpt>
      <trkpt lat="39.237457" lon="-8.674977">
        <ele>17.407</ele>
        <time>2015-03-20T08:39:31Z</time>
      </trkpt>
      <trkpt lat="39.237541" lon="-8.674594">
        <ele>15.575</ele>
        <time>2015-03-20T08:39:42Z</time>
      </trkpt>
      <trkpt lat="39.237736" lon="-8.674075">
        <ele>15.038</ele>
        <time>2015-03-20T08:39:57Z</time>
      </trkpt>
      <trkpt lat="39.238077" lon="-8.673276">
        <ele>13.180</ele>
        <time>2015-03-20T08:40:16Z</time>
      </trkpt>
      <trkpt lat="39.238119" lon="-8.673211">
        <ele>13.150</ele>
        <time>2015-03-20T08:40:18Z</time>
      </trkpt>
      <trkpt lat="39.238487" lon="-8.673315">
        <ele>13.148</ele>
        <time>2015-03-20T08:40:29Z</time>
      </trkpt>
      <trkpt lat="39.239018" lon="-8.673571">
        <ele>12.293</ele>
        <time>2015-03-20T08:40:45Z</time>
      </trkpt>
      <trkpt lat="39.239486" lon="-8.674045">
        <ele>11.770</ele>
        <time>2015-03-20T08:41:02Z</time>
      </trkpt>
      <trkpt lat="39.239845" lon="-8.674176">
        <ele>11.758</ele>
        <time>2015-03-20T08:41:16Z</time>
      </trkpt>
      <trkpt lat="39.239925" lon="-8.674130">
        <ele>11.752</ele>
        <time>2015-03-20T08:41:58Z</time>
      </trkpt>
      <trkpt lat="39.240023" lon="-8.673587">
        <ele>11.717</ele>
        <time>2015-03-20T08:42:12Z</time>
      </trkpt>
      <trkpt lat="39.240169" lon="-8.673205">
        <ele>11.707</ele>
        <time>2015-03-20T08:42:22Z</time>
      </trkpt>
      <trkpt lat="39.240500" lon="-8.672746">
        <ele>11.764</ele>
        <time>2015-03-20T08:42:36Z</time>
      </trkpt>
      <trkpt lat="39.240750" lon="-8.672328">
        <ele>11.787</ele>
        <time>2015-03-20T08:42:49Z</time>
      </trkpt>
      <trkpt lat="39.240809" lon="-8.672198">
        <ele>11.749</ele>
        <time>2015-03-20T08:42:52Z</time>
      </trkpt>
      <trkpt lat="39.241211" lon="-8.671574">
        <ele>11.289</ele>
        <time>2015-03-20T08:43:08Z</time>
      </trkpt>
      <trkpt lat="39.241546" lon="-8.671060">
        <ele>11.757</ele>
        <time>2015-03-20T08:43:22Z</time>
      </trkpt>
      <trkpt lat="39.241810" lon="-8.670650">
        <ele>11.792</ele>
        <time>2015-03-20T08:43:36Z</time>
      </trkpt>
      <trkpt lat="39.242039" lon="-8.670310">
        <ele>11.759</ele>
        <time>2015-03-20T08:43:47Z</time>
      </trkpt>
      <trkpt lat="39.242279" lon="-8.669940">
        <ele>11.711</ele>
        <time>2015-03-20T08:44:32Z</time>
      </trkpt>
      <trkpt lat="39.242737" lon="-8.669265">
        <ele>11.721</ele>
        <time>2015-03-20T08:44:52Z</time>
      </trkpt>
      <trkpt lat="39.243207" lon="-8.668571">
        <ele>11.703</ele>
        <time>2015-03-20T08:45:11Z</time>
      </trkpt>
      <trkpt lat="39.243692" lon="-8.667855">
        <ele>11.707</ele>
        <time>2015-03-20T08:45:30Z</time>
      </trkpt>
      <trkpt lat="39.244279" lon="-8.667006">
        <ele>11.760</ele>
        <time>2015-03-20T08:45:53Z</time>
      </trkpt>
      <trkpt lat="39.244719" lon="-8.666326">
        <ele>11.773</ele>
        <time>2015-03-20T08:46:11Z</time>
      </trkpt>
      <trkpt lat="39.244789" lon="-8.666190">
        <ele>11.775</ele>
        <time>2015-03-20T08:46:16Z</time>
      </trkpt>
      <trkpt lat="39.244842" lon="-8.666205">
        <ele>11.715</ele>
        <time>2015-03-20T08:46:25Z</time>
      </trkpt>
      <trkpt lat="39.244929" lon="-8.666236">
        <ele>11.713</ele>
        <time>2015-03-20T08:46:35Z</time>
      </trkpt>
      <trkpt lat="39.245352" lon="-8.666409">
        <ele>11.788</ele>
        <time>2015-03-20T08:46:50Z</time>
      </trkpt>
      <trkpt lat="39.245814" lon="-8.666546">
        <ele>11.745</ele>
        <time>2015-03-20T08:47:06Z</time>
      </trkpt>
      <trkpt lat="39.245902" lon="-8.666548">
        <ele>11.725</ele>
        <time>2015-03-20T08:47:09Z</time>
      </trkpt>
      <trkpt lat="39.246138" lon="-8.666200">
        <ele>11.726</ele>
        <time>2015-03-20T08:47:22Z</time>
      </trkpt>
      <trkpt lat="39.246577" lon="-8.665616">
        <ele>11.708</ele>
        <time>2015-03-20T08:47:41Z</time>
      </trkpt>
      <trkpt lat="39.246926" lon="-8.665084">
        <ele>11.707</ele>
        <time>2015-03-20T08:47:58Z</time>
      </trkpt>
      <trkpt lat="39.247175" lon="-8.664630">
        <ele>11.781</ele>
        <time>2015-03-20T08:48:12Z</time>
      </trkpt>
      <trkpt lat="39.247441" lon="-8.664185">
        <ele>11.724</ele>
        <time>2015-03-20T08:48:27Z</time>
      </trkpt>
      <trkpt lat="39.247608" lon="-8.663813">
        <ele>11.736</ele>
        <time>2015-03-20T08:48:39Z</time>
      </trkpt>
      <trkpt lat="39.247833" lon="-8.663419">
        <ele>11.716</ele>
        <time>2015-03-20T08:48:53Z</time>
      </trkpt>
      <trkpt lat="39.248195" lon="-8.662984">
        <ele>12.684</ele>
        <time>2015-03-20T08:49:10Z</time>
      </trkpt>
      <trkpt lat="39.248542" lon="-8.662618">
        <ele>12.619</ele>
        <time>2015-03-20T08:49:25Z</time>
      </trkpt>
      <trkpt lat="39.248906" lon="-8.662139">
        <ele>12.676</ele>
        <time>2015-03-20T08:49:42Z</time>
      </trkpt>
      <trkpt lat="39.249251" lon="-8.661595">
        <ele>12.634</ele>
        <time>2015-03-20T08:50:00Z</time>
      </trkpt>
      <trkpt lat="39.249605" lon="-8.661129">
        <ele>13.155</ele>
        <time>2015-03-20T08:50:18Z</time>
      </trkpt>
      <trkpt lat="39.249906" lon="-8.660767">
        <ele>13.110</ele>
        <time>2015-03-20T08:50:33Z</time>
      </trkpt>
      <trkpt lat="39.250215" lon="-8.660408">
        <ele>13.107</ele>
        <time>2015-03-20T08:50:48Z</time>
      </trkpt>
      <trkpt lat="39.250463" lon="-8.660211">
        <ele>13.192</ele>
        <time>2015-03-20T08:50:59Z</time>
      </trkpt>
      <trkpt lat="39.250650" lon="-8.660022">
        <ele>13.165</ele>
        <time>2015-03-20T08:51:11Z</time>
      </trkpt>
      <trkpt lat="39.250720" lon="-8.659938">
        <ele>13.627</ele>
        <time>2015-03-20T08:51:52Z</time>
      </trkpt>
      <trkpt lat="39.251032" lon="-8.659645">
        <ele>13.697</ele>
        <time>2015-03-20T08:52:09Z</time>
      </trkpt>
      <trkpt lat="39.251284" lon="-8.659328">
        <ele>13.625</ele>
        <time>2015-03-20T08:52:24Z</time>
      </trkpt>
      <trkpt lat="39.251525" lon="-8.658920">
        <ele>13.670</ele>
        <time>2015-03-20T08:52:41Z</time>
      </trkpt>
      <trkpt lat="39.251678" lon="-8.658366">
        <ele>13.657</ele>
        <time>2015-03-20T08:53:01Z</time>
      </trkpt>
      <trkpt lat="39.251786" lon="-8.657906">
        <ele>13.681</ele>
        <time>2015-03-20T08:53:17Z</time>
      </trkpt>
      <trkpt lat="39.251978" lon="-8.657284">
        <ele>13.661</ele>
        <time>2015-03-20T08:53:39Z</time>
      </trkpt>
      <trkpt lat="39.252184" lon="-8.656787">
        <ele>13.617</ele>
        <time>2015-03-20T08:53:57Z</time>
      </trkpt>
      <trkpt lat="39.252441" lon="-8.656329">
        <ele>13.607</ele>
        <time>2015-03-20T08:54:15Z</time>
      </trkpt>
      <trkpt lat="39.252706" lon="-8.655933">
        <ele>13.617</ele>
        <time>2015-03-20T08:54:32Z</time>
      </trkpt>
      <trkpt lat="39.252965" lon="-8.655570">
        <ele>13.620</ele>
        <time>2015-03-20T08:54:49Z</time>
      </trkpt>
      <trkpt lat="39.253247" lon="-8.655198">
        <ele>13.682</ele>
        <time>2015-03-20T08:55:07Z</time>
      </trkpt>
      <trkpt lat="39.253517" lon="-8.654841">
        <ele>13.622</ele>
        <time>2015-03-20T08:55:24Z</time>
      </trkpt>
      <trkpt lat="39.253721" lon="-8.654567">
        <ele>13.640</ele>
        <time>2015-03-20T08:55:38Z</time>
      </trkpt>
      <trkpt lat="39.254028" lon="-8.654216">
        <ele>13.615</ele>
        <time>2015-03-20T08:55:56Z</time>
      </trkpt>
      <trkpt lat="39.254328" lon="-8.653904">
        <ele>13.662</ele>
        <time>2015-03-20T08:56:13Z</time>
      </trkpt>
      <trkpt lat="39.254582" lon="-8.653602">
        <ele>13.654</ele>
        <time>2015-03-20T08:56:29Z</time>
      </trkpt>
      <trkpt lat="39.254836" lon="-8.653307">
        <ele>13.656</ele>
        <time>2015-03-20T08:56:44Z</time>
      </trkpt>
      <trkpt lat="39.255169" lon="-8.652942">
        <ele>13.611</ele>
        <time>2015-03-20T08:57:03Z</time>
      </trkpt>
      <trkpt lat="39.255463" lon="-8.652643">
        <ele>13.607</ele>
        <time>2015-03-20T08:57:20Z</time>
      </trkpt>
      <trkpt lat="39.255805" lon="-8.652280">
        <ele>13.624</ele>
        <time>2015-03-20T08:57:40Z</time>
      </trkpt>
      <trkpt lat="39.256186" lon="-8.651970">
        <ele>13.637</ele>
        <time>2015-03-20T08:57:59Z</time>
      </trkpt>
      <trkpt lat="39.256543" lon="-8.651754">
        <ele>13.629</ele>
        <time>2015-03-20T08:58:16Z</time>
      </trkpt>
      <trkpt lat="39.256823" lon="-8.651415">
        <ele>13.669</ele>
        <time>2015-03-20T08:58:33Z</time>
      </trkpt>
      <trkpt lat="39.257028" lon="-8.650994">
        <ele>13.657</ele>
        <time>2015-03-20T08:58:50Z</time>
      </trkpt>
      <trkpt lat="39.257253" lon="-8.650570">
        <ele>13.672</ele>
        <time>2015-03-20T08:59:08Z</time>
      </trkpt>
      <trkpt lat="39.257373" lon="-8.650271">
        <ele>13.629</ele>
        <time>2015-03-20T08:59:20Z</time>
      </trkpt>
      <trkpt lat="39.257526" lon="-8.649939">
        <ele>13.696</ele>
        <time>2015-03-20T08:59:33Z</time>
      </trkpt>
      <trkpt lat="39.257733" lon="-8.649601">
        <ele>13.131</ele>
        <time>2015-03-20T08:59:47Z</time>
      </trkpt>
      <trkpt lat="39.257759" lon="-8.649551">
        <ele>12.224</ele>
        <time>2015-03-20T08:59:49Z</time>
      </trkpt>
      <trkpt lat="39.257978" lon="-8.649225">
        <ele>12.207</ele>
        <time>2015-03-20T09:00:03Z</time>
      </trkpt>
      <trkpt lat="39.258233" lon="-8.648862">
        <ele>12.298</ele>
        <time>2015-03-20T09:00:19Z</time>
      </trkpt>
      <trkpt lat="39.258577" lon="-8.648401">
        <ele>12.281</ele>
        <time>2015-03-20T09:00:40Z</time>
      </trkpt>
      <trkpt lat="39.258837" lon="-8.648117">
        <ele>12.253</ele>
        <time>2015-03-20T09:00:55Z</time>
      </trkpt>
      <trkpt lat="39.259088" lon="-8.647791">
        <ele>12.283</ele>
        <time>2015-03-20T09:01:11Z</time>
      </trkpt>
      <trkpt lat="39.259352" lon="-8.647439">
        <ele>12.291</ele>
        <time>2015-03-20T09:01:28Z</time>
      </trkpt>
      <trkpt lat="39.259640" lon="-8.647051">
        <ele>12.256</ele>
        <time>2015-03-20T09:01:46Z</time>
      </trkpt>
      <trkpt lat="39.259919" lon="-8.646653">
        <ele>12.253</ele>
        <time>2015-03-20T09:02:04Z</time>
      </trkpt>
      <trkpt lat="39.260184" lon="-8.646260">
        <ele>13.135</ele>
        <time>2015-03-20T09:02:22Z</time>
      </trkpt>
      <trkpt lat="39.260488" lon="-8.645849">
        <ele>13.186</ele>
        <time>2015-03-20T09:02:41Z</time>
      </trkpt>
      <trkpt lat="39.260739" lon="-8.645487">
        <ele>13.114</ele>
        <time>2015-03-20T09:02:57Z</time>
      </trkpt>
      <trkpt lat="39.260976" lon="-8.645143">
        <ele>13.107</ele>
        <time>2015-03-20T09:03:12Z</time>
      </trkpt>
      <trkpt lat="39.261219" lon="-8.644798">
        <ele>13.162</ele>
        <time>2015-03-20T09:03:28Z</time>
      </trkpt>
      <trkpt lat="39.261468" lon="-8.644403">
        <ele>13.135</ele>
        <time>2015-03-20T09:03:45Z</time>
      </trkpt>
      <trkpt lat="39.261688" lon="-8.644045">
        <ele>13.137</ele>
        <time>2015-03-20T09:04:00Z</time>
      </trkpt>
      <trkpt lat="39.262008" lon="-8.643603">
        <ele>13.147</ele>
        <time>2015-03-20T09:04:20Z</time>
      </trkpt>
      <trkpt lat="39.262236" lon="-8.643262">
        <ele>13.135</ele>
        <time>2015-03-20T09:04:35Z</time>
      </trkpt>
      <trkpt lat="39.262494" lon="-8.642906">
        <ele>13.150</ele>
        <time>2015-03-20T09:04:51Z</time>
      </trkpt>
      <trkpt lat="39.262732" lon="-8.642578">
        <ele>13.127</ele>
        <time>2015-03-20T09:05:06Z</time>
      </trkpt>
      <trkpt lat="39.263015" lon="-8.642193">
        <ele>13.171</ele>
        <time>2015-03-20T09:05:24Z</time>
      </trkpt>
      <trkpt lat="39.263217" lon="-8.641870">
        <ele>13.141</ele>
        <time>2015-03-20T09:05:37Z</time>
      </trkpt>
      <trkpt lat="39.263454" lon="-8.641568">
        <ele>13.115</ele>
        <time>2015-03-20T09:05:51Z</time>
      </trkpt>
      <trkpt lat="39.263727" lon="-8.641203">
        <ele>13.107</ele>
        <time>2015-03-20T09:06:08Z</time>
      </trkpt>
      <trkpt lat="39.263783" lon="-8.641115">
        <ele>13.626</ele>
        <time>2015-03-20T09:06:12Z</time>
      </trkpt>
      <trkpt lat="39.263882" lon="-8.641014">
        <ele>13.659</ele>
        <time>2015-03-20T09:07:02Z</time>
      </trkpt>
      <trkpt lat="39.264184" lon="-8.640650">
        <ele>13.651</ele>
        <time>2015-03-20T09:07:19Z</time>
      </trkpt>
      <trkpt lat="39.264611" lon="-8.640187">
        <ele>13.651</ele>
        <time>2015-03-20T09:07:36Z</time>
      </trkpt>
      <trkpt lat="39.265191" lon="-8.639741">
        <ele>13.689</ele>
        <time>2015-03-20T09:07:56Z</time>
      </trkpt>
      <trkpt lat="39.265770" lon="-8.639347">
        <ele>13.624</ele>
        <time>2015-03-20T09:08:15Z</time>
      </trkpt>
      <trkpt lat="39.266259" lon="-8.639018">
        <ele>14.141</ele>
        <time>2015-03-20T09:08:32Z</time>
      </trkpt>
      <trkpt lat="39.266756" lon="-8.638707">
        <ele>14.153</ele>
        <time>2015-03-20T09:08:48Z</time>
      </trkpt>
      <trkpt lat="39.267113" lon="-8.638242">
        <ele>14.104</ele>
        <time>2015-03-20T09:09:03Z</time>
      </trkpt>
      <trkpt lat="39.267369" lon="-8.637898">
        <ele>14.114</ele>
        <time>2015-03-20T09:09:14Z</time>
      </trkpt>
      <trkpt lat="39.267879" lon="-8.637354">
        <ele>14.607</ele>
        <time>2015-03-20T09:09:34Z</time>
      </trkpt>
      <trkpt lat="39.268309" lon="-8.636939">
        <ele>14.614</ele>
        <time>2015-03-20T09:09:51Z</time>
      </trkpt>
      <trkpt lat="39.268706" lon="-8.636419">
        <ele>14.697</ele>
        <time>2015-03-20T09:10:08Z</time>
      </trkpt>
      <trkpt lat="39.269153" lon="-8.635856">
        <ele>14.139</ele>
        <time>2015-03-20T09:10:27Z</time>
      </trkpt>
      <trkpt lat="39.269450" lon="-8.635527">
        <ele>14.159</ele>
        <time>2015-03-20T09:10:39Z</time>
      </trkpt>
      <trkpt lat="39.269949" lon="-8.635007">
        <ele>14.657</ele>
        <time>2015-03-20T09:10:58Z</time>
      </trkpt>
      <trkpt lat="39.270324" lon="-8.634580">
        <ele>14.682</ele>
        <time>2015-03-20T09:11:13Z</time>
      </trkpt>
      <trkpt lat="39.270849" lon="-8.634051">
        <ele>14.699</ele>
        <time>2015-03-20T09:11:33Z</time>
      </trkpt>
      <trkpt lat="39.271270" lon="-8.633627">
        <ele>14.619</ele>
        <time>2015-03-20T09:11:49Z</time>
      </trkpt>
      <trkpt lat="39.271671" lon="-8.633266">
        <ele>14.609</ele>
        <time>2015-03-20T09:12:04Z</time>
      </trkpt>
      <trkpt lat="39.271965" lon="-8.633493">
        <ele>13.619</ele>
        <time>2015-03-20T09:12:16Z</time>
      </trkpt>
      <trkpt lat="39.272255" lon="-8.633448">
        <ele>13.607</ele>
        <time>2015-03-20T09:12:27Z</time>
      </trkpt>
      <trkpt lat="39.272409" lon="-8.633335">
        <ele>13.680</ele>
        <time>2015-03-20T09:12:37Z</time>
      </trkpt>
      <trkpt lat="39.272760" lon="-8.633091">
        <ele>13.653</ele>
        <time>2015-03-20T09:12:51Z</time>
      </trkpt>
      <trkpt lat="39.273168" lon="-8.632815">
        <ele>13.645</ele>
        <time>2015-03-20T09:13:07Z</time>
      </trkpt>
      <trkpt lat="39.273474" lon="-8.632627">
        <ele>13.665</ele>
        <time>2015-03-20T09:13:19Z</time>
      </trkpt>
      <trkpt lat="39.273869" lon="-8.632386">
        <ele>13.673</ele>
        <time>2015-03-20T09:13:34Z</time>
      </trkpt>
      <trkpt lat="39.274283" lon="-8.632137">
        <ele>13.178</ele>
        <time>2015-03-20T09:13:49Z</time>
      </trkpt>
      <trkpt lat="39.274752" lon="-8.631830">
        <ele>13.165</ele>
        <time>2015-03-20T09:14:06Z</time>
      </trkpt>
      <trkpt lat="39.275060" lon="-8.631634">
        <ele>13.148</ele>
        <time>2015-03-20T09:14:18Z</time>
      </trkpt>
      <trkpt lat="39.275577" lon="-8.631305">
        <ele>13.161</ele>
        <time>2015-03-20T09:14:36Z</time>
      </trkpt>
      <trkpt lat="39.276090" lon="-8.631132">
        <ele>13.117</ele>
        <time>2015-03-20T09:14:52Z</time>
      </trkpt>
      <trkpt lat="39.276380" lon="-8.631083">
        <ele>12.607</ele>
        <time>2015-03-20T09:15:03Z</time>
      </trkpt>
      <trkpt lat="39.276450" lon="-8.631077">
        <ele>12.693</ele>
        <time>2015-03-20T09:15:25Z</time>
      </trkpt>
      <trkpt lat="39.276788" lon="-8.631002">
        <ele>12.636</ele>
        <time>2015-03-20T09:15:38Z</time>
      </trkpt>
      <trkpt lat="39.277247" lon="-8.630959">
        <ele>12.678</ele>
        <time>2015-03-20T09:15:53Z</time>
      </trkpt>
      <trkpt lat="39.277779" lon="-8.630994">
        <ele>12.628</ele>
        <time>2015-03-20T09:16:09Z</time>
      </trkpt>
      <trkpt lat="39.278250" lon="-8.630990">
        <ele>12.636</ele>
        <time>2015-03-20T09:16:23Z</time>
      </trkpt>
      <trkpt lat="39.278755" lon="-8.630963">
        <ele>12.681</ele>
        <time>2015-03-20T09:16:38Z</time>
      </trkpt>
      <trkpt lat="39.278993" lon="-8.631177">
        <ele>12.618</ele>
        <time>2015-03-20T09:16:48Z</time>
      </trkpt>
      <trkpt lat="39.279383" lon="-8.631643">
        <ele>12.659</ele>
        <time>2015-03-20T09:17:04Z</time>
      </trkpt>
      <trkpt lat="39.279649" lon="-8.632023">
        <ele>12.603</ele>
        <time>2015-03-20T09:17:16Z</time>
      </trkpt>
      <trkpt lat="39.279992" lon="-8.632452">
        <ele>12.623</ele>
        <time>2015-03-20T09:17:31Z</time>
      </trkpt>
      <trkpt lat="39.280281" lon="-8.632836">
        <ele>12.607</ele>
        <time>2015-03-20T09:17:44Z</time>
      </trkpt>
      <trkpt lat="39.280354" lon="-8.632927">
        <ele>12.614</ele>
        <time>2015-03-20T09:17:47Z</time>
      </trkpt>
      <trkpt lat="39.280689" lon="-8.632766">
        <ele>12.627</ele>
        <time>2015-03-20T09:17:58Z</time>
      </trkpt>
      <trkpt lat="39.281377" lon="-8.632339">
        <ele>12.639</ele>
        <time>2015-03-20T09:18:19Z</time>
      </trkpt>
      <trkpt lat="39.281935" lon="-8.631989">
        <ele>12.659</ele>
        <time>2015-03-20T09:18:36Z</time>
      </trkpt>
      <trkpt lat="39.282606" lon="-8.631604">
        <ele>12.697</ele>
        <time>2015-03-20T09:18:55Z</time>
      </trkpt>
      <trkpt lat="39.282685" lon="-8.631587">
        <ele>12.632</ele>
        <time>2015-03-20T09:18:57Z</time>
      </trkpt>
      <trkpt lat="39.282846" lon="-8.631603">
        <ele>12.679</ele>
        <time>2015-03-20T09:19:01Z</time>
      </trkpt>
      <trkpt lat="39.283496" lon="-8.631861">
        <ele>12.642</ele>
        <time>2015-03-20T09:19:18Z</time>
      </trkpt>
      <trkpt lat="39.284078" lon="-8.632276">
        <ele>12.622</ele>
        <time>2015-03-20T09:19:34Z</time>
      </trkpt>
      <trkpt lat="39.284772" lon="-8.632341">
        <ele>14.114</ele>
        <time>2015-03-20T09:19:51Z</time>
      </trkpt>
      <trkpt lat="39.285654" lon="-8.632342">
        <ele>14.607</ele>
        <time>2015-03-20T09:20:13Z</time>
      </trkpt>
      <trkpt lat="39.286533" lon="-8.632290">
        <ele>14.683</ele>
        <time>2015-03-20T09:20:34Z</time>
      </trkpt>
      <trkpt lat="39.287138" lon="-8.632239">
        <ele>14.616</ele>
        <time>2015-03-20T09:20:49Z</time>
      </trkpt>
      <trkpt lat="39.287421" lon="-8.632213">
        <ele>14.688</ele>
        <time>2015-03-20T09:20:56Z</time>
      </trkpt>
      <trkpt lat="39.288290" lon="-8.632126">
        <ele>16.038</ele>
        <time>2015-03-20T09:21:18Z</time>
      </trkpt>
      <trkpt lat="39.289082" lon="-8.632033">
        <ele>17.426</ele>
        <time>2015-03-20T09:21:38Z</time>
      </trkpt>
      <trkpt lat="39.289839" lon="-8.632051">
        <ele>18.431</ele>
        <time>2015-03-20T09:21:57Z</time>
      </trkpt>
      <trkpt lat="39.290512" lon="-8.632018">
        <ele>18.458</ele>
        <time>2015-03-20T09:22:13Z</time>
      </trkpt>
      <trkpt lat="39.290853" lon="-8.631953">
        <ele>18.428</ele>
        <time>2015-03-20T09:22:21Z</time>
      </trkpt>
      <trkpt lat="39.291001" lon="-8.631545">
        <ele>18.489</ele>
        <time>2015-03-20T09:22:30Z</time>
      </trkpt>
      <trkpt lat="39.290986" lon="-8.631439">
        <ele>18.417</ele>
        <time>2015-03-20T09:22:32Z</time>
      </trkpt>
      <trkpt lat="39.290862" lon="-8.630861">
        <ele>18.407</ele>
        <time>2015-03-20T09:22:43Z</time>
      </trkpt>
      <trkpt lat="39.290868" lon="-8.630652">
        <ele>18.471</ele>
        <time>2015-03-20T09:22:47Z</time>
      </trkpt>
      <trkpt lat="39.290941" lon="-8.630481">
        <ele>18.484</ele>
        <time>2015-03-20T09:22:51Z</time>
      </trkpt>
      <trkpt lat="39.291563" lon="-8.630076">
        <ele>18.996</ele>
        <time>2015-03-20T09:23:08Z</time>
      </trkpt>
      <trkpt lat="39.292094" lon="-8.629610">
        <ele>19.846</ele>
        <time>2015-03-20T09:23:25Z</time>
      </trkpt>
      <trkpt lat="39.292626" lon="-8.629128">
        <ele>21.364</ele>
        <time>2015-03-20T09:23:43Z</time>
      </trkpt>
      <trkpt lat="39.293083" lon="-8.628739">
        <ele>22.399</ele>
        <time>2015-03-20T09:23:58Z</time>
      </trkpt>
      <trkpt lat="39.293660" lon="-8.628517">
        <ele>22.396</ele>
        <time>2015-03-20T09:24:14Z</time>
      </trkpt>
      <trkpt lat="39.293813" lon="-8.628555">
        <ele>22.374</ele>
        <time>2015-03-20T09:24:18Z</time>
      </trkpt>
      <trkpt lat="39.294476" lon="-8.628764">
        <ele>22.356</ele>
        <time>2015-03-20T09:24:35Z</time>
      </trkpt>
      <trkpt lat="39.294978" lon="-8.628570">
        <ele>22.321</ele>
        <time>2015-03-20T09:24:49Z</time>
      </trkpt>
      <trkpt lat="39.295414" lon="-8.628187">
        <ele>22.307</ele>
        <time>2015-03-20T09:25:03Z</time>
      </trkpt>
      <trkpt lat="39.295939" lon="-8.627770">
        <ele>23.736</ele>
        <time>2015-03-20T09:25:20Z</time>
      </trkpt>
      <trkpt lat="39.296348" lon="-8.627698">
        <ele>26.699</ele>
        <time>2015-03-20T09:25:38Z</time>
      </trkpt>
      <trkpt lat="39.296609" lon="-8.627718">
        <ele>29.981</ele>
        <time>2015-03-20T09:25:52Z</time>
      </trkpt>
      <trkpt lat="39.297005" lon="-8.627741">
        <ele>32.881</ele>
        <time>2015-03-20T09:26:12Z</time>
      </trkpt>
      <trkpt lat="39.297346" lon="-8.627748">
        <ele>34.349</ele>
        <time>2015-03-20T09:26:28Z</time>
      </trkpt>
      <trkpt lat="39.297758" lon="-8.627716">
        <ele>35.274</ele>
        <time>2015-03-20T09:26:45Z</time>
      </trkpt>
      <trkpt lat="39.298255" lon="-8.627694">
        <ele>36.781</ele>
        <time>2015-03-20T09:27:05Z</time>
      </trkpt>
      <trkpt lat="39.298813" lon="-8.627666">
        <ele>38.141</ele>
        <time>2015-03-20T09:27:27Z</time>
      </trkpt>
      <trkpt lat="39.299329" lon="-8.627640">
        <ele>39.181</ele>
        <time>2015-03-20T09:27:47Z</time>
      </trkpt>
      <trkpt lat="39.299816" lon="-8.627573">
        <ele>39.609</ele>
        <time>2015-03-20T09:28:06Z</time>
      </trkpt>
      <trkpt lat="39.300377" lon="-8.627488">
        <ele>40.507</ele>
        <time>2015-03-20T09:28:28Z</time>
      </trkpt>
      <trkpt lat="39.300917" lon="-8.627386">
        <ele>41.543</ele>
        <time>2015-03-20T09:28:49Z</time>
      </trkpt>
      <trkpt lat="39.301420" lon="-8.627313">
        <ele>42.496</ele>
        <time>2015-03-20T09:29:08Z</time>
      </trkpt>
      <trkpt lat="39.301963" lon="-8.627324">
        <ele>43.948</ele>
        <time>2015-03-20T09:29:27Z</time>
      </trkpt>
      <trkpt lat="39.302412" lon="-8.627402">
        <ele>44.448</ele>
        <time>2015-03-20T09:29:43Z</time>
      </trkpt>
      <trkpt lat="39.302805" lon="-8.627491">
        <ele>44.476</ele>
        <time>2015-03-20T09:29:57Z</time>
      </trkpt>
      <trkpt lat="39.303352" lon="-8.627627">
        <ele>45.371</ele>
        <time>2015-03-20T09:30:16Z</time>
      </trkpt>
      <trkpt lat="39.303884" lon="-8.627724">
        <ele>46.388</ele>
        <time>2015-03-20T09:30:35Z</time>
      </trkpt>
      <trkpt lat="39.304377" lon="-8.627656">
        <ele>47.713</ele>
        <time>2015-03-20T09:30:53Z</time>
      </trkpt>
      <trkpt lat="39.304871" lon="-8.627612">
        <ele>49.243</ele>
        <time>2015-03-20T09:31:11Z</time>
      </trkpt>
      <trkpt lat="39.305324" lon="-8.627563">
        <ele>52.107</ele>
        <time>2015-03-20T09:31:29Z</time>
      </trkpt>
      <trkpt lat="39.305757" lon="-8.627530">
        <ele>54.007</ele>
        <time>2015-03-20T09:31:46Z</time>
      </trkpt>
      <trkpt lat="39.306175" lon="-8.627522">
        <ele>55.470</ele>
        <time>2015-03-20T09:32:02Z</time>
      </trkpt>
      <trkpt lat="39.306564" lon="-8.627547">
        <ele>56.473</ele>
        <time>2015-03-20T09:32:17Z</time>
      </trkpt>
      <trkpt lat="39.306889" lon="-8.627545">
        <ele>57.875</ele>
        <time>2015-03-20T09:32:31Z</time>
      </trkpt>
      <trkpt lat="39.306989" lon="-8.627546">
        <ele>57.835</ele>
        <time>2015-03-20T09:32:44Z</time>
      </trkpt>
      <trkpt lat="39.307023" lon="-8.627476">
        <ele>58.353</ele>
        <time>2015-03-20T09:48:53Z</time>
      </trkpt>
      <trkpt lat="39.307333" lon="-8.627433">
        <ele>58.388</ele>
        <time>2015-03-20T09:49:07Z</time>
      </trkpt>
      <trkpt lat="39.307810" lon="-8.627457">
        <ele>58.335</ele>
        <time>2015-03-20T09:49:24Z</time>
      </trkpt>
      <trkpt lat="39.308110" lon="-8.627461">
        <ele>58.349</ele>
        <time>2015-03-20T09:49:37Z</time>
      </trkpt>
      <trkpt lat="39.308505" lon="-8.627419">
        <ele>58.302</ele>
        <time>2015-03-20T09:49:51Z</time>
      </trkpt>
      <trkpt lat="39.308927" lon="-8.627438">
        <ele>58.322</ele>
        <time>2015-03-20T09:50:04Z</time>
      </trkpt>
      <trkpt lat="39.309036" lon="-8.626902">
        <ele>58.307</ele>
        <time>2015-03-20T09:50:16Z</time>
      </trkpt>
      <trkpt lat="39.309108" lon="-8.626485">
        <ele>56.963</ele>
        <time>2015-03-20T09:50:28Z</time>
      </trkpt>
      <trkpt lat="39.309130" lon="-8.626348">
        <ele>56.966</ele>
        <time>2015-03-20T09:53:02Z</time>
      </trkpt>
      <trkpt lat="39.309190" lon="-8.625998">
        <ele>58.338</ele>
        <time>2015-03-20T09:53:12Z</time>
      </trkpt>
      <trkpt lat="39.309211" lon="-8.625563">
        <ele>56.988</ele>
        <time>2015-03-20T09:53:21Z</time>
      </trkpt>
      <trkpt lat="39.309196" lon="-8.624987">
        <ele>53.546</ele>
        <time>2015-03-20T09:53:28Z</time>
      </trkpt>
      <trkpt lat="39.309177" lon="-8.624359">
        <ele>50.161</ele>
        <time>2015-03-20T09:53:34Z</time>
      </trkpt>
      <trkpt lat="39.309167" lon="-8.623890">
        <ele>47.778</ele>
        <time>2015-03-20T09:53:38Z</time>
      </trkpt>
      <trkpt lat="39.309116" lon="-8.622798">
        <ele>44.419</ele>
        <time>2015-03-20T09:53:47Z</time>
      </trkpt>
      <trkpt lat="39.309095" lon="-8.622242">
        <ele>44.809</ele>
        <time>2015-03-20T09:53:53Z</time>
      </trkpt>
      <trkpt lat="39.309167" lon="-8.621561">
        <ele>44.819</ele>
        <time>2015-03-20T09:54:05Z</time>
      </trkpt>
      <trkpt lat="39.309227" lon="-8.621135">
        <ele>46.307</ele>
        <time>2015-03-20T09:54:15Z</time>
      </trkpt>
      <trkpt lat="39.309329" lon="-8.620652">
        <ele>47.740</ele>
        <time>2015-03-20T09:54:29Z</time>
      </trkpt>
      <trkpt lat="39.309470" lon="-8.619939">
        <ele>50.163</ele>
        <time>2015-03-20T09:54:51Z</time>
      </trkpt>
      <trkpt lat="39.309608" lon="-8.619428">
        <ele>52.135</ele>
        <time>2015-03-20T09:55:09Z</time>
      </trkpt>
      <trkpt lat="39.309857" lon="-8.619098">
        <ele>54.535</ele>
        <time>2015-03-20T09:55:26Z</time>
      </trkpt>
      <trkpt lat="39.310187" lon="-8.618901">
        <ele>56.493</ele>
        <time>2015-03-20T09:55:42Z</time>
      </trkpt>
      <trkpt lat="39.310533" lon="-8.618687">
        <ele>57.878</ele>
        <time>2015-03-20T09:55:58Z</time>
      </trkpt>
      <trkpt lat="39.310898" lon="-8.618405">
        <ele>55.455</ele>
        <time>2015-03-20T09:56:09Z</time>
      </trkpt>
      <trkpt lat="39.311466" lon="-8.617642">
        <ele>52.553</ele>
        <time>2015-03-20T09:56:26Z</time>
      </trkpt>
      <trkpt lat="39.311884" lon="-8.617211">
        <ele>51.104</ele>
        <time>2015-03-20T09:56:36Z</time>
      </trkpt>
      <trkpt lat="39.312042" lon="-8.616757">
        <ele>50.614</ele>
        <time>2015-03-20T09:56:47Z</time>
      </trkpt>
      <trkpt lat="39.312028" lon="-8.616189">
        <ele>48.707</ele>
        <time>2015-03-20T09:56:58Z</time>
      </trkpt>
      <trkpt lat="39.312042" lon="-8.615599">
        <ele>47.294</ele>
        <time>2015-03-20T09:57:07Z</time>
      </trkpt>
      <trkpt lat="39.312138" lon="-8.615282">
        <ele>45.397</ele>
        <time>2015-03-20T09:57:12Z</time>
      </trkpt>
      <trkpt lat="39.312410" lon="-8.614714">
        <ele>42.099</ele>
        <time>2015-03-20T09:57:22Z</time>
      </trkpt>
      <trkpt lat="39.312501" lon="-8.614469">
        <ele>40.039</ele>
        <time>2015-03-20T09:57:26Z</time>
      </trkpt>
      <trkpt lat="39.312518" lon="-8.614411">
        <ele>39.657</ele>
        <time>2015-03-20T09:57:27Z</time>
      </trkpt>
      <trkpt lat="39.312555" lon="-8.614225">
        <ele>39.162</ele>
        <time>2015-03-20T09:57:30Z</time>
      </trkpt>
      <trkpt lat="39.312547" lon="-8.613768">
        <ele>37.229</ele>
        <time>2015-03-20T09:57:41Z</time>
      </trkpt>
      <trkpt lat="39.312519" lon="-8.613694">
        <ele>37.689</ele>
        <time>2015-03-20T09:57:50Z</time>
      </trkpt>
      <trkpt lat="39.312498" lon="-8.613604">
        <ele>37.606</ele>
        <time>2015-03-20T09:58:06Z</time>
      </trkpt>
      <trkpt lat="39.312475" lon="-8.613528">
        <ele>37.626</ele>
        <time>2015-03-20T09:58:28Z</time>
      </trkpt>
      <trkpt lat="39.312414" lon="-8.613069">
        <ele>37.207</ele>
        <time>2015-03-20T09:58:40Z</time>
      </trkpt>
      <trkpt lat="39.312293" lon="-8.612429">
        <ele>34.777</ele>
        <time>2015-03-20T09:58:52Z</time>
      </trkpt>
      <trkpt lat="39.312291" lon="-8.612191">
        <ele>33.350</ele>
        <time>2015-03-20T09:58:56Z</time>
      </trkpt>
      <trkpt lat="39.312323" lon="-8.611888">
        <ele>29.592</ele>
        <time>2015-03-20T09:59:01Z</time>
      </trkpt>
      <trkpt lat="39.312332" lon="-8.611757">
        <ele>28.522</ele>
        <time>2015-03-20T09:59:03Z</time>
      </trkpt>
      <trkpt lat="39.312356" lon="-8.611474">
        <ele>27.140</ele>
        <time>2015-03-20T09:59:07Z</time>
      </trkpt>
      <trkpt lat="39.312396" lon="-8.611279">
        <ele>25.615</ele>
        <time>2015-03-20T09:59:10Z</time>
      </trkpt>
      <trkpt lat="39.312518" lon="-8.610952">
        <ele>22.722</ele>
        <time>2015-03-20T09:59:16Z</time>
      </trkpt>
      <trkpt lat="39.312657" lon="-8.610544">
        <ele>19.494</ele>
        <time>2015-03-20T09:59:22Z</time>
      </trkpt>
      <trkpt lat="39.312677" lon="-8.610469">
        <ele>19.457</ele>
        <time>2015-03-20T09:59:23Z</time>
      </trkpt>
      <trkpt lat="39.312697" lon="-8.610400">
        <ele>18.422</ele>
        <time>2015-03-20T09:59:24Z</time>
      </trkpt>
      <trkpt lat="39.312772" lon="-8.610195">
        <ele>17.407</ele>
        <time>2015-03-20T09:59:27Z</time>
      </trkpt>
      <trkpt lat="39.312864" lon="-8.610013">
        <ele>17.068</ele>
        <time>2015-03-20T09:59:30Z</time>
      </trkpt>
      <trkpt lat="39.313094" lon="-8.609410">
        <ele>17.481</ele>
        <time>2015-03-20T09:59:43Z</time>
      </trkpt>
      <trkpt lat="39.313553" lon="-8.608515">
        <ele>14.633</ele>
        <time>2015-03-20T10:00:02Z</time>
      </trkpt>
      <trkpt lat="39.313757" lon="-8.607918">
        <ele>13.643</ele>
        <time>2015-03-20T10:00:15Z</time>
      </trkpt>
      <trkpt lat="39.313874" lon="-8.607182">
        <ele>12.671</ele>
        <time>2015-03-20T10:00:31Z</time>
      </trkpt>
      <trkpt lat="39.313991" lon="-8.606792">
        <ele>12.656</ele>
        <time>2015-03-20T10:00:43Z</time>
      </trkpt>
      <trkpt lat="39.314243" lon="-8.606328">
        <ele>12.693</ele>
        <time>2015-03-20T10:00:58Z</time>
      </trkpt>
      <trkpt lat="39.314331" lon="-8.605778">
        <ele>12.622</ele>
        <time>2015-03-20T10:01:15Z</time>
      </trkpt>
      <trkpt lat="39.314269" lon="-8.605675">
        <ele>12.662</ele>
        <time>2015-03-20T10:01:19Z</time>
      </trkpt>
      <trkpt lat="39.314165" lon="-8.605589">
        <ele>12.608</ele>
        <time>2015-03-20T10:01:24Z</time>
      </trkpt>
      <trkpt lat="39.313567" lon="-8.605590">
        <ele>12.207</ele>
        <time>2015-03-20T10:01:41Z</time>
      </trkpt>
      <trkpt lat="39.312945" lon="-8.605763">
        <ele>11.721</ele>
        <time>2015-03-20T10:01:57Z</time>
      </trkpt>
      <trkpt lat="39.312240" lon="-8.606050">
        <ele>11.284</ele>
        <time>2015-03-20T10:02:16Z</time>
      </trkpt>
      <trkpt lat="39.312071" lon="-8.606119">
        <ele>11.286</ele>
        <time>2015-03-20T10:02:21Z</time>
      </trkpt>
      <trkpt lat="39.311996" lon="-8.605783">
        <ele>11.276</ele>
        <time>2015-03-20T10:02:29Z</time>
      </trkpt>
      <trkpt lat="39.312203" lon="-8.604881">
        <ele>11.264</ele>
        <time>2015-03-20T10:02:47Z</time>
      </trkpt>
      <trkpt lat="39.312387" lon="-8.604148">
        <ele>11.289</ele>
        <time>2015-03-20T10:03:03Z</time>
      </trkpt>
      <trkpt lat="39.312534" lon="-8.603243">
        <ele>12.666</ele>
        <time>2015-03-20T10:03:22Z</time>
      </trkpt>
      <trkpt lat="39.312099" lon="-8.603204">
        <ele>12.688</ele>
        <time>2015-03-20T10:03:35Z</time>
      </trkpt>
      <trkpt lat="39.311701" lon="-8.602879">
        <ele>12.624</ele>
        <time>2015-03-20T10:03:47Z</time>
      </trkpt>
      <trkpt lat="39.311634" lon="-8.602817">
        <ele>12.626</ele>
        <time>2015-03-20T10:03:49Z</time>
      </trkpt>
      <trkpt lat="39.311221" lon="-8.602358">
        <ele>13.107</ele>
        <time>2015-03-20T10:04:03Z</time>
      </trkpt>
      <trkpt lat="39.310879" lon="-8.601561">
        <ele>13.177</ele>
        <time>2015-03-20T10:04:21Z</time>
      </trkpt>
      <trkpt lat="39.310684" lon="-8.600791">
        <ele>14.150</ele>
        <time>2015-03-20T10:04:38Z</time>
      </trkpt>
      <trkpt lat="39.310561" lon="-8.600310">
        <ele>13.612</ele>
        <time>2015-03-20T10:04:52Z</time>
      </trkpt>
      <trkpt lat="39.310486" lon="-8.600021">
        <ele>13.642</ele>
        <time>2015-03-20T10:05:50Z</time>
      </trkpt>
      <trkpt lat="39.310226" lon="-8.599039">
        <ele>14.120</ele>
        <time>2015-03-20T10:06:11Z</time>
      </trkpt>
      <trkpt lat="39.310200" lon="-8.598941">
        <ele>14.115</ele>
        <time>2015-03-20T10:06:13Z</time>
      </trkpt>
      <trkpt lat="39.309996" lon="-8.598166">
        <ele>14.182</ele>
        <time>2015-03-20T10:06:29Z</time>
      </trkpt>
      <trkpt lat="39.309752" lon="-8.597250">
        <ele>14.188</ele>
        <time>2015-03-20T10:06:47Z</time>
      </trkpt>
      <trkpt lat="39.309722" lon="-8.597149">
        <ele>14.124</ele>
        <time>2015-03-20T10:06:49Z</time>
      </trkpt>
      <trkpt lat="39.309686" lon="-8.597045">
        <ele>14.126</ele>
        <time>2015-03-20T10:06:51Z</time>
      </trkpt>
      <trkpt lat="39.309474" lon="-8.596192">
        <ele>14.107</ele>
        <time>2015-03-20T10:07:08Z</time>
      </trkpt>
      <trkpt lat="39.309228" lon="-8.595232">
        <ele>14.157</ele>
        <time>2015-03-20T10:07:27Z</time>
      </trkpt>
      <trkpt lat="39.308982" lon="-8.594339">
        <ele>14.140</ele>
        <time>2015-03-20T10:07:45Z</time>
      </trkpt>
      <trkpt lat="39.308857" lon="-8.593559">
        <ele>14.112</ele>
        <time>2015-03-20T10:08:01Z</time>
      </trkpt>
      <trkpt lat="39.309198" lon="-8.593083">
        <ele>14.192</ele>
        <time>2015-03-20T10:08:15Z</time>
      </trkpt>
      <trkpt lat="39.309702" lon="-8.592349">
        <ele>13.160</ele>
        <time>2015-03-20T10:08:36Z</time>
      </trkpt>
      <trkpt lat="39.310164" lon="-8.591665">
        <ele>13.145</ele>
        <time>2015-03-20T10:08:56Z</time>
      </trkpt>
      <trkpt lat="39.310637" lon="-8.590980">
        <ele>14.122</ele>
        <time>2015-03-20T10:09:16Z</time>
      </trkpt>
      <trkpt lat="39.310962" lon="-8.590493">
        <ele>14.686</ele>
        <time>2015-03-20T10:09:30Z</time>
      </trkpt>
      <trkpt lat="39.311448" lon="-8.589751">
        <ele>14.660</ele>
        <time>2015-03-20T10:09:51Z</time>
      </trkpt>
      <trkpt lat="39.311846" lon="-8.589081">
        <ele>14.626</ele>
        <time>2015-03-20T10:10:09Z</time>
      </trkpt>
      <trkpt lat="39.312226" lon="-8.588454">
        <ele>14.607</ele>
        <time>2015-03-20T10:10:26Z</time>
      </trkpt>
      <trkpt lat="39.312585" lon="-8.587872">
        <ele>14.667</ele>
        <time>2015-03-20T10:10:42Z</time>
      </trkpt>
      <trkpt lat="39.313037" lon="-8.587585">
        <ele>15.040</ele>
        <time>2015-03-20T10:10:56Z</time>
      </trkpt>
      <trkpt lat="39.313425" lon="-8.587037">
        <ele>15.092</ele>
        <time>2015-03-20T10:11:12Z</time>
      </trkpt>
      <trkpt lat="39.313862" lon="-8.586406">
        <ele>15.082</ele>
        <time>2015-03-20T10:11:30Z</time>
      </trkpt>
      <trkpt lat="39.314208" lon="-8.585857">
        <ele>13.670</ele>
        <time>2015-03-20T10:11:45Z</time>
      </trkpt>
      <trkpt lat="39.314562" lon="-8.585188">
        <ele>13.645</ele>
        <time>2015-03-20T10:12:02Z</time>
      </trkpt>
      <trkpt lat="39.314967" lon="-8.584416">
        <ele>13.632</ele>
        <time>2015-03-20T10:12:22Z</time>
      </trkpt>
      <trkpt lat="39.315331" lon="-8.583846">
        <ele>13.111</ele>
        <time>2015-03-20T10:12:38Z</time>
      </trkpt>
      <trkpt lat="39.315635" lon="-8.583441">
        <ele>14.121</ele>
        <time>2015-03-20T10:12:50Z</time>
      </trkpt>
      <trkpt lat="39.316137" lon="-8.582856">
        <ele>14.603</ele>
        <time>2015-03-20T10:13:09Z</time>
      </trkpt>
      <trkpt lat="39.316554" lon="-8.582449">
        <ele>14.607</ele>
        <time>2015-03-20T10:13:23Z</time>
      </trkpt>
      <trkpt lat="39.317002" lon="-8.582489">
        <ele>14.690</ele>
        <time>2015-03-20T10:13:35Z</time>
      </trkpt>
      <trkpt lat="39.317564" lon="-8.582478">
        <ele>14.663</ele>
        <time>2015-03-20T10:13:51Z</time>
      </trkpt>
      <trkpt lat="39.317852" lon="-8.582274">
        <ele>13.175</ele>
        <time>2015-03-20T10:14:01Z</time>
      </trkpt>
      <trkpt lat="39.318174" lon="-8.581822">
        <ele>13.135</ele>
        <time>2015-03-20T10:14:15Z</time>
      </trkpt>
      <trkpt lat="39.318529" lon="-8.581271">
        <ele>13.113</ele>
        <time>2015-03-20T10:14:31Z</time>
      </trkpt>
      <trkpt lat="39.318855" lon="-8.580826">
        <ele>13.128</ele>
        <time>2015-03-20T10:14:45Z</time>
      </trkpt>
      <trkpt lat="39.319122" lon="-8.580265">
        <ele>13.145</ele>
        <time>2015-03-20T10:15:00Z</time>
      </trkpt>
      <trkpt lat="39.319327" lon="-8.579605">
        <ele>13.191</ele>
        <time>2015-03-20T10:15:16Z</time>
      </trkpt>
      <trkpt lat="39.319501" lon="-8.578912">
        <ele>13.181</ele>
        <time>2015-03-20T10:15:32Z</time>
      </trkpt>
      <trkpt lat="39.319553" lon="-8.578276">
        <ele>14.619</ele>
        <time>2015-03-20T10:15:47Z</time>
      </trkpt>
      <trkpt lat="39.319671" lon="-8.577697">
        <ele>14.607</ele>
        <time>2015-03-20T10:16:02Z</time>
      </trkpt>
      <trkpt lat="39.319794" lon="-8.577216">
        <ele>14.668</ele>
        <time>2015-03-20T10:16:14Z</time>
      </trkpt>
      <trkpt lat="39.319899" lon="-8.576538">
        <ele>14.631</ele>
        <time>2015-03-20T10:16:30Z</time>
      </trkpt>
      <trkpt lat="39.319873" lon="-8.575906">
        <ele>14.623</ele>
        <time>2015-03-20T10:16:44Z</time>
      </trkpt>
      <trkpt lat="39.319853" lon="-8.575350">
        <ele>14.623</ele>
        <time>2015-03-20T10:16:57Z</time>
      </trkpt>
      <trkpt lat="39.319870" lon="-8.574739">
        <ele>12.691</ele>
        <time>2015-03-20T10:17:11Z</time>
      </trkpt>
      <trkpt lat="39.319902" lon="-8.574062">
        <ele>13.146</ele>
        <time>2015-03-20T10:17:26Z</time>
      </trkpt>
      <trkpt lat="39.319997" lon="-8.573401">
        <ele>12.643</ele>
        <time>2015-03-20T10:17:42Z</time>
      </trkpt>
      <trkpt lat="39.320055" lon="-8.573031">
        <ele>14.175</ele>
        <time>2015-03-20T10:17:51Z</time>
      </trkpt>
      <trkpt lat="39.320119" lon="-8.572332">
        <ele>14.128</ele>
        <time>2015-03-20T10:18:07Z</time>
      </trkpt>
      <trkpt lat="39.320148" lon="-8.571904">
        <ele>14.120</ele>
        <time>2015-03-20T10:18:17Z</time>
      </trkpt>
      <trkpt lat="39.320249" lon="-8.571395">
        <ele>14.107</ele>
        <time>2015-03-20T10:18:29Z</time>
      </trkpt>
      <trkpt lat="39.320416" lon="-8.570843">
        <ele>14.136</ele>
        <time>2015-03-20T10:18:42Z</time>
      </trkpt>
      <trkpt lat="39.320519" lon="-8.570360">
        <ele>14.119</ele>
        <time>2015-03-20T10:18:53Z</time>
      </trkpt>
      <trkpt lat="39.320668" lon="-8.569598">
        <ele>14.151</ele>
        <time>2015-03-20T10:19:10Z</time>
      </trkpt>
      <trkpt lat="39.320806" lon="-8.569039">
        <ele>14.111</ele>
        <time>2015-03-20T10:19:24Z</time>
      </trkpt>
      <trkpt lat="39.321073" lon="-8.568654">
        <ele>14.159</ele>
        <time>2015-03-20T10:19:36Z</time>
      </trkpt>
      <trkpt lat="39.321328" lon="-8.568674">
        <ele>14.184</ele>
        <time>2015-03-20T10:19:44Z</time>
      </trkpt>
      <trkpt lat="39.321908" lon="-8.568850">
        <ele>14.151</ele>
        <time>2015-03-20T10:20:01Z</time>
      </trkpt>
      <trkpt lat="39.321973" lon="-8.568803">
        <ele>14.687</ele>
        <time>2015-03-20T10:20:38Z</time>
      </trkpt>
      <trkpt lat="39.322113" lon="-8.568284">
        <ele>14.642</ele>
        <time>2015-03-20T10:20:51Z</time>
      </trkpt>
      <trkpt lat="39.322407" lon="-8.567557">
        <ele>14.626</ele>
        <time>2015-03-20T10:21:09Z</time>
      </trkpt>
      <trkpt lat="39.322611" lon="-8.566933">
        <ele>14.607</ele>
        <time>2015-03-20T10:21:24Z</time>
      </trkpt>
      <trkpt lat="39.322924" lon="-8.566111">
        <ele>14.637</ele>
        <time>2015-03-20T10:21:44Z</time>
      </trkpt>
      <trkpt lat="39.323150" lon="-8.565428">
        <ele>14.650</ele>
        <time>2015-03-20T10:22:00Z</time>
      </trkpt>
      <trkpt lat="39.323262" lon="-8.564685">
        <ele>14.652</ele>
        <time>2015-03-20T10:22:16Z</time>
      </trkpt>
      <trkpt lat="39.323240" lon="-8.563929">
        <ele>14.642</ele>
        <time>2015-03-20T10:22:33Z</time>
      </trkpt>
      <trkpt lat="39.323179" lon="-8.563407">
        <ele>14.690</ele>
        <time>2015-03-20T10:22:45Z</time>
      </trkpt>
      <trkpt lat="39.323172" lon="-8.563272">
        <ele>14.675</ele>
        <time>2015-03-20T10:22:57Z</time>
      </trkpt>
      <trkpt lat="39.323037" lon="-8.563211">
        <ele>14.652</ele>
        <time>2015-03-20T10:23:11Z</time>
      </trkpt>
      <trkpt lat="39.322740" lon="-8.562629">
        <ele>15.587</ele>
        <time>2015-03-20T10:23:27Z</time>
      </trkpt>
      <trkpt lat="39.322700" lon="-8.562062">
        <ele>15.542</ele>
        <time>2015-03-20T10:23:41Z</time>
      </trkpt>
      <trkpt lat="39.322909" lon="-8.561322">
        <ele>15.526</ele>
        <time>2015-03-20T10:23:59Z</time>
      </trkpt>
      <trkpt lat="39.323060" lon="-8.560705">
        <ele>15.507</ele>
        <time>2015-03-20T10:24:14Z</time>
      </trkpt>
      <trkpt lat="39.323162" lon="-8.559825">
        <ele>15.527</ele>
        <time>2015-03-20T10:24:34Z</time>
      </trkpt>
      <trkpt lat="39.323171" lon="-8.559742">
        <ele>14.160</ele>
        <time>2015-03-20T10:24:36Z</time>
      </trkpt>
      <trkpt lat="39.323293" lon="-8.559067">
        <ele>14.192</ele>
        <time>2015-03-20T10:24:52Z</time>
      </trkpt>
      <trkpt lat="39.323375" lon="-8.558302">
        <ele>14.122</ele>
        <time>2015-03-20T10:25:09Z</time>
      </trkpt>
      <trkpt lat="39.323429" lon="-8.557474">
        <ele>13.640</ele>
        <time>2015-03-20T10:25:25Z</time>
      </trkpt>
      <trkpt lat="39.323551" lon="-8.556759">
        <ele>13.165</ele>
        <time>2015-03-20T10:25:40Z</time>
      </trkpt>
      <trkpt lat="39.323626" lon="-8.556035">
        <ele>13.182</ele>
        <time>2015-03-20T10:25:55Z</time>
      </trkpt>
      <trkpt lat="39.323769" lon="-8.555547">
        <ele>14.146</ele>
        <time>2015-03-20T10:26:07Z</time>
      </trkpt>
      <trkpt lat="39.323892" lon="-8.554870">
        <ele>14.688</ele>
        <time>2015-03-20T10:26:22Z</time>
      </trkpt>
      <trkpt lat="39.323883" lon="-8.554063">
        <ele>15.016</ele>
        <time>2015-03-20T10:26:39Z</time>
      </trkpt>
      <trkpt lat="39.323871" lon="-8.553167">
        <ele>15.007</ele>
        <time>2015-03-20T10:26:58Z</time>
      </trkpt>
      <trkpt lat="39.324012" lon="-8.552762">
        <ele>15.083</ele>
        <time>2015-03-20T10:27:08Z</time>
      </trkpt>
      <trkpt lat="39.324107" lon="-8.552816">
        <ele>15.016</ele>
        <time>2015-03-20T10:27:12Z</time>
      </trkpt>
      <trkpt lat="39.324392" lon="-8.553293">
        <ele>15.028</ele>
        <time>2015-03-20T10:27:26Z</time>
      </trkpt>
      <trkpt lat="39.324646" lon="-8.553778">
        <ele>15.018</ele>
        <time>2015-03-20T10:27:39Z</time>
      </trkpt>
      <trkpt lat="39.324943" lon="-8.554320">
        <ele>15.096</ele>
        <time>2015-03-20T10:27:53Z</time>
      </trkpt>
      <trkpt lat="39.325270" lon="-8.554702">
        <ele>15.011</ele>
        <time>2015-03-20T10:28:05Z</time>
      </trkpt>
      <trkpt lat="39.325720" lon="-8.555096">
        <ele>15.038</ele>
        <time>2015-03-20T10:28:20Z</time>
      </trkpt>
      <trkpt lat="39.326073" lon="-8.555429">
        <ele>15.053</ele>
        <time>2015-03-20T10:28:32Z</time>
      </trkpt>
      <trkpt lat="39.326501" lon="-8.555863">
        <ele>13.604</ele>
        <time>2015-03-20T10:28:47Z</time>
      </trkpt>
      <trkpt lat="39.326761" lon="-8.555887">
        <ele>13.114</ele>
        <time>2015-03-20T10:28:57Z</time>
      </trkpt>
      <trkpt lat="39.327067" lon="-8.555354">
        <ele>14.607</ele>
        <time>2015-03-20T10:29:13Z</time>
      </trkpt>
      <trkpt lat="39.327427" lon="-8.554630">
        <ele>14.684</ele>
        <time>2015-03-20T10:29:32Z</time>
      </trkpt>
      <trkpt lat="39.327752" lon="-8.553987">
        <ele>14.677</ele>
        <time>2015-03-20T10:29:49Z</time>
      </trkpt>
      <trkpt lat="39.328076" lon="-8.553362">
        <ele>14.619</ele>
        <time>2015-03-20T10:30:06Z</time>
      </trkpt>
      <trkpt lat="39.328406" lon="-8.552708">
        <ele>15.099</ele>
        <time>2015-03-20T10:30:23Z</time>
      </trkpt>
      <trkpt lat="39.328790" lon="-8.551968">
        <ele>15.077</ele>
        <time>2015-03-20T10:30:42Z</time>
      </trkpt>
      <trkpt lat="39.329137" lon="-8.551330">
        <ele>15.032</ele>
        <time>2015-03-20T10:31:00Z</time>
      </trkpt>
      <trkpt lat="39.329425" lon="-8.550795">
        <ele>15.039</ele>
        <time>2015-03-20T10:31:15Z</time>
      </trkpt>
      <trkpt lat="39.329763" lon="-8.550158">
        <ele>15.058</ele>
        <time>2015-03-20T10:31:32Z</time>
      </trkpt>
      <trkpt lat="39.330073" lon="-8.549573">
        <ele>15.052</ele>
        <time>2015-03-20T10:31:48Z</time>
      </trkpt>
      <trkpt lat="39.330342" lon="-8.549186">
        <ele>15.017</ele>
        <time>2015-03-20T10:32:00Z</time>
      </trkpt>
      <trkpt lat="39.330672" lon="-8.548757">
        <ele>15.507</ele>
        <time>2015-03-20T10:32:14Z</time>
      </trkpt>
      <trkpt lat="39.331072" lon="-8.548195">
        <ele>15.574</ele>
        <time>2015-03-20T10:32:30Z</time>
      </trkpt>
      <trkpt lat="39.331486" lon="-8.547639">
        <ele>16.057</ele>
        <time>2015-03-20T10:32:46Z</time>
      </trkpt>
      <trkpt lat="39.331910" lon="-8.547046">
        <ele>16.049</ele>
        <time>2015-03-20T10:33:02Z</time>
      </trkpt>
      <trkpt lat="39.332271" lon="-8.546550">
        <ele>16.049</ele>
        <time>2015-03-20T10:33:16Z</time>
      </trkpt>
      <trkpt lat="39.332626" lon="-8.546068">
        <ele>16.017</ele>
        <time>2015-03-20T10:33:30Z</time>
      </trkpt>
      <trkpt lat="39.332747" lon="-8.546096">
        <ele>16.022</ele>
        <time>2015-03-20T10:33:34Z</time>
      </trkpt>
      <trkpt lat="39.332877" lon="-8.546551">
        <ele>16.079</ele>
        <time>2015-03-20T10:33:44Z</time>
      </trkpt>
      <trkpt lat="39.333091" lon="-8.547138">
        <ele>16.044</ele>
        <time>2015-03-20T10:33:58Z</time>
      </trkpt>
      <trkpt lat="39.333187" lon="-8.547623">
        <ele>16.005</ele>
        <time>2015-03-20T10:34:09Z</time>
      </trkpt>
      <trkpt lat="39.333437" lon="-8.548309">
        <ele>16.015</ele>
        <time>2015-03-20T10:34:25Z</time>
      </trkpt>
      <trkpt lat="39.333689" lon="-8.548981">
        <ele>16.007</ele>
        <time>2015-03-20T10:34:42Z</time>
      </trkpt>
      <trkpt lat="39.333998" lon="-8.549420">
        <ele>16.023</ele>
        <time>2015-03-20T10:34:56Z</time>
      </trkpt>
      <trkpt lat="39.334485" lon="-8.549324">
        <ele>16.076</ele>
        <time>2015-03-20T10:35:10Z</time>
      </trkpt>
      <trkpt lat="39.334935" lon="-8.549243">
        <ele>16.098</ele>
        <time>2015-03-20T10:35:25Z</time>
      </trkpt>
      <trkpt lat="39.335442" lon="-8.549176">
        <ele>16.078</ele>
        <time>2015-03-20T10:35:40Z</time>
      </trkpt>
      <trkpt lat="39.335840" lon="-8.549243">
        <ele>16.066</ele>
        <time>2015-03-20T10:35:51Z</time>
      </trkpt>
      <trkpt lat="39.336311" lon="-8.549352">
        <ele>16.051</ele>
        <time>2015-03-20T10:36:04Z</time>
      </trkpt>
      <trkpt lat="39.336968" lon="-8.549539">
        <ele>16.018</ele>
        <time>2015-03-20T10:36:22Z</time>
      </trkpt>
      <trkpt lat="39.337420" lon="-8.549708">
        <ele>16.045</ele>
        <time>2015-03-20T10:36:35Z</time>
      </trkpt>
      <trkpt lat="39.337784" lon="-8.549775">
        <ele>16.047</ele>
        <time>2015-03-20T10:36:46Z</time>
      </trkpt>
      <trkpt lat="39.337828" lon="-8.549613">
        <ele>16.011</ele>
        <time>2015-03-20T10:36:52Z</time>
      </trkpt>
      <trkpt lat="39.337791" lon="-8.549528">
        <ele>16.007</ele>
        <time>2015-03-20T10:36:54Z</time>
      </trkpt>
      <trkpt lat="39.337644" lon="-8.549042">
        <ele>16.043</ele>
        <time>2015-03-20T10:37:05Z</time>
      </trkpt>
      <trkpt lat="39.337382" lon="-8.548259">
        <ele>16.036</ele>
        <time>2015-03-20T10:37:22Z</time>
      </trkpt>
      <trkpt lat="39.337103" lon="-8.547530">
        <ele>16.028</ele>
        <time>2015-03-20T10:37:39Z</time>
      </trkpt>
      <trkpt lat="39.336945" lon="-8.546982">
        <ele>16.038</ele>
        <time>2015-03-20T10:37:52Z</time>
      </trkpt>
      <trkpt lat="39.336801" lon="-8.546317">
        <ele>16.536</ele>
        <time>2015-03-20T10:38:07Z</time>
      </trkpt>
      <trkpt lat="39.336644" lon="-8.545673">
        <ele>17.461</ele>
        <time>2015-03-20T10:38:22Z</time>
      </trkpt>
      <trkpt lat="39.336566" lon="-8.545064">
        <ele>17.958</ele>
        <time>2015-03-20T10:38:36Z</time>
      </trkpt>
      <trkpt lat="39.336537" lon="-8.544366">
        <ele>17.436</ele>
        <time>2015-03-20T10:38:51Z</time>
      </trkpt>
      <trkpt lat="39.336493" lon="-8.543707">
        <ele>17.417</ele>
        <time>2015-03-20T10:39:05Z</time>
      </trkpt>
      <trkpt lat="39.336600" lon="-8.543028">
        <ele>17.418</ele>
        <time>2015-03-20T10:39:21Z</time>
      </trkpt>
      <trkpt lat="39.336904" lon="-8.542367">
        <ele>19.407</ele>
        <time>2015-03-20T10:39:40Z</time>
      </trkpt>
      <trkpt lat="39.337229" lon="-8.541795">
        <ele>19.412</ele>
        <time>2015-03-20T10:39:56Z</time>
      </trkpt>
      <trkpt lat="39.337660" lon="-8.541203">
        <ele>19.835</ele>
        <time>2015-03-20T10:40:14Z</time>
      </trkpt>
      <trkpt lat="39.338070" lon="-8.540694">
        <ele>19.847</ele>
        <time>2015-03-20T10:40:30Z</time>
      </trkpt>
      <trkpt lat="39.338409" lon="-8.540290">
        <ele>20.387</ele>
        <time>2015-03-20T10:40:43Z</time>
      </trkpt>
      <trkpt lat="39.338847" lon="-8.539803">
        <ele>20.325</ele>
        <time>2015-03-20T10:40:59Z</time>
      </trkpt>
      <trkpt lat="39.339343" lon="-8.539266">
        <ele>20.340</ele>
        <time>2015-03-20T10:41:17Z</time>
      </trkpt>
      <trkpt lat="39.339758" lon="-8.538843">
        <ele>20.377</ele>
        <time>2015-03-20T10:41:31Z</time>
      </trkpt>
      <trkpt lat="39.340262" lon="-8.538371">
        <ele>20.341</ele>
        <time>2015-03-20T10:41:47Z</time>
      </trkpt>
      <trkpt lat="39.340885" lon="-8.537774">
        <ele>20.381</ele>
        <time>2015-03-20T10:42:07Z</time>
      </trkpt>
      <trkpt lat="39.341436" lon="-8.537175">
        <ele>20.809</ele>
        <time>2015-03-20T10:42:25Z</time>
      </trkpt>
      <trkpt lat="39.341869" lon="-8.536589">
        <ele>20.807</ele>
        <time>2015-03-20T10:42:41Z</time>
      </trkpt>
      <trkpt lat="39.342458" lon="-8.535816">
        <ele>20.823</ele>
        <time>2015-03-20T10:43:01Z</time>
      </trkpt>
      <trkpt lat="39.343099" lon="-8.535227">
        <ele>21.336</ele>
        <time>2015-03-20T10:43:20Z</time>
      </trkpt>
      <trkpt lat="39.343817" lon="-8.534790">
        <ele>21.338</ele>
        <time>2015-03-20T10:43:38Z</time>
      </trkpt>
      <trkpt lat="39.344042" lon="-8.534304">
        <ele>21.348</ele>
        <time>2015-03-20T10:43:49Z</time>
      </trkpt>
      <trkpt lat="39.344350" lon="-8.533470">
        <ele>21.336</ele>
        <time>2015-03-20T10:44:08Z</time>
      </trkpt>
      <trkpt lat="39.344361" lon="-8.533391">
        <ele>21.361</ele>
        <time>2015-03-20T10:44:17Z</time>
      </trkpt>
      <trkpt lat="39.344412" lon="-8.533149">
        <ele>21.338</ele>
        <time>2015-03-20T10:45:00Z</time>
      </trkpt>
      <trkpt lat="39.344728" lon="-8.532630">
        <ele>21.353</ele>
        <time>2015-03-20T10:45:15Z</time>
      </trkpt>
      <trkpt lat="39.345129" lon="-8.531906">
        <ele>21.304</ele>
        <time>2015-03-20T10:45:33Z</time>
      </trkpt>
      <trkpt lat="39.345424" lon="-8.531182">
        <ele>20.814</ele>
        <time>2015-03-20T10:45:52Z</time>
      </trkpt>
      <trkpt lat="39.345441" lon="-8.531104">
        <ele>21.307</ele>
        <time>2015-03-20T10:45:56Z</time>
      </trkpt>
      <trkpt lat="39.345520" lon="-8.530664">
        <ele>21.324</ele>
        <time>2015-03-20T10:46:10Z</time>
      </trkpt>
      <trkpt lat="39.345802" lon="-8.530058">
        <ele>21.337</ele>
        <time>2015-03-20T10:46:27Z</time>
      </trkpt>
      <trkpt lat="39.346067" lon="-8.529721">
        <ele>21.349</ele>
        <time>2015-03-20T10:46:42Z</time>
      </trkpt>
      <trkpt lat="39.346269" lon="-8.529543">
        <ele>21.399</ele>
        <time>2015-03-20T10:47:44Z</time>
      </trkpt>
      <trkpt lat="39.346569" lon="-8.529078">
        <ele>21.357</ele>
        <time>2015-03-20T10:48:00Z</time>
      </trkpt>
      <trkpt lat="39.346961" lon="-8.528548">
        <ele>21.812</ele>
        <time>2015-03-20T10:48:18Z</time>
      </trkpt>
      <trkpt lat="39.347234" lon="-8.528318">
        <ele>21.899</ele>
        <time>2015-03-20T10:48:33Z</time>
      </trkpt>
      <trkpt lat="39.347406" lon="-8.528225">
        <ele>20.352</ele>
        <time>2015-03-20T11:05:49Z</time>
      </trkpt>
      <trkpt lat="39.347838" lon="-8.528154">
        <ele>20.353</ele>
        <time>2015-03-20T11:06:04Z</time>
      </trkpt>
      <trkpt lat="39.348351" lon="-8.528143">
        <ele>19.808</ele>
        <time>2015-03-20T11:06:21Z</time>
      </trkpt>
      <trkpt lat="39.348824" lon="-8.528131">
        <ele>20.807</ele>
        <time>2015-03-20T11:06:37Z</time>
      </trkpt>
      <trkpt lat="39.349421" lon="-8.528109">
        <ele>20.814</ele>
        <time>2015-03-20T11:06:55Z</time>
      </trkpt>
      <trkpt lat="39.350093" lon="-8.528096">
        <ele>20.897</ele>
        <time>2015-03-20T11:07:14Z</time>
      </trkpt>
      <trkpt lat="39.350787" lon="-8.528248">
        <ele>20.879</ele>
        <time>2015-03-20T11:07:32Z</time>
      </trkpt>
      <trkpt lat="39.351372" lon="-8.528408">
        <ele>20.839</ele>
        <time>2015-03-20T11:07:47Z</time>
      </trkpt>
      <trkpt lat="39.352255" lon="-8.528531">
        <ele>19.847</ele>
        <time>2015-03-20T11:08:08Z</time>
      </trkpt>
      <trkpt lat="39.353039" lon="-8.528400">
        <ele>18.972</ele>
        <time>2015-03-20T11:08:26Z</time>
      </trkpt>
      <trkpt lat="39.353246" lon="-8.528326">
        <ele>18.969</ele>
        <time>2015-03-20T11:08:31Z</time>
      </trkpt>
      <trkpt lat="39.353920" lon="-8.528261">
        <ele>18.458</ele>
        <time>2015-03-20T11:08:47Z</time>
      </trkpt>
      <trkpt lat="39.354702" lon="-8.528113">
        <ele>17.952</ele>
        <time>2015-03-20T11:09:06Z</time>
      </trkpt>
      <trkpt lat="39.354833" lon="-8.528065">
        <ele>17.917</ele>
        <time>2015-03-20T11:09:16Z</time>
      </trkpt>
      <trkpt lat="39.354966" lon="-8.528018">
        <ele>17.407</ele>
        <time>2015-03-20T11:09:39Z</time>
      </trkpt>
      <trkpt lat="39.355462" lon="-8.527820">
        <ele>17.414</ele>
        <time>2015-03-20T11:09:55Z</time>
      </trkpt>
      <trkpt lat="39.356220" lon="-8.527498">
        <ele>17.427</ele>
        <time>2015-03-20T11:10:15Z</time>
      </trkpt>
      <trkpt lat="39.357008" lon="-8.527168">
        <ele>18.989</ele>
        <time>2015-03-20T11:10:35Z</time>
      </trkpt>
      <trkpt lat="39.357437" lon="-8.526990">
        <ele>19.469</ele>
        <time>2015-03-20T11:10:46Z</time>
      </trkpt>
      <trkpt lat="39.358176" lon="-8.526682">
        <ele>19.447</ele>
        <time>2015-03-20T11:11:05Z</time>
      </trkpt>
      <trkpt lat="39.358874" lon="-8.526388">
        <ele>20.352</ele>
        <time>2015-03-20T11:11:23Z</time>
      </trkpt>
      <trkpt lat="39.359572" lon="-8.526097">
        <ele>20.349</ele>
        <time>2015-03-20T11:11:40Z</time>
      </trkpt>
      <trkpt lat="39.360179" lon="-8.525847">
        <ele>20.358</ele>
        <time>2015-03-20T11:11:55Z</time>
      </trkpt>
      <trkpt lat="39.360800" lon="-8.525702">
        <ele>20.852</ele>
        <time>2015-03-20T11:12:11Z</time>
      </trkpt>
      <trkpt lat="39.361444" lon="-8.525839">
        <ele>21.817</ele>
        <time>2015-03-20T11:12:29Z</time>
      </trkpt>
      <trkpt lat="39.362051" lon="-8.525975">
        <ele>23.707</ele>
        <time>2015-03-20T11:12:47Z</time>
      </trkpt>
      <trkpt lat="39.362732" lon="-8.526118">
        <ele>24.794</ele>
        <time>2015-03-20T11:13:06Z</time>
      </trkpt>
      <trkpt lat="39.363287" lon="-8.526238">
        <ele>24.767</ele>
        <time>2015-03-20T11:13:23Z</time>
      </trkpt>
      <trkpt lat="39.363662" lon="-8.526298">
        <ele>22.769</ele>
        <time>2015-03-20T11:14:03Z</time>
      </trkpt>
      <trkpt lat="39.363727" lon="-8.526136">
        <ele>22.399</ele>
        <time>2015-03-20T11:14:07Z</time>
      </trkpt>
      <trkpt lat="39.363833" lon="-8.525132">
        <ele>20.367</ele>
        <time>2015-03-20T11:14:25Z</time>
      </trkpt>
      <trkpt lat="39.363870" lon="-8.524979">
        <ele>19.872</ele>
        <time>2015-03-20T11:14:28Z</time>
      </trkpt>
      <trkpt lat="39.364069" lon="-8.524014">
        <ele>19.469</ele>
        <time>2015-03-20T11:14:46Z</time>
      </trkpt>
      <trkpt lat="39.364258" lon="-8.523326">
        <ele>18.489</ele>
        <time>2015-03-20T11:14:59Z</time>
      </trkpt>
      <trkpt lat="39.364589" lon="-8.522823">
        <ele>17.906</ele>
        <time>2015-03-20T11:15:11Z</time>
      </trkpt>
      <trkpt lat="39.365077" lon="-8.522222">
        <ele>17.926</ele>
        <time>2015-03-20T11:15:27Z</time>
      </trkpt>
      <trkpt lat="39.365742" lon="-8.521757">
        <ele>17.407</ele>
        <time>2015-03-20T11:15:45Z</time>
      </trkpt>
      <trkpt lat="39.366368" lon="-8.521322">
        <ele>17.417</ele>
        <time>2015-03-20T11:16:02Z</time>
      </trkpt>
      <trkpt lat="39.367174" lon="-8.520701">
        <ele>17.440</ele>
        <time>2015-03-20T11:16:24Z</time>
      </trkpt>
      <trkpt lat="39.367843" lon="-8.520183">
        <ele>17.472</ele>
        <time>2015-03-20T11:16:42Z</time>
      </trkpt>
      <trkpt lat="39.368034" lon="-8.520043">
        <ele>17.462</ele>
        <time>2015-03-20T11:16:47Z</time>
      </trkpt>
      <trkpt lat="39.368746" lon="-8.519450">
        <ele>17.410</ele>
        <time>2015-03-20T11:17:07Z</time>
      </trkpt>
      <trkpt lat="39.369504" lon="-8.518795">
        <ele>17.415</ele>
        <time>2015-03-20T11:17:28Z</time>
      </trkpt>
      <trkpt lat="39.370217" lon="-8.518191">
        <ele>17.432</ele>
        <time>2015-03-20T11:17:47Z</time>
      </trkpt>
      <trkpt lat="39.370822" lon="-8.517675">
        <ele>17.428</ele>
        <time>2015-03-20T11:18:03Z</time>
      </trkpt>
      <trkpt lat="39.371637" lon="-8.516962">
        <ele>17.489</ele>
        <time>2015-03-20T11:18:25Z</time>
      </trkpt>
      <trkpt lat="39.372224" lon="-8.516376">
        <ele>17.417</ele>
        <time>2015-03-20T11:18:42Z</time>
      </trkpt>
      <trkpt lat="39.372965" lon="-8.515603">
        <ele>17.407</ele>
        <time>2015-03-20T11:19:04Z</time>
      </trkpt>
      <trkpt lat="39.373647" lon="-8.514891">
        <ele>17.461</ele>
        <time>2015-03-20T11:19:24Z</time>
      </trkpt>
      <trkpt lat="39.374373" lon="-8.514147">
        <ele>17.474</ele>
        <time>2015-03-20T11:19:45Z</time>
      </trkpt>
      <trkpt lat="39.375160" lon="-8.513401">
        <ele>17.476</ele>
        <time>2015-03-20T11:20:07Z</time>
      </trkpt>
      <trkpt lat="39.375864" lon="-8.512723">
        <ele>17.426</ele>
        <time>2015-03-20T11:20:27Z</time>
      </trkpt>
      <trkpt lat="39.376388" lon="-8.512181">
        <ele>17.434</ele>
        <time>2015-03-20T11:20:42Z</time>
      </trkpt>
      <trkpt lat="39.377046" lon="-8.511532">
        <ele>18.979</ele>
        <time>2015-03-20T11:21:01Z</time>
      </trkpt>
      <trkpt lat="39.377681" lon="-8.510926">
        <ele>18.936</ele>
        <time>2015-03-20T11:21:19Z</time>
      </trkpt>
      <trkpt lat="39.378310" lon="-8.510317">
        <ele>18.926</ele>
        <time>2015-03-20T11:21:37Z</time>
      </trkpt>
      <trkpt lat="39.378595" lon="-8.510048">
        <ele>18.947</ele>
        <time>2015-03-20T11:21:45Z</time>
      </trkpt>
      <trkpt lat="39.379200" lon="-8.509467">
        <ele>18.911</ele>
        <time>2015-03-20T11:22:02Z</time>
      </trkpt>
      <trkpt lat="39.379827" lon="-8.508831">
        <ele>18.907</ele>
        <time>2015-03-20T11:22:20Z</time>
      </trkpt>
      <trkpt lat="39.380399" lon="-8.508243">
        <ele>18.931</ele>
        <time>2015-03-20T11:22:37Z</time>
      </trkpt>
      <trkpt lat="39.381103" lon="-8.507598">
        <ele>18.924</ele>
        <time>2015-03-20T11:22:57Z</time>
      </trkpt>
      <trkpt lat="39.381736" lon="-8.507053">
        <ele>18.966</ele>
        <time>2015-03-20T11:23:14Z</time>
      </trkpt>
      <trkpt lat="39.382456" lon="-8.506434">
        <ele>18.996</ele>
        <time>2015-03-20T11:23:33Z</time>
      </trkpt>
      <trkpt lat="39.383204" lon="-8.505831">
        <ele>18.964</ele>
        <time>2015-03-20T11:23:52Z</time>
      </trkpt>
      <trkpt lat="39.383630" lon="-8.505437">
        <ele>18.959</ele>
        <time>2015-03-20T11:24:03Z</time>
      </trkpt>
      <trkpt lat="39.383726" lon="-8.505297">
        <ele>18.956</ele>
        <time>2015-03-20T11:24:06Z</time>
      </trkpt>
      <trkpt lat="39.384318" lon="-8.504474">
        <ele>18.951</ele>
        <time>2015-03-20T11:24:26Z</time>
      </trkpt>
      <trkpt lat="39.384951" lon="-8.503605">
        <ele>18.901</ele>
        <time>2015-03-20T11:24:47Z</time>
      </trkpt>
      <trkpt lat="39.385519" lon="-8.502818">
        <ele>19.411</ele>
        <time>2015-03-20T11:25:06Z</time>
      </trkpt>
      <trkpt lat="39.386136" lon="-8.502256">
        <ele>19.807</ele>
        <time>2015-03-20T11:25:23Z</time>
      </trkpt>
      <trkpt lat="39.386726" lon="-8.501751">
        <ele>19.814</ele>
        <time>2015-03-20T11:25:39Z</time>
      </trkpt>
      <trkpt lat="39.387026" lon="-8.501529">
        <ele>19.847</ele>
        <time>2015-03-20T11:25:47Z</time>
      </trkpt>
      <trkpt lat="39.387099" lon="-8.501471">
        <ele>19.819</ele>
        <time>2015-03-20T11:25:49Z</time>
      </trkpt>
      <trkpt lat="39.387260" lon="-8.501366">
        <ele>19.849</ele>
        <time>2015-03-20T11:25:53Z</time>
      </trkpt>
      <trkpt lat="39.387914" lon="-8.500915">
        <ele>19.847</ele>
        <time>2015-03-20T11:26:09Z</time>
      </trkpt>
      <trkpt lat="39.388670" lon="-8.500384">
        <ele>19.822</ele>
        <time>2015-03-20T11:26:28Z</time>
      </trkpt>
      <trkpt lat="39.389417" lon="-8.499870">
        <ele>19.869</ele>
        <time>2015-03-20T11:26:47Z</time>
      </trkpt>
      <trkpt lat="39.390227" lon="-8.499232">
        <ele>19.821</ele>
        <time>2015-03-20T11:27:07Z</time>
      </trkpt>
      <trkpt lat="39.390338" lon="-8.499125">
        <ele>19.841</ele>
        <time>2015-03-20T11:27:10Z</time>
      </trkpt>
      <trkpt lat="39.390902" lon="-8.498297">
        <ele>19.805</ele>
        <time>2015-03-20T11:27:28Z</time>
      </trkpt>
      <trkpt lat="39.391078" lon="-8.498018">
        <ele>19.807</ele>
        <time>2015-03-20T11:27:35Z</time>
      </trkpt>
      <trkpt lat="39.391289" lon="-8.497818">
        <ele>19.851</ele>
        <time>2015-03-20T11:28:49Z</time>
      </trkpt>
      <trkpt lat="39.391462" lon="-8.497674">
        <ele>19.834</ele>
        <time>2015-03-20T11:28:54Z</time>
      </trkpt>
      <trkpt lat="39.392345" lon="-8.496915">
        <ele>19.896</ele>
        <time>2015-03-20T11:29:18Z</time>
      </trkpt>
      <trkpt lat="39.393058" lon="-8.496305">
        <ele>20.396</ele>
        <time>2015-03-20T11:29:37Z</time>
      </trkpt>
      <trkpt lat="39.393854" lon="-8.495618">
        <ele>20.344</ele>
        <time>2015-03-20T11:29:58Z</time>
      </trkpt>
      <trkpt lat="39.394673" lon="-8.494907">
        <ele>20.359</ele>
        <time>2015-03-20T11:30:19Z</time>
      </trkpt>
      <trkpt lat="39.395553" lon="-8.494156">
        <ele>20.856</ele>
        <time>2015-03-20T11:30:42Z</time>
      </trkpt>
      <trkpt lat="39.396360" lon="-8.493463">
        <ele>20.861</ele>
        <time>2015-03-20T11:31:03Z</time>
      </trkpt>
      <trkpt lat="39.397228" lon="-8.492739">
        <ele>20.321</ele>
        <time>2015-03-20T11:31:25Z</time>
      </trkpt>
      <trkpt lat="39.397365" lon="-8.492672">
        <ele>20.313</ele>
        <time>2015-03-20T11:31:28Z</time>
      </trkpt>
      <trkpt lat="39.397457" lon="-8.492648">
        <ele>20.307</ele>
        <time>2015-03-20T11:31:30Z</time>
      </trkpt>
      <trkpt lat="39.398275" lon="-8.492466">
        <ele>20.385</ele>
        <time>2015-03-20T11:31:48Z</time>
      </trkpt>
      <trkpt lat="39.399086" lon="-8.492308">
        <ele>20.368</ele>
        <time>2015-03-20T11:32:07Z</time>
      </trkpt>
      <trkpt lat="39.399292" lon="-8.492253">
        <ele>20.380</ele>
        <time>2015-03-20T11:32:12Z</time>
      </trkpt>
      <trkpt lat="39.399759" lon="-8.491722">
        <ele>20.340</ele>
        <time>2015-03-20T11:32:28Z</time>
      </trkpt>
      <trkpt lat="39.399971" lon="-8.491395">
        <ele>20.398</ele>
        <time>2015-03-20T11:32:42Z</time>
      </trkpt>
      <trkpt lat="39.400131" lon="-8.491159">
        <ele>20.373</ele>
        <time>2015-03-20T11:33:44Z</time>
      </trkpt>
      <trkpt lat="39.400554" lon="-8.490532">
        <ele>20.390</ele>
        <time>2015-03-20T11:34:02Z</time>
      </trkpt>
      <trkpt lat="39.400933" lon="-8.489964">
        <ele>20.386</ele>
        <time>2015-03-20T11:34:18Z</time>
      </trkpt>
      <trkpt lat="39.401079" lon="-8.489745">
        <ele>20.360</ele>
        <time>2015-03-20T11:34:24Z</time>
      </trkpt>
      <trkpt lat="39.401021" lon="-8.489540">
        <ele>20.326</ele>
        <time>2015-03-20T11:34:30Z</time>
      </trkpt>
      <trkpt lat="39.400953" lon="-8.489486">
        <ele>20.307</ele>
        <time>2015-03-20T11:34:32Z</time>
      </trkpt>
      <trkpt lat="39.400401" lon="-8.488900">
        <ele>20.387</ele>
        <time>2015-03-20T11:34:50Z</time>
      </trkpt>
      <trkpt lat="39.400418" lon="-8.488552">
        <ele>20.350</ele>
        <time>2015-03-20T11:34:58Z</time>
      </trkpt>
      <trkpt lat="39.401065" lon="-8.487841">
        <ele>21.872</ele>
        <time>2015-03-20T11:35:20Z</time>
      </trkpt>
      <trkpt lat="39.401373" lon="-8.487403">
        <ele>24.282</ele>
        <time>2015-03-20T11:35:35Z</time>
      </trkpt>
      <trkpt lat="39.401505" lon="-8.487149">
        <ele>25.620</ele>
        <time>2015-03-20T11:35:51Z</time>
      </trkpt>
      <trkpt lat="39.401579" lon="-8.487110">
        <ele>26.175</ele>
        <time>2015-03-20T11:36:57Z</time>
      </trkpt>
      <trkpt lat="39.401642" lon="-8.487041">
        <ele>26.172</ele>
        <time>2015-03-20T11:37:02Z</time>
      </trkpt>
      <trkpt lat="39.401961" lon="-8.486846">
        <ele>27.123</ele>
        <time>2015-03-20T11:37:17Z</time>
      </trkpt>
      <trkpt lat="39.401991" lon="-8.486663">
        <ele>29.083</ele>
        <time>2015-03-20T12:11:13Z</time>
      </trkpt>
      <trkpt lat="39.402216" lon="-8.486401">
        <ele>29.011</ele>
        <time>2015-03-20T12:11:39Z</time>
      </trkpt>
      <trkpt lat="39.402436" lon="-8.486059">
        <ele>29.507</ele>
        <time>2015-03-20T12:11:54Z</time>
      </trkpt>
      <trkpt lat="39.402724" lon="-8.485669">
        <ele>28.061</ele>
        <time>2015-03-20T12:12:09Z</time>
      </trkpt>
      <trkpt lat="39.403002" lon="-8.485279">
        <ele>26.694</ele>
        <time>2015-03-20T12:12:23Z</time>
      </trkpt>
      <trkpt lat="39.403306" lon="-8.484866">
        <ele>26.656</ele>
        <time>2015-03-20T12:12:38Z</time>
      </trkpt>
      <trkpt lat="39.403697" lon="-8.484351">
        <ele>26.686</ele>
        <time>2015-03-20T12:12:55Z</time>
      </trkpt>
      <trkpt lat="39.404099" lon="-8.483840">
        <ele>26.614</ele>
        <time>2015-03-20T12:13:12Z</time>
      </trkpt>
      <trkpt lat="39.404493" lon="-8.483352">
        <ele>26.649</ele>
        <time>2015-03-20T12:13:28Z</time>
      </trkpt>
      <trkpt lat="39.404861" lon="-8.483014">
        <ele>26.616</ele>
        <time>2015-03-20T12:13:43Z</time>
      </trkpt>
      <trkpt lat="39.405350" lon="-8.482681">
        <ele>28.593</ele>
        <time>2015-03-20T12:14:01Z</time>
      </trkpt>
      <trkpt lat="39.405773" lon="-8.482416">
        <ele>29.065</ele>
        <time>2015-03-20T12:14:15Z</time>
      </trkpt>
      <trkpt lat="39.406393" lon="-8.481948">
        <ele>28.021</ele>
        <time>2015-03-20T12:14:34Z</time>
      </trkpt>
      <trkpt lat="39.406899" lon="-8.481572">
        <ele>27.507</ele>
        <time>2015-03-20T12:14:49Z</time>
      </trkpt>
      <trkpt lat="39.407309" lon="-8.481236">
        <ele>27.188</ele>
        <time>2015-03-20T12:15:02Z</time>
      </trkpt>
      <trkpt lat="39.407856" lon="-8.480753">
        <ele>27.121</ele>
        <time>2015-03-20T12:15:19Z</time>
      </trkpt>
      <trkpt lat="39.408114" lon="-8.480539">
        <ele>26.623</ele>
        <time>2015-03-20T12:15:32Z</time>
      </trkpt>
      <trkpt lat="39.408481" lon="-8.480179">
        <ele>26.173</ele>
        <time>2015-03-20T12:15:45Z</time>
      </trkpt>
      <trkpt lat="39.408978" lon="-8.479688">
        <ele>26.161</ele>
        <time>2015-03-20T12:16:01Z</time>
      </trkpt>
      <trkpt lat="39.409428" lon="-8.479119">
        <ele>26.156</ele>
        <time>2015-03-20T12:16:17Z</time>
      </trkpt>
      <trkpt lat="39.409954" lon="-8.478408">
        <ele>26.133</ele>
        <time>2015-03-20T12:16:36Z</time>
      </trkpt>
      <trkpt lat="39.410468" lon="-8.477633">
        <ele>26.157</ele>
        <time>2015-03-20T12:16:56Z</time>
      </trkpt>
      <trkpt lat="39.410960" lon="-8.476891">
        <ele>27.100</ele>
        <time>2015-03-20T12:17:15Z</time>
      </trkpt>
      <trkpt lat="39.411366" lon="-8.476240">
        <ele>27.520</ele>
        <time>2015-03-20T12:17:33Z</time>
      </trkpt>
      <trkpt lat="39.411709" lon="-8.475704">
        <ele>28.007</ele>
        <time>2015-03-20T12:17:48Z</time>
      </trkpt>
      <trkpt lat="39.412065" lon="-8.475198">
        <ele>28.574</ele>
        <time>2015-03-20T12:18:03Z</time>
      </trkpt>
      <trkpt lat="39.412519" lon="-8.474636">
        <ele>28.087</ele>
        <time>2015-03-20T12:18:21Z</time>
      </trkpt>
      <trkpt lat="39.413025" lon="-8.474019">
        <ele>28.589</ele>
        <time>2015-03-20T12:18:41Z</time>
      </trkpt>
      <trkpt lat="39.413439" lon="-8.473470">
        <ele>29.579</ele>
        <time>2015-03-20T12:18:58Z</time>
      </trkpt>
      <trkpt lat="39.413836" lon="-8.472893">
        <ele>30.497</ele>
        <time>2015-03-20T12:19:15Z</time>
      </trkpt>
      <trkpt lat="39.414392" lon="-8.472117">
        <ele>31.482</ele>
        <time>2015-03-20T12:19:37Z</time>
      </trkpt>
      <trkpt lat="39.414852" lon="-8.471466">
        <ele>29.919</ele>
        <time>2015-03-20T12:19:54Z</time>
      </trkpt>
      <trkpt lat="39.415415" lon="-8.470801">
        <ele>29.579</ele>
        <time>2015-03-20T12:20:13Z</time>
      </trkpt>
      <trkpt lat="39.415808" lon="-8.470280">
        <ele>29.505</ele>
        <time>2015-03-20T12:20:27Z</time>
      </trkpt>
      <trkpt lat="39.416148" lon="-8.469624">
        <ele>29.025</ele>
        <time>2015-03-20T12:20:43Z</time>
      </trkpt>
      <trkpt lat="39.416566" lon="-8.468957">
        <ele>29.007</ele>
        <time>2015-03-20T12:21:00Z</time>
      </trkpt>
      <trkpt lat="39.417092" lon="-8.468419">
        <ele>29.036</ele>
        <time>2015-03-20T12:21:18Z</time>
      </trkpt>
      <trkpt lat="39.417558" lon="-8.467949">
        <ele>28.539</ele>
        <time>2015-03-20T12:21:34Z</time>
      </trkpt>
      <trkpt lat="39.418107" lon="-8.467470">
        <ele>28.031</ele>
        <time>2015-03-20T12:21:52Z</time>
      </trkpt>
      <trkpt lat="39.418623" lon="-8.467143">
        <ele>29.051</ele>
        <time>2015-03-20T12:22:08Z</time>
      </trkpt>
      <trkpt lat="39.418658" lon="-8.466795">
        <ele>29.019</ele>
        <time>2015-03-20T12:22:17Z</time>
      </trkpt>
      <trkpt lat="39.418309" lon="-8.466462">
        <ele>27.564</ele>
        <time>2015-03-20T12:22:27Z</time>
      </trkpt>
      <trkpt lat="39.417751" lon="-8.465937">
        <ele>27.161</ele>
        <time>2015-03-20T12:22:44Z</time>
      </trkpt>
      <trkpt lat="39.417678" lon="-8.465847">
        <ele>27.188</ele>
        <time>2015-03-20T12:22:47Z</time>
      </trkpt>
      <trkpt lat="39.417806" lon="-8.465672">
        <ele>26.624</ele>
        <time>2015-03-20T12:22:54Z</time>
      </trkpt>
      <trkpt lat="39.418521" lon="-8.465458">
        <ele>26.126</ele>
        <time>2015-03-20T12:23:14Z</time>
      </trkpt>
      <trkpt lat="39.419249" lon="-8.465241">
        <ele>25.607</ele>
        <time>2015-03-20T12:23:34Z</time>
      </trkpt>
      <trkpt lat="39.419887" lon="-8.464815">
        <ele>25.687</ele>
        <time>2015-03-20T12:23:53Z</time>
      </trkpt>
      <trkpt lat="39.420541" lon="-8.464210">
        <ele>26.690</ele>
        <time>2015-03-20T12:24:15Z</time>
      </trkpt>
      <trkpt lat="39.421286" lon="-8.463757">
        <ele>27.142</ele>
        <time>2015-03-20T12:24:36Z</time>
      </trkpt>
      <trkpt lat="39.421986" lon="-8.463406">
        <ele>27.142</ele>
        <time>2015-03-20T12:24:55Z</time>
      </trkpt>
      <trkpt lat="39.422743" lon="-8.462913">
        <ele>27.110</ele>
        <time>2015-03-20T12:25:16Z</time>
      </trkpt>
      <trkpt lat="39.423476" lon="-8.462448">
        <ele>25.645</ele>
        <time>2015-03-20T12:25:36Z</time>
      </trkpt>
      <trkpt lat="39.424248" lon="-8.462181">
        <ele>25.692</ele>
        <time>2015-03-20T12:25:56Z</time>
      </trkpt>
      <trkpt lat="39.425064" lon="-8.462025">
        <ele>25.186</ele>
        <time>2015-03-20T12:26:16Z</time>
      </trkpt>
      <trkpt lat="39.425839" lon="-8.461891">
        <ele>25.160</ele>
        <time>2015-03-20T12:26:35Z</time>
      </trkpt>
      <trkpt lat="39.425919" lon="-8.461877">
        <ele>26.626</ele>
        <time>2015-03-20T12:26:37Z</time>
      </trkpt>
      <trkpt lat="39.426199" lon="-8.461836">
        <ele>27.107</ele>
        <time>2015-03-20T12:26:44Z</time>
      </trkpt>
      <trkpt lat="39.427002" lon="-8.461613">
        <ele>25.117</ele>
        <time>2015-03-20T12:27:04Z</time>
      </trkpt>
      <trkpt lat="39.427685" lon="-8.461406">
        <ele>25.180</ele>
        <time>2015-03-20T12:27:22Z</time>
      </trkpt>
      <trkpt lat="39.428251" lon="-8.461129">
        <ele>25.162</ele>
        <time>2015-03-20T12:27:37Z</time>
      </trkpt>
      <trkpt lat="39.428551" lon="-8.461008">
        <ele>26.642</ele>
        <time>2015-03-20T12:27:45Z</time>
      </trkpt>
      <trkpt lat="39.428789" lon="-8.460946">
        <ele>26.630</ele>
        <time>2015-03-20T12:27:51Z</time>
      </trkpt>
      <trkpt lat="39.429532" lon="-8.460669">
        <ele>26.695</ele>
        <time>2015-03-20T12:28:11Z</time>
      </trkpt>
      <trkpt lat="39.430076" lon="-8.460383">
        <ele>26.622</ele>
        <time>2015-03-20T12:28:26Z</time>
      </trkpt>
      <trkpt lat="39.430511" lon="-8.460215">
        <ele>26.611</ele>
        <time>2015-03-20T12:28:37Z</time>
      </trkpt>
      <trkpt lat="39.431183" lon="-8.460344">
        <ele>26.621</ele>
        <time>2015-03-20T12:28:54Z</time>
      </trkpt>
      <trkpt lat="39.431898" lon="-8.460800">
        <ele>26.603</ele>
        <time>2015-03-20T12:29:13Z</time>
      </trkpt>
      <trkpt lat="39.432722" lon="-8.461298">
        <ele>26.607</ele>
        <time>2015-03-20T12:29:35Z</time>
      </trkpt>
      <trkpt lat="39.432881" lon="-8.461302">
        <ele>26.660</ele>
        <time>2015-03-20T12:29:44Z</time>
      </trkpt>
      <trkpt lat="39.433262" lon="-8.461264">
        <ele>27.163</ele>
        <time>2015-03-20T12:30:42Z</time>
      </trkpt>
      <trkpt lat="39.434153" lon="-8.461109">
        <ele>27.115</ele>
        <time>2015-03-20T12:31:04Z</time>
      </trkpt>
      <trkpt lat="39.434890" lon="-8.460910">
        <ele>27.195</ele>
        <time>2015-03-20T12:31:23Z</time>
      </trkpt>
      <trkpt lat="39.435476" lon="-8.460327">
        <ele>27.543</ele>
        <time>2015-03-20T12:31:42Z</time>
      </trkpt>
      <trkpt lat="39.435946" lon="-8.459821">
        <ele>27.568</ele>
        <time>2015-03-20T12:31:59Z</time>
      </trkpt>
      <trkpt lat="39.436534" lon="-8.459198">
        <ele>27.515</ele>
        <time>2015-03-20T12:32:19Z</time>
      </trkpt>
      <trkpt lat="39.437216" lon="-8.458352">
        <ele>27.522</ele>
        <time>2015-03-20T12:32:43Z</time>
      </trkpt>
      <trkpt lat="39.437727" lon="-8.457598">
        <ele>27.562</ele>
        <time>2015-03-20T12:33:02Z</time>
      </trkpt>
      <trkpt lat="39.438216" lon="-8.456847">
        <ele>27.108</ele>
        <time>2015-03-20T12:33:21Z</time>
      </trkpt>
      <trkpt lat="39.438737" lon="-8.456051">
        <ele>27.107</ele>
        <time>2015-03-20T12:33:41Z</time>
      </trkpt>
      <trkpt lat="39.439109" lon="-8.455510">
        <ele>27.511</ele>
        <time>2015-03-20T12:33:57Z</time>
      </trkpt>
      <trkpt lat="39.439588" lon="-8.454836">
        <ele>27.564</ele>
        <time>2015-03-20T12:34:16Z</time>
      </trkpt>
      <trkpt lat="39.439968" lon="-8.454352">
        <ele>30.476</ele>
        <time>2015-03-20T12:34:32Z</time>
      </trkpt>
      <trkpt lat="39.440070" lon="-8.454161">
        <ele>30.466</ele>
        <time>2015-03-20T12:34:41Z</time>
      </trkpt>
      <trkpt lat="39.440024" lon="-8.454162">
        <ele>30.464</ele>
        <time>2015-03-20T12:34:48Z</time>
      </trkpt>
      <trkpt lat="39.440022" lon="-8.454085">
        <ele>30.459</ele>
        <time>2015-03-20T12:34:50Z</time>
      </trkpt>
      <trkpt lat="39.440066" lon="-8.453309">
        <ele>30.956</ele>
        <time>2015-03-20T12:35:08Z</time>
      </trkpt>
      <trkpt lat="39.440108" lon="-8.452634">
        <ele>31.426</ele>
        <time>2015-03-20T12:35:23Z</time>
      </trkpt>
      <trkpt lat="39.440348" lon="-8.452338">
        <ele>31.447</ele>
        <time>2015-03-20T12:35:35Z</time>
      </trkpt>
      <trkpt lat="39.440863" lon="-8.452342">
        <ele>30.911</ele>
        <time>2015-03-20T12:35:49Z</time>
      </trkpt>
      <trkpt lat="39.441493" lon="-8.452545">
        <ele>30.907</ele>
        <time>2015-03-20T12:36:06Z</time>
      </trkpt>
      <trkpt lat="39.442077" lon="-8.452217">
        <ele>30.911</ele>
        <time>2015-03-20T12:36:22Z</time>
      </trkpt>
      <trkpt lat="39.442709" lon="-8.451842">
        <ele>31.444</ele>
        <time>2015-03-20T12:36:39Z</time>
      </trkpt>
      <trkpt lat="39.443220" lon="-8.451549">
        <ele>31.456</ele>
        <time>2015-03-20T12:36:53Z</time>
      </trkpt>
      <trkpt lat="39.443799" lon="-8.451207">
        <ele>31.486</ele>
        <time>2015-03-20T12:37:09Z</time>
      </trkpt>
      <trkpt lat="39.444295" lon="-8.450892">
        <ele>30.464</ele>
        <time>2015-03-20T12:37:24Z</time>
      </trkpt>
      <trkpt lat="39.444618" lon="-8.450329">
        <ele>30.439</ele>
        <time>2015-03-20T12:37:38Z</time>
      </trkpt>
      <trkpt lat="39.444621" lon="-8.450263">
        <ele>30.476</ele>
        <time>2015-03-20T12:37:52Z</time>
      </trkpt>
      <trkpt lat="39.444890" lon="-8.449931">
        <ele>29.521</ele>
        <time>2015-03-20T12:38:27Z</time>
      </trkpt>
      <trkpt lat="39.444933" lon="-8.449795">
        <ele>29.541</ele>
        <time>2015-03-20T12:39:55Z</time>
      </trkpt>
      <trkpt lat="39.445147" lon="-8.449443">
        <ele>29.005</ele>
        <time>2015-03-20T12:40:07Z</time>
      </trkpt>
      <trkpt lat="39.445398" lon="-8.449005">
        <ele>26.107</ele>
        <time>2015-03-20T12:40:18Z</time>
      </trkpt>
      <trkpt lat="39.445449" lon="-8.448894">
        <ele>25.671</ele>
        <time>2015-03-20T12:40:27Z</time>
      </trkpt>
      <trkpt lat="39.445729" lon="-8.448788">
        <ele>24.744</ele>
        <time>2015-03-20T12:41:47Z</time>
      </trkpt>
      <trkpt lat="39.446179" lon="-8.448908">
        <ele>24.736</ele>
        <time>2015-03-20T12:42:01Z</time>
      </trkpt>
      <trkpt lat="39.446442" lon="-8.448988">
        <ele>26.116</ele>
        <time>2015-03-20T12:42:09Z</time>
      </trkpt>
      <trkpt lat="39.446862" lon="-8.449238">
        <ele>25.644</ele>
        <time>2015-03-20T12:42:23Z</time>
      </trkpt>
      <trkpt lat="39.447023" lon="-8.449547">
        <ele>25.629</ele>
        <time>2015-03-20T12:42:30Z</time>
      </trkpt>
      <trkpt lat="39.447124" lon="-8.449713">
        <ele>25.636</ele>
        <time>2015-03-20T12:42:34Z</time>
      </trkpt>
      <trkpt lat="39.447579" lon="-8.449959">
        <ele>25.674</ele>
        <time>2015-03-20T12:42:46Z</time>
      </trkpt>
      <trkpt lat="39.448469" lon="-8.449941">
        <ele>26.656</ele>
        <time>2015-03-20T12:43:09Z</time>
      </trkpt>
      <trkpt lat="39.449103" lon="-8.449926">
        <ele>26.121</ele>
        <time>2015-03-20T12:43:25Z</time>
      </trkpt>
      <trkpt lat="39.449334" lon="-8.449858">
        <ele>26.107</ele>
        <time>2015-03-20T12:43:31Z</time>
      </trkpt>
      <trkpt lat="39.449842" lon="-8.449384">
        <ele>26.196</ele>
        <time>2015-03-20T12:43:47Z</time>
      </trkpt>
      <trkpt lat="39.450357" lon="-8.448854">
        <ele>26.119</ele>
        <time>2015-03-20T12:44:04Z</time>
      </trkpt>
      <trkpt lat="39.450937" lon="-8.448239">
        <ele>26.641</ele>
        <time>2015-03-20T12:44:23Z</time>
      </trkpt>
      <trkpt lat="39.451438" lon="-8.447598">
        <ele>27.151</ele>
        <time>2015-03-20T12:44:41Z</time>
      </trkpt>
      <trkpt lat="39.451907" lon="-8.446913">
        <ele>27.189</ele>
        <time>2015-03-20T12:44:59Z</time>
      </trkpt>
      <trkpt lat="39.452200" lon="-8.446578">
        <ele>27.194</ele>
        <time>2015-03-20T12:45:09Z</time>
      </trkpt>
      <trkpt lat="39.452616" lon="-8.446544">
        <ele>27.531</ele>
        <time>2015-03-20T12:45:21Z</time>
      </trkpt>
      <trkpt lat="39.453022" lon="-8.446413">
        <ele>29.599</ele>
        <time>2015-03-20T12:45:35Z</time>
      </trkpt>
      <trkpt lat="39.453503" lon="-8.445993">
        <ele>30.407</ele>
        <time>2015-03-20T12:45:51Z</time>
      </trkpt>
      <trkpt lat="39.453814" lon="-8.445705">
        <ele>30.427</ele>
        <time>2015-03-20T12:46:01Z</time>
      </trkpt>
      <trkpt lat="39.454419" lon="-8.445124">
        <ele>31.407</ele>
        <time>2015-03-20T12:46:20Z</time>
      </trkpt>
      <trkpt lat="39.455030" lon="-8.444514">
        <ele>31.988</ele>
        <time>2015-03-20T12:46:39Z</time>
      </trkpt>
      <trkpt lat="39.455220" lon="-8.444325">
        <ele>31.911</ele>
        <time>2015-03-20T12:46:45Z</time>
      </trkpt>
      <trkpt lat="39.455387" lon="-8.444165">
        <ele>31.933</ele>
        <time>2015-03-20T12:46:50Z</time>
      </trkpt>
      <trkpt lat="39.455915" lon="-8.443868">
        <ele>31.463</ele>
        <time>2015-03-20T12:47:05Z</time>
      </trkpt>
      <trkpt lat="39.456342" lon="-8.443607">
        <ele>31.481</ele>
        <time>2015-03-20T12:47:18Z</time>
      </trkpt>
      <trkpt lat="39.456669" lon="-8.443534">
        <ele>31.446</ele>
        <time>2015-03-20T12:47:26Z</time>
      </trkpt>
      <trkpt lat="39.456931" lon="-8.443398">
        <ele>30.473</ele>
        <time>2015-03-20T12:47:32Z</time>
      </trkpt>
      <trkpt lat="39.457153" lon="-8.443184">
        <ele>29.031</ele>
        <time>2015-03-20T12:47:37Z</time>
      </trkpt>
      <trkpt lat="39.457779" lon="-8.442994">
        <ele>28.561</ele>
        <time>2015-03-20T12:47:50Z</time>
      </trkpt>
      <trkpt lat="39.458089" lon="-8.442980">
        <ele>28.507</ele>
        <time>2015-03-20T12:47:57Z</time>
      </trkpt>
      <trkpt lat="39.458929" lon="-8.443006">
        <ele>29.907</ele>
        <time>2015-03-20T12:48:18Z</time>
      </trkpt>
      <trkpt lat="39.459447" lon="-8.443043">
        <ele>31.462</ele>
        <time>2015-03-20T12:48:33Z</time>
      </trkpt>
      <trkpt lat="39.460007" lon="-8.443123">
        <ele>32.885</ele>
        <time>2015-03-20T12:48:50Z</time>
      </trkpt>
      <trkpt lat="39.460590" lon="-8.443163">
        <ele>34.777</ele>
        <time>2015-03-20T12:49:07Z</time>
      </trkpt>
      <trkpt lat="39.461141" lon="-8.443102">
        <ele>36.717</ele>
        <time>2015-03-20T12:49:23Z</time>
      </trkpt>
      <trkpt lat="39.461722" lon="-8.442970">
        <ele>38.145</ele>
        <time>2015-03-20T12:49:40Z</time>
      </trkpt>
      <trkpt lat="39.462105" lon="-8.442852">
        <ele>38.610</ele>
        <time>2015-03-20T12:49:54Z</time>
      </trkpt>
      <trkpt lat="39.462546" lon="-8.442622">
        <ele>39.637</ele>
        <time>2015-03-20T12:50:08Z</time>
      </trkpt>
      <trkpt lat="39.462945" lon="-8.442355">
        <ele>39.685</ele>
        <time>2015-03-20T12:50:22Z</time>
      </trkpt>
      <trkpt lat="39.463184" lon="-8.442230">
        <ele>41.089</ele>
        <time>2015-03-20T12:50:32Z</time>
      </trkpt>
      <trkpt lat="39.463501" lon="-8.442048">
        <ele>42.917</ele>
        <time>2015-03-20T12:50:46Z</time>
      </trkpt>
      <trkpt lat="39.463549" lon="-8.442039">
        <ele>42.907</ele>
        <time>2015-03-20T12:51:06Z</time>
      </trkpt>
      <trkpt lat="39.463623" lon="-8.442070">
        <ele>43.447</ele>
        <time>2015-03-20T12:51:13Z</time>
      </trkpt>
      <trkpt lat="39.463691" lon="-8.442125">
        <ele>43.460</ele>
        <time>2015-03-20T12:51:27Z</time>
      </trkpt>
      <trkpt lat="39.463821" lon="-8.442261">
        <ele>43.412</ele>
        <time>2015-03-20T12:51:36Z</time>
      </trkpt>
      <trkpt lat="39.464202" lon="-8.442523">
        <ele>42.992</ele>
        <time>2015-03-20T12:51:48Z</time>
      </trkpt>
      <trkpt lat="39.464759" lon="-8.442995">
        <ele>42.990</ele>
        <time>2015-03-20T12:52:06Z</time>
      </trkpt>
      <trkpt lat="39.465332" lon="-8.443690">
        <ele>42.935</ele>
        <time>2015-03-20T12:52:27Z</time>
      </trkpt>
      <trkpt lat="39.465900" lon="-8.444410">
        <ele>43.492</ele>
        <time>2015-03-20T12:52:48Z</time>
      </trkpt>
      <trkpt lat="39.466449" lon="-8.445155">
        <ele>45.391</ele>
        <time>2015-03-20T12:53:11Z</time>
      </trkpt>
      <trkpt lat="39.466665" lon="-8.445473">
        <ele>47.281</ele>
        <time>2015-03-20T12:53:23Z</time>
      </trkpt>
      <trkpt lat="39.467176" lon="-8.445672">
        <ele>49.719</ele>
        <time>2015-03-20T12:53:40Z</time>
      </trkpt>
      <trkpt lat="39.467691" lon="-8.445872">
        <ele>53.007</ele>
        <time>2015-03-20T12:53:57Z</time>
      </trkpt>
      <trkpt lat="39.468278" lon="-8.446075">
        <ele>56.498</ele>
        <time>2015-03-20T12:54:16Z</time>
      </trkpt>
      <trkpt lat="39.468861" lon="-8.446151">
        <ele>58.891</ele>
        <time>2015-03-20T12:54:33Z</time>
      </trkpt>
      <trkpt lat="39.469452" lon="-8.446239">
        <ele>59.783</ele>
        <time>2015-03-20T12:54:50Z</time>
      </trkpt>
      <trkpt lat="39.469990" lon="-8.446507">
        <ele>60.253</ele>
        <time>2015-03-20T12:55:05Z</time>
      </trkpt>
      <trkpt lat="39.470211" lon="-8.446684">
        <ele>60.231</ele>
        <time>2015-03-20T12:55:12Z</time>
      </trkpt>
      <trkpt lat="39.470329" lon="-8.446842">
        <ele>60.256</ele>
        <time>2015-03-20T12:55:16Z</time>
      </trkpt>
      <trkpt lat="39.470888" lon="-8.447672">
        <ele>58.383</ele>
        <time>2015-03-20T12:55:35Z</time>
      </trkpt>
      <trkpt lat="39.471501" lon="-8.448487">
        <ele>57.855</ele>
        <time>2015-03-20T12:55:55Z</time>
      </trkpt>
      <trkpt lat="39.472168" lon="-8.449414">
        <ele>57.807</ele>
        <time>2015-03-20T12:56:17Z</time>
      </trkpt>
      <trkpt lat="39.472648" lon="-8.450309">
        <ele>56.917</ele>
        <time>2015-03-20T12:56:33Z</time>
      </trkpt>
      <trkpt lat="39.473218" lon="-8.450970">
        <ele>55.907</ele>
        <time>2015-03-20T12:56:48Z</time>
      </trkpt>
      <trkpt lat="39.474000" lon="-8.451442">
        <ele>57.354</ele>
        <time>2015-03-20T12:57:08Z</time>
      </trkpt>
      <trkpt lat="39.474695" lon="-8.451820">
        <ele>57.327</ele>
        <time>2015-03-20T12:57:25Z</time>
      </trkpt>
      <trkpt lat="39.474932" lon="-8.451930">
        <ele>57.399</ele>
        <time>2015-03-20T12:57:31Z</time>
      </trkpt>
      <trkpt lat="39.475677" lon="-8.452047">
        <ele>57.319</ele>
        <time>2015-03-20T12:57:49Z</time>
      </trkpt>
      <trkpt lat="39.476198" lon="-8.452110">
        <ele>57.847</ele>
        <time>2015-03-20T12:58:01Z</time>
      </trkpt>
      <trkpt lat="39.476943" lon="-8.452098">
        <ele>58.372</ele>
        <time>2015-03-20T12:58:19Z</time>
      </trkpt>
      <trkpt lat="39.477322" lon="-8.452039">
        <ele>61.239</ele>
        <time>2015-03-20T12:58:31Z</time>
      </trkpt>
      <trkpt lat="39.477605" lon="-8.452033">
        <ele>61.258</ele>
        <time>2015-03-20T12:58:41Z</time>
      </trkpt>
      <trkpt lat="39.478007" lon="-8.452151">
        <ele>61.752</ele>
        <time>2015-03-20T12:58:55Z</time>
      </trkpt>
      <trkpt lat="39.478068" lon="-8.452158">
        <ele>62.617</ele>
        <time>2015-03-20T13:05:38Z</time>
      </trkpt>
      <trkpt lat="39.478119" lon="-8.452135">
        <ele>62.607</ele>
        <time>2015-03-20T13:06:13Z</time>
      </trkpt>
      <trkpt lat="39.478183" lon="-8.452105">
        <ele>62.644</ele>
        <time>2015-03-20T13:11:14Z</time>
      </trkpt>
      <trkpt lat="39.478390" lon="-8.452046">
        <ele>63.617</ele>
        <time>2015-03-20T13:20:06Z</time>
      </trkpt>
      <trkpt lat="39.478871" lon="-8.452049">
        <ele>63.629</ele>
        <time>2015-03-20T13:20:22Z</time>
      </trkpt>
      <trkpt lat="39.479400" lon="-8.452055">
        <ele>65.569</ele>
        <time>2015-03-20T13:20:40Z</time>
      </trkpt>
      <trkpt lat="39.479909" lon="-8.452024">
        <ele>67.947</ele>
        <time>2015-03-20T13:21:00Z</time>
      </trkpt>
      <trkpt lat="39.480378" lon="-8.451925">
        <ele>69.432</ele>
        <time>2015-03-20T13:21:17Z</time>
      </trkpt>
      <trkpt lat="39.480799" lon="-8.451811">
        <ele>70.329</ele>
        <time>2015-03-20T13:21:32Z</time>
      </trkpt>
      <trkpt lat="39.481121" lon="-8.451667">
        <ele>72.242</ele>
        <time>2015-03-20T13:21:45Z</time>
      </trkpt>
      <trkpt lat="39.481472" lon="-8.451498">
        <ele>73.722</ele>
        <time>2015-03-20T13:22:02Z</time>
      </trkpt>
      <trkpt lat="39.481820" lon="-8.451322">
        <ele>75.614</ele>
        <time>2015-03-20T13:22:20Z</time>
      </trkpt>
      <trkpt lat="39.482148" lon="-8.451104">
        <ele>77.507</ele>
        <time>2015-03-20T13:22:37Z</time>
      </trkpt>
      <trkpt lat="39.482463" lon="-8.450875">
        <ele>79.553</ele>
        <time>2015-03-20T13:22:54Z</time>
      </trkpt>
      <trkpt lat="39.482747" lon="-8.450666">
        <ele>81.956</ele>
        <time>2015-03-20T13:23:14Z</time>
      </trkpt>
      <trkpt lat="39.482902" lon="-8.450537">
        <ele>82.328</ele>
        <time>2015-03-20T13:23:52Z</time>
      </trkpt>
      <trkpt lat="39.483170" lon="-8.450225">
        <ele>80.998</ele>
        <time>2015-03-20T13:24:02Z</time>
      </trkpt>
      <trkpt lat="39.483750" lon="-8.449492">
        <ele>77.026</ele>
        <time>2015-03-20T13:24:16Z</time>
      </trkpt>
      <trkpt lat="39.484369" lon="-8.448686">
        <ele>75.181</ele>
        <time>2015-03-20T13:24:31Z</time>
      </trkpt>
      <trkpt lat="39.484822" lon="-8.448068">
        <ele>76.628</ele>
        <time>2015-03-20T13:24:51Z</time>
      </trkpt>
      <trkpt lat="39.485276" lon="-8.447486">
        <ele>77.547</ele>
        <time>2015-03-20T13:25:10Z</time>
      </trkpt>
      <trkpt lat="39.485884" lon="-8.446691">
        <ele>74.629</ele>
        <time>2015-03-20T13:25:30Z</time>
      </trkpt>
      <trkpt lat="39.486387" lon="-8.445994">
        <ele>73.221</ele>
        <time>2015-03-20T13:25:48Z</time>
      </trkpt>
      <trkpt lat="39.486406" lon="-8.445940">
        <ele>74.607</ele>
        <time>2015-03-20T13:25:50Z</time>
      </trkpt>
      <trkpt lat="39.486333" lon="-8.445800">
        <ele>74.643</ele>
        <time>2015-03-20T13:25:57Z</time>
      </trkpt>
      <trkpt lat="39.486290" lon="-8.445416">
        <ele>77.036</ele>
        <time>2015-03-20T13:26:13Z</time>
      </trkpt>
      <trkpt lat="39.486198" lon="-8.444958">
        <ele>77.598</ele>
        <time>2015-03-20T13:26:29Z</time>
      </trkpt>
      <trkpt lat="39.486114" lon="-8.444473">
        <ele>78.528</ele>
        <time>2015-03-20T13:26:45Z</time>
      </trkpt>
      <trkpt lat="39.485952" lon="-8.444208">
        <ele>79.026</ele>
        <time>2015-03-20T13:26:54Z</time>
      </trkpt>
      <trkpt lat="39.485830" lon="-8.444055">
        <ele>77.551</ele>
        <time>2015-03-20T13:26:58Z</time>
      </trkpt>
      <trkpt lat="39.485558" lon="-8.443798">
        <ele>77.048</ele>
        <time>2015-03-20T13:27:10Z</time>
      </trkpt>
      <trkpt lat="39.485494" lon="-8.443547">
        <ele>79.915</ele>
        <time>2015-03-20T13:27:25Z</time>
      </trkpt>
      <trkpt lat="39.485494" lon="-8.443339">
        <ele>82.365</ele>
        <time>2015-03-20T13:27:38Z</time>
      </trkpt>
      <trkpt lat="39.485502" lon="-8.443253">
        <ele>83.311</ele>
        <time>2015-03-20T13:27:43Z</time>
      </trkpt>
      <trkpt lat="39.485560" lon="-8.442942">
        <ele>85.207</ele>
        <time>2015-03-20T13:28:00Z</time>
      </trkpt>
      <trkpt lat="39.485575" lon="-8.442764">
        <ele>86.210</ele>
        <time>2015-03-20T13:28:10Z</time>
      </trkpt>
      <trkpt lat="39.485527" lon="-8.442545">
        <ele>88.653</ele>
        <time>2015-03-20T13:28:24Z</time>
      </trkpt>
      <trkpt lat="39.485471" lon="-8.442298">
        <ele>90.555</ele>
        <time>2015-03-20T13:28:40Z</time>
      </trkpt>
      <trkpt lat="39.485381" lon="-8.442032">
        <ele>93.485</ele>
        <time>2015-03-20T13:28:56Z</time>
      </trkpt>
      <trkpt lat="39.485296" lon="-8.441729">
        <ele>94.413</ele>
        <time>2015-03-20T13:29:13Z</time>
      </trkpt>
      <trkpt lat="39.485248" lon="-8.441423">
        <ele>96.388</ele>
        <time>2015-03-20T13:29:29Z</time>
      </trkpt>
      <trkpt lat="39.485218" lon="-8.441319">
        <ele>96.875</ele>
        <time>2015-03-20T13:29:35Z</time>
      </trkpt>
      <trkpt lat="39.485196" lon="-8.441183">
        <ele>97.773</ele>
        <time>2015-03-20T13:29:42Z</time>
      </trkpt>
      <trkpt lat="39.485141" lon="-8.440868">
        <ele>100.185</ele>
        <time>2015-03-20T13:30:00Z</time>
      </trkpt>
      <trkpt lat="39.485126" lon="-8.440801">
        <ele>100.613</ele>
        <time>2015-03-20T13:30:04Z</time>
      </trkpt>
      <trkpt lat="39.484960" lon="-8.440609">
        <ele>102.007</ele>
        <time>2015-03-20T13:30:19Z</time>
      </trkpt>
      <trkpt lat="39.484838" lon="-8.440301">
        <ele>104.026</ele>
        <time>2015-03-20T13:30:37Z</time>
      </trkpt>
      <trkpt lat="39.484778" lon="-8.439903">
        <ele>104.439</ele>
        <time>2015-03-20T13:30:51Z</time>
      </trkpt>
      <trkpt lat="39.484736" lon="-8.439610">
        <ele>104.431</ele>
        <time>2015-03-20T13:31:04Z</time>
      </trkpt>
      <trkpt lat="39.484624" lon="-8.439351">
        <ele>106.421</ele>
        <time>2015-03-20T13:31:18Z</time>
      </trkpt>
      <trkpt lat="39.484622" lon="-8.439215">
        <ele>106.859</ele>
        <time>2015-03-20T13:31:25Z</time>
      </trkpt>
      <trkpt lat="39.484656" lon="-8.438913">
        <ele>108.824</ele>
        <time>2015-03-20T13:31:40Z</time>
      </trkpt>
      <trkpt lat="39.484740" lon="-8.438580">
        <ele>110.251</ele>
        <time>2015-03-20T13:31:56Z</time>
      </trkpt>
      <trkpt lat="39.484840" lon="-8.438409">
        <ele>111.748</ele>
        <time>2015-03-20T13:32:08Z</time>
      </trkpt>
      <trkpt lat="39.484961" lon="-8.438194">
        <ele>113.161</ele>
        <time>2015-03-20T13:32:22Z</time>
      </trkpt>
      <trkpt lat="39.485054" lon="-8.437960">
        <ele>115.017</ele>
        <time>2015-03-20T13:32:36Z</time>
      </trkpt>
      <trkpt lat="39.485115" lon="-8.437837">
        <ele>116.507</ele>
        <time>2015-03-20T13:32:45Z</time>
      </trkpt>
      <trkpt lat="39.485181" lon="-8.437712">
        <ele>117.933</ele>
        <time>2015-03-20T13:32:54Z</time>
      </trkpt>
      <trkpt lat="39.485217" lon="-8.437664">
        <ele>118.476</ele>
        <time>2015-03-20T13:32:58Z</time>
      </trkpt>
      <trkpt lat="39.485418" lon="-8.437456">
        <ele>119.828</ele>
        <time>2015-03-20T13:33:16Z</time>
      </trkpt>
      <trkpt lat="39.485587" lon="-8.437314">
        <ele>122.268</ele>
        <time>2015-03-20T13:33:31Z</time>
      </trkpt>
      <trkpt lat="39.485773" lon="-8.437193">
        <ele>124.226</ele>
        <time>2015-03-20T13:33:48Z</time>
      </trkpt>
      <trkpt lat="39.485838" lon="-8.437145">
        <ele>124.631</ele>
        <time>2015-03-20T13:33:54Z</time>
      </trkpt>
      <trkpt lat="39.485884" lon="-8.437102">
        <ele>125.628</ele>
        <time>2015-03-20T13:33:59Z</time>
      </trkpt>
      <trkpt lat="39.486097" lon="-8.436909">
        <ele>128.584</ele>
        <time>2015-03-20T13:34:18Z</time>
      </trkpt>
      <trkpt lat="39.486226" lon="-8.436829">
        <ele>127.007</ele>
        <time>2015-03-20T13:34:24Z</time>
      </trkpt>
      <trkpt lat="39.486394" lon="-8.436629">
        <ele>123.717</ele>
        <time>2015-03-20T13:34:33Z</time>
      </trkpt>
      <trkpt lat="39.486528" lon="-8.436057">
        <ele>120.807</ele>
        <time>2015-03-20T13:34:45Z</time>
      </trkpt>
      <trkpt lat="39.486548" lon="-8.435920">
        <ele>119.847</ele>
        <time>2015-03-20T13:34:48Z</time>
      </trkpt>
      <trkpt lat="39.486557" lon="-8.435796">
        <ele>117.940</ele>
        <time>2015-03-20T13:34:53Z</time>
      </trkpt>
      <trkpt lat="39.486533" lon="-8.435602">
        <ele>116.952</ele>
        <time>2015-03-20T13:35:18Z</time>
      </trkpt>
      <trkpt lat="39.486546" lon="-8.435065">
        <ele>114.542</ele>
        <time>2015-03-20T13:35:29Z</time>
      </trkpt>
      <trkpt lat="39.486782" lon="-8.434392">
        <ele>113.170</ele>
        <time>2015-03-20T13:35:42Z</time>
      </trkpt>
      <trkpt lat="39.486986" lon="-8.434081">
        <ele>112.115</ele>
        <time>2015-03-20T13:35:53Z</time>
      </trkpt>
      <trkpt lat="39.487274" lon="-8.433634">
        <ele>111.732</ele>
        <time>2015-03-20T13:36:05Z</time>
      </trkpt>
      <trkpt lat="39.487721" lon="-8.433233">
        <ele>111.232</ele>
        <time>2015-03-20T13:36:19Z</time>
      </trkpt>
      <trkpt lat="39.487842" lon="-8.433018">
        <ele>110.292</ele>
        <time>2015-03-20T13:36:23Z</time>
      </trkpt>
      <trkpt lat="39.488149" lon="-8.432764">
        <ele>110.211</ele>
        <time>2015-03-20T13:36:31Z</time>
      </trkpt>
      <trkpt lat="39.488311" lon="-8.432757">
        <ele>111.707</ele>
        <time>2015-03-20T13:36:36Z</time>
      </trkpt>
      <trkpt lat="39.488792" lon="-8.432563">
        <ele>110.252</ele>
        <time>2015-03-20T13:36:49Z</time>
      </trkpt>
      <trkpt lat="39.489028" lon="-8.432425">
        <ele>109.355</ele>
        <time>2015-03-20T13:36:55Z</time>
      </trkpt>
      <trkpt lat="39.489528" lon="-8.432213">
        <ele>109.397</ele>
        <time>2015-03-20T13:37:09Z</time>
      </trkpt>
      <trkpt lat="39.490276" lon="-8.432039">
        <ele>108.827</ele>
        <time>2015-03-20T13:37:27Z</time>
      </trkpt>
      <trkpt lat="39.490580" lon="-8.432227">
        <ele>107.865</ele>
        <time>2015-03-20T13:37:34Z</time>
      </trkpt>
      <trkpt lat="39.490635" lon="-8.432346">
        <ele>107.880</ele>
        <time>2015-03-20T13:37:36Z</time>
      </trkpt>
      <trkpt lat="39.490738" lon="-8.432688">
        <ele>105.947</ele>
        <time>2015-03-20T13:37:42Z</time>
      </trkpt>
      <trkpt lat="39.490877" lon="-8.432951">
        <ele>105.414</ele>
        <time>2015-03-20T13:37:47Z</time>
      </trkpt>
      <trkpt lat="39.490971" lon="-8.433106">
        <ele>104.954</ele>
        <time>2015-03-20T13:37:50Z</time>
      </trkpt>
      <trkpt lat="39.491034" lon="-8.433375">
        <ele>104.409</ele>
        <time>2015-03-20T13:37:55Z</time>
      </trkpt>
      <trkpt lat="39.491027" lon="-8.433521">
        <ele>103.507</ele>
        <time>2015-03-20T13:37:57Z</time>
      </trkpt>
      <trkpt lat="39.490988" lon="-8.433712">
        <ele>103.510</ele>
        <time>2015-03-20T13:38:00Z</time>
      </trkpt>
      <trkpt lat="39.490970" lon="-8.433783">
        <ele>102.573</ele>
        <time>2015-03-20T13:53:59Z</time>
      </trkpt>
      <trkpt lat="39.491070" lon="-8.433854">
        <ele>104.065</ele>
        <time>2015-03-20T13:54:07Z</time>
      </trkpt>
      <trkpt lat="39.491382" lon="-8.433743">
        <ele>107.385</ele>
        <time>2015-03-20T13:54:27Z</time>
      </trkpt>
      <trkpt lat="39.491623" lon="-8.433554">
        <ele>107.393</ele>
        <time>2015-03-20T13:54:41Z</time>
      </trkpt>
      <trkpt lat="39.491671" lon="-8.433508">
        <ele>105.958</ele>
        <time>2015-03-20T13:54:43Z</time>
      </trkpt>
      <trkpt lat="39.491811" lon="-8.433391">
        <ele>103.565</ele>
        <time>2015-03-20T13:54:53Z</time>
      </trkpt>
      <trkpt lat="39.491991" lon="-8.433148">
        <ele>103.575</ele>
        <time>2015-03-20T13:55:13Z</time>
      </trkpt>
      <trkpt lat="39.492031" lon="-8.433101">
        <ele>104.428</ele>
        <time>2015-03-20T13:55:17Z</time>
      </trkpt>
      <trkpt lat="39.492170" lon="-8.432928">
        <ele>105.420</ele>
        <time>2015-03-20T13:55:33Z</time>
      </trkpt>
      <trkpt lat="39.492243" lon="-8.432830">
        <ele>108.807</ele>
        <time>2015-03-20T13:55:45Z</time>
      </trkpt>
      <trkpt lat="39.492343" lon="-8.432738">
        <ele>112.176</ele>
        <time>2015-03-20T13:55:59Z</time>
      </trkpt>
      <trkpt lat="39.492381" lon="-8.432697">
        <ele>113.129</ele>
        <time>2015-03-20T13:56:13Z</time>
      </trkpt>
      <trkpt lat="39.492556" lon="-8.432531">
        <ele>116.061</ele>
        <time>2015-03-20T13:56:33Z</time>
      </trkpt>
      <trkpt lat="39.492705" lon="-8.432369">
        <ele>117.911</ele>
        <time>2015-03-20T13:56:52Z</time>
      </trkpt>
      <trkpt lat="39.492823" lon="-8.432208">
        <ele>120.879</ele>
        <time>2015-03-20T13:57:13Z</time>
      </trkpt>
      <trkpt lat="39.492906" lon="-8.432113">
        <ele>123.734</ele>
        <time>2015-03-20T13:57:27Z</time>
      </trkpt>
      <trkpt lat="39.492969" lon="-8.432039">
        <ele>125.681</ele>
        <time>2015-03-20T13:57:42Z</time>
      </trkpt>
      <trkpt lat="39.493041" lon="-8.431949">
        <ele>128.561</ele>
        <time>2015-03-20T13:57:59Z</time>
      </trkpt>
      <trkpt lat="39.493101" lon="-8.431871">
        <ele>131.821</ele>
        <time>2015-03-20T13:58:17Z</time>
      </trkpt>
      <trkpt lat="39.493168" lon="-8.431794">
        <ele>134.713</ele>
        <time>2015-03-20T13:58:32Z</time>
      </trkpt>
      <trkpt lat="39.493291" lon="-8.431688">
        <ele>137.607</ele>
        <time>2015-03-20T13:58:51Z</time>
      </trkpt>
      <trkpt lat="39.493466" lon="-8.431493">
        <ele>138.195</ele>
        <time>2015-03-20T13:59:11Z</time>
      </trkpt>
      <trkpt lat="39.493630" lon="-8.431278">
        <ele>138.618</ele>
        <time>2015-03-20T13:59:30Z</time>
      </trkpt>
      <trkpt lat="39.493680" lon="-8.431221">
        <ele>137.140</ele>
        <time>2015-03-20T13:59:35Z</time>
      </trkpt>
      <trkpt lat="39.493852" lon="-8.431038">
        <ele>134.220</ele>
        <time>2015-03-20T13:59:50Z</time>
      </trkpt>
      <trkpt lat="39.493979" lon="-8.430946">
        <ele>135.728</ele>
        <time>2015-03-20T14:00:03Z</time>
      </trkpt>
      <trkpt lat="39.494102" lon="-8.430827">
        <ele>139.193</ele>
        <time>2015-03-20T14:00:19Z</time>
      </trkpt>
      <trkpt lat="39.494212" lon="-8.430747">
        <ele>139.550</ele>
        <time>2015-03-20T14:00:34Z</time>
      </trkpt>
      <trkpt lat="39.494516" lon="-8.430335">
        <ele>138.139</ele>
        <time>2015-03-20T14:00:50Z</time>
      </trkpt>
      <trkpt lat="39.494792" lon="-8.430011">
        <ele>138.101</ele>
        <time>2015-03-20T14:01:04Z</time>
      </trkpt>
      <trkpt lat="39.495076" lon="-8.429665">
        <ele>138.121</ele>
        <time>2015-03-20T14:01:18Z</time>
      </trkpt>
      <trkpt lat="39.495265" lon="-8.429370">
        <ele>136.207</ele>
        <time>2015-03-20T14:01:26Z</time>
      </trkpt>
      <trkpt lat="39.495422" lon="-8.429230">
        <ele>134.242</ele>
        <time>2015-03-20T14:01:30Z</time>
      </trkpt>
      <trkpt lat="39.495546" lon="-8.429090">
        <ele>133.395</ele>
        <time>2015-03-20T14:01:33Z</time>
      </trkpt>
      <trkpt lat="39.495844" lon="-8.428732">
        <ele>133.357</ele>
        <time>2015-03-20T14:01:44Z</time>
      </trkpt>
      <trkpt lat="39.495928" lon="-8.428630">
        <ele>134.787</ele>
        <time>2015-03-20T14:01:49Z</time>
      </trkpt>
      <trkpt lat="39.496226" lon="-8.428268">
        <ele>136.275</ele>
        <time>2015-03-20T14:02:06Z</time>
      </trkpt>
      <trkpt lat="39.496488" lon="-8.427936">
        <ele>137.660</ele>
        <time>2015-03-20T14:02:21Z</time>
      </trkpt>
      <trkpt lat="39.496744" lon="-8.427415">
        <ele>138.167</ele>
        <time>2015-03-20T14:02:39Z</time>
      </trkpt>
      <trkpt lat="39.496796" lon="-8.426897">
        <ele>138.172</ele>
        <time>2015-03-20T14:02:53Z</time>
      </trkpt>
      <trkpt lat="39.496856" lon="-8.426254">
        <ele>139.113</ele>
        <time>2015-03-20T14:03:12Z</time>
      </trkpt>
      <trkpt lat="39.496889" lon="-8.425882">
        <ele>141.514</ele>
        <time>2015-03-20T14:03:26Z</time>
      </trkpt>
      <trkpt lat="39.496934" lon="-8.425366">
        <ele>142.907</ele>
        <time>2015-03-20T14:03:45Z</time>
      </trkpt>
      <trkpt lat="39.496974" lon="-8.424790">
        <ele>143.976</ele>
        <time>2015-03-20T14:04:04Z</time>
      </trkpt>
      <trkpt lat="39.496985" lon="-8.424176">
        <ele>144.869</ele>
        <time>2015-03-20T14:04:23Z</time>
      </trkpt>
      <trkpt lat="39.496982" lon="-8.424080">
        <ele>146.351</ele>
        <time>2015-03-20T14:04:26Z</time>
      </trkpt>
      <trkpt lat="39.496992" lon="-8.423598">
        <ele>147.781</ele>
        <time>2015-03-20T14:04:43Z</time>
      </trkpt>
      <trkpt lat="39.497075" lon="-8.423506">
        <ele>147.799</ele>
        <time>2015-03-20T14:04:49Z</time>
      </trkpt>
      <trkpt lat="39.497194" lon="-8.423513">
        <ele>148.224</ele>
        <time>2015-03-20T14:04:56Z</time>
      </trkpt>
      <trkpt lat="39.497204" lon="-8.423425">
        <ele>146.761</ele>
        <time>2015-03-20T14:05:01Z</time>
      </trkpt>
      <trkpt lat="39.497156" lon="-8.423212">
        <ele>143.915</ele>
        <time>2015-03-20T14:05:08Z</time>
      </trkpt>
      <trkpt lat="39.497185" lon="-8.422950">
        <ele>140.565</ele>
        <time>2015-03-20T14:05:15Z</time>
      </trkpt>
      <trkpt lat="39.497323" lon="-8.422678">
        <ele>137.111</ele>
        <time>2015-03-20T14:05:24Z</time>
      </trkpt>
      <trkpt lat="39.497504" lon="-8.422483">
        <ele>133.807</ele>
        <time>2015-03-20T14:05:35Z</time>
      </trkpt>
      <trkpt lat="39.497586" lon="-8.422369">
        <ele>130.450</ele>
        <time>2015-03-20T14:05:41Z</time>
      </trkpt>
      <trkpt lat="39.497702" lon="-8.422255">
        <ele>128.063</ele>
        <time>2015-03-20T14:05:47Z</time>
      </trkpt>
      <trkpt lat="39.497865" lon="-8.422061">
        <ele>124.645</ele>
        <time>2015-03-20T14:05:56Z</time>
      </trkpt>
      <trkpt lat="39.498029" lon="-8.421863">
        <ele>121.745</ele>
        <time>2015-03-20T14:06:05Z</time>
      </trkpt>
      <trkpt lat="39.498156" lon="-8.421701">
        <ele>119.873</ele>
        <time>2015-03-20T14:06:17Z</time>
      </trkpt>
      <trkpt lat="39.498222" lon="-8.421619">
        <ele>119.868</ele>
        <time>2015-03-20T14:06:23Z</time>
      </trkpt>
      <trkpt lat="39.498409" lon="-8.421412">
        <ele>118.975</ele>
        <time>2015-03-20T14:06:38Z</time>
      </trkpt>
      <trkpt lat="39.498587" lon="-8.421202">
        <ele>118.411</ele>
        <time>2015-03-20T14:06:50Z</time>
      </trkpt>
      <trkpt lat="39.498824" lon="-8.420885">
        <ele>114.521</ele>
        <time>2015-03-20T14:07:03Z</time>
      </trkpt>
      <trkpt lat="39.498953" lon="-8.420741">
        <ele>112.603</ele>
        <time>2015-03-20T14:07:09Z</time>
      </trkpt>
      <trkpt lat="39.499040" lon="-8.420651">
        <ele>109.307</ele>
        <time>2015-03-20T14:07:13Z</time>
      </trkpt>
      <trkpt lat="39.499191" lon="-8.420511">
        <ele>105.470</ele>
        <time>2015-03-20T14:07:21Z</time>
      </trkpt>
      <trkpt lat="39.499421" lon="-8.420226">
        <ele>105.443</ele>
        <time>2015-03-20T14:07:36Z</time>
      </trkpt>
      <trkpt lat="39.499765" lon="-8.419834">
        <ele>102.555</ele>
        <time>2015-03-20T14:07:53Z</time>
      </trkpt>
      <trkpt lat="39.499824" lon="-8.419780">
        <ele>102.535</ele>
        <time>2015-03-20T14:08:04Z</time>
      </trkpt>
      <trkpt lat="39.499851" lon="-8.419721">
        <ele>102.573</ele>
        <time>2015-03-20T14:08:09Z</time>
      </trkpt>
      <trkpt lat="39.499943" lon="-8.419589">
        <ele>104.048</ele>
        <time>2015-03-20T14:08:22Z</time>
      </trkpt>
      <trkpt lat="39.499997" lon="-8.419535">
        <ele>104.465</ele>
        <time>2015-03-20T14:08:28Z</time>
      </trkpt>
      <trkpt lat="39.500051" lon="-8.419470">
        <ele>104.917</ele>
        <time>2015-03-20T14:08:34Z</time>
      </trkpt>
      <trkpt lat="39.500192" lon="-8.419296">
        <ele>105.487</ele>
        <time>2015-03-20T14:08:51Z</time>
      </trkpt>
      <trkpt lat="39.500309" lon="-8.419139">
        <ele>108.315</ele>
        <time>2015-03-20T14:09:08Z</time>
      </trkpt>
      <trkpt lat="39.500462" lon="-8.418961">
        <ele>110.707</ele>
        <time>2015-03-20T14:09:27Z</time>
      </trkpt>
      <trkpt lat="39.500581" lon="-8.418815">
        <ele>111.260</ele>
        <time>2015-03-20T14:09:45Z</time>
      </trkpt>
      <trkpt lat="39.500690" lon="-8.418666">
        <ele>111.233</ele>
        <time>2015-03-20T14:09:56Z</time>
      </trkpt>
      <trkpt lat="39.500838" lon="-8.418404">
        <ele>113.175</ele>
        <time>2015-03-20T14:10:09Z</time>
      </trkpt>
      <trkpt lat="39.501139" lon="-8.418140">
        <ele>111.265</ele>
        <time>2015-03-20T14:10:23Z</time>
      </trkpt>
      <trkpt lat="39.501254" lon="-8.417984">
        <ele>114.543</ele>
        <time>2015-03-20T14:10:35Z</time>
      </trkpt>
      <trkpt lat="39.501419" lon="-8.417745">
        <ele>116.088</ele>
        <time>2015-03-20T14:10:51Z</time>
      </trkpt>
      <trkpt lat="39.501597" lon="-8.417476">
        <ele>115.545</ele>
        <time>2015-03-20T14:11:03Z</time>
      </trkpt>
      <trkpt lat="39.501797" lon="-8.416979">
        <ele>115.562</ele>
        <time>2015-03-20T14:11:19Z</time>
      </trkpt>
      <trkpt lat="39.502085" lon="-8.416497">
        <ele>113.683</ele>
        <time>2015-03-20T14:11:34Z</time>
      </trkpt>
      <trkpt lat="39.502332" lon="-8.416498">
        <ele>110.211</ele>
        <time>2015-03-20T14:11:40Z</time>
      </trkpt>
      <trkpt lat="39.502563" lon="-8.416526">
        <ele>106.807</ele>
        <time>2015-03-20T14:11:44Z</time>
      </trkpt>
      <trkpt lat="39.502623" lon="-8.416529">
        <ele>105.985</ele>
        <time>2015-03-20T14:11:45Z</time>
      </trkpt>
      <trkpt lat="39.502724" lon="-8.416511">
        <ele>105.478</ele>
        <time>2015-03-20T14:11:47Z</time>
      </trkpt>
      <trkpt lat="39.502835" lon="-8.416316">
        <ele>104.030</ele>
        <time>2015-03-20T14:11:52Z</time>
      </trkpt>
      <trkpt lat="39.502898" lon="-8.415745">
        <ele>102.030</ele>
        <time>2015-03-20T14:12:02Z</time>
      </trkpt>
      <trkpt lat="39.503033" lon="-8.415340">
        <ele>99.228</ele>
        <time>2015-03-20T14:12:08Z</time>
      </trkpt>
      <trkpt lat="39.503116" lon="-8.415218">
        <ele>98.283</ele>
        <time>2015-03-20T14:12:10Z</time>
      </trkpt>
      <trkpt lat="39.503257" lon="-8.415085">
        <ele>96.850</ele>
        <time>2015-03-20T14:12:13Z</time>
      </trkpt>
      <trkpt lat="39.503304" lon="-8.415069">
        <ele>95.849</ele>
        <time>2015-03-20T14:12:14Z</time>
      </trkpt>
      <trkpt lat="39.503624" lon="-8.415068">
        <ele>93.402</ele>
        <time>2015-03-20T14:12:20Z</time>
      </trkpt>
      <trkpt lat="39.503987" lon="-8.415010">
        <ele>92.422</ele>
        <time>2015-03-20T14:12:28Z</time>
      </trkpt>
      <trkpt lat="39.504253" lon="-8.414973">
        <ele>90.007</ele>
        <time>2015-03-20T14:12:33Z</time>
      </trkpt>
      <trkpt lat="39.504434" lon="-8.414827">
        <ele>87.643</ele>
        <time>2015-03-20T14:12:42Z</time>
      </trkpt>
      <trkpt lat="39.504167" lon="-8.414247">
        <ele>86.246</ele>
        <time>2015-03-20T14:12:57Z</time>
      </trkpt>
      <trkpt lat="39.504034" lon="-8.413854">
        <ele>86.768</ele>
        <time>2015-03-20T14:13:07Z</time>
      </trkpt>
      <trkpt lat="39.503868" lon="-8.413354">
        <ele>87.148</ele>
        <time>2015-03-20T14:13:24Z</time>
      </trkpt>
      <trkpt lat="39.503727" lon="-8.412950">
        <ele>89.176</ele>
        <time>2015-03-20T14:13:42Z</time>
      </trkpt>
      <trkpt lat="39.503620" lon="-8.412621">
        <ele>90.561</ele>
        <time>2015-03-20T14:13:59Z</time>
      </trkpt>
      <trkpt lat="39.503546" lon="-8.412425">
        <ele>91.928</ele>
        <time>2015-03-20T14:14:10Z</time>
      </trkpt>
      <trkpt lat="39.503427" lon="-8.412154">
        <ele>94.426</ele>
        <time>2015-03-20T14:14:27Z</time>
      </trkpt>
      <trkpt lat="39.503340" lon="-8.411934">
        <ele>97.247</ele>
        <time>2015-03-20T14:14:42Z</time>
      </trkpt>
      <trkpt lat="39.503278" lon="-8.411782">
        <ele>99.211</ele>
        <time>2015-03-20T14:14:53Z</time>
      </trkpt>
      <trkpt lat="39.503263" lon="-8.411556">
        <ele>102.507</ele>
        <time>2015-03-20T14:15:08Z</time>
      </trkpt>
      <trkpt lat="39.503369" lon="-8.411246">
        <ele>103.551</ele>
        <time>2015-03-20T14:15:25Z</time>
      </trkpt>
      <trkpt lat="39.503446" lon="-8.410867">
        <ele>103.524</ele>
        <time>2015-03-20T14:15:40Z</time>
      </trkpt>
      <trkpt lat="39.503509" lon="-8.410575">
        <ele>105.456</ele>
        <time>2015-03-20T14:15:55Z</time>
      </trkpt>
      <trkpt lat="39.503559" lon="-8.410282">
        <ele>108.866</ele>
        <time>2015-03-20T14:16:12Z</time>
      </trkpt>
      <trkpt lat="39.503527" lon="-8.410028">
        <ele>111.224</ele>
        <time>2015-03-20T14:16:28Z</time>
      </trkpt>
      <trkpt lat="39.503508" lon="-8.409889">
        <ele>112.619</ele>
        <time>2015-03-20T14:16:37Z</time>
      </trkpt>
      <trkpt lat="39.503490" lon="-8.409739">
        <ele>114.136</ele>
        <time>2015-03-20T14:16:48Z</time>
      </trkpt>
      <trkpt lat="39.503493" lon="-8.409504">
        <ele>116.045</ele>
        <time>2015-03-20T14:17:03Z</time>
      </trkpt>
      <trkpt lat="39.503527" lon="-8.409267">
        <ele>119.347</ele>
        <time>2015-03-20T14:17:19Z</time>
      </trkpt>
      <trkpt lat="39.503551" lon="-8.409122">
        <ele>120.811</ele>
        <time>2015-03-20T14:17:29Z</time>
      </trkpt>
      <trkpt lat="39.503656" lon="-8.408837">
        <ele>122.207</ele>
        <time>2015-03-20T14:17:49Z</time>
      </trkpt>
      <trkpt lat="39.503740" lon="-8.408670">
        <ele>125.653</ele>
        <time>2015-03-20T14:18:02Z</time>
      </trkpt>
      <trkpt lat="39.503820" lon="-8.408424">
        <ele>126.646</ele>
        <time>2015-03-20T14:18:18Z</time>
      </trkpt>
      <trkpt lat="39.503881" lon="-8.408190">
        <ele>128.018</ele>
        <time>2015-03-20T14:18:33Z</time>
      </trkpt>
      <trkpt lat="39.503897" lon="-8.408112">
        <ele>129.018</ele>
        <time>2015-03-20T14:18:38Z</time>
      </trkpt>
      <trkpt lat="39.503988" lon="-8.407910">
        <ele>131.486</ele>
        <time>2015-03-20T14:18:53Z</time>
      </trkpt>
      <trkpt lat="39.504052" lon="-8.407826">
        <ele>132.331</ele>
        <time>2015-03-20T14:19:01Z</time>
      </trkpt>
      <trkpt lat="39.504107" lon="-8.407704">
        <ele>133.828</ele>
        <time>2015-03-20T14:19:11Z</time>
      </trkpt>
      <trkpt lat="39.504123" lon="-8.407629">
        <ele>135.235</ele>
        <time>2015-03-20T14:19:17Z</time>
      </trkpt>
      <trkpt lat="39.504230" lon="-8.407456">
        <ele>137.686</ele>
        <time>2015-03-20T14:19:31Z</time>
      </trkpt>
      <trkpt lat="39.504362" lon="-8.407260">
        <ele>140.514</ele>
        <time>2015-03-20T14:19:46Z</time>
      </trkpt>
      <trkpt lat="39.504530" lon="-8.407122">
        <ele>141.507</ele>
        <time>2015-03-20T14:20:00Z</time>
      </trkpt>
      <trkpt lat="39.504835" lon="-8.407073">
        <ele>142.492</ele>
        <time>2015-03-20T14:20:15Z</time>
      </trkpt>
      <trkpt lat="39.505062" lon="-8.407063">
        <ele>142.485</ele>
        <time>2015-03-20T14:20:25Z</time>
      </trkpt>
      <trkpt lat="39.505436" lon="-8.407053">
        <ele>142.497</ele>
        <time>2015-03-20T14:20:37Z</time>
      </trkpt>
      <trkpt lat="39.505903" lon="-8.406975">
        <ele>142.457</ele>
        <time>2015-03-20T14:20:50Z</time>
      </trkpt>
      <trkpt lat="39.506405" lon="-8.406876">
        <ele>142.425</ele>
        <time>2015-03-20T14:21:04Z</time>
      </trkpt>
      <trkpt lat="39.506576" lon="-8.406836">
        <ele>142.430</ele>
        <time>2015-03-20T14:21:09Z</time>
      </trkpt>
      <trkpt lat="39.507004" lon="-8.406724">
        <ele>142.427</ele>
        <time>2015-03-20T14:21:21Z</time>
      </trkpt>
      <trkpt lat="39.507489" lon="-8.406536">
        <ele>142.446</ele>
        <time>2015-03-20T14:21:34Z</time>
      </trkpt>
      <trkpt lat="39.508071" lon="-8.406193">
        <ele>143.988</ele>
        <time>2015-03-20T14:21:52Z</time>
      </trkpt>
      <trkpt lat="39.508540" lon="-8.405903">
        <ele>143.916</ele>
        <time>2015-03-20T14:22:07Z</time>
      </trkpt>
      <trkpt lat="39.508646" lon="-8.405867">
        <ele>142.907</ele>
        <time>2015-03-20T14:22:10Z</time>
      </trkpt>
      <trkpt lat="39.509062" lon="-8.405776">
        <ele>142.433</ele>
        <time>2015-03-20T14:22:21Z</time>
      </trkpt>
      <trkpt lat="39.509357" lon="-8.405779">
        <ele>142.416</ele>
        <time>2015-03-20T14:22:33Z</time>
      </trkpt>
      <trkpt lat="39.509419" lon="-8.405764">
        <ele>142.478</ele>
        <time>2015-03-20T14:22:57Z</time>
      </trkpt>
      <trkpt lat="39.509754" lon="-8.405761">
        <ele>142.458</ele>
        <time>2015-03-20T14:23:09Z</time>
      </trkpt>
      <trkpt lat="39.510388" lon="-8.405766">
        <ele>143.936</ele>
        <time>2015-03-20T14:23:27Z</time>
      </trkpt>
      <trkpt lat="39.510803" lon="-8.405746">
        <ele>144.321</ele>
        <time>2015-03-20T14:23:39Z</time>
      </trkpt>
      <trkpt lat="39.511371" lon="-8.405653">
        <ele>145.338</ele>
        <time>2015-03-20T14:23:55Z</time>
      </trkpt>
      <trkpt lat="39.511889" lon="-8.405503">
        <ele>143.412</ele>
        <time>2015-03-20T14:24:07Z</time>
      </trkpt>
      <trkpt lat="39.512637" lon="-8.405209">
        <ele>140.032</ele>
        <time>2015-03-20T14:24:19Z</time>
      </trkpt>
      <trkpt lat="39.513353" lon="-8.404960">
        <ele>139.105</ele>
        <time>2015-03-20T14:24:31Z</time>
      </trkpt>
      <trkpt lat="39.513457" lon="-8.404897">
        <ele>139.107</ele>
        <time>2015-03-20T14:24:33Z</time>
      </trkpt>
      <trkpt lat="39.513788" lon="-8.404756">
        <ele>137.650</ele>
        <time>2015-03-20T14:24:39Z</time>
      </trkpt>
      <trkpt lat="39.514464" lon="-8.404975">
        <ele>135.713</ele>
        <time>2015-03-20T14:24:50Z</time>
      </trkpt>
      <trkpt lat="39.514976" lon="-8.405165">
        <ele>135.785</ele>
        <time>2015-03-20T14:25:03Z</time>
      </trkpt>
      <trkpt lat="39.515522" lon="-8.405290">
        <ele>135.785</ele>
        <time>2015-03-20T14:25:18Z</time>
      </trkpt>
      <trkpt lat="39.515796" lon="-8.405074">
        <ele>137.663</ele>
        <time>2015-03-20T14:25:27Z</time>
      </trkpt>
      <trkpt lat="39.516041" lon="-8.405009">
        <ele>135.758</ele>
        <time>2015-03-20T14:25:32Z</time>
      </trkpt>
      <trkpt lat="39.516432" lon="-8.404977">
        <ele>131.455</ele>
        <time>2015-03-20T14:25:37Z</time>
      </trkpt>
      <trkpt lat="39.516727" lon="-8.404956">
        <ele>129.925</ele>
        <time>2015-03-20T14:25:40Z</time>
      </trkpt>
      <trkpt lat="39.517624" lon="-8.404866">
        <ele>129.926</ele>
        <time>2015-03-20T14:25:52Z</time>
      </trkpt>
      <trkpt lat="39.518021" lon="-8.404856">
        <ele>132.308</ele>
        <time>2015-03-20T14:26:04Z</time>
      </trkpt>
      <trkpt lat="39.518500" lon="-8.404988">
        <ele>132.307</ele>
        <time>2015-03-20T14:26:17Z</time>
      </trkpt>
      <trkpt lat="39.518586" lon="-8.404974">
        <ele>132.361</ele>
        <time>2015-03-20T14:26:19Z</time>
      </trkpt>
      <trkpt lat="39.518783" lon="-8.404764">
        <ele>129.014</ele>
        <time>2015-03-20T14:26:23Z</time>
      </trkpt>
      <trkpt lat="39.518822" lon="-8.404674">
        <ele>128.066</ele>
        <time>2015-03-20T14:26:24Z</time>
      </trkpt>
      <trkpt lat="39.518900" lon="-8.404481">
        <ele>126.166</ele>
        <time>2015-03-20T14:26:26Z</time>
      </trkpt>
      <trkpt lat="39.519179" lon="-8.404110">
        <ele>122.294</ele>
        <time>2015-03-20T14:26:30Z</time>
      </trkpt>
      <trkpt lat="39.519645" lon="-8.403788">
        <ele>118.489</ele>
        <time>2015-03-20T14:26:35Z</time>
      </trkpt>
      <trkpt lat="39.520085" lon="-8.403749">
        <ele>116.566</ele>
        <time>2015-03-20T14:26:39Z</time>
      </trkpt>
      <trkpt lat="39.520309" lon="-8.403818">
        <ele>114.589</ele>
        <time>2015-03-20T14:26:41Z</time>
      </trkpt>
      <trkpt lat="39.520751" lon="-8.403846">
        <ele>109.306</ele>
        <time>2015-03-20T14:26:45Z</time>
      </trkpt>
      <trkpt lat="39.521103" lon="-8.403932">
        <ele>104.926</ele>
        <time>2015-03-20T14:26:48Z</time>
      </trkpt>
      <trkpt lat="39.521324" lon="-8.403997">
        <ele>102.007</ele>
        <time>2015-03-20T14:26:50Z</time>
      </trkpt>
      <trkpt lat="39.521756" lon="-8.403948">
        <ele>97.277</ele>
        <time>2015-03-20T14:26:54Z</time>
      </trkpt>
      <trkpt lat="39.522042" lon="-8.403870">
        <ele>92.460</ele>
        <time>2015-03-20T14:26:57Z</time>
      </trkpt>
      <trkpt lat="39.522540" lon="-8.403955">
        <ele>87.632</ele>
        <time>2015-03-20T14:27:02Z</time>
      </trkpt>
      <trkpt lat="39.522755" lon="-8.403974">
        <ele>86.712</ele>
        <time>2015-03-20T14:27:04Z</time>
      </trkpt>
      <trkpt lat="39.523381" lon="-8.403835">
        <ele>86.270</ele>
        <time>2015-03-20T14:27:12Z</time>
      </trkpt>
      <trkpt lat="39.523591" lon="-8.403726">
        <ele>87.625</ele>
        <time>2015-03-20T14:27:17Z</time>
      </trkpt>
      <trkpt lat="39.523912" lon="-8.403613">
        <ele>89.562</ele>
        <time>2015-03-20T14:27:29Z</time>
      </trkpt>
      <trkpt lat="39.524277" lon="-8.403625">
        <ele>91.042</ele>
        <time>2015-03-20T14:27:45Z</time>
      </trkpt>
      <trkpt lat="39.524607" lon="-8.403596">
        <ele>93.422</ele>
        <time>2015-03-20T14:28:00Z</time>
      </trkpt>
      <trkpt lat="39.524948" lon="-8.403503">
        <ele>95.314</ele>
        <time>2015-03-20T14:28:16Z</time>
      </trkpt>
      <trkpt lat="39.525215" lon="-8.403389">
        <ele>96.307</ele>
        <time>2015-03-20T14:28:28Z</time>
      </trkpt>
      <trkpt lat="39.525549" lon="-8.403330">
        <ele>96.363</ele>
        <time>2015-03-20T14:28:40Z</time>
      </trkpt>
      <trkpt lat="39.525831" lon="-8.403302">
        <ele>96.346</ele>
        <time>2015-03-20T14:28:49Z</time>
      </trkpt>
      <trkpt lat="39.526015" lon="-8.403225">
        <ele>94.868</ele>
        <time>2015-03-20T14:28:53Z</time>
      </trkpt>
      <trkpt lat="39.526381" lon="-8.403047">
        <ele>91.578</ele>
        <time>2015-03-20T14:28:59Z</time>
      </trkpt>
      <trkpt lat="39.526609" lon="-8.402951">
        <ele>90.016</ele>
        <time>2015-03-20T14:29:02Z</time>
      </trkpt>
      <trkpt lat="39.527647" lon="-8.402503">
        <ele>86.771</ele>
        <time>2015-03-20T14:29:17Z</time>
      </trkpt>
      <trkpt lat="39.528365" lon="-8.402114">
        <ele>86.718</ele>
        <time>2015-03-20T14:29:33Z</time>
      </trkpt>
      <trkpt lat="39.528606" lon="-8.402013">
        <ele>86.779</ele>
        <time>2015-03-20T14:29:39Z</time>
      </trkpt>
      <trkpt lat="39.529315" lon="-8.401818">
        <ele>86.205</ele>
        <time>2015-03-20T14:29:56Z</time>
      </trkpt>
      <trkpt lat="39.530000" lon="-8.401486">
        <ele>86.225</ele>
        <time>2015-03-20T14:30:14Z</time>
      </trkpt>
      <trkpt lat="39.530578" lon="-8.401159">
        <ele>87.107</ele>
        <time>2015-03-20T14:30:29Z</time>
      </trkpt>
      <trkpt lat="39.530717" lon="-8.401111">
        <ele>85.736</ele>
        <time>2015-03-20T14:30:32Z</time>
      </trkpt>
      <trkpt lat="39.531490" lon="-8.400942">
        <ele>84.369</ele>
        <time>2015-03-20T14:30:48Z</time>
      </trkpt>
      <trkpt lat="39.531540" lon="-8.400933">
        <ele>84.391</ele>
        <time>2015-03-20T14:30:49Z</time>
      </trkpt>
      <trkpt lat="39.531775" lon="-8.400818">
        <ele>82.831</ele>
        <time>2015-03-20T14:30:53Z</time>
      </trkpt>
      <trkpt lat="39.532185" lon="-8.400417">
        <ele>79.089</ele>
        <time>2015-03-20T14:31:00Z</time>
      </trkpt>
      <trkpt lat="39.532250" lon="-8.400356">
        <ele>79.064</ele>
        <time>2015-03-20T14:31:01Z</time>
      </trkpt>
      <trkpt lat="39.532467" lon="-8.400196">
        <ele>77.061</ele>
        <time>2015-03-20T14:31:04Z</time>
      </trkpt>
      <trkpt lat="39.532883" lon="-8.399948">
        <ele>74.274</ele>
        <time>2015-03-20T14:31:09Z</time>
      </trkpt>
      <trkpt lat="39.533134" lon="-8.399835">
        <ele>73.256</ele>
        <time>2015-03-20T14:31:12Z</time>
      </trkpt>
      <trkpt lat="39.533464" lon="-8.399814">
        <ele>73.221</ele>
        <time>2015-03-20T14:31:16Z</time>
      </trkpt>
      <trkpt lat="39.533719" lon="-8.399882">
        <ele>73.207</ele>
        <time>2015-03-20T14:31:20Z</time>
      </trkpt>
      <trkpt lat="39.534053" lon="-8.399775">
        <ele>73.746</ele>
        <time>2015-03-20T14:31:27Z</time>
      </trkpt>
      <trkpt lat="39.534640" lon="-8.399156">
        <ele>73.719</ele>
        <time>2015-03-20T14:31:45Z</time>
      </trkpt>
      <trkpt lat="39.535240" lon="-8.398539">
        <ele>76.611</ele>
        <time>2015-03-20T14:32:05Z</time>
      </trkpt>
      <trkpt lat="39.535832" lon="-8.398049">
        <ele>77.561</ele>
        <time>2015-03-20T14:32:23Z</time>
      </trkpt>
      <trkpt lat="39.536390" lon="-8.397672">
        <ele>78.529</ele>
        <time>2015-03-20T14:32:39Z</time>
      </trkpt>
      <trkpt lat="39.537098" lon="-8.397305">
        <ele>79.924</ele>
        <time>2015-03-20T14:32:58Z</time>
      </trkpt>
      <trkpt lat="39.537785" lon="-8.396991">
        <ele>80.921</ele>
        <time>2015-03-20T14:33:16Z</time>
      </trkpt>
      <trkpt lat="39.538606" lon="-8.396614">
        <ele>80.453</ele>
        <time>2015-03-20T14:33:36Z</time>
      </trkpt>
      <trkpt lat="39.539410" lon="-8.396249">
        <ele>79.004</ele>
        <time>2015-03-20T14:33:54Z</time>
      </trkpt>
      <trkpt lat="39.540242" lon="-8.395860">
        <ele>76.114</ele>
        <time>2015-03-20T14:34:11Z</time>
      </trkpt>
      <trkpt lat="39.540956" lon="-8.395384">
        <ele>72.707</ele>
        <time>2015-03-20T14:34:24Z</time>
      </trkpt>
      <trkpt lat="39.541275" lon="-8.394985">
        <ele>71.824</ele>
        <time>2015-03-20T14:34:31Z</time>
      </trkpt>
      <trkpt lat="39.541749" lon="-8.394160">
        <ele>71.367</ele>
        <time>2015-03-20T14:34:48Z</time>
      </trkpt>
      <trkpt lat="39.542200" lon="-8.393364">
        <ele>69.849</ele>
        <time>2015-03-20T14:35:04Z</time>
      </trkpt>
      <trkpt lat="39.542761" lon="-8.392429">
        <ele>67.949</ele>
        <time>2015-03-20T14:35:23Z</time>
      </trkpt>
      <trkpt lat="39.543009" lon="-8.391640">
        <ele>69.437</ele>
        <time>2015-03-20T14:35:40Z</time>
      </trkpt>
      <trkpt lat="39.543218" lon="-8.391026">
        <ele>70.832</ele>
        <time>2015-03-20T14:35:55Z</time>
      </trkpt>
      <trkpt lat="39.543392" lon="-8.390611">
        <ele>73.289</ele>
        <time>2015-03-20T14:36:05Z</time>
      </trkpt>
      <trkpt lat="39.543454" lon="-8.390468">
        <ele>71.885</ele>
        <time>2015-03-20T14:36:08Z</time>
      </trkpt>
      <trkpt lat="39.543503" lon="-8.390362">
        <ele>71.389</ele>
        <time>2015-03-20T14:36:10Z</time>
      </trkpt>
      <trkpt lat="39.543980" lon="-8.390066">
        <ele>67.417</ele>
        <time>2015-03-20T14:36:19Z</time>
      </trkpt>
      <trkpt lat="39.544397" lon="-8.390112">
        <ele>64.607</ele>
        <time>2015-03-20T14:36:24Z</time>
      </trkpt>
      <trkpt lat="39.544858" lon="-8.390187">
        <ele>61.297</ele>
        <time>2015-03-20T14:36:29Z</time>
      </trkpt>
      <trkpt lat="39.544955" lon="-8.390206">
        <ele>61.250</ele>
        <time>2015-03-20T14:36:30Z</time>
      </trkpt>
      <trkpt lat="39.545257" lon="-8.390281">
        <ele>57.862</ele>
        <time>2015-03-20T14:36:33Z</time>
      </trkpt>
      <trkpt lat="39.545579" lon="-8.390375">
        <ele>55.422</ele>
        <time>2015-03-20T14:36:36Z</time>
      </trkpt>
      <trkpt lat="39.545919" lon="-8.390467">
        <ele>52.130</ele>
        <time>2015-03-20T14:36:39Z</time>
      </trkpt>
      <trkpt lat="39.546281" lon="-8.390560">
        <ele>49.255</ele>
        <time>2015-03-20T14:36:42Z</time>
      </trkpt>
      <trkpt lat="39.546644" lon="-8.390622">
        <ele>47.262</ele>
        <time>2015-03-20T14:36:45Z</time>
      </trkpt>
      <trkpt lat="39.547990" lon="-8.390690">
        <ele>45.363</ele>
        <time>2015-03-20T14:36:58Z</time>
      </trkpt>
      <trkpt lat="39.548772" lon="-8.390616">
        <ele>45.344</ele>
        <time>2015-03-20T14:37:10Z</time>
      </trkpt>
      <trkpt lat="39.549387" lon="-8.390300">
        <ele>45.318</ele>
        <time>2015-03-20T14:37:26Z</time>
      </trkpt>
      <trkpt lat="39.550021" lon="-8.389790">
        <ele>46.807</ele>
        <time>2015-03-20T14:37:44Z</time>
      </trkpt>
      <trkpt lat="39.550106" lon="-8.389764">
        <ele>46.865</ele>
        <time>2015-03-20T14:37:46Z</time>
      </trkpt>
      <trkpt lat="39.550495" lon="-8.389815">
        <ele>45.858</ele>
        <time>2015-03-20T14:37:56Z</time>
      </trkpt>
      <trkpt lat="39.550573" lon="-8.389855">
        <ele>45.340</ele>
        <time>2015-03-20T14:37:58Z</time>
      </trkpt>
      <trkpt lat="39.550834" lon="-8.389681">
        <ele>45.330</ele>
        <time>2015-03-20T14:38:07Z</time>
      </trkpt>
      <trkpt lat="39.550972" lon="-8.389314">
        <ele>45.318</ele>
        <time>2015-03-20T14:38:17Z</time>
      </trkpt>
      <trkpt lat="39.551228" lon="-8.389517">
        <ele>46.343</ele>
        <time>2015-03-20T14:38:26Z</time>
      </trkpt>
      <trkpt lat="39.551375" lon="-8.389774">
        <ele>46.350</ele>
        <time>2015-03-20T14:38:32Z</time>
      </trkpt>
      <trkpt lat="39.551866" lon="-8.390202">
        <ele>47.235</ele>
        <time>2015-03-20T14:38:48Z</time>
      </trkpt>
      <trkpt lat="39.552405" lon="-8.390708">
        <ele>48.786</ele>
        <time>2015-03-20T14:39:07Z</time>
      </trkpt>
      <trkpt lat="39.552507" lon="-8.391121">
        <ele>49.214</ele>
        <time>2015-03-20T14:39:17Z</time>
      </trkpt>
      <trkpt lat="39.552606" lon="-8.391476">
        <ele>53.007</ele>
        <time>2015-03-20T14:39:30Z</time>
      </trkpt>
      <trkpt lat="39.552861" lon="-8.391647">
        <ele>54.532</ele>
        <time>2015-03-20T14:39:44Z</time>
      </trkpt>
      <trkpt lat="39.553263" lon="-8.391563">
        <ele>58.335</ele>
        <time>2015-03-20T14:40:02Z</time>
      </trkpt>
      <trkpt lat="39.553578" lon="-8.391263">
        <ele>59.787</ele>
        <time>2015-03-20T14:40:19Z</time>
      </trkpt>
      <trkpt lat="39.553957" lon="-8.391193">
        <ele>61.787</ele>
        <time>2015-03-20T14:40:36Z</time>
      </trkpt>
      <trkpt lat="39.554297" lon="-8.391492">
        <ele>62.665</ele>
        <time>2015-03-20T14:40:53Z</time>
      </trkpt>
      <trkpt lat="39.554634" lon="-8.391904">
        <ele>63.190</ele>
        <time>2015-03-20T14:41:12Z</time>
      </trkpt>
      <trkpt lat="39.554685" lon="-8.391878">
        <ele>63.177</ele>
        <time>2015-03-20T14:41:31Z</time>
      </trkpt>
      <trkpt lat="39.554770" lon="-8.391783">
        <ele>62.156</ele>
        <time>2015-03-20T14:41:40Z</time>
      </trkpt>
      <trkpt lat="39.554913" lon="-8.391666">
        <ele>58.859</ele>
        <time>2015-03-20T14:41:44Z</time>
      </trkpt>
      <trkpt lat="39.555115" lon="-8.391512">
        <ele>55.414</ele>
        <time>2015-03-20T14:41:49Z</time>
      </trkpt>
      <trkpt lat="39.555168" lon="-8.391475">
        <ele>54.507</ele>
        <time>2015-03-20T14:41:50Z</time>
      </trkpt>
      <trkpt lat="39.555495" lon="-8.391371">
        <ele>51.694</ele>
        <time>2015-03-20T14:41:55Z</time>
      </trkpt>
      <trkpt lat="39.555644" lon="-8.391348">
        <ele>50.617</ele>
        <time>2015-03-20T14:41:57Z</time>
      </trkpt>
      <trkpt lat="39.555784" lon="-8.391347">
        <ele>50.119</ele>
        <time>2015-03-20T14:41:59Z</time>
      </trkpt>
      <trkpt lat="39.556366" lon="-8.391370">
        <ele>50.679</ele>
        <time>2015-03-20T14:42:11Z</time>
      </trkpt>
      <trkpt lat="39.556768" lon="-8.391369">
        <ele>50.197</ele>
        <time>2015-03-20T14:42:27Z</time>
      </trkpt>
      <trkpt lat="39.557100" lon="-8.391407">
        <ele>51.622</ele>
        <time>2015-03-20T14:42:42Z</time>
      </trkpt>
      <trkpt lat="39.557467" lon="-8.391529">
        <ele>54.099</ele>
        <time>2015-03-20T14:42:59Z</time>
      </trkpt>
      <trkpt lat="39.557859" lon="-8.391673">
        <ele>54.535</ele>
        <time>2015-03-20T14:43:16Z</time>
      </trkpt>
      <trkpt lat="39.558288" lon="-8.391885">
        <ele>52.586</ele>
        <time>2015-03-20T14:43:27Z</time>
      </trkpt>
      <trkpt lat="39.558594" lon="-8.392029">
        <ele>49.714</ele>
        <time>2015-03-20T14:43:32Z</time>
      </trkpt>
      <trkpt lat="39.558668" lon="-8.392067">
        <ele>49.707</ele>
        <time>2015-03-20T14:43:33Z</time>
      </trkpt>
      <trkpt lat="39.559363" lon="-8.392446">
        <ele>48.742</ele>
        <time>2015-03-20T14:43:45Z</time>
      </trkpt>
      <trkpt lat="39.559443" lon="-8.392482">
        <ele>48.765</ele>
        <time>2015-03-20T14:43:47Z</time>
      </trkpt>
      <trkpt lat="39.559575" lon="-8.392542">
        <ele>48.757</ele>
        <time>2015-03-20T14:43:50Z</time>
      </trkpt>
      <trkpt lat="39.560132" lon="-8.392860">
        <ele>48.217</ele>
        <time>2015-03-20T14:44:05Z</time>
      </trkpt>
      <trkpt lat="39.560612" lon="-8.393110">
        <ele>48.735</ele>
        <time>2015-03-20T14:44:19Z</time>
      </trkpt>
      <trkpt lat="39.561123" lon="-8.393394">
        <ele>49.750</ele>
        <time>2015-03-20T14:44:35Z</time>
      </trkpt>
      <trkpt lat="39.561838" lon="-8.393785">
        <ele>48.247</ele>
        <time>2015-03-20T14:44:52Z</time>
      </trkpt>
      <trkpt lat="39.562328" lon="-8.394113">
        <ele>48.262</ele>
        <time>2015-03-20T14:45:06Z</time>
      </trkpt>
      <trkpt lat="39.562921" lon="-8.394516">
        <ele>48.283</ele>
        <time>2015-03-20T14:45:24Z</time>
      </trkpt>
      <trkpt lat="39.563434" lon="-8.394887">
        <ele>49.711</ele>
        <time>2015-03-20T14:45:42Z</time>
      </trkpt>
      <trkpt lat="39.563678" lon="-8.395049">
        <ele>53.007</ele>
        <time>2015-03-20T14:46:00Z</time>
      </trkpt>
      <trkpt lat="39.563890" lon="-8.395195">
        <ele>54.055</ele>
        <time>2015-03-20T14:46:13Z</time>
      </trkpt>
      <trkpt lat="39.564316" lon="-8.395465">
        <ele>54.078</ele>
        <time>2015-03-20T14:46:29Z</time>
      </trkpt>
      <trkpt lat="39.564716" lon="-8.395644">
        <ele>50.620</ele>
        <time>2015-03-20T14:46:37Z</time>
      </trkpt>
      <trkpt lat="39.564773" lon="-8.395668">
        <ele>50.130</ele>
        <time>2015-03-20T14:46:38Z</time>
      </trkpt>
      <trkpt lat="39.565477" lon="-8.395837">
        <ele>48.268</ele>
        <time>2015-03-20T14:46:52Z</time>
      </trkpt>
      <trkpt lat="39.565984" lon="-8.395890">
        <ele>48.293</ele>
        <time>2015-03-20T14:47:08Z</time>
      </trkpt>
      <trkpt lat="39.566424" lon="-8.395865">
        <ele>48.230</ele>
        <time>2015-03-20T14:47:22Z</time>
      </trkpt>
      <trkpt lat="39.566926" lon="-8.395739">
        <ele>47.768</ele>
        <time>2015-03-20T14:47:36Z</time>
      </trkpt>
      <trkpt lat="39.567189" lon="-8.395666">
        <ele>47.742</ele>
        <time>2015-03-20T14:47:43Z</time>
      </trkpt>
      <trkpt lat="39.567790" lon="-8.395473">
        <ele>47.726</ele>
        <time>2015-03-20T14:47:59Z</time>
      </trkpt>
      <trkpt lat="39.568531" lon="-8.395225">
        <ele>47.707</ele>
        <time>2015-03-20T14:48:18Z</time>
      </trkpt>
      <trkpt lat="39.569153" lon="-8.395077">
        <ele>47.725</ele>
        <time>2015-03-20T14:48:35Z</time>
      </trkpt>
      <trkpt lat="39.569776" lon="-8.395060">
        <ele>49.278</ele>
        <time>2015-03-20T14:48:53Z</time>
      </trkpt>
      <trkpt lat="39.570070" lon="-8.395157">
        <ele>49.730</ele>
        <time>2015-03-20T14:49:04Z</time>
      </trkpt>
      <trkpt lat="39.570168" lon="-8.395342">
        <ele>52.160</ele>
        <time>2015-03-20T14:49:18Z</time>
      </trkpt>
      <trkpt lat="39.570199" lon="-8.395388">
        <ele>52.158</ele>
        <time>2015-03-20T14:49:31Z</time>
      </trkpt>
      <trkpt lat="39.570177" lon="-8.395470">
        <ele>53.053</ele>
        <time>2015-03-20T15:02:16Z</time>
      </trkpt>
      <trkpt lat="39.570247" lon="-8.395559">
        <ele>54.020</ele>
        <time>2015-03-20T15:02:28Z</time>
      </trkpt>
      <trkpt lat="39.570273" lon="-8.395617">
        <ele>54.922</ele>
        <time>2015-03-20T15:02:33Z</time>
      </trkpt>
      <trkpt lat="39.570320" lon="-8.395651">
        <ele>55.962</ele>
        <time>2015-03-20T15:02:37Z</time>
      </trkpt>
      <trkpt lat="39.570468" lon="-8.395809">
        <ele>57.808</ele>
        <time>2015-03-20T15:02:53Z</time>
      </trkpt>
      <trkpt lat="39.570587" lon="-8.395947">
        <ele>60.207</ele>
        <time>2015-03-20T15:03:06Z</time>
      </trkpt>
      <trkpt lat="39.570761" lon="-8.396097">
        <ele>62.171</ele>
        <time>2015-03-20T15:03:23Z</time>
      </trkpt>
      <trkpt lat="39.570954" lon="-8.396310">
        <ele>64.614</ele>
        <time>2015-03-20T15:03:41Z</time>
      </trkpt>
      <trkpt lat="39.571233" lon="-8.396578">
        <ele>67.426</ele>
        <time>2015-03-20T15:04:03Z</time>
      </trkpt>
      <trkpt lat="39.571414" lon="-8.396807">
        <ele>68.416</ele>
        <time>2015-03-20T15:04:17Z</time>
      </trkpt>
      <trkpt lat="39.571654" lon="-8.397271">
        <ele>68.424</ele>
        <time>2015-03-20T15:04:32Z</time>
      </trkpt>
      <trkpt lat="39.571996" lon="-8.397584">
        <ele>68.419</ele>
        <time>2015-03-20T15:04:44Z</time>
      </trkpt>
      <trkpt lat="39.572506" lon="-8.398045">
        <ele>68.496</ele>
        <time>2015-03-20T15:05:01Z</time>
      </trkpt>
      <trkpt lat="39.572967" lon="-8.398465">
        <ele>69.864</ele>
        <time>2015-03-20T15:05:18Z</time>
      </trkpt>
      <trkpt lat="39.573495" lon="-8.398746">
        <ele>69.406</ele>
        <time>2015-03-20T15:05:32Z</time>
      </trkpt>
      <trkpt lat="39.573911" lon="-8.398808">
        <ele>65.016</ele>
        <time>2015-03-20T15:05:39Z</time>
      </trkpt>
      <trkpt lat="39.574070" lon="-8.398844">
        <ele>63.607</ele>
        <time>2015-03-20T15:05:41Z</time>
      </trkpt>
      <trkpt lat="39.574416" lon="-8.399063">
        <ele>59.325</ele>
        <time>2015-03-20T15:05:45Z</time>
      </trkpt>
      <trkpt lat="39.574516" lon="-8.399132">
        <ele>58.358</ele>
        <time>2015-03-20T15:05:46Z</time>
      </trkpt>
      <trkpt lat="39.574832" lon="-8.399235">
        <ele>55.910</ele>
        <time>2015-03-20T15:05:49Z</time>
      </trkpt>
      <trkpt lat="39.575132" lon="-8.399178">
        <ele>54.570</ele>
        <time>2015-03-20T15:05:52Z</time>
      </trkpt>
      <trkpt lat="39.575631" lon="-8.399091">
        <ele>54.948</ele>
        <time>2015-03-20T15:05:58Z</time>
      </trkpt>
      <trkpt lat="39.576835" lon="-8.399362">
        <ele>53.073</ele>
        <time>2015-03-20T15:06:17Z</time>
      </trkpt>
      <trkpt lat="39.577453" lon="-8.399605">
        <ele>53.060</ele>
        <time>2015-03-20T15:06:32Z</time>
      </trkpt>
      <trkpt lat="39.578143" lon="-8.399851">
        <ele>53.053</ele>
        <time>2015-03-20T15:06:49Z</time>
      </trkpt>
      <trkpt lat="39.578894" lon="-8.400077">
        <ele>53.004</ele>
        <time>2015-03-20T15:07:07Z</time>
      </trkpt>
      <trkpt lat="39.579643" lon="-8.400375">
        <ele>54.514</ele>
        <time>2015-03-20T15:07:26Z</time>
      </trkpt>
      <trkpt lat="39.579762" lon="-8.400421">
        <ele>54.507</ele>
        <time>2015-03-20T15:07:29Z</time>
      </trkpt>
      <trkpt lat="39.580486" lon="-8.400707">
        <ele>54.994</ele>
        <time>2015-03-20T15:07:47Z</time>
      </trkpt>
      <trkpt lat="39.581093" lon="-8.400911">
        <ele>56.937</ele>
        <time>2015-03-20T15:08:04Z</time>
      </trkpt>
      <trkpt lat="39.581693" lon="-8.401107">
        <ele>58.849</ele>
        <time>2015-03-20T15:08:22Z</time>
      </trkpt>
      <trkpt lat="39.582221" lon="-8.401351">
        <ele>59.369</ele>
        <time>2015-03-20T15:08:38Z</time>
      </trkpt>
      <trkpt lat="39.582255" lon="-8.401701">
        <ele>61.237</ele>
        <time>2015-03-20T15:08:50Z</time>
      </trkpt>
      <trkpt lat="39.582206" lon="-8.402394">
        <ele>64.642</ele>
        <time>2015-03-20T15:09:13Z</time>
      </trkpt>
      <trkpt lat="39.582170" lon="-8.402909">
        <ele>65.099</ele>
        <time>2015-03-20T15:09:29Z</time>
      </trkpt>
      <trkpt lat="39.582165" lon="-8.403543">
        <ele>65.575</ele>
        <time>2015-03-20T15:09:48Z</time>
      </trkpt>
      <trkpt lat="39.582110" lon="-8.404221">
        <ele>67.428</ele>
        <time>2015-03-20T15:10:10Z</time>
      </trkpt>
      <trkpt lat="39.581959" lon="-8.404645">
        <ele>69.820</ele>
        <time>2015-03-20T15:10:28Z</time>
      </trkpt>
      <trkpt lat="39.581753" lon="-8.405059">
        <ele>72.707</ele>
        <time>2015-03-20T15:10:47Z</time>
      </trkpt>
      <trkpt lat="39.581547" lon="-8.405480">
        <ele>75.616</ele>
        <time>2015-03-20T15:11:06Z</time>
      </trkpt>
      <trkpt lat="39.581457" lon="-8.405919">
        <ele>78.049</ele>
        <time>2015-03-20T15:11:24Z</time>
      </trkpt>
      <trkpt lat="39.581522" lon="-8.406282">
        <ele>80.961</ele>
        <time>2015-03-20T15:11:39Z</time>
      </trkpt>
      <trkpt lat="39.581597" lon="-8.406676">
        <ele>84.311</ele>
        <time>2015-03-20T15:11:56Z</time>
      </trkpt>
      <trkpt lat="39.581682" lon="-8.407096">
        <ele>87.639</ele>
        <time>2015-03-20T15:12:14Z</time>
      </trkpt>
      <trkpt lat="39.581723" lon="-8.407637">
        <ele>89.564</ele>
        <time>2015-03-20T15:12:34Z</time>
      </trkpt>
      <trkpt lat="39.581684" lon="-8.408287">
        <ele>89.581</ele>
        <time>2015-03-20T15:12:49Z</time>
      </trkpt>
      <trkpt lat="39.581619" lon="-8.409040">
        <ele>88.185</ele>
        <time>2015-03-20T15:13:07Z</time>
      </trkpt>
      <trkpt lat="39.582049" lon="-8.409084">
        <ele>87.689</ele>
        <time>2015-03-20T15:13:19Z</time>
      </trkpt>
      <trkpt lat="39.582639" lon="-8.409058">
        <ele>84.717</ele>
        <time>2015-03-20T15:13:30Z</time>
      </trkpt>
      <trkpt lat="39.583007" lon="-8.408918">
        <ele>81.407</ele>
        <time>2015-03-20T15:13:35Z</time>
      </trkpt>
      <trkpt lat="39.583451" lon="-8.408729">
        <ele>78.517</ele>
        <time>2015-03-20T15:13:40Z</time>
      </trkpt>
      <trkpt lat="39.583836" lon="-8.408552">
        <ele>74.620</ele>
        <time>2015-03-20T15:13:44Z</time>
      </trkpt>
      <trkpt lat="39.584121" lon="-8.408369">
        <ele>71.842</ele>
        <time>2015-03-20T15:13:47Z</time>
      </trkpt>
      <trkpt lat="39.584575" lon="-8.407997">
        <ele>68.432</ele>
        <time>2015-03-20T15:13:52Z</time>
      </trkpt>
      <trkpt lat="39.584947" lon="-8.407687">
        <ele>66.070</ele>
        <time>2015-03-20T15:13:56Z</time>
      </trkpt>
      <trkpt lat="39.585630" lon="-8.407526">
        <ele>64.145</ele>
        <time>2015-03-20T15:14:03Z</time>
      </trkpt>
      <trkpt lat="39.586384" lon="-8.407888">
        <ele>64.682</ele>
        <time>2015-03-20T15:14:14Z</time>
      </trkpt>
      <trkpt lat="39.586630" lon="-8.408044">
        <ele>67.459</ele>
        <time>2015-03-20T15:14:24Z</time>
      </trkpt>
      <trkpt lat="39.586886" lon="-8.408196">
        <ele>70.803</ele>
        <time>2015-03-20T15:14:38Z</time>
      </trkpt>
      <trkpt lat="39.587196" lon="-8.408376">
        <ele>74.223</ele>
        <time>2015-03-20T15:14:56Z</time>
      </trkpt>
      <trkpt lat="39.587500" lon="-8.408561">
        <ele>77.007</ele>
        <time>2015-03-20T15:15:13Z</time>
      </trkpt>
      <trkpt lat="39.587864" lon="-8.408763">
        <ele>80.464</ele>
        <time>2015-03-20T15:15:32Z</time>
      </trkpt>
      <trkpt lat="39.588212" lon="-8.408902">
        <ele>81.447</ele>
        <time>2015-03-20T15:15:47Z</time>
      </trkpt>
      <trkpt lat="39.588678" lon="-8.409120">
        <ele>80.989</ele>
        <time>2015-03-20T15:16:01Z</time>
      </trkpt>
      <trkpt lat="39.588924" lon="-8.409283">
        <ele>79.949</ele>
        <time>2015-03-20T15:16:07Z</time>
      </trkpt>
      <trkpt lat="39.589715" lon="-8.409850">
        <ele>77.547</ele>
        <time>2015-03-20T15:16:23Z</time>
      </trkpt>
      <trkpt lat="39.589859" lon="-8.409941">
        <ele>77.512</ele>
        <time>2015-03-20T15:16:26Z</time>
      </trkpt>
      <trkpt lat="39.590039" lon="-8.409752">
        <ele>75.189</ele>
        <time>2015-03-20T15:16:32Z</time>
      </trkpt>
      <trkpt lat="39.590047" lon="-8.409660">
        <ele>74.623</ele>
        <time>2015-03-20T15:16:33Z</time>
      </trkpt>
      <trkpt lat="39.590070" lon="-8.409461">
        <ele>73.283</ele>
        <time>2015-03-20T15:16:35Z</time>
      </trkpt>
      <trkpt lat="39.590218" lon="-8.409057">
        <ele>69.411</ele>
        <time>2015-03-20T15:16:39Z</time>
      </trkpt>
      <trkpt lat="39.590897" lon="-8.407943">
        <ele>66.507</ele>
        <time>2015-03-20T15:16:53Z</time>
      </trkpt>
      <trkpt lat="39.591074" lon="-8.407410">
        <ele>64.161</ele>
        <time>2015-03-20T15:16:59Z</time>
      </trkpt>
      <trkpt lat="39.591091" lon="-8.406856">
        <ele>59.344</ele>
        <time>2015-03-20T15:17:04Z</time>
      </trkpt>
      <trkpt lat="39.591280" lon="-8.406528">
        <ele>56.956</ele>
        <time>2015-03-20T15:17:11Z</time>
      </trkpt>
      <trkpt lat="39.591480" lon="-8.406547">
        <ele>53.556</ele>
        <time>2015-03-20T15:17:49Z</time>
      </trkpt>
      <trkpt lat="39.591520" lon="-8.405952">
        <ele>53.564</ele>
        <time>2015-03-20T15:17:59Z</time>
      </trkpt>
      <trkpt lat="39.591708" lon="-8.405943">
        <ele>52.519</ele>
        <time>2015-03-20T15:18:07Z</time>
      </trkpt>
      <trkpt lat="39.591989" lon="-8.405814">
        <ele>52.556</ele>
        <time>2015-03-20T15:18:17Z</time>
      </trkpt>
      <trkpt lat="39.592071" lon="-8.405793">
        <ele>52.582</ele>
        <time>2015-03-20T15:18:42Z</time>
      </trkpt>
      <trkpt lat="39.592198" lon="-8.405765">
        <ele>52.543</ele>
        <time>2015-03-20T15:18:54Z</time>
      </trkpt>
      <trkpt lat="39.592446" lon="-8.405760">
        <ele>52.517</ele>
        <time>2015-03-20T15:19:27Z</time>
      </trkpt>
      <trkpt lat="39.592904" lon="-8.406080">
        <ele>52.507</ele>
        <time>2015-03-20T15:19:41Z</time>
      </trkpt>
      <trkpt lat="39.593468" lon="-8.406730">
        <ele>52.527</ele>
        <time>2015-03-20T15:20:00Z</time>
      </trkpt>
      <trkpt lat="39.593966" lon="-8.407245">
        <ele>54.040</ele>
        <time>2015-03-20T15:20:16Z</time>
      </trkpt>
      <trkpt lat="39.594640" lon="-8.407714">
        <ele>54.572</ele>
        <time>2015-03-20T15:20:34Z</time>
      </trkpt>
      <trkpt lat="39.594676" lon="-8.407749">
        <ele>54.562</ele>
        <time>2015-03-20T15:20:35Z</time>
      </trkpt>
      <trkpt lat="39.594839" lon="-8.407850">
        <ele>53.590</ele>
        <time>2015-03-20T15:20:39Z</time>
      </trkpt>
      <trkpt lat="39.595502" lon="-8.408268">
        <ele>52.515</ele>
        <time>2015-03-20T15:20:55Z</time>
      </trkpt>
      <trkpt lat="39.596064" lon="-8.408630">
        <ele>52.552</ele>
        <time>2015-03-20T15:21:11Z</time>
      </trkpt>
      <trkpt lat="39.596560" lon="-8.408935">
        <ele>53.089</ele>
        <time>2015-03-20T15:21:26Z</time>
      </trkpt>
      <trkpt lat="39.597140" lon="-8.409357">
        <ele>54.506</ele>
        <time>2015-03-20T15:21:43Z</time>
      </trkpt>
      <trkpt lat="39.597683" lon="-8.409704">
        <ele>54.526</ele>
        <time>2015-03-20T15:21:58Z</time>
      </trkpt>
      <trkpt lat="39.598252" lon="-8.410061">
        <ele>55.407</ele>
        <time>2015-03-20T15:22:14Z</time>
      </trkpt>
      <trkpt lat="39.598762" lon="-8.410392">
        <ele>55.437</ele>
        <time>2015-03-20T15:22:29Z</time>
      </trkpt>
      <trkpt lat="39.599369" lon="-8.410787">
        <ele>55.460</ele>
        <time>2015-03-20T15:22:46Z</time>
      </trkpt>
      <trkpt lat="39.599882" lon="-8.411120">
        <ele>55.442</ele>
        <time>2015-03-20T15:23:01Z</time>
      </trkpt>
      <trkpt lat="39.600238" lon="-8.411356">
        <ele>55.452</ele>
        <time>2015-03-20T15:23:16Z</time>
      </trkpt>
      <trkpt lat="39.600424" lon="-8.411403">
        <ele>55.980</ele>
        <time>2015-03-20T15:24:26Z</time>
      </trkpt>
      <trkpt lat="39.600833" lon="-8.411483">
        <ele>55.985</ele>
        <time>2015-03-20T15:24:38Z</time>
      </trkpt>
      <trkpt lat="39.601200" lon="-8.411524">
        <ele>55.982</ele>
        <time>2015-03-20T15:24:48Z</time>
      </trkpt>
      <trkpt lat="39.601560" lon="-8.411688">
        <ele>55.974</ele>
        <time>2015-03-20T15:27:17Z</time>
      </trkpt>
      <trkpt lat="39.601614" lon="-8.411770">
        <ele>58.356</ele>
        <time>2015-03-20T15:29:42Z</time>
      </trkpt>
      <trkpt lat="39.601715" lon="-8.411785">
        <ele>56.921</ele>
        <time>2015-03-20T15:29:48Z</time>
      </trkpt>
      <trkpt lat="39.602105" lon="-8.411832">
        <ele>57.307</ele>
        <time>2015-03-20T15:30:03Z</time>
      </trkpt>
      <trkpt lat="39.602551" lon="-8.411741">
        <ele>57.316</ele>
        <time>2015-03-20T15:30:17Z</time>
      </trkpt>
      <trkpt lat="39.602730" lon="-8.411994">
        <ele>56.949</ele>
        <time>2015-03-20T15:30:26Z</time>
      </trkpt>
      <trkpt lat="39.602511" lon="-8.412245">
        <ele>56.981</ele>
        <time>2015-03-20T15:30:36Z</time>
      </trkpt>
      <trkpt lat="39.602338" lon="-8.412816">
        <ele>58.361</ele>
        <time>2015-03-20T15:30:50Z</time>
      </trkpt>
      <trkpt lat="39.602141" lon="-8.413523">
        <ele>59.319</ele>
        <time>2015-03-20T15:31:07Z</time>
      </trkpt>
      <trkpt lat="39.601932" lon="-8.414288">
        <ele>59.774</ele>
        <time>2015-03-20T15:31:25Z</time>
      </trkpt>
      <trkpt lat="39.601881" lon="-8.414555">
        <ele>60.211</ele>
        <time>2015-03-20T15:31:33Z</time>
      </trkpt>
      <trkpt lat="39.601722" lon="-8.415063">
        <ele>61.297</ele>
        <time>2015-03-20T15:39:50Z</time>
      </trkpt>
      <trkpt lat="39.601606" lon="-8.415493">
        <ele>62.623</ele>
        <time>2015-03-20T15:40:05Z</time>
      </trkpt>
      <trkpt lat="39.601591" lon="-8.415644">
        <ele>63.625</ele>
        <time>2015-03-20T15:47:23Z</time>
      </trkpt>
      <trkpt lat="39.601554" lon="-8.415478">
        <ele>62.107</ele>
        <time>2015-03-20T15:48:08Z</time>
      </trkpt>
      <trkpt lat="39.601585" lon="-8.415347">
        <ele>61.288</ele>
        <time>2015-03-20T15:48:11Z</time>
      </trkpt>
      <trkpt lat="39.601794" lon="-8.414608">
        <ele>58.811</ele>
        <time>2015-03-20T15:48:24Z</time>
      </trkpt>
      <trkpt lat="39.602017" lon="-8.414640">
        <ele>58.893</ele>
        <time>2015-03-20T15:48:34Z</time>
      </trkpt>
      <trkpt lat="39.602470" lon="-8.414627">
        <ele>57.843</ele>
        <time>2015-03-20T15:48:49Z</time>
      </trkpt>
      <trkpt lat="39.602836" lon="-8.414596">
        <ele>57.381</ele>
        <time>2015-03-20T15:49:03Z</time>
      </trkpt>
      <trkpt lat="39.603038" lon="-8.414610">
        <ele>57.316</ele>
        <time>2015-03-20T15:49:13Z</time>
      </trkpt>
      <trkpt lat="39.603120" lon="-8.414608">
        <ele>58.333</ele>
        <time>2015-03-20T15:49:17Z</time>
      </trkpt>
      <trkpt lat="39.603446" lon="-8.414665">
        <ele>58.871</ele>
        <time>2015-03-20T15:49:31Z</time>
      </trkpt>
      <trkpt lat="39.603701" lon="-8.414808">
        <ele>58.841</ele>
        <time>2015-03-20T15:49:42Z</time>
      </trkpt>
      <trkpt lat="39.603830" lon="-8.414663">
        <ele>58.815</ele>
        <time>2015-03-20T15:49:50Z</time>
      </trkpt>
      <trkpt lat="39.603991" lon="-8.414170">
        <ele>58.807</ele>
        <time>2015-03-20T15:50:06Z</time>
      </trkpt>
      <trkpt lat="39.604068" lon="-8.413755">
        <ele>57.336</ele>
        <time>2015-03-20T15:50:19Z</time>
      </trkpt>
      <trkpt lat="39.604163" lon="-8.413451">
        <ele>57.369</ele>
        <time>2015-03-20T15:50:30Z</time>
      </trkpt>
      <trkpt lat="39.604257" lon="-8.412928">
        <ele>57.311</ele>
        <time>2015-03-20T15:50:45Z</time>
      </trkpt>
      <trkpt lat="39.604373" lon="-8.412616">
        <ele>57.371</ele>
        <time>2015-03-20T15:51:02Z</time>
      </trkpt>
      <trkpt lat="39.604418" lon="-8.412569">
        <ele>68.429</ele>
        <time>2015-03-21T07:44:39Z</time>
      </trkpt>
      <trkpt lat="39.604427" lon="-8.412342">
        <ele>68.934</ele>
        <time>2015-03-21T07:51:08Z</time>
      </trkpt>
      <trkpt lat="39.604459" lon="-8.412150">
        <ele>68.991</ele>
        <time>2015-03-21T07:51:22Z</time>
      </trkpt>
      <trkpt lat="39.604473" lon="-8.412091">
        <ele>68.979</ele>
        <time>2015-03-21T07:51:26Z</time>
      </trkpt>
      <trkpt lat="39.604503" lon="-8.411809">
        <ele>68.905</ele>
        <time>2015-03-21T07:51:44Z</time>
      </trkpt>
      <trkpt lat="39.604518" lon="-8.411595">
        <ele>68.925</ele>
        <time>2015-03-21T07:52:01Z</time>
      </trkpt>
      <trkpt lat="39.604516" lon="-8.411532">
        <ele>69.807</ele>
        <time>2015-03-21T07:52:50Z</time>
      </trkpt>
      <trkpt lat="39.604541" lon="-8.411262">
        <ele>69.476</ele>
        <time>2015-03-21T07:53:02Z</time>
      </trkpt>
      <trkpt lat="39.604578" lon="-8.410826">
        <ele>69.419</ele>
        <time>2015-03-21T07:53:15Z</time>
      </trkpt>
      <trkpt lat="39.604622" lon="-8.410393">
        <ele>67.431</ele>
        <time>2015-03-21T07:53:28Z</time>
      </trkpt>
      <trkpt lat="39.604654" lon="-8.409985">
        <ele>68.421</ele>
        <time>2015-03-21T07:53:43Z</time>
      </trkpt>
      <trkpt lat="39.604656" lon="-8.409906">
        <ele>68.449</ele>
        <time>2015-03-21T07:55:11Z</time>
      </trkpt>
      <trkpt lat="39.604737" lon="-8.409855">
        <ele>68.934</ele>
        <time>2015-03-21T07:55:17Z</time>
      </trkpt>
      <trkpt lat="39.604988" lon="-8.409876">
        <ele>68.931</ele>
        <time>2015-03-21T07:55:29Z</time>
      </trkpt>
      <trkpt lat="39.605242" lon="-8.409891">
        <ele>68.972</ele>
        <time>2015-03-21T07:55:39Z</time>
      </trkpt>
      <trkpt lat="39.605610" lon="-8.409888">
        <ele>68.913</ele>
        <time>2015-03-21T07:55:52Z</time>
      </trkpt>
      <trkpt lat="39.605994" lon="-8.409823">
        <ele>69.414</ele>
        <time>2015-03-21T07:56:07Z</time>
      </trkpt>
      <trkpt lat="39.606209" lon="-8.409673">
        <ele>70.807</ele>
        <time>2015-03-21T07:56:17Z</time>
      </trkpt>
      <trkpt lat="39.606562" lon="-8.409505">
        <ele>72.796</ele>
        <time>2015-03-21T07:56:34Z</time>
      </trkpt>
      <trkpt lat="39.606832" lon="-8.409347">
        <ele>75.199</ele>
        <time>2015-03-21T07:56:50Z</time>
      </trkpt>
      <trkpt lat="39.606967" lon="-8.409259">
        <ele>76.191</ele>
        <time>2015-03-21T07:57:00Z</time>
      </trkpt>
      <trkpt lat="39.607201" lon="-8.409142">
        <ele>77.571</ele>
        <time>2015-03-21T07:57:13Z</time>
      </trkpt>
      <trkpt lat="39.607548" lon="-8.408913">
        <ele>77.589</ele>
        <time>2015-03-21T07:57:26Z</time>
      </trkpt>
      <trkpt lat="39.608050" lon="-8.408663">
        <ele>76.624</ele>
        <time>2015-03-21T07:57:42Z</time>
      </trkpt>
      <trkpt lat="39.608495" lon="-8.408514">
        <ele>75.111</ele>
        <time>2015-03-21T07:57:55Z</time>
      </trkpt>
      <trkpt lat="39.609188" lon="-8.408356">
        <ele>74.298</ele>
        <time>2015-03-21T07:58:12Z</time>
      </trkpt>
      <trkpt lat="39.609651" lon="-8.408350">
        <ele>73.715</ele>
        <time>2015-03-21T07:58:25Z</time>
      </trkpt>
      <trkpt lat="39.610136" lon="-8.408340">
        <ele>75.626</ele>
        <time>2015-03-21T07:58:39Z</time>
      </trkpt>
      <trkpt lat="39.610800" lon="-8.408245">
        <ele>76.107</ele>
        <time>2015-03-21T07:58:58Z</time>
      </trkpt>
      <trkpt lat="39.611543" lon="-8.408318">
        <ele>76.158</ele>
        <time>2015-03-21T07:59:19Z</time>
      </trkpt>
      <trkpt lat="39.612057" lon="-8.408422">
        <ele>76.191</ele>
        <time>2015-03-21T07:59:34Z</time>
      </trkpt>
      <trkpt lat="39.612381" lon="-8.408435">
        <ele>78.553</ele>
        <time>2015-03-21T07:59:48Z</time>
      </trkpt>
      <trkpt lat="39.612821" lon="-8.408517">
        <ele>80.983</ele>
        <time>2015-03-21T08:00:07Z</time>
      </trkpt>
      <trkpt lat="39.613597" lon="-8.408673">
        <ele>80.451</ele>
        <time>2015-03-21T08:00:29Z</time>
      </trkpt>
      <trkpt lat="39.613684" lon="-8.408689">
        <ele>79.546</ele>
        <time>2015-03-21T08:00:31Z</time>
      </trkpt>
      <trkpt lat="39.614162" lon="-8.408790">
        <ele>76.153</ele>
        <time>2015-03-21T08:00:39Z</time>
      </trkpt>
      <trkpt lat="39.614634" lon="-8.408881">
        <ele>77.034</ele>
        <time>2015-03-21T08:00:48Z</time>
      </trkpt>
      <trkpt lat="39.615247" lon="-8.409085">
        <ele>78.055</ele>
        <time>2015-03-21T08:01:06Z</time>
      </trkpt>
      <trkpt lat="39.615605" lon="-8.409157">
        <ele>74.610</ele>
        <time>2015-03-21T08:01:15Z</time>
      </trkpt>
      <trkpt lat="39.615696" lon="-8.409151">
        <ele>73.707</ele>
        <time>2015-03-21T08:01:17Z</time>
      </trkpt>
      <trkpt lat="39.615892" lon="-8.409229">
        <ele>72.722</ele>
        <time>2015-03-21T08:01:23Z</time>
      </trkpt>
      <trkpt lat="39.616201" lon="-8.409301">
        <ele>76.185</ele>
        <time>2015-03-21T08:01:39Z</time>
      </trkpt>
      <trkpt lat="39.616557" lon="-8.409313">
        <ele>77.587</ele>
        <time>2015-03-21T08:01:57Z</time>
      </trkpt>
      <trkpt lat="39.616794" lon="-8.409344">
        <ele>79.057</ele>
        <time>2015-03-21T08:02:11Z</time>
      </trkpt>
      <trkpt lat="39.616963" lon="-8.409321">
        <ele>79.555</ele>
        <time>2015-03-21T08:02:25Z</time>
      </trkpt>
      <trkpt lat="39.617084" lon="-8.409308">
        <ele>79.570</ele>
        <time>2015-03-21T08:02:39Z</time>
      </trkpt>
      <trkpt lat="39.617144" lon="-8.409313">
        <ele>79.597</ele>
        <time>2015-03-21T08:03:10Z</time>
      </trkpt>
      <trkpt lat="39.617195" lon="-8.409323">
        <ele>78.044</ele>
        <time>2015-03-21T08:03:13Z</time>
      </trkpt>
      <trkpt lat="39.617485" lon="-8.409337">
        <ele>77.505</ele>
        <time>2015-03-21T08:03:24Z</time>
      </trkpt>
      <trkpt lat="39.617651" lon="-8.409358">
        <ele>76.615</ele>
        <time>2015-03-21T08:03:33Z</time>
      </trkpt>
      <trkpt lat="39.617721" lon="-8.409347">
        <ele>76.607</ele>
        <time>2015-03-21T08:03:37Z</time>
      </trkpt>
      <trkpt lat="39.617955" lon="-8.409238">
        <ele>76.613</ele>
        <time>2015-03-21T08:03:54Z</time>
      </trkpt>
      <trkpt lat="39.618048" lon="-8.409228">
        <ele>76.616</ele>
        <time>2015-03-21T08:04:10Z</time>
      </trkpt>
      <trkpt lat="39.618205" lon="-8.409213">
        <ele>76.148</ele>
        <time>2015-03-21T08:04:20Z</time>
      </trkpt>
      <trkpt lat="39.618439" lon="-8.409056">
        <ele>77.578</ele>
        <time>2015-03-21T08:04:35Z</time>
      </trkpt>
      <trkpt lat="39.618681" lon="-8.408885">
        <ele>77.526</ele>
        <time>2015-03-21T08:04:50Z</time>
      </trkpt>
      <trkpt lat="39.618879" lon="-8.408776">
        <ele>76.631</ele>
        <time>2015-03-21T08:05:00Z</time>
      </trkpt>
      <trkpt lat="39.619109" lon="-8.408627">
        <ele>78.598</ele>
        <time>2015-03-21T08:05:16Z</time>
      </trkpt>
      <trkpt lat="39.619169" lon="-8.408566">
        <ele>79.053</ele>
        <time>2015-03-21T08:05:20Z</time>
      </trkpt>
      <trkpt lat="39.619286" lon="-8.408418">
        <ele>79.504</ele>
        <time>2015-03-21T08:05:29Z</time>
      </trkpt>
      <trkpt lat="39.619350" lon="-8.408328">
        <ele>79.514</ele>
        <time>2015-03-21T08:05:34Z</time>
      </trkpt>
      <trkpt lat="39.619456" lon="-8.408238">
        <ele>77.007</ele>
        <time>2015-03-21T08:05:40Z</time>
      </trkpt>
      <trkpt lat="39.619533" lon="-8.408204">
        <ele>75.674</ele>
        <time>2015-03-21T08:05:45Z</time>
      </trkpt>
      <trkpt lat="39.619662" lon="-8.407940">
        <ele>75.147</ele>
        <time>2015-03-21T08:05:57Z</time>
      </trkpt>
      <trkpt lat="39.619685" lon="-8.407760">
        <ele>76.169</ele>
        <time>2015-03-21T08:06:06Z</time>
      </trkpt>
      <trkpt lat="39.619707" lon="-8.407653">
        <ele>75.119</ele>
        <time>2015-03-21T08:06:10Z</time>
      </trkpt>
      <trkpt lat="39.619714" lon="-8.407592">
        <ele>74.247</ele>
        <time>2015-03-21T08:06:17Z</time>
      </trkpt>
      <trkpt lat="39.619723" lon="-8.407512">
        <ele>73.782</ele>
        <time>2015-03-21T08:06:23Z</time>
      </trkpt>
      <trkpt lat="39.619731" lon="-8.407309">
        <ele>73.229</ele>
        <time>2015-03-21T08:06:40Z</time>
      </trkpt>
      <trkpt lat="39.619719" lon="-8.407041">
        <ele>72.711</ele>
        <time>2015-03-21T08:06:53Z</time>
      </trkpt>
      <trkpt lat="39.619679" lon="-8.406824">
        <ele>71.321</ele>
        <time>2015-03-21T08:07:01Z</time>
      </trkpt>
      <trkpt lat="39.619596" lon="-8.406492">
        <ele>71.303</ele>
        <time>2015-03-21T08:07:13Z</time>
      </trkpt>
      <trkpt lat="39.619584" lon="-8.406326">
        <ele>71.307</ele>
        <time>2015-03-21T08:07:20Z</time>
      </trkpt>
      <trkpt lat="39.619584" lon="-8.406142">
        <ele>70.880</ele>
        <time>2015-03-21T08:07:28Z</time>
      </trkpt>
      <trkpt lat="39.619583" lon="-8.405907">
        <ele>70.813</ele>
        <time>2015-03-21T08:07:39Z</time>
      </trkpt>
      <trkpt lat="39.619586" lon="-8.405700">
        <ele>70.815</ele>
        <time>2015-03-21T08:07:48Z</time>
      </trkpt>
      <trkpt lat="39.619558" lon="-8.405434">
        <ele>70.345</ele>
        <time>2015-03-21T08:08:00Z</time>
      </trkpt>
      <trkpt lat="39.619565" lon="-8.405047">
        <ele>70.313</ele>
        <time>2015-03-21T08:08:14Z</time>
      </trkpt>
      <trkpt lat="39.619664" lon="-8.404747">
        <ele>70.338</ele>
        <time>2015-03-21T08:08:27Z</time>
      </trkpt>
      <trkpt lat="39.619700" lon="-8.404649">
        <ele>70.325</ele>
        <time>2015-03-21T08:08:50Z</time>
      </trkpt>
      <trkpt lat="39.619715" lon="-8.404581">
        <ele>70.377</ele>
        <time>2015-03-21T08:08:53Z</time>
      </trkpt>
      <trkpt lat="39.619753" lon="-8.404486">
        <ele>70.361</ele>
        <time>2015-03-21T08:09:04Z</time>
      </trkpt>
      <trkpt lat="39.619791" lon="-8.404357">
        <ele>70.327</ele>
        <time>2015-03-21T08:09:15Z</time>
      </trkpt>
      <trkpt lat="39.619802" lon="-8.404242">
        <ele>70.307</ele>
        <time>2015-03-21T08:09:26Z</time>
      </trkpt>
      <trkpt lat="39.619870" lon="-8.404063">
        <ele>70.396</ele>
        <time>2015-03-21T08:09:34Z</time>
      </trkpt>
      <trkpt lat="39.619927" lon="-8.403909">
        <ele>70.359</ele>
        <time>2015-03-21T08:09:41Z</time>
      </trkpt>
      <trkpt lat="39.619992" lon="-8.403737">
        <ele>70.341</ele>
        <time>2015-03-21T08:09:48Z</time>
      </trkpt>
      <trkpt lat="39.620188" lon="-8.403484">
        <ele>71.891</ele>
        <time>2015-03-21T08:10:02Z</time>
      </trkpt>
      <trkpt lat="39.620364" lon="-8.403301">
        <ele>71.379</ele>
        <time>2015-03-21T08:10:12Z</time>
      </trkpt>
      <trkpt lat="39.620495" lon="-8.403134">
        <ele>71.354</ele>
        <time>2015-03-21T08:10:21Z</time>
      </trkpt>
      <trkpt lat="39.620716" lon="-8.402997">
        <ele>71.341</ele>
        <time>2015-03-21T08:10:33Z</time>
      </trkpt>
      <trkpt lat="39.620924" lon="-8.402880">
        <ele>70.357</ele>
        <time>2015-03-21T08:10:47Z</time>
      </trkpt>
      <trkpt lat="39.621033" lon="-8.402840">
        <ele>70.300</ele>
        <time>2015-03-21T08:10:53Z</time>
      </trkpt>
      <trkpt lat="39.621239" lon="-8.402845">
        <ele>70.320</ele>
        <time>2015-03-21T08:11:03Z</time>
      </trkpt>
      <trkpt lat="39.621605" lon="-8.402748">
        <ele>70.307</ele>
        <time>2015-03-21T08:11:20Z</time>
      </trkpt>
      <trkpt lat="39.621927" lon="-8.402685">
        <ele>70.314</ele>
        <time>2015-03-21T08:11:35Z</time>
      </trkpt>
      <trkpt lat="39.621996" lon="-8.402472">
        <ele>70.397</ele>
        <time>2015-03-21T08:11:45Z</time>
      </trkpt>
      <trkpt lat="39.622015" lon="-8.402372">
        <ele>69.849</ele>
        <time>2015-03-21T08:11:49Z</time>
      </trkpt>
      <trkpt lat="39.622116" lon="-8.402076">
        <ele>70.339</ele>
        <time>2015-03-21T08:12:01Z</time>
      </trkpt>
      <trkpt lat="39.622187" lon="-8.401736">
        <ele>71.377</ele>
        <time>2015-03-21T08:12:13Z</time>
      </trkpt>
      <trkpt lat="39.622179" lon="-8.401607">
        <ele>71.362</ele>
        <time>2015-03-21T08:12:18Z</time>
      </trkpt>
      <trkpt lat="39.622101" lon="-8.401474">
        <ele>71.379</ele>
        <time>2015-03-21T08:12:24Z</time>
      </trkpt>
      <trkpt lat="39.621765" lon="-8.400916">
        <ele>71.842</ele>
        <time>2015-03-21T08:12:43Z</time>
      </trkpt>
      <trkpt lat="39.621717" lon="-8.400593">
        <ele>72.722</ele>
        <time>2015-03-21T08:12:57Z</time>
      </trkpt>
      <trkpt lat="39.621765" lon="-8.400502">
        <ele>73.714</ele>
        <time>2015-03-21T08:13:09Z</time>
      </trkpt>
      <trkpt lat="39.622030" lon="-8.400492">
        <ele>73.707</ele>
        <time>2015-03-21T08:13:34Z</time>
      </trkpt>
      <trkpt lat="39.622291" lon="-8.400447">
        <ele>75.163</ele>
        <time>2015-03-21T08:13:47Z</time>
      </trkpt>
      <trkpt lat="39.622548" lon="-8.400405">
        <ele>77.546</ele>
        <time>2015-03-21T08:14:00Z</time>
      </trkpt>
      <trkpt lat="39.622907" lon="-8.400284">
        <ele>77.538</ele>
        <time>2015-03-21T08:14:13Z</time>
      </trkpt>
      <trkpt lat="39.623011" lon="-8.400183">
        <ele>75.688</ele>
        <time>2015-03-21T08:14:16Z</time>
      </trkpt>
      <trkpt lat="39.623353" lon="-8.399963">
        <ele>74.256</ele>
        <time>2015-03-21T08:14:24Z</time>
      </trkpt>
      <trkpt lat="39.623604" lon="-8.400071">
        <ele>75.661</ele>
        <time>2015-03-21T08:14:34Z</time>
      </trkpt>
      <trkpt lat="39.623702" lon="-8.400197">
        <ele>78.578</ele>
        <time>2015-03-21T08:14:44Z</time>
      </trkpt>
      <trkpt lat="39.623863" lon="-8.400275">
        <ele>81.417</ele>
        <time>2015-03-21T08:14:59Z</time>
      </trkpt>
      <trkpt lat="39.624060" lon="-8.400364">
        <ele>84.787</ele>
        <time>2015-03-21T08:15:16Z</time>
      </trkpt>
      <trkpt lat="39.624243" lon="-8.400457">
        <ele>88.115</ele>
        <time>2015-03-21T08:15:33Z</time>
      </trkpt>
      <trkpt lat="39.624466" lon="-8.400569">
        <ele>91.507</ele>
        <time>2015-03-21T08:15:53Z</time>
      </trkpt>
      <trkpt lat="39.624646" lon="-8.400687">
        <ele>93.990</ele>
        <time>2015-03-21T08:16:09Z</time>
      </trkpt>
      <trkpt lat="39.624845" lon="-8.400976">
        <ele>93.983</ele>
        <time>2015-03-21T08:16:25Z</time>
      </trkpt>
      <trkpt lat="39.624902" lon="-8.401150">
        <ele>91.925</ele>
        <time>2015-03-21T08:16:29Z</time>
      </trkpt>
      <trkpt lat="39.625032" lon="-8.401452">
        <ele>88.695</ele>
        <time>2015-03-21T08:16:35Z</time>
      </trkpt>
      <trkpt lat="39.625122" lon="-8.401603">
        <ele>86.293</ele>
        <time>2015-03-21T08:16:38Z</time>
      </trkpt>
      <trkpt lat="39.625543" lon="-8.401824">
        <ele>81.988</ele>
        <time>2015-03-21T08:16:48Z</time>
      </trkpt>
      <trkpt lat="39.625828" lon="-8.401866">
        <ele>76.195</ele>
        <time>2015-03-21T08:16:53Z</time>
      </trkpt>
      <trkpt lat="39.625891" lon="-8.401857">
        <ele>75.152</ele>
        <time>2015-03-21T08:16:54Z</time>
      </trkpt>
      <trkpt lat="39.626016" lon="-8.401845">
        <ele>74.653</ele>
        <time>2015-03-21T08:16:56Z</time>
      </trkpt>
      <trkpt lat="39.626141" lon="-8.401850">
        <ele>73.208</ele>
        <time>2015-03-21T08:16:58Z</time>
      </trkpt>
      <trkpt lat="39.626196" lon="-8.401854">
        <ele>72.207</ele>
        <time>2015-03-21T08:16:59Z</time>
      </trkpt>
      <trkpt lat="39.626398" lon="-8.401793">
        <ele>70.374</ele>
        <time>2015-03-21T08:17:03Z</time>
      </trkpt>
      <trkpt lat="39.626474" lon="-8.401719">
        <ele>70.397</ele>
        <time>2015-03-21T08:17:05Z</time>
      </trkpt>
      <trkpt lat="39.626838" lon="-8.401378">
        <ele>70.329</ele>
        <time>2015-03-21T08:17:17Z</time>
      </trkpt>
      <trkpt lat="39.627255" lon="-8.400907">
        <ele>70.359</ele>
        <time>2015-03-21T08:17:33Z</time>
      </trkpt>
      <trkpt lat="39.627571" lon="-8.400556">
        <ele>70.327</ele>
        <time>2015-03-21T08:17:46Z</time>
      </trkpt>
      <trkpt lat="39.627931" lon="-8.400157">
        <ele>70.372</ele>
        <time>2015-03-21T08:18:00Z</time>
      </trkpt>
      <trkpt lat="39.628359" lon="-8.399865">
        <ele>70.399</ele>
        <time>2015-03-21T08:18:14Z</time>
      </trkpt>
      <trkpt lat="39.628866" lon="-8.399681">
        <ele>70.328</ele>
        <time>2015-03-21T08:18:29Z</time>
      </trkpt>
      <trkpt lat="39.629452" lon="-8.399456">
        <ele>69.889</ele>
        <time>2015-03-21T08:18:47Z</time>
      </trkpt>
      <trkpt lat="39.629934" lon="-8.399384">
        <ele>72.717</ele>
        <time>2015-03-21T08:19:03Z</time>
      </trkpt>
      <trkpt lat="39.630430" lon="-8.399453">
        <ele>72.707</ele>
        <time>2015-03-21T08:19:18Z</time>
      </trkpt>
      <trkpt lat="39.630841" lon="-8.399612">
        <ele>72.781</ele>
        <time>2015-03-21T08:19:31Z</time>
      </trkpt>
      <trkpt lat="39.631209" lon="-8.399758">
        <ele>72.774</ele>
        <time>2015-03-21T08:19:45Z</time>
      </trkpt>
      <trkpt lat="39.631369" lon="-8.399847">
        <ele>73.216</ele>
        <time>2015-03-21T08:19:53Z</time>
      </trkpt>
      <trkpt lat="39.631466" lon="-8.399804">
        <ele>74.626</ele>
        <time>2015-03-21T08:20:05Z</time>
      </trkpt>
      <trkpt lat="39.631430" lon="-8.399673">
        <ele>76.624</ele>
        <time>2015-03-21T08:20:19Z</time>
      </trkpt>
      <trkpt lat="39.631374" lon="-8.399538">
        <ele>80.429</ele>
        <time>2015-03-21T08:20:35Z</time>
      </trkpt>
      <trkpt lat="39.631320" lon="-8.399396">
        <ele>82.866</ele>
        <time>2015-03-21T08:20:52Z</time>
      </trkpt>
      <trkpt lat="39.631276" lon="-8.399306">
        <ele>83.869</ele>
        <time>2015-03-21T08:21:01Z</time>
      </trkpt>
      <trkpt lat="39.631153" lon="-8.399194">
        <ele>87.604</ele>
        <time>2015-03-21T08:21:21Z</time>
      </trkpt>
      <trkpt lat="39.631114" lon="-8.399088">
        <ele>89.524</ele>
        <time>2015-03-21T08:21:33Z</time>
      </trkpt>
      <trkpt lat="39.631136" lon="-8.398968">
        <ele>91.007</ele>
        <time>2015-03-21T08:21:44Z</time>
      </trkpt>
      <trkpt lat="39.631241" lon="-8.398863">
        <ele>92.485</ele>
        <time>2015-03-21T08:21:59Z</time>
      </trkpt>
      <trkpt lat="39.631357" lon="-8.398741">
        <ele>95.318</ele>
        <time>2015-03-21T08:22:17Z</time>
      </trkpt>
      <trkpt lat="39.631453" lon="-8.398669">
        <ele>96.860</ele>
        <time>2015-03-21T08:22:30Z</time>
      </trkpt>
      <trkpt lat="39.631565" lon="-8.398554">
        <ele>99.210</ele>
        <time>2015-03-21T08:22:47Z</time>
      </trkpt>
      <trkpt lat="39.631598" lon="-8.398497">
        <ele>99.628</ele>
        <time>2015-03-21T08:22:53Z</time>
      </trkpt>
      <trkpt lat="39.631711" lon="-8.398316">
        <ele>102.093</ele>
        <time>2015-03-21T08:23:12Z</time>
      </trkpt>
      <trkpt lat="39.631813" lon="-8.398171">
        <ele>103.550</ele>
        <time>2015-03-21T08:23:30Z</time>
      </trkpt>
      <trkpt lat="39.631836" lon="-8.398120">
        <ele>104.038</ele>
        <time>2015-03-21T08:23:40Z</time>
      </trkpt>
      <trkpt lat="39.631895" lon="-8.398032">
        <ele>104.470</ele>
        <time>2015-03-21T08:23:46Z</time>
      </trkpt>
      <trkpt lat="39.632036" lon="-8.397787">
        <ele>106.417</ele>
        <time>2015-03-21T08:24:01Z</time>
      </trkpt>
      <trkpt lat="39.632150" lon="-8.397515">
        <ele>106.807</ele>
        <time>2015-03-21T08:24:14Z</time>
      </trkpt>
      <trkpt lat="39.632303" lon="-8.397261">
        <ele>107.372</ele>
        <time>2015-03-21T08:24:27Z</time>
      </trkpt>
      <trkpt lat="39.632519" lon="-8.397129">
        <ele>110.285</ele>
        <time>2015-03-21T08:24:45Z</time>
      </trkpt>
      <trkpt lat="39.632735" lon="-8.397008">
        <ele>110.767</ele>
        <time>2015-03-21T08:25:00Z</time>
      </trkpt>
      <trkpt lat="39.632990" lon="-8.396875">
        <ele>113.167</ele>
        <time>2015-03-21T08:25:18Z</time>
      </trkpt>
      <trkpt lat="39.633147" lon="-8.396736">
        <ele>114.555</ele>
        <time>2015-03-21T08:25:32Z</time>
      </trkpt>
      <trkpt lat="39.633236" lon="-8.396645">
        <ele>116.080</ele>
        <time>2015-03-21T08:25:39Z</time>
      </trkpt>
      <trkpt lat="39.633272" lon="-8.396560">
        <ele>116.587</ele>
        <time>2015-03-21T08:25:44Z</time>
      </trkpt>
      <trkpt lat="39.633335" lon="-8.396288">
        <ele>117.912</ele>
        <time>2015-03-21T08:25:59Z</time>
      </trkpt>
      <trkpt lat="39.633389" lon="-8.395967">
        <ele>118.932</ele>
        <time>2015-03-21T08:26:14Z</time>
      </trkpt>
      <trkpt lat="39.633594" lon="-8.395692">
        <ele>118.905</ele>
        <time>2015-03-21T08:26:28Z</time>
      </trkpt>
      <trkpt lat="39.633894" lon="-8.395554">
        <ele>116.507</ele>
        <time>2015-03-21T08:26:39Z</time>
      </trkpt>
      <trkpt lat="39.634231" lon="-8.395369">
        <ele>116.040</ele>
        <time>2015-03-21T08:26:57Z</time>
      </trkpt>
      <trkpt lat="39.634498" lon="-8.395271">
        <ele>116.073</ele>
        <time>2015-03-21T08:27:12Z</time>
      </trkpt>
      <trkpt lat="39.634655" lon="-8.395185">
        <ele>116.015</ele>
        <time>2015-03-21T08:27:22Z</time>
      </trkpt>
      <trkpt lat="39.634698" lon="-8.395165">
        <ele>117.435</ele>
        <time>2015-03-21T08:27:25Z</time>
      </trkpt>
      <trkpt lat="39.634805" lon="-8.395105">
        <ele>117.933</ele>
        <time>2015-03-21T08:27:33Z</time>
      </trkpt>
      <trkpt lat="39.634855" lon="-8.395081">
        <ele>118.948</ele>
        <time>2015-03-21T08:27:37Z</time>
      </trkpt>
      <trkpt lat="39.634991" lon="-8.394985">
        <ele>120.355</ele>
        <time>2015-03-21T08:27:47Z</time>
      </trkpt>
      <trkpt lat="39.635232" lon="-8.394791">
        <ele>121.786</ele>
        <time>2015-03-21T08:28:05Z</time>
      </trkpt>
      <trkpt lat="39.635411" lon="-8.394590">
        <ele>123.760</ele>
        <time>2015-03-21T08:28:21Z</time>
      </trkpt>
      <trkpt lat="39.635483" lon="-8.394243">
        <ele>126.126</ele>
        <time>2015-03-21T08:28:40Z</time>
      </trkpt>
      <trkpt lat="39.635686" lon="-8.394065">
        <ele>126.107</ele>
        <time>2015-03-21T08:28:54Z</time>
      </trkpt>
      <trkpt lat="39.635944" lon="-8.393895">
        <ele>126.147</ele>
        <time>2015-03-21T08:29:06Z</time>
      </trkpt>
      <trkpt lat="39.636231" lon="-8.393535">
        <ele>124.640</ele>
        <time>2015-03-21T08:29:22Z</time>
      </trkpt>
      <trkpt lat="39.636592" lon="-8.393237">
        <ele>121.792</ele>
        <time>2015-03-21T08:29:34Z</time>
      </trkpt>
      <trkpt lat="39.636927" lon="-8.393198">
        <ele>121.782</ele>
        <time>2015-03-21T08:29:49Z</time>
      </trkpt>
      <trkpt lat="39.637311" lon="-8.393144">
        <ele>121.740</ele>
        <time>2015-03-21T08:30:05Z</time>
      </trkpt>
      <trkpt lat="39.637637" lon="-8.393314">
        <ele>121.365</ele>
        <time>2015-03-21T08:30:18Z</time>
      </trkpt>
      <trkpt lat="39.637948" lon="-8.393462">
        <ele>120.832</ele>
        <time>2015-03-21T08:30:30Z</time>
      </trkpt>
      <trkpt lat="39.638062" lon="-8.393555">
        <ele>122.258</ele>
        <time>2015-03-21T08:30:36Z</time>
      </trkpt>
      <trkpt lat="39.638188" lon="-8.393705">
        <ele>123.252</ele>
        <time>2015-03-21T08:30:44Z</time>
      </trkpt>
      <trkpt lat="39.638373" lon="-8.393600">
        <ele>124.217</ele>
        <time>2015-03-21T08:30:54Z</time>
      </trkpt>
      <trkpt lat="39.638570" lon="-8.393487">
        <ele>125.107</ele>
        <time>2015-03-21T08:31:05Z</time>
      </trkpt>
      <trkpt lat="39.638658" lon="-8.393549">
        <ele>125.684</ele>
        <time>2015-03-21T08:31:10Z</time>
      </trkpt>
      <trkpt lat="39.639049" lon="-8.393679">
        <ele>127.077</ele>
        <time>2015-03-21T08:31:28Z</time>
      </trkpt>
      <trkpt lat="39.639344" lon="-8.393823">
        <ele>128.089</ele>
        <time>2015-03-21T08:31:43Z</time>
      </trkpt>
      <trkpt lat="39.639589" lon="-8.393974">
        <ele>130.479</ele>
        <time>2015-03-21T08:31:58Z</time>
      </trkpt>
      <trkpt lat="39.639729" lon="-8.394408">
        <ele>132.897</ele>
        <time>2015-03-21T08:32:21Z</time>
      </trkpt>
      <trkpt lat="39.639882" lon="-8.394656">
        <ele>134.772</ele>
        <time>2015-03-21T08:32:37Z</time>
      </trkpt>
      <trkpt lat="39.640177" lon="-8.394604">
        <ele>135.269</ele>
        <time>2015-03-21T08:32:49Z</time>
      </trkpt>
      <trkpt lat="39.640250" lon="-8.394598">
        <ele>133.827</ele>
        <time>2015-03-21T08:32:51Z</time>
      </trkpt>
      <trkpt lat="39.640670" lon="-8.394586">
        <ele>133.368</ele>
        <time>2015-03-21T08:33:04Z</time>
      </trkpt>
      <trkpt lat="39.641012" lon="-8.394643">
        <ele>133.314</ele>
        <time>2015-03-21T08:33:19Z</time>
      </trkpt>
      <trkpt lat="39.641356" lon="-8.394690">
        <ele>134.707</ele>
        <time>2015-03-21T08:33:34Z</time>
      </trkpt>
      <trkpt lat="39.641741" lon="-8.394708">
        <ele>135.241</ele>
        <time>2015-03-21T08:33:51Z</time>
      </trkpt>
      <trkpt lat="39.642077" lon="-8.394638">
        <ele>136.674</ele>
        <time>2015-03-21T08:34:06Z</time>
      </trkpt>
      <trkpt lat="39.642405" lon="-8.394612">
        <ele>138.176</ele>
        <time>2015-03-21T08:34:22Z</time>
      </trkpt>
      <trkpt lat="39.642673" lon="-8.394588">
        <ele>141.036</ele>
        <time>2015-03-21T08:34:38Z</time>
      </trkpt>
      <trkpt lat="39.642980" lon="-8.394605">
        <ele>143.454</ele>
        <time>2015-03-21T08:34:56Z</time>
      </trkpt>
      <trkpt lat="39.643274" lon="-8.394578">
        <ele>144.849</ele>
        <time>2015-03-21T08:35:13Z</time>
      </trkpt>
      <trkpt lat="39.643695" lon="-8.394560">
        <ele>143.456</ele>
        <time>2015-03-21T08:35:28Z</time>
      </trkpt>
      <trkpt lat="39.644077" lon="-8.394491">
        <ele>143.462</ele>
        <time>2015-03-21T08:35:44Z</time>
      </trkpt>
      <trkpt lat="39.644401" lon="-8.394454">
        <ele>145.383</ele>
        <time>2015-03-21T08:36:02Z</time>
      </trkpt>
      <trkpt lat="39.644726" lon="-8.394424">
        <ele>146.711</ele>
        <time>2015-03-21T08:36:20Z</time>
      </trkpt>
      <trkpt lat="39.645018" lon="-8.394347">
        <ele>149.107</ele>
        <time>2015-03-21T08:36:37Z</time>
      </trkpt>
      <trkpt lat="39.645319" lon="-8.394280">
        <ele>150.135</ele>
        <time>2015-03-21T08:36:53Z</time>
      </trkpt>
      <trkpt lat="39.645659" lon="-8.394264">
        <ele>150.128</ele>
        <time>2015-03-21T08:37:10Z</time>
      </trkpt>
      <trkpt lat="39.646036" lon="-8.394337">
        <ele>150.630</ele>
        <time>2015-03-21T08:37:26Z</time>
      </trkpt>
      <trkpt lat="39.646468" lon="-8.394370">
        <ele>149.130</ele>
        <time>2015-03-21T08:37:41Z</time>
      </trkpt>
      <trkpt lat="39.646874" lon="-8.394354">
        <ele>149.178</ele>
        <time>2015-03-21T08:37:57Z</time>
      </trkpt>
      <trkpt lat="39.647450" lon="-8.394345">
        <ele>148.213</ele>
        <time>2015-03-21T08:38:14Z</time>
      </trkpt>
      <trkpt lat="39.647858" lon="-8.394349">
        <ele>148.220</ele>
        <time>2015-03-21T08:38:29Z</time>
      </trkpt>
      <trkpt lat="39.648150" lon="-8.394301">
        <ele>147.247</ele>
        <time>2015-03-21T08:38:39Z</time>
      </trkpt>
      <trkpt lat="39.648420" lon="-8.393831">
        <ele>143.929</ele>
        <time>2015-03-21T08:38:47Z</time>
      </trkpt>
      <trkpt lat="39.648670" lon="-8.393425">
        <ele>140.521</ele>
        <time>2015-03-21T08:38:52Z</time>
      </trkpt>
      <trkpt lat="39.648951" lon="-8.392946">
        <ele>137.607</ele>
        <time>2015-03-21T08:38:57Z</time>
      </trkpt>
      <trkpt lat="39.649257" lon="-8.392430">
        <ele>134.233</ele>
        <time>2015-03-21T08:39:02Z</time>
      </trkpt>
      <trkpt lat="39.649577" lon="-8.391665">
        <ele>135.796</ele>
        <time>2015-03-21T08:39:11Z</time>
      </trkpt>
      <trkpt lat="39.649764" lon="-8.391150">
        <ele>136.658</ele>
        <time>2015-03-21T08:39:22Z</time>
      </trkpt>
      <trkpt lat="39.649938" lon="-8.390703">
        <ele>135.298</ele>
        <time>2015-03-21T08:39:30Z</time>
      </trkpt>
      <trkpt lat="39.650068" lon="-8.389975">
        <ele>134.266</ele>
        <time>2015-03-21T08:39:43Z</time>
      </trkpt>
      <trkpt lat="39.650080" lon="-8.389845">
        <ele>135.731</ele>
        <time>2015-03-21T08:39:47Z</time>
      </trkpt>
      <trkpt lat="39.650209" lon="-8.389306">
        <ele>137.618</ele>
        <time>2015-03-21T08:40:06Z</time>
      </trkpt>
      <trkpt lat="39.650523" lon="-8.388790">
        <ele>140.568</ele>
        <time>2015-03-21T08:40:28Z</time>
      </trkpt>
      <trkpt lat="39.650705" lon="-8.388348">
        <ele>142.442</ele>
        <time>2015-03-21T08:40:47Z</time>
      </trkpt>
      <trkpt lat="39.650860" lon="-8.388006">
        <ele>145.826</ele>
        <time>2015-03-21T08:41:04Z</time>
      </trkpt>
      <trkpt lat="39.650989" lon="-8.387700">
        <ele>148.207</ele>
        <time>2015-03-21T08:41:20Z</time>
      </trkpt>
      <trkpt lat="39.651117" lon="-8.387381">
        <ele>150.625</ele>
        <time>2015-03-21T08:41:37Z</time>
      </trkpt>
      <trkpt lat="39.651284" lon="-8.387000">
        <ele>153.518</ele>
        <time>2015-03-21T08:41:58Z</time>
      </trkpt>
      <trkpt lat="39.651410" lon="-8.386715">
        <ele>156.430</ele>
        <time>2015-03-21T08:42:14Z</time>
      </trkpt>
      <trkpt lat="39.651557" lon="-8.386438">
        <ele>158.390</ele>
        <time>2015-03-21T08:42:30Z</time>
      </trkpt>
      <trkpt lat="39.651642" lon="-8.386085">
        <ele>160.768</ele>
        <time>2015-03-21T08:42:47Z</time>
      </trkpt>
      <trkpt lat="39.651704" lon="-8.385703">
        <ele>162.153</ele>
        <time>2015-03-21T08:43:04Z</time>
      </trkpt>
      <trkpt lat="39.651785" lon="-8.385253">
        <ele>163.650</ele>
        <time>2015-03-21T08:43:23Z</time>
      </trkpt>
      <trkpt lat="39.651814" lon="-8.384750">
        <ele>165.052</ele>
        <time>2015-03-21T08:43:42Z</time>
      </trkpt>
      <trkpt lat="39.651682" lon="-8.384405">
        <ele>167.453</ele>
        <time>2015-03-21T08:43:59Z</time>
      </trkpt>
      <trkpt lat="39.651708" lon="-8.384270">
        <ele>166.008</ele>
        <time>2015-03-21T08:57:11Z</time>
      </trkpt>
      <trkpt lat="39.651725" lon="-8.383941">
        <ele>167.907</ele>
        <time>2015-03-21T08:57:26Z</time>
      </trkpt>
      <trkpt lat="39.651901" lon="-8.383502">
        <ele>167.934</ele>
        <time>2015-03-21T08:57:41Z</time>
      </trkpt>
      <trkpt lat="39.652044" lon="-8.383143">
        <ele>167.987</ele>
        <time>2015-03-21T08:57:53Z</time>
      </trkpt>
      <trkpt lat="39.652203" lon="-8.383106">
        <ele>167.999</ele>
        <time>2015-03-21T08:58:01Z</time>
      </trkpt>
      <trkpt lat="39.652546" lon="-8.382831">
        <ele>169.879</ele>
        <time>2015-03-21T08:58:20Z</time>
      </trkpt>
      <trkpt lat="39.652830" lon="-8.382624">
        <ele>173.217</ele>
        <time>2015-03-21T08:58:38Z</time>
      </trkpt>
      <trkpt lat="39.653185" lon="-8.382565">
        <ele>173.732</ele>
        <time>2015-03-21T08:58:55Z</time>
      </trkpt>
      <trkpt lat="39.653278" lon="-8.382613">
        <ele>173.759</ele>
        <time>2015-03-21T08:58:58Z</time>
      </trkpt>
      <trkpt lat="39.653409" lon="-8.382764">
        <ele>172.254</ele>
        <time>2015-03-21T08:59:02Z</time>
      </trkpt>
      <trkpt lat="39.653439" lon="-8.382814">
        <ele>172.256</ele>
        <time>2015-03-21T08:59:03Z</time>
      </trkpt>
      <trkpt lat="39.653897" lon="-8.383600">
        <ele>169.811</ele>
        <time>2015-03-21T08:59:17Z</time>
      </trkpt>
      <trkpt lat="39.653978" lon="-8.383718">
        <ele>169.307</ele>
        <time>2015-03-21T08:59:19Z</time>
      </trkpt>
      <trkpt lat="39.654491" lon="-8.383992">
        <ele>168.914</ele>
        <time>2015-03-21T08:59:30Z</time>
      </trkpt>
      <trkpt lat="39.654780" lon="-8.383973">
        <ele>170.357</ele>
        <time>2015-03-21T08:59:40Z</time>
      </trkpt>
      <trkpt lat="39.655308" lon="-8.383955">
        <ele>172.219</ele>
        <time>2015-03-21T09:00:00Z</time>
      </trkpt>
      <trkpt lat="39.655819" lon="-8.383829">
        <ele>173.719</ele>
        <time>2015-03-21T09:00:20Z</time>
      </trkpt>
      <trkpt lat="39.656180" lon="-8.383456">
        <ele>175.697</ele>
        <time>2015-03-21T09:00:38Z</time>
      </trkpt>
      <trkpt lat="39.656524" lon="-8.383269">
        <ele>177.592</ele>
        <time>2015-03-21T09:00:55Z</time>
      </trkpt>
      <trkpt lat="39.656918" lon="-8.383228">
        <ele>179.489</ele>
        <time>2015-03-21T09:01:14Z</time>
      </trkpt>
      <trkpt lat="39.657306" lon="-8.383249">
        <ele>182.361</ele>
        <time>2015-03-21T09:01:34Z</time>
      </trkpt>
      <trkpt lat="39.657563" lon="-8.383288">
        <ele>184.721</ele>
        <time>2015-03-21T09:01:50Z</time>
      </trkpt>
      <trkpt lat="39.657862" lon="-8.383342">
        <ele>188.113</ele>
        <time>2015-03-21T09:02:08Z</time>
      </trkpt>
      <trkpt lat="39.658145" lon="-8.383511">
        <ele>190.007</ele>
        <time>2015-03-21T09:02:26Z</time>
      </trkpt>
      <trkpt lat="39.658431" lon="-8.383636">
        <ele>191.475</ele>
        <time>2015-03-21T09:02:43Z</time>
      </trkpt>
      <trkpt lat="39.658728" lon="-8.383603">
        <ele>193.838</ele>
        <time>2015-03-21T09:03:00Z</time>
      </trkpt>
      <trkpt lat="39.659069" lon="-8.383474">
        <ele>194.870</ele>
        <time>2015-03-21T09:03:18Z</time>
      </trkpt>
      <trkpt lat="39.659505" lon="-8.383240">
        <ele>195.330</ele>
        <time>2015-03-21T09:03:37Z</time>
      </trkpt>
      <trkpt lat="39.659937" lon="-8.382976">
        <ele>195.378</ele>
        <time>2015-03-21T09:03:56Z</time>
      </trkpt>
      <trkpt lat="39.660445" lon="-8.382645">
        <ele>196.323</ele>
        <time>2015-03-21T09:04:17Z</time>
      </trkpt>
      <trkpt lat="39.660769" lon="-8.382250">
        <ele>197.750</ele>
        <time>2015-03-21T09:04:34Z</time>
      </trkpt>
      <trkpt lat="39.660981" lon="-8.381905">
        <ele>198.722</ele>
        <time>2015-03-21T09:04:48Z</time>
      </trkpt>
      <trkpt lat="39.661217" lon="-8.381435">
        <ele>199.162</ele>
        <time>2015-03-21T09:05:02Z</time>
      </trkpt>
      <trkpt lat="39.661604" lon="-8.380770">
        <ele>197.208</ele>
        <time>2015-03-21T09:05:19Z</time>
      </trkpt>
      <trkpt lat="39.661764" lon="-8.380092">
        <ele>196.707</ele>
        <time>2015-03-21T09:05:34Z</time>
      </trkpt>
      <trkpt lat="39.662046" lon="-8.379459">
        <ele>196.771</ele>
        <time>2015-03-21T09:05:50Z</time>
      </trkpt>
      <trkpt lat="39.662380" lon="-8.378795">
        <ele>199.614</ele>
        <time>2015-03-21T09:06:08Z</time>
      </trkpt>
      <trkpt lat="39.662674" lon="-8.377993">
        <ele>199.656</ele>
        <time>2015-03-21T09:06:26Z</time>
      </trkpt>
      <trkpt lat="39.662951" lon="-8.377109">
        <ele>199.656</ele>
        <time>2015-03-21T09:06:45Z</time>
      </trkpt>
      <trkpt lat="39.663417" lon="-8.376608">
        <ele>199.634</ele>
        <time>2015-03-21T09:07:02Z</time>
      </trkpt>
      <trkpt lat="39.663709" lon="-8.376263">
        <ele>201.519</ele>
        <time>2015-03-21T09:07:17Z</time>
      </trkpt>
      <trkpt lat="39.664013" lon="-8.375950">
        <ele>203.916</ele>
        <time>2015-03-21T09:07:33Z</time>
      </trkpt>
      <trkpt lat="39.664437" lon="-8.375573">
        <ele>204.484</ele>
        <time>2015-03-21T09:07:52Z</time>
      </trkpt>
      <trkpt lat="39.664935" lon="-8.375017">
        <ele>203.507</ele>
        <time>2015-03-21T09:08:09Z</time>
      </trkpt>
      <trkpt lat="39.665411" lon="-8.374714">
        <ele>202.017</ele>
        <time>2015-03-21T09:08:20Z</time>
      </trkpt>
      <trkpt lat="39.666008" lon="-8.374742">
        <ele>202.507</ele>
        <time>2015-03-21T09:08:36Z</time>
      </trkpt>
      <trkpt lat="39.666519" lon="-8.374604">
        <ele>204.977</ele>
        <time>2015-03-21T09:08:52Z</time>
      </trkpt>
      <trkpt lat="39.667021" lon="-8.374386">
        <ele>203.590</ele>
        <time>2015-03-21T09:09:05Z</time>
      </trkpt>
      <trkpt lat="39.667347" lon="-8.374336">
        <ele>200.692</ele>
        <time>2015-03-21T09:09:10Z</time>
      </trkpt>
      <trkpt lat="39.667425" lon="-8.374336">
        <ele>199.612</ele>
        <time>2015-03-21T09:09:11Z</time>
      </trkpt>
      <trkpt lat="39.667734" lon="-8.374466">
        <ele>195.880</ele>
        <time>2015-03-21T09:09:15Z</time>
      </trkpt>
      <trkpt lat="39.667896" lon="-8.374586">
        <ele>193.485</ele>
        <time>2015-03-21T09:09:17Z</time>
      </trkpt>
      <trkpt lat="39.668356" lon="-8.374567">
        <ele>189.062</ele>
        <time>2015-03-21T09:09:24Z</time>
      </trkpt>
      <trkpt lat="39.668385" lon="-8.374406">
        <ele>187.666</ele>
        <time>2015-03-21T09:09:26Z</time>
      </trkpt>
      <trkpt lat="39.668480" lon="-8.373966">
        <ele>181.829</ele>
        <time>2015-03-21T09:09:31Z</time>
      </trkpt>
      <trkpt lat="39.668726" lon="-8.373887">
        <ele>177.521</ele>
        <time>2015-03-21T09:09:34Z</time>
      </trkpt>
      <trkpt lat="39.668933" lon="-8.373973">
        <ele>173.707</ele>
        <time>2015-03-21T09:09:36Z</time>
      </trkpt>
      <trkpt lat="39.669365" lon="-8.374263">
        <ele>169.395</ele>
        <time>2015-03-21T09:09:40Z</time>
      </trkpt>
      <trkpt lat="39.669589" lon="-8.374418">
        <ele>172.748</ele>
        <time>2015-03-21T09:09:43Z</time>
      </trkpt>
      <trkpt lat="39.669709" lon="-8.374485">
        <ele>176.120</ele>
        <time>2015-03-21T09:09:47Z</time>
      </trkpt>
      <trkpt lat="39.669811" lon="-8.374588">
        <ele>179.430</ele>
        <time>2015-03-21T09:09:56Z</time>
      </trkpt>
      <trkpt lat="39.669974" lon="-8.374671">
        <ele>182.898</ele>
        <time>2015-03-21T09:10:09Z</time>
      </trkpt>
      <trkpt lat="39.670134" lon="-8.374780">
        <ele>185.763</ele>
        <time>2015-03-21T09:10:23Z</time>
      </trkpt>
      <trkpt lat="39.670291" lon="-8.374882">
        <ele>188.630</ele>
        <time>2015-03-21T09:10:37Z</time>
      </trkpt>
      <trkpt lat="39.670472" lon="-8.375000">
        <ele>191.414</ele>
        <time>2015-03-21T09:10:53Z</time>
      </trkpt>
      <trkpt lat="39.670547" lon="-8.375019">
        <ele>192.454</ele>
        <time>2015-03-21T09:10:59Z</time>
      </trkpt>
      <trkpt lat="39.670626" lon="-8.375069">
        <ele>193.809</ele>
        <time>2015-03-21T09:11:06Z</time>
      </trkpt>
      <trkpt lat="39.670839" lon="-8.375143">
        <ele>197.207</ele>
        <time>2015-03-21T09:11:23Z</time>
      </trkpt>
      <trkpt lat="39.671050" lon="-8.375206">
        <ele>200.190</ele>
        <time>2015-03-21T09:11:40Z</time>
      </trkpt>
      <trkpt lat="39.671137" lon="-8.375228">
        <ele>201.593</ele>
        <time>2015-03-21T09:11:47Z</time>
      </trkpt>
      <trkpt lat="39.671388" lon="-8.375286">
        <ele>204.955</ele>
        <time>2015-03-21T09:12:06Z</time>
      </trkpt>
      <trkpt lat="39.671589" lon="-8.375342">
        <ele>207.365</ele>
        <time>2015-03-21T09:12:22Z</time>
      </trkpt>
      <trkpt lat="39.671861" lon="-8.375435">
        <ele>210.263</ele>
        <time>2015-03-21T09:12:41Z</time>
      </trkpt>
      <trkpt lat="39.672123" lon="-8.375526">
        <ele>211.638</ele>
        <time>2015-03-21T09:12:58Z</time>
      </trkpt>
      <trkpt lat="39.672507" lon="-8.375696">
        <ele>213.155</ele>
        <time>2015-03-21T09:13:20Z</time>
      </trkpt>
      <trkpt lat="39.672880" lon="-8.375896">
        <ele>216.054</ele>
        <time>2015-03-21T09:13:42Z</time>
      </trkpt>
      <trkpt lat="39.673135" lon="-8.376096">
        <ele>216.956</ele>
        <time>2015-03-21T09:13:57Z</time>
      </trkpt>
      <trkpt lat="39.673539" lon="-8.376377">
        <ele>216.911</ele>
        <time>2015-03-21T09:14:12Z</time>
      </trkpt>
      <trkpt lat="39.674009" lon="-8.376596">
        <ele>217.907</ele>
        <time>2015-03-21T09:14:29Z</time>
      </trkpt>
      <trkpt lat="39.674441" lon="-8.376824">
        <ele>219.834</ele>
        <time>2015-03-21T09:14:49Z</time>
      </trkpt>
      <trkpt lat="39.674486" lon="-8.376892">
        <ele>219.877</ele>
        <time>2015-03-21T09:14:51Z</time>
      </trkpt>
      <trkpt lat="39.674658" lon="-8.376955">
        <ele>218.429</ele>
        <time>2015-03-21T09:14:55Z</time>
      </trkpt>
      <trkpt lat="39.674715" lon="-8.376953">
        <ele>217.939</ele>
        <time>2015-03-21T09:14:56Z</time>
      </trkpt>
      <trkpt lat="39.675396" lon="-8.376965">
        <ele>214.087</ele>
        <time>2015-03-21T09:15:06Z</time>
      </trkpt>
      <trkpt lat="39.676173" lon="-8.377060">
        <ele>214.082</ele>
        <time>2015-03-21T09:15:20Z</time>
      </trkpt>
      <trkpt lat="39.676469" lon="-8.377140">
        <ele>216.039</ele>
        <time>2015-03-21T09:15:30Z</time>
      </trkpt>
      <trkpt lat="39.676719" lon="-8.377252">
        <ele>215.045</ele>
        <time>2015-03-21T09:15:38Z</time>
      </trkpt>
      <trkpt lat="39.676934" lon="-8.377314">
        <ele>213.147</ele>
        <time>2015-03-21T09:15:42Z</time>
      </trkpt>
      <trkpt lat="39.677134" lon="-8.377166">
        <ele>211.611</ele>
        <time>2015-03-21T09:15:48Z</time>
      </trkpt>
      <trkpt lat="39.677271" lon="-8.376582">
        <ele>212.607</ele>
        <time>2015-03-21T09:16:04Z</time>
      </trkpt>
      <trkpt lat="39.677404" lon="-8.376041">
        <ele>216.053</ele>
        <time>2015-03-21T09:16:23Z</time>
      </trkpt>
      <trkpt lat="39.677626" lon="-8.375534">
        <ele>216.916</ele>
        <time>2015-03-21T09:16:41Z</time>
      </trkpt>
      <trkpt lat="39.677845" lon="-8.375232">
        <ele>218.468</ele>
        <time>2015-03-21T09:16:55Z</time>
      </trkpt>
      <trkpt lat="39.678156" lon="-8.375229">
        <ele>218.438</ele>
        <time>2015-03-21T09:17:08Z</time>
      </trkpt>
      <trkpt lat="39.678504" lon="-8.374806">
        <ele>218.816</ele>
        <time>2015-03-21T09:17:22Z</time>
      </trkpt>
      <trkpt lat="39.678559" lon="-8.374725">
        <ele>218.821</ele>
        <time>2015-03-21T09:17:24Z</time>
      </trkpt>
      <trkpt lat="39.678781" lon="-8.374622">
        <ele>217.428</ele>
        <time>2015-03-21T09:17:29Z</time>
      </trkpt>
      <trkpt lat="39.678996" lon="-8.374607">
        <ele>215.575</ele>
        <time>2015-03-21T09:17:33Z</time>
      </trkpt>
      <trkpt lat="39.679316" lon="-8.374631">
        <ele>211.628</ele>
        <time>2015-03-21T09:17:39Z</time>
      </trkpt>
      <trkpt lat="39.679544" lon="-8.374651">
        <ele>207.820</ele>
        <time>2015-03-21T09:17:42Z</time>
      </trkpt>
      <trkpt lat="39.679843" lon="-8.374676">
        <ele>203.507</ele>
        <time>2015-03-21T09:17:45Z</time>
      </trkpt>
      <trkpt lat="39.680166" lon="-8.374735">
        <ele>199.616</ele>
        <time>2015-03-21T09:17:48Z</time>
      </trkpt>
      <trkpt lat="39.680485" lon="-8.374847">
        <ele>196.349</ele>
        <time>2015-03-21T09:17:51Z</time>
      </trkpt>
      <trkpt lat="39.680587" lon="-8.374869">
        <ele>194.891</ele>
        <time>2015-03-21T09:17:52Z</time>
      </trkpt>
      <trkpt lat="39.680911" lon="-8.374832">
        <ele>190.041</ele>
        <time>2015-03-21T09:17:55Z</time>
      </trkpt>
      <trkpt lat="39.681028" lon="-8.374766">
        <ele>188.679</ele>
        <time>2015-03-21T09:17:56Z</time>
      </trkpt>
      <trkpt lat="39.681645" lon="-8.374605">
        <ele>187.624</ele>
        <time>2015-03-21T09:18:02Z</time>
      </trkpt>
      <trkpt lat="39.682134" lon="-8.374707">
        <ele>184.221</ele>
        <time>2015-03-21T09:18:07Z</time>
      </trkpt>
      <trkpt lat="39.682530" lon="-8.374730">
        <ele>180.439</ele>
        <time>2015-03-21T09:18:11Z</time>
      </trkpt>
      <trkpt lat="39.682882" lon="-8.374557">
        <ele>176.101</ele>
        <time>2015-03-21T09:18:16Z</time>
      </trkpt>
      <trkpt lat="39.683181" lon="-8.374232">
        <ele>170.321</ele>
        <time>2015-03-21T09:18:20Z</time>
      </trkpt>
      <trkpt lat="39.683364" lon="-8.374076">
        <ele>166.907</ele>
        <time>2015-03-21T09:18:22Z</time>
      </trkpt>
      <trkpt lat="39.683703" lon="-8.373921">
        <ele>161.282</ele>
        <time>2015-03-21T09:18:25Z</time>
      </trkpt>
      <trkpt lat="39.684094" lon="-8.373809">
        <ele>156.435</ele>
        <time>2015-03-21T09:18:28Z</time>
      </trkpt>
      <trkpt lat="39.684495" lon="-8.373693">
        <ele>153.057</ele>
        <time>2015-03-21T09:18:31Z</time>
      </trkpt>
      <trkpt lat="39.685063" lon="-8.373562">
        <ele>152.527</ele>
        <time>2015-03-21T09:18:36Z</time>
      </trkpt>
      <trkpt lat="39.685355" lon="-8.373384">
        <ele>156.875</ele>
        <time>2015-03-21T09:18:42Z</time>
      </trkpt>
      <trkpt lat="39.685506" lon="-8.373210">
        <ele>159.770</ele>
        <time>2015-03-21T09:18:55Z</time>
      </trkpt>
      <trkpt lat="39.685732" lon="-8.373047">
        <ele>161.617</ele>
        <time>2015-03-21T09:19:11Z</time>
      </trkpt>
      <trkpt lat="39.685964" lon="-8.373085">
        <ele>164.045</ele>
        <time>2015-03-21T09:19:26Z</time>
      </trkpt>
      <trkpt lat="39.686199" lon="-8.373029">
        <ele>164.547</ele>
        <time>2015-03-21T09:19:39Z</time>
      </trkpt>
      <trkpt lat="39.686535" lon="-8.372952">
        <ele>165.011</ele>
        <time>2015-03-21T09:19:55Z</time>
      </trkpt>
      <trkpt lat="39.686737" lon="-8.372913">
        <ele>166.507</ele>
        <time>2015-03-21T09:20:07Z</time>
      </trkpt>
      <trkpt lat="39.686726" lon="-8.372814">
        <ele>167.413</ele>
        <time>2015-03-21T09:20:13Z</time>
      </trkpt>
      <trkpt lat="39.686645" lon="-8.372470">
        <ele>168.966</ele>
        <time>2015-03-21T09:20:29Z</time>
      </trkpt>
      <trkpt lat="39.686600" lon="-8.372020">
        <ele>169.868</ele>
        <time>2015-03-21T09:20:48Z</time>
      </trkpt>
      <trkpt lat="39.686560" lon="-8.371890">
        <ele>170.858</ele>
        <time>2015-03-21T09:20:54Z</time>
      </trkpt>
      <trkpt lat="39.686649" lon="-8.371813">
        <ele>172.236</ele>
        <time>2015-03-21T09:21:01Z</time>
      </trkpt>
      <trkpt lat="39.686991" lon="-8.371767">
        <ele>173.271</ele>
        <time>2015-03-21T09:21:18Z</time>
      </trkpt>
      <trkpt lat="39.687284" lon="-8.371653">
        <ele>170.338</ele>
        <time>2015-03-21T09:21:25Z</time>
      </trkpt>
      <trkpt lat="39.687497" lon="-8.371566">
        <ele>166.987</ele>
        <time>2015-03-21T09:21:28Z</time>
      </trkpt>
      <trkpt lat="39.687580" lon="-8.371530">
        <ele>165.542</ele>
        <time>2015-03-21T09:21:29Z</time>
      </trkpt>
      <trkpt lat="39.687860" lon="-8.371283">
        <ele>161.626</ele>
        <time>2015-03-21T09:21:33Z</time>
      </trkpt>
      <trkpt lat="39.688060" lon="-8.371010">
        <ele>160.207</ele>
        <time>2015-03-21T09:21:36Z</time>
      </trkpt>
      <trkpt lat="39.688321" lon="-8.370682">
        <ele>158.897</ele>
        <time>2015-03-21T09:21:40Z</time>
      </trkpt>
      <trkpt lat="39.688462" lon="-8.370179">
        <ele>157.840</ele>
        <time>2015-03-21T09:21:45Z</time>
      </trkpt>
      <trkpt lat="39.688506" lon="-8.368885">
        <ele>155.952</ele>
        <time>2015-03-21T09:21:59Z</time>
      </trkpt>
      <trkpt lat="39.688546" lon="-8.368634">
        <ele>156.812</ele>
        <time>2015-03-21T09:22:04Z</time>
      </trkpt>
      <trkpt lat="39.688779" lon="-8.368070">
        <ele>154.910</ele>
        <time>2015-03-21T09:22:14Z</time>
      </trkpt>
      <trkpt lat="39.688838" lon="-8.367586">
        <ele>154.925</ele>
        <time>2015-03-21T09:22:22Z</time>
      </trkpt>
      <trkpt lat="39.688849" lon="-8.367492">
        <ele>156.462</ele>
        <time>2015-03-21T09:22:25Z</time>
      </trkpt>
      <trkpt lat="39.688908" lon="-8.367027">
        <ele>159.228</ele>
        <time>2015-03-21T09:22:43Z</time>
      </trkpt>
      <trkpt lat="39.689003" lon="-8.366608">
        <ele>162.189</ele>
        <time>2015-03-21T09:23:00Z</time>
      </trkpt>
      <trkpt lat="39.689282" lon="-8.366122">
        <ele>160.717</ele>
        <time>2015-03-21T09:23:15Z</time>
      </trkpt>
      <trkpt lat="39.689533" lon="-8.365922">
        <ele>158.807</ele>
        <time>2015-03-21T09:23:19Z</time>
      </trkpt>
      <trkpt lat="39.690281" lon="-8.365329">
        <ele>156.881</ele>
        <time>2015-03-21T09:23:32Z</time>
      </trkpt>
      <trkpt lat="39.690709" lon="-8.365135">
        <ele>156.894</ele>
        <time>2015-03-21T09:23:42Z</time>
      </trkpt>
      <trkpt lat="39.691006" lon="-8.364726">
        <ele>157.896</ele>
        <time>2015-03-21T09:23:55Z</time>
      </trkpt>
      <trkpt lat="39.691155" lon="-8.364418">
        <ele>160.266</ele>
        <time>2015-03-21T09:24:11Z</time>
      </trkpt>
      <trkpt lat="39.691109" lon="-8.364187">
        <ele>162.644</ele>
        <time>2015-03-21T09:24:24Z</time>
      </trkpt>
      <trkpt lat="39.690971" lon="-8.363863">
        <ele>166.089</ele>
        <time>2015-03-21T09:24:43Z</time>
      </trkpt>
      <trkpt lat="39.690882" lon="-8.363546">
        <ele>168.936</ele>
        <time>2015-03-21T09:25:01Z</time>
      </trkpt>
      <trkpt lat="39.690743" lon="-8.363202">
        <ele>171.346</ele>
        <time>2015-03-21T09:25:20Z</time>
      </trkpt>
      <trkpt lat="39.690638" lon="-8.362827">
        <ele>174.188</ele>
        <time>2015-03-21T09:25:40Z</time>
      </trkpt>
      <trkpt lat="39.690544" lon="-8.362454">
        <ele>176.116</ele>
        <time>2015-03-21T09:25:59Z</time>
      </trkpt>
      <trkpt lat="39.690454" lon="-8.362082">
        <ele>178.507</ele>
        <time>2015-03-21T09:26:17Z</time>
      </trkpt>
      <trkpt lat="39.690389" lon="-8.361694">
        <ele>179.943</ele>
        <time>2015-03-21T09:26:34Z</time>
      </trkpt>
      <trkpt lat="39.690368" lon="-8.361438">
        <ele>178.026</ele>
        <time>2015-03-21T09:26:40Z</time>
      </trkpt>
      <trkpt lat="39.690511" lon="-8.361127">
        <ele>174.128</ele>
        <time>2015-03-21T09:26:45Z</time>
      </trkpt>
      <trkpt lat="39.690738" lon="-8.361041">
        <ele>172.258</ele>
        <time>2015-03-21T09:26:48Z</time>
      </trkpt>
      <trkpt lat="39.690954" lon="-8.360982">
        <ele>170.836</ele>
        <time>2015-03-21T09:26:51Z</time>
      </trkpt>
      <trkpt lat="39.691495" lon="-8.361003">
        <ele>167.961</ele>
        <time>2015-03-21T09:26:58Z</time>
      </trkpt>
      <trkpt lat="39.691767" lon="-8.361001">
        <ele>165.568</ele>
        <time>2015-03-21T09:27:01Z</time>
      </trkpt>
      <trkpt lat="39.692093" lon="-8.360834">
        <ele>164.552</ele>
        <time>2015-03-21T09:27:05Z</time>
      </trkpt>
      <trkpt lat="39.692650" lon="-8.360383">
        <ele>164.553</ele>
        <time>2015-03-21T09:27:15Z</time>
      </trkpt>
      <trkpt lat="39.692728" lon="-8.360350">
        <ele>166.008</ele>
        <time>2015-03-21T09:27:17Z</time>
      </trkpt>
      <trkpt lat="39.692964" lon="-8.360286">
        <ele>167.407</ele>
        <time>2015-03-21T09:27:28Z</time>
      </trkpt>
      <trkpt lat="39.693008" lon="-8.360137">
        <ele>168.414</ele>
        <time>2015-03-21T09:27:36Z</time>
      </trkpt>
      <trkpt lat="39.693099" lon="-8.360202">
        <ele>168.957</ele>
        <time>2015-03-21T09:27:47Z</time>
      </trkpt>
      <trkpt lat="39.693373" lon="-8.360250">
        <ele>171.319</ele>
        <time>2015-03-21T09:28:04Z</time>
      </trkpt>
      <trkpt lat="39.693809" lon="-8.360252">
        <ele>170.869</ele>
        <time>2015-03-21T09:28:21Z</time>
      </trkpt>
      <trkpt lat="39.693907" lon="-8.360207">
        <ele>170.877</ele>
        <time>2015-03-21T09:28:24Z</time>
      </trkpt>
      <trkpt lat="39.694002" lon="-8.360107">
        <ele>169.382</ele>
        <time>2015-03-21T09:28:27Z</time>
      </trkpt>
      <trkpt lat="39.694030" lon="-8.360008">
        <ele>169.399</ele>
        <time>2015-03-21T09:28:29Z</time>
      </trkpt>
      <trkpt lat="39.694077" lon="-8.359829">
        <ele>168.967</ele>
        <time>2015-03-21T09:28:33Z</time>
      </trkpt>
      <trkpt lat="39.694423" lon="-8.359728">
        <ele>165.081</ele>
        <time>2015-03-21T09:28:45Z</time>
      </trkpt>
      <trkpt lat="39.695056" lon="-8.359517">
        <ele>162.119</ele>
        <time>2015-03-21T09:28:58Z</time>
      </trkpt>
      <trkpt lat="39.695462" lon="-8.359380">
        <ele>162.107</ele>
        <time>2015-03-21T09:29:09Z</time>
      </trkpt>
      <trkpt lat="39.695716" lon="-8.359289">
        <ele>162.185</ele>
        <time>2015-03-21T09:29:22Z</time>
      </trkpt>
      <trkpt lat="39.695770" lon="-8.359241">
        <ele>163.158</ele>
        <time>2015-03-21T09:29:26Z</time>
      </trkpt>
      <trkpt lat="39.695782" lon="-8.359171">
        <ele>164.060</ele>
        <time>2015-03-21T09:29:34Z</time>
      </trkpt>
      <trkpt lat="39.695877" lon="-8.359102">
        <ele>164.060</ele>
        <time>2015-03-21T09:29:40Z</time>
      </trkpt>
      <trkpt lat="39.696182" lon="-8.359108">
        <ele>165.518</ele>
        <time>2015-03-21T09:29:54Z</time>
      </trkpt>
      <trkpt lat="39.696469" lon="-8.359143">
        <ele>163.693</ele>
        <time>2015-03-21T09:30:03Z</time>
      </trkpt>
      <trkpt lat="39.697131" lon="-8.358968">
        <ele>162.120</ele>
        <time>2015-03-21T09:30:16Z</time>
      </trkpt>
      <trkpt lat="39.697328" lon="-8.359152">
        <ele>161.659</ele>
        <time>2015-03-21T09:30:25Z</time>
      </trkpt>
      <trkpt lat="39.697798" lon="-8.358975">
        <ele>161.603</ele>
        <time>2015-03-21T09:30:40Z</time>
      </trkpt>
      <trkpt lat="39.698365" lon="-8.358986">
        <ele>163.123</ele>
        <time>2015-03-21T09:30:56Z</time>
      </trkpt>
      <trkpt lat="39.698867" lon="-8.359054">
        <ele>165.007</ele>
        <time>2015-03-21T09:31:12Z</time>
      </trkpt>
      <trkpt lat="39.699154" lon="-8.359095">
        <ele>166.084</ele>
        <time>2015-03-21T09:31:25Z</time>
      </trkpt>
      <trkpt lat="39.699284" lon="-8.358801">
        <ele>168.927</ele>
        <time>2015-03-21T09:31:41Z</time>
      </trkpt>
      <trkpt lat="39.699309" lon="-8.358503">
        <ele>172.289</ele>
        <time>2015-03-21T09:31:57Z</time>
      </trkpt>
      <trkpt lat="39.699337" lon="-8.358229">
        <ele>174.169</ele>
        <time>2015-03-21T09:32:11Z</time>
      </trkpt>
      <trkpt lat="39.699343" lon="-8.357864">
        <ele>176.167</ele>
        <time>2015-03-21T09:32:28Z</time>
      </trkpt>
      <trkpt lat="39.699350" lon="-8.357422">
        <ele>176.572</ele>
        <time>2015-03-21T09:32:44Z</time>
      </trkpt>
      <trkpt lat="39.699367" lon="-8.357029">
        <ele>176.579</ele>
        <time>2015-03-21T09:32:59Z</time>
      </trkpt>
      <trkpt lat="39.699381" lon="-8.356681">
        <ele>177.095</ele>
        <time>2015-03-21T09:33:13Z</time>
      </trkpt>
      <trkpt lat="39.699505" lon="-8.356377">
        <ele>179.949</ele>
        <time>2015-03-21T09:33:29Z</time>
      </trkpt>
      <trkpt lat="39.699559" lon="-8.356338">
        <ele>180.423</ele>
        <time>2015-03-21T09:33:40Z</time>
      </trkpt>
      <trkpt lat="39.699668" lon="-8.356273">
        <ele>183.307</ele>
        <time>2015-03-21T09:33:55Z</time>
      </trkpt>
      <trkpt lat="39.699761" lon="-8.356303">
        <ele>186.688</ele>
        <time>2015-03-21T09:34:11Z</time>
      </trkpt>
      <trkpt lat="39.699799" lon="-8.356398">
        <ele>188.671</ele>
        <time>2015-03-21T09:34:26Z</time>
      </trkpt>
      <trkpt lat="39.699781" lon="-8.356515">
        <ele>191.073</ele>
        <time>2015-03-21T09:34:42Z</time>
      </trkpt>
      <trkpt lat="39.699766" lon="-8.356624">
        <ele>191.983</ele>
        <time>2015-03-21T09:34:51Z</time>
      </trkpt>
      <trkpt lat="39.699856" lon="-8.356748">
        <ele>194.361</ele>
        <time>2015-03-21T09:35:07Z</time>
      </trkpt>
      <trkpt lat="39.699950" lon="-8.356826">
        <ele>196.776</ele>
        <time>2015-03-21T09:35:23Z</time>
      </trkpt>
      <trkpt lat="39.700051" lon="-8.356949">
        <ele>198.293</ele>
        <time>2015-03-21T09:35:36Z</time>
      </trkpt>
      <trkpt lat="39.700100" lon="-8.356956">
        <ele>198.794</ele>
        <time>2015-03-21T09:35:41Z</time>
      </trkpt>
      <trkpt lat="39.700157" lon="-8.356843">
        <ele>200.657</ele>
        <time>2015-03-21T09:35:56Z</time>
      </trkpt>
      <trkpt lat="39.700175" lon="-8.356686">
        <ele>202.522</ele>
        <time>2015-03-21T09:36:09Z</time>
      </trkpt>
      <trkpt lat="39.700264" lon="-8.356498">
        <ele>204.407</ele>
        <time>2015-03-21T09:36:28Z</time>
      </trkpt>
      <trkpt lat="39.700316" lon="-8.356319">
        <ele>207.378</ele>
        <time>2015-03-21T09:36:46Z</time>
      </trkpt>
      <trkpt lat="39.700374" lon="-8.356171">
        <ele>210.211</ele>
        <time>2015-03-21T09:37:02Z</time>
      </trkpt>
      <trkpt lat="39.700430" lon="-8.356019">
        <ele>212.653</ele>
        <time>2015-03-21T09:37:20Z</time>
      </trkpt>
      <trkpt lat="39.700477" lon="-8.355872">
        <ele>215.033</ele>
        <time>2015-03-21T09:37:39Z</time>
      </trkpt>
      <trkpt lat="39.700630" lon="-8.355843">
        <ele>217.481</ele>
        <time>2015-03-21T09:37:59Z</time>
      </trkpt>
      <trkpt lat="39.700751" lon="-8.355858">
        <ele>219.826</ele>
        <time>2015-03-21T09:38:14Z</time>
      </trkpt>
      <trkpt lat="39.700882" lon="-8.355725">
        <ele>222.783</ele>
        <time>2015-03-21T09:38:35Z</time>
      </trkpt>
      <trkpt lat="39.700874" lon="-8.355655">
        <ele>223.674</ele>
        <time>2015-03-21T09:38:42Z</time>
      </trkpt>
      <trkpt lat="39.700851" lon="-8.355594">
        <ele>224.156</ele>
        <time>2015-03-21T09:38:48Z</time>
      </trkpt>
      <trkpt lat="39.700687" lon="-8.355388">
        <ele>224.621</ele>
        <time>2015-03-21T09:39:07Z</time>
      </trkpt>
      <trkpt lat="39.700517" lon="-8.355091">
        <ele>224.607</ele>
        <time>2015-03-21T09:39:30Z</time>
      </trkpt>
      <trkpt lat="39.700426" lon="-8.354913">
        <ele>226.526</ele>
        <time>2015-03-21T09:39:48Z</time>
      </trkpt>
      <trkpt lat="39.700334" lon="-8.354772">
        <ele>229.499</ele>
        <time>2015-03-21T09:40:05Z</time>
      </trkpt>
      <trkpt lat="39.700221" lon="-8.354608">
        <ele>230.941</ele>
        <time>2015-03-21T09:40:21Z</time>
      </trkpt>
      <trkpt lat="39.700159" lon="-8.354470">
        <ele>230.471</ele>
        <time>2015-03-21T09:40:32Z</time>
      </trkpt>
      <trkpt lat="39.700101" lon="-8.354197">
        <ele>230.449</ele>
        <time>2015-03-21T09:40:45Z</time>
      </trkpt>
      <trkpt lat="39.699966" lon="-8.353876">
        <ele>233.324</ele>
        <time>2015-03-21T09:41:05Z</time>
      </trkpt>
      <trkpt lat="39.699967" lon="-8.353534">
        <ele>235.251</ele>
        <time>2015-03-21T09:41:24Z</time>
      </trkpt>
      <trkpt lat="39.700025" lon="-8.353416">
        <ele>235.729</ele>
        <time>2015-03-21T09:41:32Z</time>
      </trkpt>
      <trkpt lat="39.700104" lon="-8.353376">
        <ele>237.600</ele>
        <time>2015-03-21T09:41:45Z</time>
      </trkpt>
      <trkpt lat="39.700250" lon="-8.353385">
        <ele>240.520</ele>
        <time>2015-03-21T09:42:02Z</time>
      </trkpt>
      <trkpt lat="39.700320" lon="-8.353400">
        <ele>241.907</ele>
        <time>2015-03-21T09:42:16Z</time>
      </trkpt>
      <trkpt lat="39.700437" lon="-8.353388">
        <ele>244.381</ele>
        <time>2015-03-21T09:42:31Z</time>
      </trkpt>
      <trkpt lat="39.700575" lon="-8.353408">
        <ele>246.234</ele>
        <time>2015-03-21T09:42:47Z</time>
      </trkpt>
      <trkpt lat="39.700700" lon="-8.353417">
        <ele>248.666</ele>
        <time>2015-03-21T09:43:01Z</time>
      </trkpt>
      <trkpt lat="39.700845" lon="-8.353417">
        <ele>250.196</ele>
        <time>2015-03-21T09:43:15Z</time>
      </trkpt>
      <trkpt lat="39.700992" lon="-8.353433">
        <ele>252.584</ele>
        <time>2015-03-21T09:43:30Z</time>
      </trkpt>
      <trkpt lat="39.701136" lon="-8.353437">
        <ele>255.429</ele>
        <time>2015-03-21T09:43:47Z</time>
      </trkpt>
      <trkpt lat="39.701277" lon="-8.353430">
        <ele>256.826</ele>
        <time>2015-03-21T09:44:02Z</time>
      </trkpt>
      <trkpt lat="39.701432" lon="-8.353389">
        <ele>259.222</ele>
        <time>2015-03-21T09:44:18Z</time>
      </trkpt>
      <trkpt lat="39.701545" lon="-8.353367">
        <ele>260.262</ele>
        <time>2015-03-21T09:44:33Z</time>
      </trkpt>
      <trkpt lat="39.701692" lon="-8.353334">
        <ele>261.608</ele>
        <time>2015-03-21T09:44:45Z</time>
      </trkpt>
      <trkpt lat="39.701847" lon="-8.353300">
        <ele>263.107</ele>
        <time>2015-03-21T09:44:57Z</time>
      </trkpt>
      <trkpt lat="39.701972" lon="-8.353268">
        <ele>264.561</ele>
        <time>2015-03-21T09:45:07Z</time>
      </trkpt>
      <trkpt lat="39.702171" lon="-8.353266">
        <ele>267.914</ele>
        <time>2015-03-21T09:45:23Z</time>
      </trkpt>
      <trkpt lat="39.702426" lon="-8.353273">
        <ele>268.876</ele>
        <time>2015-03-21T09:45:39Z</time>
      </trkpt>
      <trkpt lat="39.702499" lon="-8.353570">
        <ele>268.816</ele>
        <time>2015-03-21T09:45:49Z</time>
      </trkpt>
      <trkpt lat="39.702507" lon="-8.353653">
        <ele>267.494</ele>
        <time>2015-03-21T09:45:51Z</time>
      </trkpt>
      <trkpt lat="39.702639" lon="-8.354216">
        <ele>264.539</ele>
        <time>2015-03-21T09:46:05Z</time>
      </trkpt>
      <trkpt lat="39.702917" lon="-8.354737">
        <ele>261.656</ele>
        <time>2015-03-21T09:46:19Z</time>
      </trkpt>
      <trkpt lat="39.703151" lon="-8.354842">
        <ele>262.118</ele>
        <time>2015-03-21T09:46:32Z</time>
      </trkpt>
      <trkpt lat="39.703401" lon="-8.354821">
        <ele>264.098</ele>
        <time>2015-03-21T09:46:46Z</time>
      </trkpt>
      <trkpt lat="39.703728" lon="-8.354838">
        <ele>265.517</ele>
        <time>2015-03-21T09:47:01Z</time>
      </trkpt>
      <trkpt lat="39.703797" lon="-8.354888">
        <ele>264.007</ele>
        <time>2015-03-21T09:47:03Z</time>
      </trkpt>
      <trkpt lat="39.703963" lon="-8.354938">
        <ele>261.680</ele>
        <time>2015-03-21T09:47:07Z</time>
      </trkpt>
      <trkpt lat="39.704252" lon="-8.355043">
        <ele>258.783</ele>
        <time>2015-03-21T09:47:14Z</time>
      </trkpt>
      <trkpt lat="39.704375" lon="-8.355224">
        <ele>255.955</ele>
        <time>2015-03-21T09:47:17Z</time>
      </trkpt>
      <trkpt lat="39.704471" lon="-8.355313">
        <ele>254.985</ele>
        <time>2015-03-21T09:47:19Z</time>
      </trkpt>
      <trkpt lat="39.704668" lon="-8.355331">
        <ele>253.933</ele>
        <time>2015-03-21T09:47:22Z</time>
      </trkpt>
      <trkpt lat="39.705586" lon="-8.355439">
        <ele>252.048</ele>
        <time>2015-03-21T09:47:37Z</time>
      </trkpt>
      <trkpt lat="39.705673" lon="-8.355468">
        <ele>252.035</ele>
        <time>2015-03-21T09:47:39Z</time>
      </trkpt>
      <trkpt lat="39.706107" lon="-8.355585">
        <ele>251.516</ele>
        <time>2015-03-21T09:47:49Z</time>
      </trkpt>
      <trkpt lat="39.706779" lon="-8.355577">
        <ele>251.076</ele>
        <time>2015-03-21T09:48:06Z</time>
      </trkpt>
      <trkpt lat="39.707162" lon="-8.356007">
        <ele>251.013</ele>
        <time>2015-03-21T09:48:18Z</time>
      </trkpt>
      <trkpt lat="39.707200" lon="-8.356043">
        <ele>251.007</ele>
        <time>2015-03-21T09:48:19Z</time>
      </trkpt>
      <trkpt lat="39.707863" lon="-8.356227">
        <ele>250.170</ele>
        <time>2015-03-21T09:48:35Z</time>
      </trkpt>
      <trkpt lat="39.708436" lon="-8.356229">
        <ele>249.663</ele>
        <time>2015-03-21T09:48:49Z</time>
      </trkpt>
      <trkpt lat="39.708652" lon="-8.356281">
        <ele>246.295</ele>
        <time>2015-03-21T09:48:52Z</time>
      </trkpt>
      <trkpt lat="39.709242" lon="-8.356554">
        <ele>246.275</ele>
        <time>2015-03-21T09:49:01Z</time>
      </trkpt>
      <trkpt lat="39.709561" lon="-8.356626">
        <ele>246.223</ele>
        <time>2015-03-21T09:49:09Z</time>
      </trkpt>
      <trkpt lat="39.709924" lon="-8.356909">
        <ele>241.948</ele>
        <time>2015-03-21T09:49:15Z</time>
      </trkpt>
      <trkpt lat="39.710143" lon="-8.356965">
        <ele>239.575</ele>
        <time>2015-03-21T09:49:18Z</time>
      </trkpt>
      <trkpt lat="39.710276" lon="-8.357000">
        <ele>239.087</ele>
        <time>2015-03-21T09:49:20Z</time>
      </trkpt>
      <trkpt lat="39.710445" lon="-8.357060">
        <ele>238.542</ele>
        <time>2015-03-21T09:49:23Z</time>
      </trkpt>
      <trkpt lat="39.710773" lon="-8.357087">
        <ele>239.526</ele>
        <time>2015-03-21T09:49:31Z</time>
      </trkpt>
      <trkpt lat="39.711353" lon="-8.357285">
        <ele>240.507</ele>
        <time>2015-03-21T09:49:46Z</time>
      </trkpt>
      <trkpt lat="39.711845" lon="-8.357561">
        <ele>238.127</ele>
        <time>2015-03-21T09:49:58Z</time>
      </trkpt>
      <trkpt lat="39.711980" lon="-8.357644">
        <ele>237.690</ele>
        <time>2015-03-21T09:50:00Z</time>
      </trkpt>
      <trkpt lat="39.712414" lon="-8.357879">
        <ele>234.282</ele>
        <time>2015-03-21T09:50:06Z</time>
      </trkpt>
      <trkpt lat="39.713176" lon="-8.358066">
        <ele>232.842</ele>
        <time>2015-03-21T09:50:17Z</time>
      </trkpt>
      <trkpt lat="39.713989" lon="-8.358088">
        <ele>229.930</ele>
        <time>2015-03-21T09:50:30Z</time>
      </trkpt>
      <trkpt lat="39.714434" lon="-8.358164">
        <ele>227.015</ele>
        <time>2015-03-21T09:50:36Z</time>
      </trkpt>
      <trkpt lat="39.715106" lon="-8.358116">
        <ele>227.072</ele>
        <time>2015-03-21T09:50:48Z</time>
      </trkpt>
      <trkpt lat="39.715175" lon="-8.358120">
        <ele>228.544</ele>
        <time>2015-03-21T09:50:50Z</time>
      </trkpt>
      <trkpt lat="39.715824" lon="-8.358190">
        <ele>229.405</ele>
        <time>2015-03-21T09:51:07Z</time>
      </trkpt>
      <trkpt lat="39.715918" lon="-8.358215">
        <ele>229.415</ele>
        <time>2015-03-21T09:51:09Z</time>
      </trkpt>
      <trkpt lat="39.716015" lon="-8.358248">
        <ele>228.007</ele>
        <time>2015-03-21T09:51:11Z</time>
      </trkpt>
      <trkpt lat="39.716816" lon="-8.358560">
        <ele>226.153</ele>
        <time>2015-03-21T09:51:28Z</time>
      </trkpt>
      <trkpt lat="39.717574" lon="-8.358932">
        <ele>223.296</ele>
        <time>2015-03-21T09:51:41Z</time>
      </trkpt>
      <trkpt lat="39.718266" lon="-8.359308">
        <ele>220.888</ele>
        <time>2015-03-21T09:51:53Z</time>
      </trkpt>
      <trkpt lat="39.718868" lon="-8.359297">
        <ele>220.868</ele>
        <time>2015-03-21T09:52:08Z</time>
      </trkpt>
      <trkpt lat="39.719382" lon="-8.359253">
        <ele>223.216</ele>
        <time>2015-03-21T09:52:23Z</time>
      </trkpt>
      <trkpt lat="39.719994" lon="-8.359327">
        <ele>224.631</ele>
        <time>2015-03-21T09:52:41Z</time>
      </trkpt>
      <trkpt lat="39.720267" lon="-8.359370">
        <ele>224.618</ele>
        <time>2015-03-21T09:52:48Z</time>
      </trkpt>
      <trkpt lat="39.720458" lon="-8.359460">
        <ele>223.253</ele>
        <time>2015-03-21T09:52:52Z</time>
      </trkpt>
      <trkpt lat="39.720660" lon="-8.359646">
        <ele>221.704</ele>
        <time>2015-03-21T09:52:56Z</time>
      </trkpt>
      <trkpt lat="39.721056" lon="-8.359804">
        <ele>220.814</ele>
        <time>2015-03-21T09:53:03Z</time>
      </trkpt>
      <trkpt lat="39.721483" lon="-8.359747">
        <ele>221.707</ele>
        <time>2015-03-21T09:53:14Z</time>
      </trkpt>
      <trkpt lat="39.721894" lon="-8.360053">
        <ele>222.294</ele>
        <time>2015-03-21T09:53:26Z</time>
      </trkpt>
      <trkpt lat="39.722183" lon="-8.360274">
        <ele>222.227</ele>
        <time>2015-03-21T09:53:34Z</time>
      </trkpt>
      <trkpt lat="39.722896" lon="-8.360531">
        <ele>219.879</ele>
        <time>2015-03-21T09:53:49Z</time>
      </trkpt>
      <trkpt lat="39.723762" lon="-8.360836">
        <ele>218.819</ele>
        <time>2015-03-21T09:54:06Z</time>
      </trkpt>
      <trkpt lat="39.724453" lon="-8.360953">
        <ele>218.847</ele>
        <time>2015-03-21T09:54:23Z</time>
      </trkpt>
      <trkpt lat="39.725105" lon="-8.361064">
        <ele>220.852</ele>
        <time>2015-03-21T09:54:40Z</time>
      </trkpt>
      <trkpt lat="39.725310" lon="-8.361106">
        <ele>220.859</ele>
        <time>2015-03-21T09:54:45Z</time>
      </trkpt>
      <trkpt lat="39.725514" lon="-8.361190">
        <ele>219.358</ele>
        <time>2015-03-21T09:54:50Z</time>
      </trkpt>
      <trkpt lat="39.726249" lon="-8.361507">
        <ele>219.352</ele>
        <time>2015-03-21T09:55:08Z</time>
      </trkpt>
      <trkpt lat="39.726482" lon="-8.361549">
        <ele>220.817</ele>
        <time>2015-03-21T09:55:14Z</time>
      </trkpt>
      <trkpt lat="39.727130" lon="-8.361583">
        <ele>220.807</ele>
        <time>2015-03-21T09:55:29Z</time>
      </trkpt>
      <trkpt lat="39.727870" lon="-8.361953">
        <ele>221.234</ele>
        <time>2015-03-21T09:55:48Z</time>
      </trkpt>
      <trkpt lat="39.727996" lon="-8.361985">
        <ele>221.257</ele>
        <time>2015-03-21T09:55:51Z</time>
      </trkpt>
      <trkpt lat="39.728243" lon="-8.361956">
        <ele>221.229</ele>
        <time>2015-03-21T09:55:57Z</time>
      </trkpt>
      <trkpt lat="39.728984" lon="-8.361930">
        <ele>222.229</ele>
        <time>2015-03-21T09:56:16Z</time>
      </trkpt>
      <trkpt lat="39.729642" lon="-8.361878">
        <ele>223.247</ele>
        <time>2015-03-21T09:56:34Z</time>
      </trkpt>
      <trkpt lat="39.729722" lon="-8.361896">
        <ele>223.222</ele>
        <time>2015-03-21T09:56:36Z</time>
      </trkpt>
      <trkpt lat="39.729930" lon="-8.361951">
        <ele>221.249</ele>
        <time>2015-03-21T09:56:40Z</time>
      </trkpt>
      <trkpt lat="39.730367" lon="-8.361849">
        <ele>222.776</ele>
        <time>2015-03-21T09:56:51Z</time>
      </trkpt>
      <trkpt lat="39.730833" lon="-8.361739">
        <ele>224.190</ele>
        <time>2015-03-21T09:57:09Z</time>
      </trkpt>
      <trkpt lat="39.731332" lon="-8.361498">
        <ele>225.619</ele>
        <time>2015-03-21T09:57:30Z</time>
      </trkpt>
      <trkpt lat="39.731689" lon="-8.361294">
        <ele>227.507</ele>
        <time>2015-03-21T09:57:46Z</time>
      </trkpt>
      <trkpt lat="39.732035" lon="-8.361061">
        <ele>229.916</ele>
        <time>2015-03-21T09:58:03Z</time>
      </trkpt>
      <trkpt lat="39.732304" lon="-8.360824">
        <ele>232.349</ele>
        <time>2015-03-21T09:58:20Z</time>
      </trkpt>
      <trkpt lat="39.732565" lon="-8.360592">
        <ele>234.251</ele>
        <time>2015-03-21T09:58:36Z</time>
      </trkpt>
      <trkpt lat="39.732837" lon="-8.360270">
        <ele>237.131</ele>
        <time>2015-03-21T09:58:54Z</time>
      </trkpt>
      <trkpt lat="39.733058" lon="-8.359940">
        <ele>240.049</ele>
        <time>2015-03-21T09:59:12Z</time>
      </trkpt>
      <trkpt lat="39.733281" lon="-8.359537">
        <ele>242.424</ele>
        <time>2015-03-21T09:59:30Z</time>
      </trkpt>
      <trkpt lat="39.733450" lon="-8.359216">
        <ele>244.311</ele>
        <time>2015-03-21T09:59:45Z</time>
      </trkpt>
      <trkpt lat="39.733675" lon="-8.358922">
        <ele>246.731</ele>
        <time>2015-03-21T10:00:01Z</time>
      </trkpt>
      <trkpt lat="39.733926" lon="-8.358702">
        <ele>246.761</ele>
        <time>2015-03-21T10:00:13Z</time>
      </trkpt>
      <trkpt lat="39.734094" lon="-8.358754">
        <ele>245.807</ele>
        <time>2015-03-21T10:00:17Z</time>
      </trkpt>
      <trkpt lat="39.734136" lon="-8.358833">
        <ele>245.807</ele>
        <time>2015-03-21T10:00:19Z</time>
      </trkpt>
      <trkpt lat="39.734175" lon="-8.359016">
        <ele>246.712</ele>
        <time>2015-03-21T10:00:26Z</time>
      </trkpt>
      <trkpt lat="39.734206" lon="-8.359420">
        <ele>249.635</ele>
        <time>2015-03-21T10:00:45Z</time>
      </trkpt>
      <trkpt lat="39.734151" lon="-8.359650">
        <ele>252.097</ele>
        <time>2015-03-21T10:00:58Z</time>
      </trkpt>
      <trkpt lat="39.734149" lon="-8.359728">
        <ele>252.567</ele>
        <time>2015-03-21T10:01:02Z</time>
      </trkpt>
      <trkpt lat="39.734116" lon="-8.359855">
        <ele>253.925</ele>
        <time>2015-03-21T10:01:09Z</time>
      </trkpt>
      <trkpt lat="39.734165" lon="-8.360164">
        <ele>255.930</ele>
        <time>2015-03-21T10:01:25Z</time>
      </trkpt>
      <trkpt lat="39.734452" lon="-8.360394">
        <ele>254.967</ele>
        <time>2015-03-21T10:01:37Z</time>
      </trkpt>
      <trkpt lat="39.734842" lon="-8.360455">
        <ele>253.985</ele>
        <time>2015-03-21T10:01:49Z</time>
      </trkpt>
      <trkpt lat="39.735064" lon="-8.360448">
        <ele>255.489</ele>
        <time>2015-03-21T10:02:00Z</time>
      </trkpt>
      <trkpt lat="39.735355" lon="-8.360428">
        <ele>255.917</ele>
        <time>2015-03-21T10:02:13Z</time>
      </trkpt>
      <trkpt lat="39.735628" lon="-8.360530">
        <ele>255.907</ele>
        <time>2015-03-21T10:02:24Z</time>
      </trkpt>
      <trkpt lat="39.736126" lon="-8.360691">
        <ele>254.487</ele>
        <time>2015-03-21T10:02:39Z</time>
      </trkpt>
      <trkpt lat="39.736444" lon="-8.360658">
        <ele>253.940</ele>
        <time>2015-03-21T10:02:51Z</time>
      </trkpt>
      <trkpt lat="39.736740" lon="-8.360699">
        <ele>255.412</ele>
        <time>2015-03-21T10:03:04Z</time>
      </trkpt>
      <trkpt lat="39.737024" lon="-8.360686">
        <ele>256.342</ele>
        <time>2015-03-21T10:03:17Z</time>
      </trkpt>
      <trkpt lat="39.737339" lon="-8.360761">
        <ele>257.310</ele>
        <time>2015-03-21T10:03:31Z</time>
      </trkpt>
      <trkpt lat="39.737685" lon="-8.360824">
        <ele>258.325</ele>
        <time>2015-03-21T10:03:46Z</time>
      </trkpt>
      <trkpt lat="39.738070" lon="-8.360762">
        <ele>258.322</ele>
        <time>2015-03-21T10:03:59Z</time>
      </trkpt>
      <trkpt lat="39.738132" lon="-8.360758">
        <ele>256.824</ele>
        <time>2015-03-21T10:04:01Z</time>
      </trkpt>
      <trkpt lat="39.738521" lon="-8.360796">
        <ele>256.804</ele>
        <time>2015-03-21T10:04:16Z</time>
      </trkpt>
      <trkpt lat="39.738707" lon="-8.360821">
        <ele>258.314</ele>
        <time>2015-03-21T10:04:26Z</time>
      </trkpt>
      <trkpt lat="39.738853" lon="-8.360854">
        <ele>260.207</ele>
        <time>2015-03-21T10:04:35Z</time>
      </trkpt>
      <trkpt lat="39.738922" lon="-8.360880">
        <ele>260.781</ele>
        <time>2015-03-21T10:04:39Z</time>
      </trkpt>
      <trkpt lat="39.739209" lon="-8.360949">
        <ele>261.634</ele>
        <time>2015-03-21T10:04:53Z</time>
      </trkpt>
      <trkpt lat="39.739489" lon="-8.360997">
        <ele>262.136</ele>
        <time>2015-03-21T10:05:05Z</time>
      </trkpt>
      <trkpt lat="39.739900" lon="-8.361136">
        <ele>260.766</ele>
        <time>2015-03-21T10:05:18Z</time>
      </trkpt>
      <trkpt lat="39.740217" lon="-8.361160">
        <ele>259.724</ele>
        <time>2015-03-21T10:05:29Z</time>
      </trkpt>
      <trkpt lat="39.740304" lon="-8.361169">
        <ele>261.179</ele>
        <time>2015-03-21T10:05:33Z</time>
      </trkpt>
      <trkpt lat="39.740667" lon="-8.361212">
        <ele>262.156</ele>
        <time>2015-03-21T10:05:48Z</time>
      </trkpt>
      <trkpt lat="39.740961" lon="-8.361251">
        <ele>262.675</ele>
        <time>2015-03-21T10:06:01Z</time>
      </trkpt>
      <trkpt lat="39.741246" lon="-8.361310">
        <ele>264.528</ele>
        <time>2015-03-21T10:06:16Z</time>
      </trkpt>
      <trkpt lat="39.741569" lon="-8.361321">
        <ele>267.420</ele>
        <time>2015-03-21T10:06:35Z</time>
      </trkpt>
      <trkpt lat="39.741776" lon="-8.361311">
        <ele>269.307</ele>
        <time>2015-03-21T10:06:49Z</time>
      </trkpt>
      <trkpt lat="39.742008" lon="-8.361336">
        <ele>271.736</ele>
        <time>2015-03-21T10:07:04Z</time>
      </trkpt>
      <trkpt lat="39.742187" lon="-8.361313">
        <ele>273.249</ele>
        <time>2015-03-21T10:07:16Z</time>
      </trkpt>
      <trkpt lat="39.742475" lon="-8.361273">
        <ele>274.121</ele>
        <time>2015-03-21T10:07:30Z</time>
      </trkpt>
      <trkpt lat="39.742767" lon="-8.361347">
        <ele>274.171</ele>
        <time>2015-03-21T10:07:44Z</time>
      </trkpt>
      <trkpt lat="39.743012" lon="-8.361443">
        <ele>273.699</ele>
        <time>2015-03-21T10:07:57Z</time>
      </trkpt>
      <trkpt lat="39.743104" lon="-8.361474">
        <ele>274.114</ele>
        <time>2015-03-21T10:08:02Z</time>
      </trkpt>
      <trkpt lat="39.743377" lon="-8.361487">
        <ele>276.081</ele>
        <time>2015-03-21T10:08:17Z</time>
      </trkpt>
      <trkpt lat="39.743647" lon="-8.361465">
        <ele>278.078</ele>
        <time>2015-03-21T10:08:32Z</time>
      </trkpt>
      <trkpt lat="39.743877" lon="-8.361361">
        <ele>279.933</ele>
        <time>2015-03-21T10:08:47Z</time>
      </trkpt>
      <trkpt lat="39.744173" lon="-8.361198">
        <ele>280.426</ele>
        <time>2015-03-21T10:09:02Z</time>
      </trkpt>
      <trkpt lat="39.744468" lon="-8.361184">
        <ele>281.307</ele>
        <time>2015-03-21T10:09:17Z</time>
      </trkpt>
      <trkpt lat="39.744710" lon="-8.361175">
        <ele>283.346</ele>
        <time>2015-03-21T10:09:32Z</time>
      </trkpt>
      <trkpt lat="39.744853" lon="-8.360977">
        <ele>286.169</ele>
        <time>2015-03-21T10:09:47Z</time>
      </trkpt>
      <trkpt lat="39.745065" lon="-8.360753">
        <ele>287.191</ele>
        <time>2015-03-21T10:10:02Z</time>
      </trkpt>
      <trkpt lat="39.745308" lon="-8.360791">
        <ele>288.511</ele>
        <time>2015-03-21T10:10:15Z</time>
      </trkpt>
      <trkpt lat="39.745486" lon="-8.361086">
        <ele>284.789</ele>
        <time>2015-03-21T10:10:23Z</time>
      </trkpt>
      <trkpt lat="39.745630" lon="-8.361283">
        <ele>281.334</ele>
        <time>2015-03-21T10:10:29Z</time>
      </trkpt>
      <trkpt lat="39.745807" lon="-8.361503">
        <ele>279.451</ele>
        <time>2015-03-21T10:10:38Z</time>
      </trkpt>
      <trkpt lat="39.746004" lon="-8.361657">
        <ele>278.077</ele>
        <time>2015-03-21T10:10:48Z</time>
      </trkpt>
      <trkpt lat="39.746107" lon="-8.361731">
        <ele>277.061</ele>
        <time>2015-03-21T10:10:51Z</time>
      </trkpt>
      <trkpt lat="39.746288" lon="-8.362014">
        <ele>275.127</ele>
        <time>2015-03-21T10:10:57Z</time>
      </trkpt>
      <trkpt lat="39.746432" lon="-8.362378">
        <ele>273.207</ele>
        <time>2015-03-21T10:11:03Z</time>
      </trkpt>
      <trkpt lat="39.746466" lon="-8.362515">
        <ele>272.246</ele>
        <time>2015-03-21T10:11:05Z</time>
      </trkpt>
      <trkpt lat="39.746470" lon="-8.363129">
        <ele>268.419</ele>
        <time>2015-03-21T10:11:17Z</time>
      </trkpt>
      <trkpt lat="39.746520" lon="-8.363439">
        <ele>264.551</ele>
        <time>2015-03-21T10:11:34Z</time>
      </trkpt>
      <trkpt lat="39.746596" lon="-8.363775">
        <ele>259.771</ele>
        <time>2015-03-21T10:11:39Z</time>
      </trkpt>
      <trkpt lat="39.746628" lon="-8.364001">
        <ele>258.379</ele>
        <time>2015-03-21T10:11:42Z</time>
      </trkpt>
      <trkpt lat="39.746632" lon="-8.364161">
        <ele>257.864</ele>
        <time>2015-03-21T10:11:44Z</time>
      </trkpt>
      <trkpt lat="39.746572" lon="-8.364548">
        <ele>258.751</ele>
        <time>2015-03-21T10:11:53Z</time>
      </trkpt>
      <trkpt lat="39.746460" lon="-8.365000">
        <ele>259.764</ele>
        <time>2015-03-21T10:12:09Z</time>
      </trkpt>
      <trkpt lat="39.746316" lon="-8.365535">
        <ele>257.806</ele>
        <time>2015-03-21T10:12:22Z</time>
      </trkpt>
      <trkpt lat="39.746287" lon="-8.365884">
        <ele>255.416</ele>
        <time>2015-03-21T10:12:28Z</time>
      </trkpt>
      <trkpt lat="39.746269" lon="-8.365969">
        <ele>253.907</ele>
        <time>2015-03-21T10:12:30Z</time>
      </trkpt>
      <trkpt lat="39.746227" lon="-8.366412">
        <ele>251.015</ele>
        <time>2015-03-21T10:12:38Z</time>
      </trkpt>
      <trkpt lat="39.746210" lon="-8.366593">
        <ele>249.618</ele>
        <time>2015-03-21T10:12:41Z</time>
      </trkpt>
      <trkpt lat="39.746221" lon="-8.366813">
        <ele>248.650</ele>
        <time>2015-03-21T10:12:45Z</time>
      </trkpt>
      <trkpt lat="39.746237" lon="-8.367234">
        <ele>245.310</ele>
        <time>2015-03-21T10:12:54Z</time>
      </trkpt>
      <trkpt lat="39.746264" lon="-8.367697">
        <ele>241.938</ele>
        <time>2015-03-21T10:13:03Z</time>
      </trkpt>
      <trkpt lat="39.746274" lon="-8.368104">
        <ele>239.593</ele>
        <time>2015-03-21T10:13:13Z</time>
      </trkpt>
      <trkpt lat="39.746297" lon="-8.368475">
        <ele>236.130</ele>
        <time>2015-03-21T10:13:21Z</time>
      </trkpt>
      <trkpt lat="39.746297" lon="-8.368685">
        <ele>233.376</ele>
        <time>2015-03-21T10:13:25Z</time>
      </trkpt>
      <trkpt lat="39.746260" lon="-8.368954">
        <ele>229.490</ele>
        <time>2015-03-21T10:13:31Z</time>
      </trkpt>
      <trkpt lat="39.746300" lon="-8.369178">
        <ele>227.519</ele>
        <time>2015-03-21T10:13:36Z</time>
      </trkpt>
      <trkpt lat="39.746644" lon="-8.369267">
        <ele>225.607</ele>
        <time>2015-03-21T10:13:46Z</time>
      </trkpt>
      <trkpt lat="39.746853" lon="-8.369199">
        <ele>225.676</ele>
        <time>2015-03-21T10:13:53Z</time>
      </trkpt>
      <trkpt lat="39.747197" lon="-8.369098">
        <ele>227.039</ele>
        <time>2015-03-21T10:14:08Z</time>
      </trkpt>
      <trkpt lat="39.747517" lon="-8.368979">
        <ele>228.051</ele>
        <time>2015-03-21T10:14:22Z</time>
      </trkpt>
      <trkpt lat="39.747877" lon="-8.368920">
        <ele>226.561</ele>
        <time>2015-03-21T10:14:34Z</time>
      </trkpt>
      <trkpt lat="39.748275" lon="-8.368986">
        <ele>225.689</ele>
        <time>2015-03-21T10:14:47Z</time>
      </trkpt>
      <trkpt lat="39.748685" lon="-8.368905">
        <ele>227.084</ele>
        <time>2015-03-21T10:15:02Z</time>
      </trkpt>
      <trkpt lat="39.748810" lon="-8.368865">
        <ele>225.681</ele>
        <time>2015-03-21T10:15:07Z</time>
      </trkpt>
      <trkpt lat="39.748912" lon="-8.368852">
        <ele>225.193</ele>
        <time>2015-03-21T10:15:23Z</time>
      </trkpt>
      <trkpt lat="39.749240" lon="-8.368798">
        <ele>224.165</ele>
        <time>2015-03-21T10:15:37Z</time>
      </trkpt>
      <trkpt lat="39.749550" lon="-8.368786">
        <ele>226.121</ele>
        <time>2015-03-21T10:15:52Z</time>
      </trkpt>
      <trkpt lat="39.749826" lon="-8.368690">
        <ele>226.507</ele>
        <time>2015-03-21T10:16:06Z</time>
      </trkpt>
      <trkpt lat="39.750062" lon="-8.368675">
        <ele>226.568</ele>
        <time>2015-03-21T10:16:19Z</time>
      </trkpt>
      <trkpt lat="39.750176" lon="-8.368733">
        <ele>226.531</ele>
        <time>2015-03-21T10:17:49Z</time>
      </trkpt>
      <trkpt lat="39.750465" lon="-8.369026">
        <ele>223.213</ele>
        <time>2015-03-21T10:18:01Z</time>
      </trkpt>
      <trkpt lat="39.750674" lon="-8.369242">
        <ele>221.733</ele>
        <time>2015-03-21T10:18:10Z</time>
      </trkpt>
      <trkpt lat="39.750990" lon="-8.369361">
        <ele>220.391</ele>
        <time>2015-03-21T10:18:25Z</time>
      </trkpt>
      <trkpt lat="39.751122" lon="-8.369498">
        <ele>219.376</ele>
        <time>2015-03-21T10:18:31Z</time>
      </trkpt>
      <trkpt lat="39.751484" lon="-8.369903">
        <ele>216.433</ele>
        <time>2015-03-21T10:18:44Z</time>
      </trkpt>
      <trkpt lat="39.751694" lon="-8.370171">
        <ele>215.019</ele>
        <time>2015-03-21T10:18:53Z</time>
      </trkpt>
      <trkpt lat="39.751781" lon="-8.370187">
        <ele>214.509</ele>
        <time>2015-03-21T10:18:57Z</time>
      </trkpt>
      <trkpt lat="39.752433" lon="-8.370037">
        <ele>213.619</ele>
        <time>2015-03-21T10:19:14Z</time>
      </trkpt>
      <trkpt lat="39.753084" lon="-8.369737">
        <ele>212.607</ele>
        <time>2015-03-21T10:19:30Z</time>
      </trkpt>
      <trkpt lat="39.753806" lon="-8.369387">
        <ele>212.670</ele>
        <time>2015-03-21T10:19:50Z</time>
      </trkpt>
      <trkpt lat="39.754173" lon="-8.369255">
        <ele>214.043</ele>
        <time>2015-03-21T10:20:00Z</time>
      </trkpt>
      <trkpt lat="39.754327" lon="-8.369401">
        <ele>214.065</ele>
        <time>2015-03-21T10:20:05Z</time>
      </trkpt>
      <trkpt lat="39.754913" lon="-8.370477">
        <ele>212.195</ele>
        <time>2015-03-21T10:20:27Z</time>
      </trkpt>
      <trkpt lat="39.755506" lon="-8.371514">
        <ele>209.293</ele>
        <time>2015-03-21T10:20:44Z</time>
      </trkpt>
      <trkpt lat="39.755574" lon="-8.371608">
        <ele>209.258</ele>
        <time>2015-03-21T10:20:46Z</time>
      </trkpt>
      <trkpt lat="39.755644" lon="-8.371686">
        <ele>209.265</ele>
        <time>2015-03-21T10:20:48Z</time>
      </trkpt>
      <trkpt lat="39.756212" lon="-8.371875">
        <ele>209.238</ele>
        <time>2015-03-21T10:21:02Z</time>
      </trkpt>
      <trkpt lat="39.756859" lon="-8.372016">
        <ele>210.770</ele>
        <time>2015-03-21T10:21:18Z</time>
      </trkpt>
      <trkpt lat="39.757633" lon="-8.372187">
        <ele>208.317</ele>
        <time>2015-03-21T10:21:34Z</time>
      </trkpt>
      <trkpt lat="39.758167" lon="-8.372313">
        <ele>208.307</ele>
        <time>2015-03-21T10:21:47Z</time>
      </trkpt>
      <trkpt lat="39.758820" lon="-8.372466">
        <ele>208.362</ele>
        <time>2015-03-21T10:22:02Z</time>
      </trkpt>
      <trkpt lat="39.759613" lon="-8.372662">
        <ele>207.815</ele>
        <time>2015-03-21T10:22:20Z</time>
      </trkpt>
      <trkpt lat="39.760445" lon="-8.372857">
        <ele>207.827</ele>
        <time>2015-03-21T10:22:39Z</time>
      </trkpt>
      <trkpt lat="39.761230" lon="-8.373012">
        <ele>207.887</ele>
        <time>2015-03-21T10:22:59Z</time>
      </trkpt>
      <trkpt lat="39.761803" lon="-8.373105">
        <ele>211.215</ele>
        <time>2015-03-21T10:23:15Z</time>
      </trkpt>
      <trkpt lat="39.762501" lon="-8.373218">
        <ele>213.660</ele>
        <time>2015-03-21T10:23:34Z</time>
      </trkpt>
      <trkpt lat="39.763189" lon="-8.373330">
        <ele>216.497</ele>
        <time>2015-03-21T10:23:53Z</time>
      </trkpt>
      <trkpt lat="39.763804" lon="-8.373433">
        <ele>218.815</ele>
        <time>2015-03-21T10:24:12Z</time>
      </trkpt>
      <trkpt lat="39.764470" lon="-8.373540">
        <ele>220.865</ele>
        <time>2015-03-21T10:24:33Z</time>
      </trkpt>
      <trkpt lat="39.764850" lon="-8.373604">
        <ele>221.711</ele>
        <time>2015-03-21T10:25:24Z</time>
      </trkpt>
      <trkpt lat="39.765384" lon="-8.373683">
        <ele>222.207</ele>
        <time>2015-03-21T10:25:38Z</time>
      </trkpt>
      <trkpt lat="39.766255" lon="-8.373831">
        <ele>220.820</ele>
        <time>2015-03-21T10:25:59Z</time>
      </trkpt>
      <trkpt lat="39.766680" lon="-8.373902">
        <ele>222.243</ele>
        <time>2015-03-21T10:26:11Z</time>
      </trkpt>
      <trkpt lat="39.767297" lon="-8.373993">
        <ele>224.625</ele>
        <time>2015-03-21T10:26:29Z</time>
      </trkpt>
      <trkpt lat="39.768034" lon="-8.374114">
        <ele>227.055</ele>
        <time>2015-03-21T10:26:50Z</time>
      </trkpt>
      <trkpt lat="39.768861" lon="-8.374250">
        <ele>228.593</ele>
        <time>2015-03-21T10:27:13Z</time>
      </trkpt>
      <trkpt lat="39.769503" lon="-8.374473">
        <ele>228.048</ele>
        <time>2015-03-21T10:27:30Z</time>
      </trkpt>
      <trkpt lat="39.769711" lon="-8.374572">
        <ele>227.065</ele>
        <time>2015-03-21T10:27:35Z</time>
      </trkpt>
      <trkpt lat="39.770488" lon="-8.374945">
        <ele>226.165</ele>
        <time>2015-03-21T10:27:54Z</time>
      </trkpt>
      <trkpt lat="39.771403" lon="-8.375466">
        <ele>225.168</ele>
        <time>2015-03-21T10:28:17Z</time>
      </trkpt>
      <trkpt lat="39.771978" lon="-8.376134">
        <ele>225.114</ele>
        <time>2015-03-21T10:28:35Z</time>
      </trkpt>
      <trkpt lat="39.772428" lon="-8.376620">
        <ele>226.507</ele>
        <time>2015-03-21T10:28:49Z</time>
      </trkpt>
      <trkpt lat="39.773155" lon="-8.377336">
        <ele>225.125</ele>
        <time>2015-03-21T10:29:10Z</time>
      </trkpt>
      <trkpt lat="39.773781" lon="-8.377680">
        <ele>225.138</ele>
        <time>2015-03-21T10:29:26Z</time>
      </trkpt>
      <trkpt lat="39.774550" lon="-8.378050">
        <ele>227.050</ele>
        <time>2015-03-21T10:29:47Z</time>
      </trkpt>
      <trkpt lat="39.775218" lon="-8.378386">
        <ele>228.940</ele>
        <time>2015-03-21T10:30:07Z</time>
      </trkpt>
      <trkpt lat="39.775893" lon="-8.378703">
        <ele>230.918</ele>
        <time>2015-03-21T10:30:27Z</time>
      </trkpt>
      <trkpt lat="39.776372" lon="-8.378933">
        <ele>232.853</ele>
        <time>2015-03-21T10:30:44Z</time>
      </trkpt>
      <trkpt lat="39.776820" lon="-8.379171">
        <ele>235.720</ele>
        <time>2015-03-21T10:31:04Z</time>
      </trkpt>
      <trkpt lat="39.777276" lon="-8.379484">
        <ele>238.534</ele>
        <time>2015-03-21T10:31:25Z</time>
      </trkpt>
      <trkpt lat="39.777753" lon="-8.379821">
        <ele>240.555</ele>
        <time>2015-03-21T10:31:45Z</time>
      </trkpt>
      <trkpt lat="39.778229" lon="-8.380174">
        <ele>240.010</ele>
        <time>2015-03-21T10:32:01Z</time>
      </trkpt>
      <trkpt lat="39.778823" lon="-8.380597">
        <ele>240.007</ele>
        <time>2015-03-21T10:32:19Z</time>
      </trkpt>
      <trkpt lat="39.779428" lon="-8.381031">
        <ele>240.542</ele>
        <time>2015-03-21T10:32:38Z</time>
      </trkpt>
      <trkpt lat="39.780051" lon="-8.381462">
        <ele>241.425</ele>
        <time>2015-03-21T10:32:57Z</time>
      </trkpt>
      <trkpt lat="39.780650" lon="-8.381881">
        <ele>243.827</ele>
        <time>2015-03-21T10:33:17Z</time>
      </trkpt>
      <trkpt lat="39.781040" lon="-8.382085">
        <ele>245.377</ele>
        <time>2015-03-21T10:33:32Z</time>
      </trkpt>
      <trkpt lat="39.781386" lon="-8.381756">
        <ele>245.315</ele>
        <time>2015-03-21T10:33:44Z</time>
      </trkpt>
      <trkpt lat="39.781857" lon="-8.381252">
        <ele>245.310</ele>
        <time>2015-03-21T10:34:02Z</time>
      </trkpt>
      <trkpt lat="39.782271" lon="-8.380936">
        <ele>246.747</ele>
        <time>2015-03-21T10:34:18Z</time>
      </trkpt>
      <trkpt lat="39.782697" lon="-8.380546">
        <ele>248.656</ele>
        <time>2015-03-21T10:34:39Z</time>
      </trkpt>
      <trkpt lat="39.782889" lon="-8.380165">
        <ele>250.159</ele>
        <time>2015-03-21T10:34:55Z</time>
      </trkpt>
      <trkpt lat="39.783103" lon="-8.379763">
        <ele>252.014</ele>
        <time>2015-03-21T10:35:13Z</time>
      </trkpt>
      <trkpt lat="39.783066" lon="-8.379427">
        <ele>253.907</ele>
        <time>2015-03-21T10:35:27Z</time>
      </trkpt>
      <trkpt lat="39.782956" lon="-8.379036">
        <ele>257.334</ele>
        <time>2015-03-21T10:35:45Z</time>
      </trkpt>
      <trkpt lat="39.782934" lon="-8.378675">
        <ele>260.267</ele>
        <time>2015-03-21T10:36:01Z</time>
      </trkpt>
      <trkpt lat="39.782859" lon="-8.378290">
        <ele>262.119</ele>
        <time>2015-03-21T10:36:17Z</time>
      </trkpt>
      <trkpt lat="39.782904" lon="-8.377888">
        <ele>262.159</ele>
        <time>2015-03-21T10:36:30Z</time>
      </trkpt>
      <trkpt lat="39.783087" lon="-8.377430">
        <ele>264.047</ele>
        <time>2015-03-21T10:36:47Z</time>
      </trkpt>
      <trkpt lat="39.783288" lon="-8.377031">
        <ele>265.992</ele>
        <time>2015-03-21T10:37:03Z</time>
      </trkpt>
      <trkpt lat="39.783476" lon="-8.376405">
        <ele>266.459</ele>
        <time>2015-03-21T10:37:21Z</time>
      </trkpt>
      <trkpt lat="39.783717" lon="-8.375606">
        <ele>265.523</ele>
        <time>2015-03-21T10:37:38Z</time>
      </trkpt>
      <trkpt lat="39.783895" lon="-8.375103">
        <ele>262.683</ele>
        <time>2015-03-21T10:37:46Z</time>
      </trkpt>
      <trkpt lat="39.783938" lon="-8.374884">
        <ele>261.111</ele>
        <time>2015-03-21T10:37:49Z</time>
      </trkpt>
      <trkpt lat="39.784040" lon="-8.374742">
        <ele>259.207</ele>
        <time>2015-03-21T10:37:57Z</time>
      </trkpt>
      <trkpt lat="39.784124" lon="-8.374704">
        <ele>258.781</ele>
        <time>2015-03-21T10:48:08Z</time>
      </trkpt>
      <trkpt lat="39.784348" lon="-8.374685">
        <ele>258.744</ele>
        <time>2015-03-21T10:48:21Z</time>
      </trkpt>
      <trkpt lat="39.784412" lon="-8.374663">
        <ele>260.296</ele>
        <time>2015-03-21T10:48:25Z</time>
      </trkpt>
      <trkpt lat="39.784778" lon="-8.374648">
        <ele>261.146</ele>
        <time>2015-03-21T10:48:43Z</time>
      </trkpt>
      <trkpt lat="39.785139" lon="-8.374691">
        <ele>262.684</ele>
        <time>2015-03-21T10:49:02Z</time>
      </trkpt>
      <trkpt lat="39.785484" lon="-8.374677">
        <ele>263.589</ele>
        <time>2015-03-21T10:49:20Z</time>
      </trkpt>
      <trkpt lat="39.785819" lon="-8.374659">
        <ele>265.066</ele>
        <time>2015-03-21T10:49:38Z</time>
      </trkpt>
      <trkpt lat="39.786065" lon="-8.374778">
        <ele>267.437</ele>
        <time>2015-03-21T10:49:55Z</time>
      </trkpt>
      <trkpt lat="39.786262" lon="-8.374965">
        <ele>268.849</ele>
        <time>2015-03-21T10:50:12Z</time>
      </trkpt>
      <trkpt lat="39.786482" lon="-8.375019">
        <ele>271.213</ele>
        <time>2015-03-21T10:50:28Z</time>
      </trkpt>
      <trkpt lat="39.786695" lon="-8.375067">
        <ele>273.607</ele>
        <time>2015-03-21T10:50:44Z</time>
      </trkpt>
      <trkpt lat="39.786974" lon="-8.375047">
        <ele>275.142</ele>
        <time>2015-03-21T10:51:03Z</time>
      </trkpt>
      <trkpt lat="39.787032" lon="-8.375040">
        <ele>275.125</ele>
        <time>2015-03-21T10:51:07Z</time>
      </trkpt>
      <trkpt lat="39.787131" lon="-8.375030">
        <ele>275.677</ele>
        <time>2015-03-21T10:51:14Z</time>
      </trkpt>
      <trkpt lat="39.787426" lon="-8.375028">
        <ele>277.577</ele>
        <time>2015-03-21T10:51:34Z</time>
      </trkpt>
      <trkpt lat="39.787681" lon="-8.375039">
        <ele>278.915</ele>
        <time>2015-03-21T10:51:51Z</time>
      </trkpt>
      <trkpt lat="39.787950" lon="-8.375118">
        <ele>280.890</ele>
        <time>2015-03-21T10:52:09Z</time>
      </trkpt>
      <trkpt lat="39.788123" lon="-8.374925">
        <ele>280.897</ele>
        <time>2015-03-21T10:52:24Z</time>
      </trkpt>
      <trkpt lat="39.788300" lon="-8.374583">
        <ele>280.825</ele>
        <time>2015-03-21T10:52:38Z</time>
      </trkpt>
      <trkpt lat="39.788516" lon="-8.374813">
        <ele>280.826</ele>
        <time>2015-03-21T10:52:50Z</time>
      </trkpt>
      <trkpt lat="39.788910" lon="-8.374909">
        <ele>281.808</ele>
        <time>2015-03-21T10:53:09Z</time>
      </trkpt>
      <trkpt lat="39.789321" lon="-8.374978">
        <ele>281.807</ele>
        <time>2015-03-21T10:53:27Z</time>
      </trkpt>
      <trkpt lat="39.789604" lon="-8.375224">
        <ele>283.771</ele>
        <time>2015-03-21T10:53:43Z</time>
      </trkpt>
      <trkpt lat="39.789863" lon="-8.375504">
        <ele>286.144</ele>
        <time>2015-03-21T10:54:00Z</time>
      </trkpt>
      <trkpt lat="39.790225" lon="-8.375740">
        <ele>287.646</ele>
        <time>2015-03-21T10:54:19Z</time>
      </trkpt>
      <trkpt lat="39.790722" lon="-8.375746">
        <ele>288.596</ele>
        <time>2015-03-21T10:54:37Z</time>
      </trkpt>
      <trkpt lat="39.791468" lon="-8.375519">
        <ele>287.174</ele>
        <time>2015-03-21T10:54:56Z</time>
      </trkpt>
      <trkpt lat="39.791996" lon="-8.375567">
        <ele>287.139</ele>
        <time>2015-03-21T10:55:12Z</time>
      </trkpt>
      <trkpt lat="39.792393" lon="-8.375833">
        <ele>288.576</ele>
        <time>2015-03-21T10:55:30Z</time>
      </trkpt>
      <trkpt lat="39.792838" lon="-8.376099">
        <ele>290.584</ele>
        <time>2015-03-21T10:55:50Z</time>
      </trkpt>
      <trkpt lat="39.793253" lon="-8.376198">
        <ele>292.907</ele>
        <time>2015-03-21T10:56:07Z</time>
      </trkpt>
      <trkpt lat="39.793742" lon="-8.376250">
        <ele>294.317</ele>
        <time>2015-03-21T10:56:26Z</time>
      </trkpt>
      <trkpt lat="39.794171" lon="-8.376221">
        <ele>295.307</ele>
        <time>2015-03-21T10:56:42Z</time>
      </trkpt>
      <trkpt lat="39.794714" lon="-8.376292">
        <ele>296.247</ele>
        <time>2015-03-21T10:57:01Z</time>
      </trkpt>
      <trkpt lat="39.795239" lon="-8.376266">
        <ele>298.280</ele>
        <time>2015-03-21T10:57:20Z</time>
      </trkpt>
      <trkpt lat="39.795814" lon="-8.376216">
        <ele>298.212</ele>
        <time>2015-03-21T10:57:38Z</time>
      </trkpt>
      <trkpt lat="39.796180" lon="-8.376030">
        <ele>297.222</ele>
        <time>2015-03-21T10:57:48Z</time>
      </trkpt>
      <trkpt lat="39.796268" lon="-8.375999">
        <ele>296.230</ele>
        <time>2015-03-21T10:57:50Z</time>
      </trkpt>
      <trkpt lat="39.796430" lon="-8.375865">
        <ele>295.785</ele>
        <time>2015-03-21T10:57:54Z</time>
      </trkpt>
      <trkpt lat="39.796700" lon="-8.375754">
        <ele>293.392</ele>
        <time>2015-03-21T10:58:02Z</time>
      </trkpt>
      <trkpt lat="39.796884" lon="-8.375657">
        <ele>292.457</ele>
        <time>2015-03-21T10:58:06Z</time>
      </trkpt>
      <trkpt lat="39.797104" lon="-8.375391">
        <ele>291.400</ele>
        <time>2015-03-21T10:58:12Z</time>
      </trkpt>
      <trkpt lat="39.797200" lon="-8.375136">
        <ele>291.420</ele>
        <time>2015-03-21T10:58:17Z</time>
      </trkpt>
      <trkpt lat="39.797226" lon="-8.374994">
        <ele>291.407</ele>
        <time>2015-03-21T10:58:20Z</time>
      </trkpt>
      <trkpt lat="39.797458" lon="-8.374863">
        <ele>289.034</ele>
        <time>2015-03-21T10:58:26Z</time>
      </trkpt>
      <trkpt lat="39.797565" lon="-8.374888">
        <ele>287.697</ele>
        <time>2015-03-21T10:58:28Z</time>
      </trkpt>
      <trkpt lat="39.797808" lon="-8.374829">
        <ele>285.779</ele>
        <time>2015-03-21T10:58:32Z</time>
      </trkpt>
      <trkpt lat="39.798140" lon="-8.374400">
        <ele>284.259</ele>
        <time>2015-03-21T10:58:39Z</time>
      </trkpt>
      <trkpt lat="39.798313" lon="-8.374364">
        <ele>283.787</ele>
        <time>2015-03-21T10:58:42Z</time>
      </trkpt>
      <trkpt lat="39.798909" lon="-8.374296">
        <ele>283.392</ele>
        <time>2015-03-21T10:58:58Z</time>
      </trkpt>
      <trkpt lat="39.799213" lon="-8.373779">
        <ele>283.329</ele>
        <time>2015-03-21T10:59:12Z</time>
      </trkpt>
      <trkpt lat="39.799494" lon="-8.373212">
        <ele>283.313</ele>
        <time>2015-03-21T10:59:27Z</time>
      </trkpt>
      <trkpt lat="39.799794" lon="-8.372650">
        <ele>283.343</ele>
        <time>2015-03-21T10:59:43Z</time>
      </trkpt>
      <trkpt lat="39.800096" lon="-8.372257">
        <ele>285.707</ele>
        <time>2015-03-21T10:59:57Z</time>
      </trkpt>
      <trkpt lat="39.800471" lon="-8.372292">
        <ele>286.107</ele>
        <time>2015-03-21T11:00:12Z</time>
      </trkpt>
      <trkpt lat="39.800798" lon="-8.372504">
        <ele>286.660</ele>
        <time>2015-03-21T11:00:27Z</time>
      </trkpt>
      <trkpt lat="39.801041" lon="-8.372773">
        <ele>287.123</ele>
        <time>2015-03-21T11:00:40Z</time>
      </trkpt>
      <trkpt lat="39.801299" lon="-8.373032">
        <ele>287.635</ele>
        <time>2015-03-21T11:00:54Z</time>
      </trkpt>
      <trkpt lat="39.801709" lon="-8.373186">
        <ele>288.185</ele>
        <time>2015-03-21T11:01:11Z</time>
      </trkpt>
      <trkpt lat="39.802021" lon="-8.373415">
        <ele>288.523</ele>
        <time>2015-03-21T11:01:26Z</time>
      </trkpt>
      <trkpt lat="39.802387" lon="-8.373510">
        <ele>288.518</ele>
        <time>2015-03-21T11:01:41Z</time>
      </trkpt>
      <trkpt lat="39.802731" lon="-8.373668">
        <ele>290.595</ele>
        <time>2015-03-21T11:01:57Z</time>
      </trkpt>
      <trkpt lat="39.803057" lon="-8.373810">
        <ele>291.428</ele>
        <time>2015-03-21T11:02:12Z</time>
      </trkpt>
      <trkpt lat="39.803152" lon="-8.373731">
        <ele>291.989</ele>
        <time>2015-03-21T11:02:17Z</time>
      </trkpt>
      <trkpt lat="39.803529" lon="-8.373631">
        <ele>292.417</ele>
        <time>2015-03-21T11:02:32Z</time>
      </trkpt>
      <trkpt lat="39.804050" lon="-8.373691">
        <ele>293.807</ele>
        <time>2015-03-21T11:02:53Z</time>
      </trkpt>
      <trkpt lat="39.804576" lon="-8.373805">
        <ele>294.861</ele>
        <time>2015-03-21T11:03:11Z</time>
      </trkpt>
      <trkpt lat="39.804976" lon="-8.373984">
        <ele>296.264</ele>
        <time>2015-03-21T11:03:24Z</time>
      </trkpt>
      <trkpt lat="39.805647" lon="-8.374123">
        <ele>296.746</ele>
        <time>2015-03-21T11:03:43Z</time>
      </trkpt>
      <trkpt lat="39.806136" lon="-8.374240">
        <ele>297.216</ele>
        <time>2015-03-21T11:03:58Z</time>
      </trkpt>
      <trkpt lat="39.806637" lon="-8.374331">
        <ele>297.744</ele>
        <time>2015-03-21T11:04:13Z</time>
      </trkpt>
      <trkpt lat="39.807095" lon="-8.374322">
        <ele>298.689</ele>
        <time>2015-03-21T11:04:28Z</time>
      </trkpt>
      <trkpt lat="39.807429" lon="-8.374124">
        <ele>300.196</ele>
        <time>2015-03-21T11:04:43Z</time>
      </trkpt>
      <trkpt lat="39.807727" lon="-8.373986">
        <ele>302.531</ele>
        <time>2015-03-21T11:04:59Z</time>
      </trkpt>
      <trkpt lat="39.808039" lon="-8.374000">
        <ele>304.461</ele>
        <time>2015-03-21T11:05:15Z</time>
      </trkpt>
      <trkpt lat="39.808409" lon="-8.373985">
        <ele>305.807</ele>
        <time>2015-03-21T11:05:31Z</time>
      </trkpt>
      <trkpt lat="39.808820" lon="-8.373964">
        <ele>307.307</ele>
        <time>2015-03-21T11:05:49Z</time>
      </trkpt>
      <trkpt lat="39.809205" lon="-8.373807">
        <ele>309.252</ele>
        <time>2015-03-21T11:06:06Z</time>
      </trkpt>
      <trkpt lat="39.809662" lon="-8.373593">
        <ele>311.675</ele>
        <time>2015-03-21T11:06:26Z</time>
      </trkpt>
      <trkpt lat="39.810040" lon="-8.373504">
        <ele>312.197</ele>
        <time>2015-03-21T11:06:41Z</time>
      </trkpt>
      <trkpt lat="39.810523" lon="-8.373563">
        <ele>313.117</ele>
        <time>2015-03-21T11:07:00Z</time>
      </trkpt>
      <trkpt lat="39.811021" lon="-8.373696">
        <ele>315.045</ele>
        <time>2015-03-21T11:07:20Z</time>
      </trkpt>
      <trkpt lat="39.811440" lon="-8.373856">
        <ele>316.480</ele>
        <time>2015-03-21T11:07:37Z</time>
      </trkpt>
      <trkpt lat="39.811869" lon="-8.373755">
        <ele>318.867</ele>
        <time>2015-03-21T11:07:55Z</time>
      </trkpt>
      <trkpt lat="39.812211" lon="-8.373636">
        <ele>320.771</ele>
        <time>2015-03-21T11:08:11Z</time>
      </trkpt>
      <trkpt lat="39.812646" lon="-8.373568">
        <ele>323.141</ele>
        <time>2015-03-21T11:08:32Z</time>
      </trkpt>
      <trkpt lat="39.812889" lon="-8.373546">
        <ele>325.515</ele>
        <time>2015-03-21T11:08:46Z</time>
      </trkpt>
      <trkpt lat="39.813200" lon="-8.373552">
        <ele>328.407</ele>
        <time>2015-03-21T11:09:03Z</time>
      </trkpt>
      <trkpt lat="39.813500" lon="-8.373525">
        <ele>329.426</ele>
        <time>2015-03-21T11:09:18Z</time>
      </trkpt>
      <trkpt lat="39.813707" lon="-8.373538">
        <ele>329.999</ele>
        <time>2015-03-21T11:09:25Z</time>
      </trkpt>
      <trkpt lat="39.814145" lon="-8.373557">
        <ele>326.561</ele>
        <time>2015-03-21T11:09:33Z</time>
      </trkpt>
      <trkpt lat="39.814833" lon="-8.373547">
        <ele>325.111</ele>
        <time>2015-03-21T11:09:44Z</time>
      </trkpt>
      <trkpt lat="39.815048" lon="-8.373582">
        <ele>325.189</ele>
        <time>2015-03-21T11:09:49Z</time>
      </trkpt>
      <trkpt lat="39.815728" lon="-8.373709">
        <ele>327.094</ele>
        <time>2015-03-21T11:10:08Z</time>
      </trkpt>
      <trkpt lat="39.815984" lon="-8.373740">
        <ele>328.031</ele>
        <time>2015-03-21T11:11:00Z</time>
      </trkpt>
      <trkpt lat="39.815904" lon="-8.373869">
        <ele>328.028</ele>
        <time>2015-03-21T11:11:04Z</time>
      </trkpt>
      <trkpt lat="39.815834" lon="-8.374386">
        <ele>323.689</ele>
        <time>2015-03-21T11:11:12Z</time>
      </trkpt>
      <trkpt lat="39.815777" lon="-8.374638">
        <ele>322.717</ele>
        <time>2015-03-21T11:11:15Z</time>
      </trkpt>
      <trkpt lat="39.815717" lon="-8.374915">
        <ele>320.307</ele>
        <time>2015-03-21T11:11:18Z</time>
      </trkpt>
      <trkpt lat="39.815547" lon="-8.375381">
        <ele>316.411</ele>
        <time>2015-03-21T11:11:23Z</time>
      </trkpt>
      <trkpt lat="39.815471" lon="-8.375586">
        <ele>315.564</ele>
        <time>2015-03-21T11:11:25Z</time>
      </trkpt>
      <trkpt lat="39.815412" lon="-8.375745">
        <ele>314.566</ele>
        <time>2015-03-21T11:11:27Z</time>
      </trkpt>
      <trkpt lat="39.815369" lon="-8.376474">
        <ele>310.626</ele>
        <time>2015-03-21T11:11:36Z</time>
      </trkpt>
      <trkpt lat="39.815340" lon="-8.377418">
        <ele>307.824</ele>
        <time>2015-03-21T11:11:48Z</time>
      </trkpt>
      <trkpt lat="39.815341" lon="-8.377564">
        <ele>306.879</ele>
        <time>2015-03-21T11:11:50Z</time>
      </trkpt>
      <trkpt lat="39.815357" lon="-8.377704">
        <ele>305.856</ele>
        <time>2015-03-21T11:11:52Z</time>
      </trkpt>
      <trkpt lat="39.815522" lon="-8.377873">
        <ele>304.419</ele>
        <time>2015-03-21T11:11:59Z</time>
      </trkpt>
      <trkpt lat="39.816275" lon="-8.377855">
        <ele>304.409</ele>
        <time>2015-03-21T11:12:20Z</time>
      </trkpt>
      <trkpt lat="39.816631" lon="-8.377633">
        <ele>305.819</ele>
        <time>2015-03-21T11:12:33Z</time>
      </trkpt>
      <trkpt lat="39.816660" lon="-8.377116">
        <ele>307.807</ele>
        <time>2015-03-21T11:12:49Z</time>
      </trkpt>
      <trkpt lat="39.816725" lon="-8.376634">
        <ele>309.770</ele>
        <time>2015-03-21T11:13:05Z</time>
      </trkpt>
      <trkpt lat="39.816759" lon="-8.376155">
        <ele>311.673</ele>
        <time>2015-03-21T11:13:21Z</time>
      </trkpt>
      <trkpt lat="39.816813" lon="-8.375560">
        <ele>314.595</ele>
        <time>2015-03-21T11:13:41Z</time>
      </trkpt>
      <trkpt lat="39.816864" lon="-8.374986">
        <ele>317.925</ele>
        <time>2015-03-21T11:14:00Z</time>
      </trkpt>
      <trkpt lat="39.817003" lon="-8.374600">
        <ele>320.393</ele>
        <time>2015-03-21T11:14:15Z</time>
      </trkpt>
      <trkpt lat="39.817272" lon="-8.374346">
        <ele>321.298</ele>
        <time>2015-03-21T11:14:28Z</time>
      </trkpt>
      <trkpt lat="39.817614" lon="-8.374414">
        <ele>322.715</ele>
        <time>2015-03-21T11:14:42Z</time>
      </trkpt>
      <trkpt lat="39.818077" lon="-8.374517">
        <ele>325.116</ele>
        <time>2015-03-21T11:15:02Z</time>
      </trkpt>
      <trkpt lat="39.818555" lon="-8.374672">
        <ele>327.576</ele>
        <time>2015-03-21T11:15:22Z</time>
      </trkpt>
      <trkpt lat="39.818900" lon="-8.374877">
        <ele>328.413</ele>
        <time>2015-03-21T11:15:37Z</time>
      </trkpt>
      <trkpt lat="39.819368" lon="-8.374984">
        <ele>328.907</ele>
        <time>2015-03-21T11:15:53Z</time>
      </trkpt>
      <trkpt lat="39.819726" lon="-8.375088">
        <ele>328.920</ele>
        <time>2015-03-21T11:16:03Z</time>
      </trkpt>
      <trkpt lat="39.820243" lon="-8.375254">
        <ele>328.063</ele>
        <time>2015-03-21T11:16:17Z</time>
      </trkpt>
      <trkpt lat="39.820732" lon="-8.375599">
        <ele>327.585</ele>
        <time>2015-03-21T11:16:32Z</time>
      </trkpt>
      <trkpt lat="39.821348" lon="-8.376043">
        <ele>326.595</ele>
        <time>2015-03-21T11:16:49Z</time>
      </trkpt>
      <trkpt lat="39.821794" lon="-8.376430">
        <ele>325.573</ele>
        <time>2015-03-21T11:17:01Z</time>
      </trkpt>
      <trkpt lat="39.822450" lon="-8.377328">
        <ele>325.558</ele>
        <time>2015-03-21T11:17:24Z</time>
      </trkpt>
      <trkpt lat="39.822631" lon="-8.377524">
        <ele>327.035</ele>
        <time>2015-03-21T11:17:30Z</time>
      </trkpt>
      <trkpt lat="39.822737" lon="-8.377702">
        <ele>327.596</ele>
        <time>2015-03-21T11:17:35Z</time>
      </trkpt>
      <trkpt lat="39.823166" lon="-8.378380">
        <ele>327.531</ele>
        <time>2015-03-21T11:17:51Z</time>
      </trkpt>
      <trkpt lat="39.823597" lon="-8.379098">
        <ele>325.124</ele>
        <time>2015-03-21T11:18:06Z</time>
      </trkpt>
      <trkpt lat="39.824193" lon="-8.379883">
        <ele>323.107</ele>
        <time>2015-03-21T11:18:24Z</time>
      </trkpt>
      <trkpt lat="39.824768" lon="-8.380545">
        <ele>321.288</ele>
        <time>2015-03-21T11:18:40Z</time>
      </trkpt>
      <trkpt lat="39.825207" lon="-8.381059">
        <ele>320.711</ele>
        <time>2015-03-21T11:18:56Z</time>
      </trkpt>
      <trkpt lat="39.825185" lon="-8.381138">
        <ele>320.713</ele>
        <time>2015-03-21T11:19:24Z</time>
      </trkpt>
      <trkpt lat="39.825125" lon="-8.381266">
        <ele>321.223</ele>
        <time>2015-03-21T11:19:52Z</time>
      </trkpt>
      <trkpt lat="39.825075" lon="-8.381283">
        <ele>333.741</ele>
        <time>2015-03-21T11:48:30Z</time>
      </trkpt>
      <trkpt lat="39.825034" lon="-8.381351">
        <ele>332.846</ele>
        <time>2015-03-21T11:48:32Z</time>
      </trkpt>
      <trkpt lat="39.824824" lon="-8.381721">
        <ele>329.493</ele>
        <time>2015-03-21T11:48:41Z</time>
      </trkpt>
      <trkpt lat="39.824698" lon="-8.381966">
        <ele>327.027</ele>
        <time>2015-03-21T11:48:47Z</time>
      </trkpt>
      <trkpt lat="39.824707" lon="-8.382054">
        <ele>326.568</ele>
        <time>2015-03-21T11:48:58Z</time>
      </trkpt>
      <trkpt lat="39.824665" lon="-8.382114">
        <ele>325.114</ele>
        <time>2015-03-21T11:51:23Z</time>
      </trkpt>
      <trkpt lat="39.824763" lon="-8.382244">
        <ele>325.107</ele>
        <time>2015-03-21T11:51:35Z</time>
      </trkpt>
      <trkpt lat="39.825085" lon="-8.382516">
        <ele>326.021</ele>
        <time>2015-03-21T11:51:52Z</time>
      </trkpt>
      <trkpt lat="39.825470" lon="-8.382830">
        <ele>326.564</ele>
        <time>2015-03-21T11:52:08Z</time>
      </trkpt>
      <trkpt lat="39.825732" lon="-8.383036">
        <ele>325.146</ele>
        <time>2015-03-21T11:52:16Z</time>
      </trkpt>
      <trkpt lat="39.826248" lon="-8.383480">
        <ele>324.646</ele>
        <time>2015-03-21T11:52:33Z</time>
      </trkpt>
      <trkpt lat="39.826712" lon="-8.383799">
        <ele>323.694</ele>
        <time>2015-03-21T11:52:48Z</time>
      </trkpt>
      <trkpt lat="39.827092" lon="-8.383922">
        <ele>323.629</ele>
        <time>2015-03-21T11:53:01Z</time>
      </trkpt>
      <trkpt lat="39.827339" lon="-8.383940">
        <ele>325.586</ele>
        <time>2015-03-21T11:53:15Z</time>
      </trkpt>
      <trkpt lat="39.827571" lon="-8.383910">
        <ele>328.056</ele>
        <time>2015-03-21T11:53:31Z</time>
      </trkpt>
      <trkpt lat="39.827800" lon="-8.383931">
        <ele>331.359</ele>
        <time>2015-03-21T11:53:47Z</time>
      </trkpt>
      <trkpt lat="39.828034" lon="-8.383909">
        <ele>334.714</ele>
        <time>2015-03-21T11:54:05Z</time>
      </trkpt>
      <trkpt lat="39.828120" lon="-8.383857">
        <ele>335.607</ele>
        <time>2015-03-21T11:54:12Z</time>
      </trkpt>
      <trkpt lat="39.828317" lon="-8.383821">
        <ele>338.524</ele>
        <time>2015-03-21T11:54:28Z</time>
      </trkpt>
      <trkpt lat="39.828536" lon="-8.383798">
        <ele>340.947</ele>
        <time>2015-03-21T11:54:44Z</time>
      </trkpt>
      <trkpt lat="39.828762" lon="-8.383721">
        <ele>342.999</ele>
        <time>2015-03-21T11:55:00Z</time>
      </trkpt>
      <trkpt lat="39.829030" lon="-8.383665">
        <ele>343.879</ele>
        <time>2015-03-21T11:55:15Z</time>
      </trkpt>
      <trkpt lat="39.829391" lon="-8.383541">
        <ele>343.387</ele>
        <time>2015-03-21T11:55:32Z</time>
      </trkpt>
      <trkpt lat="39.829815" lon="-8.383418">
        <ele>344.372</ele>
        <time>2015-03-21T11:55:53Z</time>
      </trkpt>
      <trkpt lat="39.830134" lon="-8.383423">
        <ele>344.889</ele>
        <time>2015-03-21T11:56:09Z</time>
      </trkpt>
      <trkpt lat="39.830526" lon="-8.383427">
        <ele>346.254</ele>
        <time>2015-03-21T11:56:28Z</time>
      </trkpt>
      <trkpt lat="39.830909" lon="-8.383409">
        <ele>347.756</ele>
        <time>2015-03-21T11:56:46Z</time>
      </trkpt>
      <trkpt lat="39.831212" lon="-8.383508">
        <ele>347.711</ele>
        <time>2015-03-21T11:56:59Z</time>
      </trkpt>
      <trkpt lat="39.831319" lon="-8.383594">
        <ele>345.707</ele>
        <time>2015-03-21T11:57:02Z</time>
      </trkpt>
      <trkpt lat="39.831842" lon="-8.383745">
        <ele>341.964</ele>
        <time>2015-03-21T11:57:10Z</time>
      </trkpt>
      <trkpt lat="39.831993" lon="-8.383776">
        <ele>341.467</ele>
        <time>2015-03-21T11:57:12Z</time>
      </trkpt>
      <trkpt lat="39.832290" lon="-8.383746">
        <ele>340.449</ele>
        <time>2015-03-21T11:57:16Z</time>
      </trkpt>
      <trkpt lat="39.832439" lon="-8.383693">
        <ele>339.539</ele>
        <time>2015-03-21T11:57:18Z</time>
      </trkpt>
      <trkpt lat="39.832900" lon="-8.383975">
        <ele>338.097</ele>
        <time>2015-03-21T11:57:25Z</time>
      </trkpt>
      <trkpt lat="39.833103" lon="-8.384375">
        <ele>337.612</ele>
        <time>2015-03-21T11:57:30Z</time>
      </trkpt>
      <trkpt lat="39.833347" lon="-8.384675">
        <ele>336.189</ele>
        <time>2015-03-21T11:57:35Z</time>
      </trkpt>
      <trkpt lat="39.833775" lon="-8.384954">
        <ele>332.376</ele>
        <time>2015-03-21T11:57:41Z</time>
      </trkpt>
      <trkpt lat="39.834163" lon="-8.385259">
        <ele>329.490</ele>
        <time>2015-03-21T11:57:46Z</time>
      </trkpt>
      <trkpt lat="39.835023" lon="-8.385935">
        <ele>328.419</ele>
        <time>2015-03-21T11:57:59Z</time>
      </trkpt>
      <trkpt lat="39.835441" lon="-8.386194">
        <ele>329.407</ele>
        <time>2015-03-21T11:58:11Z</time>
      </trkpt>
      <trkpt lat="39.835903" lon="-8.386523">
        <ele>330.876</ele>
        <time>2015-03-21T11:58:28Z</time>
      </trkpt>
      <trkpt lat="39.836293" lon="-8.386695">
        <ele>332.359</ele>
        <time>2015-03-21T11:58:45Z</time>
      </trkpt>
      <trkpt lat="39.836640" lon="-8.386845">
        <ele>334.781</ele>
        <time>2015-03-21T11:59:03Z</time>
      </trkpt>
      <trkpt lat="39.837023" lon="-8.386953">
        <ele>336.661</ele>
        <time>2015-03-21T11:59:22Z</time>
      </trkpt>
      <trkpt lat="39.837408" lon="-8.386993">
        <ele>337.159</ele>
        <time>2015-03-21T11:59:37Z</time>
      </trkpt>
      <trkpt lat="39.838003" lon="-8.387232">
        <ele>337.184</ele>
        <time>2015-03-21T11:59:54Z</time>
      </trkpt>
      <trkpt lat="39.838309" lon="-8.387584">
        <ele>338.051</ele>
        <time>2015-03-21T12:00:10Z</time>
      </trkpt>
      <trkpt lat="39.838621" lon="-8.388011">
        <ele>340.022</ele>
        <time>2015-03-21T12:00:29Z</time>
      </trkpt>
      <trkpt lat="39.838805" lon="-8.388481">
        <ele>342.462</ele>
        <time>2015-03-21T12:00:47Z</time>
      </trkpt>
      <trkpt lat="39.838948" lon="-8.388960">
        <ele>343.808</ele>
        <time>2015-03-21T12:01:04Z</time>
      </trkpt>
      <trkpt lat="39.839162" lon="-8.389538">
        <ele>345.707</ele>
        <time>2015-03-21T12:01:24Z</time>
      </trkpt>
      <trkpt lat="39.839447" lon="-8.389949">
        <ele>346.731</ele>
        <time>2015-03-21T12:01:41Z</time>
      </trkpt>
      <trkpt lat="39.839776" lon="-8.390376">
        <ele>347.224</ele>
        <time>2015-03-21T12:02:00Z</time>
      </trkpt>
      <trkpt lat="39.840012" lon="-8.390721">
        <ele>348.186</ele>
        <time>2015-03-21T12:02:15Z</time>
      </trkpt>
      <trkpt lat="39.840291" lon="-8.391029">
        <ele>349.136</ele>
        <time>2015-03-21T12:02:30Z</time>
      </trkpt>
      <trkpt lat="39.840558" lon="-8.391338">
        <ele>351.074</ele>
        <time>2015-03-21T12:02:47Z</time>
      </trkpt>
      <trkpt lat="39.840858" lon="-8.391598">
        <ele>352.519</ele>
        <time>2015-03-21T12:03:05Z</time>
      </trkpt>
      <trkpt lat="39.841158" lon="-8.391889">
        <ele>354.986</ele>
        <time>2015-03-21T12:03:24Z</time>
      </trkpt>
      <trkpt lat="39.841379" lon="-8.392137">
        <ele>356.823</ele>
        <time>2015-03-21T12:03:40Z</time>
      </trkpt>
      <trkpt lat="39.841623" lon="-8.392388">
        <ele>359.283</ele>
        <time>2015-03-21T12:03:58Z</time>
      </trkpt>
      <trkpt lat="39.841812" lon="-8.392614">
        <ele>361.611</ele>
        <time>2015-03-21T12:04:14Z</time>
      </trkpt>
      <trkpt lat="39.841849" lon="-8.392673">
        <ele>362.107</ele>
        <time>2015-03-21T12:04:18Z</time>
      </trkpt>
      <trkpt lat="39.842104" lon="-8.392845">
        <ele>365.061</ele>
        <time>2015-03-21T12:04:37Z</time>
      </trkpt>
      <trkpt lat="39.842372" lon="-8.392921">
        <ele>367.474</ele>
        <time>2015-03-21T12:04:55Z</time>
      </trkpt>
      <trkpt lat="39.842670" lon="-8.392839">
        <ele>369.866</ele>
        <time>2015-03-21T12:05:13Z</time>
      </trkpt>
      <trkpt lat="39.843038" lon="-8.392742">
        <ele>371.296</ele>
        <time>2015-03-21T12:05:34Z</time>
      </trkpt>
      <trkpt lat="39.843265" lon="-8.392969">
        <ele>373.174</ele>
        <time>2015-03-21T12:05:52Z</time>
      </trkpt>
      <trkpt lat="39.843432" lon="-8.393178">
        <ele>375.169</ele>
        <time>2015-03-21T12:06:06Z</time>
      </trkpt>
      <trkpt lat="39.843645" lon="-8.393438">
        <ele>377.026</ele>
        <time>2015-03-21T12:06:24Z</time>
      </trkpt>
      <trkpt lat="39.843904" lon="-8.393656">
        <ele>380.353</ele>
        <time>2015-03-21T12:06:44Z</time>
      </trkpt>
      <trkpt lat="39.844175" lon="-8.393747">
        <ele>382.704</ele>
        <time>2015-03-21T12:07:03Z</time>
      </trkpt>
      <trkpt lat="39.844428" lon="-8.393925">
        <ele>386.114</ele>
        <time>2015-03-21T12:07:23Z</time>
      </trkpt>
      <trkpt lat="39.844677" lon="-8.394019">
        <ele>388.507</ele>
        <time>2015-03-21T12:07:41Z</time>
      </trkpt>
      <trkpt lat="39.844911" lon="-8.394153">
        <ele>391.444</ele>
        <time>2015-03-21T12:07:59Z</time>
      </trkpt>
      <trkpt lat="39.845133" lon="-8.394279">
        <ele>393.867</ele>
        <time>2015-03-21T12:08:16Z</time>
      </trkpt>
      <trkpt lat="39.845350" lon="-8.394358">
        <ele>396.769</ele>
        <time>2015-03-21T12:08:32Z</time>
      </trkpt>
      <trkpt lat="39.845600" lon="-8.394439">
        <ele>399.179</ele>
        <time>2015-03-21T12:08:49Z</time>
      </trkpt>
      <trkpt lat="39.845712" lon="-8.394485">
        <ele>400.187</ele>
        <time>2015-03-21T12:08:57Z</time>
      </trkpt>
      <trkpt lat="39.845977" lon="-8.394572">
        <ele>402.962</ele>
        <time>2015-03-21T12:09:16Z</time>
      </trkpt>
      <trkpt lat="39.846291" lon="-8.394774">
        <ele>404.979</ele>
        <time>2015-03-21T12:09:37Z</time>
      </trkpt>
      <trkpt lat="39.846520" lon="-8.394967">
        <ele>405.322</ele>
        <time>2015-03-21T12:09:53Z</time>
      </trkpt>
      <trkpt lat="39.846723" lon="-8.395121">
        <ele>406.862</ele>
        <time>2015-03-21T12:10:07Z</time>
      </trkpt>
      <trkpt lat="39.846884" lon="-8.395331">
        <ele>409.208</ele>
        <time>2015-03-21T12:10:23Z</time>
      </trkpt>
      <trkpt lat="39.846999" lon="-8.395705">
        <ele>413.007</ele>
        <time>2015-03-21T12:10:44Z</time>
      </trkpt>
      <trkpt lat="39.847088" lon="-8.396041">
        <ele>415.051</ele>
        <time>2015-03-21T12:11:01Z</time>
      </trkpt>
      <trkpt lat="39.847271" lon="-8.396381">
        <ele>415.974</ele>
        <time>2015-03-21T12:11:20Z</time>
      </trkpt>
      <trkpt lat="39.847448" lon="-8.396704">
        <ele>417.816</ele>
        <time>2015-03-21T12:11:40Z</time>
      </trkpt>
      <trkpt lat="39.847559" lon="-8.397045">
        <ele>421.286</ele>
        <time>2015-03-21T12:11:59Z</time>
      </trkpt>
      <trkpt lat="39.847690" lon="-8.397248">
        <ele>423.634</ele>
        <time>2015-03-21T12:12:14Z</time>
      </trkpt>
      <trkpt lat="39.847867" lon="-8.397354">
        <ele>427.089</ele>
        <time>2015-03-21T12:12:28Z</time>
      </trkpt>
      <trkpt lat="39.848033" lon="-8.397495">
        <ele>429.936</ele>
        <time>2015-03-21T12:12:43Z</time>
      </trkpt>
      <trkpt lat="39.848138" lon="-8.397528">
        <ele>431.334</ele>
        <time>2015-03-21T12:12:51Z</time>
      </trkpt>
      <trkpt lat="39.848324" lon="-8.397705">
        <ele>434.255</ele>
        <time>2015-03-21T12:13:08Z</time>
      </trkpt>
      <trkpt lat="39.848346" lon="-8.397821">
        <ele>434.710</ele>
        <time>2015-03-21T12:13:15Z</time>
      </trkpt>
      <trkpt lat="39.848300" lon="-8.398164">
        <ele>436.607</ele>
        <time>2015-03-21T12:13:32Z</time>
      </trkpt>
      <trkpt lat="39.848261" lon="-8.398283">
        <ele>437.532</ele>
        <time>2015-03-21T12:13:38Z</time>
      </trkpt>
      <trkpt lat="39.848162" lon="-8.398616">
        <ele>439.035</ele>
        <time>2015-03-21T12:13:55Z</time>
      </trkpt>
      <trkpt lat="39.847982" lon="-8.398881">
        <ele>441.477</ele>
        <time>2015-03-21T12:14:12Z</time>
      </trkpt>
      <trkpt lat="39.847770" lon="-8.399113">
        <ele>443.827</ele>
        <time>2015-03-21T12:14:30Z</time>
      </trkpt>
      <trkpt lat="39.847624" lon="-8.399381">
        <ele>445.725</ele>
        <time>2015-03-21T12:14:45Z</time>
      </trkpt>
      <trkpt lat="39.847676" lon="-8.399662">
        <ele>445.710</ele>
        <time>2015-03-21T12:14:58Z</time>
      </trkpt>
      <trkpt lat="39.847964" lon="-8.399885">
        <ele>446.747</ele>
        <time>2015-03-21T12:15:15Z</time>
      </trkpt>
      <trkpt lat="39.848195" lon="-8.400038">
        <ele>447.682</ele>
        <time>2015-03-21T12:15:28Z</time>
      </trkpt>
      <trkpt lat="39.848438" lon="-8.400179">
        <ele>448.143</ele>
        <time>2015-03-21T12:15:42Z</time>
      </trkpt>
      <trkpt lat="39.848730" lon="-8.400332">
        <ele>449.617</ele>
        <time>2015-03-21T12:15:57Z</time>
      </trkpt>
      <trkpt lat="39.848952" lon="-8.400526">
        <ele>452.007</ele>
        <time>2015-03-21T12:16:12Z</time>
      </trkpt>
      <trkpt lat="39.849024" lon="-8.400889">
        <ele>454.427</ele>
        <time>2015-03-21T12:16:31Z</time>
      </trkpt>
      <trkpt lat="39.849016" lon="-8.401183">
        <ele>456.330</ele>
        <time>2015-03-21T12:16:45Z</time>
      </trkpt>
      <trkpt lat="39.848939" lon="-8.401510">
        <ele>457.712</ele>
        <time>2015-03-21T12:17:01Z</time>
      </trkpt>
      <trkpt lat="39.848949" lon="-8.401682">
        <ele>458.232</ele>
        <time>2015-03-21T12:17:08Z</time>
      </trkpt>
      <trkpt lat="39.848956" lon="-8.401882">
        <ele>458.710</ele>
        <time>2015-03-21T12:17:17Z</time>
      </trkpt>
      <trkpt lat="39.849044" lon="-8.402141">
        <ele>459.765</ele>
        <time>2015-03-21T12:17:29Z</time>
      </trkpt>
      <trkpt lat="39.849127" lon="-8.402178">
        <ele>460.132</ele>
        <time>2015-03-21T12:17:34Z</time>
      </trkpt>
      <trkpt lat="39.849461" lon="-8.402072">
        <ele>461.633</ele>
        <time>2015-03-21T12:17:52Z</time>
      </trkpt>
      <trkpt lat="39.849725" lon="-8.401943">
        <ele>462.523</ele>
        <time>2015-03-21T12:18:07Z</time>
      </trkpt>
      <trkpt lat="39.849998" lon="-8.401832">
        <ele>463.515</ele>
        <time>2015-03-21T12:18:22Z</time>
      </trkpt>
      <trkpt lat="39.850320" lon="-8.401824">
        <ele>464.007</ele>
        <time>2015-03-21T12:18:39Z</time>
      </trkpt>
      <trkpt lat="39.850608" lon="-8.401729">
        <ele>466.452</ele>
        <time>2015-03-21T12:18:55Z</time>
      </trkpt>
      <trkpt lat="39.850862" lon="-8.401739">
        <ele>468.325</ele>
        <time>2015-03-21T12:19:11Z</time>
      </trkpt>
      <trkpt lat="39.851010" lon="-8.401940">
        <ele>470.217</ele>
        <time>2015-03-21T12:19:25Z</time>
      </trkpt>
      <trkpt lat="39.851174" lon="-8.402249">
        <ele>473.187</ele>
        <time>2015-03-21T12:19:44Z</time>
      </trkpt>
      <trkpt lat="39.851293" lon="-8.402512">
        <ele>476.035</ele>
        <time>2015-03-21T12:20:00Z</time>
      </trkpt>
      <trkpt lat="39.851446" lon="-8.402733">
        <ele>478.910</ele>
        <time>2015-03-21T12:20:15Z</time>
      </trkpt>
      <trkpt lat="39.851608" lon="-8.402959">
        <ele>481.397</ele>
        <time>2015-03-21T12:20:31Z</time>
      </trkpt>
      <trkpt lat="39.851880" lon="-8.403223">
        <ele>482.255</ele>
        <time>2015-03-21T12:20:47Z</time>
      </trkpt>
      <trkpt lat="39.852085" lon="-8.403410">
        <ele>480.307</ele>
        <time>2015-03-21T12:20:54Z</time>
      </trkpt>
      <trkpt lat="39.852527" lon="-8.403614">
        <ele>477.017</ele>
        <time>2015-03-21T12:21:02Z</time>
      </trkpt>
      <trkpt lat="39.852795" lon="-8.403837">
        <ele>473.607</ele>
        <time>2015-03-21T12:21:06Z</time>
      </trkpt>
      <trkpt lat="39.853217" lon="-8.404168">
        <ele>466.934</ele>
        <time>2015-03-21T12:21:11Z</time>
      </trkpt>
      <trkpt lat="39.853537" lon="-8.404311">
        <ele>463.577</ele>
        <time>2015-03-21T12:21:14Z</time>
      </trkpt>
      <trkpt lat="39.854173" lon="-8.404682">
        <ele>460.129</ele>
        <time>2015-03-21T12:21:20Z</time>
      </trkpt>
      <trkpt lat="39.855121" lon="-8.405424">
        <ele>458.269</ele>
        <time>2015-03-21T12:21:32Z</time>
      </trkpt>
      <trkpt lat="39.855695" lon="-8.405904">
        <ele>457.787</ele>
        <time>2015-03-21T12:21:42Z</time>
      </trkpt>
      <trkpt lat="39.855858" lon="-8.406131">
        <ele>457.742</ele>
        <time>2015-03-21T12:21:47Z</time>
      </trkpt>
      <trkpt lat="39.855967" lon="-8.406506">
        <ele>457.779</ele>
        <time>2015-03-21T12:21:58Z</time>
      </trkpt>
      <trkpt lat="39.855985" lon="-8.406584">
        <ele>457.748</ele>
        <time>2015-03-21T12:22:34Z</time>
      </trkpt>
      <trkpt lat="39.856034" lon="-8.406846">
        <ele>458.761</ele>
        <time>2015-03-21T12:22:43Z</time>
      </trkpt>
      <trkpt lat="39.856084" lon="-8.407425">
        <ele>460.117</ele>
        <time>2015-03-21T12:23:01Z</time>
      </trkpt>
      <trkpt lat="39.856130" lon="-8.408136">
        <ele>461.607</ele>
        <time>2015-03-21T12:23:22Z</time>
      </trkpt>
      <trkpt lat="39.856234" lon="-8.408882">
        <ele>459.743</ele>
        <time>2015-03-21T12:23:36Z</time>
      </trkpt>
      <trkpt lat="39.856294" lon="-8.409375">
        <ele>457.776</ele>
        <time>2015-03-21T12:23:42Z</time>
      </trkpt>
      <trkpt lat="39.856420" lon="-8.409748">
        <ele>455.848</ele>
        <time>2015-03-21T12:23:46Z</time>
      </trkpt>
      <trkpt lat="39.856853" lon="-8.410466">
        <ele>452.058</ele>
        <time>2015-03-21T12:23:54Z</time>
      </trkpt>
      <trkpt lat="39.857164" lon="-8.410968">
        <ele>449.136</ele>
        <time>2015-03-21T12:23:59Z</time>
      </trkpt>
      <trkpt lat="39.857367" lon="-8.411297">
        <ele>445.791</ele>
        <time>2015-03-21T12:24:02Z</time>
      </trkpt>
      <trkpt lat="39.857495" lon="-8.411501">
        <ele>443.338</ele>
        <time>2015-03-21T12:24:04Z</time>
      </trkpt>
      <trkpt lat="39.857652" lon="-8.411952">
        <ele>439.037</ele>
        <time>2015-03-21T12:24:08Z</time>
      </trkpt>
      <trkpt lat="39.857726" lon="-8.412366">
        <ele>435.149</ele>
        <time>2015-03-21T12:24:11Z</time>
      </trkpt>
      <trkpt lat="39.857826" lon="-8.412800">
        <ele>431.813</ele>
        <time>2015-03-21T12:24:14Z</time>
      </trkpt>
      <trkpt lat="39.857907" lon="-8.413101">
        <ele>428.907</ele>
        <time>2015-03-21T12:24:16Z</time>
      </trkpt>
      <trkpt lat="39.858038" lon="-8.413579">
        <ele>425.042</ele>
        <time>2015-03-21T12:24:19Z</time>
      </trkpt>
      <trkpt lat="39.858163" lon="-8.414013">
        <ele>421.745</ele>
        <time>2015-03-21T12:24:22Z</time>
      </trkpt>
      <trkpt lat="39.858318" lon="-8.414453">
        <ele>418.367</ele>
        <time>2015-03-21T12:24:26Z</time>
      </trkpt>
      <trkpt lat="39.858436" lon="-8.414783">
        <ele>415.057</ele>
        <time>2015-03-21T12:24:31Z</time>
      </trkpt>
      <trkpt lat="39.858511" lon="-8.414989">
        <ele>413.545</ele>
        <time>2015-03-21T12:24:37Z</time>
      </trkpt>
      <trkpt lat="39.858575" lon="-8.415154">
        <ele>412.120</ele>
        <time>2015-03-21T12:24:40Z</time>
      </trkpt>
      <trkpt lat="39.858759" lon="-8.415637">
        <ele>408.747</ele>
        <time>2015-03-21T12:24:46Z</time>
      </trkpt>
      <trkpt lat="39.858823" lon="-8.415808">
        <ele>407.719</ele>
        <time>2015-03-21T12:24:48Z</time>
      </trkpt>
      <trkpt lat="39.859005" lon="-8.416117">
        <ele>405.309</ele>
        <time>2015-03-21T12:24:52Z</time>
      </trkpt>
      <trkpt lat="39.859223" lon="-8.416306">
        <ele>402.519</ele>
        <time>2015-03-21T12:24:56Z</time>
      </trkpt>
      <trkpt lat="39.859439" lon="-8.416171">
        <ele>400.107</ele>
        <time>2015-03-21T12:25:04Z</time>
      </trkpt>
      <trkpt lat="39.859445" lon="-8.415933">
        <ele>399.130</ele>
        <time>2015-03-21T12:25:08Z</time>
      </trkpt>
      <trkpt lat="39.859459" lon="-8.415793">
        <ele>398.193</ele>
        <time>2015-03-21T12:25:10Z</time>
      </trkpt>
      <trkpt lat="39.859580" lon="-8.415524">
        <ele>396.295</ele>
        <time>2015-03-21T12:25:14Z</time>
      </trkpt>
      <trkpt lat="39.859811" lon="-8.415528">
        <ele>395.215</ele>
        <time>2015-03-21T12:25:18Z</time>
      </trkpt>
      <trkpt lat="39.860653" lon="-8.415981">
        <ele>392.483</ele>
        <time>2015-03-21T12:25:31Z</time>
      </trkpt>
      <trkpt lat="39.861096" lon="-8.416044">
        <ele>392.498</ele>
        <time>2015-03-21T12:25:41Z</time>
      </trkpt>
      <trkpt lat="39.861459" lon="-8.416054">
        <ele>392.445</ele>
        <time>2015-03-21T12:25:49Z</time>
      </trkpt>
      <trkpt lat="39.861649" lon="-8.416119">
        <ele>391.493</ele>
        <time>2015-03-21T12:25:53Z</time>
      </trkpt>
      <trkpt lat="39.861753" lon="-8.416190">
        <ele>390.465</ele>
        <time>2015-03-21T12:25:55Z</time>
      </trkpt>
      <trkpt lat="39.862007" lon="-8.416399">
        <ele>387.121</ele>
        <time>2015-03-21T12:25:59Z</time>
      </trkpt>
      <trkpt lat="39.862160" lon="-8.416504">
        <ele>386.107</ele>
        <time>2015-03-21T12:26:01Z</time>
      </trkpt>
      <trkpt lat="39.862364" lon="-8.416627">
        <ele>383.278</ele>
        <time>2015-03-21T12:26:04Z</time>
      </trkpt>
      <trkpt lat="39.862560" lon="-8.416831">
        <ele>380.361</ele>
        <time>2015-03-21T12:26:08Z</time>
      </trkpt>
      <trkpt lat="39.862599" lon="-8.416896">
        <ele>379.483</ele>
        <time>2015-03-21T12:26:09Z</time>
      </trkpt>
      <trkpt lat="39.862758" lon="-8.417161">
        <ele>375.543</ele>
        <time>2015-03-21T12:26:13Z</time>
      </trkpt>
      <trkpt lat="39.862840" lon="-8.417291">
        <ele>373.681</ele>
        <time>2015-03-21T12:26:15Z</time>
      </trkpt>
      <trkpt lat="39.863137" lon="-8.417484">
        <ele>369.866</ele>
        <time>2015-03-21T12:26:20Z</time>
      </trkpt>
      <trkpt lat="39.863277" lon="-8.417514">
        <ele>368.313</ele>
        <time>2015-03-21T12:26:22Z</time>
      </trkpt>
      <trkpt lat="39.863562" lon="-8.417704">
        <ele>365.093</ele>
        <time>2015-03-21T12:26:26Z</time>
      </trkpt>
      <trkpt lat="39.863893" lon="-8.417926">
        <ele>362.665</ele>
        <time>2015-03-21T12:26:30Z</time>
      </trkpt>
      <trkpt lat="39.864630" lon="-8.418240">
        <ele>359.221</ele>
        <time>2015-03-21T12:26:38Z</time>
      </trkpt>
      <trkpt lat="39.865550" lon="-8.418680">
        <ele>358.207</ele>
        <time>2015-03-21T12:26:50Z</time>
      </trkpt>
      <trkpt lat="39.865882" lon="-8.418898">
        <ele>358.288</ele>
        <time>2015-03-21T12:26:56Z</time>
      </trkpt>
      <trkpt lat="39.866431" lon="-8.419369">
        <ele>358.241</ele>
        <time>2015-03-21T12:27:11Z</time>
      </trkpt>
      <trkpt lat="39.866647" lon="-8.419613">
        <ele>356.353</ele>
        <time>2015-03-21T12:27:17Z</time>
      </trkpt>
      <trkpt lat="39.866766" lon="-8.419720">
        <ele>356.383</ele>
        <time>2015-03-21T12:27:20Z</time>
      </trkpt>
      <trkpt lat="39.867273" lon="-8.419860">
        <ele>355.361</ele>
        <time>2015-03-21T12:27:33Z</time>
      </trkpt>
      <trkpt lat="39.867804" lon="-8.420002">
        <ele>354.956</ele>
        <time>2015-03-21T12:27:46Z</time>
      </trkpt>
      <trkpt lat="39.868588" lon="-8.420279">
        <ele>354.943</ele>
        <time>2015-03-21T12:28:05Z</time>
      </trkpt>
      <trkpt lat="39.869023" lon="-8.420464">
        <ele>354.992</ele>
        <time>2015-03-21T12:28:18Z</time>
      </trkpt>
      <trkpt lat="39.869508" lon="-8.421022">
        <ele>351.573</ele>
        <time>2015-03-21T12:28:29Z</time>
      </trkpt>
      <trkpt lat="39.869605" lon="-8.421150">
        <ele>351.020</ele>
        <time>2015-03-21T12:28:31Z</time>
      </trkpt>
      <trkpt lat="39.869641" lon="-8.421199">
        <ele>350.107</ele>
        <time>2015-03-21T12:28:32Z</time>
      </trkpt>
      <trkpt lat="39.869889" lon="-8.421349">
        <ele>348.178</ele>
        <time>2015-03-21T12:28:38Z</time>
      </trkpt>
      <trkpt lat="39.870212" lon="-8.421352">
        <ele>347.231</ele>
        <time>2015-03-21T12:28:44Z</time>
      </trkpt>
      <trkpt lat="39.871036" lon="-8.421421">
        <ele>345.763</ele>
        <time>2015-03-21T12:29:00Z</time>
      </trkpt>
      <trkpt lat="39.871216" lon="-8.421364">
        <ele>345.743</ele>
        <time>2015-03-21T12:29:04Z</time>
      </trkpt>
      <trkpt lat="39.871361" lon="-8.421364">
        <ele>345.331</ele>
        <time>2015-03-21T12:29:07Z</time>
      </trkpt>
      <trkpt lat="39.871590" lon="-8.421437">
        <ele>342.976</ele>
        <time>2015-03-21T12:29:11Z</time>
      </trkpt>
      <trkpt lat="39.871876" lon="-8.421457">
        <ele>341.923</ele>
        <time>2015-03-21T12:29:15Z</time>
      </trkpt>
      <trkpt lat="39.872713" lon="-8.421306">
        <ele>338.557</ele>
        <time>2015-03-21T12:29:27Z</time>
      </trkpt>
      <trkpt lat="39.873600" lon="-8.421316">
        <ele>336.100</ele>
        <time>2015-03-21T12:29:39Z</time>
      </trkpt>
      <trkpt lat="39.874256" lon="-8.421268">
        <ele>336.120</ele>
        <time>2015-03-21T12:29:52Z</time>
      </trkpt>
      <trkpt lat="39.874733" lon="-8.421279">
        <ele>339.007</ele>
        <time>2015-03-21T12:30:07Z</time>
      </trkpt>
      <trkpt lat="39.875029" lon="-8.421272">
        <ele>337.664</ele>
        <time>2015-03-21T12:30:14Z</time>
      </trkpt>
      <trkpt lat="39.875199" lon="-8.421269">
        <ele>337.127</ele>
        <time>2015-03-21T12:30:17Z</time>
      </trkpt>
      <trkpt lat="39.875915" lon="-8.421417">
        <ele>335.669</ele>
        <time>2015-03-21T12:30:31Z</time>
      </trkpt>
      <trkpt lat="39.876537" lon="-8.421464">
        <ele>335.649</ele>
        <time>2015-03-21T12:30:46Z</time>
      </trkpt>
      <trkpt lat="39.876814" lon="-8.421418">
        <ele>335.637</ele>
        <time>2015-03-21T12:30:57Z</time>
      </trkpt>
      <trkpt lat="39.877081" lon="-8.421374">
        <ele>337.122</ele>
        <time>2015-03-21T12:31:10Z</time>
      </trkpt>
      <trkpt lat="39.877163" lon="-8.421382">
        <ele>337.139</ele>
        <time>2015-03-21T12:31:36Z</time>
      </trkpt>
      <trkpt lat="39.877368" lon="-8.421387">
        <ele>337.627</ele>
        <time>2015-03-21T12:31:48Z</time>
      </trkpt>
      <trkpt lat="39.877518" lon="-8.421345">
        <ele>338.568</ele>
        <time>2015-03-21T12:31:59Z</time>
      </trkpt>
      <trkpt lat="39.877740" lon="-8.421352">
        <ele>340.014</ele>
        <time>2015-03-21T12:32:13Z</time>
      </trkpt>
      <trkpt lat="39.877870" lon="-8.421378">
        <ele>340.007</ele>
        <time>2015-03-21T12:32:21Z</time>
      </trkpt>
      <trkpt lat="39.878090" lon="-8.421408">
        <ele>341.451</ele>
        <time>2015-03-21T12:32:34Z</time>
      </trkpt>
      <trkpt lat="39.878411" lon="-8.421401">
        <ele>340.934</ele>
        <time>2015-03-21T12:32:48Z</time>
      </trkpt>
      <trkpt lat="39.878791" lon="-8.421441">
        <ele>340.976</ele>
        <time>2015-03-21T12:33:03Z</time>
      </trkpt>
      <trkpt lat="39.879064" lon="-8.421465">
        <ele>341.436</ele>
        <time>2015-03-21T12:33:17Z</time>
      </trkpt>
      <trkpt lat="39.879141" lon="-8.421475">
        <ele>341.964</ele>
        <time>2015-03-21T12:33:40Z</time>
      </trkpt>
      <trkpt lat="39.879435" lon="-8.421540">
        <ele>342.939</ele>
        <time>2015-03-21T12:33:54Z</time>
      </trkpt>
      <trkpt lat="39.879700" lon="-8.421542">
        <ele>344.376</ele>
        <time>2015-03-21T12:34:07Z</time>
      </trkpt>
      <trkpt lat="39.879827" lon="-8.421557">
        <ele>344.819</ele>
        <time>2015-03-21T12:34:13Z</time>
      </trkpt>
      <trkpt lat="39.879949" lon="-8.421566">
        <ele>345.709</ele>
        <time>2015-03-21T12:34:21Z</time>
      </trkpt>
      <trkpt lat="39.880255" lon="-8.421655">
        <ele>347.719</ele>
        <time>2015-03-21T12:34:36Z</time>
      </trkpt>
      <trkpt lat="39.880616" lon="-8.421733">
        <ele>350.507</ele>
        <time>2015-03-21T12:34:52Z</time>
      </trkpt>
      <trkpt lat="39.881163" lon="-8.421795">
        <ele>352.530</ele>
        <time>2015-03-21T12:35:15Z</time>
      </trkpt>
      <trkpt lat="39.881763" lon="-8.421843">
        <ele>352.933</ele>
        <time>2015-03-21T12:35:38Z</time>
      </trkpt>
      <trkpt lat="39.881971" lon="-8.422130">
        <ele>352.045</ele>
        <time>2015-03-21T12:35:49Z</time>
      </trkpt>
      <trkpt lat="39.882227" lon="-8.422130">
        <ele>352.025</ele>
        <time>2015-03-21T12:36:02Z</time>
      </trkpt>
      <trkpt lat="39.882500" lon="-8.422092">
        <ele>352.053</ele>
        <time>2015-03-21T12:36:15Z</time>
      </trkpt>
      <trkpt lat="39.882829" lon="-8.422096">
        <ele>352.048</ele>
        <time>2015-03-21T12:36:29Z</time>
      </trkpt>
      <trkpt lat="39.883184" lon="-8.422185">
        <ele>352.065</ele>
        <time>2015-03-21T12:36:43Z</time>
      </trkpt>
      <trkpt lat="39.883547" lon="-8.422451">
        <ele>349.644</ele>
        <time>2015-03-21T12:36:58Z</time>
      </trkpt>
      <trkpt lat="39.883719" lon="-8.422603">
        <ele>346.205</ele>
        <time>2015-03-21T12:37:06Z</time>
      </trkpt>
      <trkpt lat="39.884047" lon="-8.422760">
        <ele>343.815</ele>
        <time>2015-03-21T12:37:18Z</time>
      </trkpt>
      <trkpt lat="39.884290" lon="-8.422830">
        <ele>342.407</ele>
        <time>2015-03-21T12:37:47Z</time>
      </trkpt>
      <trkpt lat="39.884604" lon="-8.422901">
        <ele>341.443</ele>
        <time>2015-03-21T12:37:58Z</time>
      </trkpt>
      <trkpt lat="39.884883" lon="-8.423112">
        <ele>339.546</ele>
        <time>2015-03-21T12:38:10Z</time>
      </trkpt>
      <trkpt lat="39.885096" lon="-8.423175">
        <ele>338.538</ele>
        <time>2015-03-21T12:38:17Z</time>
      </trkpt>
      <trkpt lat="39.885359" lon="-8.423584">
        <ele>335.698</ele>
        <time>2015-03-21T12:38:29Z</time>
      </trkpt>
      <trkpt lat="39.885581" lon="-8.423985">
        <ele>333.236</ele>
        <time>2015-03-21T12:38:40Z</time>
      </trkpt>
      <trkpt lat="39.885632" lon="-8.423897">
        <ele>333.791</ele>
        <time>2015-03-21T12:38:50Z</time>
      </trkpt>
      <trkpt lat="39.885687" lon="-8.423865">
        <ele>335.288</ele>
        <time>2015-03-21T12:38:56Z</time>
      </trkpt>
      <trkpt lat="39.885814" lon="-8.423807">
        <ele>336.157</ele>
        <time>2015-03-21T12:39:09Z</time>
      </trkpt>
      <trkpt lat="39.886024" lon="-8.423733">
        <ele>338.500</ele>
        <time>2015-03-21T12:39:21Z</time>
      </trkpt>
      <trkpt lat="39.886270" lon="-8.423595">
        <ele>339.520</ele>
        <time>2015-03-21T12:39:35Z</time>
      </trkpt>
      <trkpt lat="39.886293" lon="-8.423329">
        <ele>341.907</ele>
        <time>2015-03-21T12:39:48Z</time>
      </trkpt>
      <trkpt lat="39.886333" lon="-8.423193">
        <ele>343.394</ele>
        <time>2015-03-21T12:39:55Z</time>
      </trkpt>
      <trkpt lat="39.886512" lon="-8.422816">
        <ele>344.397</ele>
        <time>2015-03-21T12:40:12Z</time>
      </trkpt>
      <trkpt lat="39.886606" lon="-8.422726">
        <ele>344.839</ele>
        <time>2015-03-21T12:40:18Z</time>
      </trkpt>
      <trkpt lat="39.886636" lon="-8.422523">
        <ele>344.859</ele>
        <time>2015-03-21T12:40:23Z</time>
      </trkpt>
      <trkpt lat="39.886645" lon="-8.422157">
        <ele>344.857</ele>
        <time>2015-03-21T12:40:35Z</time>
      </trkpt>
      <trkpt lat="39.886885" lon="-8.421828">
        <ele>344.822</ele>
        <time>2015-03-21T12:40:46Z</time>
      </trkpt>
      <trkpt lat="39.887178" lon="-8.421641">
        <ele>345.749</ele>
        <time>2015-03-21T12:41:01Z</time>
      </trkpt>
      <trkpt lat="39.887304" lon="-8.421580">
        <ele>346.273</ele>
        <time>2015-03-21T12:41:08Z</time>
      </trkpt>
      <trkpt lat="39.887485" lon="-8.421254">
        <ele>346.785</ele>
        <time>2015-03-21T12:41:22Z</time>
      </trkpt>
      <trkpt lat="39.887701" lon="-8.420939">
        <ele>348.113</ele>
        <time>2015-03-21T12:41:38Z</time>
      </trkpt>
      <trkpt lat="39.887850" lon="-8.420762">
        <ele>349.607</ele>
        <time>2015-03-21T12:41:50Z</time>
      </trkpt>
      <trkpt lat="39.887931" lon="-8.420713">
        <ele>350.186</ele>
        <time>2015-03-21T12:41:55Z</time>
      </trkpt>
      <trkpt lat="39.888158" lon="-8.420408">
        <ele>350.179</ele>
        <time>2015-03-21T12:42:08Z</time>
      </trkpt>
      <trkpt lat="39.888325" lon="-8.420243">
        <ele>351.531</ele>
        <time>2015-03-21T12:42:20Z</time>
      </trkpt>
      <trkpt lat="39.888378" lon="-8.420212">
        <ele>352.081</ele>
        <time>2015-03-21T12:42:23Z</time>
      </trkpt>
      <trkpt lat="39.888429" lon="-8.420145">
        <ele>352.599</ele>
        <time>2015-03-21T12:42:27Z</time>
      </trkpt>
      <trkpt lat="39.888545" lon="-8.419981">
        <ele>353.474</ele>
        <time>2015-03-21T12:42:36Z</time>
      </trkpt>
      <trkpt lat="39.888648" lon="-8.419907">
        <ele>353.991</ele>
        <time>2015-03-21T12:42:43Z</time>
      </trkpt>
      <trkpt lat="39.888863" lon="-8.419669">
        <ele>356.366</ele>
        <time>2015-03-21T12:43:00Z</time>
      </trkpt>
      <trkpt lat="39.888966" lon="-8.419533">
        <ele>357.829</ele>
        <time>2015-03-21T12:43:10Z</time>
      </trkpt>
      <trkpt lat="39.889150" lon="-8.419476">
        <ele>360.621</ele>
        <time>2015-03-21T12:43:24Z</time>
      </trkpt>
      <trkpt lat="39.889482" lon="-8.419620">
        <ele>361.107</ele>
        <time>2015-03-21T12:43:42Z</time>
      </trkpt>
      <trkpt lat="39.889735" lon="-8.419716">
        <ele>362.145</ele>
        <time>2015-03-21T12:43:55Z</time>
      </trkpt>
      <trkpt lat="39.889990" lon="-8.419686">
        <ele>363.068</ele>
        <time>2015-03-21T12:44:07Z</time>
      </trkpt>
      <trkpt lat="39.890043" lon="-8.419766">
        <ele>363.090</ele>
        <time>2015-03-21T12:44:11Z</time>
      </trkpt>
      <trkpt lat="39.890158" lon="-8.420269">
        <ele>363.560</ele>
        <time>2015-03-21T12:44:30Z</time>
      </trkpt>
      <trkpt lat="39.890373" lon="-8.420606">
        <ele>364.048</ele>
        <time>2015-03-21T12:44:44Z</time>
      </trkpt>
      <trkpt lat="39.890598" lon="-8.420860">
        <ele>363.083</ele>
        <time>2015-03-21T12:44:55Z</time>
      </trkpt>
      <trkpt lat="39.890735" lon="-8.420872">
        <ele>359.280</ele>
        <time>2015-03-21T12:45:01Z</time>
      </trkpt>
      <trkpt lat="39.890787" lon="-8.420867">
        <ele>357.889</ele>
        <time>2015-03-21T12:45:16Z</time>
      </trkpt>
      <trkpt lat="39.890975" lon="-8.420950">
        <ele>354.406</ele>
        <time>2015-03-21T12:46:04Z</time>
      </trkpt>
      <trkpt lat="39.891157" lon="-8.421205">
        <ele>351.026</ele>
        <time>2015-03-21T12:46:11Z</time>
      </trkpt>
      <trkpt lat="39.891225" lon="-8.421332">
        <ele>348.607</ele>
        <time>2015-03-21T12:46:14Z</time>
      </trkpt>
      <trkpt lat="39.891417" lon="-8.421531">
        <ele>344.877</ele>
        <time>2015-03-21T12:46:19Z</time>
      </trkpt>
      <trkpt lat="39.891562" lon="-8.421635">
        <ele>341.470</ele>
        <time>2015-03-21T12:46:22Z</time>
      </trkpt>
      <trkpt lat="39.891662" lon="-8.421700">
        <ele>340.412</ele>
        <time>2015-03-21T12:46:24Z</time>
      </trkpt>
      <trkpt lat="39.891857" lon="-8.422009">
        <ele>336.642</ele>
        <time>2015-03-21T12:46:30Z</time>
      </trkpt>
      <trkpt lat="39.891891" lon="-8.422349">
        <ele>333.210</ele>
        <time>2015-03-21T12:46:36Z</time>
      </trkpt>
      <trkpt lat="39.891864" lon="-8.422478">
        <ele>331.315</ele>
        <time>2015-03-21T12:46:38Z</time>
      </trkpt>
      <trkpt lat="39.891844" lon="-8.422616">
        <ele>329.972</ele>
        <time>2015-03-21T12:46:40Z</time>
      </trkpt>
      <trkpt lat="39.891820" lon="-8.423079">
        <ele>325.532</ele>
        <time>2015-03-21T12:46:46Z</time>
      </trkpt>
      <trkpt lat="39.891805" lon="-8.423279">
        <ele>322.792</ele>
        <time>2015-03-21T12:46:50Z</time>
      </trkpt>
      <trkpt lat="39.891826" lon="-8.423408">
        <ele>320.311</ele>
        <time>2015-03-21T12:46:53Z</time>
      </trkpt>
      <trkpt lat="39.891964" lon="-8.423573">
        <ele>317.407</ele>
        <time>2015-03-21T12:46:57Z</time>
      </trkpt>
      <trkpt lat="39.892235" lon="-8.423745">
        <ele>313.112</ele>
        <time>2015-03-21T12:47:02Z</time>
      </trkpt>
      <trkpt lat="39.892433" lon="-8.423744">
        <ele>312.115</ele>
        <time>2015-03-21T12:47:05Z</time>
      </trkpt>
      <trkpt lat="39.892561" lon="-8.423723">
        <ele>310.617</ele>
        <time>2015-03-21T12:47:07Z</time>
      </trkpt>
      <trkpt lat="39.892749" lon="-8.423801">
        <ele>308.777</ele>
        <time>2015-03-21T12:47:11Z</time>
      </trkpt>
      <trkpt lat="39.892790" lon="-8.423915">
        <ele>308.265</ele>
        <time>2015-03-21T12:47:13Z</time>
      </trkpt>
      <trkpt lat="39.892851" lon="-8.424113">
        <ele>306.860</ele>
        <time>2015-03-21T12:47:16Z</time>
      </trkpt>
      <trkpt lat="39.893006" lon="-8.424233">
        <ele>306.397</ele>
        <time>2015-03-21T12:47:21Z</time>
      </trkpt>
      <trkpt lat="39.893452" lon="-8.424130">
        <ele>306.341</ele>
        <time>2015-03-21T12:47:35Z</time>
      </trkpt>
      <trkpt lat="39.893687" lon="-8.424241">
        <ele>304.981</ele>
        <time>2015-03-21T12:47:41Z</time>
      </trkpt>
      <trkpt lat="39.893754" lon="-8.424311">
        <ele>303.409</ele>
        <time>2015-03-21T12:47:43Z</time>
      </trkpt>
      <trkpt lat="39.893795" lon="-8.424430">
        <ele>302.007</ele>
        <time>2015-03-21T12:47:45Z</time>
      </trkpt>
      <trkpt lat="39.893802" lon="-8.424497">
        <ele>301.033</ele>
        <time>2015-03-21T12:47:46Z</time>
      </trkpt>
      <trkpt lat="39.893811" lon="-8.424642">
        <ele>300.146</ele>
        <time>2015-03-21T12:47:48Z</time>
      </trkpt>
      <trkpt lat="39.893874" lon="-8.425018">
        <ele>296.288</ele>
        <time>2015-03-21T12:47:53Z</time>
      </trkpt>
      <trkpt lat="39.893914" lon="-8.425318">
        <ele>292.938</ele>
        <time>2015-03-21T12:47:57Z</time>
      </trkpt>
      <trkpt lat="39.893913" lon="-8.425568">
        <ele>289.586</ele>
        <time>2015-03-21T12:48:02Z</time>
      </trkpt>
      <trkpt lat="39.894054" lon="-8.425668">
        <ele>286.151</ele>
        <time>2015-03-21T12:48:07Z</time>
      </trkpt>
      <trkpt lat="39.894556" lon="-8.425643">
        <ele>283.378</ele>
        <time>2015-03-21T12:48:15Z</time>
      </trkpt>
      <trkpt lat="39.894778" lon="-8.425740">
        <ele>280.492</ele>
        <time>2015-03-21T12:48:19Z</time>
      </trkpt>
      <trkpt lat="39.894966" lon="-8.425889">
        <ele>278.473</ele>
        <time>2015-03-21T12:48:22Z</time>
      </trkpt>
      <trkpt lat="39.895221" lon="-8.425967">
        <ele>276.020</ele>
        <time>2015-03-21T12:48:26Z</time>
      </trkpt>
      <trkpt lat="39.895318" lon="-8.425967">
        <ele>275.107</ele>
        <time>2015-03-21T12:48:28Z</time>
      </trkpt>
      <trkpt lat="39.895563" lon="-8.425911">
        <ele>272.748</ele>
        <time>2015-03-21T12:48:37Z</time>
      </trkpt>
      <trkpt lat="39.895673" lon="-8.425917">
        <ele>274.141</ele>
        <time>2015-03-21T12:48:44Z</time>
      </trkpt>
      <trkpt lat="39.895764" lon="-8.425927">
        <ele>276.063</ele>
        <time>2015-03-21T12:48:51Z</time>
      </trkpt>
      <trkpt lat="39.895868" lon="-8.425957">
        <ele>277.533</ele>
        <time>2015-03-21T12:48:58Z</time>
      </trkpt>
      <trkpt lat="39.896043" lon="-8.425997">
        <ele>279.441</ele>
        <time>2015-03-21T12:49:11Z</time>
      </trkpt>
      <trkpt lat="39.896123" lon="-8.426003">
        <ele>280.426</ele>
        <time>2015-03-21T12:49:17Z</time>
      </trkpt>
      <trkpt lat="39.896355" lon="-8.425993">
        <ele>282.843</ele>
        <time>2015-03-21T12:49:35Z</time>
      </trkpt>
      <trkpt lat="39.896411" lon="-8.425973">
        <ele>283.776</ele>
        <time>2015-03-21T12:49:40Z</time>
      </trkpt>
      <trkpt lat="39.896589" lon="-8.425925">
        <ele>286.690</ele>
        <time>2015-03-21T12:49:56Z</time>
      </trkpt>
      <trkpt lat="39.896685" lon="-8.425918">
        <ele>287.619</ele>
        <time>2015-03-21T12:50:03Z</time>
      </trkpt>
      <trkpt lat="39.896790" lon="-8.425910">
        <ele>288.107</ele>
        <time>2015-03-21T12:50:10Z</time>
      </trkpt>
      <trkpt lat="39.896924" lon="-8.425898">
        <ele>290.086</ele>
        <time>2015-03-21T12:50:20Z</time>
      </trkpt>
      <trkpt lat="39.897130" lon="-8.425922">
        <ele>291.939</ele>
        <time>2015-03-21T12:50:35Z</time>
      </trkpt>
      <trkpt lat="39.897369" lon="-8.425994">
        <ele>293.371</ele>
        <time>2015-03-21T12:50:52Z</time>
      </trkpt>
      <trkpt lat="39.897564" lon="-8.426027">
        <ele>295.341</ele>
        <time>2015-03-21T12:51:06Z</time>
      </trkpt>
      <trkpt lat="39.897798" lon="-8.426078">
        <ele>297.299</ele>
        <time>2015-03-21T12:51:22Z</time>
      </trkpt>
      <trkpt lat="39.898084" lon="-8.425996">
        <ele>298.674</ele>
        <time>2015-03-21T12:51:40Z</time>
      </trkpt>
      <trkpt lat="39.898288" lon="-8.426052">
        <ele>300.131</ele>
        <time>2015-03-21T12:51:53Z</time>
      </trkpt>
      <trkpt lat="39.898568" lon="-8.426233">
        <ele>300.692</ele>
        <time>2015-03-21T12:52:07Z</time>
      </trkpt>
      <trkpt lat="39.898925" lon="-8.426331">
        <ele>301.573</ele>
        <time>2015-03-21T12:52:22Z</time>
      </trkpt>
      <trkpt lat="39.899243" lon="-8.426170">
        <ele>300.120</ele>
        <time>2015-03-21T12:52:33Z</time>
      </trkpt>
      <trkpt lat="39.899733" lon="-8.426242">
        <ele>296.707</ele>
        <time>2015-03-21T12:52:41Z</time>
      </trkpt>
      <trkpt lat="39.900007" lon="-8.426425">
        <ele>293.818</ele>
        <time>2015-03-21T12:52:45Z</time>
      </trkpt>
      <trkpt lat="39.900309" lon="-8.426488">
        <ele>290.051</ele>
        <time>2015-03-21T12:52:49Z</time>
      </trkpt>
      <trkpt lat="39.900611" lon="-8.426521">
        <ele>286.623</ele>
        <time>2015-03-21T12:52:52Z</time>
      </trkpt>
      <trkpt lat="39.900960" lon="-8.426594">
        <ele>282.343</ele>
        <time>2015-03-21T12:52:55Z</time>
      </trkpt>
      <trkpt lat="39.901318" lon="-8.426611">
        <ele>278.971</ele>
        <time>2015-03-21T12:52:58Z</time>
      </trkpt>
      <trkpt lat="39.901512" lon="-8.426625">
        <ele>276.576</ele>
        <time>2015-03-21T12:53:00Z</time>
      </trkpt>
      <trkpt lat="39.901821" lon="-8.426816">
        <ele>272.783</ele>
        <time>2015-03-21T12:53:04Z</time>
      </trkpt>
      <trkpt lat="39.902021" lon="-8.427028">
        <ele>270.856</ele>
        <time>2015-03-21T12:53:07Z</time>
      </trkpt>
      <trkpt lat="39.902175" lon="-8.427041">
        <ele>270.359</ele>
        <time>2015-03-21T12:53:09Z</time>
      </trkpt>
      <trkpt lat="39.902485" lon="-8.427100">
        <ele>271.214</ele>
        <time>2015-03-21T12:53:14Z</time>
      </trkpt>
      <trkpt lat="39.902561" lon="-8.427149">
        <ele>272.707</ele>
        <time>2015-03-21T12:53:16Z</time>
      </trkpt>
      <trkpt lat="39.902884" lon="-8.427369">
        <ele>273.264</ele>
        <time>2015-03-21T12:53:27Z</time>
      </trkpt>
      <trkpt lat="39.902979" lon="-8.427405">
        <ele>273.287</ele>
        <time>2015-03-21T12:53:30Z</time>
      </trkpt>
      <trkpt lat="39.903089" lon="-8.427811">
        <ele>270.389</ele>
        <time>2015-03-21T12:53:41Z</time>
      </trkpt>
      <trkpt lat="39.903058" lon="-8.428233">
        <ele>267.929</ele>
        <time>2015-03-21T12:53:53Z</time>
      </trkpt>
      <trkpt lat="39.903013" lon="-8.428444">
        <ele>267.947</ele>
        <time>2015-03-21T12:54:03Z</time>
      </trkpt>
      <trkpt lat="39.902995" lon="-8.428509">
        <ele>269.322</ele>
        <time>2015-03-21T12:54:07Z</time>
      </trkpt>
      <trkpt lat="39.902917" lon="-8.428763">
        <ele>271.239</ele>
        <time>2015-03-21T12:54:21Z</time>
      </trkpt>
      <trkpt lat="39.902755" lon="-8.429005">
        <ele>271.779</ele>
        <time>2015-03-21T12:54:35Z</time>
      </trkpt>
      <trkpt lat="39.902668" lon="-8.429199">
        <ele>273.205</ele>
        <time>2015-03-21T12:54:49Z</time>
      </trkpt>
      <trkpt lat="39.902599" lon="-8.429443">
        <ele>274.125</ele>
        <time>2015-03-21T12:55:05Z</time>
      </trkpt>
      <trkpt lat="39.902586" lon="-8.429564">
        <ele>275.107</ele>
        <time>2015-03-21T12:55:11Z</time>
      </trkpt>
      <trkpt lat="39.902453" lon="-8.429903">
        <ele>274.656</ele>
        <time>2015-03-21T12:55:24Z</time>
      </trkpt>
      <trkpt lat="39.902272" lon="-8.430431">
        <ele>274.689</ele>
        <time>2015-03-21T12:55:42Z</time>
      </trkpt>
      <trkpt lat="39.902029" lon="-8.430744">
        <ele>274.631</ele>
        <time>2015-03-21T12:55:55Z</time>
      </trkpt>
      <trkpt lat="39.902077" lon="-8.430887">
        <ele>273.271</ele>
        <time>2015-03-21T12:56:00Z</time>
      </trkpt>
      <trkpt lat="39.902340" lon="-8.431132">
        <ele>268.859</ele>
        <time>2015-03-21T12:56:06Z</time>
      </trkpt>
      <trkpt lat="39.902629" lon="-8.431341">
        <ele>265.544</ele>
        <time>2015-03-21T12:56:10Z</time>
      </trkpt>
      <trkpt lat="39.903322" lon="-8.431754">
        <ele>263.171</ele>
        <time>2015-03-21T12:56:20Z</time>
      </trkpt>
      <trkpt lat="39.903472" lon="-8.431864">
        <ele>263.192</ele>
        <time>2015-03-21T12:56:23Z</time>
      </trkpt>
      <trkpt lat="39.903828" lon="-8.432013">
        <ele>259.773</ele>
        <time>2015-03-21T12:56:32Z</time>
      </trkpt>
      <trkpt lat="39.904050" lon="-8.432035">
        <ele>256.320</ele>
        <time>2015-03-21T12:56:37Z</time>
      </trkpt>
      <trkpt lat="39.904312" lon="-8.432326">
        <ele>250.607</ele>
        <time>2015-03-21T12:56:44Z</time>
      </trkpt>
      <trkpt lat="39.904336" lon="-8.432415">
        <ele>250.128</ele>
        <time>2015-03-21T12:56:45Z</time>
      </trkpt>
      <trkpt lat="39.904448" lon="-8.432836">
        <ele>245.871</ele>
        <time>2015-03-21T12:56:49Z</time>
      </trkpt>
      <trkpt lat="39.904547" lon="-8.433164">
        <ele>242.413</ele>
        <time>2015-03-21T12:56:52Z</time>
      </trkpt>
      <trkpt lat="39.904765" lon="-8.433470">
        <ele>239.053</ele>
        <time>2015-03-21T12:56:57Z</time>
      </trkpt>
      <trkpt lat="39.905049" lon="-8.433624">
        <ele>237.691</ele>
        <time>2015-03-21T12:57:03Z</time>
      </trkpt>
      <trkpt lat="39.905264" lon="-8.433854">
        <ele>235.276</ele>
        <time>2015-03-21T12:57:08Z</time>
      </trkpt>
      <trkpt lat="39.905450" lon="-8.433986">
        <ele>233.773</ele>
        <time>2015-03-21T12:57:11Z</time>
      </trkpt>
      <trkpt lat="39.906575" lon="-8.434318">
        <ele>230.474</ele>
        <time>2015-03-21T12:57:26Z</time>
      </trkpt>
      <trkpt lat="39.906742" lon="-8.434352">
        <ele>230.456</ele>
        <time>2015-03-21T12:57:29Z</time>
      </trkpt>
      <trkpt lat="39.906827" lon="-8.434366">
        <ele>232.321</ele>
        <time>2015-03-21T12:57:31Z</time>
      </trkpt>
      <trkpt lat="39.907115" lon="-8.434395">
        <ele>234.707</ele>
        <time>2015-03-21T12:57:43Z</time>
      </trkpt>
      <trkpt lat="39.907615" lon="-8.434301">
        <ele>231.846</ele>
        <time>2015-03-21T12:57:53Z</time>
      </trkpt>
      <trkpt lat="39.907675" lon="-8.434288">
        <ele>231.869</ele>
        <time>2015-03-21T12:57:54Z</time>
      </trkpt>
      <trkpt lat="39.907912" lon="-8.434269">
        <ele>230.911</ele>
        <time>2015-03-21T12:57:58Z</time>
      </trkpt>
      <trkpt lat="39.908133" lon="-8.434386">
        <ele>230.491</ele>
        <time>2015-03-21T12:58:02Z</time>
      </trkpt>
      <trkpt lat="39.908913" lon="-8.434934">
        <ele>227.519</ele>
        <time>2015-03-21T12:58:15Z</time>
      </trkpt>
      <trkpt lat="39.909035" lon="-8.435021">
        <ele>226.514</ele>
        <time>2015-03-21T12:58:17Z</time>
      </trkpt>
      <trkpt lat="39.909252" lon="-8.435281">
        <ele>225.681</ele>
        <time>2015-03-21T12:58:21Z</time>
      </trkpt>
      <trkpt lat="39.909591" lon="-8.435362">
        <ele>224.649</ele>
        <time>2015-03-21T12:58:27Z</time>
      </trkpt>
      <trkpt lat="39.909705" lon="-8.435389">
        <ele>224.102</ele>
        <time>2015-03-21T12:58:29Z</time>
      </trkpt>
      <trkpt lat="39.909884" lon="-8.435426">
        <ele>224.122</ele>
        <time>2015-03-21T12:58:33Z</time>
      </trkpt>
      <trkpt lat="39.910253" lon="-8.435464">
        <ele>222.707</ele>
        <time>2015-03-21T12:58:43Z</time>
      </trkpt>
      <trkpt lat="39.910353" lon="-8.435437">
        <ele>221.753</ele>
        <time>2015-03-21T12:58:47Z</time>
      </trkpt>
      <trkpt lat="39.910776" lon="-8.435404">
        <ele>217.976</ele>
        <time>2015-03-21T12:59:00Z</time>
      </trkpt>
      <trkpt lat="39.910907" lon="-8.435417">
        <ele>217.418</ele>
        <time>2015-03-21T12:59:04Z</time>
      </trkpt>
      <trkpt lat="39.911155" lon="-8.435407">
        <ele>216.018</ele>
        <time>2015-03-21T12:59:11Z</time>
      </trkpt>
      <trkpt lat="39.911219" lon="-8.435504">
        <ele>216.026</ele>
        <time>2015-03-21T12:59:16Z</time>
      </trkpt>
      <trkpt lat="39.911237" lon="-8.435790">
        <ele>215.511</ele>
        <time>2015-03-21T12:59:29Z</time>
      </trkpt>
      <trkpt lat="39.911258" lon="-8.435851">
        <ele>215.578</ele>
        <time>2015-03-21T12:59:51Z</time>
      </trkpt>
      <trkpt lat="39.911528" lon="-8.435861">
        <ele>214.545</ele>
        <time>2015-03-21T13:00:23Z</time>
      </trkpt>
      <trkpt lat="39.911887" lon="-8.435805">
        <ele>209.747</ele>
        <time>2015-03-21T13:21:41Z</time>
      </trkpt>
      <trkpt lat="39.912254" lon="-8.435631">
        <ele>206.311</ele>
        <time>2015-03-21T13:21:51Z</time>
      </trkpt>
      <trkpt lat="39.912656" lon="-8.435433">
        <ele>203.007</ele>
        <time>2015-03-21T13:22:00Z</time>
      </trkpt>
      <trkpt lat="39.912773" lon="-8.435369">
        <ele>202.063</ele>
        <time>2015-03-21T13:22:04Z</time>
      </trkpt>
      <trkpt lat="39.912810" lon="-8.435315">
        <ele>202.016</ele>
        <time>2015-03-21T13:22:40Z</time>
      </trkpt>
      <trkpt lat="39.913157" lon="-8.435349">
        <ele>200.618</ele>
        <time>2015-03-21T13:22:51Z</time>
      </trkpt>
      <trkpt lat="39.913827" lon="-8.435584">
        <ele>199.668</ele>
        <time>2015-03-21T13:23:09Z</time>
      </trkpt>
      <trkpt lat="39.914284" lon="-8.435699">
        <ele>198.736</ele>
        <time>2015-03-21T13:23:22Z</time>
      </trkpt>
      <trkpt lat="39.914585" lon="-8.435864">
        <ele>198.711</ele>
        <time>2015-03-21T13:23:33Z</time>
      </trkpt>
      <trkpt lat="39.914956" lon="-8.435905">
        <ele>197.758</ele>
        <time>2015-03-21T13:23:46Z</time>
      </trkpt>
      <trkpt lat="39.915011" lon="-8.435923">
        <ele>199.164</ele>
        <time>2015-03-21T13:23:49Z</time>
      </trkpt>
      <trkpt lat="39.915322" lon="-8.435963">
        <ele>198.206</ele>
        <time>2015-03-21T13:23:59Z</time>
      </trkpt>
      <trkpt lat="39.915804" lon="-8.436028">
        <ele>198.216</ele>
        <time>2015-03-21T13:24:14Z</time>
      </trkpt>
      <trkpt lat="39.916397" lon="-8.436183">
        <ele>198.207</ele>
        <time>2015-03-21T13:24:32Z</time>
      </trkpt>
      <trkpt lat="39.916983" lon="-8.436329">
        <ele>200.125</ele>
        <time>2015-03-21T13:24:50Z</time>
      </trkpt>
      <trkpt lat="39.917386" lon="-8.436502">
        <ele>201.548</ele>
        <time>2015-03-21T13:25:06Z</time>
      </trkpt>
      <trkpt lat="39.917671" lon="-8.436658">
        <ele>202.550</ele>
        <time>2015-03-21T13:25:19Z</time>
      </trkpt>
      <trkpt lat="39.917943" lon="-8.436856">
        <ele>204.470</ele>
        <time>2015-03-21T13:25:34Z</time>
      </trkpt>
      <trkpt lat="39.918306" lon="-8.437063">
        <ele>206.328</ele>
        <time>2015-03-21T13:25:54Z</time>
      </trkpt>
      <trkpt lat="39.918499" lon="-8.437130">
        <ele>207.823</ele>
        <time>2015-03-21T13:26:04Z</time>
      </trkpt>
      <trkpt lat="39.918826" lon="-8.437163">
        <ele>209.790</ele>
        <time>2015-03-21T13:26:21Z</time>
      </trkpt>
      <trkpt lat="39.919179" lon="-8.437189">
        <ele>211.628</ele>
        <time>2015-03-21T13:26:39Z</time>
      </trkpt>
      <trkpt lat="39.919501" lon="-8.437210">
        <ele>214.089</ele>
        <time>2015-03-21T13:26:56Z</time>
      </trkpt>
      <trkpt lat="39.919835" lon="-8.437236">
        <ele>216.417</ele>
        <time>2015-03-21T13:27:15Z</time>
      </trkpt>
      <trkpt lat="39.920147" lon="-8.437278">
        <ele>217.907</ele>
        <time>2015-03-21T13:27:33Z</time>
      </trkpt>
      <trkpt lat="39.920360" lon="-8.437279">
        <ele>219.811</ele>
        <time>2015-03-21T13:27:46Z</time>
      </trkpt>
      <trkpt lat="39.920672" lon="-8.437322">
        <ele>222.274</ele>
        <time>2015-03-21T13:28:04Z</time>
      </trkpt>
      <trkpt lat="39.920952" lon="-8.437342">
        <ele>223.676</ele>
        <time>2015-03-21T13:28:20Z</time>
      </trkpt>
      <trkpt lat="39.921150" lon="-8.437390">
        <ele>225.176</ele>
        <time>2015-03-21T13:29:53Z</time>
      </trkpt>
      <trkpt lat="39.921337" lon="-8.437391">
        <ele>226.174</ele>
        <time>2015-03-21T13:30:11Z</time>
      </trkpt>
      <trkpt lat="39.921625" lon="-8.437508">
        <ele>228.539</ele>
        <time>2015-03-21T13:30:29Z</time>
      </trkpt>
      <trkpt lat="39.921727" lon="-8.437859">
        <ele>230.436</ele>
        <time>2015-03-21T13:30:46Z</time>
      </trkpt>
      <trkpt lat="39.921649" lon="-8.438208">
        <ele>230.995</ele>
        <time>2015-03-21T13:30:57Z</time>
      </trkpt>
      <trkpt lat="39.921843" lon="-8.438430">
        <ele>228.049</ele>
        <time>2015-03-21T13:31:02Z</time>
      </trkpt>
      <trkpt lat="39.922241" lon="-8.438685">
        <ele>224.623</ele>
        <time>2015-03-21T13:31:08Z</time>
      </trkpt>
      <trkpt lat="39.922491" lon="-8.438808">
        <ele>223.207</ele>
        <time>2015-03-21T13:31:11Z</time>
      </trkpt>
      <trkpt lat="39.922745" lon="-8.438834">
        <ele>221.758</ele>
        <time>2015-03-21T13:31:14Z</time>
      </trkpt>
      <trkpt lat="39.922895" lon="-8.438787">
        <ele>220.831</ele>
        <time>2015-03-21T13:31:16Z</time>
      </trkpt>
      <trkpt lat="39.923567" lon="-8.438526">
        <ele>220.893</ele>
        <time>2015-03-21T13:31:29Z</time>
      </trkpt>
      <trkpt lat="39.923808" lon="-8.438441">
        <ele>224.143</ele>
        <time>2015-03-21T13:31:40Z</time>
      </trkpt>
      <trkpt lat="39.924052" lon="-8.438199">
        <ele>227.061</ele>
        <time>2015-03-21T13:31:55Z</time>
      </trkpt>
      <trkpt lat="39.924332" lon="-8.437854">
        <ele>229.426</ele>
        <time>2015-03-21T13:32:14Z</time>
      </trkpt>
      <trkpt lat="39.924700" lon="-8.437516">
        <ele>232.393</ele>
        <time>2015-03-21T13:32:36Z</time>
      </trkpt>
      <trkpt lat="39.924993" lon="-8.437322">
        <ele>233.757</ele>
        <time>2015-03-21T13:32:51Z</time>
      </trkpt>
      <trkpt lat="39.925411" lon="-8.437063">
        <ele>233.300</ele>
        <time>2015-03-21T13:33:07Z</time>
      </trkpt>
      <trkpt lat="39.925767" lon="-8.436865">
        <ele>233.320</ele>
        <time>2015-03-21T13:33:21Z</time>
      </trkpt>
      <trkpt lat="39.926116" lon="-8.436741">
        <ele>232.307</ele>
        <time>2015-03-21T13:33:35Z</time>
      </trkpt>
      <trkpt lat="39.926394" lon="-8.436609">
        <ele>233.774</ele>
        <time>2015-03-21T13:33:48Z</time>
      </trkpt>
      <trkpt lat="39.926712" lon="-8.436465">
        <ele>234.727</ele>
        <time>2015-03-21T13:34:02Z</time>
      </trkpt>
      <trkpt lat="39.927069" lon="-8.436252">
        <ele>234.729</ele>
        <time>2015-03-21T13:34:15Z</time>
      </trkpt>
      <trkpt lat="39.927488" lon="-8.436057">
        <ele>235.279</ele>
        <time>2015-03-21T13:34:32Z</time>
      </trkpt>
      <trkpt lat="39.927903" lon="-8.435842">
        <ele>233.337</ele>
        <time>2015-03-21T13:34:45Z</time>
      </trkpt>
      <trkpt lat="39.928215" lon="-8.435426">
        <ele>232.822</ele>
        <time>2015-03-21T13:34:59Z</time>
      </trkpt>
      <trkpt lat="39.928312" lon="-8.435160">
        <ele>232.319</ele>
        <time>2015-03-21T13:35:05Z</time>
      </trkpt>
      <trkpt lat="39.928617" lon="-8.434403">
        <ele>229.456</ele>
        <time>2015-03-21T13:35:17Z</time>
      </trkpt>
      <trkpt lat="39.928900" lon="-8.433770">
        <ele>226.159</ele>
        <time>2015-03-21T13:35:25Z</time>
      </trkpt>
      <trkpt lat="39.929206" lon="-8.433625">
        <ele>223.214</ele>
        <time>2015-03-21T13:35:32Z</time>
      </trkpt>
      <trkpt lat="39.929288" lon="-8.433637">
        <ele>222.707</ele>
        <time>2015-03-21T13:35:34Z</time>
      </trkpt>
      <trkpt lat="39.929699" lon="-8.433887">
        <ele>221.734</ele>
        <time>2015-03-21T13:35:48Z</time>
      </trkpt>
      <trkpt lat="39.929989" lon="-8.434037">
        <ele>221.737</ele>
        <time>2015-03-21T13:36:03Z</time>
      </trkpt>
      <trkpt lat="39.930039" lon="-8.434070">
        <ele>221.739</ele>
        <time>2015-03-21T13:36:28Z</time>
      </trkpt>
      <trkpt lat="39.930096" lon="-8.434130">
        <ele>223.269</ele>
        <time>2015-03-21T13:36:51Z</time>
      </trkpt>
      <trkpt lat="39.930237" lon="-8.434265">
        <ele>224.197</ele>
        <time>2015-03-21T13:37:09Z</time>
      </trkpt>
      <trkpt lat="39.930361" lon="-8.434373">
        <ele>225.122</ele>
        <time>2015-03-21T13:37:26Z</time>
      </trkpt>
      <trkpt lat="39.930476" lon="-8.434436">
        <ele>226.529</ele>
        <time>2015-03-21T13:37:52Z</time>
      </trkpt>
      <trkpt lat="39.930694" lon="-8.434500">
        <ele>228.586</ele>
        <time>2015-03-21T13:38:10Z</time>
      </trkpt>
      <trkpt lat="39.930872" lon="-8.434491">
        <ele>229.460</ele>
        <time>2015-03-21T13:38:28Z</time>
      </trkpt>
      <trkpt lat="39.931212" lon="-8.434295">
        <ele>229.426</ele>
        <time>2015-03-21T13:38:41Z</time>
      </trkpt>
      <trkpt lat="39.931432" lon="-8.433987">
        <ele>228.007</ele>
        <time>2015-03-21T13:38:50Z</time>
      </trkpt>
      <trkpt lat="39.931460" lon="-8.433610">
        <ele>226.197</ele>
        <time>2015-03-21T13:38:57Z</time>
      </trkpt>
      <trkpt lat="39.931393" lon="-8.433353">
        <ele>224.110</ele>
        <time>2015-03-21T13:39:01Z</time>
      </trkpt>
      <trkpt lat="39.931461" lon="-8.432981">
        <ele>220.312</ele>
        <time>2015-03-21T13:39:09Z</time>
      </trkpt>
      <trkpt lat="39.931708" lon="-8.432726">
        <ele>217.482</ele>
        <time>2015-03-21T13:39:17Z</time>
      </trkpt>
      <trkpt lat="39.931879" lon="-8.432671">
        <ele>216.480</ele>
        <time>2015-03-21T13:39:21Z</time>
      </trkpt>
      <trkpt lat="39.932394" lon="-8.432484">
        <ele>213.645</ele>
        <time>2015-03-21T13:39:33Z</time>
      </trkpt>
      <trkpt lat="39.932707" lon="-8.432352">
        <ele>212.162</ele>
        <time>2015-03-21T13:39:42Z</time>
      </trkpt>
      <trkpt lat="39.932794" lon="-8.432327">
        <ele>212.168</ele>
        <time>2015-03-21T13:39:44Z</time>
      </trkpt>
      <trkpt lat="39.933108" lon="-8.432482">
        <ele>211.642</ele>
        <time>2015-03-21T13:39:54Z</time>
      </trkpt>
      <trkpt lat="39.933424" lon="-8.432343">
        <ele>213.126</ele>
        <time>2015-03-21T13:40:05Z</time>
      </trkpt>
      <trkpt lat="39.933744" lon="-8.432085">
        <ele>213.607</ele>
        <time>2015-03-21T13:40:17Z</time>
      </trkpt>
      <trkpt lat="39.934194" lon="-8.431857">
        <ele>214.545</ele>
        <time>2015-03-21T13:40:31Z</time>
      </trkpt>
      <trkpt lat="39.934552" lon="-8.431527">
        <ele>214.098</ele>
        <time>2015-03-21T13:40:43Z</time>
      </trkpt>
      <trkpt lat="39.934690" lon="-8.431115">
        <ele>216.020</ele>
        <time>2015-03-21T13:40:57Z</time>
      </trkpt>
      <trkpt lat="39.934803" lon="-8.430913">
        <ele>216.090</ele>
        <time>2015-03-21T13:41:05Z</time>
      </trkpt>
      <trkpt lat="39.934894" lon="-8.430955">
        <ele>216.458</ele>
        <time>2015-03-21T13:41:11Z</time>
      </trkpt>
      <trkpt lat="39.935101" lon="-8.431162">
        <ele>219.373</ele>
        <time>2015-03-21T13:41:29Z</time>
      </trkpt>
      <trkpt lat="39.935300" lon="-8.431353">
        <ele>222.260</ele>
        <time>2015-03-21T13:41:45Z</time>
      </trkpt>
      <trkpt lat="39.935498" lon="-8.431521">
        <ele>224.682</ele>
        <time>2015-03-21T13:42:01Z</time>
      </trkpt>
      <trkpt lat="39.935689" lon="-8.431617">
        <ele>227.543</ele>
        <time>2015-03-21T13:42:15Z</time>
      </trkpt>
      <trkpt lat="39.935961" lon="-8.431705">
        <ele>230.417</ele>
        <time>2015-03-21T13:42:33Z</time>
      </trkpt>
      <trkpt lat="39.936167" lon="-8.431807">
        <ele>232.307</ele>
        <time>2015-03-21T13:42:48Z</time>
      </trkpt>
      <trkpt lat="39.936349" lon="-8.431919">
        <ele>233.737</ele>
        <time>2015-03-21T13:43:02Z</time>
      </trkpt>
      <trkpt lat="39.936553" lon="-8.432061">
        <ele>237.160</ele>
        <time>2015-03-21T13:43:18Z</time>
      </trkpt>
      <trkpt lat="39.936668" lon="-8.432180">
        <ele>239.092</ele>
        <time>2015-03-21T13:43:29Z</time>
      </trkpt>
      <trkpt lat="39.936710" lon="-8.432220">
        <ele>239.512</ele>
        <time>2015-03-21T13:43:33Z</time>
      </trkpt>
      <trkpt lat="39.936914" lon="-8.432412">
        <ele>242.970</ele>
        <time>2015-03-21T13:43:51Z</time>
      </trkpt>
      <trkpt lat="39.937209" lon="-8.432588">
        <ele>246.735</ele>
        <time>2015-03-21T13:44:12Z</time>
      </trkpt>
      <trkpt lat="39.937519" lon="-8.432629">
        <ele>249.182</ele>
        <time>2015-03-21T13:44:30Z</time>
      </trkpt>
      <trkpt lat="39.937816" lon="-8.432712">
        <ele>249.162</ele>
        <time>2015-03-21T13:44:45Z</time>
      </trkpt>
      <trkpt lat="39.938075" lon="-8.432834">
        <ele>247.783</ele>
        <time>2015-03-21T13:44:53Z</time>
      </trkpt>
      <trkpt lat="39.938583" lon="-8.433019">
        <ele>246.211</ele>
        <time>2015-03-21T13:45:05Z</time>
      </trkpt>
      <trkpt lat="39.938656" lon="-8.433041">
        <ele>247.707</ele>
        <time>2015-03-21T13:45:09Z</time>
      </trkpt>
      <trkpt lat="39.938932" lon="-8.433127">
        <ele>250.195</ele>
        <time>2015-03-21T13:45:24Z</time>
      </trkpt>
      <trkpt lat="39.939139" lon="-8.433382">
        <ele>252.058</ele>
        <time>2015-03-21T13:45:40Z</time>
      </trkpt>
      <trkpt lat="39.939296" lon="-8.433699">
        <ele>254.910</ele>
        <time>2015-03-21T13:45:57Z</time>
      </trkpt>
      <trkpt lat="39.939487" lon="-8.434034">
        <ele>258.390</ele>
        <time>2015-03-21T13:46:16Z</time>
      </trkpt>
      <trkpt lat="39.939527" lon="-8.434274">
        <ele>258.378</ele>
        <time>2015-03-21T13:46:22Z</time>
      </trkpt>
      <trkpt lat="39.939614" lon="-8.434713">
        <ele>254.983</ele>
        <time>2015-03-21T13:46:27Z</time>
      </trkpt>
      <trkpt lat="39.939628" lon="-8.434805">
        <ele>254.980</ele>
        <time>2015-03-21T13:46:28Z</time>
      </trkpt>
      <trkpt lat="39.939655" lon="-8.435241">
        <ele>256.317</ele>
        <time>2015-03-21T13:46:37Z</time>
      </trkpt>
      <trkpt lat="39.939665" lon="-8.435711">
        <ele>258.787</ele>
        <time>2015-03-21T13:46:57Z</time>
      </trkpt>
      <trkpt lat="39.939707" lon="-8.436205">
        <ele>259.215</ele>
        <time>2015-03-21T13:47:11Z</time>
      </trkpt>
      <trkpt lat="39.939728" lon="-8.436271">
        <ele>259.207</ele>
        <time>2015-03-21T13:47:13Z</time>
      </trkpt>
      <trkpt lat="39.939731" lon="-8.436652">
        <ele>262.180</ele>
        <time>2015-03-21T13:47:30Z</time>
      </trkpt>
      <trkpt lat="39.939675" lon="-8.436877">
        <ele>262.673</ele>
        <time>2015-03-21T13:47:38Z</time>
      </trkpt>
      <trkpt lat="39.939910" lon="-8.437035">
        <ele>263.165</ele>
        <time>2015-03-21T13:47:49Z</time>
      </trkpt>
      <trkpt lat="39.940250" lon="-8.437289">
        <ele>263.145</ele>
        <time>2015-03-21T13:48:04Z</time>
      </trkpt>
      <trkpt lat="39.940581" lon="-8.437760">
        <ele>263.153</ele>
        <time>2015-03-21T13:48:18Z</time>
      </trkpt>
      <trkpt lat="39.940909" lon="-8.438286">
        <ele>262.158</ele>
        <time>2015-03-21T13:48:35Z</time>
      </trkpt>
      <trkpt lat="39.941226" lon="-8.438721">
        <ele>264.085</ele>
        <time>2015-03-21T13:48:53Z</time>
      </trkpt>
      <trkpt lat="39.941548" lon="-8.438927">
        <ele>266.984</ele>
        <time>2015-03-21T13:49:10Z</time>
      </trkpt>
      <trkpt lat="39.941970" lon="-8.439173">
        <ele>268.407</ele>
        <time>2015-03-21T13:49:31Z</time>
      </trkpt>
      <trkpt lat="39.942393" lon="-8.439284">
        <ele>266.917</ele>
        <time>2015-03-21T13:49:43Z</time>
      </trkpt>
      <trkpt lat="39.942494" lon="-8.439316">
        <ele>266.407</ele>
        <time>2015-03-21T13:49:45Z</time>
      </trkpt>
      <trkpt lat="39.942631" lon="-8.439479">
        <ele>266.427</ele>
        <time>2015-03-21T13:49:49Z</time>
      </trkpt>
      <trkpt lat="39.942694" lon="-8.439832">
        <ele>267.430</ele>
        <time>2015-03-21T13:49:58Z</time>
      </trkpt>
      <trkpt lat="39.942962" lon="-8.440288">
        <ele>267.982</ele>
        <time>2015-03-21T13:50:14Z</time>
      </trkpt>
      <trkpt lat="39.943120" lon="-8.440566">
        <ele>267.942</ele>
        <time>2015-03-21T13:50:22Z</time>
      </trkpt>
      <trkpt lat="39.943215" lon="-8.440767">
        <ele>266.940</ele>
        <time>2015-03-21T13:50:26Z</time>
      </trkpt>
      <trkpt lat="39.943334" lon="-8.441046">
        <ele>265.955</ele>
        <time>2015-03-21T13:50:31Z</time>
      </trkpt>
      <trkpt lat="39.943461" lon="-8.441482">
        <ele>261.652</ele>
        <time>2015-03-21T13:50:37Z</time>
      </trkpt>
      <trkpt lat="39.943513" lon="-8.441661">
        <ele>260.752</ele>
        <time>2015-03-21T13:50:39Z</time>
      </trkpt>
      <trkpt lat="39.943834" lon="-8.442115">
        <ele>261.653</ele>
        <time>2015-03-21T13:50:47Z</time>
      </trkpt>
      <trkpt lat="39.944078" lon="-8.442260">
        <ele>264.508</ele>
        <time>2015-03-21T13:51:00Z</time>
      </trkpt>
      <trkpt lat="39.944392" lon="-8.442423">
        <ele>266.907</ele>
        <time>2015-03-21T13:51:17Z</time>
      </trkpt>
      <trkpt lat="39.944581" lon="-8.442680">
        <ele>269.314</ele>
        <time>2015-03-21T13:51:32Z</time>
      </trkpt>
      <trkpt lat="39.944623" lon="-8.443103">
        <ele>270.837</ele>
        <time>2015-03-21T13:51:48Z</time>
      </trkpt>
      <trkpt lat="39.944807" lon="-8.443582">
        <ele>271.219</ele>
        <time>2015-03-21T13:52:04Z</time>
      </trkpt>
      <trkpt lat="39.944931" lon="-8.443826">
        <ele>271.219</ele>
        <time>2015-03-21T13:52:11Z</time>
      </trkpt>
      <trkpt lat="39.944943" lon="-8.443942">
        <ele>269.887</ele>
        <time>2015-03-21T13:52:13Z</time>
      </trkpt>
      <trkpt lat="39.944925" lon="-8.444117">
        <ele>269.342</ele>
        <time>2015-03-21T13:52:16Z</time>
      </trkpt>
      <trkpt lat="39.944867" lon="-8.444656">
        <ele>269.389</ele>
        <time>2015-03-21T13:52:29Z</time>
      </trkpt>
      <trkpt lat="39.944867" lon="-8.444770">
        <ele>270.885</ele>
        <time>2015-03-21T13:52:33Z</time>
      </trkpt>
      <trkpt lat="39.944750" lon="-8.445067">
        <ele>272.289</ele>
        <time>2015-03-21T13:52:46Z</time>
      </trkpt>
      <trkpt lat="39.944549" lon="-8.445257">
        <ele>272.217</ele>
        <time>2015-03-21T13:52:56Z</time>
      </trkpt>
      <trkpt lat="39.944619" lon="-8.445405">
        <ele>271.207</ele>
        <time>2015-03-21T13:53:01Z</time>
      </trkpt>
      <trkpt lat="39.944851" lon="-8.445939">
        <ele>270.827</ele>
        <time>2015-03-21T13:53:14Z</time>
      </trkpt>
      <trkpt lat="39.945143" lon="-8.446316">
        <ele>269.890</ele>
        <time>2015-03-21T13:53:25Z</time>
      </trkpt>
      <trkpt lat="39.945302" lon="-8.446659">
        <ele>269.332</ele>
        <time>2015-03-21T13:53:36Z</time>
      </trkpt>
      <trkpt lat="39.945307" lon="-8.446770">
        <ele>270.822</ele>
        <time>2015-03-21T13:53:40Z</time>
      </trkpt>
      <trkpt lat="39.945325" lon="-8.447240">
        <ele>272.730</ele>
        <time>2015-03-21T13:53:57Z</time>
      </trkpt>
      <trkpt lat="39.945337" lon="-8.447527">
        <ele>274.175</ele>
        <time>2015-03-21T13:54:10Z</time>
      </trkpt>
      <trkpt lat="39.945401" lon="-8.447659">
        <ele>276.552</ele>
        <time>2015-03-21T13:54:18Z</time>
      </trkpt>
      <trkpt lat="39.945514" lon="-8.447774">
        <ele>277.525</ele>
        <time>2015-03-21T13:54:26Z</time>
      </trkpt>
      <trkpt lat="39.945916" lon="-8.447898">
        <ele>277.526</ele>
        <time>2015-03-21T13:54:42Z</time>
      </trkpt>
      <trkpt lat="39.946318" lon="-8.448070">
        <ele>277.508</ele>
        <time>2015-03-21T13:54:58Z</time>
      </trkpt>
      <trkpt lat="39.946685" lon="-8.448282">
        <ele>277.007</ele>
        <time>2015-03-21T13:55:12Z</time>
      </trkpt>
      <trkpt lat="39.946726" lon="-8.448413">
        <ele>277.071</ele>
        <time>2015-03-21T13:55:43Z</time>
      </trkpt>
      <trkpt lat="39.946707" lon="-8.448483">
        <ele>278.094</ele>
        <time>2015-03-21T13:55:46Z</time>
      </trkpt>
      <trkpt lat="39.946699" lon="-8.448551">
        <ele>278.476</ele>
        <time>2015-03-21T13:55:49Z</time>
      </trkpt>
      <trkpt lat="39.946713" lon="-8.448623">
        <ele>278.986</ele>
        <time>2015-03-21T13:55:53Z</time>
      </trkpt>
      <trkpt lat="39.946914" lon="-8.448791">
        <ele>282.394</ele>
        <time>2015-03-21T13:56:09Z</time>
      </trkpt>
      <trkpt lat="39.947143" lon="-8.448975">
        <ele>282.879</ele>
        <time>2015-03-21T13:56:24Z</time>
      </trkpt>
      <trkpt lat="39.947318" lon="-8.449102">
        <ele>281.826</ele>
        <time>2015-03-21T13:56:30Z</time>
      </trkpt>
      <trkpt lat="39.947404" lon="-8.449128">
        <ele>281.368</ele>
        <time>2015-03-21T13:56:32Z</time>
      </trkpt>
      <trkpt lat="39.947575" lon="-8.449253">
        <ele>279.442</ele>
        <time>2015-03-21T13:56:36Z</time>
      </trkpt>
      <trkpt lat="39.947778" lon="-8.449474">
        <ele>276.026</ele>
        <time>2015-03-21T13:56:41Z</time>
      </trkpt>
      <trkpt lat="39.947943" lon="-8.449673">
        <ele>272.207</ele>
        <time>2015-03-21T13:56:45Z</time>
      </trkpt>
      <trkpt lat="39.948037" lon="-8.449764">
        <ele>270.365</ele>
        <time>2015-03-21T13:56:47Z</time>
      </trkpt>
      <trkpt lat="39.948314" lon="-8.449947">
        <ele>265.968</ele>
        <time>2015-03-21T13:56:53Z</time>
      </trkpt>
      <trkpt lat="39.948438" lon="-8.450038">
        <ele>262.120</ele>
        <time>2015-03-21T13:56:57Z</time>
      </trkpt>
      <trkpt lat="39.948685" lon="-8.450150">
        <ele>261.670</ele>
        <time>2015-03-21T13:57:05Z</time>
      </trkpt>
      <trkpt lat="39.948744" lon="-8.450197">
        <ele>263.578</ele>
        <time>2015-03-21T13:57:12Z</time>
      </trkpt>
      <trkpt lat="39.948813" lon="-8.450259">
        <ele>265.523</ele>
        <time>2015-03-21T13:57:27Z</time>
      </trkpt>
      <trkpt lat="39.948902" lon="-8.450342">
        <ele>268.410</ele>
        <time>2015-03-21T13:57:41Z</time>
      </trkpt>
      <trkpt lat="39.949007" lon="-8.450429">
        <ele>271.737</ele>
        <time>2015-03-21T13:57:57Z</time>
      </trkpt>
      <trkpt lat="39.949119" lon="-8.450524">
        <ele>274.149</ele>
        <time>2015-03-21T13:58:12Z</time>
      </trkpt>
      <trkpt lat="39.949249" lon="-8.450648">
        <ele>276.013</ele>
        <time>2015-03-21T13:58:28Z</time>
      </trkpt>
      <trkpt lat="39.949334" lon="-8.450703">
        <ele>277.507</ele>
        <time>2015-03-21T13:58:36Z</time>
      </trkpt>
      <trkpt lat="39.949497" lon="-8.450789">
        <ele>278.442</ele>
        <time>2015-03-21T13:58:52Z</time>
      </trkpt>
      <trkpt lat="39.949642" lon="-8.450815">
        <ele>280.825</ele>
        <time>2015-03-21T13:59:08Z</time>
      </trkpt>
      <trkpt lat="39.949766" lon="-8.450836">
        <ele>282.837</ele>
        <time>2015-03-21T13:59:23Z</time>
      </trkpt>
      <trkpt lat="39.949894" lon="-8.450867">
        <ele>285.237</ele>
        <time>2015-03-21T13:59:39Z</time>
      </trkpt>
      <trkpt lat="39.950028" lon="-8.450920">
        <ele>286.615</ele>
        <time>2015-03-21T13:59:54Z</time>
      </trkpt>
      <trkpt lat="39.950207" lon="-8.450969">
        <ele>289.560</ele>
        <time>2015-03-21T14:00:12Z</time>
      </trkpt>
      <trkpt lat="39.950352" lon="-8.451001">
        <ele>291.917</ele>
        <time>2015-03-21T14:00:29Z</time>
      </trkpt>
      <trkpt lat="39.950525" lon="-8.451012">
        <ele>294.335</ele>
        <time>2015-03-21T14:00:48Z</time>
      </trkpt>
      <trkpt lat="39.950583" lon="-8.451005">
        <ele>294.886</ele>
        <time>2015-03-21T14:01:04Z</time>
      </trkpt>
      <trkpt lat="39.950778" lon="-8.451066">
        <ele>296.214</ele>
        <time>2015-03-21T14:01:18Z</time>
      </trkpt>
      <trkpt lat="39.951087" lon="-8.451103">
        <ele>297.707</ele>
        <time>2015-03-21T14:01:36Z</time>
      </trkpt>
      <trkpt lat="39.951329" lon="-8.451173">
        <ele>299.162</ele>
        <time>2015-03-21T14:01:50Z</time>
      </trkpt>
      <trkpt lat="39.951579" lon="-8.451259">
        <ele>299.665</ele>
        <time>2015-03-21T14:02:04Z</time>
      </trkpt>
      <trkpt lat="39.951806" lon="-8.451445">
        <ele>299.687</ele>
        <time>2015-03-21T14:02:17Z</time>
      </trkpt>
      <trkpt lat="39.952095" lon="-8.451760">
        <ele>298.647</ele>
        <time>2015-03-21T14:02:28Z</time>
      </trkpt>
      <trkpt lat="39.952178" lon="-8.451804">
        <ele>297.785</ele>
        <time>2015-03-21T14:02:30Z</time>
      </trkpt>
      <trkpt lat="39.952316" lon="-8.451985">
        <ele>296.740</ele>
        <time>2015-03-21T14:02:34Z</time>
      </trkpt>
      <trkpt lat="39.952598" lon="-8.452754">
        <ele>292.997</ele>
        <time>2015-03-21T14:02:46Z</time>
      </trkpt>
      <trkpt lat="39.952826" lon="-8.453233">
        <ele>290.048</ele>
        <time>2015-03-21T14:02:54Z</time>
      </trkpt>
      <trkpt lat="39.952905" lon="-8.453376">
        <ele>287.161</ele>
        <time>2015-03-21T14:02:58Z</time>
      </trkpt>
      <trkpt lat="39.952912" lon="-8.453933">
        <ele>283.717</ele>
        <time>2015-03-21T14:03:11Z</time>
      </trkpt>
      <trkpt lat="39.952903" lon="-8.454631">
        <ele>280.407</ele>
        <time>2015-03-21T14:03:19Z</time>
      </trkpt>
      <trkpt lat="39.952844" lon="-8.455368">
        <ele>278.933</ele>
        <time>2015-03-21T14:03:27Z</time>
      </trkpt>
      <trkpt lat="39.952933" lon="-8.455679">
        <ele>277.596</ele>
        <time>2015-03-21T14:03:32Z</time>
      </trkpt>
      <trkpt lat="39.953014" lon="-8.455792">
        <ele>276.538</ele>
        <time>2015-03-21T14:03:34Z</time>
      </trkpt>
      <trkpt lat="39.953100" lon="-8.456038">
        <ele>276.598</ele>
        <time>2015-03-21T14:03:38Z</time>
      </trkpt>
      <trkpt lat="39.953266" lon="-8.456356">
        <ele>278.036</ele>
        <time>2015-03-21T14:03:49Z</time>
      </trkpt>
      <trkpt lat="39.953342" lon="-8.456397">
        <ele>279.451</ele>
        <time>2015-03-21T14:03:53Z</time>
      </trkpt>
      <trkpt lat="39.953559" lon="-8.456770">
        <ele>282.328</ele>
        <time>2015-03-21T14:04:12Z</time>
      </trkpt>
      <trkpt lat="39.953746" lon="-8.457126">
        <ele>283.751</ele>
        <time>2015-03-21T14:04:28Z</time>
      </trkpt>
      <trkpt lat="39.953836" lon="-8.457481">
        <ele>283.701</ele>
        <time>2015-03-21T14:04:36Z</time>
      </trkpt>
      <trkpt lat="39.953876" lon="-8.457606">
        <ele>281.811</ele>
        <time>2015-03-21T14:04:38Z</time>
      </trkpt>
      <trkpt lat="39.953924" lon="-8.457723">
        <ele>281.307</ele>
        <time>2015-03-21T14:04:40Z</time>
      </trkpt>
      <trkpt lat="39.953966" lon="-8.457897">
        <ele>281.384</ele>
        <time>2015-03-21T14:04:43Z</time>
      </trkpt>
      <trkpt lat="39.954013" lon="-8.458170">
        <ele>279.917</ele>
        <time>2015-03-21T14:04:48Z</time>
      </trkpt>
      <trkpt lat="39.954107" lon="-8.458439">
        <ele>278.029</ele>
        <time>2015-03-21T14:04:53Z</time>
      </trkpt>
      <trkpt lat="39.954327" lon="-8.458447">
        <ele>277.039</ele>
        <time>2015-03-21T14:05:01Z</time>
      </trkpt>
      <trkpt lat="39.954725" lon="-8.458411">
        <ele>277.077</ele>
        <time>2015-03-21T14:05:14Z</time>
      </trkpt>
      <trkpt lat="39.955016" lon="-8.458615">
        <ele>276.062</ele>
        <time>2015-03-21T14:05:23Z</time>
      </trkpt>
      <trkpt lat="39.955219" lon="-8.458192">
        <ele>273.679</ele>
        <time>2015-03-21T14:05:32Z</time>
      </trkpt>
      <trkpt lat="39.955223" lon="-8.458275">
        <ele>273.681</ele>
        <time>2015-03-21T14:05:38Z</time>
      </trkpt>
      <trkpt lat="39.955195" lon="-8.458431">
        <ele>273.661</ele>
        <time>2015-03-21T14:05:43Z</time>
      </trkpt>
      <trkpt lat="39.955254" lon="-8.458693">
        <ele>271.717</ele>
        <time>2015-03-21T14:05:49Z</time>
      </trkpt>
      <trkpt lat="39.955352" lon="-8.458796">
        <ele>268.807</ele>
        <time>2015-03-21T14:05:53Z</time>
      </trkpt>
      <trkpt lat="39.955504" lon="-8.458655">
        <ele>266.987</ele>
        <time>2015-03-21T14:05:59Z</time>
      </trkpt>
      <trkpt lat="39.955638" lon="-8.458604">
        <ele>265.570</ele>
        <time>2015-03-21T14:06:02Z</time>
      </trkpt>
      <trkpt lat="39.956074" lon="-8.458551">
        <ele>262.142</ele>
        <time>2015-03-21T14:06:11Z</time>
      </trkpt>
      <trkpt lat="39.956491" lon="-8.458499">
        <ele>262.132</ele>
        <time>2015-03-21T14:06:22Z</time>
      </trkpt>
      <trkpt lat="39.956830" lon="-8.458561">
        <ele>261.620</ele>
        <time>2015-03-21T14:06:35Z</time>
      </trkpt>
      <trkpt lat="39.957129" lon="-8.458656">
        <ele>261.635</ele>
        <time>2015-03-21T14:06:48Z</time>
      </trkpt>
      <trkpt lat="39.957357" lon="-8.458777">
        <ele>261.612</ele>
        <time>2015-03-21T14:07:00Z</time>
      </trkpt>
      <trkpt lat="39.957502" lon="-8.458869">
        <ele>263.165</ele>
        <time>2015-03-21T14:07:12Z</time>
      </trkpt>
      <trkpt lat="39.957573" lon="-8.458872">
        <ele>263.168</ele>
        <time>2015-03-21T14:07:40Z</time>
      </trkpt>
      <trkpt lat="39.957771" lon="-8.458859">
        <ele>263.514</ele>
        <time>2015-03-21T14:07:51Z</time>
      </trkpt>
      <trkpt lat="39.958043" lon="-8.458908">
        <ele>265.007</ele>
        <time>2015-03-21T14:08:05Z</time>
      </trkpt>
      <trkpt lat="39.958157" lon="-8.459012">
        <ele>265.565</ele>
        <time>2015-03-21T14:08:13Z</time>
      </trkpt>
      <trkpt lat="39.958243" lon="-8.459084">
        <ele>266.988</ele>
        <time>2015-03-21T14:08:26Z</time>
      </trkpt>
      <trkpt lat="39.958318" lon="-8.459149">
        <ele>267.480</ele>
        <time>2015-03-21T14:08:37Z</time>
      </trkpt>
      <trkpt lat="39.958368" lon="-8.459179">
        <ele>267.930</ele>
        <time>2015-03-21T14:08:50Z</time>
      </trkpt>
      <trkpt lat="39.958459" lon="-8.459191">
        <ele>269.338</ele>
        <time>2015-03-21T14:09:12Z</time>
      </trkpt>
      <trkpt lat="39.958562" lon="-8.459212">
        <ele>270.863</ele>
        <time>2015-03-21T14:09:27Z</time>
      </trkpt>
      <trkpt lat="39.958668" lon="-8.459276">
        <ele>272.770</ele>
        <time>2015-03-21T14:09:43Z</time>
      </trkpt>
      <trkpt lat="39.958724" lon="-8.459303">
        <ele>272.716</ele>
        <time>2015-03-21T14:09:57Z</time>
      </trkpt>
      <trkpt lat="39.958874" lon="-8.459343">
        <ele>273.276</ele>
        <time>2015-03-21T14:10:14Z</time>
      </trkpt>
      <trkpt lat="39.959017" lon="-8.459348">
        <ele>273.213</ele>
        <time>2015-03-21T14:10:24Z</time>
      </trkpt>
      <trkpt lat="39.959119" lon="-8.459400">
        <ele>273.207</ele>
        <time>2015-03-21T14:10:34Z</time>
      </trkpt>
      <trkpt lat="39.959192" lon="-8.459416">
        <ele>271.770</ele>
        <time>2015-03-21T14:10:43Z</time>
      </trkpt>
      <trkpt lat="39.959334" lon="-8.459427">
        <ele>272.243</ele>
        <time>2015-03-21T14:10:57Z</time>
      </trkpt>
      <trkpt lat="39.959434" lon="-8.459450">
        <ele>272.295</ele>
        <time>2015-03-21T14:11:10Z</time>
      </trkpt>
      <trkpt lat="39.959577" lon="-8.459475">
        <ele>272.245</ele>
        <time>2015-03-21T14:11:18Z</time>
      </trkpt>
      <trkpt lat="39.959642" lon="-8.459484">
        <ele>272.273</ele>
        <time>2015-03-21T14:11:22Z</time>
      </trkpt>
      <trkpt lat="39.959861" lon="-8.459524">
        <ele>272.268</ele>
        <time>2015-03-21T14:11:33Z</time>
      </trkpt>
      <trkpt lat="39.960125" lon="-8.459430">
        <ele>273.235</ele>
        <time>2015-03-21T14:11:44Z</time>
      </trkpt>
      <trkpt lat="39.960368" lon="-8.459366">
        <ele>275.186</ele>
        <time>2015-03-21T14:11:57Z</time>
      </trkpt>
      <trkpt lat="39.960415" lon="-8.459354">
        <ele>275.160</ele>
        <time>2015-03-21T14:12:01Z</time>
      </trkpt>
      <trkpt lat="39.960482" lon="-8.459367">
        <ele>275.626</ele>
        <time>2015-03-21T14:12:14Z</time>
      </trkpt>
      <trkpt lat="39.960775" lon="-8.459235">
        <ele>275.607</ele>
        <time>2015-03-21T14:12:28Z</time>
      </trkpt>
      <trkpt lat="39.960843" lon="-8.459187">
        <ele>274.127</ele>
        <time>2015-03-21T14:13:01Z</time>
      </trkpt>
      <trkpt lat="39.960928" lon="-8.459105">
        <ele>274.170</ele>
        <time>2015-03-21T14:13:13Z</time>
      </trkpt>
      <trkpt lat="39.961340" lon="-8.458865">
        <ele>272.712</ele>
        <time>2015-03-21T14:13:29Z</time>
      </trkpt>
      <trkpt lat="39.961448" lon="-8.458839">
        <ele>269.372</ele>
        <time>2015-03-21T14:13:33Z</time>
      </trkpt>
      <trkpt lat="39.961638" lon="-8.458630">
        <ele>266.480</ele>
        <time>2015-03-21T14:13:40Z</time>
      </trkpt>
      <trkpt lat="39.961690" lon="-8.458557">
        <ele>265.575</ele>
        <time>2015-03-21T14:13:42Z</time>
      </trkpt>
      <trkpt lat="39.961744" lon="-8.458471">
        <ele>265.582</ele>
        <time>2015-03-21T14:13:44Z</time>
      </trkpt>
      <trkpt lat="39.961989" lon="-8.458203">
        <ele>262.635</ele>
        <time>2015-03-21T14:13:54Z</time>
      </trkpt>
      <trkpt lat="39.962048" lon="-8.458222">
        <ele>261.686</ele>
        <time>2015-03-21T14:13:56Z</time>
      </trkpt>
      <trkpt lat="39.962122" lon="-8.458245">
        <ele>261.114</ele>
        <time>2015-03-21T14:13:58Z</time>
      </trkpt>
      <trkpt lat="39.962553" lon="-8.458605">
        <ele>259.707</ele>
        <time>2015-03-21T14:14:11Z</time>
      </trkpt>
      <trkpt lat="39.962835" lon="-8.458865">
        <ele>259.732</ele>
        <time>2015-03-21T14:14:27Z</time>
      </trkpt>
      <trkpt lat="39.962886" lon="-8.458906">
        <ele>261.185</ele>
        <time>2015-03-21T14:14:30Z</time>
      </trkpt>
      <trkpt lat="39.963275" lon="-8.459154">
        <ele>261.657</ele>
        <time>2015-03-21T14:14:47Z</time>
      </trkpt>
      <trkpt lat="39.963635" lon="-8.459452">
        <ele>261.647</ele>
        <time>2015-03-21T14:15:03Z</time>
      </trkpt>
      <trkpt lat="39.963930" lon="-8.459722">
        <ele>262.185</ele>
        <time>2015-03-21T14:15:18Z</time>
      </trkpt>
      <trkpt lat="39.964017" lon="-8.459787">
        <ele>262.630</ele>
        <time>2015-03-21T14:15:23Z</time>
      </trkpt>
      <trkpt lat="39.964287" lon="-8.459523">
        <ele>263.127</ele>
        <time>2015-03-21T14:15:36Z</time>
      </trkpt>
      <trkpt lat="39.964529" lon="-8.459248">
        <ele>263.116</ele>
        <time>2015-03-21T14:15:53Z</time>
      </trkpt>
      <trkpt lat="39.964761" lon="-8.458831">
        <ele>263.576</ele>
        <time>2015-03-21T14:16:07Z</time>
      </trkpt>
      <trkpt lat="39.965050" lon="-8.458248">
        <ele>263.513</ele>
        <time>2015-03-21T14:16:22Z</time>
      </trkpt>
      <trkpt lat="39.965137" lon="-8.458057">
        <ele>263.507</ele>
        <time>2015-03-21T14:16:26Z</time>
      </trkpt>
      <trkpt lat="39.965275" lon="-8.457886">
        <ele>263.570</ele>
        <time>2015-03-21T14:16:31Z</time>
      </trkpt>
      <trkpt lat="39.965929" lon="-8.457216">
        <ele>263.533</ele>
        <time>2015-03-21T14:16:52Z</time>
      </trkpt>
      <trkpt lat="39.966509" lon="-8.456638">
        <ele>262.145</ele>
        <time>2015-03-21T14:17:10Z</time>
      </trkpt>
      <trkpt lat="39.966577" lon="-8.456562">
        <ele>262.175</ele>
        <time>2015-03-21T14:17:13Z</time>
      </trkpt>
      <trkpt lat="39.966699" lon="-8.456631">
        <ele>262.193</ele>
        <time>2015-03-21T14:17:20Z</time>
      </trkpt>
      <trkpt lat="39.966934" lon="-8.456970">
        <ele>264.558</ele>
        <time>2015-03-21T14:17:40Z</time>
      </trkpt>
      <trkpt lat="39.967153" lon="-8.456973">
        <ele>265.995</ele>
        <time>2015-03-21T14:17:55Z</time>
      </trkpt>
      <trkpt lat="39.967384" lon="-8.456946">
        <ele>269.364</ele>
        <time>2015-03-21T14:18:12Z</time>
      </trkpt>
      <trkpt lat="39.967632" lon="-8.456937">
        <ele>271.206</ele>
        <time>2015-03-21T14:18:30Z</time>
      </trkpt>
      <trkpt lat="39.967888" lon="-8.456940">
        <ele>274.116</ele>
        <time>2015-03-21T14:18:48Z</time>
      </trkpt>
      <trkpt lat="39.968139" lon="-8.456979">
        <ele>276.007</ele>
        <time>2015-03-21T14:19:06Z</time>
      </trkpt>
      <trkpt lat="39.968427" lon="-8.456983">
        <ele>277.565</ele>
        <time>2015-03-21T14:19:24Z</time>
      </trkpt>
      <trkpt lat="39.968646" lon="-8.456978">
        <ele>279.498</ele>
        <time>2015-03-21T14:19:38Z</time>
      </trkpt>
      <trkpt lat="39.968924" lon="-8.456963">
        <ele>281.390</ele>
        <time>2015-03-21T14:19:56Z</time>
      </trkpt>
      <trkpt lat="39.969167" lon="-8.456884">
        <ele>283.310</ele>
        <time>2015-03-21T14:20:13Z</time>
      </trkpt>
      <trkpt lat="39.969317" lon="-8.456788">
        <ele>286.628</ele>
        <time>2015-03-21T14:20:26Z</time>
      </trkpt>
      <trkpt lat="39.969369" lon="-8.456760">
        <ele>287.693</ele>
        <time>2015-03-21T14:20:32Z</time>
      </trkpt>
      <trkpt lat="39.969429" lon="-8.456777">
        <ele>288.510</ele>
        <time>2015-03-21T14:20:38Z</time>
      </trkpt>
      <trkpt lat="39.969577" lon="-8.456787">
        <ele>291.484</ele>
        <time>2015-03-21T14:20:54Z</time>
      </trkpt>
      <trkpt lat="39.969732" lon="-8.456812">
        <ele>293.807</ele>
        <time>2015-03-21T14:21:09Z</time>
      </trkpt>
      <trkpt lat="39.969827" lon="-8.456846">
        <ele>295.317</ele>
        <time>2015-03-21T14:21:26Z</time>
      </trkpt>
      <trkpt lat="39.969944" lon="-8.456896">
        <ele>297.707</ele>
        <time>2015-03-21T14:21:41Z</time>
      </trkpt>
      <trkpt lat="39.970063" lon="-8.456975">
        <ele>301.037</ele>
        <time>2015-03-21T14:21:57Z</time>
      </trkpt>
      <trkpt lat="39.970211" lon="-8.457057">
        <ele>303.420</ele>
        <time>2015-03-21T14:22:15Z</time>
      </trkpt>
      <trkpt lat="39.970359" lon="-8.457129">
        <ele>304.942</ele>
        <time>2015-03-21T14:22:33Z</time>
      </trkpt>
      <trkpt lat="39.970506" lon="-8.457158">
        <ele>305.822</ele>
        <time>2015-03-21T14:22:47Z</time>
      </trkpt>
      <trkpt lat="39.970785" lon="-8.457137">
        <ele>307.330</ele>
        <time>2015-03-21T14:23:03Z</time>
      </trkpt>
      <trkpt lat="39.971097" lon="-8.457180">
        <ele>308.255</ele>
        <time>2015-03-21T14:23:19Z</time>
      </trkpt>
      <trkpt lat="39.971303" lon="-8.457282">
        <ele>308.282</ele>
        <time>2015-03-21T14:23:26Z</time>
      </trkpt>
      <trkpt lat="39.971364" lon="-8.457359">
        <ele>306.829</ele>
        <time>2015-03-21T14:23:28Z</time>
      </trkpt>
      <trkpt lat="39.971406" lon="-8.457460">
        <ele>306.300</ele>
        <time>2015-03-21T14:23:30Z</time>
      </trkpt>
      <trkpt lat="39.971612" lon="-8.458084">
        <ele>304.920</ele>
        <time>2015-03-21T14:23:40Z</time>
      </trkpt>
      <trkpt lat="39.971789" lon="-8.458263">
        <ele>304.907</ele>
        <time>2015-03-21T14:23:46Z</time>
      </trkpt>
      <trkpt lat="39.972117" lon="-8.458226">
        <ele>304.931</ele>
        <time>2015-03-21T14:24:00Z</time>
      </trkpt>
      <trkpt lat="39.972454" lon="-8.458462">
        <ele>303.994</ele>
        <time>2015-03-21T14:24:12Z</time>
      </trkpt>
      <trkpt lat="39.972732" lon="-8.458985">
        <ele>300.146</ele>
        <time>2015-03-21T14:24:19Z</time>
      </trkpt>
      <trkpt lat="39.972819" lon="-8.459164">
        <ele>299.116</ele>
        <time>2015-03-21T14:24:21Z</time>
      </trkpt>
      <trkpt lat="39.972897" lon="-8.459346">
        <ele>297.714</ele>
        <time>2015-03-21T14:24:23Z</time>
      </trkpt>
      <trkpt lat="39.972967" lon="-8.459539">
        <ele>296.229</ele>
        <time>2015-03-21T14:24:26Z</time>
      </trkpt>
      <trkpt lat="39.973088" lon="-8.459517">
        <ele>296.276</ele>
        <time>2015-03-21T14:24:31Z</time>
      </trkpt>
      <trkpt lat="39.973434" lon="-8.459131">
        <ele>295.732</ele>
        <time>2015-03-21T14:24:47Z</time>
      </trkpt>
      <trkpt lat="39.973919" lon="-8.458938">
        <ele>295.792</ele>
        <time>2015-03-21T14:25:02Z</time>
      </trkpt>
      <trkpt lat="39.974495" lon="-8.458748">
        <ele>293.811</ele>
        <time>2015-03-21T14:25:17Z</time>
      </trkpt>
      <trkpt lat="39.974965" lon="-8.458618">
        <ele>294.307</ele>
        <time>2015-03-21T14:25:32Z</time>
      </trkpt>
      <trkpt lat="39.975281" lon="-8.458430">
        <ele>293.832</ele>
        <time>2015-03-21T14:25:46Z</time>
      </trkpt>
      <trkpt lat="39.975382" lon="-8.458339">
        <ele>293.825</ele>
        <time>2015-03-21T14:26:03Z</time>
      </trkpt>
      <trkpt lat="39.975618" lon="-8.458125">
        <ele>296.267</ele>
        <time>2015-03-21T14:26:50Z</time>
      </trkpt>
      <trkpt lat="39.975845" lon="-8.457907">
        <ele>297.757</ele>
        <time>2015-03-21T14:27:04Z</time>
      </trkpt>
      <trkpt lat="39.976135" lon="-8.457584">
        <ele>299.695</ele>
        <time>2015-03-21T14:27:22Z</time>
      </trkpt>
      <trkpt lat="39.976365" lon="-8.457193">
        <ele>301.060</ele>
        <time>2015-03-21T14:27:40Z</time>
      </trkpt>
      <trkpt lat="39.976540" lon="-8.456832">
        <ele>302.597</ele>
        <time>2015-03-21T14:27:56Z</time>
      </trkpt>
      <trkpt lat="39.976752" lon="-8.456495">
        <ele>303.033</ele>
        <time>2015-03-21T14:28:09Z</time>
      </trkpt>
      <trkpt lat="39.977299" lon="-8.456011">
        <ele>300.123</ele>
        <time>2015-03-21T14:28:22Z</time>
      </trkpt>
      <trkpt lat="39.977526" lon="-8.455876">
        <ele>301.515</ele>
        <time>2015-03-21T14:28:30Z</time>
      </trkpt>
      <trkpt lat="39.977802" lon="-8.455778">
        <ele>304.907</ele>
        <time>2015-03-21T14:28:42Z</time>
      </trkpt>
      <trkpt lat="39.978178" lon="-8.455441">
        <ele>303.952</ele>
        <time>2015-03-21T14:28:56Z</time>
      </trkpt>
      <trkpt lat="39.978469" lon="-8.455193">
        <ele>301.545</ele>
        <time>2015-03-21T14:29:03Z</time>
      </trkpt>
      <trkpt lat="39.978497" lon="-8.455060">
        <ele>301.547</ele>
        <time>2015-03-21T14:29:07Z</time>
      </trkpt>
      <trkpt lat="39.978564" lon="-8.455040">
        <ele>296.797</ele>
        <time>2015-03-21T15:05:01Z</time>
      </trkpt>
      <trkpt lat="39.978821" lon="-8.455026">
        <ele>296.725</ele>
        <time>2015-03-21T15:05:15Z</time>
      </trkpt>
      <trkpt lat="39.979134" lon="-8.455028">
        <ele>296.730</ele>
        <time>2015-03-21T15:05:29Z</time>
      </trkpt>
      <trkpt lat="39.979462" lon="-8.454942">
        <ele>295.357</ele>
        <time>2015-03-21T15:05:40Z</time>
      </trkpt>
      <trkpt lat="39.979819" lon="-8.454869">
        <ele>295.358</ele>
        <time>2015-03-21T15:05:51Z</time>
      </trkpt>
      <trkpt lat="39.980214" lon="-8.454892">
        <ele>294.352</ele>
        <time>2015-03-21T15:06:03Z</time>
      </trkpt>
      <trkpt lat="39.980675" lon="-8.454840">
        <ele>293.317</ele>
        <time>2015-03-21T15:06:17Z</time>
      </trkpt>
      <trkpt lat="39.980993" lon="-8.454637">
        <ele>293.307</ele>
        <time>2015-03-21T15:06:33Z</time>
      </trkpt>
      <trkpt lat="39.981091" lon="-8.454585">
        <ele>293.384</ele>
        <time>2015-03-21T15:06:54Z</time>
      </trkpt>
      <trkpt lat="39.981479" lon="-8.454587">
        <ele>293.367</ele>
        <time>2015-03-21T15:07:08Z</time>
      </trkpt>
      <trkpt lat="39.981730" lon="-8.454567">
        <ele>291.919</ele>
        <time>2015-03-21T15:07:15Z</time>
      </trkpt>
      <trkpt lat="39.981950" lon="-8.454836">
        <ele>288.519</ele>
        <time>2015-03-21T15:07:22Z</time>
      </trkpt>
      <trkpt lat="39.982032" lon="-8.455328">
        <ele>286.147</ele>
        <time>2015-03-21T15:07:29Z</time>
      </trkpt>
      <trkpt lat="39.982097" lon="-8.455366">
        <ele>286.142</ele>
        <time>2015-03-21T15:07:38Z</time>
      </trkpt>
      <trkpt lat="39.982148" lon="-8.455221">
        <ele>285.799</ele>
        <time>2015-03-21T15:08:10Z</time>
      </trkpt>
      <trkpt lat="39.982196" lon="-8.455007">
        <ele>281.875</ele>
        <time>2015-03-21T15:08:16Z</time>
      </trkpt>
      <trkpt lat="39.982246" lon="-8.454842">
        <ele>278.428</ele>
        <time>2015-03-21T15:08:20Z</time>
      </trkpt>
      <trkpt lat="39.982330" lon="-8.454660">
        <ele>275.620</ele>
        <time>2015-03-21T15:08:25Z</time>
      </trkpt>
      <trkpt lat="39.982304" lon="-8.454380">
        <ele>272.707</ele>
        <time>2015-03-21T15:08:32Z</time>
      </trkpt>
      <trkpt lat="39.982234" lon="-8.454126">
        <ele>269.366</ele>
        <time>2015-03-21T15:08:38Z</time>
      </trkpt>
      <trkpt lat="39.982153" lon="-8.453996">
        <ele>266.929</ele>
        <time>2015-03-21T15:08:47Z</time>
      </trkpt>
      <trkpt lat="39.982112" lon="-8.453899">
        <ele>265.571</ele>
        <time>2015-03-21T15:09:10Z</time>
      </trkpt>
      <trkpt lat="39.982021" lon="-8.453730">
        <ele>262.641</ele>
        <time>2015-03-21T15:09:15Z</time>
      </trkpt>
      <trkpt lat="39.981913" lon="-8.453563">
        <ele>259.289</ele>
        <time>2015-03-21T15:09:20Z</time>
      </trkpt>
      <trkpt lat="39.981804" lon="-8.453360">
        <ele>256.864</ele>
        <time>2015-03-21T15:09:25Z</time>
      </trkpt>
      <trkpt lat="39.981707" lon="-8.453084">
        <ele>254.421</ele>
        <time>2015-03-21T15:09:31Z</time>
      </trkpt>
      <trkpt lat="39.981681" lon="-8.453007">
        <ele>254.495</ele>
        <time>2015-03-21T15:09:35Z</time>
      </trkpt>
      <trkpt lat="39.981820" lon="-8.452988">
        <ele>250.649</ele>
        <time>2015-03-21T15:09:44Z</time>
      </trkpt>
      <trkpt lat="39.981913" lon="-8.452977">
        <ele>249.123</ele>
        <time>2015-03-21T15:09:48Z</time>
      </trkpt>
      <trkpt lat="39.982086" lon="-8.452854">
        <ele>245.807</ele>
        <time>2015-03-21T15:09:56Z</time>
      </trkpt>
      <trkpt lat="39.982229" lon="-8.452653">
        <ele>241.948</ele>
        <time>2015-03-21T15:10:03Z</time>
      </trkpt>
      <trkpt lat="39.982280" lon="-8.452429">
        <ele>240.551</ele>
        <time>2015-03-21T15:10:08Z</time>
      </trkpt>
      <trkpt lat="39.982414" lon="-8.452293">
        <ele>240.043</ele>
        <time>2015-03-21T15:10:14Z</time>
      </trkpt>
      <trkpt lat="39.982601" lon="-8.452076">
        <ele>241.483</ele>
        <time>2015-03-21T15:10:25Z</time>
      </trkpt>
      <trkpt lat="39.982698" lon="-8.451820">
        <ele>243.821</ele>
        <time>2015-03-21T15:10:38Z</time>
      </trkpt>
      <trkpt lat="39.982751" lon="-8.451723">
        <ele>244.856</ele>
        <time>2015-03-21T15:10:44Z</time>
      </trkpt>
      <trkpt lat="39.982935" lon="-8.451526">
        <ele>247.743</ele>
        <time>2015-03-21T15:11:01Z</time>
      </trkpt>
      <trkpt lat="39.983112" lon="-8.451357">
        <ele>250.667</ele>
        <time>2015-03-21T15:11:17Z</time>
      </trkpt>
      <trkpt lat="39.983283" lon="-8.451160">
        <ele>252.581</ele>
        <time>2015-03-21T15:11:34Z</time>
      </trkpt>
      <trkpt lat="39.983510" lon="-8.450955">
        <ele>254.419</ele>
        <time>2015-03-21T15:11:51Z</time>
      </trkpt>
      <trkpt lat="39.983768" lon="-8.450874">
        <ele>256.307</ele>
        <time>2015-03-21T15:12:09Z</time>
      </trkpt>
      <trkpt lat="39.983867" lon="-8.450610">
        <ele>257.315</ele>
        <time>2015-03-21T15:12:23Z</time>
      </trkpt>
      <trkpt lat="39.983838" lon="-8.450263">
        <ele>256.338</ele>
        <time>2015-03-21T15:12:32Z</time>
      </trkpt>
      <trkpt lat="39.983820" lon="-8.450198">
        <ele>255.960</ele>
        <time>2015-03-21T15:12:59Z</time>
      </trkpt>
      <trkpt lat="39.983840" lon="-8.449790">
        <ele>253.920</ele>
        <time>2015-03-21T15:13:09Z</time>
      </trkpt>
      <trkpt lat="39.983848" lon="-8.449648">
        <ele>253.028</ele>
        <time>2015-03-21T15:13:11Z</time>
      </trkpt>
      <trkpt lat="39.983910" lon="-8.449204">
        <ele>250.653</ele>
        <time>2015-03-21T15:13:17Z</time>
      </trkpt>
      <trkpt lat="39.984073" lon="-8.448950">
        <ele>246.730</ele>
        <time>2015-03-21T15:13:23Z</time>
      </trkpt>
      <trkpt lat="39.984131" lon="-8.448929">
        <ele>246.798</ele>
        <time>2015-03-21T15:13:24Z</time>
      </trkpt>
      <trkpt lat="39.984482" lon="-8.448818">
        <ele>241.915</ele>
        <time>2015-03-21T15:13:29Z</time>
      </trkpt>
      <trkpt lat="39.984629" lon="-8.448747">
        <ele>240.526</ele>
        <time>2015-03-21T15:13:31Z</time>
      </trkpt>
      <trkpt lat="39.984795" lon="-8.448595">
        <ele>239.007</ele>
        <time>2015-03-21T15:13:34Z</time>
      </trkpt>
      <trkpt lat="39.984838" lon="-8.448529">
        <ele>237.658</ele>
        <time>2015-03-21T15:13:35Z</time>
      </trkpt>
      <trkpt lat="39.984942" lon="-8.448340">
        <ele>235.281</ele>
        <time>2015-03-21T15:13:38Z</time>
      </trkpt>
      <trkpt lat="39.985000" lon="-8.448186">
        <ele>232.363</ele>
        <time>2015-03-21T15:13:41Z</time>
      </trkpt>
      <trkpt lat="39.984985" lon="-8.447941">
        <ele>229.473</ele>
        <time>2015-03-21T15:13:46Z</time>
      </trkpt>
      <trkpt lat="39.985063" lon="-8.447826">
        <ele>228.551</ele>
        <time>2015-03-21T15:13:50Z</time>
      </trkpt>
      <trkpt lat="39.985679" lon="-8.447458">
        <ele>227.016</ele>
        <time>2015-03-21T15:14:08Z</time>
      </trkpt>
      <trkpt lat="39.985858" lon="-8.447354">
        <ele>225.153</ele>
        <time>2015-03-21T15:14:12Z</time>
      </trkpt>
      <trkpt lat="39.985956" lon="-8.447185">
        <ele>224.698</ele>
        <time>2015-03-21T15:14:16Z</time>
      </trkpt>
      <trkpt lat="39.986054" lon="-8.446474">
        <ele>223.215</ele>
        <time>2015-03-21T15:14:31Z</time>
      </trkpt>
      <trkpt lat="39.986097" lon="-8.446404">
        <ele>223.226</ele>
        <time>2015-03-21T15:14:36Z</time>
      </trkpt>
      <trkpt lat="39.986216" lon="-8.446434">
        <ele>222.707</ele>
        <time>2015-03-21T15:14:47Z</time>
      </trkpt>
      <trkpt lat="39.986280" lon="-8.446454">
        <ele>222.718</ele>
        <time>2015-03-21T15:15:00Z</time>
      </trkpt>
      <trkpt lat="39.986372" lon="-8.446471">
        <ele>222.731</ele>
        <time>2015-03-21T15:15:13Z</time>
      </trkpt>
      <trkpt lat="39.986483" lon="-8.446407">
        <ele>222.733</ele>
        <time>2015-03-21T15:15:29Z</time>
      </trkpt>
      <trkpt lat="39.986689" lon="-8.446321">
        <ele>224.133</ele>
        <time>2015-03-21T15:15:40Z</time>
      </trkpt>
      <trkpt lat="39.987077" lon="-8.446240">
        <ele>225.691</ele>
        <time>2015-03-21T15:15:59Z</time>
      </trkpt>
      <trkpt lat="39.987232" lon="-8.446140">
        <ele>224.176</ele>
        <time>2015-03-21T15:16:05Z</time>
      </trkpt>
      <trkpt lat="39.987548" lon="-8.445631">
        <ele>221.773</ele>
        <time>2015-03-21T15:16:18Z</time>
      </trkpt>
      <trkpt lat="39.987790" lon="-8.445342">
        <ele>221.777</ele>
        <time>2015-03-21T15:16:31Z</time>
      </trkpt>
      <trkpt lat="39.987842" lon="-8.445296">
        <ele>221.761</ele>
        <time>2015-03-21T15:16:35Z</time>
      </trkpt>
      <trkpt lat="39.987952" lon="-8.445223">
        <ele>225.127</ele>
        <time>2015-03-21T15:16:44Z</time>
      </trkpt>
      <trkpt lat="39.988013" lon="-8.445191">
        <ele>226.507</ele>
        <time>2015-03-21T15:16:54Z</time>
      </trkpt>
      <trkpt lat="39.988095" lon="-8.445156">
        <ele>228.016</ele>
        <time>2015-03-21T15:17:09Z</time>
      </trkpt>
      <trkpt lat="39.988264" lon="-8.444954">
        <ele>228.979</ele>
        <time>2015-03-21T15:17:27Z</time>
      </trkpt>
      <trkpt lat="39.988555" lon="-8.444799">
        <ele>227.591</ele>
        <time>2015-03-21T15:17:39Z</time>
      </trkpt>
      <trkpt lat="39.988938" lon="-8.444621">
        <ele>227.071</ele>
        <time>2015-03-21T15:17:53Z</time>
      </trkpt>
      <trkpt lat="39.989301" lon="-8.444492">
        <ele>225.179</ele>
        <time>2015-03-21T15:18:04Z</time>
      </trkpt>
      <trkpt lat="39.989592" lon="-8.444388">
        <ele>223.274</ele>
        <time>2015-03-21T15:18:13Z</time>
      </trkpt>
      <trkpt lat="39.989720" lon="-8.444354">
        <ele>221.791</ele>
        <time>2015-03-21T15:18:16Z</time>
      </trkpt>
      <trkpt lat="39.989800" lon="-8.444307">
        <ele>221.758</ele>
        <time>2015-03-21T15:18:18Z</time>
      </trkpt>
      <trkpt lat="39.990167" lon="-8.444251">
        <ele>221.252</ele>
        <time>2015-03-21T15:18:30Z</time>
      </trkpt>
      <trkpt lat="39.990510" lon="-8.444055">
        <ele>221.217</ele>
        <time>2015-03-21T15:18:46Z</time>
      </trkpt>
      <trkpt lat="39.990822" lon="-8.443765">
        <ele>221.207</ele>
        <time>2015-03-21T15:19:02Z</time>
      </trkpt>
      <trkpt lat="39.990999" lon="-8.443615">
        <ele>221.234</ele>
        <time>2015-03-21T15:19:14Z</time>
      </trkpt>
      <trkpt lat="39.991288" lon="-8.443437">
        <ele>223.277</ele>
        <time>2015-03-21T15:19:30Z</time>
      </trkpt>
      <trkpt lat="39.991476" lon="-8.443263">
        <ele>224.179</ele>
        <time>2015-03-21T15:19:45Z</time>
      </trkpt>
      <trkpt lat="39.991690" lon="-8.443094">
        <ele>225.119</ele>
        <time>2015-03-21T15:20:00Z</time>
      </trkpt>
      <trkpt lat="39.991868" lon="-8.442959">
        <ele>226.557</ele>
        <time>2015-03-21T15:20:13Z</time>
      </trkpt>
      <trkpt lat="39.991930" lon="-8.442894">
        <ele>227.092</ele>
        <time>2015-03-21T15:20:19Z</time>
      </trkpt>
      <trkpt lat="39.992003" lon="-8.442827">
        <ele>228.529</ele>
        <time>2015-03-21T15:20:26Z</time>
      </trkpt>
      <trkpt lat="39.992174" lon="-8.442648">
        <ele>228.924</ele>
        <time>2015-03-21T15:20:40Z</time>
      </trkpt>
      <trkpt lat="39.992403" lon="-8.442432">
        <ele>228.904</ele>
        <time>2015-03-21T15:20:53Z</time>
      </trkpt>
      <trkpt lat="39.992517" lon="-8.442358">
        <ele>229.914</ele>
        <time>2015-03-21T15:21:06Z</time>
      </trkpt>
      <trkpt lat="39.992613" lon="-8.442229">
        <ele>232.807</ele>
        <time>2015-03-21T15:21:22Z</time>
      </trkpt>
      <trkpt lat="39.992765" lon="-8.442184">
        <ele>234.791</ele>
        <time>2015-03-21T15:21:37Z</time>
      </trkpt>
      <trkpt lat="39.992916" lon="-8.442154">
        <ele>237.174</ele>
        <time>2015-03-21T15:21:54Z</time>
      </trkpt>
      <trkpt lat="39.993055" lon="-8.442090">
        <ele>239.586</ele>
        <time>2015-03-21T15:22:13Z</time>
      </trkpt>
      <trkpt lat="39.993207" lon="-8.442025">
        <ele>241.966</ele>
        <time>2015-03-21T15:22:32Z</time>
      </trkpt>
      <trkpt lat="39.993317" lon="-8.442005">
        <ele>244.334</ele>
        <time>2015-03-21T15:22:48Z</time>
      </trkpt>
      <trkpt lat="39.993395" lon="-8.441982">
        <ele>245.889</ele>
        <time>2015-03-21T15:23:30Z</time>
      </trkpt>
      <trkpt lat="39.993584" lon="-8.441978">
        <ele>247.766</ele>
        <time>2015-03-21T15:23:47Z</time>
      </trkpt>
      <trkpt lat="39.993743" lon="-8.441930">
        <ele>249.629</ele>
        <time>2015-03-21T15:24:02Z</time>
      </trkpt>
      <trkpt lat="39.993826" lon="-8.441872">
        <ele>250.600</ele>
        <time>2015-03-21T15:24:17Z</time>
      </trkpt>
      <trkpt lat="39.993918" lon="-8.441707">
        <ele>251.520</ele>
        <time>2015-03-21T15:24:29Z</time>
      </trkpt>
      <trkpt lat="39.994040" lon="-8.441440">
        <ele>253.907</ele>
        <time>2015-03-21T15:24:46Z</time>
      </trkpt>
      <trkpt lat="39.994056" lon="-8.441367">
        <ele>254.941</ele>
        <time>2015-03-21T15:24:50Z</time>
      </trkpt>
      <trkpt lat="39.994203" lon="-8.441145">
        <ele>254.914</ele>
        <time>2015-03-21T15:25:05Z</time>
      </trkpt>
      <trkpt lat="39.994423" lon="-8.440985">
        <ele>253.946</ele>
        <time>2015-03-21T15:25:12Z</time>
      </trkpt>
      <trkpt lat="39.994663" lon="-8.440776">
        <ele>253.436</ele>
        <time>2015-03-21T15:25:23Z</time>
      </trkpt>
      <trkpt lat="39.994733" lon="-8.440719">
        <ele>254.444</ele>
        <time>2015-03-21T15:25:28Z</time>
      </trkpt>
      <trkpt lat="39.994903" lon="-8.440550">
        <ele>255.949</ele>
        <time>2015-03-21T15:25:42Z</time>
      </trkpt>
      <trkpt lat="39.994974" lon="-8.440470">
        <ele>256.866</ele>
        <time>2015-03-21T15:25:49Z</time>
      </trkpt>
      <trkpt lat="39.995004" lon="-8.440415">
        <ele>257.326</ele>
        <time>2015-03-21T15:25:53Z</time>
      </trkpt>
      <trkpt lat="39.995059" lon="-8.440342">
        <ele>258.347</ele>
        <time>2015-03-21T15:25:59Z</time>
      </trkpt>
      <trkpt lat="39.995110" lon="-8.440263">
        <ele>258.711</ele>
        <time>2015-03-21T15:26:05Z</time>
      </trkpt>
      <trkpt lat="39.995288" lon="-8.440063">
        <ele>260.707</ele>
        <time>2015-03-21T15:26:21Z</time>
      </trkpt>
      <trkpt lat="39.995417" lon="-8.439849">
        <ele>263.191</ele>
        <time>2015-03-21T15:26:36Z</time>
      </trkpt>
      <trkpt lat="39.995564" lon="-8.439640">
        <ele>265.514</ele>
        <time>2015-03-21T15:26:52Z</time>
      </trkpt>
      <trkpt lat="39.995638" lon="-8.439336">
        <ele>267.936</ele>
        <time>2015-03-21T15:27:09Z</time>
      </trkpt>
      <trkpt lat="39.995701" lon="-8.439117">
        <ele>266.416</ele>
        <time>2015-03-21T15:27:15Z</time>
      </trkpt>
      <trkpt lat="39.995831" lon="-8.438961">
        <ele>265.554</ele>
        <time>2015-03-21T15:27:19Z</time>
      </trkpt>
      <trkpt lat="39.996121" lon="-8.438912">
        <ele>264.529</ele>
        <time>2015-03-21T15:27:27Z</time>
      </trkpt>
      <trkpt lat="39.996132" lon="-8.439274">
        <ele>262.176</ele>
        <time>2015-03-21T15:27:34Z</time>
      </trkpt>
      <trkpt lat="39.996205" lon="-8.439599">
        <ele>260.252</ele>
        <time>2015-03-21T15:27:38Z</time>
      </trkpt>
      <trkpt lat="39.996419" lon="-8.440172">
        <ele>256.853</ele>
        <time>2015-03-21T15:27:44Z</time>
      </trkpt>
      <trkpt lat="39.996588" lon="-8.440638">
        <ele>253.008</ele>
        <time>2015-03-21T15:27:48Z</time>
      </trkpt>
      <trkpt lat="39.996767" lon="-8.441148">
        <ele>249.607</ele>
        <time>2015-03-21T15:27:52Z</time>
      </trkpt>
      <trkpt lat="39.996956" lon="-8.441672">
        <ele>246.244</ele>
        <time>2015-03-21T15:27:56Z</time>
      </trkpt>
      <trkpt lat="39.997074" lon="-8.442001">
        <ele>242.427</ele>
        <time>2015-03-21T15:27:59Z</time>
      </trkpt>
      <trkpt lat="39.997140" lon="-8.442167">
        <ele>241.459</ele>
        <time>2015-03-21T15:28:02Z</time>
      </trkpt>
      <trkpt lat="39.997247" lon="-8.442147">
        <ele>240.519</ele>
        <time>2015-03-21T15:28:07Z</time>
      </trkpt>
      <trkpt lat="39.997446" lon="-8.441820">
        <ele>237.137</ele>
        <time>2015-03-21T15:28:16Z</time>
      </trkpt>
      <trkpt lat="39.997473" lon="-8.441770">
        <ele>236.662</ele>
        <time>2015-03-21T15:28:17Z</time>
      </trkpt>
      <trkpt lat="39.997750" lon="-8.441577">
        <ele>235.769</ele>
        <time>2015-03-21T15:28:23Z</time>
      </trkpt>
      <trkpt lat="39.998020" lon="-8.441478">
        <ele>237.625</ele>
        <time>2015-03-21T15:28:35Z</time>
      </trkpt>
      <trkpt lat="39.998236" lon="-8.441387">
        <ele>239.526</ele>
        <time>2015-03-21T15:28:48Z</time>
      </trkpt>
      <trkpt lat="39.998467" lon="-8.441406">
        <ele>241.908</ele>
        <time>2015-03-21T15:29:05Z</time>
      </trkpt>
      <trkpt lat="39.998687" lon="-8.441382">
        <ele>244.807</ele>
        <time>2015-03-21T15:29:21Z</time>
      </trkpt>
      <trkpt lat="39.998888" lon="-8.441411">
        <ele>247.231</ele>
        <time>2015-03-21T15:29:35Z</time>
      </trkpt>
      <trkpt lat="39.999046" lon="-8.441709">
        <ele>246.794</ele>
        <time>2015-03-21T15:29:48Z</time>
      </trkpt>
      <trkpt lat="39.999182" lon="-8.441819">
        <ele>244.336</ele>
        <time>2015-03-21T15:29:53Z</time>
      </trkpt>
      <trkpt lat="39.999364" lon="-8.441762">
        <ele>241.946</ele>
        <time>2015-03-21T15:29:58Z</time>
      </trkpt>
      <trkpt lat="39.999441" lon="-8.441735">
        <ele>240.544</ele>
        <time>2015-03-21T15:30:00Z</time>
      </trkpt>
      <trkpt lat="39.999523" lon="-8.441695">
        <ele>240.089</ele>
        <time>2015-03-21T15:30:02Z</time>
      </trkpt>
      <trkpt lat="39.999726" lon="-8.441824">
        <ele>240.596</ele>
        <time>2015-03-21T15:30:10Z</time>
      </trkpt>
      <trkpt lat="40.000051" lon="-8.441910">
        <ele>241.439</ele>
        <time>2015-03-21T15:30:24Z</time>
      </trkpt>
      <trkpt lat="40.000239" lon="-8.441636">
        <ele>242.401</ele>
        <time>2015-03-21T15:30:38Z</time>
      </trkpt>
      <trkpt lat="40.000335" lon="-8.441439">
        <ele>243.421</ele>
        <time>2015-03-21T15:30:47Z</time>
      </trkpt>
      <trkpt lat="40.000425" lon="-8.441490">
        <ele>241.407</ele>
        <time>2015-03-21T15:30:51Z</time>
      </trkpt>
      <trkpt lat="40.000559" lon="-8.441664">
        <ele>239.532</ele>
        <time>2015-03-21T15:30:56Z</time>
      </trkpt>
      <trkpt lat="40.000636" lon="-8.441724">
        <ele>239.545</ele>
        <time>2015-03-21T15:30:58Z</time>
      </trkpt>
      <trkpt lat="40.000877" lon="-8.441893">
        <ele>237.197</ele>
        <time>2015-03-21T15:31:05Z</time>
      </trkpt>
      <trkpt lat="40.001034" lon="-8.442199">
        <ele>238.527</ele>
        <time>2015-03-21T15:31:16Z</time>
      </trkpt>
      <trkpt lat="40.001294" lon="-8.442355">
        <ele>240.025</ele>
        <time>2015-03-21T15:31:33Z</time>
      </trkpt>
      <trkpt lat="40.001376" lon="-8.442307">
        <ele>240.540</ele>
        <time>2015-03-21T15:31:39Z</time>
      </trkpt>
      <trkpt lat="40.001391" lon="-8.442168">
        <ele>241.977</ele>
        <time>2015-03-21T15:31:46Z</time>
      </trkpt>
      <trkpt lat="40.001384" lon="-8.442036">
        <ele>242.496</ele>
        <time>2015-03-21T15:31:52Z</time>
      </trkpt>
      <trkpt lat="40.001545" lon="-8.441893">
        <ele>244.331</ele>
        <time>2015-03-21T15:32:06Z</time>
      </trkpt>
      <trkpt lat="40.001695" lon="-8.441802">
        <ele>245.824</ele>
        <time>2015-03-21T15:32:18Z</time>
      </trkpt>
      <trkpt lat="40.001759" lon="-8.441761">
        <ele>246.707</ele>
        <time>2015-03-21T15:32:24Z</time>
      </trkpt>
      <trkpt lat="40.001973" lon="-8.441652">
        <ele>249.678</ele>
        <time>2015-03-21T15:33:02Z</time>
      </trkpt>
      <trkpt lat="40.002004" lon="-8.441541">
        <ele>250.641</ele>
        <time>2015-03-21T15:33:18Z</time>
      </trkpt>
      <trkpt lat="40.002127" lon="-8.441190">
        <ele>251.513</ele>
        <time>2015-03-21T15:33:35Z</time>
      </trkpt>
      <trkpt lat="40.002352" lon="-8.440830">
        <ele>252.543</ele>
        <time>2015-03-21T15:33:53Z</time>
      </trkpt>
      <trkpt lat="40.002486" lon="-8.440721">
        <ele>252.571</ele>
        <time>2015-03-21T15:34:04Z</time>
      </trkpt>
      <trkpt lat="40.002621" lon="-8.440605">
        <ele>252.596</ele>
        <time>2015-03-21T15:34:20Z</time>
      </trkpt>
      <trkpt lat="40.002828" lon="-8.440366">
        <ele>252.533</ele>
        <time>2015-03-21T15:34:31Z</time>
      </trkpt>
      <trkpt lat="40.003163" lon="-8.440184">
        <ele>249.681</ele>
        <time>2015-03-21T15:34:42Z</time>
      </trkpt>
      <trkpt lat="40.003296" lon="-8.440141">
        <ele>249.161</ele>
        <time>2015-03-21T15:34:45Z</time>
      </trkpt>
      <trkpt lat="40.003446" lon="-8.440003">
        <ele>247.717</ele>
        <time>2015-03-21T15:34:50Z</time>
      </trkpt>
      <trkpt lat="40.003499" lon="-8.440019">
        <ele>247.707</ele>
        <time>2015-03-21T15:34:58Z</time>
      </trkpt>
      <trkpt lat="40.003724" lon="-8.440490">
        <ele>245.357</ele>
        <time>2015-03-21T15:35:35Z</time>
      </trkpt>
      <trkpt lat="40.003747" lon="-8.440597">
        <ele>244.850</ele>
        <time>2015-03-21T15:35:37Z</time>
      </trkpt>
      <trkpt lat="40.003791" lon="-8.440758">
        <ele>242.942</ele>
        <time>2015-03-21T15:35:40Z</time>
      </trkpt>
      <trkpt lat="40.003974" lon="-8.441097">
        <ele>239.552</ele>
        <time>2015-03-21T15:35:47Z</time>
      </trkpt>
      <trkpt lat="40.004234" lon="-8.441331">
        <ele>235.720</ele>
        <time>2015-03-21T15:35:53Z</time>
      </trkpt>
      <trkpt lat="40.004438" lon="-8.441643">
        <ele>231.875</ele>
        <time>2015-03-21T15:35:58Z</time>
      </trkpt>
      <trkpt lat="40.004551" lon="-8.441945">
        <ele>228.592</ele>
        <time>2015-03-21T15:36:02Z</time>
      </trkpt>
      <trkpt lat="40.004608" lon="-8.442161">
        <ele>225.672</ele>
        <time>2015-03-21T15:36:05Z</time>
      </trkpt>
      <trkpt lat="40.004633" lon="-8.442387">
        <ele>223.613</ele>
        <time>2015-03-21T15:37:53Z</time>
      </trkpt>
      <trkpt lat="40.004668" lon="-8.442557">
        <ele>222.214</ele>
        <time>2015-03-21T15:37:56Z</time>
      </trkpt>
      <trkpt lat="40.004682" lon="-8.442625">
        <ele>221.207</ele>
        <time>2015-03-21T15:37:57Z</time>
      </trkpt>
      <trkpt lat="40.004692" lon="-8.443059">
        <ele>216.966</ele>
        <time>2015-03-21T15:38:02Z</time>
      </trkpt>
      <trkpt lat="40.004691" lon="-8.443251">
        <ele>216.029</ele>
        <time>2015-03-21T15:38:04Z</time>
      </trkpt>
      <trkpt lat="40.004715" lon="-8.443747">
        <ele>213.161</ele>
        <time>2015-03-21T15:38:09Z</time>
      </trkpt>
      <trkpt lat="40.004743" lon="-8.443923">
        <ele>212.191</ele>
        <time>2015-03-21T15:38:11Z</time>
      </trkpt>
      <trkpt lat="40.004989" lon="-8.444837">
        <ele>211.269</ele>
        <time>2015-03-21T15:38:24Z</time>
      </trkpt>
      <trkpt lat="40.005013" lon="-8.444964">
        <ele>211.254</ele>
        <time>2015-03-21T15:38:26Z</time>
      </trkpt>
      <trkpt lat="40.005100" lon="-8.446064">
        <ele>210.291</ele>
        <time>2015-03-21T15:38:45Z</time>
      </trkpt>
      <trkpt lat="40.005279" lon="-8.446906">
        <ele>208.723</ele>
        <time>2015-03-21T15:39:01Z</time>
      </trkpt>
      <trkpt lat="40.005595" lon="-8.447522">
        <ele>208.383</ele>
        <time>2015-03-21T15:39:15Z</time>
      </trkpt>
      <trkpt lat="40.005880" lon="-8.447965">
        <ele>207.311</ele>
        <time>2015-03-21T15:39:25Z</time>
      </trkpt>
      <trkpt lat="40.006116" lon="-8.448468">
        <ele>205.907</ele>
        <time>2015-03-21T15:39:35Z</time>
      </trkpt>
      <trkpt lat="40.006660" lon="-8.449062">
        <ele>203.061</ele>
        <time>2015-03-21T15:39:49Z</time>
      </trkpt>
      <trkpt lat="40.006833" lon="-8.449583">
        <ele>201.174</ele>
        <time>2015-03-21T15:39:56Z</time>
      </trkpt>
      <trkpt lat="40.006955" lon="-8.450208">
        <ele>201.176</ele>
        <time>2015-03-21T15:40:07Z</time>
      </trkpt>
      <trkpt lat="40.007102" lon="-8.451064">
        <ele>201.156</ele>
        <time>2015-03-21T15:40:24Z</time>
      </trkpt>
      <trkpt lat="40.007267" lon="-8.451171">
        <ele>201.164</ele>
        <time>2015-03-21T15:40:29Z</time>
      </trkpt>
      <trkpt lat="40.007384" lon="-8.451213">
        <ele>202.549</ele>
        <time>2015-03-21T15:40:32Z</time>
      </trkpt>
      <trkpt lat="40.007970" lon="-8.451193">
        <ele>202.576</ele>
        <time>2015-03-21T15:40:47Z</time>
      </trkpt>
      <trkpt lat="40.008585" lon="-8.451311">
        <ele>203.589</ele>
        <time>2015-03-21T15:41:03Z</time>
      </trkpt>
      <trkpt lat="40.009221" lon="-8.451549">
        <ele>203.506</ele>
        <time>2015-03-21T15:41:19Z</time>
      </trkpt>
      <trkpt lat="40.009902" lon="-8.451915">
        <ele>203.526</ele>
        <time>2015-03-21T15:41:37Z</time>
      </trkpt>
      <trkpt lat="40.010640" lon="-8.452442">
        <ele>203.507</ele>
        <time>2015-03-21T15:41:57Z</time>
      </trkpt>
      <trkpt lat="40.011358" lon="-8.452844">
        <ele>203.557</ele>
        <time>2015-03-21T15:42:16Z</time>
      </trkpt>
      <trkpt lat="40.011751" lon="-8.452938">
        <ele>203.550</ele>
        <time>2015-03-21T15:42:26Z</time>
      </trkpt>
      <trkpt lat="40.011891" lon="-8.452807">
        <ele>203.532</ele>
        <time>2015-03-21T15:42:31Z</time>
      </trkpt>
      <trkpt lat="40.012369" lon="-8.452153">
        <ele>201.512</ele>
        <time>2015-03-21T15:42:47Z</time>
      </trkpt>
      <trkpt lat="40.012825" lon="-8.451516">
        <ele>201.170</ele>
        <time>2015-03-21T15:43:03Z</time>
      </trkpt>
      <trkpt lat="40.012875" lon="-8.451441">
        <ele>201.135</ele>
        <time>2015-03-21T15:43:05Z</time>
      </trkpt>
      <trkpt lat="40.012975" lon="-8.451245">
        <ele>199.642</ele>
        <time>2015-03-21T15:43:09Z</time>
      </trkpt>
      <trkpt lat="40.013057" lon="-8.450966">
        <ele>197.779</ele>
        <time>2015-03-21T15:43:13Z</time>
      </trkpt>
      <trkpt lat="40.013076" lon="-8.450897">
        <ele>197.205</ele>
        <time>2015-03-21T15:43:14Z</time>
      </trkpt>
      <trkpt lat="40.013284" lon="-8.450683">
        <ele>195.325</ele>
        <time>2015-03-21T15:43:19Z</time>
      </trkpt>
      <trkpt lat="40.013898" lon="-8.450621">
        <ele>194.307</ele>
        <time>2015-03-21T15:43:30Z</time>
      </trkpt>
      <trkpt lat="40.014495" lon="-8.450413">
        <ele>193.426</ele>
        <time>2015-03-21T15:43:45Z</time>
      </trkpt>
      <trkpt lat="40.014629" lon="-8.450299">
        <ele>193.429</ele>
        <time>2015-03-21T15:43:52Z</time>
      </trkpt>
      <trkpt lat="40.014799" lon="-8.449961">
        <ele>192.951</ele>
        <time>2015-03-21T15:43:59Z</time>
      </trkpt>
      <trkpt lat="40.014833" lon="-8.449792">
        <ele>192.421</ele>
        <time>2015-03-21T15:44:02Z</time>
      </trkpt>
      <trkpt lat="40.014839" lon="-8.449526">
        <ele>192.419</ele>
        <time>2015-03-21T15:44:07Z</time>
      </trkpt>
      <trkpt lat="40.014811" lon="-8.448981">
        <ele>192.464</ele>
        <time>2015-03-21T15:44:17Z</time>
      </trkpt>
      <trkpt lat="40.014793" lon="-8.448541">
        <ele>192.431</ele>
        <time>2015-03-21T15:44:25Z</time>
      </trkpt>
      <trkpt lat="40.014742" lon="-8.448169">
        <ele>192.451</ele>
        <time>2015-03-21T15:44:32Z</time>
      </trkpt>
      <trkpt lat="40.014753" lon="-8.447552">
        <ele>192.401</ele>
        <time>2015-03-21T15:44:44Z</time>
      </trkpt>
      <trkpt lat="40.015141" lon="-8.447526">
        <ele>192.411</ele>
        <time>2015-03-21T15:44:55Z</time>
      </trkpt>
      <trkpt lat="40.015367" lon="-8.447510">
        <ele>192.407</ele>
        <time>2015-03-21T15:45:00Z</time>
      </trkpt>
      <trkpt lat="40.015496" lon="-8.447494">
        <ele>192.454</ele>
        <time>2015-03-21T15:45:03Z</time>
      </trkpt>
      <trkpt lat="40.015670" lon="-8.447494">
        <ele>192.437</ele>
        <time>2015-03-21T15:45:07Z</time>
      </trkpt>
      <trkpt lat="40.015989" lon="-8.447465">
        <ele>191.449</ele>
        <time>2015-03-21T15:45:15Z</time>
      </trkpt>
      <trkpt lat="40.016593" lon="-8.447350">
        <ele>191.479</ele>
        <time>2015-03-21T15:45:31Z</time>
      </trkpt>
      <trkpt lat="40.017133" lon="-8.447232">
        <ele>191.427</ele>
        <time>2015-03-21T15:45:45Z</time>
      </trkpt>
      <trkpt lat="40.017635" lon="-8.447080">
        <ele>191.492</ele>
        <time>2015-03-21T15:46:00Z</time>
      </trkpt>
      <trkpt lat="40.017734" lon="-8.446714">
        <ele>191.469</ele>
        <time>2015-03-21T15:46:09Z</time>
      </trkpt>
      <trkpt lat="40.017798" lon="-8.446528">
        <ele>192.424</ele>
        <time>2015-03-21T15:46:15Z</time>
      </trkpt>
      <trkpt lat="40.017941" lon="-8.445950">
        <ele>193.404</ele>
        <time>2015-03-21T15:46:31Z</time>
      </trkpt>
      <trkpt lat="40.017947" lon="-8.445713">
        <ele>194.314</ele>
        <time>2015-03-21T15:46:37Z</time>
      </trkpt>
      <trkpt lat="40.018002" lon="-8.445545">
        <ele>192.907</ele>
        <time>2015-03-21T15:46:40Z</time>
      </trkpt>
      <trkpt lat="40.018027" lon="-8.445488">
        <ele>192.971</ele>
        <time>2015-03-21T15:46:41Z</time>
      </trkpt>
      <trkpt lat="40.018231" lon="-8.445210">
        <ele>191.024</ele>
        <time>2015-03-21T15:46:46Z</time>
      </trkpt>
      <trkpt lat="40.018275" lon="-8.445148">
        <ele>190.576</ele>
        <time>2015-03-21T15:46:47Z</time>
      </trkpt>
      <trkpt lat="40.018606" lon="-8.444368">
        <ele>189.036</ele>
        <time>2015-03-21T15:47:00Z</time>
      </trkpt>
      <trkpt lat="40.018664" lon="-8.444228">
        <ele>189.094</ele>
        <time>2015-03-21T15:47:03Z</time>
      </trkpt>
      <trkpt lat="40.018797" lon="-8.444123">
        <ele>189.089</ele>
        <time>2015-03-21T15:47:07Z</time>
      </trkpt>
      <trkpt lat="40.019300" lon="-8.444296">
        <ele>188.656</ele>
        <time>2015-03-21T15:47:20Z</time>
      </trkpt>
      <trkpt lat="40.019778" lon="-8.444484">
        <ele>187.632</ele>
        <time>2015-03-21T15:47:31Z</time>
      </trkpt>
      <trkpt lat="40.020083" lon="-8.444517">
        <ele>186.692</ele>
        <time>2015-03-21T15:47:38Z</time>
      </trkpt>
      <trkpt lat="40.020565" lon="-8.444522">
        <ele>186.611</ele>
        <time>2015-03-21T15:47:49Z</time>
      </trkpt>
      <trkpt lat="40.021309" lon="-8.444536">
        <ele>186.207</ele>
        <time>2015-03-21T15:48:06Z</time>
      </trkpt>
      <trkpt lat="40.021844" lon="-8.444553">
        <ele>185.252</ele>
        <time>2015-03-21T15:48:18Z</time>
      </trkpt>
      <trkpt lat="40.022106" lon="-8.444556">
        <ele>184.765</ele>
        <time>2015-03-21T15:48:24Z</time>
      </trkpt>
      <trkpt lat="40.022194" lon="-8.444573">
        <ele>184.787</ele>
        <time>2015-03-21T15:48:26Z</time>
      </trkpt>
      <trkpt lat="40.022779" lon="-8.444577">
        <ele>184.227</ele>
        <time>2015-03-21T15:48:40Z</time>
      </trkpt>
      <trkpt lat="40.023497" lon="-8.444581">
        <ele>183.845</ele>
        <time>2015-03-21T15:48:57Z</time>
      </trkpt>
      <trkpt lat="40.024168" lon="-8.444605">
        <ele>183.850</ele>
        <time>2015-03-21T15:49:13Z</time>
      </trkpt>
      <trkpt lat="40.024867" lon="-8.444629">
        <ele>183.347</ele>
        <time>2015-03-21T15:49:30Z</time>
      </trkpt>
      <trkpt lat="40.025485" lon="-8.444629">
        <ele>183.365</ele>
        <time>2015-03-21T15:49:45Z</time>
      </trkpt>
      <trkpt lat="40.025692" lon="-8.444632">
        <ele>183.368</ele>
        <time>2015-03-21T15:49:50Z</time>
      </trkpt>
      <trkpt lat="40.026328" lon="-8.444618">
        <ele>183.314</ele>
        <time>2015-03-21T15:50:05Z</time>
      </trkpt>
      <trkpt lat="40.026980" lon="-8.444610">
        <ele>182.307</ele>
        <time>2015-03-21T15:50:20Z</time>
      </trkpt>
      <trkpt lat="40.027447" lon="-8.444585">
        <ele>181.815</ele>
        <time>2015-03-21T15:50:33Z</time>
      </trkpt>
      <trkpt lat="40.027690" lon="-8.444578">
        <ele>181.888</ele>
        <time>2015-03-21T15:50:39Z</time>
      </trkpt>
      <trkpt lat="40.027907" lon="-8.444904">
        <ele>181.830</ele>
        <time>2015-03-21T15:50:47Z</time>
      </trkpt>
      <trkpt lat="40.027952" lon="-8.446119">
        <ele>180.950</ele>
        <time>2015-03-21T15:51:06Z</time>
      </trkpt>
      <trkpt lat="40.027946" lon="-8.446904">
        <ele>179.448</ele>
        <time>2015-03-21T15:51:19Z</time>
      </trkpt>
      <trkpt lat="40.027969" lon="-8.447093">
        <ele>179.483</ele>
        <time>2015-03-21T15:51:22Z</time>
      </trkpt>
      <trkpt lat="40.028042" lon="-8.447309">
        <ele>178.910</ele>
        <time>2015-03-21T15:51:26Z</time>
      </trkpt>
      <trkpt lat="40.028164" lon="-8.447554">
        <ele>178.954</ele>
        <time>2015-03-21T15:51:31Z</time>
      </trkpt>
      <trkpt lat="40.028179" lon="-8.447891">
        <ele>178.556</ele>
        <time>2015-03-21T15:51:37Z</time>
      </trkpt>
      <trkpt lat="40.028145" lon="-8.448368">
        <ele>178.511</ele>
        <time>2015-03-21T15:51:46Z</time>
      </trkpt>
      <trkpt lat="40.028167" lon="-8.449092">
        <ele>178.507</ele>
        <time>2015-03-21T15:51:58Z</time>
      </trkpt>
      <trkpt lat="40.028492" lon="-8.450057">
        <ele>178.534</ele>
        <time>2015-03-21T15:52:16Z</time>
      </trkpt>
      <trkpt lat="40.028584" lon="-8.450256">
        <ele>178.587</ele>
        <time>2015-03-21T15:52:20Z</time>
      </trkpt>
      <trkpt lat="40.028633" lon="-8.450722">
        <ele>180.969</ele>
        <time>2015-03-21T15:52:32Z</time>
      </trkpt>
      <trkpt lat="40.028660" lon="-8.451106">
        <ele>183.899</ele>
        <time>2015-03-21T15:52:46Z</time>
      </trkpt>
      <trkpt lat="40.028737" lon="-8.451527">
        <ele>186.267</ele>
        <time>2015-03-21T15:53:03Z</time>
      </trkpt>
      <trkpt lat="40.028834" lon="-8.451918">
        <ele>188.612</ele>
        <time>2015-03-21T15:53:19Z</time>
      </trkpt>
      <trkpt lat="40.028979" lon="-8.452297">
        <ele>192.489</ele>
        <time>2015-03-21T15:53:35Z</time>
      </trkpt>
      <trkpt lat="40.029120" lon="-8.452817">
        <ele>192.977</ele>
        <time>2015-03-21T15:53:50Z</time>
      </trkpt>
      <trkpt lat="40.029121" lon="-8.453567">
        <ele>191.961</ele>
        <time>2015-03-21T15:54:05Z</time>
      </trkpt>
      <trkpt lat="40.029125" lon="-8.454619">
        <ele>189.527</ele>
        <time>2015-03-21T15:54:23Z</time>
      </trkpt>
      <trkpt lat="40.029136" lon="-8.454886">
        <ele>188.607</ele>
        <time>2015-03-21T15:54:32Z</time>
      </trkpt>
      <trkpt lat="40.029258" lon="-8.454909">
        <ele>188.666</ele>
        <time>2015-03-21T15:54:41Z</time>
      </trkpt>
      <trkpt lat="40.029300" lon="-8.454975">
        <ele>188.159</ele>
        <time>2015-03-21T15:54:49Z</time>
      </trkpt>
      <trkpt lat="40.029656" lon="-8.454901">
        <ele>187.141</ele>
        <time>2015-03-21T15:55:45Z</time>
      </trkpt>
      <trkpt lat="40.029994" lon="-8.454881">
        <ele>185.741</ele>
        <time>2015-03-21T15:55:58Z</time>
      </trkpt>
      <trkpt lat="40.030231" lon="-8.454839">
        <ele>185.259</ele>
        <time>2015-03-21T15:56:51Z</time>
      </trkpt>
      <trkpt lat="40.030892" lon="-8.454888">
        <ele>183.844</ele>
        <time>2015-03-21T15:57:08Z</time>
      </trkpt>
      <trkpt lat="40.031071" lon="-8.454889">
        <ele>183.351</ele>
        <time>2015-03-21T15:57:12Z</time>
      </trkpt>
      <trkpt lat="40.031454" lon="-8.454792">
        <ele>182.389</ele>
        <time>2015-03-21T15:57:20Z</time>
      </trkpt>
      <trkpt lat="40.031693" lon="-8.454877">
        <ele>181.806</ele>
        <time>2015-03-21T15:57:25Z</time>
      </trkpt>
      <trkpt lat="40.032054" lon="-8.454806">
        <ele>180.926</ele>
        <time>2015-03-21T15:57:35Z</time>
      </trkpt>
      <trkpt lat="40.032058" lon="-8.454743">
        <ele>180.907</ele>
        <time>2015-03-21T15:57:36Z</time>
      </trkpt>
      <trkpt lat="40.032230" lon="-8.454000">
        <ele>179.957</ele>
        <time>2015-03-21T15:57:51Z</time>
      </trkpt>
      <trkpt lat="40.032447" lon="-8.453249">
        <ele>179.410</ele>
        <time>2015-03-21T15:58:07Z</time>
      </trkpt>
      <trkpt lat="40.032471" lon="-8.453152">
        <ele>179.462</ele>
        <time>2015-03-21T15:58:09Z</time>
      </trkpt>
      <trkpt lat="40.032751" lon="-8.452232">
        <ele>177.582</ele>
        <time>2015-03-21T15:58:28Z</time>
      </trkpt>
      <trkpt lat="40.032986" lon="-8.451339">
        <ele>177.020</ele>
        <time>2015-03-21T15:58:45Z</time>
      </trkpt>
      <trkpt lat="40.033128" lon="-8.450623">
        <ele>176.175</ele>
        <time>2015-03-21T15:58:58Z</time>
      </trkpt>
      <trkpt lat="40.033278" lon="-8.449504">
        <ele>175.662</ele>
        <time>2015-03-21T15:59:19Z</time>
      </trkpt>
      <trkpt lat="40.033437" lon="-8.448727">
        <ele>175.139</ele>
        <time>2015-03-21T15:59:34Z</time>
      </trkpt>
      <trkpt lat="40.033686" lon="-8.447666">
        <ele>175.101</ele>
        <time>2015-03-21T15:59:55Z</time>
      </trkpt>
      <trkpt lat="40.033716" lon="-8.446877">
        <ele>175.121</ele>
        <time>2015-03-21T16:00:10Z</time>
      </trkpt>
      <trkpt lat="40.033627" lon="-8.445824">
        <ele>175.107</ele>
        <time>2015-03-21T16:00:30Z</time>
      </trkpt>
      <trkpt lat="40.033642" lon="-8.444851">
        <ele>176.182</ele>
        <time>2015-03-21T16:00:48Z</time>
      </trkpt>
      <trkpt lat="40.033903" lon="-8.444747">
        <ele>176.195</ele>
        <time>2015-03-21T16:00:55Z</time>
      </trkpt>
      <trkpt lat="40.034600" lon="-8.444978">
        <ele>176.127</ele>
        <time>2015-03-21T16:01:11Z</time>
      </trkpt>
      <trkpt lat="40.035124" lon="-8.445144">
        <ele>176.187</ele>
        <time>2015-03-21T16:01:23Z</time>
      </trkpt>
      <trkpt lat="40.035785" lon="-8.445398">
        <ele>174.655</ele>
        <time>2015-03-21T16:01:38Z</time>
      </trkpt>
      <trkpt lat="40.035999" lon="-8.445462">
        <ele>174.630</ele>
        <time>2015-03-21T16:01:43Z</time>
      </trkpt>
      <trkpt lat="40.036124" lon="-8.445486">
        <ele>174.647</ele>
        <time>2015-03-21T16:01:46Z</time>
      </trkpt>
      <trkpt lat="40.036881" lon="-8.445796">
        <ele>173.235</ele>
        <time>2015-03-21T16:02:04Z</time>
      </trkpt>
      <trkpt lat="40.037632" lon="-8.446081">
        <ele>172.286</ele>
        <time>2015-03-21T16:02:21Z</time>
      </trkpt>
      <trkpt lat="40.037723" lon="-8.446094">
        <ele>172.214</ele>
        <time>2015-03-21T16:02:23Z</time>
      </trkpt>
      <trkpt lat="40.038589" lon="-8.446360">
        <ele>171.707</ele>
        <time>2015-03-21T16:02:43Z</time>
      </trkpt>
      <trkpt lat="40.039328" lon="-8.446646">
        <ele>170.812</ele>
        <time>2015-03-21T16:02:59Z</time>
      </trkpt>
      <trkpt lat="40.040122" lon="-8.446943">
        <ele>169.865</ele>
        <time>2015-03-21T16:03:16Z</time>
      </trkpt>
      <trkpt lat="40.040987" lon="-8.447122">
        <ele>168.997</ele>
        <time>2015-03-21T16:03:34Z</time>
      </trkpt>
      <trkpt lat="40.041765" lon="-8.447239">
        <ele>167.917</ele>
        <time>2015-03-21T16:03:50Z</time>
      </trkpt>
      <trkpt lat="40.041940" lon="-8.447205">
        <ele>167.995</ele>
        <time>2015-03-21T16:03:54Z</time>
      </trkpt>
      <trkpt lat="40.042110" lon="-8.447275">
        <ele>167.430</ele>
        <time>2015-03-21T16:03:58Z</time>
      </trkpt>
      <trkpt lat="40.042381" lon="-8.447200">
        <ele>166.947</ele>
        <time>2015-03-21T16:04:06Z</time>
      </trkpt>
      <trkpt lat="40.042457" lon="-8.447079">
        <ele>166.523</ele>
        <time>2015-03-21T16:04:09Z</time>
      </trkpt>
      <trkpt lat="40.042549" lon="-8.446890">
        <ele>166.583</ele>
        <time>2015-03-21T16:04:13Z</time>
      </trkpt>
      <trkpt lat="40.042681" lon="-8.446745">
        <ele>166.511</ele>
        <time>2015-03-21T16:04:17Z</time>
      </trkpt>
      <trkpt lat="40.043378" lon="-8.446598">
        <ele>166.007</ele>
        <time>2015-03-21T16:04:33Z</time>
      </trkpt>
      <trkpt lat="40.044056" lon="-8.446778">
        <ele>166.061</ele>
        <time>2015-03-21T16:04:49Z</time>
      </trkpt>
      <trkpt lat="40.044469" lon="-8.447095">
        <ele>166.014</ele>
        <time>2015-03-21T16:05:00Z</time>
      </trkpt>
      <trkpt lat="40.044720" lon="-8.447339">
        <ele>166.026</ele>
        <time>2015-03-21T16:05:07Z</time>
      </trkpt>
      <trkpt lat="40.045155" lon="-8.447908">
        <ele>165.596</ele>
        <time>2015-03-21T16:05:21Z</time>
      </trkpt>
      <trkpt lat="40.045558" lon="-8.448367">
        <ele>165.584</ele>
        <time>2015-03-21T16:05:34Z</time>
      </trkpt>
      <trkpt lat="40.045700" lon="-8.448425">
        <ele>165.599</ele>
        <time>2015-03-21T16:05:37Z</time>
      </trkpt>
      <trkpt lat="40.045905" lon="-8.448413">
        <ele>165.066</ele>
        <time>2015-03-21T16:05:41Z</time>
      </trkpt>
      <trkpt lat="40.046000" lon="-8.448367">
        <ele>165.092</ele>
        <time>2015-03-21T16:05:43Z</time>
      </trkpt>
      <trkpt lat="40.046088" lon="-8.448311">
        <ele>164.573</ele>
        <time>2015-03-21T16:05:45Z</time>
      </trkpt>
      <trkpt lat="40.046464" lon="-8.447945">
        <ele>164.020</ele>
        <time>2015-03-21T16:05:56Z</time>
      </trkpt>
      <trkpt lat="40.046810" lon="-8.447589">
        <ele>164.007</ele>
        <time>2015-03-21T16:06:06Z</time>
      </trkpt>
      <trkpt lat="40.046930" lon="-8.447413">
        <ele>164.058</ele>
        <time>2015-03-21T16:06:10Z</time>
      </trkpt>
      <trkpt lat="40.047115" lon="-8.447246">
        <ele>163.611</ele>
        <time>2015-03-21T16:06:15Z</time>
      </trkpt>
      <trkpt lat="40.047279" lon="-8.447165">
        <ele>163.613</ele>
        <time>2015-03-21T16:06:19Z</time>
      </trkpt>
      <trkpt lat="40.047529" lon="-8.447081">
        <ele>163.683</ele>
        <time>2015-03-21T16:06:25Z</time>
      </trkpt>
      <trkpt lat="40.047706" lon="-8.447055">
        <ele>163.651</ele>
        <time>2015-03-21T16:06:29Z</time>
      </trkpt>
      <trkpt lat="40.047835" lon="-8.447081">
        <ele>163.636</ele>
        <time>2015-03-21T16:06:32Z</time>
      </trkpt>
      <trkpt lat="40.048576" lon="-8.447216">
        <ele>163.123</ele>
        <time>2015-03-21T16:06:49Z</time>
      </trkpt>
      <trkpt lat="40.048661" lon="-8.447223">
        <ele>163.177</ele>
        <time>2015-03-21T16:06:51Z</time>
      </trkpt>
      <trkpt lat="40.048833" lon="-8.447225">
        <ele>162.661</ele>
        <time>2015-03-21T16:06:55Z</time>
      </trkpt>
      <trkpt lat="40.048915" lon="-8.447211">
        <ele>162.627</ele>
        <time>2015-03-21T16:06:57Z</time>
      </trkpt>
      <trkpt lat="40.049286" lon="-8.447316">
        <ele>164.007</ele>
        <time>2015-03-21T16:07:09Z</time>
      </trkpt>
      <trkpt lat="40.049518" lon="-8.447392">
        <ele>167.426</ele>
        <time>2015-03-21T16:07:23Z</time>
      </trkpt>
      <trkpt lat="40.049842" lon="-8.447238">
        <ele>167.939</ele>
        <time>2015-03-21T16:07:37Z</time>
      </trkpt>
      <trkpt lat="40.049978" lon="-8.447115">
        <ele>166.521</ele>
        <time>2015-03-21T16:07:41Z</time>
      </trkpt>
      <trkpt lat="40.050284" lon="-8.446779">
        <ele>163.181</ele>
        <time>2015-03-21T16:07:48Z</time>
      </trkpt>
      <trkpt lat="40.050335" lon="-8.446722">
        <ele>163.129</ele>
        <time>2015-03-21T16:07:49Z</time>
      </trkpt>
      <trkpt lat="40.050438" lon="-8.446613">
        <ele>162.134</ele>
        <time>2015-03-21T16:07:51Z</time>
      </trkpt>
      <trkpt lat="40.050650" lon="-8.446500">
        <ele>162.141</ele>
        <time>2015-03-21T16:07:55Z</time>
      </trkpt>
      <trkpt lat="40.051285" lon="-8.446332">
        <ele>162.182</ele>
        <time>2015-03-21T16:08:11Z</time>
      </trkpt>
      <trkpt lat="40.051937" lon="-8.446121">
        <ele>161.643</ele>
        <time>2015-03-21T16:08:28Z</time>
      </trkpt>
      <trkpt lat="40.052553" lon="-8.445904">
        <ele>160.217</ele>
        <time>2015-03-21T16:08:43Z</time>
      </trkpt>
      <trkpt lat="40.053087" lon="-8.445868">
        <ele>160.707</ele>
        <time>2015-03-21T16:08:55Z</time>
      </trkpt>
      <trkpt lat="40.053426" lon="-8.445864">
        <ele>162.187</ele>
        <time>2015-03-21T16:09:09Z</time>
      </trkpt>
      <trkpt lat="40.053504" lon="-8.445856">
        <ele>162.640</ele>
        <time>2015-03-21T16:09:13Z</time>
      </trkpt>
      <trkpt lat="40.053581" lon="-8.445921">
        <ele>162.682</ele>
        <time>2015-03-21T16:11:05Z</time>
      </trkpt>
      <trkpt lat="40.053835" lon="-8.446006">
        <ele>165.092</ele>
        <time>2015-03-21T16:11:18Z</time>
      </trkpt>
      <trkpt lat="40.054202" lon="-8.446114">
        <ele>167.410</ele>
        <time>2015-03-21T16:11:33Z</time>
      </trkpt>
      <trkpt lat="40.054506" lon="-8.446036">
        <ele>169.325</ele>
        <time>2015-03-21T16:11:47Z</time>
      </trkpt>
      <trkpt lat="40.054701" lon="-8.446012">
        <ele>171.332</ele>
        <time>2015-03-21T16:11:57Z</time>
      </trkpt>
      <trkpt lat="40.054822" lon="-8.446248">
        <ele>171.728</ele>
        <time>2015-03-21T16:12:08Z</time>
      </trkpt>
      <trkpt lat="40.054886" lon="-8.446211">
        <ele>171.789</ele>
        <time>2015-03-21T16:12:12Z</time>
      </trkpt>
      <trkpt lat="40.055308" lon="-8.446175">
        <ele>173.217</ele>
        <time>2015-03-21T16:12:29Z</time>
      </trkpt>
      <trkpt lat="40.055553" lon="-8.446124">
        <ele>173.207</ele>
        <time>2015-03-21T16:12:40Z</time>
      </trkpt>
      <trkpt lat="40.055616" lon="-8.446129">
        <ele>173.771</ele>
        <time>2015-03-21T16:12:52Z</time>
      </trkpt>
      <trkpt lat="40.055917" lon="-8.446438">
        <ele>172.724</ele>
        <time>2015-03-21T16:13:21Z</time>
      </trkpt>
      <trkpt lat="40.056217" lon="-8.447054">
        <ele>171.336</ele>
        <time>2015-03-21T16:13:36Z</time>
      </trkpt>
      <trkpt lat="40.056301" lon="-8.447245">
        <ele>170.836</ele>
        <time>2015-03-21T16:13:40Z</time>
      </trkpt>
      <trkpt lat="40.056459" lon="-8.447816">
        <ele>167.484</ele>
        <time>2015-03-21T16:13:48Z</time>
      </trkpt>
      <trkpt lat="40.056596" lon="-8.448205">
        <ele>166.519</ele>
        <time>2015-03-21T16:13:53Z</time>
      </trkpt>
      <trkpt lat="40.056836" lon="-8.448888">
        <ele>162.656</ele>
        <time>2015-03-21T16:14:01Z</time>
      </trkpt>
      <trkpt lat="40.056869" lon="-8.448972">
        <ele>162.183</ele>
        <time>2015-03-21T16:14:02Z</time>
      </trkpt>
      <trkpt lat="40.056954" lon="-8.449448">
        <ele>157.825</ele>
        <time>2015-03-21T16:14:07Z</time>
      </trkpt>
      <trkpt lat="40.057095" lon="-8.449806">
        <ele>155.917</ele>
        <time>2015-03-21T16:14:11Z</time>
      </trkpt>
      <trkpt lat="40.057206" lon="-8.449940">
        <ele>155.407</ele>
        <time>2015-03-21T16:14:13Z</time>
      </trkpt>
      <trkpt lat="40.057526" lon="-8.450146">
        <ele>155.427</ele>
        <time>2015-03-21T16:14:18Z</time>
      </trkpt>
      <trkpt lat="40.057685" lon="-8.450491">
        <ele>155.470</ele>
        <time>2015-03-21T16:14:24Z</time>
      </trkpt>
      <trkpt lat="40.057672" lon="-8.450605">
        <ele>155.492</ele>
        <time>2015-03-21T16:14:26Z</time>
      </trkpt>
      <trkpt lat="40.057763" lon="-8.450822">
        <ele>154.982</ele>
        <time>2015-03-21T16:14:31Z</time>
      </trkpt>
      <trkpt lat="40.057959" lon="-8.451145">
        <ele>156.480</ele>
        <time>2015-03-21T16:14:44Z</time>
      </trkpt>
      <trkpt lat="40.058054" lon="-8.451572">
        <ele>157.875</ele>
        <time>2015-03-21T16:15:02Z</time>
      </trkpt>
      <trkpt lat="40.058140" lon="-8.451913">
        <ele>160.282</ele>
        <time>2015-03-21T16:15:18Z</time>
      </trkpt>
      <trkpt lat="40.058285" lon="-8.452278">
        <ele>163.184</ele>
        <time>2015-03-21T16:15:36Z</time>
      </trkpt>
      <trkpt lat="40.058486" lon="-8.452608">
        <ele>164.507</ele>
        <time>2015-03-21T16:15:52Z</time>
      </trkpt>
      <trkpt lat="40.058805" lon="-8.452959">
        <ele>165.017</ele>
        <time>2015-03-21T16:16:08Z</time>
      </trkpt>
      <trkpt lat="40.059101" lon="-8.453242">
        <ele>165.007</ele>
        <time>2015-03-21T16:16:22Z</time>
      </trkpt>
      <trkpt lat="40.059282" lon="-8.453447">
        <ele>166.037</ele>
        <time>2015-03-21T16:16:34Z</time>
      </trkpt>
      <trkpt lat="40.059439" lon="-8.453769">
        <ele>168.990</ele>
        <time>2015-03-21T16:16:51Z</time>
      </trkpt>
      <trkpt lat="40.059630" lon="-8.454130">
        <ele>169.382</ele>
        <time>2015-03-21T16:17:08Z</time>
      </trkpt>
      <trkpt lat="40.059686" lon="-8.454169">
        <ele>169.872</ele>
        <time>2015-03-21T16:17:47Z</time>
      </trkpt>
      <trkpt lat="40.059782" lon="-8.454270">
        <ele>169.830</ele>
        <time>2015-03-21T16:17:52Z</time>
      </trkpt>
      <trkpt lat="40.059892" lon="-8.454329">
        <ele>168.465</ele>
        <time>2015-03-21T16:17:55Z</time>
      </trkpt>
      <trkpt lat="40.060291" lon="-8.454472">
        <ele>168.432</ele>
        <time>2015-03-21T16:18:09Z</time>
      </trkpt>
      <trkpt lat="40.060644" lon="-8.454749">
        <ele>168.413</ele>
        <time>2015-03-21T16:18:24Z</time>
      </trkpt>
      <trkpt lat="40.060975" lon="-8.455166">
        <ele>168.443</ele>
        <time>2015-03-21T16:18:39Z</time>
      </trkpt>
      <trkpt lat="40.061234" lon="-8.455748">
        <ele>168.407</ele>
        <time>2015-03-21T16:18:56Z</time>
      </trkpt>
      <trkpt lat="40.061273" lon="-8.455801">
        <ele>169.307</ele>
        <time>2015-03-21T16:18:58Z</time>
      </trkpt>
      <trkpt lat="40.061679" lon="-8.456408">
        <ele>169.320</ele>
        <time>2015-03-21T16:19:18Z</time>
      </trkpt>
      <trkpt lat="40.062051" lon="-8.456552">
        <ele>169.373</ele>
        <time>2015-03-21T16:19:29Z</time>
      </trkpt>
      <trkpt lat="40.062674" lon="-8.456525">
        <ele>170.845</ele>
        <time>2015-03-21T16:19:45Z</time>
      </trkpt>
      <trkpt lat="40.062969" lon="-8.456607">
        <ele>170.895</ele>
        <time>2015-03-21T16:19:52Z</time>
      </trkpt>
      <trkpt lat="40.063274" lon="-8.456836">
        <ele>169.393</ele>
        <time>2015-03-21T16:19:59Z</time>
      </trkpt>
      <trkpt lat="40.063566" lon="-8.457163">
        <ele>167.998</ele>
        <time>2015-03-21T16:20:06Z</time>
      </trkpt>
      <trkpt lat="40.064032" lon="-8.457435">
        <ele>169.325</ele>
        <time>2015-03-21T16:20:18Z</time>
      </trkpt>
      <trkpt lat="40.064729" lon="-8.457953">
        <ele>168.925</ele>
        <time>2015-03-21T16:20:37Z</time>
      </trkpt>
      <trkpt lat="40.065322" lon="-8.458610">
        <ele>166.526</ele>
        <time>2015-03-21T16:20:52Z</time>
      </trkpt>
      <trkpt lat="40.065999" lon="-8.458998">
        <ele>164.008</ele>
        <time>2015-03-21T16:21:04Z</time>
      </trkpt>
      <trkpt lat="40.066778" lon="-8.459598">
        <ele>162.107</ele>
        <time>2015-03-21T16:21:19Z</time>
      </trkpt>
      <trkpt lat="40.067403" lon="-8.460146">
        <ele>160.771</ele>
        <time>2015-03-21T16:21:34Z</time>
      </trkpt>
      <trkpt lat="40.068109" lon="-8.460745">
        <ele>159.254</ele>
        <time>2015-03-21T16:21:51Z</time>
      </trkpt>
      <trkpt lat="40.068196" lon="-8.460847">
        <ele>158.816</ele>
        <time>2015-03-21T16:21:59Z</time>
      </trkpt>
      <trkpt lat="40.068275" lon="-8.460887">
        <ele>158.826</ele>
        <time>2015-03-21T16:22:24Z</time>
      </trkpt>
      <trkpt lat="40.068697" lon="-8.461282">
        <ele>157.814</ele>
        <time>2015-03-21T16:22:37Z</time>
      </trkpt>
      <trkpt lat="40.069258" lon="-8.462261">
        <ele>155.939</ele>
        <time>2015-03-21T16:22:57Z</time>
      </trkpt>
      <trkpt lat="40.069491" lon="-8.462895">
        <ele>155.486</ele>
        <time>2015-03-21T16:23:09Z</time>
      </trkpt>
      <trkpt lat="40.069561" lon="-8.463304">
        <ele>154.449</ele>
        <time>2015-03-21T16:23:16Z</time>
      </trkpt>
      <trkpt lat="40.069734" lon="-8.463699">
        <ele>152.002</ele>
        <time>2015-03-21T16:23:22Z</time>
      </trkpt>
      <trkpt lat="40.069971" lon="-8.464277">
        <ele>148.222</ele>
        <time>2015-03-21T16:23:28Z</time>
      </trkpt>
      <trkpt lat="40.070586" lon="-8.465421">
        <ele>145.307</ele>
        <time>2015-03-21T16:23:41Z</time>
      </trkpt>
      <trkpt lat="40.071209" lon="-8.466492">
        <ele>144.893</ele>
        <time>2015-03-21T16:23:56Z</time>
      </trkpt>
      <trkpt lat="40.071707" lon="-8.467229">
        <ele>144.856</ele>
        <time>2015-03-21T16:24:12Z</time>
      </trkpt>
      <trkpt lat="40.071807" lon="-8.467333">
        <ele>144.848</ele>
        <time>2015-03-21T16:24:41Z</time>
      </trkpt>
      <trkpt lat="40.071760" lon="-8.467472">
        <ele>144.338</ele>
        <time>2015-03-21T16:26:34Z</time>
      </trkpt>
      <trkpt lat="40.071737" lon="-8.467651">
        <ele>143.456</ele>
        <time>2015-03-21T16:26:37Z</time>
      </trkpt>
      <trkpt lat="40.071441" lon="-8.468439">
        <ele>142.911</ele>
        <time>2015-03-21T16:26:52Z</time>
      </trkpt>
      <trkpt lat="40.071335" lon="-8.469106">
        <ele>142.998</ele>
        <time>2015-03-21T16:27:06Z</time>
      </trkpt>
      <trkpt lat="40.071228" lon="-8.469700">
        <ele>142.485</ele>
        <time>2015-03-21T16:27:19Z</time>
      </trkpt>
      <trkpt lat="40.071355" lon="-8.470196">
        <ele>142.489</ele>
        <time>2015-03-21T16:27:30Z</time>
      </trkpt>
      <trkpt lat="40.071562" lon="-8.470592">
        <ele>142.417</ele>
        <time>2015-03-21T16:27:39Z</time>
      </trkpt>
      <trkpt lat="40.071618" lon="-8.470837">
        <ele>142.407</ele>
        <time>2015-03-21T16:27:44Z</time>
      </trkpt>
      <trkpt lat="40.071633" lon="-8.471047">
        <ele>142.417</ele>
        <time>2015-03-21T16:27:48Z</time>
      </trkpt>
      <trkpt lat="40.071633" lon="-8.471262">
        <ele>142.480</ele>
        <time>2015-03-21T16:27:52Z</time>
      </trkpt>
      <trkpt lat="40.071647" lon="-8.471407">
        <ele>142.412</ele>
        <time>2015-03-21T16:27:55Z</time>
      </trkpt>
      <trkpt lat="40.071662" lon="-8.471619">
        <ele>142.472</ele>
        <time>2015-03-21T16:27:59Z</time>
      </trkpt>
      <trkpt lat="40.071691" lon="-8.471773">
        <ele>142.470</ele>
        <time>2015-03-21T16:28:02Z</time>
      </trkpt>
      <trkpt lat="40.071775" lon="-8.472031">
        <ele>141.925</ele>
        <time>2015-03-21T16:28:07Z</time>
      </trkpt>
      <trkpt lat="40.071883" lon="-8.472233">
        <ele>141.522</ele>
        <time>2015-03-21T16:28:12Z</time>
      </trkpt>
      <trkpt lat="40.072173" lon="-8.472533">
        <ele>141.971</ele>
        <time>2015-03-21T16:28:23Z</time>
      </trkpt>
      <trkpt lat="40.072336" lon="-8.473036">
        <ele>141.541</ele>
        <time>2015-03-21T16:28:35Z</time>
      </trkpt>
      <trkpt lat="40.072529" lon="-8.473302">
        <ele>141.515</ele>
        <time>2015-03-21T16:28:45Z</time>
      </trkpt>
      <trkpt lat="40.072742" lon="-8.473390">
        <ele>140.507</ele>
        <time>2015-03-21T16:28:51Z</time>
      </trkpt>
      <trkpt lat="40.072923" lon="-8.473577">
        <ele>140.516</ele>
        <time>2015-03-21T16:29:00Z</time>
      </trkpt>
      <trkpt lat="40.073031" lon="-8.473679">
        <ele>140.559</ele>
        <time>2015-03-21T16:29:06Z</time>
      </trkpt>
      <trkpt lat="40.073152" lon="-8.473730">
        <ele>140.561</ele>
        <time>2015-03-21T16:29:11Z</time>
      </trkpt>
      <trkpt lat="40.073501" lon="-8.474072">
        <ele>140.541</ele>
        <time>2015-03-21T16:29:24Z</time>
      </trkpt>
      <trkpt lat="40.073843" lon="-8.474330">
        <ele>140.549</ele>
        <time>2015-03-21T16:29:37Z</time>
      </trkpt>
      <trkpt lat="40.074199" lon="-8.474363">
        <ele>139.524</ele>
        <time>2015-03-21T16:29:48Z</time>
      </trkpt>
      <trkpt lat="40.074549" lon="-8.474547">
        <ele>139.551</ele>
        <time>2015-03-21T16:30:00Z</time>
      </trkpt>
      <trkpt lat="40.074809" lon="-8.474695">
        <ele>139.593</ele>
        <time>2015-03-21T16:30:09Z</time>
      </trkpt>
      <trkpt lat="40.074998" lon="-8.474776">
        <ele>139.565</ele>
        <time>2015-03-21T16:30:18Z</time>
      </trkpt>
      <trkpt lat="40.075113" lon="-8.474844">
        <ele>139.521</ele>
        <time>2015-03-21T16:30:28Z</time>
      </trkpt>
      <trkpt lat="40.075188" lon="-8.474897">
        <ele>139.507</ele>
        <time>2015-03-21T16:30:50Z</time>
      </trkpt>
      <trkpt lat="40.075453" lon="-8.475086">
        <ele>139.558</ele>
        <time>2015-03-21T16:31:01Z</time>
      </trkpt>
      <trkpt lat="40.075717" lon="-8.475219">
        <ele>139.531</ele>
        <time>2015-03-21T16:31:11Z</time>
      </trkpt>
      <trkpt lat="40.075917" lon="-8.475233">
        <ele>139.543</ele>
        <time>2015-03-21T16:31:19Z</time>
      </trkpt>
      <trkpt lat="40.075963" lon="-8.475214">
        <ele>139.543</ele>
        <time>2015-03-21T16:31:23Z</time>
      </trkpt>
      <trkpt lat="40.076052" lon="-8.475362">
        <ele>139.181</ele>
        <time>2015-03-21T16:31:30Z</time>
      </trkpt>
      <trkpt lat="40.076191" lon="-8.475558">
        <ele>139.166</ele>
        <time>2015-03-21T16:31:37Z</time>
      </trkpt>
      <trkpt lat="40.076524" lon="-8.475465">
        <ele>138.673</ele>
        <time>2015-03-21T16:31:49Z</time>
      </trkpt>
      <trkpt lat="40.076735" lon="-8.475443">
        <ele>138.652</ele>
        <time>2015-03-21T16:32:00Z</time>
      </trkpt>
      <trkpt lat="40.076987" lon="-8.475467">
        <ele>138.653</ele>
        <time>2015-03-21T16:32:11Z</time>
      </trkpt>
      <trkpt lat="40.077317" lon="-8.475733">
        <ele>138.608</ele>
        <time>2015-03-21T16:32:26Z</time>
      </trkpt>
      <trkpt lat="40.077582" lon="-8.476171">
        <ele>138.607</ele>
        <time>2015-03-21T16:32:42Z</time>
      </trkpt>
      <trkpt lat="40.077658" lon="-8.476615">
        <ele>138.674</ele>
        <time>2015-03-21T16:32:54Z</time>
      </trkpt>
      <trkpt lat="40.077968" lon="-8.476897">
        <ele>138.187</ele>
        <time>2015-03-21T16:33:06Z</time>
      </trkpt>
      <trkpt lat="40.078424" lon="-8.477129">
        <ele>138.679</ele>
        <time>2015-03-21T16:33:20Z</time>
      </trkpt>
      <trkpt lat="40.078691" lon="-8.477439">
        <ele>138.639</ele>
        <time>2015-03-21T16:33:31Z</time>
      </trkpt>
      <trkpt lat="40.078650" lon="-8.477684">
        <ele>138.617</ele>
        <time>2015-03-21T16:33:39Z</time>
      </trkpt>
      <trkpt lat="40.078406" lon="-8.477808">
        <ele>139.522</ele>
        <time>2015-03-21T16:33:52Z</time>
      </trkpt>
      <trkpt lat="40.078364" lon="-8.477879">
        <ele>141.039</ele>
        <time>2015-03-21T16:33:57Z</time>
      </trkpt>
      <trkpt lat="40.078354" lon="-8.477976">
        <ele>142.459</ele>
        <time>2015-03-21T16:34:03Z</time>
      </trkpt>
      <trkpt lat="40.078392" lon="-8.478062">
        <ele>143.403</ele>
        <time>2015-03-21T16:34:09Z</time>
      </trkpt>
      <trkpt lat="40.078485" lon="-8.478266">
        <ele>147.223</ele>
        <time>2015-03-21T16:34:23Z</time>
      </trkpt>
      <trkpt lat="40.078540" lon="-8.478322">
        <ele>147.707</ele>
        <time>2015-03-21T16:34:28Z</time>
      </trkpt>
      <trkpt lat="40.078768" lon="-8.478538">
        <ele>149.184</ele>
        <time>2015-03-21T16:34:45Z</time>
      </trkpt>
      <trkpt lat="40.079090" lon="-8.478758">
        <ele>150.197</ele>
        <time>2015-03-21T16:35:00Z</time>
      </trkpt>
      <trkpt lat="40.079458" lon="-8.478984">
        <ele>151.149</ele>
        <time>2015-03-21T16:35:17Z</time>
      </trkpt>
      <trkpt lat="40.079838" lon="-8.479198">
        <ele>151.559</ele>
        <time>2015-03-21T16:35:32Z</time>
      </trkpt>
      <trkpt lat="40.079917" lon="-8.479227">
        <ele>151.557</ele>
        <time>2015-03-21T16:35:34Z</time>
      </trkpt>
      <trkpt lat="40.080001" lon="-8.479262">
        <ele>150.622</ele>
        <time>2015-03-21T16:35:36Z</time>
      </trkpt>
      <trkpt lat="40.080248" lon="-8.479333">
        <ele>148.219</ele>
        <time>2015-03-21T16:35:41Z</time>
      </trkpt>
      <trkpt lat="40.080366" lon="-8.479389">
        <ele>147.237</ele>
        <time>2015-03-21T16:35:43Z</time>
      </trkpt>
      <trkpt lat="40.080955" lon="-8.479967">
        <ele>143.949</ele>
        <time>2015-03-21T16:35:54Z</time>
      </trkpt>
      <trkpt lat="40.081372" lon="-8.480788">
        <ele>141.513</ele>
        <time>2015-03-21T16:36:05Z</time>
      </trkpt>
      <trkpt lat="40.081464" lon="-8.480949">
        <ele>141.507</ele>
        <time>2015-03-21T16:36:08Z</time>
      </trkpt>
      <trkpt lat="40.081612" lon="-8.481331">
        <ele>142.972</ele>
        <time>2015-03-21T16:36:19Z</time>
      </trkpt>
      <trkpt lat="40.081687" lon="-8.481593">
        <ele>144.815</ele>
        <time>2015-03-21T16:36:32Z</time>
      </trkpt>
      <trkpt lat="40.081801" lon="-8.481874">
        <ele>146.317</ele>
        <time>2015-03-21T16:36:47Z</time>
      </trkpt>
      <trkpt lat="40.081820" lon="-8.481937">
        <ele>146.357</ele>
        <time>2015-03-21T16:37:10Z</time>
      </trkpt>
      <trkpt lat="40.081864" lon="-8.481993">
        <ele>146.335</ele>
        <time>2015-03-21T16:37:12Z</time>
      </trkpt>
      <trkpt lat="40.081915" lon="-8.482077">
        <ele>144.850</ele>
        <time>2015-03-21T16:37:14Z</time>
      </trkpt>
      <trkpt lat="40.082091" lon="-8.482349">
        <ele>141.597</ele>
        <time>2015-03-21T16:37:19Z</time>
      </trkpt>
      <trkpt lat="40.082277" lon="-8.482603">
        <ele>138.665</ele>
        <time>2015-03-21T16:37:23Z</time>
      </trkpt>
      <trkpt lat="40.082418" lon="-8.482860">
        <ele>137.168</ele>
        <time>2015-03-21T16:37:26Z</time>
      </trkpt>
      <trkpt lat="40.082685" lon="-8.483499">
        <ele>136.614</ele>
        <time>2015-03-21T16:37:34Z</time>
      </trkpt>
      <trkpt lat="40.082869" lon="-8.483735">
        <ele>136.207</ele>
        <time>2015-03-21T16:37:39Z</time>
      </trkpt>
      <trkpt lat="40.082936" lon="-8.483838">
        <ele>136.245</ele>
        <time>2015-03-21T16:37:41Z</time>
      </trkpt>
      <trkpt lat="40.083092" lon="-8.484139">
        <ele>135.758</ele>
        <time>2015-03-21T16:37:47Z</time>
      </trkpt>
      <trkpt lat="40.083410" lon="-8.484446">
        <ele>135.770</ele>
        <time>2015-03-21T16:38:00Z</time>
      </trkpt>
      <trkpt lat="40.083764" lon="-8.484306">
        <ele>135.730</ele>
        <time>2015-03-21T16:38:11Z</time>
      </trkpt>
      <trkpt lat="40.084175" lon="-8.483881">
        <ele>134.768</ele>
        <time>2015-03-21T16:38:26Z</time>
      </trkpt>
      <trkpt lat="40.084236" lon="-8.483750">
        <ele>134.773</ele>
        <time>2015-03-21T16:38:33Z</time>
      </trkpt>
      <trkpt lat="40.084288" lon="-8.483690">
        <ele>136.660</ele>
        <time>2015-03-21T16:38:37Z</time>
      </trkpt>
      <trkpt lat="40.084463" lon="-8.483450">
        <ele>140.053</ele>
        <time>2015-03-21T16:38:54Z</time>
      </trkpt>
      <trkpt lat="40.084544" lon="-8.483340">
        <ele>141.904</ele>
        <time>2015-03-21T16:39:05Z</time>
      </trkpt>
      <trkpt lat="40.084605" lon="-8.483336">
        <ele>142.914</ele>
        <time>2015-03-21T16:39:11Z</time>
      </trkpt>
      <trkpt lat="40.084830" lon="-8.483341">
        <ele>145.807</ele>
        <time>2015-03-21T16:39:29Z</time>
      </trkpt>
      <trkpt lat="40.085006" lon="-8.483343">
        <ele>147.274</ele>
        <time>2015-03-21T16:39:42Z</time>
      </trkpt>
      <trkpt lat="40.085056" lon="-8.483342">
        <ele>148.277</ele>
        <time>2015-03-21T16:39:46Z</time>
      </trkpt>
      <trkpt lat="40.085267" lon="-8.483370">
        <ele>150.619</ele>
        <time>2015-03-21T16:40:02Z</time>
      </trkpt>
      <trkpt lat="40.085459" lon="-8.483381">
        <ele>153.069</ele>
        <time>2015-03-21T16:40:17Z</time>
      </trkpt>
      <trkpt lat="40.085521" lon="-8.483404">
        <ele>153.547</ele>
        <time>2015-03-21T16:40:22Z</time>
      </trkpt>
      <trkpt lat="40.085757" lon="-8.483492">
        <ele>155.432</ele>
        <time>2015-03-21T16:40:40Z</time>
      </trkpt>
      <trkpt lat="40.085932" lon="-8.483694">
        <ele>158.339</ele>
        <time>2015-03-21T16:40:58Z</time>
      </trkpt>
      <trkpt lat="40.085990" lon="-8.483766">
        <ele>159.277</ele>
        <time>2015-03-21T16:41:04Z</time>
      </trkpt>
      <trkpt lat="40.086132" lon="-8.484020">
        <ele>159.261</ele>
        <time>2015-03-21T16:41:18Z</time>
      </trkpt>
      <trkpt lat="40.086322" lon="-8.484419">
        <ele>160.227</ele>
        <time>2015-03-21T16:41:36Z</time>
      </trkpt>
      <trkpt lat="40.086500" lon="-8.484686">
        <ele>161.207</ele>
        <time>2015-03-21T16:41:51Z</time>
      </trkpt>
      <trkpt lat="40.086651" lon="-8.484979">
        <ele>162.666</ele>
        <time>2015-03-21T16:42:08Z</time>
      </trkpt>
      <trkpt lat="40.086686" lon="-8.485042">
        <ele>162.649</ele>
        <time>2015-03-21T16:42:12Z</time>
      </trkpt>
      <trkpt lat="40.086914" lon="-8.485327">
        <ele>164.061</ele>
        <time>2015-03-21T16:42:32Z</time>
      </trkpt>
      <trkpt lat="40.087111" lon="-8.485550">
        <ele>166.041</ele>
        <time>2015-03-21T16:42:49Z</time>
      </trkpt>
      <trkpt lat="40.087230" lon="-8.485728">
        <ele>167.479</ele>
        <time>2015-03-21T16:43:01Z</time>
      </trkpt>
      <trkpt lat="40.087289" lon="-8.485786">
        <ele>167.964</ele>
        <time>2015-03-21T16:43:06Z</time>
      </trkpt>
      <trkpt lat="40.087503" lon="-8.485980">
        <ele>169.321</ele>
        <time>2015-03-21T16:43:21Z</time>
      </trkpt>
      <trkpt lat="40.087726" lon="-8.486147">
        <ele>170.827</ele>
        <time>2015-03-21T16:43:37Z</time>
      </trkpt>
      <trkpt lat="40.088010" lon="-8.486273">
        <ele>172.768</ele>
        <time>2015-03-21T16:43:53Z</time>
      </trkpt>
      <trkpt lat="40.088348" lon="-8.486425">
        <ele>172.714</ele>
        <time>2015-03-21T16:44:07Z</time>
      </trkpt>
      <trkpt lat="40.088606" lon="-8.486596">
        <ele>173.707</ele>
        <time>2015-03-21T16:44:18Z</time>
      </trkpt>
      <trkpt lat="40.088880" lon="-8.486749">
        <ele>173.711</ele>
        <time>2015-03-21T16:44:29Z</time>
      </trkpt>
      <trkpt lat="40.089236" lon="-8.486947">
        <ele>173.784</ele>
        <time>2015-03-21T16:44:43Z</time>
      </trkpt>
      <trkpt lat="40.089555" lon="-8.487150">
        <ele>172.786</ele>
        <time>2015-03-21T16:44:55Z</time>
      </trkpt>
      <trkpt lat="40.089811" lon="-8.487302">
        <ele>172.736</ele>
        <time>2015-03-21T16:45:06Z</time>
      </trkpt>
      <trkpt lat="40.090023" lon="-8.487343">
        <ele>171.734</ele>
        <time>2015-03-21T16:45:12Z</time>
      </trkpt>
      <trkpt lat="40.090234" lon="-8.487379">
        <ele>170.899</ele>
        <time>2015-03-21T16:45:16Z</time>
      </trkpt>
      <trkpt lat="40.090442" lon="-8.487460">
        <ele>169.836</ele>
        <time>2015-03-21T16:45:20Z</time>
      </trkpt>
      <trkpt lat="40.090631" lon="-8.487586">
        <ele>169.835</ele>
        <time>2015-03-21T16:45:24Z</time>
      </trkpt>
      <trkpt lat="40.090773" lon="-8.487636">
        <ele>169.886</ele>
        <time>2015-03-21T16:45:27Z</time>
      </trkpt>
      <trkpt lat="40.091133" lon="-8.487917">
        <ele>170.314</ele>
        <time>2015-03-21T16:45:40Z</time>
      </trkpt>
      <trkpt lat="40.091198" lon="-8.488078">
        <ele>171.307</ele>
        <time>2015-03-21T16:45:45Z</time>
      </trkpt>
      <trkpt lat="40.091348" lon="-8.488528">
        <ele>170.872</ele>
        <time>2015-03-21T16:45:57Z</time>
      </trkpt>
      <trkpt lat="40.091382" lon="-8.488645">
        <ele>169.835</ele>
        <time>2015-03-21T16:46:05Z</time>
      </trkpt>
      <trkpt lat="40.091602" lon="-8.488864">
        <ele>166.977</ele>
        <time>2015-03-21T16:46:11Z</time>
      </trkpt>
      <trkpt lat="40.091678" lon="-8.488957">
        <ele>166.547</ele>
        <time>2015-03-21T16:46:13Z</time>
      </trkpt>
      <trkpt lat="40.091761" lon="-8.489069">
        <ele>165.025</ele>
        <time>2015-03-21T16:46:15Z</time>
      </trkpt>
      <trkpt lat="40.092037" lon="-8.489472">
        <ele>163.150</ele>
        <time>2015-03-21T16:46:21Z</time>
      </trkpt>
      <trkpt lat="40.092102" lon="-8.489612">
        <ele>163.187</ele>
        <time>2015-03-21T16:46:23Z</time>
      </trkpt>
      <trkpt lat="40.092515" lon="-8.489800">
        <ele>160.291</ele>
        <time>2015-03-21T16:46:31Z</time>
      </trkpt>
      <trkpt lat="40.092634" lon="-8.489849">
        <ele>160.281</ele>
        <time>2015-03-21T16:46:33Z</time>
      </trkpt>
      <trkpt lat="40.092885" lon="-8.490032">
        <ele>157.819</ele>
        <time>2015-03-21T16:46:37Z</time>
      </trkpt>
      <trkpt lat="40.093268" lon="-8.490640">
        <ele>155.907</ele>
        <time>2015-03-21T16:46:45Z</time>
      </trkpt>
      <trkpt lat="40.093641" lon="-8.490997">
        <ele>152.088</ele>
        <time>2015-03-21T16:46:52Z</time>
      </trkpt>
      <trkpt lat="40.093704" lon="-8.491044">
        <ele>150.631</ele>
        <time>2015-03-21T16:46:53Z</time>
      </trkpt>
      <trkpt lat="40.094078" lon="-8.491040">
        <ele>146.743</ele>
        <time>2015-03-21T16:46:59Z</time>
      </trkpt>
      <trkpt lat="40.094272" lon="-8.491067">
        <ele>145.373</ele>
        <time>2015-03-21T16:47:03Z</time>
      </trkpt>
      <trkpt lat="40.094487" lon="-8.491147">
        <ele>142.931</ele>
        <time>2015-03-21T16:47:08Z</time>
      </trkpt>
      <trkpt lat="40.094592" lon="-8.491149">
        <ele>142.956</ele>
        <time>2015-03-21T16:47:10Z</time>
      </trkpt>
      <trkpt lat="40.094705" lon="-8.491167">
        <ele>141.583</ele>
        <time>2015-03-21T16:47:12Z</time>
      </trkpt>
      <trkpt lat="40.094964" lon="-8.491334">
        <ele>139.156</ele>
        <time>2015-03-21T16:47:17Z</time>
      </trkpt>
      <trkpt lat="40.095043" lon="-8.491445">
        <ele>138.659</ele>
        <time>2015-03-21T16:47:19Z</time>
      </trkpt>
      <trkpt lat="40.095140" lon="-8.491599">
        <ele>137.114</ele>
        <time>2015-03-21T16:47:22Z</time>
      </trkpt>
      <trkpt lat="40.095402" lon="-8.491899">
        <ele>133.807</ele>
        <time>2015-03-21T16:47:28Z</time>
      </trkpt>
      <trkpt lat="40.095638" lon="-8.491980">
        <ele>129.464</ele>
        <time>2015-03-21T16:47:32Z</time>
      </trkpt>
      <trkpt lat="40.095768" lon="-8.492129">
        <ele>127.527</ele>
        <time>2015-03-21T16:47:35Z</time>
      </trkpt>
      <trkpt lat="40.095929" lon="-8.492469">
        <ele>125.149</ele>
        <time>2015-03-21T16:47:40Z</time>
      </trkpt>
      <trkpt lat="40.096095" lon="-8.492973">
        <ele>121.329</ele>
        <time>2015-03-21T16:47:49Z</time>
      </trkpt>
      <trkpt lat="40.096307" lon="-8.492920">
        <ele>119.867</ele>
        <time>2015-03-21T16:47:54Z</time>
      </trkpt>
      <trkpt lat="40.096416" lon="-8.492891">
        <ele>118.992</ele>
        <time>2015-03-21T16:47:57Z</time>
      </trkpt>
      <trkpt lat="40.096787" lon="-8.492783">
        <ele>114.529</ele>
        <time>2015-03-21T16:48:04Z</time>
      </trkpt>
      <trkpt lat="40.097196" lon="-8.492591">
        <ele>111.242</ele>
        <time>2015-03-21T16:48:10Z</time>
      </trkpt>
      <trkpt lat="40.097479" lon="-8.492508">
        <ele>110.722</ele>
        <time>2015-03-21T16:48:14Z</time>
      </trkpt>
      <trkpt lat="40.097607" lon="-8.492454">
        <ele>109.714</ele>
        <time>2015-03-21T16:48:16Z</time>
      </trkpt>
      <trkpt lat="40.097759" lon="-8.492257">
        <ele>107.807</ele>
        <time>2015-03-21T16:48:20Z</time>
      </trkpt>
      <trkpt lat="40.097826" lon="-8.492074">
        <ele>106.863</ele>
        <time>2015-03-21T16:48:23Z</time>
      </trkpt>
      <trkpt lat="40.097788" lon="-8.491872">
        <ele>105.916</ele>
        <time>2015-03-21T16:48:27Z</time>
      </trkpt>
      <trkpt lat="40.097701" lon="-8.491754">
        <ele>103.528</ele>
        <time>2015-03-21T16:48:31Z</time>
      </trkpt>
      <trkpt lat="40.097623" lon="-8.491577">
        <ele>99.288</ele>
        <time>2015-03-21T16:48:39Z</time>
      </trkpt>
      <trkpt lat="40.097669" lon="-8.491447">
        <ele>96.376</ele>
        <time>2015-03-21T16:48:46Z</time>
      </trkpt>
      <trkpt lat="40.097869" lon="-8.491352">
        <ele>95.821</ele>
        <time>2015-03-21T16:48:50Z</time>
      </trkpt>
      <trkpt lat="40.098035" lon="-8.491461">
        <ele>97.258</ele>
        <time>2015-03-21T16:49:02Z</time>
      </trkpt>
      <trkpt lat="40.098108" lon="-8.491595">
        <ele>99.272</ele>
        <time>2015-03-21T16:49:17Z</time>
      </trkpt>
      <trkpt lat="40.098185" lon="-8.491712">
        <ele>100.613</ele>
        <time>2015-03-21T16:49:30Z</time>
      </trkpt>
      <trkpt lat="40.098242" lon="-8.491817">
        <ele>102.014</ele>
        <time>2015-03-21T16:49:38Z</time>
      </trkpt>
      <trkpt lat="40.098329" lon="-8.492006">
        <ele>104.907</ele>
        <time>2015-03-21T16:49:53Z</time>
      </trkpt>
      <trkpt lat="40.098445" lon="-8.492208">
        <ele>107.816</ele>
        <time>2015-03-21T16:50:11Z</time>
      </trkpt>
      <trkpt lat="40.098474" lon="-8.492260">
        <ele>108.899</ele>
        <time>2015-03-21T16:50:16Z</time>
      </trkpt>
      <trkpt lat="40.098526" lon="-8.492413">
        <ele>110.731</ele>
        <time>2015-03-21T16:50:28Z</time>
      </trkpt>
      <trkpt lat="40.098596" lon="-8.492437">
        <ele>111.761</ele>
        <time>2015-03-21T16:50:36Z</time>
      </trkpt>
      <trkpt lat="40.098599" lon="-8.492309">
        <ele>112.639</ele>
        <time>2015-03-21T16:50:44Z</time>
      </trkpt>
      <trkpt lat="40.098577" lon="-8.492228">
        <ele>113.114</ele>
        <time>2015-03-21T16:50:50Z</time>
      </trkpt>
      <trkpt lat="40.098576" lon="-8.491957">
        <ele>115.541</ele>
        <time>2015-03-21T16:51:08Z</time>
      </trkpt>
      <trkpt lat="40.098540" lon="-8.491770">
        <ele>116.957</ele>
        <time>2015-03-21T16:51:20Z</time>
      </trkpt>
      <trkpt lat="40.098529" lon="-8.491698">
        <ele>116.900</ele>
        <time>2015-03-21T16:51:59Z</time>
      </trkpt>
      <trkpt lat="40.098497" lon="-8.491623">
        <ele>116.920</ele>
        <time>2015-03-21T16:52:04Z</time>
      </trkpt>
      <trkpt lat="40.098269" lon="-8.491221">
        <ele>116.907</ele>
        <time>2015-03-21T16:52:18Z</time>
      </trkpt>
      <trkpt lat="40.098089" lon="-8.490754">
        <ele>116.054</ele>
        <time>2015-03-21T16:52:30Z</time>
      </trkpt>
      <trkpt lat="40.098022" lon="-8.490451">
        <ele>116.927</ele>
        <time>2015-03-21T16:52:40Z</time>
      </trkpt>
      <trkpt lat="40.097999" lon="-8.490297">
        <ele>117.429</ele>
        <time>2015-03-21T16:52:45Z</time>
      </trkpt>
      <trkpt lat="40.098150" lon="-8.489877">
        <ele>119.819</ele>
        <time>2015-03-21T16:53:02Z</time>
      </trkpt>
      <trkpt lat="40.098223" lon="-8.489468">
        <ele>121.397</ele>
        <time>2015-03-21T16:53:16Z</time>
      </trkpt>
      <trkpt lat="40.098440" lon="-8.489269">
        <ele>122.712</ele>
        <time>2015-03-21T16:53:28Z</time>
      </trkpt>
      <trkpt lat="40.098811" lon="-8.489191">
        <ele>122.789</ele>
        <time>2015-03-21T16:53:41Z</time>
      </trkpt>
      <trkpt lat="40.098958" lon="-8.489166">
        <ele>122.764</ele>
        <time>2015-03-21T16:53:45Z</time>
      </trkpt>
      <trkpt lat="40.099176" lon="-8.489299">
        <ele>121.706</ele>
        <time>2015-03-21T16:53:51Z</time>
      </trkpt>
      <trkpt lat="40.099605" lon="-8.490022">
        <ele>120.316</ele>
        <time>2015-03-21T16:54:08Z</time>
      </trkpt>
      <trkpt lat="40.099822" lon="-8.490184">
        <ele>119.307</ele>
        <time>2015-03-21T16:54:13Z</time>
      </trkpt>
      <trkpt lat="40.100376" lon="-8.490541">
        <ele>116.585</ele>
        <time>2015-03-21T16:54:23Z</time>
      </trkpt>
      <trkpt lat="40.100645" lon="-8.490833">
        <ele>114.558</ele>
        <time>2015-03-21T16:54:28Z</time>
      </trkpt>
      <trkpt lat="40.100950" lon="-8.490819">
        <ele>114.110</ele>
        <time>2015-03-21T16:54:35Z</time>
      </trkpt>
      <trkpt lat="40.101120" lon="-8.490542">
        <ele>116.040</ele>
        <time>2015-03-21T16:54:46Z</time>
      </trkpt>
      <trkpt lat="40.101383" lon="-8.490118">
        <ele>117.938</ele>
        <time>2015-03-21T16:55:02Z</time>
      </trkpt>
      <trkpt lat="40.101655" lon="-8.489706">
        <ele>119.333</ele>
        <time>2015-03-21T16:55:18Z</time>
      </trkpt>
      <trkpt lat="40.101997" lon="-8.489221">
        <ele>120.890</ele>
        <time>2015-03-21T16:55:37Z</time>
      </trkpt>
      <trkpt lat="40.102274" lon="-8.488960">
        <ele>121.783</ele>
        <time>2015-03-21T16:55:52Z</time>
      </trkpt>
      <trkpt lat="40.102356" lon="-8.488610">
        <ele>123.725</ele>
        <time>2015-03-21T16:56:06Z</time>
      </trkpt>
      <trkpt lat="40.102607" lon="-8.488229">
        <ele>125.117</ele>
        <time>2015-03-21T16:56:22Z</time>
      </trkpt>
      <trkpt lat="40.102927" lon="-8.487768">
        <ele>127.007</ele>
        <time>2015-03-21T16:56:42Z</time>
      </trkpt>
      <trkpt lat="40.103256" lon="-8.487622">
        <ele>127.537</ele>
        <time>2015-03-21T16:56:57Z</time>
      </trkpt>
      <trkpt lat="40.103362" lon="-8.487367">
        <ele>127.080</ele>
        <time>2015-03-21T17:10:46Z</time>
      </trkpt>
      <trkpt lat="40.103579" lon="-8.486758">
        <ele>127.092</ele>
        <time>2015-03-21T17:11:02Z</time>
      </trkpt>
      <trkpt lat="40.103722" lon="-8.486318">
        <ele>128.072</ele>
        <time>2015-03-21T17:11:13Z</time>
      </trkpt>
      <trkpt lat="40.103979" lon="-8.485966">
        <ele>128.070</ele>
        <time>2015-03-21T17:11:22Z</time>
      </trkpt>
      <trkpt lat="40.104265" lon="-8.485620">
        <ele>126.135</ele>
        <time>2015-03-21T17:11:30Z</time>
      </trkpt>
      <trkpt lat="40.104532" lon="-8.484689">
        <ele>123.282</ele>
        <time>2015-03-21T17:11:42Z</time>
      </trkpt>
      <trkpt lat="40.104732" lon="-8.483721">
        <ele>122.248</ele>
        <time>2015-03-21T17:11:55Z</time>
      </trkpt>
      <trkpt lat="40.104793" lon="-8.483412">
        <ele>122.261</ele>
        <time>2015-03-21T17:12:00Z</time>
      </trkpt>
      <trkpt lat="40.104928" lon="-8.482314">
        <ele>121.717</ele>
        <time>2015-03-21T17:12:18Z</time>
      </trkpt>
      <trkpt lat="40.105059" lon="-8.481275">
        <ele>120.807</ele>
        <time>2015-03-21T17:12:35Z</time>
      </trkpt>
      <trkpt lat="40.105071" lon="-8.481216">
        <ele>120.823</ele>
        <time>2015-03-21T17:12:36Z</time>
      </trkpt>
      <trkpt lat="40.105211" lon="-8.481063">
        <ele>120.856</ele>
        <time>2015-03-21T17:12:41Z</time>
      </trkpt>
      <trkpt lat="40.105625" lon="-8.481185">
        <ele>121.738</ele>
        <time>2015-03-21T17:12:57Z</time>
      </trkpt>
      <trkpt lat="40.106080" lon="-8.481301">
        <ele>124.258</ele>
        <time>2015-03-21T17:13:15Z</time>
      </trkpt>
      <trkpt lat="40.106416" lon="-8.481379">
        <ele>124.246</ele>
        <time>2015-03-21T17:13:26Z</time>
      </trkpt>
      <trkpt lat="40.106492" lon="-8.481175">
        <ele>124.281</ele>
        <time>2015-03-21T17:13:31Z</time>
      </trkpt>
      <trkpt lat="40.106504" lon="-8.480675">
        <ele>122.278</ele>
        <time>2015-03-21T17:13:39Z</time>
      </trkpt>
      <trkpt lat="40.106868" lon="-8.479884">
        <ele>121.731</ele>
        <time>2015-03-21T17:13:55Z</time>
      </trkpt>
      <trkpt lat="40.107452" lon="-8.479399">
        <ele>120.861</ele>
        <time>2015-03-21T17:14:11Z</time>
      </trkpt>
      <trkpt lat="40.107650" lon="-8.479246">
        <ele>119.807</ele>
        <time>2015-03-21T17:14:15Z</time>
      </trkpt>
      <trkpt lat="40.107894" lon="-8.479055">
        <ele>117.407</ele>
        <time>2015-03-21T17:14:20Z</time>
      </trkpt>
      <trkpt lat="40.108098" lon="-8.478846">
        <ele>116.062</ele>
        <time>2015-03-21T17:14:24Z</time>
      </trkpt>
      <trkpt lat="40.108217" lon="-8.478745">
        <ele>115.025</ele>
        <time>2015-03-21T17:14:26Z</time>
      </trkpt>
      <trkpt lat="40.108709" lon="-8.478527">
        <ele>114.127</ele>
        <time>2015-03-21T17:14:33Z</time>
      </trkpt>
      <trkpt lat="40.108941" lon="-8.478322">
        <ele>114.127</ele>
        <time>2015-03-21T17:14:38Z</time>
      </trkpt>
      <trkpt lat="40.109740" lon="-8.478028">
        <ele>113.625</ele>
        <time>2015-03-21T17:14:56Z</time>
      </trkpt>
      <trkpt lat="40.110612" lon="-8.477701">
        <ele>113.680</ele>
        <time>2015-03-21T17:15:17Z</time>
      </trkpt>
      <trkpt lat="40.111423" lon="-8.477430">
        <ele>113.677</ele>
        <time>2015-03-21T17:15:36Z</time>
      </trkpt>
      <trkpt lat="40.112376" lon="-8.477091">
        <ele>113.699</ele>
        <time>2015-03-21T17:15:58Z</time>
      </trkpt>
      <trkpt lat="40.113033" lon="-8.476769">
        <ele>113.607</ele>
        <time>2015-03-21T17:16:13Z</time>
      </trkpt>
      <trkpt lat="40.113239" lon="-8.476525">
        <ele>113.127</ele>
        <time>2015-03-21T17:16:19Z</time>
      </trkpt>
      <trkpt lat="40.113413" lon="-8.476390">
        <ele>112.607</ele>
        <time>2015-03-21T17:16:23Z</time>
      </trkpt>
      <trkpt lat="40.114089" lon="-8.476091">
        <ele>111.788</ele>
        <time>2015-03-21T17:16:38Z</time>
      </trkpt>
      <trkpt lat="40.114182" lon="-8.475988">
        <ele>111.721</ele>
        <time>2015-03-21T17:16:41Z</time>
      </trkpt>
      <trkpt lat="40.114870" lon="-8.475164">
        <ele>108.873</ele>
        <time>2015-03-21T17:17:00Z</time>
      </trkpt>
      <trkpt lat="40.114960" lon="-8.475082">
        <ele>108.393</ele>
        <time>2015-03-21T17:17:02Z</time>
      </trkpt>
      <trkpt lat="40.115100" lon="-8.474996">
        <ele>108.311</ele>
        <time>2015-03-21T17:17:05Z</time>
      </trkpt>
      <trkpt lat="40.115936" lon="-8.474646">
        <ele>107.326</ele>
        <time>2015-03-21T17:17:23Z</time>
      </trkpt>
      <trkpt lat="40.116714" lon="-8.474076">
        <ele>107.383</ele>
        <time>2015-03-21T17:17:41Z</time>
      </trkpt>
      <trkpt lat="40.117351" lon="-8.473778">
        <ele>107.322</ele>
        <time>2015-03-21T17:17:55Z</time>
      </trkpt>
      <trkpt lat="40.117548" lon="-8.473806">
        <ele>107.362</ele>
        <time>2015-03-21T17:17:59Z</time>
      </trkpt>
      <trkpt lat="40.118249" lon="-8.474240">
        <ele>106.808</ele>
        <time>2015-03-21T17:18:16Z</time>
      </trkpt>
      <trkpt lat="40.118531" lon="-8.474433">
        <ele>109.307</ele>
        <time>2015-03-21T17:18:30Z</time>
      </trkpt>
      <trkpt lat="40.118843" lon="-8.474661">
        <ele>112.111</ele>
        <time>2015-03-21T17:18:47Z</time>
      </trkpt>
      <trkpt lat="40.119145" lon="-8.474922">
        <ele>113.674</ele>
        <time>2015-03-21T17:19:03Z</time>
      </trkpt>
      <trkpt lat="40.119302" lon="-8.475069">
        <ele>113.676</ele>
        <time>2015-03-21T17:19:13Z</time>
      </trkpt>
      <trkpt lat="40.119345" lon="-8.475106">
        <ele>113.676</ele>
        <time>2015-03-21T17:19:50Z</time>
      </trkpt>
      <trkpt lat="40.119723" lon="-8.475372">
        <ele>112.164</ele>
        <time>2015-03-21T17:20:03Z</time>
      </trkpt>
      <trkpt lat="40.120389" lon="-8.475985">
        <ele>110.779</ele>
        <time>2015-03-21T17:20:19Z</time>
      </trkpt>
      <trkpt lat="40.121162" lon="-8.476400">
        <ele>110.226</ele>
        <time>2015-03-21T17:20:38Z</time>
      </trkpt>
      <trkpt lat="40.122032" lon="-8.476946">
        <ele>109.323</ele>
        <time>2015-03-21T17:20:59Z</time>
      </trkpt>
      <trkpt lat="40.122228" lon="-8.477156">
        <ele>108.883</ele>
        <time>2015-03-21T17:21:04Z</time>
      </trkpt>
      <trkpt lat="40.122296" lon="-8.477255">
        <ele>108.811</ele>
        <time>2015-03-21T17:21:06Z</time>
      </trkpt>
      <trkpt lat="40.122934" lon="-8.477683">
        <ele>105.907</ele>
        <time>2015-03-21T17:21:19Z</time>
      </trkpt>
      <trkpt lat="40.123417" lon="-8.477729">
        <ele>103.521</ele>
        <time>2015-03-21T17:21:26Z</time>
      </trkpt>
      <trkpt lat="40.124423" lon="-8.478000">
        <ele>100.634</ele>
        <time>2015-03-21T17:21:40Z</time>
      </trkpt>
      <trkpt lat="40.124634" lon="-8.478005">
        <ele>99.626</ele>
        <time>2015-03-21T17:21:43Z</time>
      </trkpt>
      <trkpt lat="40.125338" lon="-8.477865">
        <ele>97.746</ele>
        <time>2015-03-21T17:21:53Z</time>
      </trkpt>
      <trkpt lat="40.125463" lon="-8.477836">
        <ele>97.794</ele>
        <time>2015-03-21T17:21:55Z</time>
      </trkpt>
      <trkpt lat="40.125662" lon="-8.477812">
        <ele>96.389</ele>
        <time>2015-03-21T17:21:58Z</time>
      </trkpt>
      <trkpt lat="40.125999" lon="-8.477561">
        <ele>95.346</ele>
        <time>2015-03-21T17:22:04Z</time>
      </trkpt>
      <trkpt lat="40.126177" lon="-8.477382">
        <ele>94.476</ele>
        <time>2015-03-21T17:22:11Z</time>
      </trkpt>
      <trkpt lat="40.126298" lon="-8.477374">
        <ele>93.990</ele>
        <time>2015-03-21T17:22:37Z</time>
      </trkpt>
      <trkpt lat="40.126408" lon="-8.477413">
        <ele>92.919</ele>
        <time>2015-03-21T17:22:40Z</time>
      </trkpt>
      <trkpt lat="40.126558" lon="-8.477472">
        <ele>91.507</ele>
        <time>2015-03-21T17:22:43Z</time>
      </trkpt>
      <trkpt lat="40.126822" lon="-8.477395">
        <ele>87.116</ele>
        <time>2015-03-21T17:22:51Z</time>
      </trkpt>
      <trkpt lat="40.126916" lon="-8.476879">
        <ele>82.879</ele>
        <time>2015-03-21T17:22:59Z</time>
      </trkpt>
      <trkpt lat="40.126967" lon="-8.476728">
        <ele>82.311</ele>
        <time>2015-03-21T17:23:01Z</time>
      </trkpt>
      <trkpt lat="40.127039" lon="-8.476337">
        <ele>78.541</ele>
        <time>2015-03-21T17:23:05Z</time>
      </trkpt>
      <trkpt lat="40.127031" lon="-8.475840">
        <ele>75.119</ele>
        <time>2015-03-21T17:23:09Z</time>
      </trkpt>
      <trkpt lat="40.127018" lon="-8.475697">
        <ele>74.624</ele>
        <time>2015-03-21T17:23:10Z</time>
      </trkpt>
      <trkpt lat="40.127043" lon="-8.475466">
        <ele>73.271</ele>
        <time>2015-03-21T17:23:12Z</time>
      </trkpt>
      <trkpt lat="40.127219" lon="-8.475225">
        <ele>72.712</ele>
        <time>2015-03-21T17:23:15Z</time>
      </trkpt>
      <trkpt lat="40.127642" lon="-8.474581">
        <ele>73.732</ele>
        <time>2015-03-21T17:23:25Z</time>
      </trkpt>
      <trkpt lat="40.127732" lon="-8.474324">
        <ele>75.605</ele>
        <time>2015-03-21T17:23:35Z</time>
      </trkpt>
      <trkpt lat="40.127838" lon="-8.473950">
        <ele>79.007</ele>
        <time>2015-03-21T17:23:52Z</time>
      </trkpt>
      <trkpt lat="40.127925" lon="-8.473575">
        <ele>80.950</ele>
        <time>2015-03-21T17:24:09Z</time>
      </trkpt>
      <trkpt lat="40.128031" lon="-8.473135">
        <ele>81.953</ele>
        <time>2015-03-21T17:24:28Z</time>
      </trkpt>
      <trkpt lat="40.128094" lon="-8.472829">
        <ele>82.885</ele>
        <time>2015-03-21T17:24:41Z</time>
      </trkpt>
      <trkpt lat="40.128138" lon="-8.472751">
        <ele>83.335</ele>
        <time>2015-03-21T17:24:45Z</time>
      </trkpt>
      <trkpt lat="40.128276" lon="-8.472278">
        <ele>85.233</ele>
        <time>2015-03-21T17:25:06Z</time>
      </trkpt>
      <trkpt lat="40.128453" lon="-8.471871">
        <ele>86.758</ele>
        <time>2015-03-21T17:25:23Z</time>
      </trkpt>
      <trkpt lat="40.128600" lon="-8.471518">
        <ele>88.185</ele>
        <time>2015-03-21T17:25:37Z</time>
      </trkpt>
      <trkpt lat="40.128730" lon="-8.471015">
        <ele>89.591</ele>
        <time>2015-03-21T17:25:57Z</time>
      </trkpt>
      <trkpt lat="40.128984" lon="-8.470884">
        <ele>91.081</ele>
        <time>2015-03-21T17:26:12Z</time>
      </trkpt>
      <trkpt lat="40.129289" lon="-8.470913">
        <ele>93.419</ele>
        <time>2015-03-21T17:26:29Z</time>
      </trkpt>
      <trkpt lat="40.129569" lon="-8.470944">
        <ele>93.407</ele>
        <time>2015-03-21T17:26:41Z</time>
      </trkpt>
      <trkpt lat="40.129921" lon="-8.471222">
        <ele>93.418</ele>
        <time>2015-03-21T17:26:56Z</time>
      </trkpt>
      <trkpt lat="40.130249" lon="-8.471472">
        <ele>93.961</ele>
        <time>2015-03-21T17:27:13Z</time>
      </trkpt>
      <trkpt lat="40.130413" lon="-8.471703">
        <ele>96.343</ele>
        <time>2015-03-21T17:27:27Z</time>
      </trkpt>
      <trkpt lat="40.130598" lon="-8.471806">
        <ele>98.743</ele>
        <time>2015-03-21T17:27:43Z</time>
      </trkpt>
      <trkpt lat="40.130740" lon="-8.471714">
        <ele>102.011</ele>
        <time>2015-03-21T17:27:56Z</time>
      </trkpt>
      <trkpt lat="40.130826" lon="-8.471752">
        <ele>103.056</ele>
        <time>2015-03-21T17:28:02Z</time>
      </trkpt>
      <trkpt lat="40.130882" lon="-8.471751">
        <ele>103.543</ele>
        <time>2015-03-21T17:28:06Z</time>
      </trkpt>
      <trkpt lat="40.130999" lon="-8.471735">
        <ele>105.947</ele>
        <time>2015-03-21T17:28:15Z</time>
      </trkpt>
      <trkpt lat="40.131207" lon="-8.471824">
        <ele>107.329</ele>
        <time>2015-03-21T17:28:29Z</time>
      </trkpt>
      <trkpt lat="40.131468" lon="-8.472011">
        <ele>107.821</ele>
        <time>2015-03-21T17:28:43Z</time>
      </trkpt>
      <trkpt lat="40.131834" lon="-8.472053">
        <ele>108.807</ele>
        <time>2015-03-21T17:28:59Z</time>
      </trkpt>
      <trkpt lat="40.132244" lon="-8.472095">
        <ele>109.373</ele>
        <time>2015-03-21T17:29:14Z</time>
      </trkpt>
      <trkpt lat="40.132723" lon="-8.472075">
        <ele>109.766</ele>
        <time>2015-03-21T17:29:28Z</time>
      </trkpt>
      <trkpt lat="40.133221" lon="-8.472030">
        <ele>110.268</ele>
        <time>2015-03-21T17:29:42Z</time>
      </trkpt>
      <trkpt lat="40.133563" lon="-8.472011">
        <ele>110.288</ele>
        <time>2015-03-21T17:29:53Z</time>
      </trkpt>
      <trkpt lat="40.133567" lon="-8.472233">
        <ele>110.266</ele>
        <time>2015-03-21T17:29:59Z</time>
      </trkpt>
      <trkpt lat="40.133506" lon="-8.472515">
        <ele>108.821</ele>
        <time>2015-03-21T17:30:04Z</time>
      </trkpt>
      <trkpt lat="40.133414" lon="-8.472889">
        <ele>108.318</ele>
        <time>2015-03-21T17:30:10Z</time>
      </trkpt>
      <trkpt lat="40.133514" lon="-8.473345">
        <ele>107.878</ele>
        <time>2015-03-21T17:30:17Z</time>
      </trkpt>
      <trkpt lat="40.133994" lon="-8.473984">
        <ele>107.833</ele>
        <time>2015-03-21T17:30:33Z</time>
      </trkpt>
      <trkpt lat="40.134162" lon="-8.473912">
        <ele>107.826</ele>
        <time>2015-03-21T17:30:38Z</time>
      </trkpt>
      <trkpt lat="40.134272" lon="-8.473727">
        <ele>107.807</ele>
        <time>2015-03-21T17:30:43Z</time>
      </trkpt>
      <trkpt lat="40.134283" lon="-8.473399">
        <ele>109.376</ele>
        <time>2015-03-21T17:30:49Z</time>
      </trkpt>
      <trkpt lat="40.134298" lon="-8.472967">
        <ele>109.379</ele>
        <time>2015-03-21T17:30:57Z</time>
      </trkpt>
      <trkpt lat="40.134370" lon="-8.472772">
        <ele>109.771</ele>
        <time>2015-03-21T17:31:01Z</time>
      </trkpt>
      <trkpt lat="40.134809" lon="-8.472084">
        <ele>109.761</ele>
        <time>2015-03-21T17:31:18Z</time>
      </trkpt>
      <trkpt lat="40.134987" lon="-8.471851">
        <ele>109.749</ele>
        <time>2015-03-21T17:31:24Z</time>
      </trkpt>
      <trkpt lat="40.135556" lon="-8.471441">
        <ele>109.714</ele>
        <time>2015-03-21T17:31:40Z</time>
      </trkpt>
      <trkpt lat="40.136185" lon="-8.471011">
        <ele>109.781</ele>
        <time>2015-03-21T17:31:57Z</time>
      </trkpt>
      <trkpt lat="40.136687" lon="-8.470473">
        <ele>109.782</ele>
        <time>2015-03-21T17:32:13Z</time>
      </trkpt>
      <trkpt lat="40.137047" lon="-8.470057">
        <ele>110.243</ele>
        <time>2015-03-21T17:32:25Z</time>
      </trkpt>
      <trkpt lat="40.137203" lon="-8.469943">
        <ele>110.217</ele>
        <time>2015-03-21T17:32:29Z</time>
      </trkpt>
      <trkpt lat="40.137292" lon="-8.469907">
        <ele>110.207</ele>
        <time>2015-03-21T17:32:31Z</time>
      </trkpt>
      <trkpt lat="40.137390" lon="-8.469894">
        <ele>108.847</ele>
        <time>2015-03-21T17:32:33Z</time>
      </trkpt>
      <trkpt lat="40.137484" lon="-8.469878">
        <ele>108.880</ele>
        <time>2015-03-21T17:32:35Z</time>
      </trkpt>
      <trkpt lat="40.138046" lon="-8.469607">
        <ele>107.862</ele>
        <time>2015-03-21T17:32:47Z</time>
      </trkpt>
      <trkpt lat="40.138198" lon="-8.469519">
        <ele>107.362</ele>
        <time>2015-03-21T17:32:51Z</time>
      </trkpt>
      <trkpt lat="40.138533" lon="-8.469453">
        <ele>107.840</ele>
        <time>2015-03-21T17:36:47Z</time>
      </trkpt>
      <trkpt lat="40.138634" lon="-8.469332">
        <ele>108.835</ele>
        <time>2015-03-21T17:39:04Z</time>
      </trkpt>
      <trkpt lat="40.139001" lon="-8.469016">
        <ele>108.862</ele>
        <time>2015-03-21T17:39:19Z</time>
      </trkpt>
      <trkpt lat="40.139376" lon="-8.468743">
        <ele>108.862</ele>
        <time>2015-03-21T17:39:32Z</time>
      </trkpt>
      <trkpt lat="40.139660" lon="-8.468460">
        <ele>108.383</ele>
        <time>2015-03-21T17:39:43Z</time>
      </trkpt>
      <trkpt lat="40.139873" lon="-8.468283">
        <ele>107.811</ele>
        <time>2015-03-21T17:50:05Z</time>
      </trkpt>
      <trkpt lat="40.140191" lon="-8.468177">
        <ele>106.807</ele>
        <time>2015-03-21T17:50:15Z</time>
      </trkpt>
      <trkpt lat="40.140322" lon="-8.468129">
        <ele>106.815</ele>
        <time>2015-03-21T17:50:19Z</time>
      </trkpt>
      <trkpt lat="40.140388" lon="-8.467890">
        <ele>106.418</ele>
        <time>2015-03-21T17:50:27Z</time>
      </trkpt>
      <trkpt lat="40.140424" lon="-8.467527">
        <ele>109.750</ele>
        <time>2015-03-21T17:50:43Z</time>
      </trkpt>
      <trkpt lat="40.140493" lon="-8.467170">
        <ele>111.230</ele>
        <time>2015-03-21T17:50:59Z</time>
      </trkpt>
      <trkpt lat="40.140497" lon="-8.466836">
        <ele>113.148</ele>
        <time>2015-03-21T17:51:16Z</time>
      </trkpt>
      <trkpt lat="40.140518" lon="-8.466502">
        <ele>116.583</ele>
        <time>2015-03-21T17:51:35Z</time>
      </trkpt>
      <trkpt lat="40.140518" lon="-8.466174">
        <ele>119.390</ele>
        <time>2015-03-21T17:51:54Z</time>
      </trkpt>
      <trkpt lat="40.140428" lon="-8.465888">
        <ele>122.221</ele>
        <time>2015-03-21T17:52:12Z</time>
      </trkpt>
      <trkpt lat="40.140253" lon="-8.465580">
        <ele>124.241</ele>
        <time>2015-03-21T17:52:32Z</time>
      </trkpt>
      <trkpt lat="40.140051" lon="-8.465230">
        <ele>124.205</ele>
        <time>2015-03-21T17:52:47Z</time>
      </trkpt>
      <trkpt lat="40.140056" lon="-8.465049">
        <ele>124.607</ele>
        <time>2015-03-21T17:52:55Z</time>
      </trkpt>
      <trkpt lat="40.140166" lon="-8.464722">
        <ele>126.171</ele>
        <time>2015-03-21T17:53:12Z</time>
      </trkpt>
      <trkpt lat="40.140331" lon="-8.464317">
        <ele>128.064</ele>
        <time>2015-03-21T17:53:31Z</time>
      </trkpt>
      <trkpt lat="40.140403" lon="-8.463864">
        <ele>129.096</ele>
        <time>2015-03-21T17:53:47Z</time>
      </trkpt>
      <trkpt lat="40.140413" lon="-8.463305">
        <ele>127.566</ele>
        <time>2015-03-21T17:53:58Z</time>
      </trkpt>
      <trkpt lat="40.140380" lon="-8.462133">
        <ele>125.614</ele>
        <time>2015-03-21T17:54:18Z</time>
      </trkpt>
      <trkpt lat="40.140377" lon="-8.460840">
        <ele>123.249</ele>
        <time>2015-03-21T17:54:37Z</time>
      </trkpt>
      <trkpt lat="40.140379" lon="-8.460297">
        <ele>122.786</ele>
        <time>2015-03-21T17:54:45Z</time>
      </trkpt>
      <trkpt lat="40.140290" lon="-8.459556">
        <ele>122.741</ele>
        <time>2015-03-21T17:55:01Z</time>
      </trkpt>
      <trkpt lat="40.140353" lon="-8.458848">
        <ele>124.281</ele>
        <time>2015-03-21T17:55:17Z</time>
      </trkpt>
      <trkpt lat="40.140628" lon="-8.457671">
        <ele>125.109</ele>
        <time>2015-03-21T17:55:43Z</time>
      </trkpt>
      <trkpt lat="40.140832" lon="-8.457002">
        <ele>126.107</ele>
        <time>2015-03-21T17:55:59Z</time>
      </trkpt>
      <trkpt lat="40.140793" lon="-8.456468">
        <ele>126.663</ele>
        <time>2015-03-21T17:56:11Z</time>
      </trkpt>
      <trkpt lat="40.140715" lon="-8.455894">
        <ele>127.026</ele>
        <time>2015-03-21T17:56:26Z</time>
      </trkpt>
      <trkpt lat="40.140721" lon="-8.455478">
        <ele>129.918</ele>
        <time>2015-03-21T17:56:42Z</time>
      </trkpt>
      <trkpt lat="40.140790" lon="-8.455104">
        <ele>132.338</ele>
        <time>2015-03-21T17:57:00Z</time>
      </trkpt>
      <trkpt lat="40.140927" lon="-8.454863">
        <ele>133.386</ele>
        <time>2015-03-21T17:57:15Z</time>
      </trkpt>
      <trkpt lat="40.140984" lon="-8.454883">
        <ele>134.291</ele>
        <time>2015-03-21T17:57:19Z</time>
      </trkpt>
      <trkpt lat="40.141072" lon="-8.454976">
        <ele>136.248</ele>
        <time>2015-03-21T17:57:27Z</time>
      </trkpt>
      <trkpt lat="40.141262" lon="-8.454983">
        <ele>138.653</ele>
        <time>2015-03-21T17:57:41Z</time>
      </trkpt>
      <trkpt lat="40.141475" lon="-8.454776">
        <ele>139.504</ele>
        <time>2015-03-21T17:57:55Z</time>
      </trkpt>
      <trkpt lat="40.141608" lon="-8.454619">
        <ele>137.114</ele>
        <time>2015-03-21T17:57:59Z</time>
      </trkpt>
      <trkpt lat="40.141684" lon="-8.454433">
        <ele>136.607</ele>
        <time>2015-03-21T17:58:02Z</time>
      </trkpt>
      <trkpt lat="40.141827" lon="-8.454078">
        <ele>136.284</ele>
        <time>2015-03-21T17:58:08Z</time>
      </trkpt>
      <trkpt lat="40.141858" lon="-8.453867">
        <ele>136.267</ele>
        <time>2015-03-21T17:58:12Z</time>
      </trkpt>
      <trkpt lat="40.141824" lon="-8.453301">
        <ele>136.289</ele>
        <time>2015-03-21T17:58:28Z</time>
      </trkpt>
      <trkpt lat="40.141799" lon="-8.453058">
        <ele>136.259</ele>
        <time>2015-03-21T17:58:35Z</time>
      </trkpt>
      <trkpt lat="40.141870" lon="-8.452978">
        <ele>136.287</ele>
        <time>2015-03-21T17:58:39Z</time>
      </trkpt>
      <trkpt lat="40.142173" lon="-8.452816">
        <ele>137.612</ele>
        <time>2015-03-21T17:58:54Z</time>
      </trkpt>
      <trkpt lat="40.142448" lon="-8.452668">
        <ele>140.039</ele>
        <time>2015-03-21T17:59:09Z</time>
      </trkpt>
      <trkpt lat="40.142776" lon="-8.452473">
        <ele>141.574</ele>
        <time>2015-03-21T17:59:26Z</time>
      </trkpt>
      <trkpt lat="40.142990" lon="-8.452278">
        <ele>142.956</ele>
        <time>2015-03-21T17:59:40Z</time>
      </trkpt>
      <trkpt lat="40.143172" lon="-8.452044">
        <ele>144.321</ele>
        <time>2015-03-21T17:59:55Z</time>
      </trkpt>
      <trkpt lat="40.143337" lon="-8.451847">
        <ele>146.307</ele>
        <time>2015-03-21T18:00:09Z</time>
      </trkpt>
      <trkpt lat="40.143498" lon="-8.451702">
        <ele>149.676</ele>
        <time>2015-03-21T18:00:22Z</time>
      </trkpt>
      <trkpt lat="40.143538" lon="-8.451672">
        <ele>149.639</ele>
        <time>2015-03-21T18:00:25Z</time>
      </trkpt>
      <trkpt lat="40.143761" lon="-8.451609">
        <ele>151.181</ele>
        <time>2015-03-21T18:00:39Z</time>
      </trkpt>
      <trkpt lat="40.143858" lon="-8.451590">
        <ele>151.111</ele>
        <time>2015-03-21T18:00:44Z</time>
      </trkpt>
      <trkpt lat="40.144126" lon="-8.451542">
        <ele>151.579</ele>
        <time>2015-03-21T18:00:57Z</time>
      </trkpt>
      <trkpt lat="40.144308" lon="-8.451564">
        <ele>151.554</ele>
        <time>2015-03-21T18:01:05Z</time>
      </trkpt>
      <trkpt lat="40.144383" lon="-8.451563">
        <ele>151.571</ele>
        <time>2015-03-21T18:01:09Z</time>
      </trkpt>
      <trkpt lat="40.144744" lon="-8.451697">
        <ele>151.591</ele>
        <time>2015-03-21T18:01:25Z</time>
      </trkpt>
      <trkpt lat="40.145076" lon="-8.451623">
        <ele>152.581</ele>
        <time>2015-03-21T18:01:40Z</time>
      </trkpt>
      <trkpt lat="40.145512" lon="-8.451524">
        <ele>153.519</ele>
        <time>2015-03-21T18:01:58Z</time>
      </trkpt>
      <trkpt lat="40.145811" lon="-8.451369">
        <ele>154.007</ele>
        <time>2015-03-21T18:02:12Z</time>
      </trkpt>
      <trkpt lat="40.146202" lon="-8.451292">
        <ele>155.418</ele>
        <time>2015-03-21T18:02:29Z</time>
      </trkpt>
      <trkpt lat="40.146617" lon="-8.451298">
        <ele>156.441</ele>
        <time>2015-03-21T18:02:47Z</time>
      </trkpt>
      <trkpt lat="40.146757" lon="-8.451269">
        <ele>157.333</ele>
        <time>2015-03-21T18:02:55Z</time>
      </trkpt>
      <trkpt lat="40.146989" lon="-8.451197">
        <ele>159.253</ele>
        <time>2015-03-21T18:03:11Z</time>
      </trkpt>
      <trkpt lat="40.147183" lon="-8.451066">
        <ele>162.671</ele>
        <time>2015-03-21T18:03:26Z</time>
      </trkpt>
      <trkpt lat="40.147333" lon="-8.450881">
        <ele>164.036</ele>
        <time>2015-03-21T18:03:39Z</time>
      </trkpt>
      <trkpt lat="40.147484" lon="-8.450612">
        <ele>165.543</ele>
        <time>2015-03-21T18:03:56Z</time>
      </trkpt>
      <trkpt lat="40.147609" lon="-8.450379">
        <ele>167.921</ele>
        <time>2015-03-21T18:04:12Z</time>
      </trkpt>
      <trkpt lat="40.147687" lon="-8.450214">
        <ele>171.341</ele>
        <time>2015-03-21T18:04:24Z</time>
      </trkpt>
      <trkpt lat="40.147807" lon="-8.449987">
        <ele>173.205</ele>
        <time>2015-03-21T18:04:38Z</time>
      </trkpt>
      <trkpt lat="40.147921" lon="-8.449664">
        <ele>173.707</ele>
        <time>2015-03-21T18:04:51Z</time>
      </trkpt>
      <trkpt lat="40.148212" lon="-8.449485">
        <ele>172.721</ele>
        <time>2015-03-21T18:05:03Z</time>
      </trkpt>
      <trkpt lat="40.148470" lon="-8.449248">
        <ele>172.764</ele>
        <time>2015-03-21T18:05:16Z</time>
      </trkpt>
      <trkpt lat="40.148584" lon="-8.449171">
        <ele>172.756</ele>
        <time>2015-03-21T18:05:21Z</time>
      </trkpt>
      <trkpt lat="40.148715" lon="-8.449133">
        <ele>172.226</ele>
        <time>2015-03-21T18:05:27Z</time>
      </trkpt>
      <trkpt lat="40.149042" lon="-8.448974">
        <ele>172.244</ele>
        <time>2015-03-21T18:05:42Z</time>
      </trkpt>
      <trkpt lat="40.149377" lon="-8.448880">
        <ele>172.229</ele>
        <time>2015-03-21T18:05:56Z</time>
      </trkpt>
      <trkpt lat="40.149528" lon="-8.448813">
        <ele>172.266</ele>
        <time>2015-03-21T18:06:02Z</time>
      </trkpt>
      <trkpt lat="40.149617" lon="-8.448767">
        <ele>172.295</ele>
        <time>2015-03-21T18:06:06Z</time>
      </trkpt>
      <trkpt lat="40.149999" lon="-8.448623">
        <ele>172.249</ele>
        <time>2015-03-21T18:06:21Z</time>
      </trkpt>
      <trkpt lat="40.150447" lon="-8.448499">
        <ele>173.723</ele>
        <time>2015-03-21T18:06:38Z</time>
      </trkpt>
      <trkpt lat="40.150773" lon="-8.448414">
        <ele>174.107</ele>
        <time>2015-03-21T18:06:51Z</time>
      </trkpt>
      <trkpt lat="40.150861" lon="-8.448376">
        <ele>174.148</ele>
        <time>2015-03-21T18:06:55Z</time>
      </trkpt>
      <trkpt lat="40.151170" lon="-8.448295">
        <ele>175.181</ele>
        <time>2015-03-21T18:07:10Z</time>
      </trkpt>
      <trkpt lat="40.151351" lon="-8.448259">
        <ele>176.573</ele>
        <time>2015-03-21T18:07:21Z</time>
      </trkpt>
      <trkpt lat="40.151441" lon="-8.448239">
        <ele>177.063</ele>
        <time>2015-03-21T18:07:28Z</time>
      </trkpt>
      <trkpt lat="40.151496" lon="-8.448205">
        <ele>177.521</ele>
        <time>2015-03-21T18:07:32Z</time>
      </trkpt>
      <trkpt lat="40.151592" lon="-8.448065">
        <ele>179.486</ele>
        <time>2015-03-21T18:07:43Z</time>
      </trkpt>
      <trkpt lat="40.151766" lon="-8.447851">
        <ele>180.993</ele>
        <time>2015-03-21T18:08:00Z</time>
      </trkpt>
      <trkpt lat="40.151866" lon="-8.447765">
        <ele>182.354</ele>
        <time>2015-03-21T18:08:10Z</time>
      </trkpt>
      <trkpt lat="40.151987" lon="-8.447663">
        <ele>184.256</ele>
        <time>2015-03-21T18:08:22Z</time>
      </trkpt>
      <trkpt lat="40.152099" lon="-8.447536">
        <ele>186.611</ele>
        <time>2015-03-21T18:08:34Z</time>
      </trkpt>
      <trkpt lat="40.152164" lon="-8.447552">
        <ele>187.107</ele>
        <time>2015-03-21T18:08:39Z</time>
      </trkpt>
      <trkpt lat="40.152408" lon="-8.447656">
        <ele>188.154</ele>
        <time>2015-03-21T18:08:53Z</time>
      </trkpt>
      <trkpt lat="40.152785" lon="-8.447594">
        <ele>184.247</ele>
        <time>2015-03-21T18:09:04Z</time>
      </trkpt>
      <trkpt lat="40.153020" lon="-8.447570">
        <ele>180.989</ele>
        <time>2015-03-21T18:09:10Z</time>
      </trkpt>
      <trkpt lat="40.153107" lon="-8.447553">
        <ele>179.979</ele>
        <time>2015-03-21T18:09:12Z</time>
      </trkpt>
      <trkpt lat="40.153245" lon="-8.447515">
        <ele>178.597</ele>
        <time>2015-03-21T18:09:15Z</time>
      </trkpt>
      <trkpt lat="40.154021" lon="-8.447512">
        <ele>177.042</ele>
        <time>2015-03-21T18:09:31Z</time>
      </trkpt>
      <trkpt lat="40.154298" lon="-8.447600">
        <ele>177.049</ele>
        <time>2015-03-21T18:09:41Z</time>
      </trkpt>
      <trkpt lat="40.154637" lon="-8.447711">
        <ele>177.068</ele>
        <time>2015-03-21T18:09:55Z</time>
      </trkpt>
      <trkpt lat="40.154957" lon="-8.447681">
        <ele>178.942</ele>
        <time>2015-03-21T18:10:09Z</time>
      </trkpt>
      <trkpt lat="40.155340" lon="-8.447654">
        <ele>179.426</ele>
        <time>2015-03-21T18:10:22Z</time>
      </trkpt>
      <trkpt lat="40.155419" lon="-8.447653">
        <ele>178.507</ele>
        <time>2015-03-21T18:10:24Z</time>
      </trkpt>
      <trkpt lat="40.156105" lon="-8.447573">
        <ele>176.575</ele>
        <time>2015-03-21T18:10:40Z</time>
      </trkpt>
      <trkpt lat="40.156432" lon="-8.447500">
        <ele>176.518</ele>
        <time>2015-03-21T18:10:51Z</time>
      </trkpt>
      <trkpt lat="40.156680" lon="-8.447647">
        <ele>176.530</ele>
        <time>2015-03-21T18:11:01Z</time>
      </trkpt>
      <trkpt lat="40.156839" lon="-8.447813">
        <ele>174.670</ele>
        <time>2015-03-21T18:11:06Z</time>
      </trkpt>
      <trkpt lat="40.156919" lon="-8.447953">
        <ele>172.728</ele>
        <time>2015-03-21T18:11:09Z</time>
      </trkpt>
      <trkpt lat="40.157192" lon="-8.448116">
        <ele>168.993</ele>
        <time>2015-03-21T18:11:15Z</time>
      </trkpt>
      <trkpt lat="40.157478" lon="-8.448119">
        <ele>166.970</ele>
        <time>2015-03-21T18:11:19Z</time>
      </trkpt>
      <trkpt lat="40.157755" lon="-8.448195">
        <ele>165.584</ele>
        <time>2015-03-21T18:11:23Z</time>
      </trkpt>
      <trkpt lat="40.157964" lon="-8.448228">
        <ele>165.507</ele>
        <time>2015-03-21T18:11:27Z</time>
      </trkpt>
      <trkpt lat="40.158195" lon="-8.448295">
        <ele>166.017</ele>
        <time>2015-03-21T18:11:33Z</time>
      </trkpt>
      <trkpt lat="40.158386" lon="-8.448337">
        <ele>165.007</ele>
        <time>2015-03-21T18:11:38Z</time>
      </trkpt>
      <trkpt lat="40.158676" lon="-8.448333">
        <ele>161.287</ele>
        <time>2015-03-21T18:11:44Z</time>
      </trkpt>
      <trkpt lat="40.158825" lon="-8.448277">
        <ele>158.340</ele>
        <time>2015-03-21T18:11:47Z</time>
      </trkpt>
      <trkpt lat="40.158911" lon="-8.448226">
        <ele>156.862</ele>
        <time>2015-03-21T18:11:49Z</time>
      </trkpt>
      <trkpt lat="40.159100" lon="-8.448179">
        <ele>154.442</ele>
        <time>2015-03-21T18:11:53Z</time>
      </trkpt>
      <trkpt lat="40.159748" lon="-8.447964">
        <ele>150.640</ele>
        <time>2015-03-21T18:12:04Z</time>
      </trkpt>
      <trkpt lat="40.160158" lon="-8.447750">
        <ele>146.715</ele>
        <time>2015-03-21T18:12:10Z</time>
      </trkpt>
      <trkpt lat="40.160483" lon="-8.447537">
        <ele>143.482</ele>
        <time>2015-03-21T18:12:14Z</time>
      </trkpt>
      <trkpt lat="40.160764" lon="-8.447337">
        <ele>140.014</ele>
        <time>2015-03-21T18:12:17Z</time>
      </trkpt>
      <trkpt lat="40.160968" lon="-8.447190">
        <ele>137.154</ele>
        <time>2015-03-21T18:12:19Z</time>
      </trkpt>
      <trkpt lat="40.161188" lon="-8.447047">
        <ele>133.309</ele>
        <time>2015-03-21T18:12:21Z</time>
      </trkpt>
      <trkpt lat="40.161536" lon="-8.446866">
        <ele>129.407</ele>
        <time>2015-03-21T18:12:24Z</time>
      </trkpt>
      <trkpt lat="40.161894" lon="-8.446674">
        <ele>126.630</ele>
        <time>2015-03-21T18:12:28Z</time>
      </trkpt>
      <trkpt lat="40.162098" lon="-8.446558">
        <ele>124.673</ele>
        <time>2015-03-21T18:12:34Z</time>
      </trkpt>
      <trkpt lat="40.162249" lon="-8.446843">
        <ele>124.645</ele>
        <time>2015-03-21T18:12:43Z</time>
      </trkpt>
      <trkpt lat="40.162651" lon="-8.447695">
        <ele>124.615</ele>
        <time>2015-03-21T18:13:02Z</time>
      </trkpt>
      <trkpt lat="40.162996" lon="-8.448411">
        <ele>124.683</ele>
        <time>2015-03-21T18:13:20Z</time>
      </trkpt>
      <trkpt lat="40.163324" lon="-8.448933">
        <ele>127.078</ele>
        <time>2015-03-21T18:13:39Z</time>
      </trkpt>
      <trkpt lat="40.163474" lon="-8.449464">
        <ele>128.585</ele>
        <time>2015-03-21T18:13:57Z</time>
      </trkpt>
      <trkpt lat="40.163493" lon="-8.450037">
        <ele>130.477</ele>
        <time>2015-03-21T18:14:16Z</time>
      </trkpt>
      <trkpt lat="40.163530" lon="-8.450499">
        <ele>132.861</ele>
        <time>2015-03-21T18:14:34Z</time>
      </trkpt>
      <trkpt lat="40.163553" lon="-8.450702">
        <ele>134.727</ele>
        <time>2015-03-21T18:14:45Z</time>
      </trkpt>
      <trkpt lat="40.163561" lon="-8.450799">
        <ele>135.707</ele>
        <time>2015-03-21T18:14:50Z</time>
      </trkpt>
      <trkpt lat="40.163633" lon="-8.451059">
        <ele>138.176</ele>
        <time>2015-03-21T18:15:06Z</time>
      </trkpt>
      <trkpt lat="40.163679" lon="-8.451058">
        <ele>139.129</ele>
        <time>2015-03-21T18:15:10Z</time>
      </trkpt>
      <trkpt lat="40.163729" lon="-8.451031">
        <ele>139.551</ele>
        <time>2015-03-21T18:15:15Z</time>
      </trkpt>
      <trkpt lat="40.163732" lon="-8.451173">
        <ele>139.561</ele>
        <time>2015-03-21T18:15:26Z</time>
      </trkpt>
      <trkpt lat="40.163802" lon="-8.451293">
        <ele>139.539</ele>
        <time>2015-03-21T18:15:37Z</time>
      </trkpt>
      <trkpt lat="40.164033" lon="-8.451343">
        <ele>141.064</ele>
        <time>2015-03-21T18:15:54Z</time>
      </trkpt>
      <trkpt lat="40.164233" lon="-8.451252">
        <ele>142.991</ele>
        <time>2015-03-21T18:16:09Z</time>
      </trkpt>
      <trkpt lat="40.164385" lon="-8.451306">
        <ele>143.452</ele>
        <time>2015-03-21T18:16:18Z</time>
      </trkpt>
      <trkpt lat="40.164478" lon="-8.451298">
        <ele>143.953</ele>
        <time>2015-03-21T18:16:24Z</time>
      </trkpt>
      <trkpt lat="40.164754" lon="-8.451248">
        <ele>144.308</ele>
        <time>2015-03-21T18:16:38Z</time>
      </trkpt>
      <trkpt lat="40.165056" lon="-8.451214">
        <ele>140.507</ele>
        <time>2015-03-21T18:16:44Z</time>
      </trkpt>
      <trkpt lat="40.165316" lon="-8.451185">
        <ele>137.144</ele>
        <time>2015-03-21T18:16:47Z</time>
      </trkpt>
      <trkpt lat="40.165667" lon="-8.450935">
        <ele>136.247</ele>
        <time>2015-03-21T18:16:52Z</time>
      </trkpt>
      <trkpt lat="40.165761" lon="-8.450831">
        <ele>136.229</ele>
        <time>2015-03-21T18:16:54Z</time>
      </trkpt>
      <trkpt lat="40.165926" lon="-8.450755">
        <ele>137.639</ele>
        <time>2015-03-21T18:16:58Z</time>
      </trkpt>
      <trkpt lat="40.166157" lon="-8.450772">
        <ele>141.567</ele>
        <time>2015-03-21T18:17:13Z</time>
      </trkpt>
      <trkpt lat="40.166388" lon="-8.450754">
        <ele>143.462</ele>
        <time>2015-03-21T18:17:28Z</time>
      </trkpt>
      <trkpt lat="40.166561" lon="-8.450788">
        <ele>143.999</ele>
        <time>2015-03-21T18:17:39Z</time>
      </trkpt>
      <trkpt lat="40.166836" lon="-8.450908">
        <ele>145.355</ele>
        <time>2015-03-21T18:17:57Z</time>
      </trkpt>
      <trkpt lat="40.167074" lon="-8.451005">
        <ele>147.707</ele>
        <time>2015-03-21T18:18:13Z</time>
      </trkpt>
      <trkpt lat="40.167289" lon="-8.451076">
        <ele>150.117</ele>
        <time>2015-03-21T18:18:28Z</time>
      </trkpt>
      <trkpt lat="40.167527" lon="-8.451064">
        <ele>152.507</ele>
        <time>2015-03-21T18:18:45Z</time>
      </trkpt>
      <trkpt lat="40.167605" lon="-8.451020">
        <ele>153.014</ele>
        <time>2015-03-21T18:18:51Z</time>
      </trkpt>
      <trkpt lat="40.167729" lon="-8.450942">
        <ele>154.987</ele>
        <time>2015-03-21T18:19:02Z</time>
      </trkpt>
      <trkpt lat="40.167865" lon="-8.450846">
        <ele>158.399</ele>
        <time>2015-03-21T18:19:16Z</time>
      </trkpt>
      <trkpt lat="40.167933" lon="-8.450801">
        <ele>159.269</ele>
        <time>2015-03-21T18:19:22Z</time>
      </trkpt>
      <trkpt lat="40.168015" lon="-8.450759">
        <ele>160.227</ele>
        <time>2015-03-21T18:19:29Z</time>
      </trkpt>
      <trkpt lat="40.168169" lon="-8.450665">
        <ele>162.632</ele>
        <time>2015-03-21T18:19:44Z</time>
      </trkpt>
      <trkpt lat="40.168388" lon="-8.450579">
        <ele>165.029</ele>
        <time>2015-03-21T18:20:04Z</time>
      </trkpt>
      <trkpt lat="40.168554" lon="-8.450565">
        <ele>168.489</ele>
        <time>2015-03-21T18:20:18Z</time>
      </trkpt>
      <trkpt lat="40.168765" lon="-8.450461">
        <ele>169.806</ele>
        <time>2015-03-21T18:20:35Z</time>
      </trkpt>
      <trkpt lat="40.168927" lon="-8.450314">
        <ele>174.126</ele>
        <time>2015-03-21T18:20:49Z</time>
      </trkpt>
      <trkpt lat="40.169047" lon="-8.450155">
        <ele>173.207</ele>
        <time>2015-03-21T18:21:01Z</time>
      </trkpt>
      <trkpt lat="40.169268" lon="-8.450020">
        <ele>176.187</ele>
        <time>2015-03-21T18:21:19Z</time>
      </trkpt>
      <trkpt lat="40.169407" lon="-8.450052">
        <ele>177.570</ele>
        <time>2015-03-21T18:21:35Z</time>
      </trkpt>
      <trkpt lat="40.169656" lon="-8.450088">
        <ele>178.092</ele>
        <time>2015-03-21T18:21:50Z</time>
      </trkpt>
      <trkpt lat="40.170037" lon="-8.450151">
        <ele>179.972</ele>
        <time>2015-03-21T18:22:12Z</time>
      </trkpt>
      <trkpt lat="40.170397" lon="-8.450031">
        <ele>182.380</ele>
        <time>2015-03-21T18:22:31Z</time>
      </trkpt>
      <trkpt lat="40.170652" lon="-8.449905">
        <ele>183.395</ele>
        <time>2015-03-21T18:22:44Z</time>
      </trkpt>
      <trkpt lat="40.170955" lon="-8.449861">
        <ele>183.812</ele>
        <time>2015-03-21T18:22:58Z</time>
      </trkpt>
      <trkpt lat="40.171246" lon="-8.449808">
        <ele>183.837</ele>
        <time>2015-03-21T18:23:12Z</time>
      </trkpt>
      <trkpt lat="40.171507" lon="-8.449691">
        <ele>186.249</ele>
        <time>2015-03-21T18:23:29Z</time>
      </trkpt>
      <trkpt lat="40.171752" lon="-8.449586">
        <ele>188.613</ele>
        <time>2015-03-21T18:23:46Z</time>
      </trkpt>
      <trkpt lat="40.172001" lon="-8.449409">
        <ele>190.507</ele>
        <time>2015-03-21T18:24:03Z</time>
      </trkpt>
      <trkpt lat="40.172101" lon="-8.449367">
        <ele>191.052</ele>
        <time>2015-03-21T18:24:14Z</time>
      </trkpt>
      <trkpt lat="40.172216" lon="-8.449346">
        <ele>191.075</ele>
        <time>2015-03-21T18:24:40Z</time>
      </trkpt>
      <trkpt lat="40.172577" lon="-8.449301">
        <ele>191.487</ele>
        <time>2015-03-21T18:24:55Z</time>
      </trkpt>
      <trkpt lat="40.172968" lon="-8.449253">
        <ele>192.917</ele>
        <time>2015-03-21T18:25:12Z</time>
      </trkpt>
      <trkpt lat="40.173333" lon="-8.449163">
        <ele>194.875</ele>
        <time>2015-03-21T18:25:28Z</time>
      </trkpt>
      <trkpt lat="40.173651" lon="-8.449418">
        <ele>194.310</ele>
        <time>2015-03-21T18:25:39Z</time>
      </trkpt>
      <trkpt lat="40.173947" lon="-8.449854">
        <ele>191.417</ele>
        <time>2015-03-21T18:25:47Z</time>
      </trkpt>
      <trkpt lat="40.174360" lon="-8.449919">
        <ele>189.024</ele>
        <time>2015-03-21T18:25:55Z</time>
      </trkpt>
      <trkpt lat="40.174507" lon="-8.449779">
        <ele>188.604</ele>
        <time>2015-03-21T18:25:58Z</time>
      </trkpt>
      <trkpt lat="40.174839" lon="-8.449689">
        <ele>187.114</ele>
        <time>2015-03-21T18:26:03Z</time>
      </trkpt>
      <trkpt lat="40.175350" lon="-8.449690">
        <ele>184.707</ele>
        <time>2015-03-21T18:26:10Z</time>
      </trkpt>
      <trkpt lat="40.175779" lon="-8.449849">
        <ele>182.871</ele>
        <time>2015-03-21T18:26:16Z</time>
      </trkpt>
      <trkpt lat="40.176150" lon="-8.449849">
        <ele>179.994</ele>
        <time>2015-03-21T18:26:21Z</time>
      </trkpt>
      <trkpt lat="40.176268" lon="-8.449894">
        <ele>178.536</ele>
        <time>2015-03-21T18:26:24Z</time>
      </trkpt>
      <trkpt lat="40.176194" lon="-8.450096">
        <ele>175.636</ele>
        <time>2015-03-21T18:26:28Z</time>
      </trkpt>
      <trkpt lat="40.175964" lon="-8.450355">
        <ele>171.374</ele>
        <time>2015-03-21T18:26:33Z</time>
      </trkpt>
      <trkpt lat="40.175838" lon="-8.450512">
        <ele>168.919</ele>
        <time>2015-03-21T18:26:38Z</time>
      </trkpt>
      <trkpt lat="40.175859" lon="-8.450612">
        <ele>168.986</ele>
        <time>2015-03-21T18:26:43Z</time>
      </trkpt>
      <trkpt lat="40.176006" lon="-8.450871">
        <ele>168.922</ele>
        <time>2015-03-21T18:26:56Z</time>
      </trkpt>
      <trkpt lat="40.176062" lon="-8.450864">
        <ele>171.362</ele>
        <time>2015-03-21T18:27:00Z</time>
      </trkpt>
      <trkpt lat="40.176234" lon="-8.450695">
        <ele>173.708</ele>
        <time>2015-03-21T18:27:14Z</time>
      </trkpt>
      <trkpt lat="40.176437" lon="-8.450540">
        <ele>176.107</ele>
        <time>2015-03-21T18:27:30Z</time>
      </trkpt>
      <trkpt lat="40.176687" lon="-8.450352">
        <ele>178.081</ele>
        <time>2015-03-21T18:27:48Z</time>
      </trkpt>
      <trkpt lat="40.176888" lon="-8.450265">
        <ele>178.034</ele>
        <time>2015-03-21T18:28:00Z</time>
      </trkpt>
      <trkpt lat="40.176974" lon="-8.450579">
        <ele>178.546</ele>
        <time>2015-03-21T18:28:14Z</time>
      </trkpt>
      <trkpt lat="40.177091" lon="-8.450853">
        <ele>181.446</ele>
        <time>2015-03-21T18:28:29Z</time>
      </trkpt>
      <trkpt lat="40.177199" lon="-8.450876">
        <ele>182.324</ele>
        <time>2015-03-21T18:28:37Z</time>
      </trkpt>
      <trkpt lat="40.177525" lon="-8.451194">
        <ele>180.489</ele>
        <time>2015-03-21T18:28:53Z</time>
      </trkpt>
      <trkpt lat="40.177607" lon="-8.451242">
        <ele>178.026</ele>
        <time>2015-03-21T18:28:56Z</time>
      </trkpt>
      <trkpt lat="40.177610" lon="-8.451454">
        <ele>179.413</ele>
        <time>2015-03-21T18:29:04Z</time>
      </trkpt>
      <trkpt lat="40.177658" lon="-8.451714">
        <ele>183.343</ele>
        <time>2015-03-21T18:29:20Z</time>
      </trkpt>
      <trkpt lat="40.177824" lon="-8.451891">
        <ele>186.607</ele>
        <time>2015-03-21T18:29:36Z</time>
      </trkpt>
      <trkpt lat="40.178071" lon="-8.452058">
        <ele>190.007</ele>
        <time>2015-03-21T18:29:56Z</time>
      </trkpt>
      <trkpt lat="40.178309" lon="-8.452083">
        <ele>191.910</ele>
        <time>2015-03-21T18:30:12Z</time>
      </trkpt>
      <trkpt lat="40.178525" lon="-8.452063">
        <ele>194.813</ele>
        <time>2015-03-21T18:30:28Z</time>
      </trkpt>
      <trkpt lat="40.178785" lon="-8.452083">
        <ele>197.235</ele>
        <time>2015-03-21T18:30:46Z</time>
      </trkpt>
      <trkpt lat="40.179107" lon="-8.452048">
        <ele>199.685</ele>
        <time>2015-03-21T18:31:06Z</time>
      </trkpt>
      <trkpt lat="40.179360" lon="-8.452012">
        <ele>201.523</ele>
        <time>2015-03-21T18:31:23Z</time>
      </trkpt>
      <trkpt lat="40.179627" lon="-8.451920">
        <ele>203.538</ele>
        <time>2015-03-21T18:31:40Z</time>
      </trkpt>
      <trkpt lat="40.179744" lon="-8.451889">
        <ele>205.435</ele>
        <time>2015-03-21T18:31:48Z</time>
      </trkpt>
      <trkpt lat="40.180001" lon="-8.451892">
        <ele>205.952</ele>
        <time>2015-03-21T18:32:00Z</time>
      </trkpt>
      <trkpt lat="40.180059" lon="-8.451949">
        <ele>204.453</ele>
        <time>2015-03-21T18:32:02Z</time>
      </trkpt>
      <trkpt lat="40.180251" lon="-8.452147">
        <ele>201.508</ele>
        <time>2015-03-21T18:32:08Z</time>
      </trkpt>
      <trkpt lat="40.180524" lon="-8.452021">
        <ele>200.607</ele>
        <time>2015-03-21T18:32:17Z</time>
      </trkpt>
      <trkpt lat="40.180772" lon="-8.451876">
        <ele>202.024</ele>
        <time>2015-03-21T18:32:29Z</time>
      </trkpt>
      <trkpt lat="40.181079" lon="-8.451827">
        <ele>202.027</ele>
        <time>2015-03-21T18:32:41Z</time>
      </trkpt>
      <trkpt lat="40.181266" lon="-8.451804">
        <ele>202.059</ele>
        <time>2015-03-21T18:32:48Z</time>
      </trkpt>
      <trkpt lat="40.181413" lon="-8.451732">
        <ele>202.589</ele>
        <time>2015-03-21T18:32:56Z</time>
      </trkpt>
      <trkpt lat="40.181516" lon="-8.451629">
        <ele>202.037</ele>
        <time>2015-03-21T18:33:02Z</time>
      </trkpt>
      <trkpt lat="40.181712" lon="-8.451444">
        <ele>197.722</ele>
        <time>2015-03-21T18:34:37Z</time>
      </trkpt>
      <trkpt lat="40.181908" lon="-8.451520">
        <ele>194.829</ele>
        <time>2015-03-21T18:34:41Z</time>
      </trkpt>
      <trkpt lat="40.182096" lon="-8.451416">
        <ele>191.491</ele>
        <time>2015-03-21T18:34:44Z</time>
      </trkpt>
      <trkpt lat="40.182305" lon="-8.451232">
        <ele>187.181</ele>
        <time>2015-03-21T18:34:47Z</time>
      </trkpt>
      <trkpt lat="40.182594" lon="-8.451047">
        <ele>181.819</ele>
        <time>2015-03-21T18:34:51Z</time>
      </trkpt>
      <trkpt lat="40.182645" lon="-8.451014">
        <ele>180.907</ele>
        <time>2015-03-21T18:34:52Z</time>
      </trkpt>
      <trkpt lat="40.182747" lon="-8.450882">
        <ele>178.018</ele>
        <time>2015-03-21T18:34:56Z</time>
      </trkpt>
      <trkpt lat="40.182843" lon="-8.450610">
        <ele>177.081</ele>
        <time>2015-03-21T18:35:05Z</time>
      </trkpt>
      <trkpt lat="40.182858" lon="-8.450554">
        <ele>176.553</ele>
        <time>2015-03-21T18:35:06Z</time>
      </trkpt>
      <trkpt lat="40.182717" lon="-8.450221">
        <ele>172.713</ele>
        <time>2015-03-21T18:35:13Z</time>
      </trkpt>
      <trkpt lat="40.182663" lon="-8.450220">
        <ele>171.331</ele>
        <time>2015-03-21T18:35:14Z</time>
      </trkpt>
      <trkpt lat="40.182576" lon="-8.450219">
        <ele>169.366</ele>
        <time>2015-03-21T18:35:16Z</time>
      </trkpt>
      <trkpt lat="40.182519" lon="-8.450042">
        <ele>166.993</ele>
        <time>2015-03-21T18:35:20Z</time>
      </trkpt>
      <trkpt lat="40.182533" lon="-8.449594">
        <ele>162.174</ele>
        <time>2015-03-21T18:35:25Z</time>
      </trkpt>
      <trkpt lat="40.182542" lon="-8.449503">
        <ele>161.256</ele>
        <time>2015-03-21T18:35:26Z</time>
      </trkpt>
      <trkpt lat="40.182637" lon="-8.449012">
        <ele>158.821</ele>
        <time>2015-03-21T18:35:31Z</time>
      </trkpt>
      <trkpt lat="40.182753" lon="-8.448696">
        <ele>156.407</ele>
        <time>2015-03-21T18:35:38Z</time>
      </trkpt>
      <trkpt lat="40.183067" lon="-8.448696">
        <ele>153.566</ele>
        <time>2015-03-21T18:35:44Z</time>
      </trkpt>
      <trkpt lat="40.183501" lon="-8.448742">
        <ele>149.179</ele>
        <time>2015-03-21T18:35:49Z</time>
      </trkpt>
      <trkpt lat="40.183813" lon="-8.448764">
        <ele>145.331</ele>
        <time>2015-03-21T18:35:52Z</time>
      </trkpt>
      <trkpt lat="40.184163" lon="-8.448794">
        <ele>141.551</ele>
        <time>2015-03-21T18:35:55Z</time>
      </trkpt>
      <trkpt lat="40.184528" lon="-8.448815">
        <ele>137.199</ele>
        <time>2015-03-21T18:35:58Z</time>
      </trkpt>
      <trkpt lat="40.184912" lon="-8.448844">
        <ele>133.884</ele>
        <time>2015-03-21T18:36:01Z</time>
      </trkpt>
      <trkpt lat="40.185905" lon="-8.449065">
        <ele>131.811</ele>
        <time>2015-03-21T18:36:11Z</time>
      </trkpt>
      <trkpt lat="40.186060" lon="-8.449107">
        <ele>131.429</ele>
        <time>2015-03-21T18:36:13Z</time>
      </trkpt>
      <trkpt lat="40.186400" lon="-8.449028">
        <ele>131.400</ele>
        <time>2015-03-21T18:36:18Z</time>
      </trkpt>
      <trkpt lat="40.186777" lon="-8.448705">
        <ele>130.920</ele>
        <time>2015-03-21T18:36:26Z</time>
      </trkpt>
      <trkpt lat="40.187296" lon="-8.448696">
        <ele>127.507</ele>
        <time>2015-03-21T18:36:35Z</time>
      </trkpt>
      <trkpt lat="40.187361" lon="-8.448742">
        <ele>127.581</ele>
        <time>2015-03-21T18:36:36Z</time>
      </trkpt>
      <trkpt lat="40.187833" lon="-8.449040">
        <ele>123.254</ele>
        <time>2015-03-21T18:36:42Z</time>
      </trkpt>
      <trkpt lat="40.188200" lon="-8.449252">
        <ele>120.346</ele>
        <time>2015-03-21T18:36:46Z</time>
      </trkpt>
      <trkpt lat="40.188517" lon="-8.449358">
        <ele>117.466</ele>
        <time>2015-03-21T18:36:49Z</time>
      </trkpt>
      <trkpt lat="40.189079" lon="-8.449347">
        <ele>112.154</ele>
        <time>2015-03-21T18:36:54Z</time>
      </trkpt>
      <trkpt lat="40.189540" lon="-8.449279">
        <ele>108.819</ele>
        <time>2015-03-21T18:36:58Z</time>
      </trkpt>
      <trkpt lat="40.189891" lon="-8.449238">
        <ele>105.936</ele>
        <time>2015-03-21T18:37:01Z</time>
      </trkpt>
      <trkpt lat="40.190378" lon="-8.449184">
        <ele>102.036</ele>
        <time>2015-03-21T18:37:05Z</time>
      </trkpt>
      <trkpt lat="40.190739" lon="-8.449124">
        <ele>98.717</ele>
        <time>2015-03-21T18:37:08Z</time>
      </trkpt>
      <trkpt lat="40.191209" lon="-8.449000">
        <ele>95.318</ele>
        <time>2015-03-21T18:37:12Z</time>
      </trkpt>
      <trkpt lat="40.191951" lon="-8.448767">
        <ele>91.907</ele>
        <time>2015-03-21T18:37:19Z</time>
      </trkpt>
      <trkpt lat="40.192583" lon="-8.448502">
        <ele>89.172</ele>
        <time>2015-03-21T18:37:26Z</time>
      </trkpt>
      <trkpt lat="40.192668" lon="-8.448462">
        <ele>88.165</ele>
        <time>2015-03-21T18:37:27Z</time>
      </trkpt>
      <trkpt lat="40.193078" lon="-8.448498">
        <ele>86.297</ele>
        <time>2015-03-21T18:37:32Z</time>
      </trkpt>
      <trkpt lat="40.193615" lon="-8.448848">
        <ele>82.827</ele>
        <time>2015-03-21T18:37:39Z</time>
      </trkpt>
      <trkpt lat="40.193865" lon="-8.449030">
        <ele>80.915</ele>
        <time>2015-03-21T18:37:42Z</time>
      </trkpt>
      <trkpt lat="40.194425" lon="-8.449225">
        <ele>79.970</ele>
        <time>2015-03-21T18:37:49Z</time>
      </trkpt>
      <trkpt lat="40.194836" lon="-8.449424">
        <ele>77.057</ele>
        <time>2015-03-21T18:37:55Z</time>
      </trkpt>
      <trkpt lat="40.195295" lon="-8.449262">
        <ele>77.055</ele>
        <time>2015-03-21T18:38:03Z</time>
      </trkpt>
      <trkpt lat="40.195313" lon="-8.449126">
        <ele>77.007</ele>
        <time>2015-03-21T18:38:06Z</time>
      </trkpt>
      <trkpt lat="40.195313" lon="-8.449057">
        <ele>78.517</ele>
        <time>2015-03-21T18:38:08Z</time>
      </trkpt>
      <trkpt lat="40.195333" lon="-8.448670">
        <ele>80.407</ele>
        <time>2015-03-21T18:38:23Z</time>
      </trkpt>
      <trkpt lat="40.195355" lon="-8.448299">
        <ele>82.884</ele>
        <time>2015-03-21T18:38:39Z</time>
      </trkpt>
      <trkpt lat="40.195392" lon="-8.447838">
        <ele>85.227</ele>
        <time>2015-03-21T18:38:58Z</time>
      </trkpt>
      <trkpt lat="40.195438" lon="-8.447501">
        <ele>87.639</ele>
        <time>2015-03-21T18:39:14Z</time>
      </trkpt>
      <trkpt lat="40.195615" lon="-8.447229">
        <ele>89.529</ele>
        <time>2015-03-21T18:39:31Z</time>
      </trkpt>
      <trkpt lat="40.195855" lon="-8.446957">
        <ele>91.997</ele>
        <time>2015-03-21T18:39:51Z</time>
      </trkpt>
      <trkpt lat="40.196072" lon="-8.446703">
        <ele>93.972</ele>
        <time>2015-03-21T18:40:09Z</time>
      </trkpt>
      <trkpt lat="40.196346" lon="-8.446434">
        <ele>96.819</ele>
        <time>2015-03-21T18:40:30Z</time>
      </trkpt>
      <trkpt lat="40.196598" lon="-8.446184">
        <ele>98.789</ele>
        <time>2015-03-21T18:40:48Z</time>
      </trkpt>
      <trkpt lat="40.196844" lon="-8.445891">
        <ele>97.706</ele>
        <time>2015-03-21T18:40:58Z</time>
      </trkpt>
      <trkpt lat="40.197224" lon="-8.445446">
        <ele>94.426</ele>
        <time>2015-03-21T18:41:06Z</time>
      </trkpt>
      <trkpt lat="40.197535" lon="-8.445100">
        <ele>93.907</ele>
        <time>2015-03-21T18:41:12Z</time>
      </trkpt>
      <trkpt lat="40.197880" lon="-8.444513">
        <ele>93.967</ele>
        <time>2015-03-21T18:41:25Z</time>
      </trkpt>
      <trkpt lat="40.198054" lon="-8.444166">
        <ele>96.840</ele>
        <time>2015-03-21T18:41:42Z</time>
      </trkpt>
      <trkpt lat="40.198273" lon="-8.443800">
        <ele>99.272</ele>
        <time>2015-03-21T18:42:01Z</time>
      </trkpt>
      <trkpt lat="40.198434" lon="-8.443471">
        <ele>101.162</ele>
        <time>2015-03-21T18:42:17Z</time>
      </trkpt>
      <trkpt lat="40.198666" lon="-8.443041">
        <ele>104.060</ele>
        <time>2015-03-21T18:42:39Z</time>
      </trkpt>
      <trkpt lat="40.198862" lon="-8.442657">
        <ele>105.965</ele>
        <time>2015-03-21T18:42:58Z</time>
      </trkpt>
      <trkpt lat="40.198935" lon="-8.442281">
        <ele>107.822</ele>
        <time>2015-03-21T18:43:14Z</time>
      </trkpt>
      <trkpt lat="40.198952" lon="-8.441823">
        <ele>110.237</ele>
        <time>2015-03-21T18:43:33Z</time>
      </trkpt>
      <trkpt lat="40.198971" lon="-8.441400">
        <ele>112.649</ele>
        <time>2015-03-21T18:43:51Z</time>
      </trkpt>
      <trkpt lat="40.199180" lon="-8.441058">
        <ele>113.613</ele>
        <time>2015-03-21T18:44:06Z</time>
      </trkpt>
      <trkpt lat="40.199650" lon="-8.440588">
        <ele>110.707</ele>
        <time>2015-03-21T18:44:20Z</time>
      </trkpt>
      <trkpt lat="40.199877" lon="-8.439958">
        <ele>107.832</ele>
        <time>2015-03-21T18:44:29Z</time>
      </trkpt>
      <trkpt lat="40.200133" lon="-8.439504">
        <ele>104.935</ele>
        <time>2015-03-21T18:44:36Z</time>
      </trkpt>
      <trkpt lat="40.200125" lon="-8.438937">
        <ele>100.697</ele>
        <time>2015-03-21T18:44:41Z</time>
      </trkpt>
      <trkpt lat="40.200125" lon="-8.438415">
        <ele>97.277</ele>
        <time>2015-03-21T18:44:45Z</time>
      </trkpt>
      <trkpt lat="40.200127" lon="-8.438292">
        <ele>96.815</ele>
        <time>2015-03-21T18:44:46Z</time>
      </trkpt>
      <trkpt lat="40.200344" lon="-8.437780">
        <ele>92.950</ele>
        <time>2015-03-21T18:44:52Z</time>
      </trkpt>
      <trkpt lat="40.200442" lon="-8.437573">
        <ele>90.597</ele>
        <time>2015-03-21T18:44:56Z</time>
      </trkpt>
      <trkpt lat="40.200495" lon="-8.437488">
        <ele>89.111</ele>
        <time>2015-03-21T18:46:00Z</time>
      </trkpt>
      <trkpt lat="40.200625" lon="-8.437500">
        <ele>90.021</ele>
        <time>2015-03-21T18:46:12Z</time>
      </trkpt>
      <trkpt lat="40.200726" lon="-8.437424">
        <ele>89.103</ele>
        <time>2015-03-21T18:46:22Z</time>
      </trkpt>
      <trkpt lat="40.200850" lon="-8.437365">
        <ele>88.107</ele>
        <time>2015-03-21T18:46:50Z</time>
      </trkpt>
      <trkpt lat="40.201207" lon="-8.437147">
        <ele>85.710</ele>
        <time>2015-03-21T18:47:00Z</time>
      </trkpt>
      <trkpt lat="40.201280" lon="-8.437087">
        <ele>85.763</ele>
        <time>2015-03-21T18:47:04Z</time>
      </trkpt>
      <trkpt lat="40.201676" lon="-8.436839">
        <ele>81.965</ele>
        <time>2015-03-21T18:47:15Z</time>
      </trkpt>
      <trkpt lat="40.202001" lon="-8.436790">
        <ele>78.035</ele>
        <time>2015-03-21T18:47:20Z</time>
      </trkpt>
      <trkpt lat="40.202136" lon="-8.436771">
        <ele>75.183</ele>
        <time>2015-03-21T18:47:22Z</time>
      </trkpt>
      <trkpt lat="40.202340" lon="-8.436687">
        <ele>71.848</ele>
        <time>2015-03-21T18:47:28Z</time>
      </trkpt>
      <trkpt lat="40.202391" lon="-8.436690">
        <ele>71.345</ele>
        <time>2015-03-21T18:47:37Z</time>
      </trkpt>
      <trkpt lat="40.202510" lon="-8.436677">
        <ele>69.882</ele>
        <time>2015-03-21T18:48:29Z</time>
      </trkpt>
      <trkpt lat="40.202643" lon="-8.436725">
        <ele>68.443</ele>
        <time>2015-03-21T18:48:32Z</time>
      </trkpt>
      <trkpt lat="40.202894" lon="-8.436804">
        <ele>64.617</ele>
        <time>2015-03-21T18:48:37Z</time>
      </trkpt>
      <trkpt lat="40.202942" lon="-8.436820">
        <ele>64.107</ele>
        <time>2015-03-21T18:48:38Z</time>
      </trkpt>
      <trkpt lat="40.203052" lon="-8.436695">
        <ele>60.287</ele>
        <time>2015-03-21T18:48:45Z</time>
      </trkpt>
      <trkpt lat="40.202848" lon="-8.436499">
        <ele>55.430</ele>
        <time>2015-03-21T18:48:51Z</time>
      </trkpt>
      <trkpt lat="40.202764" lon="-8.436423">
        <ele>53.052</ele>
        <time>2015-03-21T18:48:54Z</time>
      </trkpt>
      <trkpt lat="40.202583" lon="-8.436186">
        <ele>48.782</ele>
        <time>2015-03-21T18:48:59Z</time>
      </trkpt>
      <trkpt lat="40.202537" lon="-8.436141">
        <ele>47.790</ele>
        <time>2015-03-21T18:49:00Z</time>
      </trkpt>
      <trkpt lat="40.202388" lon="-8.436010">
        <ele>43.925</ele>
        <time>2015-03-21T18:49:04Z</time>
      </trkpt>
      <trkpt lat="40.202475" lon="-8.435888">
        <ele>41.092</ele>
        <time>2015-03-21T18:49:08Z</time>
      </trkpt>
      <trkpt lat="40.202704" lon="-8.435795">
        <ele>37.649</ele>
        <time>2015-03-21T18:49:12Z</time>
      </trkpt>
      <trkpt lat="40.202915" lon="-8.435650">
        <ele>33.302</ele>
        <time>2015-03-21T18:49:17Z</time>
      </trkpt>
      <trkpt lat="40.203077" lon="-8.435270">
        <ele>30.922</ele>
        <time>2015-03-21T18:49:27Z</time>
      </trkpt>
      <trkpt lat="40.203131" lon="-8.435100">
        <ele>30.407</ele>
        <time>2015-03-21T18:49:30Z</time>
      </trkpt>
      <trkpt lat="40.203204" lon="-8.434587">
        <ele>28.563</ele>
        <time>2015-03-21T18:49:42Z</time>
      </trkpt>
      <trkpt lat="40.203222" lon="-8.434327">
        <ele>28.036</ele>
        <time>2015-03-21T18:49:51Z</time>
      </trkpt>
      <trkpt lat="40.203252" lon="-8.434216">
        <ele>28.068</ele>
        <time>2015-03-21T18:50:09Z</time>
      </trkpt>
      <trkpt lat="40.203367" lon="-8.433848">
        <ele>28.018</ele>
        <time>2015-03-21T18:50:17Z</time>
      </trkpt>
      <trkpt lat="40.203720" lon="-8.432981">
        <ele>28.056</ele>
        <time>2015-03-21T18:50:37Z</time>
      </trkpt>
      <trkpt lat="40.204002" lon="-8.432426">
        <ele>28.071</ele>
        <time>2015-03-21T18:50:51Z</time>
      </trkpt>
      <trkpt lat="40.204120" lon="-8.432065">
        <ele>28.028</ele>
        <time>2015-03-21T18:51:01Z</time>
      </trkpt>
      <trkpt lat="40.204528" lon="-8.431825">
        <ele>29.079</ele>
        <time>2015-03-21T18:51:15Z</time>
      </trkpt>
      <trkpt lat="40.204827" lon="-8.431493">
        <ele>29.505</ele>
        <time>2015-03-21T18:51:28Z</time>
      </trkpt>
      <trkpt lat="40.205255" lon="-8.431085">
        <ele>30.925</ele>
        <time>2015-03-21T18:51:47Z</time>
      </trkpt>
      <trkpt lat="40.205292" lon="-8.431050">
        <ele>30.907</ele>
        <time>2015-03-21T18:51:58Z</time>
      </trkpt>
      <trkpt lat="40.205383" lon="-8.430999">
        <ele>30.926</ele>
        <time>2015-03-21T18:52:45Z</time>
      </trkpt>
      <trkpt lat="40.205698" lon="-8.430696">
        <ele>31.469</ele>
        <time>2015-03-21T18:53:01Z</time>
      </trkpt>
      <trkpt lat="40.206112" lon="-8.430311">
        <ele>31.491</ele>
        <time>2015-03-21T18:53:18Z</time>
      </trkpt>
      <trkpt lat="40.206649" lon="-8.429819">
        <ele>31.421</ele>
        <time>2015-03-21T18:53:37Z</time>
      </trkpt>
      <trkpt lat="40.206779" lon="-8.429467">
        <ele>29.939</ele>
        <time>2015-03-21T18:53:49Z</time>
      </trkpt>
      <trkpt lat="40.206768" lon="-8.429381">
        <ele>29.544</ele>
        <time>2015-03-21T18:53:52Z</time>
      </trkpt>
      <trkpt lat="40.206717" lon="-8.429309">
        <ele>29.531</ele>
        <time>2015-03-21T18:54:06Z</time>
      </trkpt>
      <trkpt lat="40.206772" lon="-8.429276">
        <ele>29.067</ele>
        <time>2015-03-21T18:55:21Z</time>
      </trkpt>
      <trkpt lat="40.206860" lon="-8.429138">
        <ele>29.081</ele>
        <time>2015-03-21T18:55:28Z</time>
      </trkpt>
      <trkpt lat="40.207068" lon="-8.429362">
        <ele>29.019</ele>
        <time>2015-03-21T18:55:40Z</time>
      </trkpt>
      <trkpt lat="40.207296" lon="-8.429287">
        <ele>29.907</ele>
        <time>2015-03-21T18:55:53Z</time>
      </trkpt>
      <trkpt lat="40.207518" lon="-8.429236">
        <ele>30.475</ele>
        <time>2015-03-21T18:56:07Z</time>
      </trkpt>
      <trkpt lat="40.207596" lon="-8.429234">
        <ele>30.488</ele>
        <time>2015-03-21T18:56:12Z</time>
      </trkpt>
      <trkpt lat="40.207851" lon="-8.429144">
        <ele>30.970</ele>
        <time>2015-03-21T18:56:27Z</time>
      </trkpt>
      <trkpt lat="40.208141" lon="-8.429072">
        <ele>31.440</ele>
        <time>2015-03-21T18:56:41Z</time>
      </trkpt>
      <trkpt lat="40.208369" lon="-8.428982">
        <ele>31.428</ele>
        <time>2015-03-21T18:56:53Z</time>
      </trkpt>
      <trkpt lat="40.208721" lon="-8.428984">
        <ele>31.463</ele>
        <time>2015-03-21T18:57:07Z</time>
      </trkpt>
      <trkpt lat="40.208954" lon="-8.428942">
        <ele>31.950</ele>
        <time>2015-03-21T18:57:17Z</time>
      </trkpt>
      <trkpt lat="40.209271" lon="-8.428929">
        <ele>31.944</ele>
        <time>2015-03-21T18:57:32Z</time>
      </trkpt>
      <trkpt lat="40.209417" lon="-8.428971">
        <ele>31.905</ele>
        <time>2015-03-21T18:57:45Z</time>
      </trkpt>
      <trkpt lat="40.209459" lon="-8.429148">
        <ele>31.915</ele>
        <time>2015-03-21T18:58:47Z</time>
      </trkpt>
      <trkpt lat="40.209514" lon="-8.429216">
        <ele>34.307</ele>
        <time>2015-03-21T19:03:27Z</time>
      </trkpt>
      <trkpt lat="40.209563" lon="-8.429206">
        <ele>33.893</ele>
        <time>2015-03-21T19:03:34Z</time>
      </trkpt>
      <trkpt lat="40.209739" lon="-8.429184">
        <ele>33.316</ele>
        <time>2015-03-21T19:03:49Z</time>
      </trkpt>
      <trkpt lat="40.209935" lon="-8.429128">
        <ele>32.388</ele>
        <time>2015-03-21T19:04:04Z</time>
      </trkpt>
      <trkpt lat="40.210203" lon="-8.429125">
        <ele>31.448</ele>
        <time>2015-03-21T19:04:25Z</time>
      </trkpt>
      <trkpt lat="40.210427" lon="-8.429109">
        <ele>30.936</ele>
        <time>2015-03-21T19:04:44Z</time>
      </trkpt>
      <trkpt lat="40.210622" lon="-8.429067">
        <ele>29.961</ele>
        <time>2015-03-21T19:05:01Z</time>
      </trkpt>
      <trkpt lat="40.210847" lon="-8.429131">
        <ele>27.528</ele>
        <time>2015-03-21T19:05:16Z</time>
      </trkpt>
      <trkpt lat="40.211084" lon="-8.429148">
        <ele>28.013</ele>
        <time>2015-03-21T19:05:36Z</time>
      </trkpt>
      <trkpt lat="40.211223" lon="-8.429165">
        <ele>29.043</ele>
        <time>2015-03-21T19:05:49Z</time>
      </trkpt>
      <trkpt lat="40.211449" lon="-8.429182">
        <ele>29.907</ele>
        <time>2015-03-21T19:06:11Z</time>
      </trkpt>
      <trkpt lat="40.211499" lon="-8.429055">
        <ele>30.907</ele>
        <time>2015-03-21T19:10:00Z</time>
      </trkpt>
      <trkpt lat="40.211545" lon="-8.428596">
        <ele>31.420</ele>
        <time>2015-03-21T19:10:16Z</time>
      </trkpt>
      <trkpt lat="40.211565" lon="-8.428009">
        <ele>33.373</ele>
        <time>2015-03-21T19:10:36Z</time>
      </trkpt>
      <trkpt lat="40.211680" lon="-8.427401">
        <ele>35.215</ele>
        <time>2015-03-21T19:12:11Z</time>
      </trkpt>
      <trkpt lat="40.211655" lon="-8.427010">
        <ele>36.275</ele>
        <time>2015-03-21T19:13:29Z</time>
      </trkpt>
      <trkpt lat="40.211697" lon="-8.426453">
        <ele>38.183</ele>
        <time>2015-03-21T19:13:48Z</time>
      </trkpt>
      <trkpt lat="40.211716" lon="-8.425997">
        <ele>39.618</ele>
        <time>2015-03-21T19:14:04Z</time>
      </trkpt>
      <trkpt lat="40.211681" lon="-8.425515">
        <ele>41.025</ele>
        <time>2015-03-21T19:14:21Z</time>
      </trkpt>
      <trkpt lat="40.211600" lon="-8.425142">
        <ele>43.985</ele>
        <time>2015-03-21T19:14:36Z</time>
      </trkpt>
      <trkpt lat="40.211558" lon="-8.424974">
        <ele>43.989</ele>
        <time>2015-03-21T19:14:50Z</time>
      </trkpt>
      <trkpt lat="40.211477" lon="-8.424766">
        <ele>44.817</ele>
        <time>2015-03-21T19:15:03Z</time>
      </trkpt>
      <trkpt lat="40.211332" lon="-8.424294">
        <ele>47.707</ele>
        <time>2015-03-21T19:15:22Z</time>
      </trkpt>
      <trkpt lat="40.211284" lon="-8.423956">
        <ele>49.767</ele>
        <time>2015-03-21T19:15:38Z</time>
      </trkpt>
      <trkpt lat="40.211271" lon="-8.423861">
        <ele>50.170</ele>
        <time>2015-03-21T19:15:43Z</time>
      </trkpt>
      <trkpt lat="40.211249" lon="-8.423762">
        <ele>51.642</ele>
        <time>2015-03-21T19:15:49Z</time>
      </trkpt>
      <trkpt lat="40.211225" lon="-8.423634">
        <ele>52.112</ele>
        <time>2015-03-21T19:15:55Z</time>
      </trkpt>
      <trkpt lat="40.211107" lon="-8.423322">
        <ele>54.080</ele>
        <time>2015-03-21T19:16:09Z</time>
      </trkpt>
      <trkpt lat="40.211036" lon="-8.423177">
        <ele>55.465</ele>
        <time>2015-03-21T19:16:16Z</time>
      </trkpt>
      <trkpt lat="40.210891" lon="-8.422928">
        <ele>56.922</ele>
        <time>2015-03-21T19:16:29Z</time>
      </trkpt>
      <trkpt lat="40.210738" lon="-8.422669">
        <ele>58.867</ele>
        <time>2015-03-21T19:16:44Z</time>
      </trkpt>
      <trkpt lat="40.210603" lon="-8.422422">
        <ele>60.281</ele>
        <time>2015-03-21T19:16:57Z</time>
      </trkpt>
      <trkpt lat="40.210415" lon="-8.422136">
        <ele>62.119</ele>
        <time>2015-03-21T19:17:12Z</time>
      </trkpt>
      <trkpt lat="40.210284" lon="-8.421927">
        <ele>63.607</ele>
        <time>2015-03-21T19:17:23Z</time>
      </trkpt>
      <trkpt lat="40.210098" lon="-8.421641">
        <ele>65.025</ele>
        <time>2015-03-21T19:17:38Z</time>
      </trkpt>
      <trkpt lat="40.209932" lon="-8.421386">
        <ele>67.458</ele>
        <time>2015-03-21T19:17:51Z</time>
      </trkpt>
      <trkpt lat="40.209792" lon="-8.421125">
        <ele>68.910</ele>
        <time>2015-03-21T19:18:06Z</time>
      </trkpt>
      <trkpt lat="40.209654" lon="-8.420920">
        <ele>70.340</ele>
        <time>2015-03-21T19:18:17Z</time>
      </trkpt>
      <trkpt lat="40.209595" lon="-8.420837">
        <ele>70.838</ele>
        <time>2015-03-21T19:18:22Z</time>
      </trkpt>
      <trkpt lat="40.209535" lon="-8.420702">
        <ele>71.323</ele>
        <time>2015-03-21T19:18:30Z</time>
      </trkpt>
      <trkpt lat="40.209388" lon="-8.420402">
        <ele>72.290</ele>
        <time>2015-03-21T19:18:43Z</time>
      </trkpt>
      <trkpt lat="40.209336" lon="-8.420325">
        <ele>72.288</ele>
        <time>2015-03-21T19:18:47Z</time>
      </trkpt>
      <trkpt lat="40.209291" lon="-8.420269">
        <ele>72.224</ele>
        <time>2015-03-21T19:18:51Z</time>
      </trkpt>
      <trkpt lat="40.209196" lon="-8.419863">
        <ele>72.726</ele>
        <time>2015-03-21T19:19:00Z</time>
      </trkpt>
      <trkpt lat="40.209191" lon="-8.419523">
        <ele>73.207</ele>
        <time>2015-03-21T19:19:13Z</time>
      </trkpt>
      <trkpt lat="40.209224" lon="-8.419355">
        <ele>73.237</ele>
        <time>2015-03-21T19:19:18Z</time>
      </trkpt>
      <trkpt lat="40.209511" lon="-8.419218">
        <ele>73.210</ele>
        <time>2015-03-21T19:19:31Z</time>
      </trkpt>
      <trkpt lat="40.209750" lon="-8.419153">
        <ele>73.222</ele>
        <time>2015-03-21T19:19:40Z</time>
      </trkpt>
      <trkpt lat="40.209805" lon="-8.419092">
        <ele>73.212</ele>
        <time>2015-03-21T19:19:44Z</time>
      </trkpt>
      <trkpt lat="40.209923" lon="-8.418779">
        <ele>75.110</ele>
        <time>2015-03-21T19:19:59Z</time>
      </trkpt>
      <trkpt lat="40.210038" lon="-8.418458">
        <ele>77.575</ele>
        <time>2015-03-21T19:20:15Z</time>
      </trkpt>
      <trkpt lat="40.210122" lon="-8.418236">
        <ele>80.422</ele>
        <time>2015-03-21T19:20:27Z</time>
      </trkpt>
      <trkpt lat="40.210175" lon="-8.418106">
        <ele>80.475</ele>
        <time>2015-03-21T19:20:34Z</time>
      </trkpt>
      <trkpt lat="40.210260" lon="-8.417862">
        <ele>82.328</ele>
        <time>2015-03-21T19:20:48Z</time>
      </trkpt>
      <trkpt lat="40.210360" lon="-8.417569">
        <ele>84.720</ele>
        <time>2015-03-21T19:21:04Z</time>
      </trkpt>
      <trkpt lat="40.210479" lon="-8.417279">
        <ele>87.107</ele>
        <time>2015-03-21T19:21:20Z</time>
      </trkpt>
      <trkpt lat="40.210527" lon="-8.417132">
        <ele>88.176</ele>
        <time>2015-03-21T19:21:28Z</time>
      </trkpt>
      <trkpt lat="40.210557" lon="-8.417000">
        <ele>89.579</ele>
        <time>2015-03-21T19:21:35Z</time>
      </trkpt>
      <trkpt lat="40.210668" lon="-8.416710">
        <ele>91.581</ele>
        <time>2015-03-21T19:21:50Z</time>
      </trkpt>
      <trkpt lat="40.210712" lon="-8.416608">
        <ele>91.981</ele>
        <time>2015-03-21T19:21:56Z</time>
      </trkpt>
      <trkpt lat="40.210806" lon="-8.416314">
        <ele>94.879</ele>
        <time>2015-03-21T19:22:13Z</time>
      </trkpt>
      <trkpt lat="40.210897" lon="-8.416059">
        <ele>96.834</ele>
        <time>2015-03-21T19:22:27Z</time>
      </trkpt>
      <trkpt lat="40.210979" lon="-8.415790">
        <ele>99.221</ele>
        <time>2015-03-21T19:22:42Z</time>
      </trkpt>
      <trkpt lat="40.211081" lon="-8.415493">
        <ele>101.627</ele>
        <time>2015-03-21T19:22:59Z</time>
      </trkpt>
      <trkpt lat="40.211135" lon="-8.415347">
        <ele>102.568</ele>
        <time>2015-03-21T19:23:07Z</time>
      </trkpt>
      <trkpt lat="40.211151" lon="-8.415273">
        <ele>103.514</ele>
        <time>2015-03-21T19:23:12Z</time>
      </trkpt>
      <trkpt lat="40.211163" lon="-8.415192">
        <ele>104.407</ele>
        <time>2015-03-21T19:23:18Z</time>
      </trkpt>
      <trkpt lat="40.211226" lon="-8.415054">
        <ele>105.481</ele>
        <time>2015-03-21T19:23:25Z</time>
      </trkpt>
      <trkpt lat="40.211346" lon="-8.414762">
        <ele>107.394</ele>
        <time>2015-03-21T19:23:39Z</time>
      </trkpt>
      <trkpt lat="40.211395" lon="-8.414593">
        <ele>109.356</ele>
        <time>2015-03-21T19:23:48Z</time>
      </trkpt>
      <trkpt lat="40.211465" lon="-8.414371">
        <ele>111.756</ele>
        <time>2015-03-21T19:24:01Z</time>
      </trkpt>
      <trkpt lat="40.211356" lon="-8.414217">
        <ele>113.644</ele>
        <time>2015-03-21T19:24:13Z</time>
      </trkpt>
      <trkpt lat="40.211290" lon="-8.414186">
        <ele>115.069</ele>
        <time>2015-03-21T19:24:21Z</time>
      </trkpt>
      <trkpt lat="40.211132" lon="-8.414061">
        <ele>117.436</ele>
        <time>2015-03-21T19:24:33Z</time>
      </trkpt>
      <trkpt lat="40.211002" lon="-8.414028">
        <ele>118.478</ele>
        <time>2015-03-21T19:24:46Z</time>
      </trkpt>
      <trkpt lat="40.211138" lon="-8.414064">
        <ele>119.333</ele>
        <time>2015-03-22T08:40:17Z</time>
      </trkpt>
      <trkpt lat="40.211341" lon="-8.414216">
        <ele>116.026</ele>
        <time>2015-03-22T08:40:26Z</time>
      </trkpt>
      <trkpt lat="40.211413" lon="-8.414254">
        <ele>115.007</ele>
        <time>2015-03-22T08:40:30Z</time>
      </trkpt>
      <trkpt lat="40.211424" lon="-8.414332">
        <ele>114.186</ele>
        <time>2015-03-22T08:40:33Z</time>
      </trkpt>
      <trkpt lat="40.211410" lon="-8.414391">
        <ele>113.699</ele>
        <time>2015-03-22T08:41:02Z</time>
      </trkpt>
      <trkpt lat="40.211348" lon="-8.414806">
        <ele>109.761</ele>
        <time>2015-03-22T08:41:28Z</time>
      </trkpt>
      <trkpt lat="40.211231" lon="-8.415139">
        <ele>106.831</ele>
        <time>2015-03-22T08:41:33Z</time>
      </trkpt>
      <trkpt lat="40.211094" lon="-8.415527">
        <ele>103.519</ele>
        <time>2015-03-22T08:41:38Z</time>
      </trkpt>
      <trkpt lat="40.210924" lon="-8.416016">
        <ele>100.184</ele>
        <time>2015-03-22T08:41:43Z</time>
      </trkpt>
      <trkpt lat="40.210766" lon="-8.416447">
        <ele>96.821</ele>
        <time>2015-03-22T08:41:47Z</time>
      </trkpt>
      <trkpt lat="40.210581" lon="-8.416940">
        <ele>92.935</ele>
        <time>2015-03-22T08:41:51Z</time>
      </trkpt>
      <trkpt lat="40.210397" lon="-8.417466">
        <ele>89.186</ele>
        <time>2015-03-22T08:41:55Z</time>
      </trkpt>
      <trkpt lat="40.210267" lon="-8.417850">
        <ele>85.714</ele>
        <time>2015-03-22T08:41:58Z</time>
      </trkpt>
      <trkpt lat="40.210133" lon="-8.418252">
        <ele>82.307</ele>
        <time>2015-03-22T08:42:01Z</time>
      </trkpt>
      <trkpt lat="40.209955" lon="-8.418757">
        <ele>78.052</ele>
        <time>2015-03-22T08:42:05Z</time>
      </trkpt>
      <trkpt lat="40.209918" lon="-8.418867">
        <ele>77.565</ele>
        <time>2015-03-22T08:42:06Z</time>
      </trkpt>
      <trkpt lat="40.209857" lon="-8.419252">
        <ele>74.667</ele>
        <time>2015-03-22T08:42:10Z</time>
      </trkpt>
      <trkpt lat="40.209914" lon="-8.420008">
        <ele>74.667</ele>
        <time>2015-03-22T08:42:24Z</time>
      </trkpt>
      <trkpt lat="40.210024" lon="-8.420432">
        <ele>73.295</ele>
        <time>2015-03-22T08:42:34Z</time>
      </trkpt>
      <trkpt lat="40.210148" lon="-8.420685">
        <ele>71.330</ele>
        <time>2015-03-22T08:42:40Z</time>
      </trkpt>
      <trkpt lat="40.209982" lon="-8.421032">
        <ele>69.827</ele>
        <time>2015-03-22T08:42:50Z</time>
      </trkpt>
      <trkpt lat="40.209742" lon="-8.421264">
        <ele>70.362</ele>
        <time>2015-03-22T08:43:04Z</time>
      </trkpt>
      <trkpt lat="40.209575" lon="-8.421494">
        <ele>72.783</ele>
        <time>2015-03-22T08:43:19Z</time>
      </trkpt>
      <trkpt lat="40.209654" lon="-8.421770">
        <ele>73.711</ele>
        <time>2015-03-22T08:43:33Z</time>
      </trkpt>
      <trkpt lat="40.209848" lon="-8.422101">
        <ele>75.607</ele>
        <time>2015-03-22T08:43:52Z</time>
      </trkpt>
      <trkpt lat="40.210034" lon="-8.422390">
        <ele>78.085</ele>
        <time>2015-03-22T08:44:11Z</time>
      </trkpt>
      <trkpt lat="40.210234" lon="-8.422694">
        <ele>80.948</ele>
        <time>2015-03-22T08:44:31Z</time>
      </trkpt>
      <trkpt lat="40.210405" lon="-8.422941">
        <ele>82.870</ele>
        <time>2015-03-22T08:44:47Z</time>
      </trkpt>
      <trkpt lat="40.210537" lon="-8.423182">
        <ele>84.710</ele>
        <time>2015-03-22T08:45:02Z</time>
      </trkpt>
      <trkpt lat="40.210643" lon="-8.423486">
        <ele>86.238</ele>
        <time>2015-03-22T08:45:17Z</time>
      </trkpt>
      <trkpt lat="40.210700" lon="-8.423838">
        <ele>88.683</ele>
        <time>2015-03-22T08:45:35Z</time>
      </trkpt>
      <trkpt lat="40.210697" lon="-8.424083">
        <ele>91.020</ele>
        <time>2015-03-22T08:45:48Z</time>
      </trkpt>
      <trkpt lat="40.210696" lon="-8.424442">
        <ele>92.991</ele>
        <time>2015-03-22T08:46:05Z</time>
      </trkpt>
      <trkpt lat="40.210652" lon="-8.424805">
        <ele>94.881</ele>
        <time>2015-03-22T08:46:23Z</time>
      </trkpt>
      <trkpt lat="40.210549" lon="-8.425131">
        <ele>96.819</ele>
        <time>2015-03-22T08:46:40Z</time>
      </trkpt>
      <trkpt lat="40.210424" lon="-8.425342">
        <ele>98.707</ele>
        <time>2015-03-22T08:46:54Z</time>
      </trkpt>
      <trkpt lat="40.210147" lon="-8.425266">
        <ele>102.058</ele>
        <time>2015-03-22T08:47:15Z</time>
      </trkpt>
      <trkpt lat="40.210049" lon="-8.425265">
        <ele>102.561</ele>
        <time>2015-03-22T08:47:22Z</time>
      </trkpt>
      <trkpt lat="40.209889" lon="-8.425229">
        <ele>104.453</ele>
        <time>2015-03-22T08:47:33Z</time>
      </trkpt>
      <trkpt lat="40.209765" lon="-8.425201">
        <ele>104.973</ele>
        <time>2015-03-22T08:47:41Z</time>
      </trkpt>
      <trkpt lat="40.209262" lon="-8.425051">
        <ele>102.581</ele>
        <time>2015-03-22T08:47:56Z</time>
      </trkpt>
      <trkpt lat="40.208847" lon="-8.424925">
        <ele>100.196</ele>
        <time>2015-03-22T08:48:10Z</time>
      </trkpt>
      <trkpt lat="40.208739" lon="-8.424922">
        <ele>100.153</ele>
        <time>2015-03-22T08:48:14Z</time>
      </trkpt>
      <trkpt lat="40.208667" lon="-8.424926">
        <ele>100.185</ele>
        <time>2015-03-22T08:48:19Z</time>
      </trkpt>
      <trkpt lat="40.208623" lon="-8.424909">
        <ele>101.689</ele>
        <time>2015-03-22T08:48:22Z</time>
      </trkpt>
      <trkpt lat="40.208406" lon="-8.424917">
        <ele>104.417</ele>
        <time>2015-03-22T08:48:37Z</time>
      </trkpt>
      <trkpt lat="40.208186" lon="-8.424953">
        <ele>106.807</ele>
        <time>2015-03-22T08:48:53Z</time>
      </trkpt>
      <trkpt lat="40.208093" lon="-8.424915">
        <ele>107.887</ele>
        <time>2015-03-22T08:49:00Z</time>
      </trkpt>
      <trkpt lat="40.208026" lon="-8.424906">
        <ele>108.310</ele>
        <time>2015-03-22T08:49:05Z</time>
      </trkpt>
      <trkpt lat="40.207867" lon="-8.425081">
        <ele>108.822</ele>
        <time>2015-03-22T08:49:19Z</time>
      </trkpt>
      <trkpt lat="40.207850" lon="-8.425411">
        <ele>109.332</ele>
        <time>2015-03-22T08:49:32Z</time>
      </trkpt>
      <trkpt lat="40.207786" lon="-8.425609">
        <ele>109.320</ele>
        <time>2015-03-22T08:49:40Z</time>
      </trkpt>
      <trkpt lat="40.207751" lon="-8.425680">
        <ele>109.375</ele>
        <time>2015-03-22T08:49:46Z</time>
      </trkpt>
      <trkpt lat="40.207483" lon="-8.425888">
        <ele>107.842</ele>
        <time>2015-03-22T08:49:57Z</time>
      </trkpt>
      <trkpt lat="40.206990" lon="-8.425992">
        <ele>106.887</ele>
        <time>2015-03-22T08:50:14Z</time>
      </trkpt>
      <trkpt lat="40.206946" lon="-8.426037">
        <ele>106.842</ele>
        <time>2015-03-22T08:50:25Z</time>
      </trkpt>
      <trkpt lat="40.207013" lon="-8.426077">
        <ele>105.926</ele>
        <time>2015-03-22T08:52:07Z</time>
      </trkpt>
      <trkpt lat="40.207093" lon="-8.426101">
        <ele>105.907</ele>
        <time>2015-03-22T08:52:27Z</time>
      </trkpt>
      <trkpt lat="40.207181" lon="-8.426137">
        <ele>106.417</ele>
        <time>2015-03-22T08:52:50Z</time>
      </trkpt>
      <trkpt lat="40.207428" lon="-8.426252">
        <ele>107.380</ele>
        <time>2015-03-22T08:53:11Z</time>
      </trkpt>
      <trkpt lat="40.207479" lon="-8.426235">
        <ele>107.382</ele>
        <time>2015-03-22T08:53:50Z</time>
      </trkpt>
      <trkpt lat="40.207663" lon="-8.425987">
        <ele>106.862</ele>
        <time>2015-03-22T08:54:03Z</time>
      </trkpt>
      <trkpt lat="40.207785" lon="-8.425665">
        <ele>107.890</ele>
        <time>2015-03-22T08:54:15Z</time>
      </trkpt>
      <trkpt lat="40.207836" lon="-8.425507">
        <ele>106.855</ele>
        <time>2015-03-22T08:54:20Z</time>
      </trkpt>
      <trkpt lat="40.207903" lon="-8.425004">
        <ele>107.862</ele>
        <time>2015-03-22T08:54:34Z</time>
      </trkpt>
      <trkpt lat="40.207927" lon="-8.424854">
        <ele>107.823</ele>
        <time>2015-03-22T08:54:38Z</time>
      </trkpt>
      <trkpt lat="40.208321" lon="-8.424886">
        <ele>104.983</ele>
        <time>2015-03-22T08:54:52Z</time>
      </trkpt>
      <trkpt lat="40.208567" lon="-8.424950">
        <ele>102.011</ele>
        <time>2015-03-22T08:54:59Z</time>
      </trkpt>
      <trkpt lat="40.208631" lon="-8.424971">
        <ele>100.607</ele>
        <time>2015-03-22T08:55:01Z</time>
      </trkpt>
      <trkpt lat="40.208771" lon="-8.425154">
        <ele>97.231</ele>
        <time>2015-03-22T08:55:48Z</time>
      </trkpt>
      <trkpt lat="40.208712" lon="-8.425358">
        <ele>93.964</ele>
        <time>2015-03-22T08:55:52Z</time>
      </trkpt>
      <trkpt lat="40.208668" lon="-8.425563">
        <ele>91.056</ele>
        <time>2015-03-22T08:55:56Z</time>
      </trkpt>
      <trkpt lat="40.208660" lon="-8.425713">
        <ele>89.196</ele>
        <time>2015-03-22T08:56:02Z</time>
      </trkpt>
      <trkpt lat="40.208800" lon="-8.425765">
        <ele>86.744</ele>
        <time>2015-03-22T08:56:07Z</time>
      </trkpt>
      <trkpt lat="40.208885" lon="-8.425800">
        <ele>84.789</ele>
        <time>2015-03-22T08:56:16Z</time>
      </trkpt>
      <trkpt lat="40.208884" lon="-8.426097">
        <ele>81.446</ele>
        <time>2015-03-22T08:56:24Z</time>
      </trkpt>
      <trkpt lat="40.208870" lon="-8.426370">
        <ele>78.066</ele>
        <time>2015-03-22T08:56:31Z</time>
      </trkpt>
      <trkpt lat="40.208839" lon="-8.426509">
        <ele>76.629</ele>
        <time>2015-03-22T08:56:42Z</time>
      </trkpt>
      <trkpt lat="40.208825" lon="-8.426596">
        <ele>76.621</ele>
        <time>2015-03-22T08:57:05Z</time>
      </trkpt>
      <trkpt lat="40.208868" lon="-8.426718">
        <ele>74.607</ele>
        <time>2015-03-22T08:57:09Z</time>
      </trkpt>
      <trkpt lat="40.208933" lon="-8.426924">
        <ele>72.265</ele>
        <time>2015-03-22T08:57:15Z</time>
      </trkpt>
      <trkpt lat="40.208937" lon="-8.427236">
        <ele>68.948</ele>
        <time>2015-03-22T08:57:22Z</time>
      </trkpt>
      <trkpt lat="40.208971" lon="-8.427495">
        <ele>67.010</ele>
        <time>2015-03-22T08:57:33Z</time>
      </trkpt>
      <trkpt lat="40.208876" lon="-8.427557">
        <ele>66.040</ele>
        <time>2015-03-22T08:58:56Z</time>
      </trkpt>
      <trkpt lat="40.208656" lon="-8.427820">
        <ele>63.698</ele>
        <time>2015-03-22T08:59:07Z</time>
      </trkpt>
      <trkpt lat="40.208306" lon="-8.428153">
        <ele>62.113</ele>
        <time>2015-03-22T08:59:19Z</time>
      </trkpt>
      <trkpt lat="40.208111" lon="-8.428289">
        <ele>61.210</ele>
        <time>2015-03-22T08:59:24Z</time>
      </trkpt>
      <trkpt lat="40.207987" lon="-8.428356">
        <ele>60.793</ele>
        <time>2015-03-22T08:59:27Z</time>
      </trkpt>
      <trkpt lat="40.207798" lon="-8.428427">
        <ele>59.365</ele>
        <time>2015-03-22T08:59:32Z</time>
      </trkpt>
      <trkpt lat="40.207534" lon="-8.428513">
        <ele>56.921</ele>
        <time>2015-03-22T08:59:39Z</time>
      </trkpt>
      <trkpt lat="40.207442" lon="-8.428593">
        <ele>54.907</ele>
        <time>2015-03-22T08:59:42Z</time>
      </trkpt>
      <trkpt lat="40.207404" lon="-8.428671">
        <ele>54.598</ele>
        <time>2015-03-22T08:59:46Z</time>
      </trkpt>
      <trkpt lat="40.207493" lon="-8.428631">
        <ele>53.531</ele>
        <time>2015-03-22T08:59:50Z</time>
      </trkpt>
      <trkpt lat="40.207844" lon="-8.428597">
        <ele>51.613</ele>
        <time>2015-03-22T09:00:00Z</time>
      </trkpt>
      <trkpt lat="40.207984" lon="-8.428590">
        <ele>50.633</ele>
        <time>2015-03-22T09:00:03Z</time>
      </trkpt>
      <trkpt lat="40.208334" lon="-8.428561">
        <ele>47.711</ele>
        <time>2015-03-22T09:00:10Z</time>
      </trkpt>
      <trkpt lat="40.208428" lon="-8.428549">
        <ele>46.396</ele>
        <time>2015-03-22T09:00:12Z</time>
      </trkpt>
      <trkpt lat="40.208602" lon="-8.428484">
        <ele>45.363</ele>
        <time>2015-03-22T09:00:16Z</time>
      </trkpt>
      <trkpt lat="40.208738" lon="-8.428611">
        <ele>41.564</ele>
        <time>2015-03-22T09:00:25Z</time>
      </trkpt>
      <trkpt lat="40.208763" lon="-8.428703">
        <ele>41.006</ele>
        <time>2015-03-22T09:00:26Z</time>
      </trkpt>
      <trkpt lat="40.208884" lon="-8.428816">
        <ele>38.116</ele>
        <time>2015-03-22T09:00:31Z</time>
      </trkpt>
      <trkpt lat="40.208876" lon="-8.428998">
        <ele>36.207</ele>
        <time>2015-03-22T09:00:37Z</time>
      </trkpt>
      <trkpt lat="40.208648" lon="-8.429106">
        <ele>39.145</ele>
        <time>2015-03-22T09:04:20Z</time>
      </trkpt>
      <trkpt lat="40.208253" lon="-8.429185">
        <ele>39.178</ele>
        <time>2015-03-22T09:04:35Z</time>
      </trkpt>
      <trkpt lat="40.207798" lon="-8.429257">
        <ele>38.160</ele>
        <time>2015-03-22T09:04:52Z</time>
      </trkpt>
      <trkpt lat="40.207646" lon="-8.429239">
        <ele>37.650</ele>
        <time>2015-03-22T09:04:58Z</time>
      </trkpt>
      <trkpt lat="40.207592" lon="-8.429359">
        <ele>37.658</ele>
        <time>2015-03-22T09:05:05Z</time>
      </trkpt>
      <trkpt lat="40.207651" lon="-8.429406">
        <ele>35.743</ele>
        <time>2015-03-22T09:05:18Z</time>
      </trkpt>
      <trkpt lat="40.207761" lon="-8.429378">
        <ele>31.980</ele>
        <time>2015-03-22T09:05:31Z</time>
      </trkpt>
      <trkpt lat="40.207995" lon="-8.429495">
        <ele>31.437</ele>
        <time>2015-03-22T09:05:40Z</time>
      </trkpt>
      <trkpt lat="40.208231" lon="-8.429428">
        <ele>32.849</ele>
        <time>2015-03-22T09:05:51Z</time>
      </trkpt>
      <trkpt lat="40.208335" lon="-8.429390">
        <ele>32.813</ele>
        <time>2015-03-22T09:05:56Z</time>
      </trkpt>
      <trkpt lat="40.208462" lon="-8.429388">
        <ele>33.307</ele>
        <time>2015-03-22T09:06:01Z</time>
      </trkpt>
      <trkpt lat="40.208927" lon="-8.429364">
        <ele>34.382</ele>
        <time>2015-03-22T09:06:36Z</time>
      </trkpt>
      <trkpt lat="40.209270" lon="-8.429397">
        <ele>32.835</ele>
        <time>2015-03-22T09:06:51Z</time>
      </trkpt>
      <trkpt lat="40.209426" lon="-8.429499">
        <ele>33.377</ele>
        <time>2015-03-22T09:07:38Z</time>
      </trkpt>
      <trkpt lat="40.209608" lon="-8.429574">
        <ele>32.887</ele>
        <time>2015-03-22T09:07:45Z</time>
      </trkpt>
      <trkpt lat="40.209652" lon="-8.429621">
        <ele>32.835</ele>
        <time>2015-03-22T09:07:47Z</time>
      </trkpt>
      <trkpt lat="40.209946" lon="-8.429719">
        <ele>32.890</ele>
        <time>2015-03-22T09:07:59Z</time>
      </trkpt>
      <trkpt lat="40.210057" lon="-8.429768">
        <ele>32.897</ele>
        <time>2015-03-22T09:08:03Z</time>
      </trkpt>
      <trkpt lat="40.210333" lon="-8.429990">
        <ele>32.886</ele>
        <time>2015-03-22T09:08:15Z</time>
      </trkpt>
      <trkpt lat="40.210432" lon="-8.430058">
        <ele>33.360</ele>
        <time>2015-03-22T09:08:19Z</time>
      </trkpt>
      <trkpt lat="40.210531" lon="-8.429754">
        <ele>33.826</ele>
        <time>2015-03-22T09:08:39Z</time>
      </trkpt>
      <trkpt lat="40.210673" lon="-8.429291">
        <ele>33.807</ele>
        <time>2015-03-22T09:08:52Z</time>
      </trkpt>
      <trkpt lat="40.210759" lon="-8.429196">
        <ele>34.317</ele>
        <time>2015-03-22T09:09:08Z</time>
      </trkpt>
      <trkpt lat="40.210927" lon="-8.429142">
        <ele>34.350</ele>
        <time>2015-03-22T09:09:22Z</time>
      </trkpt>
      <trkpt lat="40.210942" lon="-8.429060">
        <ele>34.722</ele>
        <time>2015-03-22T09:09:43Z</time>
      </trkpt>
      <trkpt lat="40.211033" lon="-8.429054">
        <ele>34.772</ele>
        <time>2015-03-22T09:09:47Z</time>
      </trkpt>
      <trkpt lat="40.211354" lon="-8.429207">
        <ele>36.710</ele>
        <time>2015-03-22T09:10:02Z</time>
      </trkpt>
      <trkpt lat="40.211641" lon="-8.429510">
        <ele>37.215</ele>
        <time>2015-03-22T09:10:15Z</time>
      </trkpt>
      <trkpt lat="40.212004" lon="-8.429841">
        <ele>38.182</ele>
        <time>2015-03-22T09:10:32Z</time>
      </trkpt>
      <trkpt lat="40.212339" lon="-8.430082">
        <ele>38.145</ele>
        <time>2015-03-22T09:10:46Z</time>
      </trkpt>
      <trkpt lat="40.212748" lon="-8.430484">
        <ele>38.147</ele>
        <time>2015-03-22T09:11:01Z</time>
      </trkpt>
      <trkpt lat="40.213058" lon="-8.430790">
        <ele>38.611</ele>
        <time>2015-03-22T09:11:15Z</time>
      </trkpt>
      <trkpt lat="40.213175" lon="-8.430874">
        <ele>38.607</ele>
        <time>2015-03-22T09:11:20Z</time>
      </trkpt>
      <trkpt lat="40.213276" lon="-8.431009">
        <ele>38.613</ele>
        <time>2015-03-22T09:11:26Z</time>
      </trkpt>
      <trkpt lat="40.213596" lon="-8.431289">
        <ele>38.656</ele>
        <time>2015-03-22T09:11:40Z</time>
      </trkpt>
      <trkpt lat="40.213965" lon="-8.431584">
        <ele>38.698</ele>
        <time>2015-03-22T09:11:57Z</time>
      </trkpt>
      <trkpt lat="40.214017" lon="-8.431659">
        <ele>39.118</ele>
        <time>2015-03-22T09:12:01Z</time>
      </trkpt>
      <trkpt lat="40.214013" lon="-8.431784">
        <ele>39.176</ele>
        <time>2015-03-22T09:12:05Z</time>
      </trkpt>
      <trkpt lat="40.213870" lon="-8.432193">
        <ele>39.671</ele>
        <time>2015-03-22T09:12:17Z</time>
      </trkpt>
      <trkpt lat="40.213701" lon="-8.432355">
        <ele>38.178</ele>
        <time>2015-03-22T09:12:24Z</time>
      </trkpt>
      <trkpt lat="40.213668" lon="-8.432476">
        <ele>38.179</ele>
        <time>2015-03-22T09:12:33Z</time>
      </trkpt>
      <trkpt lat="40.213484" lon="-8.432832">
        <ele>38.105</ele>
        <time>2015-03-22T09:12:46Z</time>
      </trkpt>
      <trkpt lat="40.213444" lon="-8.432922">
        <ele>38.125</ele>
        <time>2015-03-22T09:12:49Z</time>
      </trkpt>
      <trkpt lat="40.213330" lon="-8.433319">
        <ele>38.107</ele>
        <time>2015-03-22T09:13:01Z</time>
      </trkpt>
      <trkpt lat="40.213403" lon="-8.433428">
        <ele>38.166</ele>
        <time>2015-03-22T09:13:05Z</time>
      </trkpt>
      <trkpt lat="40.213779" lon="-8.433814">
        <ele>38.189</ele>
        <time>2015-03-22T09:13:20Z</time>
      </trkpt>
      <trkpt lat="40.214286" lon="-8.434373">
        <ele>38.181</ele>
        <time>2015-03-22T09:13:38Z</time>
      </trkpt>
      <trkpt lat="40.214807" lon="-8.434883">
        <ele>38.131</ele>
        <time>2015-03-22T09:13:55Z</time>
      </trkpt>
      <trkpt lat="40.215442" lon="-8.435498">
        <ele>37.649</ele>
        <time>2015-03-22T09:14:16Z</time>
      </trkpt>
      <trkpt lat="40.215739" lon="-8.435811">
        <ele>37.674</ele>
        <time>2015-03-22T09:14:27Z</time>
      </trkpt>
      <trkpt lat="40.216091" lon="-8.436181">
        <ele>37.671</ele>
        <time>2015-03-22T09:14:39Z</time>
      </trkpt>
      <trkpt lat="40.216448" lon="-8.436515">
        <ele>37.278</ele>
        <time>2015-03-22T09:14:54Z</time>
      </trkpt>
      <trkpt lat="40.216402" lon="-8.436598">
        <ele>37.233</ele>
        <time>2015-03-22T09:15:00Z</time>
      </trkpt>
      <trkpt lat="40.216411" lon="-8.436748">
        <ele>37.226</ele>
        <time>2015-03-22T09:15:07Z</time>
      </trkpt>
      <trkpt lat="40.216503" lon="-8.436844">
        <ele>37.207</ele>
        <time>2015-03-22T09:15:12Z</time>
      </trkpt>
      <trkpt lat="40.216611" lon="-8.436979">
        <ele>37.236</ele>
        <time>2015-03-22T09:15:17Z</time>
      </trkpt>
      <trkpt lat="40.216691" lon="-8.436983">
        <ele>37.289</ele>
        <time>2015-03-22T09:15:20Z</time>
      </trkpt>
      <trkpt lat="40.217038" lon="-8.437332">
        <ele>37.241</ele>
        <time>2015-03-22T09:15:33Z</time>
      </trkpt>
      <trkpt lat="40.217342" lon="-8.437688">
        <ele>37.221</ele>
        <time>2015-03-22T09:15:45Z</time>
      </trkpt>
      <trkpt lat="40.217547" lon="-8.437882">
        <ele>36.759</ele>
        <time>2015-03-22T09:15:54Z</time>
      </trkpt>
      <trkpt lat="40.217546" lon="-8.438024">
        <ele>36.264</ele>
        <time>2015-03-22T09:16:05Z</time>
      </trkpt>
      <trkpt lat="40.217488" lon="-8.438203">
        <ele>35.281</ele>
        <time>2015-03-22T09:16:09Z</time>
      </trkpt>
      <trkpt lat="40.217267" lon="-8.438915">
        <ele>32.868</ele>
        <time>2015-03-22T09:16:20Z</time>
      </trkpt>
      <trkpt lat="40.217176" lon="-8.439345">
        <ele>36.242</ele>
        <time>2015-03-22T09:16:32Z</time>
      </trkpt>
      <trkpt lat="40.217582" lon="-8.439560">
        <ele>32.826</ele>
        <time>2015-03-22T09:28:24Z</time>
      </trkpt>
      <trkpt lat="40.218193" lon="-8.439807">
        <ele>32.307</ele>
        <time>2015-03-22T09:28:41Z</time>
      </trkpt>
      <trkpt lat="40.218981" lon="-8.440157">
        <ele>32.385</ele>
        <time>2015-03-22T09:29:02Z</time>
      </trkpt>
      <trkpt lat="40.219307" lon="-8.440320">
        <ele>30.978</ele>
        <time>2015-03-22T09:29:10Z</time>
      </trkpt>
      <trkpt lat="40.220001" lon="-8.440842">
        <ele>28.020</ele>
        <time>2015-03-22T09:29:25Z</time>
      </trkpt>
      <trkpt lat="40.220153" lon="-8.440960">
        <ele>27.590</ele>
        <time>2015-03-22T09:29:28Z</time>
      </trkpt>
      <trkpt lat="40.220645" lon="-8.441269">
        <ele>27.558</ele>
        <time>2015-03-22T09:29:39Z</time>
      </trkpt>
      <trkpt lat="40.221343" lon="-8.441442">
        <ele>27.573</ele>
        <time>2015-03-22T09:29:56Z</time>
      </trkpt>
      <trkpt lat="40.222030" lon="-8.441617">
        <ele>27.590</ele>
        <time>2015-03-22T09:30:13Z</time>
      </trkpt>
      <trkpt lat="40.222746" lon="-8.441933">
        <ele>27.192</ele>
        <time>2015-03-22T09:30:31Z</time>
      </trkpt>
      <trkpt lat="40.222944" lon="-8.442026">
        <ele>28.073</ele>
        <time>2015-03-22T09:30:37Z</time>
      </trkpt>
      <trkpt lat="40.223629" lon="-8.442184">
        <ele>30.920</ele>
        <time>2015-03-22T09:30:58Z</time>
      </trkpt>
      <trkpt lat="40.224100" lon="-8.442019">
        <ele>30.907</ele>
        <time>2015-03-22T09:31:11Z</time>
      </trkpt>
      <trkpt lat="40.224364" lon="-8.442312">
        <ele>30.988</ele>
        <time>2015-03-22T09:31:20Z</time>
      </trkpt>
      <trkpt lat="40.224498" lon="-8.442436">
        <ele>29.581</ele>
        <time>2015-03-22T09:31:24Z</time>
      </trkpt>
      <trkpt lat="40.224575" lon="-8.442491">
        <ele>29.573</ele>
        <time>2015-03-22T09:31:26Z</time>
      </trkpt>
      <trkpt lat="40.225414" lon="-8.442814">
        <ele>29.013</ele>
        <time>2015-03-22T09:31:46Z</time>
      </trkpt>
      <trkpt lat="40.225924" lon="-8.443183">
        <ele>28.081</ele>
        <time>2015-03-22T09:31:59Z</time>
      </trkpt>
      <trkpt lat="40.226172" lon="-8.443494">
        <ele>27.516</ele>
        <time>2015-03-22T09:32:07Z</time>
      </trkpt>
      <trkpt lat="40.226281" lon="-8.443807">
        <ele>27.573</ele>
        <time>2015-03-22T09:32:13Z</time>
      </trkpt>
      <trkpt lat="40.226458" lon="-8.443966">
        <ele>27.178</ele>
        <time>2015-03-22T09:32:18Z</time>
      </trkpt>
      <trkpt lat="40.227251" lon="-8.444244">
        <ele>26.633</ele>
        <time>2015-03-22T09:32:37Z</time>
      </trkpt>
      <trkpt lat="40.228013" lon="-8.444685">
        <ele>26.626</ele>
        <time>2015-03-22T09:32:57Z</time>
      </trkpt>
      <trkpt lat="40.228921" lon="-8.445312">
        <ele>26.607</ele>
        <time>2015-03-22T09:33:21Z</time>
      </trkpt>
      <trkpt lat="40.229724" lon="-8.445967">
        <ele>26.636</ele>
        <time>2015-03-22T09:33:43Z</time>
      </trkpt>
      <trkpt lat="40.230517" lon="-8.446575">
        <ele>26.119</ele>
        <time>2015-03-22T09:34:04Z</time>
      </trkpt>
      <trkpt lat="40.231020" lon="-8.446949">
        <ele>26.141</ele>
        <time>2015-03-22T09:34:18Z</time>
      </trkpt>
      <trkpt lat="40.231867" lon="-8.447603">
        <ele>26.111</ele>
        <time>2015-03-22T09:34:41Z</time>
      </trkpt>
      <trkpt lat="40.232633" lon="-8.448162">
        <ele>25.629</ele>
        <time>2015-03-22T09:35:01Z</time>
      </trkpt>
      <trkpt lat="40.233392" lon="-8.448686">
        <ele>25.654</ele>
        <time>2015-03-22T09:35:21Z</time>
      </trkpt>
      <trkpt lat="40.234314" lon="-8.449013">
        <ele>25.691</ele>
        <time>2015-03-22T09:35:43Z</time>
      </trkpt>
      <trkpt lat="40.235062" lon="-8.449254">
        <ele>25.649</ele>
        <time>2015-03-22T09:36:01Z</time>
      </trkpt>
      <trkpt lat="40.235892" lon="-8.449670">
        <ele>25.602</ele>
        <time>2015-03-22T09:36:21Z</time>
      </trkpt>
      <trkpt lat="40.236640" lon="-8.450028">
        <ele>25.122</ele>
        <time>2015-03-22T09:36:39Z</time>
      </trkpt>
      <trkpt lat="40.237458" lon="-8.450433">
        <ele>25.107</ele>
        <time>2015-03-22T09:36:59Z</time>
      </trkpt>
      <trkpt lat="40.238296" lon="-8.450935">
        <ele>25.113</ele>
        <time>2015-03-22T09:37:20Z</time>
      </trkpt>
      <trkpt lat="40.238955" lon="-8.451352">
        <ele>25.136</ele>
        <time>2015-03-22T09:37:37Z</time>
      </trkpt>
      <trkpt lat="40.239550" lon="-8.451734">
        <ele>25.148</ele>
        <time>2015-03-22T09:37:52Z</time>
      </trkpt>
      <trkpt lat="40.240354" lon="-8.452050">
        <ele>24.798</ele>
        <time>2015-03-22T09:38:11Z</time>
      </trkpt>
      <trkpt lat="40.241279" lon="-8.452066">
        <ele>24.216</ele>
        <time>2015-03-22T09:38:32Z</time>
      </trkpt>
      <trkpt lat="40.242167" lon="-8.452080">
        <ele>24.261</ele>
        <time>2015-03-22T09:38:52Z</time>
      </trkpt>
      <trkpt lat="40.242885" lon="-8.452091">
        <ele>25.638</ele>
        <time>2015-03-22T09:39:08Z</time>
      </trkpt>
      <trkpt lat="40.243708" lon="-8.452109">
        <ele>24.245</ele>
        <time>2015-03-22T09:39:26Z</time>
      </trkpt>
      <trkpt lat="40.244643" lon="-8.452135">
        <ele>24.247</ele>
        <time>2015-03-22T09:39:47Z</time>
      </trkpt>
      <trkpt lat="40.245446" lon="-8.452193">
        <ele>24.211</ele>
        <time>2015-03-22T09:40:05Z</time>
      </trkpt>
      <trkpt lat="40.246244" lon="-8.452247">
        <ele>24.207</ele>
        <time>2015-03-22T09:40:23Z</time>
      </trkpt>
      <trkpt lat="40.247134" lon="-8.452094">
        <ele>23.733</ele>
        <time>2015-03-22T09:40:44Z</time>
      </trkpt>
      <trkpt lat="40.247443" lon="-8.452031">
        <ele>23.726</ele>
        <time>2015-03-22T09:40:52Z</time>
      </trkpt>
      <trkpt lat="40.248166" lon="-8.452001">
        <ele>23.798</ele>
        <time>2015-03-22T09:41:09Z</time>
      </trkpt>
      <trkpt lat="40.248437" lon="-8.452191">
        <ele>23.238</ele>
        <time>2015-03-22T09:41:16Z</time>
      </trkpt>
      <trkpt lat="40.248758" lon="-8.452917">
        <ele>23.236</ele>
        <time>2015-03-22T09:41:31Z</time>
      </trkpt>
      <trkpt lat="40.248971" lon="-8.453815">
        <ele>23.261</ele>
        <time>2015-03-22T09:41:48Z</time>
      </trkpt>
      <trkpt lat="40.249120" lon="-8.454232">
        <ele>23.218</ele>
        <time>2015-03-22T09:41:57Z</time>
      </trkpt>
      <trkpt lat="40.249255" lon="-8.454225">
        <ele>24.749</ele>
        <time>2015-03-22T09:42:01Z</time>
      </trkpt>
      <trkpt lat="40.249900" lon="-8.454029">
        <ele>24.702</ele>
        <time>2015-03-22T09:42:17Z</time>
      </trkpt>
      <trkpt lat="40.250536" lon="-8.453712">
        <ele>24.722</ele>
        <time>2015-03-22T09:42:35Z</time>
      </trkpt>
      <trkpt lat="40.250831" lon="-8.453335">
        <ele>25.107</ele>
        <time>2015-03-22T09:42:49Z</time>
      </trkpt>
      <trkpt lat="40.250855" lon="-8.453250">
        <ele>25.193</ele>
        <time>2015-03-22T09:43:00Z</time>
      </trkpt>
      <trkpt lat="40.250951" lon="-8.452908">
        <ele>25.646</ele>
        <time>2015-03-22T09:43:11Z</time>
      </trkpt>
      <trkpt lat="40.251015" lon="-8.452730">
        <ele>26.148</ele>
        <time>2015-03-22T09:43:17Z</time>
      </trkpt>
      <trkpt lat="40.251203" lon="-8.452831">
        <ele>26.158</ele>
        <time>2015-03-22T09:43:24Z</time>
      </trkpt>
      <trkpt lat="40.251413" lon="-8.452584">
        <ele>26.156</ele>
        <time>2015-03-22T09:43:34Z</time>
      </trkpt>
      <trkpt lat="40.251698" lon="-8.452202">
        <ele>26.191</ele>
        <time>2015-03-22T09:43:46Z</time>
      </trkpt>
      <trkpt lat="40.251896" lon="-8.452075">
        <ele>26.148</ele>
        <time>2015-03-22T09:43:51Z</time>
      </trkpt>
      <trkpt lat="40.252013" lon="-8.451980">
        <ele>25.178</ele>
        <time>2015-03-22T09:43:54Z</time>
      </trkpt>
      <trkpt lat="40.252078" lon="-8.451927">
        <ele>25.133</ele>
        <time>2015-03-22T09:43:56Z</time>
      </trkpt>
      <trkpt lat="40.252650" lon="-8.451467">
        <ele>23.726</ele>
        <time>2015-03-22T09:44:12Z</time>
      </trkpt>
      <trkpt lat="40.253134" lon="-8.450853">
        <ele>22.707</ele>
        <time>2015-03-22T09:44:30Z</time>
      </trkpt>
      <trkpt lat="40.253464" lon="-8.450914">
        <ele>22.746</ele>
        <time>2015-03-22T09:44:39Z</time>
      </trkpt>
      <trkpt lat="40.254250" lon="-8.451239">
        <ele>22.359</ele>
        <time>2015-03-22T09:44:59Z</time>
      </trkpt>
      <trkpt lat="40.254850" lon="-8.451539">
        <ele>21.821</ele>
        <time>2015-03-22T09:45:14Z</time>
      </trkpt>
      <trkpt lat="40.255579" lon="-8.451928">
        <ele>23.711</ele>
        <time>2015-03-22T09:45:33Z</time>
      </trkpt>
      <trkpt lat="40.256155" lon="-8.452022">
        <ele>24.229</ele>
        <time>2015-03-22T09:45:48Z</time>
      </trkpt>
      <trkpt lat="40.256629" lon="-8.452018">
        <ele>22.734</ele>
        <time>2015-03-22T09:45:59Z</time>
      </trkpt>
      <trkpt lat="40.257389" lon="-8.452023">
        <ele>22.761</ele>
        <time>2015-03-22T09:46:18Z</time>
      </trkpt>
      <trkpt lat="40.257923" lon="-8.451863">
        <ele>21.891</ele>
        <time>2015-03-22T09:46:33Z</time>
      </trkpt>
      <trkpt lat="40.258422" lon="-8.451442">
        <ele>21.881</ele>
        <time>2015-03-22T09:46:48Z</time>
      </trkpt>
      <trkpt lat="40.258772" lon="-8.450801">
        <ele>21.819</ele>
        <time>2015-03-22T09:47:04Z</time>
      </trkpt>
      <trkpt lat="40.259055" lon="-8.450042">
        <ele>22.707</ele>
        <time>2015-03-22T09:47:21Z</time>
      </trkpt>
      <trkpt lat="40.259413" lon="-8.449400">
        <ele>22.728</ele>
        <time>2015-03-22T09:47:37Z</time>
      </trkpt>
      <trkpt lat="40.260048" lon="-8.449114">
        <ele>22.721</ele>
        <time>2015-03-22T09:47:54Z</time>
      </trkpt>
      <trkpt lat="40.260609" lon="-8.448564">
        <ele>23.213</ele>
        <time>2015-03-22T09:48:13Z</time>
      </trkpt>
      <trkpt lat="40.260880" lon="-8.447901">
        <ele>23.283</ele>
        <time>2015-03-22T09:48:29Z</time>
      </trkpt>
      <trkpt lat="40.261119" lon="-8.447219">
        <ele>23.231</ele>
        <time>2015-03-22T09:48:44Z</time>
      </trkpt>
      <trkpt lat="40.261476" lon="-8.446391">
        <ele>23.226</ele>
        <time>2015-03-22T09:49:03Z</time>
      </trkpt>
      <trkpt lat="40.261997" lon="-8.446034">
        <ele>23.793</ele>
        <time>2015-03-22T09:49:18Z</time>
      </trkpt>
      <trkpt lat="40.262679" lon="-8.445779">
        <ele>23.756</ele>
        <time>2015-03-22T09:49:36Z</time>
      </trkpt>
      <trkpt lat="40.263326" lon="-8.445459">
        <ele>23.259</ele>
        <time>2015-03-22T09:49:54Z</time>
      </trkpt>
      <trkpt lat="40.263882" lon="-8.445258">
        <ele>23.214</ele>
        <time>2015-03-22T09:50:09Z</time>
      </trkpt>
      <trkpt lat="40.264549" lon="-8.444967">
        <ele>23.207</ele>
        <time>2015-03-22T09:50:27Z</time>
      </trkpt>
      <trkpt lat="40.265139" lon="-8.444725">
        <ele>24.214</ele>
        <time>2015-03-22T09:50:43Z</time>
      </trkpt>
      <trkpt lat="40.265627" lon="-8.444582">
        <ele>24.297</ele>
        <time>2015-03-22T09:50:56Z</time>
      </trkpt>
      <trkpt lat="40.266071" lon="-8.444487">
        <ele>24.229</ele>
        <time>2015-03-22T09:51:08Z</time>
      </trkpt>
      <trkpt lat="40.266552" lon="-8.444707">
        <ele>25.179</ele>
        <time>2015-03-22T09:51:23Z</time>
      </trkpt>
      <trkpt lat="40.267046" lon="-8.444939">
        <ele>26.187</ele>
        <time>2015-03-22T09:51:39Z</time>
      </trkpt>
      <trkpt lat="40.267300" lon="-8.444767">
        <ele>26.672</ele>
        <time>2015-03-22T09:51:50Z</time>
      </trkpt>
      <trkpt lat="40.267227" lon="-8.444301">
        <ele>27.119</ele>
        <time>2015-03-22T09:52:02Z</time>
      </trkpt>
      <trkpt lat="40.267472" lon="-8.444171">
        <ele>27.135</ele>
        <time>2015-03-22T09:52:11Z</time>
      </trkpt>
      <trkpt lat="40.267804" lon="-8.444389">
        <ele>27.186</ele>
        <time>2015-03-22T09:52:23Z</time>
      </trkpt>
      <trkpt lat="40.268231" lon="-8.444487">
        <ele>27.514</ele>
        <time>2015-03-22T09:52:38Z</time>
      </trkpt>
      <trkpt lat="40.268319" lon="-8.444493">
        <ele>28.007</ele>
        <time>2015-03-22T09:52:42Z</time>
      </trkpt>
      <trkpt lat="40.268346" lon="-8.444575">
        <ele>28.022</ele>
        <time>2015-03-22T09:52:46Z</time>
      </trkpt>
      <trkpt lat="40.268525" lon="-8.444873">
        <ele>28.535</ele>
        <time>2015-03-22T09:52:58Z</time>
      </trkpt>
      <trkpt lat="40.268996" lon="-8.445171">
        <ele>29.937</ele>
        <time>2015-03-22T09:53:18Z</time>
      </trkpt>
      <trkpt lat="40.269378" lon="-8.445393">
        <ele>32.387</ele>
        <time>2015-03-22T09:53:36Z</time>
      </trkpt>
      <trkpt lat="40.269733" lon="-8.445576">
        <ele>34.315</ele>
        <time>2015-03-22T09:53:54Z</time>
      </trkpt>
      <trkpt lat="40.270096" lon="-8.445874">
        <ele>37.220</ele>
        <time>2015-03-22T09:54:15Z</time>
      </trkpt>
      <trkpt lat="40.270295" lon="-8.446045">
        <ele>38.667</ele>
        <time>2015-03-22T09:54:28Z</time>
      </trkpt>
      <trkpt lat="40.270471" lon="-8.446487">
        <ele>41.091</ele>
        <time>2015-03-22T09:54:47Z</time>
      </trkpt>
      <trkpt lat="40.270557" lon="-8.446917">
        <ele>43.981</ele>
        <time>2015-03-22T09:55:05Z</time>
      </trkpt>
      <trkpt lat="40.270564" lon="-8.447399">
        <ele>46.319</ele>
        <time>2015-03-22T09:55:25Z</time>
      </trkpt>
      <trkpt lat="40.270567" lon="-8.447865">
        <ele>48.207</ele>
        <time>2015-03-22T09:55:44Z</time>
      </trkpt>
      <trkpt lat="40.270570" lon="-8.448358">
        <ele>50.698</ele>
        <time>2015-03-22T09:56:04Z</time>
      </trkpt>
      <trkpt lat="40.270653" lon="-8.448791">
        <ele>53.011</ele>
        <time>2015-03-22T09:56:22Z</time>
      </trkpt>
      <trkpt lat="40.270895" lon="-8.449071">
        <ele>55.423</ele>
        <time>2015-03-22T09:56:40Z</time>
      </trkpt>
      <trkpt lat="40.271010" lon="-8.449126">
        <ele>55.963</ele>
        <time>2015-03-22T09:57:24Z</time>
      </trkpt>
      <trkpt lat="40.271239" lon="-8.449192">
        <ele>57.851</ele>
        <time>2015-03-22T09:57:40Z</time>
      </trkpt>
      <trkpt lat="40.271573" lon="-8.449343">
        <ele>60.286</ele>
        <time>2015-03-22T09:57:56Z</time>
      </trkpt>
      <trkpt lat="40.271876" lon="-8.449461">
        <ele>63.173</ele>
        <time>2015-03-22T09:58:13Z</time>
      </trkpt>
      <trkpt lat="40.272179" lon="-8.449611">
        <ele>65.019</ele>
        <time>2015-03-22T09:58:31Z</time>
      </trkpt>
      <trkpt lat="40.272440" lon="-8.449849">
        <ele>67.909</ele>
        <time>2015-03-22T09:58:49Z</time>
      </trkpt>
      <trkpt lat="40.272704" lon="-8.450188">
        <ele>70.819</ele>
        <time>2015-03-22T09:59:10Z</time>
      </trkpt>
      <trkpt lat="40.272881" lon="-8.450500">
        <ele>73.207</ele>
        <time>2015-03-22T09:59:27Z</time>
      </trkpt>
      <trkpt lat="40.273061" lon="-8.450859">
        <ele>76.620</ele>
        <time>2015-03-22T09:59:46Z</time>
      </trkpt>
      <trkpt lat="40.273255" lon="-8.451228">
        <ele>79.013</ele>
        <time>2015-03-22T10:00:06Z</time>
      </trkpt>
      <trkpt lat="40.273444" lon="-8.451585">
        <ele>82.325</ele>
        <time>2015-03-22T10:00:25Z</time>
      </trkpt>
      <trkpt lat="40.273630" lon="-8.451921">
        <ele>84.755</ele>
        <time>2015-03-22T10:00:44Z</time>
      </trkpt>
      <trkpt lat="40.273857" lon="-8.452235">
        <ele>88.113</ele>
        <time>2015-03-22T10:01:03Z</time>
      </trkpt>
      <trkpt lat="40.273939" lon="-8.452317">
        <ele>88.698</ele>
        <time>2015-03-22T10:01:09Z</time>
      </trkpt>
      <trkpt lat="40.273984" lon="-8.452321">
        <ele>89.185</ele>
        <time>2015-03-22T10:01:42Z</time>
      </trkpt>
      <trkpt lat="40.274011" lon="-8.452369">
        <ele>89.575</ele>
        <time>2015-03-22T10:01:46Z</time>
      </trkpt>
      <trkpt lat="40.274181" lon="-8.452599">
        <ele>90.528</ele>
        <time>2015-03-22T10:02:00Z</time>
      </trkpt>
      <trkpt lat="40.274414" lon="-8.452813">
        <ele>91.920</ele>
        <time>2015-03-22T10:02:15Z</time>
      </trkpt>
      <trkpt lat="40.274668" lon="-8.453097">
        <ele>93.407</ele>
        <time>2015-03-22T10:02:31Z</time>
      </trkpt>
      <trkpt lat="40.274855" lon="-8.453491">
        <ele>93.456</ele>
        <time>2015-03-22T10:02:47Z</time>
      </trkpt>
      <trkpt lat="40.275054" lon="-8.453875">
        <ele>94.419</ele>
        <time>2015-03-22T10:03:04Z</time>
      </trkpt>
      <trkpt lat="40.275305" lon="-8.454122">
        <ele>95.831</ele>
        <time>2015-03-22T10:03:19Z</time>
      </trkpt>
      <trkpt lat="40.275604" lon="-8.454269">
        <ele>97.211</ele>
        <time>2015-03-22T10:03:34Z</time>
      </trkpt>
      <trkpt lat="40.275950" lon="-8.454376">
        <ele>99.259</ele>
        <time>2015-03-22T10:03:51Z</time>
      </trkpt>
      <trkpt lat="40.276294" lon="-8.454451">
        <ele>99.634</ele>
        <time>2015-03-22T10:04:07Z</time>
      </trkpt>
      <trkpt lat="40.276666" lon="-8.454447">
        <ele>101.631</ele>
        <time>2015-03-22T10:04:22Z</time>
      </trkpt>
      <trkpt lat="40.277138" lon="-8.454426">
        <ele>101.682</ele>
        <time>2015-03-22T10:04:40Z</time>
      </trkpt>
      <trkpt lat="40.277604" lon="-8.454367">
        <ele>102.043</ele>
        <time>2015-03-22T10:04:58Z</time>
      </trkpt>
      <trkpt lat="40.278136" lon="-8.454310">
        <ele>104.017</ele>
        <time>2015-03-22T10:05:19Z</time>
      </trkpt>
      <trkpt lat="40.278629" lon="-8.454295">
        <ele>105.407</ele>
        <time>2015-03-22T10:05:39Z</time>
      </trkpt>
      <trkpt lat="40.279161" lon="-8.454235">
        <ele>107.867</ele>
        <time>2015-03-22T10:05:59Z</time>
      </trkpt>
      <trkpt lat="40.279473" lon="-8.454174">
        <ele>106.820</ele>
        <time>2015-03-22T10:06:08Z</time>
      </trkpt>
      <trkpt lat="40.279538" lon="-8.454233">
        <ele>106.472</ele>
        <time>2015-03-22T10:06:17Z</time>
      </trkpt>
      <trkpt lat="40.279612" lon="-8.454194">
        <ele>106.452</ele>
        <time>2015-03-22T10:06:44Z</time>
      </trkpt>
      <trkpt lat="40.279973" lon="-8.454110">
        <ele>105.450</ele>
        <time>2015-03-22T10:06:55Z</time>
      </trkpt>
      <trkpt lat="40.280351" lon="-8.454009">
        <ele>104.085</ele>
        <time>2015-03-22T10:07:03Z</time>
      </trkpt>
      <trkpt lat="40.281268" lon="-8.453792">
        <ele>102.562</ele>
        <time>2015-03-22T10:07:22Z</time>
      </trkpt>
      <trkpt lat="40.281461" lon="-8.453685">
        <ele>102.021</ele>
        <time>2015-03-22T10:07:27Z</time>
      </trkpt>
      <trkpt lat="40.281582" lon="-8.453527">
        <ele>101.641</ele>
        <time>2015-03-22T10:07:31Z</time>
      </trkpt>
      <trkpt lat="40.281747" lon="-8.453025">
        <ele>100.605</ele>
        <time>2015-03-22T10:07:40Z</time>
      </trkpt>
      <trkpt lat="40.281948" lon="-8.452389">
        <ele>100.607</ele>
        <time>2015-03-22T10:07:56Z</time>
      </trkpt>
      <trkpt lat="40.282348" lon="-8.451934">
        <ele>101.641</ele>
        <time>2015-03-22T10:08:12Z</time>
      </trkpt>
      <trkpt lat="40.283008" lon="-8.451787">
        <ele>99.614</ele>
        <time>2015-03-22T10:08:26Z</time>
      </trkpt>
      <trkpt lat="40.283603" lon="-8.451618">
        <ele>99.696</ele>
        <time>2015-03-22T10:08:42Z</time>
      </trkpt>
      <trkpt lat="40.284049" lon="-8.451447">
        <ele>100.666</ele>
        <time>2015-03-22T10:08:55Z</time>
      </trkpt>
      <trkpt lat="40.284748" lon="-8.451196">
        <ele>102.034</ele>
        <time>2015-03-22T10:09:14Z</time>
      </trkpt>
      <trkpt lat="40.285373" lon="-8.450972">
        <ele>102.029</ele>
        <time>2015-03-22T10:09:32Z</time>
      </trkpt>
      <trkpt lat="40.285976" lon="-8.450534">
        <ele>102.026</ele>
        <time>2015-03-22T10:09:51Z</time>
      </trkpt>
      <trkpt lat="40.286560" lon="-8.450036">
        <ele>103.064</ele>
        <time>2015-03-22T10:10:09Z</time>
      </trkpt>
      <trkpt lat="40.286635" lon="-8.449985">
        <ele>101.606</ele>
        <time>2015-03-22T10:10:11Z</time>
      </trkpt>
      <trkpt lat="40.286709" lon="-8.449927">
        <ele>101.616</ele>
        <time>2015-03-22T10:10:13Z</time>
      </trkpt>
      <trkpt lat="40.287346" lon="-8.449480">
        <ele>100.107</ele>
        <time>2015-03-22T10:10:30Z</time>
      </trkpt>
      <trkpt lat="40.287997" lon="-8.448935">
        <ele>100.175</ele>
        <time>2015-03-22T10:10:48Z</time>
      </trkpt>
      <trkpt lat="40.288126" lon="-8.448799">
        <ele>100.198</ele>
        <time>2015-03-22T10:10:52Z</time>
      </trkpt>
      <trkpt lat="40.288285" lon="-8.448635">
        <ele>100.160</ele>
        <time>2015-03-22T10:10:57Z</time>
      </trkpt>
      <trkpt lat="40.288659" lon="-8.448255">
        <ele>100.110</ele>
        <time>2015-03-22T10:11:09Z</time>
      </trkpt>
      <trkpt lat="40.289206" lon="-8.447686">
        <ele>99.688</ele>
        <time>2015-03-22T10:11:25Z</time>
      </trkpt>
      <trkpt lat="40.289337" lon="-8.447546">
        <ele>99.213</ele>
        <time>2015-03-22T10:11:29Z</time>
      </trkpt>
      <trkpt lat="40.289559" lon="-8.447389">
        <ele>99.260</ele>
        <time>2015-03-22T10:11:35Z</time>
      </trkpt>
      <trkpt lat="40.289990" lon="-8.447353">
        <ele>100.139</ele>
        <time>2015-03-22T10:11:46Z</time>
      </trkpt>
      <trkpt lat="40.290505" lon="-8.447433">
        <ele>101.101</ele>
        <time>2015-03-22T10:12:02Z</time>
      </trkpt>
      <trkpt lat="40.290937" lon="-8.447502">
        <ele>103.021</ele>
        <time>2015-03-22T10:12:19Z</time>
      </trkpt>
      <trkpt lat="40.291338" lon="-8.447532">
        <ele>105.407</ele>
        <time>2015-03-22T10:12:35Z</time>
      </trkpt>
      <trkpt lat="40.291841" lon="-8.447515">
        <ele>105.412</ele>
        <time>2015-03-22T10:12:50Z</time>
      </trkpt>
      <trkpt lat="40.292079" lon="-8.447470">
        <ele>104.065</ele>
        <time>2015-03-22T10:12:55Z</time>
      </trkpt>
      <trkpt lat="40.293099" lon="-8.447303">
        <ele>101.617</ele>
        <time>2015-03-22T10:13:15Z</time>
      </trkpt>
      <trkpt lat="40.293767" lon="-8.447169">
        <ele>100.657</ele>
        <time>2015-03-22T10:13:31Z</time>
      </trkpt>
      <trkpt lat="40.294548" lon="-8.447041">
        <ele>100.665</ele>
        <time>2015-03-22T10:13:53Z</time>
      </trkpt>
      <trkpt lat="40.295067" lon="-8.446934">
        <ele>103.060</ele>
        <time>2015-03-22T10:14:13Z</time>
      </trkpt>
      <trkpt lat="40.295458" lon="-8.446872">
        <ele>105.467</ele>
        <time>2015-03-22T10:14:30Z</time>
      </trkpt>
      <trkpt lat="40.295896" lon="-8.446790">
        <ele>107.384</ele>
        <time>2015-03-22T10:14:51Z</time>
      </trkpt>
      <trkpt lat="40.296312" lon="-8.446697">
        <ele>108.807</ele>
        <time>2015-03-22T10:15:11Z</time>
      </trkpt>
      <trkpt lat="40.296597" lon="-8.446638">
        <ele>111.217</ele>
        <time>2015-03-22T10:15:25Z</time>
      </trkpt>
      <trkpt lat="40.296985" lon="-8.446558">
        <ele>113.107</ele>
        <time>2015-03-22T10:15:44Z</time>
      </trkpt>
      <trkpt lat="40.297373" lon="-8.446474">
        <ele>115.087</ele>
        <time>2015-03-22T10:16:03Z</time>
      </trkpt>
      <trkpt lat="40.297745" lon="-8.446403">
        <ele>116.950</ele>
        <time>2015-03-22T10:16:21Z</time>
      </trkpt>
      <trkpt lat="40.298141" lon="-8.446395">
        <ele>118.422</ele>
        <time>2015-03-22T10:16:40Z</time>
      </trkpt>
      <trkpt lat="40.298453" lon="-8.446409">
        <ele>119.392</ele>
        <time>2015-03-22T10:16:54Z</time>
      </trkpt>
      <trkpt lat="40.298858" lon="-8.446481">
        <ele>121.740</ele>
        <time>2015-03-22T10:17:13Z</time>
      </trkpt>
      <trkpt lat="40.299292" lon="-8.446580">
        <ele>123.785</ele>
        <time>2015-03-22T10:17:33Z</time>
      </trkpt>
      <trkpt lat="40.299642" lon="-8.446645">
        <ele>125.192</ele>
        <time>2015-03-22T10:17:50Z</time>
      </trkpt>
      <trkpt lat="40.300052" lon="-8.446757">
        <ele>127.068</ele>
        <time>2015-03-22T10:18:09Z</time>
      </trkpt>
      <trkpt lat="40.300401" lon="-8.446842">
        <ele>129.042</ele>
        <time>2015-03-22T10:18:26Z</time>
      </trkpt>
      <trkpt lat="40.300793" lon="-8.446945">
        <ele>130.426</ele>
        <time>2015-03-22T10:18:44Z</time>
      </trkpt>
      <trkpt lat="40.301216" lon="-8.447043">
        <ele>132.807</ele>
        <time>2015-03-22T10:19:04Z</time>
      </trkpt>
      <trkpt lat="40.301629" lon="-8.447141">
        <ele>133.825</ele>
        <time>2015-03-22T10:19:23Z</time>
      </trkpt>
      <trkpt lat="40.301982" lon="-8.447233">
        <ele>135.798</ele>
        <time>2015-03-22T10:19:40Z</time>
      </trkpt>
      <trkpt lat="40.302374" lon="-8.447377">
        <ele>137.640</ele>
        <time>2015-03-22T10:19:59Z</time>
      </trkpt>
      <trkpt lat="40.302660" lon="-8.447502">
        <ele>138.140</ele>
        <time>2015-03-22T10:20:14Z</time>
      </trkpt>
      <trkpt lat="40.303023" lon="-8.447662">
        <ele>140.038</ele>
        <time>2015-03-22T10:20:32Z</time>
      </trkpt>
      <trkpt lat="40.303394" lon="-8.447838">
        <ele>143.453</ele>
        <time>2015-03-22T10:20:50Z</time>
      </trkpt>
      <trkpt lat="40.303733" lon="-8.447983">
        <ele>144.390</ele>
        <time>2015-03-22T10:21:07Z</time>
      </trkpt>
      <trkpt lat="40.304042" lon="-8.448111">
        <ele>145.846</ele>
        <time>2015-03-22T10:21:22Z</time>
      </trkpt>
      <trkpt lat="40.304438" lon="-8.448245">
        <ele>147.288</ele>
        <time>2015-03-22T10:21:40Z</time>
      </trkpt>
      <trkpt lat="40.304858" lon="-8.448350">
        <ele>147.716</ele>
        <time>2015-03-22T10:21:57Z</time>
      </trkpt>
      <trkpt lat="40.305117" lon="-8.448415">
        <ele>148.207</ele>
        <time>2015-03-22T10:22:09Z</time>
      </trkpt>
      <trkpt lat="40.305414" lon="-8.448547">
        <ele>149.173</ele>
        <time>2015-03-22T10:23:43Z</time>
      </trkpt>
      <trkpt lat="40.305470" lon="-8.448643">
        <ele>150.126</ele>
        <time>2015-03-22T10:33:59Z</time>
      </trkpt>
      <trkpt lat="40.305604" lon="-8.448847">
        <ele>150.198</ele>
        <time>2015-03-22T10:34:21Z</time>
      </trkpt>
      <trkpt lat="40.305844" lon="-8.449166">
        <ele>150.158</ele>
        <time>2015-03-22T10:34:34Z</time>
      </trkpt>
      <trkpt lat="40.306074" lon="-8.449571">
        <ele>150.136</ele>
        <time>2015-03-22T10:34:48Z</time>
      </trkpt>
      <trkpt lat="40.306333" lon="-8.450032">
        <ele>150.121</ele>
        <time>2015-03-22T10:35:00Z</time>
      </trkpt>
      <trkpt lat="40.306382" lon="-8.450179">
        <ele>150.128</ele>
        <time>2015-03-22T10:35:03Z</time>
      </trkpt>
      <trkpt lat="40.306433" lon="-8.450450">
        <ele>150.156</ele>
        <time>2015-03-22T10:35:08Z</time>
      </trkpt>
      <trkpt lat="40.306540" lon="-8.450662">
        <ele>149.659</ele>
        <time>2015-03-22T10:35:13Z</time>
      </trkpt>
      <trkpt lat="40.307155" lon="-8.451252">
        <ele>149.114</ele>
        <time>2015-03-22T10:35:32Z</time>
      </trkpt>
      <trkpt lat="40.307808" lon="-8.451914">
        <ele>148.707</ele>
        <time>2015-03-22T10:35:51Z</time>
      </trkpt>
      <trkpt lat="40.307950" lon="-8.452040">
        <ele>148.734</ele>
        <time>2015-03-22T10:35:55Z</time>
      </trkpt>
      <trkpt lat="40.308412" lon="-8.452674">
        <ele>148.227</ele>
        <time>2015-03-22T10:36:12Z</time>
      </trkpt>
      <trkpt lat="40.308725" lon="-8.453199">
        <ele>147.269</ele>
        <time>2015-03-22T10:36:26Z</time>
      </trkpt>
      <trkpt lat="40.308924" lon="-8.453719">
        <ele>146.329</ele>
        <time>2015-03-22T10:36:40Z</time>
      </trkpt>
      <trkpt lat="40.309155" lon="-8.454149">
        <ele>146.337</ele>
        <time>2015-03-22T10:36:52Z</time>
      </trkpt>
      <trkpt lat="40.309386" lon="-8.454593">
        <ele>145.872</ele>
        <time>2015-03-22T10:37:04Z</time>
      </trkpt>
      <trkpt lat="40.309644" lon="-8.454958">
        <ele>145.389</ele>
        <time>2015-03-22T10:37:16Z</time>
      </trkpt>
      <trkpt lat="40.309969" lon="-8.455178">
        <ele>144.818</ele>
        <time>2015-03-22T10:37:28Z</time>
      </trkpt>
      <trkpt lat="40.310054" lon="-8.455249">
        <ele>146.398</ele>
        <time>2015-03-22T10:37:32Z</time>
      </trkpt>
      <trkpt lat="40.310294" lon="-8.455536">
        <ele>146.717</ele>
        <time>2015-03-22T10:37:44Z</time>
      </trkpt>
      <trkpt lat="40.310580" lon="-8.455898">
        <ele>145.807</ele>
        <time>2015-03-22T10:37:58Z</time>
      </trkpt>
      <trkpt lat="40.310880" lon="-8.456332">
        <ele>144.890</ele>
        <time>2015-03-22T10:38:13Z</time>
      </trkpt>
      <trkpt lat="40.311199" lon="-8.456742">
        <ele>144.833</ele>
        <time>2015-03-22T10:38:27Z</time>
      </trkpt>
      <trkpt lat="40.311408" lon="-8.457012">
        <ele>144.395</ele>
        <time>2015-03-22T10:38:38Z</time>
      </trkpt>
      <trkpt lat="40.311614" lon="-8.457303">
        <ele>144.335</ele>
        <time>2015-03-22T10:38:50Z</time>
      </trkpt>
      <trkpt lat="40.311817" lon="-8.457604">
        <ele>144.313</ele>
        <time>2015-03-22T10:39:02Z</time>
      </trkpt>
      <trkpt lat="40.312041" lon="-8.457826">
        <ele>144.358</ele>
        <time>2015-03-22T10:39:14Z</time>
      </trkpt>
      <trkpt lat="40.312273" lon="-8.458053">
        <ele>144.365</ele>
        <time>2015-03-22T10:39:27Z</time>
      </trkpt>
      <trkpt lat="40.312479" lon="-8.458265">
        <ele>144.815</ele>
        <time>2015-03-22T10:39:39Z</time>
      </trkpt>
      <trkpt lat="40.312615" lon="-8.458486">
        <ele>144.865</ele>
        <time>2015-03-22T10:39:51Z</time>
      </trkpt>
      <trkpt lat="40.312696" lon="-8.458591">
        <ele>144.811</ele>
        <time>2015-03-22T10:39:57Z</time>
      </trkpt>
      <trkpt lat="40.312774" lon="-8.458666">
        <ele>144.807</ele>
        <time>2015-03-22T10:40:02Z</time>
      </trkpt>
      <trkpt lat="40.312882" lon="-8.458761">
        <ele>144.890</ele>
        <time>2015-03-22T10:40:08Z</time>
      </trkpt>
      <trkpt lat="40.313139" lon="-8.459012">
        <ele>145.893</ele>
        <time>2015-03-22T10:40:19Z</time>
      </trkpt>
      <trkpt lat="40.313471" lon="-8.459429">
        <ele>144.375</ele>
        <time>2015-03-22T10:40:32Z</time>
      </trkpt>
      <trkpt lat="40.313859" lon="-8.459879">
        <ele>144.325</ele>
        <time>2015-03-22T10:40:47Z</time>
      </trkpt>
      <trkpt lat="40.314198" lon="-8.460235">
        <ele>143.453</ele>
        <time>2015-03-22T10:40:58Z</time>
      </trkpt>
      <trkpt lat="40.314496" lon="-8.460662">
        <ele>142.458</ele>
        <time>2015-03-22T10:41:10Z</time>
      </trkpt>
      <trkpt lat="40.314808" lon="-8.460926">
        <ele>142.445</ele>
        <time>2015-03-22T10:41:21Z</time>
      </trkpt>
      <trkpt lat="40.315100" lon="-8.461295">
        <ele>141.563</ele>
        <time>2015-03-22T10:41:32Z</time>
      </trkpt>
      <trkpt lat="40.315505" lon="-8.461641">
        <ele>141.944</ele>
        <time>2015-03-22T10:41:45Z</time>
      </trkpt>
      <trkpt lat="40.315645" lon="-8.461611">
        <ele>140.518</ele>
        <time>2015-03-22T10:41:49Z</time>
      </trkpt>
      <trkpt lat="40.315770" lon="-8.461612">
        <ele>140.007</ele>
        <time>2015-03-22T10:41:53Z</time>
      </trkpt>
      <trkpt lat="40.316023" lon="-8.461689">
        <ele>135.785</ele>
        <time>2015-03-22T10:42:01Z</time>
      </trkpt>
      <trkpt lat="40.316170" lon="-8.461848">
        <ele>133.318</ele>
        <time>2015-03-22T10:42:07Z</time>
      </trkpt>
      <trkpt lat="40.316275" lon="-8.461982">
        <ele>130.920</ele>
        <time>2015-03-22T10:42:11Z</time>
      </trkpt>
      <trkpt lat="40.316390" lon="-8.462081">
        <ele>130.490</ele>
        <time>2015-03-22T10:42:14Z</time>
      </trkpt>
      <trkpt lat="40.316757" lon="-8.462608">
        <ele>128.538</ele>
        <time>2015-03-22T10:42:27Z</time>
      </trkpt>
      <trkpt lat="40.317087" lon="-8.462951">
        <ele>128.093</ele>
        <time>2015-03-22T10:42:40Z</time>
      </trkpt>
      <trkpt lat="40.317449" lon="-8.463394">
        <ele>126.620</ele>
        <time>2015-03-22T10:42:53Z</time>
      </trkpt>
      <trkpt lat="40.317747" lon="-8.463525">
        <ele>126.679</ele>
        <time>2015-03-22T10:43:03Z</time>
      </trkpt>
      <trkpt lat="40.317987" lon="-8.463688">
        <ele>126.605</ele>
        <time>2015-03-22T10:43:12Z</time>
      </trkpt>
      <trkpt lat="40.318088" lon="-8.463830">
        <ele>125.625</ele>
        <time>2015-03-22T10:43:16Z</time>
      </trkpt>
      <trkpt lat="40.318138" lon="-8.463922">
        <ele>125.107</ele>
        <time>2015-03-22T10:43:18Z</time>
      </trkpt>
      <trkpt lat="40.318275" lon="-8.464082">
        <ele>123.756</ele>
        <time>2015-03-22T10:43:22Z</time>
      </trkpt>
      <trkpt lat="40.318421" lon="-8.464247">
        <ele>122.759</ele>
        <time>2015-03-22T10:43:26Z</time>
      </trkpt>
      <trkpt lat="40.318483" lon="-8.464359">
        <ele>121.391</ele>
        <time>2015-03-22T10:43:28Z</time>
      </trkpt>
      <trkpt lat="40.318810" lon="-8.464637">
        <ele>120.311</ele>
        <time>2015-03-22T10:43:39Z</time>
      </trkpt>
      <trkpt lat="40.319050" lon="-8.464792">
        <ele>120.879</ele>
        <time>2015-03-22T10:43:46Z</time>
      </trkpt>
      <trkpt lat="40.319181" lon="-8.464843">
        <ele>119.894</ele>
        <time>2015-03-22T10:43:49Z</time>
      </trkpt>
      <trkpt lat="40.319344" lon="-8.464939">
        <ele>118.981</ele>
        <time>2015-03-22T10:43:53Z</time>
      </trkpt>
      <trkpt lat="40.319817" lon="-8.465529">
        <ele>117.477</ele>
        <time>2015-03-22T10:44:10Z</time>
      </trkpt>
      <trkpt lat="40.320062" lon="-8.465947">
        <ele>116.961</ele>
        <time>2015-03-22T10:44:23Z</time>
      </trkpt>
      <trkpt lat="40.320384" lon="-8.466448">
        <ele>115.027</ele>
        <time>2015-03-22T10:44:36Z</time>
      </trkpt>
      <trkpt lat="40.320544" lon="-8.466724">
        <ele>114.507</ele>
        <time>2015-03-22T10:44:42Z</time>
      </trkpt>
      <trkpt lat="40.320623" lon="-8.466875">
        <ele>113.676</ele>
        <time>2015-03-22T10:44:45Z</time>
      </trkpt>
      <trkpt lat="40.320785" lon="-8.467180">
        <ele>113.169</ele>
        <time>2015-03-22T10:44:51Z</time>
      </trkpt>
      <trkpt lat="40.320857" lon="-8.467346">
        <ele>112.611</ele>
        <time>2015-03-22T10:44:54Z</time>
      </trkpt>
      <trkpt lat="40.320979" lon="-8.467632">
        <ele>112.181</ele>
        <time>2015-03-22T10:45:01Z</time>
      </trkpt>
      <trkpt lat="40.321179" lon="-8.467960">
        <ele>109.399</ele>
        <time>2015-03-22T10:45:08Z</time>
      </trkpt>
      <trkpt lat="40.321390" lon="-8.468278">
        <ele>106.834</ele>
        <time>2015-03-22T10:45:15Z</time>
      </trkpt>
      <trkpt lat="40.321450" lon="-8.468380">
        <ele>106.491</ele>
        <time>2015-03-22T10:45:17Z</time>
      </trkpt>
      <trkpt lat="40.321812" lon="-8.468747">
        <ele>104.467</ele>
        <time>2015-03-22T10:45:29Z</time>
      </trkpt>
      <trkpt lat="40.322075" lon="-8.468794">
        <ele>104.081</ele>
        <time>2015-03-22T10:45:41Z</time>
      </trkpt>
      <trkpt lat="40.322379" lon="-8.468929">
        <ele>103.519</ele>
        <time>2015-03-22T10:45:54Z</time>
      </trkpt>
      <trkpt lat="40.322682" lon="-8.469150">
        <ele>100.107</ele>
        <time>2015-03-22T10:46:04Z</time>
      </trkpt>
      <trkpt lat="40.323185" lon="-8.469539">
        <ele>99.245</ele>
        <time>2015-03-22T10:46:20Z</time>
      </trkpt>
      <trkpt lat="40.323435" lon="-8.469929">
        <ele>98.758</ele>
        <time>2015-03-22T10:46:32Z</time>
      </trkpt>
      <trkpt lat="40.323599" lon="-8.470210">
        <ele>97.760</ele>
        <time>2015-03-22T10:46:40Z</time>
      </trkpt>
      <trkpt lat="40.323702" lon="-8.470170">
        <ele>97.790</ele>
        <time>2015-03-22T10:46:45Z</time>
      </trkpt>
      <trkpt lat="40.324050" lon="-8.469596">
        <ele>97.748</ele>
        <time>2015-03-22T10:47:00Z</time>
      </trkpt>
      <trkpt lat="40.324466" lon="-8.468893">
        <ele>97.783</ele>
        <time>2015-03-22T10:47:17Z</time>
      </trkpt>
      <trkpt lat="40.324955" lon="-8.468122">
        <ele>96.350</ele>
        <time>2015-03-22T10:47:34Z</time>
      </trkpt>
      <trkpt lat="40.325315" lon="-8.467644">
        <ele>92.966</ele>
        <time>2015-03-22T10:47:42Z</time>
      </trkpt>
      <trkpt lat="40.325808" lon="-8.467227">
        <ele>91.029</ele>
        <time>2015-03-22T10:47:50Z</time>
      </trkpt>
      <trkpt lat="40.326421" lon="-8.467028">
        <ele>92.421</ele>
        <time>2015-03-22T10:48:02Z</time>
      </trkpt>
      <trkpt lat="40.326994" lon="-8.467092">
        <ele>93.407</ele>
        <time>2015-03-22T10:48:17Z</time>
      </trkpt>
      <trkpt lat="40.327565" lon="-8.467168">
        <ele>94.895</ele>
        <time>2015-03-22T10:48:32Z</time>
      </trkpt>
      <trkpt lat="40.328077" lon="-8.467234">
        <ele>94.848</ele>
        <time>2015-03-22T10:48:45Z</time>
      </trkpt>
      <trkpt lat="40.328773" lon="-8.467294">
        <ele>94.870</ele>
        <time>2015-03-22T10:49:01Z</time>
      </trkpt>
      <trkpt lat="40.329558" lon="-8.467310">
        <ele>94.810</ele>
        <time>2015-03-22T10:49:19Z</time>
      </trkpt>
      <trkpt lat="40.329736" lon="-8.467320">
        <ele>93.428</ele>
        <time>2015-03-22T10:49:23Z</time>
      </trkpt>
      <trkpt lat="40.330566" lon="-8.467355">
        <ele>91.073</ele>
        <time>2015-03-22T10:49:40Z</time>
      </trkpt>
      <trkpt lat="40.331221" lon="-8.467202">
        <ele>87.180</ele>
        <time>2015-03-22T10:49:50Z</time>
      </trkpt>
      <trkpt lat="40.331928" lon="-8.466920">
        <ele>86.767</ele>
        <time>2015-03-22T10:50:03Z</time>
      </trkpt>
      <trkpt lat="40.332550" lon="-8.466681">
        <ele>88.681</ele>
        <time>2015-03-22T10:50:20Z</time>
      </trkpt>
      <trkpt lat="40.333086" lon="-8.466442">
        <ele>91.019</ele>
        <time>2015-03-22T10:50:36Z</time>
      </trkpt>
      <trkpt lat="40.333613" lon="-8.466118">
        <ele>93.907</ele>
        <time>2015-03-22T10:50:53Z</time>
      </trkpt>
      <trkpt lat="40.334041" lon="-8.465776">
        <ele>95.315</ele>
        <time>2015-03-22T10:51:08Z</time>
      </trkpt>
      <trkpt lat="40.334419" lon="-8.465244">
        <ele>92.948</ele>
        <time>2015-03-22T10:51:21Z</time>
      </trkpt>
      <trkpt lat="40.334813" lon="-8.464799">
        <ele>92.950</ele>
        <time>2015-03-22T10:51:35Z</time>
      </trkpt>
      <trkpt lat="40.335073" lon="-8.464725">
        <ele>94.450</ele>
        <time>2015-03-22T10:51:45Z</time>
      </trkpt>
      <trkpt lat="40.335290" lon="-8.464682">
        <ele>96.898</ele>
        <time>2015-03-22T10:51:57Z</time>
      </trkpt>
      <trkpt lat="40.335554" lon="-8.464545">
        <ele>99.633</ele>
        <time>2015-03-22T10:52:13Z</time>
      </trkpt>
      <trkpt lat="40.335716" lon="-8.464393">
        <ele>100.680</ele>
        <time>2015-03-22T10:52:29Z</time>
      </trkpt>
      <trkpt lat="40.336008" lon="-8.464211">
        <ele>101.139</ele>
        <time>2015-03-22T10:53:10Z</time>
      </trkpt>
      <trkpt lat="40.336326" lon="-8.464085">
        <ele>101.101</ele>
        <time>2015-03-22T10:53:19Z</time>
      </trkpt>
      <trkpt lat="40.336671" lon="-8.463656">
        <ele>97.721</ele>
        <time>2015-03-22T10:53:32Z</time>
      </trkpt>
      <trkpt lat="40.336786" lon="-8.463464">
        <ele>96.307</ele>
        <time>2015-03-22T10:53:36Z</time>
      </trkpt>
      <trkpt lat="40.336954" lon="-8.463119">
        <ele>93.942</ele>
        <time>2015-03-22T10:53:41Z</time>
      </trkpt>
      <trkpt lat="40.337130" lon="-8.462903">
        <ele>92.465</ele>
        <time>2015-03-22T10:53:47Z</time>
      </trkpt>
      <trkpt lat="40.337588" lon="-8.462898">
        <ele>89.177</ele>
        <time>2015-03-22T10:53:55Z</time>
      </trkpt>
      <trkpt lat="40.337664" lon="-8.462890">
        <ele>88.157</ele>
        <time>2015-03-22T10:53:56Z</time>
      </trkpt>
      <trkpt lat="40.338043" lon="-8.462705">
        <ele>85.765</ele>
        <time>2015-03-22T10:54:01Z</time>
      </trkpt>
      <trkpt lat="40.338327" lon="-8.462464">
        <ele>83.830</ele>
        <time>2015-03-22T10:54:05Z</time>
      </trkpt>
      <trkpt lat="40.338804" lon="-8.462089">
        <ele>80.997</ele>
        <time>2015-03-22T10:54:11Z</time>
      </trkpt>
      <trkpt lat="40.339551" lon="-8.461618">
        <ele>80.992</ele>
        <time>2015-03-22T10:54:23Z</time>
      </trkpt>
      <trkpt lat="40.339710" lon="-8.461554">
        <ele>82.373</ele>
        <time>2015-03-22T10:54:28Z</time>
      </trkpt>
      <trkpt lat="40.340014" lon="-8.461738">
        <ele>84.320</ele>
        <time>2015-03-22T10:54:42Z</time>
      </trkpt>
      <trkpt lat="40.340469" lon="-8.462149">
        <ele>84.707</ele>
        <time>2015-03-22T10:54:59Z</time>
      </trkpt>
      <trkpt lat="40.341019" lon="-8.462645">
        <ele>81.488</ele>
        <time>2015-03-22T10:55:10Z</time>
      </trkpt>
      <trkpt lat="40.341534" lon="-8.463110">
        <ele>78.541</ele>
        <time>2015-03-22T10:55:18Z</time>
      </trkpt>
      <trkpt lat="40.341669" lon="-8.463222">
        <ele>77.013</ele>
        <time>2015-03-22T10:55:20Z</time>
      </trkpt>
      <trkpt lat="40.341995" lon="-8.463320">
        <ele>74.653</ele>
        <time>2015-03-22T10:55:24Z</time>
      </trkpt>
      <trkpt lat="40.342084" lon="-8.463309">
        <ele>73.721</ele>
        <time>2015-03-22T10:55:25Z</time>
      </trkpt>
      <trkpt lat="40.342854" lon="-8.463195">
        <ele>71.816</ele>
        <time>2015-03-22T10:55:37Z</time>
      </trkpt>
      <trkpt lat="40.343445" lon="-8.463275">
        <ele>72.233</ele>
        <time>2015-03-22T10:55:53Z</time>
      </trkpt>
      <trkpt lat="40.343623" lon="-8.463298">
        <ele>73.249</ele>
        <time>2015-03-22T10:55:58Z</time>
      </trkpt>
      <trkpt lat="40.343983" lon="-8.463274">
        <ele>75.102</ele>
        <time>2015-03-22T10:56:11Z</time>
      </trkpt>
      <trkpt lat="40.344442" lon="-8.463272">
        <ele>77.522</ele>
        <time>2015-03-22T10:56:30Z</time>
      </trkpt>
      <trkpt lat="40.344863" lon="-8.463309">
        <ele>79.007</ele>
        <time>2015-03-22T10:56:47Z</time>
      </trkpt>
      <trkpt lat="40.345364" lon="-8.463309">
        <ele>80.983</ele>
        <time>2015-03-22T10:57:07Z</time>
      </trkpt>
      <trkpt lat="40.345857" lon="-8.463220">
        <ele>81.956</ele>
        <time>2015-03-22T10:57:27Z</time>
      </trkpt>
      <trkpt lat="40.346227" lon="-8.463194">
        <ele>83.848</ele>
        <time>2015-03-22T10:57:43Z</time>
      </trkpt>
      <trkpt lat="40.346633" lon="-8.463250">
        <ele>86.298</ele>
        <time>2015-03-22T10:58:00Z</time>
      </trkpt>
      <trkpt lat="40.347107" lon="-8.463268">
        <ele>88.186</ele>
        <time>2015-03-22T10:58:18Z</time>
      </trkpt>
      <trkpt lat="40.347730" lon="-8.463348">
        <ele>90.071</ele>
        <time>2015-03-22T10:58:40Z</time>
      </trkpt>
      <trkpt lat="40.347782" lon="-8.463370">
        <ele>91.058</ele>
        <time>2015-03-22T10:58:42Z</time>
      </trkpt>
      <trkpt lat="40.348269" lon="-8.463583">
        <ele>91.527</ele>
        <time>2015-03-22T10:58:59Z</time>
      </trkpt>
      <trkpt lat="40.348563" lon="-8.463711">
        <ele>91.068</ele>
        <time>2015-03-22T10:59:07Z</time>
      </trkpt>
      <trkpt lat="40.349086" lon="-8.463679">
        <ele>92.414</ele>
        <time>2015-03-22T10:59:22Z</time>
      </trkpt>
      <trkpt lat="40.349783" lon="-8.463689">
        <ele>89.507</ele>
        <time>2015-03-22T10:59:36Z</time>
      </trkpt>
      <trkpt lat="40.350798" lon="-8.463713">
        <ele>85.771</ele>
        <time>2015-03-22T10:59:49Z</time>
      </trkpt>
      <trkpt lat="40.351629" lon="-8.463574">
        <ele>85.294</ele>
        <time>2015-03-22T11:00:03Z</time>
      </trkpt>
      <trkpt lat="40.351963" lon="-8.463531">
        <ele>87.636</ele>
        <time>2015-03-22T11:00:16Z</time>
      </trkpt>
      <trkpt lat="40.352273" lon="-8.463512">
        <ele>90.576</ele>
        <time>2015-03-22T11:00:31Z</time>
      </trkpt>
      <trkpt lat="40.352709" lon="-8.463523">
        <ele>93.444</ele>
        <time>2015-03-22T11:00:50Z</time>
      </trkpt>
      <trkpt lat="40.353166" lon="-8.463627">
        <ele>93.469</ele>
        <time>2015-03-22T11:01:06Z</time>
      </trkpt>
      <trkpt lat="40.353783" lon="-8.463758">
        <ele>93.466</ele>
        <time>2015-03-22T11:01:22Z</time>
      </trkpt>
      <trkpt lat="40.354015" lon="-8.463806">
        <ele>92.421</ele>
        <time>2015-03-22T11:01:28Z</time>
      </trkpt>
      <trkpt lat="40.354507" lon="-8.463684">
        <ele>93.941</ele>
        <time>2015-03-22T11:01:42Z</time>
      </trkpt>
      <trkpt lat="40.354869" lon="-8.463358">
        <ele>95.305</ele>
        <time>2015-03-22T11:01:56Z</time>
      </trkpt>
      <trkpt lat="40.355099" lon="-8.462761">
        <ele>95.307</ele>
        <time>2015-03-22T11:02:11Z</time>
      </trkpt>
      <trkpt lat="40.355523" lon="-8.462319">
        <ele>95.891</ele>
        <time>2015-03-22T11:02:26Z</time>
      </trkpt>
      <trkpt lat="40.355909" lon="-8.462216">
        <ele>97.214</ele>
        <time>2015-03-22T11:02:40Z</time>
      </trkpt>
      <trkpt lat="40.356242" lon="-8.462235">
        <ele>100.146</ele>
        <time>2015-03-22T11:02:57Z</time>
      </trkpt>
      <trkpt lat="40.356453" lon="-8.462250">
        <ele>103.096</ele>
        <time>2015-03-22T11:03:09Z</time>
      </trkpt>
      <trkpt lat="40.356711" lon="-8.462146">
        <ele>105.484</ele>
        <time>2015-03-22T11:03:24Z</time>
      </trkpt>
      <trkpt lat="40.356729" lon="-8.462040">
        <ele>104.919</ele>
        <time>2015-03-22T11:03:30Z</time>
      </trkpt>
      <trkpt lat="40.356528" lon="-8.461654">
        <ele>104.946</ele>
        <time>2015-03-22T11:03:45Z</time>
      </trkpt>
      <trkpt lat="40.356399" lon="-8.461324">
        <ele>102.528</ele>
        <time>2015-03-22T11:03:51Z</time>
      </trkpt>
      <trkpt lat="40.356377" lon="-8.460913">
        <ele>100.189</ele>
        <time>2015-03-22T11:03:56Z</time>
      </trkpt>
      <trkpt lat="40.356523" lon="-8.460247">
        <ele>96.317</ele>
        <time>2015-03-22T11:04:03Z</time>
      </trkpt>
      <trkpt lat="40.356711" lon="-8.459510">
        <ele>92.907</ele>
        <time>2015-03-22T11:04:11Z</time>
      </trkpt>
      <trkpt lat="40.356854" lon="-8.458864">
        <ele>89.561</ele>
        <time>2015-03-22T11:04:17Z</time>
      </trkpt>
      <trkpt lat="40.357091" lon="-8.458123">
        <ele>85.774</ele>
        <time>2015-03-22T11:04:24Z</time>
      </trkpt>
      <trkpt lat="40.357130" lon="-8.458034">
        <ele>85.746</ele>
        <time>2015-03-22T11:04:25Z</time>
      </trkpt>
      <trkpt lat="40.357301" lon="-8.457768">
        <ele>84.756</ele>
        <time>2015-03-22T11:04:32Z</time>
      </trkpt>
      <trkpt lat="40.357386" lon="-8.457737">
        <ele>85.724</ele>
        <time>2015-03-22T11:06:33Z</time>
      </trkpt>
      <trkpt lat="40.357443" lon="-8.457678">
        <ele>84.369</ele>
        <time>2015-03-22T11:06:36Z</time>
      </trkpt>
      <trkpt lat="40.357675" lon="-8.457403">
        <ele>83.846</ele>
        <time>2015-03-22T11:06:46Z</time>
      </trkpt>
      <trkpt lat="40.357782" lon="-8.457175">
        <ele>82.899</ele>
        <time>2015-03-22T11:06:51Z</time>
      </trkpt>
      <trkpt lat="40.357906" lon="-8.456783">
        <ele>80.407</ele>
        <time>2015-03-22T11:06:59Z</time>
      </trkpt>
      <trkpt lat="40.358138" lon="-8.456727">
        <ele>77.527</ele>
        <time>2015-03-22T11:07:06Z</time>
      </trkpt>
      <trkpt lat="40.358449" lon="-8.456702">
        <ele>77.007</ele>
        <time>2015-03-22T11:07:15Z</time>
      </trkpt>
      <trkpt lat="40.358553" lon="-8.456729">
        <ele>76.638</ele>
        <time>2015-03-22T11:07:18Z</time>
      </trkpt>
      <trkpt lat="40.358686" lon="-8.456531">
        <ele>75.611</ele>
        <time>2015-03-22T11:07:27Z</time>
      </trkpt>
      <trkpt lat="40.358890" lon="-8.456606">
        <ele>77.073</ele>
        <time>2015-03-22T11:07:36Z</time>
      </trkpt>
      <trkpt lat="40.359185" lon="-8.456642">
        <ele>78.033</ele>
        <time>2015-03-22T11:07:48Z</time>
      </trkpt>
      <trkpt lat="40.359444" lon="-8.456650">
        <ele>78.021</ele>
        <time>2015-03-22T11:07:58Z</time>
      </trkpt>
      <trkpt lat="40.359494" lon="-8.456673">
        <ele>76.626</ele>
        <time>2015-03-22T11:08:00Z</time>
      </trkpt>
      <trkpt lat="40.359785" lon="-8.456749">
        <ele>76.623</ele>
        <time>2015-03-22T11:08:11Z</time>
      </trkpt>
      <trkpt lat="40.359849" lon="-8.456763">
        <ele>75.161</ele>
        <time>2015-03-22T11:08:13Z</time>
      </trkpt>
      <trkpt lat="40.359958" lon="-8.456831">
        <ele>73.721</ele>
        <time>2015-03-22T11:08:17Z</time>
      </trkpt>
      <trkpt lat="40.360068" lon="-8.456698">
        <ele>72.213</ele>
        <time>2015-03-22T11:08:29Z</time>
      </trkpt>
      <trkpt lat="40.360142" lon="-8.456292">
        <ele>70.307</ele>
        <time>2015-03-22T11:08:43Z</time>
      </trkpt>
      <trkpt lat="40.360312" lon="-8.456178">
        <ele>66.015</ele>
        <time>2015-03-22T11:08:51Z</time>
      </trkpt>
      <trkpt lat="40.360375" lon="-8.456160">
        <ele>64.678</ele>
        <time>2015-03-22T11:08:53Z</time>
      </trkpt>
      <trkpt lat="40.360415" lon="-8.456123">
        <ele>63.620</ele>
        <time>2015-03-22T11:08:55Z</time>
      </trkpt>
      <trkpt lat="40.360461" lon="-8.455976">
        <ele>61.760</ele>
        <time>2015-03-22T11:08:59Z</time>
      </trkpt>
      <trkpt lat="40.360675" lon="-8.455553">
        <ele>60.288</ele>
        <time>2015-03-22T11:09:13Z</time>
      </trkpt>
      <trkpt lat="40.360719" lon="-8.455468">
        <ele>59.743</ele>
        <time>2015-03-22T11:09:16Z</time>
      </trkpt>
      <trkpt lat="40.360874" lon="-8.455441">
        <ele>59.770</ele>
        <time>2015-03-22T11:09:23Z</time>
      </trkpt>
      <trkpt lat="40.361223" lon="-8.455476">
        <ele>59.385</ele>
        <time>2015-03-22T11:09:36Z</time>
      </trkpt>
      <trkpt lat="40.361756" lon="-8.455588">
        <ele>59.389</ele>
        <time>2015-03-22T11:09:53Z</time>
      </trkpt>
      <trkpt lat="40.362081" lon="-8.455717">
        <ele>58.317</ele>
        <time>2015-03-22T11:10:05Z</time>
      </trkpt>
      <trkpt lat="40.362303" lon="-8.456023">
        <ele>58.807</ele>
        <time>2015-03-22T11:10:17Z</time>
      </trkpt>
      <trkpt lat="40.362357" lon="-8.456208">
        <ele>60.277</ele>
        <time>2015-03-22T11:10:25Z</time>
      </trkpt>
      <trkpt lat="40.362297" lon="-8.456558">
        <ele>62.680</ele>
        <time>2015-03-22T11:10:41Z</time>
      </trkpt>
      <trkpt lat="40.362389" lon="-8.456781">
        <ele>64.152</ele>
        <time>2015-03-22T11:10:55Z</time>
      </trkpt>
      <trkpt lat="40.362583" lon="-8.456840">
        <ele>67.052</ele>
        <time>2015-03-22T11:11:09Z</time>
      </trkpt>
      <trkpt lat="40.362658" lon="-8.456872">
        <ele>67.480</ele>
        <time>2015-03-22T11:11:14Z</time>
      </trkpt>
      <trkpt lat="40.362882" lon="-8.456985">
        <ele>68.455</ele>
        <time>2015-03-22T11:11:28Z</time>
      </trkpt>
      <trkpt lat="40.363108" lon="-8.457182">
        <ele>68.942</ele>
        <time>2015-03-22T11:11:42Z</time>
      </trkpt>
      <trkpt lat="40.363390" lon="-8.457344">
        <ele>68.964</ele>
        <time>2015-03-22T11:11:54Z</time>
      </trkpt>
      <trkpt lat="40.363732" lon="-8.457533">
        <ele>68.906</ele>
        <time>2015-03-22T11:12:07Z</time>
      </trkpt>
      <trkpt lat="40.364105" lon="-8.457717">
        <ele>69.416</ele>
        <time>2015-03-22T11:12:23Z</time>
      </trkpt>
      <trkpt lat="40.364448" lon="-8.457984">
        <ele>71.807</ele>
        <time>2015-03-22T11:12:40Z</time>
      </trkpt>
      <trkpt lat="40.364891" lon="-8.458317">
        <ele>71.395</ele>
        <time>2015-03-22T11:12:58Z</time>
      </trkpt>
      <trkpt lat="40.364979" lon="-8.458407">
        <ele>70.378</ele>
        <time>2015-03-22T11:13:01Z</time>
      </trkpt>
      <trkpt lat="40.365084" lon="-8.458506">
        <ele>69.470</ele>
        <time>2015-03-22T11:13:04Z</time>
      </trkpt>
      <trkpt lat="40.365344" lon="-8.458812">
        <ele>67.920</ele>
        <time>2015-03-22T11:13:11Z</time>
      </trkpt>
      <trkpt lat="40.365500" lon="-8.458881">
        <ele>65.518</ele>
        <time>2015-03-22T11:13:19Z</time>
      </trkpt>
      <trkpt lat="40.365618" lon="-8.457937">
        <ele>63.653</ele>
        <time>2015-03-22T11:13:36Z</time>
      </trkpt>
      <trkpt lat="40.365865" lon="-8.457074">
        <ele>61.210</ele>
        <time>2015-03-22T11:13:50Z</time>
      </trkpt>
      <trkpt lat="40.365910" lon="-8.456963">
        <ele>60.796</ele>
        <time>2015-03-22T11:13:52Z</time>
      </trkpt>
      <trkpt lat="40.366101" lon="-8.456746">
        <ele>60.731</ele>
        <time>2015-03-22T11:13:59Z</time>
      </trkpt>
      <trkpt lat="40.366306" lon="-8.456665">
        <ele>62.124</ele>
        <time>2015-03-22T11:14:05Z</time>
      </trkpt>
      <trkpt lat="40.366623" lon="-8.456576">
        <ele>62.107</ele>
        <time>2015-03-22T11:14:14Z</time>
      </trkpt>
      <trkpt lat="40.366702" lon="-8.456456">
        <ele>60.748</ele>
        <time>2015-03-22T11:14:25Z</time>
      </trkpt>
      <trkpt lat="40.366717" lon="-8.456171">
        <ele>60.751</ele>
        <time>2015-03-22T11:14:34Z</time>
      </trkpt>
      <trkpt lat="40.366778" lon="-8.455557">
        <ele>60.233</ele>
        <time>2015-03-22T11:14:49Z</time>
      </trkpt>
      <trkpt lat="40.366827" lon="-8.454899">
        <ele>60.233</ele>
        <time>2015-03-22T11:15:04Z</time>
      </trkpt>
      <trkpt lat="40.366842" lon="-8.454438">
        <ele>60.221</ele>
        <time>2015-03-22T11:15:15Z</time>
      </trkpt>
      <trkpt lat="40.367228" lon="-8.454350">
        <ele>61.276</ele>
        <time>2015-03-22T11:15:27Z</time>
      </trkpt>
      <trkpt lat="40.367712" lon="-8.454516">
        <ele>62.153</ele>
        <time>2015-03-22T11:15:42Z</time>
      </trkpt>
      <trkpt lat="40.368120" lon="-8.454420">
        <ele>63.154</ele>
        <time>2015-03-22T11:15:55Z</time>
      </trkpt>
      <trkpt lat="40.368719" lon="-8.454148">
        <ele>64.156</ele>
        <time>2015-03-22T11:16:15Z</time>
      </trkpt>
      <trkpt lat="40.369192" lon="-8.453791">
        <ele>66.011</ele>
        <time>2015-03-22T11:16:32Z</time>
      </trkpt>
      <trkpt lat="40.369595" lon="-8.453403">
        <ele>66.007</ele>
        <time>2015-03-22T11:16:47Z</time>
      </trkpt>
      <trkpt lat="40.369686" lon="-8.453315">
        <ele>66.084</ele>
        <time>2015-03-22T11:16:56Z</time>
      </trkpt>
      <trkpt lat="40.369872" lon="-8.453269">
        <ele>66.017</ele>
        <time>2015-03-22T11:17:11Z</time>
      </trkpt>
      <trkpt lat="40.370062" lon="-8.453294">
        <ele>64.119</ele>
        <time>2015-03-22T11:17:15Z</time>
      </trkpt>
      <trkpt lat="40.370673" lon="-8.453281">
        <ele>61.779</ele>
        <time>2015-03-22T11:17:28Z</time>
      </trkpt>
      <trkpt lat="40.371119" lon="-8.453282">
        <ele>60.237</ele>
        <time>2015-03-22T11:17:39Z</time>
      </trkpt>
      <trkpt lat="40.371792" lon="-8.453294">
        <ele>57.882</ele>
        <time>2015-03-22T11:17:56Z</time>
      </trkpt>
      <trkpt lat="40.372394" lon="-8.453280">
        <ele>58.349</ele>
        <time>2015-03-22T11:18:12Z</time>
      </trkpt>
      <trkpt lat="40.372996" lon="-8.453072">
        <ele>58.327</ele>
        <time>2015-03-22T11:18:29Z</time>
      </trkpt>
      <trkpt lat="40.373578" lon="-8.452851">
        <ele>58.368</ele>
        <time>2015-03-22T11:18:44Z</time>
      </trkpt>
      <trkpt lat="40.374186" lon="-8.452656">
        <ele>58.314</ele>
        <time>2015-03-22T11:19:00Z</time>
      </trkpt>
      <trkpt lat="40.374457" lon="-8.452604">
        <ele>58.307</ele>
        <time>2015-03-22T11:19:07Z</time>
      </trkpt>
      <trkpt lat="40.375014" lon="-8.452508">
        <ele>59.321</ele>
        <time>2015-03-22T11:19:22Z</time>
      </trkpt>
      <trkpt lat="40.375495" lon="-8.452376">
        <ele>59.764</ele>
        <time>2015-03-22T11:19:36Z</time>
      </trkpt>
      <trkpt lat="40.375979" lon="-8.452215">
        <ele>58.896</ele>
        <time>2015-03-22T11:19:50Z</time>
      </trkpt>
      <trkpt lat="40.376540" lon="-8.452028">
        <ele>58.396</ele>
        <time>2015-03-22T11:20:05Z</time>
      </trkpt>
      <trkpt lat="40.376975" lon="-8.451941">
        <ele>58.394</ele>
        <time>2015-03-22T11:20:18Z</time>
      </trkpt>
      <trkpt lat="40.377369" lon="-8.451850">
        <ele>58.369</ele>
        <time>2015-03-22T11:20:30Z</time>
      </trkpt>
      <trkpt lat="40.377831" lon="-8.451732">
        <ele>57.396</ele>
        <time>2015-03-22T11:20:45Z</time>
      </trkpt>
      <trkpt lat="40.378009" lon="-8.451597">
        <ele>59.385</ele>
        <time>2015-03-22T11:50:51Z</time>
      </trkpt>
      <trkpt lat="40.378134" lon="-8.451532">
        <ele>58.389</ele>
        <time>2015-03-22T11:51:37Z</time>
      </trkpt>
      <trkpt lat="40.378181" lon="-8.451510">
        <ele>58.317</ele>
        <time>2015-03-22T11:51:40Z</time>
      </trkpt>
      <trkpt lat="40.378240" lon="-8.451460">
        <ele>58.307</ele>
        <time>2015-03-22T11:51:44Z</time>
      </trkpt>
      <trkpt lat="40.378580" lon="-8.451290">
        <ele>57.897</ele>
        <time>2015-03-22T11:51:58Z</time>
      </trkpt>
      <trkpt lat="40.378886" lon="-8.451081">
        <ele>57.880</ele>
        <time>2015-03-22T11:52:11Z</time>
      </trkpt>
      <trkpt lat="40.379410" lon="-8.450765">
        <ele>57.392</ele>
        <time>2015-03-22T11:52:28Z</time>
      </trkpt>
      <trkpt lat="40.379946" lon="-8.450479">
        <ele>57.372</ele>
        <time>2015-03-22T11:52:43Z</time>
      </trkpt>
      <trkpt lat="40.380632" lon="-8.450074">
        <ele>56.920</ele>
        <time>2015-03-22T11:53:04Z</time>
      </trkpt>
      <trkpt lat="40.380850" lon="-8.449962">
        <ele>56.985</ele>
        <time>2015-03-22T11:53:59Z</time>
      </trkpt>
      <trkpt lat="40.380761" lon="-8.449861">
        <ele>56.962</ele>
        <time>2015-03-22T11:54:05Z</time>
      </trkpt>
      <trkpt lat="40.380738" lon="-8.449676">
        <ele>58.379</ele>
        <time>2015-03-22T11:54:10Z</time>
      </trkpt>
      <trkpt lat="40.380706" lon="-8.449522">
        <ele>58.805</ele>
        <time>2015-03-22T11:54:21Z</time>
      </trkpt>
      <trkpt lat="40.380767" lon="-8.449198">
        <ele>59.325</ele>
        <time>2015-03-22T11:54:31Z</time>
      </trkpt>
      <trkpt lat="40.381017" lon="-8.449320">
        <ele>59.307</ele>
        <time>2015-03-22T11:54:39Z</time>
      </trkpt>
      <trkpt lat="40.381490" lon="-8.449473">
        <ele>57.876</ele>
        <time>2015-03-22T11:54:53Z</time>
      </trkpt>
      <trkpt lat="40.381647" lon="-8.449484">
        <ele>57.849</ele>
        <time>2015-03-22T11:55:01Z</time>
      </trkpt>
      <trkpt lat="40.381717" lon="-8.449470">
        <ele>57.861</ele>
        <time>2015-03-22T11:55:16Z</time>
      </trkpt>
      <trkpt lat="40.382057" lon="-8.449575">
        <ele>57.891</ele>
        <time>2015-03-22T11:55:49Z</time>
      </trkpt>
      <trkpt lat="40.382705" lon="-8.449746">
        <ele>57.869</ele>
        <time>2015-03-22T11:56:07Z</time>
      </trkpt>
      <trkpt lat="40.383447" lon="-8.449923">
        <ele>57.844</ele>
        <time>2015-03-22T11:56:26Z</time>
      </trkpt>
      <trkpt lat="40.383726" lon="-8.449987">
        <ele>57.821</ele>
        <time>2015-03-22T11:56:38Z</time>
      </trkpt>
      <trkpt lat="40.384025" lon="-8.450062">
        <ele>58.871</ele>
        <time>2015-03-22T11:56:49Z</time>
      </trkpt>
      <trkpt lat="40.384715" lon="-8.450235">
        <ele>59.341</ele>
        <time>2015-03-22T11:57:07Z</time>
      </trkpt>
      <trkpt lat="40.385419" lon="-8.450406">
        <ele>59.315</ele>
        <time>2015-03-22T11:57:24Z</time>
      </trkpt>
      <trkpt lat="40.385714" lon="-8.450447">
        <ele>59.307</ele>
        <time>2015-03-22T11:57:31Z</time>
      </trkpt>
      <trkpt lat="40.386216" lon="-8.450495">
        <ele>59.386</ele>
        <time>2015-03-22T11:57:45Z</time>
      </trkpt>
      <trkpt lat="40.386584" lon="-8.450518">
        <ele>59.359</ele>
        <time>2015-03-22T11:57:57Z</time>
      </trkpt>
      <trkpt lat="40.386860" lon="-8.450491">
        <ele>59.361</ele>
        <time>2015-03-22T11:58:05Z</time>
      </trkpt>
      <trkpt lat="40.387355" lon="-8.450529">
        <ele>59.381</ele>
        <time>2015-03-22T11:58:18Z</time>
      </trkpt>
      <trkpt lat="40.388051" lon="-8.450542">
        <ele>59.329</ele>
        <time>2015-03-22T11:58:35Z</time>
      </trkpt>
      <trkpt lat="40.388675" lon="-8.450431">
        <ele>57.374</ele>
        <time>2015-03-22T11:58:51Z</time>
      </trkpt>
      <trkpt lat="40.389158" lon="-8.450493">
        <ele>57.361</ele>
        <time>2015-03-22T11:59:04Z</time>
      </trkpt>
      <trkpt lat="40.389785" lon="-8.450615">
        <ele>56.447</ele>
        <time>2015-03-22T11:59:20Z</time>
      </trkpt>
      <trkpt lat="40.390117" lon="-8.450588">
        <ele>56.429</ele>
        <time>2015-03-22T11:59:29Z</time>
      </trkpt>
      <trkpt lat="40.390296" lon="-8.450184">
        <ele>56.421</ele>
        <time>2015-03-22T11:59:40Z</time>
      </trkpt>
      <trkpt lat="40.390405" lon="-8.449912">
        <ele>56.407</ele>
        <time>2015-03-22T11:59:46Z</time>
      </trkpt>
      <trkpt lat="40.390756" lon="-8.449407">
        <ele>56.423</ele>
        <time>2015-03-22T11:59:59Z</time>
      </trkpt>
      <trkpt lat="40.390874" lon="-8.449271">
        <ele>55.416</ele>
        <time>2015-03-22T12:00:43Z</time>
      </trkpt>
      <trkpt lat="40.391380" lon="-8.448832">
        <ele>55.478</ele>
        <time>2015-03-22T12:01:03Z</time>
      </trkpt>
      <trkpt lat="40.391631" lon="-8.448743">
        <ele>56.928</ele>
        <time>2015-03-22T12:01:16Z</time>
      </trkpt>
      <trkpt lat="40.391813" lon="-8.448526">
        <ele>58.856</ele>
        <time>2015-03-22T12:01:32Z</time>
      </trkpt>
      <trkpt lat="40.391893" lon="-8.448268">
        <ele>61.271</ele>
        <time>2015-03-22T12:01:46Z</time>
      </trkpt>
      <trkpt lat="40.391972" lon="-8.448051">
        <ele>64.158</ele>
        <time>2015-03-22T12:01:57Z</time>
      </trkpt>
      <trkpt lat="40.392096" lon="-8.447758">
        <ele>64.129</ele>
        <time>2015-03-22T12:02:12Z</time>
      </trkpt>
      <trkpt lat="40.392305" lon="-8.447262">
        <ele>64.100</ele>
        <time>2015-03-22T12:02:29Z</time>
      </trkpt>
      <trkpt lat="40.392477" lon="-8.446843">
        <ele>63.120</ele>
        <time>2015-03-22T12:02:40Z</time>
      </trkpt>
      <trkpt lat="40.392827" lon="-8.446177">
        <ele>62.607</ele>
        <time>2015-03-22T12:02:57Z</time>
      </trkpt>
      <trkpt lat="40.393278" lon="-8.445538">
        <ele>62.691</ele>
        <time>2015-03-22T12:03:16Z</time>
      </trkpt>
      <trkpt lat="40.393600" lon="-8.444859">
        <ele>61.744</ele>
        <time>2015-03-22T12:03:34Z</time>
      </trkpt>
      <trkpt lat="40.393787" lon="-8.444330">
        <ele>64.636</ele>
        <time>2015-03-22T12:03:51Z</time>
      </trkpt>
      <trkpt lat="40.394047" lon="-8.444209">
        <ele>65.586</ele>
        <time>2015-03-22T12:04:03Z</time>
      </trkpt>
      <trkpt lat="40.394499" lon="-8.444176">
        <ele>66.094</ele>
        <time>2015-03-22T12:04:20Z</time>
      </trkpt>
      <trkpt lat="40.394541" lon="-8.444150">
        <ele>65.079</ele>
        <time>2015-03-22T12:04:22Z</time>
      </trkpt>
      <trkpt lat="40.394916" lon="-8.443843">
        <ele>66.546</ele>
        <time>2015-03-22T12:04:37Z</time>
      </trkpt>
      <trkpt lat="40.395028" lon="-8.443751">
        <ele>65.018</ele>
        <time>2015-03-22T12:04:42Z</time>
      </trkpt>
      <trkpt lat="40.395288" lon="-8.443513">
        <ele>66.598</ele>
        <time>2015-03-22T12:04:55Z</time>
      </trkpt>
      <trkpt lat="40.395534" lon="-8.443062">
        <ele>67.917</ele>
        <time>2015-03-22T12:05:14Z</time>
      </trkpt>
      <trkpt lat="40.395627" lon="-8.442676">
        <ele>68.407</ele>
        <time>2015-03-22T12:05:29Z</time>
      </trkpt>
      <trkpt lat="40.395756" lon="-8.442403">
        <ele>68.950</ele>
        <time>2015-03-22T12:05:42Z</time>
      </trkpt>
      <trkpt lat="40.396007" lon="-8.442427">
        <ele>70.343</ele>
        <time>2015-03-22T12:05:56Z</time>
      </trkpt>
      <trkpt lat="40.396294" lon="-8.442497">
        <ele>71.365</ele>
        <time>2015-03-22T12:06:12Z</time>
      </trkpt>
      <trkpt lat="40.396560" lon="-8.442659">
        <ele>70.855</ele>
        <time>2015-03-22T12:06:24Z</time>
      </trkpt>
      <trkpt lat="40.396633" lon="-8.442769">
        <ele>69.413</ele>
        <time>2015-03-22T12:06:27Z</time>
      </trkpt>
      <trkpt lat="40.396843" lon="-8.443043">
        <ele>67.418</ele>
        <time>2015-03-22T12:06:32Z</time>
      </trkpt>
      <trkpt lat="40.397137" lon="-8.443157">
        <ele>67.085</ele>
        <time>2015-03-22T12:06:38Z</time>
      </trkpt>
      <trkpt lat="40.397205" lon="-8.443139">
        <ele>68.491</ele>
        <time>2015-03-22T12:06:41Z</time>
      </trkpt>
      <trkpt lat="40.397543" lon="-8.442891">
        <ele>69.481</ele>
        <time>2015-03-22T12:06:56Z</time>
      </trkpt>
      <trkpt lat="40.397767" lon="-8.442630">
        <ele>67.919</ele>
        <time>2015-03-22T12:07:05Z</time>
      </trkpt>
      <trkpt lat="40.397995" lon="-8.442648">
        <ele>67.907</ele>
        <time>2015-03-22T12:07:16Z</time>
      </trkpt>
      <trkpt lat="40.398226" lon="-8.442832">
        <ele>70.368</ele>
        <time>2015-03-22T12:07:32Z</time>
      </trkpt>
      <trkpt lat="40.398439" lon="-8.442954">
        <ele>71.391</ele>
        <time>2015-03-22T12:07:48Z</time>
      </trkpt>
      <trkpt lat="40.398503" lon="-8.443003">
        <ele>71.373</ele>
        <time>2015-03-22T12:08:14Z</time>
      </trkpt>
      <trkpt lat="40.398584" lon="-8.443046">
        <ele>71.383</ele>
        <time>2015-03-22T12:08:18Z</time>
      </trkpt>
      <trkpt lat="40.398901" lon="-8.443353">
        <ele>70.351</ele>
        <time>2015-03-22T12:08:33Z</time>
      </trkpt>
      <trkpt lat="40.399286" lon="-8.443415">
        <ele>69.426</ele>
        <time>2015-03-22T12:08:46Z</time>
      </trkpt>
      <trkpt lat="40.399490" lon="-8.443565">
        <ele>69.423</ele>
        <time>2015-03-22T12:08:58Z</time>
      </trkpt>
      <trkpt lat="40.399684" lon="-8.443913">
        <ele>70.878</ele>
        <time>2015-03-22T12:09:11Z</time>
      </trkpt>
      <trkpt lat="40.399767" lon="-8.444018">
        <ele>69.433</ele>
        <time>2015-03-22T12:09:14Z</time>
      </trkpt>
      <trkpt lat="40.400004" lon="-8.444018">
        <ele>67.426</ele>
        <time>2015-03-22T12:09:19Z</time>
      </trkpt>
      <trkpt lat="40.400287" lon="-8.444066">
        <ele>67.007</ele>
        <time>2015-03-22T12:09:29Z</time>
      </trkpt>
      <trkpt lat="40.400437" lon="-8.444341">
        <ele>67.046</ele>
        <time>2015-03-22T12:09:41Z</time>
      </trkpt>
      <trkpt lat="40.400504" lon="-8.444513">
        <ele>67.949</ele>
        <time>2015-03-22T12:09:48Z</time>
      </trkpt>
      <trkpt lat="40.400780" lon="-8.444751">
        <ele>69.811</ele>
        <time>2015-03-22T12:10:04Z</time>
      </trkpt>
      <trkpt lat="40.401113" lon="-8.444819">
        <ele>70.871</ele>
        <time>2015-03-22T12:10:18Z</time>
      </trkpt>
      <trkpt lat="40.401213" lon="-8.444955">
        <ele>70.839</ele>
        <time>2015-03-22T12:10:23Z</time>
      </trkpt>
      <trkpt lat="40.401289" lon="-8.445176">
        <ele>69.424</ele>
        <time>2015-03-22T12:10:28Z</time>
      </trkpt>
      <trkpt lat="40.401615" lon="-8.445704">
        <ele>67.431</ele>
        <time>2015-03-22T12:10:40Z</time>
      </trkpt>
      <trkpt lat="40.401646" lon="-8.445810">
        <ele>67.957</ele>
        <time>2015-03-22T12:10:42Z</time>
      </trkpt>
      <trkpt lat="40.401704" lon="-8.445966">
        <ele>67.900</ele>
        <time>2015-03-22T12:10:45Z</time>
      </trkpt>
      <trkpt lat="40.401840" lon="-8.446273">
        <ele>66.520</ele>
        <time>2015-03-22T12:10:51Z</time>
      </trkpt>
      <trkpt lat="40.402291" lon="-8.447146">
        <ele>65.507</ele>
        <time>2015-03-22T12:11:10Z</time>
      </trkpt>
      <trkpt lat="40.402447" lon="-8.447502">
        <ele>67.044</ele>
        <time>2015-03-22T12:11:21Z</time>
      </trkpt>
      <trkpt lat="40.402516" lon="-8.447949">
        <ele>66.547</ele>
        <time>2015-03-22T12:11:33Z</time>
      </trkpt>
      <trkpt lat="40.402573" lon="-8.448109">
        <ele>66.569</ele>
        <time>2015-03-22T12:11:38Z</time>
      </trkpt>
      <trkpt lat="40.402573" lon="-8.448201">
        <ele>66.539</ele>
        <time>2015-03-22T12:11:40Z</time>
      </trkpt>
      <trkpt lat="40.402727" lon="-8.448236">
        <ele>64.637</ele>
        <time>2015-03-22T12:11:45Z</time>
      </trkpt>
      <trkpt lat="40.402830" lon="-8.448167">
        <ele>63.622</ele>
        <time>2015-03-22T12:11:47Z</time>
      </trkpt>
      <trkpt lat="40.403026" lon="-8.448096">
        <ele>62.199</ele>
        <time>2015-03-22T12:11:50Z</time>
      </trkpt>
      <trkpt lat="40.403253" lon="-8.448103">
        <ele>60.252</ele>
        <time>2015-03-22T12:11:53Z</time>
      </trkpt>
      <trkpt lat="40.403568" lon="-8.447823">
        <ele>56.953</ele>
        <time>2015-03-22T12:11:59Z</time>
      </trkpt>
      <trkpt lat="40.403582" lon="-8.447740">
        <ele>56.408</ele>
        <time>2015-03-22T12:12:00Z</time>
      </trkpt>
      <trkpt lat="40.403665" lon="-8.446972">
        <ele>56.907</ele>
        <time>2015-03-22T12:12:13Z</time>
      </trkpt>
      <trkpt lat="40.403926" lon="-8.446236">
        <ele>58.844</ele>
        <time>2015-03-22T12:12:29Z</time>
      </trkpt>
      <trkpt lat="40.404249" lon="-8.446071">
        <ele>58.867</ele>
        <time>2015-03-22T12:12:37Z</time>
      </trkpt>
      <trkpt lat="40.405095" lon="-8.446087">
        <ele>56.999</ele>
        <time>2015-03-22T12:12:56Z</time>
      </trkpt>
      <trkpt lat="40.405381" lon="-8.446062">
        <ele>56.479</ele>
        <time>2015-03-22T12:13:03Z</time>
      </trkpt>
      <trkpt lat="40.405591" lon="-8.445848">
        <ele>56.457</ele>
        <time>2015-03-22T12:13:10Z</time>
      </trkpt>
      <trkpt lat="40.405988" lon="-8.445375">
        <ele>56.482</ele>
        <time>2015-03-22T12:13:25Z</time>
      </trkpt>
      <trkpt lat="40.406312" lon="-8.445429">
        <ele>57.819</ele>
        <time>2015-03-22T12:13:34Z</time>
      </trkpt>
      <trkpt lat="40.406914" lon="-8.445704">
        <ele>59.764</ele>
        <time>2015-03-22T12:13:52Z</time>
      </trkpt>
      <trkpt lat="40.407422" lon="-8.445755">
        <ele>60.206</ele>
        <time>2015-03-22T12:14:07Z</time>
      </trkpt>
      <trkpt lat="40.408113" lon="-8.445743">
        <ele>61.716</ele>
        <time>2015-03-22T12:14:27Z</time>
      </trkpt>
      <trkpt lat="40.408606" lon="-8.445551">
        <ele>62.607</ele>
        <time>2015-03-22T12:14:42Z</time>
      </trkpt>
      <trkpt lat="40.409241" lon="-8.445297">
        <ele>63.665</ele>
        <time>2015-03-22T12:15:03Z</time>
      </trkpt>
      <trkpt lat="40.409601" lon="-8.445149">
        <ele>64.148</ele>
        <time>2015-03-22T12:15:18Z</time>
      </trkpt>
      <trkpt lat="40.410122" lon="-8.444976">
        <ele>67.010</ele>
        <time>2015-03-22T12:15:40Z</time>
      </trkpt>
      <trkpt lat="40.410599" lon="-8.444832">
        <ele>68.480</ele>
        <time>2015-03-22T12:16:00Z</time>
      </trkpt>
      <trkpt lat="40.411016" lon="-8.444666">
        <ele>68.448</ele>
        <time>2015-03-22T12:16:18Z</time>
      </trkpt>
      <trkpt lat="40.411502" lon="-8.444556">
        <ele>69.833</ele>
        <time>2015-03-22T12:16:38Z</time>
      </trkpt>
      <trkpt lat="40.411957" lon="-8.444438">
        <ele>72.750</ele>
        <time>2015-03-22T12:16:57Z</time>
      </trkpt>
      <trkpt lat="40.412305" lon="-8.444342">
        <ele>73.245</ele>
        <time>2015-03-22T12:17:12Z</time>
      </trkpt>
      <trkpt lat="40.412686" lon="-8.444268">
        <ele>74.647</ele>
        <time>2015-03-22T12:17:27Z</time>
      </trkpt>
      <trkpt lat="40.412969" lon="-8.444245">
        <ele>75.611</ele>
        <time>2015-03-22T12:17:39Z</time>
      </trkpt>
      <trkpt lat="40.413353" lon="-8.444284">
        <ele>78.007</ele>
        <time>2015-03-22T12:17:55Z</time>
      </trkpt>
      <trkpt lat="40.413686" lon="-8.444323">
        <ele>79.063</ele>
        <time>2015-03-22T12:18:08Z</time>
      </trkpt>
      <trkpt lat="40.414042" lon="-8.444562">
        <ele>79.546</ele>
        <time>2015-03-22T12:18:24Z</time>
      </trkpt>
      <trkpt lat="40.414342" lon="-8.444833">
        <ele>78.068</ele>
        <time>2015-03-22T12:18:38Z</time>
      </trkpt>
      <trkpt lat="40.414432" lon="-8.444693">
        <ele>77.058</ele>
        <time>2015-03-22T12:18:42Z</time>
      </trkpt>
      <trkpt lat="40.414560" lon="-8.443976">
        <ele>73.296</ele>
        <time>2015-03-22T12:18:53Z</time>
      </trkpt>
      <trkpt lat="40.414828" lon="-8.443622">
        <ele>71.341</ele>
        <time>2015-03-22T12:19:00Z</time>
      </trkpt>
      <trkpt lat="40.415766" lon="-8.443327">
        <ele>69.438</ele>
        <time>2015-03-22T12:19:18Z</time>
      </trkpt>
      <trkpt lat="40.416522" lon="-8.443206">
        <ele>65.522</ele>
        <time>2015-03-22T12:19:33Z</time>
      </trkpt>
      <trkpt lat="40.417300" lon="-8.442942">
        <ele>65.562</ele>
        <time>2015-03-22T12:19:51Z</time>
      </trkpt>
      <trkpt lat="40.417919" lon="-8.442628">
        <ele>65.008</ele>
        <time>2015-03-22T12:20:08Z</time>
      </trkpt>
      <trkpt lat="40.418436" lon="-8.442462">
        <ele>64.607</ele>
        <time>2015-03-22T12:20:22Z</time>
      </trkpt>
      <trkpt lat="40.418764" lon="-8.442356">
        <ele>66.071</ele>
        <time>2015-03-22T12:20:31Z</time>
      </trkpt>
      <trkpt lat="40.419264" lon="-8.441857">
        <ele>66.044</ele>
        <time>2015-03-22T12:20:49Z</time>
      </trkpt>
      <trkpt lat="40.419490" lon="-8.441384">
        <ele>67.056</ele>
        <time>2015-03-22T12:21:04Z</time>
      </trkpt>
      <trkpt lat="40.419794" lon="-8.440818">
        <ele>69.866</ele>
        <time>2015-03-22T12:21:26Z</time>
      </trkpt>
      <trkpt lat="40.420087" lon="-8.440469">
        <ele>72.734</ele>
        <time>2015-03-22T12:21:43Z</time>
      </trkpt>
      <trkpt lat="40.420421" lon="-8.440072">
        <ele>74.219</ele>
        <time>2015-03-22T12:22:03Z</time>
      </trkpt>
      <trkpt lat="40.420694" lon="-8.439767">
        <ele>76.116</ele>
        <time>2015-03-22T12:22:19Z</time>
      </trkpt>
      <trkpt lat="40.421024" lon="-8.439412">
        <ele>77.535</ele>
        <time>2015-03-22T12:22:37Z</time>
      </trkpt>
      <trkpt lat="40.421459" lon="-8.439298">
        <ele>79.086</ele>
        <time>2015-03-22T12:22:54Z</time>
      </trkpt>
      <trkpt lat="40.421921" lon="-8.439216">
        <ele>79.914</ele>
        <time>2015-03-22T12:23:14Z</time>
      </trkpt>
      <trkpt lat="40.422202" lon="-8.439157">
        <ele>79.907</ele>
        <time>2015-03-22T12:23:40Z</time>
      </trkpt>
      <trkpt lat="40.422768" lon="-8.439036">
        <ele>81.482</ele>
        <time>2015-03-22T12:24:03Z</time>
      </trkpt>
      <trkpt lat="40.423199" lon="-8.438935">
        <ele>81.415</ele>
        <time>2015-03-22T12:24:17Z</time>
      </trkpt>
      <trkpt lat="40.423738" lon="-8.438643">
        <ele>81.947</ele>
        <time>2015-03-22T12:24:33Z</time>
      </trkpt>
      <trkpt lat="40.424356" lon="-8.438333">
        <ele>82.817</ele>
        <time>2015-03-22T12:24:51Z</time>
      </trkpt>
      <trkpt lat="40.424870" lon="-8.437981">
        <ele>83.855</ele>
        <time>2015-03-22T12:25:07Z</time>
      </trkpt>
      <trkpt lat="40.425250" lon="-8.437790">
        <ele>86.230</ele>
        <time>2015-03-22T12:25:20Z</time>
      </trkpt>
      <trkpt lat="40.425299" lon="-8.437906">
        <ele>86.277</ele>
        <time>2015-03-22T12:25:23Z</time>
      </trkpt>
      <trkpt lat="40.425292" lon="-8.438228">
        <ele>84.764</ele>
        <time>2015-03-22T12:25:28Z</time>
      </trkpt>
      <trkpt lat="40.425266" lon="-8.438466">
        <ele>82.806</ele>
        <time>2015-03-22T12:25:31Z</time>
      </trkpt>
      <trkpt lat="40.425400" lon="-8.439531">
        <ele>81.416</ele>
        <time>2015-03-22T12:25:44Z</time>
      </trkpt>
      <trkpt lat="40.425643" lon="-8.440272">
        <ele>81.407</ele>
        <time>2015-03-22T12:25:58Z</time>
      </trkpt>
      <trkpt lat="40.425674" lon="-8.440371">
        <ele>81.495</ele>
        <time>2015-03-22T12:26:00Z</time>
      </trkpt>
      <trkpt lat="40.425757" lon="-8.440624">
        <ele>81.448</ele>
        <time>2015-03-22T12:26:05Z</time>
      </trkpt>
      <trkpt lat="40.426043" lon="-8.440765">
        <ele>82.840</ele>
        <time>2015-03-22T12:26:13Z</time>
      </trkpt>
      <trkpt lat="40.426185" lon="-8.440723">
        <ele>82.860</ele>
        <time>2015-03-22T12:26:16Z</time>
      </trkpt>
      <trkpt lat="40.426526" lon="-8.440764">
        <ele>78.558</ele>
        <time>2015-03-22T12:26:21Z</time>
      </trkpt>
      <trkpt lat="40.426682" lon="-8.440826">
        <ele>77.053</ele>
        <time>2015-03-22T12:26:23Z</time>
      </trkpt>
      <trkpt lat="40.427445" lon="-8.441169">
        <ele>75.110</ele>
        <time>2015-03-22T12:26:35Z</time>
      </trkpt>
      <trkpt lat="40.427960" lon="-8.441408">
        <ele>73.739</ele>
        <time>2015-03-22T12:26:49Z</time>
      </trkpt>
      <trkpt lat="40.428029" lon="-8.441434">
        <ele>73.701</ele>
        <time>2015-03-22T12:26:51Z</time>
      </trkpt>
      <trkpt lat="40.428541" lon="-8.441642">
        <ele>72.721</ele>
        <time>2015-03-22T12:27:03Z</time>
      </trkpt>
      <trkpt lat="40.429081" lon="-8.441854">
        <ele>71.807</ele>
        <time>2015-03-22T12:27:16Z</time>
      </trkpt>
      <trkpt lat="40.429306" lon="-8.441817">
        <ele>71.352</ele>
        <time>2015-03-22T12:27:21Z</time>
      </trkpt>
      <trkpt lat="40.429533" lon="-8.441532">
        <ele>69.845</ele>
        <time>2015-03-22T12:27:27Z</time>
      </trkpt>
      <trkpt lat="40.429685" lon="-8.441156">
        <ele>67.957</ele>
        <time>2015-03-22T12:27:32Z</time>
      </trkpt>
      <trkpt lat="40.429867" lon="-8.440883">
        <ele>67.017</ele>
        <time>2015-03-22T12:27:36Z</time>
      </trkpt>
      <trkpt lat="40.430079" lon="-8.440839">
        <ele>66.525</ele>
        <time>2015-03-22T12:27:40Z</time>
      </trkpt>
      <trkpt lat="40.430918" lon="-8.441224">
        <ele>63.650</ele>
        <time>2015-03-22T12:27:56Z</time>
      </trkpt>
      <trkpt lat="40.431712" lon="-8.441538">
        <ele>63.657</ele>
        <time>2015-03-22T12:28:14Z</time>
      </trkpt>
      <trkpt lat="40.432268" lon="-8.441770">
        <ele>62.641</ele>
        <time>2015-03-22T12:28:27Z</time>
      </trkpt>
      <trkpt lat="40.433014" lon="-8.442084">
        <ele>60.281</ele>
        <time>2015-03-22T12:28:45Z</time>
      </trkpt>
      <trkpt lat="40.433785" lon="-8.442388">
        <ele>59.709</ele>
        <time>2015-03-22T12:29:03Z</time>
      </trkpt>
      <trkpt lat="40.434214" lon="-8.442567">
        <ele>58.807</ele>
        <time>2015-03-22T12:29:13Z</time>
      </trkpt>
      <trkpt lat="40.434622" lon="-8.442653">
        <ele>59.743</ele>
        <time>2015-03-22T12:29:23Z</time>
      </trkpt>
      <trkpt lat="40.434891" lon="-8.442462">
        <ele>62.166</ele>
        <time>2015-03-22T12:29:36Z</time>
      </trkpt>
      <trkpt lat="40.435052" lon="-8.442234">
        <ele>64.668</ele>
        <time>2015-03-22T12:29:50Z</time>
      </trkpt>
      <trkpt lat="40.435219" lon="-8.442017">
        <ele>67.988</ele>
        <time>2015-03-22T12:30:04Z</time>
      </trkpt>
      <trkpt lat="40.435371" lon="-8.441784">
        <ele>71.386</ele>
        <time>2015-03-22T12:30:19Z</time>
      </trkpt>
      <trkpt lat="40.435476" lon="-8.441411">
        <ele>73.281</ele>
        <time>2015-03-22T12:30:37Z</time>
      </trkpt>
      <trkpt lat="40.435708" lon="-8.441235">
        <ele>73.728</ele>
        <time>2015-03-22T12:30:51Z</time>
      </trkpt>
      <trkpt lat="40.435920" lon="-8.441565">
        <ele>73.779</ele>
        <time>2015-03-22T12:31:04Z</time>
      </trkpt>
      <trkpt lat="40.436203" lon="-8.441992">
        <ele>73.705</ele>
        <time>2015-03-22T12:31:19Z</time>
      </trkpt>
      <trkpt lat="40.436759" lon="-8.442597">
        <ele>74.625</ele>
        <time>2015-03-22T12:31:40Z</time>
      </trkpt>
      <trkpt lat="40.437280" lon="-8.442862">
        <ele>76.607</ele>
        <time>2015-03-22T12:31:56Z</time>
      </trkpt>
      <trkpt lat="40.437686" lon="-8.442793">
        <ele>77.556</ele>
        <time>2015-03-22T12:32:08Z</time>
      </trkpt>
      <trkpt lat="40.438276" lon="-8.442675">
        <ele>78.589</ele>
        <time>2015-03-22T12:32:25Z</time>
      </trkpt>
      <trkpt lat="40.438950" lon="-8.442564">
        <ele>79.581</ele>
        <time>2015-03-22T12:32:43Z</time>
      </trkpt>
      <trkpt lat="40.439582" lon="-8.442429">
        <ele>77.051</ele>
        <time>2015-03-22T12:32:59Z</time>
      </trkpt>
      <trkpt lat="40.440217" lon="-8.442313">
        <ele>76.629</ele>
        <time>2015-03-22T12:33:16Z</time>
      </trkpt>
      <trkpt lat="40.440450" lon="-8.442259">
        <ele>76.624</ele>
        <time>2015-03-22T12:33:24Z</time>
      </trkpt>
      <trkpt lat="40.440559" lon="-8.442063">
        <ele>78.041</ele>
        <time>2015-03-22T12:33:33Z</time>
      </trkpt>
      <trkpt lat="40.440661" lon="-8.442072">
        <ele>78.097</ele>
        <time>2015-03-22T12:33:37Z</time>
      </trkpt>
      <trkpt lat="40.441041" lon="-8.442212">
        <ele>79.523</ele>
        <time>2015-03-22T12:33:54Z</time>
      </trkpt>
      <trkpt lat="40.441416" lon="-8.442362">
        <ele>80.425</ele>
        <time>2015-03-22T12:34:09Z</time>
      </trkpt>
      <trkpt lat="40.441813" lon="-8.442533">
        <ele>80.407</ele>
        <time>2015-03-22T12:34:24Z</time>
      </trkpt>
      <trkpt lat="40.442043" lon="-8.442632">
        <ele>79.058</ele>
        <time>2015-03-22T12:34:31Z</time>
      </trkpt>
      <trkpt lat="40.442685" lon="-8.442938">
        <ele>76.171</ele>
        <time>2015-03-22T12:34:46Z</time>
      </trkpt>
      <trkpt lat="40.443277" lon="-8.443044">
        <ele>72.763</ele>
        <time>2015-03-22T12:34:56Z</time>
      </trkpt>
      <trkpt lat="40.443723" lon="-8.443029">
        <ele>68.943</ele>
        <time>2015-03-22T12:35:02Z</time>
      </trkpt>
      <trkpt lat="40.444088" lon="-8.443025">
        <ele>65.081</ele>
        <time>2015-03-22T12:35:06Z</time>
      </trkpt>
      <trkpt lat="40.444188" lon="-8.443020">
        <ele>65.016</ele>
        <time>2015-03-22T12:35:07Z</time>
      </trkpt>
      <trkpt lat="40.444389" lon="-8.443004">
        <ele>62.663</ele>
        <time>2015-03-22T12:35:09Z</time>
      </trkpt>
      <trkpt lat="40.444693" lon="-8.442970">
        <ele>59.744</ele>
        <time>2015-03-22T12:35:12Z</time>
      </trkpt>
      <trkpt lat="40.445070" lon="-8.442792">
        <ele>56.405</ele>
        <time>2015-03-22T12:35:16Z</time>
      </trkpt>
      <trkpt lat="40.445334" lon="-8.442592">
        <ele>54.515</ele>
        <time>2015-03-22T12:35:19Z</time>
      </trkpt>
      <trkpt lat="40.445648" lon="-8.442443">
        <ele>53.507</ele>
        <time>2015-03-22T12:35:23Z</time>
      </trkpt>
      <trkpt lat="40.446063" lon="-8.442398">
        <ele>51.133</ele>
        <time>2015-03-22T12:35:30Z</time>
      </trkpt>
      <trkpt lat="40.446300" lon="-8.442239">
        <ele>48.766</ele>
        <time>2015-03-22T12:35:34Z</time>
      </trkpt>
      <trkpt lat="40.446624" lon="-8.442187">
        <ele>44.818</ele>
        <time>2015-03-22T12:35:39Z</time>
      </trkpt>
      <trkpt lat="40.446727" lon="-8.442257">
        <ele>43.498</ele>
        <time>2015-03-22T12:35:41Z</time>
      </trkpt>
      <trkpt lat="40.446895" lon="-8.442251">
        <ele>42.456</ele>
        <time>2015-03-22T12:35:45Z</time>
      </trkpt>
      <trkpt lat="40.447321" lon="-8.441866">
        <ele>40.581</ele>
        <time>2015-03-22T12:35:59Z</time>
      </trkpt>
      <trkpt lat="40.447537" lon="-8.441560">
        <ele>41.538</ele>
        <time>2015-03-22T12:36:10Z</time>
      </trkpt>
      <trkpt lat="40.447573" lon="-8.441491">
        <ele>39.698</ele>
        <time>2015-03-22T12:36:21Z</time>
      </trkpt>
      <trkpt lat="40.447607" lon="-8.441357">
        <ele>41.515</ele>
        <time>2015-03-22T12:36:48Z</time>
      </trkpt>
      <trkpt lat="40.447776" lon="-8.440950">
        <ele>40.026</ele>
        <time>2015-03-22T12:37:01Z</time>
      </trkpt>
      <trkpt lat="40.447886" lon="-8.440424">
        <ele>40.007</ele>
        <time>2015-03-22T12:37:14Z</time>
      </trkpt>
      <trkpt lat="40.447731" lon="-8.439753">
        <ele>41.018</ele>
        <time>2015-03-22T12:37:30Z</time>
      </trkpt>
      <trkpt lat="40.447509" lon="-8.439224">
        <ele>40.021</ele>
        <time>2015-03-22T12:37:45Z</time>
      </trkpt>
      <trkpt lat="40.447691" lon="-8.438846">
        <ele>40.013</ele>
        <time>2015-03-22T12:37:56Z</time>
      </trkpt>
      <trkpt lat="40.447769" lon="-8.438799">
        <ele>40.063</ele>
        <time>2015-03-22T12:38:05Z</time>
      </trkpt>
      <trkpt lat="40.447831" lon="-8.438777">
        <ele>40.041</ele>
        <time>2015-03-22T12:38:38Z</time>
      </trkpt>
      <trkpt lat="40.448155" lon="-8.438557">
        <ele>40.066</ele>
        <time>2015-03-22T12:38:49Z</time>
      </trkpt>
      <trkpt lat="40.448602" lon="-8.438283">
        <ele>40.083</ele>
        <time>2015-03-22T12:39:03Z</time>
      </trkpt>
      <trkpt lat="40.449216" lon="-8.438101">
        <ele>40.039</ele>
        <time>2015-03-22T12:39:20Z</time>
      </trkpt>
      <trkpt lat="40.449915" lon="-8.438167">
        <ele>40.001</ele>
        <time>2015-03-22T12:39:38Z</time>
      </trkpt>
      <trkpt lat="40.450758" lon="-8.438348">
        <ele>40.021</ele>
        <time>2015-03-22T12:40:01Z</time>
      </trkpt>
      <trkpt lat="40.451308" lon="-8.438303">
        <ele>42.007</ele>
        <time>2015-03-22T12:40:17Z</time>
      </trkpt>
      <trkpt lat="40.451684" lon="-8.438403">
        <ele>42.472</ele>
        <time>2015-03-22T12:40:30Z</time>
      </trkpt>
      <trkpt lat="40.451854" lon="-8.438535">
        <ele>44.465</ele>
        <time>2015-03-22T12:40:43Z</time>
      </trkpt>
      <trkpt lat="40.452061" lon="-8.438565">
        <ele>47.787</ele>
        <time>2015-03-22T12:40:58Z</time>
      </trkpt>
      <trkpt lat="40.452308" lon="-8.438381">
        <ele>48.267</ele>
        <time>2015-03-22T12:41:13Z</time>
      </trkpt>
      <trkpt lat="40.452712" lon="-8.438099">
        <ele>46.845</ele>
        <time>2015-03-22T12:41:25Z</time>
      </trkpt>
      <trkpt lat="40.453023" lon="-8.437877">
        <ele>44.450</ele>
        <time>2015-03-22T12:41:31Z</time>
      </trkpt>
      <trkpt lat="40.453179" lon="-8.437745">
        <ele>44.457</ele>
        <time>2015-03-22T12:41:34Z</time>
      </trkpt>
      <trkpt lat="40.453629" lon="-8.437178">
        <ele>42.444</ele>
        <time>2015-03-22T12:41:46Z</time>
      </trkpt>
      <trkpt lat="40.453759" lon="-8.437211">
        <ele>42.405</ele>
        <time>2015-03-22T12:41:50Z</time>
      </trkpt>
      <trkpt lat="40.454365" lon="-8.437464">
        <ele>42.915</ele>
        <time>2015-03-22T12:42:08Z</time>
      </trkpt>
      <trkpt lat="40.454942" lon="-8.437519">
        <ele>45.807</ele>
        <time>2015-03-22T12:42:25Z</time>
      </trkpt>
      <trkpt lat="40.455346" lon="-8.437455">
        <ele>47.773</ele>
        <time>2015-03-22T12:42:37Z</time>
      </trkpt>
      <trkpt lat="40.455950" lon="-8.437322">
        <ele>47.766</ele>
        <time>2015-03-22T12:42:54Z</time>
      </trkpt>
      <trkpt lat="40.456514" lon="-8.437103">
        <ele>47.728</ele>
        <time>2015-03-22T12:43:10Z</time>
      </trkpt>
      <trkpt lat="40.457054" lon="-8.436590">
        <ele>48.798</ele>
        <time>2015-03-22T12:43:28Z</time>
      </trkpt>
      <trkpt lat="40.457295" lon="-8.436553">
        <ele>48.766</ele>
        <time>2015-03-22T12:43:38Z</time>
      </trkpt>
      <trkpt lat="40.457323" lon="-8.436462">
        <ele>48.721</ele>
        <time>2015-03-22T12:43:47Z</time>
      </trkpt>
      <trkpt lat="40.457324" lon="-8.436183">
        <ele>49.238</ele>
        <time>2015-03-22T12:43:57Z</time>
      </trkpt>
      <trkpt lat="40.457478" lon="-8.436082">
        <ele>49.276</ele>
        <time>2015-03-22T12:44:03Z</time>
      </trkpt>
      <trkpt lat="40.457564" lon="-8.436378">
        <ele>49.790</ele>
        <time>2015-03-22T12:44:11Z</time>
      </trkpt>
      <trkpt lat="40.457841" lon="-8.436791">
        <ele>50.619</ele>
        <time>2015-03-22T12:44:24Z</time>
      </trkpt>
      <trkpt lat="40.458355" lon="-8.437141">
        <ele>52.507</ele>
        <time>2015-03-22T12:44:42Z</time>
      </trkpt>
      <trkpt lat="40.458813" lon="-8.437469">
        <ele>53.536</ele>
        <time>2015-03-22T12:44:57Z</time>
      </trkpt>
      <trkpt lat="40.459087" lon="-8.437753">
        <ele>52.599</ele>
        <time>2015-03-22T12:45:06Z</time>
      </trkpt>
      <trkpt lat="40.459448" lon="-8.438061">
        <ele>52.581</ele>
        <time>2015-03-22T12:45:18Z</time>
      </trkpt>
      <trkpt lat="40.459830" lon="-8.438042">
        <ele>54.911</ele>
        <time>2015-03-22T12:45:30Z</time>
      </trkpt>
      <trkpt lat="40.459957" lon="-8.438364">
        <ele>54.919</ele>
        <time>2015-03-22T12:45:37Z</time>
      </trkpt>
      <trkpt lat="40.460110" lon="-8.439302">
        <ele>53.594</ele>
        <time>2015-03-22T12:45:55Z</time>
      </trkpt>
      <trkpt lat="40.460144" lon="-8.439546">
        <ele>53.081</ele>
        <time>2015-03-22T12:46:00Z</time>
      </trkpt>
      <trkpt lat="40.460254" lon="-8.439782">
        <ele>53.086</ele>
        <time>2015-03-22T12:46:05Z</time>
      </trkpt>
      <trkpt lat="40.460821" lon="-8.440276">
        <ele>54.560</ele>
        <time>2015-03-22T12:46:22Z</time>
      </trkpt>
      <trkpt lat="40.461436" lon="-8.440796">
        <ele>55.426</ele>
        <time>2015-03-22T12:46:40Z</time>
      </trkpt>
      <trkpt lat="40.462024" lon="-8.441315">
        <ele>55.907</ele>
        <time>2015-03-22T12:46:57Z</time>
      </trkpt>
      <trkpt lat="40.462580" lon="-8.441916">
        <ele>57.317</ele>
        <time>2015-03-22T12:47:14Z</time>
      </trkpt>
      <trkpt lat="40.463143" lon="-8.442471">
        <ele>57.320</ele>
        <time>2015-03-22T12:47:30Z</time>
      </trkpt>
      <trkpt lat="40.463676" lon="-8.442916">
        <ele>56.472</ele>
        <time>2015-03-22T12:47:46Z</time>
      </trkpt>
      <trkpt lat="40.464228" lon="-8.443337">
        <ele>56.432</ele>
        <time>2015-03-22T12:48:01Z</time>
      </trkpt>
      <trkpt lat="40.464868" lon="-8.443859">
        <ele>55.970</ele>
        <time>2015-03-22T12:48:19Z</time>
      </trkpt>
      <trkpt lat="40.465441" lon="-8.444326">
        <ele>55.475</ele>
        <time>2015-03-22T12:48:35Z</time>
      </trkpt>
      <trkpt lat="40.465555" lon="-8.444440">
        <ele>55.412</ele>
        <time>2015-03-22T12:48:38Z</time>
      </trkpt>
      <trkpt lat="40.465648" lon="-8.444576">
        <ele>55.449</ele>
        <time>2015-03-22T12:48:41Z</time>
      </trkpt>
      <trkpt lat="40.466118" lon="-8.445518">
        <ele>55.402</ele>
        <time>2015-03-22T12:49:00Z</time>
      </trkpt>
      <trkpt lat="40.466433" lon="-8.446213">
        <ele>54.922</ele>
        <time>2015-03-22T12:49:14Z</time>
      </trkpt>
      <trkpt lat="40.466802" lon="-8.447050">
        <ele>54.007</ele>
        <time>2015-03-22T12:49:30Z</time>
      </trkpt>
      <trkpt lat="40.466848" lon="-8.447151">
        <ele>54.083</ele>
        <time>2015-03-22T12:49:32Z</time>
      </trkpt>
      <trkpt lat="40.467198" lon="-8.447739">
        <ele>54.026</ele>
        <time>2015-03-22T12:49:46Z</time>
      </trkpt>
      <trkpt lat="40.467703" lon="-8.447865">
        <ele>54.988</ele>
        <time>2015-03-22T12:49:59Z</time>
      </trkpt>
      <trkpt lat="40.468440" lon="-8.448096">
        <ele>55.478</ele>
        <time>2015-03-22T12:50:17Z</time>
      </trkpt>
      <trkpt lat="40.469168" lon="-8.448350">
        <ele>56.956</ele>
        <time>2015-03-22T12:50:35Z</time>
      </trkpt>
      <trkpt lat="40.469428" lon="-8.448426">
        <ele>57.321</ele>
        <time>2015-03-22T12:50:41Z</time>
      </trkpt>
      <trkpt lat="40.470018" lon="-8.448687">
        <ele>57.368</ele>
        <time>2015-03-22T12:50:56Z</time>
      </trkpt>
      <trkpt lat="40.470406" lon="-8.448834">
        <ele>55.954</ele>
        <time>2015-03-22T12:51:05Z</time>
      </trkpt>
      <trkpt lat="40.470760" lon="-8.448937">
        <ele>56.956</ele>
        <time>2015-03-22T12:51:13Z</time>
      </trkpt>
      <trkpt lat="40.470900" lon="-8.448966">
        <ele>56.911</ele>
        <time>2015-03-22T12:51:16Z</time>
      </trkpt>
      <trkpt lat="40.471376" lon="-8.449281">
        <ele>53.507</ele>
        <time>2015-03-22T12:51:26Z</time>
      </trkpt>
      <trkpt lat="40.471757" lon="-8.449734">
        <ele>49.794</ele>
        <time>2015-03-22T12:51:32Z</time>
      </trkpt>
      <trkpt lat="40.472036" lon="-8.450077">
        <ele>46.337</ele>
        <time>2015-03-22T12:51:36Z</time>
      </trkpt>
      <trkpt lat="40.472336" lon="-8.450474">
        <ele>42.919</ele>
        <time>2015-03-22T12:51:40Z</time>
      </trkpt>
      <trkpt lat="40.472652" lon="-8.450871">
        <ele>40.019</ele>
        <time>2015-03-22T12:51:44Z</time>
      </trkpt>
      <trkpt lat="40.472946" lon="-8.451269">
        <ele>36.717</ele>
        <time>2015-03-22T12:51:48Z</time>
      </trkpt>
      <trkpt lat="40.473088" lon="-8.451448">
        <ele>35.792</ele>
        <time>2015-03-22T12:51:50Z</time>
      </trkpt>
      <trkpt lat="40.473222" lon="-8.451607">
        <ele>35.299</ele>
        <time>2015-03-22T12:51:52Z</time>
      </trkpt>
      <trkpt lat="40.473394" lon="-8.451865">
        <ele>33.855</ele>
        <time>2015-03-22T12:51:55Z</time>
      </trkpt>
      <trkpt lat="40.474267" lon="-8.452804">
        <ele>32.307</ele>
        <time>2015-03-22T12:52:10Z</time>
      </trkpt>
      <trkpt lat="40.474691" lon="-8.453103">
        <ele>31.417</ele>
        <time>2015-03-22T12:52:17Z</time>
      </trkpt>
      <trkpt lat="40.474960" lon="-8.453326">
        <ele>29.907</ele>
        <time>2015-03-22T12:52:22Z</time>
      </trkpt>
      <trkpt lat="40.475155" lon="-8.453624">
        <ele>29.084</ele>
        <time>2015-03-22T12:52:30Z</time>
      </trkpt>
      <trkpt lat="40.475205" lon="-8.453600">
        <ele>29.097</ele>
        <time>2015-03-22T12:52:45Z</time>
      </trkpt>
      <trkpt lat="40.475430" lon="-8.453705">
        <ele>28.099</ele>
        <time>2015-03-22T13:06:23Z</time>
      </trkpt>
      <trkpt lat="40.475750" lon="-8.453758">
        <ele>29.589</ele>
        <time>2015-03-22T13:06:36Z</time>
      </trkpt>
      <trkpt lat="40.476127" lon="-8.453728">
        <ele>28.537</ele>
        <time>2015-03-22T13:06:49Z</time>
      </trkpt>
      <trkpt lat="40.476559" lon="-8.453407">
        <ele>27.562</ele>
        <time>2015-03-22T13:07:05Z</time>
      </trkpt>
      <trkpt lat="40.477028" lon="-8.453112">
        <ele>27.579</ele>
        <time>2015-03-22T13:07:22Z</time>
      </trkpt>
      <trkpt lat="40.477306" lon="-8.453237">
        <ele>27.547</ele>
        <time>2015-03-22T13:07:32Z</time>
      </trkpt>
      <trkpt lat="40.477400" lon="-8.453349">
        <ele>27.529</ele>
        <time>2015-03-22T13:07:36Z</time>
      </trkpt>
      <trkpt lat="40.477858" lon="-8.453381">
        <ele>27.521</ele>
        <time>2015-03-22T13:07:50Z</time>
      </trkpt>
      <trkpt lat="40.478352" lon="-8.453371">
        <ele>27.107</ele>
        <time>2015-03-22T13:08:05Z</time>
      </trkpt>
      <trkpt lat="40.478742" lon="-8.453343">
        <ele>28.093</ele>
        <time>2015-03-22T13:08:17Z</time>
      </trkpt>
      <trkpt lat="40.478837" lon="-8.453329">
        <ele>28.096</ele>
        <time>2015-03-22T13:08:20Z</time>
      </trkpt>
      <trkpt lat="40.479250" lon="-8.453335">
        <ele>29.528</ele>
        <time>2015-03-22T13:08:35Z</time>
      </trkpt>
      <trkpt lat="40.479539" lon="-8.453342">
        <ele>30.488</ele>
        <time>2015-03-22T13:08:45Z</time>
      </trkpt>
      <trkpt lat="40.479962" lon="-8.453329">
        <ele>31.926</ele>
        <time>2015-03-22T13:08:59Z</time>
      </trkpt>
      <trkpt lat="40.480491" lon="-8.453347">
        <ele>34.321</ele>
        <time>2015-03-22T13:09:17Z</time>
      </trkpt>
      <trkpt lat="40.480564" lon="-8.453375">
        <ele>34.798</ele>
        <time>2015-03-22T13:09:28Z</time>
      </trkpt>
      <trkpt lat="40.480659" lon="-8.453389">
        <ele>34.725</ele>
        <time>2015-03-22T13:09:50Z</time>
      </trkpt>
      <trkpt lat="40.481079" lon="-8.453396">
        <ele>35.726</ele>
        <time>2015-03-22T13:10:04Z</time>
      </trkpt>
      <trkpt lat="40.481678" lon="-8.453392">
        <ele>36.708</ele>
        <time>2015-03-22T13:10:21Z</time>
      </trkpt>
      <trkpt lat="40.482306" lon="-8.453430">
        <ele>37.207</ele>
        <time>2015-03-22T13:10:38Z</time>
      </trkpt>
      <trkpt lat="40.483151" lon="-8.453501">
        <ele>37.221</ele>
        <time>2015-03-22T13:10:59Z</time>
      </trkpt>
      <trkpt lat="40.483313" lon="-8.453519">
        <ele>37.254</ele>
        <time>2015-03-22T13:11:03Z</time>
      </trkpt>
      <trkpt lat="40.483972" lon="-8.453604">
        <ele>35.756</ele>
        <time>2015-03-22T13:11:17Z</time>
      </trkpt>
      <trkpt lat="40.484547" lon="-8.453965">
        <ele>35.226</ele>
        <time>2015-03-22T13:11:31Z</time>
      </trkpt>
      <trkpt lat="40.485093" lon="-8.454318">
        <ele>34.374</ele>
        <time>2015-03-22T13:11:45Z</time>
      </trkpt>
      <trkpt lat="40.485784" lon="-8.454745">
        <ele>30.919</ele>
        <time>2015-03-22T13:11:57Z</time>
      </trkpt>
      <trkpt lat="40.486747" lon="-8.455095">
        <ele>29.046</ele>
        <time>2015-03-22T13:12:14Z</time>
      </trkpt>
      <trkpt lat="40.487518" lon="-8.455314">
        <ele>28.594</ele>
        <time>2015-03-22T13:12:32Z</time>
      </trkpt>
      <trkpt lat="40.488296" lon="-8.455543">
        <ele>28.057</ele>
        <time>2015-03-22T13:12:49Z</time>
      </trkpt>
      <trkpt lat="40.489055" lon="-8.455539">
        <ele>27.522</ele>
        <time>2015-03-22T13:13:06Z</time>
      </trkpt>
      <trkpt lat="40.489831" lon="-8.455296">
        <ele>27.507</ele>
        <time>2015-03-22T13:13:23Z</time>
      </trkpt>
      <trkpt lat="40.490674" lon="-8.455013">
        <ele>25.178</ele>
        <time>2015-03-22T13:13:41Z</time>
      </trkpt>
      <trkpt lat="40.491461" lon="-8.454767">
        <ele>25.131</ele>
        <time>2015-03-22T13:13:59Z</time>
      </trkpt>
      <trkpt lat="40.492036" lon="-8.454632">
        <ele>27.523</ele>
        <time>2015-03-22T13:14:14Z</time>
      </trkpt>
      <trkpt lat="40.492528" lon="-8.454554">
        <ele>28.563</ele>
        <time>2015-03-22T13:14:28Z</time>
      </trkpt>
      <trkpt lat="40.493130" lon="-8.454396">
        <ele>29.081</ele>
        <time>2015-03-22T13:14:43Z</time>
      </trkpt>
      <trkpt lat="40.493270" lon="-8.454360">
        <ele>29.096</ele>
        <time>2015-03-22T13:14:46Z</time>
      </trkpt>
      <trkpt lat="40.493545" lon="-8.454291">
        <ele>27.583</ele>
        <time>2015-03-22T13:14:52Z</time>
      </trkpt>
      <trkpt lat="40.493972" lon="-8.454220">
        <ele>26.675</ele>
        <time>2015-03-22T13:15:01Z</time>
      </trkpt>
      <trkpt lat="40.494631" lon="-8.454154">
        <ele>26.628</ele>
        <time>2015-03-22T13:15:17Z</time>
      </trkpt>
      <trkpt lat="40.495117" lon="-8.453850">
        <ele>29.020</ele>
        <time>2015-03-22T13:15:31Z</time>
      </trkpt>
      <trkpt lat="40.495289" lon="-8.453817">
        <ele>29.007</ele>
        <time>2015-03-22T13:15:36Z</time>
      </trkpt>
      <trkpt lat="40.495724" lon="-8.453883">
        <ele>29.576</ele>
        <time>2015-03-22T13:15:46Z</time>
      </trkpt>
      <trkpt lat="40.496675" lon="-8.454030">
        <ele>29.569</ele>
        <time>2015-03-22T13:16:07Z</time>
      </trkpt>
      <trkpt lat="40.497492" lon="-8.454348">
        <ele>28.031</ele>
        <time>2015-03-22T13:16:25Z</time>
      </trkpt>
      <trkpt lat="40.498359" lon="-8.454859">
        <ele>28.011</ele>
        <time>2015-03-22T13:16:45Z</time>
      </trkpt>
      <trkpt lat="40.498813" lon="-8.455195">
        <ele>27.569</ele>
        <time>2015-03-22T13:16:56Z</time>
      </trkpt>
      <trkpt lat="40.498874" lon="-8.455206">
        <ele>27.544</ele>
        <time>2015-03-22T13:17:06Z</time>
      </trkpt>
      <trkpt lat="40.499164" lon="-8.455465">
        <ele>27.111</ele>
        <time>2015-03-22T13:18:08Z</time>
      </trkpt>
      <trkpt lat="40.499736" lon="-8.455832">
        <ele>27.136</ele>
        <time>2015-03-22T13:18:24Z</time>
      </trkpt>
      <trkpt lat="40.500420" lon="-8.455407">
        <ele>27.117</ele>
        <time>2015-03-22T13:18:42Z</time>
      </trkpt>
      <trkpt lat="40.500970" lon="-8.454800">
        <ele>27.118</ele>
        <time>2015-03-22T13:19:00Z</time>
      </trkpt>
      <trkpt lat="40.501592" lon="-8.454257">
        <ele>29.507</ele>
        <time>2015-03-22T13:19:20Z</time>
      </trkpt>
      <trkpt lat="40.501983" lon="-8.453972">
        <ele>31.472</ele>
        <time>2015-03-22T13:19:37Z</time>
      </trkpt>
      <trkpt lat="40.502276" lon="-8.453750">
        <ele>32.855</ele>
        <time>2015-03-22T13:19:54Z</time>
      </trkpt>
      <trkpt lat="40.502541" lon="-8.453540">
        <ele>35.757</ele>
        <time>2015-03-22T13:20:10Z</time>
      </trkpt>
      <trkpt lat="40.502858" lon="-8.453299">
        <ele>39.117</ele>
        <time>2015-03-22T13:20:29Z</time>
      </trkpt>
      <trkpt lat="40.503225" lon="-8.453038">
        <ele>42.045</ele>
        <time>2015-03-22T13:20:50Z</time>
      </trkpt>
      <trkpt lat="40.503703" lon="-8.452857">
        <ele>42.450</ele>
        <time>2015-03-22T13:21:07Z</time>
      </trkpt>
      <trkpt lat="40.504064" lon="-8.452769">
        <ele>41.027</ele>
        <time>2015-03-22T13:21:16Z</time>
      </trkpt>
      <trkpt lat="40.504624" lon="-8.452730">
        <ele>37.654</ele>
        <time>2015-03-22T13:21:26Z</time>
      </trkpt>
      <trkpt lat="40.504760" lon="-8.452735">
        <ele>37.256</ele>
        <time>2015-03-22T13:21:28Z</time>
      </trkpt>
      <trkpt lat="40.505251" lon="-8.452709">
        <ele>34.311</ele>
        <time>2015-03-22T13:21:35Z</time>
      </trkpt>
      <trkpt lat="40.505391" lon="-8.452704">
        <ele>33.807</ele>
        <time>2015-03-22T13:21:37Z</time>
      </trkpt>
      <trkpt lat="40.505911" lon="-8.452766">
        <ele>31.474</ele>
        <time>2015-03-22T13:21:44Z</time>
      </trkpt>
      <trkpt lat="40.506409" lon="-8.452952">
        <ele>27.157</ele>
        <time>2015-03-22T13:21:50Z</time>
      </trkpt>
      <trkpt lat="40.506495" lon="-8.453017">
        <ele>26.659</ele>
        <time>2015-03-22T13:21:51Z</time>
      </trkpt>
      <trkpt lat="40.506891" lon="-8.453340">
        <ele>24.799</ele>
        <time>2015-03-22T13:21:56Z</time>
      </trkpt>
      <trkpt lat="40.507193" lon="-8.453555">
        <ele>23.787</ele>
        <time>2015-03-22T13:22:00Z</time>
      </trkpt>
      <trkpt lat="40.507466" lon="-8.453635">
        <ele>23.712</ele>
        <time>2015-03-22T13:22:04Z</time>
      </trkpt>
      <trkpt lat="40.507857" lon="-8.453599">
        <ele>24.289</ele>
        <time>2015-03-22T13:22:15Z</time>
      </trkpt>
      <trkpt lat="40.508211" lon="-8.453452">
        <ele>27.154</ele>
        <time>2015-03-22T13:22:31Z</time>
      </trkpt>
      <trkpt lat="40.508545" lon="-8.453341">
        <ele>28.056</ele>
        <time>2015-03-22T13:22:46Z</time>
      </trkpt>
      <trkpt lat="40.508931" lon="-8.453152">
        <ele>30.911</ele>
        <time>2015-03-22T13:23:05Z</time>
      </trkpt>
      <trkpt lat="40.509230" lon="-8.452975">
        <ele>33.307</ele>
        <time>2015-03-22T13:23:21Z</time>
      </trkpt>
      <trkpt lat="40.509571" lon="-8.452867">
        <ele>34.784</ele>
        <time>2015-03-22T13:23:39Z</time>
      </trkpt>
      <trkpt lat="40.509813" lon="-8.452903">
        <ele>38.177</ele>
        <time>2015-03-22T13:23:51Z</time>
      </trkpt>
      <trkpt lat="40.510141" lon="-8.453054">
        <ele>38.689</ele>
        <time>2015-03-22T13:24:07Z</time>
      </trkpt>
      <trkpt lat="40.510477" lon="-8.453170">
        <ele>39.629</ele>
        <time>2015-03-22T13:24:20Z</time>
      </trkpt>
      <trkpt lat="40.511017" lon="-8.453214">
        <ele>40.077</ele>
        <time>2015-03-22T13:24:35Z</time>
      </trkpt>
      <trkpt lat="40.511492" lon="-8.453334">
        <ele>40.022</ele>
        <time>2015-03-22T13:24:49Z</time>
      </trkpt>
      <trkpt lat="40.512036" lon="-8.453590">
        <ele>40.079</ele>
        <time>2015-03-22T13:25:06Z</time>
      </trkpt>
      <trkpt lat="40.512509" lon="-8.453637">
        <ele>40.073</ele>
        <time>2015-03-22T13:25:19Z</time>
      </trkpt>
      <trkpt lat="40.513060" lon="-8.453796">
        <ele>41.585</ele>
        <time>2015-03-22T13:25:35Z</time>
      </trkpt>
      <trkpt lat="40.513262" lon="-8.453812">
        <ele>41.513</ele>
        <time>2015-03-22T13:25:47Z</time>
      </trkpt>
      <trkpt lat="40.513420" lon="-8.453925">
        <ele>40.007</ele>
        <time>2015-03-22T13:26:23Z</time>
      </trkpt>
      <trkpt lat="40.513671" lon="-8.454131">
        <ele>39.666</ele>
        <time>2015-03-22T13:26:32Z</time>
      </trkpt>
      <trkpt lat="40.513877" lon="-8.454381">
        <ele>38.679</ele>
        <time>2015-03-22T13:26:38Z</time>
      </trkpt>
      <trkpt lat="40.514195" lon="-8.454553">
        <ele>36.721</ele>
        <time>2015-03-22T13:26:44Z</time>
      </trkpt>
      <trkpt lat="40.514637" lon="-8.454679">
        <ele>32.821</ele>
        <time>2015-03-22T13:26:50Z</time>
      </trkpt>
      <trkpt lat="40.515107" lon="-8.454785">
        <ele>29.569</ele>
        <time>2015-03-22T13:26:55Z</time>
      </trkpt>
      <trkpt lat="40.515391" lon="-8.454845">
        <ele>26.654</ele>
        <time>2015-03-22T13:26:58Z</time>
      </trkpt>
      <trkpt lat="40.515609" lon="-8.454902">
        <ele>24.791</ele>
        <time>2015-03-22T13:27:01Z</time>
      </trkpt>
      <trkpt lat="40.515837" lon="-8.454963">
        <ele>23.788</ele>
        <time>2015-03-22T13:27:08Z</time>
      </trkpt>
      <trkpt lat="40.516538" lon="-8.455156">
        <ele>22.724</ele>
        <time>2015-03-22T13:27:26Z</time>
      </trkpt>
      <trkpt lat="40.517271" lon="-8.455361">
        <ele>21.826</ele>
        <time>2015-03-22T13:27:43Z</time>
      </trkpt>
      <trkpt lat="40.517687" lon="-8.455420">
        <ele>21.807</ele>
        <time>2015-03-22T13:27:55Z</time>
      </trkpt>
      <trkpt lat="40.517738" lon="-8.455369">
        <ele>21.867</ele>
        <time>2015-03-22T13:27:59Z</time>
      </trkpt>
      <trkpt lat="40.517828" lon="-8.455375">
        <ele>23.230</ele>
        <time>2015-03-22T13:28:04Z</time>
      </trkpt>
      <trkpt lat="40.517981" lon="-8.455546">
        <ele>23.282</ele>
        <time>2015-03-22T13:28:10Z</time>
      </trkpt>
      <trkpt lat="40.518567" lon="-8.455745">
        <ele>23.242</ele>
        <time>2015-03-22T13:28:26Z</time>
      </trkpt>
      <trkpt lat="40.518940" lon="-8.456244">
        <ele>24.780</ele>
        <time>2015-03-22T13:28:41Z</time>
      </trkpt>
      <trkpt lat="40.519343" lon="-8.456833">
        <ele>25.615</ele>
        <time>2015-03-22T13:28:58Z</time>
      </trkpt>
      <trkpt lat="40.519720" lon="-8.457025">
        <ele>27.112</ele>
        <time>2015-03-22T13:29:11Z</time>
      </trkpt>
      <trkpt lat="40.520143" lon="-8.457044">
        <ele>28.544</ele>
        <time>2015-03-22T13:29:27Z</time>
      </trkpt>
      <trkpt lat="40.520535" lon="-8.456945">
        <ele>29.505</ele>
        <time>2015-03-22T13:29:45Z</time>
      </trkpt>
      <trkpt lat="40.520757" lon="-8.456787">
        <ele>31.915</ele>
        <time>2015-03-22T13:30:00Z</time>
      </trkpt>
      <trkpt lat="40.521027" lon="-8.456653">
        <ele>34.707</ele>
        <time>2015-03-22T13:30:18Z</time>
      </trkpt>
      <trkpt lat="40.521269" lon="-8.456579">
        <ele>37.233</ele>
        <time>2015-03-22T13:30:34Z</time>
      </trkpt>
      <trkpt lat="40.521585" lon="-8.456541">
        <ele>39.116</ele>
        <time>2015-03-22T13:30:51Z</time>
      </trkpt>
      <trkpt lat="40.521896" lon="-8.456554">
        <ele>40.088</ele>
        <time>2015-03-22T13:31:06Z</time>
      </trkpt>
      <trkpt lat="40.522215" lon="-8.456575">
        <ele>40.588</ele>
        <time>2015-03-22T13:31:20Z</time>
      </trkpt>
      <trkpt lat="40.522636" lon="-8.456634">
        <ele>41.096</ele>
        <time>2015-03-22T13:31:34Z</time>
      </trkpt>
      <trkpt lat="40.523104" lon="-8.456678">
        <ele>41.531</ele>
        <time>2015-03-22T13:31:48Z</time>
      </trkpt>
      <trkpt lat="40.523687" lon="-8.456774">
        <ele>41.578</ele>
        <time>2015-03-22T13:32:05Z</time>
      </trkpt>
      <trkpt lat="40.524285" lon="-8.456924">
        <ele>42.067</ele>
        <time>2015-03-22T13:32:22Z</time>
      </trkpt>
      <trkpt lat="40.524949" lon="-8.456848">
        <ele>43.481</ele>
        <time>2015-03-22T13:32:41Z</time>
      </trkpt>
      <trkpt lat="40.525577" lon="-8.456709">
        <ele>45.319</ele>
        <time>2015-03-22T13:32:59Z</time>
      </trkpt>
      <trkpt lat="40.526121" lon="-8.456512">
        <ele>48.207</ele>
        <time>2015-03-22T13:33:15Z</time>
      </trkpt>
      <trkpt lat="40.526571" lon="-8.456419">
        <ele>49.795</ele>
        <time>2015-03-22T13:33:28Z</time>
      </trkpt>
      <trkpt lat="40.527086" lon="-8.456406">
        <ele>48.288</ele>
        <time>2015-03-22T13:33:42Z</time>
      </trkpt>
      <trkpt lat="40.527515" lon="-8.456427">
        <ele>47.790</ele>
        <time>2015-03-22T13:33:55Z</time>
      </trkpt>
      <trkpt lat="40.528023" lon="-8.456423">
        <ele>49.240</ele>
        <time>2015-03-22T13:34:08Z</time>
      </trkpt>
      <trkpt lat="40.528130" lon="-8.456420">
        <ele>47.718</ele>
        <time>2015-03-22T13:34:10Z</time>
      </trkpt>
      <trkpt lat="40.528921" lon="-8.456357">
        <ele>44.813</ele>
        <time>2015-03-22T13:34:22Z</time>
      </trkpt>
      <trkpt lat="40.529091" lon="-8.456090">
        <ele>44.450</ele>
        <time>2015-03-22T13:34:28Z</time>
      </trkpt>
      <trkpt lat="40.529074" lon="-8.456021">
        <ele>43.987</ele>
        <time>2015-03-22T13:34:37Z</time>
      </trkpt>
      <trkpt lat="40.529099" lon="-8.455863">
        <ele>43.942</ele>
        <time>2015-03-22T13:34:59Z</time>
      </trkpt>
      <trkpt lat="40.529175" lon="-8.455240">
        <ele>43.926</ele>
        <time>2015-03-22T13:35:14Z</time>
      </trkpt>
      <trkpt lat="40.529250" lon="-8.454605">
        <ele>44.807</ele>
        <time>2015-03-22T13:35:28Z</time>
      </trkpt>
      <trkpt lat="40.529315" lon="-8.454201">
        <ele>46.847</ele>
        <time>2015-03-22T13:35:41Z</time>
      </trkpt>
      <trkpt lat="40.529404" lon="-8.453640">
        <ele>49.290</ele>
        <time>2015-03-22T13:36:00Z</time>
      </trkpt>
      <trkpt lat="40.529473" lon="-8.453063">
        <ele>51.122</ele>
        <time>2015-03-22T13:36:19Z</time>
      </trkpt>
      <trkpt lat="40.529536" lon="-8.452492">
        <ele>53.092</ele>
        <time>2015-03-22T13:36:38Z</time>
      </trkpt>
      <trkpt lat="40.529603" lon="-8.451949">
        <ele>54.570</ele>
        <time>2015-03-22T13:36:56Z</time>
      </trkpt>
      <trkpt lat="40.529800" lon="-8.451664">
        <ele>56.465</ele>
        <time>2015-03-22T13:37:10Z</time>
      </trkpt>
      <trkpt lat="40.530220" lon="-8.451980">
        <ele>56.972</ele>
        <time>2015-03-22T13:37:26Z</time>
      </trkpt>
      <trkpt lat="40.530737" lon="-8.452196">
        <ele>57.361</ele>
        <time>2015-03-22T13:37:42Z</time>
      </trkpt>
      <trkpt lat="40.531294" lon="-8.452420">
        <ele>58.321</ele>
        <time>2015-03-22T13:37:59Z</time>
      </trkpt>
      <trkpt lat="40.531967" lon="-8.452724">
        <ele>59.713</ele>
        <time>2015-03-22T13:38:19Z</time>
      </trkpt>
      <trkpt lat="40.532529" lon="-8.453084">
        <ele>61.707</ele>
        <time>2015-03-22T13:38:37Z</time>
      </trkpt>
      <trkpt lat="40.532958" lon="-8.453469">
        <ele>60.225</ele>
        <time>2015-03-22T13:38:53Z</time>
      </trkpt>
      <trkpt lat="40.533382" lon="-8.453925">
        <ele>61.728</ele>
        <time>2015-03-22T13:39:08Z</time>
      </trkpt>
      <trkpt lat="40.533972" lon="-8.454523">
        <ele>62.190</ele>
        <time>2015-03-22T13:39:28Z</time>
      </trkpt>
      <trkpt lat="40.534466" lon="-8.454962">
        <ele>63.660</ele>
        <time>2015-03-22T13:39:44Z</time>
      </trkpt>
      <trkpt lat="40.535039" lon="-8.455282">
        <ele>64.138</ele>
        <time>2015-03-22T13:40:00Z</time>
      </trkpt>
      <trkpt lat="40.535310" lon="-8.455333">
        <ele>62.653</ele>
        <time>2015-03-22T13:40:07Z</time>
      </trkpt>
      <trkpt lat="40.535947" lon="-8.455292">
        <ele>61.750</ele>
        <time>2015-03-22T13:40:24Z</time>
      </trkpt>
      <trkpt lat="40.536653" lon="-8.455209">
        <ele>62.659</ele>
        <time>2015-03-22T13:40:41Z</time>
      </trkpt>
      <trkpt lat="40.536779" lon="-8.455237">
        <ele>62.603</ele>
        <time>2015-03-22T13:40:44Z</time>
      </trkpt>
      <trkpt lat="40.537324" lon="-8.455249">
        <ele>61.223</ele>
        <time>2015-03-22T13:40:57Z</time>
      </trkpt>
      <trkpt lat="40.538123" lon="-8.455248">
        <ele>63.107</ele>
        <time>2015-03-22T13:41:17Z</time>
      </trkpt>
      <trkpt lat="40.538405" lon="-8.455218">
        <ele>61.774</ele>
        <time>2015-03-22T13:41:24Z</time>
      </trkpt>
      <trkpt lat="40.538488" lon="-8.455201">
        <ele>63.147</ele>
        <time>2015-03-22T13:41:26Z</time>
      </trkpt>
      <trkpt lat="40.538989" lon="-8.455072">
        <ele>63.169</ele>
        <time>2015-03-22T13:41:40Z</time>
      </trkpt>
      <trkpt lat="40.539737" lon="-8.454878">
        <ele>64.669</ele>
        <time>2015-03-22T13:42:01Z</time>
      </trkpt>
      <trkpt lat="40.540374" lon="-8.454704">
        <ele>65.527</ele>
        <time>2015-03-22T13:42:19Z</time>
      </trkpt>
      <trkpt lat="40.540959" lon="-8.454556">
        <ele>66.582</ele>
        <time>2015-03-22T13:42:36Z</time>
      </trkpt>
      <trkpt lat="40.541402" lon="-8.454441">
        <ele>66.559</ele>
        <time>2015-03-22T13:42:51Z</time>
      </trkpt>
      <trkpt lat="40.542121" lon="-8.454239">
        <ele>68.994</ele>
        <time>2015-03-22T13:43:12Z</time>
      </trkpt>
      <trkpt lat="40.542755" lon="-8.454079">
        <ele>71.357</ele>
        <time>2015-03-22T13:43:30Z</time>
      </trkpt>
      <trkpt lat="40.543414" lon="-8.453914">
        <ele>74.222</ele>
        <time>2015-03-22T13:43:49Z</time>
      </trkpt>
      <trkpt lat="40.544091" lon="-8.453733">
        <ele>73.207</ele>
        <time>2015-03-22T13:44:06Z</time>
      </trkpt>
      <trkpt lat="40.544137" lon="-8.453722">
        <ele>73.238</ele>
        <time>2015-03-22T13:44:07Z</time>
      </trkpt>
      <trkpt lat="40.545016" lon="-8.453573">
        <ele>69.461</ele>
        <time>2015-03-22T13:44:25Z</time>
      </trkpt>
      <trkpt lat="40.545464" lon="-8.453603">
        <ele>66.023</ele>
        <time>2015-03-22T13:44:34Z</time>
      </trkpt>
      <trkpt lat="40.545511" lon="-8.453612">
        <ele>66.043</ele>
        <time>2015-03-22T13:44:35Z</time>
      </trkpt>
      <trkpt lat="40.545862" lon="-8.453757">
        <ele>66.031</ele>
        <time>2015-03-22T13:44:42Z</time>
      </trkpt>
      <trkpt lat="40.546038" lon="-8.453579">
        <ele>64.636</ele>
        <time>2015-03-22T13:44:47Z</time>
      </trkpt>
      <trkpt lat="40.546078" lon="-8.453321">
        <ele>65.053</ele>
        <time>2015-03-22T13:44:51Z</time>
      </trkpt>
      <trkpt lat="40.546374" lon="-8.453077">
        <ele>65.016</ele>
        <time>2015-03-22T13:45:01Z</time>
      </trkpt>
      <trkpt lat="40.547072" lon="-8.452845">
        <ele>66.076</ele>
        <time>2015-03-22T13:45:21Z</time>
      </trkpt>
      <trkpt lat="40.547737" lon="-8.452657">
        <ele>67.013</ele>
        <time>2015-03-22T13:45:39Z</time>
      </trkpt>
      <trkpt lat="40.548448" lon="-8.452445">
        <ele>68.907</ele>
        <time>2015-03-22T13:45:58Z</time>
      </trkpt>
      <trkpt lat="40.549121" lon="-8.452255">
        <ele>67.090</ele>
        <time>2015-03-22T13:46:14Z</time>
      </trkpt>
      <trkpt lat="40.550033" lon="-8.451963">
        <ele>63.183</ele>
        <time>2015-03-22T13:46:28Z</time>
      </trkpt>
      <trkpt lat="40.550680" lon="-8.451689">
        <ele>62.165</ele>
        <time>2015-03-22T13:46:39Z</time>
      </trkpt>
      <trkpt lat="40.551144" lon="-8.451134">
        <ele>62.175</ele>
        <time>2015-03-22T13:46:54Z</time>
      </trkpt>
      <trkpt lat="40.551561" lon="-8.450548">
        <ele>64.143</ele>
        <time>2015-03-22T13:47:11Z</time>
      </trkpt>
      <trkpt lat="40.552032" lon="-8.449870">
        <ele>66.098</ele>
        <time>2015-03-22T13:47:31Z</time>
      </trkpt>
      <trkpt lat="40.552534" lon="-8.449194">
        <ele>67.965</ele>
        <time>2015-03-22T13:47:51Z</time>
      </trkpt>
      <trkpt lat="40.553096" lon="-8.448867">
        <ele>69.811</ele>
        <time>2015-03-22T13:48:08Z</time>
      </trkpt>
      <trkpt lat="40.553719" lon="-8.448942">
        <ele>70.821</ele>
        <time>2015-03-22T13:48:24Z</time>
      </trkpt>
      <trkpt lat="40.554245" lon="-8.449027">
        <ele>70.803</ele>
        <time>2015-03-22T13:48:37Z</time>
      </trkpt>
      <trkpt lat="40.554326" lon="-8.449046">
        <ele>69.407</ele>
        <time>2015-03-22T13:48:39Z</time>
      </trkpt>
      <trkpt lat="40.554949" lon="-8.449146">
        <ele>69.480</ele>
        <time>2015-03-22T13:48:55Z</time>
      </trkpt>
      <trkpt lat="40.555737" lon="-8.449249">
        <ele>68.483</ele>
        <time>2015-03-22T13:49:13Z</time>
      </trkpt>
      <trkpt lat="40.555958" lon="-8.449211">
        <ele>68.435</ele>
        <time>2015-03-22T13:49:18Z</time>
      </trkpt>
      <trkpt lat="40.556272" lon="-8.449000">
        <ele>67.485</ele>
        <time>2015-03-22T13:49:26Z</time>
      </trkpt>
      <trkpt lat="40.556826" lon="-8.448196">
        <ele>67.423</ele>
        <time>2015-03-22T13:49:45Z</time>
      </trkpt>
      <trkpt lat="40.557286" lon="-8.447622">
        <ele>68.968</ele>
        <time>2015-03-22T13:50:00Z</time>
      </trkpt>
      <trkpt lat="40.557407" lon="-8.447565">
        <ele>69.875</ele>
        <time>2015-03-22T13:50:03Z</time>
      </trkpt>
      <trkpt lat="40.557567" lon="-8.447511">
        <ele>70.391</ele>
        <time>2015-03-22T13:50:07Z</time>
      </trkpt>
      <trkpt lat="40.558385" lon="-8.447141">
        <ele>73.281</ele>
        <time>2015-03-22T13:50:28Z</time>
      </trkpt>
      <trkpt lat="40.558530" lon="-8.447044">
        <ele>73.219</ele>
        <time>2015-03-22T13:50:32Z</time>
      </trkpt>
      <trkpt lat="40.559015" lon="-8.446690">
        <ele>72.207</ele>
        <time>2015-03-22T13:50:45Z</time>
      </trkpt>
      <trkpt lat="40.559168" lon="-8.446585">
        <ele>72.268</ele>
        <time>2015-03-22T13:50:49Z</time>
      </trkpt>
      <trkpt lat="40.559359" lon="-8.446458">
        <ele>71.341</ele>
        <time>2015-03-22T13:50:54Z</time>
      </trkpt>
      <trkpt lat="40.559939" lon="-8.446108">
        <ele>67.933</ele>
        <time>2015-03-22T13:51:07Z</time>
      </trkpt>
      <trkpt lat="40.560265" lon="-8.446019">
        <ele>63.623</ele>
        <time>2015-03-22T13:51:11Z</time>
      </trkpt>
      <trkpt lat="40.560570" lon="-8.445971">
        <ele>59.341</ele>
        <time>2015-03-22T13:51:14Z</time>
      </trkpt>
      <trkpt lat="40.560781" lon="-8.445940">
        <ele>54.986</ele>
        <time>2015-03-22T13:51:16Z</time>
      </trkpt>
      <trkpt lat="40.561026" lon="-8.445919">
        <ele>51.183</ele>
        <time>2015-03-22T13:51:18Z</time>
      </trkpt>
      <trkpt lat="40.561273" lon="-8.445883">
        <ele>46.824</ele>
        <time>2015-03-22T13:51:20Z</time>
      </trkpt>
      <trkpt lat="40.561526" lon="-8.445836">
        <ele>43.404</ele>
        <time>2015-03-22T13:51:22Z</time>
      </trkpt>
      <trkpt lat="40.561911" lon="-8.445756">
        <ele>39.114</ele>
        <time>2015-03-22T13:51:25Z</time>
      </trkpt>
      <trkpt lat="40.562295" lon="-8.445745">
        <ele>34.307</ele>
        <time>2015-03-22T13:51:28Z</time>
      </trkpt>
      <trkpt lat="40.562666" lon="-8.445764">
        <ele>30.991</ele>
        <time>2015-03-22T13:51:31Z</time>
      </trkpt>
      <trkpt lat="40.562777" lon="-8.445770">
        <ele>30.944</ele>
        <time>2015-03-22T13:51:32Z</time>
      </trkpt>
      <trkpt lat="40.563182" lon="-8.445786">
        <ele>27.116</ele>
        <time>2015-03-22T13:51:37Z</time>
      </trkpt>
      <trkpt lat="40.563362" lon="-8.445710">
        <ele>26.616</ele>
        <time>2015-03-22T13:51:45Z</time>
      </trkpt>
      <trkpt lat="40.563609" lon="-8.445568">
        <ele>26.184</ele>
        <time>2015-03-22T13:51:52Z</time>
      </trkpt>
      <trkpt lat="40.563851" lon="-8.445699">
        <ele>26.139</ele>
        <time>2015-03-22T13:51:58Z</time>
      </trkpt>
      <trkpt lat="40.564224" lon="-8.446082">
        <ele>22.796</ele>
        <time>2015-03-22T13:52:08Z</time>
      </trkpt>
      <trkpt lat="40.564547" lon="-8.446277">
        <ele>22.374</ele>
        <time>2015-03-22T13:52:15Z</time>
      </trkpt>
      <trkpt lat="40.565122" lon="-8.446411">
        <ele>22.356</ele>
        <time>2015-03-22T13:52:27Z</time>
      </trkpt>
      <trkpt lat="40.565206" lon="-8.446457">
        <ele>20.321</ele>
        <time>2015-03-22T13:52:29Z</time>
      </trkpt>
      <trkpt lat="40.565295" lon="-8.446521">
        <ele>20.307</ele>
        <time>2015-03-22T13:52:31Z</time>
      </trkpt>
      <trkpt lat="40.565860" lon="-8.446763">
        <ele>19.856</ele>
        <time>2015-03-22T13:52:44Z</time>
      </trkpt>
      <trkpt lat="40.565960" lon="-8.446770">
        <ele>19.859</ele>
        <time>2015-03-22T13:52:47Z</time>
      </trkpt>
      <trkpt lat="40.566041" lon="-8.446855">
        <ele>19.841</ele>
        <time>2015-03-22T13:53:23Z</time>
      </trkpt>
      <trkpt lat="40.566131" lon="-8.446888">
        <ele>20.391</ele>
        <time>2015-03-22T13:53:35Z</time>
      </trkpt>
      <trkpt lat="40.566190" lon="-8.446943">
        <ele>18.919</ele>
        <time>2015-03-22T13:53:39Z</time>
      </trkpt>
      <trkpt lat="40.566603" lon="-8.447104">
        <ele>18.914</ele>
        <time>2015-03-22T13:53:52Z</time>
      </trkpt>
      <trkpt lat="40.567011" lon="-8.447174">
        <ele>18.981</ele>
        <time>2015-03-22T13:54:04Z</time>
      </trkpt>
      <trkpt lat="40.567222" lon="-8.447132">
        <ele>20.369</ele>
        <time>2015-03-22T13:54:10Z</time>
      </trkpt>
      <trkpt lat="40.567740" lon="-8.447261">
        <ele>20.304</ele>
        <time>2015-03-22T13:54:25Z</time>
      </trkpt>
      <trkpt lat="40.568152" lon="-8.447399">
        <ele>20.324</ele>
        <time>2015-03-22T13:54:37Z</time>
      </trkpt>
      <trkpt lat="40.568812" lon="-8.447532">
        <ele>19.807</ele>
        <time>2015-03-22T13:54:54Z</time>
      </trkpt>
      <trkpt lat="40.568907" lon="-8.447533">
        <ele>18.985</ele>
        <time>2015-03-22T13:54:57Z</time>
      </trkpt>
      <trkpt lat="40.569255" lon="-8.447603">
        <ele>18.968</ele>
        <time>2015-03-22T13:55:07Z</time>
      </trkpt>
      <trkpt lat="40.569851" lon="-8.447719">
        <ele>20.310</ele>
        <time>2015-03-22T13:55:23Z</time>
      </trkpt>
      <trkpt lat="40.570115" lon="-8.447778">
        <ele>21.850</ele>
        <time>2015-03-22T13:55:30Z</time>
      </trkpt>
      <trkpt lat="40.570352" lon="-8.447880">
        <ele>21.818</ele>
        <time>2015-03-22T13:55:36Z</time>
      </trkpt>
      <trkpt lat="40.570725" lon="-8.448226">
        <ele>19.823</ele>
        <time>2015-03-22T13:55:50Z</time>
      </trkpt>
      <trkpt lat="40.570900" lon="-8.448386">
        <ele>23.230</ele>
        <time>2015-03-22T13:56:00Z</time>
      </trkpt>
      <trkpt lat="40.571232" lon="-8.448224">
        <ele>25.168</ele>
        <time>2015-03-22T13:56:14Z</time>
      </trkpt>
      <trkpt lat="40.571748" lon="-8.447943">
        <ele>23.242</ele>
        <time>2015-03-22T13:56:33Z</time>
      </trkpt>
      <trkpt lat="40.571886" lon="-8.447726">
        <ele>29.526</ele>
        <time>2015-03-22T14:34:05Z</time>
      </trkpt>
      <trkpt lat="40.572041" lon="-8.447752">
        <ele>29.507</ele>
        <time>2015-03-22T14:34:16Z</time>
      </trkpt>
      <trkpt lat="40.572079" lon="-8.447898">
        <ele>29.555</ele>
        <time>2015-03-22T14:34:22Z</time>
      </trkpt>
      <trkpt lat="40.572013" lon="-8.448193">
        <ele>29.518</ele>
        <time>2015-03-22T14:34:32Z</time>
      </trkpt>
      <trkpt lat="40.572021" lon="-8.448318">
        <ele>27.130</ele>
        <time>2015-03-22T14:41:30Z</time>
      </trkpt>
      <trkpt lat="40.572077" lon="-8.448815">
        <ele>26.630</ele>
        <time>2015-03-22T14:41:44Z</time>
      </trkpt>
      <trkpt lat="40.572123" lon="-8.449192">
        <ele>26.698</ele>
        <time>2015-03-22T14:41:55Z</time>
      </trkpt>
      <trkpt lat="40.572180" lon="-8.449322">
        <ele>26.623</ele>
        <time>2015-03-22T14:42:00Z</time>
      </trkpt>
      <trkpt lat="40.572264" lon="-8.449964">
        <ele>26.690</ele>
        <time>2015-03-22T14:42:18Z</time>
      </trkpt>
      <trkpt lat="40.572345" lon="-8.450550">
        <ele>26.169</ele>
        <time>2015-03-22T14:42:34Z</time>
      </trkpt>
      <trkpt lat="40.572405" lon="-8.451259">
        <ele>26.104</ele>
        <time>2015-03-22T14:42:52Z</time>
      </trkpt>
      <trkpt lat="40.572555" lon="-8.451821">
        <ele>26.124</ele>
        <time>2015-03-22T14:43:07Z</time>
      </trkpt>
      <trkpt lat="40.572766" lon="-8.452518">
        <ele>25.107</ele>
        <time>2015-03-22T14:43:24Z</time>
      </trkpt>
      <trkpt lat="40.572998" lon="-8.453234">
        <ele>25.175</ele>
        <time>2015-03-22T14:43:42Z</time>
      </trkpt>
      <trkpt lat="40.573117" lon="-8.453569">
        <ele>26.188</ele>
        <time>2015-03-22T14:43:51Z</time>
      </trkpt>
      <trkpt lat="40.573366" lon="-8.453647">
        <ele>26.150</ele>
        <time>2015-03-22T14:44:00Z</time>
      </trkpt>
      <trkpt lat="40.573502" lon="-8.453748">
        <ele>27.520</ele>
        <time>2015-03-22T14:44:12Z</time>
      </trkpt>
      <trkpt lat="40.573694" lon="-8.453788">
        <ele>29.578</ele>
        <time>2015-03-22T14:44:25Z</time>
      </trkpt>
      <trkpt lat="40.573801" lon="-8.453821">
        <ele>30.923</ele>
        <time>2015-03-22T14:44:33Z</time>
      </trkpt>
      <trkpt lat="40.573991" lon="-8.453626">
        <ele>32.360</ele>
        <time>2015-03-22T14:44:49Z</time>
      </trkpt>
      <trkpt lat="40.574186" lon="-8.453329">
        <ele>30.918</ele>
        <time>2015-03-22T14:44:59Z</time>
      </trkpt>
      <trkpt lat="40.574476" lon="-8.453137">
        <ele>30.498</ele>
        <time>2015-03-22T14:45:06Z</time>
      </trkpt>
      <trkpt lat="40.574822" lon="-8.452966">
        <ele>32.317</ele>
        <time>2015-03-22T14:45:21Z</time>
      </trkpt>
      <trkpt lat="40.575091" lon="-8.452671">
        <ele>32.807</ele>
        <time>2015-03-22T14:45:37Z</time>
      </trkpt>
      <trkpt lat="40.575473" lon="-8.452670">
        <ele>33.880</ele>
        <time>2015-03-22T14:45:54Z</time>
      </trkpt>
      <trkpt lat="40.575783" lon="-8.452734">
        <ele>35.233</ele>
        <time>2015-03-22T14:46:11Z</time>
      </trkpt>
      <trkpt lat="40.576051" lon="-8.452801">
        <ele>37.685</ele>
        <time>2015-03-22T14:46:28Z</time>
      </trkpt>
      <trkpt lat="40.576295" lon="-8.452861">
        <ele>39.145</ele>
        <time>2015-03-22T14:46:45Z</time>
      </trkpt>
      <trkpt lat="40.576497" lon="-8.452889">
        <ele>40.563</ele>
        <time>2015-03-22T14:47:00Z</time>
      </trkpt>
      <trkpt lat="40.576679" lon="-8.452930">
        <ele>43.458</ele>
        <time>2015-03-22T14:47:13Z</time>
      </trkpt>
      <trkpt lat="40.576900" lon="-8.452924">
        <ele>45.315</ele>
        <time>2015-03-22T14:47:28Z</time>
      </trkpt>
      <trkpt lat="40.576960" lon="-8.452914">
        <ele>46.341</ele>
        <time>2015-03-22T14:47:33Z</time>
      </trkpt>
      <trkpt lat="40.577035" lon="-8.452984">
        <ele>47.281</ele>
        <time>2015-03-22T14:47:47Z</time>
      </trkpt>
      <trkpt lat="40.577090" lon="-8.452966">
        <ele>47.209</ele>
        <time>2015-03-22T14:48:01Z</time>
      </trkpt>
      <trkpt lat="40.577162" lon="-8.452921">
        <ele>47.207</ele>
        <time>2015-03-22T14:48:13Z</time>
      </trkpt>
      <trkpt lat="40.577235" lon="-8.452896">
        <ele>47.263</ele>
        <time>2015-03-22T14:48:39Z</time>
      </trkpt>
      <trkpt lat="40.577500" lon="-8.453027">
        <ele>42.466</ele>
        <time>2015-03-22T14:48:44Z</time>
      </trkpt>
      <trkpt lat="40.577573" lon="-8.453070">
        <ele>41.528</ele>
        <time>2015-03-22T14:48:45Z</time>
      </trkpt>
      <trkpt lat="40.577865" lon="-8.453358">
        <ele>37.678</ele>
        <time>2015-03-22T14:48:49Z</time>
      </trkpt>
      <trkpt lat="40.578326" lon="-8.453700">
        <ele>34.326</ele>
        <time>2015-03-22T14:48:54Z</time>
      </trkpt>
      <trkpt lat="40.578613" lon="-8.453820">
        <ele>34.391</ele>
        <time>2015-03-22T14:48:57Z</time>
      </trkpt>
      <trkpt lat="40.578891" lon="-8.454031">
        <ele>35.758</ele>
        <time>2015-03-22T14:49:01Z</time>
      </trkpt>
      <trkpt lat="40.578935" lon="-8.454086">
        <ele>36.213</ele>
        <time>2015-03-22T14:49:02Z</time>
      </trkpt>
      <trkpt lat="40.579111" lon="-8.454386">
        <ele>38.643</ele>
        <time>2015-03-22T14:49:13Z</time>
      </trkpt>
      <trkpt lat="40.579249" lon="-8.454733">
        <ele>41.007</ele>
        <time>2015-03-22T14:49:34Z</time>
      </trkpt>
      <trkpt lat="40.579371" lon="-8.455082">
        <ele>43.407</ele>
        <time>2015-03-22T14:49:55Z</time>
      </trkpt>
      <trkpt lat="40.579518" lon="-8.455301">
        <ele>46.320</ele>
        <time>2015-03-22T14:50:11Z</time>
      </trkpt>
      <trkpt lat="40.579696" lon="-8.455516">
        <ele>48.783</ele>
        <time>2015-03-22T14:50:29Z</time>
      </trkpt>
      <trkpt lat="40.579926" lon="-8.455655">
        <ele>51.145</ele>
        <time>2015-03-22T14:50:47Z</time>
      </trkpt>
      <trkpt lat="40.580092" lon="-8.455780">
        <ele>53.095</ele>
        <time>2015-03-22T14:51:01Z</time>
      </trkpt>
      <trkpt lat="40.580211" lon="-8.455772">
        <ele>56.463</ele>
        <time>2015-03-22T14:51:12Z</time>
      </trkpt>
      <trkpt lat="40.580289" lon="-8.455732">
        <ele>58.378</ele>
        <time>2015-03-22T14:51:20Z</time>
      </trkpt>
      <trkpt lat="40.580412" lon="-8.455536">
        <ele>61.265</ele>
        <time>2015-03-22T14:51:37Z</time>
      </trkpt>
      <trkpt lat="40.580401" lon="-8.455419">
        <ele>62.698</ele>
        <time>2015-03-22T14:51:45Z</time>
      </trkpt>
      <trkpt lat="40.580445" lon="-8.455353">
        <ele>64.115</ele>
        <time>2015-03-22T14:51:51Z</time>
      </trkpt>
      <trkpt lat="40.580432" lon="-8.455130">
        <ele>66.526</ele>
        <time>2015-03-22T14:52:07Z</time>
      </trkpt>
      <trkpt lat="40.580484" lon="-8.454954">
        <ele>69.807</ele>
        <time>2015-03-22T14:52:20Z</time>
      </trkpt>
      <trkpt lat="40.580541" lon="-8.454856">
        <ele>70.848</ele>
        <time>2015-03-22T14:52:29Z</time>
      </trkpt>
      <trkpt lat="40.580586" lon="-8.454814">
        <ele>71.811</ele>
        <time>2015-03-22T14:52:34Z</time>
      </trkpt>
      <trkpt lat="40.580752" lon="-8.454739">
        <ele>74.643</ele>
        <time>2015-03-22T14:52:49Z</time>
      </trkpt>
      <trkpt lat="40.580950" lon="-8.454734">
        <ele>77.563</ele>
        <time>2015-03-22T14:53:06Z</time>
      </trkpt>
      <trkpt lat="40.581159" lon="-8.454843">
        <ele>79.921</ele>
        <time>2015-03-22T14:53:24Z</time>
      </trkpt>
      <trkpt lat="40.581349" lon="-8.455078">
        <ele>82.866</ele>
        <time>2015-03-22T14:53:43Z</time>
      </trkpt>
      <trkpt lat="40.581626" lon="-8.455334">
        <ele>84.313</ele>
        <time>2015-03-22T14:54:04Z</time>
      </trkpt>
      <trkpt lat="40.581893" lon="-8.455611">
        <ele>85.758</ele>
        <time>2015-03-22T14:54:20Z</time>
      </trkpt>
      <trkpt lat="40.582138" lon="-8.455847">
        <ele>85.752</ele>
        <time>2015-03-22T14:54:34Z</time>
      </trkpt>
      <trkpt lat="40.582529" lon="-8.456166">
        <ele>86.217</ele>
        <time>2015-03-22T14:54:52Z</time>
      </trkpt>
      <trkpt lat="40.582977" lon="-8.456479">
        <ele>87.107</ele>
        <time>2015-03-22T14:55:10Z</time>
      </trkpt>
      <trkpt lat="40.583472" lon="-8.456867">
        <ele>87.194</ele>
        <time>2015-03-22T14:55:26Z</time>
      </trkpt>
      <trkpt lat="40.583981" lon="-8.457241">
        <ele>87.117</ele>
        <time>2015-03-22T14:55:43Z</time>
      </trkpt>
      <trkpt lat="40.584514" lon="-8.457626">
        <ele>87.639</ele>
        <time>2015-03-22T14:55:59Z</time>
      </trkpt>
      <trkpt lat="40.585069" lon="-8.457937">
        <ele>87.659</ele>
        <time>2015-03-22T14:56:15Z</time>
      </trkpt>
      <trkpt lat="40.585674" lon="-8.458110">
        <ele>87.657</ele>
        <time>2015-03-22T14:56:32Z</time>
      </trkpt>
      <trkpt lat="40.586241" lon="-8.458268">
        <ele>87.672</ele>
        <time>2015-03-22T14:56:48Z</time>
      </trkpt>
      <trkpt lat="40.586971" lon="-8.458456">
        <ele>88.649</ele>
        <time>2015-03-22T14:57:08Z</time>
      </trkpt>
      <trkpt lat="40.587559" lon="-8.458617">
        <ele>89.129</ele>
        <time>2015-03-22T14:57:25Z</time>
      </trkpt>
      <trkpt lat="40.588077" lon="-8.458777">
        <ele>90.000</ele>
        <time>2015-03-22T14:57:42Z</time>
      </trkpt>
      <trkpt lat="40.588561" lon="-8.458897">
        <ele>91.020</ele>
        <time>2015-03-22T14:57:57Z</time>
      </trkpt>
      <trkpt lat="40.589061" lon="-8.459032">
        <ele>91.507</ele>
        <time>2015-03-22T14:58:12Z</time>
      </trkpt>
      <trkpt lat="40.589555" lon="-8.459184">
        <ele>92.451</ele>
        <time>2015-03-22T14:58:27Z</time>
      </trkpt>
      <trkpt lat="40.589930" lon="-8.459502">
        <ele>92.444</ele>
        <time>2015-03-22T14:58:41Z</time>
      </trkpt>
      <trkpt lat="40.590440" lon="-8.460023">
        <ele>92.456</ele>
        <time>2015-03-22T14:58:59Z</time>
      </trkpt>
      <trkpt lat="40.590931" lon="-8.460587">
        <ele>92.986</ele>
        <time>2015-03-22T14:59:16Z</time>
      </trkpt>
      <trkpt lat="40.591583" lon="-8.461211">
        <ele>93.474</ele>
        <time>2015-03-22T14:59:36Z</time>
      </trkpt>
      <trkpt lat="40.592204" lon="-8.461290">
        <ele>93.429</ele>
        <time>2015-03-22T14:59:52Z</time>
      </trkpt>
      <trkpt lat="40.593036" lon="-8.461225">
        <ele>94.846</ele>
        <time>2015-03-22T15:00:12Z</time>
      </trkpt>
      <trkpt lat="40.593768" lon="-8.461168">
        <ele>95.371</ele>
        <time>2015-03-22T15:00:30Z</time>
      </trkpt>
      <trkpt lat="40.594144" lon="-8.461148">
        <ele>95.841</ele>
        <time>2015-03-22T15:00:45Z</time>
      </trkpt>
      <trkpt lat="40.594214" lon="-8.461123">
        <ele>96.315</ele>
        <time>2015-03-22T15:00:59Z</time>
      </trkpt>
      <trkpt lat="40.594289" lon="-8.461136">
        <ele>96.807</ele>
        <time>2015-03-22T15:01:13Z</time>
      </trkpt>
      <trkpt lat="40.594511" lon="-8.461209">
        <ele>95.376</ele>
        <time>2015-03-22T15:01:23Z</time>
      </trkpt>
      <trkpt lat="40.595117" lon="-8.461153">
        <ele>94.459</ele>
        <time>2015-03-22T15:01:39Z</time>
      </trkpt>
      <trkpt lat="40.595832" lon="-8.461208">
        <ele>93.961</ele>
        <time>2015-03-22T15:01:56Z</time>
      </trkpt>
      <trkpt lat="40.595945" lon="-8.461254">
        <ele>93.411</ele>
        <time>2015-03-22T15:01:59Z</time>
      </trkpt>
      <trkpt lat="40.596526" lon="-8.461735">
        <ele>92.929</ele>
        <time>2015-03-22T15:02:15Z</time>
      </trkpt>
      <trkpt lat="40.596853" lon="-8.462087">
        <ele>92.464</ele>
        <time>2015-03-22T15:02:25Z</time>
      </trkpt>
      <trkpt lat="40.597007" lon="-8.462137">
        <ele>92.411</ele>
        <time>2015-03-22T15:02:29Z</time>
      </trkpt>
      <trkpt lat="40.597660" lon="-8.462197">
        <ele>91.974</ele>
        <time>2015-03-22T15:02:46Z</time>
      </trkpt>
      <trkpt lat="40.598426" lon="-8.462211">
        <ele>91.556</ele>
        <time>2015-03-22T15:03:05Z</time>
      </trkpt>
      <trkpt lat="40.598708" lon="-8.462188">
        <ele>91.521</ele>
        <time>2015-03-22T15:03:12Z</time>
      </trkpt>
      <trkpt lat="40.599223" lon="-8.462143">
        <ele>93.407</ele>
        <time>2015-03-22T15:03:26Z</time>
      </trkpt>
      <trkpt lat="40.599785" lon="-8.461977">
        <ele>95.886</ele>
        <time>2015-03-22T15:03:42Z</time>
      </trkpt>
      <trkpt lat="40.600026" lon="-8.461526">
        <ele>96.359</ele>
        <time>2015-03-22T15:03:56Z</time>
      </trkpt>
      <trkpt lat="40.599926" lon="-8.461430">
        <ele>96.321</ele>
        <time>2015-03-22T15:04:01Z</time>
      </trkpt>
      <trkpt lat="40.599799" lon="-8.461316">
        <ele>96.311</ele>
        <time>2015-03-22T15:04:14Z</time>
      </trkpt>
      <trkpt lat="40.599891" lon="-8.460971">
        <ele>96.349</ele>
        <time>2015-03-22T15:04:32Z</time>
      </trkpt>
      <trkpt lat="40.600213" lon="-8.460972">
        <ele>96.364</ele>
        <time>2015-03-22T15:04:41Z</time>
      </trkpt>
      <trkpt lat="40.600467" lon="-8.461055">
        <ele>96.371</ele>
        <time>2015-03-22T15:04:47Z</time>
      </trkpt>
      <trkpt lat="40.600598" lon="-8.461073">
        <ele>95.319</ele>
        <time>2015-03-22T15:04:50Z</time>
      </trkpt>
      <trkpt lat="40.601504" lon="-8.461236">
        <ele>93.409</ele>
        <time>2015-03-22T15:05:11Z</time>
      </trkpt>
      <trkpt lat="40.602301" lon="-8.461373">
        <ele>91.919</ele>
        <time>2015-03-22T15:05:28Z</time>
      </trkpt>
      <trkpt lat="40.603067" lon="-8.461495">
        <ele>91.007</ele>
        <time>2015-03-22T15:05:44Z</time>
      </trkpt>
      <trkpt lat="40.603951" lon="-8.461638">
        <ele>90.550</ele>
        <time>2015-03-22T15:06:03Z</time>
      </trkpt>
      <trkpt lat="40.604774" lon="-8.461773">
        <ele>91.013</ele>
        <time>2015-03-22T15:06:21Z</time>
      </trkpt>
      <trkpt lat="40.605564" lon="-8.461886">
        <ele>90.085</ele>
        <time>2015-03-22T15:06:38Z</time>
      </trkpt>
      <trkpt lat="40.606461" lon="-8.461990">
        <ele>90.015</ele>
        <time>2015-03-22T15:06:57Z</time>
      </trkpt>
      <trkpt lat="40.607185" lon="-8.462068">
        <ele>90.063</ele>
        <time>2015-03-22T15:07:13Z</time>
      </trkpt>
      <trkpt lat="40.607534" lon="-8.462119">
        <ele>90.068</ele>
        <time>2015-03-22T15:07:21Z</time>
      </trkpt>
      <trkpt lat="40.608328" lon="-8.462134">
        <ele>90.045</ele>
        <time>2015-03-22T15:07:38Z</time>
      </trkpt>
      <trkpt lat="40.609062" lon="-8.462206">
        <ele>89.144</ele>
        <time>2015-03-22T15:07:54Z</time>
      </trkpt>
      <trkpt lat="40.609148" lon="-8.462195">
        <ele>89.105</ele>
        <time>2015-03-22T15:08:02Z</time>
      </trkpt>
      <trkpt lat="40.609436" lon="-8.462206">
        <ele>89.515</ele>
        <time>2015-03-22T15:08:40Z</time>
      </trkpt>
      <trkpt lat="40.610050" lon="-8.462314">
        <ele>88.607</ele>
        <time>2015-03-22T15:08:55Z</time>
      </trkpt>
      <trkpt lat="40.610128" lon="-8.462319">
        <ele>88.693</ele>
        <time>2015-03-22T15:08:57Z</time>
      </trkpt>
      <trkpt lat="40.610394" lon="-8.462321">
        <ele>88.696</ele>
        <time>2015-03-22T15:09:03Z</time>
      </trkpt>
      <trkpt lat="40.610649" lon="-8.462341">
        <ele>88.698</ele>
        <time>2015-03-22T15:09:09Z</time>
      </trkpt>
      <trkpt lat="40.610951" lon="-8.462318">
        <ele>88.618</ele>
        <time>2015-03-22T15:09:17Z</time>
      </trkpt>
      <trkpt lat="40.611082" lon="-8.462286">
        <ele>88.636</ele>
        <time>2015-03-22T15:09:20Z</time>
      </trkpt>
      <trkpt lat="40.611744" lon="-8.462202">
        <ele>90.031</ele>
        <time>2015-03-22T15:09:36Z</time>
      </trkpt>
      <trkpt lat="40.612270" lon="-8.462153">
        <ele>90.088</ele>
        <time>2015-03-22T15:09:50Z</time>
      </trkpt>
      <trkpt lat="40.612376" lon="-8.462149">
        <ele>90.589</ele>
        <time>2015-03-22T15:10:24Z</time>
      </trkpt>
      <trkpt lat="40.612885" lon="-8.462172">
        <ele>91.006</ele>
        <time>2015-03-22T15:10:37Z</time>
      </trkpt>
      <trkpt lat="40.613450" lon="-8.462170">
        <ele>91.026</ele>
        <time>2015-03-22T15:10:50Z</time>
      </trkpt>
      <trkpt lat="40.614268" lon="-8.462154">
        <ele>91.007</ele>
        <time>2015-03-22T15:11:08Z</time>
      </trkpt>
      <trkpt lat="40.615017" lon="-8.462283">
        <ele>91.027</ele>
        <time>2015-03-22T15:11:25Z</time>
      </trkpt>
      <trkpt lat="40.615064" lon="-8.462290">
        <ele>91.070</ele>
        <time>2015-03-22T15:11:26Z</time>
      </trkpt>
      <trkpt lat="40.615689" lon="-8.462269">
        <ele>91.072</ele>
        <time>2015-03-22T15:11:40Z</time>
      </trkpt>
      <trkpt lat="40.616474" lon="-8.462148">
        <ele>90.512</ele>
        <time>2015-03-22T15:11:57Z</time>
      </trkpt>
      <trkpt lat="40.616803" lon="-8.462106">
        <ele>90.520</ele>
        <time>2015-03-22T15:12:04Z</time>
      </trkpt>
      <trkpt lat="40.617116" lon="-8.462097">
        <ele>90.595</ele>
        <time>2015-03-22T15:12:11Z</time>
      </trkpt>
      <trkpt lat="40.617305" lon="-8.462063">
        <ele>90.512</ele>
        <time>2015-03-22T15:12:15Z</time>
      </trkpt>
      <trkpt lat="40.617904" lon="-8.461978">
        <ele>90.568</ele>
        <time>2015-03-22T15:12:29Z</time>
      </trkpt>
      <trkpt lat="40.618129" lon="-8.462078">
        <ele>90.542</ele>
        <time>2015-03-22T15:12:35Z</time>
      </trkpt>
      <trkpt lat="40.618302" lon="-8.462342">
        <ele>91.526</ele>
        <time>2015-03-22T15:12:48Z</time>
      </trkpt>
      <trkpt lat="40.618348" lon="-8.462398">
        <ele>91.907</ele>
        <time>2015-03-22T15:13:11Z</time>
      </trkpt>
      <trkpt lat="40.618526" lon="-8.462636">
        <ele>92.935</ele>
        <time>2015-03-22T15:13:21Z</time>
      </trkpt>
      <trkpt lat="40.619028" lon="-8.462944">
        <ele>89.528</ele>
        <time>2015-03-22T15:13:31Z</time>
      </trkpt>
      <trkpt lat="40.619607" lon="-8.463264">
        <ele>89.540</ele>
        <time>2015-03-22T15:13:45Z</time>
      </trkpt>
      <trkpt lat="40.620391" lon="-8.463665">
        <ele>89.510</ele>
        <time>2015-03-22T15:14:05Z</time>
      </trkpt>
      <trkpt lat="40.621102" lon="-8.464182">
        <ele>89.518</ele>
        <time>2015-03-22T15:14:23Z</time>
      </trkpt>
      <trkpt lat="40.621772" lon="-8.464748">
        <ele>89.513</ele>
        <time>2015-03-22T15:14:40Z</time>
      </trkpt>
      <trkpt lat="40.622485" lon="-8.465345">
        <ele>89.510</ele>
        <time>2015-03-22T15:14:58Z</time>
      </trkpt>
      <trkpt lat="40.623119" lon="-8.465928">
        <ele>89.137</ele>
        <time>2015-03-22T15:15:15Z</time>
      </trkpt>
      <trkpt lat="40.623188" lon="-8.466002">
        <ele>90.549</ele>
        <time>2015-03-22T15:15:17Z</time>
      </trkpt>
      <trkpt lat="40.623358" lon="-8.466175">
        <ele>90.513</ele>
        <time>2015-03-22T15:15:22Z</time>
      </trkpt>
      <trkpt lat="40.623916" lon="-8.466594">
        <ele>91.507</ele>
        <time>2015-03-22T15:15:38Z</time>
      </trkpt>
      <trkpt lat="40.624564" lon="-8.467039">
        <ele>91.922</ele>
        <time>2015-03-22T15:15:55Z</time>
      </trkpt>
      <trkpt lat="40.625133" lon="-8.467444">
        <ele>93.435</ele>
        <time>2015-03-22T15:16:10Z</time>
      </trkpt>
      <trkpt lat="40.625765" lon="-8.467985">
        <ele>93.947</ele>
        <time>2015-03-22T15:16:27Z</time>
      </trkpt>
      <trkpt lat="40.625912" lon="-8.468129">
        <ele>93.927</ele>
        <time>2015-03-22T15:16:31Z</time>
      </trkpt>
      <trkpt lat="40.626125" lon="-8.468347">
        <ele>92.425</ele>
        <time>2015-03-22T15:16:37Z</time>
      </trkpt>
      <trkpt lat="40.626554" lon="-8.468770">
        <ele>91.960</ele>
        <time>2015-03-22T15:16:49Z</time>
      </trkpt>
      <trkpt lat="40.627096" lon="-8.469474">
        <ele>91.937</ele>
        <time>2015-03-22T15:17:08Z</time>
      </trkpt>
      <trkpt lat="40.627523" lon="-8.469969">
        <ele>91.945</ele>
        <time>2015-03-22T15:17:22Z</time>
      </trkpt>
      <trkpt lat="40.627792" lon="-8.470126">
        <ele>89.147</ele>
        <time>2015-03-22T15:17:27Z</time>
      </trkpt>
      <trkpt lat="40.628173" lon="-8.470581">
        <ele>85.711</ele>
        <time>2015-03-22T15:17:34Z</time>
      </trkpt>
      <trkpt lat="40.628325" lon="-8.470785">
        <ele>83.807</ele>
        <time>2015-03-22T15:17:37Z</time>
      </trkpt>
      <trkpt lat="40.628573" lon="-8.470887">
        <ele>80.923</ele>
        <time>2015-03-22T15:17:42Z</time>
      </trkpt>
      <trkpt lat="40.628655" lon="-8.470517">
        <ele>77.016</ele>
        <time>2015-03-22T15:17:47Z</time>
      </trkpt>
      <trkpt lat="40.628776" lon="-8.470084">
        <ele>73.228</ele>
        <time>2015-03-22T15:17:52Z</time>
      </trkpt>
      <trkpt lat="40.629081" lon="-8.469923">
        <ele>70.328</ele>
        <time>2015-03-22T15:17:56Z</time>
      </trkpt>
      <trkpt lat="40.629458" lon="-8.469846">
        <ele>66.066</ele>
        <time>2015-03-22T15:18:00Z</time>
      </trkpt>
      <trkpt lat="40.629665" lon="-8.469796">
        <ele>63.161</ele>
        <time>2015-03-22T15:18:02Z</time>
      </trkpt>
      <trkpt lat="40.629988" lon="-8.469755">
        <ele>59.358</ele>
        <time>2015-03-22T15:18:05Z</time>
      </trkpt>
      <trkpt lat="40.630095" lon="-8.469754">
        <ele>58.332</ele>
        <time>2015-03-22T15:18:06Z</time>
      </trkpt>
      <trkpt lat="40.630497" lon="-8.469895">
        <ele>54.592</ele>
        <time>2015-03-22T15:18:10Z</time>
      </trkpt>
      <trkpt lat="40.630861" lon="-8.470096">
        <ele>51.111</ele>
        <time>2015-03-22T15:18:14Z</time>
      </trkpt>
      <trkpt lat="40.630931" lon="-8.470132">
        <ele>50.607</ele>
        <time>2015-03-22T15:18:15Z</time>
      </trkpt>
      <trkpt lat="40.631124" lon="-8.470041">
        <ele>46.822</ele>
        <time>2015-03-22T15:18:20Z</time>
      </trkpt>
      <trkpt lat="40.631091" lon="-8.469790">
        <ele>43.985</ele>
        <time>2015-03-22T15:18:23Z</time>
      </trkpt>
      <trkpt lat="40.631023" lon="-8.469477">
        <ele>41.577</ele>
        <time>2015-03-22T15:18:26Z</time>
      </trkpt>
      <trkpt lat="40.630850" lon="-8.469134">
        <ele>36.757</ele>
        <time>2015-03-22T15:18:30Z</time>
      </trkpt>
      <trkpt lat="40.630802" lon="-8.469075">
        <ele>36.735</ele>
        <time>2015-03-22T15:18:31Z</time>
      </trkpt>
      <trkpt lat="40.630777" lon="-8.468861">
        <ele>35.290</ele>
        <time>2015-03-22T15:18:36Z</time>
      </trkpt>
      <trkpt lat="40.631045" lon="-8.468566">
        <ele>33.337</ele>
        <time>2015-03-22T15:18:48Z</time>
      </trkpt>
      <trkpt lat="40.631255" lon="-8.468591">
        <ele>29.558</ele>
        <time>2015-03-22T15:18:53Z</time>
      </trkpt>
      <trkpt lat="40.631397" lon="-8.468552">
        <ele>28.052</ele>
        <time>2015-03-22T15:18:56Z</time>
      </trkpt>
      <trkpt lat="40.631493" lon="-8.468504">
        <ele>27.117</ele>
        <time>2015-03-22T15:18:58Z</time>
      </trkpt>
      <trkpt lat="40.631595" lon="-8.468448">
        <ele>25.607</ele>
        <time>2015-03-22T15:19:00Z</time>
      </trkpt>
      <trkpt lat="40.631912" lon="-8.468467">
        <ele>24.294</ele>
        <time>2015-03-22T15:19:07Z</time>
      </trkpt>
      <trkpt lat="40.631990" lon="-8.468530">
        <ele>24.277</ele>
        <time>2015-03-22T15:19:09Z</time>
      </trkpt>
      <trkpt lat="40.632282" lon="-8.468726">
        <ele>23.719</ele>
        <time>2015-03-22T15:19:21Z</time>
      </trkpt>
      <trkpt lat="40.632337" lon="-8.468784">
        <ele>23.299</ele>
        <time>2015-03-22T15:19:50Z</time>
      </trkpt>
      <trkpt lat="40.632751" lon="-8.469133">
        <ele>23.257</ele>
        <time>2015-03-22T15:20:06Z</time>
      </trkpt>
      <trkpt lat="40.633109" lon="-8.469458">
        <ele>23.292</ele>
        <time>2015-03-22T15:20:20Z</time>
      </trkpt>
      <trkpt lat="40.633163" lon="-8.469489">
        <ele>24.759</ele>
        <time>2015-03-22T15:20:22Z</time>
      </trkpt>
      <trkpt lat="40.633516" lon="-8.469595">
        <ele>25.177</ele>
        <time>2015-03-22T15:20:34Z</time>
      </trkpt>
      <trkpt lat="40.633845" lon="-8.469810">
        <ele>23.761</ele>
        <time>2015-03-22T15:20:43Z</time>
      </trkpt>
      <trkpt lat="40.634090" lon="-8.470091">
        <ele>23.727</ele>
        <time>2015-03-22T15:20:54Z</time>
      </trkpt>
      <trkpt lat="40.634064" lon="-8.470210">
        <ele>23.707</ele>
        <time>2015-03-22T15:20:59Z</time>
      </trkpt>
      <trkpt lat="40.633961" lon="-8.470312">
        <ele>23.786</ele>
        <time>2015-03-22T15:21:04Z</time>
      </trkpt>
      <trkpt lat="40.633907" lon="-8.470394">
        <ele>31.969</ele>
        <time>2015-03-22T15:32:52Z</time>
      </trkpt>
      <trkpt lat="40.633903" lon="-8.470560">
        <ele>31.941</ele>
        <time>2015-03-22T15:32:58Z</time>
      </trkpt>
      <trkpt lat="40.633936" lon="-8.470736">
        <ele>33.891</ele>
        <time>2015-03-22T15:33:05Z</time>
      </trkpt>
      <trkpt lat="40.634090" lon="-8.470909">
        <ele>34.739</ele>
        <time>2015-03-22T15:33:17Z</time>
      </trkpt>
      <trkpt lat="40.634226" lon="-8.471009">
        <ele>36.234</ele>
        <time>2015-03-22T15:33:29Z</time>
      </trkpt>
      <trkpt lat="40.634296" lon="-8.471032">
        <ele>36.791</ele>
        <time>2015-03-22T15:33:34Z</time>
      </trkpt>
      <trkpt lat="40.634458" lon="-8.470904">
        <ele>38.182</ele>
        <time>2015-03-22T15:33:49Z</time>
      </trkpt>
      <trkpt lat="40.634690" lon="-8.470828">
        <ele>41.543</ele>
        <time>2015-03-22T15:34:07Z</time>
      </trkpt>
      <trkpt lat="40.634920" lon="-8.470858">
        <ele>44.417</ele>
        <time>2015-03-22T15:34:25Z</time>
      </trkpt>
      <trkpt lat="40.635017" lon="-8.470920">
        <ele>45.807</ele>
        <time>2015-03-22T15:34:33Z</time>
      </trkpt>
      <trkpt lat="40.635101" lon="-8.470898">
        <ele>46.877</ele>
        <time>2015-03-22T15:34:40Z</time>
      </trkpt>
      <trkpt lat="40.635342" lon="-8.470978">
        <ele>49.750</ele>
        <time>2015-03-22T15:34:58Z</time>
      </trkpt>
      <trkpt lat="40.635557" lon="-8.470967">
        <ele>52.162</ele>
        <time>2015-03-22T15:35:14Z</time>
      </trkpt>
      <trkpt lat="40.635929" lon="-8.471020">
        <ele>52.162</ele>
        <time>2015-03-22T15:35:30Z</time>
      </trkpt>
      <trkpt lat="40.636085" lon="-8.471048">
        <ele>50.150</ele>
        <time>2015-03-22T15:35:33Z</time>
      </trkpt>
      <trkpt lat="40.636520" lon="-8.471092">
        <ele>47.235</ele>
        <time>2015-03-22T15:35:40Z</time>
      </trkpt>
      <trkpt lat="40.636810" lon="-8.470897">
        <ele>46.882</ele>
        <time>2015-03-22T15:35:48Z</time>
      </trkpt>
      <trkpt lat="40.636778" lon="-8.470804">
        <ele>46.891</ele>
        <time>2015-03-22T15:35:53Z</time>
      </trkpt>
      <trkpt lat="40.636676" lon="-8.470421">
        <ele>47.781</ele>
        <time>2015-03-22T15:36:08Z</time>
      </trkpt>
      <trkpt lat="40.636712" lon="-8.470229">
        <ele>47.719</ele>
        <time>2015-03-22T15:36:13Z</time>
      </trkpt>
      <trkpt lat="40.637102" lon="-8.470032">
        <ele>48.207</ele>
        <time>2015-03-22T15:36:28Z</time>
      </trkpt>
      <trkpt lat="40.637608" lon="-8.469786">
        <ele>48.788</ele>
        <time>2015-03-22T15:36:45Z</time>
      </trkpt>
      <trkpt lat="40.638220" lon="-8.469485">
        <ele>49.271</ele>
        <time>2015-03-22T15:37:03Z</time>
      </trkpt>
      <trkpt lat="40.639068" lon="-8.469088">
        <ele>49.243</ele>
        <time>2015-03-22T15:37:26Z</time>
      </trkpt>
      <trkpt lat="40.639772" lon="-8.468746">
        <ele>49.293</ele>
        <time>2015-03-22T15:37:47Z</time>
      </trkpt>
      <trkpt lat="40.640469" lon="-8.468390">
        <ele>49.261</ele>
        <time>2015-03-22T15:38:07Z</time>
      </trkpt>
      <trkpt lat="40.641099" lon="-8.468057">
        <ele>49.286</ele>
        <time>2015-03-22T15:38:25Z</time>
      </trkpt>
      <trkpt lat="40.641301" lon="-8.467955">
        <ele>48.773</ele>
        <time>2015-03-22T15:39:23Z</time>
      </trkpt>
      <trkpt lat="40.641896" lon="-8.467644">
        <ele>48.711</ele>
        <time>2015-03-22T15:39:40Z</time>
      </trkpt>
      <trkpt lat="40.642727" lon="-8.467215">
        <ele>48.721</ele>
        <time>2015-03-22T15:40:02Z</time>
      </trkpt>
      <trkpt lat="40.643563" lon="-8.466796">
        <ele>48.703</ele>
        <time>2015-03-22T15:40:24Z</time>
      </trkpt>
      <trkpt lat="40.644184" lon="-8.466495">
        <ele>48.207</ele>
        <time>2015-03-22T15:40:41Z</time>
      </trkpt>
      <trkpt lat="40.644856" lon="-8.466221">
        <ele>48.760</ele>
        <time>2015-03-22T15:40:59Z</time>
      </trkpt>
      <trkpt lat="40.645646" lon="-8.465934">
        <ele>50.113</ele>
        <time>2015-03-22T15:41:20Z</time>
      </trkpt>
      <trkpt lat="40.646189" lon="-8.465732">
        <ele>49.715</ele>
        <time>2015-03-22T15:41:37Z</time>
      </trkpt>
      <trkpt lat="40.646530" lon="-8.465912">
        <ele>51.155</ele>
        <time>2015-03-22T15:41:49Z</time>
      </trkpt>
      <trkpt lat="40.646669" lon="-8.466091">
        <ele>54.023</ele>
        <time>2015-03-22T15:42:03Z</time>
      </trkpt>
      <trkpt lat="40.646834" lon="-8.466347">
        <ele>57.328</ele>
        <time>2015-03-22T15:42:22Z</time>
      </trkpt>
      <trkpt lat="40.646782" lon="-8.466604">
        <ele>58.365</ele>
        <time>2015-03-22T15:42:36Z</time>
      </trkpt>
      <trkpt lat="40.646792" lon="-8.466862">
        <ele>60.746</ele>
        <time>2015-03-22T15:42:51Z</time>
      </trkpt>
      <trkpt lat="40.646873" lon="-8.467182">
        <ele>63.188</ele>
        <time>2015-03-22T15:43:09Z</time>
      </trkpt>
      <trkpt lat="40.647051" lon="-8.467392">
        <ele>65.516</ele>
        <time>2015-03-22T15:43:25Z</time>
      </trkpt>
      <trkpt lat="40.647243" lon="-8.467642">
        <ele>66.507</ele>
        <time>2015-03-22T15:43:42Z</time>
      </trkpt>
      <trkpt lat="40.647439" lon="-8.467893">
        <ele>67.933</ele>
        <time>2015-03-22T15:43:59Z</time>
      </trkpt>
      <trkpt lat="40.647703" lon="-8.468094">
        <ele>69.436</ele>
        <time>2015-03-22T15:44:17Z</time>
      </trkpt>
      <trkpt lat="40.647822" lon="-8.468129">
        <ele>70.838</ele>
        <time>2015-03-22T15:44:25Z</time>
      </trkpt>
      <trkpt lat="40.647854" lon="-8.468062">
        <ele>71.818</ele>
        <time>2015-03-22T15:44:29Z</time>
      </trkpt>
      <trkpt lat="40.647984" lon="-8.467760">
        <ele>75.116</ele>
        <time>2015-03-22T15:44:49Z</time>
      </trkpt>
      <trkpt lat="40.648128" lon="-8.467595">
        <ele>77.521</ele>
        <time>2015-03-22T15:45:05Z</time>
      </trkpt>
      <trkpt lat="40.648308" lon="-8.467471">
        <ele>80.438</ele>
        <time>2015-03-22T15:45:22Z</time>
      </trkpt>
      <trkpt lat="40.648461" lon="-8.467284">
        <ele>83.339</ele>
        <time>2015-03-22T15:45:39Z</time>
      </trkpt>
      <trkpt lat="40.648651" lon="-8.467107">
        <ele>86.201</ele>
        <time>2015-03-22T15:45:58Z</time>
      </trkpt>
      <trkpt lat="40.648852" lon="-8.466941">
        <ele>88.621</ele>
        <time>2015-03-22T15:46:16Z</time>
      </trkpt>
      <trkpt lat="40.649033" lon="-8.466753">
        <ele>91.507</ele>
        <time>2015-03-22T15:46:33Z</time>
      </trkpt>
      <trkpt lat="40.649135" lon="-8.466715">
        <ele>92.412</ele>
        <time>2015-03-22T15:46:47Z</time>
      </trkpt>
      <trkpt lat="40.649507" lon="-8.466747">
        <ele>95.325</ele>
        <time>2015-03-22T15:47:27Z</time>
      </trkpt>
      <trkpt lat="40.649764" lon="-8.466785">
        <ele>97.257</ele>
        <time>2015-03-22T15:47:44Z</time>
      </trkpt>
      <trkpt lat="40.649880" lon="-8.466801">
        <ele>99.217</ele>
        <time>2015-03-22T15:47:53Z</time>
      </trkpt>
      <trkpt lat="40.650098" lon="-8.466849">
        <ele>101.185</ele>
        <time>2015-03-22T15:48:08Z</time>
      </trkpt>
      <trkpt lat="40.650355" lon="-8.466964">
        <ele>103.070</ele>
        <time>2015-03-22T15:48:24Z</time>
      </trkpt>
      <trkpt lat="40.650620" lon="-8.467102">
        <ele>103.567</ele>
        <time>2015-03-22T15:48:40Z</time>
      </trkpt>
      <trkpt lat="40.650919" lon="-8.467303">
        <ele>104.994</ele>
        <time>2015-03-22T15:48:59Z</time>
      </trkpt>
      <trkpt lat="40.651188" lon="-8.467469">
        <ele>106.857</ele>
        <time>2015-03-22T15:49:14Z</time>
      </trkpt>
      <trkpt lat="40.651568" lon="-8.467651">
        <ele>108.322</ele>
        <time>2015-03-22T15:49:33Z</time>
      </trkpt>
      <trkpt lat="40.651872" lon="-8.467882">
        <ele>110.207</ele>
        <time>2015-03-22T15:49:48Z</time>
      </trkpt>
      <trkpt lat="40.652152" lon="-8.468096">
        <ele>110.278</ele>
        <time>2015-03-22T15:50:01Z</time>
      </trkpt>
      <trkpt lat="40.652627" lon="-8.468517">
        <ele>110.261</ele>
        <time>2015-03-22T15:50:18Z</time>
      </trkpt>
      <trkpt lat="40.653110" lon="-8.468992">
        <ele>111.243</ele>
        <time>2015-03-22T15:50:36Z</time>
      </trkpt>
      <trkpt lat="40.653622" lon="-8.469288">
        <ele>111.773</ele>
        <time>2015-03-22T15:50:53Z</time>
      </trkpt>
      <trkpt lat="40.654112" lon="-8.469661">
        <ele>111.731</ele>
        <time>2015-03-22T15:51:10Z</time>
      </trkpt>
      <trkpt lat="40.654561" lon="-8.470131">
        <ele>112.166</ele>
        <time>2015-03-22T15:51:27Z</time>
      </trkpt>
      <trkpt lat="40.654975" lon="-8.470494">
        <ele>112.613</ele>
        <time>2015-03-22T15:51:42Z</time>
      </trkpt>
      <trkpt lat="40.655370" lon="-8.470824">
        <ele>114.153</ele>
        <time>2015-03-22T15:51:57Z</time>
      </trkpt>
      <trkpt lat="40.655874" lon="-8.471215">
        <ele>115.004</ele>
        <time>2015-03-22T15:52:15Z</time>
      </trkpt>
      <trkpt lat="40.656435" lon="-8.471691">
        <ele>116.514</ele>
        <time>2015-03-22T15:52:34Z</time>
      </trkpt>
      <trkpt lat="40.656881" lon="-8.472064">
        <ele>117.407</ele>
        <time>2015-03-22T15:52:49Z</time>
      </trkpt>
      <trkpt lat="40.657415" lon="-8.472505">
        <ele>118.914</ele>
        <time>2015-03-22T15:53:06Z</time>
      </trkpt>
      <trkpt lat="40.657873" lon="-8.472859">
        <ele>119.317</ele>
        <time>2015-03-22T15:53:21Z</time>
      </trkpt>
      <trkpt lat="40.658421" lon="-8.473265">
        <ele>119.389</ele>
        <time>2015-03-22T15:53:38Z</time>
      </trkpt>
      <trkpt lat="40.658837" lon="-8.473611">
        <ele>118.949</ele>
        <time>2015-03-22T15:53:52Z</time>
      </trkpt>
      <trkpt lat="40.659164" lon="-8.473939">
        <ele>118.937</ele>
        <time>2015-03-22T15:54:04Z</time>
      </trkpt>
      <trkpt lat="40.659488" lon="-8.474192">
        <ele>117.412</ele>
        <time>2015-03-22T15:54:13Z</time>
      </trkpt>
      <trkpt lat="40.659954" lon="-8.474597">
        <ele>114.149</ele>
        <time>2015-03-22T15:54:22Z</time>
      </trkpt>
      <trkpt lat="40.660214" lon="-8.475004">
        <ele>114.568</ele>
        <time>2015-03-22T15:54:30Z</time>
      </trkpt>
      <trkpt lat="40.660447" lon="-8.475506">
        <ele>115.542</ele>
        <time>2015-03-22T15:54:43Z</time>
      </trkpt>
      <trkpt lat="40.660729" lon="-8.476186">
        <ele>116.926</ele>
        <time>2015-03-22T15:55:01Z</time>
      </trkpt>
      <trkpt lat="40.660922" lon="-8.476513">
        <ele>120.307</ele>
        <time>2015-03-22T15:55:16Z</time>
      </trkpt>
      <trkpt lat="40.661077" lon="-8.476699">
        <ele>120.825</ele>
        <time>2015-03-22T15:55:27Z</time>
      </trkpt>
      <trkpt lat="40.661454" lon="-8.476867">
        <ele>121.378</ele>
        <time>2015-03-22T15:55:42Z</time>
      </trkpt>
      <trkpt lat="40.661786" lon="-8.477235">
        <ele>122.780</ele>
        <time>2015-03-22T15:55:58Z</time>
      </trkpt>
      <trkpt lat="40.662075" lon="-8.477615">
        <ele>124.250</ele>
        <time>2015-03-22T15:56:12Z</time>
      </trkpt>
      <trkpt lat="40.662439" lon="-8.478028">
        <ele>124.618</ele>
        <time>2015-03-22T15:56:29Z</time>
      </trkpt>
      <trkpt lat="40.662797" lon="-8.478282">
        <ele>125.623</ele>
        <time>2015-03-22T15:56:42Z</time>
      </trkpt>
      <trkpt lat="40.663090" lon="-8.478473">
        <ele>126.140</ele>
        <time>2015-03-22T15:56:52Z</time>
      </trkpt>
      <trkpt lat="40.663448" lon="-8.478671">
        <ele>126.637</ele>
        <time>2015-03-22T15:57:03Z</time>
      </trkpt>
      <trkpt lat="40.663941" lon="-8.479009">
        <ele>123.749</ele>
        <time>2015-03-22T15:57:13Z</time>
      </trkpt>
      <trkpt lat="40.664649" lon="-8.479539">
        <ele>122.213</ele>
        <time>2015-03-22T15:57:27Z</time>
      </trkpt>
      <trkpt lat="40.665055" lon="-8.479874">
        <ele>122.207</ele>
        <time>2015-03-22T15:57:39Z</time>
      </trkpt>
      <trkpt lat="40.665115" lon="-8.479927">
        <ele>123.742</ele>
        <time>2015-03-22T15:57:41Z</time>
      </trkpt>
      <trkpt lat="40.665598" lon="-8.480310">
        <ele>124.625</ele>
        <time>2015-03-22T15:57:56Z</time>
      </trkpt>
      <trkpt lat="40.666020" lon="-8.480768">
        <ele>123.237</ele>
        <time>2015-03-22T15:58:08Z</time>
      </trkpt>
      <trkpt lat="40.666511" lon="-8.481290">
        <ele>119.877</ele>
        <time>2015-03-22T15:58:18Z</time>
      </trkpt>
      <trkpt lat="40.666944" lon="-8.481714">
        <ele>116.975</ele>
        <time>2015-03-22T15:58:25Z</time>
      </trkpt>
      <trkpt lat="40.667671" lon="-8.482494">
        <ele>113.130</ele>
        <time>2015-03-22T15:58:37Z</time>
      </trkpt>
      <trkpt lat="40.668315" lon="-8.483241">
        <ele>111.797</ele>
        <time>2015-03-22T15:58:49Z</time>
      </trkpt>
      <trkpt lat="40.668433" lon="-8.483363">
        <ele>113.138</ele>
        <time>2015-03-22T15:58:53Z</time>
      </trkpt>
      <trkpt lat="40.668680" lon="-8.483475">
        <ele>116.570</ele>
        <time>2015-03-22T15:59:03Z</time>
      </trkpt>
      <trkpt lat="40.669042" lon="-8.483559">
        <ele>116.917</ele>
        <time>2015-03-22T15:59:15Z</time>
      </trkpt>
      <trkpt lat="40.669433" lon="-8.483644">
        <ele>118.907</ele>
        <time>2015-03-22T15:59:28Z</time>
      </trkpt>
      <trkpt lat="40.669861" lon="-8.483829">
        <ele>119.362</ele>
        <time>2015-03-22T15:59:42Z</time>
      </trkpt>
      <trkpt lat="40.670372" lon="-8.484052">
        <ele>117.965</ele>
        <time>2015-03-22T15:59:54Z</time>
      </trkpt>
      <trkpt lat="40.670639" lon="-8.484072">
        <ele>117.487</ele>
        <time>2015-03-22T15:59:59Z</time>
      </trkpt>
      <trkpt lat="40.671229" lon="-8.484294">
        <ele>116.517</ele>
        <time>2015-03-22T16:00:14Z</time>
      </trkpt>
      <trkpt lat="40.671624" lon="-8.484341">
        <ele>113.635</ele>
        <time>2015-03-22T16:00:24Z</time>
      </trkpt>
      <trkpt lat="40.671938" lon="-8.484339">
        <ele>112.150</ele>
        <time>2015-03-22T16:00:30Z</time>
      </trkpt>
      <trkpt lat="40.672483" lon="-8.484374">
        <ele>112.127</ele>
        <time>2015-03-22T16:00:43Z</time>
      </trkpt>
      <trkpt lat="40.672998" lon="-8.484415">
        <ele>113.153</ele>
        <time>2015-03-22T16:00:58Z</time>
      </trkpt>
      <trkpt lat="40.673166" lon="-8.484378">
        <ele>111.704</ele>
        <time>2015-03-22T16:01:02Z</time>
      </trkpt>
      <trkpt lat="40.673349" lon="-8.484338">
        <ele>110.714</ele>
        <time>2015-03-22T16:01:06Z</time>
      </trkpt>
      <trkpt lat="40.673442" lon="-8.484284">
        <ele>109.707</ele>
        <time>2015-03-22T16:01:08Z</time>
      </trkpt>
      <trkpt lat="40.673722" lon="-8.484222">
        <ele>108.844</ele>
        <time>2015-03-22T16:01:13Z</time>
      </trkpt>
      <trkpt lat="40.674007" lon="-8.484553">
        <ele>107.897</ele>
        <time>2015-03-22T16:01:22Z</time>
      </trkpt>
      <trkpt lat="40.673867" lon="-8.485415">
        <ele>106.449</ele>
        <time>2015-03-22T16:01:39Z</time>
      </trkpt>
      <trkpt lat="40.673991" lon="-8.485991">
        <ele>105.939</ele>
        <time>2015-03-22T16:01:52Z</time>
      </trkpt>
      <trkpt lat="40.674164" lon="-8.486580">
        <ele>107.397</ele>
        <time>2015-03-22T16:02:09Z</time>
      </trkpt>
      <trkpt lat="40.674278" lon="-8.486873">
        <ele>110.772</ele>
        <time>2015-03-22T16:02:26Z</time>
      </trkpt>
      <trkpt lat="40.674343" lon="-8.487110">
        <ele>113.679</ele>
        <time>2015-03-22T16:02:41Z</time>
      </trkpt>
      <trkpt lat="40.674471" lon="-8.487334">
        <ele>116.076</ele>
        <time>2015-03-22T16:02:56Z</time>
      </trkpt>
      <trkpt lat="40.674667" lon="-8.487574">
        <ele>118.490</ele>
        <time>2015-03-22T16:03:13Z</time>
      </trkpt>
      <trkpt lat="40.674841" lon="-8.487763">
        <ele>120.319</ele>
        <time>2015-03-22T16:03:27Z</time>
      </trkpt>
      <trkpt lat="40.675066" lon="-8.487941">
        <ele>121.307</ele>
        <time>2015-03-22T16:03:40Z</time>
      </trkpt>
      <trkpt lat="40.675346" lon="-8.488064">
        <ele>122.286</ele>
        <time>2015-03-22T16:03:53Z</time>
      </trkpt>
      <trkpt lat="40.675733" lon="-8.488184">
        <ele>122.799</ele>
        <time>2015-03-22T16:04:06Z</time>
      </trkpt>
      <trkpt lat="40.676215" lon="-8.488386">
        <ele>123.721</ele>
        <time>2015-03-22T16:04:21Z</time>
      </trkpt>
      <trkpt lat="40.676516" lon="-8.488608">
        <ele>124.291</ele>
        <time>2015-03-22T16:04:32Z</time>
      </trkpt>
      <trkpt lat="40.676977" lon="-8.488806">
        <ele>125.629</ele>
        <time>2015-03-22T16:04:46Z</time>
      </trkpt>
      <trkpt lat="40.677477" lon="-8.488995">
        <ele>126.164</ele>
        <time>2015-03-22T16:04:59Z</time>
      </trkpt>
      <trkpt lat="40.678015" lon="-8.489110">
        <ele>126.181</ele>
        <time>2015-03-22T16:05:13Z</time>
      </trkpt>
      <trkpt lat="40.678423" lon="-8.489095">
        <ele>126.111</ele>
        <time>2015-03-22T16:05:25Z</time>
      </trkpt>
      <trkpt lat="40.679021" lon="-8.489041">
        <ele>126.621</ele>
        <time>2015-03-22T16:05:42Z</time>
      </trkpt>
      <trkpt lat="40.679405" lon="-8.489060">
        <ele>129.003</ele>
        <time>2015-03-22T16:05:58Z</time>
      </trkpt>
      <trkpt lat="40.679773" lon="-8.489350">
        <ele>130.407</ele>
        <time>2015-03-22T16:06:15Z</time>
      </trkpt>
      <trkpt lat="40.680067" lon="-8.489361">
        <ele>132.360</ele>
        <time>2015-03-22T16:06:29Z</time>
      </trkpt>
      <trkpt lat="40.680450" lon="-8.489200">
        <ele>132.323</ele>
        <time>2015-03-22T16:06:44Z</time>
      </trkpt>
      <trkpt lat="40.680828" lon="-8.488982">
        <ele>132.335</ele>
        <time>2015-03-22T16:06:57Z</time>
      </trkpt>
      <trkpt lat="40.681542" lon="-8.488533">
        <ele>133.835</ele>
        <time>2015-03-22T16:07:19Z</time>
      </trkpt>
      <trkpt lat="40.682148" lon="-8.488321">
        <ele>133.343</ele>
        <time>2015-03-22T16:07:36Z</time>
      </trkpt>
      <trkpt lat="40.682972" lon="-8.488121">
        <ele>130.958</ele>
        <time>2015-03-22T16:07:56Z</time>
      </trkpt>
      <trkpt lat="40.683619" lon="-8.487970">
        <ele>127.515</ele>
        <time>2015-03-22T16:08:09Z</time>
      </trkpt>
      <trkpt lat="40.683709" lon="-8.487913">
        <ele>126.614</ele>
        <time>2015-03-22T16:08:13Z</time>
      </trkpt>
      <trkpt lat="40.683924" lon="-8.487737">
        <ele>124.654</ele>
        <time>2015-03-22T16:08:22Z</time>
      </trkpt>
      <trkpt lat="40.684083" lon="-8.487417">
        <ele>122.709</ele>
        <time>2015-03-22T16:08:28Z</time>
      </trkpt>
      <trkpt lat="40.684214" lon="-8.487114">
        <ele>120.307</ele>
        <time>2015-03-22T16:08:33Z</time>
      </trkpt>
      <trkpt lat="40.684266" lon="-8.486828">
        <ele>119.830</ele>
        <time>2015-03-22T16:08:37Z</time>
      </trkpt>
      <trkpt lat="40.684462" lon="-8.486468">
        <ele>119.373</ele>
        <time>2015-03-22T16:08:44Z</time>
      </trkpt>
      <trkpt lat="40.684628" lon="-8.486225">
        <ele>119.855</ele>
        <time>2015-03-22T16:08:53Z</time>
      </trkpt>
      <trkpt lat="40.684638" lon="-8.486164">
        <ele>120.875</ele>
        <time>2015-03-22T16:08:55Z</time>
      </trkpt>
      <trkpt lat="40.684572" lon="-8.485689">
        <ele>123.763</ele>
        <time>2015-03-22T16:09:12Z</time>
      </trkpt>
      <trkpt lat="40.684492" lon="-8.485276">
        <ele>126.128</ele>
        <time>2015-03-22T16:09:29Z</time>
      </trkpt>
      <trkpt lat="40.684430" lon="-8.484866">
        <ele>128.535</ele>
        <time>2015-03-22T16:09:45Z</time>
      </trkpt>
      <trkpt lat="40.684474" lon="-8.484750">
        <ele>129.044</ele>
        <time>2015-03-22T16:09:50Z</time>
      </trkpt>
      <trkpt lat="40.684750" lon="-8.484531">
        <ele>130.905</ele>
        <time>2015-03-22T16:10:07Z</time>
      </trkpt>
      <trkpt lat="40.685000" lon="-8.484412">
        <ele>132.315</ele>
        <time>2015-03-22T16:10:21Z</time>
      </trkpt>
      <trkpt lat="40.685331" lon="-8.484290">
        <ele>133.307</ele>
        <time>2015-03-22T16:10:37Z</time>
      </trkpt>
      <trkpt lat="40.685705" lon="-8.484237">
        <ele>134.233</ele>
        <time>2015-03-22T16:10:52Z</time>
      </trkpt>
      <trkpt lat="40.686125" lon="-8.484178">
        <ele>135.286</ele>
        <time>2015-03-22T16:11:09Z</time>
      </trkpt>
      <trkpt lat="40.686509" lon="-8.484126">
        <ele>135.238</ele>
        <time>2015-03-22T16:11:25Z</time>
      </trkpt>
      <trkpt lat="40.686843" lon="-8.483882">
        <ele>135.798</ele>
        <time>2015-03-22T16:11:39Z</time>
      </trkpt>
      <trkpt lat="40.687318" lon="-8.483385">
        <ele>136.216</ele>
        <time>2015-03-22T16:11:57Z</time>
      </trkpt>
      <trkpt lat="40.687881" lon="-8.482832">
        <ele>134.791</ele>
        <time>2015-03-22T16:12:18Z</time>
      </trkpt>
      <trkpt lat="40.688299" lon="-8.482382">
        <ele>134.278</ele>
        <time>2015-03-22T16:12:33Z</time>
      </trkpt>
      <trkpt lat="40.688765" lon="-8.481933">
        <ele>133.855</ele>
        <time>2015-03-22T16:12:49Z</time>
      </trkpt>
      <trkpt lat="40.689256" lon="-8.481423">
        <ele>133.307</ele>
        <time>2015-03-22T16:13:07Z</time>
      </trkpt>
      <trkpt lat="40.689450" lon="-8.481238">
        <ele>133.317</ele>
        <time>2015-03-22T16:13:16Z</time>
      </trkpt>
      <trkpt lat="40.689849" lon="-8.480888">
        <ele>133.307</ele>
        <time>2015-03-22T16:13:30Z</time>
      </trkpt>
      <trkpt lat="40.690291" lon="-8.480427">
        <ele>132.814</ele>
        <time>2015-03-22T16:13:46Z</time>
      </trkpt>
      <trkpt lat="40.690481" lon="-8.480254">
        <ele>131.887</ele>
        <time>2015-03-22T16:31:31Z</time>
      </trkpt>
      <trkpt lat="40.690515" lon="-8.480212">
        <ele>131.459</ele>
        <time>2015-03-23T07:20:09Z</time>
      </trkpt>
      <trkpt lat="40.690545" lon="-8.480146">
        <ele>130.439</ele>
        <time>2015-03-23T07:24:47Z</time>
      </trkpt>
      <trkpt lat="40.690784" lon="-8.479952">
        <ele>130.487</ele>
        <time>2015-03-23T07:25:01Z</time>
      </trkpt>
      <trkpt lat="40.691063" lon="-8.479828">
        <ele>130.462</ele>
        <time>2015-03-23T07:25:16Z</time>
      </trkpt>
      <trkpt lat="40.691195" lon="-8.479832">
        <ele>130.439</ele>
        <time>2015-03-23T07:25:22Z</time>
      </trkpt>
      <trkpt lat="40.691268" lon="-8.479747">
        <ele>130.485</ele>
        <time>2015-03-23T07:25:26Z</time>
      </trkpt>
      <trkpt lat="40.691417" lon="-8.479579">
        <ele>130.489</ele>
        <time>2015-03-23T07:25:35Z</time>
      </trkpt>
      <trkpt lat="40.691491" lon="-8.479578">
        <ele>130.417</ele>
        <time>2015-03-23T07:25:48Z</time>
      </trkpt>
      <trkpt lat="40.691520" lon="-8.479398">
        <ele>130.407</ele>
        <time>2015-03-23T07:26:24Z</time>
      </trkpt>
      <trkpt lat="40.691751" lon="-8.479242">
        <ele>130.447</ele>
        <time>2015-03-23T07:26:35Z</time>
      </trkpt>
      <trkpt lat="40.691986" lon="-8.479081">
        <ele>130.450</ele>
        <time>2015-03-23T07:26:46Z</time>
      </trkpt>
      <trkpt lat="40.692283" lon="-8.478770">
        <ele>131.872</ele>
        <time>2015-03-23T07:27:02Z</time>
      </trkpt>
      <trkpt lat="40.692432" lon="-8.478796">
        <ele>131.852</ele>
        <time>2015-03-23T07:27:11Z</time>
      </trkpt>
      <trkpt lat="40.692589" lon="-8.478858">
        <ele>132.840</ele>
        <time>2015-03-23T07:28:08Z</time>
      </trkpt>
      <trkpt lat="40.692764" lon="-8.479224">
        <ele>132.395</ele>
        <time>2015-03-23T07:51:11Z</time>
      </trkpt>
      <trkpt lat="40.692806" lon="-8.479280">
        <ele>132.812</ele>
        <time>2015-03-23T07:51:14Z</time>
      </trkpt>
      <trkpt lat="40.692867" lon="-8.479351">
        <ele>132.867</ele>
        <time>2015-03-23T07:51:18Z</time>
      </trkpt>
      <trkpt lat="40.692953" lon="-8.479427">
        <ele>132.881</ele>
        <time>2015-03-23T07:51:23Z</time>
      </trkpt>
      <trkpt lat="40.693011" lon="-8.479487">
        <ele>133.319</ele>
        <time>2015-03-23T07:51:27Z</time>
      </trkpt>
      <trkpt lat="40.693077" lon="-8.479585">
        <ele>133.807</ele>
        <time>2015-03-23T07:51:41Z</time>
      </trkpt>
      <trkpt lat="40.693259" lon="-8.479744">
        <ele>134.795</ele>
        <time>2015-03-23T07:52:17Z</time>
      </trkpt>
      <trkpt lat="40.693516" lon="-8.479998">
        <ele>136.688</ele>
        <time>2015-03-23T07:52:34Z</time>
      </trkpt>
      <trkpt lat="40.693806" lon="-8.480170">
        <ele>138.690</ele>
        <time>2015-03-23T07:52:51Z</time>
      </trkpt>
      <trkpt lat="40.694115" lon="-8.480177">
        <ele>139.590</ele>
        <time>2015-03-23T07:53:06Z</time>
      </trkpt>
      <trkpt lat="40.694546" lon="-8.480138">
        <ele>140.548</ele>
        <time>2015-03-23T07:53:26Z</time>
      </trkpt>
      <trkpt lat="40.694921" lon="-8.480160">
        <ele>141.583</ele>
        <time>2015-03-23T07:53:43Z</time>
      </trkpt>
      <trkpt lat="40.695460" lon="-8.480248">
        <ele>142.490</ele>
        <time>2015-03-23T07:54:06Z</time>
      </trkpt>
      <trkpt lat="40.695780" lon="-8.480330">
        <ele>142.991</ele>
        <time>2015-03-23T07:54:24Z</time>
      </trkpt>
      <trkpt lat="40.695941" lon="-8.480333">
        <ele>142.981</ele>
        <time>2015-03-23T07:54:42Z</time>
      </trkpt>
      <trkpt lat="40.696309" lon="-8.480403">
        <ele>143.919</ele>
        <time>2015-03-23T07:54:58Z</time>
      </trkpt>
      <trkpt lat="40.696773" lon="-8.480500">
        <ele>145.307</ele>
        <time>2015-03-23T07:55:19Z</time>
      </trkpt>
      <trkpt lat="40.697192" lon="-8.480534">
        <ele>146.778</ele>
        <time>2015-03-23T07:55:37Z</time>
      </trkpt>
      <trkpt lat="40.697626" lon="-8.480526">
        <ele>148.221</ele>
        <time>2015-03-23T07:55:56Z</time>
      </trkpt>
      <trkpt lat="40.698173" lon="-8.480504">
        <ele>150.153</ele>
        <time>2015-03-23T07:56:20Z</time>
      </trkpt>
      <trkpt lat="40.698750" lon="-8.480475">
        <ele>151.193</ele>
        <time>2015-03-23T07:56:44Z</time>
      </trkpt>
      <trkpt lat="40.699243" lon="-8.480446">
        <ele>151.151</ele>
        <time>2015-03-23T07:57:01Z</time>
      </trkpt>
      <trkpt lat="40.699793" lon="-8.480538">
        <ele>151.516</ele>
        <time>2015-03-23T07:57:19Z</time>
      </trkpt>
      <trkpt lat="40.699799" lon="-8.481025">
        <ele>153.063</ele>
        <time>2015-03-23T07:57:31Z</time>
      </trkpt>
      <trkpt lat="40.699998" lon="-8.481109">
        <ele>153.025</ele>
        <time>2015-03-23T07:57:39Z</time>
      </trkpt>
      <trkpt lat="40.700283" lon="-8.481203">
        <ele>153.026</ele>
        <time>2015-03-23T07:57:50Z</time>
      </trkpt>
      <trkpt lat="40.700579" lon="-8.481481">
        <ele>153.508</ele>
        <time>2015-03-23T07:58:01Z</time>
      </trkpt>
      <trkpt lat="40.700761" lon="-8.481476">
        <ele>151.507</ele>
        <time>2015-03-23T07:58:04Z</time>
      </trkpt>
      <trkpt lat="40.701069" lon="-8.481103">
        <ele>149.131</ele>
        <time>2015-03-23T07:58:10Z</time>
      </trkpt>
      <trkpt lat="40.701161" lon="-8.480735">
        <ele>148.764</ele>
        <time>2015-03-23T07:58:14Z</time>
      </trkpt>
      <trkpt lat="40.701272" lon="-8.480513">
        <ele>148.726</ele>
        <time>2015-03-23T07:58:18Z</time>
      </trkpt>
      <trkpt lat="40.701630" lon="-8.480235">
        <ele>149.166</ele>
        <time>2015-03-23T07:58:29Z</time>
      </trkpt>
      <trkpt lat="40.701718" lon="-8.480178">
        <ele>150.184</ele>
        <time>2015-03-23T07:58:33Z</time>
      </trkpt>
      <trkpt lat="40.701953" lon="-8.479806">
        <ele>152.559</ele>
        <time>2015-03-23T07:58:50Z</time>
      </trkpt>
      <trkpt lat="40.701892" lon="-8.479314">
        <ele>155.456</ele>
        <time>2015-03-23T07:59:08Z</time>
      </trkpt>
      <trkpt lat="40.701864" lon="-8.479232">
        <ele>155.968</ele>
        <time>2015-03-23T07:59:13Z</time>
      </trkpt>
      <trkpt lat="40.701897" lon="-8.479073">
        <ele>155.942</ele>
        <time>2015-03-23T07:59:19Z</time>
      </trkpt>
      <trkpt lat="40.702192" lon="-8.478540">
        <ele>157.326</ele>
        <time>2015-03-23T07:59:40Z</time>
      </trkpt>
      <trkpt lat="40.702510" lon="-8.478218">
        <ele>158.807</ele>
        <time>2015-03-23T07:59:58Z</time>
      </trkpt>
      <trkpt lat="40.702747" lon="-8.478028">
        <ele>161.265</ele>
        <time>2015-03-23T08:00:12Z</time>
      </trkpt>
      <trkpt lat="40.703063" lon="-8.477815">
        <ele>162.648</ele>
        <time>2015-03-23T08:00:29Z</time>
      </trkpt>
      <trkpt lat="40.703427" lon="-8.477561">
        <ele>164.520</ele>
        <time>2015-03-23T08:00:48Z</time>
      </trkpt>
      <trkpt lat="40.703789" lon="-8.477299">
        <ele>164.570</ele>
        <time>2015-03-23T08:01:05Z</time>
      </trkpt>
      <trkpt lat="40.704214" lon="-8.477040">
        <ele>164.588</ele>
        <time>2015-03-23T08:01:24Z</time>
      </trkpt>
      <trkpt lat="40.704630" lon="-8.476918">
        <ele>164.593</ele>
        <time>2015-03-23T08:01:42Z</time>
      </trkpt>
      <trkpt lat="40.705018" lon="-8.476859">
        <ele>165.050</ele>
        <time>2015-03-23T08:01:59Z</time>
      </trkpt>
      <trkpt lat="40.705407" lon="-8.476796">
        <ele>165.037</ele>
        <time>2015-03-23T08:02:15Z</time>
      </trkpt>
      <trkpt lat="40.705723" lon="-8.476693">
        <ele>165.049</ele>
        <time>2015-03-23T08:02:28Z</time>
      </trkpt>
      <trkpt lat="40.706105" lon="-8.476488">
        <ele>165.013</ele>
        <time>2015-03-23T08:02:43Z</time>
      </trkpt>
      <trkpt lat="40.706474" lon="-8.476326">
        <ele>165.507</ele>
        <time>2015-03-23T08:02:57Z</time>
      </trkpt>
      <trkpt lat="40.706811" lon="-8.476197">
        <ele>166.012</ele>
        <time>2015-03-23T08:03:10Z</time>
      </trkpt>
      <trkpt lat="40.707180" lon="-8.476090">
        <ele>166.945</ele>
        <time>2015-03-23T08:03:24Z</time>
      </trkpt>
      <trkpt lat="40.707570" lon="-8.476157">
        <ele>167.417</ele>
        <time>2015-03-23T08:03:38Z</time>
      </trkpt>
      <trkpt lat="40.707966" lon="-8.476231">
        <ele>167.967</ele>
        <time>2015-03-23T08:03:52Z</time>
      </trkpt>
      <trkpt lat="40.708414" lon="-8.476237">
        <ele>168.485</ele>
        <time>2015-03-23T08:04:06Z</time>
      </trkpt>
      <trkpt lat="40.708812" lon="-8.475939">
        <ele>168.430</ele>
        <time>2015-03-23T08:04:21Z</time>
      </trkpt>
      <trkpt lat="40.709187" lon="-8.475721">
        <ele>169.387</ele>
        <time>2015-03-23T08:04:35Z</time>
      </trkpt>
      <trkpt lat="40.709517" lon="-8.475619">
        <ele>169.383</ele>
        <time>2015-03-23T08:04:46Z</time>
      </trkpt>
      <trkpt lat="40.709997" lon="-8.475416">
        <ele>169.825</ele>
        <time>2015-03-23T08:05:04Z</time>
      </trkpt>
      <trkpt lat="40.710366" lon="-8.475287">
        <ele>170.817</ele>
        <time>2015-03-23T08:05:20Z</time>
      </trkpt>
      <trkpt lat="40.710708" lon="-8.475175">
        <ele>171.307</ele>
        <time>2015-03-23T08:05:35Z</time>
      </trkpt>
      <trkpt lat="40.711090" lon="-8.474994">
        <ele>171.317</ele>
        <time>2015-03-23T08:05:50Z</time>
      </trkpt>
      <trkpt lat="40.711384" lon="-8.474746">
        <ele>170.350</ele>
        <time>2015-03-23T08:06:03Z</time>
      </trkpt>
      <trkpt lat="40.711768" lon="-8.474426">
        <ele>169.862</ele>
        <time>2015-03-23T08:06:18Z</time>
      </trkpt>
      <trkpt lat="40.711844" lon="-8.474046">
        <ele>169.812</ele>
        <time>2015-03-23T08:06:31Z</time>
      </trkpt>
      <trkpt lat="40.711808" lon="-8.473597">
        <ele>169.890</ele>
        <time>2015-03-23T08:06:46Z</time>
      </trkpt>
      <trkpt lat="40.711797" lon="-8.473398">
        <ele>171.345</ele>
        <time>2015-03-23T08:06:53Z</time>
      </trkpt>
      <trkpt lat="40.711747" lon="-8.473127">
        <ele>173.212</ele>
        <time>2015-03-23T08:07:05Z</time>
      </trkpt>
      <trkpt lat="40.711813" lon="-8.473086">
        <ele>173.773</ele>
        <time>2015-03-23T08:07:11Z</time>
      </trkpt>
      <trkpt lat="40.712104" lon="-8.473304">
        <ele>174.185</ele>
        <time>2015-03-23T08:07:27Z</time>
      </trkpt>
      <trkpt lat="40.712435" lon="-8.473496">
        <ele>175.113</ele>
        <time>2015-03-23T08:07:43Z</time>
      </trkpt>
      <trkpt lat="40.712775" lon="-8.473553">
        <ele>175.607</ele>
        <time>2015-03-23T08:07:58Z</time>
      </trkpt>
      <trkpt lat="40.713040" lon="-8.473354">
        <ele>176.526</ele>
        <time>2015-03-23T08:08:12Z</time>
      </trkpt>
      <trkpt lat="40.713214" lon="-8.472881">
        <ele>177.089</ele>
        <time>2015-03-23T08:08:28Z</time>
      </trkpt>
      <trkpt lat="40.713369" lon="-8.472494">
        <ele>177.561</ele>
        <time>2015-03-23T08:08:42Z</time>
      </trkpt>
      <trkpt lat="40.713551" lon="-8.472258">
        <ele>177.521</ele>
        <time>2015-03-23T08:08:55Z</time>
      </trkpt>
      <trkpt lat="40.713776" lon="-8.472405">
        <ele>178.999</ele>
        <time>2015-03-23T08:09:08Z</time>
      </trkpt>
      <trkpt lat="40.713829" lon="-8.472478">
        <ele>179.424</ele>
        <time>2015-03-23T08:09:12Z</time>
      </trkpt>
      <trkpt lat="40.714107" lon="-8.472712">
        <ele>181.851</ele>
        <time>2015-03-23T08:09:28Z</time>
      </trkpt>
      <trkpt lat="40.714400" lon="-8.472989">
        <ele>181.858</ele>
        <time>2015-03-23T08:09:43Z</time>
      </trkpt>
      <trkpt lat="40.714750" lon="-8.473344">
        <ele>182.852</ele>
        <time>2015-03-23T08:10:01Z</time>
      </trkpt>
      <trkpt lat="40.715111" lon="-8.473562">
        <ele>183.817</ele>
        <time>2015-03-23T08:10:17Z</time>
      </trkpt>
      <trkpt lat="40.715373" lon="-8.473631">
        <ele>184.207</ele>
        <time>2015-03-23T08:10:28Z</time>
      </trkpt>
      <trkpt lat="40.715767" lon="-8.473751">
        <ele>185.284</ele>
        <time>2015-03-23T08:10:44Z</time>
      </trkpt>
      <trkpt lat="40.716151" lon="-8.473885">
        <ele>187.137</ele>
        <time>2015-03-23T08:11:00Z</time>
      </trkpt>
      <trkpt lat="40.716748" lon="-8.474074">
        <ele>185.749</ele>
        <time>2015-03-23T08:11:15Z</time>
      </trkpt>
      <trkpt lat="40.717337" lon="-8.474254">
        <ele>185.789</ele>
        <time>2015-03-23T08:11:30Z</time>
      </trkpt>
      <trkpt lat="40.718012" lon="-8.474453">
        <ele>185.297</ele>
        <time>2015-03-23T08:11:49Z</time>
      </trkpt>
      <trkpt lat="40.718677" lon="-8.474648">
        <ele>185.292</ele>
        <time>2015-03-23T08:12:08Z</time>
      </trkpt>
      <trkpt lat="40.719284" lon="-8.474837">
        <ele>188.169</ele>
        <time>2015-03-23T08:12:26Z</time>
      </trkpt>
      <trkpt lat="40.719829" lon="-8.474960">
        <ele>189.054</ele>
        <time>2015-03-23T08:12:42Z</time>
      </trkpt>
      <trkpt lat="40.720443" lon="-8.475052">
        <ele>189.056</ele>
        <time>2015-03-23T08:12:59Z</time>
      </trkpt>
      <trkpt lat="40.721098" lon="-8.475058">
        <ele>190.011</ele>
        <time>2015-03-23T08:13:17Z</time>
      </trkpt>
      <trkpt lat="40.721621" lon="-8.475051">
        <ele>190.007</ele>
        <time>2015-03-23T08:13:31Z</time>
      </trkpt>
      <trkpt lat="40.722398" lon="-8.475039">
        <ele>190.044</ele>
        <time>2015-03-23T08:13:51Z</time>
      </trkpt>
      <trkpt lat="40.723011" lon="-8.475066">
        <ele>190.027</ele>
        <time>2015-03-23T08:14:08Z</time>
      </trkpt>
      <trkpt lat="40.723084" lon="-8.475121">
        <ele>188.669</ele>
        <time>2015-03-23T08:14:10Z</time>
      </trkpt>
      <trkpt lat="40.723568" lon="-8.475432">
        <ele>188.149</ele>
        <time>2015-03-23T08:14:26Z</time>
      </trkpt>
      <trkpt lat="40.724085" lon="-8.475609">
        <ele>187.177</ele>
        <time>2015-03-23T08:14:41Z</time>
      </trkpt>
      <trkpt lat="40.724621" lon="-8.475656">
        <ele>186.682</ele>
        <time>2015-03-23T08:14:57Z</time>
      </trkpt>
      <trkpt lat="40.725153" lon="-8.475712">
        <ele>186.279</ele>
        <time>2015-03-23T08:15:12Z</time>
      </trkpt>
      <trkpt lat="40.725637" lon="-8.475822">
        <ele>186.282</ele>
        <time>2015-03-23T08:15:27Z</time>
      </trkpt>
      <trkpt lat="40.725998" lon="-8.476054">
        <ele>185.743</ele>
        <time>2015-03-23T08:15:39Z</time>
      </trkpt>
      <trkpt lat="40.726440" lon="-8.476347">
        <ele>185.217</ele>
        <time>2015-03-23T08:15:54Z</time>
      </trkpt>
      <trkpt lat="40.726854" lon="-8.476693">
        <ele>185.207</ele>
        <time>2015-03-23T08:16:09Z</time>
      </trkpt>
      <trkpt lat="40.727221" lon="-8.477102">
        <ele>184.747</ele>
        <time>2015-03-23T08:16:23Z</time>
      </trkpt>
      <trkpt lat="40.727380" lon="-8.477321">
        <ele>184.290</ele>
        <time>2015-03-23T08:16:29Z</time>
      </trkpt>
      <trkpt lat="40.727438" lon="-8.477398">
        <ele>183.842</ele>
        <time>2015-03-23T08:16:31Z</time>
      </trkpt>
      <trkpt lat="40.727545" lon="-8.477571">
        <ele>182.842</ele>
        <time>2015-03-23T08:16:35Z</time>
      </trkpt>
      <trkpt lat="40.727806" lon="-8.478172">
        <ele>180.420</ele>
        <time>2015-03-23T08:16:48Z</time>
      </trkpt>
      <trkpt lat="40.727926" lon="-8.478648">
        <ele>178.995</ele>
        <time>2015-03-23T08:17:01Z</time>
      </trkpt>
      <trkpt lat="40.728091" lon="-8.478770">
        <ele>178.562</ele>
        <time>2015-03-23T08:17:09Z</time>
      </trkpt>
      <trkpt lat="40.728273" lon="-8.479263">
        <ele>177.558</ele>
        <time>2015-03-23T08:17:25Z</time>
      </trkpt>
      <trkpt lat="40.728315" lon="-8.479396">
        <ele>177.552</ele>
        <time>2015-03-23T08:17:31Z</time>
      </trkpt>
      <trkpt lat="40.728355" lon="-8.479479">
        <ele>177.017</ele>
        <time>2015-03-23T08:17:35Z</time>
      </trkpt>
      <trkpt lat="40.728418" lon="-8.479598">
        <ele>177.007</ele>
        <time>2015-03-23T08:17:47Z</time>
      </trkpt>
      <trkpt lat="40.728445" lon="-8.479739">
        <ele>177.094</ele>
        <time>2015-03-23T08:18:01Z</time>
      </trkpt>
      <trkpt lat="40.728502" lon="-8.479853">
        <ele>176.527</ele>
        <time>2015-03-23T08:18:15Z</time>
      </trkpt>
      <trkpt lat="40.728568" lon="-8.479994">
        <ele>176.579</ele>
        <time>2015-03-23T08:18:29Z</time>
      </trkpt>
      <trkpt lat="40.728655" lon="-8.480137">
        <ele>176.539</ele>
        <time>2015-03-23T08:18:43Z</time>
      </trkpt>
      <trkpt lat="40.728721" lon="-8.480233">
        <ele>176.567</ele>
        <time>2015-03-23T08:19:23Z</time>
      </trkpt>
      <trkpt lat="40.728951" lon="-8.480559">
        <ele>176.172</ele>
        <time>2015-03-23T08:19:36Z</time>
      </trkpt>
      <trkpt lat="40.729225" lon="-8.481046">
        <ele>174.199</ele>
        <time>2015-03-23T08:19:49Z</time>
      </trkpt>
      <trkpt lat="40.729589" lon="-8.481718">
        <ele>172.785</ele>
        <time>2015-03-23T08:20:04Z</time>
      </trkpt>
      <trkpt lat="40.729922" lon="-8.482126">
        <ele>172.289</ele>
        <time>2015-03-23T08:20:16Z</time>
      </trkpt>
      <trkpt lat="40.730150" lon="-8.482544">
        <ele>170.817</ele>
        <time>2015-03-23T08:20:27Z</time>
      </trkpt>
      <trkpt lat="40.730473" lon="-8.483066">
        <ele>169.807</ele>
        <time>2015-03-23T08:20:41Z</time>
      </trkpt>
      <trkpt lat="40.730634" lon="-8.483247">
        <ele>169.867</ele>
        <time>2015-03-23T08:20:53Z</time>
      </trkpt>
      <trkpt lat="40.730782" lon="-8.483423">
        <ele>169.880</ele>
        <time>2015-03-23T08:21:08Z</time>
      </trkpt>
      <trkpt lat="40.730876" lon="-8.483624">
        <ele>169.822</ele>
        <time>2015-03-23T08:21:24Z</time>
      </trkpt>
      <trkpt lat="40.731101" lon="-8.483899">
        <ele>169.832</ele>
        <time>2015-03-23T08:21:41Z</time>
      </trkpt>
      <trkpt lat="40.731429" lon="-8.484295">
        <ele>169.820</ele>
        <time>2015-03-23T08:21:55Z</time>
      </trkpt>
      <trkpt lat="40.731840" lon="-8.484613">
        <ele>169.385</ele>
        <time>2015-03-23T08:22:09Z</time>
      </trkpt>
      <trkpt lat="40.732260" lon="-8.484804">
        <ele>166.922</ele>
        <time>2015-03-23T08:22:20Z</time>
      </trkpt>
      <trkpt lat="40.732565" lon="-8.484995">
        <ele>165.054</ele>
        <time>2015-03-23T08:22:27Z</time>
      </trkpt>
      <trkpt lat="40.732909" lon="-8.485024">
        <ele>163.156</ele>
        <time>2015-03-23T08:22:38Z</time>
      </trkpt>
      <trkpt lat="40.733172" lon="-8.484962">
        <ele>163.111</ele>
        <time>2015-03-23T08:22:51Z</time>
      </trkpt>
      <trkpt lat="40.733572" lon="-8.484856">
        <ele>163.107</ele>
        <time>2015-03-23T08:23:08Z</time>
      </trkpt>
      <trkpt lat="40.733764" lon="-8.484810">
        <ele>166.544</ele>
        <time>2015-03-23T08:23:19Z</time>
      </trkpt>
      <trkpt lat="40.734028" lon="-8.484953">
        <ele>168.487</ele>
        <time>2015-03-23T08:23:36Z</time>
      </trkpt>
      <trkpt lat="40.734297" lon="-8.485242">
        <ele>168.939</ele>
        <time>2015-03-23T08:23:50Z</time>
      </trkpt>
      <trkpt lat="40.734546" lon="-8.485698">
        <ele>167.439</ele>
        <time>2015-03-23T08:24:01Z</time>
      </trkpt>
      <trkpt lat="40.734773" lon="-8.486163">
        <ele>166.017</ele>
        <time>2015-03-23T08:24:09Z</time>
      </trkpt>
      <trkpt lat="40.735009" lon="-8.486582">
        <ele>164.522</ele>
        <time>2015-03-23T08:24:16Z</time>
      </trkpt>
      <trkpt lat="40.735174" lon="-8.487281">
        <ele>162.649</ele>
        <time>2015-03-23T08:24:25Z</time>
      </trkpt>
      <trkpt lat="40.735018" lon="-8.487677">
        <ele>161.254</ele>
        <time>2015-03-23T08:24:32Z</time>
      </trkpt>
      <trkpt lat="40.734868" lon="-8.487704">
        <ele>160.256</ele>
        <time>2015-03-23T08:24:35Z</time>
      </trkpt>
      <trkpt lat="40.734744" lon="-8.488062">
        <ele>158.311</ele>
        <time>2015-03-23T08:24:43Z</time>
      </trkpt>
      <trkpt lat="40.734882" lon="-8.488310">
        <ele>157.307</ele>
        <time>2015-03-23T08:24:49Z</time>
      </trkpt>
      <trkpt lat="40.735631" lon="-8.488293">
        <ele>156.864</ele>
        <time>2015-03-23T08:25:08Z</time>
      </trkpt>
      <trkpt lat="40.736399" lon="-8.488437">
        <ele>155.427</ele>
        <time>2015-03-23T08:25:26Z</time>
      </trkpt>
      <trkpt lat="40.736444" lon="-8.488462">
        <ele>154.999</ele>
        <time>2015-03-23T08:25:27Z</time>
      </trkpt>
      <trkpt lat="40.737206" lon="-8.488985">
        <ele>151.599</ele>
        <time>2015-03-23T08:25:41Z</time>
      </trkpt>
      <trkpt lat="40.737971" lon="-8.489512">
        <ele>151.587</ele>
        <time>2015-03-23T08:25:58Z</time>
      </trkpt>
      <trkpt lat="40.738270" lon="-8.489625">
        <ele>151.522</ele>
        <time>2015-03-23T08:26:06Z</time>
      </trkpt>
      <trkpt lat="40.738930" lon="-8.489288">
        <ele>153.529</ele>
        <time>2015-03-23T08:26:24Z</time>
      </trkpt>
      <trkpt lat="40.739433" lon="-8.489291">
        <ele>154.972</ele>
        <time>2015-03-23T08:26:39Z</time>
      </trkpt>
      <trkpt lat="40.740011" lon="-8.489368">
        <ele>157.813</ele>
        <time>2015-03-23T08:26:57Z</time>
      </trkpt>
      <trkpt lat="40.740660" lon="-8.489660">
        <ele>160.214</ele>
        <time>2015-03-23T08:27:18Z</time>
      </trkpt>
      <trkpt lat="40.741223" lon="-8.489825">
        <ele>161.207</ele>
        <time>2015-03-23T08:27:35Z</time>
      </trkpt>
      <trkpt lat="40.741795" lon="-8.490082">
        <ele>162.636</ele>
        <time>2015-03-23T08:27:52Z</time>
      </trkpt>
      <trkpt lat="40.742095" lon="-8.490425">
        <ele>163.629</ele>
        <time>2015-03-23T08:28:05Z</time>
      </trkpt>
      <trkpt lat="40.742112" lon="-8.490584">
        <ele>164.031</ele>
        <time>2015-03-23T08:28:10Z</time>
      </trkpt>
      <trkpt lat="40.742195" lon="-8.490600">
        <ele>164.521</ele>
        <time>2015-03-23T08:28:15Z</time>
      </trkpt>
      <trkpt lat="40.742697" lon="-8.490571">
        <ele>165.529</ele>
        <time>2015-03-23T08:28:33Z</time>
      </trkpt>
      <trkpt lat="40.742744" lon="-8.490576">
        <ele>166.064</ele>
        <time>2015-03-23T08:29:06Z</time>
      </trkpt>
      <trkpt lat="40.742930" lon="-8.490615">
        <ele>166.061</ele>
        <time>2015-03-23T08:29:15Z</time>
      </trkpt>
      <trkpt lat="40.743440" lon="-8.490524">
        <ele>166.571</ele>
        <time>2015-03-23T08:29:31Z</time>
      </trkpt>
      <trkpt lat="40.743912" lon="-8.490523">
        <ele>165.041</ele>
        <time>2015-03-23T08:29:45Z</time>
      </trkpt>
      <trkpt lat="40.744032" lon="-8.490510">
        <ele>164.515</ele>
        <time>2015-03-23T08:29:48Z</time>
      </trkpt>
      <trkpt lat="40.744166" lon="-8.490526">
        <ele>164.007</ele>
        <time>2015-03-23T08:29:51Z</time>
      </trkpt>
      <trkpt lat="40.744302" lon="-8.490553">
        <ele>163.646</ele>
        <time>2015-03-23T08:29:54Z</time>
      </trkpt>
      <trkpt lat="40.745060" lon="-8.490507">
        <ele>162.119</ele>
        <time>2015-03-23T08:30:10Z</time>
      </trkpt>
      <trkpt lat="40.745559" lon="-8.490494">
        <ele>162.121</ele>
        <time>2015-03-23T08:30:24Z</time>
      </trkpt>
      <trkpt lat="40.746075" lon="-8.490564">
        <ele>163.621</ele>
        <time>2015-03-23T08:30:39Z</time>
      </trkpt>
      <trkpt lat="40.746527" lon="-8.490605">
        <ele>163.699</ele>
        <time>2015-03-23T08:30:52Z</time>
      </trkpt>
      <trkpt lat="40.747140" lon="-8.490732">
        <ele>163.624</ele>
        <time>2015-03-23T08:31:08Z</time>
      </trkpt>
      <trkpt lat="40.747815" lon="-8.490805">
        <ele>163.691</ele>
        <time>2015-03-23T08:31:25Z</time>
      </trkpt>
      <trkpt lat="40.748519" lon="-8.490429">
        <ele>165.093</ele>
        <time>2015-03-23T08:31:44Z</time>
      </trkpt>
      <trkpt lat="40.748700" lon="-8.490272">
        <ele>166.065</ele>
        <time>2015-03-23T08:31:50Z</time>
      </trkpt>
      <trkpt lat="40.749280" lon="-8.490218">
        <ele>164.521</ele>
        <time>2015-03-23T08:32:03Z</time>
      </trkpt>
      <trkpt lat="40.749826" lon="-8.490242">
        <ele>163.107</ele>
        <time>2015-03-23T08:32:13Z</time>
      </trkpt>
      <trkpt lat="40.750668" lon="-8.490437">
        <ele>163.148</ele>
        <time>2015-03-23T08:32:33Z</time>
      </trkpt>
      <trkpt lat="40.751367" lon="-8.490641">
        <ele>165.081</ele>
        <time>2015-03-23T08:32:50Z</time>
      </trkpt>
      <trkpt lat="40.751978" lon="-8.490848">
        <ele>165.543</ele>
        <time>2015-03-23T08:33:05Z</time>
      </trkpt>
      <trkpt lat="40.752451" lon="-8.490859">
        <ele>165.523</ele>
        <time>2015-03-23T08:33:16Z</time>
      </trkpt>
      <trkpt lat="40.753105" lon="-8.490412">
        <ele>165.511</ele>
        <time>2015-03-23T08:33:33Z</time>
      </trkpt>
      <trkpt lat="40.753375" lon="-8.489968">
        <ele>164.036</ele>
        <time>2015-03-23T08:33:41Z</time>
      </trkpt>
      <trkpt lat="40.753681" lon="-8.489708">
        <ele>163.193</ele>
        <time>2015-03-23T08:33:47Z</time>
      </trkpt>
      <trkpt lat="40.754447" lon="-8.489484">
        <ele>162.671</ele>
        <time>2015-03-23T08:34:03Z</time>
      </trkpt>
      <trkpt lat="40.754909" lon="-8.489394">
        <ele>164.041</ele>
        <time>2015-03-23T08:34:14Z</time>
      </trkpt>
      <trkpt lat="40.755235" lon="-8.489297">
        <ele>164.015</ele>
        <time>2015-03-23T08:34:22Z</time>
      </trkpt>
      <trkpt lat="40.755789" lon="-8.489122">
        <ele>162.107</ele>
        <time>2015-03-23T08:34:35Z</time>
      </trkpt>
      <trkpt lat="40.756112" lon="-8.489056">
        <ele>158.316</ele>
        <time>2015-03-23T08:34:39Z</time>
      </trkpt>
      <trkpt lat="40.756513" lon="-8.489020">
        <ele>154.989</ele>
        <time>2015-03-23T08:34:43Z</time>
      </trkpt>
      <trkpt lat="40.756715" lon="-8.489011">
        <ele>154.091</ele>
        <time>2015-03-23T08:34:45Z</time>
      </trkpt>
      <trkpt lat="40.756813" lon="-8.489020">
        <ele>154.021</ele>
        <time>2015-03-23T08:34:46Z</time>
      </trkpt>
      <trkpt lat="40.757158" lon="-8.489148">
        <ele>153.529</ele>
        <time>2015-03-23T08:34:50Z</time>
      </trkpt>
      <trkpt lat="40.757798" lon="-8.489642">
        <ele>154.924</ele>
        <time>2015-03-23T08:35:02Z</time>
      </trkpt>
      <trkpt lat="40.758047" lon="-8.489843">
        <ele>154.971</ele>
        <time>2015-03-23T08:35:08Z</time>
      </trkpt>
      <trkpt lat="40.758430" lon="-8.489915">
        <ele>151.517</ele>
        <time>2015-03-23T08:35:14Z</time>
      </trkpt>
      <trkpt lat="40.759175" lon="-8.489544">
        <ele>151.587</ele>
        <time>2015-03-23T08:35:28Z</time>
      </trkpt>
      <trkpt lat="40.759492" lon="-8.489353">
        <ele>154.415</ele>
        <time>2015-03-23T08:35:41Z</time>
      </trkpt>
      <trkpt lat="40.759737" lon="-8.489191">
        <ele>157.807</ele>
        <time>2015-03-23T08:35:55Z</time>
      </trkpt>
      <trkpt lat="40.760075" lon="-8.488996">
        <ele>161.280</ele>
        <time>2015-03-23T08:36:14Z</time>
      </trkpt>
      <trkpt lat="40.760423" lon="-8.488793">
        <ele>162.663</ele>
        <time>2015-03-23T08:36:31Z</time>
      </trkpt>
      <trkpt lat="40.760793" lon="-8.488663">
        <ele>163.665</ele>
        <time>2015-03-23T08:36:46Z</time>
      </trkpt>
      <trkpt lat="40.761116" lon="-8.488360">
        <ele>165.555</ele>
        <time>2015-03-23T08:37:02Z</time>
      </trkpt>
      <trkpt lat="40.761142" lon="-8.487963">
        <ele>166.963</ele>
        <time>2015-03-23T08:37:14Z</time>
      </trkpt>
      <trkpt lat="40.761278" lon="-8.487852">
        <ele>166.938</ele>
        <time>2015-03-23T08:37:19Z</time>
      </trkpt>
      <trkpt lat="40.761533" lon="-8.487577">
        <ele>164.535</ele>
        <time>2015-03-23T08:37:25Z</time>
      </trkpt>
      <trkpt lat="40.761640" lon="-8.487352">
        <ele>163.673</ele>
        <time>2015-03-23T08:37:28Z</time>
      </trkpt>
      <trkpt lat="40.762246" lon="-8.486685">
        <ele>160.285</ele>
        <time>2015-03-23T08:37:39Z</time>
      </trkpt>
      <trkpt lat="40.763031" lon="-8.486279">
        <ele>157.813</ele>
        <time>2015-03-23T08:37:50Z</time>
      </trkpt>
      <trkpt lat="40.763187" lon="-8.486201">
        <ele>159.207</ele>
        <time>2015-03-23T08:37:54Z</time>
      </trkpt>
      <trkpt lat="40.763618" lon="-8.486001">
        <ele>162.676</ele>
        <time>2015-03-23T08:38:08Z</time>
      </trkpt>
      <trkpt lat="40.764362" lon="-8.485651">
        <ele>164.099</ele>
        <time>2015-03-23T08:38:30Z</time>
      </trkpt>
      <trkpt lat="40.764949" lon="-8.485380">
        <ele>166.511</ele>
        <time>2015-03-23T08:38:48Z</time>
      </trkpt>
      <trkpt lat="40.765058" lon="-8.485327">
        <ele>166.041</ele>
        <time>2015-03-23T08:38:51Z</time>
      </trkpt>
      <trkpt lat="40.765774" lon="-8.484960">
        <ele>163.129</ele>
        <time>2015-03-23T08:39:06Z</time>
      </trkpt>
      <trkpt lat="40.766058" lon="-8.484892">
        <ele>162.674</ele>
        <time>2015-03-23T08:39:11Z</time>
      </trkpt>
      <trkpt lat="40.766512" lon="-8.484957">
        <ele>164.591</ele>
        <time>2015-03-23T08:39:23Z</time>
      </trkpt>
      <trkpt lat="40.766910" lon="-8.485250">
        <ele>166.579</ele>
        <time>2015-03-23T08:39:36Z</time>
      </trkpt>
      <trkpt lat="40.767274" lon="-8.485427">
        <ele>163.105</ele>
        <time>2015-03-23T08:39:43Z</time>
      </trkpt>
      <trkpt lat="40.767525" lon="-8.485537">
        <ele>159.725</ele>
        <time>2015-03-23T08:39:46Z</time>
      </trkpt>
      <trkpt lat="40.767726" lon="-8.485624">
        <ele>156.807</ele>
        <time>2015-03-23T08:39:48Z</time>
      </trkpt>
      <trkpt lat="40.768061" lon="-8.485770">
        <ele>153.086</ele>
        <time>2015-03-23T08:39:51Z</time>
      </trkpt>
      <trkpt lat="40.768419" lon="-8.485890">
        <ele>151.159</ele>
        <time>2015-03-23T08:39:54Z</time>
      </trkpt>
      <trkpt lat="40.769049" lon="-8.486016">
        <ele>154.491</ele>
        <time>2015-03-23T08:40:02Z</time>
      </trkpt>
      <trkpt lat="40.769182" lon="-8.486032">
        <ele>156.411</ele>
        <time>2015-03-23T08:40:06Z</time>
      </trkpt>
      <trkpt lat="40.769280" lon="-8.486028">
        <ele>157.819</ele>
        <time>2015-03-23T08:40:09Z</time>
      </trkpt>
      <trkpt lat="40.769658" lon="-8.485865">
        <ele>160.234</ele>
        <time>2015-03-23T08:40:24Z</time>
      </trkpt>
      <trkpt lat="40.770093" lon="-8.485631">
        <ele>160.221</ele>
        <time>2015-03-23T08:40:38Z</time>
      </trkpt>
      <trkpt lat="40.770357" lon="-8.485450">
        <ele>162.657</ele>
        <time>2015-03-23T08:40:52Z</time>
      </trkpt>
      <trkpt lat="40.770628" lon="-8.485234">
        <ele>166.000</ele>
        <time>2015-03-23T08:41:08Z</time>
      </trkpt>
      <trkpt lat="40.770883" lon="-8.484915">
        <ele>167.420</ele>
        <time>2015-03-23T08:41:24Z</time>
      </trkpt>
      <trkpt lat="40.771092" lon="-8.484492">
        <ele>168.907</ele>
        <time>2015-03-23T08:41:41Z</time>
      </trkpt>
      <trkpt lat="40.771383" lon="-8.484034">
        <ele>169.844</ele>
        <time>2015-03-23T08:41:57Z</time>
      </trkpt>
      <trkpt lat="40.771546" lon="-8.484004">
        <ele>168.437</ele>
        <time>2015-03-23T08:42:02Z</time>
      </trkpt>
      <trkpt lat="40.771668" lon="-8.484094">
        <ele>167.989</ele>
        <time>2015-03-23T08:42:07Z</time>
      </trkpt>
      <trkpt lat="40.772111" lon="-8.484456">
        <ele>167.459</ele>
        <time>2015-03-23T08:42:24Z</time>
      </trkpt>
      <trkpt lat="40.772594" lon="-8.484872">
        <ele>166.947</ele>
        <time>2015-03-23T08:42:41Z</time>
      </trkpt>
      <trkpt lat="40.773070" lon="-8.485277">
        <ele>166.522</ele>
        <time>2015-03-23T08:42:58Z</time>
      </trkpt>
      <trkpt lat="40.773233" lon="-8.485418">
        <ele>166.529</ele>
        <time>2015-03-23T08:43:10Z</time>
      </trkpt>
      <trkpt lat="40.773457" lon="-8.485610">
        <ele>166.087</ele>
        <time>2015-03-23T08:43:21Z</time>
      </trkpt>
      <trkpt lat="40.773684" lon="-8.485807">
        <ele>166.042</ele>
        <time>2015-03-23T08:43:30Z</time>
      </trkpt>
      <trkpt lat="40.773777" lon="-8.485922">
        <ele>166.026</ele>
        <time>2015-03-23T08:43:35Z</time>
      </trkpt>
      <trkpt lat="40.774346" lon="-8.486319">
        <ele>164.507</ele>
        <time>2015-03-23T08:43:52Z</time>
      </trkpt>
      <trkpt lat="40.774884" lon="-8.486702">
        <ele>163.647</ele>
        <time>2015-03-23T08:44:06Z</time>
      </trkpt>
      <trkpt lat="40.775039" lon="-8.486785">
        <ele>164.550</ele>
        <time>2015-03-23T08:44:11Z</time>
      </trkpt>
      <trkpt lat="40.775637" lon="-8.486996">
        <ele>164.562</ele>
        <time>2015-03-23T08:44:27Z</time>
      </trkpt>
      <trkpt lat="40.776362" lon="-8.487188">
        <ele>162.152</ele>
        <time>2015-03-23T08:44:42Z</time>
      </trkpt>
      <trkpt lat="40.776984" lon="-8.487604">
        <ele>161.270</ele>
        <time>2015-03-23T08:44:57Z</time>
      </trkpt>
      <trkpt lat="40.777241" lon="-8.487939">
        <ele>160.795</ele>
        <time>2015-03-23T08:45:05Z</time>
      </trkpt>
      <trkpt lat="40.777717" lon="-8.488732">
        <ele>157.842</ele>
        <time>2015-03-23T08:45:19Z</time>
      </trkpt>
      <trkpt lat="40.778007" lon="-8.488883">
        <ele>157.355</ele>
        <time>2015-03-23T08:45:26Z</time>
      </trkpt>
      <trkpt lat="40.778235" lon="-8.488706">
        <ele>158.807</ele>
        <time>2015-03-23T08:45:34Z</time>
      </trkpt>
      <trkpt lat="40.778682" lon="-8.488587">
        <ele>159.717</ele>
        <time>2015-03-23T08:45:50Z</time>
      </trkpt>
      <trkpt lat="40.778803" lon="-8.488613">
        <ele>158.307</ele>
        <time>2015-03-23T08:46:24Z</time>
      </trkpt>
      <trkpt lat="40.779115" lon="-8.488623">
        <ele>154.444</ele>
        <time>2015-03-23T08:46:29Z</time>
      </trkpt>
      <trkpt lat="40.779285" lon="-8.488642">
        <ele>153.547</ele>
        <time>2015-03-23T08:46:31Z</time>
      </trkpt>
      <trkpt lat="40.779595" lon="-8.488735">
        <ele>152.059</ele>
        <time>2015-03-23T08:46:35Z</time>
      </trkpt>
      <trkpt lat="40.779884" lon="-8.488920">
        <ele>149.169</ele>
        <time>2015-03-23T08:46:39Z</time>
      </trkpt>
      <trkpt lat="40.780161" lon="-8.488839">
        <ele>145.377</ele>
        <time>2015-03-23T08:46:44Z</time>
      </trkpt>
      <trkpt lat="40.780255" lon="-8.488678">
        <ele>144.382</ele>
        <time>2015-03-23T08:46:46Z</time>
      </trkpt>
      <trkpt lat="40.780298" lon="-8.488599">
        <ele>144.399</ele>
        <time>2015-03-23T08:46:47Z</time>
      </trkpt>
      <trkpt lat="40.780483" lon="-8.488427">
        <ele>145.812</ele>
        <time>2015-03-23T08:46:51Z</time>
      </trkpt>
      <trkpt lat="40.780753" lon="-8.488385">
        <ele>149.132</ele>
        <time>2015-03-23T08:47:04Z</time>
      </trkpt>
      <trkpt lat="40.781121" lon="-8.488228">
        <ele>150.105</ele>
        <time>2015-03-23T08:47:20Z</time>
      </trkpt>
      <trkpt lat="40.781568" lon="-8.488162">
        <ele>150.607</ele>
        <time>2015-03-23T08:47:35Z</time>
      </trkpt>
      <trkpt lat="40.781981" lon="-8.488167">
        <ele>152.050</ele>
        <time>2015-03-23T08:47:51Z</time>
      </trkpt>
      <trkpt lat="40.782416" lon="-8.488195">
        <ele>153.023</ele>
        <time>2015-03-23T08:48:09Z</time>
      </trkpt>
      <trkpt lat="40.782776" lon="-8.488275">
        <ele>153.575</ele>
        <time>2015-03-23T08:48:24Z</time>
      </trkpt>
      <trkpt lat="40.783150" lon="-8.488421">
        <ele>154.045</ele>
        <time>2015-03-23T08:48:38Z</time>
      </trkpt>
      <trkpt lat="40.783317" lon="-8.488240">
        <ele>154.943</ele>
        <time>2015-03-23T08:48:47Z</time>
      </trkpt>
      <trkpt lat="40.783579" lon="-8.487912">
        <ele>157.838</ele>
        <time>2015-03-23T08:49:04Z</time>
      </trkpt>
      <trkpt lat="40.783848" lon="-8.487612">
        <ele>159.225</ele>
        <time>2015-03-23T08:49:22Z</time>
      </trkpt>
      <trkpt lat="40.783955" lon="-8.487207">
        <ele>160.726</ele>
        <time>2015-03-23T08:49:39Z</time>
      </trkpt>
      <trkpt lat="40.784036" lon="-8.486634">
        <ele>164.047</ele>
        <time>2015-03-23T08:50:02Z</time>
      </trkpt>
      <trkpt lat="40.784146" lon="-8.486220">
        <ele>166.011</ele>
        <time>2015-03-23T08:50:20Z</time>
      </trkpt>
      <trkpt lat="40.784261" lon="-8.485895">
        <ele>167.407</ele>
        <time>2015-03-23T08:50:34Z</time>
      </trkpt>
      <trkpt lat="40.784416" lon="-8.485510">
        <ele>169.881</ele>
        <time>2015-03-23T08:50:51Z</time>
      </trkpt>
      <trkpt lat="40.784607" lon="-8.485147">
        <ele>172.274</ele>
        <time>2015-03-23T08:51:08Z</time>
      </trkpt>
      <trkpt lat="40.784772" lon="-8.484793">
        <ele>173.256</ele>
        <time>2015-03-23T08:51:25Z</time>
      </trkpt>
      <trkpt lat="40.784968" lon="-8.484695">
        <ele>174.116</ele>
        <time>2015-03-23T08:51:39Z</time>
      </trkpt>
      <trkpt lat="40.785024" lon="-8.484647">
        <ele>174.624</ele>
        <time>2015-03-23T08:51:57Z</time>
      </trkpt>
      <trkpt lat="40.785253" lon="-8.484437">
        <ele>176.519</ele>
        <time>2015-03-23T08:52:14Z</time>
      </trkpt>
      <trkpt lat="40.785488" lon="-8.484311">
        <ele>178.916</ele>
        <time>2015-03-23T08:52:29Z</time>
      </trkpt>
      <trkpt lat="40.785733" lon="-8.484237">
        <ele>181.417</ele>
        <time>2015-03-23T08:52:45Z</time>
      </trkpt>
      <trkpt lat="40.785967" lon="-8.484117">
        <ele>182.887</ele>
        <time>2015-03-23T08:53:00Z</time>
      </trkpt>
      <trkpt lat="40.786210" lon="-8.484022">
        <ele>185.715</ele>
        <time>2015-03-23T08:53:16Z</time>
      </trkpt>
      <trkpt lat="40.786508" lon="-8.483878">
        <ele>188.607</ele>
        <time>2015-03-23T08:53:35Z</time>
      </trkpt>
      <trkpt lat="40.786665" lon="-8.483701">
        <ele>190.080</ele>
        <time>2015-03-23T08:53:48Z</time>
      </trkpt>
      <trkpt lat="40.786649" lon="-8.483545">
        <ele>191.043</ele>
        <time>2015-03-23T08:53:55Z</time>
      </trkpt>
      <trkpt lat="40.786709" lon="-8.483162">
        <ele>192.965</ele>
        <time>2015-03-23T08:54:12Z</time>
      </trkpt>
      <trkpt lat="40.786719" lon="-8.482725">
        <ele>194.825</ele>
        <time>2015-03-23T08:54:31Z</time>
      </trkpt>
      <trkpt lat="40.786885" lon="-8.482393">
        <ele>196.393</ele>
        <time>2015-03-23T08:54:47Z</time>
      </trkpt>
      <trkpt lat="40.787118" lon="-8.482048">
        <ele>196.738</ele>
        <time>2015-03-23T08:55:03Z</time>
      </trkpt>
      <trkpt lat="40.787341" lon="-8.481756">
        <ele>196.785</ele>
        <time>2015-03-23T08:55:38Z</time>
      </trkpt>
      <trkpt lat="40.787446" lon="-8.481502">
        <ele>194.851</ele>
        <time>2015-03-23T08:56:48Z</time>
      </trkpt>
      <trkpt lat="40.787829" lon="-8.481509">
        <ele>196.301</ele>
        <time>2015-03-23T08:57:04Z</time>
      </trkpt>
      <trkpt lat="40.788081" lon="-8.481249">
        <ele>198.711</ele>
        <time>2015-03-23T08:57:18Z</time>
      </trkpt>
      <trkpt lat="40.788342" lon="-8.481004">
        <ele>200.607</ele>
        <time>2015-03-23T08:57:33Z</time>
      </trkpt>
      <trkpt lat="40.788674" lon="-8.480753">
        <ele>202.064</ele>
        <time>2015-03-23T08:57:49Z</time>
      </trkpt>
      <trkpt lat="40.789138" lon="-8.480397">
        <ele>203.587</ele>
        <time>2015-03-23T08:58:11Z</time>
      </trkpt>
      <trkpt lat="40.789507" lon="-8.480124">
        <ele>205.989</ele>
        <time>2015-03-23T08:58:29Z</time>
      </trkpt>
      <trkpt lat="40.789901" lon="-8.479814">
        <ele>207.879</ele>
        <time>2015-03-23T08:58:49Z</time>
      </trkpt>
      <trkpt lat="40.790272" lon="-8.479673">
        <ele>208.747</ele>
        <time>2015-03-23T08:59:06Z</time>
      </trkpt>
      <trkpt lat="40.790570" lon="-8.479403">
        <ele>209.772</ele>
        <time>2015-03-23T08:59:22Z</time>
      </trkpt>
      <trkpt lat="40.790862" lon="-8.479215">
        <ele>211.219</ele>
        <time>2015-03-23T08:59:37Z</time>
      </trkpt>
      <trkpt lat="40.791122" lon="-8.479001">
        <ele>213.677</ele>
        <time>2015-03-23T08:59:53Z</time>
      </trkpt>
      <trkpt lat="40.791364" lon="-8.478806">
        <ele>216.061</ele>
        <time>2015-03-23T09:00:10Z</time>
      </trkpt>
      <trkpt lat="40.791602" lon="-8.478633">
        <ele>219.327</ele>
        <time>2015-03-23T09:00:28Z</time>
      </trkpt>
      <trkpt lat="40.791795" lon="-8.478491">
        <ele>221.707</ele>
        <time>2015-03-23T09:00:43Z</time>
      </trkpt>
      <trkpt lat="40.792005" lon="-8.478312">
        <ele>223.216</ele>
        <time>2015-03-23T09:00:59Z</time>
      </trkpt>
      <trkpt lat="40.792243" lon="-8.478013">
        <ele>224.149</ele>
        <time>2015-03-23T09:01:16Z</time>
      </trkpt>
      <trkpt lat="40.792445" lon="-8.477691">
        <ele>224.671</ele>
        <time>2015-03-23T09:01:34Z</time>
      </trkpt>
      <trkpt lat="40.792643" lon="-8.477476">
        <ele>228.071</ele>
        <time>2015-03-23T09:01:50Z</time>
      </trkpt>
      <trkpt lat="40.792696" lon="-8.477420">
        <ele>228.019</ele>
        <time>2015-03-23T09:01:54Z</time>
      </trkpt>
      <trkpt lat="40.792981" lon="-8.477261">
        <ele>228.964</ele>
        <time>2015-03-23T09:02:10Z</time>
      </trkpt>
      <trkpt lat="40.793381" lon="-8.477259">
        <ele>228.911</ele>
        <time>2015-03-23T09:02:24Z</time>
      </trkpt>
      <trkpt lat="40.793749" lon="-8.477433">
        <ele>229.437</ele>
        <time>2015-03-23T09:02:40Z</time>
      </trkpt>
      <trkpt lat="40.794100" lon="-8.477703">
        <ele>230.449</ele>
        <time>2015-03-23T09:02:54Z</time>
      </trkpt>
      <trkpt lat="40.794547" lon="-8.477990">
        <ele>230.413</ele>
        <time>2015-03-23T09:03:10Z</time>
      </trkpt>
      <trkpt lat="40.794914" lon="-8.478053">
        <ele>230.407</ele>
        <time>2015-03-23T09:03:23Z</time>
      </trkpt>
      <trkpt lat="40.795298" lon="-8.478017">
        <ele>228.912</ele>
        <time>2015-03-23T09:03:39Z</time>
      </trkpt>
      <trkpt lat="40.795357" lon="-8.478023">
        <ele>230.445</ele>
        <time>2015-03-23T09:03:42Z</time>
      </trkpt>
      <trkpt lat="40.795733" lon="-8.478145">
        <ele>233.377</ele>
        <time>2015-03-23T09:04:02Z</time>
      </trkpt>
      <trkpt lat="40.796111" lon="-8.478162">
        <ele>233.797</ele>
        <time>2015-03-23T09:04:18Z</time>
      </trkpt>
      <trkpt lat="40.796474" lon="-8.478196">
        <ele>235.235</ele>
        <time>2015-03-23T09:04:33Z</time>
      </trkpt>
      <trkpt lat="40.796817" lon="-8.478244">
        <ele>235.210</ele>
        <time>2015-03-23T09:05:16Z</time>
      </trkpt>
      <trkpt lat="40.797177" lon="-8.478395">
        <ele>231.847</ele>
        <time>2015-03-23T09:15:47Z</time>
      </trkpt>
      <trkpt lat="40.797284" lon="-8.478442">
        <ele>231.385</ele>
        <time>2015-03-23T09:15:50Z</time>
      </trkpt>
      <trkpt lat="40.797540" lon="-8.478765">
        <ele>228.589</ele>
        <time>2015-03-23T09:15:57Z</time>
      </trkpt>
      <trkpt lat="40.797796" lon="-8.479288">
        <ele>229.417</ele>
        <time>2015-03-23T09:16:07Z</time>
      </trkpt>
      <trkpt lat="40.798008" lon="-8.479581">
        <ele>231.807</ele>
        <time>2015-03-23T09:16:23Z</time>
      </trkpt>
      <trkpt lat="40.798222" lon="-8.479725">
        <ele>232.317</ele>
        <time>2015-03-23T09:16:37Z</time>
      </trkpt>
      <trkpt lat="40.798310" lon="-8.479754">
        <ele>232.870</ele>
        <time>2015-03-23T09:16:44Z</time>
      </trkpt>
      <trkpt lat="40.798611" lon="-8.479909">
        <ele>233.762</ele>
        <time>2015-03-23T09:16:59Z</time>
      </trkpt>
      <trkpt lat="40.798930" lon="-8.480188">
        <ele>231.362</ele>
        <time>2015-03-23T09:17:07Z</time>
      </trkpt>
      <trkpt lat="40.799173" lon="-8.480438">
        <ele>228.540</ele>
        <time>2015-03-23T09:17:12Z</time>
      </trkpt>
      <trkpt lat="40.799191" lon="-8.480847">
        <ele>226.185</ele>
        <time>2015-03-23T09:17:19Z</time>
      </trkpt>
      <trkpt lat="40.799139" lon="-8.480888">
        <ele>226.162</ele>
        <time>2015-03-23T09:17:20Z</time>
      </trkpt>
      <trkpt lat="40.798908" lon="-8.481020">
        <ele>223.237</ele>
        <time>2015-03-23T09:17:24Z</time>
      </trkpt>
      <trkpt lat="40.798439" lon="-8.480950">
        <ele>220.349</ele>
        <time>2015-03-23T09:17:31Z</time>
      </trkpt>
      <trkpt lat="40.798179" lon="-8.480717">
        <ele>217.913</ele>
        <time>2015-03-23T09:17:36Z</time>
      </trkpt>
      <trkpt lat="40.797884" lon="-8.480838">
        <ele>214.507</ele>
        <time>2015-03-23T09:17:43Z</time>
      </trkpt>
      <trkpt lat="40.797856" lon="-8.481027">
        <ele>212.652</ele>
        <time>2015-03-23T09:17:46Z</time>
      </trkpt>
      <trkpt lat="40.797859" lon="-8.481095">
        <ele>212.175</ele>
        <time>2015-03-23T09:17:56Z</time>
      </trkpt>
      <trkpt lat="40.797778" lon="-8.481320">
        <ele>212.147</ele>
        <time>2015-03-23T09:18:13Z</time>
      </trkpt>
      <trkpt lat="40.797739" lon="-8.481460">
        <ele>211.697</ele>
        <time>2015-03-23T09:18:16Z</time>
      </trkpt>
      <trkpt lat="40.797871" lon="-8.481818">
        <ele>211.235</ele>
        <time>2015-03-23T09:18:25Z</time>
      </trkpt>
      <trkpt lat="40.797948" lon="-8.481836">
        <ele>211.270</ele>
        <time>2015-03-23T09:18:28Z</time>
      </trkpt>
      <trkpt lat="40.798284" lon="-8.481811">
        <ele>214.017</ele>
        <time>2015-03-23T09:18:43Z</time>
      </trkpt>
      <trkpt lat="40.798348" lon="-8.481828">
        <ele>214.546</ele>
        <time>2015-03-23T09:18:47Z</time>
      </trkpt>
      <trkpt lat="40.798737" lon="-8.481810">
        <ele>216.488</ele>
        <time>2015-03-23T09:19:03Z</time>
      </trkpt>
      <trkpt lat="40.799205" lon="-8.481868">
        <ele>217.416</ele>
        <time>2015-03-23T09:19:19Z</time>
      </trkpt>
      <trkpt lat="40.799687" lon="-8.481814">
        <ele>217.907</ele>
        <time>2015-03-23T09:19:33Z</time>
      </trkpt>
      <trkpt lat="40.800287" lon="-8.481360">
        <ele>217.483</ele>
        <time>2015-03-23T09:19:51Z</time>
      </trkpt>
      <trkpt lat="40.800346" lon="-8.481308">
        <ele>217.456</ele>
        <time>2015-03-23T09:19:53Z</time>
      </trkpt>
      <trkpt lat="40.800509" lon="-8.481313">
        <ele>217.498</ele>
        <time>2015-03-23T09:19:57Z</time>
      </trkpt>
      <trkpt lat="40.801188" lon="-8.481564">
        <ele>213.198</ele>
        <time>2015-03-23T09:20:10Z</time>
      </trkpt>
      <trkpt lat="40.801620" lon="-8.481890">
        <ele>210.796</ele>
        <time>2015-03-23T09:20:16Z</time>
      </trkpt>
      <trkpt lat="40.801941" lon="-8.482120">
        <ele>207.361</ele>
        <time>2015-03-23T09:20:20Z</time>
      </trkpt>
      <trkpt lat="40.802376" lon="-8.482458">
        <ele>203.958</ele>
        <time>2015-03-23T09:20:25Z</time>
      </trkpt>
      <trkpt lat="40.802834" lon="-8.482793">
        <ele>200.665</ele>
        <time>2015-03-23T09:20:30Z</time>
      </trkpt>
      <trkpt lat="40.803347" lon="-8.483074">
        <ele>197.268</ele>
        <time>2015-03-23T09:20:35Z</time>
      </trkpt>
      <trkpt lat="40.803561" lon="-8.483176">
        <ele>196.314</ele>
        <time>2015-03-23T09:20:37Z</time>
      </trkpt>
      <trkpt lat="40.804320" lon="-8.483578">
        <ele>192.907</ele>
        <time>2015-03-23T09:20:45Z</time>
      </trkpt>
      <trkpt lat="40.804657" lon="-8.483850">
        <ele>188.165</ele>
        <time>2015-03-23T09:20:50Z</time>
      </trkpt>
      <trkpt lat="40.804894" lon="-8.483958">
        <ele>183.858</ele>
        <time>2015-03-23T09:20:53Z</time>
      </trkpt>
      <trkpt lat="40.805074" lon="-8.484026">
        <ele>180.470</ele>
        <time>2015-03-23T09:20:55Z</time>
      </trkpt>
      <trkpt lat="40.805344" lon="-8.484137">
        <ele>176.590</ele>
        <time>2015-03-23T09:20:58Z</time>
      </trkpt>
      <trkpt lat="40.805427" lon="-8.484177">
        <ele>176.198</ele>
        <time>2015-03-23T09:20:59Z</time>
      </trkpt>
      <trkpt lat="40.805753" lon="-8.484468">
        <ele>174.183</ele>
        <time>2015-03-23T09:21:06Z</time>
      </trkpt>
      <trkpt lat="40.806066" lon="-8.484345">
        <ele>170.890</ele>
        <time>2015-03-23T09:21:14Z</time>
      </trkpt>
      <trkpt lat="40.806328" lon="-8.483981">
        <ele>167.969</ele>
        <time>2015-03-23T09:21:19Z</time>
      </trkpt>
      <trkpt lat="40.807081" lon="-8.483447">
        <ele>163.604</ele>
        <time>2015-03-23T09:21:29Z</time>
      </trkpt>
      <trkpt lat="40.807377" lon="-8.483299">
        <ele>163.124</ele>
        <time>2015-03-23T09:21:33Z</time>
      </trkpt>
      <trkpt lat="40.808035" lon="-8.483301">
        <ele>160.207</ele>
        <time>2015-03-23T09:21:41Z</time>
      </trkpt>
      <trkpt lat="40.808118" lon="-8.483322">
        <ele>159.795</ele>
        <time>2015-03-23T09:21:42Z</time>
      </trkpt>
      <trkpt lat="40.808614" lon="-8.483558">
        <ele>155.958</ele>
        <time>2015-03-23T09:21:48Z</time>
      </trkpt>
      <trkpt lat="40.808797" lon="-8.483588">
        <ele>155.420</ele>
        <time>2015-03-23T09:21:50Z</time>
      </trkpt>
      <trkpt lat="40.809431" lon="-8.483590">
        <ele>153.070</ele>
        <time>2015-03-23T09:21:57Z</time>
      </trkpt>
      <trkpt lat="40.810452" lon="-8.483847">
        <ele>152.578</ele>
        <time>2015-03-23T09:22:12Z</time>
      </trkpt>
      <trkpt lat="40.811320" lon="-8.484282">
        <ele>151.513</ele>
        <time>2015-03-23T09:22:31Z</time>
      </trkpt>
      <trkpt lat="40.811637" lon="-8.484493">
        <ele>150.190</ele>
        <time>2015-03-23T09:22:37Z</time>
      </trkpt>
      <trkpt lat="40.811966" lon="-8.485091">
        <ele>146.715</ele>
        <time>2015-03-23T09:22:45Z</time>
      </trkpt>
      <trkpt lat="40.811973" lon="-8.485431">
        <ele>144.365</ele>
        <time>2015-03-23T09:22:48Z</time>
      </trkpt>
      <trkpt lat="40.811954" lon="-8.485678">
        <ele>141.911</ele>
        <time>2015-03-23T09:22:50Z</time>
      </trkpt>
      <trkpt lat="40.811979" lon="-8.486061">
        <ele>137.607</ele>
        <time>2015-03-23T09:22:53Z</time>
      </trkpt>
      <trkpt lat="40.812034" lon="-8.486265">
        <ele>134.780</ele>
        <time>2015-03-23T09:22:55Z</time>
      </trkpt>
      <trkpt lat="40.812216" lon="-8.486465">
        <ele>130.453</ele>
        <time>2015-03-23T09:23:00Z</time>
      </trkpt>
      <trkpt lat="40.812298" lon="-8.486403">
        <ele>130.485</ele>
        <time>2015-03-23T09:23:02Z</time>
      </trkpt>
      <trkpt lat="40.812957" lon="-8.485818">
        <ele>130.425</ele>
        <time>2015-03-23T09:23:19Z</time>
      </trkpt>
      <trkpt lat="40.813528" lon="-8.485377">
        <ele>127.013</ele>
        <time>2015-03-23T09:23:31Z</time>
      </trkpt>
      <trkpt lat="40.813772" lon="-8.485245">
        <ele>124.618</ele>
        <time>2015-03-23T09:23:34Z</time>
      </trkpt>
      <trkpt lat="40.814059" lon="-8.484927">
        <ele>121.785</ele>
        <time>2015-03-23T09:23:38Z</time>
      </trkpt>
      <trkpt lat="40.814353" lon="-8.484388">
        <ele>118.444</ele>
        <time>2015-03-23T09:23:43Z</time>
      </trkpt>
      <trkpt lat="40.814474" lon="-8.483901">
        <ele>116.505</ele>
        <time>2015-03-23T09:23:47Z</time>
      </trkpt>
      <trkpt lat="40.814390" lon="-8.483210">
        <ele>114.115</ele>
        <time>2015-03-23T09:23:53Z</time>
      </trkpt>
      <trkpt lat="40.814424" lon="-8.482599">
        <ele>116.907</ele>
        <time>2015-03-23T09:24:01Z</time>
      </trkpt>
      <trkpt lat="40.814581" lon="-8.482346">
        <ele>119.853</ele>
        <time>2015-03-23T09:24:16Z</time>
      </trkpt>
      <trkpt lat="40.814739" lon="-8.482180">
        <ele>121.746</ele>
        <time>2015-03-23T09:24:30Z</time>
      </trkpt>
      <trkpt lat="40.814949" lon="-8.482170">
        <ele>124.668</ele>
        <time>2015-03-23T09:24:46Z</time>
      </trkpt>
      <trkpt lat="40.815181" lon="-8.482152">
        <ele>127.518</ele>
        <time>2015-03-23T09:25:03Z</time>
      </trkpt>
      <trkpt lat="40.815374" lon="-8.482154">
        <ele>130.996</ele>
        <time>2015-03-23T09:25:18Z</time>
      </trkpt>
      <trkpt lat="40.815617" lon="-8.482102">
        <ele>132.881</ele>
        <time>2015-03-23T09:25:35Z</time>
      </trkpt>
      <trkpt lat="40.815763" lon="-8.482116">
        <ele>134.258</ele>
        <time>2015-03-23T09:25:45Z</time>
      </trkpt>
      <trkpt lat="40.815865" lon="-8.482174">
        <ele>135.214</ele>
        <time>2015-03-23T09:25:52Z</time>
      </trkpt>
      <trkpt lat="40.815849" lon="-8.482076">
        <ele>136.654</ele>
        <time>2015-03-23T09:26:01Z</time>
      </trkpt>
      <trkpt lat="40.815721" lon="-8.481795">
        <ele>139.109</ele>
        <time>2015-03-23T09:26:20Z</time>
      </trkpt>
      <trkpt lat="40.815982" lon="-8.481780">
        <ele>139.107</ele>
        <time>2015-03-23T09:26:39Z</time>
      </trkpt>
      <trkpt lat="40.816056" lon="-8.481755">
        <ele>139.140</ele>
        <time>2015-03-23T09:26:43Z</time>
      </trkpt>
      <trkpt lat="40.816119" lon="-8.481736">
        <ele>139.113</ele>
        <time>2015-03-23T09:26:47Z</time>
      </trkpt>
      <trkpt lat="40.816604" lon="-8.481467">
        <ele>136.635</ele>
        <time>2015-03-23T09:27:06Z</time>
      </trkpt>
      <trkpt lat="40.816944" lon="-8.480999">
        <ele>134.295</ele>
        <time>2015-03-23T09:27:21Z</time>
      </trkpt>
      <trkpt lat="40.816975" lon="-8.480951">
        <ele>133.353</ele>
        <time>2015-03-23T09:27:22Z</time>
      </trkpt>
      <trkpt lat="40.817032" lon="-8.480873">
        <ele>131.898</ele>
        <time>2015-03-23T09:27:24Z</time>
      </trkpt>
      <trkpt lat="40.817103" lon="-8.480730">
        <ele>128.515</ele>
        <time>2015-03-23T09:27:27Z</time>
      </trkpt>
      <trkpt lat="40.817242" lon="-8.480567">
        <ele>123.718</ele>
        <time>2015-03-23T09:27:31Z</time>
      </trkpt>
      <trkpt lat="40.817394" lon="-8.480545">
        <ele>121.398</ele>
        <time>2015-03-23T09:27:34Z</time>
      </trkpt>
      <trkpt lat="40.817597" lon="-8.480577">
        <ele>118.417</ele>
        <time>2015-03-23T09:27:37Z</time>
      </trkpt>
      <trkpt lat="40.817860" lon="-8.480558">
        <ele>114.507</ele>
        <time>2015-03-23T09:27:41Z</time>
      </trkpt>
      <trkpt lat="40.818085" lon="-8.480452">
        <ele>111.270</ele>
        <time>2015-03-23T09:27:45Z</time>
      </trkpt>
      <trkpt lat="40.818127" lon="-8.480390">
        <ele>110.713</ele>
        <time>2015-03-23T09:27:46Z</time>
      </trkpt>
      <trkpt lat="40.818707" lon="-8.479605">
        <ele>109.795</ele>
        <time>2015-03-23T09:28:02Z</time>
      </trkpt>
      <trkpt lat="40.819124" lon="-8.479036">
        <ele>108.845</ele>
        <time>2015-03-23T09:28:19Z</time>
      </trkpt>
      <trkpt lat="40.819511" lon="-8.478488">
        <ele>108.823</ele>
        <time>2015-03-23T09:28:36Z</time>
      </trkpt>
      <trkpt lat="40.819744" lon="-8.478355">
        <ele>110.238</ele>
        <time>2015-03-23T09:28:47Z</time>
      </trkpt>
      <trkpt lat="40.820226" lon="-8.478141">
        <ele>110.225</ele>
        <time>2015-03-23T09:29:02Z</time>
      </trkpt>
      <trkpt lat="40.820771" lon="-8.477927">
        <ele>110.227</ele>
        <time>2015-03-23T09:29:19Z</time>
      </trkpt>
      <trkpt lat="40.821261" lon="-8.477829">
        <ele>110.768</ele>
        <time>2015-03-23T09:29:37Z</time>
      </trkpt>
      <trkpt lat="40.821623" lon="-8.477826">
        <ele>112.114</ele>
        <time>2015-03-23T09:29:55Z</time>
      </trkpt>
      <trkpt lat="40.821784" lon="-8.477878">
        <ele>115.507</ele>
        <time>2015-03-23T09:30:08Z</time>
      </trkpt>
      <trkpt lat="40.822009" lon="-8.477880">
        <ele>117.441</ele>
        <time>2015-03-23T09:30:24Z</time>
      </trkpt>
      <trkpt lat="40.822221" lon="-8.477946">
        <ele>118.444</ele>
        <time>2015-03-23T09:30:40Z</time>
      </trkpt>
      <trkpt lat="40.822419" lon="-8.478045">
        <ele>118.946</ele>
        <time>2015-03-23T09:30:55Z</time>
      </trkpt>
      <trkpt lat="40.822624" lon="-8.478234">
        <ele>121.726</ele>
        <time>2015-03-23T09:31:12Z</time>
      </trkpt>
      <trkpt lat="40.822799" lon="-8.478513">
        <ele>123.284</ele>
        <time>2015-03-23T09:31:29Z</time>
      </trkpt>
      <trkpt lat="40.823106" lon="-8.478552">
        <ele>119.879</ele>
        <time>2015-03-23T09:31:36Z</time>
      </trkpt>
      <trkpt lat="40.823176" lon="-8.478543">
        <ele>119.836</ele>
        <time>2015-03-23T09:31:37Z</time>
      </trkpt>
      <trkpt lat="40.823432" lon="-8.478380">
        <ele>118.942</ele>
        <time>2015-03-23T09:31:41Z</time>
      </trkpt>
      <trkpt lat="40.823759" lon="-8.478057">
        <ele>118.422</ele>
        <time>2015-03-23T09:31:48Z</time>
      </trkpt>
      <trkpt lat="40.823895" lon="-8.478028">
        <ele>119.814</ele>
        <time>2015-03-23T09:31:52Z</time>
      </trkpt>
      <trkpt lat="40.824087" lon="-8.478074">
        <ele>123.207</ele>
        <time>2015-03-23T09:32:06Z</time>
      </trkpt>
      <trkpt lat="40.824298" lon="-8.478126">
        <ele>126.643</ele>
        <time>2015-03-23T09:32:22Z</time>
      </trkpt>
      <trkpt lat="40.824521" lon="-8.478149">
        <ele>129.466</ele>
        <time>2015-03-23T09:32:39Z</time>
      </trkpt>
      <trkpt lat="40.824765" lon="-8.478203">
        <ele>131.438</ele>
        <time>2015-03-23T09:32:56Z</time>
      </trkpt>
      <trkpt lat="40.825009" lon="-8.478294">
        <ele>133.388</ele>
        <time>2015-03-23T09:33:13Z</time>
      </trkpt>
      <trkpt lat="40.825269" lon="-8.478367">
        <ele>135.766</ele>
        <time>2015-03-23T09:33:30Z</time>
      </trkpt>
      <trkpt lat="40.825516" lon="-8.478424">
        <ele>137.691</ele>
        <time>2015-03-23T09:33:47Z</time>
      </trkpt>
      <trkpt lat="40.825759" lon="-8.478480">
        <ele>141.038</ele>
        <time>2015-03-23T09:34:04Z</time>
      </trkpt>
      <trkpt lat="40.826007" lon="-8.478563">
        <ele>142.952</ele>
        <time>2015-03-23T09:34:21Z</time>
      </trkpt>
      <trkpt lat="40.826247" lon="-8.478644">
        <ele>144.353</ele>
        <time>2015-03-23T09:34:37Z</time>
      </trkpt>
      <trkpt lat="40.826549" lon="-8.478715">
        <ele>144.808</ele>
        <time>2015-03-23T09:34:54Z</time>
      </trkpt>
      <trkpt lat="40.826870" lon="-8.478829">
        <ele>146.307</ele>
        <time>2015-03-23T09:35:13Z</time>
      </trkpt>
      <trkpt lat="40.827136" lon="-8.478969">
        <ele>148.214</ele>
        <time>2015-03-23T09:35:31Z</time>
      </trkpt>
      <trkpt lat="40.827318" lon="-8.479176">
        <ele>149.117</ele>
        <time>2015-03-23T09:35:45Z</time>
      </trkpt>
      <trkpt lat="40.827591" lon="-8.479494">
        <ele>151.559</ele>
        <time>2015-03-23T09:36:06Z</time>
      </trkpt>
      <trkpt lat="40.827849" lon="-8.479698">
        <ele>154.469</ele>
        <time>2015-03-23T09:36:25Z</time>
      </trkpt>
      <trkpt lat="40.828111" lon="-8.479767">
        <ele>155.937</ele>
        <time>2015-03-23T09:36:41Z</time>
      </trkpt>
      <trkpt lat="40.828438" lon="-8.479811">
        <ele>158.392</ele>
        <time>2015-03-23T09:36:59Z</time>
      </trkpt>
      <trkpt lat="40.828533" lon="-8.479803">
        <ele>158.849</ele>
        <time>2015-03-23T09:37:12Z</time>
      </trkpt>
      <trkpt lat="40.828666" lon="-8.479789">
        <ele>159.257</ele>
        <time>2015-03-23T09:37:33Z</time>
      </trkpt>
      <trkpt lat="40.828958" lon="-8.479756">
        <ele>160.700</ele>
        <time>2015-03-23T09:37:51Z</time>
      </trkpt>
      <trkpt lat="40.829220" lon="-8.479706">
        <ele>163.120</ele>
        <time>2015-03-23T09:38:10Z</time>
      </trkpt>
      <trkpt lat="40.829416" lon="-8.479703">
        <ele>165.507</ele>
        <time>2015-03-23T09:38:25Z</time>
      </trkpt>
      <trkpt lat="40.829664" lon="-8.479626">
        <ele>168.424</ele>
        <time>2015-03-23T09:38:43Z</time>
      </trkpt>
      <trkpt lat="40.829938" lon="-8.479532">
        <ele>171.337</ele>
        <time>2015-03-23T09:39:03Z</time>
      </trkpt>
      <trkpt lat="40.830168" lon="-8.479441">
        <ele>174.119</ele>
        <time>2015-03-23T09:39:21Z</time>
      </trkpt>
      <trkpt lat="40.830403" lon="-8.479369">
        <ele>177.099</ele>
        <time>2015-03-23T09:39:39Z</time>
      </trkpt>
      <trkpt lat="40.830644" lon="-8.479285">
        <ele>178.967</ele>
        <time>2015-03-23T09:39:57Z</time>
      </trkpt>
      <trkpt lat="40.830910" lon="-8.479184">
        <ele>182.392</ele>
        <time>2015-03-23T09:40:17Z</time>
      </trkpt>
      <trkpt lat="40.831032" lon="-8.479146">
        <ele>183.889</ele>
        <time>2015-03-23T09:40:27Z</time>
      </trkpt>
      <trkpt lat="40.831107" lon="-8.479148">
        <ele>185.288</ele>
        <time>2015-03-23T09:40:33Z</time>
      </trkpt>
      <trkpt lat="40.831247" lon="-8.479131">
        <ele>184.724</ele>
        <time>2015-03-23T09:40:41Z</time>
      </trkpt>
      <trkpt lat="40.831311" lon="-8.479155">
        <ele>185.726</ele>
        <time>2015-03-23T09:40:47Z</time>
      </trkpt>
      <trkpt lat="40.831452" lon="-8.479108">
        <ele>187.607</ele>
        <time>2015-03-23T09:40:58Z</time>
      </trkpt>
      <trkpt lat="40.831712" lon="-8.479111">
        <ele>189.537</ele>
        <time>2015-03-23T09:41:16Z</time>
      </trkpt>
      <trkpt lat="40.832012" lon="-8.479068">
        <ele>191.030</ele>
        <time>2015-03-23T09:41:36Z</time>
      </trkpt>
      <trkpt lat="40.832258" lon="-8.479022">
        <ele>193.812</ele>
        <time>2015-03-23T09:41:54Z</time>
      </trkpt>
      <trkpt lat="40.832492" lon="-8.478931">
        <ele>197.252</ele>
        <time>2015-03-23T09:42:13Z</time>
      </trkpt>
      <trkpt lat="40.832675" lon="-8.478836">
        <ele>200.190</ele>
        <time>2015-03-23T09:42:29Z</time>
      </trkpt>
      <trkpt lat="40.832864" lon="-8.478732">
        <ele>203.515</ele>
        <time>2015-03-23T09:42:46Z</time>
      </trkpt>
      <trkpt lat="40.833050" lon="-8.478576">
        <ele>206.342</ele>
        <time>2015-03-23T09:43:04Z</time>
      </trkpt>
      <trkpt lat="40.833117" lon="-8.478522">
        <ele>207.397</ele>
        <time>2015-03-23T09:43:10Z</time>
      </trkpt>
      <trkpt lat="40.833323" lon="-8.478284">
        <ele>210.223</ele>
        <time>2015-03-23T09:43:30Z</time>
      </trkpt>
      <trkpt lat="40.833530" lon="-8.478071">
        <ele>211.625</ele>
        <time>2015-03-23T09:43:47Z</time>
      </trkpt>
      <trkpt lat="40.833769" lon="-8.477927">
        <ele>212.107</ele>
        <time>2015-03-23T09:44:03Z</time>
      </trkpt>
      <trkpt lat="40.834001" lon="-8.478032">
        <ele>212.178</ele>
        <time>2015-03-23T09:44:17Z</time>
      </trkpt>
      <trkpt lat="40.834313" lon="-8.478177">
        <ele>213.191</ele>
        <time>2015-03-23T09:44:33Z</time>
      </trkpt>
      <trkpt lat="40.834686" lon="-8.478353">
        <ele>214.023</ele>
        <time>2015-03-23T09:44:50Z</time>
      </trkpt>
      <trkpt lat="40.835087" lon="-8.478431">
        <ele>214.093</ele>
        <time>2015-03-23T09:45:03Z</time>
      </trkpt>
      <trkpt lat="40.835477" lon="-8.478481">
        <ele>212.651</ele>
        <time>2015-03-23T09:45:14Z</time>
      </trkpt>
      <trkpt lat="40.835841" lon="-8.478355">
        <ele>211.676</ele>
        <time>2015-03-23T09:45:24Z</time>
      </trkpt>
      <trkpt lat="40.836208" lon="-8.478341">
        <ele>211.643</ele>
        <time>2015-03-23T09:45:36Z</time>
      </trkpt>
      <trkpt lat="40.836492" lon="-8.478293">
        <ele>211.632</ele>
        <time>2015-03-23T09:45:49Z</time>
      </trkpt>
      <trkpt lat="40.836692" lon="-8.478209">
        <ele>212.692</ele>
        <time>2015-03-23T09:46:31Z</time>
      </trkpt>
      <trkpt lat="40.836974" lon="-8.478075">
        <ele>213.111</ele>
        <time>2015-03-23T09:46:43Z</time>
      </trkpt>
      <trkpt lat="40.837288" lon="-8.478022">
        <ele>214.007</ele>
        <time>2015-03-23T09:46:54Z</time>
      </trkpt>
      <trkpt lat="40.837702" lon="-8.478032">
        <ele>214.542</ele>
        <time>2015-03-23T09:47:09Z</time>
      </trkpt>
      <trkpt lat="40.837920" lon="-8.478031">
        <ele>215.065</ele>
        <time>2015-03-23T09:47:17Z</time>
      </trkpt>
      <trkpt lat="40.838336" lon="-8.478006">
        <ele>216.097</ele>
        <time>2015-03-23T09:47:33Z</time>
      </trkpt>
      <trkpt lat="40.838576" lon="-8.477924">
        <ele>216.037</ele>
        <time>2015-03-23T09:47:43Z</time>
      </trkpt>
      <trkpt lat="40.838622" lon="-8.477878">
        <ele>216.095</ele>
        <time>2015-03-23T09:47:47Z</time>
      </trkpt>
      <trkpt lat="40.838696" lon="-8.477824">
        <ele>217.450</ele>
        <time>2015-03-23T09:51:27Z</time>
      </trkpt>
      <trkpt lat="40.838821" lon="-8.477869">
        <ele>216.937</ele>
        <time>2015-03-23T09:58:58Z</time>
      </trkpt>
      <trkpt lat="40.838903" lon="-8.477875">
        <ele>216.982</ele>
        <time>2015-03-23T09:59:10Z</time>
      </trkpt>
      <trkpt lat="40.839172" lon="-8.477806">
        <ele>217.443</ele>
        <time>2015-03-23T09:59:25Z</time>
      </trkpt>
      <trkpt lat="40.839414" lon="-8.477775">
        <ele>217.917</ele>
        <time>2015-03-23T09:59:38Z</time>
      </trkpt>
      <trkpt lat="40.839727" lon="-8.477804">
        <ele>218.407</ele>
        <time>2015-03-23T09:59:52Z</time>
      </trkpt>
      <trkpt lat="40.839977" lon="-8.477763">
        <ele>219.837</ele>
        <time>2015-03-23T10:00:05Z</time>
      </trkpt>
      <trkpt lat="40.840211" lon="-8.477704">
        <ele>220.310</ele>
        <time>2015-03-23T10:00:20Z</time>
      </trkpt>
      <trkpt lat="40.840392" lon="-8.477679">
        <ele>220.352</ele>
        <time>2015-03-23T10:00:55Z</time>
      </trkpt>
      <trkpt lat="40.840576" lon="-8.477640">
        <ele>221.272</ele>
        <time>2015-03-23T10:01:07Z</time>
      </trkpt>
      <trkpt lat="40.840667" lon="-8.477657">
        <ele>221.220</ele>
        <time>2015-03-23T10:01:57Z</time>
      </trkpt>
      <trkpt lat="40.840816" lon="-8.477623">
        <ele>222.275</ele>
        <time>2015-03-23T10:02:06Z</time>
      </trkpt>
      <trkpt lat="40.841083" lon="-8.477497">
        <ele>223.692</ele>
        <time>2015-03-23T10:02:22Z</time>
      </trkpt>
      <trkpt lat="40.841248" lon="-8.477455">
        <ele>225.136</ele>
        <time>2015-03-23T10:02:34Z</time>
      </trkpt>
      <trkpt lat="40.841435" lon="-8.477369">
        <ele>227.517</ele>
        <time>2015-03-23T10:02:50Z</time>
      </trkpt>
      <trkpt lat="40.841501" lon="-8.477365">
        <ele>228.918</ele>
        <time>2015-03-23T10:02:55Z</time>
      </trkpt>
      <trkpt lat="40.841670" lon="-8.477339">
        <ele>230.907</ele>
        <time>2015-03-23T10:03:09Z</time>
      </trkpt>
      <trkpt lat="40.841744" lon="-8.477328">
        <ele>230.992</ele>
        <time>2015-03-23T10:03:20Z</time>
      </trkpt>
      <trkpt lat="40.842048" lon="-8.477526">
        <ele>230.965</ele>
        <time>2015-03-23T10:03:36Z</time>
      </trkpt>
      <trkpt lat="40.842708" lon="-8.477637">
        <ele>229.947</ele>
        <time>2015-03-23T10:03:54Z</time>
      </trkpt>
      <trkpt lat="40.843093" lon="-8.477278">
        <ele>226.137</ele>
        <time>2015-03-23T10:04:05Z</time>
      </trkpt>
      <trkpt lat="40.843311" lon="-8.477077">
        <ele>222.295</ele>
        <time>2015-03-23T10:04:08Z</time>
      </trkpt>
      <trkpt lat="40.843538" lon="-8.476902">
        <ele>218.870</ele>
        <time>2015-03-23T10:04:11Z</time>
      </trkpt>
      <trkpt lat="40.843928" lon="-8.476952">
        <ele>213.197</ele>
        <time>2015-03-23T10:04:16Z</time>
      </trkpt>
      <trkpt lat="40.844003" lon="-8.477026">
        <ele>212.132</ele>
        <time>2015-03-23T10:04:17Z</time>
      </trkpt>
      <trkpt lat="40.844221" lon="-8.477288">
        <ele>207.892</ele>
        <time>2015-03-23T10:04:20Z</time>
      </trkpt>
      <trkpt lat="40.844284" lon="-8.477381">
        <ele>205.911</ele>
        <time>2015-03-23T10:04:21Z</time>
      </trkpt>
      <trkpt lat="40.844416" lon="-8.477659">
        <ele>201.107</ele>
        <time>2015-03-23T10:04:24Z</time>
      </trkpt>
      <trkpt lat="40.844447" lon="-8.477744">
        <ele>199.682</ele>
        <time>2015-03-23T10:04:25Z</time>
      </trkpt>
      <trkpt lat="40.844650" lon="-8.477996">
        <ele>193.815</ele>
        <time>2015-03-23T10:04:29Z</time>
      </trkpt>
      <trkpt lat="40.845031" lon="-8.478088">
        <ele>187.157</ele>
        <time>2015-03-23T10:04:34Z</time>
      </trkpt>
      <trkpt lat="40.845225" lon="-8.478096">
        <ele>183.847</ele>
        <time>2015-03-23T10:04:36Z</time>
      </trkpt>
      <trkpt lat="40.845508" lon="-8.478118">
        <ele>179.935</ele>
        <time>2015-03-23T10:04:39Z</time>
      </trkpt>
      <trkpt lat="40.845605" lon="-8.478131">
        <ele>179.480</ele>
        <time>2015-03-23T10:04:40Z</time>
      </trkpt>
      <trkpt lat="40.845799" lon="-8.478199">
        <ele>178.077</ele>
        <time>2015-03-23T10:04:42Z</time>
      </trkpt>
      <trkpt lat="40.845966" lon="-8.478303">
        <ele>177.576</ele>
        <time>2015-03-23T10:04:44Z</time>
      </trkpt>
      <trkpt lat="40.846528" lon="-8.478816">
        <ele>177.090</ele>
        <time>2015-03-23T10:04:53Z</time>
      </trkpt>
      <trkpt lat="40.846567" lon="-8.479144">
        <ele>179.419</ele>
        <time>2015-03-23T10:05:01Z</time>
      </trkpt>
      <trkpt lat="40.846444" lon="-8.479453">
        <ele>179.407</ele>
        <time>2015-03-23T10:05:07Z</time>
      </trkpt>
      <trkpt lat="40.846405" lon="-8.480261">
        <ele>177.066</ele>
        <time>2015-03-23T10:05:20Z</time>
      </trkpt>
      <trkpt lat="40.846158" lon="-8.480963">
        <ele>177.049</ele>
        <time>2015-03-23T10:05:35Z</time>
      </trkpt>
      <trkpt lat="40.846114" lon="-8.481071">
        <ele>178.041</ele>
        <time>2015-03-23T10:05:38Z</time>
      </trkpt>
      <trkpt lat="40.845947" lon="-8.481585">
        <ele>179.491</ele>
        <time>2015-03-23T10:05:51Z</time>
      </trkpt>
      <trkpt lat="40.846059" lon="-8.482026">
        <ele>181.479</ele>
        <time>2015-03-23T10:06:06Z</time>
      </trkpt>
      <trkpt lat="40.846300" lon="-8.482423">
        <ele>182.844</ele>
        <time>2015-03-23T10:06:22Z</time>
      </trkpt>
      <trkpt lat="40.846557" lon="-8.482824">
        <ele>184.791</ele>
        <time>2015-03-23T10:06:39Z</time>
      </trkpt>
      <trkpt lat="40.846825" lon="-8.483245">
        <ele>187.174</ele>
        <time>2015-03-23T10:06:57Z</time>
      </trkpt>
      <trkpt lat="40.846988" lon="-8.483629">
        <ele>188.156</ele>
        <time>2015-03-23T10:07:10Z</time>
      </trkpt>
      <trkpt lat="40.847016" lon="-8.484068">
        <ele>184.721</ele>
        <time>2015-03-23T10:07:16Z</time>
      </trkpt>
      <trkpt lat="40.847027" lon="-8.484270">
        <ele>184.207</ele>
        <time>2015-03-23T10:07:18Z</time>
      </trkpt>
      <trkpt lat="40.847207" lon="-8.485153">
        <ele>183.836</ele>
        <time>2015-03-23T10:07:31Z</time>
      </trkpt>
      <trkpt lat="40.847421" lon="-8.485851">
        <ele>184.769</ele>
        <time>2015-03-23T10:07:47Z</time>
      </trkpt>
      <trkpt lat="40.847712" lon="-8.486559">
        <ele>183.841</ele>
        <time>2015-03-23T10:08:02Z</time>
      </trkpt>
      <trkpt lat="40.847942" lon="-8.487263">
        <ele>179.941</ele>
        <time>2015-03-23T10:08:12Z</time>
      </trkpt>
      <trkpt lat="40.848210" lon="-8.487712">
        <ele>175.689</ele>
        <time>2015-03-23T10:08:17Z</time>
      </trkpt>
      <trkpt lat="40.848555" lon="-8.487984">
        <ele>172.294</ele>
        <time>2015-03-23T10:08:21Z</time>
      </trkpt>
      <trkpt lat="40.848971" lon="-8.488209">
        <ele>167.451</ele>
        <time>2015-03-23T10:08:25Z</time>
      </trkpt>
      <trkpt lat="40.849275" lon="-8.488380">
        <ele>163.675</ele>
        <time>2015-03-23T10:08:28Z</time>
      </trkpt>
      <trkpt lat="40.849458" lon="-8.488472">
        <ele>160.728</ele>
        <time>2015-03-23T10:08:30Z</time>
      </trkpt>
      <trkpt lat="40.849735" lon="-8.488816">
        <ele>158.320</ele>
        <time>2015-03-23T10:08:38Z</time>
      </trkpt>
      <trkpt lat="40.849797" lon="-8.489014">
        <ele>154.407</ele>
        <time>2015-03-23T10:08:41Z</time>
      </trkpt>
      <trkpt lat="40.849929" lon="-8.489399">
        <ele>150.166</ele>
        <time>2015-03-23T10:08:45Z</time>
      </trkpt>
      <trkpt lat="40.849976" lon="-8.489516">
        <ele>148.779</ele>
        <time>2015-03-23T10:08:46Z</time>
      </trkpt>
      <trkpt lat="40.850088" lon="-8.489730">
        <ele>147.751</ele>
        <time>2015-03-23T10:08:48Z</time>
      </trkpt>
      <trkpt lat="40.850340" lon="-8.490159">
        <ele>148.241</ele>
        <time>2015-03-23T10:11:46Z</time>
      </trkpt>
      <trkpt lat="40.850421" lon="-8.490110">
        <ele>147.779</ele>
        <time>2015-03-23T10:11:53Z</time>
      </trkpt>
      <trkpt lat="40.850622" lon="-8.490290">
        <ele>149.194</ele>
        <time>2015-03-23T10:12:06Z</time>
      </trkpt>
      <trkpt lat="40.850843" lon="-8.490460">
        <ele>151.181</ele>
        <time>2015-03-23T10:12:21Z</time>
      </trkpt>
      <trkpt lat="40.851059" lon="-8.490531">
        <ele>153.022</ele>
        <time>2015-03-23T10:12:35Z</time>
      </trkpt>
      <trkpt lat="40.851342" lon="-8.490401">
        <ele>155.462</ele>
        <time>2015-03-23T10:12:54Z</time>
      </trkpt>
      <trkpt lat="40.851581" lon="-8.490377">
        <ele>157.308</ele>
        <time>2015-03-23T10:13:09Z</time>
      </trkpt>
      <trkpt lat="40.851723" lon="-8.490617">
        <ele>158.807</ele>
        <time>2015-03-23T10:13:23Z</time>
      </trkpt>
      <trkpt lat="40.851825" lon="-8.490847">
        <ele>159.771</ele>
        <time>2015-03-23T10:13:34Z</time>
      </trkpt>
      <trkpt lat="40.851891" lon="-8.490842">
        <ele>160.234</ele>
        <time>2015-03-23T10:13:38Z</time>
      </trkpt>
      <trkpt lat="40.851966" lon="-8.490765">
        <ele>160.796</ele>
        <time>2015-03-23T10:13:43Z</time>
      </trkpt>
      <trkpt lat="40.852282" lon="-8.490729">
        <ele>160.726</ele>
        <time>2015-03-23T10:13:54Z</time>
      </trkpt>
      <trkpt lat="40.852515" lon="-8.490707">
        <ele>160.784</ele>
        <time>2015-03-23T10:14:07Z</time>
      </trkpt>
      <trkpt lat="40.852736" lon="-8.490773">
        <ele>161.669</ele>
        <time>2015-03-23T10:14:20Z</time>
      </trkpt>
      <trkpt lat="40.852922" lon="-8.490947">
        <ele>163.136</ele>
        <time>2015-03-23T10:14:33Z</time>
      </trkpt>
      <trkpt lat="40.853198" lon="-8.491185">
        <ele>163.134</ele>
        <time>2015-03-23T10:14:49Z</time>
      </trkpt>
      <trkpt lat="40.853267" lon="-8.491245">
        <ele>163.655</ele>
        <time>2015-03-23T10:15:01Z</time>
      </trkpt>
      <trkpt lat="40.853412" lon="-8.491324">
        <ele>164.010</ele>
        <time>2015-03-23T10:15:13Z</time>
      </trkpt>
      <trkpt lat="40.853782" lon="-8.491550">
        <ele>164.507</ele>
        <time>2015-03-23T10:15:32Z</time>
      </trkpt>
      <trkpt lat="40.854011" lon="-8.491524">
        <ele>165.572</ele>
        <time>2015-03-23T10:15:44Z</time>
      </trkpt>
      <trkpt lat="40.854436" lon="-8.491335">
        <ele>166.025</ele>
        <time>2015-03-23T10:16:01Z</time>
      </trkpt>
      <trkpt lat="40.854561" lon="-8.491299">
        <ele>164.547</ele>
        <time>2015-03-23T10:16:05Z</time>
      </trkpt>
      <trkpt lat="40.854992" lon="-8.491437">
        <ele>164.587</ele>
        <time>2015-03-23T10:16:18Z</time>
      </trkpt>
      <trkpt lat="40.855296" lon="-8.491758">
        <ele>164.085</ele>
        <time>2015-03-23T10:16:29Z</time>
      </trkpt>
      <trkpt lat="40.855757" lon="-8.491962">
        <ele>163.620</ele>
        <time>2015-03-23T10:16:43Z</time>
      </trkpt>
      <trkpt lat="40.856288" lon="-8.492228">
        <ele>162.157</ele>
        <time>2015-03-23T10:16:55Z</time>
      </trkpt>
      <trkpt lat="40.856400" lon="-8.492344">
        <ele>161.673</ele>
        <time>2015-03-23T10:16:58Z</time>
      </trkpt>
      <trkpt lat="40.856749" lon="-8.493086">
        <ele>158.385</ele>
        <time>2015-03-23T10:17:11Z</time>
      </trkpt>
      <trkpt lat="40.856954" lon="-8.493488">
        <ele>153.013</ele>
        <time>2015-03-23T10:17:15Z</time>
      </trkpt>
      <trkpt lat="40.857120" lon="-8.493842">
        <ele>148.707</ele>
        <time>2015-03-23T10:17:18Z</time>
      </trkpt>
      <trkpt lat="40.857314" lon="-8.494292">
        <ele>144.396</ele>
        <time>2015-03-23T10:17:22Z</time>
      </trkpt>
      <trkpt lat="40.857430" lon="-8.494567">
        <ele>141.599</ele>
        <time>2015-03-23T10:17:25Z</time>
      </trkpt>
      <trkpt lat="40.857572" lon="-8.495002">
        <ele>137.671</ele>
        <time>2015-03-23T10:17:31Z</time>
      </trkpt>
      <trkpt lat="40.857679" lon="-8.495409">
        <ele>134.291</ele>
        <time>2015-03-23T10:17:35Z</time>
      </trkpt>
      <trkpt lat="40.857757" lon="-8.495806">
        <ele>130.949</ele>
        <time>2015-03-23T10:17:38Z</time>
      </trkpt>
      <trkpt lat="40.857904" lon="-8.496558">
        <ele>127.034</ele>
        <time>2015-03-23T10:17:45Z</time>
      </trkpt>
      <trkpt lat="40.858017" lon="-8.497023">
        <ele>124.211</ele>
        <time>2015-03-23T10:17:52Z</time>
      </trkpt>
      <trkpt lat="40.858207" lon="-8.497578">
        <ele>123.218</ele>
        <time>2015-03-23T10:18:04Z</time>
      </trkpt>
      <trkpt lat="40.858359" lon="-8.497965">
        <ele>121.798</ele>
        <time>2015-03-23T10:18:15Z</time>
      </trkpt>
      <trkpt lat="40.858345" lon="-8.498030">
        <ele>121.717</ele>
        <time>2015-03-23T10:18:59Z</time>
      </trkpt>
      <trkpt lat="40.858374" lon="-8.498101">
        <ele>121.707</ele>
        <time>2015-03-23T10:19:24Z</time>
      </trkpt>
      <trkpt lat="40.858427" lon="-8.498167">
        <ele>121.730</ele>
        <time>2015-03-23T10:20:51Z</time>
      </trkpt>
      <trkpt lat="40.858459" lon="-8.498209">
        <ele>121.743</ele>
        <time>2015-03-23T10:20:54Z</time>
      </trkpt>
      <trkpt lat="40.858526" lon="-8.498232">
        <ele>123.255</ele>
        <time>2015-03-23T10:20:58Z</time>
      </trkpt>
      <trkpt lat="40.858928" lon="-8.498192">
        <ele>124.685</ele>
        <time>2015-03-23T10:21:15Z</time>
      </trkpt>
      <trkpt lat="40.859365" lon="-8.498145">
        <ele>127.543</ele>
        <time>2015-03-23T10:21:35Z</time>
      </trkpt>
      <trkpt lat="40.859757" lon="-8.498217">
        <ele>129.448</ele>
        <time>2015-03-23T10:21:53Z</time>
      </trkpt>
      <trkpt lat="40.860102" lon="-8.498309">
        <ele>131.455</ele>
        <time>2015-03-23T10:22:09Z</time>
      </trkpt>
      <trkpt lat="40.860377" lon="-8.498313">
        <ele>133.322</ele>
        <time>2015-03-23T10:22:23Z</time>
      </trkpt>
      <trkpt lat="40.860795" lon="-8.498334">
        <ele>136.262</ele>
        <time>2015-03-23T10:22:44Z</time>
      </trkpt>
      <trkpt lat="40.861185" lon="-8.498360">
        <ele>137.608</ele>
        <time>2015-03-23T10:23:02Z</time>
      </trkpt>
      <trkpt lat="40.861729" lon="-8.498456">
        <ele>137.607</ele>
        <time>2015-03-23T10:23:21Z</time>
      </trkpt>
      <trkpt lat="40.861977" lon="-8.498499">
        <ele>136.221</ele>
        <time>2015-03-23T10:23:29Z</time>
      </trkpt>
      <trkpt lat="40.862207" lon="-8.498543">
        <ele>135.734</ele>
        <time>2015-03-23T10:23:35Z</time>
      </trkpt>
      <trkpt lat="40.862414" lon="-8.498396">
        <ele>134.296</ele>
        <time>2015-03-23T10:23:40Z</time>
      </trkpt>
      <trkpt lat="40.862731" lon="-8.497807">
        <ele>132.396</ele>
        <time>2015-03-23T10:23:49Z</time>
      </trkpt>
      <trkpt lat="40.862883" lon="-8.497616">
        <ele>130.974</ele>
        <time>2015-03-23T10:23:52Z</time>
      </trkpt>
      <trkpt lat="40.863658" lon="-8.497110">
        <ele>129.079</ele>
        <time>2015-03-23T10:24:04Z</time>
      </trkpt>
      <trkpt lat="40.863706" lon="-8.497071">
        <ele>129.036</ele>
        <time>2015-03-23T10:24:05Z</time>
      </trkpt>
      <trkpt lat="40.863827" lon="-8.496904">
        <ele>129.057</ele>
        <time>2015-03-23T10:24:09Z</time>
      </trkpt>
      <trkpt lat="40.863893" lon="-8.496739">
        <ele>130.400</ele>
        <time>2015-03-23T10:24:14Z</time>
      </trkpt>
      <trkpt lat="40.864137" lon="-8.496324">
        <ele>132.320</ele>
        <time>2015-03-23T10:24:30Z</time>
      </trkpt>
      <trkpt lat="40.864209" lon="-8.495816">
        <ele>134.207</ele>
        <time>2015-03-23T10:24:47Z</time>
      </trkpt>
      <trkpt lat="40.864329" lon="-8.495324">
        <ele>136.244</ele>
        <time>2015-03-23T10:25:04Z</time>
      </trkpt>
      <trkpt lat="40.864641" lon="-8.494995">
        <ele>137.657</ele>
        <time>2015-03-23T10:25:21Z</time>
      </trkpt>
      <trkpt lat="40.865029" lon="-8.494830">
        <ele>139.169</ele>
        <time>2015-03-23T10:25:38Z</time>
      </trkpt>
      <trkpt lat="40.865565" lon="-8.494845">
        <ele>139.559</ele>
        <time>2015-03-23T10:25:54Z</time>
      </trkpt>
      <trkpt lat="40.866096" lon="-8.494668">
        <ele>139.527</ele>
        <time>2015-03-23T10:26:09Z</time>
      </trkpt>
      <trkpt lat="40.866420" lon="-8.494041">
        <ele>140.532</ele>
        <time>2015-03-23T10:26:27Z</time>
      </trkpt>
      <trkpt lat="40.866475" lon="-8.493974">
        <ele>140.539</ele>
        <time>2015-03-23T10:26:30Z</time>
      </trkpt>
      <trkpt lat="40.866725" lon="-8.493973">
        <ele>142.953</ele>
        <time>2015-03-23T10:26:39Z</time>
      </trkpt>
      <trkpt lat="40.867156" lon="-8.494002">
        <ele>144.804</ele>
        <time>2015-03-23T10:26:56Z</time>
      </trkpt>
      <trkpt lat="40.867461" lon="-8.494256">
        <ele>145.314</ele>
        <time>2015-03-23T10:27:11Z</time>
      </trkpt>
      <trkpt lat="40.867776" lon="-8.494581">
        <ele>146.307</ele>
        <time>2015-03-23T10:27:27Z</time>
      </trkpt>
      <trkpt lat="40.868177" lon="-8.494962">
        <ele>147.754</ele>
        <time>2015-03-23T10:27:47Z</time>
      </trkpt>
      <trkpt lat="40.868552" lon="-8.495153">
        <ele>148.757</ele>
        <time>2015-03-23T10:28:03Z</time>
      </trkpt>
      <trkpt lat="40.869068" lon="-8.495011">
        <ele>149.189</ele>
        <time>2015-03-23T10:28:20Z</time>
      </trkpt>
      <trkpt lat="40.869608" lon="-8.495149">
        <ele>149.629</ele>
        <time>2015-03-23T10:28:36Z</time>
      </trkpt>
      <trkpt lat="40.870198" lon="-8.495490">
        <ele>151.517</ele>
        <time>2015-03-23T10:28:55Z</time>
      </trkpt>
      <trkpt lat="40.870527" lon="-8.495768">
        <ele>153.062</ele>
        <time>2015-03-23T10:29:09Z</time>
      </trkpt>
      <trkpt lat="40.870659" lon="-8.495913">
        <ele>154.099</ele>
        <time>2015-03-23T10:29:17Z</time>
      </trkpt>
      <trkpt lat="40.870784" lon="-8.496006">
        <ele>154.484</ele>
        <time>2015-03-23T10:29:24Z</time>
      </trkpt>
      <trkpt lat="40.870844" lon="-8.496009">
        <ele>155.407</ele>
        <time>2015-03-23T10:29:28Z</time>
      </trkpt>
      <trkpt lat="40.870985" lon="-8.496086">
        <ele>159.217</ele>
        <time>2015-03-23T10:29:42Z</time>
      </trkpt>
      <trkpt lat="40.871048" lon="-8.496121">
        <ele>160.707</ele>
        <time>2015-03-23T10:29:49Z</time>
      </trkpt>
      <trkpt lat="40.871141" lon="-8.496201">
        <ele>163.617</ele>
        <time>2015-03-23T10:30:02Z</time>
      </trkpt>
      <trkpt lat="40.871191" lon="-8.496255">
        <ele>165.080</ele>
        <time>2015-03-23T10:30:08Z</time>
      </trkpt>
      <trkpt lat="40.871299" lon="-8.496354">
        <ele>167.942</ele>
        <time>2015-03-23T10:30:21Z</time>
      </trkpt>
      <trkpt lat="40.871422" lon="-8.496431">
        <ele>171.342</ele>
        <time>2015-03-23T10:30:35Z</time>
      </trkpt>
      <trkpt lat="40.871559" lon="-8.496633">
        <ele>174.190</ele>
        <time>2015-03-23T10:30:53Z</time>
      </trkpt>
      <trkpt lat="40.871608" lon="-8.496780">
        <ele>176.195</ele>
        <time>2015-03-23T10:31:03Z</time>
      </trkpt>
      <trkpt lat="40.871658" lon="-8.496888">
        <ele>177.042</ele>
        <time>2015-03-23T10:31:10Z</time>
      </trkpt>
      <trkpt lat="40.871857" lon="-8.497104">
        <ele>178.976</ele>
        <time>2015-03-23T10:31:27Z</time>
      </trkpt>
      <trkpt lat="40.872074" lon="-8.497306">
        <ele>180.990</ele>
        <time>2015-03-23T10:31:44Z</time>
      </trkpt>
      <trkpt lat="40.872284" lon="-8.497520">
        <ele>182.319</ele>
        <time>2015-03-23T10:32:00Z</time>
      </trkpt>
      <trkpt lat="40.872447" lon="-8.497746">
        <ele>184.207</ele>
        <time>2015-03-23T10:32:15Z</time>
      </trkpt>
      <trkpt lat="40.872600" lon="-8.498027">
        <ele>185.776</ele>
        <time>2015-03-23T10:32:31Z</time>
      </trkpt>
      <trkpt lat="40.872780" lon="-8.498217">
        <ele>187.699</ele>
        <time>2015-03-23T10:32:46Z</time>
      </trkpt>
      <trkpt lat="40.872976" lon="-8.498327">
        <ele>189.591</ele>
        <time>2015-03-23T10:33:00Z</time>
      </trkpt>
      <trkpt lat="40.873087" lon="-8.498401">
        <ele>191.031</ele>
        <time>2015-03-23T10:33:14Z</time>
      </trkpt>
      <trkpt lat="40.873149" lon="-8.498440">
        <ele>191.419</ele>
        <time>2015-03-23T10:33:33Z</time>
      </trkpt>
      <trkpt lat="40.873367" lon="-8.498510">
        <ele>193.474</ele>
        <time>2015-03-23T10:33:48Z</time>
      </trkpt>
      <trkpt lat="40.873591" lon="-8.498584">
        <ele>195.321</ele>
        <time>2015-03-23T10:34:05Z</time>
      </trkpt>
      <trkpt lat="40.873759" lon="-8.498618">
        <ele>197.243</ele>
        <time>2015-03-23T10:34:18Z</time>
      </trkpt>
      <trkpt lat="40.873994" lon="-8.498700">
        <ele>198.264</ele>
        <time>2015-03-23T10:34:32Z</time>
      </trkpt>
      <trkpt lat="40.874096" lon="-8.498804">
        <ele>198.710</ele>
        <time>2015-03-23T10:34:38Z</time>
      </trkpt>
      <trkpt lat="40.874184" lon="-8.498762">
        <ele>198.707</ele>
        <time>2015-03-23T10:34:44Z</time>
      </trkpt>
      <trkpt lat="40.874541" lon="-8.498649">
        <ele>197.753</ele>
        <time>2015-03-23T10:34:57Z</time>
      </trkpt>
      <trkpt lat="40.874928" lon="-8.498512">
        <ele>194.316</ele>
        <time>2015-03-23T10:35:04Z</time>
      </trkpt>
      <trkpt lat="40.875071" lon="-8.498510">
        <ele>193.448</ele>
        <time>2015-03-23T10:35:06Z</time>
      </trkpt>
      <trkpt lat="40.875375" lon="-8.498569">
        <ele>191.438</ele>
        <time>2015-03-23T10:35:10Z</time>
      </trkpt>
      <trkpt lat="40.876350" lon="-8.498748">
        <ele>188.166</ele>
        <time>2015-03-23T10:35:24Z</time>
      </trkpt>
      <trkpt lat="40.876640" lon="-8.498661">
        <ele>184.231</ele>
        <time>2015-03-23T10:35:28Z</time>
      </trkpt>
      <trkpt lat="40.876797" lon="-8.498519">
        <ele>182.358</ele>
        <time>2015-03-23T10:35:30Z</time>
      </trkpt>
      <trkpt lat="40.877181" lon="-8.498094">
        <ele>178.563</ele>
        <time>2015-03-23T10:35:35Z</time>
      </trkpt>
      <trkpt lat="40.877534" lon="-8.497807">
        <ele>175.144</ele>
        <time>2015-03-23T10:35:39Z</time>
      </trkpt>
      <trkpt lat="40.877901" lon="-8.497531">
        <ele>171.318</ele>
        <time>2015-03-23T10:35:43Z</time>
      </trkpt>
      <trkpt lat="40.878267" lon="-8.497247">
        <ele>167.907</ele>
        <time>2015-03-23T10:35:47Z</time>
      </trkpt>
      <trkpt lat="40.878655" lon="-8.496949">
        <ele>164.585</ele>
        <time>2015-03-23T10:35:51Z</time>
      </trkpt>
      <trkpt lat="40.879061" lon="-8.496663">
        <ele>161.278</ele>
        <time>2015-03-23T10:35:55Z</time>
      </trkpt>
      <trkpt lat="40.879246" lon="-8.496535">
        <ele>160.740</ele>
        <time>2015-03-23T10:35:57Z</time>
      </trkpt>
      <trkpt lat="40.879416" lon="-8.496414">
        <ele>159.270</ele>
        <time>2015-03-23T10:35:59Z</time>
      </trkpt>
      <trkpt lat="40.879485" lon="-8.496357">
        <ele>158.898</ele>
        <time>2015-03-23T10:36:00Z</time>
      </trkpt>
      <trkpt lat="40.879630" lon="-8.495989">
        <ele>157.843</ele>
        <time>2015-03-23T10:36:05Z</time>
      </trkpt>
      <trkpt lat="40.879631" lon="-8.495363">
        <ele>157.830</ele>
        <time>2015-03-23T10:36:18Z</time>
      </trkpt>
      <trkpt lat="40.879598" lon="-8.495152">
        <ele>161.249</ele>
        <time>2015-03-23T10:36:29Z</time>
      </trkpt>
      <trkpt lat="40.879527" lon="-8.494954">
        <ele>163.602</ele>
        <time>2015-03-23T10:36:41Z</time>
      </trkpt>
      <trkpt lat="40.879552" lon="-8.494846">
        <ele>164.022</ele>
        <time>2015-03-23T10:36:47Z</time>
      </trkpt>
      <trkpt lat="40.879606" lon="-8.494823">
        <ele>165.507</ele>
        <time>2015-03-23T10:36:51Z</time>
      </trkpt>
      <trkpt lat="40.879685" lon="-8.494801">
        <ele>166.073</ele>
        <time>2015-03-23T10:36:57Z</time>
      </trkpt>
      <trkpt lat="40.879762" lon="-8.494561">
        <ele>169.846</ele>
        <time>2015-03-23T10:37:12Z</time>
      </trkpt>
      <trkpt lat="40.879768" lon="-8.494279">
        <ele>171.738</ele>
        <time>2015-03-23T10:37:28Z</time>
      </trkpt>
      <trkpt lat="40.879792" lon="-8.494056">
        <ele>174.628</ele>
        <time>2015-03-23T10:37:41Z</time>
      </trkpt>
      <trkpt lat="40.879828" lon="-8.493962">
        <ele>175.186</ele>
        <time>2015-03-23T10:37:47Z</time>
      </trkpt>
      <trkpt lat="40.879798" lon="-8.493570">
        <ele>177.511</ele>
        <time>2015-03-23T10:38:06Z</time>
      </trkpt>
      <trkpt lat="40.879734" lon="-8.493267">
        <ele>178.978</ele>
        <time>2015-03-23T10:38:20Z</time>
      </trkpt>
      <trkpt lat="40.879658" lon="-8.492909">
        <ele>180.949</ele>
        <time>2015-03-23T10:38:36Z</time>
      </trkpt>
      <trkpt lat="40.879584" lon="-8.492587">
        <ele>182.302</ele>
        <time>2015-03-23T10:38:51Z</time>
      </trkpt>
      <trkpt lat="40.879551" lon="-8.492187">
        <ele>184.222</ele>
        <time>2015-03-23T10:39:08Z</time>
      </trkpt>
      <trkpt lat="40.879575" lon="-8.491812">
        <ele>186.207</ele>
        <time>2015-03-23T10:39:24Z</time>
      </trkpt>
      <trkpt lat="40.879552" lon="-8.491397">
        <ele>188.653</ele>
        <time>2015-03-23T10:39:42Z</time>
      </trkpt>
      <trkpt lat="40.879538" lon="-8.491311">
        <ele>189.076</ele>
        <time>2015-03-23T10:39:46Z</time>
      </trkpt>
      <trkpt lat="40.879705" lon="-8.491162">
        <ele>189.558</ele>
        <time>2015-03-23T10:39:58Z</time>
      </trkpt>
      <trkpt lat="40.879987" lon="-8.491065">
        <ele>190.538</ele>
        <time>2015-03-23T10:40:12Z</time>
      </trkpt>
      <trkpt lat="40.880292" lon="-8.490944">
        <ele>190.586</ele>
        <time>2015-03-23T10:40:27Z</time>
      </trkpt>
      <trkpt lat="40.880551" lon="-8.490871">
        <ele>191.961</ele>
        <time>2015-03-23T10:40:42Z</time>
      </trkpt>
      <trkpt lat="40.880887" lon="-8.490736">
        <ele>193.868</ele>
        <time>2015-03-23T10:41:00Z</time>
      </trkpt>
      <trkpt lat="40.881375" lon="-8.490592">
        <ele>196.743</ele>
        <time>2015-03-23T10:41:25Z</time>
      </trkpt>
      <trkpt lat="40.881798" lon="-8.490457">
        <ele>199.664</ele>
        <time>2015-03-23T10:41:47Z</time>
      </trkpt>
      <trkpt lat="40.882205" lon="-8.490318">
        <ele>202.010</ele>
        <time>2015-03-23T10:42:08Z</time>
      </trkpt>
      <trkpt lat="40.882476" lon="-8.490198">
        <ele>203.007</ele>
        <time>2015-03-23T10:42:22Z</time>
      </trkpt>
      <trkpt lat="40.882835" lon="-8.490111">
        <ele>204.483</ele>
        <time>2015-03-23T10:42:39Z</time>
      </trkpt>
      <trkpt lat="40.883069" lon="-8.490012">
        <ele>205.456</ele>
        <time>2015-03-23T10:42:54Z</time>
      </trkpt>
      <trkpt lat="40.883167" lon="-8.489985">
        <ele>205.978</ele>
        <time>2015-03-23T10:43:08Z</time>
      </trkpt>
      <trkpt lat="40.883558" lon="-8.489850">
        <ele>207.818</ele>
        <time>2015-03-23T10:43:26Z</time>
      </trkpt>
      <trkpt lat="40.883914" lon="-8.489736">
        <ele>209.246</ele>
        <time>2015-03-23T10:43:42Z</time>
      </trkpt>
      <trkpt lat="40.884361" lon="-8.489591">
        <ele>211.291</ele>
        <time>2015-03-23T10:44:01Z</time>
      </trkpt>
      <trkpt lat="40.884909" lon="-8.489406">
        <ele>213.158</ele>
        <time>2015-03-23T10:44:24Z</time>
      </trkpt>
      <trkpt lat="40.885177" lon="-8.489167">
        <ele>214.596</ele>
        <time>2015-03-23T10:44:39Z</time>
      </trkpt>
      <trkpt lat="40.885352" lon="-8.488882">
        <ele>216.031</ele>
        <time>2015-03-23T10:44:52Z</time>
      </trkpt>
      <trkpt lat="40.885670" lon="-8.489088">
        <ele>216.024</ele>
        <time>2015-03-23T10:45:05Z</time>
      </trkpt>
      <trkpt lat="40.886185" lon="-8.489497">
        <ele>216.907</ele>
        <time>2015-03-23T10:45:22Z</time>
      </trkpt>
      <trkpt lat="40.886608" lon="-8.489700">
        <ele>217.938</ele>
        <time>2015-03-23T10:45:36Z</time>
      </trkpt>
      <trkpt lat="40.886866" lon="-8.489769">
        <ele>219.331</ele>
        <time>2015-03-23T10:45:49Z</time>
      </trkpt>
      <trkpt lat="40.887207" lon="-8.490081">
        <ele>219.843</ele>
        <time>2015-03-23T10:46:02Z</time>
      </trkpt>
      <trkpt lat="40.887292" lon="-8.490194">
        <ele>218.433</ele>
        <time>2015-03-23T10:46:05Z</time>
      </trkpt>
      <trkpt lat="40.887414" lon="-8.490429">
        <ele>217.481</ele>
        <time>2015-03-23T10:46:10Z</time>
      </trkpt>
      <trkpt lat="40.887588" lon="-8.490668">
        <ele>216.476</ele>
        <time>2015-03-23T10:46:21Z</time>
      </trkpt>
      <trkpt lat="40.887643" lon="-8.490729">
        <ele>216.953</ele>
        <time>2015-03-23T10:47:41Z</time>
      </trkpt>
      <trkpt lat="40.888096" lon="-8.491070">
        <ele>216.448</ele>
        <time>2015-03-23T10:47:55Z</time>
      </trkpt>
      <trkpt lat="40.888723" lon="-8.491487">
        <ele>216.961</ele>
        <time>2015-03-23T10:48:13Z</time>
      </trkpt>
      <trkpt lat="40.889101" lon="-8.491747">
        <ele>217.917</ele>
        <time>2015-03-23T10:48:24Z</time>
      </trkpt>
      <trkpt lat="40.889442" lon="-8.491981">
        <ele>218.407</ele>
        <time>2015-03-23T10:48:34Z</time>
      </trkpt>
      <trkpt lat="40.889907" lon="-8.492294">
        <ele>219.863</ele>
        <time>2015-03-23T10:48:48Z</time>
      </trkpt>
      <trkpt lat="40.890239" lon="-8.492435">
        <ele>221.276</ele>
        <time>2015-03-23T10:48:59Z</time>
      </trkpt>
      <trkpt lat="40.890290" lon="-8.492478">
        <ele>221.248</ele>
        <time>2015-03-23T10:49:09Z</time>
      </trkpt>
      <trkpt lat="40.890338" lon="-8.492493">
        <ele>221.758</ele>
        <time>2015-03-23T10:49:21Z</time>
      </trkpt>
      <trkpt lat="40.890413" lon="-8.492603">
        <ele>221.226</ele>
        <time>2015-03-23T10:52:09Z</time>
      </trkpt>
      <trkpt lat="40.890823" lon="-8.492864">
        <ele>223.241</ele>
        <time>2015-03-23T10:52:25Z</time>
      </trkpt>
      <trkpt lat="40.891274" lon="-8.493088">
        <ele>224.178</ele>
        <time>2015-03-23T10:52:40Z</time>
      </trkpt>
      <trkpt lat="40.891705" lon="-8.493247">
        <ele>225.696</ele>
        <time>2015-03-23T10:52:55Z</time>
      </trkpt>
      <trkpt lat="40.892218" lon="-8.493407">
        <ele>227.531</ele>
        <time>2015-03-23T10:53:13Z</time>
      </trkpt>
      <trkpt lat="40.892835" lon="-8.493513">
        <ele>228.024</ele>
        <time>2015-03-23T10:53:31Z</time>
      </trkpt>
      <trkpt lat="40.893638" lon="-8.493522">
        <ele>228.507</ele>
        <time>2015-03-23T10:53:53Z</time>
      </trkpt>
      <trkpt lat="40.894075" lon="-8.493391">
        <ele>228.528</ele>
        <time>2015-03-23T10:54:07Z</time>
      </trkpt>
      <trkpt lat="40.894470" lon="-8.492960">
        <ele>228.931</ele>
        <time>2015-03-23T10:54:22Z</time>
      </trkpt>
      <trkpt lat="40.894808" lon="-8.492605">
        <ele>228.993</ele>
        <time>2015-03-23T10:54:38Z</time>
      </trkpt>
      <trkpt lat="40.895083" lon="-8.492273">
        <ele>231.823</ele>
        <time>2015-03-23T10:54:55Z</time>
      </trkpt>
      <trkpt lat="40.895281" lon="-8.492057">
        <ele>234.281</ele>
        <time>2015-03-23T10:55:10Z</time>
      </trkpt>
      <trkpt lat="40.895505" lon="-8.491783">
        <ele>237.176</ele>
        <time>2015-03-23T10:55:28Z</time>
      </trkpt>
      <trkpt lat="40.895722" lon="-8.491530">
        <ele>239.083</ele>
        <time>2015-03-23T10:55:43Z</time>
      </trkpt>
      <trkpt lat="40.895875" lon="-8.491328">
        <ele>239.047</ele>
        <time>2015-03-23T10:55:58Z</time>
      </trkpt>
      <trkpt lat="40.895912" lon="-8.491168">
        <ele>236.629</ele>
        <time>2015-03-23T10:56:01Z</time>
      </trkpt>
      <trkpt lat="40.895981" lon="-8.490933">
        <ele>233.721</ele>
        <time>2015-03-23T10:56:06Z</time>
      </trkpt>
      <trkpt lat="40.896134" lon="-8.490885">
        <ele>233.307</ele>
        <time>2015-03-23T10:56:13Z</time>
      </trkpt>
      <trkpt lat="40.896440" lon="-8.491048">
        <ele>230.973</ele>
        <time>2015-03-23T10:56:27Z</time>
      </trkpt>
      <trkpt lat="40.896653" lon="-8.491220">
        <ele>230.486</ele>
        <time>2015-03-23T10:57:02Z</time>
      </trkpt>
      <trkpt lat="40.897114" lon="-8.491542">
        <ele>229.478</ele>
        <time>2015-03-23T10:57:15Z</time>
      </trkpt>
      <trkpt lat="40.897477" lon="-8.491731">
        <ele>229.498</ele>
        <time>2015-03-23T10:57:27Z</time>
      </trkpt>
      <trkpt lat="40.897570" lon="-8.491683">
        <ele>229.446</ele>
        <time>2015-03-23T10:57:32Z</time>
      </trkpt>
      <trkpt lat="40.897733" lon="-8.491826">
        <ele>230.951</ele>
        <time>2015-03-23T10:57:43Z</time>
      </trkpt>
      <trkpt lat="40.898060" lon="-8.491961">
        <ele>231.358</ele>
        <time>2015-03-23T10:57:56Z</time>
      </trkpt>
      <trkpt lat="40.898381" lon="-8.492079">
        <ele>232.362</ele>
        <time>2015-03-23T10:58:09Z</time>
      </trkpt>
      <trkpt lat="40.898603" lon="-8.492187">
        <ele>232.883</ele>
        <time>2015-03-23T10:58:21Z</time>
      </trkpt>
      <trkpt lat="40.898740" lon="-8.492247">
        <ele>233.711</ele>
        <time>2015-03-23T10:58:34Z</time>
      </trkpt>
      <trkpt lat="40.898813" lon="-8.492235">
        <ele>234.707</ele>
        <time>2015-03-23T10:59:11Z</time>
      </trkpt>
      <trkpt lat="40.899053" lon="-8.492069">
        <ele>234.745</ele>
        <time>2015-03-23T10:59:26Z</time>
      </trkpt>
      <trkpt lat="40.899238" lon="-8.492225">
        <ele>235.758</ele>
        <time>2015-03-23T10:59:38Z</time>
      </trkpt>
      <trkpt lat="40.899255" lon="-8.492373">
        <ele>240.580</ele>
        <time>2015-03-23T11:30:31Z</time>
      </trkpt>
      <trkpt lat="40.899347" lon="-8.492454">
        <ele>240.520</ele>
        <time>2015-03-23T11:30:52Z</time>
      </trkpt>
      <trkpt lat="40.899494" lon="-8.492473">
        <ele>240.548</ele>
        <time>2015-03-23T11:31:06Z</time>
      </trkpt>
      <trkpt lat="40.899535" lon="-8.492651">
        <ele>241.043</ele>
        <time>2015-03-23T11:31:54Z</time>
      </trkpt>
      <trkpt lat="40.899560" lon="-8.492725">
        <ele>241.410</ele>
        <time>2015-03-23T11:32:12Z</time>
      </trkpt>
      <trkpt lat="40.899596" lon="-8.492804">
        <ele>241.488</ele>
        <time>2015-03-23T11:32:24Z</time>
      </trkpt>
      <trkpt lat="40.899668" lon="-8.492919">
        <ele>241.424</ele>
        <time>2015-03-23T11:32:33Z</time>
      </trkpt>
      <trkpt lat="40.899862" lon="-8.493160">
        <ele>241.926</ele>
        <time>2015-03-23T11:32:45Z</time>
      </trkpt>
      <trkpt lat="40.900129" lon="-8.493329">
        <ele>241.907</ele>
        <time>2015-03-23T11:32:57Z</time>
      </trkpt>
      <trkpt lat="40.900479" lon="-8.493607">
        <ele>240.597</ele>
        <time>2015-03-23T11:33:13Z</time>
      </trkpt>
      <trkpt lat="40.900830" lon="-8.493915">
        <ele>239.580</ele>
        <time>2015-03-23T11:33:24Z</time>
      </trkpt>
      <trkpt lat="40.901237" lon="-8.494260">
        <ele>239.022</ele>
        <time>2015-03-23T11:33:35Z</time>
      </trkpt>
      <trkpt lat="40.901700" lon="-8.494739">
        <ele>237.142</ele>
        <time>2015-03-23T11:33:50Z</time>
      </trkpt>
      <trkpt lat="40.901857" lon="-8.494909">
        <ele>237.110</ele>
        <time>2015-03-23T11:33:55Z</time>
      </trkpt>
      <trkpt lat="40.901985" lon="-8.495074">
        <ele>235.765</ele>
        <time>2015-03-23T11:33:59Z</time>
      </trkpt>
      <trkpt lat="40.902230" lon="-8.495292">
        <ele>234.782</ele>
        <time>2015-03-23T11:34:05Z</time>
      </trkpt>
      <trkpt lat="40.902384" lon="-8.495366">
        <ele>234.735</ele>
        <time>2015-03-23T11:34:08Z</time>
      </trkpt>
      <trkpt lat="40.902576" lon="-8.495461">
        <ele>233.786</ele>
        <time>2015-03-23T11:34:12Z</time>
      </trkpt>
      <trkpt lat="40.903033" lon="-8.495497">
        <ele>233.714</ele>
        <time>2015-03-23T11:34:24Z</time>
      </trkpt>
      <trkpt lat="40.903085" lon="-8.495487">
        <ele>233.707</ele>
        <time>2015-03-23T11:35:03Z</time>
      </trkpt>
      <trkpt lat="40.903428" lon="-8.495471">
        <ele>234.282</ele>
        <time>2015-03-23T11:35:18Z</time>
      </trkpt>
      <trkpt lat="40.903876" lon="-8.495487">
        <ele>234.215</ele>
        <time>2015-03-23T11:35:33Z</time>
      </trkpt>
      <trkpt lat="40.904341" lon="-8.495604">
        <ele>235.297</ele>
        <time>2015-03-23T11:35:49Z</time>
      </trkpt>
      <trkpt lat="40.904458" lon="-8.495738">
        <ele>233.787</ele>
        <time>2015-03-23T11:35:53Z</time>
      </trkpt>
      <trkpt lat="40.904578" lon="-8.495897">
        <ele>233.365</ele>
        <time>2015-03-23T11:35:57Z</time>
      </trkpt>
      <trkpt lat="40.905135" lon="-8.496557">
        <ele>231.380</ele>
        <time>2015-03-23T11:36:14Z</time>
      </trkpt>
      <trkpt lat="40.905631" lon="-8.497097">
        <ele>231.357</ele>
        <time>2015-03-23T11:36:33Z</time>
      </trkpt>
      <trkpt lat="40.905779" lon="-8.497534">
        <ele>232.842</ele>
        <time>2015-03-23T11:36:46Z</time>
      </trkpt>
      <trkpt lat="40.905988" lon="-8.497872">
        <ele>234.722</ele>
        <time>2015-03-23T11:37:02Z</time>
      </trkpt>
      <trkpt lat="40.906309" lon="-8.498009">
        <ele>236.614</ele>
        <time>2015-03-23T11:37:19Z</time>
      </trkpt>
      <trkpt lat="40.906550" lon="-8.498135">
        <ele>239.007</ele>
        <time>2015-03-23T11:37:34Z</time>
      </trkpt>
      <trkpt lat="40.906860" lon="-8.498299">
        <ele>241.493</ele>
        <time>2015-03-23T11:37:53Z</time>
      </trkpt>
      <trkpt lat="40.907168" lon="-8.498423">
        <ele>244.396</ele>
        <time>2015-03-23T11:38:12Z</time>
      </trkpt>
      <trkpt lat="40.907522" lon="-8.498416">
        <ele>246.738</ele>
        <time>2015-03-23T11:38:32Z</time>
      </trkpt>
      <trkpt lat="40.907714" lon="-8.498318">
        <ele>247.788</ele>
        <time>2015-03-23T11:38:43Z</time>
      </trkpt>
      <trkpt lat="40.907821" lon="-8.498388">
        <ele>247.766</ele>
        <time>2015-03-23T11:38:51Z</time>
      </trkpt>
      <trkpt lat="40.907895" lon="-8.498461">
        <ele>248.281</ele>
        <time>2015-03-23T11:39:43Z</time>
      </trkpt>
      <trkpt lat="40.908044" lon="-8.498535">
        <ele>248.658</ele>
        <time>2015-03-23T11:39:55Z</time>
      </trkpt>
      <trkpt lat="40.908216" lon="-8.498590">
        <ele>248.247</ele>
        <time>2015-03-23T11:40:04Z</time>
      </trkpt>
      <trkpt lat="40.908571" lon="-8.498585">
        <ele>247.729</ele>
        <time>2015-03-23T11:40:20Z</time>
      </trkpt>
      <trkpt lat="40.908984" lon="-8.498477">
        <ele>247.721</ele>
        <time>2015-03-23T11:40:38Z</time>
      </trkpt>
      <trkpt lat="40.909377" lon="-8.498404">
        <ele>249.107</ele>
        <time>2015-03-23T11:40:55Z</time>
      </trkpt>
      <trkpt lat="40.909768" lon="-8.498368">
        <ele>250.143</ele>
        <time>2015-03-23T11:41:13Z</time>
      </trkpt>
      <trkpt lat="40.910009" lon="-8.498271">
        <ele>250.676</ele>
        <time>2015-03-23T11:41:25Z</time>
      </trkpt>
      <trkpt lat="40.910348" lon="-8.498137">
        <ele>251.078</ele>
        <time>2015-03-23T11:41:43Z</time>
      </trkpt>
      <trkpt lat="40.910675" lon="-8.498116">
        <ele>253.438</ele>
        <time>2015-03-23T11:42:00Z</time>
      </trkpt>
      <trkpt lat="40.910971" lon="-8.497916">
        <ele>254.466</ele>
        <time>2015-03-23T11:42:16Z</time>
      </trkpt>
      <trkpt lat="40.911281" lon="-8.497655">
        <ele>256.881</ele>
        <time>2015-03-23T11:42:35Z</time>
      </trkpt>
      <trkpt lat="40.911344" lon="-8.497611">
        <ele>256.868</ele>
        <time>2015-03-23T11:43:05Z</time>
      </trkpt>
      <trkpt lat="40.911576" lon="-8.497529">
        <ele>258.787</ele>
        <time>2015-03-23T11:43:20Z</time>
      </trkpt>
      <trkpt lat="40.911642" lon="-8.497454">
        <ele>260.242</ele>
        <time>2015-03-23T11:43:27Z</time>
      </trkpt>
      <trkpt lat="40.911689" lon="-8.497419">
        <ele>261.626</ele>
        <time>2015-03-23T11:43:31Z</time>
      </trkpt>
      <trkpt lat="40.911746" lon="-8.497422">
        <ele>262.107</ele>
        <time>2015-03-23T11:43:35Z</time>
      </trkpt>
      <trkpt lat="40.911823" lon="-8.497435">
        <ele>264.587</ele>
        <time>2015-03-23T11:43:41Z</time>
      </trkpt>
      <trkpt lat="40.912044" lon="-8.497475">
        <ele>265.960</ele>
        <time>2015-03-23T11:43:58Z</time>
      </trkpt>
      <trkpt lat="40.912283" lon="-8.497596">
        <ele>267.452</ele>
        <time>2015-03-23T11:44:13Z</time>
      </trkpt>
      <trkpt lat="40.912658" lon="-8.497850">
        <ele>268.472</ele>
        <time>2015-03-23T11:44:32Z</time>
      </trkpt>
      <trkpt lat="40.913009" lon="-8.497977">
        <ele>270.350</ele>
        <time>2015-03-23T11:44:50Z</time>
      </trkpt>
      <trkpt lat="40.913232" lon="-8.498068">
        <ele>271.215</ele>
        <time>2015-03-23T11:45:04Z</time>
      </trkpt>
      <trkpt lat="40.913329" lon="-8.498130">
        <ele>271.772</ele>
        <time>2015-03-23T11:45:18Z</time>
      </trkpt>
      <trkpt lat="40.913629" lon="-8.498215">
        <ele>274.683</ele>
        <time>2015-03-23T11:45:35Z</time>
      </trkpt>
      <trkpt lat="40.913956" lon="-8.498339">
        <ele>277.025</ele>
        <time>2015-03-23T11:45:53Z</time>
      </trkpt>
      <trkpt lat="40.914052" lon="-8.498362">
        <ele>278.017</ele>
        <time>2015-03-23T11:45:58Z</time>
      </trkpt>
      <trkpt lat="40.914378" lon="-8.498439">
        <ele>279.907</ele>
        <time>2015-03-23T11:46:15Z</time>
      </trkpt>
      <trkpt lat="40.914687" lon="-8.498595">
        <ele>281.357</ele>
        <time>2015-03-23T11:46:32Z</time>
      </trkpt>
      <trkpt lat="40.915012" lon="-8.498824">
        <ele>283.380</ele>
        <time>2015-03-23T11:46:52Z</time>
      </trkpt>
      <trkpt lat="40.915263" lon="-8.498959">
        <ele>286.152</ele>
        <time>2015-03-23T11:47:08Z</time>
      </trkpt>
      <trkpt lat="40.915564" lon="-8.499008">
        <ele>288.162</ele>
        <time>2015-03-23T11:47:24Z</time>
      </trkpt>
      <trkpt lat="40.915875" lon="-8.499004">
        <ele>290.040</ele>
        <time>2015-03-23T11:47:39Z</time>
      </trkpt>
      <trkpt lat="40.916252" lon="-8.498983">
        <ele>290.585</ele>
        <time>2015-03-23T11:47:54Z</time>
      </trkpt>
      <trkpt lat="40.916509" lon="-8.499061">
        <ele>289.062</ele>
        <time>2015-03-23T11:48:02Z</time>
      </trkpt>
      <trkpt lat="40.916973" lon="-8.499435">
        <ele>287.656</ele>
        <time>2015-03-23T11:48:17Z</time>
      </trkpt>
      <trkpt lat="40.917074" lon="-8.499529">
        <ele>287.659</ele>
        <time>2015-03-23T11:48:20Z</time>
      </trkpt>
      <trkpt lat="40.917159" lon="-8.499653">
        <ele>287.614</ele>
        <time>2015-03-23T11:48:23Z</time>
      </trkpt>
      <trkpt lat="40.917506" lon="-8.500081">
        <ele>286.607</ele>
        <time>2015-03-23T11:48:34Z</time>
      </trkpt>
      <trkpt lat="40.917942" lon="-8.500434">
        <ele>285.214</ele>
        <time>2015-03-23T11:48:46Z</time>
      </trkpt>
      <trkpt lat="40.918158" lon="-8.500564">
        <ele>283.737</ele>
        <time>2015-03-23T11:48:51Z</time>
      </trkpt>
      <trkpt lat="40.918487" lon="-8.500704">
        <ele>282.369</ele>
        <time>2015-03-23T11:48:58Z</time>
      </trkpt>
      <trkpt lat="40.918773" lon="-8.501226">
        <ele>279.959</ele>
        <time>2015-03-23T11:49:06Z</time>
      </trkpt>
      <trkpt lat="40.918926" lon="-8.501996">
        <ele>275.667</ele>
        <time>2015-03-23T11:49:14Z</time>
      </trkpt>
      <trkpt lat="40.918951" lon="-8.502091">
        <ele>275.652</ele>
        <time>2015-03-23T11:49:15Z</time>
      </trkpt>
      <trkpt lat="40.919031" lon="-8.502393">
        <ele>274.689</ele>
        <time>2015-03-23T11:49:18Z</time>
      </trkpt>
      <trkpt lat="40.919057" lon="-8.502498">
        <ele>273.252</ele>
        <time>2015-03-23T11:49:19Z</time>
      </trkpt>
      <trkpt lat="40.919516" lon="-8.503466">
        <ele>269.853</ele>
        <time>2015-03-23T11:49:29Z</time>
      </trkpt>
      <trkpt lat="40.919990" lon="-8.504259">
        <ele>266.908</ele>
        <time>2015-03-23T11:49:38Z</time>
      </trkpt>
      <trkpt lat="40.920757" lon="-8.505021">
        <ele>263.507</ele>
        <time>2015-03-23T11:49:51Z</time>
      </trkpt>
      <trkpt lat="40.921121" lon="-8.505579">
        <ele>260.764</ele>
        <time>2015-03-23T11:49:59Z</time>
      </trkpt>
      <trkpt lat="40.921736" lon="-8.506153">
        <ele>257.827</ele>
        <time>2015-03-23T11:50:10Z</time>
      </trkpt>
      <trkpt lat="40.921930" lon="-8.506281">
        <ele>256.339</ele>
        <time>2015-03-23T11:50:13Z</time>
      </trkpt>
      <trkpt lat="40.922433" lon="-8.506652">
        <ele>253.429</ele>
        <time>2015-03-23T11:50:21Z</time>
      </trkpt>
      <trkpt lat="40.922629" lon="-8.506969">
        <ele>251.027</ele>
        <time>2015-03-23T11:50:25Z</time>
      </trkpt>
      <trkpt lat="40.922915" lon="-8.507450">
        <ele>248.252</ele>
        <time>2015-03-23T11:50:31Z</time>
      </trkpt>
      <trkpt lat="40.923185" lon="-8.507860">
        <ele>245.399</ele>
        <time>2015-03-23T11:50:36Z</time>
      </trkpt>
      <trkpt lat="40.923305" lon="-8.508024">
        <ele>243.837</ele>
        <time>2015-03-23T11:50:38Z</time>
      </trkpt>
      <trkpt lat="40.923700" lon="-8.508330">
        <ele>241.449</ele>
        <time>2015-03-23T11:50:43Z</time>
      </trkpt>
      <trkpt lat="40.924231" lon="-8.508572">
        <ele>238.113</ele>
        <time>2015-03-23T11:50:49Z</time>
      </trkpt>
      <trkpt lat="40.924581" lon="-8.508775">
        <ele>235.707</ele>
        <time>2015-03-23T11:50:53Z</time>
      </trkpt>
      <trkpt lat="40.924929" lon="-8.508996">
        <ele>232.832</ele>
        <time>2015-03-23T11:50:57Z</time>
      </trkpt>
      <trkpt lat="40.925203" lon="-8.509473">
        <ele>229.445</ele>
        <time>2015-03-23T11:51:02Z</time>
      </trkpt>
      <trkpt lat="40.925099" lon="-8.509947">
        <ele>227.017</ele>
        <time>2015-03-23T11:51:06Z</time>
      </trkpt>
      <trkpt lat="40.924732" lon="-8.510785">
        <ele>226.517</ele>
        <time>2015-03-23T11:51:15Z</time>
      </trkpt>
      <trkpt lat="40.924741" lon="-8.511097">
        <ele>226.515</ele>
        <time>2015-03-23T11:51:21Z</time>
      </trkpt>
      <trkpt lat="40.924817" lon="-8.511186">
        <ele>228.020</ele>
        <time>2015-03-23T11:51:26Z</time>
      </trkpt>
      <trkpt lat="40.925081" lon="-8.511573">
        <ele>230.467</ele>
        <time>2015-03-23T11:51:43Z</time>
      </trkpt>
      <trkpt lat="40.925202" lon="-8.511736">
        <ele>230.944</ele>
        <time>2015-03-23T11:51:51Z</time>
      </trkpt>
      <trkpt lat="40.925290" lon="-8.511904">
        <ele>232.305</ele>
        <time>2015-03-23T11:52:00Z</time>
      </trkpt>
      <trkpt lat="40.925495" lon="-8.512211">
        <ele>235.715</ele>
        <time>2015-03-23T11:52:17Z</time>
      </trkpt>
      <trkpt lat="40.925618" lon="-8.512212">
        <ele>236.107</ele>
        <time>2015-03-23T11:52:24Z</time>
      </trkpt>
      <trkpt lat="40.925958" lon="-8.512041">
        <ele>238.553</ele>
        <time>2015-03-23T11:52:45Z</time>
      </trkpt>
      <trkpt lat="40.926149" lon="-8.511926">
        <ele>241.066</ele>
        <time>2015-03-23T11:53:00Z</time>
      </trkpt>
      <trkpt lat="40.926391" lon="-8.511807">
        <ele>243.868</ele>
        <time>2015-03-23T11:53:18Z</time>
      </trkpt>
      <trkpt lat="40.926648" lon="-8.511661">
        <ele>245.848</ele>
        <time>2015-03-23T11:53:36Z</time>
      </trkpt>
      <trkpt lat="40.926826" lon="-8.511364">
        <ele>247.756</ele>
        <time>2015-03-23T11:53:54Z</time>
      </trkpt>
      <trkpt lat="40.926994" lon="-8.511054">
        <ele>250.611</ele>
        <time>2015-03-23T11:54:13Z</time>
      </trkpt>
      <trkpt lat="40.927167" lon="-8.510764">
        <ele>253.448</ele>
        <time>2015-03-23T11:54:32Z</time>
      </trkpt>
      <trkpt lat="40.927284" lon="-8.510531">
        <ele>255.463</ele>
        <time>2015-03-23T11:54:47Z</time>
      </trkpt>
      <trkpt lat="40.927412" lon="-8.510297">
        <ele>257.844</ele>
        <time>2015-03-23T11:55:02Z</time>
      </trkpt>
      <trkpt lat="40.927641" lon="-8.509915">
        <ele>260.218</ele>
        <time>2015-03-23T11:55:25Z</time>
      </trkpt>
      <trkpt lat="40.927872" lon="-8.509548">
        <ele>262.107</ele>
        <time>2015-03-23T11:55:47Z</time>
      </trkpt>
      <trkpt lat="40.928060" lon="-8.509230">
        <ele>263.125</ele>
        <time>2015-03-23T11:56:05Z</time>
      </trkpt>
      <trkpt lat="40.928229" lon="-8.508946">
        <ele>265.978</ele>
        <time>2015-03-23T11:56:23Z</time>
      </trkpt>
      <trkpt lat="40.928288" lon="-8.508805">
        <ele>266.980</ele>
        <time>2015-03-23T11:56:54Z</time>
      </trkpt>
      <trkpt lat="40.928465" lon="-8.508536">
        <ele>269.880</ele>
        <time>2015-03-23T11:57:13Z</time>
      </trkpt>
      <trkpt lat="40.928605" lon="-8.508312">
        <ele>272.288</ele>
        <time>2015-03-23T11:57:29Z</time>
      </trkpt>
      <trkpt lat="40.928724" lon="-8.508122">
        <ele>273.623</ele>
        <time>2015-03-23T11:57:42Z</time>
      </trkpt>
      <trkpt lat="40.928783" lon="-8.508046">
        <ele>274.650</ele>
        <time>2015-03-23T11:57:48Z</time>
      </trkpt>
      <trkpt lat="40.928941" lon="-8.507795">
        <ele>278.443</ele>
        <time>2015-03-23T11:58:06Z</time>
      </trkpt>
      <trkpt lat="40.929112" lon="-8.507523">
        <ele>281.864</ele>
        <time>2015-03-23T11:58:25Z</time>
      </trkpt>
      <trkpt lat="40.929266" lon="-8.507250">
        <ele>284.210</ele>
        <time>2015-03-23T11:58:44Z</time>
      </trkpt>
      <trkpt lat="40.929435" lon="-8.506980">
        <ele>287.107</ele>
        <time>2015-03-23T11:59:04Z</time>
      </trkpt>
      <trkpt lat="40.929577" lon="-8.506694">
        <ele>290.093</ele>
        <time>2015-03-23T11:59:23Z</time>
      </trkpt>
      <trkpt lat="40.929683" lon="-8.506376">
        <ele>291.926</ele>
        <time>2015-03-23T11:59:42Z</time>
      </trkpt>
      <trkpt lat="40.929761" lon="-8.506117">
        <ele>294.858</ele>
        <time>2015-03-23T11:59:57Z</time>
      </trkpt>
      <trkpt lat="40.929902" lon="-8.505754">
        <ele>297.798</ele>
        <time>2015-03-23T12:00:17Z</time>
      </trkpt>
      <trkpt lat="40.929960" lon="-8.505474">
        <ele>300.136</ele>
        <time>2015-03-23T12:00:33Z</time>
      </trkpt>
      <trkpt lat="40.930056" lon="-8.505118">
        <ele>303.431</ele>
        <time>2015-03-23T12:00:54Z</time>
      </trkpt>
      <trkpt lat="40.930173" lon="-8.504757">
        <ele>305.828</ele>
        <time>2015-03-23T12:01:13Z</time>
      </trkpt>
      <trkpt lat="40.930233" lon="-8.504435">
        <ele>309.297</ele>
        <time>2015-03-23T12:01:30Z</time>
      </trkpt>
      <trkpt lat="40.930301" lon="-8.504093">
        <ele>311.123</ele>
        <time>2015-03-23T12:01:47Z</time>
      </trkpt>
      <trkpt lat="40.930383" lon="-8.503912">
        <ele>312.125</ele>
        <time>2015-03-23T12:01:55Z</time>
      </trkpt>
      <trkpt lat="40.930445" lon="-8.503903">
        <ele>312.107</ele>
        <time>2015-03-23T12:01:59Z</time>
      </trkpt>
      <trkpt lat="40.930494" lon="-8.503921">
        <ele>312.158</ele>
        <time>2015-03-23T12:02:12Z</time>
      </trkpt>
      <trkpt lat="40.930674" lon="-8.503938">
        <ele>312.111</ele>
        <time>2015-03-23T12:02:23Z</time>
      </trkpt>
      <trkpt lat="40.931018" lon="-8.504017">
        <ele>313.123</ele>
        <time>2015-03-23T12:02:39Z</time>
      </trkpt>
      <trkpt lat="40.931533" lon="-8.504134">
        <ele>314.563</ele>
        <time>2015-03-23T12:03:00Z</time>
      </trkpt>
      <trkpt lat="40.932005" lon="-8.504245">
        <ele>315.061</ele>
        <time>2015-03-23T12:03:18Z</time>
      </trkpt>
      <trkpt lat="40.932760" lon="-8.504441">
        <ele>313.116</ele>
        <time>2015-03-23T12:03:37Z</time>
      </trkpt>
      <trkpt lat="40.933373" lon="-8.504606">
        <ele>310.213</ele>
        <time>2015-03-23T12:03:48Z</time>
      </trkpt>
      <trkpt lat="40.934323" lon="-8.504845">
        <ele>308.288</ele>
        <time>2015-03-23T12:04:06Z</time>
      </trkpt>
      <trkpt lat="40.934881" lon="-8.505134">
        <ele>308.724</ele>
        <time>2015-03-23T12:04:22Z</time>
      </trkpt>
      <trkpt lat="40.935005" lon="-8.505236">
        <ele>309.726</ele>
        <time>2015-03-23T12:04:26Z</time>
      </trkpt>
      <trkpt lat="40.935493" lon="-8.505652">
        <ele>310.607</ele>
        <time>2015-03-23T12:04:43Z</time>
      </trkpt>
      <trkpt lat="40.935959" lon="-8.506068">
        <ele>313.157</ele>
        <time>2015-03-23T12:05:00Z</time>
      </trkpt>
      <trkpt lat="40.936367" lon="-8.506436">
        <ele>313.590</ele>
        <time>2015-03-23T12:05:15Z</time>
      </trkpt>
      <trkpt lat="40.936797" lon="-8.506799">
        <ele>313.582</ele>
        <time>2015-03-23T12:05:28Z</time>
      </trkpt>
      <trkpt lat="40.936886" lon="-8.506846">
        <ele>312.192</ele>
        <time>2015-03-23T12:05:30Z</time>
      </trkpt>
      <trkpt lat="40.937712" lon="-8.507295">
        <ele>310.220</ele>
        <time>2015-03-23T12:05:47Z</time>
      </trkpt>
      <trkpt lat="40.938409" lon="-8.507602">
        <ele>308.245</ele>
        <time>2015-03-23T12:06:04Z</time>
      </trkpt>
      <trkpt lat="40.939053" lon="-8.507766">
        <ele>305.892</ele>
        <time>2015-03-23T12:06:17Z</time>
      </trkpt>
      <trkpt lat="40.939661" lon="-8.507899">
        <ele>307.372</ele>
        <time>2015-03-23T12:06:32Z</time>
      </trkpt>
      <trkpt lat="40.940250" lon="-8.508034">
        <ele>308.713</ele>
        <time>2015-03-23T12:06:49Z</time>
      </trkpt>
      <trkpt lat="40.940940" lon="-8.508183">
        <ele>310.614</ele>
        <time>2015-03-23T12:07:09Z</time>
      </trkpt>
      <trkpt lat="40.941485" lon="-8.508336">
        <ele>312.607</ele>
        <time>2015-03-23T12:07:26Z</time>
      </trkpt>
      <trkpt lat="40.942163" lon="-8.508504">
        <ele>314.596</ele>
        <time>2015-03-23T12:07:46Z</time>
      </trkpt>
      <trkpt lat="40.942765" lon="-8.508656">
        <ele>316.959</ele>
        <time>2015-03-23T12:08:03Z</time>
      </trkpt>
      <trkpt lat="40.943380" lon="-8.508795">
        <ele>316.911</ele>
        <time>2015-03-23T12:08:19Z</time>
      </trkpt>
      <trkpt lat="40.944004" lon="-8.509047">
        <ele>316.941</ele>
        <time>2015-03-23T12:08:35Z</time>
      </trkpt>
      <trkpt lat="40.944498" lon="-8.509333">
        <ele>317.419</ele>
        <time>2015-03-23T12:08:49Z</time>
      </trkpt>
      <trkpt lat="40.945014" lon="-8.509691">
        <ele>317.914</ele>
        <time>2015-03-23T12:09:05Z</time>
      </trkpt>
      <trkpt lat="40.945081" lon="-8.509745">
        <ele>317.981</ele>
        <time>2015-03-23T12:09:17Z</time>
      </trkpt>
      <trkpt lat="40.945438" lon="-8.509978">
        <ele>318.856</ele>
        <time>2015-03-23T12:09:30Z</time>
      </trkpt>
      <trkpt lat="40.945929" lon="-8.510317">
        <ele>319.859</ele>
        <time>2015-03-23T12:09:47Z</time>
      </trkpt>
      <trkpt lat="40.946365" lon="-8.510609">
        <ele>321.214</ele>
        <time>2015-03-23T12:10:02Z</time>
      </trkpt>
      <trkpt lat="40.946866" lon="-8.510946">
        <ele>321.707</ele>
        <time>2015-03-23T12:10:17Z</time>
      </trkpt>
      <trkpt lat="40.947127" lon="-8.511125">
        <ele>320.314</ele>
        <time>2015-03-23T12:10:24Z</time>
      </trkpt>
      <trkpt lat="40.947695" lon="-8.511556">
        <ele>318.877</ele>
        <time>2015-03-23T12:10:39Z</time>
      </trkpt>
      <trkpt lat="40.948200" lon="-8.512051">
        <ele>317.949</ele>
        <time>2015-03-23T12:10:55Z</time>
      </trkpt>
      <trkpt lat="40.948552" lon="-8.512381">
        <ele>319.349</ele>
        <time>2015-03-23T12:11:08Z</time>
      </trkpt>
      <trkpt lat="40.948832" lon="-8.512659">
        <ele>320.347</ele>
        <time>2015-03-23T12:11:19Z</time>
      </trkpt>
      <trkpt lat="40.949241" lon="-8.513065">
        <ele>322.252</ele>
        <time>2015-03-23T12:11:33Z</time>
      </trkpt>
      <trkpt lat="40.949300" lon="-8.513125">
        <ele>320.399</ele>
        <time>2015-03-23T12:11:35Z</time>
      </trkpt>
      <trkpt lat="40.949791" lon="-8.513610">
        <ele>320.314</ele>
        <time>2015-03-23T12:11:52Z</time>
      </trkpt>
      <trkpt lat="40.950236" lon="-8.514054">
        <ele>321.754</ele>
        <time>2015-03-23T12:12:07Z</time>
      </trkpt>
      <trkpt lat="40.950731" lon="-8.514553">
        <ele>321.209</ele>
        <time>2015-03-23T12:12:24Z</time>
      </trkpt>
      <trkpt lat="40.951115" lon="-8.515000">
        <ele>322.707</ele>
        <time>2015-03-23T12:12:38Z</time>
      </trkpt>
      <trkpt lat="40.951386" lon="-8.515229">
        <ele>321.290</ele>
        <time>2015-03-23T12:12:49Z</time>
      </trkpt>
      <trkpt lat="40.951921" lon="-8.515730">
        <ele>320.743</ele>
        <time>2015-03-23T12:13:07Z</time>
      </trkpt>
      <trkpt lat="40.952288" lon="-8.516075">
        <ele>320.735</ele>
        <time>2015-03-23T12:13:20Z</time>
      </trkpt>
      <trkpt lat="40.952935" lon="-8.516529">
        <ele>318.395</ele>
        <time>2015-03-23T12:13:36Z</time>
      </trkpt>
      <trkpt lat="40.953397" lon="-8.516803">
        <ele>314.543</ele>
        <time>2015-03-23T12:13:45Z</time>
      </trkpt>
      <trkpt lat="40.953894" lon="-8.517070">
        <ele>311.668</ele>
        <time>2015-03-23T12:13:53Z</time>
      </trkpt>
      <trkpt lat="40.954516" lon="-8.517403">
        <ele>308.215</ele>
        <time>2015-03-23T12:14:03Z</time>
      </trkpt>
      <trkpt lat="40.955032" lon="-8.517676">
        <ele>308.216</ele>
        <time>2015-03-23T12:14:16Z</time>
      </trkpt>
      <trkpt lat="40.955510" lon="-8.517953">
        <ele>308.276</ele>
        <time>2015-03-23T12:14:35Z</time>
      </trkpt>
      <trkpt lat="40.955554" lon="-8.517980">
        <ele>309.713</ele>
        <time>2015-03-23T12:14:37Z</time>
      </trkpt>
      <trkpt lat="40.955699" lon="-8.518108">
        <ele>310.207</ele>
        <time>2015-03-23T12:14:52Z</time>
      </trkpt>
      <trkpt lat="40.955903" lon="-8.518142">
        <ele>311.690</ele>
        <time>2015-03-23T12:15:21Z</time>
      </trkpt>
      <trkpt lat="40.956140" lon="-8.518284">
        <ele>313.183</ele>
        <time>2015-03-23T12:15:34Z</time>
      </trkpt>
      <trkpt lat="40.956414" lon="-8.518388">
        <ele>314.525</ele>
        <time>2015-03-23T12:15:47Z</time>
      </trkpt>
      <trkpt lat="40.956486" lon="-8.518457">
        <ele>315.575</ele>
        <time>2015-03-23T12:15:52Z</time>
      </trkpt>
      <trkpt lat="40.956820" lon="-8.518820">
        <ele>315.563</ele>
        <time>2015-03-23T12:16:07Z</time>
      </trkpt>
      <trkpt lat="40.957175" lon="-8.519127">
        <ele>315.988</ele>
        <time>2015-03-23T12:16:19Z</time>
      </trkpt>
      <trkpt lat="40.957330" lon="-8.519259">
        <ele>314.575</ele>
        <time>2015-03-23T12:16:23Z</time>
      </trkpt>
      <trkpt lat="40.957966" lon="-8.519687">
        <ele>312.191</ele>
        <time>2015-03-23T12:16:38Z</time>
      </trkpt>
      <trkpt lat="40.958046" lon="-8.519743">
        <ele>311.681</ele>
        <time>2015-03-23T12:16:40Z</time>
      </trkpt>
      <trkpt lat="40.958435" lon="-8.519976">
        <ele>308.719</ele>
        <time>2015-03-23T12:16:51Z</time>
      </trkpt>
      <trkpt lat="40.958807" lon="-8.520211">
        <ele>307.307</ele>
        <time>2015-03-23T12:17:01Z</time>
      </trkpt>
      <trkpt lat="40.959258" lon="-8.520494">
        <ele>304.498</ele>
        <time>2015-03-23T12:17:13Z</time>
      </trkpt>
      <trkpt lat="40.959404" lon="-8.520604">
        <ele>303.071</ele>
        <time>2015-03-23T12:17:17Z</time>
      </trkpt>
      <trkpt lat="40.959831" lon="-8.520888">
        <ele>300.143</ele>
        <time>2015-03-23T12:17:30Z</time>
      </trkpt>
      <trkpt lat="40.960226" lon="-8.521096">
        <ele>298.223</ele>
        <time>2015-03-23T12:17:42Z</time>
      </trkpt>
      <trkpt lat="40.960611" lon="-8.521270">
        <ele>296.721</ele>
        <time>2015-03-23T12:17:57Z</time>
      </trkpt>
      <trkpt lat="40.960964" lon="-8.521353">
        <ele>295.716</ele>
        <time>2015-03-23T12:18:10Z</time>
      </trkpt>
      <trkpt lat="40.961394" lon="-8.521466">
        <ele>293.393</ele>
        <time>2015-03-23T12:18:26Z</time>
      </trkpt>
      <trkpt lat="40.961575" lon="-8.521561">
        <ele>291.489</ele>
        <time>2015-03-23T12:18:36Z</time>
      </trkpt>
      <trkpt lat="40.961651" lon="-8.521581">
        <ele>291.406</ele>
        <time>2015-03-23T12:19:12Z</time>
      </trkpt>
      <trkpt lat="40.961770" lon="-8.521596">
        <ele>290.926</ele>
        <time>2015-03-23T12:19:15Z</time>
      </trkpt>
      <trkpt lat="40.962222" lon="-8.521812">
        <ele>286.607</ele>
        <time>2015-03-23T12:19:23Z</time>
      </trkpt>
      <trkpt lat="40.962748" lon="-8.522108">
        <ele>283.337</ele>
        <time>2015-03-23T12:19:32Z</time>
      </trkpt>
      <trkpt lat="40.962821" lon="-8.522178">
        <ele>282.810</ele>
        <time>2015-03-23T12:19:34Z</time>
      </trkpt>
      <trkpt lat="40.962935" lon="-8.522340">
        <ele>280.822</ele>
        <time>2015-03-23T12:19:37Z</time>
      </trkpt>
      <trkpt lat="40.963192" lon="-8.522627">
        <ele>277.562</ele>
        <time>2015-03-23T12:19:42Z</time>
      </trkpt>
      <trkpt lat="40.963438" lon="-8.522869">
        <ele>273.650</ele>
        <time>2015-03-23T12:19:46Z</time>
      </trkpt>
      <trkpt lat="40.963558" lon="-8.523008">
        <ele>272.215</ele>
        <time>2015-03-23T12:19:48Z</time>
      </trkpt>
      <trkpt lat="40.963914" lon="-8.523160">
        <ele>268.452</ele>
        <time>2015-03-23T12:19:53Z</time>
      </trkpt>
      <trkpt lat="40.963991" lon="-8.523145">
        <ele>268.452</ele>
        <time>2015-03-23T12:19:54Z</time>
      </trkpt>
      <trkpt lat="40.964140" lon="-8.523098">
        <ele>267.953</ele>
        <time>2015-03-23T12:19:56Z</time>
      </trkpt>
      <trkpt lat="40.964457" lon="-8.522872">
        <ele>265.908</ele>
        <time>2015-03-23T12:20:01Z</time>
      </trkpt>
      <trkpt lat="40.964552" lon="-8.522743">
        <ele>265.507</ele>
        <time>2015-03-23T12:20:03Z</time>
      </trkpt>
      <trkpt lat="40.964656" lon="-8.522496">
        <ele>264.594</ele>
        <time>2015-03-23T12:20:06Z</time>
      </trkpt>
      <trkpt lat="40.965110" lon="-8.522243">
        <ele>262.617</ele>
        <time>2015-03-23T12:20:13Z</time>
      </trkpt>
      <trkpt lat="40.965184" lon="-8.522264">
        <ele>262.189</ele>
        <time>2015-03-23T12:20:14Z</time>
      </trkpt>
      <trkpt lat="40.966087" lon="-8.522594">
        <ele>260.719</ele>
        <time>2015-03-23T12:20:29Z</time>
      </trkpt>
      <trkpt lat="40.966133" lon="-8.522612">
        <ele>260.777</ele>
        <time>2015-03-23T12:20:30Z</time>
      </trkpt>
      <trkpt lat="40.966790" lon="-8.523121">
        <ele>260.262</ele>
        <time>2015-03-23T12:20:48Z</time>
      </trkpt>
      <trkpt lat="40.967001" lon="-8.523220">
        <ele>261.649</ele>
        <time>2015-03-23T12:20:54Z</time>
      </trkpt>
      <trkpt lat="40.967508" lon="-8.523455">
        <ele>262.671</ele>
        <time>2015-03-23T12:21:09Z</time>
      </trkpt>
      <trkpt lat="40.967796" lon="-8.523694">
        <ele>265.541</ele>
        <time>2015-03-23T12:21:23Z</time>
      </trkpt>
      <trkpt lat="40.968112" lon="-8.524030">
        <ele>266.415</ele>
        <time>2015-03-23T12:21:38Z</time>
      </trkpt>
      <trkpt lat="40.968680" lon="-8.524311">
        <ele>262.607</ele>
        <time>2015-03-23T12:21:52Z</time>
      </trkpt>
      <trkpt lat="40.968744" lon="-8.524336">
        <ele>262.646</ele>
        <time>2015-03-23T12:21:53Z</time>
      </trkpt>
      <trkpt lat="40.969111" lon="-8.524450">
        <ele>259.779</ele>
        <time>2015-03-23T12:21:58Z</time>
      </trkpt>
      <trkpt lat="40.969353" lon="-8.524537">
        <ele>258.341</ele>
        <time>2015-03-23T12:22:01Z</time>
      </trkpt>
      <trkpt lat="40.969665" lon="-8.524655">
        <ele>255.471</ele>
        <time>2015-03-23T12:22:05Z</time>
      </trkpt>
      <trkpt lat="40.969842" lon="-8.524750">
        <ele>253.929</ele>
        <time>2015-03-23T12:22:08Z</time>
      </trkpt>
      <trkpt lat="40.970219" lon="-8.524928">
        <ele>251.024</ele>
        <time>2015-03-23T12:22:17Z</time>
      </trkpt>
      <trkpt lat="40.970272" lon="-8.524944">
        <ele>250.691</ele>
        <time>2015-03-23T12:22:18Z</time>
      </trkpt>
      <trkpt lat="40.970467" lon="-8.525044">
        <ele>248.675</ele>
        <time>2015-03-23T12:22:22Z</time>
      </trkpt>
      <trkpt lat="40.970772" lon="-8.525174">
        <ele>246.228</ele>
        <time>2015-03-23T12:22:28Z</time>
      </trkpt>
      <trkpt lat="40.970943" lon="-8.525273">
        <ele>244.320</ele>
        <time>2015-03-23T12:22:32Z</time>
      </trkpt>
      <trkpt lat="40.971140" lon="-8.525340">
        <ele>242.407</ele>
        <time>2015-03-23T12:22:37Z</time>
      </trkpt>
      <trkpt lat="40.971422" lon="-8.525321">
        <ele>241.066</ele>
        <time>2015-03-23T12:22:44Z</time>
      </trkpt>
      <trkpt lat="40.971568" lon="-8.525388">
        <ele>241.029</ele>
        <time>2015-03-23T12:22:49Z</time>
      </trkpt>
      <trkpt lat="40.971695" lon="-8.525424">
        <ele>240.511</ele>
        <time>2015-03-23T12:22:53Z</time>
      </trkpt>
      <trkpt lat="40.971826" lon="-8.525522">
        <ele>237.631</ele>
        <time>2015-03-23T12:22:58Z</time>
      </trkpt>
      <trkpt lat="40.972323" lon="-8.525762">
        <ele>235.779</ele>
        <time>2015-03-23T12:23:13Z</time>
      </trkpt>
      <trkpt lat="40.972933" lon="-8.525960">
        <ele>234.264</ele>
        <time>2015-03-23T12:23:28Z</time>
      </trkpt>
      <trkpt lat="40.973446" lon="-8.526082">
        <ele>231.351</ele>
        <time>2015-03-23T12:23:37Z</time>
      </trkpt>
      <trkpt lat="40.974132" lon="-8.526278">
        <ele>228.029</ele>
        <time>2015-03-23T12:23:47Z</time>
      </trkpt>
      <trkpt lat="40.974650" lon="-8.526421">
        <ele>224.600</ele>
        <time>2015-03-23T12:23:54Z</time>
      </trkpt>
      <trkpt lat="40.975650" lon="-8.526667">
        <ele>221.720</ele>
        <time>2015-03-23T12:24:08Z</time>
      </trkpt>
      <trkpt lat="40.975814" lon="-8.526708">
        <ele>221.207</ele>
        <time>2015-03-23T12:24:15Z</time>
      </trkpt>
      <trkpt lat="40.975906" lon="-8.526740">
        <ele>221.211</ele>
        <time>2015-03-23T12:24:32Z</time>
      </trkpt>
      <trkpt lat="40.976368" lon="-8.526972">
        <ele>220.834</ele>
        <time>2015-03-23T12:24:45Z</time>
      </trkpt>
      <trkpt lat="40.976930" lon="-8.527260">
        <ele>219.816</ele>
        <time>2015-03-23T12:24:59Z</time>
      </trkpt>
      <trkpt lat="40.977110" lon="-8.527397">
        <ele>218.466</ele>
        <time>2015-03-23T12:25:03Z</time>
      </trkpt>
      <trkpt lat="40.977466" lon="-8.527813">
        <ele>215.034</ele>
        <time>2015-03-23T12:25:10Z</time>
      </trkpt>
      <trkpt lat="40.977952" lon="-8.528411">
        <ele>211.629</ele>
        <time>2015-03-23T12:25:18Z</time>
      </trkpt>
      <trkpt lat="40.978477" lon="-8.529115">
        <ele>211.666</ele>
        <time>2015-03-23T12:25:29Z</time>
      </trkpt>
      <trkpt lat="40.978736" lon="-8.529506">
        <ele>213.183</ele>
        <time>2015-03-23T12:25:41Z</time>
      </trkpt>
      <trkpt lat="40.978965" lon="-8.529820">
        <ele>215.525</ele>
        <time>2015-03-23T12:25:56Z</time>
      </trkpt>
      <trkpt lat="40.979230" lon="-8.530100">
        <ele>217.917</ele>
        <time>2015-03-23T12:26:13Z</time>
      </trkpt>
      <trkpt lat="40.979510" lon="-8.530446">
        <ele>219.307</ele>
        <time>2015-03-23T12:26:32Z</time>
      </trkpt>
      <trkpt lat="40.979782" lon="-8.530761">
        <ele>221.737</ele>
        <time>2015-03-23T12:26:50Z</time>
      </trkpt>
      <trkpt lat="40.979995" lon="-8.531059">
        <ele>223.610</ele>
        <time>2015-03-23T12:27:06Z</time>
      </trkpt>
      <trkpt lat="40.980233" lon="-8.531286">
        <ele>225.692</ele>
        <time>2015-03-23T12:27:22Z</time>
      </trkpt>
      <trkpt lat="40.980428" lon="-8.531479">
        <ele>226.572</ele>
        <time>2015-03-23T12:27:37Z</time>
      </trkpt>
      <trkpt lat="40.980647" lon="-8.531712">
        <ele>229.920</ele>
        <time>2015-03-23T12:27:54Z</time>
      </trkpt>
      <trkpt lat="40.980859" lon="-8.531941">
        <ele>232.375</ele>
        <time>2015-03-23T12:28:11Z</time>
      </trkpt>
      <trkpt lat="40.981093" lon="-8.532135">
        <ele>234.222</ele>
        <time>2015-03-23T12:28:28Z</time>
      </trkpt>
      <trkpt lat="40.981345" lon="-8.532318">
        <ele>236.164</ele>
        <time>2015-03-23T12:28:45Z</time>
      </trkpt>
      <trkpt lat="40.981580" lon="-8.532550">
        <ele>239.006</ele>
        <time>2015-03-23T12:29:02Z</time>
      </trkpt>
      <trkpt lat="40.981865" lon="-8.532841">
        <ele>240.516</ele>
        <time>2015-03-23T12:29:23Z</time>
      </trkpt>
      <trkpt lat="40.982082" lon="-8.533057">
        <ele>241.907</ele>
        <time>2015-03-23T12:29:37Z</time>
      </trkpt>
      <trkpt lat="40.982299" lon="-8.533285">
        <ele>242.455</ele>
        <time>2015-03-23T12:29:50Z</time>
      </trkpt>
      <trkpt lat="40.982605" lon="-8.533578">
        <ele>243.898</ele>
        <time>2015-03-23T12:30:09Z</time>
      </trkpt>
      <trkpt lat="40.982683" lon="-8.533677">
        <ele>244.390</ele>
        <time>2015-03-23T12:30:27Z</time>
      </trkpt>
      <trkpt lat="40.982960" lon="-8.533941">
        <ele>244.390</ele>
        <time>2015-03-23T12:30:41Z</time>
      </trkpt>
      <trkpt lat="40.983369" lon="-8.534218">
        <ele>244.328</ele>
        <time>2015-03-23T12:30:56Z</time>
      </trkpt>
      <trkpt lat="40.984003" lon="-8.534620">
        <ele>241.433</ele>
        <time>2015-03-23T12:31:13Z</time>
      </trkpt>
      <trkpt lat="40.984202" lon="-8.534762">
        <ele>241.460</ele>
        <time>2015-03-23T12:31:18Z</time>
      </trkpt>
      <trkpt lat="40.984743" lon="-8.534878">
        <ele>240.594</ele>
        <time>2015-03-23T12:31:32Z</time>
      </trkpt>
      <trkpt lat="40.985351" lon="-8.535175">
        <ele>239.057</ele>
        <time>2015-03-23T12:31:46Z</time>
      </trkpt>
      <trkpt lat="40.986147" lon="-8.535483">
        <ele>236.622</ele>
        <time>2015-03-23T12:32:03Z</time>
      </trkpt>
      <trkpt lat="40.986908" lon="-8.535719">
        <ele>233.707</ele>
        <time>2015-03-23T12:32:17Z</time>
      </trkpt>
      <trkpt lat="40.987683" lon="-8.535974">
        <ele>232.858</ele>
        <time>2015-03-23T12:32:33Z</time>
      </trkpt>
      <trkpt lat="40.988003" lon="-8.536076">
        <ele>232.831</ele>
        <time>2015-03-23T12:32:45Z</time>
      </trkpt>
      <trkpt lat="40.988530" lon="-8.536224">
        <ele>234.213</ele>
        <time>2015-03-23T12:33:00Z</time>
      </trkpt>
      <trkpt lat="40.988980" lon="-8.536348">
        <ele>235.283</ele>
        <time>2015-03-23T12:33:12Z</time>
      </trkpt>
      <trkpt lat="40.989498" lon="-8.536559">
        <ele>235.241</ele>
        <time>2015-03-23T12:33:26Z</time>
      </trkpt>
      <trkpt lat="40.990080" lon="-8.536825">
        <ele>237.136</ele>
        <time>2015-03-23T12:33:43Z</time>
      </trkpt>
      <trkpt lat="40.990680" lon="-8.537143">
        <ele>238.593</ele>
        <time>2015-03-23T12:34:01Z</time>
      </trkpt>
      <trkpt lat="40.991224" lon="-8.537358">
        <ele>240.054</ele>
        <time>2015-03-23T12:34:17Z</time>
      </trkpt>
      <trkpt lat="40.991764" lon="-8.537585">
        <ele>241.456</ele>
        <time>2015-03-23T12:34:33Z</time>
      </trkpt>
      <trkpt lat="40.992319" lon="-8.537785">
        <ele>241.911</ele>
        <time>2015-03-23T12:34:49Z</time>
      </trkpt>
      <trkpt lat="40.992983" lon="-8.538037">
        <ele>242.907</ele>
        <time>2015-03-23T12:35:08Z</time>
      </trkpt>
      <trkpt lat="40.993484" lon="-8.538285">
        <ele>243.474</ele>
        <time>2015-03-23T12:35:23Z</time>
      </trkpt>
      <trkpt lat="40.994077" lon="-8.538602">
        <ele>243.837</ele>
        <time>2015-03-23T12:35:39Z</time>
      </trkpt>
      <trkpt lat="40.994643" lon="-8.538903">
        <ele>244.819</ele>
        <time>2015-03-23T12:35:55Z</time>
      </trkpt>
      <trkpt lat="40.995062" lon="-8.539153">
        <ele>245.319</ele>
        <time>2015-03-23T12:36:09Z</time>
      </trkpt>
      <trkpt lat="40.995144" lon="-8.539248">
        <ele>245.347</ele>
        <time>2015-03-23T12:36:14Z</time>
      </trkpt>
      <trkpt lat="40.995190" lon="-8.539379">
        <ele>245.372</ele>
        <time>2015-03-23T12:36:20Z</time>
      </trkpt>
      <trkpt lat="40.995269" lon="-8.539529">
        <ele>244.399</ele>
        <time>2015-03-23T12:36:25Z</time>
      </trkpt>
      <trkpt lat="40.995690" lon="-8.539707">
        <ele>244.316</ele>
        <time>2015-03-23T12:36:39Z</time>
      </trkpt>
      <trkpt lat="40.996137" lon="-8.539834">
        <ele>246.276</ele>
        <time>2015-03-23T12:36:53Z</time>
      </trkpt>
      <trkpt lat="40.996577" lon="-8.539939">
        <ele>247.213</ele>
        <time>2015-03-23T12:37:07Z</time>
      </trkpt>
      <trkpt lat="40.997086" lon="-8.540122">
        <ele>248.207</ele>
        <time>2015-03-23T12:37:23Z</time>
      </trkpt>
      <trkpt lat="40.997453" lon="-8.540289">
        <ele>248.670</ele>
        <time>2015-03-23T12:37:36Z</time>
      </trkpt>
      <trkpt lat="40.997765" lon="-8.540472">
        <ele>249.133</ele>
        <time>2015-03-23T12:37:49Z</time>
      </trkpt>
      <trkpt lat="40.998181" lon="-8.540690">
        <ele>250.145</ele>
        <time>2015-03-23T12:38:04Z</time>
      </trkpt>
      <trkpt lat="40.998654" lon="-8.540928">
        <ele>251.045</ele>
        <time>2015-03-23T12:38:21Z</time>
      </trkpt>
      <trkpt lat="40.999203" lon="-8.541234">
        <ele>251.523</ele>
        <time>2015-03-23T12:38:38Z</time>
      </trkpt>
      <trkpt lat="40.999726" lon="-8.541530">
        <ele>253.078</ele>
        <time>2015-03-23T12:38:54Z</time>
      </trkpt>
      <trkpt lat="41.000201" lon="-8.541780">
        <ele>253.435</ele>
        <time>2015-03-23T12:39:09Z</time>
      </trkpt>
      <trkpt lat="41.000622" lon="-8.542015">
        <ele>253.937</ele>
        <time>2015-03-23T12:39:23Z</time>
      </trkpt>
      <trkpt lat="41.001119" lon="-8.542279">
        <ele>254.949</ele>
        <time>2015-03-23T12:39:38Z</time>
      </trkpt>
      <trkpt lat="41.001575" lon="-8.542753">
        <ele>255.913</ele>
        <time>2015-03-23T12:39:54Z</time>
      </trkpt>
      <trkpt lat="41.001976" lon="-8.543505">
        <ele>255.907</ele>
        <time>2015-03-23T12:40:11Z</time>
      </trkpt>
      <trkpt lat="41.002073" lon="-8.543694">
        <ele>254.422</ele>
        <time>2015-03-23T12:40:15Z</time>
      </trkpt>
      <trkpt lat="41.002508" lon="-8.544560">
        <ele>253.055</ele>
        <time>2015-03-23T12:40:33Z</time>
      </trkpt>
      <trkpt lat="41.002886" lon="-8.545316">
        <ele>252.027</ele>
        <time>2015-03-23T12:40:49Z</time>
      </trkpt>
      <trkpt lat="41.003141" lon="-8.545765">
        <ele>251.057</ele>
        <time>2015-03-23T12:40:59Z</time>
      </trkpt>
      <trkpt lat="41.003185" lon="-8.545864">
        <ele>250.625</ele>
        <time>2015-03-23T12:41:01Z</time>
      </trkpt>
      <trkpt lat="41.003482" lon="-8.546412">
        <ele>250.180</ele>
        <time>2015-03-23T12:41:13Z</time>
      </trkpt>
      <trkpt lat="41.003534" lon="-8.546507">
        <ele>249.667</ele>
        <time>2015-03-23T12:41:15Z</time>
      </trkpt>
      <trkpt lat="41.004055" lon="-8.547340">
        <ele>247.777</ele>
        <time>2015-03-23T12:41:33Z</time>
      </trkpt>
      <trkpt lat="41.004266" lon="-8.547655">
        <ele>246.761</ele>
        <time>2015-03-23T12:41:40Z</time>
      </trkpt>
      <trkpt lat="41.004846" lon="-8.548501">
        <ele>243.427</ele>
        <time>2015-03-23T12:41:56Z</time>
      </trkpt>
      <trkpt lat="41.005338" lon="-8.549268">
        <ele>240.507</ele>
        <time>2015-03-23T12:42:07Z</time>
      </trkpt>
      <trkpt lat="41.005999" lon="-8.550217">
        <ele>237.676</ele>
        <time>2015-03-23T12:42:22Z</time>
      </trkpt>
      <trkpt lat="41.006680" lon="-8.551003">
        <ele>235.269</ele>
        <time>2015-03-23T12:42:37Z</time>
      </trkpt>
      <trkpt lat="41.007149" lon="-8.551700">
        <ele>233.721</ele>
        <time>2015-03-23T12:42:51Z</time>
      </trkpt>
      <trkpt lat="41.007345" lon="-8.552064">
        <ele>233.711</ele>
        <time>2015-03-23T12:42:59Z</time>
      </trkpt>
      <trkpt lat="41.007462" lon="-8.552245">
        <ele>233.739</ele>
        <time>2015-03-23T12:43:03Z</time>
      </trkpt>
      <trkpt lat="41.007833" lon="-8.552856">
        <ele>233.744</ele>
        <time>2015-03-23T12:43:18Z</time>
      </trkpt>
      <trkpt lat="41.007695" lon="-8.553019">
        <ele>233.781</ele>
        <time>2015-03-23T12:43:33Z</time>
      </trkpt>
      <trkpt lat="41.007654" lon="-8.553077">
        <ele>233.317</ele>
        <time>2015-03-23T12:43:35Z</time>
      </trkpt>
      <trkpt lat="41.007395" lon="-8.553498">
        <ele>229.987</ele>
        <time>2015-03-23T12:43:47Z</time>
      </trkpt>
      <trkpt lat="41.007321" lon="-8.553672">
        <ele>228.915</ele>
        <time>2015-03-23T12:44:21Z</time>
      </trkpt>
      <trkpt lat="41.007247" lon="-8.553765">
        <ele>226.507</ele>
        <time>2015-03-23T12:44:23Z</time>
      </trkpt>
      <trkpt lat="41.007134" lon="-8.553966">
        <ele>224.680</ele>
        <time>2015-03-23T12:44:26Z</time>
      </trkpt>
      <trkpt lat="41.007114" lon="-8.554150">
        <ele>222.753</ele>
        <time>2015-03-23T12:44:29Z</time>
      </trkpt>
      <trkpt lat="41.007153" lon="-8.554239">
        <ele>222.295</ele>
        <time>2015-03-23T12:44:31Z</time>
      </trkpt>
      <trkpt lat="41.007263" lon="-8.554532">
        <ele>222.285</ele>
        <time>2015-03-23T12:44:39Z</time>
      </trkpt>
      <trkpt lat="41.007345" lon="-8.554978">
        <ele>219.853</ele>
        <time>2015-03-23T12:44:46Z</time>
      </trkpt>
      <trkpt lat="41.007429" lon="-8.555209">
        <ele>218.418</ele>
        <time>2015-03-23T12:44:49Z</time>
      </trkpt>
      <trkpt lat="41.007587" lon="-8.555627">
        <ele>216.465</ele>
        <time>2015-03-23T12:44:54Z</time>
      </trkpt>
      <trkpt lat="41.007627" lon="-8.555806">
        <ele>216.089</ele>
        <time>2015-03-23T12:44:56Z</time>
      </trkpt>
      <trkpt lat="41.007661" lon="-8.556197">
        <ele>215.006</ele>
        <time>2015-03-23T12:45:00Z</time>
      </trkpt>
      <trkpt lat="41.007727" lon="-8.556556">
        <ele>213.626</ele>
        <time>2015-03-23T12:45:04Z</time>
      </trkpt>
      <trkpt lat="41.008195" lon="-8.557723">
        <ele>211.207</ele>
        <time>2015-03-23T12:45:20Z</time>
      </trkpt>
      <trkpt lat="41.008467" lon="-8.558412">
        <ele>211.297</ele>
        <time>2015-03-23T12:45:34Z</time>
      </trkpt>
      <trkpt lat="41.008471" lon="-8.558794">
        <ele>212.680</ele>
        <time>2015-03-23T12:45:42Z</time>
      </trkpt>
      <trkpt lat="41.008390" lon="-8.558926">
        <ele>212.682</ele>
        <time>2015-03-23T12:45:45Z</time>
      </trkpt>
      <trkpt lat="41.008097" lon="-8.559281">
        <ele>210.272</ele>
        <time>2015-03-23T12:45:55Z</time>
      </trkpt>
      <trkpt lat="41.007789" lon="-8.559387">
        <ele>206.850</ele>
        <time>2015-03-23T12:46:01Z</time>
      </trkpt>
      <trkpt lat="41.007429" lon="-8.559686">
        <ele>204.495</ele>
        <time>2015-03-23T12:46:07Z</time>
      </trkpt>
      <trkpt lat="41.006806" lon="-8.560013">
        <ele>202.532</ele>
        <time>2015-03-23T12:46:18Z</time>
      </trkpt>
      <trkpt lat="41.006720" lon="-8.560081">
        <ele>202.545</ele>
        <time>2015-03-23T12:46:22Z</time>
      </trkpt>
      <trkpt lat="41.006813" lon="-8.560423">
        <ele>204.447</ele>
        <time>2015-03-23T13:02:07Z</time>
      </trkpt>
      <trkpt lat="41.006896" lon="-8.560757">
        <ele>205.911</ele>
        <time>2015-03-23T13:02:24Z</time>
      </trkpt>
      <trkpt lat="41.007000" lon="-8.561060">
        <ele>209.207</ele>
        <time>2015-03-23T13:02:42Z</time>
      </trkpt>
      <trkpt lat="41.007043" lon="-8.561274">
        <ele>210.753</ele>
        <time>2015-03-23T13:03:07Z</time>
      </trkpt>
      <trkpt lat="41.007047" lon="-8.561570">
        <ele>212.656</ele>
        <time>2015-03-23T13:03:22Z</time>
      </trkpt>
      <trkpt lat="41.007014" lon="-8.561859">
        <ele>213.698</ele>
        <time>2015-03-23T13:03:37Z</time>
      </trkpt>
      <trkpt lat="41.006932" lon="-8.562237">
        <ele>216.978</ele>
        <time>2015-03-23T13:03:58Z</time>
      </trkpt>
      <trkpt lat="41.006791" lon="-8.562545">
        <ele>219.396</ele>
        <time>2015-03-23T13:04:16Z</time>
      </trkpt>
      <trkpt lat="41.006708" lon="-8.562798">
        <ele>221.241</ele>
        <time>2015-03-23T13:04:31Z</time>
      </trkpt>
      <trkpt lat="41.006680" lon="-8.563086">
        <ele>223.238</ele>
        <time>2015-03-23T13:04:47Z</time>
      </trkpt>
      <trkpt lat="41.006762" lon="-8.563526">
        <ele>221.745</ele>
        <time>2015-03-23T13:05:01Z</time>
      </trkpt>
      <trkpt lat="41.006893" lon="-8.564072">
        <ele>218.847</ele>
        <time>2015-03-23T13:05:11Z</time>
      </trkpt>
      <trkpt lat="41.006936" lon="-8.564245">
        <ele>216.411</ele>
        <time>2015-03-23T13:05:14Z</time>
      </trkpt>
      <trkpt lat="41.006948" lon="-8.564586">
        <ele>213.107</ele>
        <time>2015-03-23T13:05:18Z</time>
      </trkpt>
      <trkpt lat="41.006951" lon="-8.564969">
        <ele>208.383</ele>
        <time>2015-03-23T13:05:22Z</time>
      </trkpt>
      <trkpt lat="41.006958" lon="-8.565317">
        <ele>204.936</ele>
        <time>2015-03-23T13:05:27Z</time>
      </trkpt>
      <trkpt lat="41.006965" lon="-8.565462">
        <ele>203.048</ele>
        <time>2015-03-23T13:05:30Z</time>
      </trkpt>
      <trkpt lat="41.006967" lon="-8.565579">
        <ele>201.168</ele>
        <time>2015-03-23T13:05:41Z</time>
      </trkpt>
      <trkpt lat="41.007072" lon="-8.565656">
        <ele>200.636</ele>
        <time>2015-03-23T13:06:02Z</time>
      </trkpt>
      <trkpt lat="41.007409" lon="-8.565806">
        <ele>200.631</ele>
        <time>2015-03-23T13:06:22Z</time>
      </trkpt>
      <trkpt lat="41.007701" lon="-8.566085">
        <ele>198.738</ele>
        <time>2015-03-23T13:06:33Z</time>
      </trkpt>
      <trkpt lat="41.007801" lon="-8.566250">
        <ele>197.219</ele>
        <time>2015-03-23T13:06:36Z</time>
      </trkpt>
      <trkpt lat="41.007889" lon="-8.566330">
        <ele>195.309</ele>
        <time>2015-03-23T13:06:38Z</time>
      </trkpt>
      <trkpt lat="41.008248" lon="-8.566591">
        <ele>193.419</ele>
        <time>2015-03-23T13:06:45Z</time>
      </trkpt>
      <trkpt lat="41.008404" lon="-8.566837">
        <ele>190.507</ele>
        <time>2015-03-23T13:06:49Z</time>
      </trkpt>
      <trkpt lat="41.008491" lon="-8.567070">
        <ele>188.640</ele>
        <time>2015-03-23T13:06:52Z</time>
      </trkpt>
      <trkpt lat="41.008579" lon="-8.567303">
        <ele>185.723</ele>
        <time>2015-03-23T13:06:57Z</time>
      </trkpt>
      <trkpt lat="41.008656" lon="-8.567293">
        <ele>184.715</ele>
        <time>2015-03-23T13:06:59Z</time>
      </trkpt>
      <trkpt lat="41.008746" lon="-8.567263">
        <ele>184.275</ele>
        <time>2015-03-23T13:07:01Z</time>
      </trkpt>
      <trkpt lat="41.009006" lon="-8.567268">
        <ele>183.373</ele>
        <time>2015-03-23T13:07:06Z</time>
      </trkpt>
      <trkpt lat="41.009686" lon="-8.567387">
        <ele>179.948</ele>
        <time>2015-03-23T13:07:17Z</time>
      </trkpt>
      <trkpt lat="41.010216" lon="-8.567493">
        <ele>176.565</ele>
        <time>2015-03-23T13:07:25Z</time>
      </trkpt>
      <trkpt lat="41.010553" lon="-8.567566">
        <ele>173.742</ele>
        <time>2015-03-23T13:07:30Z</time>
      </trkpt>
      <trkpt lat="41.010980" lon="-8.567587">
        <ele>169.822</ele>
        <time>2015-03-23T13:07:35Z</time>
      </trkpt>
      <trkpt lat="41.011266" lon="-8.567574">
        <ele>166.514</ele>
        <time>2015-03-23T13:07:38Z</time>
      </trkpt>
      <trkpt lat="41.011459" lon="-8.567545">
        <ele>164.507</ele>
        <time>2015-03-23T13:07:40Z</time>
      </trkpt>
      <trkpt lat="41.012023" lon="-8.567457">
        <ele>161.223</ele>
        <time>2015-03-23T13:07:47Z</time>
      </trkpt>
      <trkpt lat="41.012076" lon="-8.567522">
        <ele>161.286</ele>
        <time>2015-03-23T13:07:48Z</time>
      </trkpt>
      <trkpt lat="41.012237" lon="-8.567746">
        <ele>161.258</ele>
        <time>2015-03-23T13:07:52Z</time>
      </trkpt>
      <trkpt lat="41.012393" lon="-8.567825">
        <ele>161.268</ele>
        <time>2015-03-23T13:07:56Z</time>
      </trkpt>
      <trkpt lat="41.012477" lon="-8.567826">
        <ele>162.656</ele>
        <time>2015-03-23T13:07:59Z</time>
      </trkpt>
      <trkpt lat="41.012924" lon="-8.567850">
        <ele>164.071</ele>
        <time>2015-03-23T13:08:16Z</time>
      </trkpt>
      <trkpt lat="41.013332" lon="-8.567882">
        <ele>166.518</ele>
        <time>2015-03-23T13:08:33Z</time>
      </trkpt>
      <trkpt lat="41.013771" lon="-8.567928">
        <ele>166.562</ele>
        <time>2015-03-23T13:08:49Z</time>
      </trkpt>
      <trkpt lat="41.014337" lon="-8.567972">
        <ele>168.483</ele>
        <time>2015-03-23T13:09:07Z</time>
      </trkpt>
      <trkpt lat="41.014689" lon="-8.568034">
        <ele>168.411</ele>
        <time>2015-03-23T13:09:18Z</time>
      </trkpt>
      <trkpt lat="41.014781" lon="-8.568020">
        <ele>166.507</ele>
        <time>2015-03-23T13:09:20Z</time>
      </trkpt>
      <trkpt lat="41.014981" lon="-8.568025">
        <ele>164.525</ele>
        <time>2015-03-23T13:09:24Z</time>
      </trkpt>
      <trkpt lat="41.015168" lon="-8.568053">
        <ele>161.628</ele>
        <time>2015-03-23T13:09:28Z</time>
      </trkpt>
      <trkpt lat="41.015303" lon="-8.568181">
        <ele>159.280</ele>
        <time>2015-03-23T13:09:33Z</time>
      </trkpt>
      <trkpt lat="41.015366" lon="-8.568359">
        <ele>157.320</ele>
        <time>2015-03-23T13:09:36Z</time>
      </trkpt>
      <trkpt lat="41.015582" lon="-8.568755">
        <ele>153.588</ele>
        <time>2015-03-23T13:09:41Z</time>
      </trkpt>
      <trkpt lat="41.015764" lon="-8.569012">
        <ele>150.183</ele>
        <time>2015-03-23T13:09:44Z</time>
      </trkpt>
      <trkpt lat="41.016390" lon="-8.569621">
        <ele>148.720</ele>
        <time>2015-03-23T13:09:54Z</time>
      </trkpt>
      <trkpt lat="41.016543" lon="-8.569908">
        <ele>150.116</ele>
        <time>2015-03-23T13:09:59Z</time>
      </trkpt>
      <trkpt lat="41.016878" lon="-8.570519">
        <ele>150.676</ele>
        <time>2015-03-23T13:10:14Z</time>
      </trkpt>
      <trkpt lat="41.017118" lon="-8.570881">
        <ele>152.013</ele>
        <time>2015-03-23T13:10:27Z</time>
      </trkpt>
      <trkpt lat="41.017462" lon="-8.571222">
        <ele>151.107</ele>
        <time>2015-03-23T13:10:41Z</time>
      </trkpt>
      <trkpt lat="41.017833" lon="-8.571660">
        <ele>150.670</ele>
        <time>2015-03-23T13:10:56Z</time>
      </trkpt>
      <trkpt lat="41.018137" lon="-8.572147">
        <ele>150.693</ele>
        <time>2015-03-23T13:11:11Z</time>
      </trkpt>
      <trkpt lat="41.018408" lon="-8.572589">
        <ele>150.655</ele>
        <time>2015-03-23T13:11:25Z</time>
      </trkpt>
      <trkpt lat="41.018519" lon="-8.573062">
        <ele>151.555</ele>
        <time>2015-03-23T13:11:38Z</time>
      </trkpt>
      <trkpt lat="41.018553" lon="-8.573414">
        <ele>151.543</ele>
        <time>2015-03-23T13:11:46Z</time>
      </trkpt>
      <trkpt lat="41.018607" lon="-8.573635">
        <ele>150.138</ele>
        <time>2015-03-23T13:11:50Z</time>
      </trkpt>
      <trkpt lat="41.018905" lon="-8.574124">
        <ele>148.785</ele>
        <time>2015-03-23T13:12:03Z</time>
      </trkpt>
      <trkpt lat="41.019219" lon="-8.574639">
        <ele>148.724</ele>
        <time>2015-03-23T13:12:20Z</time>
      </trkpt>
      <trkpt lat="41.019235" lon="-8.574716">
        <ele>150.104</ele>
        <time>2015-03-23T13:12:22Z</time>
      </trkpt>
      <trkpt lat="41.019394" lon="-8.575182">
        <ele>149.114</ele>
        <time>2015-03-23T13:12:34Z</time>
      </trkpt>
      <trkpt lat="41.019782" lon="-8.575561">
        <ele>148.707</ele>
        <time>2015-03-23T13:12:48Z</time>
      </trkpt>
      <trkpt lat="41.020230" lon="-8.576009">
        <ele>148.751</ele>
        <time>2015-03-23T13:13:04Z</time>
      </trkpt>
      <trkpt lat="41.020481" lon="-8.576443">
        <ele>149.654</ele>
        <time>2015-03-23T13:13:17Z</time>
      </trkpt>
      <trkpt lat="41.020615" lon="-8.576588">
        <ele>148.216</ele>
        <time>2015-03-23T13:13:21Z</time>
      </trkpt>
      <trkpt lat="41.020742" lon="-8.576671">
        <ele>146.726</ele>
        <time>2015-03-23T13:13:24Z</time>
      </trkpt>
      <trkpt lat="41.021165" lon="-8.576736">
        <ele>144.334</ele>
        <time>2015-03-23T13:13:32Z</time>
      </trkpt>
      <trkpt lat="41.021287" lon="-8.576754">
        <ele>143.449</ele>
        <time>2015-03-23T13:13:34Z</time>
      </trkpt>
      <trkpt lat="41.021605" lon="-8.576894">
        <ele>141.556</ele>
        <time>2015-03-23T13:13:39Z</time>
      </trkpt>
      <trkpt lat="41.021804" lon="-8.576984">
        <ele>139.184</ele>
        <time>2015-03-23T13:13:42Z</time>
      </trkpt>
      <trkpt lat="41.022205" lon="-8.577031">
        <ele>135.707</ele>
        <time>2015-03-23T13:13:47Z</time>
      </trkpt>
      <trkpt lat="41.022595" lon="-8.577040">
        <ele>131.417</ele>
        <time>2015-03-23T13:13:51Z</time>
      </trkpt>
      <trkpt lat="41.022911" lon="-8.577040">
        <ele>128.007</ele>
        <time>2015-03-23T13:13:54Z</time>
      </trkpt>
      <trkpt lat="41.023018" lon="-8.577046">
        <ele>128.027</ele>
        <time>2015-03-23T13:13:55Z</time>
      </trkpt>
      <trkpt lat="41.023335" lon="-8.577073">
        <ele>126.150</ele>
        <time>2015-03-23T13:13:58Z</time>
      </trkpt>
      <trkpt lat="41.023601" lon="-8.577044">
        <ele>124.652</ele>
        <time>2015-03-23T13:14:01Z</time>
      </trkpt>
      <trkpt lat="41.023947" lon="-8.577034">
        <ele>124.622</ele>
        <time>2015-03-23T13:14:06Z</time>
      </trkpt>
      <trkpt lat="41.024189" lon="-8.577046">
        <ele>125.640</ele>
        <time>2015-03-23T13:14:12Z</time>
      </trkpt>
      <trkpt lat="41.024719" lon="-8.577048">
        <ele>128.595</ele>
        <time>2015-03-23T13:14:31Z</time>
      </trkpt>
      <trkpt lat="41.025066" lon="-8.577136">
        <ele>130.432</ele>
        <time>2015-03-23T13:14:46Z</time>
      </trkpt>
      <trkpt lat="41.025416" lon="-8.577492">
        <ele>131.829</ele>
        <time>2015-03-23T13:15:05Z</time>
      </trkpt>
      <trkpt lat="41.025788" lon="-8.577689">
        <ele>132.300</ele>
        <time>2015-03-23T13:15:23Z</time>
      </trkpt>
      <trkpt lat="41.026096" lon="-8.577655">
        <ele>134.220</ele>
        <time>2015-03-23T13:15:38Z</time>
      </trkpt>
      <trkpt lat="41.026297" lon="-8.577958">
        <ele>134.207</ele>
        <time>2015-03-23T13:15:51Z</time>
      </trkpt>
      <trkpt lat="41.026290" lon="-8.578367">
        <ele>134.791</ele>
        <time>2015-03-23T13:16:03Z</time>
      </trkpt>
      <trkpt lat="41.026197" lon="-8.578815">
        <ele>134.784</ele>
        <time>2015-03-23T13:16:14Z</time>
      </trkpt>
      <trkpt lat="41.026100" lon="-8.579449">
        <ele>134.786</ele>
        <time>2015-03-23T13:16:29Z</time>
      </trkpt>
      <trkpt lat="41.026137" lon="-8.580139">
        <ele>133.346</ele>
        <time>2015-03-23T13:16:44Z</time>
      </trkpt>
      <trkpt lat="41.026269" lon="-8.580741">
        <ele>132.884</ele>
        <time>2015-03-23T13:16:59Z</time>
      </trkpt>
      <trkpt lat="41.026322" lon="-8.580877">
        <ele>132.359</ele>
        <time>2015-03-23T13:18:27Z</time>
      </trkpt>
      <trkpt lat="41.026471" lon="-8.581124">
        <ele>132.356</ele>
        <time>2015-03-23T13:18:39Z</time>
      </trkpt>
      <trkpt lat="41.026662" lon="-8.581241">
        <ele>133.865</ele>
        <time>2015-03-23T13:18:48Z</time>
      </trkpt>
      <trkpt lat="41.027009" lon="-8.581360">
        <ele>134.768</ele>
        <time>2015-03-23T13:19:04Z</time>
      </trkpt>
      <trkpt lat="41.027405" lon="-8.581437">
        <ele>136.214</ele>
        <time>2015-03-23T13:19:22Z</time>
      </trkpt>
      <trkpt lat="41.027831" lon="-8.581502">
        <ele>137.107</ele>
        <time>2015-03-23T13:19:41Z</time>
      </trkpt>
      <trkpt lat="41.028222" lon="-8.581576">
        <ele>138.175</ele>
        <time>2015-03-23T13:19:58Z</time>
      </trkpt>
      <trkpt lat="41.028465" lon="-8.581600">
        <ele>136.678</ele>
        <time>2015-03-23T13:20:08Z</time>
      </trkpt>
      <trkpt lat="41.028679" lon="-8.581653">
        <ele>136.660</ele>
        <time>2015-03-23T13:20:18Z</time>
      </trkpt>
      <trkpt lat="41.028721" lon="-8.581727">
        <ele>136.640</ele>
        <time>2015-03-23T13:20:22Z</time>
      </trkpt>
      <trkpt lat="41.028722" lon="-8.582084">
        <ele>137.128</ele>
        <time>2015-03-23T13:21:07Z</time>
      </trkpt>
      <trkpt lat="41.028714" lon="-8.582835">
        <ele>137.153</ele>
        <time>2015-03-23T13:21:24Z</time>
      </trkpt>
      <trkpt lat="41.028724" lon="-8.583748">
        <ele>138.170</ele>
        <time>2015-03-23T13:21:44Z</time>
      </trkpt>
      <trkpt lat="41.028724" lon="-8.584663">
        <ele>138.649</ele>
        <time>2015-03-23T13:22:04Z</time>
      </trkpt>
      <trkpt lat="41.028717" lon="-8.585687">
        <ele>139.102</ele>
        <time>2015-03-23T13:22:26Z</time>
      </trkpt>
      <trkpt lat="41.028715" lon="-8.586446">
        <ele>138.622</ele>
        <time>2015-03-23T13:22:40Z</time>
      </trkpt>
      <trkpt lat="41.028729" lon="-8.587212">
        <ele>137.607</ele>
        <time>2015-03-23T13:22:54Z</time>
      </trkpt>
      <trkpt lat="41.028722" lon="-8.588360">
        <ele>136.253</ele>
        <time>2015-03-23T13:23:15Z</time>
      </trkpt>
      <trkpt lat="41.028756" lon="-8.589160">
        <ele>135.726</ele>
        <time>2015-03-23T13:23:32Z</time>
      </trkpt>
      <trkpt lat="41.028978" lon="-8.589304">
        <ele>135.238</ele>
        <time>2015-03-23T13:23:41Z</time>
      </trkpt>
      <trkpt lat="41.029412" lon="-8.589248">
        <ele>132.898</ele>
        <time>2015-03-23T13:23:54Z</time>
      </trkpt>
      <trkpt lat="41.029542" lon="-8.589233">
        <ele>132.356</ele>
        <time>2015-03-23T13:23:57Z</time>
      </trkpt>
      <trkpt lat="41.030109" lon="-8.589132">
        <ele>129.011</ele>
        <time>2015-03-23T13:24:09Z</time>
      </trkpt>
      <trkpt lat="41.030215" lon="-8.589112">
        <ele>127.588</ele>
        <time>2015-03-23T13:24:11Z</time>
      </trkpt>
      <trkpt lat="41.030975" lon="-8.589075">
        <ele>126.118</ele>
        <time>2015-03-23T13:24:24Z</time>
      </trkpt>
      <trkpt lat="41.031407" lon="-8.589016">
        <ele>124.298</ele>
        <time>2015-03-23T13:24:32Z</time>
      </trkpt>
      <trkpt lat="41.031772" lon="-8.588906">
        <ele>120.817</ele>
        <time>2015-03-23T13:24:41Z</time>
      </trkpt>
      <trkpt lat="41.031853" lon="-8.588880">
        <ele>120.307</ele>
        <time>2015-03-23T13:24:43Z</time>
      </trkpt>
      <trkpt lat="41.032466" lon="-8.588658">
        <ele>116.910</ele>
        <time>2015-03-23T13:24:56Z</time>
      </trkpt>
      <trkpt lat="41.032513" lon="-8.588630">
        <ele>116.993</ele>
        <time>2015-03-23T13:24:57Z</time>
      </trkpt>
      <trkpt lat="41.032654" lon="-8.588531">
        <ele>115.015</ele>
        <time>2015-03-23T13:25:00Z</time>
      </trkpt>
      <trkpt lat="41.033191" lon="-8.588011">
        <ele>112.115</ele>
        <time>2015-03-23T13:25:10Z</time>
      </trkpt>
      <trkpt lat="41.033466" lon="-8.587901">
        <ele>112.143</ele>
        <time>2015-03-23T13:25:14Z</time>
      </trkpt>
      <trkpt lat="41.033682" lon="-8.587919">
        <ele>113.198</ele>
        <time>2015-03-23T13:25:17Z</time>
      </trkpt>
      <trkpt lat="41.034126" lon="-8.587939">
        <ele>113.615</ele>
        <time>2015-03-23T13:25:27Z</time>
      </trkpt>
      <trkpt lat="41.034541" lon="-8.587895">
        <ele>114.115</ele>
        <time>2015-03-23T13:25:43Z</time>
      </trkpt>
      <trkpt lat="41.034826" lon="-8.587646">
        <ele>116.965</ele>
        <time>2015-03-23T13:25:58Z</time>
      </trkpt>
      <trkpt lat="41.035075" lon="-8.587289">
        <ele>120.311</ele>
        <time>2015-03-23T13:26:14Z</time>
      </trkpt>
      <trkpt lat="41.035359" lon="-8.586897">
        <ele>122.207</ele>
        <time>2015-03-23T13:26:32Z</time>
      </trkpt>
      <trkpt lat="41.035590" lon="-8.586589">
        <ele>125.630</ele>
        <time>2015-03-23T13:26:47Z</time>
      </trkpt>
      <trkpt lat="41.035900" lon="-8.586519">
        <ele>127.093</ele>
        <time>2015-03-23T13:27:02Z</time>
      </trkpt>
      <trkpt lat="41.036229" lon="-8.586593">
        <ele>127.545</ele>
        <time>2015-03-23T13:27:16Z</time>
      </trkpt>
      <trkpt lat="41.036603" lon="-8.586630">
        <ele>128.025</ele>
        <time>2015-03-23T13:27:32Z</time>
      </trkpt>
      <trkpt lat="41.037046" lon="-8.586586">
        <ele>128.023</ele>
        <time>2015-03-23T13:27:47Z</time>
      </trkpt>
      <trkpt lat="41.037578" lon="-8.586469">
        <ele>128.028</ele>
        <time>2015-03-23T13:28:04Z</time>
      </trkpt>
      <trkpt lat="41.038072" lon="-8.586245">
        <ele>129.065</ele>
        <time>2015-03-23T13:28:20Z</time>
      </trkpt>
      <trkpt lat="41.038126" lon="-8.586229">
        <ele>128.049</ele>
        <time>2015-03-23T13:28:22Z</time>
      </trkpt>
      <trkpt lat="41.038609" lon="-8.586308">
        <ele>128.002</ele>
        <time>2015-03-23T13:28:37Z</time>
      </trkpt>
      <trkpt lat="41.039034" lon="-8.586453">
        <ele>127.522</ele>
        <time>2015-03-23T13:28:50Z</time>
      </trkpt>
      <trkpt lat="41.039569" lon="-8.586551">
        <ele>125.107</ele>
        <time>2015-03-23T13:29:03Z</time>
      </trkpt>
      <trkpt lat="41.039945" lon="-8.586624">
        <ele>121.743</ele>
        <time>2015-03-23T13:29:09Z</time>
      </trkpt>
      <trkpt lat="41.040291" lon="-8.586675">
        <ele>118.996</ele>
        <time>2015-03-23T13:29:14Z</time>
      </trkpt>
      <trkpt lat="41.040504" lon="-8.586809">
        <ele>115.528</ele>
        <time>2015-03-23T13:29:19Z</time>
      </trkpt>
      <trkpt lat="41.040617" lon="-8.586690">
        <ele>113.128</ele>
        <time>2015-03-23T13:29:23Z</time>
      </trkpt>
      <trkpt lat="41.040870" lon="-8.586018">
        <ele>114.516</ele>
        <time>2015-03-23T13:29:38Z</time>
      </trkpt>
      <trkpt lat="41.040993" lon="-8.586089">
        <ele>115.581</ele>
        <time>2015-03-23T13:29:42Z</time>
      </trkpt>
      <trkpt lat="41.041093" lon="-8.586274">
        <ele>113.698</ele>
        <time>2015-03-23T13:29:45Z</time>
      </trkpt>
      <trkpt lat="41.041387" lon="-8.586594">
        <ele>109.387</ele>
        <time>2015-03-23T13:29:50Z</time>
      </trkpt>
      <trkpt lat="41.041598" lon="-8.586968">
        <ele>109.342</ele>
        <time>2015-03-23T13:29:55Z</time>
      </trkpt>
      <trkpt lat="41.041738" lon="-8.587434">
        <ele>110.726</ele>
        <time>2015-03-23T13:30:03Z</time>
      </trkpt>
      <trkpt lat="41.041996" lon="-8.588012">
        <ele>112.607</ele>
        <time>2015-03-23T13:30:18Z</time>
      </trkpt>
      <trkpt lat="41.042041" lon="-8.588072">
        <ele>112.627</ele>
        <time>2015-03-23T13:30:20Z</time>
      </trkpt>
      <trkpt lat="41.042173" lon="-8.588042">
        <ele>113.110</ele>
        <time>2015-03-23T13:30:26Z</time>
      </trkpt>
      <trkpt lat="41.042494" lon="-8.587831">
        <ele>115.042</ele>
        <time>2015-03-23T13:30:44Z</time>
      </trkpt>
      <trkpt lat="41.042815" lon="-8.587700">
        <ele>116.922</ele>
        <time>2015-03-23T13:31:00Z</time>
      </trkpt>
      <trkpt lat="41.043134" lon="-8.587718">
        <ele>117.430</ele>
        <time>2015-03-23T13:31:14Z</time>
      </trkpt>
      <trkpt lat="41.043533" lon="-8.587988">
        <ele>117.975</ele>
        <time>2015-03-23T13:31:32Z</time>
      </trkpt>
      <trkpt lat="41.043921" lon="-8.588248">
        <ele>119.332</ele>
        <time>2015-03-23T13:31:50Z</time>
      </trkpt>
      <trkpt lat="41.044216" lon="-8.588437">
        <ele>121.383</ele>
        <time>2015-03-23T13:32:05Z</time>
      </trkpt>
      <trkpt lat="41.044527" lon="-8.588641">
        <ele>122.725</ele>
        <time>2015-03-23T13:32:21Z</time>
      </trkpt>
      <trkpt lat="41.044797" lon="-8.588785">
        <ele>124.617</ele>
        <time>2015-03-23T13:32:34Z</time>
      </trkpt>
      <trkpt lat="41.045111" lon="-8.588904">
        <ele>125.607</ele>
        <time>2015-03-23T13:32:49Z</time>
      </trkpt>
      <trkpt lat="41.045357" lon="-8.589019">
        <ele>126.647</ele>
        <time>2015-03-23T13:33:01Z</time>
      </trkpt>
      <trkpt lat="41.045625" lon="-8.589232">
        <ele>126.610</ele>
        <time>2015-03-23T13:33:14Z</time>
      </trkpt>
      <trkpt lat="41.045930" lon="-8.589437">
        <ele>127.592</ele>
        <time>2015-03-23T13:33:28Z</time>
      </trkpt>
      <trkpt lat="41.046255" lon="-8.589664">
        <ele>127.592</ele>
        <time>2015-03-23T13:33:43Z</time>
      </trkpt>
      <trkpt lat="41.046668" lon="-8.589918">
        <ele>128.510</ele>
        <time>2015-03-23T13:33:57Z</time>
      </trkpt>
      <trkpt lat="41.047135" lon="-8.589990">
        <ele>128.565</ele>
        <time>2015-03-23T13:34:11Z</time>
      </trkpt>
      <trkpt lat="41.047493" lon="-8.590066">
        <ele>129.472</ele>
        <time>2015-03-23T13:34:24Z</time>
      </trkpt>
      <trkpt lat="41.047909" lon="-8.590086">
        <ele>129.495</ele>
        <time>2015-03-23T13:34:38Z</time>
      </trkpt>
      <trkpt lat="41.048244" lon="-8.590123">
        <ele>132.349</ele>
        <time>2015-03-23T13:34:53Z</time>
      </trkpt>
      <trkpt lat="41.048593" lon="-8.590173">
        <ele>133.823</ele>
        <time>2015-03-23T13:35:11Z</time>
      </trkpt>
      <trkpt lat="41.048942" lon="-8.590202">
        <ele>135.707</ele>
        <time>2015-03-23T13:35:29Z</time>
      </trkpt>
      <trkpt lat="41.049290" lon="-8.590215">
        <ele>137.698</ele>
        <time>2015-03-23T13:35:46Z</time>
      </trkpt>
      <trkpt lat="41.049419" lon="-8.590225">
        <ele>139.181</ele>
        <time>2015-03-23T13:36:19Z</time>
      </trkpt>
      <trkpt lat="41.049638" lon="-8.590204">
        <ele>140.573</ele>
        <time>2015-03-23T13:36:32Z</time>
      </trkpt>
      <trkpt lat="41.050030" lon="-8.590207">
        <ele>142.973</ele>
        <time>2015-03-23T13:36:49Z</time>
      </trkpt>
      <trkpt lat="41.050285" lon="-8.590193">
        <ele>145.391</ele>
        <time>2015-03-23T13:37:04Z</time>
      </trkpt>
      <trkpt lat="41.050584" lon="-8.589992">
        <ele>146.746</ele>
        <time>2015-03-23T13:37:22Z</time>
      </trkpt>
      <trkpt lat="41.050841" lon="-8.589825">
        <ele>147.223</ele>
        <time>2015-03-23T13:37:35Z</time>
      </trkpt>
      <trkpt lat="41.051008" lon="-8.589759">
        <ele>145.873</ele>
        <time>2015-03-23T13:37:41Z</time>
      </trkpt>
      <trkpt lat="41.051420" lon="-8.589779">
        <ele>145.385</ele>
        <time>2015-03-23T13:37:54Z</time>
      </trkpt>
      <trkpt lat="41.051887" lon="-8.589776">
        <ele>142.913</ele>
        <time>2015-03-23T13:38:08Z</time>
      </trkpt>
      <trkpt lat="41.052338" lon="-8.589742">
        <ele>141.907</ele>
        <time>2015-03-23T13:38:23Z</time>
      </trkpt>
      <trkpt lat="41.052987" lon="-8.589825">
        <ele>141.066</ele>
        <time>2015-03-23T13:38:39Z</time>
      </trkpt>
      <trkpt lat="41.053173" lon="-8.589895">
        <ele>140.069</ele>
        <time>2015-03-23T13:38:43Z</time>
      </trkpt>
      <trkpt lat="41.053425" lon="-8.589849">
        <ele>139.591</ele>
        <time>2015-03-23T13:38:49Z</time>
      </trkpt>
      <trkpt lat="41.053725" lon="-8.589694">
        <ele>137.121</ele>
        <time>2015-03-23T13:38:56Z</time>
      </trkpt>
      <trkpt lat="41.053922" lon="-8.589618">
        <ele>136.669</ele>
        <time>2015-03-23T13:39:00Z</time>
      </trkpt>
      <trkpt lat="41.054319" lon="-8.589430">
        <ele>133.874</ele>
        <time>2015-03-23T13:39:09Z</time>
      </trkpt>
      <trkpt lat="41.054389" lon="-8.589372">
        <ele>133.811</ele>
        <time>2015-03-23T13:39:11Z</time>
      </trkpt>
      <trkpt lat="41.054465" lon="-8.589269">
        <ele>134.745</ele>
        <time>2015-03-23T13:39:14Z</time>
      </trkpt>
      <trkpt lat="41.054498" lon="-8.589161">
        <ele>134.747</ele>
        <time>2015-03-23T13:39:18Z</time>
      </trkpt>
      <trkpt lat="41.054758" lon="-8.588749">
        <ele>138.111</ele>
        <time>2015-03-23T13:39:35Z</time>
      </trkpt>
      <trkpt lat="41.054876" lon="-8.588597">
        <ele>138.107</ele>
        <time>2015-03-23T13:39:40Z</time>
      </trkpt>
      <trkpt lat="41.054979" lon="-8.588516">
        <ele>136.663</ele>
        <time>2015-03-23T13:39:43Z</time>
      </trkpt>
      <trkpt lat="41.055337" lon="-8.588452">
        <ele>133.886</ele>
        <time>2015-03-23T13:39:50Z</time>
      </trkpt>
      <trkpt lat="41.055463" lon="-8.588435">
        <ele>133.358</ele>
        <time>2015-03-23T13:39:52Z</time>
      </trkpt>
      <trkpt lat="41.055836" lon="-8.588323">
        <ele>129.938</ele>
        <time>2015-03-23T13:39:58Z</time>
      </trkpt>
      <trkpt lat="41.056118" lon="-8.588516">
        <ele>126.626</ele>
        <time>2015-03-23T13:40:02Z</time>
      </trkpt>
      <trkpt lat="41.056531" lon="-8.588870">
        <ele>124.221</ele>
        <time>2015-03-23T13:40:08Z</time>
      </trkpt>
      <trkpt lat="41.056979" lon="-8.588988">
        <ele>119.318</ele>
        <time>2015-03-23T13:40:13Z</time>
      </trkpt>
      <trkpt lat="41.057065" lon="-8.588996">
        <ele>119.358</ele>
        <time>2015-03-23T13:40:14Z</time>
      </trkpt>
      <trkpt lat="41.057631" lon="-8.588954">
        <ele>119.352</ele>
        <time>2015-03-23T13:40:23Z</time>
      </trkpt>
      <trkpt lat="41.057759" lon="-8.588915">
        <ele>120.817</ele>
        <time>2015-03-23T13:40:27Z</time>
      </trkpt>
      <trkpt lat="41.058214" lon="-8.588778">
        <ele>123.707</ele>
        <time>2015-03-23T13:40:45Z</time>
      </trkpt>
      <trkpt lat="41.058618" lon="-8.588629">
        <ele>125.684</ele>
        <time>2015-03-23T13:41:04Z</time>
      </trkpt>
      <trkpt lat="41.058962" lon="-8.588423">
        <ele>126.687</ele>
        <time>2015-03-23T13:41:22Z</time>
      </trkpt>
      <trkpt lat="41.059270" lon="-8.588192">
        <ele>128.019</ele>
        <time>2015-03-23T13:41:38Z</time>
      </trkpt>
      <trkpt lat="41.059642" lon="-8.587906">
        <ele>129.099</ele>
        <time>2015-03-23T13:41:57Z</time>
      </trkpt>
      <trkpt lat="41.059794" lon="-8.587792">
        <ele>130.937</ele>
        <time>2015-03-23T13:42:05Z</time>
      </trkpt>
      <trkpt lat="41.060129" lon="-8.587578">
        <ele>131.882</ele>
        <time>2015-03-23T13:42:23Z</time>
      </trkpt>
      <trkpt lat="41.060432" lon="-8.587423">
        <ele>132.889</ele>
        <time>2015-03-23T13:42:37Z</time>
      </trkpt>
      <trkpt lat="41.060730" lon="-8.587262">
        <ele>133.867</ele>
        <time>2015-03-23T13:42:52Z</time>
      </trkpt>
      <trkpt lat="41.061033" lon="-8.587125">
        <ele>135.281</ele>
        <time>2015-03-23T13:43:08Z</time>
      </trkpt>
      <trkpt lat="41.061398" lon="-8.586996">
        <ele>137.119</ele>
        <time>2015-03-23T13:43:27Z</time>
      </trkpt>
      <trkpt lat="41.061712" lon="-8.587049">
        <ele>137.107</ele>
        <time>2015-03-23T13:43:41Z</time>
      </trkpt>
      <trkpt lat="41.061907" lon="-8.587080">
        <ele>139.155</ele>
        <time>2015-03-23T13:44:40Z</time>
      </trkpt>
      <trkpt lat="41.062188" lon="-8.587218">
        <ele>142.468</ele>
        <time>2015-03-23T13:44:54Z</time>
      </trkpt>
      <trkpt lat="41.062487" lon="-8.587335">
        <ele>143.930</ele>
        <time>2015-03-23T13:45:10Z</time>
      </trkpt>
      <trkpt lat="41.062707" lon="-8.587364">
        <ele>145.380</ele>
        <time>2015-03-23T13:45:24Z</time>
      </trkpt>
      <trkpt lat="41.062871" lon="-8.587356">
        <ele>145.328</ele>
        <time>2015-03-23T13:45:38Z</time>
      </trkpt>
      <trkpt lat="41.063026" lon="-8.587295">
        <ele>145.323</ele>
        <time>2015-03-23T13:46:05Z</time>
      </trkpt>
      <trkpt lat="41.063230" lon="-8.587227">
        <ele>147.720</ele>
        <time>2015-03-23T13:46:20Z</time>
      </trkpt>
      <trkpt lat="41.063532" lon="-8.587119">
        <ele>148.277</ele>
        <time>2015-03-23T13:46:38Z</time>
      </trkpt>
      <trkpt lat="41.063737" lon="-8.587091">
        <ele>149.161</ele>
        <time>2015-03-23T13:46:52Z</time>
      </trkpt>
      <trkpt lat="41.063942" lon="-8.587040">
        <ele>150.627</ele>
        <time>2015-03-23T13:47:07Z</time>
      </trkpt>
      <trkpt lat="41.064125" lon="-8.587035">
        <ele>154.007</ele>
        <time>2015-03-23T13:51:29Z</time>
      </trkpt>
      <trkpt lat="41.064332" lon="-8.586990">
        <ele>154.456</ele>
        <time>2015-03-23T14:03:04Z</time>
      </trkpt>
      <trkpt lat="41.064404" lon="-8.586953">
        <ele>154.989</ele>
        <time>2015-03-23T14:03:10Z</time>
      </trkpt>
      <trkpt lat="41.064584" lon="-8.586790">
        <ele>155.911</ele>
        <time>2015-03-23T14:03:25Z</time>
      </trkpt>
      <trkpt lat="41.064713" lon="-8.586506">
        <ele>156.871</ele>
        <time>2015-03-23T14:03:41Z</time>
      </trkpt>
      <trkpt lat="41.064824" lon="-8.586167">
        <ele>157.889</ele>
        <time>2015-03-23T14:03:59Z</time>
      </trkpt>
      <trkpt lat="41.065047" lon="-8.585841">
        <ele>160.774</ele>
        <time>2015-03-23T14:04:21Z</time>
      </trkpt>
      <trkpt lat="41.065158" lon="-8.585815">
        <ele>161.661</ele>
        <time>2015-03-23T14:04:36Z</time>
      </trkpt>
      <trkpt lat="41.065402" lon="-8.585911">
        <ele>163.698</ele>
        <time>2015-03-23T14:05:19Z</time>
      </trkpt>
      <trkpt lat="41.065592" lon="-8.586005">
        <ele>164.515</ele>
        <time>2015-03-23T14:05:34Z</time>
      </trkpt>
      <trkpt lat="41.065769" lon="-8.585997">
        <ele>166.526</ele>
        <time>2015-03-23T14:05:46Z</time>
      </trkpt>
      <trkpt lat="41.065993" lon="-8.585989">
        <ele>167.907</ele>
        <time>2015-03-23T14:06:00Z</time>
      </trkpt>
      <trkpt lat="41.066164" lon="-8.585967">
        <ele>169.318</ele>
        <time>2015-03-23T14:06:13Z</time>
      </trkpt>
      <trkpt lat="41.066422" lon="-8.585969">
        <ele>170.331</ele>
        <time>2015-03-23T14:06:28Z</time>
      </trkpt>
      <trkpt lat="41.066710" lon="-8.585980">
        <ele>173.293</ele>
        <time>2015-03-23T14:06:46Z</time>
      </trkpt>
      <trkpt lat="41.066961" lon="-8.585987">
        <ele>173.793</ele>
        <time>2015-03-23T14:07:02Z</time>
      </trkpt>
      <trkpt lat="41.067234" lon="-8.586040">
        <ele>175.621</ele>
        <time>2015-03-23T14:07:21Z</time>
      </trkpt>
      <trkpt lat="41.067420" lon="-8.585958">
        <ele>178.036</ele>
        <time>2015-03-23T14:07:36Z</time>
      </trkpt>
      <trkpt lat="41.067635" lon="-8.585855">
        <ele>179.443</ele>
        <time>2015-03-23T14:07:52Z</time>
      </trkpt>
      <trkpt lat="41.067855" lon="-8.585754">
        <ele>180.957</ele>
        <time>2015-03-23T14:08:08Z</time>
      </trkpt>
      <trkpt lat="41.068032" lon="-8.585736">
        <ele>182.800</ele>
        <time>2015-03-23T14:08:21Z</time>
      </trkpt>
      <trkpt lat="41.068223" lon="-8.585700">
        <ele>182.820</ele>
        <time>2015-03-23T14:08:33Z</time>
      </trkpt>
      <trkpt lat="41.068264" lon="-8.585660">
        <ele>183.307</ele>
        <time>2015-03-23T14:09:06Z</time>
      </trkpt>
      <trkpt lat="41.068342" lon="-8.585630">
        <ele>183.824</ele>
        <time>2015-03-23T14:09:16Z</time>
      </trkpt>
      <trkpt lat="41.068519" lon="-8.585552">
        <ele>187.167</ele>
        <time>2015-03-23T14:09:36Z</time>
      </trkpt>
      <trkpt lat="41.068649" lon="-8.585468">
        <ele>189.599</ele>
        <time>2015-03-23T14:09:50Z</time>
      </trkpt>
      <trkpt lat="41.068791" lon="-8.585378">
        <ele>191.049</ele>
        <time>2015-03-23T14:10:04Z</time>
      </trkpt>
      <trkpt lat="41.068945" lon="-8.585233">
        <ele>191.447</ele>
        <time>2015-03-23T14:10:18Z</time>
      </trkpt>
      <trkpt lat="41.069101" lon="-8.585113">
        <ele>192.982</ele>
        <time>2015-03-23T14:10:32Z</time>
      </trkpt>
      <trkpt lat="41.069276" lon="-8.585021">
        <ele>195.389</ele>
        <time>2015-03-23T14:10:47Z</time>
      </trkpt>
      <trkpt lat="41.069355" lon="-8.584983">
        <ele>195.836</ele>
        <time>2015-03-23T14:11:07Z</time>
      </trkpt>
      <trkpt lat="41.069418" lon="-8.585017">
        <ele>197.217</ele>
        <time>2015-03-23T14:11:49Z</time>
      </trkpt>
      <trkpt lat="41.069469" lon="-8.585014">
        <ele>197.718</ele>
        <time>2015-03-23T14:12:15Z</time>
      </trkpt>
      <trkpt lat="41.069584" lon="-8.585003">
        <ele>200.107</ele>
        <time>2015-03-23T14:12:29Z</time>
      </trkpt>
      <trkpt lat="41.069728" lon="-8.584963">
        <ele>201.532</ele>
        <time>2015-03-23T14:12:42Z</time>
      </trkpt>
      <trkpt lat="41.069902" lon="-8.584942">
        <ele>202.575</ele>
        <time>2015-03-23T14:12:55Z</time>
      </trkpt>
      <trkpt lat="41.070057" lon="-8.584940">
        <ele>205.437</ele>
        <time>2015-03-23T14:13:09Z</time>
      </trkpt>
      <trkpt lat="41.070167" lon="-8.584928">
        <ele>205.977</ele>
        <time>2015-03-23T14:13:21Z</time>
      </trkpt>
      <trkpt lat="41.070306" lon="-8.584902">
        <ele>208.355</ele>
        <time>2015-03-23T14:13:33Z</time>
      </trkpt>
      <trkpt lat="41.070441" lon="-8.584873">
        <ele>210.760</ele>
        <time>2015-03-23T14:13:46Z</time>
      </trkpt>
      <trkpt lat="41.070621" lon="-8.584843">
        <ele>213.187</ele>
        <time>2015-03-23T14:14:02Z</time>
      </trkpt>
      <trkpt lat="41.070781" lon="-8.584815">
        <ele>215.539</ele>
        <time>2015-03-23T14:14:16Z</time>
      </trkpt>
      <trkpt lat="41.070990" lon="-8.584753">
        <ele>216.001</ele>
        <time>2015-03-23T14:14:30Z</time>
      </trkpt>
      <trkpt lat="41.071045" lon="-8.584735">
        <ele>216.021</ele>
        <time>2015-03-23T14:14:34Z</time>
      </trkpt>
      <trkpt lat="41.071096" lon="-8.584746">
        <ele>216.407</ele>
        <time>2015-03-23T14:14:38Z</time>
      </trkpt>
      <trkpt lat="41.071153" lon="-8.584738">
        <ele>216.982</ele>
        <time>2015-03-23T14:14:42Z</time>
      </trkpt>
      <trkpt lat="41.071325" lon="-8.584692">
        <ele>218.885</ele>
        <time>2015-03-23T14:14:57Z</time>
      </trkpt>
      <trkpt lat="41.071500" lon="-8.584647">
        <ele>221.267</ele>
        <time>2015-03-23T14:15:12Z</time>
      </trkpt>
      <trkpt lat="41.071663" lon="-8.584626">
        <ele>221.787</ele>
        <time>2015-03-23T14:15:25Z</time>
      </trkpt>
      <trkpt lat="41.071758" lon="-8.584593">
        <ele>223.615</ele>
        <time>2015-03-23T14:15:33Z</time>
      </trkpt>
      <trkpt lat="41.071874" lon="-8.584551">
        <ele>225.130</ele>
        <time>2015-03-23T14:15:42Z</time>
      </trkpt>
      <trkpt lat="41.072063" lon="-8.584526">
        <ele>227.097</ele>
        <time>2015-03-23T14:15:56Z</time>
      </trkpt>
      <trkpt lat="41.072217" lon="-8.584502">
        <ele>227.058</ele>
        <time>2015-03-23T14:16:06Z</time>
      </trkpt>
      <trkpt lat="41.072375" lon="-8.584559">
        <ele>228.552</ele>
        <time>2015-03-23T14:16:20Z</time>
      </trkpt>
      <trkpt lat="41.072543" lon="-8.584617">
        <ele>230.417</ele>
        <time>2015-03-23T14:16:33Z</time>
      </trkpt>
      <trkpt lat="41.072682" lon="-8.584671">
        <ele>232.307</ele>
        <time>2015-03-23T14:16:47Z</time>
      </trkpt>
      <trkpt lat="41.072811" lon="-8.584699">
        <ele>235.714</ele>
        <time>2015-03-23T14:16:59Z</time>
      </trkpt>
      <trkpt lat="41.072901" lon="-8.584720">
        <ele>236.127</ele>
        <time>2015-03-23T14:17:06Z</time>
      </trkpt>
      <trkpt lat="41.073061" lon="-8.584766">
        <ele>236.199</ele>
        <time>2015-03-23T14:17:18Z</time>
      </trkpt>
      <trkpt lat="41.073107" lon="-8.584769">
        <ele>236.119</ele>
        <time>2015-03-23T14:17:22Z</time>
      </trkpt>
      <trkpt lat="41.073221" lon="-8.584754">
        <ele>237.627</ele>
        <time>2015-03-23T14:17:30Z</time>
      </trkpt>
      <trkpt lat="41.073375" lon="-8.584683">
        <ele>238.572</ele>
        <time>2015-03-23T14:17:41Z</time>
      </trkpt>
      <trkpt lat="41.073524" lon="-8.584695">
        <ele>239.529</ele>
        <time>2015-03-23T14:17:51Z</time>
      </trkpt>
      <trkpt lat="41.073747" lon="-8.584737">
        <ele>242.491</ele>
        <time>2015-03-23T14:18:08Z</time>
      </trkpt>
      <trkpt lat="41.074008" lon="-8.584730">
        <ele>244.381</ele>
        <time>2015-03-23T14:18:23Z</time>
      </trkpt>
      <trkpt lat="41.074126" lon="-8.584736">
        <ele>244.319</ele>
        <time>2015-03-23T14:18:36Z</time>
      </trkpt>
      <trkpt lat="41.074175" lon="-8.584965">
        <ele>244.307</ele>
        <time>2015-03-23T14:18:54Z</time>
      </trkpt>
      <trkpt lat="41.074321" lon="-8.585091">
        <ele>244.318</ele>
        <time>2015-03-23T14:19:04Z</time>
      </trkpt>
      <trkpt lat="41.074559" lon="-8.585144">
        <ele>245.331</ele>
        <time>2015-03-23T14:19:17Z</time>
      </trkpt>
      <trkpt lat="41.074901" lon="-8.585213">
        <ele>246.713</ele>
        <time>2015-03-23T14:19:36Z</time>
      </trkpt>
      <trkpt lat="41.075197" lon="-8.585262">
        <ele>247.243</ele>
        <time>2015-03-23T14:19:51Z</time>
      </trkpt>
      <trkpt lat="41.075466" lon="-8.585335">
        <ele>248.241</ele>
        <time>2015-03-23T14:20:03Z</time>
      </trkpt>
      <trkpt lat="41.075777" lon="-8.585467">
        <ele>246.276</ele>
        <time>2015-03-23T14:20:17Z</time>
      </trkpt>
      <trkpt lat="41.076071" lon="-8.585538">
        <ele>244.873</ele>
        <time>2015-03-23T14:20:31Z</time>
      </trkpt>
      <trkpt lat="41.076208" lon="-8.585557">
        <ele>244.317</ele>
        <time>2015-03-23T14:20:46Z</time>
      </trkpt>
      <trkpt lat="41.076275" lon="-8.585544">
        <ele>244.387</ele>
        <time>2015-03-23T14:21:00Z</time>
      </trkpt>
      <trkpt lat="41.076345" lon="-8.585553">
        <ele>245.315</ele>
        <time>2015-03-23T14:21:24Z</time>
      </trkpt>
      <trkpt lat="41.076441" lon="-8.585551">
        <ele>245.307</ele>
        <time>2015-03-23T14:21:36Z</time>
      </trkpt>
      <trkpt lat="41.076569" lon="-8.585509">
        <ele>245.350</ele>
        <time>2015-03-23T14:21:53Z</time>
      </trkpt>
      <trkpt lat="41.076686" lon="-8.585497">
        <ele>246.283</ele>
        <time>2015-03-23T14:22:06Z</time>
      </trkpt>
      <trkpt lat="41.076823" lon="-8.585518">
        <ele>246.775</ele>
        <time>2015-03-23T14:22:21Z</time>
      </trkpt>
      <trkpt lat="41.076894" lon="-8.585483">
        <ele>246.795</ele>
        <time>2015-03-23T14:22:29Z</time>
      </trkpt>
      <trkpt lat="41.076985" lon="-8.585528">
        <ele>247.763</ele>
        <time>2015-03-23T14:22:42Z</time>
      </trkpt>
      <trkpt lat="41.077167" lon="-8.585603">
        <ele>248.248</ele>
        <time>2015-03-23T14:22:59Z</time>
      </trkpt>
      <trkpt lat="41.077281" lon="-8.585628">
        <ele>247.785</ele>
        <time>2015-03-23T14:23:12Z</time>
      </trkpt>
      <trkpt lat="41.077567" lon="-8.585640">
        <ele>248.666</ele>
        <time>2015-03-23T14:23:25Z</time>
      </trkpt>
      <trkpt lat="41.077871" lon="-8.585668">
        <ele>249.129</ele>
        <time>2015-03-23T14:23:38Z</time>
      </trkpt>
      <trkpt lat="41.078241" lon="-8.585722">
        <ele>248.221</ele>
        <time>2015-03-23T14:23:52Z</time>
      </trkpt>
      <trkpt lat="41.078601" lon="-8.585757">
        <ele>247.207</ele>
        <time>2015-03-23T14:24:02Z</time>
      </trkpt>
      <trkpt lat="41.078971" lon="-8.585836">
        <ele>243.895</ele>
        <time>2015-03-23T14:24:09Z</time>
      </trkpt>
      <trkpt lat="41.079207" lon="-8.585889">
        <ele>239.068</ele>
        <time>2015-03-23T14:24:12Z</time>
      </trkpt>
      <trkpt lat="41.079483" lon="-8.585965">
        <ele>235.210</ele>
        <time>2015-03-23T14:24:15Z</time>
      </trkpt>
      <trkpt lat="41.079784" lon="-8.586051">
        <ele>231.870</ele>
        <time>2015-03-23T14:24:18Z</time>
      </trkpt>
      <trkpt lat="41.080101" lon="-8.586137">
        <ele>227.098</ele>
        <time>2015-03-23T14:24:21Z</time>
      </trkpt>
      <trkpt lat="41.080208" lon="-8.586161">
        <ele>227.053</ele>
        <time>2015-03-23T14:24:22Z</time>
      </trkpt>
      <trkpt lat="41.080423" lon="-8.586216">
        <ele>226.150</ele>
        <time>2015-03-23T14:24:24Z</time>
      </trkpt>
      <trkpt lat="41.081008" lon="-8.586498">
        <ele>225.115</ele>
        <time>2015-03-23T14:24:31Z</time>
      </trkpt>
      <trkpt lat="41.081175" lon="-8.586577">
        <ele>224.665</ele>
        <time>2015-03-23T14:24:34Z</time>
      </trkpt>
      <trkpt lat="41.081277" lon="-8.586615">
        <ele>224.611</ele>
        <time>2015-03-23T14:24:36Z</time>
      </trkpt>
      <trkpt lat="41.081594" lon="-8.586769">
        <ele>226.107</ele>
        <time>2015-03-23T14:24:45Z</time>
      </trkpt>
      <trkpt lat="41.081803" lon="-8.586893">
        <ele>228.060</ele>
        <time>2015-03-23T14:24:57Z</time>
      </trkpt>
      <trkpt lat="41.081946" lon="-8.586991">
        <ele>229.453</ele>
        <time>2015-03-23T14:25:09Z</time>
      </trkpt>
      <trkpt lat="41.082123" lon="-8.587075">
        <ele>229.425</ele>
        <time>2015-03-23T14:25:22Z</time>
      </trkpt>
      <trkpt lat="41.082292" lon="-8.587171">
        <ele>231.845</ele>
        <time>2015-03-23T14:25:35Z</time>
      </trkpt>
      <trkpt lat="41.082416" lon="-8.587260">
        <ele>235.763</ele>
        <time>2015-03-23T14:25:46Z</time>
      </trkpt>
      <trkpt lat="41.082566" lon="-8.587355">
        <ele>238.568</ele>
        <time>2015-03-23T14:25:53Z</time>
      </trkpt>
      <trkpt lat="41.082626" lon="-8.587391">
        <ele>239.095</ele>
        <time>2015-03-23T14:25:57Z</time>
      </trkpt>
      <trkpt lat="41.082838" lon="-8.587526">
        <ele>240.099</ele>
        <time>2015-03-23T14:26:10Z</time>
      </trkpt>
      <trkpt lat="41.083092" lon="-8.587732">
        <ele>240.007</ele>
        <time>2015-03-23T14:26:21Z</time>
      </trkpt>
      <trkpt lat="41.083289" lon="-8.587913">
        <ele>240.027</ele>
        <time>2015-03-23T14:26:36Z</time>
      </trkpt>
      <trkpt lat="41.083428" lon="-8.588037">
        <ele>243.407</ele>
        <time>2015-03-23T14:26:49Z</time>
      </trkpt>
      <trkpt lat="41.083519" lon="-8.588130">
        <ele>243.888</ele>
        <time>2015-03-23T14:26:57Z</time>
      </trkpt>
      <trkpt lat="41.083576" lon="-8.588194">
        <ele>244.821</ele>
        <time>2015-03-23T14:27:03Z</time>
      </trkpt>
      <trkpt lat="41.083759" lon="-8.588371">
        <ele>246.713</ele>
        <time>2015-03-23T14:27:16Z</time>
      </trkpt>
      <trkpt lat="41.083910" lon="-8.588617">
        <ele>247.783</ele>
        <time>2015-03-23T14:27:30Z</time>
      </trkpt>
      <trkpt lat="41.084036" lon="-8.589023">
        <ele>244.891</ele>
        <time>2015-03-23T14:27:40Z</time>
      </trkpt>
      <trkpt lat="41.084100" lon="-8.589311">
        <ele>241.936</ele>
        <time>2015-03-23T14:27:46Z</time>
      </trkpt>
      <trkpt lat="41.084229" lon="-8.589706">
        <ele>238.583</ele>
        <time>2015-03-23T14:27:54Z</time>
      </trkpt>
      <trkpt lat="41.084327" lon="-8.590173">
        <ele>235.214</ele>
        <time>2015-03-23T14:28:01Z</time>
      </trkpt>
      <trkpt lat="41.084380" lon="-8.590431">
        <ele>235.254</ele>
        <time>2015-03-23T14:28:05Z</time>
      </trkpt>
      <trkpt lat="41.084421" lon="-8.590715">
        <ele>235.209</ele>
        <time>2015-03-23T14:28:10Z</time>
      </trkpt>
      <trkpt lat="41.084488" lon="-8.590822">
        <ele>235.207</ele>
        <time>2015-03-23T14:28:14Z</time>
      </trkpt>
      <trkpt lat="41.084554" lon="-8.590895">
        <ele>235.220</ele>
        <time>2015-03-23T14:28:19Z</time>
      </trkpt>
      <trkpt lat="41.084788" lon="-8.591156">
        <ele>237.623</ele>
        <time>2015-03-23T14:28:34Z</time>
      </trkpt>
      <trkpt lat="41.085113" lon="-8.591496">
        <ele>238.175</ele>
        <time>2015-03-23T14:28:51Z</time>
      </trkpt>
      <trkpt lat="41.085448" lon="-8.591868">
        <ele>235.755</ele>
        <time>2015-03-23T14:29:04Z</time>
      </trkpt>
      <trkpt lat="41.085545" lon="-8.591968">
        <ele>234.793</ele>
        <time>2015-03-23T14:29:09Z</time>
      </trkpt>
      <trkpt lat="41.085590" lon="-8.592029">
        <ele>234.268</ele>
        <time>2015-03-23T14:29:12Z</time>
      </trkpt>
      <trkpt lat="41.085662" lon="-8.592127">
        <ele>231.835</ele>
        <time>2015-03-23T14:29:24Z</time>
      </trkpt>
      <trkpt lat="41.085698" lon="-8.592182">
        <ele>229.462</ele>
        <time>2015-03-23T14:29:35Z</time>
      </trkpt>
      <trkpt lat="41.085769" lon="-8.592251">
        <ele>225.683</ele>
        <time>2015-03-23T14:29:47Z</time>
      </trkpt>
      <trkpt lat="41.085849" lon="-8.592335">
        <ele>223.611</ele>
        <time>2015-03-23T14:29:57Z</time>
      </trkpt>
      <trkpt lat="41.085955" lon="-8.592454">
        <ele>221.207</ele>
        <time>2015-03-23T14:30:11Z</time>
      </trkpt>
      <trkpt lat="41.086166" lon="-8.592622">
        <ele>218.885</ele>
        <time>2015-03-23T14:30:25Z</time>
      </trkpt>
      <trkpt lat="41.086121" lon="-8.592817">
        <ele>217.418</ele>
        <time>2015-03-23T14:30:30Z</time>
      </trkpt>
      <trkpt lat="41.086058" lon="-8.593098">
        <ele>214.520</ele>
        <time>2015-03-23T14:30:34Z</time>
      </trkpt>
      <trkpt lat="41.086071" lon="-8.593304">
        <ele>212.670</ele>
        <time>2015-03-23T14:30:38Z</time>
      </trkpt>
      <trkpt lat="41.086159" lon="-8.593351">
        <ele>212.168</ele>
        <time>2015-03-23T14:30:43Z</time>
      </trkpt>
      <trkpt lat="41.086597" lon="-8.593287">
        <ele>211.253</ele>
        <time>2015-03-23T14:30:55Z</time>
      </trkpt>
      <trkpt lat="41.086891" lon="-8.593286">
        <ele>208.720</ele>
        <time>2015-03-23T14:31:00Z</time>
      </trkpt>
      <trkpt lat="41.087096" lon="-8.593279">
        <ele>207.336</ele>
        <time>2015-03-23T14:31:03Z</time>
      </trkpt>
      <trkpt lat="41.087558" lon="-8.593212">
        <ele>204.417</ele>
        <time>2015-03-23T14:31:10Z</time>
      </trkpt>
      <trkpt lat="41.087852" lon="-8.593164">
        <ele>201.118</ele>
        <time>2015-03-23T14:31:14Z</time>
      </trkpt>
      <trkpt lat="41.088079" lon="-8.593135">
        <ele>197.707</ele>
        <time>2015-03-23T14:31:17Z</time>
      </trkpt>
      <trkpt lat="41.088284" lon="-8.593151">
        <ele>196.382</ele>
        <time>2015-03-23T14:31:20Z</time>
      </trkpt>
      <trkpt lat="41.088582" lon="-8.593185">
        <ele>193.455</ele>
        <time>2015-03-23T14:31:25Z</time>
      </trkpt>
      <trkpt lat="41.088877" lon="-8.593213">
        <ele>190.097</ele>
        <time>2015-03-23T14:31:29Z</time>
      </trkpt>
      <trkpt lat="41.089172" lon="-8.593223">
        <ele>186.257</ele>
        <time>2015-03-23T14:31:33Z</time>
      </trkpt>
      <trkpt lat="41.089530" lon="-8.593275">
        <ele>182.315</ele>
        <time>2015-03-23T14:31:38Z</time>
      </trkpt>
      <trkpt lat="41.089836" lon="-8.593399">
        <ele>178.530</ele>
        <time>2015-03-23T14:31:42Z</time>
      </trkpt>
      <trkpt lat="41.089999" lon="-8.593465">
        <ele>177.097</ele>
        <time>2015-03-23T14:31:44Z</time>
      </trkpt>
      <trkpt lat="41.090216" lon="-8.593628">
        <ele>175.674</ele>
        <time>2015-03-23T14:31:47Z</time>
      </trkpt>
      <trkpt lat="41.090279" lon="-8.593705">
        <ele>174.656</ele>
        <time>2015-03-23T14:31:48Z</time>
      </trkpt>
      <trkpt lat="41.090554" lon="-8.594095">
        <ele>170.821</ele>
        <time>2015-03-23T14:31:53Z</time>
      </trkpt>
      <trkpt lat="41.090636" lon="-8.594204">
        <ele>170.307</ele>
        <time>2015-03-23T14:31:55Z</time>
      </trkpt>
      <trkpt lat="41.090829" lon="-8.594313">
        <ele>168.456</ele>
        <time>2015-03-23T14:32:04Z</time>
      </trkpt>
      <trkpt lat="41.090893" lon="-8.594185">
        <ele>168.479</ele>
        <time>2015-03-23T14:32:18Z</time>
      </trkpt>
      <trkpt lat="41.090963" lon="-8.594074">
        <ele>169.811</ele>
        <time>2015-03-23T14:32:23Z</time>
      </trkpt>
      <trkpt lat="41.091243" lon="-8.593638">
        <ele>172.781</ele>
        <time>2015-03-23T14:32:41Z</time>
      </trkpt>
      <trkpt lat="41.091293" lon="-8.593590">
        <ele>172.769</ele>
        <time>2015-03-23T14:32:43Z</time>
      </trkpt>
      <trkpt lat="41.091510" lon="-8.593797">
        <ele>171.794</ele>
        <time>2015-03-23T14:32:51Z</time>
      </trkpt>
      <trkpt lat="41.092015" lon="-8.594470">
        <ele>167.431</ele>
        <time>2015-03-23T14:33:05Z</time>
      </trkpt>
      <trkpt lat="41.092389" lon="-8.594950">
        <ele>166.561</ele>
        <time>2015-03-23T14:33:14Z</time>
      </trkpt>
      <trkpt lat="41.092939" lon="-8.595609">
        <ele>165.521</ele>
        <time>2015-03-23T14:33:30Z</time>
      </trkpt>
      <trkpt lat="41.093379" lon="-8.596253">
        <ele>166.513</ele>
        <time>2015-03-23T14:33:46Z</time>
      </trkpt>
      <trkpt lat="41.093708" lon="-8.596849">
        <ele>167.907</ele>
        <time>2015-03-23T14:34:00Z</time>
      </trkpt>
      <trkpt lat="41.094095" lon="-8.597655">
        <ele>167.925</ele>
        <time>2015-03-23T14:34:18Z</time>
      </trkpt>
      <trkpt lat="41.094170" lon="-8.597811">
        <ele>167.968</ele>
        <time>2015-03-23T14:34:21Z</time>
      </trkpt>
      <trkpt lat="41.094822" lon="-8.598363">
        <ele>164.510</ele>
        <time>2015-03-23T14:34:38Z</time>
      </trkpt>
      <trkpt lat="41.095595" lon="-8.598688">
        <ele>163.110</ele>
        <time>2015-03-23T14:34:55Z</time>
      </trkpt>
      <trkpt lat="41.096187" lon="-8.598879">
        <ele>163.138</ele>
        <time>2015-03-23T14:35:10Z</time>
      </trkpt>
      <trkpt lat="41.096568" lon="-8.599004">
        <ele>164.513</ele>
        <time>2015-03-23T14:35:21Z</time>
      </trkpt>
      <trkpt lat="41.097010" lon="-8.599171">
        <ele>166.530</ele>
        <time>2015-03-23T14:35:37Z</time>
      </trkpt>
      <trkpt lat="41.097437" lon="-8.599313">
        <ele>168.913</ele>
        <time>2015-03-23T14:35:56Z</time>
      </trkpt>
      <trkpt lat="41.097949" lon="-8.599500">
        <ele>172.243</ele>
        <time>2015-03-23T14:36:18Z</time>
      </trkpt>
      <trkpt lat="41.098372" lon="-8.599657">
        <ele>171.707</ele>
        <time>2015-03-23T14:36:34Z</time>
      </trkpt>
      <trkpt lat="41.098614" lon="-8.599744">
        <ele>168.907</ele>
        <time>2015-03-23T14:36:40Z</time>
      </trkpt>
      <trkpt lat="41.098764" lon="-8.599799">
        <ele>170.310</ele>
        <time>2015-03-23T14:36:43Z</time>
      </trkpt>
      <trkpt lat="41.098934" lon="-8.599862">
        <ele>168.943</ele>
        <time>2015-03-23T14:36:46Z</time>
      </trkpt>
      <trkpt lat="41.099291" lon="-8.599991">
        <ele>165.515</ele>
        <time>2015-03-23T14:36:52Z</time>
      </trkpt>
      <trkpt lat="41.099361" lon="-8.600016">
        <ele>165.595</ele>
        <time>2015-03-23T14:36:53Z</time>
      </trkpt>
      <trkpt lat="41.099930" lon="-8.600231">
        <ele>161.693</ele>
        <time>2015-03-23T14:37:01Z</time>
      </trkpt>
      <trkpt lat="41.100009" lon="-8.600262">
        <ele>161.658</ele>
        <time>2015-03-23T14:37:02Z</time>
      </trkpt>
      <trkpt lat="41.100334" lon="-8.600390">
        <ele>158.395</ele>
        <time>2015-03-23T14:37:06Z</time>
      </trkpt>
      <trkpt lat="41.100594" lon="-8.600495">
        <ele>156.822</ele>
        <time>2015-03-23T14:37:09Z</time>
      </trkpt>
      <trkpt lat="41.100961" lon="-8.600645">
        <ele>153.062</ele>
        <time>2015-03-23T14:37:13Z</time>
      </trkpt>
      <trkpt lat="41.101319" lon="-8.600858">
        <ele>150.108</ele>
        <time>2015-03-23T14:37:17Z</time>
      </trkpt>
      <trkpt lat="41.101536" lon="-8.601084">
        <ele>148.707</ele>
        <time>2015-03-23T14:37:20Z</time>
      </trkpt>
      <trkpt lat="41.102143" lon="-8.602026">
        <ele>144.891</ele>
        <time>2015-03-23T14:37:33Z</time>
      </trkpt>
      <trkpt lat="41.102330" lon="-8.602304">
        <ele>143.434</ele>
        <time>2015-03-23T14:37:38Z</time>
      </trkpt>
      <trkpt lat="41.102809" lon="-8.602776">
        <ele>140.526</ele>
        <time>2015-03-23T14:37:50Z</time>
      </trkpt>
      <trkpt lat="41.103050" lon="-8.602924">
        <ele>140.046</ele>
        <time>2015-03-23T14:37:55Z</time>
      </trkpt>
      <trkpt lat="41.103523" lon="-8.603042">
        <ele>138.114</ele>
        <time>2015-03-23T14:38:04Z</time>
      </trkpt>
      <trkpt lat="41.104327" lon="-8.602768">
        <ele>136.669</ele>
        <time>2015-03-23T14:38:21Z</time>
      </trkpt>
      <trkpt lat="41.104802" lon="-8.602433">
        <ele>138.176</ele>
        <time>2015-03-23T14:38:35Z</time>
      </trkpt>
      <trkpt lat="41.105076" lon="-8.602325">
        <ele>141.567</ele>
        <time>2015-03-23T14:38:47Z</time>
      </trkpt>
      <trkpt lat="41.105296" lon="-8.602381">
        <ele>143.481</ele>
        <time>2015-03-23T14:39:00Z</time>
      </trkpt>
      <trkpt lat="41.105612" lon="-8.602382">
        <ele>146.319</ele>
        <time>2015-03-23T14:39:14Z</time>
      </trkpt>
      <trkpt lat="41.106008" lon="-8.602410">
        <ele>148.207</ele>
        <time>2015-03-23T14:39:34Z</time>
      </trkpt>
      <trkpt lat="41.106181" lon="-8.602422">
        <ele>148.795</ele>
        <time>2015-03-23T14:40:01Z</time>
      </trkpt>
      <trkpt lat="41.106575" lon="-8.602601">
        <ele>149.668</ele>
        <time>2015-03-23T14:40:18Z</time>
      </trkpt>
      <trkpt lat="41.107061" lon="-8.602646">
        <ele>151.150</ele>
        <time>2015-03-23T14:40:38Z</time>
      </trkpt>
      <trkpt lat="41.107446" lon="-8.602586">
        <ele>153.010</ele>
        <time>2015-03-23T14:40:55Z</time>
      </trkpt>
      <trkpt lat="41.107740" lon="-8.602551">
        <ele>155.468</ele>
        <time>2015-03-23T14:41:10Z</time>
      </trkpt>
      <trkpt lat="41.107994" lon="-8.602512">
        <ele>155.953</ele>
        <time>2015-03-23T14:41:21Z</time>
      </trkpt>
      <trkpt lat="41.108312" lon="-8.602504">
        <ele>157.870</ele>
        <time>2015-03-23T14:41:33Z</time>
      </trkpt>
      <trkpt lat="41.108732" lon="-8.602786">
        <ele>158.819</ele>
        <time>2015-03-23T14:41:48Z</time>
      </trkpt>
      <trkpt lat="41.109250" lon="-8.603208">
        <ele>160.209</ele>
        <time>2015-03-23T14:42:06Z</time>
      </trkpt>
      <trkpt lat="41.109687" lon="-8.603308">
        <ele>158.819</ele>
        <time>2015-03-23T14:42:18Z</time>
      </trkpt>
      <trkpt lat="41.110139" lon="-8.603386">
        <ele>157.807</ele>
        <time>2015-03-23T14:42:31Z</time>
      </trkpt>
      <trkpt lat="41.110531" lon="-8.603612">
        <ele>157.870</ele>
        <time>2015-03-23T14:42:43Z</time>
      </trkpt>
      <trkpt lat="41.110580" lon="-8.603688">
        <ele>159.233</ele>
        <time>2015-03-23T14:42:45Z</time>
      </trkpt>
      <trkpt lat="41.110930" lon="-8.604044">
        <ele>160.755</ele>
        <time>2015-03-23T14:42:58Z</time>
      </trkpt>
      <trkpt lat="41.111246" lon="-8.604205">
        <ele>161.695</ele>
        <time>2015-03-23T14:43:11Z</time>
      </trkpt>
      <trkpt lat="41.111597" lon="-8.604363">
        <ele>163.193</ele>
        <time>2015-03-23T14:43:24Z</time>
      </trkpt>
      <trkpt lat="41.112036" lon="-8.604560">
        <ele>165.018</ele>
        <time>2015-03-23T14:43:40Z</time>
      </trkpt>
      <trkpt lat="41.112286" lon="-8.604669">
        <ele>166.515</ele>
        <time>2015-03-23T14:43:49Z</time>
      </trkpt>
      <trkpt lat="41.112717" lon="-8.604839">
        <ele>167.976</ele>
        <time>2015-03-23T14:44:05Z</time>
      </trkpt>
      <trkpt lat="41.113156" lon="-8.605043">
        <ele>168.990</ele>
        <time>2015-03-23T14:44:20Z</time>
      </trkpt>
      <trkpt lat="41.113617" lon="-8.605269">
        <ele>168.919</ele>
        <time>2015-03-23T14:44:36Z</time>
      </trkpt>
      <trkpt lat="41.114147" lon="-8.605554">
        <ele>171.307</ele>
        <time>2015-03-23T14:44:52Z</time>
      </trkpt>
      <trkpt lat="41.114298" lon="-8.605546">
        <ele>171.346</ele>
        <time>2015-03-23T14:44:55Z</time>
      </trkpt>
      <trkpt lat="41.114571" lon="-8.605745">
        <ele>171.319</ele>
        <time>2015-03-23T14:45:04Z</time>
      </trkpt>
      <trkpt lat="41.115018" lon="-8.606037">
        <ele>171.381</ele>
        <time>2015-03-23T14:45:17Z</time>
      </trkpt>
      <trkpt lat="41.115169" lon="-8.606211">
        <ele>169.881</ele>
        <time>2015-03-23T14:45:25Z</time>
      </trkpt>
      <trkpt lat="41.115311" lon="-8.606391">
        <ele>169.899</ele>
        <time>2015-03-23T14:45:34Z</time>
      </trkpt>
      <trkpt lat="41.115413" lon="-8.606487">
        <ele>169.824</ele>
        <time>2015-03-23T14:45:39Z</time>
      </trkpt>
      <trkpt lat="41.115699" lon="-8.606449">
        <ele>170.891</ele>
        <time>2015-03-23T14:46:32Z</time>
      </trkpt>
      <trkpt lat="41.116025" lon="-8.606362">
        <ele>168.975</ele>
        <time>2015-03-23T14:46:46Z</time>
      </trkpt>
      <trkpt lat="41.116522" lon="-8.606364">
        <ele>165.028</ele>
        <time>2015-03-23T14:46:54Z</time>
      </trkpt>
      <trkpt lat="41.117258" lon="-8.606326">
        <ele>161.620</ele>
        <time>2015-03-23T14:47:04Z</time>
      </trkpt>
      <trkpt lat="41.117364" lon="-8.606347">
        <ele>160.707</ele>
        <time>2015-03-23T14:47:06Z</time>
      </trkpt>
      <trkpt lat="41.117469" lon="-8.606330">
        <ele>160.746</ele>
        <time>2015-03-23T14:47:07Z</time>
      </trkpt>
      <trkpt lat="41.118164" lon="-8.606332">
        <ele>156.859</ele>
        <time>2015-03-23T14:47:16Z</time>
      </trkpt>
      <trkpt lat="41.118687" lon="-8.606298">
        <ele>154.051</ele>
        <time>2015-03-23T14:47:23Z</time>
      </trkpt>
      <trkpt lat="41.119060" lon="-8.606214">
        <ele>152.561</ele>
        <time>2015-03-23T14:47:28Z</time>
      </trkpt>
      <trkpt lat="41.119218" lon="-8.606086">
        <ele>151.579</ele>
        <time>2015-03-23T14:47:31Z</time>
      </trkpt>
      <trkpt lat="41.119456" lon="-8.606040">
        <ele>150.144</ele>
        <time>2015-03-23T14:47:36Z</time>
      </trkpt>
      <trkpt lat="41.119864" lon="-8.605982">
        <ele>147.731</ele>
        <time>2015-03-23T14:47:43Z</time>
      </trkpt>
      <trkpt lat="41.120018" lon="-8.606072">
        <ele>147.298</ele>
        <time>2015-03-23T14:47:50Z</time>
      </trkpt>
      <trkpt lat="41.120078" lon="-8.606084">
        <ele>147.215</ele>
        <time>2015-03-23T14:47:52Z</time>
      </trkpt>
      <trkpt lat="41.120306" lon="-8.606044">
        <ele>145.826</ele>
        <time>2015-03-23T14:47:58Z</time>
      </trkpt>
      <trkpt lat="41.120385" lon="-8.606052">
        <ele>144.807</ele>
        <time>2015-03-23T14:48:00Z</time>
      </trkpt>
      <trkpt lat="41.120781" lon="-8.606052">
        <ele>142.458</ele>
        <time>2015-03-23T14:48:07Z</time>
      </trkpt>
      <trkpt lat="41.121432" lon="-8.606027">
        <ele>139.581</ele>
        <time>2015-03-23T14:48:18Z</time>
      </trkpt>
      <trkpt lat="41.121768" lon="-8.605985">
        <ele>137.133</ele>
        <time>2015-03-23T14:48:24Z</time>
      </trkpt>
      <trkpt lat="41.122826" lon="-8.605915">
        <ele>130.943</ele>
        <time>2015-03-23T14:48:38Z</time>
      </trkpt>
      <trkpt lat="41.122900" lon="-8.605903">
        <ele>130.991</ele>
        <time>2015-03-23T14:48:39Z</time>
      </trkpt>
      <trkpt lat="41.123612" lon="-8.605861">
        <ele>128.046</ele>
        <time>2015-03-23T14:48:48Z</time>
      </trkpt>
      <trkpt lat="41.124099" lon="-8.605826">
        <ele>125.173</ele>
        <time>2015-03-23T14:48:55Z</time>
      </trkpt>
      <trkpt lat="41.124583" lon="-8.605787">
        <ele>121.777</ele>
        <time>2015-03-23T14:49:05Z</time>
      </trkpt>
      <trkpt lat="41.124679" lon="-8.605781">
        <ele>120.861</ele>
        <time>2015-03-23T14:49:13Z</time>
      </trkpt>
      <trkpt lat="41.125000" lon="-8.605738">
        <ele>119.827</ele>
        <time>2015-03-23T14:49:41Z</time>
      </trkpt>
      <trkpt lat="41.125164" lon="-8.605731">
        <ele>118.907</ele>
        <time>2015-03-23T14:49:51Z</time>
      </trkpt>
      <trkpt lat="41.125316" lon="-8.605715">
        <ele>117.936</ele>
        <time>2015-03-23T14:50:00Z</time>
      </trkpt>
      <trkpt lat="41.125437" lon="-8.605747">
        <ele>116.529</ele>
        <time>2015-03-23T14:50:38Z</time>
      </trkpt>
      <trkpt lat="41.125956" lon="-8.605555">
        <ele>116.551</ele>
        <time>2015-03-23T14:50:49Z</time>
      </trkpt>
      <trkpt lat="41.126378" lon="-8.605448">
        <ele>116.031</ele>
        <time>2015-03-23T14:50:58Z</time>
      </trkpt>
      <trkpt lat="41.126608" lon="-8.605496">
        <ele>115.549</ele>
        <time>2015-03-23T14:51:03Z</time>
      </trkpt>
      <trkpt lat="41.127190" lon="-8.605510">
        <ele>115.094</ele>
        <time>2015-03-23T14:51:16Z</time>
      </trkpt>
      <trkpt lat="41.127518" lon="-8.605515">
        <ele>115.011</ele>
        <time>2015-03-23T14:51:23Z</time>
      </trkpt>
      <trkpt lat="41.128056" lon="-8.605562">
        <ele>115.019</ele>
        <time>2015-03-23T14:51:34Z</time>
      </trkpt>
      <trkpt lat="41.128331" lon="-8.605643">
        <ele>115.009</ele>
        <time>2015-03-23T14:51:40Z</time>
      </trkpt>
      <trkpt lat="41.128945" lon="-8.605903">
        <ele>112.619</ele>
        <time>2015-03-23T14:51:54Z</time>
      </trkpt>
      <trkpt lat="41.128952" lon="-8.605973">
        <ele>112.107</ele>
        <time>2015-03-23T14:52:09Z</time>
      </trkpt>
      <trkpt lat="41.129117" lon="-8.606020">
        <ele>111.710</ele>
        <time>2015-03-23T14:52:26Z</time>
      </trkpt>
      <trkpt lat="41.129844" lon="-8.606180">
        <ele>108.383</ele>
        <time>2015-03-23T14:52:40Z</time>
      </trkpt>
      <trkpt lat="41.130232" lon="-8.606304">
        <ele>106.445</ele>
        <time>2015-03-23T14:52:46Z</time>
      </trkpt>
      <trkpt lat="41.130591" lon="-8.606444">
        <ele>104.435</ele>
        <time>2015-03-23T14:52:51Z</time>
      </trkpt>
      <trkpt lat="41.130765" lon="-8.606505">
        <ele>103.033</ele>
        <time>2015-03-23T14:52:53Z</time>
      </trkpt>
      <trkpt lat="41.131279" lon="-8.606678">
        <ele>99.678</ele>
        <time>2015-03-23T14:53:00Z</time>
      </trkpt>
      <trkpt lat="41.131354" lon="-8.606709">
        <ele>99.685</ele>
        <time>2015-03-23T14:53:01Z</time>
      </trkpt>
      <trkpt lat="41.131888" lon="-8.606903">
        <ele>96.332</ele>
        <time>2015-03-23T14:53:10Z</time>
      </trkpt>
      <trkpt lat="41.132043" lon="-8.606997">
        <ele>95.392</ele>
        <time>2015-03-23T14:53:20Z</time>
      </trkpt>
      <trkpt lat="41.132193" lon="-8.607068">
        <ele>94.811</ele>
        <time>2015-03-23T14:53:25Z</time>
      </trkpt>
      <trkpt lat="41.132913" lon="-8.607242">
        <ele>91.007</ele>
        <time>2015-03-23T14:53:38Z</time>
      </trkpt>
      <trkpt lat="41.133317" lon="-8.607266">
        <ele>89.152</ele>
        <time>2015-03-23T14:53:44Z</time>
      </trkpt>
      <trkpt lat="41.133870" lon="-8.607444">
        <ele>86.255</ele>
        <time>2015-03-23T14:53:52Z</time>
      </trkpt>
      <trkpt lat="41.134318" lon="-8.607626">
        <ele>82.897</ele>
        <time>2015-03-23T14:54:00Z</time>
      </trkpt>
      <trkpt lat="41.134697" lon="-8.607781">
        <ele>82.327</ele>
        <time>2015-03-23T14:54:07Z</time>
      </trkpt>
      <trkpt lat="41.135056" lon="-8.607907">
        <ele>81.945</ele>
        <time>2015-03-23T14:54:14Z</time>
      </trkpt>
      <trkpt lat="41.135487" lon="-8.608076">
        <ele>81.450</ele>
        <time>2015-03-23T14:54:27Z</time>
      </trkpt>
      <trkpt lat="41.135666" lon="-8.608106">
        <ele>80.927</ele>
        <time>2015-03-23T14:54:38Z</time>
      </trkpt>
      <trkpt lat="41.136155" lon="-8.608177">
        <ele>79.943</ele>
        <time>2015-03-23T14:54:52Z</time>
      </trkpt>
      <trkpt lat="41.136325" lon="-8.608200">
        <ele>80.464</ele>
        <time>2015-03-23T14:55:27Z</time>
      </trkpt>
      <trkpt lat="41.136792" lon="-8.608369">
        <ele>79.510</ele>
        <time>2015-03-23T14:55:41Z</time>
      </trkpt>
      <trkpt lat="41.137332" lon="-8.608523">
        <ele>78.507</ele>
        <time>2015-03-23T14:55:56Z</time>
      </trkpt>
      <trkpt lat="41.137440" lon="-8.608555">
        <ele>78.593</ele>
        <time>2015-03-23T14:55:59Z</time>
      </trkpt>
      <trkpt lat="41.138138" lon="-8.608842">
        <ele>76.156</ele>
        <time>2015-03-23T14:56:17Z</time>
      </trkpt>
      <trkpt lat="41.138199" lon="-8.609094">
        <ele>77.538</ele>
        <time>2015-03-23T14:56:25Z</time>
      </trkpt>
      <trkpt lat="41.138138" lon="-8.609120">
        <ele>78.078</ele>
        <time>2015-03-23T14:56:40Z</time>
      </trkpt>
      <trkpt lat="41.138056" lon="-8.609341">
        <ele>79.566</ele>
        <time>2015-03-23T14:56:58Z</time>
      </trkpt>
      <trkpt lat="41.138006" lon="-8.609439">
        <ele>79.051</ele>
        <time>2015-03-23T14:57:07Z</time>
      </trkpt>
      <trkpt lat="41.138097" lon="-8.609580">
        <ele>78.088</ele>
        <time>2015-03-23T14:57:27Z</time>
      </trkpt>
      <trkpt lat="41.138010" lon="-8.609460">
        <ele>80.487</ele>
        <time>2015-03-23T15:05:46Z</time>
      </trkpt>
      <trkpt lat="41.138013" lon="-8.609393">
        <ele>78.042</ele>
        <time>2015-03-23T15:05:55Z</time>
      </trkpt>
      <trkpt lat="41.138046" lon="-8.609331">
        <ele>78.026</ele>
        <time>2015-03-23T15:06:12Z</time>
      </trkpt>
      <trkpt lat="41.138188" lon="-8.609040">
        <ele>76.107</ele>
        <time>2015-03-23T15:06:30Z</time>
      </trkpt>
      <trkpt lat="41.138256" lon="-8.608951">
        <ele>78.567</ele>
        <time>2015-03-23T15:06:34Z</time>
      </trkpt>
      <trkpt lat="41.138283" lon="-8.608900">
        <ele>74.250</ele>
        <time>2015-03-23T15:06:36Z</time>
      </trkpt>
      <trkpt lat="41.138427" lon="-8.608912">
        <ele>74.692</ele>
        <time>2015-03-23T15:06:42Z</time>
      </trkpt>
      <trkpt lat="41.138602" lon="-8.608965">
        <ele>75.172</ele>
        <time>2015-03-23T15:06:49Z</time>
      </trkpt>
      <trkpt lat="41.139010" lon="-8.609092">
        <ele>75.190</ele>
        <time>2015-03-23T15:07:03Z</time>
      </trkpt>
      <trkpt lat="41.139187" lon="-8.609144">
        <ele>75.175</ele>
        <time>2015-03-23T15:07:09Z</time>
      </trkpt>
      <trkpt lat="41.139675" lon="-8.609297">
        <ele>76.642</ele>
        <time>2015-03-23T15:07:25Z</time>
      </trkpt>
      <trkpt lat="41.140209" lon="-8.609474">
        <ele>76.198</ele>
        <time>2015-03-23T15:07:42Z</time>
      </trkpt>
      <trkpt lat="41.140757" lon="-8.609650">
        <ele>75.115</ele>
        <time>2015-03-23T15:07:57Z</time>
      </trkpt>
      <trkpt lat="41.141018" lon="-8.609725">
        <ele>76.126</ele>
        <time>2015-03-23T15:08:04Z</time>
      </trkpt>
      <trkpt lat="41.141228" lon="-8.609799">
        <ele>75.107</ele>
        <time>2015-03-23T15:08:10Z</time>
      </trkpt>
      <trkpt lat="41.141906" lon="-8.610016">
        <ele>74.248</ele>
        <time>2015-03-23T15:08:28Z</time>
      </trkpt>
      <trkpt lat="41.142197" lon="-8.610040">
        <ele>75.111</ele>
        <time>2015-03-23T15:08:39Z</time>
      </trkpt>
      <trkpt lat="41.142524" lon="-8.610108">
        <ele>78.573</ele>
        <time>2015-03-23T15:08:57Z</time>
      </trkpt>
      <trkpt lat="41.142757" lon="-8.610189">
        <ele>80.423</ele>
        <time>2015-03-23T15:09:11Z</time>
      </trkpt>
      <trkpt lat="41.142989" lon="-8.610234">
        <ele>81.941</ele>
        <time>2015-03-23T15:09:23Z</time>
      </trkpt>
      <trkpt lat="41.143149" lon="-8.610420">
        <ele>82.346</ele>
        <time>2015-03-23T15:09:35Z</time>
      </trkpt>
      <trkpt lat="41.143093" lon="-8.610729">
        <ele>83.843</ele>
        <time>2015-03-23T15:09:49Z</time>
      </trkpt>
      <trkpt lat="41.143035" lon="-8.611037">
        <ele>85.785</ele>
        <time>2015-03-23T15:10:04Z</time>
      </trkpt>
      <trkpt lat="41.143029" lon="-8.611407">
        <ele>86.789</ele>
        <time>2015-03-23T15:10:20Z</time>
      </trkpt>
      <trkpt lat="41.143035" lon="-8.611476">
        <ele>87.617</ele>
        <time>2015-03-23T15:10:23Z</time>
      </trkpt>
      <trkpt lat="41.143047" lon="-8.611572">
        <ele>87.107</ele>
        <time>2015-03-23T15:11:02Z</time>
      </trkpt>
      <trkpt lat="41.143092" lon="-8.611623">
        <ele>86.727</ele>
        <time>2015-03-23T15:11:21Z</time>
      </trkpt>
      <trkpt lat="41.143039" lon="-8.611697">
        <ele>88.630</ele>
        <time>2015-03-23T15:12:26Z</time>
      </trkpt>
      <trkpt lat="41.142966" lon="-8.611772">
        <ele>86.712</ele>
        <time>2015-03-23T15:13:13Z</time>
      </trkpt>
      <trkpt lat="41.142912" lon="-8.611716">
        <ele>87.162</ele>
        <time>2015-03-23T15:16:59Z</time>
      </trkpt>
      <trkpt lat="41.142693" lon="-8.611868">
        <ele>87.180</ele>
        <time>2015-03-23T15:17:19Z</time>
      </trkpt>
      <trkpt lat="41.142622" lon="-8.612006">
        <ele>84.355</ele>
        <time>2015-03-23T15:17:29Z</time>
      </trkpt>
      <trkpt lat="41.142570" lon="-8.612055">
        <ele>84.342</ele>
        <time>2015-03-23T15:17:34Z</time>
      </trkpt>
      <trkpt lat="41.142525" lon="-8.612081">
        <ele>85.747</ele>
        <time>2015-03-23T15:17:38Z</time>
      </trkpt>
      <trkpt lat="41.142465" lon="-8.612089">
        <ele>84.729</ele>
        <time>2015-03-23T15:18:15Z</time>
      </trkpt>
      <trkpt lat="41.142512" lon="-8.612077">
        <ele>86.721</ele>
        <time>2015-03-23T15:18:59Z</time>
      </trkpt>
      <trkpt lat="41.142562" lon="-8.612075">
        <ele>88.107</ele>
        <time>2015-03-23T15:19:05Z</time>
      </trkpt>
      <trkpt lat="41.142622" lon="-8.612041">
        <ele>86.763</ele>
        <time>2015-03-23T15:19:10Z</time>
      </trkpt>
      <trkpt lat="41.142684" lon="-8.611906">
        <ele>85.716</ele>
        <time>2015-03-23T15:19:16Z</time>
      </trkpt>
      <trkpt lat="41.142743" lon="-8.611889">
        <ele>87.648</ele>
        <time>2015-03-23T15:19:22Z</time>
      </trkpt>
      <trkpt lat="41.142710" lon="-8.612115">
        <ele>83.848</ele>
        <time>2015-03-23T15:19:29Z</time>
      </trkpt>
      <trkpt lat="41.142698" lon="-8.612191">
        <ele>83.396</ele>
        <time>2015-03-23T15:19:31Z</time>
      </trkpt>
      <trkpt lat="41.142513" lon="-8.612330">
        <ele>80.951</ele>
        <time>2015-03-23T15:19:41Z</time>
      </trkpt>
      <trkpt lat="41.142521" lon="-8.612433">
        <ele>82.348</ele>
        <time>2015-03-23T15:19:45Z</time>
      </trkpt>
      <trkpt lat="41.142538" lon="-8.612498">
        <ele>79.592</ele>
        <time>2015-03-23T15:19:48Z</time>
      </trkpt>
      <trkpt lat="41.142759" lon="-8.612734">
        <ele>75.173</ele>
        <time>2015-03-23T15:20:00Z</time>
      </trkpt>
      <trkpt lat="41.142875" lon="-8.612811">
        <ele>74.220</ele>
        <time>2015-03-23T15:20:05Z</time>
      </trkpt>
      <trkpt lat="41.142892" lon="-8.612878">
        <ele>71.307</ele>
        <time>2015-03-23T15:20:32Z</time>
      </trkpt>
      <trkpt lat="41.142801" lon="-8.613020">
        <ele>67.978</ele>
        <time>2015-03-23T15:20:38Z</time>
      </trkpt>
      <trkpt lat="41.142696" lon="-8.613034">
        <ele>64.111</ele>
        <time>2015-03-23T15:20:48Z</time>
      </trkpt>
      <trkpt lat="41.142613" lon="-8.613007">
        <ele>62.153</ele>
        <time>2015-03-23T15:20:55Z</time>
      </trkpt>
      <trkpt lat="41.142559" lon="-8.613021">
        <ele>60.763</ele>
        <time>2015-03-23T15:21:00Z</time>
      </trkpt>
      <trkpt lat="41.142478" lon="-8.613131">
        <ele>58.891</ele>
        <time>2015-03-23T15:21:15Z</time>
      </trkpt>
      <trkpt lat="41.142620" lon="-8.613313">
        <ele>54.936</ele>
        <time>2015-03-23T15:21:29Z</time>
      </trkpt>
      <trkpt lat="41.142745" lon="-8.613469">
        <ele>51.613</ele>
        <time>2015-03-23T15:21:35Z</time>
      </trkpt>
      <trkpt lat="41.142763" lon="-8.613655">
        <ele>48.731</ele>
        <time>2015-03-23T15:21:42Z</time>
      </trkpt>
      <trkpt lat="41.142883" lon="-8.613917">
        <ele>44.861</ele>
        <time>2015-03-23T15:21:49Z</time>
      </trkpt>
      <trkpt lat="41.142786" lon="-8.614060">
        <ele>44.407</ele>
        <time>2015-03-23T15:21:51Z</time>
      </trkpt>
      <trkpt lat="41.142776" lon="-8.614132">
        <ele>42.907</ele>
        <time>2015-03-23T15:21:53Z</time>
      </trkpt>
      <trkpt lat="41.142766" lon="-8.614202">
        <ele>44.852</ele>
        <time>2015-03-23T15:24:12Z</time>
      </trkpt>
      <trkpt lat="41.142844" lon="-8.614348">
        <ele>46.845</ele>
        <time>2015-03-23T15:24:24Z</time>
      </trkpt>
      <trkpt lat="41.142888" lon="-8.614548">
        <ele>49.287</ele>
        <time>2015-03-23T15:24:35Z</time>
      </trkpt>
      <trkpt lat="41.142910" lon="-8.614602">
        <ele>49.797</ele>
        <time>2015-03-23T15:24:38Z</time>
      </trkpt>
      <trkpt lat="41.142929" lon="-8.614678">
        <ele>51.195</ele>
        <time>2015-03-23T15:24:43Z</time>
      </trkpt>
      <trkpt lat="41.143158" lon="-8.614633">
        <ele>53.550</ele>
        <time>2015-03-23T15:24:59Z</time>
      </trkpt>
      <trkpt lat="41.143366" lon="-8.614499">
        <ele>55.977</ele>
        <time>2015-03-23T15:25:14Z</time>
      </trkpt>
      <trkpt lat="41.143431" lon="-8.614461">
        <ele>56.445</ele>
        <time>2015-03-23T15:25:27Z</time>
      </trkpt>
      <trkpt lat="41.143553" lon="-8.614396">
        <ele>56.447</ele>
        <time>2015-03-23T15:25:42Z</time>
      </trkpt>
      <trkpt lat="41.143652" lon="-8.614235">
        <ele>56.411</ele>
        <time>2015-03-23T15:25:59Z</time>
      </trkpt>
      <trkpt lat="41.143747" lon="-8.614079">
        <ele>56.907</ele>
        <time>2015-03-23T15:26:12Z</time>
      </trkpt>
      <trkpt lat="41.143911" lon="-8.613826">
        <ele>57.363</ele>
        <time>2015-03-23T15:26:27Z</time>
      </trkpt>
      <trkpt lat="41.143995" lon="-8.613693">
        <ele>58.316</ele>
        <time>2015-03-23T15:26:35Z</time>
      </trkpt>
      <trkpt lat="41.144044" lon="-8.613648">
        <ele>58.368</ele>
        <time>2015-03-23T15:26:39Z</time>
      </trkpt>
      <trkpt lat="41.144180" lon="-8.613660">
        <ele>58.878</ele>
        <time>2015-03-23T15:36:04Z</time>
      </trkpt>
      <trkpt lat="41.144235" lon="-8.613753">
        <ele>62.176</ele>
        <time>2015-03-23T15:36:13Z</time>
      </trkpt>
      <trkpt lat="41.144306" lon="-8.613866">
        <ele>64.621</ele>
        <time>2015-03-23T15:36:28Z</time>
      </trkpt>
      <trkpt lat="41.144391" lon="-8.614067">
        <ele>67.988</ele>
        <time>2015-03-23T15:36:43Z</time>
      </trkpt>
      <trkpt lat="41.144488" lon="-8.614220">
        <ele>70.361</ele>
        <time>2015-03-23T15:37:00Z</time>
      </trkpt>
      <trkpt lat="41.144543" lon="-8.614190">
        <ele>72.221</ele>
        <time>2015-03-23T15:37:12Z</time>
      </trkpt>
      <trkpt lat="41.144655" lon="-8.614080">
        <ele>74.613</ele>
        <time>2015-03-23T15:37:28Z</time>
      </trkpt>
      <trkpt lat="41.144697" lon="-8.614044">
        <ele>75.607</ele>
        <time>2015-03-23T15:37:40Z</time>
      </trkpt>
      <trkpt lat="41.144871" lon="-8.613842">
        <ele>78.525</ele>
        <time>2015-03-23T15:38:02Z</time>
      </trkpt>
      <trkpt lat="41.144999" lon="-8.613745">
        <ele>81.448</ele>
        <time>2015-03-23T15:38:17Z</time>
      </trkpt>
      <trkpt lat="41.145160" lon="-8.613627">
        <ele>83.830</ele>
        <time>2015-03-23T15:38:34Z</time>
      </trkpt>
      <trkpt lat="41.145256" lon="-8.613559">
        <ele>82.840</ele>
        <time>2015-03-23T15:38:45Z</time>
      </trkpt>
      <trkpt lat="41.145320" lon="-8.613441">
        <ele>81.448</ele>
        <time>2015-03-23T15:38:55Z</time>
      </trkpt>
      <trkpt lat="41.145453" lon="-8.613438">
        <ele>81.913</ele>
        <time>2015-03-23T15:39:09Z</time>
      </trkpt>
      <trkpt lat="41.145543" lon="-8.613481">
        <ele>83.360</ele>
        <time>2015-03-23T15:39:21Z</time>
      </trkpt>
      <trkpt lat="41.145707" lon="-8.613501">
        <ele>84.727</ele>
        <time>2015-03-23T15:39:38Z</time>
      </trkpt>
      <trkpt lat="41.145666" lon="-8.613526">
        <ele>116.068</ele>
        <time>2015-03-24T08:51:33Z</time>
      </trkpt>
      <trkpt lat="41.145611" lon="-8.613530">
        <ele>116.014</ele>
        <time>2015-03-24T08:52:23Z</time>
      </trkpt>
      <trkpt lat="41.145440" lon="-8.613473">
        <ele>114.107</ele>
        <time>2015-03-24T08:52:40Z</time>
      </trkpt>
      <trkpt lat="41.145369" lon="-8.613461">
        <ele>112.621</ele>
        <time>2015-03-24T08:52:55Z</time>
      </trkpt>
      <trkpt lat="41.145299" lon="-8.613440">
        <ele>111.714</ele>
        <time>2015-03-24T08:53:04Z</time>
      </trkpt>
      <trkpt lat="41.145250" lon="-8.613551">
        <ele>113.156</ele>
        <time>2015-03-24T08:53:14Z</time>
      </trkpt>
      <trkpt lat="41.145204" lon="-8.613743">
        <ele>115.086</ele>
        <time>2015-03-24T08:53:30Z</time>
      </trkpt>
      <trkpt lat="41.145177" lon="-8.613890">
        <ele>116.064</ele>
        <time>2015-03-24T08:53:44Z</time>
      </trkpt>
      <trkpt lat="41.145126" lon="-8.614054">
        <ele>117.919</ele>
        <time>2015-03-24T08:54:00Z</time>
      </trkpt>
      <trkpt lat="41.145065" lon="-8.614248">
        <ele>119.896</ele>
        <time>2015-03-24T08:54:18Z</time>
      </trkpt>
      <trkpt lat="41.145020" lon="-8.614501">
        <ele>118.462</ele>
        <time>2015-03-24T08:54:36Z</time>
      </trkpt>
      <trkpt lat="41.145003" lon="-8.614631">
        <ele>118.483</ele>
        <time>2015-03-24T08:54:44Z</time>
      </trkpt>
      <trkpt lat="41.144989" lon="-8.614776">
        <ele>119.811</ele>
        <time>2015-03-24T08:54:54Z</time>
      </trkpt>
      <trkpt lat="41.144908" lon="-8.615023">
        <ele>121.307</ele>
        <time>2015-03-24T08:55:12Z</time>
      </trkpt>
      <trkpt lat="41.144934" lon="-8.615264">
        <ele>122.745</ele>
        <time>2015-03-24T08:55:30Z</time>
      </trkpt>
      <trkpt lat="41.145049" lon="-8.615469">
        <ele>123.258</ele>
        <time>2015-03-24T08:55:49Z</time>
      </trkpt>
      <trkpt lat="41.145243" lon="-8.615552">
        <ele>124.650</ele>
        <time>2015-03-24T08:56:09Z</time>
      </trkpt>
      <trkpt lat="41.145328" lon="-8.615551">
        <ele>124.630</ele>
        <time>2015-03-24T08:56:16Z</time>
      </trkpt>
      <trkpt lat="41.145508" lon="-8.615679">
        <ele>122.788</ele>
        <time>2015-03-24T08:56:36Z</time>
      </trkpt>
      <trkpt lat="41.145619" lon="-8.615680">
        <ele>122.753</ele>
        <time>2015-03-24T08:57:24Z</time>
      </trkpt>
      <trkpt lat="41.145650" lon="-8.615617">
        <ele>121.780</ele>
        <time>2015-03-24T08:58:00Z</time>
      </trkpt>
      <trkpt lat="41.145803" lon="-8.615783">
        <ele>120.822</ele>
        <time>2015-03-24T08:58:35Z</time>
      </trkpt>
      <trkpt lat="41.145967" lon="-8.616086">
        <ele>120.862</ele>
        <time>2015-03-24T08:58:47Z</time>
      </trkpt>
      <trkpt lat="41.146240" lon="-8.616223">
        <ele>120.308</ele>
        <time>2015-03-24T08:59:00Z</time>
      </trkpt>
      <trkpt lat="41.146624" lon="-8.616136">
        <ele>121.307</ele>
        <time>2015-03-24T08:59:16Z</time>
      </trkpt>
      <trkpt lat="41.146982" lon="-8.616033">
        <ele>122.231</ele>
        <time>2015-03-24T08:59:31Z</time>
      </trkpt>
      <trkpt lat="41.147119" lon="-8.616014">
        <ele>122.294</ele>
        <time>2015-03-24T08:59:44Z</time>
      </trkpt>
      <trkpt lat="41.147190" lon="-8.615957">
        <ele>120.816</ele>
        <time>2015-03-24T09:00:13Z</time>
      </trkpt>
      <trkpt lat="41.147238" lon="-8.615930">
        <ele>122.266</ele>
        <time>2015-03-24T09:00:16Z</time>
      </trkpt>
      <trkpt lat="41.147317" lon="-8.615974">
        <ele>122.294</ele>
        <time>2015-03-24T09:00:21Z</time>
      </trkpt>
      <trkpt lat="41.147683" lon="-8.616007">
        <ele>122.219</ele>
        <time>2015-03-24T09:00:36Z</time>
      </trkpt>
      <trkpt lat="41.148017" lon="-8.616025">
        <ele>122.296</ele>
        <time>2015-03-24T09:00:49Z</time>
      </trkpt>
      <trkpt lat="41.148211" lon="-8.616090">
        <ele>122.722</ele>
        <time>2015-03-24T09:00:57Z</time>
      </trkpt>
      <trkpt lat="41.148612" lon="-8.616231">
        <ele>122.762</ele>
        <time>2015-03-24T09:01:12Z</time>
      </trkpt>
      <trkpt lat="41.148827" lon="-8.616280">
        <ele>123.708</ele>
        <time>2015-03-24T09:01:20Z</time>
      </trkpt>
      <trkpt lat="41.149101" lon="-8.616372">
        <ele>123.207</ele>
        <time>2015-03-24T09:01:31Z</time>
      </trkpt>
      <trkpt lat="41.149505" lon="-8.616584">
        <ele>124.291</ele>
        <time>2015-03-24T09:01:45Z</time>
      </trkpt>
      <trkpt lat="41.149577" lon="-8.616618">
        <ele>123.244</ele>
        <time>2015-03-24T09:01:47Z</time>
      </trkpt>
      <trkpt lat="41.150094" lon="-8.616867">
        <ele>121.396</ele>
        <time>2015-03-24T09:02:02Z</time>
      </trkpt>
      <trkpt lat="41.150286" lon="-8.616961">
        <ele>123.286</ele>
        <time>2015-03-24T09:02:09Z</time>
      </trkpt>
      <trkpt lat="41.150334" lon="-8.616995">
        <ele>121.784</ele>
        <time>2015-03-24T09:02:11Z</time>
      </trkpt>
      <trkpt lat="41.150753" lon="-8.617232">
        <ele>122.219</ele>
        <time>2015-03-24T09:02:26Z</time>
      </trkpt>
      <trkpt lat="41.151235" lon="-8.617436">
        <ele>121.796</ele>
        <time>2015-03-24T09:02:42Z</time>
      </trkpt>
      <trkpt lat="41.151400" lon="-8.617535">
        <ele>121.733</ele>
        <time>2015-03-24T09:02:48Z</time>
      </trkpt>
      <trkpt lat="41.151540" lon="-8.617641">
        <ele>121.723</ele>
        <time>2015-03-24T09:02:54Z</time>
      </trkpt>
      <trkpt lat="41.151962" lon="-8.617906">
        <ele>121.715</ele>
        <time>2015-03-24T09:03:11Z</time>
      </trkpt>
      <trkpt lat="41.152196" lon="-8.618051">
        <ele>123.207</ele>
        <time>2015-03-24T09:03:20Z</time>
      </trkpt>
      <trkpt lat="41.152471" lon="-8.618211">
        <ele>123.742</ele>
        <time>2015-03-24T09:03:32Z</time>
      </trkpt>
      <trkpt lat="41.152592" lon="-8.618176">
        <ele>124.245</ele>
        <time>2015-03-24T09:03:41Z</time>
      </trkpt>
      <trkpt lat="41.152662" lon="-8.618186">
        <ele>124.247</ele>
        <time>2015-03-24T09:03:44Z</time>
      </trkpt>
      <trkpt lat="41.152764" lon="-8.618188">
        <ele>124.287</ele>
        <time>2015-03-24T09:03:48Z</time>
      </trkpt>
      <trkpt lat="41.152866" lon="-8.618176">
        <ele>124.685</ele>
        <time>2015-03-24T09:03:56Z</time>
      </trkpt>
      <trkpt lat="41.153029" lon="-8.618302">
        <ele>125.170</ele>
        <time>2015-03-24T09:04:09Z</time>
      </trkpt>
      <trkpt lat="41.153344" lon="-8.618529">
        <ele>125.127</ele>
        <time>2015-03-24T09:04:24Z</time>
      </trkpt>
      <trkpt lat="41.153613" lon="-8.618577">
        <ele>125.681</ele>
        <time>2015-03-24T09:04:37Z</time>
      </trkpt>
      <trkpt lat="41.154056" lon="-8.618753">
        <ele>124.661</ele>
        <time>2015-03-24T09:04:52Z</time>
      </trkpt>
      <trkpt lat="41.154378" lon="-8.618862">
        <ele>123.717</ele>
        <time>2015-03-24T09:05:03Z</time>
      </trkpt>
      <trkpt lat="41.154753" lon="-8.618968">
        <ele>124.207</ele>
        <time>2015-03-24T09:05:15Z</time>
      </trkpt>
      <trkpt lat="41.154905" lon="-8.618938">
        <ele>122.257</ele>
        <time>2015-03-24T09:05:25Z</time>
      </trkpt>
      <trkpt lat="41.154949" lon="-8.618908">
        <ele>122.260</ele>
        <time>2015-03-24T09:05:28Z</time>
      </trkpt>
      <trkpt lat="41.155119" lon="-8.618932">
        <ele>124.242</ele>
        <time>2015-03-24T09:05:35Z</time>
      </trkpt>
      <trkpt lat="41.155183" lon="-8.619057">
        <ele>124.222</ele>
        <time>2015-03-24T09:05:40Z</time>
      </trkpt>
      <trkpt lat="41.155332" lon="-8.619076">
        <ele>124.650</ele>
        <time>2015-03-24T09:05:50Z</time>
      </trkpt>
      <trkpt lat="41.155846" lon="-8.619229">
        <ele>124.665</ele>
        <time>2015-03-24T09:06:06Z</time>
      </trkpt>
      <trkpt lat="41.156062" lon="-8.619264">
        <ele>123.222</ele>
        <time>2015-03-24T09:06:13Z</time>
      </trkpt>
      <trkpt lat="41.156345" lon="-8.619349">
        <ele>122.787</ele>
        <time>2015-03-24T09:06:23Z</time>
      </trkpt>
      <trkpt lat="41.156769" lon="-8.619458">
        <ele>122.742</ele>
        <time>2015-03-24T09:06:36Z</time>
      </trkpt>
      <trkpt lat="41.157041" lon="-8.619551">
        <ele>122.726</ele>
        <time>2015-03-24T09:06:47Z</time>
      </trkpt>
      <trkpt lat="41.157156" lon="-8.619551">
        <ele>124.207</ele>
        <time>2015-03-24T09:06:52Z</time>
      </trkpt>
      <trkpt lat="41.157419" lon="-8.619608">
        <ele>125.687</ele>
        <time>2015-03-24T09:07:06Z</time>
      </trkpt>
      <trkpt lat="41.157705" lon="-8.619690">
        <ele>128.590</ele>
        <time>2015-03-24T09:07:21Z</time>
      </trkpt>
      <trkpt lat="41.157934" lon="-8.619668">
        <ele>130.942</ele>
        <time>2015-03-24T09:07:35Z</time>
      </trkpt>
      <trkpt lat="41.158350" lon="-8.619766">
        <ele>133.372</ele>
        <time>2015-03-24T09:07:53Z</time>
      </trkpt>
      <trkpt lat="41.158598" lon="-8.619830">
        <ele>133.830</ele>
        <time>2015-03-24T09:08:08Z</time>
      </trkpt>
      <trkpt lat="41.158903" lon="-8.619996">
        <ele>135.715</ele>
        <time>2015-03-24T09:08:26Z</time>
      </trkpt>
      <trkpt lat="41.159215" lon="-8.620276">
        <ele>136.662</ele>
        <time>2015-03-24T09:08:43Z</time>
      </trkpt>
      <trkpt lat="41.159412" lon="-8.620490">
        <ele>139.119</ele>
        <time>2015-03-24T09:08:59Z</time>
      </trkpt>
      <trkpt lat="41.159616" lon="-8.620762">
        <ele>140.509</ele>
        <time>2015-03-24T09:09:14Z</time>
      </trkpt>
      <trkpt lat="41.159788" lon="-8.620937">
        <ele>142.419</ele>
        <time>2015-03-24T09:09:29Z</time>
      </trkpt>
      <trkpt lat="41.159829" lon="-8.620988">
        <ele>142.907</ele>
        <time>2015-03-24T09:09:33Z</time>
      </trkpt>
      <trkpt lat="41.160019" lon="-8.621137">
        <ele>144.810</ele>
        <time>2015-03-24T09:09:48Z</time>
      </trkpt>
      <trkpt lat="41.160262" lon="-8.621173">
        <ele>147.793</ele>
        <time>2015-03-24T09:10:03Z</time>
      </trkpt>
      <trkpt lat="41.160429" lon="-8.621312">
        <ele>150.695</ele>
        <time>2015-03-24T09:10:16Z</time>
      </trkpt>
      <trkpt lat="41.160443" lon="-8.621696">
        <ele>151.585</ele>
        <time>2015-03-24T09:10:30Z</time>
      </trkpt>
      <trkpt lat="41.160447" lon="-8.622141">
        <ele>152.583</ele>
        <time>2015-03-24T09:10:44Z</time>
      </trkpt>
      <trkpt lat="41.160664" lon="-8.622517">
        <ele>153.598</ele>
        <time>2015-03-24T09:11:01Z</time>
      </trkpt>
      <trkpt lat="41.160924" lon="-8.622715">
        <ele>153.545</ele>
        <time>2015-03-24T09:11:16Z</time>
      </trkpt>
      <trkpt lat="41.161214" lon="-8.622872">
        <ele>154.064</ele>
        <time>2015-03-24T09:11:28Z</time>
      </trkpt>
      <trkpt lat="41.161523" lon="-8.623041">
        <ele>152.506</ele>
        <time>2015-03-24T09:11:38Z</time>
      </trkpt>
      <trkpt lat="41.161917" lon="-8.623242">
        <ele>150.616</ele>
        <time>2015-03-24T09:11:52Z</time>
      </trkpt>
      <trkpt lat="41.162000" lon="-8.623294">
        <ele>150.607</ele>
        <time>2015-03-24T09:11:55Z</time>
      </trkpt>
      <trkpt lat="41.162064" lon="-8.623297">
        <ele>150.145</ele>
        <time>2015-03-24T09:11:57Z</time>
      </trkpt>
      <trkpt lat="41.162339" lon="-8.623464">
        <ele>149.628</ele>
        <time>2015-03-24T09:12:10Z</time>
      </trkpt>
      <trkpt lat="41.162666" lon="-8.623666">
        <ele>149.690</ele>
        <time>2015-03-24T09:12:27Z</time>
      </trkpt>
      <trkpt lat="41.163082" lon="-8.623824">
        <ele>147.270</ele>
        <time>2015-03-24T09:12:41Z</time>
      </trkpt>
      <trkpt lat="41.163253" lon="-8.623863">
        <ele>146.748</ele>
        <time>2015-03-24T09:12:51Z</time>
      </trkpt>
      <trkpt lat="41.163544" lon="-8.624016">
        <ele>145.373</ele>
        <time>2015-03-24T09:13:00Z</time>
      </trkpt>
      <trkpt lat="41.163951" lon="-8.624204">
        <ele>142.990</ele>
        <time>2015-03-24T09:13:12Z</time>
      </trkpt>
      <trkpt lat="41.163991" lon="-8.624252">
        <ele>141.919</ele>
        <time>2015-03-24T09:13:14Z</time>
      </trkpt>
      <trkpt lat="41.164114" lon="-8.624182">
        <ele>141.509</ele>
        <time>2015-03-24T09:13:21Z</time>
      </trkpt>
      <trkpt lat="41.164221" lon="-8.624137">
        <ele>141.519</ele>
        <time>2015-03-24T09:13:25Z</time>
      </trkpt>
      <trkpt lat="41.164297" lon="-8.624112">
        <ele>141.007</ele>
        <time>2015-03-24T09:13:35Z</time>
      </trkpt>
      <trkpt lat="41.164481" lon="-8.624101">
        <ele>140.050</ele>
        <time>2015-03-24T09:13:50Z</time>
      </trkpt>
      <trkpt lat="41.164622" lon="-8.624358">
        <ele>137.123</ele>
        <time>2015-03-24T09:14:01Z</time>
      </trkpt>
      <trkpt lat="41.164943" lon="-8.624472">
        <ele>136.625</ele>
        <time>2015-03-24T09:14:14Z</time>
      </trkpt>
      <trkpt lat="41.165151" lon="-8.624572">
        <ele>136.265</ele>
        <time>2015-03-24T09:14:24Z</time>
      </trkpt>
      <trkpt lat="41.165488" lon="-8.624777">
        <ele>134.223</ele>
        <time>2015-03-24T09:14:36Z</time>
      </trkpt>
      <trkpt lat="41.165898" lon="-8.624933">
        <ele>132.398</ele>
        <time>2015-03-24T09:14:49Z</time>
      </trkpt>
      <trkpt lat="41.166148" lon="-8.625001">
        <ele>131.835</ele>
        <time>2015-03-24T09:15:00Z</time>
      </trkpt>
      <trkpt lat="41.166503" lon="-8.625162">
        <ele>131.415</ele>
        <time>2015-03-24T09:15:13Z</time>
      </trkpt>
      <trkpt lat="41.166821" lon="-8.625179">
        <ele>134.265</ele>
        <time>2015-03-24T09:15:25Z</time>
      </trkpt>
      <trkpt lat="41.166867" lon="-8.625175">
        <ele>132.311</ele>
        <time>2015-03-24T09:15:27Z</time>
      </trkpt>
      <trkpt lat="41.167012" lon="-8.625164">
        <ele>133.807</ele>
        <time>2015-03-24T09:15:35Z</time>
      </trkpt>
      <trkpt lat="41.167414" lon="-8.625290">
        <ele>129.930</ele>
        <time>2015-03-24T09:15:45Z</time>
      </trkpt>
      <trkpt lat="41.167561" lon="-8.625313">
        <ele>128.523</ele>
        <time>2015-03-24T09:15:48Z</time>
      </trkpt>
      <trkpt lat="41.168133" lon="-8.625445">
        <ele>127.595</ele>
        <time>2015-03-24T09:16:00Z</time>
      </trkpt>
      <trkpt lat="41.168468" lon="-8.625457">
        <ele>125.625</ele>
        <time>2015-03-24T09:16:07Z</time>
      </trkpt>
      <trkpt lat="41.169091" lon="-8.625634">
        <ele>125.123</ele>
        <time>2015-03-24T09:16:21Z</time>
      </trkpt>
      <trkpt lat="41.169360" lon="-8.625695">
        <ele>123.738</ele>
        <time>2015-03-24T09:16:28Z</time>
      </trkpt>
      <trkpt lat="41.169920" lon="-8.625745">
        <ele>123.735</ele>
        <time>2015-03-24T09:16:41Z</time>
      </trkpt>
      <trkpt lat="41.170320" lon="-8.625856">
        <ele>123.795</ele>
        <time>2015-03-24T09:16:52Z</time>
      </trkpt>
      <trkpt lat="41.170783" lon="-8.625967">
        <ele>125.149</ele>
        <time>2015-03-24T09:17:05Z</time>
      </trkpt>
      <trkpt lat="41.171387" lon="-8.626089">
        <ele>125.623</ele>
        <time>2015-03-24T09:17:22Z</time>
      </trkpt>
      <trkpt lat="41.171878" lon="-8.626192">
        <ele>124.607</ele>
        <time>2015-03-24T09:17:36Z</time>
      </trkpt>
      <trkpt lat="41.172519" lon="-8.626317">
        <ele>124.628</ele>
        <time>2015-03-24T09:17:53Z</time>
      </trkpt>
      <trkpt lat="41.172923" lon="-8.626455">
        <ele>127.061</ele>
        <time>2015-03-24T09:18:05Z</time>
      </trkpt>
      <trkpt lat="41.173372" lon="-8.626693">
        <ele>127.013</ele>
        <time>2015-03-24T09:18:20Z</time>
      </trkpt>
      <trkpt lat="41.173712" lon="-8.626873">
        <ele>129.053</ele>
        <time>2015-03-24T09:18:32Z</time>
      </trkpt>
      <trkpt lat="41.174255" lon="-8.627202">
        <ele>129.471</ele>
        <time>2015-03-24T09:18:51Z</time>
      </trkpt>
      <trkpt lat="41.174723" lon="-8.627489">
        <ele>130.456</ele>
        <time>2015-03-24T09:19:08Z</time>
      </trkpt>
      <trkpt lat="41.175228" lon="-8.627675">
        <ele>130.923</ele>
        <time>2015-03-24T09:19:23Z</time>
      </trkpt>
      <trkpt lat="41.175347" lon="-8.627706">
        <ele>132.372</ele>
        <time>2015-03-24T09:19:26Z</time>
      </trkpt>
      <trkpt lat="41.175643" lon="-8.627778">
        <ele>132.813</ele>
        <time>2015-03-24T09:19:39Z</time>
      </trkpt>
      <trkpt lat="41.175695" lon="-8.627771">
        <ele>132.314</ele>
        <time>2015-03-24T09:20:07Z</time>
      </trkpt>
      <trkpt lat="41.176057" lon="-8.627929">
        <ele>130.407</ele>
        <time>2015-03-24T09:20:18Z</time>
      </trkpt>
      <trkpt lat="41.176375" lon="-8.628135">
        <ele>129.436</ele>
        <time>2015-03-24T09:20:26Z</time>
      </trkpt>
      <trkpt lat="41.176518" lon="-8.628214">
        <ele>130.959</ele>
        <time>2015-03-24T09:20:29Z</time>
      </trkpt>
      <trkpt lat="41.176568" lon="-8.628246">
        <ele>130.911</ele>
        <time>2015-03-24T09:20:30Z</time>
      </trkpt>
      <trkpt lat="41.176888" lon="-8.628415">
        <ele>129.031</ele>
        <time>2015-03-24T09:20:36Z</time>
      </trkpt>
      <trkpt lat="41.177463" lon="-8.628699">
        <ele>126.129</ele>
        <time>2015-03-24T09:20:47Z</time>
      </trkpt>
      <trkpt lat="41.177512" lon="-8.628727">
        <ele>126.154</ele>
        <time>2015-03-24T09:20:48Z</time>
      </trkpt>
      <trkpt lat="41.178366" lon="-8.629121">
        <ele>122.781</ele>
        <time>2015-03-24T09:21:04Z</time>
      </trkpt>
      <trkpt lat="41.178742" lon="-8.629290">
        <ele>120.336</ele>
        <time>2015-03-24T09:21:16Z</time>
      </trkpt>
      <trkpt lat="41.179146" lon="-8.629478">
        <ele>119.317</ele>
        <time>2015-03-24T09:21:49Z</time>
      </trkpt>
      <trkpt lat="41.179727" lon="-8.629738">
        <ele>117.418</ele>
        <time>2015-03-24T09:22:01Z</time>
      </trkpt>
      <trkpt lat="41.180028" lon="-8.629878">
        <ele>116.907</ele>
        <time>2015-03-24T09:22:07Z</time>
      </trkpt>
      <trkpt lat="41.180464" lon="-8.630080">
        <ele>115.592</ele>
        <time>2015-03-24T09:22:15Z</time>
      </trkpt>
      <trkpt lat="41.181161" lon="-8.630347">
        <ele>114.145</ele>
        <time>2015-03-24T09:22:29Z</time>
      </trkpt>
      <trkpt lat="41.181805" lon="-8.630619">
        <ele>113.627</ele>
        <time>2015-03-24T09:22:45Z</time>
      </trkpt>
      <trkpt lat="41.182404" lon="-8.630901">
        <ele>116.057</ele>
        <time>2015-03-24T09:23:02Z</time>
      </trkpt>
      <trkpt lat="41.182973" lon="-8.631126">
        <ele>116.095</ele>
        <time>2015-03-24T09:23:18Z</time>
      </trkpt>
      <trkpt lat="41.183318" lon="-8.631274">
        <ele>116.940</ele>
        <time>2015-03-24T09:23:28Z</time>
      </trkpt>
      <trkpt lat="41.183930" lon="-8.631470">
        <ele>118.937</ele>
        <time>2015-03-24T09:23:45Z</time>
      </trkpt>
      <trkpt lat="41.184472" lon="-8.631604">
        <ele>119.367</ele>
        <time>2015-03-24T09:24:00Z</time>
      </trkpt>
      <trkpt lat="41.185094" lon="-8.631753">
        <ele>119.881</ele>
        <time>2015-03-24T09:24:18Z</time>
      </trkpt>
      <trkpt lat="41.185159" lon="-8.631768">
        <ele>118.419</ele>
        <time>2015-03-24T09:24:20Z</time>
      </trkpt>
      <trkpt lat="41.185704" lon="-8.631890">
        <ele>119.307</ele>
        <time>2015-03-24T09:24:37Z</time>
      </trkpt>
      <trkpt lat="41.186041" lon="-8.631972">
        <ele>121.315</ele>
        <time>2015-03-24T09:24:47Z</time>
      </trkpt>
      <trkpt lat="41.186469" lon="-8.632077">
        <ele>123.288</ele>
        <time>2015-03-24T09:25:01Z</time>
      </trkpt>
      <trkpt lat="41.186910" lon="-8.632173">
        <ele>123.230</ele>
        <time>2015-03-24T09:25:17Z</time>
      </trkpt>
      <trkpt lat="41.187380" lon="-8.632296">
        <ele>124.620</ele>
        <time>2015-03-24T09:25:36Z</time>
      </trkpt>
      <trkpt lat="41.187812" lon="-8.632393">
        <ele>126.178</ele>
        <time>2015-03-24T09:25:53Z</time>
      </trkpt>
      <trkpt lat="41.188219" lon="-8.632488">
        <ele>126.623</ele>
        <time>2015-03-24T09:26:09Z</time>
      </trkpt>
      <trkpt lat="41.188499" lon="-8.632556">
        <ele>128.590</ele>
        <time>2015-03-24T09:26:20Z</time>
      </trkpt>
      <trkpt lat="41.188635" lon="-8.632595">
        <ele>128.064</ele>
        <time>2015-03-24T09:26:33Z</time>
      </trkpt>
      <trkpt lat="41.188866" lon="-8.632660">
        <ele>128.506</ele>
        <time>2015-03-24T09:26:46Z</time>
      </trkpt>
      <trkpt lat="41.189424" lon="-8.632796">
        <ele>129.016</ele>
        <time>2015-03-24T09:27:03Z</time>
      </trkpt>
      <trkpt lat="41.189694" lon="-8.632880">
        <ele>129.407</ele>
        <time>2015-03-24T09:27:16Z</time>
      </trkpt>
      <trkpt lat="41.189860" lon="-8.632885">
        <ele>129.975</ele>
        <time>2015-03-24T09:27:31Z</time>
      </trkpt>
      <trkpt lat="41.190410" lon="-8.633056">
        <ele>129.968</ele>
        <time>2015-03-24T09:27:49Z</time>
      </trkpt>
      <trkpt lat="41.190892" lon="-8.633191">
        <ele>130.920</ele>
        <time>2015-03-24T09:28:02Z</time>
      </trkpt>
      <trkpt lat="41.191513" lon="-8.633374">
        <ele>132.880</ele>
        <time>2015-03-24T09:28:18Z</time>
      </trkpt>
      <trkpt lat="41.192039" lon="-8.633545">
        <ele>133.318</ele>
        <time>2015-03-24T09:28:32Z</time>
      </trkpt>
      <trkpt lat="41.192643" lon="-8.633681">
        <ele>133.393</ele>
        <time>2015-03-24T09:28:47Z</time>
      </trkpt>
      <trkpt lat="41.192731" lon="-8.633703">
        <ele>133.320</ele>
        <time>2015-03-24T09:28:56Z</time>
      </trkpt>
      <trkpt lat="41.192795" lon="-8.633689">
        <ele>134.238</ele>
        <time>2015-03-24T09:29:31Z</time>
      </trkpt>
      <trkpt lat="41.192965" lon="-8.633736">
        <ele>132.870</ele>
        <time>2015-03-24T09:29:37Z</time>
      </trkpt>
      <trkpt lat="41.193638" lon="-8.633831">
        <ele>130.917</ele>
        <time>2015-03-24T09:29:53Z</time>
      </trkpt>
      <trkpt lat="41.194366" lon="-8.633799">
        <ele>127.507</ele>
        <time>2015-03-24T09:30:06Z</time>
      </trkpt>
      <trkpt lat="41.195088" lon="-8.633772">
        <ele>124.242</ele>
        <time>2015-03-24T09:30:19Z</time>
      </trkpt>
      <trkpt lat="41.195607" lon="-8.633743">
        <ele>121.785</ele>
        <time>2015-03-24T09:30:31Z</time>
      </trkpt>
      <trkpt lat="41.196075" lon="-8.633740">
        <ele>120.377</ele>
        <time>2015-03-24T09:30:43Z</time>
      </trkpt>
      <trkpt lat="41.196557" lon="-8.633706">
        <ele>117.917</ele>
        <time>2015-03-24T09:30:52Z</time>
      </trkpt>
      <trkpt lat="41.197483" lon="-8.633658">
        <ele>116.085</ele>
        <time>2015-03-24T09:31:08Z</time>
      </trkpt>
      <trkpt lat="41.198252" lon="-8.633617">
        <ele>112.610</ele>
        <time>2015-03-24T09:31:22Z</time>
      </trkpt>
      <trkpt lat="41.199199" lon="-8.633559">
        <ele>109.777</ele>
        <time>2015-03-24T09:31:38Z</time>
      </trkpt>
      <trkpt lat="41.200182" lon="-8.633499">
        <ele>106.894</ele>
        <time>2015-03-24T09:31:55Z</time>
      </trkpt>
      <trkpt lat="41.200895" lon="-8.633456">
        <ele>105.457</ele>
        <time>2015-03-24T09:32:08Z</time>
      </trkpt>
      <trkpt lat="41.201688" lon="-8.633420">
        <ele>103.522</ele>
        <time>2015-03-24T09:32:23Z</time>
      </trkpt>
      <trkpt lat="41.202625" lon="-8.633381">
        <ele>101.107</ele>
        <time>2015-03-24T09:32:40Z</time>
      </trkpt>
      <trkpt lat="41.203574" lon="-8.633319">
        <ele>98.298</ele>
        <time>2015-03-24T09:32:57Z</time>
      </trkpt>
      <trkpt lat="41.204461" lon="-8.633254">
        <ele>98.261</ele>
        <time>2015-03-24T09:33:16Z</time>
      </trkpt>
      <trkpt lat="41.204976" lon="-8.633230">
        <ele>99.223</ele>
        <time>2015-03-24T09:33:29Z</time>
      </trkpt>
      <trkpt lat="41.205536" lon="-8.633198">
        <ele>100.193</ele>
        <time>2015-03-24T09:33:45Z</time>
      </trkpt>
      <trkpt lat="41.206165" lon="-8.633176">
        <ele>102.071</ele>
        <time>2015-03-24T09:34:04Z</time>
      </trkpt>
      <trkpt lat="41.206692" lon="-8.633159">
        <ele>104.416</ele>
        <time>2015-03-24T09:34:20Z</time>
      </trkpt>
      <trkpt lat="41.207096" lon="-8.633266">
        <ele>105.963</ele>
        <time>2015-03-24T09:34:35Z</time>
      </trkpt>
      <trkpt lat="41.207738" lon="-8.633134">
        <ele>107.812</ele>
        <time>2015-03-24T09:34:53Z</time>
      </trkpt>
      <trkpt lat="41.208110" lon="-8.633127">
        <ele>109.332</ele>
        <time>2015-03-24T09:35:06Z</time>
      </trkpt>
      <trkpt lat="41.208564" lon="-8.633100">
        <ele>109.705</ele>
        <time>2015-03-24T09:35:24Z</time>
      </trkpt>
      <trkpt lat="41.208982" lon="-8.633095">
        <ele>111.207</ele>
        <time>2015-03-24T09:35:40Z</time>
      </trkpt>
      <trkpt lat="41.209402" lon="-8.633081">
        <ele>111.780</ele>
        <time>2015-03-24T09:35:54Z</time>
      </trkpt>
      <trkpt lat="41.210011" lon="-8.633065">
        <ele>113.153</ele>
        <time>2015-03-24T09:36:11Z</time>
      </trkpt>
      <trkpt lat="41.210677" lon="-8.633047">
        <ele>113.625</ele>
        <time>2015-03-24T09:36:28Z</time>
      </trkpt>
      <trkpt lat="41.211141" lon="-8.633250">
        <ele>112.125</ele>
        <time>2015-03-24T09:36:40Z</time>
      </trkpt>
      <trkpt lat="41.211399" lon="-8.633422">
        <ele>111.713</ele>
        <time>2015-03-24T09:36:48Z</time>
      </trkpt>
      <trkpt lat="41.211486" lon="-8.633445">
        <ele>111.748</ele>
        <time>2015-03-24T09:36:50Z</time>
      </trkpt>
      <trkpt lat="41.212052" lon="-8.633741">
        <ele>111.285</ele>
        <time>2015-03-24T09:37:05Z</time>
      </trkpt>
      <trkpt lat="41.212697" lon="-8.634101">
        <ele>110.216</ele>
        <time>2015-03-24T09:37:23Z</time>
      </trkpt>
      <trkpt lat="41.213359" lon="-8.634530">
        <ele>110.276</ele>
        <time>2015-03-24T09:37:42Z</time>
      </trkpt>
      <trkpt lat="41.213742" lon="-8.634768">
        <ele>110.213</ele>
        <time>2015-03-24T09:37:52Z</time>
      </trkpt>
      <trkpt lat="41.214478" lon="-8.635050">
        <ele>108.807</ele>
        <time>2015-03-24T09:38:10Z</time>
      </trkpt>
      <trkpt lat="41.215252" lon="-8.635361">
        <ele>107.310</ele>
        <time>2015-03-24T09:38:27Z</time>
      </trkpt>
      <trkpt lat="41.215920" lon="-8.635551">
        <ele>104.493</ele>
        <time>2015-03-24T09:38:41Z</time>
      </trkpt>
      <trkpt lat="41.216430" lon="-8.635637">
        <ele>103.555</ele>
        <time>2015-03-24T09:38:52Z</time>
      </trkpt>
      <trkpt lat="41.217308" lon="-8.636028">
        <ele>101.155</ele>
        <time>2015-03-24T09:39:11Z</time>
      </trkpt>
      <trkpt lat="41.218010" lon="-8.636396">
        <ele>100.193</ele>
        <time>2015-03-24T09:39:27Z</time>
      </trkpt>
      <trkpt lat="41.218098" lon="-8.636443">
        <ele>100.138</ele>
        <time>2015-03-24T09:39:29Z</time>
      </trkpt>
      <trkpt lat="41.218774" lon="-8.636831">
        <ele>99.255</ele>
        <time>2015-03-24T09:39:46Z</time>
      </trkpt>
      <trkpt lat="41.218943" lon="-8.636908">
        <ele>98.775</ele>
        <time>2015-03-24T09:39:51Z</time>
      </trkpt>
      <trkpt lat="41.219007" lon="-8.636905">
        <ele>98.728</ele>
        <time>2015-03-24T09:40:03Z</time>
      </trkpt>
      <trkpt lat="41.219107" lon="-8.636983">
        <ele>97.720</ele>
        <time>2015-03-24T09:40:23Z</time>
      </trkpt>
      <trkpt lat="41.219573" lon="-8.637270">
        <ele>96.807</ele>
        <time>2015-03-24T09:40:39Z</time>
      </trkpt>
      <trkpt lat="41.220126" lon="-8.637613">
        <ele>94.856</ele>
        <time>2015-03-24T09:40:54Z</time>
      </trkpt>
      <trkpt lat="41.220965" lon="-8.638117">
        <ele>91.589</ele>
        <time>2015-03-24T09:41:12Z</time>
      </trkpt>
      <trkpt lat="41.221012" lon="-8.638143">
        <ele>91.561</ele>
        <time>2015-03-24T09:41:13Z</time>
      </trkpt>
      <trkpt lat="41.221725" lon="-8.638438">
        <ele>89.171</ele>
        <time>2015-03-24T09:41:29Z</time>
      </trkpt>
      <trkpt lat="41.221806" lon="-8.638477">
        <ele>90.599</ele>
        <time>2015-03-24T09:41:31Z</time>
      </trkpt>
      <trkpt lat="41.222065" lon="-8.638577">
        <ele>92.914</ele>
        <time>2015-03-24T09:41:37Z</time>
      </trkpt>
      <trkpt lat="41.222144" lon="-8.638612">
        <ele>91.071</ele>
        <time>2015-03-24T09:41:39Z</time>
      </trkpt>
      <trkpt lat="41.222836" lon="-8.638901">
        <ele>89.567</ele>
        <time>2015-03-24T09:41:56Z</time>
      </trkpt>
      <trkpt lat="41.223454" lon="-8.639124">
        <ele>89.181</ele>
        <time>2015-03-24T09:42:11Z</time>
      </trkpt>
      <trkpt lat="41.223538" lon="-8.639143">
        <ele>90.519</ele>
        <time>2015-03-24T09:42:13Z</time>
      </trkpt>
      <trkpt lat="41.223622" lon="-8.639165">
        <ele>89.107</ele>
        <time>2015-03-24T09:42:15Z</time>
      </trkpt>
      <trkpt lat="41.224330" lon="-8.639375">
        <ele>91.025</ele>
        <time>2015-03-24T09:42:34Z</time>
      </trkpt>
      <trkpt lat="41.224887" lon="-8.639513">
        <ele>92.468</ele>
        <time>2015-03-24T09:42:50Z</time>
      </trkpt>
      <trkpt lat="41.224988" lon="-8.639542">
        <ele>91.590</ele>
        <time>2015-03-24T09:42:53Z</time>
      </trkpt>
      <trkpt lat="41.225289" lon="-8.639645">
        <ele>92.920</ele>
        <time>2015-03-24T09:43:02Z</time>
      </trkpt>
      <trkpt lat="41.225558" lon="-8.639762">
        <ele>91.938</ele>
        <time>2015-03-24T09:43:10Z</time>
      </trkpt>
      <trkpt lat="41.225661" lon="-8.639811">
        <ele>93.493</ele>
        <time>2015-03-24T09:43:13Z</time>
      </trkpt>
      <trkpt lat="41.226210" lon="-8.640079">
        <ele>92.970</ele>
        <time>2015-03-24T09:43:29Z</time>
      </trkpt>
      <trkpt lat="41.226719" lon="-8.640407">
        <ele>91.579</ele>
        <time>2015-03-24T09:43:44Z</time>
      </trkpt>
      <trkpt lat="41.227425" lon="-8.640845">
        <ele>88.605</ele>
        <time>2015-03-24T09:43:59Z</time>
      </trkpt>
      <trkpt lat="41.228111" lon="-8.641267">
        <ele>84.725</ele>
        <time>2015-03-24T09:44:11Z</time>
      </trkpt>
      <trkpt lat="41.228684" lon="-8.641660">
        <ele>81.907</ele>
        <time>2015-03-24T09:44:21Z</time>
      </trkpt>
      <trkpt lat="41.229421" lon="-8.642248">
        <ele>78.016</ele>
        <time>2015-03-24T09:44:34Z</time>
      </trkpt>
      <trkpt lat="41.229846" lon="-8.642587">
        <ele>74.629</ele>
        <time>2015-03-24T09:44:41Z</time>
      </trkpt>
      <trkpt lat="41.230674" lon="-8.643181">
        <ele>71.321</ele>
        <time>2015-03-24T09:44:54Z</time>
      </trkpt>
      <trkpt lat="41.230880" lon="-8.643248">
        <ele>69.481</ele>
        <time>2015-03-24T09:44:57Z</time>
      </trkpt>
      <trkpt lat="41.231140" lon="-8.643345">
        <ele>68.429</ele>
        <time>2015-03-24T09:45:02Z</time>
      </trkpt>
      <trkpt lat="41.231374" lon="-8.643485">
        <ele>68.424</ele>
        <time>2015-03-24T09:45:08Z</time>
      </trkpt>
      <trkpt lat="41.231924" lon="-8.643555">
        <ele>66.091</ele>
        <time>2015-03-24T09:45:22Z</time>
      </trkpt>
      <trkpt lat="41.232181" lon="-8.643578">
        <ele>66.059</ele>
        <time>2015-03-24T09:45:33Z</time>
      </trkpt>
      <trkpt lat="41.232514" lon="-8.643631">
        <ele>64.603</ele>
        <time>2015-03-24T09:46:12Z</time>
      </trkpt>
      <trkpt lat="41.232955" lon="-8.643805">
        <ele>63.623</ele>
        <time>2015-03-24T09:46:24Z</time>
      </trkpt>
      <trkpt lat="41.233634" lon="-8.644292">
        <ele>60.707</ele>
        <time>2015-03-24T09:46:41Z</time>
      </trkpt>
      <trkpt lat="41.234162" lon="-8.644853">
        <ele>57.844</ele>
        <time>2015-03-24T09:46:55Z</time>
      </trkpt>
      <trkpt lat="41.234606" lon="-8.645257">
        <ele>54.597</ele>
        <time>2015-03-24T09:47:05Z</time>
      </trkpt>
      <trkpt lat="41.234902" lon="-8.645529">
        <ele>51.119</ele>
        <time>2015-03-24T09:47:11Z</time>
      </trkpt>
      <trkpt lat="41.234952" lon="-8.645571">
        <ele>51.129</ele>
        <time>2015-03-24T09:47:12Z</time>
      </trkpt>
      <trkpt lat="41.235194" lon="-8.645607">
        <ele>50.667</ele>
        <time>2015-03-24T09:47:17Z</time>
      </trkpt>
      <trkpt lat="41.235457" lon="-8.645680">
        <ele>50.622</ele>
        <time>2015-03-24T09:47:26Z</time>
      </trkpt>
      <trkpt lat="41.235607" lon="-8.646291">
        <ele>50.629</ele>
        <time>2015-03-24T09:47:38Z</time>
      </trkpt>
      <trkpt lat="41.236072" lon="-8.646885">
        <ele>51.651</ele>
        <time>2015-03-24T09:47:55Z</time>
      </trkpt>
      <trkpt lat="41.236425" lon="-8.647292">
        <ele>51.601</ele>
        <time>2015-03-24T09:48:09Z</time>
      </trkpt>
      <trkpt lat="41.236463" lon="-8.647334">
        <ele>53.011</ele>
        <time>2015-03-24T09:48:11Z</time>
      </trkpt>
      <trkpt lat="41.236838" lon="-8.647612">
        <ele>54.507</ele>
        <time>2015-03-24T09:48:29Z</time>
      </trkpt>
      <trkpt lat="41.236945" lon="-8.647655">
        <ele>53.084</ele>
        <time>2015-03-24T09:48:34Z</time>
      </trkpt>
      <trkpt lat="41.237024" lon="-8.647688">
        <ele>54.947</ele>
        <time>2015-03-24T09:48:38Z</time>
      </trkpt>
      <trkpt lat="41.237343" lon="-8.647799">
        <ele>57.319</ele>
        <time>2015-03-24T09:48:53Z</time>
      </trkpt>
      <trkpt lat="41.237713" lon="-8.647937">
        <ele>58.869</ele>
        <time>2015-03-24T09:49:11Z</time>
      </trkpt>
      <trkpt lat="41.238072" lon="-8.648065">
        <ele>60.727</ele>
        <time>2015-03-24T09:49:28Z</time>
      </trkpt>
      <trkpt lat="41.238540" lon="-8.648087">
        <ele>63.122</ele>
        <time>2015-03-24T09:49:50Z</time>
      </trkpt>
      <trkpt lat="41.238613" lon="-8.648086">
        <ele>63.699</ele>
        <time>2015-03-24T09:49:54Z</time>
      </trkpt>
      <trkpt lat="41.238747" lon="-8.648023">
        <ele>64.645</ele>
        <time>2015-03-24T09:50:02Z</time>
      </trkpt>
      <trkpt lat="41.239104" lon="-8.648026">
        <ele>66.547</ele>
        <time>2015-03-24T09:50:20Z</time>
      </trkpt>
      <trkpt lat="41.239421" lon="-8.648021">
        <ele>68.911</ele>
        <time>2015-03-24T09:50:38Z</time>
      </trkpt>
      <trkpt lat="41.239708" lon="-8.648011">
        <ele>70.807</ele>
        <time>2015-03-24T09:50:55Z</time>
      </trkpt>
      <trkpt lat="41.239884" lon="-8.648055">
        <ele>74.293</ele>
        <time>2015-03-24T09:51:08Z</time>
      </trkpt>
      <trkpt lat="41.240119" lon="-8.648141">
        <ele>75.676</ele>
        <time>2015-03-24T09:51:23Z</time>
      </trkpt>
      <trkpt lat="41.240371" lon="-8.648278">
        <ele>77.598</ele>
        <time>2015-03-24T09:51:39Z</time>
      </trkpt>
      <trkpt lat="41.240624" lon="-8.648451">
        <ele>80.468</ele>
        <time>2015-03-24T09:51:55Z</time>
      </trkpt>
      <trkpt lat="41.240931" lon="-8.648690">
        <ele>79.926</ele>
        <time>2015-03-24T09:52:12Z</time>
      </trkpt>
      <trkpt lat="41.241081" lon="-8.648859">
        <ele>79.931</ele>
        <time>2015-03-24T09:52:25Z</time>
      </trkpt>
      <trkpt lat="41.241163" lon="-8.648995">
        <ele>80.458</ele>
        <time>2015-03-24T09:52:36Z</time>
      </trkpt>
      <trkpt lat="41.241225" lon="-8.649009">
        <ele>80.495</ele>
        <time>2015-03-24T09:52:40Z</time>
      </trkpt>
      <trkpt lat="41.241482" lon="-8.648852">
        <ele>81.949</ele>
        <time>2015-03-24T09:52:55Z</time>
      </trkpt>
      <trkpt lat="41.241869" lon="-8.648681">
        <ele>82.823</ele>
        <time>2015-03-24T09:53:14Z</time>
      </trkpt>
      <trkpt lat="41.242208" lon="-8.648593">
        <ele>83.307</ele>
        <time>2015-03-24T09:53:29Z</time>
      </trkpt>
      <trkpt lat="41.242534" lon="-8.648637">
        <ele>83.818</ele>
        <time>2015-03-24T09:53:43Z</time>
      </trkpt>
      <trkpt lat="41.242979" lon="-8.648878">
        <ele>85.761</ele>
        <time>2015-03-24T09:54:03Z</time>
      </trkpt>
      <trkpt lat="41.243281" lon="-8.648964">
        <ele>87.613</ele>
        <time>2015-03-24T09:54:17Z</time>
      </trkpt>
      <trkpt lat="41.243645" lon="-8.649013">
        <ele>88.133</ele>
        <time>2015-03-24T09:54:32Z</time>
      </trkpt>
      <trkpt lat="41.243903" lon="-8.648611">
        <ele>88.631</ele>
        <time>2015-03-24T09:54:48Z</time>
      </trkpt>
      <trkpt lat="41.244326" lon="-8.648462">
        <ele>90.026</ele>
        <time>2015-03-24T09:55:06Z</time>
      </trkpt>
      <trkpt lat="41.244659" lon="-8.648488">
        <ele>91.513</ele>
        <time>2015-03-24T09:55:21Z</time>
      </trkpt>
      <trkpt lat="41.244992" lon="-8.648537">
        <ele>91.518</ele>
        <time>2015-03-24T09:55:37Z</time>
      </trkpt>
      <trkpt lat="41.245260" lon="-8.648574">
        <ele>93.998</ele>
        <time>2015-03-24T09:55:50Z</time>
      </trkpt>
      <trkpt lat="41.245379" lon="-8.648751">
        <ele>93.917</ele>
        <time>2015-03-24T09:56:03Z</time>
      </trkpt>
      <trkpt lat="41.245572" lon="-8.648688">
        <ele>93.907</ele>
        <time>2015-03-24T09:56:41Z</time>
      </trkpt>
      <trkpt lat="41.245617" lon="-8.648659">
        <ele>93.970</ele>
        <time>2015-03-24T09:57:08Z</time>
      </trkpt>
      <trkpt lat="41.245611" lon="-8.648598">
        <ele>92.953</ele>
        <time>2015-03-24T09:57:39Z</time>
      </trkpt>
      <trkpt lat="41.245646" lon="-8.648555">
        <ele>94.445</ele>
        <time>2015-03-24T09:57:41Z</time>
      </trkpt>
      <trkpt lat="41.245723" lon="-8.648545">
        <ele>95.365</ele>
        <time>2015-03-24T09:57:44Z</time>
      </trkpt>
      <trkpt lat="41.245795" lon="-8.648562">
        <ele>93.963</ele>
        <time>2015-03-24T09:57:47Z</time>
      </trkpt>
      <trkpt lat="41.245918" lon="-8.648588">
        <ele>95.878</ele>
        <time>2015-03-24T09:57:52Z</time>
      </trkpt>
      <trkpt lat="41.246136" lon="-8.648631">
        <ele>94.455</ele>
        <time>2015-03-24T09:58:01Z</time>
      </trkpt>
      <trkpt lat="41.246232" lon="-8.648644">
        <ele>95.835</ele>
        <time>2015-03-24T09:58:05Z</time>
      </trkpt>
      <trkpt lat="41.246537" lon="-8.648705">
        <ele>98.286</ele>
        <time>2015-03-24T09:58:18Z</time>
      </trkpt>
      <trkpt lat="41.246965" lon="-8.648769">
        <ele>98.714</ele>
        <time>2015-03-24T09:58:35Z</time>
      </trkpt>
      <trkpt lat="41.247038" lon="-8.648740">
        <ele>97.207</ele>
        <time>2015-03-24T09:58:38Z</time>
      </trkpt>
      <trkpt lat="41.247133" lon="-8.648713">
        <ele>98.772</ele>
        <time>2015-03-24T09:58:42Z</time>
      </trkpt>
      <trkpt lat="41.247469" lon="-8.648660">
        <ele>99.225</ele>
        <time>2015-03-24T09:58:56Z</time>
      </trkpt>
      <trkpt lat="41.247595" lon="-8.648621">
        <ele>100.637</ele>
        <time>2015-03-24T09:59:01Z</time>
      </trkpt>
      <trkpt lat="41.247694" lon="-8.648598">
        <ele>99.287</ele>
        <time>2015-03-24T09:59:05Z</time>
      </trkpt>
      <trkpt lat="41.247842" lon="-8.648559">
        <ele>100.615</ele>
        <time>2015-03-24T09:59:11Z</time>
      </trkpt>
      <trkpt lat="41.248324" lon="-8.648430">
        <ele>101.680</ele>
        <time>2015-03-24T09:59:31Z</time>
      </trkpt>
      <trkpt lat="41.248463" lon="-8.648403">
        <ele>102.057</ele>
        <time>2015-03-24T09:59:37Z</time>
      </trkpt>
      <trkpt lat="41.248832" lon="-8.648297">
        <ele>102.568</ele>
        <time>2015-03-24T09:59:53Z</time>
      </trkpt>
      <trkpt lat="41.249187" lon="-8.648223">
        <ele>102.542</ele>
        <time>2015-03-24T10:00:08Z</time>
      </trkpt>
      <trkpt lat="41.249549" lon="-8.648133">
        <ele>102.026</ele>
        <time>2015-03-24T10:00:23Z</time>
      </trkpt>
      <trkpt lat="41.249992" lon="-8.648133">
        <ele>104.407</ele>
        <time>2015-03-24T10:00:41Z</time>
      </trkpt>
      <trkpt lat="41.250404" lon="-8.648245">
        <ele>104.975</ele>
        <time>2015-03-24T10:00:59Z</time>
      </trkpt>
      <trkpt lat="41.250739" lon="-8.647999">
        <ele>106.428</ele>
        <time>2015-03-24T10:01:16Z</time>
      </trkpt>
      <trkpt lat="41.251171" lon="-8.647940">
        <ele>107.860</ele>
        <time>2015-03-24T10:01:33Z</time>
      </trkpt>
      <trkpt lat="41.251687" lon="-8.647999">
        <ele>108.390</ele>
        <time>2015-03-24T10:01:54Z</time>
      </trkpt>
      <trkpt lat="41.252052" lon="-8.648094">
        <ele>109.338</ele>
        <time>2015-03-24T10:02:09Z</time>
      </trkpt>
      <trkpt lat="41.252490" lon="-8.648226">
        <ele>109.373</ele>
        <time>2015-03-24T10:02:27Z</time>
      </trkpt>
      <trkpt lat="41.252772" lon="-8.648553">
        <ele>110.220</ele>
        <time>2015-03-24T10:02:41Z</time>
      </trkpt>
      <trkpt lat="41.253190" lon="-8.649063">
        <ele>110.272</ele>
        <time>2015-03-24T10:03:01Z</time>
      </trkpt>
      <trkpt lat="41.253548" lon="-8.649474">
        <ele>111.213</ele>
        <time>2015-03-24T10:03:18Z</time>
      </trkpt>
      <trkpt lat="41.253885" lon="-8.649949">
        <ele>110.714</ele>
        <time>2015-03-24T10:03:35Z</time>
      </trkpt>
      <trkpt lat="41.254159" lon="-8.649691">
        <ele>112.107</ele>
        <time>2015-03-24T10:03:49Z</time>
      </trkpt>
      <trkpt lat="41.254405" lon="-8.649563">
        <ele>111.726</ele>
        <time>2015-03-24T10:04:00Z</time>
      </trkpt>
      <trkpt lat="41.254473" lon="-8.649641">
        <ele>113.129</ele>
        <time>2015-03-24T10:04:03Z</time>
      </trkpt>
      <trkpt lat="41.254611" lon="-8.649873">
        <ele>111.241</ele>
        <time>2015-03-24T10:04:10Z</time>
      </trkpt>
      <trkpt lat="41.254911" lon="-8.650279">
        <ele>109.741</ele>
        <time>2015-03-24T10:04:24Z</time>
      </trkpt>
      <trkpt lat="41.255351" lon="-8.650502">
        <ele>109.319</ele>
        <time>2015-03-24T10:04:39Z</time>
      </trkpt>
      <trkpt lat="41.255538" lon="-8.650360">
        <ele>108.894</ele>
        <time>2015-03-24T10:04:48Z</time>
      </trkpt>
      <trkpt lat="41.255717" lon="-8.649743">
        <ele>110.761</ele>
        <time>2015-03-24T10:05:06Z</time>
      </trkpt>
      <trkpt lat="41.255852" lon="-8.649297">
        <ele>112.146</ele>
        <time>2015-03-24T10:05:20Z</time>
      </trkpt>
      <trkpt lat="41.256011" lon="-8.648730">
        <ele>115.588</ele>
        <time>2015-03-24T10:05:37Z</time>
      </trkpt>
      <trkpt lat="41.256205" lon="-8.648074">
        <ele>116.516</ele>
        <time>2015-03-24T10:05:57Z</time>
      </trkpt>
      <trkpt lat="41.256292" lon="-8.647717">
        <ele>115.507</ele>
        <time>2015-03-24T10:06:08Z</time>
      </trkpt>
      <trkpt lat="41.256324" lon="-8.647625">
        <ele>116.963</ele>
        <time>2015-03-24T10:06:11Z</time>
      </trkpt>
      <trkpt lat="41.256418" lon="-8.647286">
        <ele>116.596</ele>
        <time>2015-03-24T10:06:21Z</time>
      </trkpt>
      <trkpt lat="41.256495" lon="-8.646975">
        <ele>117.488</ele>
        <time>2015-03-24T10:06:30Z</time>
      </trkpt>
      <trkpt lat="41.256640" lon="-8.646418">
        <ele>118.498</ele>
        <time>2015-03-24T10:06:46Z</time>
      </trkpt>
      <trkpt lat="41.256720" lon="-8.646145">
        <ele>117.496</ele>
        <time>2015-03-24T10:06:54Z</time>
      </trkpt>
      <trkpt lat="41.256740" lon="-8.646083">
        <ele>118.991</ele>
        <time>2015-03-24T10:06:56Z</time>
      </trkpt>
      <trkpt lat="41.256865" lon="-8.645574">
        <ele>118.918</ele>
        <time>2015-03-24T10:07:11Z</time>
      </trkpt>
      <trkpt lat="41.256888" lon="-8.645467">
        <ele>117.488</ele>
        <time>2015-03-24T10:07:14Z</time>
      </trkpt>
      <trkpt lat="41.256923" lon="-8.645335">
        <ele>118.424</ele>
        <time>2015-03-24T10:07:18Z</time>
      </trkpt>
      <trkpt lat="41.257074" lon="-8.644870">
        <ele>120.326</ele>
        <time>2015-03-24T10:07:33Z</time>
      </trkpt>
      <trkpt lat="41.257209" lon="-8.644678">
        <ele>121.307</ele>
        <time>2015-03-24T10:08:08Z</time>
      </trkpt>
      <trkpt lat="41.257266" lon="-8.644598">
        <ele>121.357</ele>
        <time>2015-03-24T10:08:11Z</time>
      </trkpt>
      <trkpt lat="41.257387" lon="-8.644602">
        <ele>121.320</ele>
        <time>2015-03-24T10:08:15Z</time>
      </trkpt>
      <trkpt lat="41.257701" lon="-8.644840">
        <ele>121.382</ele>
        <time>2015-03-24T10:08:25Z</time>
      </trkpt>
      <trkpt lat="41.257859" lon="-8.644928">
        <ele>121.392</ele>
        <time>2015-03-24T10:08:29Z</time>
      </trkpt>
      <trkpt lat="41.257934" lon="-8.644971">
        <ele>119.870</ele>
        <time>2015-03-24T10:08:31Z</time>
      </trkpt>
      <trkpt lat="41.258618" lon="-8.645355">
        <ele>116.545</ele>
        <time>2015-03-24T10:08:47Z</time>
      </trkpt>
      <trkpt lat="41.258664" lon="-8.645377">
        <ele>116.572</ele>
        <time>2015-03-24T10:08:48Z</time>
      </trkpt>
      <trkpt lat="41.258982" lon="-8.645572">
        <ele>115.524</ele>
        <time>2015-03-24T10:08:55Z</time>
      </trkpt>
      <trkpt lat="41.259538" lon="-8.646066">
        <ele>112.604</ele>
        <time>2015-03-24T10:09:09Z</time>
      </trkpt>
      <trkpt lat="41.260126" lon="-8.646608">
        <ele>110.714</ele>
        <time>2015-03-24T10:09:24Z</time>
      </trkpt>
      <trkpt lat="41.260417" lon="-8.646799">
        <ele>109.307</ele>
        <time>2015-03-24T10:09:31Z</time>
      </trkpt>
      <trkpt lat="41.260664" lon="-8.646908">
        <ele>108.321</ele>
        <time>2015-03-24T10:09:37Z</time>
      </trkpt>
      <trkpt lat="41.261553" lon="-8.647027">
        <ele>106.864</ele>
        <time>2015-03-24T10:09:56Z</time>
      </trkpt>
      <trkpt lat="41.261886" lon="-8.647069">
        <ele>105.956</ele>
        <time>2015-03-24T10:10:03Z</time>
      </trkpt>
      <trkpt lat="41.262247" lon="-8.647128">
        <ele>104.996</ele>
        <time>2015-03-24T10:10:11Z</time>
      </trkpt>
      <trkpt lat="41.263035" lon="-8.647336">
        <ele>103.084</ele>
        <time>2015-03-24T10:10:28Z</time>
      </trkpt>
      <trkpt lat="41.263866" lon="-8.647750">
        <ele>101.199</ele>
        <time>2015-03-24T10:10:46Z</time>
      </trkpt>
      <trkpt lat="41.264430" lon="-8.648048">
        <ele>99.626</ele>
        <time>2015-03-24T10:10:59Z</time>
      </trkpt>
      <trkpt lat="41.264520" lon="-8.648086">
        <ele>99.673</ele>
        <time>2015-03-24T10:11:01Z</time>
      </trkpt>
      <trkpt lat="41.264811" lon="-8.648270">
        <ele>101.185</ele>
        <time>2015-03-24T10:11:08Z</time>
      </trkpt>
      <trkpt lat="41.264886" lon="-8.648338">
        <ele>98.713</ele>
        <time>2015-03-24T10:11:10Z</time>
      </trkpt>
      <trkpt lat="41.265107" lon="-8.648582">
        <ele>100.107</ele>
        <time>2015-03-24T10:11:16Z</time>
      </trkpt>
      <trkpt lat="41.265220" lon="-8.648820">
        <ele>98.216</ele>
        <time>2015-03-24T10:11:20Z</time>
      </trkpt>
      <trkpt lat="41.265503" lon="-8.649629">
        <ele>95.849</ele>
        <time>2015-03-24T10:11:32Z</time>
      </trkpt>
      <trkpt lat="41.265652" lon="-8.649890">
        <ele>94.411</ele>
        <time>2015-03-24T10:11:36Z</time>
      </trkpt>
      <trkpt lat="41.266221" lon="-8.650494">
        <ele>92.961</ele>
        <time>2015-03-24T10:11:50Z</time>
      </trkpt>
      <trkpt lat="41.266812" lon="-8.651187">
        <ele>92.939</ele>
        <time>2015-03-24T10:12:06Z</time>
      </trkpt>
      <trkpt lat="41.267412" lon="-8.651764">
        <ele>93.424</ele>
        <time>2015-03-24T10:12:22Z</time>
      </trkpt>
      <trkpt lat="41.267655" lon="-8.651895">
        <ele>91.971</ele>
        <time>2015-03-24T10:12:33Z</time>
      </trkpt>
      <trkpt lat="41.267781" lon="-8.652278">
        <ele>91.074</ele>
        <time>2015-03-24T10:12:45Z</time>
      </trkpt>
      <trkpt lat="41.267810" lon="-8.652925">
        <ele>91.056</ele>
        <time>2015-03-24T10:13:00Z</time>
      </trkpt>
      <trkpt lat="41.267992" lon="-8.653542">
        <ele>91.021</ele>
        <time>2015-03-24T10:13:15Z</time>
      </trkpt>
      <trkpt lat="41.268007" lon="-8.653758">
        <ele>91.007</ele>
        <time>2015-03-24T10:13:20Z</time>
      </trkpt>
      <trkpt lat="41.268011" lon="-8.653871">
        <ele>90.526</ele>
        <time>2015-03-24T10:13:22Z</time>
      </trkpt>
      <trkpt lat="41.268079" lon="-8.654110">
        <ele>90.559</ele>
        <time>2015-03-24T10:13:26Z</time>
      </trkpt>
      <trkpt lat="41.268246" lon="-8.654918">
        <ele>89.141</ele>
        <time>2015-03-24T10:13:41Z</time>
      </trkpt>
      <trkpt lat="41.268318" lon="-8.655626">
        <ele>87.611</ele>
        <time>2015-03-24T10:13:56Z</time>
      </trkpt>
      <trkpt lat="41.268343" lon="-8.655829">
        <ele>88.149</ele>
        <time>2015-03-24T10:14:01Z</time>
      </trkpt>
      <trkpt lat="41.268430" lon="-8.656660">
        <ele>88.664</ele>
        <time>2015-03-24T10:14:20Z</time>
      </trkpt>
      <trkpt lat="41.268525" lon="-8.657279">
        <ele>89.171</ele>
        <time>2015-03-24T10:14:34Z</time>
      </trkpt>
      <trkpt lat="41.268756" lon="-8.657750">
        <ele>89.178</ele>
        <time>2015-03-24T10:14:47Z</time>
      </trkpt>
      <trkpt lat="41.268784" lon="-8.657991">
        <ele>88.633</ele>
        <time>2015-03-24T10:14:52Z</time>
      </trkpt>
      <trkpt lat="41.268800" lon="-8.658370">
        <ele>87.126</ele>
        <time>2015-03-24T10:15:00Z</time>
      </trkpt>
      <trkpt lat="41.268744" lon="-8.659202">
        <ele>85.707</ele>
        <time>2015-03-24T10:15:16Z</time>
      </trkpt>
      <trkpt lat="41.268684" lon="-8.659415">
        <ele>85.796</ele>
        <time>2015-03-24T10:15:20Z</time>
      </trkpt>
      <trkpt lat="41.268661" lon="-8.659638">
        <ele>85.239</ele>
        <time>2015-03-24T10:15:24Z</time>
      </trkpt>
      <trkpt lat="41.268508" lon="-8.660286">
        <ele>83.351</ele>
        <time>2015-03-24T10:15:36Z</time>
      </trkpt>
      <trkpt lat="41.268478" lon="-8.661404">
        <ele>82.391</ele>
        <time>2015-03-24T10:15:53Z</time>
      </trkpt>
      <trkpt lat="41.268478" lon="-8.661468">
        <ele>82.389</ele>
        <time>2015-03-24T10:15:54Z</time>
      </trkpt>
      <trkpt lat="41.268478" lon="-8.661893">
        <ele>80.964</ele>
        <time>2015-03-24T10:16:00Z</time>
      </trkpt>
      <trkpt lat="41.268480" lon="-8.662042">
        <ele>79.941</ele>
        <time>2015-03-24T10:16:02Z</time>
      </trkpt>
      <trkpt lat="41.268345" lon="-8.662861">
        <ele>76.616</ele>
        <time>2015-03-24T10:16:13Z</time>
      </trkpt>
      <trkpt lat="41.268306" lon="-8.663163">
        <ele>76.176</ele>
        <time>2015-03-24T10:16:17Z</time>
      </trkpt>
      <trkpt lat="41.268475" lon="-8.663617">
        <ele>75.113</ele>
        <time>2015-03-24T10:16:27Z</time>
      </trkpt>
      <trkpt lat="41.268585" lon="-8.663694">
        <ele>76.607</ele>
        <time>2015-03-24T10:16:31Z</time>
      </trkpt>
      <trkpt lat="41.268963" lon="-8.663917">
        <ele>77.050</ele>
        <time>2015-03-24T10:16:46Z</time>
      </trkpt>
      <trkpt lat="41.269334" lon="-8.664127">
        <ele>77.053</ele>
        <time>2015-03-24T10:17:02Z</time>
      </trkpt>
      <trkpt lat="41.269683" lon="-8.664316">
        <ele>79.555</ele>
        <time>2015-03-24T10:17:13Z</time>
      </trkpt>
      <trkpt lat="41.269759" lon="-8.664357">
        <ele>79.595</ele>
        <time>2015-03-24T10:17:22Z</time>
      </trkpt>
      <trkpt lat="41.269891" lon="-8.664422">
        <ele>79.013</ele>
        <time>2015-03-24T10:30:54Z</time>
      </trkpt>
      <trkpt lat="41.270097" lon="-8.664494">
        <ele>79.978</ele>
        <time>2015-03-24T10:31:16Z</time>
      </trkpt>
      <trkpt lat="41.270529" lon="-8.664619">
        <ele>80.965</ele>
        <time>2015-03-24T10:31:32Z</time>
      </trkpt>
      <trkpt lat="41.271087" lon="-8.664787">
        <ele>81.471</ele>
        <time>2015-03-24T10:31:52Z</time>
      </trkpt>
      <trkpt lat="41.271591" lon="-8.665055">
        <ele>83.341</ele>
        <time>2015-03-24T10:32:11Z</time>
      </trkpt>
      <trkpt lat="41.272069" lon="-8.665599">
        <ele>80.915</ele>
        <time>2015-03-24T10:32:29Z</time>
      </trkpt>
      <trkpt lat="41.272637" lon="-8.666167">
        <ele>78.507</ele>
        <time>2015-03-24T10:32:44Z</time>
      </trkpt>
      <trkpt lat="41.273114" lon="-8.666654">
        <ele>77.586</ele>
        <time>2015-03-24T10:32:58Z</time>
      </trkpt>
      <trkpt lat="41.273667" lon="-8.667242">
        <ele>76.139</ele>
        <time>2015-03-24T10:33:16Z</time>
      </trkpt>
      <trkpt lat="41.274098" lon="-8.668008">
        <ele>73.781</ele>
        <time>2015-03-24T10:33:33Z</time>
      </trkpt>
      <trkpt lat="41.274374" lon="-8.668579">
        <ele>71.351</ele>
        <time>2015-03-24T10:33:43Z</time>
      </trkpt>
      <trkpt lat="41.274531" lon="-8.668743">
        <ele>70.359</ele>
        <time>2015-03-24T10:33:47Z</time>
      </trkpt>
      <trkpt lat="41.275218" lon="-8.669232">
        <ele>67.474</ele>
        <time>2015-03-24T10:34:04Z</time>
      </trkpt>
      <trkpt lat="41.275842" lon="-8.669680">
        <ele>63.611</ele>
        <time>2015-03-24T10:34:18Z</time>
      </trkpt>
      <trkpt lat="41.276372" lon="-8.670120">
        <ele>61.798</ele>
        <time>2015-03-24T10:34:30Z</time>
      </trkpt>
      <trkpt lat="41.276623" lon="-8.670481">
        <ele>57.315</ele>
        <time>2015-03-24T10:34:36Z</time>
      </trkpt>
      <trkpt lat="41.276741" lon="-8.670579">
        <ele>55.926</ele>
        <time>2015-03-24T10:34:38Z</time>
      </trkpt>
      <trkpt lat="41.276945" lon="-8.670715">
        <ele>51.607</ele>
        <time>2015-03-24T10:34:41Z</time>
      </trkpt>
      <trkpt lat="41.277273" lon="-8.670908">
        <ele>48.748</ele>
        <time>2015-03-24T10:34:45Z</time>
      </trkpt>
      <trkpt lat="41.277353" lon="-8.670960">
        <ele>47.271</ele>
        <time>2015-03-24T10:34:46Z</time>
      </trkpt>
      <trkpt lat="41.277622" lon="-8.671055">
        <ele>44.813</ele>
        <time>2015-03-24T10:34:49Z</time>
      </trkpt>
      <trkpt lat="41.277883" lon="-8.671119">
        <ele>42.463</ele>
        <time>2015-03-24T10:34:52Z</time>
      </trkpt>
      <trkpt lat="41.278048" lon="-8.671203">
        <ele>41.551</ele>
        <time>2015-03-24T10:34:54Z</time>
      </trkpt>
      <trkpt lat="41.278407" lon="-8.671454">
        <ele>38.696</ele>
        <time>2015-03-24T10:34:59Z</time>
      </trkpt>
      <trkpt lat="41.278471" lon="-8.671501">
        <ele>38.673</ele>
        <time>2015-03-24T10:35:00Z</time>
      </trkpt>
      <trkpt lat="41.278929" lon="-8.672155">
        <ele>37.644</ele>
        <time>2015-03-24T10:35:11Z</time>
      </trkpt>
      <trkpt lat="41.279376" lon="-8.672423">
        <ele>36.705</ele>
        <time>2015-03-24T10:35:23Z</time>
      </trkpt>
      <trkpt lat="41.279983" lon="-8.672693">
        <ele>36.215</ele>
        <time>2015-03-24T10:35:40Z</time>
      </trkpt>
      <trkpt lat="41.280208" lon="-8.672750">
        <ele>35.707</ele>
        <time>2015-03-24T10:35:51Z</time>
      </trkpt>
      <trkpt lat="41.280303" lon="-8.672720">
        <ele>36.743</ele>
        <time>2015-03-24T10:36:14Z</time>
      </trkpt>
      <trkpt lat="41.280735" lon="-8.672665">
        <ele>37.276</ele>
        <time>2015-03-24T10:36:30Z</time>
      </trkpt>
      <trkpt lat="41.280872" lon="-8.672665">
        <ele>38.628</ele>
        <time>2015-03-24T10:36:36Z</time>
      </trkpt>
      <trkpt lat="41.281262" lon="-8.672546">
        <ele>39.198</ele>
        <time>2015-03-24T10:36:53Z</time>
      </trkpt>
      <trkpt lat="41.281728" lon="-8.672406">
        <ele>39.656</ele>
        <time>2015-03-24T10:37:12Z</time>
      </trkpt>
      <trkpt lat="41.282161" lon="-8.672279">
        <ele>41.051</ele>
        <time>2015-03-24T10:37:30Z</time>
      </trkpt>
      <trkpt lat="41.282558" lon="-8.672232">
        <ele>42.488</ele>
        <time>2015-03-24T10:37:47Z</time>
      </trkpt>
      <trkpt lat="41.283074" lon="-8.672217">
        <ele>43.451</ele>
        <time>2015-03-24T10:38:08Z</time>
      </trkpt>
      <trkpt lat="41.283524" lon="-8.672409">
        <ele>44.801</ele>
        <time>2015-03-24T10:38:28Z</time>
      </trkpt>
      <trkpt lat="41.283904" lon="-8.672613">
        <ele>46.811</ele>
        <time>2015-03-24T10:38:46Z</time>
      </trkpt>
      <trkpt lat="41.284340" lon="-8.672797">
        <ele>48.207</ele>
        <time>2015-03-24T10:39:06Z</time>
      </trkpt>
      <trkpt lat="41.284728" lon="-8.672950">
        <ele>49.294</ele>
        <time>2015-03-24T10:39:23Z</time>
      </trkpt>
      <trkpt lat="41.285154" lon="-8.673148">
        <ele>51.127</ele>
        <time>2015-03-24T10:39:42Z</time>
      </trkpt>
      <trkpt lat="41.285590" lon="-8.673443">
        <ele>51.159</ele>
        <time>2015-03-24T10:40:00Z</time>
      </trkpt>
      <trkpt lat="41.286045" lon="-8.673679">
        <ele>51.199</ele>
        <time>2015-03-24T10:40:17Z</time>
      </trkpt>
      <trkpt lat="41.286483" lon="-8.673856">
        <ele>51.187</ele>
        <time>2015-03-24T10:40:33Z</time>
      </trkpt>
      <trkpt lat="41.286880" lon="-8.673963">
        <ele>51.112</ele>
        <time>2015-03-24T10:40:48Z</time>
      </trkpt>
      <trkpt lat="41.287090" lon="-8.674012">
        <ele>52.539</ele>
        <time>2015-03-24T10:40:56Z</time>
      </trkpt>
      <trkpt lat="41.287385" lon="-8.674080">
        <ele>54.051</ele>
        <time>2015-03-24T10:41:08Z</time>
      </trkpt>
      <trkpt lat="41.287816" lon="-8.674171">
        <ele>54.501</ele>
        <time>2015-03-24T10:41:24Z</time>
      </trkpt>
      <trkpt lat="41.288121" lon="-8.674307">
        <ele>54.511</ele>
        <time>2015-03-24T10:41:38Z</time>
      </trkpt>
      <trkpt lat="41.288468" lon="-8.674448">
        <ele>55.407</ele>
        <time>2015-03-24T10:41:52Z</time>
      </trkpt>
      <trkpt lat="41.288866" lon="-8.674600">
        <ele>55.424</ele>
        <time>2015-03-24T10:42:07Z</time>
      </trkpt>
      <trkpt lat="41.289244" lon="-8.674776">
        <ele>54.087</ele>
        <time>2015-03-24T10:42:21Z</time>
      </trkpt>
      <trkpt lat="41.289722" lon="-8.675033">
        <ele>54.589</ele>
        <time>2015-03-24T10:42:38Z</time>
      </trkpt>
      <trkpt lat="41.290111" lon="-8.675290">
        <ele>54.579</ele>
        <time>2015-03-24T10:42:52Z</time>
      </trkpt>
      <trkpt lat="41.290495" lon="-8.675637">
        <ele>54.517</ele>
        <time>2015-03-24T10:43:07Z</time>
      </trkpt>
      <trkpt lat="41.290922" lon="-8.675950">
        <ele>54.592</ele>
        <time>2015-03-24T10:43:23Z</time>
      </trkpt>
      <trkpt lat="41.291111" lon="-8.676040">
        <ele>57.359</ele>
        <time>2015-03-24T10:43:30Z</time>
      </trkpt>
      <trkpt lat="41.291684" lon="-8.676328">
        <ele>55.972</ele>
        <time>2015-03-24T10:43:49Z</time>
      </trkpt>
      <trkpt lat="41.292155" lon="-8.676792">
        <ele>57.313</ele>
        <time>2015-03-24T10:44:07Z</time>
      </trkpt>
      <trkpt lat="41.292574" lon="-8.677360">
        <ele>57.314</ele>
        <time>2015-03-24T10:44:25Z</time>
      </trkpt>
      <trkpt lat="41.293030" lon="-8.677915">
        <ele>57.307</ele>
        <time>2015-03-24T10:44:43Z</time>
      </trkpt>
      <trkpt lat="41.293455" lon="-8.678557">
        <ele>57.816</ele>
        <time>2015-03-24T10:45:03Z</time>
      </trkpt>
      <trkpt lat="41.293784" lon="-8.679083">
        <ele>58.369</ele>
        <time>2015-03-24T10:45:19Z</time>
      </trkpt>
      <trkpt lat="41.294063" lon="-8.679561">
        <ele>58.341</ele>
        <time>2015-03-24T10:45:32Z</time>
      </trkpt>
      <trkpt lat="41.294448" lon="-8.679912">
        <ele>57.331</ele>
        <time>2015-03-24T10:45:44Z</time>
      </trkpt>
      <trkpt lat="41.295181" lon="-8.680219">
        <ele>55.499</ele>
        <time>2015-03-24T10:46:02Z</time>
      </trkpt>
      <trkpt lat="41.295933" lon="-8.680415">
        <ele>54.544</ele>
        <time>2015-03-24T10:46:18Z</time>
      </trkpt>
      <trkpt lat="41.296573" lon="-8.680404">
        <ele>52.131</ele>
        <time>2015-03-24T10:46:30Z</time>
      </trkpt>
      <trkpt lat="41.296872" lon="-8.680359">
        <ele>49.255</ele>
        <time>2015-03-24T10:46:35Z</time>
      </trkpt>
      <trkpt lat="41.297147" lon="-8.680317">
        <ele>45.807</ele>
        <time>2015-03-24T10:46:39Z</time>
      </trkpt>
      <trkpt lat="41.297230" lon="-8.680304">
        <ele>45.817</ele>
        <time>2015-03-24T10:46:40Z</time>
      </trkpt>
      <trkpt lat="41.297620" lon="-8.680252">
        <ele>42.407</ele>
        <time>2015-03-24T10:46:45Z</time>
      </trkpt>
      <trkpt lat="41.297941" lon="-8.680171">
        <ele>40.594</ele>
        <time>2015-03-24T10:46:49Z</time>
      </trkpt>
      <trkpt lat="41.298714" lon="-8.679865">
        <ele>38.667</ele>
        <time>2015-03-24T10:47:02Z</time>
      </trkpt>
      <trkpt lat="41.299400" lon="-8.679694">
        <ele>37.649</ele>
        <time>2015-03-24T10:47:20Z</time>
      </trkpt>
      <trkpt lat="41.300025" lon="-8.679599">
        <ele>39.169</ele>
        <time>2015-03-24T10:47:37Z</time>
      </trkpt>
      <trkpt lat="41.300228" lon="-8.679571">
        <ele>40.017</ele>
        <time>2015-03-24T10:47:43Z</time>
      </trkpt>
      <trkpt lat="41.300601" lon="-8.679478">
        <ele>41.552</ele>
        <time>2015-03-24T10:47:57Z</time>
      </trkpt>
      <trkpt lat="41.301031" lon="-8.679418">
        <ele>43.499</ele>
        <time>2015-03-24T10:48:14Z</time>
      </trkpt>
      <trkpt lat="41.301478" lon="-8.679316">
        <ele>45.319</ele>
        <time>2015-03-24T10:48:33Z</time>
      </trkpt>
      <trkpt lat="41.301857" lon="-8.679186">
        <ele>48.209</ele>
        <time>2015-03-24T10:48:50Z</time>
      </trkpt>
      <trkpt lat="41.302353" lon="-8.679049">
        <ele>50.619</ele>
        <time>2015-03-24T10:49:11Z</time>
      </trkpt>
      <trkpt lat="41.302682" lon="-8.678988">
        <ele>51.107</ele>
        <time>2015-03-24T10:49:25Z</time>
      </trkpt>
      <trkpt lat="41.303081" lon="-8.678893">
        <ele>52.190</ele>
        <time>2015-03-24T10:49:41Z</time>
      </trkpt>
      <trkpt lat="41.303462" lon="-8.678799">
        <ele>53.043</ele>
        <time>2015-03-24T10:49:56Z</time>
      </trkpt>
      <trkpt lat="41.303933" lon="-8.678707">
        <ele>54.075</ele>
        <time>2015-03-24T10:50:14Z</time>
      </trkpt>
      <trkpt lat="41.304266" lon="-8.678671">
        <ele>54.525</ele>
        <time>2015-03-24T10:50:27Z</time>
      </trkpt>
      <trkpt lat="41.304759" lon="-8.678705">
        <ele>55.933</ele>
        <time>2015-03-24T10:50:46Z</time>
      </trkpt>
      <trkpt lat="41.304968" lon="-8.678703">
        <ele>57.848</ele>
        <time>2015-03-24T10:50:54Z</time>
      </trkpt>
      <trkpt lat="41.305440" lon="-8.678676">
        <ele>56.955</ele>
        <time>2015-03-24T10:51:10Z</time>
      </trkpt>
      <trkpt lat="41.306058" lon="-8.678748">
        <ele>58.845</ele>
        <time>2015-03-24T10:51:30Z</time>
      </trkpt>
      <trkpt lat="41.306599" lon="-8.678854">
        <ele>59.347</ele>
        <time>2015-03-24T10:51:51Z</time>
      </trkpt>
      <trkpt lat="41.307059" lon="-8.678963">
        <ele>61.711</ele>
        <time>2015-03-24T10:52:09Z</time>
      </trkpt>
      <trkpt lat="41.307588" lon="-8.679074">
        <ele>62.607</ele>
        <time>2015-03-24T10:52:30Z</time>
      </trkpt>
      <trkpt lat="41.308080" lon="-8.679093">
        <ele>64.693</ele>
        <time>2015-03-24T10:52:50Z</time>
      </trkpt>
      <trkpt lat="41.308542" lon="-8.679105">
        <ele>65.586</ele>
        <time>2015-03-24T10:53:05Z</time>
      </trkpt>
      <trkpt lat="41.309145" lon="-8.679142">
        <ele>65.538</ele>
        <time>2015-03-24T10:53:22Z</time>
      </trkpt>
      <trkpt lat="41.309957" lon="-8.679165">
        <ele>67.038</ele>
        <time>2015-03-24T10:53:44Z</time>
      </trkpt>
      <trkpt lat="41.310387" lon="-8.679133">
        <ele>68.426</ele>
        <time>2015-03-24T10:53:57Z</time>
      </trkpt>
      <trkpt lat="41.310980" lon="-8.679024">
        <ele>67.471</ele>
        <time>2015-03-24T10:54:13Z</time>
      </trkpt>
      <trkpt lat="41.311074" lon="-8.679019">
        <ele>67.038</ele>
        <time>2015-03-24T10:54:22Z</time>
      </trkpt>
      <trkpt lat="41.311048" lon="-8.678897">
        <ele>67.024</ele>
        <time>2015-03-24T10:55:00Z</time>
      </trkpt>
      <trkpt lat="41.311055" lon="-8.678826">
        <ele>67.904</ele>
        <time>2015-03-24T10:55:32Z</time>
      </trkpt>
      <trkpt lat="41.310996" lon="-8.678435">
        <ele>69.414</ele>
        <time>2015-03-24T10:55:46Z</time>
      </trkpt>
      <trkpt lat="41.310987" lon="-8.677865">
        <ele>70.807</ele>
        <time>2015-03-24T10:56:03Z</time>
      </trkpt>
      <trkpt lat="41.310954" lon="-8.677305">
        <ele>72.751</ele>
        <time>2015-03-24T10:56:20Z</time>
      </trkpt>
      <trkpt lat="41.310800" lon="-8.676661">
        <ele>72.784</ele>
        <time>2015-03-24T10:56:34Z</time>
      </trkpt>
      <trkpt lat="41.310619" lon="-8.675888">
        <ele>70.866</ele>
        <time>2015-03-24T10:56:50Z</time>
      </trkpt>
      <trkpt lat="41.310508" lon="-8.675394">
        <ele>69.466</ele>
        <time>2015-03-24T10:57:01Z</time>
      </trkpt>
      <trkpt lat="41.310616" lon="-8.674711">
        <ele>70.374</ele>
        <time>2015-03-24T10:57:16Z</time>
      </trkpt>
      <trkpt lat="41.310712" lon="-8.673909">
        <ele>70.359</ele>
        <time>2015-03-24T10:57:33Z</time>
      </trkpt>
      <trkpt lat="41.310735" lon="-8.673773">
        <ele>68.946</ele>
        <time>2015-03-24T10:57:36Z</time>
      </trkpt>
      <trkpt lat="41.310959" lon="-8.673249">
        <ele>71.317</ele>
        <time>2015-03-24T10:57:50Z</time>
      </trkpt>
      <trkpt lat="41.311258" lon="-8.673121">
        <ele>72.287</ele>
        <time>2015-03-24T10:58:03Z</time>
      </trkpt>
      <trkpt lat="41.311598" lon="-8.673108">
        <ele>73.215</ele>
        <time>2015-03-24T10:58:17Z</time>
      </trkpt>
      <trkpt lat="41.311908" lon="-8.673236">
        <ele>75.607</ele>
        <time>2015-03-24T10:58:31Z</time>
      </trkpt>
      <trkpt lat="41.312188" lon="-8.673381">
        <ele>76.650</ele>
        <time>2015-03-24T10:58:44Z</time>
      </trkpt>
      <trkpt lat="41.312605" lon="-8.673300">
        <ele>78.533</ele>
        <time>2015-03-24T10:59:01Z</time>
      </trkpt>
      <trkpt lat="41.312969" lon="-8.673209">
        <ele>80.995</ele>
        <time>2015-03-24T10:59:17Z</time>
      </trkpt>
      <trkpt lat="41.313157" lon="-8.672930">
        <ele>81.425</ele>
        <time>2015-03-24T10:59:30Z</time>
      </trkpt>
      <trkpt lat="41.313416" lon="-8.672691">
        <ele>83.333</ele>
        <time>2015-03-24T10:59:44Z</time>
      </trkpt>
      <trkpt lat="41.313798" lon="-8.672800">
        <ele>83.388</ele>
        <time>2015-03-24T11:00:00Z</time>
      </trkpt>
      <trkpt lat="41.314236" lon="-8.672954">
        <ele>84.775</ele>
        <time>2015-03-24T11:00:18Z</time>
      </trkpt>
      <trkpt lat="41.314673" lon="-8.673048">
        <ele>86.237</ele>
        <time>2015-03-24T11:00:36Z</time>
      </trkpt>
      <trkpt lat="41.315023" lon="-8.673033">
        <ele>86.749</ele>
        <time>2015-03-24T11:00:51Z</time>
      </trkpt>
      <trkpt lat="41.315337" lon="-8.673063">
        <ele>87.613</ele>
        <time>2015-03-24T11:01:05Z</time>
      </trkpt>
      <trkpt lat="41.315773" lon="-8.673072">
        <ele>90.007</ele>
        <time>2015-03-24T11:01:24Z</time>
      </trkpt>
      <trkpt lat="41.316153" lon="-8.673126">
        <ele>91.542</ele>
        <time>2015-03-24T11:01:42Z</time>
      </trkpt>
      <trkpt lat="41.316447" lon="-8.673191">
        <ele>93.455</ele>
        <time>2015-03-24T11:01:57Z</time>
      </trkpt>
      <trkpt lat="41.316812" lon="-8.673331">
        <ele>95.887</ele>
        <time>2015-03-24T11:02:15Z</time>
      </trkpt>
      <trkpt lat="41.317025" lon="-8.673615">
        <ele>97.287</ele>
        <time>2015-03-24T11:02:30Z</time>
      </trkpt>
      <trkpt lat="41.317283" lon="-8.673864">
        <ele>98.735</ele>
        <time>2015-03-24T11:02:45Z</time>
      </trkpt>
      <trkpt lat="41.317514" lon="-8.673927">
        <ele>100.130</ele>
        <time>2015-03-24T11:02:58Z</time>
      </trkpt>
      <trkpt lat="41.317899" lon="-8.673942">
        <ele>103.527</ele>
        <time>2015-03-24T11:03:18Z</time>
      </trkpt>
      <trkpt lat="41.318242" lon="-8.673961">
        <ele>105.479</ele>
        <time>2015-03-24T11:03:34Z</time>
      </trkpt>
      <trkpt lat="41.318610" lon="-8.673975">
        <ele>107.305</ele>
        <time>2015-03-24T11:03:51Z</time>
      </trkpt>
      <trkpt lat="41.318982" lon="-8.674084">
        <ele>106.425</ele>
        <time>2015-03-24T11:04:06Z</time>
      </trkpt>
      <trkpt lat="41.319369" lon="-8.674281">
        <ele>106.407</ele>
        <time>2015-03-24T11:04:21Z</time>
      </trkpt>
      <trkpt lat="41.319952" lon="-8.674632">
        <ele>105.946</ele>
        <time>2015-03-24T11:04:39Z</time>
      </trkpt>
      <trkpt lat="41.320426" lon="-8.674795">
        <ele>105.419</ele>
        <time>2015-03-24T11:04:54Z</time>
      </trkpt>
      <trkpt lat="41.320553" lon="-8.674792">
        <ele>106.831</ele>
        <time>2015-03-24T11:04:59Z</time>
      </trkpt>
      <trkpt lat="41.320831" lon="-8.674802">
        <ele>108.871</ele>
        <time>2015-03-24T11:05:12Z</time>
      </trkpt>
      <trkpt lat="41.321239" lon="-8.674796">
        <ele>110.219</ele>
        <time>2015-03-24T11:05:28Z</time>
      </trkpt>
      <trkpt lat="41.321676" lon="-8.674818">
        <ele>110.734</ele>
        <time>2015-03-24T11:05:45Z</time>
      </trkpt>
      <trkpt lat="41.321773" lon="-8.674850">
        <ele>112.651</ele>
        <time>2015-03-24T11:05:49Z</time>
      </trkpt>
      <trkpt lat="41.321846" lon="-8.674883">
        <ele>111.799</ele>
        <time>2015-03-24T11:05:52Z</time>
      </trkpt>
      <trkpt lat="41.322359" lon="-8.675064">
        <ele>114.107</ele>
        <time>2015-03-24T11:06:14Z</time>
      </trkpt>
      <trkpt lat="41.322797" lon="-8.675165">
        <ele>115.027</ele>
        <time>2015-03-24T11:06:32Z</time>
      </trkpt>
      <trkpt lat="41.323198" lon="-8.675271">
        <ele>115.507</ele>
        <time>2015-03-24T11:06:49Z</time>
      </trkpt>
      <trkpt lat="41.323599" lon="-8.675285">
        <ele>116.968</ele>
        <time>2015-03-24T11:07:05Z</time>
      </trkpt>
      <trkpt lat="41.323942" lon="-8.674970">
        <ele>116.531</ele>
        <time>2015-03-24T11:07:19Z</time>
      </trkpt>
      <trkpt lat="41.324400" lon="-8.674558">
        <ele>114.133</ele>
        <time>2015-03-24T11:08:14Z</time>
      </trkpt>
      <trkpt lat="41.324703" lon="-8.674131">
        <ele>112.143</ele>
        <time>2015-03-24T11:08:27Z</time>
      </trkpt>
      <trkpt lat="41.324976" lon="-8.673606">
        <ele>110.751</ele>
        <time>2015-03-24T11:08:40Z</time>
      </trkpt>
      <trkpt lat="41.325051" lon="-8.673516">
        <ele>110.776</ele>
        <time>2015-03-24T11:08:43Z</time>
      </trkpt>
      <trkpt lat="41.325217" lon="-8.673609">
        <ele>109.793</ele>
        <time>2015-03-24T11:08:48Z</time>
      </trkpt>
      <trkpt lat="41.325285" lon="-8.673679">
        <ele>111.723</ele>
        <time>2015-03-24T11:08:50Z</time>
      </trkpt>
      <trkpt lat="41.325477" lon="-8.673876">
        <ele>108.383</ele>
        <time>2015-03-24T11:08:57Z</time>
      </trkpt>
      <trkpt lat="41.325534" lon="-8.673857">
        <ele>107.811</ele>
        <time>2015-03-24T11:09:08Z</time>
      </trkpt>
      <trkpt lat="41.325629" lon="-8.673833">
        <ele>107.807</ele>
        <time>2015-03-24T11:09:14Z</time>
      </trkpt>
      <trkpt lat="41.325765" lon="-8.673747">
        <ele>107.891</ele>
        <time>2015-03-24T11:09:21Z</time>
      </trkpt>
      <trkpt lat="41.325942" lon="-8.673687">
        <ele>109.334</ele>
        <time>2015-03-24T11:09:29Z</time>
      </trkpt>
      <trkpt lat="41.326390" lon="-8.673559">
        <ele>110.236</ele>
        <time>2015-03-24T11:09:46Z</time>
      </trkpt>
      <trkpt lat="41.326446" lon="-8.673535">
        <ele>110.286</ele>
        <time>2015-03-24T11:09:53Z</time>
      </trkpt>
      <trkpt lat="41.326539" lon="-8.673459">
        <ele>111.284</ele>
        <time>2015-03-24T11:11:15Z</time>
      </trkpt>
      <trkpt lat="41.326927" lon="-8.673210">
        <ele>112.199</ele>
        <time>2015-03-24T11:11:31Z</time>
      </trkpt>
      <trkpt lat="41.326984" lon="-8.673184">
        <ele>110.796</ele>
        <time>2015-03-24T11:11:33Z</time>
      </trkpt>
      <trkpt lat="41.327566" lon="-8.672934">
        <ele>110.231</ele>
        <time>2015-03-24T11:11:46Z</time>
      </trkpt>
      <trkpt lat="41.327924" lon="-8.672754">
        <ele>110.261</ele>
        <time>2015-03-24T11:11:58Z</time>
      </trkpt>
      <trkpt lat="41.328106" lon="-8.672588">
        <ele>111.207</ele>
        <time>2015-03-24T11:12:06Z</time>
      </trkpt>
      <trkpt lat="41.328326" lon="-8.672277">
        <ele>114.107</ele>
        <time>2015-03-24T11:12:21Z</time>
      </trkpt>
      <trkpt lat="41.328592" lon="-8.672085">
        <ele>116.022</ele>
        <time>2015-03-24T11:12:35Z</time>
      </trkpt>
      <trkpt lat="41.329041" lon="-8.671973">
        <ele>114.515</ele>
        <time>2015-03-24T11:12:49Z</time>
      </trkpt>
      <trkpt lat="41.329486" lon="-8.671897">
        <ele>111.757</ele>
        <time>2015-03-24T11:13:00Z</time>
      </trkpt>
      <trkpt lat="41.329766" lon="-8.671848">
        <ele>110.237</ele>
        <time>2015-03-24T11:13:07Z</time>
      </trkpt>
      <trkpt lat="41.329847" lon="-8.671826">
        <ele>109.745</ele>
        <time>2015-03-24T11:13:09Z</time>
      </trkpt>
      <trkpt lat="41.330181" lon="-8.671851">
        <ele>106.420</ele>
        <time>2015-03-24T11:13:16Z</time>
      </trkpt>
      <trkpt lat="41.330284" lon="-8.671860">
        <ele>105.947</ele>
        <time>2015-03-24T11:13:18Z</time>
      </trkpt>
      <trkpt lat="41.330388" lon="-8.671859">
        <ele>104.481</ele>
        <time>2015-03-24T11:13:20Z</time>
      </trkpt>
      <trkpt lat="41.330536" lon="-8.671811">
        <ele>102.561</ele>
        <time>2015-03-24T11:13:23Z</time>
      </trkpt>
      <trkpt lat="41.330627" lon="-8.671733">
        <ele>102.017</ele>
        <time>2015-03-24T11:13:25Z</time>
      </trkpt>
      <trkpt lat="41.330795" lon="-8.671513">
        <ele>99.607</ele>
        <time>2015-03-24T11:13:29Z</time>
      </trkpt>
      <trkpt lat="41.330932" lon="-8.671354">
        <ele>96.387</ele>
        <time>2015-03-24T11:13:32Z</time>
      </trkpt>
      <trkpt lat="41.331080" lon="-8.671177">
        <ele>93.990</ele>
        <time>2015-03-24T11:13:35Z</time>
      </trkpt>
      <trkpt lat="41.331275" lon="-8.670947">
        <ele>91.082</ele>
        <time>2015-03-24T11:13:39Z</time>
      </trkpt>
      <trkpt lat="41.331413" lon="-8.670783">
        <ele>88.142</ele>
        <time>2015-03-24T11:13:42Z</time>
      </trkpt>
      <trkpt lat="41.331550" lon="-8.670635">
        <ele>85.720</ele>
        <time>2015-03-24T11:13:45Z</time>
      </trkpt>
      <trkpt lat="41.331717" lon="-8.670439">
        <ele>81.955</ele>
        <time>2015-03-24T11:13:49Z</time>
      </trkpt>
      <trkpt lat="41.331783" lon="-8.670377">
        <ele>81.442</ele>
        <time>2015-03-24T11:13:51Z</time>
      </trkpt>
      <trkpt lat="41.331869" lon="-8.670257">
        <ele>81.418</ele>
        <time>2015-03-24T11:14:53Z</time>
      </trkpt>
      <trkpt lat="41.332049" lon="-8.669981">
        <ele>78.598</ele>
        <time>2015-03-24T11:15:02Z</time>
      </trkpt>
      <trkpt lat="41.332137" lon="-8.669875">
        <ele>78.017</ele>
        <time>2015-03-24T11:15:07Z</time>
      </trkpt>
      <trkpt lat="41.332185" lon="-8.669756">
        <ele>77.007</ele>
        <time>2015-03-24T11:15:11Z</time>
      </trkpt>
      <trkpt lat="41.332322" lon="-8.669498">
        <ele>73.210</ele>
        <time>2015-03-24T11:15:18Z</time>
      </trkpt>
      <trkpt lat="41.332369" lon="-8.669442">
        <ele>72.743</ele>
        <time>2015-03-24T11:15:20Z</time>
      </trkpt>
      <trkpt lat="41.332499" lon="-8.669329">
        <ele>70.815</ele>
        <time>2015-03-24T11:15:31Z</time>
      </trkpt>
      <trkpt lat="41.332601" lon="-8.669218">
        <ele>71.325</ele>
        <time>2015-03-24T11:15:53Z</time>
      </trkpt>
      <trkpt lat="41.332956" lon="-8.668869">
        <ele>69.443</ele>
        <time>2015-03-24T11:16:09Z</time>
      </trkpt>
      <trkpt lat="41.333028" lon="-8.668864">
        <ele>68.988</ele>
        <time>2015-03-24T11:16:12Z</time>
      </trkpt>
      <trkpt lat="41.333260" lon="-8.668670">
        <ele>67.415</ele>
        <time>2015-03-24T11:16:43Z</time>
      </trkpt>
      <trkpt lat="41.333043" lon="-8.668859">
        <ele>68.476</ele>
        <time>2015-03-24T11:18:02Z</time>
      </trkpt>
      <trkpt lat="41.332945" lon="-8.668924">
        <ele>68.490</ele>
        <time>2015-03-24T11:18:30Z</time>
      </trkpt>
      <trkpt lat="41.332767" lon="-8.669061">
        <ele>70.319</ele>
        <time>2015-03-24T11:18:43Z</time>
      </trkpt>
      <trkpt lat="41.332553" lon="-8.669366">
        <ele>70.807</ele>
        <time>2015-03-24T11:19:01Z</time>
      </trkpt>
      <trkpt lat="41.332378" lon="-8.669493">
        <ele>71.866</ele>
        <time>2015-03-24T11:19:14Z</time>
      </trkpt>
      <trkpt lat="41.332278" lon="-8.669630">
        <ele>75.159</ele>
        <time>2015-03-24T11:19:23Z</time>
      </trkpt>
      <trkpt lat="41.332142" lon="-8.669851">
        <ele>77.541</ele>
        <time>2015-03-24T11:19:38Z</time>
      </trkpt>
      <trkpt lat="41.332062" lon="-8.669971">
        <ele>79.031</ele>
        <time>2015-03-24T11:19:46Z</time>
      </trkpt>
      <trkpt lat="41.331894" lon="-8.670294">
        <ele>80.419</ele>
        <time>2015-03-24T11:20:03Z</time>
      </trkpt>
      <trkpt lat="41.331743" lon="-8.670629">
        <ele>81.984</ele>
        <time>2015-03-24T11:20:19Z</time>
      </trkpt>
      <trkpt lat="41.331600" lon="-8.671005">
        <ele>83.871</ele>
        <time>2015-03-24T11:20:36Z</time>
      </trkpt>
      <trkpt lat="41.331552" lon="-8.671161">
        <ele>85.728</ele>
        <time>2015-03-24T11:20:43Z</time>
      </trkpt>
      <trkpt lat="41.331455" lon="-8.671498">
        <ele>86.289</ele>
        <time>2015-03-24T11:20:58Z</time>
      </trkpt>
      <trkpt lat="41.331315" lon="-8.671929">
        <ele>87.117</ele>
        <time>2015-03-24T11:21:14Z</time>
      </trkpt>
      <trkpt lat="41.331246" lon="-8.672142">
        <ele>86.207</ele>
        <time>2015-03-24T11:21:18Z</time>
      </trkpt>
      <trkpt lat="41.331053" lon="-8.672739">
        <ele>84.361</ele>
        <time>2015-03-24T11:21:26Z</time>
      </trkpt>
      <trkpt lat="41.331105" lon="-8.673238">
        <ele>83.364</ele>
        <time>2015-03-24T11:21:32Z</time>
      </trkpt>
      <trkpt lat="41.331171" lon="-8.673466">
        <ele>82.896</ele>
        <time>2015-03-24T11:21:35Z</time>
      </trkpt>
      <trkpt lat="41.331547" lon="-8.674063">
        <ele>79.566</ele>
        <time>2015-03-24T11:21:44Z</time>
      </trkpt>
      <trkpt lat="41.331606" lon="-8.674130">
        <ele>78.584</ele>
        <time>2015-03-24T11:21:45Z</time>
      </trkpt>
      <trkpt lat="41.332319" lon="-8.674615">
        <ele>75.649</ele>
        <time>2015-03-24T11:21:56Z</time>
      </trkpt>
      <trkpt lat="41.332444" lon="-8.674737">
        <ele>74.646</ele>
        <time>2015-03-24T11:21:58Z</time>
      </trkpt>
      <trkpt lat="41.332684" lon="-8.675080">
        <ele>73.725</ele>
        <time>2015-03-24T11:22:03Z</time>
      </trkpt>
      <trkpt lat="41.332830" lon="-8.675221">
        <ele>73.226</ele>
        <time>2015-03-24T11:22:06Z</time>
      </trkpt>
      <trkpt lat="41.333072" lon="-8.675637">
        <ele>71.308</ele>
        <time>2015-03-24T11:22:13Z</time>
      </trkpt>
      <trkpt lat="41.333198" lon="-8.676058">
        <ele>71.307</ele>
        <time>2015-03-24T11:22:20Z</time>
      </trkpt>
      <trkpt lat="41.333417" lon="-8.676556">
        <ele>71.381</ele>
        <time>2015-03-24T11:22:30Z</time>
      </trkpt>
      <trkpt lat="41.333709" lon="-8.676946">
        <ele>70.354</ele>
        <time>2015-03-24T11:22:39Z</time>
      </trkpt>
      <trkpt lat="41.333808" lon="-8.677072">
        <ele>70.356</ele>
        <time>2015-03-24T11:22:42Z</time>
      </trkpt>
      <trkpt lat="41.334107" lon="-8.677599">
        <ele>68.936</ele>
        <time>2015-03-24T11:22:53Z</time>
      </trkpt>
      <trkpt lat="41.334230" lon="-8.678000">
        <ele>67.934</ele>
        <time>2015-03-24T11:23:00Z</time>
      </trkpt>
      <trkpt lat="41.334260" lon="-8.678911">
        <ele>67.029</ele>
        <time>2015-03-24T11:23:15Z</time>
      </trkpt>
      <trkpt lat="41.334213" lon="-8.679381">
        <ele>66.526</ele>
        <time>2015-03-24T11:23:23Z</time>
      </trkpt>
      <trkpt lat="41.334216" lon="-8.679467">
        <ele>66.592</ele>
        <time>2015-03-24T11:23:24Z</time>
      </trkpt>
      <trkpt lat="41.334269" lon="-8.679600">
        <ele>66.573</ele>
        <time>2015-03-24T11:23:27Z</time>
      </trkpt>
      <trkpt lat="41.334475" lon="-8.679919">
        <ele>65.520</ele>
        <time>2015-03-24T11:23:35Z</time>
      </trkpt>
      <trkpt lat="41.334777" lon="-8.680311">
        <ele>65.507</ele>
        <time>2015-03-24T11:23:45Z</time>
      </trkpt>
      <trkpt lat="41.335048" lon="-8.680128">
        <ele>64.118</ele>
        <time>2015-03-24T11:23:53Z</time>
      </trkpt>
      <trkpt lat="41.335560" lon="-8.679857">
        <ele>62.681</ele>
        <time>2015-03-24T11:24:08Z</time>
      </trkpt>
      <trkpt lat="41.336067" lon="-8.679817">
        <ele>62.193</ele>
        <time>2015-03-24T11:24:22Z</time>
      </trkpt>
      <trkpt lat="41.336630" lon="-8.679866">
        <ele>62.193</ele>
        <time>2015-03-24T11:24:38Z</time>
      </trkpt>
      <trkpt lat="41.336819" lon="-8.679978">
        <ele>63.121</ele>
        <time>2015-03-24T11:24:44Z</time>
      </trkpt>
      <trkpt lat="41.337202" lon="-8.680204">
        <ele>64.156</ele>
        <time>2015-03-24T11:25:00Z</time>
      </trkpt>
      <trkpt lat="41.337441" lon="-8.680184">
        <ele>65.593</ele>
        <time>2015-03-24T11:25:16Z</time>
      </trkpt>
      <trkpt lat="41.337585" lon="-8.680305">
        <ele>65.538</ele>
        <time>2015-03-24T11:25:26Z</time>
      </trkpt>
      <trkpt lat="41.337828" lon="-8.680653">
        <ele>68.970</ele>
        <time>2015-03-24T11:25:40Z</time>
      </trkpt>
      <trkpt lat="41.338135" lon="-8.681104">
        <ele>70.317</ele>
        <time>2015-03-24T11:25:58Z</time>
      </trkpt>
      <trkpt lat="41.338201" lon="-8.681180">
        <ele>71.307</ele>
        <time>2015-03-24T11:26:09Z</time>
      </trkpt>
      <trkpt lat="41.338244" lon="-8.681279">
        <ele>69.842</ele>
        <time>2015-03-24T11:26:55Z</time>
      </trkpt>
      <trkpt lat="41.338275" lon="-8.681726">
        <ele>69.865</ele>
        <time>2015-03-24T11:27:07Z</time>
      </trkpt>
      <trkpt lat="41.338244" lon="-8.682154">
        <ele>69.447</ele>
        <time>2015-03-24T11:27:19Z</time>
      </trkpt>
      <trkpt lat="41.338336" lon="-8.682162">
        <ele>69.447</ele>
        <time>2015-03-24T11:27:24Z</time>
      </trkpt>
      <trkpt lat="41.338584" lon="-8.682068">
        <ele>67.475</ele>
        <time>2015-03-24T11:54:36Z</time>
      </trkpt>
      <trkpt lat="41.339109" lon="-8.681874">
        <ele>66.560</ele>
        <time>2015-03-24T11:54:52Z</time>
      </trkpt>
      <trkpt lat="41.339720" lon="-8.681662">
        <ele>65.597</ele>
        <time>2015-03-24T11:55:09Z</time>
      </trkpt>
      <trkpt lat="41.340365" lon="-8.681422">
        <ele>64.636</ele>
        <time>2015-03-24T11:55:26Z</time>
      </trkpt>
      <trkpt lat="41.340734" lon="-8.681276">
        <ele>64.117</ele>
        <time>2015-03-24T11:55:36Z</time>
      </trkpt>
      <trkpt lat="41.341573" lon="-8.680965">
        <ele>62.118</ele>
        <time>2015-03-24T11:55:55Z</time>
      </trkpt>
      <trkpt lat="41.342284" lon="-8.680717">
        <ele>58.807</ele>
        <time>2015-03-24T11:56:07Z</time>
      </trkpt>
      <trkpt lat="41.343066" lon="-8.680400">
        <ele>55.452</ele>
        <time>2015-03-24T11:56:19Z</time>
      </trkpt>
      <trkpt lat="41.343829" lon="-8.680105">
        <ele>54.515</ele>
        <time>2015-03-24T11:56:33Z</time>
      </trkpt>
      <trkpt lat="41.344718" lon="-8.679771">
        <ele>54.517</ele>
        <time>2015-03-24T11:56:54Z</time>
      </trkpt>
      <trkpt lat="41.345572" lon="-8.679448">
        <ele>54.527</ele>
        <time>2015-03-24T11:57:15Z</time>
      </trkpt>
      <trkpt lat="41.345884" lon="-8.679344">
        <ele>54.085</ele>
        <time>2015-03-24T11:58:14Z</time>
      </trkpt>
      <trkpt lat="41.345903" lon="-8.679420">
        <ele>54.060</ele>
        <time>2015-03-24T11:58:23Z</time>
      </trkpt>
      <trkpt lat="41.345982" lon="-8.679523">
        <ele>54.087</ele>
        <time>2015-03-24T11:58:46Z</time>
      </trkpt>
      <trkpt lat="41.346423" lon="-8.679647">
        <ele>53.026</ele>
        <time>2015-03-24T11:59:01Z</time>
      </trkpt>
      <trkpt lat="41.346835" lon="-8.679933">
        <ele>53.047</ele>
        <time>2015-03-24T11:59:15Z</time>
      </trkpt>
      <trkpt lat="41.347334" lon="-8.680178">
        <ele>52.511</ele>
        <time>2015-03-24T11:59:30Z</time>
      </trkpt>
      <trkpt lat="41.347940" lon="-8.680217">
        <ele>51.607</ele>
        <time>2015-03-24T11:59:45Z</time>
      </trkpt>
      <trkpt lat="41.348167" lon="-8.680221">
        <ele>51.621</ele>
        <time>2015-03-24T11:59:51Z</time>
      </trkpt>
      <trkpt lat="41.348534" lon="-8.680164">
        <ele>50.634</ele>
        <time>2015-03-24T12:00:00Z</time>
      </trkpt>
      <trkpt lat="41.348820" lon="-8.680188">
        <ele>46.816</ele>
        <time>2015-03-24T12:00:06Z</time>
      </trkpt>
      <trkpt lat="41.348924" lon="-8.680217">
        <ele>45.396</ele>
        <time>2015-03-24T12:00:08Z</time>
      </trkpt>
      <trkpt lat="41.349103" lon="-8.680370">
        <ele>42.494</ele>
        <time>2015-03-24T12:00:12Z</time>
      </trkpt>
      <trkpt lat="41.349362" lon="-8.680599">
        <ele>40.569</ele>
        <time>2015-03-24T12:00:23Z</time>
      </trkpt>
      <trkpt lat="41.349412" lon="-8.680605">
        <ele>39.196</ele>
        <time>2015-03-24T12:00:36Z</time>
      </trkpt>
      <trkpt lat="41.349453" lon="-8.680527">
        <ele>35.761</ele>
        <time>2015-03-24T12:00:50Z</time>
      </trkpt>
      <trkpt lat="41.349500" lon="-8.680508">
        <ele>32.321</ele>
        <time>2015-03-24T12:01:01Z</time>
      </trkpt>
      <trkpt lat="41.349647" lon="-8.680450">
        <ele>29.913</ele>
        <time>2015-03-24T12:01:40Z</time>
      </trkpt>
      <trkpt lat="41.349692" lon="-8.680448">
        <ele>29.007</ele>
        <time>2015-03-24T12:01:42Z</time>
      </trkpt>
      <trkpt lat="41.349804" lon="-8.680591">
        <ele>28.085</ele>
        <time>2015-03-24T12:01:48Z</time>
      </trkpt>
      <trkpt lat="41.350208" lon="-8.681040">
        <ele>24.718</ele>
        <time>2015-03-24T12:02:02Z</time>
      </trkpt>
      <trkpt lat="41.350363" lon="-8.681204">
        <ele>23.240</ele>
        <time>2015-03-24T12:02:14Z</time>
      </trkpt>
      <trkpt lat="41.350596" lon="-8.681529">
        <ele>21.880</ele>
        <time>2015-03-24T12:02:52Z</time>
      </trkpt>
      <trkpt lat="41.350628" lon="-8.681576">
        <ele>20.838</ele>
        <time>2015-03-24T12:03:03Z</time>
      </trkpt>
      <trkpt lat="41.350727" lon="-8.681650">
        <ele>20.843</ele>
        <time>2015-03-24T12:03:29Z</time>
      </trkpt>
      <trkpt lat="41.351032" lon="-8.681609">
        <ele>19.450</ele>
        <time>2015-03-24T12:03:40Z</time>
      </trkpt>
      <trkpt lat="41.351120" lon="-8.681502">
        <ele>20.844</ele>
        <time>2015-03-24T12:03:45Z</time>
      </trkpt>
      <trkpt lat="41.351444" lon="-8.681008">
        <ele>20.305</ele>
        <time>2015-03-24T12:03:59Z</time>
      </trkpt>
      <trkpt lat="41.351736" lon="-8.680539">
        <ele>17.415</ele>
        <time>2015-03-24T12:04:10Z</time>
      </trkpt>
      <trkpt lat="41.351797" lon="-8.680466">
        <ele>16.507</ele>
        <time>2015-03-24T12:04:12Z</time>
      </trkpt>
      <trkpt lat="41.352102" lon="-8.680244">
        <ele>16.593</ele>
        <time>2015-03-24T12:04:25Z</time>
      </trkpt>
      <trkpt lat="41.352298" lon="-8.680170">
        <ele>20.356</ele>
        <time>2015-03-24T12:04:34Z</time>
      </trkpt>
      <trkpt lat="41.352553" lon="-8.680081">
        <ele>20.878</ele>
        <time>2015-03-24T12:04:50Z</time>
      </trkpt>
      <trkpt lat="41.352607" lon="-8.680061">
        <ele>21.848</ele>
        <time>2015-03-24T12:04:54Z</time>
      </trkpt>
      <trkpt lat="41.352810" lon="-8.680013">
        <ele>24.286</ele>
        <time>2015-03-24T12:05:10Z</time>
      </trkpt>
      <trkpt lat="41.353023" lon="-8.679973">
        <ele>27.151</ele>
        <time>2015-03-24T12:05:25Z</time>
      </trkpt>
      <trkpt lat="41.353197" lon="-8.679960">
        <ele>29.568</ele>
        <time>2015-03-24T12:05:39Z</time>
      </trkpt>
      <trkpt lat="41.353374" lon="-8.679886">
        <ele>33.389</ele>
        <time>2015-03-24T12:05:55Z</time>
      </trkpt>
      <trkpt lat="41.353476" lon="-8.679895">
        <ele>34.706</ele>
        <time>2015-03-24T12:06:04Z</time>
      </trkpt>
      <trkpt lat="41.353705" lon="-8.679718">
        <ele>38.126</ele>
        <time>2015-03-24T12:06:26Z</time>
      </trkpt>
      <trkpt lat="41.353903" lon="-8.679673">
        <ele>39.107</ele>
        <time>2015-03-24T12:06:40Z</time>
      </trkpt>
      <trkpt lat="41.354029" lon="-8.679595">
        <ele>42.927</ele>
        <time>2015-03-24T12:06:54Z</time>
      </trkpt>
      <trkpt lat="41.354226" lon="-8.679493">
        <ele>46.310</ele>
        <time>2015-03-24T12:07:13Z</time>
      </trkpt>
      <trkpt lat="41.354395" lon="-8.679418">
        <ele>49.242</ele>
        <time>2015-03-24T12:07:29Z</time>
      </trkpt>
      <trkpt lat="41.354604" lon="-8.679339">
        <ele>52.152</ele>
        <time>2015-03-24T12:07:47Z</time>
      </trkpt>
      <trkpt lat="41.354778" lon="-8.679257">
        <ele>54.080</ele>
        <time>2015-03-24T12:08:02Z</time>
      </trkpt>
      <trkpt lat="41.354995" lon="-8.679196">
        <ele>56.455</ele>
        <time>2015-03-24T12:08:19Z</time>
      </trkpt>
      <trkpt lat="41.355283" lon="-8.679153">
        <ele>58.892</ele>
        <time>2015-03-24T12:08:39Z</time>
      </trkpt>
      <trkpt lat="41.355561" lon="-8.679069">
        <ele>59.338</ele>
        <time>2015-03-24T12:08:57Z</time>
      </trkpt>
      <trkpt lat="41.355860" lon="-8.678967">
        <ele>61.270</ele>
        <time>2015-03-24T12:09:13Z</time>
      </trkpt>
      <trkpt lat="41.356318" lon="-8.678821">
        <ele>61.217</ele>
        <time>2015-03-24T12:09:36Z</time>
      </trkpt>
      <trkpt lat="41.356668" lon="-8.678731">
        <ele>62.107</ele>
        <time>2015-03-24T12:09:52Z</time>
      </trkpt>
      <trkpt lat="41.357050" lon="-8.678617">
        <ele>63.692</ele>
        <time>2015-03-24T12:10:09Z</time>
      </trkpt>
      <trkpt lat="41.357419" lon="-8.678424">
        <ele>65.035</ele>
        <time>2015-03-24T12:10:26Z</time>
      </trkpt>
      <trkpt lat="41.357782" lon="-8.678311">
        <ele>66.077</ele>
        <time>2015-03-24T12:10:43Z</time>
      </trkpt>
      <trkpt lat="41.358086" lon="-8.678361">
        <ele>67.097</ele>
        <time>2015-03-24T12:10:58Z</time>
      </trkpt>
      <trkpt lat="41.358403" lon="-8.678492">
        <ele>67.925</ele>
        <time>2015-03-24T12:11:13Z</time>
      </trkpt>
      <trkpt lat="41.358706" lon="-8.678582">
        <ele>68.990</ele>
        <time>2015-03-24T12:11:26Z</time>
      </trkpt>
      <trkpt lat="41.358774" lon="-8.678520">
        <ele>68.957</ele>
        <time>2015-03-24T12:11:30Z</time>
      </trkpt>
      <trkpt lat="41.359043" lon="-8.678138">
        <ele>71.848</ele>
        <time>2015-03-24T12:11:46Z</time>
      </trkpt>
      <trkpt lat="41.359264" lon="-8.677837">
        <ele>72.761</ele>
        <time>2015-03-24T12:11:59Z</time>
      </trkpt>
      <trkpt lat="41.359365" lon="-8.677833">
        <ele>73.717</ele>
        <time>2015-03-24T12:12:11Z</time>
      </trkpt>
      <trkpt lat="41.359438" lon="-8.677925">
        <ele>72.707</ele>
        <time>2015-03-24T12:12:44Z</time>
      </trkpt>
      <trkpt lat="41.359899" lon="-8.678331">
        <ele>72.233</ele>
        <time>2015-03-24T12:13:00Z</time>
      </trkpt>
      <trkpt lat="41.360279" lon="-8.678799">
        <ele>72.246</ele>
        <time>2015-03-24T12:13:14Z</time>
      </trkpt>
      <trkpt lat="41.360605" lon="-8.679052">
        <ele>71.898</ele>
        <time>2015-03-24T12:13:25Z</time>
      </trkpt>
      <trkpt lat="41.361163" lon="-8.679160">
        <ele>72.738</ele>
        <time>2015-03-24T12:13:41Z</time>
      </trkpt>
      <trkpt lat="41.361828" lon="-8.679245">
        <ele>72.236</ele>
        <time>2015-03-24T12:14:00Z</time>
      </trkpt>
      <trkpt lat="41.362453" lon="-8.679266">
        <ele>72.271</ele>
        <time>2015-03-24T12:14:17Z</time>
      </trkpt>
      <trkpt lat="41.363164" lon="-8.679432">
        <ele>71.338</ele>
        <time>2015-03-24T12:14:35Z</time>
      </trkpt>
      <trkpt lat="41.363515" lon="-8.679635">
        <ele>70.385</ele>
        <time>2015-03-24T12:14:44Z</time>
      </trkpt>
      <trkpt lat="41.363576" lon="-8.679559">
        <ele>70.389</ele>
        <time>2015-03-24T12:14:48Z</time>
      </trkpt>
      <trkpt lat="41.363505" lon="-8.679172">
        <ele>73.217</ele>
        <time>2015-03-24T12:14:59Z</time>
      </trkpt>
      <trkpt lat="41.363379" lon="-8.678527">
        <ele>73.207</ele>
        <time>2015-03-24T12:15:17Z</time>
      </trkpt>
      <trkpt lat="41.363516" lon="-8.677838">
        <ele>74.677</ele>
        <time>2015-03-24T12:15:36Z</time>
      </trkpt>
      <trkpt lat="41.363779" lon="-8.677350">
        <ele>74.280</ele>
        <time>2015-03-24T12:15:53Z</time>
      </trkpt>
      <trkpt lat="41.363900" lon="-8.677283">
        <ele>77.062</ele>
        <time>2015-03-24T12:15:58Z</time>
      </trkpt>
      <trkpt lat="41.364304" lon="-8.677251">
        <ele>77.582</ele>
        <time>2015-03-24T12:16:12Z</time>
      </trkpt>
      <trkpt lat="41.364526" lon="-8.677311">
        <ele>77.560</ele>
        <time>2015-03-24T12:16:19Z</time>
      </trkpt>
      <trkpt lat="41.364626" lon="-8.677440">
        <ele>75.615</ele>
        <time>2015-03-24T12:16:22Z</time>
      </trkpt>
      <trkpt lat="41.364807" lon="-8.677731">
        <ele>73.262</ele>
        <time>2015-03-24T12:16:27Z</time>
      </trkpt>
      <trkpt lat="41.365263" lon="-8.677917">
        <ele>68.928</ele>
        <time>2015-03-24T12:16:34Z</time>
      </trkpt>
      <trkpt lat="41.365433" lon="-8.677955">
        <ele>66.589</ele>
        <time>2015-03-24T12:16:36Z</time>
      </trkpt>
      <trkpt lat="41.365984" lon="-8.678196">
        <ele>63.117</ele>
        <time>2015-03-24T12:16:43Z</time>
      </trkpt>
      <trkpt lat="41.366315" lon="-8.678406">
        <ele>59.707</ele>
        <time>2015-03-24T12:16:47Z</time>
      </trkpt>
      <trkpt lat="41.366567" lon="-8.678503">
        <ele>57.851</ele>
        <time>2015-03-24T12:16:50Z</time>
      </trkpt>
      <trkpt lat="41.367238" lon="-8.678547">
        <ele>57.314</ele>
        <time>2015-03-24T12:17:01Z</time>
      </trkpt>
      <trkpt lat="41.367580" lon="-8.678441">
        <ele>58.816</ele>
        <time>2015-03-24T12:17:13Z</time>
      </trkpt>
      <trkpt lat="41.367973" lon="-8.678518">
        <ele>60.776</ele>
        <time>2015-03-24T12:17:28Z</time>
      </trkpt>
      <trkpt lat="41.368277" lon="-8.678888">
        <ele>61.284</ele>
        <time>2015-03-24T12:17:42Z</time>
      </trkpt>
      <trkpt lat="41.368500" lon="-8.678891">
        <ele>62.669</ele>
        <time>2015-03-24T12:17:53Z</time>
      </trkpt>
      <trkpt lat="41.368744" lon="-8.678657">
        <ele>66.016</ele>
        <time>2015-03-24T12:18:09Z</time>
      </trkpt>
      <trkpt lat="41.369008" lon="-8.678398">
        <ele>67.972</ele>
        <time>2015-03-24T12:18:26Z</time>
      </trkpt>
      <trkpt lat="41.369259" lon="-8.678569">
        <ele>68.413</ele>
        <time>2015-03-24T12:18:38Z</time>
      </trkpt>
      <trkpt lat="41.369343" lon="-8.678529">
        <ele>68.414</ele>
        <time>2015-03-24T12:18:42Z</time>
      </trkpt>
      <trkpt lat="41.369553" lon="-8.678229">
        <ele>69.807</ele>
        <time>2015-03-24T12:18:56Z</time>
      </trkpt>
      <trkpt lat="41.369704" lon="-8.677853">
        <ele>73.226</ele>
        <time>2015-03-24T12:19:12Z</time>
      </trkpt>
      <trkpt lat="41.369580" lon="-8.677475">
        <ele>74.269</ele>
        <time>2015-03-24T12:19:25Z</time>
      </trkpt>
      <trkpt lat="41.369407" lon="-8.676981">
        <ele>74.691</ele>
        <time>2015-03-24T12:19:41Z</time>
      </trkpt>
      <trkpt lat="41.369233" lon="-8.676402">
        <ele>75.141</ele>
        <time>2015-03-24T12:19:59Z</time>
      </trkpt>
      <trkpt lat="41.369008" lon="-8.675798">
        <ele>77.079</ele>
        <time>2015-03-24T12:20:19Z</time>
      </trkpt>
      <trkpt lat="41.368962" lon="-8.675319">
        <ele>77.074</ele>
        <time>2015-03-24T12:20:34Z</time>
      </trkpt>
      <trkpt lat="41.369021" lon="-8.674773">
        <ele>77.571</ele>
        <time>2015-03-24T12:20:50Z</time>
      </trkpt>
      <trkpt lat="41.369055" lon="-8.674248">
        <ele>78.067</ele>
        <time>2015-03-24T12:21:06Z</time>
      </trkpt>
      <trkpt lat="41.369111" lon="-8.673702">
        <ele>80.481</ele>
        <time>2015-03-24T12:21:22Z</time>
      </trkpt>
      <trkpt lat="41.369132" lon="-8.673444">
        <ele>80.919</ele>
        <time>2015-03-24T12:21:30Z</time>
      </trkpt>
      <trkpt lat="41.369245" lon="-8.673419">
        <ele>81.907</ele>
        <time>2015-03-24T12:21:36Z</time>
      </trkpt>
      <trkpt lat="41.369599" lon="-8.673599">
        <ele>80.995</ele>
        <time>2015-03-24T12:21:50Z</time>
      </trkpt>
      <trkpt lat="41.370143" lon="-8.673767">
        <ele>82.888</ele>
        <time>2015-03-24T12:22:07Z</time>
      </trkpt>
      <trkpt lat="41.370577" lon="-8.673878">
        <ele>81.980</ele>
        <time>2015-03-24T12:22:21Z</time>
      </trkpt>
      <trkpt lat="41.370674" lon="-8.673766">
        <ele>81.980</ele>
        <time>2015-03-24T12:22:26Z</time>
      </trkpt>
      <trkpt lat="41.370693" lon="-8.673584">
        <ele>83.328</ele>
        <time>2015-03-24T12:22:30Z</time>
      </trkpt>
      <trkpt lat="41.370799" lon="-8.672997">
        <ele>83.873</ele>
        <time>2015-03-24T12:22:46Z</time>
      </trkpt>
      <trkpt lat="41.370833" lon="-8.672700">
        <ele>83.880</ele>
        <time>2015-03-24T12:22:58Z</time>
      </trkpt>
      <trkpt lat="41.370845" lon="-8.672445">
        <ele>85.782</ele>
        <time>2015-03-24T12:23:09Z</time>
      </trkpt>
      <trkpt lat="41.370835" lon="-8.672050">
        <ele>87.643</ele>
        <time>2015-03-24T12:23:24Z</time>
      </trkpt>
      <trkpt lat="41.370776" lon="-8.671754">
        <ele>91.017</ele>
        <time>2015-03-24T12:23:40Z</time>
      </trkpt>
      <trkpt lat="41.370719" lon="-8.671640">
        <ele>92.407</ele>
        <time>2015-03-24T12:23:49Z</time>
      </trkpt>
      <trkpt lat="41.370683" lon="-8.671585">
        <ele>93.487</ele>
        <time>2015-03-24T12:23:53Z</time>
      </trkpt>
      <trkpt lat="41.370481" lon="-8.671252">
        <ele>96.370</ele>
        <time>2015-03-24T12:24:12Z</time>
      </trkpt>
      <trkpt lat="41.370426" lon="-8.670973">
        <ele>98.222</ele>
        <time>2015-03-24T12:24:26Z</time>
      </trkpt>
      <trkpt lat="41.370494" lon="-8.670664">
        <ele>101.122</ele>
        <time>2015-03-24T12:24:42Z</time>
      </trkpt>
      <trkpt lat="41.370577" lon="-8.670335">
        <ele>103.520</ele>
        <time>2015-03-24T12:24:59Z</time>
      </trkpt>
      <trkpt lat="41.370773" lon="-8.670063">
        <ele>105.445</ele>
        <time>2015-03-24T12:25:17Z</time>
      </trkpt>
      <trkpt lat="41.370812" lon="-8.670011">
        <ele>105.422</ele>
        <time>2015-03-24T12:25:20Z</time>
      </trkpt>
      <trkpt lat="41.371050" lon="-8.669703">
        <ele>106.478</ele>
        <time>2015-03-24T12:25:37Z</time>
      </trkpt>
      <trkpt lat="41.371204" lon="-8.669354">
        <ele>107.333</ele>
        <time>2015-03-24T12:25:54Z</time>
      </trkpt>
      <trkpt lat="41.371329" lon="-8.668950">
        <ele>108.826</ele>
        <time>2015-03-24T12:26:11Z</time>
      </trkpt>
      <trkpt lat="41.371388" lon="-8.668758">
        <ele>109.307</ele>
        <time>2015-03-24T12:26:23Z</time>
      </trkpt>
      <trkpt lat="41.371510" lon="-8.668764">
        <ele>109.336</ele>
        <time>2015-03-24T12:26:39Z</time>
      </trkpt>
      <trkpt lat="41.371770" lon="-8.668842">
        <ele>109.399</ele>
        <time>2015-03-24T12:26:53Z</time>
      </trkpt>
      <trkpt lat="41.372127" lon="-8.668889">
        <ele>110.781</ele>
        <time>2015-03-24T12:27:10Z</time>
      </trkpt>
      <trkpt lat="41.372378" lon="-8.668927">
        <ele>110.281</ele>
        <time>2015-03-24T12:27:21Z</time>
      </trkpt>
      <trkpt lat="41.372445" lon="-8.668944">
        <ele>108.899</ele>
        <time>2015-03-24T12:27:24Z</time>
      </trkpt>
      <trkpt lat="41.372617" lon="-8.668997">
        <ele>109.384</ele>
        <time>2015-03-24T12:27:31Z</time>
      </trkpt>
      <trkpt lat="41.372934" lon="-8.669122">
        <ele>110.731</ele>
        <time>2015-03-24T12:27:46Z</time>
      </trkpt>
      <trkpt lat="41.373310" lon="-8.669315">
        <ele>111.267</ele>
        <time>2015-03-24T12:28:02Z</time>
      </trkpt>
      <trkpt lat="41.373598" lon="-8.669390">
        <ele>110.281</ele>
        <time>2015-03-24T12:28:12Z</time>
      </trkpt>
      <trkpt lat="41.374092" lon="-8.669587">
        <ele>107.819</ele>
        <time>2015-03-24T12:28:27Z</time>
      </trkpt>
      <trkpt lat="41.374329" lon="-8.669706">
        <ele>106.407</ele>
        <time>2015-03-24T12:28:35Z</time>
      </trkpt>
      <trkpt lat="41.374449" lon="-8.669769">
        <ele>104.465</ele>
        <time>2015-03-24T12:28:38Z</time>
      </trkpt>
      <trkpt lat="41.374647" lon="-8.669849">
        <ele>101.148</ele>
        <time>2015-03-24T12:28:42Z</time>
      </trkpt>
      <trkpt lat="41.374759" lon="-8.669872">
        <ele>100.180</ele>
        <time>2015-03-24T12:28:44Z</time>
      </trkpt>
      <trkpt lat="41.374939" lon="-8.669888">
        <ele>97.740</ele>
        <time>2015-03-24T12:28:47Z</time>
      </trkpt>
      <trkpt lat="41.375127" lon="-8.669958">
        <ele>95.848</ele>
        <time>2015-03-24T12:28:51Z</time>
      </trkpt>
      <trkpt lat="41.375158" lon="-8.670068">
        <ele>95.893</ele>
        <time>2015-03-24T12:28:54Z</time>
      </trkpt>
      <trkpt lat="41.375271" lon="-8.670090">
        <ele>94.820</ele>
        <time>2015-03-24T12:28:59Z</time>
      </trkpt>
      <trkpt lat="41.375829" lon="-8.669925">
        <ele>94.468</ele>
        <time>2015-03-24T12:29:16Z</time>
      </trkpt>
      <trkpt lat="41.376213" lon="-8.670045">
        <ele>94.442</ele>
        <time>2015-03-24T12:29:29Z</time>
      </trkpt>
      <trkpt lat="41.376698" lon="-8.670192">
        <ele>93.926</ele>
        <time>2015-03-24T12:29:44Z</time>
      </trkpt>
      <trkpt lat="41.376748" lon="-8.670208">
        <ele>95.307</ele>
        <time>2015-03-24T12:29:46Z</time>
      </trkpt>
      <trkpt lat="41.377140" lon="-8.670342">
        <ele>97.235</ele>
        <time>2015-03-24T12:30:04Z</time>
      </trkpt>
      <trkpt lat="41.377455" lon="-8.670312">
        <ele>100.188</ele>
        <time>2015-03-24T12:30:19Z</time>
      </trkpt>
      <trkpt lat="41.377755" lon="-8.670186">
        <ele>100.610</ele>
        <time>2015-03-24T12:30:33Z</time>
      </trkpt>
      <trkpt lat="41.378092" lon="-8.669916">
        <ele>100.690</ele>
        <time>2015-03-24T12:30:46Z</time>
      </trkpt>
      <trkpt lat="41.378501" lon="-8.669781">
        <ele>99.628</ele>
        <time>2015-03-24T12:30:57Z</time>
      </trkpt>
      <trkpt lat="41.378967" lon="-8.669631">
        <ele>95.883</ele>
        <time>2015-03-24T12:31:07Z</time>
      </trkpt>
      <trkpt lat="41.379682" lon="-8.669396">
        <ele>92.990</ele>
        <time>2015-03-24T12:31:21Z</time>
      </trkpt>
      <trkpt lat="41.380277" lon="-8.669210">
        <ele>93.458</ele>
        <time>2015-03-24T12:31:37Z</time>
      </trkpt>
      <trkpt lat="41.380893" lon="-8.669122">
        <ele>95.852</ele>
        <time>2015-03-24T12:31:54Z</time>
      </trkpt>
      <trkpt lat="41.381357" lon="-8.669126">
        <ele>97.217</ele>
        <time>2015-03-24T12:32:07Z</time>
      </trkpt>
      <trkpt lat="41.382004" lon="-8.669126">
        <ele>98.207</ele>
        <time>2015-03-24T12:32:24Z</time>
      </trkpt>
      <trkpt lat="41.382715" lon="-8.669086">
        <ele>98.234</ele>
        <time>2015-03-24T12:32:41Z</time>
      </trkpt>
      <trkpt lat="41.382911" lon="-8.669082">
        <ele>96.887</ele>
        <time>2015-03-24T12:32:45Z</time>
      </trkpt>
      <trkpt lat="41.383313" lon="-8.669060">
        <ele>96.819</ele>
        <time>2015-03-24T12:32:55Z</time>
      </trkpt>
      <trkpt lat="41.383586" lon="-8.669034">
        <ele>94.839</ele>
        <time>2015-03-24T12:33:01Z</time>
      </trkpt>
      <trkpt lat="41.384238" lon="-8.669065">
        <ele>91.547</ele>
        <time>2015-03-24T12:33:13Z</time>
      </trkpt>
      <trkpt lat="41.384612" lon="-8.669117">
        <ele>88.112</ele>
        <time>2015-03-24T12:33:18Z</time>
      </trkpt>
      <trkpt lat="41.384777" lon="-8.669148">
        <ele>87.149</ele>
        <time>2015-03-24T12:33:20Z</time>
      </trkpt>
      <trkpt lat="41.385590" lon="-8.669150">
        <ele>85.715</ele>
        <time>2015-03-24T12:33:31Z</time>
      </trkpt>
      <trkpt lat="41.385716" lon="-8.669150">
        <ele>85.265</ele>
        <time>2015-03-24T12:33:33Z</time>
      </trkpt>
      <trkpt lat="41.386105" lon="-8.668863">
        <ele>83.811</ele>
        <time>2015-03-24T12:33:40Z</time>
      </trkpt>
      <trkpt lat="41.386547" lon="-8.668133">
        <ele>81.407</ele>
        <time>2015-03-24T12:33:50Z</time>
      </trkpt>
      <trkpt lat="41.386999" lon="-8.668058">
        <ele>80.450</ele>
        <time>2015-03-24T12:33:58Z</time>
      </trkpt>
      <trkpt lat="41.387128" lon="-8.668189">
        <ele>79.983</ele>
        <time>2015-03-24T12:34:01Z</time>
      </trkpt>
      <trkpt lat="41.387563" lon="-8.668806">
        <ele>77.045</ele>
        <time>2015-03-24T12:34:11Z</time>
      </trkpt>
      <trkpt lat="41.387717" lon="-8.669041">
        <ele>75.135</ele>
        <time>2015-03-24T12:34:14Z</time>
      </trkpt>
      <trkpt lat="41.388007" lon="-8.669236">
        <ele>71.823</ele>
        <time>2015-03-24T12:34:18Z</time>
      </trkpt>
      <trkpt lat="41.388194" lon="-8.669196">
        <ele>67.928</ele>
        <time>2015-03-24T12:34:21Z</time>
      </trkpt>
      <trkpt lat="41.388294" lon="-8.669165">
        <ele>67.995</ele>
        <time>2015-03-24T12:34:24Z</time>
      </trkpt>
      <trkpt lat="41.388334" lon="-8.669116">
        <ele>67.037</ele>
        <time>2015-03-24T12:34:35Z</time>
      </trkpt>
      <trkpt lat="41.388445" lon="-8.668912">
        <ele>64.149</ele>
        <time>2015-03-24T12:35:02Z</time>
      </trkpt>
      <trkpt lat="41.388568" lon="-8.668751">
        <ele>61.713</ele>
        <time>2015-03-24T12:35:06Z</time>
      </trkpt>
      <trkpt lat="41.388693" lon="-8.668605">
        <ele>60.207</ele>
        <time>2015-03-24T12:35:09Z</time>
      </trkpt>
      <trkpt lat="41.388979" lon="-8.668494">
        <ele>58.852</ele>
        <time>2015-03-24T12:35:14Z</time>
      </trkpt>
      <trkpt lat="41.389414" lon="-8.668470">
        <ele>54.585</ele>
        <time>2015-03-24T12:35:20Z</time>
      </trkpt>
      <trkpt lat="41.389621" lon="-8.668456">
        <ele>52.567</ele>
        <time>2015-03-24T12:35:23Z</time>
      </trkpt>
      <trkpt lat="41.389793" lon="-8.668457">
        <ele>50.147</ele>
        <time>2015-03-24T12:35:26Z</time>
      </trkpt>
      <trkpt lat="41.389969" lon="-8.668433">
        <ele>48.235</ele>
        <time>2015-03-24T12:35:29Z</time>
      </trkpt>
      <trkpt lat="41.390531" lon="-8.668358">
        <ele>44.870</ele>
        <time>2015-03-24T12:35:41Z</time>
      </trkpt>
      <trkpt lat="41.391005" lon="-8.668093">
        <ele>43.967</ele>
        <time>2015-03-24T12:35:55Z</time>
      </trkpt>
      <trkpt lat="41.391434" lon="-8.667998">
        <ele>42.919</ele>
        <time>2015-03-24T12:36:07Z</time>
      </trkpt>
      <trkpt lat="41.392008" lon="-8.667808">
        <ele>42.409</ele>
        <time>2015-03-24T12:36:23Z</time>
      </trkpt>
      <trkpt lat="41.392219" lon="-8.667660">
        <ele>42.419</ele>
        <time>2015-03-24T12:36:29Z</time>
      </trkpt>
      <trkpt lat="41.392690" lon="-8.667450">
        <ele>42.007</ele>
        <time>2015-03-24T12:36:41Z</time>
      </trkpt>
      <trkpt lat="41.392867" lon="-8.667216">
        <ele>42.020</ele>
        <time>2015-03-24T12:36:47Z</time>
      </trkpt>
      <trkpt lat="41.393096" lon="-8.666813">
        <ele>42.953</ele>
        <time>2015-03-24T12:37:00Z</time>
      </trkpt>
      <trkpt lat="41.393401" lon="-8.666464">
        <ele>42.485</ele>
        <time>2015-03-24T12:37:15Z</time>
      </trkpt>
      <trkpt lat="41.393448" lon="-8.666407">
        <ele>42.425</ele>
        <time>2015-03-24T12:39:13Z</time>
      </trkpt>
      <trkpt lat="41.393642" lon="-8.666181">
        <ele>41.563</ele>
        <time>2015-03-24T12:40:34Z</time>
      </trkpt>
      <trkpt lat="41.393747" lon="-8.666078">
        <ele>42.928</ele>
        <time>2015-03-24T12:40:39Z</time>
      </trkpt>
      <trkpt lat="41.394134" lon="-8.665826">
        <ele>43.475</ele>
        <time>2015-03-24T12:40:57Z</time>
      </trkpt>
      <trkpt lat="41.394452" lon="-8.665916">
        <ele>44.867</ele>
        <time>2015-03-24T12:41:13Z</time>
      </trkpt>
      <trkpt lat="41.394737" lon="-8.666218">
        <ele>46.881</ele>
        <time>2015-03-24T12:41:32Z</time>
      </trkpt>
      <trkpt lat="41.395009" lon="-8.666502">
        <ele>47.719</ele>
        <time>2015-03-24T12:41:51Z</time>
      </trkpt>
      <trkpt lat="41.395243" lon="-8.666779">
        <ele>48.707</ele>
        <time>2015-03-24T12:42:07Z</time>
      </trkpt>
      <trkpt lat="41.395511" lon="-8.667079">
        <ele>50.635</ele>
        <time>2015-03-24T12:42:26Z</time>
      </trkpt>
      <trkpt lat="41.395707" lon="-8.667138">
        <ele>52.158</ele>
        <time>2015-03-24T12:42:38Z</time>
      </trkpt>
      <trkpt lat="41.395854" lon="-8.667059">
        <ele>54.090</ele>
        <time>2015-03-24T12:42:50Z</time>
      </trkpt>
      <trkpt lat="41.395925" lon="-8.667024">
        <ele>54.510</ele>
        <time>2015-03-24T12:42:57Z</time>
      </trkpt>
      <trkpt lat="41.396041" lon="-8.666995">
        <ele>54.918</ele>
        <time>2015-03-24T12:43:43Z</time>
      </trkpt>
      <trkpt lat="41.396236" lon="-8.666862">
        <ele>56.923</ele>
        <time>2015-03-24T12:43:59Z</time>
      </trkpt>
      <trkpt lat="41.396295" lon="-8.666834">
        <ele>57.320</ele>
        <time>2015-03-24T12:44:21Z</time>
      </trkpt>
      <trkpt lat="41.396657" lon="-8.666824">
        <ele>57.816</ele>
        <time>2015-03-24T12:44:38Z</time>
      </trkpt>
      <trkpt lat="41.397034" lon="-8.666630">
        <ele>59.776</ele>
        <time>2015-03-24T12:44:54Z</time>
      </trkpt>
      <trkpt lat="41.397387" lon="-8.666415">
        <ele>60.213</ele>
        <time>2015-03-24T12:45:08Z</time>
      </trkpt>
      <trkpt lat="41.397844" lon="-8.666117">
        <ele>62.107</ele>
        <time>2015-03-24T12:45:25Z</time>
      </trkpt>
      <trkpt lat="41.398145" lon="-8.665713">
        <ele>62.690</ele>
        <time>2015-03-24T12:45:39Z</time>
      </trkpt>
      <trkpt lat="41.398462" lon="-8.665234">
        <ele>61.213</ele>
        <time>2015-03-24T12:45:54Z</time>
      </trkpt>
      <trkpt lat="41.398972" lon="-8.664756">
        <ele>61.275</ele>
        <time>2015-03-24T12:46:10Z</time>
      </trkpt>
      <trkpt lat="41.399239" lon="-8.664451">
        <ele>62.675</ele>
        <time>2015-03-24T12:46:21Z</time>
      </trkpt>
      <trkpt lat="41.399602" lon="-8.664129">
        <ele>65.013</ele>
        <time>2015-03-24T12:46:37Z</time>
      </trkpt>
      <trkpt lat="41.399857" lon="-8.663808">
        <ele>65.098</ele>
        <time>2015-03-24T12:46:49Z</time>
      </trkpt>
      <trkpt lat="41.400014" lon="-8.663541">
        <ele>65.075</ele>
        <time>2015-03-24T12:46:56Z</time>
      </trkpt>
      <trkpt lat="41.400314" lon="-8.663268">
        <ele>62.127</ele>
        <time>2015-03-24T12:47:03Z</time>
      </trkpt>
      <trkpt lat="41.400552" lon="-8.663101">
        <ele>58.868</ele>
        <time>2015-03-24T12:47:07Z</time>
      </trkpt>
      <trkpt lat="41.400763" lon="-8.662969">
        <ele>55.414</ele>
        <time>2015-03-24T12:47:10Z</time>
      </trkpt>
      <trkpt lat="41.400996" lon="-8.662841">
        <ele>52.107</ele>
        <time>2015-03-24T12:47:13Z</time>
      </trkpt>
      <trkpt lat="41.401374" lon="-8.662782">
        <ele>48.271</ele>
        <time>2015-03-24T12:47:17Z</time>
      </trkpt>
      <trkpt lat="41.401857" lon="-8.662740">
        <ele>47.294</ele>
        <time>2015-03-24T12:47:23Z</time>
      </trkpt>
      <trkpt lat="41.402131" lon="-8.662547">
        <ele>47.276</ele>
        <time>2015-03-24T12:47:28Z</time>
      </trkpt>
      <trkpt lat="41.402206" lon="-8.662445">
        <ele>47.216</ele>
        <time>2015-03-24T12:47:30Z</time>
      </trkpt>
      <trkpt lat="41.402283" lon="-8.662363">
        <ele>46.364</ele>
        <time>2015-03-24T12:47:32Z</time>
      </trkpt>
      <trkpt lat="41.402717" lon="-8.662175">
        <ele>46.319</ele>
        <time>2015-03-24T12:47:45Z</time>
      </trkpt>
      <trkpt lat="41.403091" lon="-8.662234">
        <ele>46.326</ele>
        <time>2015-03-24T12:47:58Z</time>
      </trkpt>
      <trkpt lat="41.403501" lon="-8.662369">
        <ele>48.774</ele>
        <time>2015-03-24T12:48:13Z</time>
      </trkpt>
      <trkpt lat="41.404020" lon="-8.662440">
        <ele>49.256</ele>
        <time>2015-03-24T12:48:31Z</time>
      </trkpt>
      <trkpt lat="41.404318" lon="-8.662487">
        <ele>49.221</ele>
        <time>2015-03-24T12:48:43Z</time>
      </trkpt>
      <trkpt lat="41.404687" lon="-8.662532">
        <ele>50.607</ele>
        <time>2015-03-24T12:48:58Z</time>
      </trkpt>
      <trkpt lat="41.405036" lon="-8.662596">
        <ele>53.086</ele>
        <time>2015-03-24T12:49:12Z</time>
      </trkpt>
      <trkpt lat="41.405480" lon="-8.662720">
        <ele>53.549</ele>
        <time>2015-03-24T12:49:27Z</time>
      </trkpt>
      <trkpt lat="41.406133" lon="-8.663009">
        <ele>54.951</ele>
        <time>2015-03-24T12:49:46Z</time>
      </trkpt>
      <trkpt lat="41.406553" lon="-8.663151">
        <ele>53.551</ele>
        <time>2015-03-24T12:49:58Z</time>
      </trkpt>
      <trkpt lat="41.407082" lon="-8.663277">
        <ele>53.089</ele>
        <time>2015-03-24T12:50:12Z</time>
      </trkpt>
      <trkpt lat="41.407649" lon="-8.663413">
        <ele>54.094</ele>
        <time>2015-03-24T12:50:28Z</time>
      </trkpt>
      <trkpt lat="41.408108" lon="-8.663470">
        <ele>55.431</ele>
        <time>2015-03-24T12:50:42Z</time>
      </trkpt>
      <trkpt lat="41.408564" lon="-8.663590">
        <ele>56.935</ele>
        <time>2015-03-24T12:50:57Z</time>
      </trkpt>
      <trkpt lat="41.409062" lon="-8.663792">
        <ele>55.486</ele>
        <time>2015-03-24T12:51:09Z</time>
      </trkpt>
      <trkpt lat="41.409765" lon="-8.664059">
        <ele>53.014</ele>
        <time>2015-03-24T12:51:23Z</time>
      </trkpt>
      <trkpt lat="41.410342" lon="-8.664255">
        <ele>53.507</ele>
        <time>2015-03-24T12:51:37Z</time>
      </trkpt>
      <trkpt lat="41.410962" lon="-8.664443">
        <ele>53.092</ele>
        <time>2015-03-24T12:51:52Z</time>
      </trkpt>
      <trkpt lat="41.411707" lon="-8.664726">
        <ele>53.075</ele>
        <time>2015-03-24T12:52:10Z</time>
      </trkpt>
      <trkpt lat="41.411980" lon="-8.664801">
        <ele>54.597</ele>
        <time>2015-03-24T12:52:20Z</time>
      </trkpt>
      <trkpt lat="41.412052" lon="-8.664845">
        <ele>54.577</ele>
        <time>2015-03-24T12:52:47Z</time>
      </trkpt>
      <trkpt lat="41.412380" lon="-8.664951">
        <ele>54.595</ele>
        <time>2015-03-24T12:52:57Z</time>
      </trkpt>
      <trkpt lat="41.412928" lon="-8.665134">
        <ele>54.040</ele>
        <time>2015-03-24T12:53:13Z</time>
      </trkpt>
      <trkpt lat="41.413520" lon="-8.665328">
        <ele>54.057</ele>
        <time>2015-03-24T12:53:29Z</time>
      </trkpt>
      <trkpt lat="41.414214" lon="-8.665547">
        <ele>55.978</ele>
        <time>2015-03-24T12:53:47Z</time>
      </trkpt>
      <trkpt lat="41.414883" lon="-8.665800">
        <ele>55.933</ele>
        <time>2015-03-24T12:54:05Z</time>
      </trkpt>
      <trkpt lat="41.415559" lon="-8.666050">
        <ele>56.426</ele>
        <time>2015-03-24T12:54:22Z</time>
      </trkpt>
      <trkpt lat="41.416386" lon="-8.666353">
        <ele>57.807</ele>
        <time>2015-03-24T12:54:43Z</time>
      </trkpt>
      <trkpt lat="41.417047" lon="-8.666669">
        <ele>58.396</ele>
        <time>2015-03-24T12:55:01Z</time>
      </trkpt>
      <trkpt lat="41.417434" lon="-8.666738">
        <ele>57.839</ele>
        <time>2015-03-24T12:55:11Z</time>
      </trkpt>
      <trkpt lat="41.418141" lon="-8.666845">
        <ele>57.831</ele>
        <time>2015-03-24T12:55:28Z</time>
      </trkpt>
      <trkpt lat="41.418857" lon="-8.666952">
        <ele>57.891</ele>
        <time>2015-03-24T12:55:46Z</time>
      </trkpt>
      <trkpt lat="41.419529" lon="-8.667120">
        <ele>59.349</ele>
        <time>2015-03-24T12:56:03Z</time>
      </trkpt>
      <trkpt lat="41.420232" lon="-8.667292">
        <ele>60.734</ele>
        <time>2015-03-24T12:56:21Z</time>
      </trkpt>
      <trkpt lat="41.420826" lon="-8.667462">
        <ele>61.241</ele>
        <time>2015-03-24T12:56:38Z</time>
      </trkpt>
      <trkpt lat="41.421217" lon="-8.667567">
        <ele>62.636</ele>
        <time>2015-03-24T12:56:51Z</time>
      </trkpt>
      <trkpt lat="41.421575" lon="-8.667616">
        <ele>62.617</ele>
        <time>2015-03-24T12:57:03Z</time>
      </trkpt>
      <trkpt lat="41.421778" lon="-8.667608">
        <ele>63.618</ele>
        <time>2015-03-24T12:57:14Z</time>
      </trkpt>
      <trkpt lat="41.421962" lon="-8.667557">
        <ele>63.607</ele>
        <time>2015-03-24T12:57:58Z</time>
      </trkpt>
      <trkpt lat="41.422262" lon="-8.667781">
        <ele>63.682</ele>
        <time>2015-03-24T12:58:09Z</time>
      </trkpt>
      <trkpt lat="41.422725" lon="-8.668077">
        <ele>64.135</ele>
        <time>2015-03-24T12:58:24Z</time>
      </trkpt>
      <trkpt lat="41.423225" lon="-8.668230">
        <ele>64.157</ele>
        <time>2015-03-24T12:58:40Z</time>
      </trkpt>
      <trkpt lat="41.423648" lon="-8.668237">
        <ele>64.667</ele>
        <time>2015-03-24T12:58:54Z</time>
      </trkpt>
      <trkpt lat="41.423998" lon="-8.668227">
        <ele>66.515</ele>
        <time>2015-03-24T12:59:09Z</time>
      </trkpt>
      <trkpt lat="41.424255" lon="-8.668081">
        <ele>68.960</ele>
        <time>2015-03-24T12:59:23Z</time>
      </trkpt>
      <trkpt lat="41.424491" lon="-8.667775">
        <ele>69.447</ele>
        <time>2015-03-24T12:59:38Z</time>
      </trkpt>
      <trkpt lat="41.424758" lon="-8.667456">
        <ele>70.866</ele>
        <time>2015-03-24T12:59:54Z</time>
      </trkpt>
      <trkpt lat="41.425020" lon="-8.667188">
        <ele>72.729</ele>
        <time>2015-03-24T13:00:10Z</time>
      </trkpt>
      <trkpt lat="41.425358" lon="-8.667142">
        <ele>65.021</ele>
        <time>2015-03-24T13:23:37Z</time>
      </trkpt>
      <trkpt lat="41.425466" lon="-8.667234">
        <ele>64.607</ele>
        <time>2015-03-24T13:24:34Z</time>
      </trkpt>
      <trkpt lat="41.425344" lon="-8.667051">
        <ele>65.085</ele>
        <time>2015-03-24T13:25:02Z</time>
      </trkpt>
      <trkpt lat="41.425068" lon="-8.667262">
        <ele>63.118</ele>
        <time>2015-03-24T13:25:17Z</time>
      </trkpt>
      <trkpt lat="41.424767" lon="-8.667515">
        <ele>62.170</ele>
        <time>2015-03-24T13:25:25Z</time>
      </trkpt>
      <trkpt lat="41.424246" lon="-8.668172">
        <ele>60.220</ele>
        <time>2015-03-24T13:25:40Z</time>
      </trkpt>
      <trkpt lat="41.424216" lon="-8.668621">
        <ele>58.858</ele>
        <time>2015-03-24T13:25:50Z</time>
      </trkpt>
      <trkpt lat="41.424310" lon="-8.669356">
        <ele>58.813</ele>
        <time>2015-03-24T13:26:05Z</time>
      </trkpt>
      <trkpt lat="41.424371" lon="-8.669845">
        <ele>56.910</ele>
        <time>2015-03-24T13:26:13Z</time>
      </trkpt>
      <trkpt lat="41.424385" lon="-8.670048">
        <ele>56.412</ele>
        <time>2015-03-24T13:26:16Z</time>
      </trkpt>
      <trkpt lat="41.424378" lon="-8.670313">
        <ele>55.932</ele>
        <time>2015-03-24T13:26:20Z</time>
      </trkpt>
      <trkpt lat="41.424426" lon="-8.671031">
        <ele>54.505</ele>
        <time>2015-03-24T13:26:31Z</time>
      </trkpt>
      <trkpt lat="41.424245" lon="-8.671345">
        <ele>54.507</ele>
        <time>2015-03-24T13:26:39Z</time>
      </trkpt>
      <trkpt lat="41.424121" lon="-8.671560">
        <ele>54.580</ele>
        <time>2015-03-24T13:26:44Z</time>
      </trkpt>
      <trkpt lat="41.423733" lon="-8.672061">
        <ele>54.063</ele>
        <time>2015-03-24T13:26:58Z</time>
      </trkpt>
      <trkpt lat="41.423265" lon="-8.672708">
        <ele>52.525</ele>
        <time>2015-03-24T13:27:15Z</time>
      </trkpt>
      <trkpt lat="41.422997" lon="-8.672697">
        <ele>52.555</ele>
        <time>2015-03-24T13:28:36Z</time>
      </trkpt>
      <trkpt lat="41.423294" lon="-8.672720">
        <ele>52.583</ele>
        <time>2015-03-24T13:28:49Z</time>
      </trkpt>
      <trkpt lat="41.423349" lon="-8.672653">
        <ele>52.528</ele>
        <time>2015-03-24T13:28:54Z</time>
      </trkpt>
      <trkpt lat="41.423439" lon="-8.672504">
        <ele>53.555</ele>
        <time>2015-03-24T13:29:00Z</time>
      </trkpt>
      <trkpt lat="41.423686" lon="-8.672161">
        <ele>54.513</ele>
        <time>2015-03-24T13:29:15Z</time>
      </trkpt>
      <trkpt lat="41.423971" lon="-8.671747">
        <ele>55.443</ele>
        <time>2015-03-24T13:29:31Z</time>
      </trkpt>
      <trkpt lat="41.424231" lon="-8.671335">
        <ele>55.407</ele>
        <time>2015-03-24T13:29:45Z</time>
      </trkpt>
      <trkpt lat="41.424430" lon="-8.670984">
        <ele>55.907</ele>
        <time>2015-03-24T13:29:57Z</time>
      </trkpt>
      <trkpt lat="41.424386" lon="-8.670390">
        <ele>55.940</ele>
        <time>2015-03-24T13:30:13Z</time>
      </trkpt>
      <trkpt lat="41.424374" lon="-8.669833">
        <ele>56.963</ele>
        <time>2015-03-24T13:30:28Z</time>
      </trkpt>
      <trkpt lat="41.424287" lon="-8.669113">
        <ele>59.315</ele>
        <time>2015-03-24T13:30:48Z</time>
      </trkpt>
      <trkpt lat="41.424192" lon="-8.668445">
        <ele>60.265</ele>
        <time>2015-03-24T13:31:06Z</time>
      </trkpt>
      <trkpt lat="41.424324" lon="-8.668039">
        <ele>61.243</ele>
        <time>2015-03-24T13:31:19Z</time>
      </trkpt>
      <trkpt lat="41.424411" lon="-8.667962">
        <ele>61.738</ele>
        <time>2015-03-24T13:31:46Z</time>
      </trkpt>
      <trkpt lat="41.424629" lon="-8.667625">
        <ele>62.665</ele>
        <time>2015-03-24T13:32:00Z</time>
      </trkpt>
      <trkpt lat="41.424909" lon="-8.667327">
        <ele>63.612</ele>
        <time>2015-03-24T13:32:16Z</time>
      </trkpt>
      <trkpt lat="41.425197" lon="-8.667063">
        <ele>66.032</ele>
        <time>2015-03-24T13:32:34Z</time>
      </trkpt>
      <trkpt lat="41.425466" lon="-8.666812">
        <ele>68.405</ele>
        <time>2015-03-24T13:32:51Z</time>
      </trkpt>
      <trkpt lat="41.425692" lon="-8.666621">
        <ele>71.307</ele>
        <time>2015-03-24T13:33:07Z</time>
      </trkpt>
      <trkpt lat="41.425919" lon="-8.666509">
        <ele>74.290</ele>
        <time>2015-03-24T13:33:23Z</time>
      </trkpt>
      <trkpt lat="41.426158" lon="-8.666386">
        <ele>76.683</ele>
        <time>2015-03-24T13:33:38Z</time>
      </trkpt>
      <trkpt lat="41.426439" lon="-8.666233">
        <ele>78.555</ele>
        <time>2015-03-24T13:33:55Z</time>
      </trkpt>
      <trkpt lat="41.426769" lon="-8.666031">
        <ele>80.415</ele>
        <time>2015-03-24T13:34:16Z</time>
      </trkpt>
      <trkpt lat="41.426982" lon="-8.665858">
        <ele>82.853</ele>
        <time>2015-03-24T13:34:31Z</time>
      </trkpt>
      <trkpt lat="41.427117" lon="-8.665693">
        <ele>84.718</ele>
        <time>2015-03-24T13:34:41Z</time>
      </trkpt>
      <trkpt lat="41.427377" lon="-8.665444">
        <ele>83.315</ele>
        <time>2015-03-24T13:34:55Z</time>
      </trkpt>
      <trkpt lat="41.427796" lon="-8.665275">
        <ele>81.937</ele>
        <time>2015-03-24T13:35:06Z</time>
      </trkpt>
      <trkpt lat="41.427968" lon="-8.665227">
        <ele>80.449</ele>
        <time>2015-03-24T13:35:09Z</time>
      </trkpt>
      <trkpt lat="41.428290" lon="-8.664858">
        <ele>78.513</ele>
        <time>2015-03-24T13:35:16Z</time>
      </trkpt>
      <trkpt lat="41.428333" lon="-8.664799">
        <ele>78.507</ele>
        <time>2015-03-24T13:35:17Z</time>
      </trkpt>
      <trkpt lat="41.428797" lon="-8.664285">
        <ele>77.092</ele>
        <time>2015-03-24T13:35:28Z</time>
      </trkpt>
      <trkpt lat="41.429138" lon="-8.664119">
        <ele>73.725</ele>
        <time>2015-03-24T13:35:39Z</time>
      </trkpt>
      <trkpt lat="41.429559" lon="-8.663904">
        <ele>71.867</ele>
        <time>2015-03-24T13:35:50Z</time>
      </trkpt>
      <trkpt lat="41.429673" lon="-8.663831">
        <ele>73.777</ele>
        <time>2015-03-24T13:35:53Z</time>
      </trkpt>
      <trkpt lat="41.429759" lon="-8.663773">
        <ele>72.215</ele>
        <time>2015-03-24T13:35:55Z</time>
      </trkpt>
      <trkpt lat="41.430228" lon="-8.663418">
        <ele>68.420</ele>
        <time>2015-03-24T13:36:05Z</time>
      </trkpt>
      <trkpt lat="41.430736" lon="-8.662927">
        <ele>67.437</ele>
        <time>2015-03-24T13:36:16Z</time>
      </trkpt>
      <trkpt lat="41.430843" lon="-8.662771">
        <ele>66.026</ele>
        <time>2015-03-24T13:36:19Z</time>
      </trkpt>
      <trkpt lat="41.430895" lon="-8.662664">
        <ele>65.547</ele>
        <time>2015-03-24T13:36:21Z</time>
      </trkpt>
      <trkpt lat="41.430935" lon="-8.662544">
        <ele>65.511</ele>
        <time>2015-03-24T13:36:23Z</time>
      </trkpt>
      <trkpt lat="41.431239" lon="-8.661679">
        <ele>62.607</ele>
        <time>2015-03-24T13:36:37Z</time>
      </trkpt>
      <trkpt lat="41.431267" lon="-8.661609">
        <ele>62.651</ele>
        <time>2015-03-24T13:36:38Z</time>
      </trkpt>
      <trkpt lat="41.431451" lon="-8.661237">
        <ele>60.734</ele>
        <time>2015-03-24T13:36:44Z</time>
      </trkpt>
      <trkpt lat="41.431619" lon="-8.661062">
        <ele>58.856</ele>
        <time>2015-03-24T13:36:48Z</time>
      </trkpt>
      <trkpt lat="41.431968" lon="-8.660787">
        <ele>58.816</ele>
        <time>2015-03-24T13:36:59Z</time>
      </trkpt>
      <trkpt lat="41.432060" lon="-8.660723">
        <ele>60.224</ele>
        <time>2015-03-24T13:37:03Z</time>
      </trkpt>
      <trkpt lat="41.432392" lon="-8.660390">
        <ele>60.789</ele>
        <time>2015-03-24T13:37:28Z</time>
      </trkpt>
      <trkpt lat="41.432769" lon="-8.660012">
        <ele>61.776</ele>
        <time>2015-03-24T13:37:42Z</time>
      </trkpt>
      <trkpt lat="41.433135" lon="-8.659700">
        <ele>61.782</ele>
        <time>2015-03-24T13:37:55Z</time>
      </trkpt>
      <trkpt lat="41.433504" lon="-8.659403">
        <ele>62.143</ele>
        <time>2015-03-24T13:38:09Z</time>
      </trkpt>
      <trkpt lat="41.433792" lon="-8.659117">
        <ele>62.117</ele>
        <time>2015-03-24T13:38:22Z</time>
      </trkpt>
      <trkpt lat="41.434020" lon="-8.658921">
        <ele>62.607</ele>
        <time>2015-03-24T13:38:34Z</time>
      </trkpt>
      <trkpt lat="41.434332" lon="-8.658745">
        <ele>64.127</ele>
        <time>2015-03-24T13:38:49Z</time>
      </trkpt>
      <trkpt lat="41.434648" lon="-8.658655">
        <ele>65.080</ele>
        <time>2015-03-24T13:39:04Z</time>
      </trkpt>
      <trkpt lat="41.434799" lon="-8.658609">
        <ele>68.442</ele>
        <time>2015-03-24T13:39:12Z</time>
      </trkpt>
      <trkpt lat="41.435107" lon="-8.658503">
        <ele>70.872</ele>
        <time>2015-03-24T13:39:30Z</time>
      </trkpt>
      <trkpt lat="41.435382" lon="-8.658376">
        <ele>73.260</ele>
        <time>2015-03-24T13:39:46Z</time>
      </trkpt>
      <trkpt lat="41.435666" lon="-8.658147">
        <ele>74.295</ele>
        <time>2015-03-24T13:40:01Z</time>
      </trkpt>
      <trkpt lat="41.435883" lon="-8.657865">
        <ele>76.152</ele>
        <time>2015-03-24T13:40:15Z</time>
      </trkpt>
      <trkpt lat="41.436006" lon="-8.657516">
        <ele>77.065</ele>
        <time>2015-03-24T13:40:28Z</time>
      </trkpt>
      <trkpt lat="41.436234" lon="-8.657191">
        <ele>78.068</ele>
        <time>2015-03-24T13:40:41Z</time>
      </trkpt>
      <trkpt lat="41.436597" lon="-8.656988">
        <ele>79.014</ele>
        <time>2015-03-24T13:41:36Z</time>
      </trkpt>
      <trkpt lat="41.436987" lon="-8.656691">
        <ele>79.507</ele>
        <time>2015-03-24T13:41:49Z</time>
      </trkpt>
      <trkpt lat="41.437312" lon="-8.656412">
        <ele>77.095</ele>
        <time>2015-03-24T13:41:59Z</time>
      </trkpt>
      <trkpt lat="41.437490" lon="-8.656259">
        <ele>73.278</ele>
        <time>2015-03-24T13:42:04Z</time>
      </trkpt>
      <trkpt lat="41.437687" lon="-8.656093">
        <ele>69.860</ele>
        <time>2015-03-24T13:42:11Z</time>
      </trkpt>
      <trkpt lat="41.437827" lon="-8.655977">
        <ele>67.010</ele>
        <time>2015-03-24T13:42:15Z</time>
      </trkpt>
      <trkpt lat="41.437944" lon="-8.655878">
        <ele>65.528</ele>
        <time>2015-03-24T13:42:18Z</time>
      </trkpt>
      <trkpt lat="41.437983" lon="-8.655841">
        <ele>65.093</ele>
        <time>2015-03-24T13:42:19Z</time>
      </trkpt>
      <trkpt lat="41.438167" lon="-8.655379">
        <ele>66.520</ele>
        <time>2015-03-24T13:42:29Z</time>
      </trkpt>
      <trkpt lat="41.438409" lon="-8.655147">
        <ele>68.967</ele>
        <time>2015-03-24T13:42:41Z</time>
      </trkpt>
      <trkpt lat="41.438653" lon="-8.654908">
        <ele>69.481</ele>
        <time>2015-03-24T13:42:53Z</time>
      </trkpt>
      <trkpt lat="41.438753" lon="-8.654851">
        <ele>70.319</ele>
        <time>2015-03-24T13:42:58Z</time>
      </trkpt>
      <trkpt lat="41.438987" lon="-8.654651">
        <ele>71.307</ele>
        <time>2015-03-24T13:43:12Z</time>
      </trkpt>
      <trkpt lat="41.439210" lon="-8.654511">
        <ele>72.225</ele>
        <time>2015-03-24T13:43:27Z</time>
      </trkpt>
      <trkpt lat="41.439487" lon="-8.654405">
        <ele>73.298</ele>
        <time>2015-03-24T13:43:42Z</time>
      </trkpt>
      <trkpt lat="41.439801" lon="-8.654202">
        <ele>73.240</ele>
        <time>2015-03-24T13:43:57Z</time>
      </trkpt>
      <trkpt lat="41.439886" lon="-8.654146">
        <ele>74.670</ele>
        <time>2015-03-24T13:44:01Z</time>
      </trkpt>
      <trkpt lat="41.440064" lon="-8.654037">
        <ele>77.048</ele>
        <time>2015-03-24T13:44:10Z</time>
      </trkpt>
      <trkpt lat="41.440163" lon="-8.653996">
        <ele>77.553</ele>
        <time>2015-03-24T13:44:16Z</time>
      </trkpt>
      <trkpt lat="41.440439" lon="-8.653810">
        <ele>80.460</ele>
        <time>2015-03-24T13:44:33Z</time>
      </trkpt>
      <trkpt lat="41.440514" lon="-8.653738">
        <ele>80.413</ele>
        <time>2015-03-24T13:44:39Z</time>
      </trkpt>
      <trkpt lat="41.440560" lon="-8.653725">
        <ele>80.443</ele>
        <time>2015-03-24T13:44:42Z</time>
      </trkpt>
      <trkpt lat="41.440853" lon="-8.653559">
        <ele>83.307</ele>
        <time>2015-03-24T13:45:00Z</time>
      </trkpt>
      <trkpt lat="41.441123" lon="-8.653379">
        <ele>85.207</ele>
        <time>2015-03-24T13:45:16Z</time>
      </trkpt>
      <trkpt lat="41.441418" lon="-8.653168">
        <ele>88.110</ele>
        <time>2015-03-24T13:45:35Z</time>
      </trkpt>
      <trkpt lat="41.441584" lon="-8.652973">
        <ele>90.553</ele>
        <time>2015-03-24T13:45:48Z</time>
      </trkpt>
      <trkpt lat="41.441736" lon="-8.652716">
        <ele>93.475</ele>
        <time>2015-03-24T13:46:03Z</time>
      </trkpt>
      <trkpt lat="41.441919" lon="-8.652371">
        <ele>95.875</ele>
        <time>2015-03-24T13:46:20Z</time>
      </trkpt>
      <trkpt lat="41.442053" lon="-8.652245">
        <ele>93.993</ele>
        <time>2015-03-24T13:46:26Z</time>
      </trkpt>
      <trkpt lat="41.442309" lon="-8.651991">
        <ele>92.478</ele>
        <time>2015-03-24T13:46:39Z</time>
      </trkpt>
      <trkpt lat="41.442486" lon="-8.651721">
        <ele>92.475</ele>
        <time>2015-03-24T13:46:50Z</time>
      </trkpt>
      <trkpt lat="41.442795" lon="-8.651416">
        <ele>92.482</ele>
        <time>2015-03-24T13:47:05Z</time>
      </trkpt>
      <trkpt lat="41.443161" lon="-8.651123">
        <ele>93.943</ele>
        <time>2015-03-24T13:47:22Z</time>
      </trkpt>
      <trkpt lat="41.443431" lon="-8.650901">
        <ele>94.817</ele>
        <time>2015-03-24T13:47:36Z</time>
      </trkpt>
      <trkpt lat="41.443686" lon="-8.650670">
        <ele>95.307</ele>
        <time>2015-03-24T13:47:52Z</time>
      </trkpt>
      <trkpt lat="41.443914" lon="-8.650558">
        <ele>97.227</ele>
        <time>2015-03-24T13:48:09Z</time>
      </trkpt>
      <trkpt lat="41.444099" lon="-8.650512">
        <ele>100.610</ele>
        <time>2015-03-24T13:48:23Z</time>
      </trkpt>
      <trkpt lat="41.444303" lon="-8.650543">
        <ele>103.022</ele>
        <time>2015-03-24T13:48:39Z</time>
      </trkpt>
      <trkpt lat="41.444468" lon="-8.650552">
        <ele>106.872</ele>
        <time>2015-03-24T13:48:52Z</time>
      </trkpt>
      <trkpt lat="41.444562" lon="-8.650463">
        <ele>106.890</ele>
        <time>2015-03-24T13:49:00Z</time>
      </trkpt>
      <trkpt lat="41.444776" lon="-8.650286">
        <ele>107.395</ele>
        <time>2015-03-24T13:49:14Z</time>
      </trkpt>
      <trkpt lat="41.444918" lon="-8.649932">
        <ele>105.922</ele>
        <time>2015-03-24T13:49:27Z</time>
      </trkpt>
      <trkpt lat="41.445102" lon="-8.649525">
        <ele>104.083</ele>
        <time>2015-03-24T13:49:41Z</time>
      </trkpt>
      <trkpt lat="41.445396" lon="-8.649039">
        <ele>103.025</ele>
        <time>2015-03-24T13:49:59Z</time>
      </trkpt>
      <trkpt lat="41.445680" lon="-8.648739">
        <ele>103.517</ele>
        <time>2015-03-24T13:50:15Z</time>
      </trkpt>
      <trkpt lat="41.445882" lon="-8.648490">
        <ele>104.407</ele>
        <time>2015-03-24T13:50:28Z</time>
      </trkpt>
      <trkpt lat="41.446023" lon="-8.648085">
        <ele>105.487</ele>
        <time>2015-03-24T13:50:42Z</time>
      </trkpt>
      <trkpt lat="41.446174" lon="-8.647740">
        <ele>108.390</ele>
        <time>2015-03-24T13:50:56Z</time>
      </trkpt>
      <trkpt lat="41.446348" lon="-8.647321">
        <ele>110.752</ele>
        <time>2015-03-24T13:51:14Z</time>
      </trkpt>
      <trkpt lat="41.446496" lon="-8.647025">
        <ele>110.712</ele>
        <time>2015-03-24T13:51:25Z</time>
      </trkpt>
      <trkpt lat="41.446702" lon="-8.647082">
        <ele>111.770</ele>
        <time>2015-03-24T13:51:34Z</time>
      </trkpt>
      <trkpt lat="41.447112" lon="-8.647219">
        <ele>113.145</ele>
        <time>2015-03-24T13:51:52Z</time>
      </trkpt>
      <trkpt lat="41.447520" lon="-8.646943">
        <ele>112.172</ele>
        <time>2015-03-24T13:52:06Z</time>
      </trkpt>
      <trkpt lat="41.447963" lon="-8.646650">
        <ele>108.899</ele>
        <time>2015-03-24T13:52:16Z</time>
      </trkpt>
      <trkpt lat="41.448633" lon="-8.646454">
        <ele>106.807</ele>
        <time>2015-03-24T13:52:30Z</time>
      </trkpt>
      <trkpt lat="41.449275" lon="-8.646214">
        <ele>106.827</ele>
        <time>2015-03-24T13:52:46Z</time>
      </trkpt>
      <trkpt lat="41.449321" lon="-8.646190">
        <ele>106.807</ele>
        <time>2015-03-24T13:52:47Z</time>
      </trkpt>
      <trkpt lat="41.449396" lon="-8.646138">
        <ele>106.898</ele>
        <time>2015-03-24T13:52:49Z</time>
      </trkpt>
      <trkpt lat="41.449545" lon="-8.646008">
        <ele>106.841</ele>
        <time>2015-03-24T13:52:53Z</time>
      </trkpt>
      <trkpt lat="41.450124" lon="-8.645523">
        <ele>104.983</ele>
        <time>2015-03-24T13:53:09Z</time>
      </trkpt>
      <trkpt lat="41.450552" lon="-8.644997">
        <ele>104.943</ele>
        <time>2015-03-24T13:53:25Z</time>
      </trkpt>
      <trkpt lat="41.450771" lon="-8.644626">
        <ele>106.471</ele>
        <time>2015-03-24T13:53:36Z</time>
      </trkpt>
      <trkpt lat="41.450983" lon="-8.644284">
        <ele>107.336</ele>
        <time>2015-03-24T13:53:47Z</time>
      </trkpt>
      <trkpt lat="41.451423" lon="-8.643672">
        <ele>108.393</ele>
        <time>2015-03-24T13:54:06Z</time>
      </trkpt>
      <trkpt lat="41.451748" lon="-8.643328">
        <ele>109.354</ele>
        <time>2015-03-24T13:54:19Z</time>
      </trkpt>
      <trkpt lat="41.452088" lon="-8.642962">
        <ele>111.256</ele>
        <time>2015-03-24T13:54:37Z</time>
      </trkpt>
      <trkpt lat="41.452391" lon="-8.642698">
        <ele>111.211</ele>
        <time>2015-03-24T13:54:50Z</time>
      </trkpt>
      <trkpt lat="41.453097" lon="-8.642304">
        <ele>109.707</ele>
        <time>2015-03-24T13:55:07Z</time>
      </trkpt>
      <trkpt lat="41.453620" lon="-8.642098">
        <ele>108.314</ele>
        <time>2015-03-24T13:55:21Z</time>
      </trkpt>
      <trkpt lat="41.453729" lon="-8.642091">
        <ele>106.817</ele>
        <time>2015-03-24T13:55:24Z</time>
      </trkpt>
      <trkpt lat="41.453804" lon="-8.642044">
        <ele>105.999</ele>
        <time>2015-03-24T13:55:26Z</time>
      </trkpt>
      <trkpt lat="41.453910" lon="-8.641932">
        <ele>104.939</ele>
        <time>2015-03-24T13:55:29Z</time>
      </trkpt>
      <trkpt lat="41.454095" lon="-8.641734">
        <ele>103.587</ele>
        <time>2015-03-24T13:55:34Z</time>
      </trkpt>
      <trkpt lat="41.454598" lon="-8.641572">
        <ele>104.992</ele>
        <time>2015-03-24T13:55:48Z</time>
      </trkpt>
      <trkpt lat="41.454943" lon="-8.641516">
        <ele>105.959</ele>
        <time>2015-03-24T13:56:01Z</time>
      </trkpt>
      <trkpt lat="41.455252" lon="-8.641393">
        <ele>106.495</ele>
        <time>2015-03-24T13:56:15Z</time>
      </trkpt>
      <trkpt lat="41.455293" lon="-8.641360">
        <ele>107.349</ele>
        <time>2015-03-24T13:56:18Z</time>
      </trkpt>
      <trkpt lat="41.455528" lon="-8.641264">
        <ele>110.723</ele>
        <time>2015-03-24T13:56:32Z</time>
      </trkpt>
      <trkpt lat="41.455708" lon="-8.641234">
        <ele>112.107</ele>
        <time>2015-03-24T13:56:45Z</time>
      </trkpt>
      <trkpt lat="41.455909" lon="-8.641259">
        <ele>115.098</ele>
        <time>2015-03-24T13:56:59Z</time>
      </trkpt>
      <trkpt lat="41.456137" lon="-8.641295">
        <ele>117.471</ele>
        <time>2015-03-24T13:57:15Z</time>
      </trkpt>
      <trkpt lat="41.456332" lon="-8.641329">
        <ele>118.983</ele>
        <time>2015-03-24T13:57:28Z</time>
      </trkpt>
      <trkpt lat="41.456533" lon="-8.641333">
        <ele>122.223</ele>
        <time>2015-03-24T13:57:43Z</time>
      </trkpt>
      <trkpt lat="41.456732" lon="-8.641387">
        <ele>124.221</ele>
        <time>2015-03-24T13:57:59Z</time>
      </trkpt>
      <trkpt lat="41.456961" lon="-8.641430">
        <ele>127.556</ele>
        <time>2015-03-24T13:58:17Z</time>
      </trkpt>
      <trkpt lat="41.457078" lon="-8.641608">
        <ele>129.083</ele>
        <time>2015-03-24T13:58:28Z</time>
      </trkpt>
      <trkpt lat="41.457152" lon="-8.641960">
        <ele>129.081</ele>
        <time>2015-03-24T13:58:39Z</time>
      </trkpt>
      <trkpt lat="41.457383" lon="-8.642415">
        <ele>129.461</ele>
        <time>2015-03-24T13:58:52Z</time>
      </trkpt>
      <trkpt lat="41.457672" lon="-8.642889">
        <ele>129.417</ele>
        <time>2015-03-24T13:59:05Z</time>
      </trkpt>
      <trkpt lat="41.457940" lon="-8.643466">
        <ele>129.907</ele>
        <time>2015-03-24T13:59:20Z</time>
      </trkpt>
      <trkpt lat="41.458163" lon="-8.644063">
        <ele>131.867</ele>
        <time>2015-03-24T13:59:36Z</time>
      </trkpt>
      <trkpt lat="41.458219" lon="-8.644184">
        <ele>131.810</ele>
        <time>2015-03-24T13:59:41Z</time>
      </trkpt>
      <trkpt lat="41.458259" lon="-8.644215">
        <ele>131.822</ele>
        <time>2015-03-24T13:59:53Z</time>
      </trkpt>
      <trkpt lat="41.458290" lon="-8.643914">
        <ele>132.322</ele>
        <time>2015-03-24T14:00:05Z</time>
      </trkpt>
      <trkpt lat="41.458450" lon="-8.643284">
        <ele>133.880</ele>
        <time>2015-03-24T14:00:19Z</time>
      </trkpt>
      <trkpt lat="41.458546" lon="-8.642446">
        <ele>134.225</ele>
        <time>2015-03-24T14:00:35Z</time>
      </trkpt>
      <trkpt lat="41.458623" lon="-8.641733">
        <ele>134.782</ele>
        <time>2015-03-24T14:00:49Z</time>
      </trkpt>
      <trkpt lat="41.458668" lon="-8.641480">
        <ele>133.872</ele>
        <time>2015-03-24T14:00:54Z</time>
      </trkpt>
      <trkpt lat="41.458676" lon="-8.641286">
        <ele>131.813</ele>
        <time>2015-03-24T14:00:57Z</time>
      </trkpt>
      <trkpt lat="41.458580" lon="-8.641064">
        <ele>131.814</ele>
        <time>2015-03-24T14:01:01Z</time>
      </trkpt>
      <trkpt lat="41.458371" lon="-8.640823">
        <ele>130.907</ele>
        <time>2015-03-24T14:01:06Z</time>
      </trkpt>
      <trkpt lat="41.458312" lon="-8.640720">
        <ele>130.936</ele>
        <time>2015-03-24T14:01:08Z</time>
      </trkpt>
      <trkpt lat="41.458218" lon="-8.640374">
        <ele>128.569</ele>
        <time>2015-03-24T14:01:14Z</time>
      </trkpt>
      <trkpt lat="41.458192" lon="-8.639916">
        <ele>125.181</ele>
        <time>2015-03-24T14:01:19Z</time>
      </trkpt>
      <trkpt lat="41.458194" lon="-8.639490">
        <ele>121.361</ele>
        <time>2015-03-24T14:01:23Z</time>
      </trkpt>
      <trkpt lat="41.458186" lon="-8.639137">
        <ele>119.379</ele>
        <time>2015-03-24T14:01:26Z</time>
      </trkpt>
      <trkpt lat="41.458181" lon="-8.638767">
        <ele>116.994</ele>
        <time>2015-03-24T14:01:29Z</time>
      </trkpt>
      <trkpt lat="41.458071" lon="-8.638340">
        <ele>114.191</ele>
        <time>2015-03-24T14:01:33Z</time>
      </trkpt>
      <trkpt lat="41.458011" lon="-8.638276">
        <ele>115.552</ele>
        <time>2015-03-24T14:01:35Z</time>
      </trkpt>
      <trkpt lat="41.458261" lon="-8.638242">
        <ele>113.653</ele>
        <time>2015-03-24T14:01:49Z</time>
      </trkpt>
      <trkpt lat="41.458428" lon="-8.638194">
        <ele>112.108</ele>
        <time>2015-03-24T14:01:53Z</time>
      </trkpt>
      <trkpt lat="41.458628" lon="-8.638025">
        <ele>108.307</ele>
        <time>2015-03-24T14:01:57Z</time>
      </trkpt>
      <trkpt lat="41.458989" lon="-8.637607">
        <ele>104.984</ele>
        <time>2015-03-24T14:02:04Z</time>
      </trkpt>
      <trkpt lat="41.459084" lon="-8.637493">
        <ele>103.047</ele>
        <time>2015-03-24T14:02:06Z</time>
      </trkpt>
      <trkpt lat="41.459327" lon="-8.637410">
        <ele>104.049</ele>
        <time>2015-03-24T14:02:11Z</time>
      </trkpt>
      <trkpt lat="41.459417" lon="-8.637450">
        <ele>104.029</ele>
        <time>2015-03-24T14:02:13Z</time>
      </trkpt>
      <trkpt lat="41.459583" lon="-8.637498">
        <ele>102.517</ele>
        <time>2015-03-24T14:02:17Z</time>
      </trkpt>
      <trkpt lat="41.459745" lon="-8.637549">
        <ele>102.062</ele>
        <time>2015-03-24T14:02:21Z</time>
      </trkpt>
      <trkpt lat="41.460329" lon="-8.637514">
        <ele>102.579</ele>
        <time>2015-03-24T14:02:36Z</time>
      </trkpt>
      <trkpt lat="41.460702" lon="-8.637224">
        <ele>104.083</ele>
        <time>2015-03-24T14:02:48Z</time>
      </trkpt>
      <trkpt lat="41.460961" lon="-8.637211">
        <ele>104.025</ele>
        <time>2015-03-24T14:02:57Z</time>
      </trkpt>
      <trkpt lat="41.461061" lon="-8.637308">
        <ele>104.917</ele>
        <time>2015-03-24T14:03:02Z</time>
      </trkpt>
      <trkpt lat="41.461131" lon="-8.637274">
        <ele>105.407</ele>
        <time>2015-03-24T14:03:06Z</time>
      </trkpt>
      <trkpt lat="41.461296" lon="-8.636841">
        <ele>104.497</ele>
        <time>2015-03-24T14:03:16Z</time>
      </trkpt>
      <trkpt lat="41.461584" lon="-8.636713">
        <ele>100.610</ele>
        <time>2015-03-24T14:03:22Z</time>
      </trkpt>
      <trkpt lat="41.461652" lon="-8.636721">
        <ele>100.192</ele>
        <time>2015-03-24T14:03:23Z</time>
      </trkpt>
      <trkpt lat="41.461891" lon="-8.636741">
        <ele>98.762</ele>
        <time>2015-03-24T14:03:27Z</time>
      </trkpt>
      <trkpt lat="41.462248" lon="-8.636850">
        <ele>100.190</ele>
        <time>2015-03-24T14:03:37Z</time>
      </trkpt>
      <trkpt lat="41.462533" lon="-8.636574">
        <ele>102.565</ele>
        <time>2015-03-24T14:03:50Z</time>
      </trkpt>
      <trkpt lat="41.462883" lon="-8.636292">
        <ele>103.062</ele>
        <time>2015-03-24T14:04:05Z</time>
      </trkpt>
      <trkpt lat="41.463128" lon="-8.636377">
        <ele>105.469</ele>
        <time>2015-03-24T14:04:18Z</time>
      </trkpt>
      <trkpt lat="41.463205" lon="-8.636380">
        <ele>106.404</ele>
        <time>2015-03-24T14:04:22Z</time>
      </trkpt>
      <trkpt lat="41.463307" lon="-8.636370">
        <ele>107.324</ele>
        <time>2015-03-24T14:04:27Z</time>
      </trkpt>
      <trkpt lat="41.463400" lon="-8.636276">
        <ele>106.807</ele>
        <time>2015-03-24T14:04:32Z</time>
      </trkpt>
      <trkpt lat="41.463666" lon="-8.635896">
        <ele>107.395</ele>
        <time>2015-03-24T14:04:49Z</time>
      </trkpt>
      <trkpt lat="41.463867" lon="-8.635520">
        <ele>110.768</ele>
        <time>2015-03-24T14:05:07Z</time>
      </trkpt>
      <trkpt lat="41.463996" lon="-8.635161">
        <ele>113.650</ele>
        <time>2015-03-24T14:05:24Z</time>
      </trkpt>
      <trkpt lat="41.464260" lon="-8.634905">
        <ele>114.570</ele>
        <time>2015-03-24T14:05:38Z</time>
      </trkpt>
      <trkpt lat="41.464529" lon="-8.635005">
        <ele>115.558</ele>
        <time>2015-03-24T14:05:52Z</time>
      </trkpt>
      <trkpt lat="41.464925" lon="-8.635045">
        <ele>117.463</ele>
        <time>2015-03-24T14:06:11Z</time>
      </trkpt>
      <trkpt lat="41.465266" lon="-8.635275">
        <ele>120.850</ele>
        <time>2015-03-24T14:06:30Z</time>
      </trkpt>
      <trkpt lat="41.465589" lon="-8.635423">
        <ele>121.396</ele>
        <time>2015-03-24T14:06:46Z</time>
      </trkpt>
      <trkpt lat="41.465779" lon="-8.635523">
        <ele>123.731</ele>
        <time>2015-03-24T14:06:56Z</time>
      </trkpt>
      <trkpt lat="41.465911" lon="-8.635611">
        <ele>123.724</ele>
        <time>2015-03-24T14:08:15Z</time>
      </trkpt>
      <trkpt lat="41.465970" lon="-8.635767">
        <ele>123.707</ele>
        <time>2015-03-24T14:08:23Z</time>
      </trkpt>
      <trkpt lat="41.466040" lon="-8.635860">
        <ele>124.228</ele>
        <time>2015-03-24T14:08:28Z</time>
      </trkpt>
      <trkpt lat="41.466382" lon="-8.636154">
        <ele>127.561</ele>
        <time>2015-03-24T14:08:49Z</time>
      </trkpt>
      <trkpt lat="41.466609" lon="-8.636242">
        <ele>126.123</ele>
        <time>2015-03-24T14:08:57Z</time>
      </trkpt>
      <trkpt lat="41.466676" lon="-8.636269">
        <ele>127.523</ele>
        <time>2015-03-24T14:08:59Z</time>
      </trkpt>
      <trkpt lat="41.466741" lon="-8.636298">
        <ele>126.691</ele>
        <time>2015-03-24T14:09:01Z</time>
      </trkpt>
      <trkpt lat="41.467411" lon="-8.636585">
        <ele>125.136</ele>
        <time>2015-03-24T14:09:19Z</time>
      </trkpt>
      <trkpt lat="41.468056" lon="-8.636494">
        <ele>123.743</ele>
        <time>2015-03-24T14:09:33Z</time>
      </trkpt>
      <trkpt lat="41.468696" lon="-8.636031">
        <ele>121.741</ele>
        <time>2015-03-24T14:09:49Z</time>
      </trkpt>
      <trkpt lat="41.469350" lon="-8.635549">
        <ele>119.881</ele>
        <time>2015-03-24T14:10:07Z</time>
      </trkpt>
      <trkpt lat="41.469946" lon="-8.635097">
        <ele>118.409</ele>
        <time>2015-03-24T14:10:23Z</time>
      </trkpt>
      <trkpt lat="41.470333" lon="-8.634810">
        <ele>121.307</ele>
        <time>2015-03-24T14:10:38Z</time>
      </trkpt>
      <trkpt lat="41.470596" lon="-8.634588">
        <ele>123.263</ele>
        <time>2015-03-24T14:10:52Z</time>
      </trkpt>
      <trkpt lat="41.470944" lon="-8.634323">
        <ele>126.156</ele>
        <time>2015-03-24T14:11:09Z</time>
      </trkpt>
      <trkpt lat="41.471265" lon="-8.634126">
        <ele>128.028</ele>
        <time>2015-03-24T14:11:25Z</time>
      </trkpt>
      <trkpt lat="41.471523" lon="-8.634054">
        <ele>132.888</ele>
        <time>2015-03-24T14:11:36Z</time>
      </trkpt>
      <trkpt lat="41.471596" lon="-8.634036">
        <ele>131.416</ele>
        <time>2015-03-24T14:11:40Z</time>
      </trkpt>
      <trkpt lat="41.471690" lon="-8.633989">
        <ele>133.391</ele>
        <time>2015-03-24T14:13:13Z</time>
      </trkpt>
      <trkpt lat="41.471772" lon="-8.633917">
        <ele>133.378</ele>
        <time>2015-03-24T14:13:17Z</time>
      </trkpt>
      <trkpt lat="41.472158" lon="-8.633677">
        <ele>134.733</ele>
        <time>2015-03-24T14:13:34Z</time>
      </trkpt>
      <trkpt lat="41.472526" lon="-8.633556">
        <ele>134.723</ele>
        <time>2015-03-24T14:13:49Z</time>
      </trkpt>
      <trkpt lat="41.472772" lon="-8.633483">
        <ele>137.115</ele>
        <time>2015-03-24T14:13:59Z</time>
      </trkpt>
      <trkpt lat="41.473106" lon="-8.633380">
        <ele>136.207</ele>
        <time>2015-03-24T14:14:13Z</time>
      </trkpt>
      <trkpt lat="41.473178" lon="-8.633351">
        <ele>139.532</ele>
        <time>2015-03-24T14:14:16Z</time>
      </trkpt>
      <trkpt lat="41.473278" lon="-8.633308">
        <ele>137.695</ele>
        <time>2015-03-24T14:14:20Z</time>
      </trkpt>
      <trkpt lat="41.473459" lon="-8.633211">
        <ele>137.127</ele>
        <time>2015-03-24T14:14:28Z</time>
      </trkpt>
      <trkpt lat="41.473594" lon="-8.633141">
        <ele>138.667</ele>
        <time>2015-03-24T14:14:34Z</time>
      </trkpt>
      <trkpt lat="41.473854" lon="-8.633008">
        <ele>141.985</ele>
        <time>2015-03-24T14:14:46Z</time>
      </trkpt>
      <trkpt lat="41.474292" lon="-8.632784">
        <ele>143.410</ele>
        <time>2015-03-24T14:15:05Z</time>
      </trkpt>
      <trkpt lat="41.474417" lon="-8.632721">
        <ele>144.377</ele>
        <time>2015-03-24T14:15:11Z</time>
      </trkpt>
      <trkpt lat="41.474461" lon="-8.632697">
        <ele>142.979</ele>
        <time>2015-03-24T14:15:13Z</time>
      </trkpt>
      <trkpt lat="41.474646" lon="-8.632625">
        <ele>146.305</ele>
        <time>2015-03-24T14:15:21Z</time>
      </trkpt>
      <trkpt lat="41.474813" lon="-8.632593">
        <ele>145.325</ele>
        <time>2015-03-24T14:15:28Z</time>
      </trkpt>
      <trkpt lat="41.475248" lon="-8.632459">
        <ele>145.307</ele>
        <time>2015-03-24T14:15:44Z</time>
      </trkpt>
      <trkpt lat="41.475591" lon="-8.632271">
        <ele>147.726</ele>
        <time>2015-03-24T14:15:58Z</time>
      </trkpt>
      <trkpt lat="41.476013" lon="-8.632024">
        <ele>149.149</ele>
        <time>2015-03-24T14:16:16Z</time>
      </trkpt>
      <trkpt lat="41.476424" lon="-8.631802">
        <ele>150.691</ele>
        <time>2015-03-24T14:16:33Z</time>
      </trkpt>
      <trkpt lat="41.476783" lon="-8.631586">
        <ele>153.081</ele>
        <time>2015-03-24T14:16:49Z</time>
      </trkpt>
      <trkpt lat="41.476995" lon="-8.631463">
        <ele>155.989</ele>
        <time>2015-03-24T14:17:00Z</time>
      </trkpt>
      <trkpt lat="41.477073" lon="-8.631422">
        <ele>154.464</ele>
        <time>2015-03-24T14:17:04Z</time>
      </trkpt>
      <trkpt lat="41.477344" lon="-8.631266">
        <ele>156.461</ele>
        <time>2015-03-24T14:17:19Z</time>
      </trkpt>
      <trkpt lat="41.477385" lon="-8.631241">
        <ele>157.835</ele>
        <time>2015-03-24T14:17:21Z</time>
      </trkpt>
      <trkpt lat="41.477720" lon="-8.631084">
        <ele>158.386</ele>
        <time>2015-03-24T14:17:38Z</time>
      </trkpt>
      <trkpt lat="41.478043" lon="-8.631090">
        <ele>159.714</ele>
        <time>2015-03-24T14:17:53Z</time>
      </trkpt>
      <trkpt lat="41.478175" lon="-8.631117">
        <ele>158.307</ele>
        <time>2015-03-24T14:17:58Z</time>
      </trkpt>
      <trkpt lat="41.478365" lon="-8.631176">
        <ele>160.272</ele>
        <time>2015-03-24T14:18:06Z</time>
      </trkpt>
      <trkpt lat="41.478736" lon="-8.631232">
        <ele>161.675</ele>
        <time>2015-03-24T14:18:18Z</time>
      </trkpt>
      <trkpt lat="41.478802" lon="-8.631246">
        <ele>160.287</ele>
        <time>2015-03-24T14:18:20Z</time>
      </trkpt>
      <trkpt lat="41.479330" lon="-8.631371">
        <ele>159.737</ele>
        <time>2015-03-24T14:18:35Z</time>
      </trkpt>
      <trkpt lat="41.479686" lon="-8.631435">
        <ele>156.465</ele>
        <time>2015-03-24T14:18:43Z</time>
      </trkpt>
      <trkpt lat="41.479731" lon="-8.631443">
        <ele>156.480</ele>
        <time>2015-03-24T14:18:44Z</time>
      </trkpt>
      <trkpt lat="41.480037" lon="-8.631507">
        <ele>152.557</ele>
        <time>2015-03-24T14:18:50Z</time>
      </trkpt>
      <trkpt lat="41.480554" lon="-8.631609">
        <ele>150.638</ele>
        <time>2015-03-24T14:18:59Z</time>
      </trkpt>
      <trkpt lat="41.480827" lon="-8.631658">
        <ele>148.770</ele>
        <time>2015-03-24T14:19:04Z</time>
      </trkpt>
      <trkpt lat="41.480919" lon="-8.631679">
        <ele>148.217</ele>
        <time>2015-03-24T14:19:06Z</time>
      </trkpt>
      <trkpt lat="41.481064" lon="-8.631748">
        <ele>147.207</ele>
        <time>2015-03-24T14:19:10Z</time>
      </trkpt>
      <trkpt lat="41.481541" lon="-8.632106">
        <ele>143.492</ele>
        <time>2015-03-24T14:19:21Z</time>
      </trkpt>
      <trkpt lat="41.481676" lon="-8.632203">
        <ele>141.095</ele>
        <time>2015-03-24T14:19:24Z</time>
      </trkpt>
      <trkpt lat="41.481999" lon="-8.632194">
        <ele>139.537</ele>
        <time>2015-03-24T14:19:30Z</time>
      </trkpt>
      <trkpt lat="41.482451" lon="-8.631999">
        <ele>135.217</ele>
        <time>2015-03-24T14:19:38Z</time>
      </trkpt>
      <trkpt lat="41.482560" lon="-8.631952">
        <ele>134.735</ele>
        <time>2015-03-24T14:19:40Z</time>
      </trkpt>
      <trkpt lat="41.482890" lon="-8.631816">
        <ele>131.440</ele>
        <time>2015-03-24T14:19:46Z</time>
      </trkpt>
      <trkpt lat="41.483200" lon="-8.631688">
        <ele>129.987</ele>
        <time>2015-03-24T14:19:51Z</time>
      </trkpt>
      <trkpt lat="41.483858" lon="-8.631400">
        <ele>128.093</ele>
        <time>2015-03-24T14:20:04Z</time>
      </trkpt>
      <trkpt lat="41.484597" lon="-8.631433">
        <ele>125.665</ele>
        <time>2015-03-24T14:20:18Z</time>
      </trkpt>
      <trkpt lat="41.485188" lon="-8.631227">
        <ele>125.121</ele>
        <time>2015-03-24T14:20:31Z</time>
      </trkpt>
      <trkpt lat="41.485760" lon="-8.631004">
        <ele>125.607</ele>
        <time>2015-03-24T14:20:46Z</time>
      </trkpt>
      <trkpt lat="41.485939" lon="-8.630918">
        <ele>124.688</ele>
        <time>2015-03-24T14:20:50Z</time>
      </trkpt>
      <trkpt lat="41.486242" lon="-8.630717">
        <ele>125.191</ele>
        <time>2015-03-24T14:20:57Z</time>
      </trkpt>
      <trkpt lat="41.486937" lon="-8.630158">
        <ele>126.153</ele>
        <time>2015-03-24T14:21:15Z</time>
      </trkpt>
      <trkpt lat="41.487085" lon="-8.630038">
        <ele>125.113</ele>
        <time>2015-03-24T14:21:19Z</time>
      </trkpt>
      <trkpt lat="41.487263" lon="-8.629912">
        <ele>126.131</ele>
        <time>2015-03-24T14:21:24Z</time>
      </trkpt>
      <trkpt lat="41.487901" lon="-8.629678">
        <ele>125.126</ele>
        <time>2015-03-24T14:21:40Z</time>
      </trkpt>
      <trkpt lat="41.488112" lon="-8.629635">
        <ele>124.293</ele>
        <time>2015-03-24T14:21:45Z</time>
      </trkpt>
      <trkpt lat="41.488293" lon="-8.629653">
        <ele>125.174</ele>
        <time>2015-03-24T14:21:52Z</time>
      </trkpt>
      <trkpt lat="41.488488" lon="-8.629853">
        <ele>126.656</ele>
        <time>2015-03-24T14:22:05Z</time>
      </trkpt>
      <trkpt lat="41.488692" lon="-8.630175">
        <ele>126.121</ele>
        <time>2015-03-24T14:22:18Z</time>
      </trkpt>
      <trkpt lat="41.489025" lon="-8.630243">
        <ele>125.107</ele>
        <time>2015-03-24T14:22:29Z</time>
      </trkpt>
      <trkpt lat="41.489221" lon="-8.630245">
        <ele>123.256</ele>
        <time>2015-03-24T14:22:34Z</time>
      </trkpt>
      <trkpt lat="41.489482" lon="-8.630408">
        <ele>119.359</ele>
        <time>2015-03-24T14:22:40Z</time>
      </trkpt>
      <trkpt lat="41.489667" lon="-8.630536">
        <ele>115.531</ele>
        <time>2015-03-24T14:22:43Z</time>
      </trkpt>
      <trkpt lat="41.489882" lon="-8.630678">
        <ele>112.631</ele>
        <time>2015-03-24T14:22:46Z</time>
      </trkpt>
      <trkpt lat="41.490019" lon="-8.630756">
        <ele>111.799</ele>
        <time>2015-03-24T14:22:48Z</time>
      </trkpt>
      <trkpt lat="41.490292" lon="-8.630944">
        <ele>109.334</ele>
        <time>2015-03-24T14:22:52Z</time>
      </trkpt>
      <trkpt lat="41.490486" lon="-8.631064">
        <ele>105.931</ele>
        <time>2015-03-24T14:22:55Z</time>
      </trkpt>
      <trkpt lat="41.490612" lon="-8.631139">
        <ele>104.943</ele>
        <time>2015-03-24T14:22:57Z</time>
      </trkpt>
      <trkpt lat="41.490847" lon="-8.631284">
        <ele>103.564</ele>
        <time>2015-03-24T14:23:01Z</time>
      </trkpt>
      <trkpt lat="41.491314" lon="-8.631792">
        <ele>101.610</ele>
        <time>2015-03-24T14:23:14Z</time>
      </trkpt>
      <trkpt lat="41.491722" lon="-8.632224">
        <ele>97.707</ele>
        <time>2015-03-24T14:23:26Z</time>
      </trkpt>
      <trkpt lat="41.491847" lon="-8.632315">
        <ele>97.753</ele>
        <time>2015-03-24T14:23:29Z</time>
      </trkpt>
      <trkpt lat="41.492087" lon="-8.632324">
        <ele>96.326</ele>
        <time>2015-03-24T14:23:34Z</time>
      </trkpt>
      <trkpt lat="41.492231" lon="-8.632271">
        <ele>96.388</ele>
        <time>2015-03-24T14:23:37Z</time>
      </trkpt>
      <trkpt lat="41.492416" lon="-8.632303">
        <ele>95.858</ele>
        <time>2015-03-24T14:23:41Z</time>
      </trkpt>
      <trkpt lat="41.492912" lon="-8.632361">
        <ele>96.826</ele>
        <time>2015-03-24T14:23:55Z</time>
      </trkpt>
      <trkpt lat="41.493419" lon="-8.632375">
        <ele>97.231</ele>
        <time>2015-03-24T14:24:10Z</time>
      </trkpt>
      <trkpt lat="41.493740" lon="-8.632547">
        <ele>99.698</ele>
        <time>2015-03-24T14:33:16Z</time>
      </trkpt>
      <trkpt lat="41.493898" lon="-8.632560">
        <ele>100.626</ele>
        <time>2015-03-24T14:40:26Z</time>
      </trkpt>
      <trkpt lat="41.494009" lon="-8.632678">
        <ele>100.647</ele>
        <time>2015-03-24T14:40:33Z</time>
      </trkpt>
      <trkpt lat="41.494273" lon="-8.633035">
        <ele>100.611</ele>
        <time>2015-03-24T14:40:50Z</time>
      </trkpt>
      <trkpt lat="41.494517" lon="-8.633367">
        <ele>101.607</ele>
        <time>2015-03-24T14:41:06Z</time>
      </trkpt>
      <trkpt lat="41.494895" lon="-8.633480">
        <ele>101.621</ele>
        <time>2015-03-24T14:41:23Z</time>
      </trkpt>
      <trkpt lat="41.495239" lon="-8.633566">
        <ele>103.014</ele>
        <time>2015-03-24T14:41:39Z</time>
      </trkpt>
      <trkpt lat="41.495602" lon="-8.633568">
        <ele>104.056</ele>
        <time>2015-03-24T14:41:55Z</time>
      </trkpt>
      <trkpt lat="41.495934" lon="-8.633325">
        <ele>104.966</ele>
        <time>2015-03-24T14:42:10Z</time>
      </trkpt>
      <trkpt lat="41.496197" lon="-8.633058">
        <ele>104.914</ele>
        <time>2015-03-24T14:42:24Z</time>
      </trkpt>
      <trkpt lat="41.496554" lon="-8.632863">
        <ele>107.329</ele>
        <time>2015-03-24T14:42:43Z</time>
      </trkpt>
      <trkpt lat="41.496752" lon="-8.632796">
        <ele>108.856</ele>
        <time>2015-03-24T14:42:55Z</time>
      </trkpt>
      <trkpt lat="41.497025" lon="-8.632796">
        <ele>112.131</ele>
        <time>2015-03-24T14:43:11Z</time>
      </trkpt>
      <trkpt lat="41.497229" lon="-8.633042">
        <ele>112.661</ele>
        <time>2015-03-24T14:43:26Z</time>
      </trkpt>
      <trkpt lat="41.497484" lon="-8.633330">
        <ele>114.107</ele>
        <time>2015-03-24T14:43:43Z</time>
      </trkpt>
      <trkpt lat="41.497734" lon="-8.633607">
        <ele>115.507</ele>
        <time>2015-03-24T14:43:59Z</time>
      </trkpt>
      <trkpt lat="41.498074" lon="-8.633819">
        <ele>116.912</ele>
        <time>2015-03-24T14:44:17Z</time>
      </trkpt>
      <trkpt lat="41.498492" lon="-8.633819">
        <ele>115.535</ele>
        <time>2015-03-24T14:44:31Z</time>
      </trkpt>
      <trkpt lat="41.498963" lon="-8.633886">
        <ele>115.077</ele>
        <time>2015-03-24T14:44:46Z</time>
      </trkpt>
      <trkpt lat="41.499419" lon="-8.634347">
        <ele>114.187</ele>
        <time>2015-03-24T14:45:03Z</time>
      </trkpt>
      <trkpt lat="41.499530" lon="-8.634800">
        <ele>111.755</ele>
        <time>2015-03-24T14:45:13Z</time>
      </trkpt>
      <trkpt lat="41.499585" lon="-8.635785">
        <ele>111.210</ele>
        <time>2015-03-24T14:45:34Z</time>
      </trkpt>
      <trkpt lat="41.499765" lon="-8.636089">
        <ele>110.257</ele>
        <time>2015-03-24T14:45:42Z</time>
      </trkpt>
      <trkpt lat="41.500113" lon="-8.636491">
        <ele>109.334</ele>
        <time>2015-03-24T14:45:52Z</time>
      </trkpt>
      <trkpt lat="41.500327" lon="-8.637029">
        <ele>107.355</ele>
        <time>2015-03-24T14:46:02Z</time>
      </trkpt>
      <trkpt lat="41.500425" lon="-8.637175">
        <ele>106.810</ele>
        <time>2015-03-24T14:46:05Z</time>
      </trkpt>
      <trkpt lat="41.500590" lon="-8.637267">
        <ele>105.907</ele>
        <time>2015-03-24T14:46:13Z</time>
      </trkpt>
      <trkpt lat="41.500663" lon="-8.637313">
        <ele>105.492</ele>
        <time>2015-03-24T14:46:38Z</time>
      </trkpt>
      <trkpt lat="41.501056" lon="-8.637639">
        <ele>103.025</ele>
        <time>2015-03-24T14:46:50Z</time>
      </trkpt>
      <trkpt lat="41.501250" lon="-8.637796">
        <ele>101.137</ele>
        <time>2015-03-24T14:46:55Z</time>
      </trkpt>
      <trkpt lat="41.501423" lon="-8.637953">
        <ele>99.267</ele>
        <time>2015-03-24T14:46:59Z</time>
      </trkpt>
      <trkpt lat="41.501775" lon="-8.638229">
        <ele>95.815</ele>
        <time>2015-03-24T14:47:05Z</time>
      </trkpt>
      <trkpt lat="41.501962" lon="-8.638374">
        <ele>94.430</ele>
        <time>2015-03-24T14:47:08Z</time>
      </trkpt>
      <trkpt lat="41.502944" lon="-8.638871">
        <ele>91.557</ele>
        <time>2015-03-24T14:47:23Z</time>
      </trkpt>
      <trkpt lat="41.503186" lon="-8.638993">
        <ele>88.128</ele>
        <time>2015-03-24T14:47:27Z</time>
      </trkpt>
      <trkpt lat="41.503517" lon="-8.639207">
        <ele>84.789</ele>
        <time>2015-03-24T14:47:33Z</time>
      </trkpt>
      <trkpt lat="41.503572" lon="-8.639259">
        <ele>84.717</ele>
        <time>2015-03-24T14:47:34Z</time>
      </trkpt>
      <trkpt lat="41.503851" lon="-8.639615">
        <ele>83.307</ele>
        <time>2015-03-24T14:47:40Z</time>
      </trkpt>
      <trkpt lat="41.504180" lon="-8.639653">
        <ele>82.331</ele>
        <time>2015-03-24T14:47:46Z</time>
      </trkpt>
      <trkpt lat="41.504927" lon="-8.639251">
        <ele>79.574</ele>
        <time>2015-03-24T14:48:00Z</time>
      </trkpt>
      <trkpt lat="41.504986" lon="-8.639202">
        <ele>79.046</ele>
        <time>2015-03-24T14:48:01Z</time>
      </trkpt>
      <trkpt lat="41.505108" lon="-8.639084">
        <ele>78.026</ele>
        <time>2015-03-24T14:48:03Z</time>
      </trkpt>
      <trkpt lat="41.505241" lon="-8.638935">
        <ele>74.624</ele>
        <time>2015-03-24T14:48:05Z</time>
      </trkpt>
      <trkpt lat="41.505535" lon="-8.638615">
        <ele>71.399</ele>
        <time>2015-03-24T14:48:09Z</time>
      </trkpt>
      <trkpt lat="41.505612" lon="-8.638546">
        <ele>71.396</ele>
        <time>2015-03-24T14:48:10Z</time>
      </trkpt>
      <trkpt lat="41.505686" lon="-8.638485">
        <ele>71.356</ele>
        <time>2015-03-24T14:48:11Z</time>
      </trkpt>
      <trkpt lat="41.505978" lon="-8.638348">
        <ele>70.359</ele>
        <time>2015-03-24T14:48:15Z</time>
      </trkpt>
      <trkpt lat="41.506340" lon="-8.638250">
        <ele>68.914</ele>
        <time>2015-03-24T14:48:21Z</time>
      </trkpt>
      <trkpt lat="41.506505" lon="-8.638099">
        <ele>68.907</ele>
        <time>2015-03-24T14:48:25Z</time>
      </trkpt>
      <trkpt lat="41.506785" lon="-8.637297">
        <ele>65.534</ele>
        <time>2015-03-24T14:48:35Z</time>
      </trkpt>
      <trkpt lat="41.506936" lon="-8.636768">
        <ele>64.677</ele>
        <time>2015-03-24T14:48:41Z</time>
      </trkpt>
      <trkpt lat="41.507128" lon="-8.636574">
        <ele>62.129</ele>
        <time>2015-03-24T14:48:45Z</time>
      </trkpt>
      <trkpt lat="41.507192" lon="-8.636572">
        <ele>62.199</ele>
        <time>2015-03-24T14:48:46Z</time>
      </trkpt>
      <trkpt lat="41.507713" lon="-8.636483">
        <ele>58.397</ele>
        <time>2015-03-24T14:48:53Z</time>
      </trkpt>
      <trkpt lat="41.508705" lon="-8.636128">
        <ele>56.932</ele>
        <time>2015-03-24T14:49:08Z</time>
      </trkpt>
      <trkpt lat="41.509360" lon="-8.635805">
        <ele>56.469</ele>
        <time>2015-03-24T14:49:22Z</time>
      </trkpt>
      <trkpt lat="41.510097" lon="-8.635316">
        <ele>54.528</ele>
        <time>2015-03-24T14:49:38Z</time>
      </trkpt>
      <trkpt lat="41.510259" lon="-8.635225">
        <ele>53.589</ele>
        <time>2015-03-24T14:49:42Z</time>
      </trkpt>
      <trkpt lat="41.510529" lon="-8.635087">
        <ele>53.017</ele>
        <time>2015-03-24T14:49:49Z</time>
      </trkpt>
      <trkpt lat="41.510656" lon="-8.635487">
        <ele>51.607</ele>
        <time>2015-03-24T14:49:58Z</time>
      </trkpt>
      <trkpt lat="41.510765" lon="-8.635866">
        <ele>50.651</ele>
        <time>2015-03-24T14:50:04Z</time>
      </trkpt>
      <trkpt lat="41.510872" lon="-8.635886">
        <ele>50.124</ele>
        <time>2015-03-24T14:50:08Z</time>
      </trkpt>
      <trkpt lat="41.511045" lon="-8.635824">
        <ele>49.736</ele>
        <time>2015-03-24T14:50:13Z</time>
      </trkpt>
      <trkpt lat="41.511174" lon="-8.635872">
        <ele>48.766</ele>
        <time>2015-03-24T14:50:16Z</time>
      </trkpt>
      <trkpt lat="41.511431" lon="-8.636025">
        <ele>46.384</ele>
        <time>2015-03-24T14:50:21Z</time>
      </trkpt>
      <trkpt lat="41.511829" lon="-8.636050">
        <ele>42.429</ele>
        <time>2015-03-24T14:50:27Z</time>
      </trkpt>
      <trkpt lat="41.511982" lon="-8.636229">
        <ele>40.586</ele>
        <time>2015-03-24T14:50:30Z</time>
      </trkpt>
      <trkpt lat="41.512006" lon="-8.636316">
        <ele>40.569</ele>
        <time>2015-03-24T14:50:31Z</time>
      </trkpt>
      <trkpt lat="41.512152" lon="-8.636728">
        <ele>39.104</ele>
        <time>2015-03-24T14:50:36Z</time>
      </trkpt>
      <trkpt lat="41.512495" lon="-8.637635">
        <ele>38.624</ele>
        <time>2015-03-24T14:50:51Z</time>
      </trkpt>
      <trkpt lat="41.512722" lon="-8.638151">
        <ele>40.007</ele>
        <time>2015-03-24T14:51:02Z</time>
      </trkpt>
      <trkpt lat="41.512825" lon="-8.638284">
        <ele>40.025</ele>
        <time>2015-03-24T14:51:06Z</time>
      </trkpt>
      <trkpt lat="41.512862" lon="-8.638421">
        <ele>40.598</ele>
        <time>2015-03-24T14:51:10Z</time>
      </trkpt>
      <trkpt lat="41.512759" lon="-8.638664">
        <ele>42.910</ele>
        <time>2015-03-24T14:51:19Z</time>
      </trkpt>
      <trkpt lat="41.512442" lon="-8.639084">
        <ele>42.410</ele>
        <time>2015-03-24T14:51:34Z</time>
      </trkpt>
      <trkpt lat="41.512384" lon="-8.639193">
        <ele>41.558</ele>
        <time>2015-03-24T14:51:36Z</time>
      </trkpt>
      <trkpt lat="41.512233" lon="-8.639577">
        <ele>39.663</ele>
        <time>2015-03-24T14:51:42Z</time>
      </trkpt>
      <trkpt lat="41.512217" lon="-8.639924">
        <ele>40.060</ele>
        <time>2015-03-24T14:51:47Z</time>
      </trkpt>
      <trkpt lat="41.512348" lon="-8.640227">
        <ele>39.634</ele>
        <time>2015-03-24T14:51:53Z</time>
      </trkpt>
      <trkpt lat="41.512829" lon="-8.640563">
        <ele>42.055</ele>
        <time>2015-03-24T14:52:09Z</time>
      </trkpt>
      <trkpt lat="41.513214" lon="-8.640589">
        <ele>42.910</ele>
        <time>2015-03-24T14:52:22Z</time>
      </trkpt>
      <trkpt lat="41.513449" lon="-8.640595">
        <ele>42.007</ele>
        <time>2015-03-24T14:52:29Z</time>
      </trkpt>
      <trkpt lat="41.513760" lon="-8.640588">
        <ele>40.062</ele>
        <time>2015-03-24T14:52:37Z</time>
      </trkpt>
      <trkpt lat="41.514085" lon="-8.640441">
        <ele>38.125</ele>
        <time>2015-03-24T14:52:44Z</time>
      </trkpt>
      <trkpt lat="41.514519" lon="-8.640181">
        <ele>37.257</ele>
        <time>2015-03-24T14:52:56Z</time>
      </trkpt>
      <trkpt lat="41.514859" lon="-8.639602">
        <ele>37.277</ele>
        <time>2015-03-24T14:53:10Z</time>
      </trkpt>
      <trkpt lat="41.515005" lon="-8.639346">
        <ele>36.775</ele>
        <time>2015-03-24T14:53:16Z</time>
      </trkpt>
      <trkpt lat="41.515289" lon="-8.638719">
        <ele>32.370</ele>
        <time>2015-03-24T14:53:26Z</time>
      </trkpt>
      <trkpt lat="41.515322" lon="-8.638636">
        <ele>32.367</ele>
        <time>2015-03-24T14:53:27Z</time>
      </trkpt>
      <trkpt lat="41.515396" lon="-8.638480">
        <ele>31.914</ele>
        <time>2015-03-24T14:53:29Z</time>
      </trkpt>
      <trkpt lat="41.515450" lon="-8.638348">
        <ele>30.954</ele>
        <time>2015-03-24T14:53:31Z</time>
      </trkpt>
      <trkpt lat="41.515515" lon="-8.638206">
        <ele>32.809</ele>
        <time>2015-03-24T14:53:34Z</time>
      </trkpt>
      <trkpt lat="41.515670" lon="-8.637898">
        <ele>35.707</ele>
        <time>2015-03-24T14:53:47Z</time>
      </trkpt>
      <trkpt lat="41.515858" lon="-8.637537">
        <ele>38.660</ele>
        <time>2015-03-24T14:54:04Z</time>
      </trkpt>
      <trkpt lat="41.515997" lon="-8.637234">
        <ele>40.573</ele>
        <time>2015-03-24T14:54:18Z</time>
      </trkpt>
      <trkpt lat="41.516205" lon="-8.636843">
        <ele>42.055</ele>
        <time>2015-03-24T14:54:35Z</time>
      </trkpt>
      <trkpt lat="41.516398" lon="-8.636464">
        <ele>43.465</ele>
        <time>2015-03-24T14:54:52Z</time>
      </trkpt>
      <trkpt lat="41.516520" lon="-8.636100">
        <ele>45.843</ele>
        <time>2015-03-24T14:55:08Z</time>
      </trkpt>
      <trkpt lat="41.516756" lon="-8.635890">
        <ele>46.378</ele>
        <time>2015-03-24T14:55:22Z</time>
      </trkpt>
      <trkpt lat="41.517098" lon="-8.635647">
        <ele>47.235</ele>
        <time>2015-03-24T14:55:39Z</time>
      </trkpt>
      <trkpt lat="41.517481" lon="-8.635389">
        <ele>48.248</ele>
        <time>2015-03-24T14:55:56Z</time>
      </trkpt>
      <trkpt lat="41.517799" lon="-8.635092">
        <ele>48.261</ele>
        <time>2015-03-24T14:56:08Z</time>
      </trkpt>
      <trkpt lat="41.518006" lon="-8.634675">
        <ele>45.317</ele>
        <time>2015-03-24T14:56:18Z</time>
      </trkpt>
      <trkpt lat="41.518290" lon="-8.634110">
        <ele>43.907</ele>
        <time>2015-03-24T14:56:32Z</time>
      </trkpt>
      <trkpt lat="41.518729" lon="-8.633463">
        <ele>43.983</ele>
        <time>2015-03-24T14:56:51Z</time>
      </trkpt>
      <trkpt lat="41.519109" lon="-8.632936">
        <ele>42.986</ele>
        <time>2015-03-24T14:57:05Z</time>
      </trkpt>
      <trkpt lat="41.519444" lon="-8.632435">
        <ele>44.498</ele>
        <time>2015-03-24T14:57:19Z</time>
      </trkpt>
      <trkpt lat="41.519523" lon="-8.632303">
        <ele>42.958</ele>
        <time>2015-03-24T14:57:23Z</time>
      </trkpt>
      <trkpt lat="41.519624" lon="-8.632156">
        <ele>44.426</ele>
        <time>2015-03-24T14:57:28Z</time>
      </trkpt>
      <trkpt lat="41.519722" lon="-8.632065">
        <ele>42.071</ele>
        <time>2015-03-24T14:57:32Z</time>
      </trkpt>
      <trkpt lat="41.519787" lon="-8.632027">
        <ele>42.958</ele>
        <time>2015-03-24T14:57:34Z</time>
      </trkpt>
      <trkpt lat="41.519966" lon="-8.631924">
        <ele>42.948</ele>
        <time>2015-03-24T14:57:39Z</time>
      </trkpt>
      <trkpt lat="41.520036" lon="-8.631855">
        <ele>41.561</ele>
        <time>2015-03-24T14:57:41Z</time>
      </trkpt>
      <trkpt lat="41.520068" lon="-8.631761">
        <ele>41.517</ele>
        <time>2015-03-24T14:57:43Z</time>
      </trkpt>
      <trkpt lat="41.520105" lon="-8.631494">
        <ele>42.907</ele>
        <time>2015-03-24T14:57:49Z</time>
      </trkpt>
      <trkpt lat="41.520245" lon="-8.630991">
        <ele>44.413</ele>
        <time>2015-03-24T14:58:02Z</time>
      </trkpt>
      <trkpt lat="41.520576" lon="-8.630288">
        <ele>44.456</ele>
        <time>2015-03-24T14:58:19Z</time>
      </trkpt>
      <trkpt lat="41.520607" lon="-8.630216">
        <ele>43.428</ele>
        <time>2015-03-24T14:58:21Z</time>
      </trkpt>
      <trkpt lat="41.520332" lon="-8.629802">
        <ele>44.838</ele>
        <time>2015-03-24T14:58:33Z</time>
      </trkpt>
      <trkpt lat="41.520216" lon="-8.629695">
        <ele>46.886</ele>
        <time>2015-03-24T14:58:37Z</time>
      </trkpt>
      <trkpt lat="41.520110" lon="-8.629573">
        <ele>45.831</ele>
        <time>2015-03-24T14:58:41Z</time>
      </trkpt>
      <trkpt lat="41.520010" lon="-8.629447">
        <ele>47.228</ele>
        <time>2015-03-24T14:58:45Z</time>
      </trkpt>
      <trkpt lat="41.519839" lon="-8.629241">
        <ele>47.288</ele>
        <time>2015-03-24T14:58:52Z</time>
      </trkpt>
      <trkpt lat="41.519854" lon="-8.629081">
        <ele>48.224</ele>
        <time>2015-03-24T14:58:56Z</time>
      </trkpt>
      <trkpt lat="41.520136" lon="-8.628907">
        <ele>48.226</ele>
        <time>2015-03-24T14:59:07Z</time>
      </trkpt>
      <trkpt lat="41.520202" lon="-8.628965">
        <ele>48.207</ele>
        <time>2015-03-24T14:59:09Z</time>
      </trkpt>
      <trkpt lat="41.520385" lon="-8.629102">
        <ele>46.867</ele>
        <time>2015-03-24T14:59:14Z</time>
      </trkpt>
      <trkpt lat="41.520621" lon="-8.629220">
        <ele>44.860</ele>
        <time>2015-03-24T14:59:20Z</time>
      </trkpt>
      <trkpt lat="41.520803" lon="-8.629187">
        <ele>44.862</ele>
        <time>2015-03-24T14:59:24Z</time>
      </trkpt>
      <trkpt lat="41.521019" lon="-8.629027">
        <ele>44.892</ele>
        <time>2015-03-24T14:59:30Z</time>
      </trkpt>
      <trkpt lat="41.521151" lon="-8.628910">
        <ele>44.830</ele>
        <time>2015-03-24T14:59:34Z</time>
      </trkpt>
      <trkpt lat="41.521307" lon="-8.628846">
        <ele>44.855</ele>
        <time>2015-03-24T14:59:38Z</time>
      </trkpt>
      <trkpt lat="41.521589" lon="-8.628835">
        <ele>46.372</ele>
        <time>2015-03-24T14:59:45Z</time>
      </trkpt>
      <trkpt lat="41.521784" lon="-8.628736">
        <ele>46.331</ele>
        <time>2015-03-24T14:59:50Z</time>
      </trkpt>
      <trkpt lat="41.521938" lon="-8.628562">
        <ele>46.361</ele>
        <time>2015-03-24T14:59:55Z</time>
      </trkpt>
      <trkpt lat="41.522048" lon="-8.628420">
        <ele>46.307</ele>
        <time>2015-03-24T14:59:59Z</time>
      </trkpt>
      <trkpt lat="41.522212" lon="-8.627959">
        <ele>44.407</ele>
        <time>2015-03-24T15:00:12Z</time>
      </trkpt>
      <trkpt lat="41.522256" lon="-8.627819">
        <ele>45.812</ele>
        <time>2015-03-24T15:00:15Z</time>
      </trkpt>
      <trkpt lat="41.522337" lon="-8.627685">
        <ele>43.975</ele>
        <time>2015-03-24T15:00:19Z</time>
      </trkpt>
      <trkpt lat="41.522471" lon="-8.627702">
        <ele>43.967</ele>
        <time>2015-03-24T15:00:24Z</time>
      </trkpt>
      <trkpt lat="41.522535" lon="-8.627679">
        <ele>45.317</ele>
        <time>2015-03-24T15:00:28Z</time>
      </trkpt>
      <trkpt lat="41.522568" lon="-8.627629">
        <ele>45.365</ele>
        <time>2015-03-24T15:00:30Z</time>
      </trkpt>
      <trkpt lat="41.522917" lon="-8.627029">
        <ele>45.820</ele>
        <time>2015-03-24T15:00:45Z</time>
      </trkpt>
      <trkpt lat="41.523218" lon="-8.626493">
        <ele>45.817</ele>
        <time>2015-03-24T15:00:57Z</time>
      </trkpt>
      <trkpt lat="41.523587" lon="-8.625898">
        <ele>47.218</ele>
        <time>2015-03-24T15:01:11Z</time>
      </trkpt>
      <trkpt lat="41.523910" lon="-8.625363">
        <ele>47.298</ele>
        <time>2015-03-24T15:01:25Z</time>
      </trkpt>
      <trkpt lat="41.523965" lon="-8.625286">
        <ele>42.417</ele>
        <time>2015-03-24T15:01:27Z</time>
      </trkpt>
      <trkpt lat="41.524018" lon="-8.625210">
        <ele>42.007</ele>
        <time>2015-03-24T15:01:29Z</time>
      </trkpt>
      <trkpt lat="41.524066" lon="-8.625128">
        <ele>45.340</ele>
        <time>2015-03-24T15:01:31Z</time>
      </trkpt>
      <trkpt lat="41.524128" lon="-8.625025">
        <ele>46.353</ele>
        <time>2015-03-24T15:01:33Z</time>
      </trkpt>
      <trkpt lat="41.524639" lon="-8.624150">
        <ele>43.955</ele>
        <time>2015-03-24T15:01:50Z</time>
      </trkpt>
      <trkpt lat="41.524667" lon="-8.624095">
        <ele>43.955</ele>
        <time>2015-03-24T15:01:51Z</time>
      </trkpt>
      <trkpt lat="41.524755" lon="-8.623939">
        <ele>43.913</ele>
        <time>2015-03-24T15:01:54Z</time>
      </trkpt>
      <trkpt lat="41.524799" lon="-8.623847">
        <ele>45.898</ele>
        <time>2015-03-24T15:01:56Z</time>
      </trkpt>
      <trkpt lat="41.524841" lon="-8.623763">
        <ele>41.515</ele>
        <time>2015-03-24T15:01:58Z</time>
      </trkpt>
      <trkpt lat="41.525256" lon="-8.622945">
        <ele>42.992</ele>
        <time>2015-03-24T15:02:14Z</time>
      </trkpt>
      <trkpt lat="41.525313" lon="-8.622836">
        <ele>41.573</ele>
        <time>2015-03-24T15:02:16Z</time>
      </trkpt>
      <trkpt lat="41.525614" lon="-8.622196">
        <ele>38.120</ele>
        <time>2015-03-24T15:02:28Z</time>
      </trkpt>
      <trkpt lat="41.525772" lon="-8.621946">
        <ele>37.207</ele>
        <time>2015-03-24T15:02:39Z</time>
      </trkpt>
      <trkpt lat="41.525874" lon="-8.622009">
        <ele>35.278</ele>
        <time>2015-03-24T15:02:59Z</time>
      </trkpt>
      <trkpt lat="41.526151" lon="-8.622107">
        <ele>31.951</ele>
        <time>2015-03-24T15:03:07Z</time>
      </trkpt>
      <trkpt lat="41.526465" lon="-8.622246">
        <ele>28.543</ele>
        <time>2015-03-24T15:03:14Z</time>
      </trkpt>
      <trkpt lat="41.526701" lon="-8.622308">
        <ele>26.123</ele>
        <time>2015-03-24T15:03:20Z</time>
      </trkpt>
      <trkpt lat="41.526745" lon="-8.622364">
        <ele>26.141</ele>
        <time>2015-03-24T15:03:31Z</time>
      </trkpt>
      <trkpt lat="41.526798" lon="-8.622453">
        <ele>26.156</ele>
        <time>2015-03-24T15:03:49Z</time>
      </trkpt>
      <trkpt lat="41.526968" lon="-8.622848">
        <ele>26.153</ele>
        <time>2015-03-24T15:04:00Z</time>
      </trkpt>
      <trkpt lat="41.527015" lon="-8.623419">
        <ele>27.116</ele>
        <time>2015-03-24T15:04:14Z</time>
      </trkpt>
      <trkpt lat="41.527044" lon="-8.623780">
        <ele>27.176</ele>
        <time>2015-03-24T15:04:26Z</time>
      </trkpt>
      <trkpt lat="41.527053" lon="-8.623925">
        <ele>26.113</ele>
        <time>2015-03-24T15:04:42Z</time>
      </trkpt>
      <trkpt lat="41.527062" lon="-8.623985">
        <ele>27.107</ele>
        <time>2015-03-24T15:04:49Z</time>
      </trkpt>
      <trkpt lat="41.527076" lon="-8.624051">
        <ele>26.690</ele>
        <time>2015-03-24T15:06:27Z</time>
      </trkpt>
      <trkpt lat="41.527008" lon="-8.623936">
        <ele>26.123</ele>
        <time>2015-03-25T07:49:41Z</time>
      </trkpt>
      <trkpt lat="41.527034" lon="-8.623803">
        <ele>26.135</ele>
        <time>2015-03-25T07:50:27Z</time>
      </trkpt>
      <trkpt lat="41.527032" lon="-8.623743">
        <ele>26.625</ele>
        <time>2015-03-25T07:51:38Z</time>
      </trkpt>
      <trkpt lat="41.527020" lon="-8.623560">
        <ele>26.653</ele>
        <time>2015-03-25T07:51:50Z</time>
      </trkpt>
      <trkpt lat="41.526984" lon="-8.623085">
        <ele>26.628</ele>
        <time>2015-03-25T07:52:05Z</time>
      </trkpt>
      <trkpt lat="41.526907" lon="-8.622753">
        <ele>25.175</ele>
        <time>2015-03-25T07:52:16Z</time>
      </trkpt>
      <trkpt lat="41.526806" lon="-8.622478">
        <ele>25.139</ele>
        <time>2015-03-25T07:52:28Z</time>
      </trkpt>
      <trkpt lat="41.526899" lon="-8.622353">
        <ele>25.101</ele>
        <time>2015-03-25T07:52:35Z</time>
      </trkpt>
      <trkpt lat="41.527301" lon="-8.622293">
        <ele>25.121</ele>
        <time>2015-03-25T07:52:52Z</time>
      </trkpt>
      <trkpt lat="41.527680" lon="-8.622251">
        <ele>26.607</ele>
        <time>2015-03-25T07:53:07Z</time>
      </trkpt>
      <trkpt lat="41.527954" lon="-8.622223">
        <ele>27.142</ele>
        <time>2015-03-25T07:53:18Z</time>
      </trkpt>
      <trkpt lat="41.528079" lon="-8.622450">
        <ele>28.015</ele>
        <time>2015-03-25T07:53:28Z</time>
      </trkpt>
      <trkpt lat="41.528254" lon="-8.622822">
        <ele>29.967</ele>
        <time>2015-03-25T07:53:46Z</time>
      </trkpt>
      <trkpt lat="41.528325" lon="-8.622916">
        <ele>30.987</ele>
        <time>2015-03-25T07:53:52Z</time>
      </trkpt>
      <trkpt lat="41.528392" lon="-8.622866">
        <ele>32.825</ele>
        <time>2015-03-25T07:53:58Z</time>
      </trkpt>
      <trkpt lat="41.528446" lon="-8.622615">
        <ele>34.710</ele>
        <time>2015-03-25T07:54:12Z</time>
      </trkpt>
      <trkpt lat="41.528472" lon="-8.622536">
        <ele>35.717</ele>
        <time>2015-03-25T07:54:17Z</time>
      </trkpt>
      <trkpt lat="41.528643" lon="-8.622316">
        <ele>38.176</ele>
        <time>2015-03-25T07:54:35Z</time>
      </trkpt>
      <trkpt lat="41.528708" lon="-8.622231">
        <ele>39.190</ele>
        <time>2015-03-25T07:54:42Z</time>
      </trkpt>
      <trkpt lat="41.528766" lon="-8.622231">
        <ele>39.619</ele>
        <time>2015-03-25T07:54:47Z</time>
      </trkpt>
      <trkpt lat="41.528954" lon="-8.622405">
        <ele>40.507</ele>
        <time>2015-03-25T07:55:01Z</time>
      </trkpt>
      <trkpt lat="41.529257" lon="-8.622652">
        <ele>42.026</ele>
        <time>2015-03-25T07:55:22Z</time>
      </trkpt>
      <trkpt lat="41.529365" lon="-8.622523">
        <ele>42.459</ele>
        <time>2015-03-25T07:55:31Z</time>
      </trkpt>
      <trkpt lat="41.529532" lon="-8.622164">
        <ele>43.961</ele>
        <time>2015-03-25T07:55:49Z</time>
      </trkpt>
      <trkpt lat="41.529699" lon="-8.621847">
        <ele>45.391</ele>
        <time>2015-03-25T07:56:06Z</time>
      </trkpt>
      <trkpt lat="41.529918" lon="-8.621440">
        <ele>46.389</ele>
        <time>2015-03-25T07:56:24Z</time>
      </trkpt>
      <trkpt lat="41.530092" lon="-8.621107">
        <ele>45.844</ele>
        <time>2015-03-25T07:56:37Z</time>
      </trkpt>
      <trkpt lat="41.530329" lon="-8.620849">
        <ele>46.381</ele>
        <time>2015-03-25T07:56:49Z</time>
      </trkpt>
      <trkpt lat="41.530583" lon="-8.620497">
        <ele>46.394</ele>
        <time>2015-03-25T07:57:04Z</time>
      </trkpt>
      <trkpt lat="41.530837" lon="-8.620140">
        <ele>46.857</ele>
        <time>2015-03-25T07:57:19Z</time>
      </trkpt>
      <trkpt lat="41.531086" lon="-8.619819">
        <ele>47.222</ele>
        <time>2015-03-25T07:57:32Z</time>
      </trkpt>
      <trkpt lat="41.531473" lon="-8.619440">
        <ele>47.207</ele>
        <time>2015-03-25T07:57:50Z</time>
      </trkpt>
      <trkpt lat="41.531819" lon="-8.619431">
        <ele>47.718</ele>
        <time>2015-03-25T07:58:04Z</time>
      </trkpt>
      <trkpt lat="41.532315" lon="-8.619421">
        <ele>48.711</ele>
        <time>2015-03-25T07:58:22Z</time>
      </trkpt>
      <trkpt lat="41.532737" lon="-8.619427">
        <ele>49.743</ele>
        <time>2015-03-25T07:58:38Z</time>
      </trkpt>
      <trkpt lat="41.533173" lon="-8.619484">
        <ele>51.613</ele>
        <time>2015-03-25T07:58:55Z</time>
      </trkpt>
      <trkpt lat="41.533463" lon="-8.619595">
        <ele>53.041</ele>
        <time>2015-03-25T07:59:08Z</time>
      </trkpt>
      <trkpt lat="41.533495" lon="-8.619718">
        <ele>53.016</ele>
        <time>2015-03-25T08:00:00Z</time>
      </trkpt>
      <trkpt lat="41.533272" lon="-8.620302">
        <ele>53.053</ele>
        <time>2015-03-25T08:00:16Z</time>
      </trkpt>
      <trkpt lat="41.533200" lon="-8.620524">
        <ele>52.194</ele>
        <time>2015-03-25T08:00:21Z</time>
      </trkpt>
      <trkpt lat="41.533037" lon="-8.620922">
        <ele>51.657</ele>
        <time>2015-03-25T08:00:31Z</time>
      </trkpt>
      <trkpt lat="41.533187" lon="-8.621633">
        <ele>49.722</ele>
        <time>2015-03-25T08:00:44Z</time>
      </trkpt>
      <trkpt lat="41.533398" lon="-8.622112">
        <ele>48.707</ele>
        <time>2015-03-25T08:00:56Z</time>
      </trkpt>
      <trkpt lat="41.533694" lon="-8.622090">
        <ele>48.798</ele>
        <time>2015-03-25T08:01:10Z</time>
      </trkpt>
      <trkpt lat="41.534026" lon="-8.621909">
        <ele>48.791</ele>
        <time>2015-03-25T08:01:23Z</time>
      </trkpt>
      <trkpt lat="41.534435" lon="-8.621686">
        <ele>48.753</ele>
        <time>2015-03-25T08:01:38Z</time>
      </trkpt>
      <trkpt lat="41.534405" lon="-8.621760">
        <ele>48.263</ele>
        <time>2015-03-25T08:02:49Z</time>
      </trkpt>
      <trkpt lat="41.534260" lon="-8.621846">
        <ele>48.721</ele>
        <time>2015-03-25T08:03:09Z</time>
      </trkpt>
      <trkpt lat="41.533900" lon="-8.622014">
        <ele>48.746</ele>
        <time>2015-03-25T08:03:24Z</time>
      </trkpt>
      <trkpt lat="41.533508" lon="-8.622109">
        <ele>49.773</ele>
        <time>2015-03-25T08:03:38Z</time>
      </trkpt>
      <trkpt lat="41.533365" lon="-8.622101">
        <ele>49.794</ele>
        <time>2015-03-25T08:03:42Z</time>
      </trkpt>
      <trkpt lat="41.533233" lon="-8.621925">
        <ele>48.757</ele>
        <time>2015-03-25T08:03:47Z</time>
      </trkpt>
      <trkpt lat="41.533106" lon="-8.621464">
        <ele>50.122</ele>
        <time>2015-03-25T08:04:00Z</time>
      </trkpt>
      <trkpt lat="41.533031" lon="-8.620960">
        <ele>51.607</ele>
        <time>2015-03-25T08:04:15Z</time>
      </trkpt>
      <trkpt lat="41.533263" lon="-8.620403">
        <ele>52.558</ele>
        <time>2015-03-25T08:04:32Z</time>
      </trkpt>
      <trkpt lat="41.533356" lon="-8.620077">
        <ele>53.051</ele>
        <time>2015-03-25T08:04:42Z</time>
      </trkpt>
      <trkpt lat="41.533551" lon="-8.619595">
        <ele>53.593</ele>
        <time>2015-03-25T08:04:57Z</time>
      </trkpt>
      <trkpt lat="41.533491" lon="-8.619639">
        <ele>53.573</ele>
        <time>2015-03-25T08:05:07Z</time>
      </trkpt>
      <trkpt lat="41.533130" lon="-8.619490">
        <ele>52.571</ele>
        <time>2015-03-25T08:05:18Z</time>
      </trkpt>
      <trkpt lat="41.532318" lon="-8.619433">
        <ele>49.746</ele>
        <time>2015-03-25T08:05:32Z</time>
      </trkpt>
      <trkpt lat="41.531747" lon="-8.619420">
        <ele>48.783</ele>
        <time>2015-03-25T08:05:41Z</time>
      </trkpt>
      <trkpt lat="41.531529" lon="-8.619390">
        <ele>48.293</ele>
        <time>2015-03-25T08:05:45Z</time>
      </trkpt>
      <trkpt lat="41.531155" lon="-8.619646">
        <ele>47.765</ele>
        <time>2015-03-25T08:05:56Z</time>
      </trkpt>
      <trkpt lat="41.530993" lon="-8.619824">
        <ele>47.721</ele>
        <time>2015-03-25T08:06:03Z</time>
      </trkpt>
      <trkpt lat="41.530848" lon="-8.619847">
        <ele>47.707</ele>
        <time>2015-03-25T08:06:08Z</time>
      </trkpt>
      <trkpt lat="41.530516" lon="-8.619923">
        <ele>46.848</ele>
        <time>2015-03-25T08:06:21Z</time>
      </trkpt>
      <trkpt lat="41.530459" lon="-8.619889">
        <ele>47.251</ele>
        <time>2015-03-25T08:06:39Z</time>
      </trkpt>
      <trkpt lat="41.530676" lon="-8.620167">
        <ele>48.753</ele>
        <time>2015-03-25T08:07:20Z</time>
      </trkpt>
      <trkpt lat="41.530737" lon="-8.620229">
        <ele>48.743</ele>
        <time>2015-03-25T08:07:23Z</time>
      </trkpt>
      <trkpt lat="41.530987" lon="-8.619945">
        <ele>48.741</ele>
        <time>2015-03-25T08:07:35Z</time>
      </trkpt>
      <trkpt lat="41.531331" lon="-8.619636">
        <ele>48.766</ele>
        <time>2015-03-25T08:07:49Z</time>
      </trkpt>
      <trkpt lat="41.531700" lon="-8.619454">
        <ele>49.223</ele>
        <time>2015-03-25T08:08:04Z</time>
      </trkpt>
      <trkpt lat="41.532144" lon="-8.619441">
        <ele>49.269</ele>
        <time>2015-03-25T08:08:18Z</time>
      </trkpt>
      <trkpt lat="41.532619" lon="-8.619456">
        <ele>50.604</ele>
        <time>2015-03-25T08:08:33Z</time>
      </trkpt>
      <trkpt lat="41.533130" lon="-8.619523">
        <ele>52.524</ele>
        <time>2015-03-25T08:08:50Z</time>
      </trkpt>
      <trkpt lat="41.533547" lon="-8.619668">
        <ele>54.907</ele>
        <time>2015-03-25T08:09:06Z</time>
      </trkpt>
      <trkpt lat="41.533851" lon="-8.619845">
        <ele>54.525</ele>
        <time>2015-03-25T08:09:17Z</time>
      </trkpt>
      <trkpt lat="41.534208" lon="-8.619996">
        <ele>53.578</ele>
        <time>2015-03-25T08:09:27Z</time>
      </trkpt>
      <trkpt lat="41.534423" lon="-8.619790">
        <ele>52.580</ele>
        <time>2015-03-25T08:09:34Z</time>
      </trkpt>
      <trkpt lat="41.534460" lon="-8.619594">
        <ele>52.520</ele>
        <time>2015-03-25T08:09:38Z</time>
      </trkpt>
      <trkpt lat="41.534671" lon="-8.619468">
        <ele>52.528</ele>
        <time>2015-03-25T08:09:47Z</time>
      </trkpt>
      <trkpt lat="41.535326" lon="-8.619770">
        <ele>52.123</ele>
        <time>2015-03-25T08:10:07Z</time>
      </trkpt>
      <trkpt lat="41.535913" lon="-8.619997">
        <ele>52.110</ele>
        <time>2015-03-25T08:10:25Z</time>
      </trkpt>
      <trkpt lat="41.536544" lon="-8.620102">
        <ele>52.173</ele>
        <time>2015-03-25T08:10:44Z</time>
      </trkpt>
      <trkpt lat="41.536643" lon="-8.620116">
        <ele>53.585</ele>
        <time>2015-03-25T08:10:47Z</time>
      </trkpt>
      <trkpt lat="41.537323" lon="-8.620189">
        <ele>54.513</ele>
        <time>2015-03-25T08:11:08Z</time>
      </trkpt>
      <trkpt lat="41.537808" lon="-8.620166">
        <ele>55.907</ele>
        <time>2015-03-25T08:11:24Z</time>
      </trkpt>
      <trkpt lat="41.538400" lon="-8.619820">
        <ele>56.466</ele>
        <time>2015-03-25T08:11:44Z</time>
      </trkpt>
      <trkpt lat="41.538627" lon="-8.619384">
        <ele>56.999</ele>
        <time>2015-03-25T08:11:57Z</time>
      </trkpt>
      <trkpt lat="41.538633" lon="-8.619109">
        <ele>56.991</ele>
        <time>2015-03-25T08:12:03Z</time>
      </trkpt>
      <trkpt lat="41.538852" lon="-8.619054">
        <ele>56.951</ele>
        <time>2015-03-25T08:12:11Z</time>
      </trkpt>
      <trkpt lat="41.538981" lon="-8.619164">
        <ele>57.339</ele>
        <time>2015-03-25T08:12:16Z</time>
      </trkpt>
      <trkpt lat="41.539569" lon="-8.619366">
        <ele>58.864</ele>
        <time>2015-03-25T08:12:35Z</time>
      </trkpt>
      <trkpt lat="41.540252" lon="-8.619454">
        <ele>59.731</ele>
        <time>2015-03-25T08:12:55Z</time>
      </trkpt>
      <trkpt lat="41.540991" lon="-8.619546">
        <ele>60.757</ele>
        <time>2015-03-25T08:13:17Z</time>
      </trkpt>
      <trkpt lat="41.541508" lon="-8.619616">
        <ele>61.200</ele>
        <time>2015-03-25T08:13:33Z</time>
      </trkpt>
      <trkpt lat="41.542234" lon="-8.619712">
        <ele>62.620</ele>
        <time>2015-03-25T08:13:55Z</time>
      </trkpt>
      <trkpt lat="41.542834" lon="-8.619790">
        <ele>63.607</ele>
        <time>2015-03-25T08:14:13Z</time>
      </trkpt>
      <trkpt lat="41.543622" lon="-8.619891">
        <ele>64.674</ele>
        <time>2015-03-25T08:14:36Z</time>
      </trkpt>
      <trkpt lat="41.543907" lon="-8.619790">
        <ele>65.017</ele>
        <time>2015-03-25T08:14:49Z</time>
      </trkpt>
      <trkpt lat="41.544230" lon="-8.619830">
        <ele>65.089</ele>
        <time>2015-03-25T08:15:31Z</time>
      </trkpt>
      <trkpt lat="41.544510" lon="-8.619728">
        <ele>65.029</ele>
        <time>2015-03-25T08:15:41Z</time>
      </trkpt>
      <trkpt lat="41.544944" lon="-8.619136">
        <ele>65.547</ele>
        <time>2015-03-25T08:15:59Z</time>
      </trkpt>
      <trkpt lat="41.545474" lon="-8.618895">
        <ele>65.512</ele>
        <time>2015-03-25T08:16:15Z</time>
      </trkpt>
      <trkpt lat="41.545598" lon="-8.618916">
        <ele>64.159</ele>
        <time>2015-03-25T08:16:18Z</time>
      </trkpt>
      <trkpt lat="41.545869" lon="-8.618948">
        <ele>63.118</ele>
        <time>2015-03-25T08:16:24Z</time>
      </trkpt>
      <trkpt lat="41.546635" lon="-8.618777">
        <ele>60.298</ele>
        <time>2015-03-25T08:16:40Z</time>
      </trkpt>
      <trkpt lat="41.547357" lon="-8.618260">
        <ele>57.817</ele>
        <time>2015-03-25T08:16:58Z</time>
      </trkpt>
      <trkpt lat="41.548126" lon="-8.617720">
        <ele>54.907</ele>
        <time>2015-03-25T08:17:16Z</time>
      </trkpt>
      <trkpt lat="41.548490" lon="-8.617477">
        <ele>54.570</ele>
        <time>2015-03-25T08:17:24Z</time>
      </trkpt>
      <trkpt lat="41.548716" lon="-8.617412">
        <ele>53.593</ele>
        <time>2015-03-25T08:17:29Z</time>
      </trkpt>
      <trkpt lat="41.549063" lon="-8.617504">
        <ele>52.535</ele>
        <time>2015-03-25T08:17:37Z</time>
      </trkpt>
      <trkpt lat="41.549243" lon="-8.617524">
        <ele>52.115</ele>
        <time>2015-03-25T08:17:41Z</time>
      </trkpt>
      <trkpt lat="41.549601" lon="-8.617500">
        <ele>51.653</ele>
        <time>2015-03-25T08:17:49Z</time>
      </trkpt>
      <trkpt lat="41.550331" lon="-8.617722">
        <ele>51.618</ele>
        <time>2015-03-25T08:18:07Z</time>
      </trkpt>
      <trkpt lat="41.550585" lon="-8.617940">
        <ele>53.075</ele>
        <time>2015-03-25T08:18:15Z</time>
      </trkpt>
      <trkpt lat="41.550972" lon="-8.618464">
        <ele>54.544</ele>
        <time>2015-03-25T08:18:31Z</time>
      </trkpt>
      <trkpt lat="41.551279" lon="-8.618984">
        <ele>55.405</ele>
        <time>2015-03-25T08:18:46Z</time>
      </trkpt>
      <trkpt lat="41.551714" lon="-8.618907">
        <ele>55.415</ele>
        <time>2015-03-25T08:18:57Z</time>
      </trkpt>
      <trkpt lat="41.552166" lon="-8.618554">
        <ele>55.407</ele>
        <time>2015-03-25T08:19:11Z</time>
      </trkpt>
      <trkpt lat="41.552737" lon="-8.618452">
        <ele>57.383</ele>
        <time>2015-03-25T08:19:28Z</time>
      </trkpt>
      <trkpt lat="41.553076" lon="-8.618525">
        <ele>59.756</ele>
        <time>2015-03-25T08:19:42Z</time>
      </trkpt>
      <trkpt lat="41.553321" lon="-8.618817">
        <ele>62.618</ele>
        <time>2015-03-25T08:19:59Z</time>
      </trkpt>
      <trkpt lat="41.553575" lon="-8.619125">
        <ele>66.098</ele>
        <time>2015-03-25T08:20:17Z</time>
      </trkpt>
      <trkpt lat="41.553846" lon="-8.619471">
        <ele>68.936</ele>
        <time>2015-03-25T08:20:36Z</time>
      </trkpt>
      <trkpt lat="41.554160" lon="-8.619775">
        <ele>71.811</ele>
        <time>2015-03-25T08:20:55Z</time>
      </trkpt>
      <trkpt lat="41.554525" lon="-8.619961">
        <ele>74.258</ele>
        <time>2015-03-25T08:21:13Z</time>
      </trkpt>
      <trkpt lat="41.554922" lon="-8.620157">
        <ele>75.172</ele>
        <time>2015-03-25T08:21:31Z</time>
      </trkpt>
      <trkpt lat="41.555329" lon="-8.620272">
        <ele>77.013</ele>
        <time>2015-03-25T08:21:48Z</time>
      </trkpt>
      <trkpt lat="41.555435" lon="-8.620642">
        <ele>78.014</ele>
        <time>2015-03-25T08:22:00Z</time>
      </trkpt>
      <trkpt lat="41.555313" lon="-8.621108">
        <ele>78.507</ele>
        <time>2015-03-25T08:22:14Z</time>
      </trkpt>
      <trkpt lat="41.555171" lon="-8.621490">
        <ele>79.556</ele>
        <time>2015-03-25T08:22:26Z</time>
      </trkpt>
      <trkpt lat="41.555193" lon="-8.622186">
        <ele>80.489</ele>
        <time>2015-03-25T08:22:46Z</time>
      </trkpt>
      <trkpt lat="41.555220" lon="-8.622975">
        <ele>82.361</ele>
        <time>2015-03-25T08:23:09Z</time>
      </trkpt>
      <trkpt lat="41.555168" lon="-8.623697">
        <ele>84.751</ele>
        <time>2015-03-25T08:23:32Z</time>
      </trkpt>
      <trkpt lat="41.555217" lon="-8.624019">
        <ele>87.189</ele>
        <time>2015-03-25T08:23:45Z</time>
      </trkpt>
      <trkpt lat="41.555567" lon="-8.623787">
        <ele>88.154</ele>
        <time>2015-03-25T08:24:00Z</time>
      </trkpt>
      <trkpt lat="41.555973" lon="-8.623515">
        <ele>87.671</ele>
        <time>2015-03-25T08:24:16Z</time>
      </trkpt>
      <trkpt lat="41.556421" lon="-8.623263">
        <ele>87.693</ele>
        <time>2015-03-25T08:24:33Z</time>
      </trkpt>
      <trkpt lat="41.556867" lon="-8.623029">
        <ele>87.665</ele>
        <time>2015-03-25T08:24:50Z</time>
      </trkpt>
      <trkpt lat="41.557370" lon="-8.622945">
        <ele>88.121</ele>
        <time>2015-03-25T08:25:08Z</time>
      </trkpt>
      <trkpt lat="41.557891" lon="-8.623108">
        <ele>88.107</ele>
        <time>2015-03-25T08:25:27Z</time>
      </trkpt>
      <trkpt lat="41.558203" lon="-8.623202">
        <ele>87.188</ele>
        <time>2015-03-25T08:25:36Z</time>
      </trkpt>
      <trkpt lat="41.558492" lon="-8.623249">
        <ele>85.791</ele>
        <time>2015-03-25T08:25:44Z</time>
      </trkpt>
      <trkpt lat="41.558676" lon="-8.623234">
        <ele>84.333</ele>
        <time>2015-03-25T08:25:48Z</time>
      </trkpt>
      <trkpt lat="41.558852" lon="-8.623355">
        <ele>79.913</ele>
        <time>2015-03-25T08:25:52Z</time>
      </trkpt>
      <trkpt lat="41.558977" lon="-8.623273">
        <ele>76.691</ele>
        <time>2015-03-25T08:25:57Z</time>
      </trkpt>
      <trkpt lat="41.559235" lon="-8.622874">
        <ele>73.796</ele>
        <time>2015-03-25T08:26:09Z</time>
      </trkpt>
      <trkpt lat="41.559351" lon="-8.622753">
        <ele>73.233</ele>
        <time>2015-03-25T08:26:12Z</time>
      </trkpt>
      <trkpt lat="41.559504" lon="-8.622551">
        <ele>71.398</ele>
        <time>2015-03-25T08:26:16Z</time>
      </trkpt>
      <trkpt lat="41.559787" lon="-8.622570">
        <ele>67.915</ele>
        <time>2015-03-25T08:26:22Z</time>
      </trkpt>
      <trkpt lat="41.559840" lon="-8.622698">
        <ele>67.426</ele>
        <time>2015-03-25T08:26:24Z</time>
      </trkpt>
      <trkpt lat="41.559836" lon="-8.622784">
        <ele>67.007</ele>
        <time>2015-03-25T08:26:28Z</time>
      </trkpt>
      <trkpt lat="41.559781" lon="-8.622609">
        <ele>67.038</ele>
        <time>2015-03-25T08:26:39Z</time>
      </trkpt>
      <trkpt lat="41.559824" lon="-8.622674">
        <ele>67.061</ele>
        <time>2015-03-25T08:26:43Z</time>
      </trkpt>
      <trkpt lat="41.560071" lon="-8.623302">
        <ele>65.053</ele>
        <time>2015-03-25T08:26:58Z</time>
      </trkpt>
      <trkpt lat="41.560097" lon="-8.623709">
        <ele>65.073</ele>
        <time>2015-03-25T08:27:06Z</time>
      </trkpt>
      <trkpt lat="41.560357" lon="-8.623999">
        <ele>63.141</ele>
        <time>2015-03-25T08:27:14Z</time>
      </trkpt>
      <trkpt lat="41.560405" lon="-8.623969">
        <ele>63.166</ele>
        <time>2015-03-25T08:27:15Z</time>
      </trkpt>
      <trkpt lat="41.560517" lon="-8.623706">
        <ele>61.733</ele>
        <time>2015-03-25T08:27:21Z</time>
      </trkpt>
      <trkpt lat="41.560362" lon="-8.623417">
        <ele>63.118</ele>
        <time>2015-03-25T08:27:30Z</time>
      </trkpt>
      <trkpt lat="41.560079" lon="-8.622786">
        <ele>65.598</ele>
        <time>2015-03-25T08:27:50Z</time>
      </trkpt>
      <trkpt lat="41.559822" lon="-8.622320">
        <ele>67.917</ele>
        <time>2015-03-25T08:28:08Z</time>
      </trkpt>
      <trkpt lat="41.559668" lon="-8.621891">
        <ele>70.307</ele>
        <time>2015-03-25T08:28:24Z</time>
      </trkpt>
      <trkpt lat="41.559524" lon="-8.621502">
        <ele>73.220</ele>
        <time>2015-03-25T08:28:40Z</time>
      </trkpt>
      <trkpt lat="41.559361" lon="-8.621111">
        <ele>75.183</ele>
        <time>2015-03-25T08:28:56Z</time>
      </trkpt>
      <trkpt lat="41.559353" lon="-8.621032">
        <ele>75.115</ele>
        <time>2015-03-25T08:29:13Z</time>
      </trkpt>
      <trkpt lat="41.559414" lon="-8.620831">
        <ele>72.785</ele>
        <time>2015-03-25T08:29:37Z</time>
      </trkpt>
      <trkpt lat="41.559483" lon="-8.620636">
        <ele>70.383</ele>
        <time>2015-03-25T08:29:40Z</time>
      </trkpt>
      <trkpt lat="41.559652" lon="-8.620367">
        <ele>68.488</ele>
        <time>2015-03-25T08:29:44Z</time>
      </trkpt>
      <trkpt lat="41.560073" lon="-8.619862">
        <ele>64.655</ele>
        <time>2015-03-25T08:29:52Z</time>
      </trkpt>
      <trkpt lat="41.560230" lon="-8.619394">
        <ele>60.731</ele>
        <time>2015-03-25T08:29:57Z</time>
      </trkpt>
      <trkpt lat="41.560453" lon="-8.619046">
        <ele>58.861</ele>
        <time>2015-03-25T08:30:02Z</time>
      </trkpt>
      <trkpt lat="41.560584" lon="-8.618977">
        <ele>57.807</ele>
        <time>2015-03-25T08:30:04Z</time>
      </trkpt>
      <trkpt lat="41.561204" lon="-8.618568">
        <ele>54.907</ele>
        <time>2015-03-25T08:30:14Z</time>
      </trkpt>
      <trkpt lat="41.561436" lon="-8.618388">
        <ele>54.012</ele>
        <time>2015-03-25T08:30:18Z</time>
      </trkpt>
      <trkpt lat="41.561586" lon="-8.618232">
        <ele>53.565</ele>
        <time>2015-03-25T08:30:21Z</time>
      </trkpt>
      <trkpt lat="41.561678" lon="-8.618119">
        <ele>53.537</ele>
        <time>2015-03-25T08:30:23Z</time>
      </trkpt>
      <trkpt lat="41.561930" lon="-8.617961">
        <ele>52.527</ele>
        <time>2015-03-25T08:30:28Z</time>
      </trkpt>
      <trkpt lat="41.562072" lon="-8.617917">
        <ele>52.175</ele>
        <time>2015-03-25T08:30:31Z</time>
      </trkpt>
      <trkpt lat="41.562255" lon="-8.617812">
        <ele>52.130</ele>
        <time>2015-03-25T08:30:36Z</time>
      </trkpt>
      <trkpt lat="41.562605" lon="-8.617363">
        <ele>52.167</ele>
        <time>2015-03-25T08:30:50Z</time>
      </trkpt>
      <trkpt lat="41.562780" lon="-8.617162">
        <ele>53.565</ele>
        <time>2015-03-25T08:30:59Z</time>
      </trkpt>
      <trkpt lat="41.562863" lon="-8.617118">
        <ele>54.068</ele>
        <time>2015-03-25T08:31:03Z</time>
      </trkpt>
      <trkpt lat="41.563087" lon="-8.617222">
        <ele>55.414</ele>
        <time>2015-03-25T08:31:15Z</time>
      </trkpt>
      <trkpt lat="41.563464" lon="-8.617054">
        <ele>56.407</ele>
        <time>2015-03-25T08:31:31Z</time>
      </trkpt>
      <trkpt lat="41.563815" lon="-8.617034">
        <ele>57.835</ele>
        <time>2015-03-25T08:31:47Z</time>
      </trkpt>
      <trkpt lat="41.564108" lon="-8.617194">
        <ele>59.338</ele>
        <time>2015-03-25T08:32:01Z</time>
      </trkpt>
      <trkpt lat="41.564402" lon="-8.617355">
        <ele>60.720</ele>
        <time>2015-03-25T08:32:16Z</time>
      </trkpt>
      <trkpt lat="41.564726" lon="-8.617485">
        <ele>61.720</ele>
        <time>2015-03-25T08:32:32Z</time>
      </trkpt>
      <trkpt lat="41.565043" lon="-8.617612">
        <ele>64.618</ele>
        <time>2015-03-25T08:32:49Z</time>
      </trkpt>
      <trkpt lat="41.565342" lon="-8.617741">
        <ele>65.033</ele>
        <time>2015-03-25T08:33:04Z</time>
      </trkpt>
      <trkpt lat="41.565676" lon="-8.617687">
        <ele>64.160</ele>
        <time>2015-03-25T08:33:16Z</time>
      </trkpt>
      <trkpt lat="41.565875" lon="-8.617717">
        <ele>63.121</ele>
        <time>2015-03-25T08:33:21Z</time>
      </trkpt>
      <trkpt lat="41.566343" lon="-8.618083">
        <ele>62.141</ele>
        <time>2015-03-25T08:33:36Z</time>
      </trkpt>
      <trkpt lat="41.566787" lon="-8.618475">
        <ele>62.105</ele>
        <time>2015-03-25T08:33:52Z</time>
      </trkpt>
      <trkpt lat="41.567172" lon="-8.618689">
        <ele>62.107</ele>
        <time>2015-03-25T08:34:05Z</time>
      </trkpt>
      <trkpt lat="41.567559" lon="-8.618722">
        <ele>61.291</ele>
        <time>2015-03-25T08:34:19Z</time>
      </trkpt>
      <trkpt lat="41.567644" lon="-8.618702">
        <ele>61.254</ele>
        <time>2015-03-25T08:35:12Z</time>
      </trkpt>
      <trkpt lat="41.568039" lon="-8.618673">
        <ele>60.796</ele>
        <time>2015-03-25T08:35:25Z</time>
      </trkpt>
      <trkpt lat="41.568491" lon="-8.618710">
        <ele>59.726</ele>
        <time>2015-03-25T08:35:38Z</time>
      </trkpt>
      <trkpt lat="41.568904" lon="-8.618632">
        <ele>59.764</ele>
        <time>2015-03-25T08:35:51Z</time>
      </trkpt>
      <trkpt lat="41.569404" lon="-8.618485">
        <ele>59.789</ele>
        <time>2015-03-25T08:36:07Z</time>
      </trkpt>
      <trkpt lat="41.569774" lon="-8.618306">
        <ele>61.216</ele>
        <time>2015-03-25T08:36:21Z</time>
      </trkpt>
      <trkpt lat="41.570101" lon="-8.618141">
        <ele>63.142</ele>
        <time>2015-03-25T08:36:37Z</time>
      </trkpt>
      <trkpt lat="41.570470" lon="-8.617996">
        <ele>64.122</ele>
        <time>2015-03-25T08:36:54Z</time>
      </trkpt>
      <trkpt lat="41.570865" lon="-8.617937">
        <ele>65.514</ele>
        <time>2015-03-25T08:37:11Z</time>
      </trkpt>
      <trkpt lat="41.571337" lon="-8.617884">
        <ele>66.007</ele>
        <time>2015-03-25T08:37:31Z</time>
      </trkpt>
      <trkpt lat="41.571767" lon="-8.617926">
        <ele>66.583</ele>
        <time>2015-03-25T08:37:49Z</time>
      </trkpt>
      <trkpt lat="41.572153" lon="-8.617906">
        <ele>67.056</ele>
        <time>2015-03-25T08:38:05Z</time>
      </trkpt>
      <trkpt lat="41.572623" lon="-8.617977">
        <ele>67.928</ele>
        <time>2015-03-25T08:38:25Z</time>
      </trkpt>
      <trkpt lat="41.573014" lon="-8.618077">
        <ele>68.478</ele>
        <time>2015-03-25T08:38:42Z</time>
      </trkpt>
      <trkpt lat="41.573404" lon="-8.618181">
        <ele>68.966</ele>
        <time>2015-03-25T08:38:59Z</time>
      </trkpt>
      <trkpt lat="41.573762" lon="-8.618288">
        <ele>69.471</ele>
        <time>2015-03-25T08:39:15Z</time>
      </trkpt>
      <trkpt lat="41.574074" lon="-8.618335">
        <ele>70.368</ele>
        <time>2015-03-25T08:39:30Z</time>
      </trkpt>
      <trkpt lat="41.574371" lon="-8.618344">
        <ele>70.889</ele>
        <time>2015-03-25T08:39:45Z</time>
      </trkpt>
      <trkpt lat="41.574655" lon="-8.618408">
        <ele>73.206</ele>
        <time>2015-03-25T08:40:02Z</time>
      </trkpt>
      <trkpt lat="41.574715" lon="-8.618433">
        <ele>73.726</ele>
        <time>2015-03-25T08:40:06Z</time>
      </trkpt>
      <trkpt lat="41.574988" lon="-8.618537">
        <ele>76.107</ele>
        <time>2015-03-25T08:40:24Z</time>
      </trkpt>
      <trkpt lat="41.575277" lon="-8.618629">
        <ele>78.047</ele>
        <time>2015-03-25T08:40:43Z</time>
      </trkpt>
      <trkpt lat="41.575584" lon="-8.618718">
        <ele>79.990</ele>
        <time>2015-03-25T08:41:02Z</time>
      </trkpt>
      <trkpt lat="41.575853" lon="-8.618797">
        <ele>82.392</ele>
        <time>2015-03-25T08:41:20Z</time>
      </trkpt>
      <trkpt lat="41.576086" lon="-8.618878">
        <ele>84.762</ele>
        <time>2015-03-25T08:41:37Z</time>
      </trkpt>
      <trkpt lat="41.576302" lon="-8.618976">
        <ele>86.270</ele>
        <time>2015-03-25T08:41:53Z</time>
      </trkpt>
      <trkpt lat="41.576534" lon="-8.619026">
        <ele>89.585</ele>
        <time>2015-03-25T08:42:09Z</time>
      </trkpt>
      <trkpt lat="41.576777" lon="-8.619084">
        <ele>90.542</ele>
        <time>2015-03-25T08:42:25Z</time>
      </trkpt>
      <trkpt lat="41.577019" lon="-8.619134">
        <ele>93.488</ele>
        <time>2015-03-25T08:42:41Z</time>
      </trkpt>
      <trkpt lat="41.577066" lon="-8.619143">
        <ele>93.924</ele>
        <time>2015-03-25T08:42:44Z</time>
      </trkpt>
      <trkpt lat="41.577319" lon="-8.619047">
        <ele>94.826</ele>
        <time>2015-03-25T08:43:00Z</time>
      </trkpt>
      <trkpt lat="41.577642" lon="-8.618896">
        <ele>94.407</ele>
        <time>2015-03-25T08:43:14Z</time>
      </trkpt>
      <trkpt lat="41.578009" lon="-8.618753">
        <ele>91.947</ele>
        <time>2015-03-25T08:43:25Z</time>
      </trkpt>
      <trkpt lat="41.578393" lon="-8.618653">
        <ele>90.050</ele>
        <time>2015-03-25T08:43:37Z</time>
      </trkpt>
      <trkpt lat="41.578925" lon="-8.618514">
        <ele>87.192</ele>
        <time>2015-03-25T08:43:49Z</time>
      </trkpt>
      <trkpt lat="41.579354" lon="-8.618372">
        <ele>85.772</ele>
        <time>2015-03-25T08:43:57Z</time>
      </trkpt>
      <trkpt lat="41.579701" lon="-8.618319">
        <ele>84.720</ele>
        <time>2015-03-25T08:44:04Z</time>
      </trkpt>
      <trkpt lat="41.579892" lon="-8.618254">
        <ele>83.865</ele>
        <time>2015-03-25T08:44:08Z</time>
      </trkpt>
      <trkpt lat="41.580180" lon="-8.618213">
        <ele>82.852</ele>
        <time>2015-03-25T08:44:14Z</time>
      </trkpt>
      <trkpt lat="41.580284" lon="-8.618232">
        <ele>82.372</ele>
        <time>2015-03-25T08:44:16Z</time>
      </trkpt>
      <trkpt lat="41.580758" lon="-8.618429">
        <ele>79.913</ele>
        <time>2015-03-25T08:44:28Z</time>
      </trkpt>
      <trkpt lat="41.581503" lon="-8.618534">
        <ele>78.514</ele>
        <time>2015-03-25T08:44:44Z</time>
      </trkpt>
      <trkpt lat="41.582144" lon="-8.618529">
        <ele>78.507</ele>
        <time>2015-03-25T08:45:00Z</time>
      </trkpt>
      <trkpt lat="41.582650" lon="-8.618554">
        <ele>77.556</ele>
        <time>2015-03-25T08:45:12Z</time>
      </trkpt>
      <trkpt lat="41.582793" lon="-8.618526">
        <ele>77.059</ele>
        <time>2015-03-25T08:45:15Z</time>
      </trkpt>
      <trkpt lat="41.583005" lon="-8.618555">
        <ele>75.161</ele>
        <time>2015-03-25T08:45:19Z</time>
      </trkpt>
      <trkpt lat="41.583422" lon="-8.618626">
        <ele>71.871</ele>
        <time>2015-03-25T08:45:26Z</time>
      </trkpt>
      <trkpt lat="41.583633" lon="-8.618633">
        <ele>70.819</ele>
        <time>2015-03-25T08:45:29Z</time>
      </trkpt>
      <trkpt lat="41.583828" lon="-8.618632">
        <ele>69.454</ele>
        <time>2015-03-25T08:45:32Z</time>
      </trkpt>
      <trkpt lat="41.584519" lon="-8.618419">
        <ele>66.051</ele>
        <time>2015-03-25T08:45:43Z</time>
      </trkpt>
      <trkpt lat="41.584738" lon="-8.618387">
        <ele>66.543</ele>
        <time>2015-03-25T08:45:47Z</time>
      </trkpt>
      <trkpt lat="41.584884" lon="-8.618411">
        <ele>66.564</ele>
        <time>2015-03-25T08:45:50Z</time>
      </trkpt>
      <trkpt lat="41.585304" lon="-8.618561">
        <ele>66.510</ele>
        <time>2015-03-25T08:46:04Z</time>
      </trkpt>
      <trkpt lat="41.585650" lon="-8.618791">
        <ele>69.407</ele>
        <time>2015-03-25T08:46:21Z</time>
      </trkpt>
      <trkpt lat="41.585988" lon="-8.618992">
        <ele>72.753</ele>
        <time>2015-03-25T08:46:40Z</time>
      </trkpt>
      <trkpt lat="41.586196" lon="-8.619143">
        <ele>74.256</ele>
        <time>2015-03-25T08:46:54Z</time>
      </trkpt>
      <trkpt lat="41.586461" lon="-8.619267">
        <ele>76.668</ele>
        <time>2015-03-25T08:47:10Z</time>
      </trkpt>
      <trkpt lat="41.586581" lon="-8.619332">
        <ele>77.098</ele>
        <time>2015-03-25T08:47:18Z</time>
      </trkpt>
      <trkpt lat="41.586850" lon="-8.619446">
        <ele>79.956</ele>
        <time>2015-03-25T08:47:34Z</time>
      </trkpt>
      <trkpt lat="41.587104" lon="-8.619551">
        <ele>81.961</ele>
        <time>2015-03-25T08:47:48Z</time>
      </trkpt>
      <trkpt lat="41.587149" lon="-8.619569">
        <ele>81.968</ele>
        <time>2015-03-25T08:48:01Z</time>
      </trkpt>
      <trkpt lat="41.587440" lon="-8.619850">
        <ele>84.381</ele>
        <time>2015-03-25T08:48:24Z</time>
      </trkpt>
      <trkpt lat="41.587674" lon="-8.620057">
        <ele>85.761</ele>
        <time>2015-03-25T08:48:39Z</time>
      </trkpt>
      <trkpt lat="41.587986" lon="-8.620137">
        <ele>87.117</ele>
        <time>2015-03-25T08:48:56Z</time>
      </trkpt>
      <trkpt lat="41.588263" lon="-8.620153">
        <ele>89.107</ele>
        <time>2015-03-25T08:49:11Z</time>
      </trkpt>
      <trkpt lat="41.588647" lon="-8.620189">
        <ele>90.597</ele>
        <time>2015-03-25T08:49:32Z</time>
      </trkpt>
      <trkpt lat="41.588898" lon="-8.620356">
        <ele>92.420</ele>
        <time>2015-03-25T08:49:48Z</time>
      </trkpt>
      <trkpt lat="41.589177" lon="-8.620634">
        <ele>93.912</ele>
        <time>2015-03-25T08:50:06Z</time>
      </trkpt>
      <trkpt lat="41.589435" lon="-8.620823">
        <ele>95.392</ele>
        <time>2015-03-25T08:50:22Z</time>
      </trkpt>
      <trkpt lat="41.589723" lon="-8.621115">
        <ele>96.890</ele>
        <time>2015-03-25T08:50:40Z</time>
      </trkpt>
      <trkpt lat="41.589997" lon="-8.621443">
        <ele>98.235</ele>
        <time>2015-03-25T08:50:57Z</time>
      </trkpt>
      <trkpt lat="41.590276" lon="-8.621677">
        <ele>99.282</ele>
        <time>2015-03-25T08:51:11Z</time>
      </trkpt>
      <trkpt lat="41.590754" lon="-8.621731">
        <ele>99.241</ele>
        <time>2015-03-25T08:51:29Z</time>
      </trkpt>
      <trkpt lat="41.590992" lon="-8.621461">
        <ele>99.281</ele>
        <time>2015-03-25T08:51:42Z</time>
      </trkpt>
      <trkpt lat="41.591348" lon="-8.621173">
        <ele>100.109</ele>
        <time>2015-03-25T08:51:59Z</time>
      </trkpt>
      <trkpt lat="41.591590" lon="-8.620870">
        <ele>102.007</ele>
        <time>2015-03-25T08:52:15Z</time>
      </trkpt>
      <trkpt lat="41.591849" lon="-8.620599">
        <ele>104.023</ele>
        <time>2015-03-25T08:52:32Z</time>
      </trkpt>
      <trkpt lat="41.592138" lon="-8.620439">
        <ele>106.826</ele>
        <time>2015-03-25T08:52:49Z</time>
      </trkpt>
      <trkpt lat="41.592331" lon="-8.620386">
        <ele>107.858</ele>
        <time>2015-03-25T08:53:03Z</time>
      </trkpt>
      <trkpt lat="41.592470" lon="-8.620391">
        <ele>108.328</ele>
        <time>2015-03-25T08:53:20Z</time>
      </trkpt>
      <trkpt lat="41.592851" lon="-8.620413">
        <ele>110.756</ele>
        <time>2015-03-25T08:53:41Z</time>
      </trkpt>
      <trkpt lat="41.593169" lon="-8.620528">
        <ele>113.621</ele>
        <time>2015-03-25T08:54:00Z</time>
      </trkpt>
      <trkpt lat="41.593473" lon="-8.620631">
        <ele>116.068</ele>
        <time>2015-03-25T08:54:18Z</time>
      </trkpt>
      <trkpt lat="41.593830" lon="-8.620776">
        <ele>117.969</ele>
        <time>2015-03-25T08:54:38Z</time>
      </trkpt>
      <trkpt lat="41.594071" lon="-8.620908">
        <ele>118.404</ele>
        <time>2015-03-25T08:54:52Z</time>
      </trkpt>
      <trkpt lat="41.594412" lon="-8.621080">
        <ele>119.824</ele>
        <time>2015-03-25T08:55:12Z</time>
      </trkpt>
      <trkpt lat="41.594680" lon="-8.621313">
        <ele>121.707</ele>
        <time>2015-03-25T08:55:30Z</time>
      </trkpt>
      <trkpt lat="41.594929" lon="-8.621515">
        <ele>125.155</ele>
        <time>2015-03-25T08:55:49Z</time>
      </trkpt>
      <trkpt lat="41.595144" lon="-8.621604">
        <ele>127.588</ele>
        <time>2015-03-25T08:56:05Z</time>
      </trkpt>
      <trkpt lat="41.595346" lon="-8.621689">
        <ele>130.920</ele>
        <time>2015-03-25T08:56:20Z</time>
      </trkpt>
      <trkpt lat="41.595542" lon="-8.621797">
        <ele>133.310</ele>
        <time>2015-03-25T08:56:35Z</time>
      </trkpt>
      <trkpt lat="41.595798" lon="-8.621973">
        <ele>136.638</ele>
        <time>2015-03-25T08:56:54Z</time>
      </trkpt>
      <trkpt lat="41.595936" lon="-8.622055">
        <ele>138.153</ele>
        <time>2015-03-25T08:57:04Z</time>
      </trkpt>
      <trkpt lat="41.596184" lon="-8.622261">
        <ele>140.560</ele>
        <time>2015-03-25T08:57:22Z</time>
      </trkpt>
      <trkpt lat="41.596437" lon="-8.622355">
        <ele>141.997</ele>
        <time>2015-03-25T08:57:37Z</time>
      </trkpt>
      <trkpt lat="41.596714" lon="-8.622402">
        <ele>142.423</ele>
        <time>2015-03-25T08:57:53Z</time>
      </trkpt>
      <trkpt lat="41.597077" lon="-8.622498">
        <ele>143.925</ele>
        <time>2015-03-25T08:58:13Z</time>
      </trkpt>
      <trkpt lat="41.597460" lon="-8.622580">
        <ele>145.807</ele>
        <time>2015-03-25T08:58:34Z</time>
      </trkpt>
      <trkpt lat="41.597763" lon="-8.622633">
        <ele>148.258</ele>
        <time>2015-03-25T08:58:52Z</time>
      </trkpt>
      <trkpt lat="41.598006" lon="-8.622764">
        <ele>151.561</ele>
        <time>2015-03-25T08:59:09Z</time>
      </trkpt>
      <trkpt lat="41.598297" lon="-8.622959">
        <ele>154.093</ele>
        <time>2015-03-25T08:59:30Z</time>
      </trkpt>
      <trkpt lat="41.598533" lon="-8.623186">
        <ele>156.863</ele>
        <time>2015-03-25T08:59:49Z</time>
      </trkpt>
      <trkpt lat="41.598739" lon="-8.623388">
        <ele>159.781</ele>
        <time>2015-03-25T09:00:06Z</time>
      </trkpt>
      <trkpt lat="41.598945" lon="-8.623560">
        <ele>163.196</ele>
        <time>2015-03-25T09:00:23Z</time>
      </trkpt>
      <trkpt lat="41.599221" lon="-8.623680">
        <ele>164.033</ele>
        <time>2015-03-25T09:00:41Z</time>
      </trkpt>
      <trkpt lat="41.599465" lon="-8.623796">
        <ele>166.051</ele>
        <time>2015-03-25T09:00:57Z</time>
      </trkpt>
      <trkpt lat="41.599712" lon="-8.624002">
        <ele>168.901</ele>
        <time>2015-03-25T09:01:16Z</time>
      </trkpt>
      <trkpt lat="41.599760" lon="-8.624127">
        <ele>169.811</ele>
        <time>2015-03-25T09:01:23Z</time>
      </trkpt>
      <trkpt lat="41.599876" lon="-8.624310">
        <ele>172.207</ele>
        <time>2015-03-25T09:01:37Z</time>
      </trkpt>
      <trkpt lat="41.600123" lon="-8.624431">
        <ele>174.134</ele>
        <time>2015-03-25T09:01:54Z</time>
      </trkpt>
      <trkpt lat="41.600312" lon="-8.624622">
        <ele>176.527</ele>
        <time>2015-03-25T09:02:10Z</time>
      </trkpt>
      <trkpt lat="41.600541" lon="-8.624853">
        <ele>179.419</ele>
        <time>2015-03-25T09:02:28Z</time>
      </trkpt>
      <trkpt lat="41.600725" lon="-8.625172">
        <ele>181.849</ele>
        <time>2015-03-25T09:02:47Z</time>
      </trkpt>
      <trkpt lat="41.600926" lon="-8.625480">
        <ele>182.887</ele>
        <time>2015-03-25T09:03:05Z</time>
      </trkpt>
      <trkpt lat="41.601138" lon="-8.625897">
        <ele>185.292</ele>
        <time>2015-03-25T09:03:26Z</time>
      </trkpt>
      <trkpt lat="41.601205" lon="-8.626251">
        <ele>187.169</ele>
        <time>2015-03-25T09:03:42Z</time>
      </trkpt>
      <trkpt lat="41.601295" lon="-8.626636">
        <ele>188.665</ele>
        <time>2015-03-25T09:03:58Z</time>
      </trkpt>
      <trkpt lat="41.601436" lon="-8.627135">
        <ele>190.068</ele>
        <time>2015-03-25T09:04:17Z</time>
      </trkpt>
      <trkpt lat="41.601652" lon="-8.627522">
        <ele>190.014</ele>
        <time>2015-03-25T09:04:32Z</time>
      </trkpt>
      <trkpt lat="41.601887" lon="-8.627993">
        <ele>188.607</ele>
        <time>2015-03-25T09:04:50Z</time>
      </trkpt>
      <trkpt lat="41.602140" lon="-8.628030">
        <ele>191.075</ele>
        <time>2015-03-25T09:05:04Z</time>
      </trkpt>
      <trkpt lat="41.602304" lon="-8.628244">
        <ele>192.978</ele>
        <time>2015-03-25T09:05:18Z</time>
      </trkpt>
      <trkpt lat="41.602281" lon="-8.628362">
        <ele>193.440</ele>
        <time>2015-03-25T09:05:32Z</time>
      </trkpt>
      <trkpt lat="41.602218" lon="-8.628692">
        <ele>195.820</ele>
        <time>2015-03-25T09:06:17Z</time>
      </trkpt>
      <trkpt lat="41.602154" lon="-8.628748">
        <ele>195.848</ele>
        <time>2015-03-25T09:07:09Z</time>
      </trkpt>
      <trkpt lat="41.602167" lon="-8.628587">
        <ele>195.813</ele>
        <time>2015-03-25T09:07:35Z</time>
      </trkpt>
      <trkpt lat="41.602069" lon="-8.628620">
        <ele>193.420</ele>
        <time>2015-03-25T09:07:43Z</time>
      </trkpt>
      <trkpt lat="41.601931" lon="-8.628965">
        <ele>193.445</ele>
        <time>2015-03-25T09:07:56Z</time>
      </trkpt>
      <trkpt lat="41.601904" lon="-8.629127">
        <ele>193.447</ele>
        <time>2015-03-25T09:08:01Z</time>
      </trkpt>
      <trkpt lat="41.601821" lon="-8.629430">
        <ele>193.411</ele>
        <time>2015-03-25T09:08:16Z</time>
      </trkpt>
      <trkpt lat="41.601801" lon="-8.629574">
        <ele>194.307</ele>
        <time>2015-03-25T09:08:21Z</time>
      </trkpt>
      <trkpt lat="41.601731" lon="-8.629976">
        <ele>196.313</ele>
        <time>2015-03-25T09:08:37Z</time>
      </trkpt>
      <trkpt lat="41.601803" lon="-8.630091">
        <ele>197.766</ele>
        <time>2015-03-25T09:08:43Z</time>
      </trkpt>
      <trkpt lat="41.602134" lon="-8.630229">
        <ele>199.128</ele>
        <time>2015-03-25T09:08:59Z</time>
      </trkpt>
      <trkpt lat="41.602504" lon="-8.630411">
        <ele>201.128</ele>
        <time>2015-03-25T09:09:16Z</time>
      </trkpt>
      <trkpt lat="41.602901" lon="-8.630610">
        <ele>202.016</ele>
        <time>2015-03-25T09:09:34Z</time>
      </trkpt>
      <trkpt lat="41.603470" lon="-8.630866">
        <ele>203.021</ele>
        <time>2015-03-25T09:09:53Z</time>
      </trkpt>
      <trkpt lat="41.603618" lon="-8.630935">
        <ele>201.558</ele>
        <time>2015-03-25T09:09:57Z</time>
      </trkpt>
      <trkpt lat="41.603879" lon="-8.631042">
        <ele>200.682</ele>
        <time>2015-03-25T09:10:04Z</time>
      </trkpt>
      <trkpt lat="41.604174" lon="-8.631003">
        <ele>199.643</ele>
        <time>2015-03-25T09:10:10Z</time>
      </trkpt>
      <trkpt lat="41.604405" lon="-8.630781">
        <ele>198.217</ele>
        <time>2015-03-25T09:10:15Z</time>
      </trkpt>
      <trkpt lat="41.604823" lon="-8.630616">
        <ele>196.307</ele>
        <time>2015-03-25T09:10:23Z</time>
      </trkpt>
      <trkpt lat="41.604980" lon="-8.630777">
        <ele>195.847</ele>
        <time>2015-03-25T09:10:26Z</time>
      </trkpt>
      <trkpt lat="41.605231" lon="-8.631114">
        <ele>193.880</ele>
        <time>2015-03-25T09:10:31Z</time>
      </trkpt>
      <trkpt lat="41.605251" lon="-8.631732">
        <ele>190.522</ele>
        <time>2015-03-25T09:10:38Z</time>
      </trkpt>
      <trkpt lat="41.605016" lon="-8.632206">
        <ele>186.672</ele>
        <time>2015-03-25T09:10:43Z</time>
      </trkpt>
      <trkpt lat="41.604918" lon="-8.632417">
        <ele>185.220</ele>
        <time>2015-03-25T09:10:45Z</time>
      </trkpt>
      <trkpt lat="41.604963" lon="-8.633108">
        <ele>182.315</ele>
        <time>2015-03-25T09:10:51Z</time>
      </trkpt>
      <trkpt lat="41.605065" lon="-8.633373">
        <ele>181.852</ele>
        <time>2015-03-25T09:10:54Z</time>
      </trkpt>
      <trkpt lat="41.605298" lon="-8.633417">
        <ele>178.986</ele>
        <time>2015-03-25T09:11:01Z</time>
      </trkpt>
      <trkpt lat="41.605506" lon="-8.633437">
        <ele>175.660</ele>
        <time>2015-03-25T09:11:05Z</time>
      </trkpt>
      <trkpt lat="41.605620" lon="-8.633531">
        <ele>174.126</ele>
        <time>2015-03-25T09:11:07Z</time>
      </trkpt>
      <trkpt lat="41.605733" lon="-8.633635">
        <ele>172.707</ele>
        <time>2015-03-25T09:11:09Z</time>
      </trkpt>
      <trkpt lat="41.605897" lon="-8.633798">
        <ele>169.867</ele>
        <time>2015-03-25T09:11:12Z</time>
      </trkpt>
      <trkpt lat="41.606261" lon="-8.633971">
        <ele>165.080</ele>
        <time>2015-03-25T09:11:17Z</time>
      </trkpt>
      <trkpt lat="41.606417" lon="-8.634057">
        <ele>163.692</ele>
        <time>2015-03-25T09:11:19Z</time>
      </trkpt>
      <trkpt lat="41.606693" lon="-8.634270">
        <ele>160.792</ele>
        <time>2015-03-25T09:11:23Z</time>
      </trkpt>
      <trkpt lat="41.606752" lon="-8.634326">
        <ele>159.790</ele>
        <time>2015-03-25T09:11:24Z</time>
      </trkpt>
      <trkpt lat="41.606865" lon="-8.634696">
        <ele>157.825</ele>
        <time>2015-03-25T09:11:29Z</time>
      </trkpt>
      <trkpt lat="41.606991" lon="-8.635040">
        <ele>157.342</ele>
        <time>2015-03-25T09:11:35Z</time>
      </trkpt>
      <trkpt lat="41.607413" lon="-8.635212">
        <ele>158.811</ele>
        <time>2015-03-25T09:11:47Z</time>
      </trkpt>
      <trkpt lat="41.607530" lon="-8.635274">
        <ele>158.821</ele>
        <time>2015-03-25T09:11:50Z</time>
      </trkpt>
      <trkpt lat="41.607691" lon="-8.635343">
        <ele>157.303</ele>
        <time>2015-03-25T09:11:54Z</time>
      </trkpt>
      <trkpt lat="41.608313" lon="-8.635584">
        <ele>155.907</ele>
        <time>2015-03-25T09:12:09Z</time>
      </trkpt>
      <trkpt lat="41.608877" lon="-8.635761">
        <ele>155.970</ele>
        <time>2015-03-25T09:12:24Z</time>
      </trkpt>
      <trkpt lat="41.609183" lon="-8.635842">
        <ele>155.913</ele>
        <time>2015-03-25T09:12:33Z</time>
      </trkpt>
      <trkpt lat="41.609551" lon="-8.635904">
        <ele>154.925</ele>
        <time>2015-03-25T09:12:45Z</time>
      </trkpt>
      <trkpt lat="41.609619" lon="-8.635944">
        <ele>154.485</ele>
        <time>2015-03-25T09:12:51Z</time>
      </trkpt>
      <trkpt lat="41.609704" lon="-8.635940">
        <ele>154.043</ele>
        <time>2015-03-25T09:13:03Z</time>
      </trkpt>
      <trkpt lat="41.609910" lon="-8.636064">
        <ele>151.578</ele>
        <time>2015-03-25T09:13:10Z</time>
      </trkpt>
      <trkpt lat="41.610122" lon="-8.636275">
        <ele>150.145</ele>
        <time>2015-03-25T09:13:17Z</time>
      </trkpt>
      <trkpt lat="41.610166" lon="-8.636367">
        <ele>150.123</ele>
        <time>2015-03-25T09:13:19Z</time>
      </trkpt>
      <trkpt lat="41.610255" lon="-8.636629">
        <ele>146.783</ele>
        <time>2015-03-25T09:13:24Z</time>
      </trkpt>
      <trkpt lat="41.610403" lon="-8.636784">
        <ele>146.311</ele>
        <time>2015-03-25T09:13:28Z</time>
      </trkpt>
      <trkpt lat="41.610527" lon="-8.636856">
        <ele>145.807</ele>
        <time>2015-03-25T09:13:31Z</time>
      </trkpt>
      <trkpt lat="41.610853" lon="-8.637043">
        <ele>143.961</ele>
        <time>2015-03-25T09:13:40Z</time>
      </trkpt>
      <trkpt lat="41.610933" lon="-8.637032">
        <ele>142.994</ele>
        <time>2015-03-25T09:13:42Z</time>
      </trkpt>
      <trkpt lat="41.611021" lon="-8.636952">
        <ele>142.966</ele>
        <time>2015-03-25T09:13:46Z</time>
      </trkpt>
      <trkpt lat="41.610918" lon="-8.636566">
        <ele>141.016</ele>
        <time>2015-03-25T09:13:58Z</time>
      </trkpt>
      <trkpt lat="41.610815" lon="-8.636383">
        <ele>140.034</ele>
        <time>2015-03-25T09:14:01Z</time>
      </trkpt>
      <trkpt lat="41.610904" lon="-8.636050">
        <ele>138.139</ele>
        <time>2015-03-25T09:14:08Z</time>
      </trkpt>
      <trkpt lat="41.611036" lon="-8.636056">
        <ele>137.196</ele>
        <time>2015-03-25T09:14:10Z</time>
      </trkpt>
      <trkpt lat="41.611671" lon="-8.636078">
        <ele>133.828</ele>
        <time>2015-03-25T09:14:19Z</time>
      </trkpt>
      <trkpt lat="41.611860" lon="-8.636191">
        <ele>130.489</ele>
        <time>2015-03-25T09:14:23Z</time>
      </trkpt>
      <trkpt lat="41.611985" lon="-8.636464">
        <ele>126.117</ele>
        <time>2015-03-25T09:14:30Z</time>
      </trkpt>
      <trkpt lat="41.612071" lon="-8.636635">
        <ele>124.207</ele>
        <time>2015-03-25T09:14:34Z</time>
      </trkpt>
      <trkpt lat="41.612261" lon="-8.636699">
        <ele>121.311</ele>
        <time>2015-03-25T09:14:39Z</time>
      </trkpt>
      <trkpt lat="41.612543" lon="-8.636676">
        <ele>117.484</ele>
        <time>2015-03-25T09:14:45Z</time>
      </trkpt>
      <trkpt lat="41.612626" lon="-8.636726">
        <ele>116.076</ele>
        <time>2015-03-25T09:14:47Z</time>
      </trkpt>
      <trkpt lat="41.612734" lon="-8.636847">
        <ele>115.066</ele>
        <time>2015-03-25T09:14:50Z</time>
      </trkpt>
      <trkpt lat="41.612772" lon="-8.636884">
        <ele>114.554</ele>
        <time>2015-03-25T09:14:51Z</time>
      </trkpt>
      <trkpt lat="41.612852" lon="-8.636906">
        <ele>113.629</ele>
        <time>2015-03-25T09:14:53Z</time>
      </trkpt>
      <trkpt lat="41.612983" lon="-8.636839">
        <ele>111.256</ele>
        <time>2015-03-25T09:14:56Z</time>
      </trkpt>
      <trkpt lat="41.613076" lon="-8.636808">
        <ele>110.719</ele>
        <time>2015-03-25T09:14:58Z</time>
      </trkpt>
      <trkpt lat="41.613163" lon="-8.636783">
        <ele>109.709</ele>
        <time>2015-03-25T09:15:00Z</time>
      </trkpt>
      <trkpt lat="41.613690" lon="-8.636741">
        <ele>108.819</ele>
        <time>2015-03-25T09:15:15Z</time>
      </trkpt>
      <trkpt lat="41.614006" lon="-8.636783">
        <ele>107.807</ele>
        <time>2015-03-25T09:15:24Z</time>
      </trkpt>
      <trkpt lat="41.614469" lon="-8.636941">
        <ele>106.820</ele>
        <time>2015-03-25T09:15:37Z</time>
      </trkpt>
      <trkpt lat="41.614904" lon="-8.637439">
        <ele>105.933</ele>
        <time>2015-03-25T09:15:53Z</time>
      </trkpt>
      <trkpt lat="41.615339" lon="-8.637920">
        <ele>107.355</ele>
        <time>2015-03-25T09:16:10Z</time>
      </trkpt>
      <trkpt lat="41.615706" lon="-8.638206">
        <ele>107.855</ele>
        <time>2015-03-25T09:16:23Z</time>
      </trkpt>
      <trkpt lat="41.616104" lon="-8.638528">
        <ele>107.833</ele>
        <time>2015-03-25T09:16:36Z</time>
      </trkpt>
      <trkpt lat="41.616618" lon="-8.638820">
        <ele>107.848</ele>
        <time>2015-03-25T09:16:52Z</time>
      </trkpt>
      <trkpt lat="41.617098" lon="-8.639038">
        <ele>107.815</ele>
        <time>2015-03-25T09:17:07Z</time>
      </trkpt>
      <trkpt lat="41.617427" lon="-8.639418">
        <ele>106.429</ele>
        <time>2015-03-25T09:17:19Z</time>
      </trkpt>
      <trkpt lat="41.617756" lon="-8.639528">
        <ele>107.800</ele>
        <time>2015-03-25T09:17:30Z</time>
      </trkpt>
      <trkpt lat="41.618202" lon="-8.639648">
        <ele>108.820</ele>
        <time>2015-03-25T09:17:44Z</time>
      </trkpt>
      <trkpt lat="41.618574" lon="-8.639656">
        <ele>107.307</ele>
        <time>2015-03-25T09:17:53Z</time>
      </trkpt>
      <trkpt lat="41.619182" lon="-8.639618">
        <ele>105.921</ele>
        <time>2015-03-25T09:18:06Z</time>
      </trkpt>
      <trkpt lat="41.619689" lon="-8.639558">
        <ele>105.974</ele>
        <time>2015-03-25T09:18:19Z</time>
      </trkpt>
      <trkpt lat="41.620110" lon="-8.639363">
        <ele>102.516</ele>
        <time>2015-03-25T09:18:26Z</time>
      </trkpt>
      <trkpt lat="41.620567" lon="-8.639138">
        <ele>98.756</ele>
        <time>2015-03-25T09:18:32Z</time>
      </trkpt>
      <trkpt lat="41.620827" lon="-8.639065">
        <ele>97.264</ele>
        <time>2015-03-25T09:18:35Z</time>
      </trkpt>
      <trkpt lat="41.620994" lon="-8.639037">
        <ele>95.889</ele>
        <time>2015-03-25T09:18:37Z</time>
      </trkpt>
      <trkpt lat="41.621238" lon="-8.638875">
        <ele>94.466</ele>
        <time>2015-03-25T09:18:44Z</time>
      </trkpt>
      <trkpt lat="41.621344" lon="-8.638872">
        <ele>94.436</ele>
        <time>2015-03-25T09:18:51Z</time>
      </trkpt>
      <trkpt lat="41.621725" lon="-8.639389">
        <ele>93.417</ele>
        <time>2015-03-25T09:19:03Z</time>
      </trkpt>
      <trkpt lat="41.622048" lon="-8.639810">
        <ele>91.918</ele>
        <time>2015-03-25T09:19:12Z</time>
      </trkpt>
      <trkpt lat="41.622154" lon="-8.640041">
        <ele>91.907</ele>
        <time>2015-03-25T09:19:16Z</time>
      </trkpt>
      <trkpt lat="41.622386" lon="-8.640791">
        <ele>90.092</ele>
        <time>2015-03-25T09:19:27Z</time>
      </trkpt>
      <trkpt lat="41.622447" lon="-8.640924">
        <ele>89.595</ele>
        <time>2015-03-25T09:19:29Z</time>
      </trkpt>
      <trkpt lat="41.622748" lon="-8.641700">
        <ele>86.247</ele>
        <time>2015-03-25T09:19:39Z</time>
      </trkpt>
      <trkpt lat="41.622836" lon="-8.641869">
        <ele>85.777</ele>
        <time>2015-03-25T09:19:41Z</time>
      </trkpt>
      <trkpt lat="41.623230" lon="-8.642475">
        <ele>81.955</ele>
        <time>2015-03-25T09:19:48Z</time>
      </trkpt>
      <trkpt lat="41.623286" lon="-8.642568">
        <ele>81.410</ele>
        <time>2015-03-25T09:19:49Z</time>
      </trkpt>
      <trkpt lat="41.623452" lon="-8.643010">
        <ele>79.597</ele>
        <time>2015-03-25T09:19:53Z</time>
      </trkpt>
      <trkpt lat="41.623865" lon="-8.643479">
        <ele>78.538</ele>
        <time>2015-03-25T09:20:01Z</time>
      </trkpt>
      <trkpt lat="41.623917" lon="-8.643691">
        <ele>76.670</ele>
        <time>2015-03-25T09:20:08Z</time>
      </trkpt>
      <trkpt lat="41.623708" lon="-8.644074">
        <ele>74.217</ele>
        <time>2015-03-25T09:20:16Z</time>
      </trkpt>
      <trkpt lat="41.623794" lon="-8.644081">
        <ele>73.207</ele>
        <time>2015-03-25T09:20:20Z</time>
      </trkpt>
      <trkpt lat="41.623833" lon="-8.644048">
        <ele>73.232</ele>
        <time>2015-03-25T09:20:23Z</time>
      </trkpt>
      <trkpt lat="41.623898" lon="-8.644056">
        <ele>72.755</ele>
        <time>2015-03-25T09:20:35Z</time>
      </trkpt>
      <trkpt lat="41.624009" lon="-8.643964">
        <ele>74.227</ele>
        <time>2015-03-25T09:35:21Z</time>
      </trkpt>
      <trkpt lat="41.624291" lon="-8.643799">
        <ele>74.277</ele>
        <time>2015-03-25T09:35:38Z</time>
      </trkpt>
      <trkpt lat="41.624510" lon="-8.643571">
        <ele>75.655</ele>
        <time>2015-03-25T09:35:53Z</time>
      </trkpt>
      <trkpt lat="41.624727" lon="-8.643250">
        <ele>77.080</ele>
        <time>2015-03-25T09:36:08Z</time>
      </trkpt>
      <trkpt lat="41.625006" lon="-8.642780">
        <ele>75.697</ele>
        <time>2015-03-25T09:36:22Z</time>
      </trkpt>
      <trkpt lat="41.625410" lon="-8.642411">
        <ele>75.158</ele>
        <time>2015-03-25T09:36:37Z</time>
      </trkpt>
      <trkpt lat="41.625933" lon="-8.642341">
        <ele>76.652</ele>
        <time>2015-03-25T09:36:54Z</time>
      </trkpt>
      <trkpt lat="41.626363" lon="-8.642355">
        <ele>77.517</ele>
        <time>2015-03-25T09:37:09Z</time>
      </trkpt>
      <trkpt lat="41.626879" lon="-8.642242">
        <ele>77.007</ele>
        <time>2015-03-25T09:37:24Z</time>
      </trkpt>
      <trkpt lat="41.627313" lon="-8.642244">
        <ele>76.164</ele>
        <time>2015-03-25T09:37:34Z</time>
      </trkpt>
      <trkpt lat="41.627956" lon="-8.642271">
        <ele>75.157</ele>
        <time>2015-03-25T09:37:51Z</time>
      </trkpt>
      <trkpt lat="41.628459" lon="-8.642274">
        <ele>71.879</ele>
        <time>2015-03-25T09:38:03Z</time>
      </trkpt>
      <trkpt lat="41.628516" lon="-8.642277">
        <ele>71.859</ele>
        <time>2015-03-25T09:38:04Z</time>
      </trkpt>
      <trkpt lat="41.629037" lon="-8.642289">
        <ele>68.447</ele>
        <time>2015-03-25T09:38:12Z</time>
      </trkpt>
      <trkpt lat="41.629344" lon="-8.642248">
        <ele>67.442</ele>
        <time>2015-03-25T09:38:17Z</time>
      </trkpt>
      <trkpt lat="41.629575" lon="-8.642127">
        <ele>67.429</ele>
        <time>2015-03-25T09:38:22Z</time>
      </trkpt>
      <trkpt lat="41.630253" lon="-8.641797">
        <ele>65.523</ele>
        <time>2015-03-25T09:38:38Z</time>
      </trkpt>
      <trkpt lat="41.630416" lon="-8.641686">
        <ele>65.083</ele>
        <time>2015-03-25T09:38:42Z</time>
      </trkpt>
      <trkpt lat="41.630808" lon="-8.641766">
        <ele>64.111</ele>
        <time>2015-03-25T09:38:53Z</time>
      </trkpt>
      <trkpt lat="41.631280" lon="-8.641894">
        <ele>63.607</ele>
        <time>2015-03-25T09:39:07Z</time>
      </trkpt>
      <trkpt lat="41.631843" lon="-8.641852">
        <ele>63.121</ele>
        <time>2015-03-25T09:39:23Z</time>
      </trkpt>
      <trkpt lat="41.631970" lon="-8.641927">
        <ele>62.644</ele>
        <time>2015-03-25T09:39:29Z</time>
      </trkpt>
      <trkpt lat="41.632031" lon="-8.642008">
        <ele>62.656</ele>
        <time>2015-03-25T09:39:36Z</time>
      </trkpt>
      <trkpt lat="41.632082" lon="-8.642120">
        <ele>64.156</ele>
        <time>2015-03-25T09:39:44Z</time>
      </trkpt>
      <trkpt lat="41.632172" lon="-8.642301">
        <ele>64.694</ele>
        <time>2015-03-25T09:39:57Z</time>
      </trkpt>
      <trkpt lat="41.632262" lon="-8.642425">
        <ele>63.669</ele>
        <time>2015-03-25T09:40:04Z</time>
      </trkpt>
      <trkpt lat="41.632312" lon="-8.642443">
        <ele>62.676</ele>
        <time>2015-03-25T09:40:47Z</time>
      </trkpt>
      <trkpt lat="41.632351" lon="-8.642395">
        <ele>62.623</ele>
        <time>2015-03-25T09:41:25Z</time>
      </trkpt>
      <trkpt lat="41.632597" lon="-8.642252">
        <ele>62.683</ele>
        <time>2015-03-25T09:41:38Z</time>
      </trkpt>
      <trkpt lat="41.632899" lon="-8.641851">
        <ele>62.611</ele>
        <time>2015-03-25T09:41:55Z</time>
      </trkpt>
      <trkpt lat="41.632946" lon="-8.641758">
        <ele>63.607</ele>
        <time>2015-03-25T09:41:58Z</time>
      </trkpt>
      <trkpt lat="41.633224" lon="-8.641249">
        <ele>63.641</ele>
        <time>2015-03-25T09:42:14Z</time>
      </trkpt>
      <trkpt lat="41.633593" lon="-8.640632">
        <ele>63.664</ele>
        <time>2015-03-25T09:42:32Z</time>
      </trkpt>
      <trkpt lat="41.633844" lon="-8.640045">
        <ele>63.646</ele>
        <time>2015-03-25T09:42:47Z</time>
      </trkpt>
      <trkpt lat="41.634282" lon="-8.639536">
        <ele>63.676</ele>
        <time>2015-03-25T09:43:04Z</time>
      </trkpt>
      <trkpt lat="41.634659" lon="-8.639110">
        <ele>64.684</ele>
        <time>2015-03-25T09:43:19Z</time>
      </trkpt>
      <trkpt lat="41.635083" lon="-8.638513">
        <ele>65.059</ele>
        <time>2015-03-25T09:43:38Z</time>
      </trkpt>
      <trkpt lat="41.635576" lon="-8.638435">
        <ele>65.526</ele>
        <time>2015-03-25T09:43:53Z</time>
      </trkpt>
      <trkpt lat="41.636207" lon="-8.638446">
        <ele>66.089</ele>
        <time>2015-03-25T09:44:12Z</time>
      </trkpt>
      <trkpt lat="41.636759" lon="-8.638369">
        <ele>67.006</ele>
        <time>2015-03-25T09:44:29Z</time>
      </trkpt>
      <trkpt lat="41.637314" lon="-8.638297">
        <ele>68.426</ele>
        <time>2015-03-25T09:44:47Z</time>
      </trkpt>
      <trkpt lat="41.637789" lon="-8.638184">
        <ele>69.807</ele>
        <time>2015-03-25T09:45:03Z</time>
      </trkpt>
      <trkpt lat="41.638313" lon="-8.638180">
        <ele>71.897</ele>
        <time>2015-03-25T09:45:22Z</time>
      </trkpt>
      <trkpt lat="41.638689" lon="-8.638227">
        <ele>72.740</ele>
        <time>2015-03-25T09:45:39Z</time>
      </trkpt>
      <trkpt lat="41.639034" lon="-8.638354">
        <ele>73.772</ele>
        <time>2015-03-25T09:45:57Z</time>
      </trkpt>
      <trkpt lat="41.639317" lon="-8.638484">
        <ele>75.172</ele>
        <time>2015-03-25T09:46:12Z</time>
      </trkpt>
      <trkpt lat="41.639534" lon="-8.638720">
        <ele>77.570</ele>
        <time>2015-03-25T09:46:27Z</time>
      </trkpt>
      <trkpt lat="41.639628" lon="-8.639150">
        <ele>79.945</ele>
        <time>2015-03-25T09:46:45Z</time>
      </trkpt>
      <trkpt lat="41.639854" lon="-8.639510">
        <ele>80.972</ele>
        <time>2015-03-25T09:47:03Z</time>
      </trkpt>
      <trkpt lat="41.639917" lon="-8.639562">
        <ele>81.468</ele>
        <time>2015-03-25T09:47:07Z</time>
      </trkpt>
      <trkpt lat="41.640093" lon="-8.639421">
        <ele>83.842</ele>
        <time>2015-03-25T09:47:20Z</time>
      </trkpt>
      <trkpt lat="41.640375" lon="-8.639352">
        <ele>85.226</ele>
        <time>2015-03-25T09:47:37Z</time>
      </trkpt>
      <trkpt lat="41.640569" lon="-8.639286">
        <ele>88.107</ele>
        <time>2015-03-25T09:47:54Z</time>
      </trkpt>
      <trkpt lat="41.640712" lon="-8.639224">
        <ele>88.165</ele>
        <time>2015-03-25T09:48:04Z</time>
      </trkpt>
      <trkpt lat="41.640903" lon="-8.639079">
        <ele>89.148</ele>
        <time>2015-03-25T09:48:17Z</time>
      </trkpt>
      <trkpt lat="41.641177" lon="-8.638706">
        <ele>89.180</ele>
        <time>2015-03-25T09:48:33Z</time>
      </trkpt>
      <trkpt lat="41.641461" lon="-8.638539">
        <ele>89.140</ele>
        <time>2015-03-25T09:48:45Z</time>
      </trkpt>
      <trkpt lat="41.641607" lon="-8.638714">
        <ele>89.198</ele>
        <time>2015-03-25T09:48:54Z</time>
      </trkpt>
      <trkpt lat="41.641793" lon="-8.638956">
        <ele>90.033</ele>
        <time>2015-03-25T09:49:07Z</time>
      </trkpt>
      <trkpt lat="41.641962" lon="-8.638984">
        <ele>91.030</ele>
        <time>2015-03-25T09:49:20Z</time>
      </trkpt>
      <trkpt lat="41.642097" lon="-8.638932">
        <ele>92.466</ele>
        <time>2015-03-25T09:49:31Z</time>
      </trkpt>
      <trkpt lat="41.642249" lon="-8.638860">
        <ele>94.429</ele>
        <time>2015-03-25T09:49:45Z</time>
      </trkpt>
      <trkpt lat="41.642282" lon="-8.638905">
        <ele>95.321</ele>
        <time>2015-03-25T09:49:49Z</time>
      </trkpt>
      <trkpt lat="41.642308" lon="-8.639213">
        <ele>97.207</ele>
        <time>2015-03-25T09:50:06Z</time>
      </trkpt>
      <trkpt lat="41.642360" lon="-8.639271">
        <ele>98.255</ele>
        <time>2015-03-25T09:50:12Z</time>
      </trkpt>
      <trkpt lat="41.642543" lon="-8.639179">
        <ele>99.248</ele>
        <time>2015-03-25T09:50:26Z</time>
      </trkpt>
      <trkpt lat="41.642827" lon="-8.639119">
        <ele>101.630</ele>
        <time>2015-03-25T09:50:44Z</time>
      </trkpt>
      <trkpt lat="41.643060" lon="-8.639281">
        <ele>104.410</ele>
        <time>2015-03-25T09:51:01Z</time>
      </trkpt>
      <trkpt lat="41.643319" lon="-8.639169">
        <ele>104.428</ele>
        <time>2015-03-25T09:51:13Z</time>
      </trkpt>
      <trkpt lat="41.643611" lon="-8.639012">
        <ele>104.433</ele>
        <time>2015-03-25T09:51:26Z</time>
      </trkpt>
      <trkpt lat="41.643871" lon="-8.639084">
        <ele>105.490</ele>
        <time>2015-03-25T09:51:41Z</time>
      </trkpt>
      <trkpt lat="41.644287" lon="-8.639035">
        <ele>104.036</ele>
        <time>2015-03-25T09:51:54Z</time>
      </trkpt>
      <trkpt lat="41.644671" lon="-8.638818">
        <ele>104.017</ele>
        <time>2015-03-25T09:52:12Z</time>
      </trkpt>
      <trkpt lat="41.644802" lon="-8.638762">
        <ele>104.918</ele>
        <time>2015-03-25T09:52:19Z</time>
      </trkpt>
      <trkpt lat="41.645084" lon="-8.638775">
        <ele>107.307</ele>
        <time>2015-03-25T09:52:34Z</time>
      </trkpt>
      <trkpt lat="41.645186" lon="-8.638782">
        <ele>107.842</ele>
        <time>2015-03-25T09:52:47Z</time>
      </trkpt>
      <trkpt lat="41.645426" lon="-8.638843">
        <ele>106.845</ele>
        <time>2015-03-25T09:55:13Z</time>
      </trkpt>
      <trkpt lat="41.645598" lon="-8.638861">
        <ele>105.987</ele>
        <time>2015-03-25T09:55:17Z</time>
      </trkpt>
      <trkpt lat="41.645775" lon="-8.638814">
        <ele>105.467</ele>
        <time>2015-03-25T09:55:21Z</time>
      </trkpt>
      <trkpt lat="41.646410" lon="-8.638654">
        <ele>104.945</ele>
        <time>2015-03-25T09:55:38Z</time>
      </trkpt>
      <trkpt lat="41.646850" lon="-8.638753">
        <ele>103.510</ele>
        <time>2015-03-25T09:55:50Z</time>
      </trkpt>
      <trkpt lat="41.647219" lon="-8.638816">
        <ele>103.557</ele>
        <time>2015-03-25T09:56:03Z</time>
      </trkpt>
      <trkpt lat="41.647364" lon="-8.638892">
        <ele>106.446</ele>
        <time>2015-03-25T09:56:13Z</time>
      </trkpt>
      <trkpt lat="41.647578" lon="-8.638999">
        <ele>109.788</ele>
        <time>2015-03-25T09:56:29Z</time>
      </trkpt>
      <trkpt lat="41.647899" lon="-8.639054">
        <ele>111.216</ele>
        <time>2015-03-25T09:56:49Z</time>
      </trkpt>
      <trkpt lat="41.648137" lon="-8.638932">
        <ele>113.107</ele>
        <time>2015-03-25T09:57:04Z</time>
      </trkpt>
      <trkpt lat="41.648340" lon="-8.638603">
        <ele>116.053</ele>
        <time>2015-03-25T09:57:23Z</time>
      </trkpt>
      <trkpt lat="41.648570" lon="-8.638320">
        <ele>117.966</ele>
        <time>2015-03-25T09:57:41Z</time>
      </trkpt>
      <trkpt lat="41.648686" lon="-8.638052">
        <ele>118.448</ele>
        <time>2015-03-25T09:57:54Z</time>
      </trkpt>
      <trkpt lat="41.648646" lon="-8.637757">
        <ele>116.998</ele>
        <time>2015-03-25T09:58:26Z</time>
      </trkpt>
      <trkpt lat="41.648607" lon="-8.637593">
        <ele>116.516</ele>
        <time>2015-03-25T09:58:35Z</time>
      </trkpt>
      <trkpt lat="41.648553" lon="-8.637517">
        <ele>116.571</ele>
        <time>2015-03-25T09:59:03Z</time>
      </trkpt>
      <trkpt lat="41.648333" lon="-8.637127">
        <ele>115.578</ele>
        <time>2015-03-25T09:59:17Z</time>
      </trkpt>
      <trkpt lat="41.648224" lon="-8.636950">
        <ele>114.514</ele>
        <time>2015-03-25T09:59:22Z</time>
      </trkpt>
      <trkpt lat="41.647982" lon="-8.636908">
        <ele>111.254</ele>
        <time>2015-03-25T09:59:27Z</time>
      </trkpt>
      <trkpt lat="41.647793" lon="-8.636989">
        <ele>107.309</ele>
        <time>2015-03-25T09:59:30Z</time>
      </trkpt>
      <trkpt lat="41.647602" lon="-8.636956">
        <ele>101.607</ele>
        <time>2015-03-25T09:59:34Z</time>
      </trkpt>
      <trkpt lat="41.647603" lon="-8.636829">
        <ele>101.160</ele>
        <time>2015-03-25T09:59:37Z</time>
      </trkpt>
      <trkpt lat="41.647910" lon="-8.636399">
        <ele>101.173</ele>
        <time>2015-03-25T09:59:49Z</time>
      </trkpt>
      <trkpt lat="41.648072" lon="-8.636291">
        <ele>101.185</ele>
        <time>2015-03-25T09:59:53Z</time>
      </trkpt>
      <trkpt lat="41.648783" lon="-8.636101">
        <ele>99.695</ele>
        <time>2015-03-25T10:00:10Z</time>
      </trkpt>
      <trkpt lat="41.648964" lon="-8.635963">
        <ele>99.683</ele>
        <time>2015-03-25T10:00:15Z</time>
      </trkpt>
      <trkpt lat="41.649168" lon="-8.635784">
        <ele>99.648</ele>
        <time>2015-03-25T10:00:21Z</time>
      </trkpt>
      <trkpt lat="41.649743" lon="-8.635206">
        <ele>98.285</ele>
        <time>2015-03-25T10:00:36Z</time>
      </trkpt>
      <trkpt lat="41.650519" lon="-8.634604">
        <ele>94.846</ele>
        <time>2015-03-25T10:00:49Z</time>
      </trkpt>
      <trkpt lat="41.650913" lon="-8.634583">
        <ele>91.588</ele>
        <time>2015-03-25T10:00:54Z</time>
      </trkpt>
      <trkpt lat="41.651301" lon="-8.634393">
        <ele>88.616</ele>
        <time>2015-03-25T10:01:00Z</time>
      </trkpt>
      <trkpt lat="41.651373" lon="-8.634346">
        <ele>87.607</ele>
        <time>2015-03-25T10:01:02Z</time>
      </trkpt>
      <trkpt lat="41.651475" lon="-8.634246">
        <ele>89.133</ele>
        <time>2015-03-25T10:01:08Z</time>
      </trkpt>
      <trkpt lat="41.651742" lon="-8.634128">
        <ele>89.516</ele>
        <time>2015-03-25T10:01:19Z</time>
      </trkpt>
      <trkpt lat="41.651895" lon="-8.634037">
        <ele>88.138</ele>
        <time>2015-03-25T10:01:26Z</time>
      </trkpt>
      <trkpt lat="41.652210" lon="-8.633767">
        <ele>89.128</ele>
        <time>2015-03-25T10:01:40Z</time>
      </trkpt>
      <trkpt lat="41.652487" lon="-8.633616">
        <ele>90.076</ele>
        <time>2015-03-25T10:01:53Z</time>
      </trkpt>
      <trkpt lat="41.652538" lon="-8.633613">
        <ele>90.581</ele>
        <time>2015-03-25T10:01:57Z</time>
      </trkpt>
      <trkpt lat="41.652658" lon="-8.633598">
        <ele>91.058</ele>
        <time>2015-03-25T10:02:05Z</time>
      </trkpt>
      <trkpt lat="41.652883" lon="-8.633603">
        <ele>93.496</ele>
        <time>2015-03-25T10:02:20Z</time>
      </trkpt>
      <trkpt lat="41.653286" lon="-8.633652">
        <ele>92.931</ele>
        <time>2015-03-25T10:02:35Z</time>
      </trkpt>
      <trkpt lat="41.653616" lon="-8.633715">
        <ele>92.924</ele>
        <time>2015-03-25T10:02:48Z</time>
      </trkpt>
      <trkpt lat="41.653730" lon="-8.633754">
        <ele>92.907</ele>
        <time>2015-03-25T10:02:57Z</time>
      </trkpt>
      <trkpt lat="41.653965" lon="-8.633789">
        <ele>94.428</ele>
        <time>2015-03-25T10:03:11Z</time>
      </trkpt>
      <trkpt lat="41.654223" lon="-8.633764">
        <ele>96.391</ele>
        <time>2015-03-25T10:03:27Z</time>
      </trkpt>
      <trkpt lat="41.654508" lon="-8.633538">
        <ele>96.363</ele>
        <time>2015-03-25T10:03:39Z</time>
      </trkpt>
      <trkpt lat="41.654563" lon="-8.633216">
        <ele>93.473</ele>
        <time>2015-03-25T10:03:44Z</time>
      </trkpt>
      <trkpt lat="41.654516" lon="-8.633039">
        <ele>91.931</ele>
        <time>2015-03-25T10:03:46Z</time>
      </trkpt>
      <trkpt lat="41.654299" lon="-8.632304">
        <ele>88.136</ele>
        <time>2015-03-25T10:03:53Z</time>
      </trkpt>
      <trkpt lat="41.654165" lon="-8.631854">
        <ele>86.213</ele>
        <time>2015-03-25T10:03:57Z</time>
      </trkpt>
      <trkpt lat="41.653952" lon="-8.631324">
        <ele>83.365</ele>
        <time>2015-03-25T10:04:03Z</time>
      </trkpt>
      <trkpt lat="41.653871" lon="-8.630986">
        <ele>82.368</ele>
        <time>2015-03-25T10:04:12Z</time>
      </trkpt>
      <trkpt lat="41.653871" lon="-8.630580">
        <ele>81.414</ele>
        <time>2015-03-25T10:04:22Z</time>
      </trkpt>
      <trkpt lat="41.654100" lon="-8.630171">
        <ele>81.407</ele>
        <time>2015-03-25T10:04:32Z</time>
      </trkpt>
      <trkpt lat="41.654623" lon="-8.629561">
        <ele>80.435</ele>
        <time>2015-03-25T10:04:50Z</time>
      </trkpt>
      <trkpt lat="41.654761" lon="-8.629302">
        <ele>80.418</ele>
        <time>2015-03-25T10:04:56Z</time>
      </trkpt>
      <trkpt lat="41.654881" lon="-8.629148">
        <ele>80.460</ele>
        <time>2015-03-25T10:05:00Z</time>
      </trkpt>
      <trkpt lat="41.654963" lon="-8.629102">
        <ele>79.930</ele>
        <time>2015-03-25T10:05:08Z</time>
      </trkpt>
      <trkpt lat="41.655065" lon="-8.628932">
        <ele>79.998</ele>
        <time>2015-03-25T10:05:16Z</time>
      </trkpt>
      <trkpt lat="41.655666" lon="-8.628554">
        <ele>79.953</ele>
        <time>2015-03-25T10:05:35Z</time>
      </trkpt>
      <trkpt lat="41.656140" lon="-8.628558">
        <ele>79.950</ele>
        <time>2015-03-25T10:05:49Z</time>
      </trkpt>
      <trkpt lat="41.656297" lon="-8.628614">
        <ele>80.919</ele>
        <time>2015-03-25T10:05:54Z</time>
      </trkpt>
      <trkpt lat="41.656645" lon="-8.628812">
        <ele>82.309</ele>
        <time>2015-03-25T10:06:09Z</time>
      </trkpt>
      <trkpt lat="41.657033" lon="-8.628775">
        <ele>83.819</ele>
        <time>2015-03-25T10:06:25Z</time>
      </trkpt>
      <trkpt lat="41.657485" lon="-8.628562">
        <ele>84.707</ele>
        <time>2015-03-25T10:06:44Z</time>
      </trkpt>
      <trkpt lat="41.657861" lon="-8.628046">
        <ele>84.740</ele>
        <time>2015-03-25T10:07:02Z</time>
      </trkpt>
      <trkpt lat="41.658303" lon="-8.627414">
        <ele>85.253</ele>
        <time>2015-03-25T10:07:21Z</time>
      </trkpt>
      <trkpt lat="41.658741" lon="-8.627064">
        <ele>87.195</ele>
        <time>2015-03-25T10:07:37Z</time>
      </trkpt>
      <trkpt lat="41.659137" lon="-8.626887">
        <ele>88.615</ele>
        <time>2015-03-25T10:07:51Z</time>
      </trkpt>
      <trkpt lat="41.659726" lon="-8.626813">
        <ele>89.173</ele>
        <time>2015-03-25T10:08:08Z</time>
      </trkpt>
      <trkpt lat="41.660261" lon="-8.626833">
        <ele>89.588</ele>
        <time>2015-03-25T10:08:24Z</time>
      </trkpt>
      <trkpt lat="41.660396" lon="-8.626763">
        <ele>89.565</ele>
        <time>2015-03-25T10:08:28Z</time>
      </trkpt>
      <trkpt lat="41.660897" lon="-8.626882">
        <ele>87.196</ele>
        <time>2015-03-25T10:08:42Z</time>
      </trkpt>
      <trkpt lat="41.661127" lon="-8.627134">
        <ele>88.631</ele>
        <time>2015-03-25T10:08:51Z</time>
      </trkpt>
      <trkpt lat="41.661557" lon="-8.627701">
        <ele>90.524</ele>
        <time>2015-03-25T10:09:09Z</time>
      </trkpt>
      <trkpt lat="41.661998" lon="-8.627649">
        <ele>91.007</ele>
        <time>2015-03-25T10:09:22Z</time>
      </trkpt>
      <trkpt lat="41.662019" lon="-8.627451">
        <ele>91.548</ele>
        <time>2015-03-25T10:09:27Z</time>
      </trkpt>
      <trkpt lat="41.661968" lon="-8.627209">
        <ele>90.511</ele>
        <time>2015-03-25T10:09:31Z</time>
      </trkpt>
      <trkpt lat="41.661981" lon="-8.626781">
        <ele>89.563</ele>
        <time>2015-03-25T10:09:37Z</time>
      </trkpt>
      <trkpt lat="41.662152" lon="-8.626309">
        <ele>88.643</ele>
        <time>2015-03-25T10:09:44Z</time>
      </trkpt>
      <trkpt lat="41.662396" lon="-8.625926">
        <ele>87.631</ele>
        <time>2015-03-25T10:09:52Z</time>
      </trkpt>
      <trkpt lat="41.662476" lon="-8.625292">
        <ele>88.696</ele>
        <time>2015-03-25T10:10:06Z</time>
      </trkpt>
      <trkpt lat="41.662939" lon="-8.625036">
        <ele>90.543</ele>
        <time>2015-03-25T10:10:21Z</time>
      </trkpt>
      <trkpt lat="41.663451" lon="-8.624959">
        <ele>91.964</ele>
        <time>2015-03-25T10:10:37Z</time>
      </trkpt>
      <trkpt lat="41.663915" lon="-8.624787">
        <ele>94.406</ele>
        <time>2015-03-25T10:10:56Z</time>
      </trkpt>
      <trkpt lat="41.664359" lon="-8.624614">
        <ele>96.316</ele>
        <time>2015-03-25T10:11:15Z</time>
      </trkpt>
      <trkpt lat="41.664646" lon="-8.624249">
        <ele>97.207</ele>
        <time>2015-03-25T10:11:31Z</time>
      </trkpt>
      <trkpt lat="41.664994" lon="-8.624107">
        <ele>98.765</ele>
        <time>2015-03-25T10:11:46Z</time>
      </trkpt>
      <trkpt lat="41.665427" lon="-8.624125">
        <ele>100.138</ele>
        <time>2015-03-25T10:12:02Z</time>
      </trkpt>
      <trkpt lat="41.665917" lon="-8.624310">
        <ele>101.640</ele>
        <time>2015-03-25T10:12:20Z</time>
      </trkpt>
      <trkpt lat="41.666374" lon="-8.624512">
        <ele>103.040</ele>
        <time>2015-03-25T10:12:37Z</time>
      </trkpt>
      <trkpt lat="41.666748" lon="-8.624707">
        <ele>104.948</ele>
        <time>2015-03-25T10:12:53Z</time>
      </trkpt>
      <trkpt lat="41.667079" lon="-8.624813">
        <ele>107.373</ele>
        <time>2015-03-25T10:13:08Z</time>
      </trkpt>
      <trkpt lat="41.667399" lon="-8.624809">
        <ele>109.360</ele>
        <time>2015-03-25T10:13:23Z</time>
      </trkpt>
      <trkpt lat="41.667758" lon="-8.624634">
        <ele>111.785</ele>
        <time>2015-03-25T10:13:40Z</time>
      </trkpt>
      <trkpt lat="41.668170" lon="-8.624506">
        <ele>114.189</ele>
        <time>2015-03-25T10:13:56Z</time>
      </trkpt>
      <trkpt lat="41.668496" lon="-8.624346">
        <ele>114.117</ele>
        <time>2015-03-25T10:14:52Z</time>
      </trkpt>
      <trkpt lat="41.668746" lon="-8.624307">
        <ele>111.707</ele>
        <time>2015-03-25T10:14:57Z</time>
      </trkpt>
      <trkpt lat="41.669034" lon="-8.624063">
        <ele>110.217</ele>
        <time>2015-03-25T10:15:03Z</time>
      </trkpt>
      <trkpt lat="41.669139" lon="-8.623848">
        <ele>108.360</ele>
        <time>2015-03-25T10:15:06Z</time>
      </trkpt>
      <trkpt lat="41.669408" lon="-8.623873">
        <ele>105.962</ele>
        <time>2015-03-25T10:15:11Z</time>
      </trkpt>
      <trkpt lat="41.669682" lon="-8.624014">
        <ele>105.412</ele>
        <time>2015-03-25T10:15:16Z</time>
      </trkpt>
      <trkpt lat="41.670211" lon="-8.623772">
        <ele>106.880</ele>
        <time>2015-03-25T10:15:29Z</time>
      </trkpt>
      <trkpt lat="41.670271" lon="-8.623707">
        <ele>106.875</ele>
        <time>2015-03-25T10:15:31Z</time>
      </trkpt>
      <trkpt lat="41.670375" lon="-8.623521">
        <ele>106.892</ele>
        <time>2015-03-25T10:15:35Z</time>
      </trkpt>
      <trkpt lat="41.670576" lon="-8.623314">
        <ele>104.476</ele>
        <time>2015-03-25T10:15:39Z</time>
      </trkpt>
      <trkpt lat="41.670723" lon="-8.622861">
        <ele>103.590</ele>
        <time>2015-03-25T10:15:46Z</time>
      </trkpt>
      <trkpt lat="41.670713" lon="-8.622793">
        <ele>103.519</ele>
        <time>2015-03-25T10:15:47Z</time>
      </trkpt>
      <trkpt lat="41.670689" lon="-8.622537">
        <ele>103.507</ele>
        <time>2015-03-25T10:15:51Z</time>
      </trkpt>
      <trkpt lat="41.670839" lon="-8.622198">
        <ele>104.966</ele>
        <time>2015-03-25T10:16:02Z</time>
      </trkpt>
      <trkpt lat="41.671116" lon="-8.621741">
        <ele>107.349</ele>
        <time>2015-03-25T10:16:21Z</time>
      </trkpt>
      <trkpt lat="41.671134" lon="-8.621244">
        <ele>105.961</ele>
        <time>2015-03-25T10:16:32Z</time>
      </trkpt>
      <trkpt lat="41.671263" lon="-8.620866">
        <ele>101.691</ele>
        <time>2015-03-25T10:16:38Z</time>
      </trkpt>
      <trkpt lat="41.671383" lon="-8.620719">
        <ele>100.169</ele>
        <time>2015-03-25T10:16:42Z</time>
      </trkpt>
      <trkpt lat="41.671422" lon="-8.620333">
        <ele>98.734</ele>
        <time>2015-03-25T10:16:48Z</time>
      </trkpt>
      <trkpt lat="41.671256" lon="-8.619934">
        <ele>98.761</ele>
        <time>2015-03-25T10:16:59Z</time>
      </trkpt>
      <trkpt lat="41.671290" lon="-8.619812">
        <ele>100.132</ele>
        <time>2015-03-25T10:17:04Z</time>
      </trkpt>
      <trkpt lat="41.671447" lon="-8.619682">
        <ele>100.192</ele>
        <time>2015-03-25T10:17:16Z</time>
      </trkpt>
      <trkpt lat="41.671494" lon="-8.619628">
        <ele>100.611</ele>
        <time>2015-03-25T10:18:14Z</time>
      </trkpt>
      <trkpt lat="41.671784" lon="-8.619439">
        <ele>100.607</ele>
        <time>2015-03-25T10:18:27Z</time>
      </trkpt>
      <trkpt lat="41.671881" lon="-8.619363">
        <ele>99.272</ele>
        <time>2015-03-25T10:18:31Z</time>
      </trkpt>
      <trkpt lat="41.671989" lon="-8.619266">
        <ele>99.275</ele>
        <time>2015-03-25T10:18:35Z</time>
      </trkpt>
      <trkpt lat="41.672268" lon="-8.619242">
        <ele>99.287</ele>
        <time>2015-03-25T10:18:48Z</time>
      </trkpt>
      <trkpt lat="41.672481" lon="-8.618982">
        <ele>100.627</ele>
        <time>2015-03-25T10:19:02Z</time>
      </trkpt>
      <trkpt lat="41.672746" lon="-8.618659">
        <ele>100.635</ele>
        <time>2015-03-25T10:19:18Z</time>
      </trkpt>
      <trkpt lat="41.673145" lon="-8.618603">
        <ele>101.180</ele>
        <time>2015-03-25T10:19:34Z</time>
      </trkpt>
      <trkpt lat="41.673261" lon="-8.618448">
        <ele>101.127</ele>
        <time>2015-03-25T10:19:43Z</time>
      </trkpt>
      <trkpt lat="41.673325" lon="-8.618222">
        <ele>103.074</ele>
        <time>2015-03-25T10:19:55Z</time>
      </trkpt>
      <trkpt lat="41.673383" lon="-8.618164">
        <ele>103.556</ele>
        <time>2015-03-25T10:20:00Z</time>
      </trkpt>
      <trkpt lat="41.673448" lon="-8.618093">
        <ele>105.421</ele>
        <time>2015-03-25T10:20:07Z</time>
      </trkpt>
      <trkpt lat="41.673518" lon="-8.618028">
        <ele>106.407</ele>
        <time>2015-03-25T10:20:13Z</time>
      </trkpt>
      <trkpt lat="41.673591" lon="-8.618029">
        <ele>106.816</ele>
        <time>2015-03-25T10:20:18Z</time>
      </trkpt>
      <trkpt lat="41.673688" lon="-8.618048">
        <ele>108.879</ele>
        <time>2015-03-25T10:20:27Z</time>
      </trkpt>
      <trkpt lat="41.673793" lon="-8.618029">
        <ele>110.221</ele>
        <time>2015-03-25T10:20:35Z</time>
      </trkpt>
      <trkpt lat="41.673962" lon="-8.617977">
        <ele>110.721</ele>
        <time>2015-03-25T10:21:33Z</time>
      </trkpt>
      <trkpt lat="41.674242" lon="-8.617784">
        <ele>112.679</ele>
        <time>2015-03-25T10:21:50Z</time>
      </trkpt>
      <trkpt lat="41.674613" lon="-8.617703">
        <ele>113.194</ele>
        <time>2015-03-25T10:22:06Z</time>
      </trkpt>
      <trkpt lat="41.674857" lon="-8.617634">
        <ele>113.621</ele>
        <time>2015-03-25T10:22:14Z</time>
      </trkpt>
      <trkpt lat="41.675091" lon="-8.617473">
        <ele>115.035</ele>
        <time>2015-03-25T10:22:28Z</time>
      </trkpt>
      <trkpt lat="41.675348" lon="-8.617334">
        <ele>116.586</ele>
        <time>2015-03-25T10:22:42Z</time>
      </trkpt>
      <trkpt lat="41.675654" lon="-8.617365">
        <ele>119.314</ele>
        <time>2015-03-25T10:22:58Z</time>
      </trkpt>
      <trkpt lat="41.675937" lon="-8.617437">
        <ele>119.807</ele>
        <time>2015-03-25T10:23:12Z</time>
      </trkpt>
      <trkpt lat="41.676258" lon="-8.617664">
        <ele>122.222</ele>
        <time>2015-03-25T10:23:30Z</time>
      </trkpt>
      <trkpt lat="41.676609" lon="-8.617862">
        <ele>123.715</ele>
        <time>2015-03-25T10:23:46Z</time>
      </trkpt>
      <trkpt lat="41.676746" lon="-8.617954">
        <ele>122.237</ele>
        <time>2015-03-25T10:23:50Z</time>
      </trkpt>
      <trkpt lat="41.676998" lon="-8.618368">
        <ele>122.267</ele>
        <time>2015-03-25T10:24:04Z</time>
      </trkpt>
      <trkpt lat="41.677090" lon="-8.618632">
        <ele>123.795</ele>
        <time>2015-03-25T10:24:14Z</time>
      </trkpt>
      <trkpt lat="41.677312" lon="-8.619053">
        <ele>123.770</ele>
        <time>2015-03-25T10:24:29Z</time>
      </trkpt>
      <trkpt lat="41.677395" lon="-8.619296">
        <ele>123.727</ele>
        <time>2015-03-25T10:24:36Z</time>
      </trkpt>
      <trkpt lat="41.677505" lon="-8.619062">
        <ele>119.394</ele>
        <time>2015-03-25T10:24:43Z</time>
      </trkpt>
      <trkpt lat="41.677632" lon="-8.618926">
        <ele>117.957</ele>
        <time>2015-03-25T10:24:45Z</time>
      </trkpt>
      <trkpt lat="41.678042" lon="-8.618911">
        <ele>118.422</ele>
        <time>2015-03-25T10:24:52Z</time>
      </trkpt>
      <trkpt lat="41.678262" lon="-8.619164">
        <ele>120.307</ele>
        <time>2015-03-25T10:25:04Z</time>
      </trkpt>
      <trkpt lat="41.678434" lon="-8.619354">
        <ele>121.718</ele>
        <time>2015-03-25T10:25:16Z</time>
      </trkpt>
      <trkpt lat="41.678745" lon="-8.619498">
        <ele>124.281</ele>
        <time>2015-03-25T10:25:32Z</time>
      </trkpt>
      <trkpt lat="41.679098" lon="-8.619646">
        <ele>125.653</ele>
        <time>2015-03-25T10:25:51Z</time>
      </trkpt>
      <trkpt lat="41.679452" lon="-8.619691">
        <ele>128.533</ele>
        <time>2015-03-25T10:26:09Z</time>
      </trkpt>
      <trkpt lat="41.679786" lon="-8.619687">
        <ele>129.931</ele>
        <time>2015-03-25T10:26:26Z</time>
      </trkpt>
      <trkpt lat="41.680147" lon="-8.619780">
        <ele>130.416</ele>
        <time>2015-03-25T10:26:42Z</time>
      </trkpt>
      <trkpt lat="41.680573" lon="-8.620092">
        <ele>131.873</ele>
        <time>2015-03-25T10:27:02Z</time>
      </trkpt>
      <trkpt lat="41.680972" lon="-8.620036">
        <ele>132.398</ele>
        <time>2015-03-25T10:27:18Z</time>
      </trkpt>
      <trkpt lat="41.681263" lon="-8.619762">
        <ele>132.315</ele>
        <time>2015-03-25T10:27:32Z</time>
      </trkpt>
      <trkpt lat="41.681353" lon="-8.619601">
        <ele>131.426</ele>
        <time>2015-03-25T10:27:37Z</time>
      </trkpt>
      <trkpt lat="41.681582" lon="-8.619022">
        <ele>129.907</ele>
        <time>2015-03-25T10:27:52Z</time>
      </trkpt>
      <trkpt lat="41.681722" lon="-8.618931">
        <ele>131.428</ele>
        <time>2015-03-25T10:28:00Z</time>
      </trkpt>
      <trkpt lat="41.681959" lon="-8.619030">
        <ele>134.791</ele>
        <time>2015-03-25T10:28:16Z</time>
      </trkpt>
      <trkpt lat="41.682034" lon="-8.619128">
        <ele>136.283</ele>
        <time>2015-03-25T10:28:24Z</time>
      </trkpt>
      <trkpt lat="41.682126" lon="-8.619066">
        <ele>137.183</ele>
        <time>2015-03-25T10:28:31Z</time>
      </trkpt>
      <trkpt lat="41.682165" lon="-8.619028">
        <ele>137.631</ele>
        <time>2015-03-25T10:28:44Z</time>
      </trkpt>
      <trkpt lat="41.682188" lon="-8.618962">
        <ele>137.666</ele>
        <time>2015-03-25T10:28:49Z</time>
      </trkpt>
      <trkpt lat="41.682250" lon="-8.618615">
        <ele>137.643</ele>
        <time>2015-03-25T10:29:02Z</time>
      </trkpt>
      <trkpt lat="41.682315" lon="-8.618095">
        <ele>137.631</ele>
        <time>2015-03-25T10:29:18Z</time>
      </trkpt>
      <trkpt lat="41.682324" lon="-8.618014">
        <ele>138.161</ele>
        <time>2015-03-25T10:29:27Z</time>
      </trkpt>
      <trkpt lat="41.682371" lon="-8.617921">
        <ele>138.107</ele>
        <time>2015-03-25T10:30:03Z</time>
      </trkpt>
      <trkpt lat="41.682440" lon="-8.617760">
        <ele>138.107</ele>
        <time>2015-03-25T10:30:10Z</time>
      </trkpt>
      <trkpt lat="41.682679" lon="-8.617629">
        <ele>141.092</ele>
        <time>2015-03-25T10:30:25Z</time>
      </trkpt>
      <trkpt lat="41.682982" lon="-8.617662">
        <ele>143.445</ele>
        <time>2015-03-25T10:30:43Z</time>
      </trkpt>
      <trkpt lat="41.683409" lon="-8.617776">
        <ele>144.327</ele>
        <time>2015-03-25T10:31:07Z</time>
      </trkpt>
      <trkpt lat="41.683668" lon="-8.617833">
        <ele>144.887</ele>
        <time>2015-03-25T10:31:20Z</time>
      </trkpt>
      <trkpt lat="41.683941" lon="-8.617986">
        <ele>147.235</ele>
        <time>2015-03-25T10:31:37Z</time>
      </trkpt>
      <trkpt lat="41.684144" lon="-8.618098">
        <ele>149.650</ele>
        <time>2015-03-25T10:31:52Z</time>
      </trkpt>
      <trkpt lat="41.684343" lon="-8.618280">
        <ele>153.027</ele>
        <time>2015-03-25T10:32:09Z</time>
      </trkpt>
      <trkpt lat="41.684522" lon="-8.618486">
        <ele>156.482</ele>
        <time>2015-03-25T10:32:26Z</time>
      </trkpt>
      <trkpt lat="41.684668" lon="-8.618694">
        <ele>159.243</ele>
        <time>2015-03-25T10:32:42Z</time>
      </trkpt>
      <trkpt lat="41.684846" lon="-8.618894">
        <ele>161.217</ele>
        <time>2015-03-25T10:32:58Z</time>
      </trkpt>
      <trkpt lat="41.685023" lon="-8.619162">
        <ele>163.607</ele>
        <time>2015-03-25T10:33:15Z</time>
      </trkpt>
      <trkpt lat="41.685107" lon="-8.619408">
        <ele>164.017</ele>
        <time>2015-03-25T10:33:28Z</time>
      </trkpt>
      <trkpt lat="41.685268" lon="-8.619775">
        <ele>166.010</ele>
        <time>2015-03-25T10:33:48Z</time>
      </trkpt>
      <trkpt lat="41.685374" lon="-8.620004">
        <ele>167.912</ele>
        <time>2015-03-25T10:34:03Z</time>
      </trkpt>
      <trkpt lat="41.685308" lon="-8.620276">
        <ele>171.392</ele>
        <time>2015-03-25T10:34:18Z</time>
      </trkpt>
      <trkpt lat="41.685337" lon="-8.620360">
        <ele>171.380</ele>
        <time>2015-03-25T10:34:31Z</time>
      </trkpt>
      <trkpt lat="41.685514" lon="-8.620609">
        <ele>172.755</ele>
        <time>2015-03-25T10:35:03Z</time>
      </trkpt>
      <trkpt lat="41.685802" lon="-8.620729">
        <ele>172.732</ele>
        <time>2015-03-25T10:35:17Z</time>
      </trkpt>
      <trkpt lat="41.686116" lon="-8.620927">
        <ele>174.647</ele>
        <time>2015-03-25T10:35:34Z</time>
      </trkpt>
      <trkpt lat="41.686350" lon="-8.620931">
        <ele>175.629</ele>
        <time>2015-03-25T10:35:46Z</time>
      </trkpt>
      <trkpt lat="41.686494" lon="-8.620938">
        <ele>175.121</ele>
        <time>2015-03-25T10:35:52Z</time>
      </trkpt>
      <trkpt lat="41.686768" lon="-8.621224">
        <ele>172.207</ele>
        <time>2015-03-25T10:35:58Z</time>
      </trkpt>
      <trkpt lat="41.687085" lon="-8.621367">
        <ele>168.983</ele>
        <time>2015-03-25T10:36:02Z</time>
      </trkpt>
      <trkpt lat="41.687256" lon="-8.621691">
        <ele>164.546</ele>
        <time>2015-03-25T10:36:08Z</time>
      </trkpt>
      <trkpt lat="41.687336" lon="-8.621832">
        <ele>163.658</ele>
        <time>2015-03-25T10:36:11Z</time>
      </trkpt>
      <trkpt lat="41.687535" lon="-8.622114">
        <ele>161.628</ele>
        <time>2015-03-25T10:36:21Z</time>
      </trkpt>
      <trkpt lat="41.687687" lon="-8.622258">
        <ele>161.216</ele>
        <time>2015-03-25T10:36:25Z</time>
      </trkpt>
      <trkpt lat="41.687773" lon="-8.622305">
        <ele>161.241</ele>
        <time>2015-03-25T10:36:27Z</time>
      </trkpt>
      <trkpt lat="41.688426" lon="-8.622652">
        <ele>160.278</ele>
        <time>2015-03-25T10:36:43Z</time>
      </trkpt>
      <trkpt lat="41.688854" lon="-8.622831">
        <ele>160.284</ele>
        <time>2015-03-25T10:36:56Z</time>
      </trkpt>
      <trkpt lat="41.688900" lon="-8.622831">
        <ele>160.207</ele>
        <time>2015-03-25T10:36:58Z</time>
      </trkpt>
      <trkpt lat="41.688903" lon="-8.622713">
        <ele>161.617</ele>
        <time>2015-03-25T10:37:06Z</time>
      </trkpt>
      <trkpt lat="41.688934" lon="-8.622591">
        <ele>164.007</ele>
        <time>2015-03-25T10:37:15Z</time>
      </trkpt>
      <trkpt lat="41.688975" lon="-8.622489">
        <ele>164.527</ele>
        <time>2015-03-25T10:37:30Z</time>
      </trkpt>
      <trkpt lat="41.689154" lon="-8.622375">
        <ele>166.010</ele>
        <time>2015-03-25T10:37:45Z</time>
      </trkpt>
      <trkpt lat="41.689294" lon="-8.622267">
        <ele>167.972</ele>
        <time>2015-03-25T10:38:01Z</time>
      </trkpt>
      <trkpt lat="41.689366" lon="-8.622289">
        <ele>167.952</ele>
        <time>2015-03-25T10:38:06Z</time>
      </trkpt>
      <trkpt lat="41.689635" lon="-8.622384">
        <ele>169.840</ele>
        <time>2015-03-25T10:38:25Z</time>
      </trkpt>
      <trkpt lat="41.689692" lon="-8.622357">
        <ele>171.395</ele>
        <time>2015-03-25T10:39:00Z</time>
      </trkpt>
      <trkpt lat="41.689848" lon="-8.622391">
        <ele>173.712</ele>
        <time>2015-03-25T10:39:18Z</time>
      </trkpt>
      <trkpt lat="41.690009" lon="-8.622374">
        <ele>175.188</ele>
        <time>2015-03-25T10:39:33Z</time>
      </trkpt>
      <trkpt lat="41.690164" lon="-8.622399">
        <ele>176.524</ele>
        <time>2015-03-25T10:39:49Z</time>
      </trkpt>
      <trkpt lat="41.690294" lon="-8.622363">
        <ele>177.526</ele>
        <time>2015-03-25T10:40:06Z</time>
      </trkpt>
      <trkpt lat="41.690450" lon="-8.622294">
        <ele>178.507</ele>
        <time>2015-03-25T10:40:18Z</time>
      </trkpt>
      <trkpt lat="41.690638" lon="-8.622303">
        <ele>179.927</ele>
        <time>2015-03-25T10:40:32Z</time>
      </trkpt>
      <trkpt lat="41.690716" lon="-8.622307">
        <ele>180.420</ele>
        <time>2015-03-25T10:40:37Z</time>
      </trkpt>
      <trkpt lat="41.690939" lon="-8.622476">
        <ele>181.852</ele>
        <time>2015-03-25T10:40:53Z</time>
      </trkpt>
      <trkpt lat="41.691101" lon="-8.622618">
        <ele>183.382</ele>
        <time>2015-03-25T10:41:05Z</time>
      </trkpt>
      <trkpt lat="41.691306" lon="-8.623024">
        <ele>183.890</ele>
        <time>2015-03-25T10:41:20Z</time>
      </trkpt>
      <trkpt lat="41.691654" lon="-8.623395">
        <ele>184.775</ele>
        <time>2015-03-25T10:41:39Z</time>
      </trkpt>
      <trkpt lat="41.691764" lon="-8.623427">
        <ele>185.252</ele>
        <time>2015-03-25T10:41:50Z</time>
      </trkpt>
      <trkpt lat="41.691835" lon="-8.623459">
        <ele>188.689</ele>
        <time>2015-03-25T10:52:04Z</time>
      </trkpt>
      <trkpt lat="41.692204" lon="-8.623543">
        <ele>189.006</ele>
        <time>2015-03-25T10:52:23Z</time>
      </trkpt>
      <trkpt lat="41.692629" lon="-8.623608">
        <ele>187.626</ele>
        <time>2015-03-25T10:52:36Z</time>
      </trkpt>
      <trkpt lat="41.693284" lon="-8.623774">
        <ele>186.207</ele>
        <time>2015-03-25T10:52:53Z</time>
      </trkpt>
      <trkpt lat="41.693367" lon="-8.623826">
        <ele>185.777</ele>
        <time>2015-03-25T10:52:56Z</time>
      </trkpt>
      <trkpt lat="41.693649" lon="-8.623896">
        <ele>182.380</ele>
        <time>2015-03-25T10:53:02Z</time>
      </trkpt>
      <trkpt lat="41.693778" lon="-8.623967">
        <ele>180.982</ele>
        <time>2015-03-25T10:53:05Z</time>
      </trkpt>
      <trkpt lat="41.693859" lon="-8.624065">
        <ele>178.062</ele>
        <time>2015-03-25T10:53:08Z</time>
      </trkpt>
      <trkpt lat="41.694011" lon="-8.624204">
        <ele>174.140</ele>
        <time>2015-03-25T10:53:12Z</time>
      </trkpt>
      <trkpt lat="41.694060" lon="-8.624231">
        <ele>173.245</ele>
        <time>2015-03-25T10:53:13Z</time>
      </trkpt>
      <trkpt lat="41.694332" lon="-8.624328">
        <ele>168.992</ele>
        <time>2015-03-25T10:53:18Z</time>
      </trkpt>
      <trkpt lat="41.694523" lon="-8.624387">
        <ele>166.535</ele>
        <time>2015-03-25T10:53:21Z</time>
      </trkpt>
      <trkpt lat="41.694648" lon="-8.624426">
        <ele>164.586</ele>
        <time>2015-03-25T10:53:23Z</time>
      </trkpt>
      <trkpt lat="41.694992" lon="-8.624385">
        <ele>160.214</ele>
        <time>2015-03-25T10:53:29Z</time>
      </trkpt>
      <trkpt lat="41.695173" lon="-8.624286">
        <ele>158.807</ele>
        <time>2015-03-25T10:53:32Z</time>
      </trkpt>
      <trkpt lat="41.695291" lon="-8.624299">
        <ele>158.382</ele>
        <time>2015-03-25T10:53:34Z</time>
      </trkpt>
      <trkpt lat="41.695574" lon="-8.624427">
        <ele>154.465</ele>
        <time>2015-03-25T10:53:39Z</time>
      </trkpt>
      <trkpt lat="41.695697" lon="-8.624506">
        <ele>153.547</ele>
        <time>2015-03-25T10:53:41Z</time>
      </trkpt>
      <trkpt lat="41.695960" lon="-8.624553">
        <ele>149.197</ele>
        <time>2015-03-25T10:53:45Z</time>
      </trkpt>
      <trkpt lat="41.696075" lon="-8.624476">
        <ele>147.785</ele>
        <time>2015-03-25T10:53:47Z</time>
      </trkpt>
      <trkpt lat="41.696229" lon="-8.624323">
        <ele>146.330</ele>
        <time>2015-03-25T10:53:50Z</time>
      </trkpt>
      <trkpt lat="41.696463" lon="-8.624177">
        <ele>144.337</ele>
        <time>2015-03-25T10:53:54Z</time>
      </trkpt>
      <trkpt lat="41.696705" lon="-8.624121">
        <ele>141.528</ele>
        <time>2015-03-25T10:53:58Z</time>
      </trkpt>
      <trkpt lat="41.697040" lon="-8.624162">
        <ele>141.589</ele>
        <time>2015-03-25T10:54:06Z</time>
      </trkpt>
      <trkpt lat="41.697299" lon="-8.624194">
        <ele>140.017</ele>
        <time>2015-03-25T10:54:39Z</time>
      </trkpt>
      <trkpt lat="41.697926" lon="-8.624347">
        <ele>135.707</ele>
        <time>2015-03-25T10:54:51Z</time>
      </trkpt>
      <trkpt lat="41.697980" lon="-8.624374">
        <ele>135.771</ele>
        <time>2015-03-25T10:54:52Z</time>
      </trkpt>
      <trkpt lat="41.698237" lon="-8.624418">
        <ele>131.414</ele>
        <time>2015-03-25T10:54:56Z</time>
      </trkpt>
      <trkpt lat="41.698470" lon="-8.624343">
        <ele>129.066</ele>
        <time>2015-03-25T10:55:00Z</time>
      </trkpt>
      <trkpt lat="41.698570" lon="-8.624275">
        <ele>127.586</ele>
        <time>2015-03-25T10:55:02Z</time>
      </trkpt>
      <trkpt lat="41.698826" lon="-8.624284">
        <ele>124.284</ele>
        <time>2015-03-25T10:55:07Z</time>
      </trkpt>
      <trkpt lat="41.699121" lon="-8.624298">
        <ele>120.359</ele>
        <time>2015-03-25T10:55:12Z</time>
      </trkpt>
      <trkpt lat="41.699279" lon="-8.624310">
        <ele>117.926</ele>
        <time>2015-03-25T10:55:15Z</time>
      </trkpt>
      <trkpt lat="41.699785" lon="-8.624388">
        <ele>116.586</ele>
        <time>2015-03-25T10:55:27Z</time>
      </trkpt>
      <trkpt lat="41.700086" lon="-8.624396">
        <ele>114.160</ele>
        <time>2015-03-25T10:55:34Z</time>
      </trkpt>
      <trkpt lat="41.700200" lon="-8.624409">
        <ele>112.626</ele>
        <time>2015-03-25T10:55:36Z</time>
      </trkpt>
      <trkpt lat="41.700505" lon="-8.624534">
        <ele>108.807</ele>
        <time>2015-03-25T10:55:41Z</time>
      </trkpt>
      <trkpt lat="41.700567" lon="-8.624570">
        <ele>107.847</ele>
        <time>2015-03-25T10:55:42Z</time>
      </trkpt>
      <trkpt lat="41.700766" lon="-8.624569">
        <ele>105.470</ele>
        <time>2015-03-25T10:55:46Z</time>
      </trkpt>
      <trkpt lat="41.700995" lon="-8.624567">
        <ele>103.542</ele>
        <time>2015-03-25T10:55:50Z</time>
      </trkpt>
      <trkpt lat="41.701231" lon="-8.624587">
        <ele>103.042</ele>
        <time>2015-03-25T10:55:54Z</time>
      </trkpt>
      <trkpt lat="41.701470" lon="-8.624545">
        <ele>100.630</ele>
        <time>2015-03-25T10:55:58Z</time>
      </trkpt>
      <trkpt lat="41.701581" lon="-8.624494">
        <ele>100.115</ele>
        <time>2015-03-25T10:56:00Z</time>
      </trkpt>
      <trkpt lat="41.701783" lon="-8.624220">
        <ele>99.222</ele>
        <time>2015-03-25T10:56:07Z</time>
      </trkpt>
      <trkpt lat="41.702008" lon="-8.624047">
        <ele>97.218</ele>
        <time>2015-03-25T10:56:13Z</time>
      </trkpt>
      <trkpt lat="41.702452" lon="-8.623922">
        <ele>99.298</ele>
        <time>2015-03-25T10:56:29Z</time>
      </trkpt>
      <trkpt lat="41.702771" lon="-8.623795">
        <ele>100.117</ele>
        <time>2015-03-25T10:56:45Z</time>
      </trkpt>
      <trkpt lat="41.703096" lon="-8.623934">
        <ele>101.107</ele>
        <time>2015-03-25T10:57:00Z</time>
      </trkpt>
      <trkpt lat="41.703499" lon="-8.624031">
        <ele>102.060</ele>
        <time>2015-03-25T10:57:16Z</time>
      </trkpt>
      <trkpt lat="41.703822" lon="-8.624033">
        <ele>102.583</ele>
        <time>2015-03-25T10:57:29Z</time>
      </trkpt>
      <trkpt lat="41.703974" lon="-8.623968">
        <ele>99.245</ele>
        <time>2015-03-25T10:57:32Z</time>
      </trkpt>
      <trkpt lat="41.704112" lon="-8.623908">
        <ele>97.285</ele>
        <time>2015-03-25T10:57:34Z</time>
      </trkpt>
      <trkpt lat="41.704511" lon="-8.623832">
        <ele>91.983</ele>
        <time>2015-03-25T10:57:39Z</time>
      </trkpt>
      <trkpt lat="41.704590" lon="-8.623819">
        <ele>90.598</ele>
        <time>2015-03-25T10:57:40Z</time>
      </trkpt>
      <trkpt lat="41.704758" lon="-8.623852">
        <ele>90.095</ele>
        <time>2015-03-25T10:57:43Z</time>
      </trkpt>
      <trkpt lat="41.704873" lon="-8.623926">
        <ele>89.144</ele>
        <time>2015-03-25T10:57:45Z</time>
      </trkpt>
      <trkpt lat="41.705072" lon="-8.623949">
        <ele>86.705</ele>
        <time>2015-03-25T10:57:51Z</time>
      </trkpt>
      <trkpt lat="41.705301" lon="-8.623897">
        <ele>83.815</ele>
        <time>2015-03-25T10:58:25Z</time>
      </trkpt>
      <trkpt lat="41.705551" lon="-8.623849">
        <ele>80.907</ele>
        <time>2015-03-25T10:58:29Z</time>
      </trkpt>
      <trkpt lat="41.705726" lon="-8.623751">
        <ele>79.593</ele>
        <time>2015-03-25T10:58:32Z</time>
      </trkpt>
      <trkpt lat="41.705909" lon="-8.623664">
        <ele>78.546</ele>
        <time>2015-03-25T10:58:35Z</time>
      </trkpt>
      <trkpt lat="41.706101" lon="-8.623647">
        <ele>78.038</ele>
        <time>2015-03-25T10:58:38Z</time>
      </trkpt>
      <trkpt lat="41.706528" lon="-8.623576">
        <ele>79.578</ele>
        <time>2015-03-25T10:58:49Z</time>
      </trkpt>
      <trkpt lat="41.707013" lon="-8.623466">
        <ele>81.496</ele>
        <time>2015-03-25T10:59:08Z</time>
      </trkpt>
      <trkpt lat="41.707370" lon="-8.623412">
        <ele>83.331</ele>
        <time>2015-03-25T10:59:25Z</time>
      </trkpt>
      <trkpt lat="41.707601" lon="-8.623390">
        <ele>85.258</ele>
        <time>2015-03-25T10:59:38Z</time>
      </trkpt>
      <trkpt lat="41.707853" lon="-8.623417">
        <ele>88.186</ele>
        <time>2015-03-25T10:59:53Z</time>
      </trkpt>
      <trkpt lat="41.708020" lon="-8.623563">
        <ele>85.260</ele>
        <time>2015-03-25T11:00:01Z</time>
      </trkpt>
      <trkpt lat="41.708310" lon="-8.623622">
        <ele>82.326</ele>
        <time>2015-03-25T11:00:05Z</time>
      </trkpt>
      <trkpt lat="41.708713" lon="-8.623561">
        <ele>78.507</ele>
        <time>2015-03-25T11:00:10Z</time>
      </trkpt>
      <trkpt lat="41.709007" lon="-8.623505">
        <ele>74.257</ele>
        <time>2015-03-25T11:00:13Z</time>
      </trkpt>
      <trkpt lat="41.709316" lon="-8.623398">
        <ele>72.250</ele>
        <time>2015-03-25T11:00:16Z</time>
      </trkpt>
      <trkpt lat="41.709779" lon="-8.623406">
        <ele>69.472</ele>
        <time>2015-03-25T11:00:21Z</time>
      </trkpt>
      <trkpt lat="41.710547" lon="-8.623291">
        <ele>66.562</ele>
        <time>2015-03-25T11:00:31Z</time>
      </trkpt>
      <trkpt lat="41.710831" lon="-8.623004">
        <ele>64.130</ele>
        <time>2015-03-25T11:00:37Z</time>
      </trkpt>
      <trkpt lat="41.711183" lon="-8.622698">
        <ele>61.795</ele>
        <time>2015-03-25T11:00:43Z</time>
      </trkpt>
      <trkpt lat="41.711311" lon="-8.622634">
        <ele>61.742</ele>
        <time>2015-03-25T11:00:45Z</time>
      </trkpt>
      <trkpt lat="41.711533" lon="-8.622584">
        <ele>62.113</ele>
        <time>2015-03-25T11:00:49Z</time>
      </trkpt>
      <trkpt lat="41.712033" lon="-8.622383">
        <ele>62.143</ele>
        <time>2015-03-25T11:01:02Z</time>
      </trkpt>
      <trkpt lat="41.712509" lon="-8.622167">
        <ele>62.107</ele>
        <time>2015-03-25T11:01:16Z</time>
      </trkpt>
      <trkpt lat="41.712928" lon="-8.622031">
        <ele>62.107</ele>
        <time>2015-03-25T11:01:29Z</time>
      </trkpt>
      <trkpt lat="41.713458" lon="-8.622034">
        <ele>62.640</ele>
        <time>2015-03-25T11:01:46Z</time>
      </trkpt>
      <trkpt lat="41.713747" lon="-8.622011">
        <ele>62.693</ele>
        <time>2015-03-25T11:01:57Z</time>
      </trkpt>
      <trkpt lat="41.714071" lon="-8.621945">
        <ele>63.175</ele>
        <time>2015-03-25T11:02:11Z</time>
      </trkpt>
      <trkpt lat="41.714370" lon="-8.621909">
        <ele>64.135</ele>
        <time>2015-03-25T11:02:25Z</time>
      </trkpt>
      <trkpt lat="41.714756" lon="-8.621711">
        <ele>65.563</ele>
        <time>2015-03-25T11:02:42Z</time>
      </trkpt>
      <trkpt lat="41.714846" lon="-8.621761">
        <ele>65.528</ele>
        <time>2015-03-25T11:02:52Z</time>
      </trkpt>
      <trkpt lat="41.714892" lon="-8.621633">
        <ele>65.535</ele>
        <time>2015-03-25T11:03:01Z</time>
      </trkpt>
      <trkpt lat="41.715157" lon="-8.621367">
        <ele>64.144</ele>
        <time>2015-03-25T11:03:14Z</time>
      </trkpt>
      <trkpt lat="41.715299" lon="-8.621371">
        <ele>63.605</ele>
        <time>2015-03-25T11:03:18Z</time>
      </trkpt>
      <trkpt lat="41.715572" lon="-8.621379">
        <ele>62.115</ele>
        <time>2015-03-25T11:03:24Z</time>
      </trkpt>
      <trkpt lat="41.715803" lon="-8.621353">
        <ele>60.707</ele>
        <time>2015-03-25T11:03:29Z</time>
      </trkpt>
      <trkpt lat="41.715888" lon="-8.621315">
        <ele>60.793</ele>
        <time>2015-03-25T11:03:31Z</time>
      </trkpt>
      <trkpt lat="41.716264" lon="-8.621030">
        <ele>58.336</ele>
        <time>2015-03-25T11:03:41Z</time>
      </trkpt>
      <trkpt lat="41.716482" lon="-8.620843">
        <ele>57.348</ele>
        <time>2015-03-25T11:03:47Z</time>
      </trkpt>
      <trkpt lat="41.716959" lon="-8.620427">
        <ele>56.458</ele>
        <time>2015-03-25T11:04:02Z</time>
      </trkpt>
      <trkpt lat="41.717408" lon="-8.620261">
        <ele>54.956</ele>
        <time>2015-03-25T11:04:15Z</time>
      </trkpt>
      <trkpt lat="41.717590" lon="-8.620317">
        <ele>53.571</ele>
        <time>2015-03-25T11:04:19Z</time>
      </trkpt>
      <trkpt lat="41.717811" lon="-8.620381">
        <ele>51.638</ele>
        <time>2015-03-25T11:04:23Z</time>
      </trkpt>
      <trkpt lat="41.718204" lon="-8.620650">
        <ele>48.722</ele>
        <time>2015-03-25T11:04:30Z</time>
      </trkpt>
      <trkpt lat="41.718767" lon="-8.621173">
        <ele>47.262</ele>
        <time>2015-03-25T11:04:44Z</time>
      </trkpt>
      <trkpt lat="41.719089" lon="-8.621350">
        <ele>47.208</ele>
        <time>2015-03-25T11:04:55Z</time>
      </trkpt>
      <trkpt lat="41.719385" lon="-8.621425">
        <ele>48.707</ele>
        <time>2015-03-25T11:05:06Z</time>
      </trkpt>
      <trkpt lat="41.719809" lon="-8.621544">
        <ele>50.161</ele>
        <time>2015-03-25T11:05:24Z</time>
      </trkpt>
      <trkpt lat="41.720252" lon="-8.621665">
        <ele>51.644</ele>
        <time>2015-03-25T11:05:43Z</time>
      </trkpt>
      <trkpt lat="41.720588" lon="-8.621783">
        <ele>52.596</ele>
        <time>2015-03-25T11:05:59Z</time>
      </trkpt>
      <trkpt lat="41.721020" lon="-8.621974">
        <ele>52.566</ele>
        <time>2015-03-25T11:06:17Z</time>
      </trkpt>
      <trkpt lat="41.721282" lon="-8.621954">
        <ele>54.944</ele>
        <time>2015-03-25T11:06:30Z</time>
      </trkpt>
      <trkpt lat="41.721515" lon="-8.621926">
        <ele>57.859</ele>
        <time>2015-03-25T11:06:44Z</time>
      </trkpt>
      <trkpt lat="41.721831" lon="-8.621907">
        <ele>60.216</ele>
        <time>2015-03-25T11:07:01Z</time>
      </trkpt>
      <trkpt lat="41.722225" lon="-8.621754">
        <ele>61.233</ele>
        <time>2015-03-25T11:07:17Z</time>
      </trkpt>
      <trkpt lat="41.722605" lon="-8.621491">
        <ele>62.623</ele>
        <time>2015-03-25T11:07:34Z</time>
      </trkpt>
      <trkpt lat="41.722899" lon="-8.621200">
        <ele>63.615</ele>
        <time>2015-03-25T11:07:47Z</time>
      </trkpt>
      <trkpt lat="41.723368" lon="-8.620977">
        <ele>65.007</ele>
        <time>2015-03-25T11:08:02Z</time>
      </trkpt>
      <trkpt lat="41.723913" lon="-8.621002">
        <ele>65.042</ele>
        <time>2015-03-25T11:08:17Z</time>
      </trkpt>
      <trkpt lat="41.724456" lon="-8.621194">
        <ele>65.035</ele>
        <time>2015-03-25T11:08:32Z</time>
      </trkpt>
      <trkpt lat="41.724744" lon="-8.621253">
        <ele>64.147</ele>
        <time>2015-03-25T11:08:38Z</time>
      </trkpt>
      <trkpt lat="41.725449" lon="-8.621346">
        <ele>61.217</ele>
        <time>2015-03-25T11:08:50Z</time>
      </trkpt>
      <trkpt lat="41.725783" lon="-8.621248">
        <ele>60.715</ele>
        <time>2015-03-25T11:08:56Z</time>
      </trkpt>
      <trkpt lat="41.726325" lon="-8.621320">
        <ele>60.290</ele>
        <time>2015-03-25T11:09:10Z</time>
      </trkpt>
      <trkpt lat="41.726731" lon="-8.621555">
        <ele>60.257</ele>
        <time>2015-03-25T11:09:23Z</time>
      </trkpt>
      <trkpt lat="41.727275" lon="-8.621888">
        <ele>59.714</ele>
        <time>2015-03-25T11:09:42Z</time>
      </trkpt>
      <trkpt lat="41.727612" lon="-8.622138">
        <ele>61.254</ele>
        <time>2015-03-25T11:09:55Z</time>
      </trkpt>
      <trkpt lat="41.727931" lon="-8.622502">
        <ele>61.709</ele>
        <time>2015-03-25T11:10:09Z</time>
      </trkpt>
      <trkpt lat="41.728270" lon="-8.622880">
        <ele>62.107</ele>
        <time>2015-03-25T11:10:23Z</time>
      </trkpt>
      <trkpt lat="41.728351" lon="-8.623018">
        <ele>60.790</ele>
        <time>2015-03-25T11:10:26Z</time>
      </trkpt>
      <trkpt lat="41.728431" lon="-8.623191">
        <ele>59.363</ele>
        <time>2015-03-25T11:10:29Z</time>
      </trkpt>
      <trkpt lat="41.728604" lon="-8.623604">
        <ele>57.835</ele>
        <time>2015-03-25T11:10:36Z</time>
      </trkpt>
      <trkpt lat="41.728756" lon="-8.623766">
        <ele>57.355</ele>
        <time>2015-03-25T11:10:40Z</time>
      </trkpt>
      <trkpt lat="41.729133" lon="-8.623849">
        <ele>55.963</ele>
        <time>2015-03-25T11:10:47Z</time>
      </trkpt>
      <trkpt lat="41.729648" lon="-8.623908">
        <ele>53.558</ele>
        <time>2015-03-25T11:11:01Z</time>
      </trkpt>
      <trkpt lat="41.730138" lon="-8.623867">
        <ele>52.115</ele>
        <time>2015-03-25T11:11:14Z</time>
      </trkpt>
      <trkpt lat="41.730220" lon="-8.623877">
        <ele>51.111</ele>
        <time>2015-03-25T11:11:16Z</time>
      </trkpt>
      <trkpt lat="41.730474" lon="-8.623963">
        <ele>48.721</ele>
        <time>2015-03-25T11:11:21Z</time>
      </trkpt>
      <trkpt lat="41.730724" lon="-8.624220">
        <ele>46.803</ele>
        <time>2015-03-25T11:11:26Z</time>
      </trkpt>
      <trkpt lat="41.730831" lon="-8.624328">
        <ele>46.307</ele>
        <time>2015-03-25T11:11:28Z</time>
      </trkpt>
      <trkpt lat="41.731112" lon="-8.624458">
        <ele>42.970</ele>
        <time>2015-03-25T11:11:32Z</time>
      </trkpt>
      <trkpt lat="41.731342" lon="-8.624511">
        <ele>39.643</ele>
        <time>2015-03-25T11:11:35Z</time>
      </trkpt>
      <trkpt lat="41.731570" lon="-8.624379">
        <ele>37.295</ele>
        <time>2015-03-25T11:11:39Z</time>
      </trkpt>
      <trkpt lat="41.732275" lon="-8.623799">
        <ele>36.755</ele>
        <time>2015-03-25T11:11:55Z</time>
      </trkpt>
      <trkpt lat="41.732948" lon="-8.623288">
        <ele>36.723</ele>
        <time>2015-03-25T11:12:12Z</time>
      </trkpt>
      <trkpt lat="41.733028" lon="-8.623292">
        <ele>36.788</ele>
        <time>2015-03-25T11:12:14Z</time>
      </trkpt>
      <trkpt lat="41.733279" lon="-8.623319">
        <ele>35.785</ele>
        <time>2015-03-25T11:12:19Z</time>
      </trkpt>
      <trkpt lat="41.733412" lon="-8.623374">
        <ele>34.361</ele>
        <time>2015-03-25T11:12:21Z</time>
      </trkpt>
      <trkpt lat="41.733485" lon="-8.623406">
        <ele>33.321</ele>
        <time>2015-03-25T11:12:22Z</time>
      </trkpt>
      <trkpt lat="41.734215" lon="-8.623284">
        <ele>30.913</ele>
        <time>2015-03-25T11:12:32Z</time>
      </trkpt>
      <trkpt lat="41.734921" lon="-8.623009">
        <ele>30.407</ele>
        <time>2015-03-25T11:12:45Z</time>
      </trkpt>
      <trkpt lat="41.735216" lon="-8.622887">
        <ele>30.495</ele>
        <time>2015-03-25T11:12:52Z</time>
      </trkpt>
      <trkpt lat="41.735634" lon="-8.622781">
        <ele>30.428</ele>
        <time>2015-03-25T11:13:01Z</time>
      </trkpt>
      <trkpt lat="41.736116" lon="-8.622976">
        <ele>30.430</ele>
        <time>2015-03-25T11:13:12Z</time>
      </trkpt>
      <trkpt lat="41.736288" lon="-8.623031">
        <ele>31.950</ele>
        <time>2015-03-25T11:13:16Z</time>
      </trkpt>
      <trkpt lat="41.736904" lon="-8.623193">
        <ele>32.878</ele>
        <time>2015-03-25T11:13:31Z</time>
      </trkpt>
      <trkpt lat="41.737715" lon="-8.623446">
        <ele>31.953</ele>
        <time>2015-03-25T11:13:50Z</time>
      </trkpt>
      <trkpt lat="41.738077" lon="-8.623590">
        <ele>29.050</ele>
        <time>2015-03-25T11:13:56Z</time>
      </trkpt>
      <trkpt lat="41.738644" lon="-8.623677">
        <ele>25.645</ele>
        <time>2015-03-25T11:14:03Z</time>
      </trkpt>
      <trkpt lat="41.739410" lon="-8.623440">
        <ele>21.847</ele>
        <time>2015-03-25T11:14:13Z</time>
      </trkpt>
      <trkpt lat="41.739475" lon="-8.623394">
        <ele>21.811</ele>
        <time>2015-03-25T11:14:14Z</time>
      </trkpt>
      <trkpt lat="41.739801" lon="-8.623042">
        <ele>20.807</ele>
        <time>2015-03-25T11:14:20Z</time>
      </trkpt>
      <trkpt lat="41.740321" lon="-8.622294">
        <ele>20.393</ele>
        <time>2015-03-25T11:14:35Z</time>
      </trkpt>
      <trkpt lat="41.740356" lon="-8.622254">
        <ele>20.326</ele>
        <time>2015-03-25T11:14:36Z</time>
      </trkpt>
      <trkpt lat="41.741022" lon="-8.621653">
        <ele>19.848</ele>
        <time>2015-03-25T11:14:53Z</time>
      </trkpt>
      <trkpt lat="41.741059" lon="-8.621616">
        <ele>19.858</ele>
        <time>2015-03-25T11:14:54Z</time>
      </trkpt>
      <trkpt lat="41.741205" lon="-8.621350">
        <ele>19.846</ele>
        <time>2015-03-25T11:14:59Z</time>
      </trkpt>
      <trkpt lat="41.741684" lon="-8.620492">
        <ele>18.491</ele>
        <time>2015-03-25T11:15:16Z</time>
      </trkpt>
      <trkpt lat="41.742248" lon="-8.619972">
        <ele>18.488</ele>
        <time>2015-03-25T11:15:31Z</time>
      </trkpt>
      <trkpt lat="41.742392" lon="-8.619822">
        <ele>18.484</ele>
        <time>2015-03-25T11:15:35Z</time>
      </trkpt>
      <trkpt lat="41.742779" lon="-8.619542">
        <ele>19.407</ele>
        <time>2015-03-25T11:15:45Z</time>
      </trkpt>
      <trkpt lat="41.743279" lon="-8.619202">
        <ele>20.817</ele>
        <time>2015-03-25T11:15:59Z</time>
      </trkpt>
      <trkpt lat="41.743779" lon="-8.618694">
        <ele>20.807</ele>
        <time>2015-03-25T11:16:13Z</time>
      </trkpt>
      <trkpt lat="41.744461" lon="-8.618096">
        <ele>21.867</ele>
        <time>2015-03-25T11:16:31Z</time>
      </trkpt>
      <trkpt lat="41.744845" lon="-8.617762">
        <ele>21.840</ele>
        <time>2015-03-25T11:16:41Z</time>
      </trkpt>
      <trkpt lat="41.745228" lon="-8.617234">
        <ele>22.372</ele>
        <time>2015-03-25T11:16:55Z</time>
      </trkpt>
      <trkpt lat="41.745607" lon="-8.616711">
        <ele>23.232</ele>
        <time>2015-03-25T11:17:10Z</time>
      </trkpt>
      <trkpt lat="41.746015" lon="-8.615994">
        <ele>23.240</ele>
        <time>2015-03-25T11:17:27Z</time>
      </trkpt>
      <trkpt lat="41.746515" lon="-8.615331">
        <ele>23.745</ele>
        <time>2015-03-25T11:17:44Z</time>
      </trkpt>
      <trkpt lat="41.746898" lon="-8.614895">
        <ele>27.122</ele>
        <time>2015-03-25T11:17:58Z</time>
      </trkpt>
      <trkpt lat="41.747007" lon="-8.614736">
        <ele>27.151</ele>
        <time>2015-03-25T11:18:02Z</time>
      </trkpt>
      <trkpt lat="41.747106" lon="-8.614624">
        <ele>27.501</ele>
        <time>2015-03-25T11:18:05Z</time>
      </trkpt>
      <trkpt lat="41.747521" lon="-8.613897">
        <ele>26.111</ele>
        <time>2015-03-25T11:18:21Z</time>
      </trkpt>
      <trkpt lat="41.748054" lon="-8.613328">
        <ele>25.607</ele>
        <time>2015-03-25T11:18:37Z</time>
      </trkpt>
      <trkpt lat="41.748497" lon="-8.612834">
        <ele>27.124</ele>
        <time>2015-03-25T11:18:51Z</time>
      </trkpt>
      <trkpt lat="41.748959" lon="-8.612595">
        <ele>27.597</ele>
        <time>2015-03-25T11:19:04Z</time>
      </trkpt>
      <trkpt lat="41.749253" lon="-8.612512">
        <ele>27.589</ele>
        <time>2015-03-25T11:19:11Z</time>
      </trkpt>
      <trkpt lat="41.749329" lon="-8.612457">
        <ele>27.589</ele>
        <time>2015-03-25T11:19:13Z</time>
      </trkpt>
      <trkpt lat="41.749846" lon="-8.611930">
        <ele>27.567</ele>
        <time>2015-03-25T11:19:28Z</time>
      </trkpt>
      <trkpt lat="41.750390" lon="-8.611429">
        <ele>28.022</ele>
        <time>2015-03-25T11:19:45Z</time>
      </trkpt>
      <trkpt lat="41.750817" lon="-8.610911">
        <ele>29.959</ele>
        <time>2015-03-25T11:20:01Z</time>
      </trkpt>
      <trkpt lat="41.751264" lon="-8.610616">
        <ele>30.481</ele>
        <time>2015-03-25T11:20:14Z</time>
      </trkpt>
      <trkpt lat="41.751364" lon="-8.610527">
        <ele>30.461</ele>
        <time>2015-03-25T11:20:17Z</time>
      </trkpt>
      <trkpt lat="41.751466" lon="-8.610420">
        <ele>29.017</ele>
        <time>2015-03-25T11:20:20Z</time>
      </trkpt>
      <trkpt lat="41.752101" lon="-8.609909">
        <ele>26.607</ele>
        <time>2015-03-25T11:20:35Z</time>
      </trkpt>
      <trkpt lat="41.752351" lon="-8.609795">
        <ele>26.157</ele>
        <time>2015-03-25T11:20:41Z</time>
      </trkpt>
      <trkpt lat="41.753048" lon="-8.609346">
        <ele>24.740</ele>
        <time>2015-03-25T11:20:58Z</time>
      </trkpt>
      <trkpt lat="41.753450" lon="-8.609037">
        <ele>24.252</ele>
        <time>2015-03-25T11:21:08Z</time>
      </trkpt>
      <trkpt lat="41.753974" lon="-8.608216">
        <ele>23.292</ele>
        <time>2015-03-25T11:21:24Z</time>
      </trkpt>
      <trkpt lat="41.754083" lon="-8.608076">
        <ele>22.720</ele>
        <time>2015-03-25T11:21:27Z</time>
      </trkpt>
      <trkpt lat="41.754180" lon="-8.607936">
        <ele>22.725</ele>
        <time>2015-03-25T11:21:30Z</time>
      </trkpt>
      <trkpt lat="41.754398" lon="-8.607097">
        <ele>20.332</ele>
        <time>2015-03-25T11:21:42Z</time>
      </trkpt>
      <trkpt lat="41.754704" lon="-8.606251">
        <ele>19.482</ele>
        <time>2015-03-25T11:21:54Z</time>
      </trkpt>
      <trkpt lat="41.754965" lon="-8.605741">
        <ele>19.443</ele>
        <time>2015-03-25T11:22:04Z</time>
      </trkpt>
      <trkpt lat="41.755167" lon="-8.605167">
        <ele>20.817</ele>
        <time>2015-03-25T11:22:15Z</time>
      </trkpt>
      <trkpt lat="41.755463" lon="-8.604941">
        <ele>21.307</ele>
        <time>2015-03-25T11:22:23Z</time>
      </trkpt>
      <trkpt lat="41.755697" lon="-8.604942">
        <ele>19.877</ele>
        <time>2015-03-25T11:22:28Z</time>
      </trkpt>
      <trkpt lat="41.756120" lon="-8.604599">
        <ele>18.450</ele>
        <time>2015-03-25T11:22:36Z</time>
      </trkpt>
      <trkpt lat="41.756184" lon="-8.604461">
        <ele>17.912</ele>
        <time>2015-03-25T11:22:38Z</time>
      </trkpt>
      <trkpt lat="41.756224" lon="-8.604322">
        <ele>17.942</ele>
        <time>2015-03-25T11:22:40Z</time>
      </trkpt>
      <trkpt lat="41.756476" lon="-8.603493">
        <ele>19.460</ele>
        <time>2015-03-25T11:22:56Z</time>
      </trkpt>
      <trkpt lat="41.756435" lon="-8.603182">
        <ele>20.355</ele>
        <time>2015-03-25T11:23:03Z</time>
      </trkpt>
      <trkpt lat="41.756493" lon="-8.602981">
        <ele>19.432</ele>
        <time>2015-03-25T11:23:07Z</time>
      </trkpt>
      <trkpt lat="41.756815" lon="-8.603024">
        <ele>18.943</ele>
        <time>2015-03-25T11:23:15Z</time>
      </trkpt>
      <trkpt lat="41.756952" lon="-8.602932">
        <ele>18.464</ele>
        <time>2015-03-25T11:23:19Z</time>
      </trkpt>
      <trkpt lat="41.757351" lon="-8.602248">
        <ele>17.910</ele>
        <time>2015-03-25T11:23:35Z</time>
      </trkpt>
      <trkpt lat="41.757480" lon="-8.602043">
        <ele>17.907</ele>
        <time>2015-03-25T11:23:40Z</time>
      </trkpt>
      <trkpt lat="41.757939" lon="-8.601323">
        <ele>19.473</ele>
        <time>2015-03-25T11:23:58Z</time>
      </trkpt>
      <trkpt lat="41.758338" lon="-8.600766">
        <ele>18.496</ele>
        <time>2015-03-25T11:24:12Z</time>
      </trkpt>
      <trkpt lat="41.758431" lon="-8.600627">
        <ele>17.088</ele>
        <time>2015-03-25T11:24:15Z</time>
      </trkpt>
      <trkpt lat="41.758653" lon="-8.600402">
        <ele>17.068</ele>
        <time>2015-03-25T11:24:22Z</time>
      </trkpt>
      <trkpt lat="41.759223" lon="-8.600161">
        <ele>17.926</ele>
        <time>2015-03-25T11:24:37Z</time>
      </trkpt>
      <trkpt lat="41.759720" lon="-8.599866">
        <ele>17.911</ele>
        <time>2015-03-25T11:24:51Z</time>
      </trkpt>
      <trkpt lat="41.759830" lon="-8.599796">
        <ele>16.518</ele>
        <time>2015-03-25T11:24:54Z</time>
      </trkpt>
      <trkpt lat="41.760435" lon="-8.599410">
        <ele>16.539</ele>
        <time>2015-03-25T11:25:11Z</time>
      </trkpt>
      <trkpt lat="41.760670" lon="-8.599015">
        <ele>16.501</ele>
        <time>2015-03-25T11:25:22Z</time>
      </trkpt>
      <trkpt lat="41.760723" lon="-8.598899">
        <ele>16.521</ele>
        <time>2015-03-25T11:25:25Z</time>
      </trkpt>
      <trkpt lat="41.760878" lon="-8.597943">
        <ele>15.507</ele>
        <time>2015-03-25T11:25:42Z</time>
      </trkpt>
      <trkpt lat="41.760970" lon="-8.597020">
        <ele>15.512</ele>
        <time>2015-03-25T11:25:59Z</time>
      </trkpt>
      <trkpt lat="41.760998" lon="-8.596288">
        <ele>15.095</ele>
        <time>2015-03-25T11:26:14Z</time>
      </trkpt>
      <trkpt lat="41.761077" lon="-8.595759">
        <ele>15.057</ele>
        <time>2015-03-25T11:26:25Z</time>
      </trkpt>
      <trkpt lat="41.761240" lon="-8.595047">
        <ele>15.087</ele>
        <time>2015-03-25T11:26:39Z</time>
      </trkpt>
      <trkpt lat="41.761524" lon="-8.594196">
        <ele>15.045</ele>
        <time>2015-03-25T11:26:56Z</time>
      </trkpt>
      <trkpt lat="41.761724" lon="-8.593628">
        <ele>15.010</ele>
        <time>2015-03-25T11:27:09Z</time>
      </trkpt>
      <trkpt lat="41.761930" lon="-8.593104">
        <ele>15.027</ele>
        <time>2015-03-25T11:27:21Z</time>
      </trkpt>
      <trkpt lat="41.762153" lon="-8.592541">
        <ele>16.518</ele>
        <time>2015-03-25T11:27:35Z</time>
      </trkpt>
      <trkpt lat="41.762324" lon="-8.592088">
        <ele>16.598</ele>
        <time>2015-03-25T11:27:49Z</time>
      </trkpt>
      <trkpt lat="41.762488" lon="-8.591894">
        <ele>16.517</ele>
        <time>2015-03-25T11:28:01Z</time>
      </trkpt>
      <trkpt lat="41.762610" lon="-8.591619">
        <ele>16.007</ele>
        <time>2015-03-25T11:28:50Z</time>
      </trkpt>
      <trkpt lat="41.762858" lon="-8.591192">
        <ele>16.060</ele>
        <time>2015-03-25T11:29:03Z</time>
      </trkpt>
      <trkpt lat="41.763205" lon="-8.590688">
        <ele>16.043</ele>
        <time>2015-03-25T11:29:18Z</time>
      </trkpt>
      <trkpt lat="41.763566" lon="-8.590255">
        <ele>16.055</ele>
        <time>2015-03-25T11:29:32Z</time>
      </trkpt>
      <trkpt lat="41.763661" lon="-8.590123">
        <ele>16.045</ele>
        <time>2015-03-25T11:29:36Z</time>
      </trkpt>
      <trkpt lat="41.763699" lon="-8.589958">
        <ele>16.063</ele>
        <time>2015-03-25T11:29:41Z</time>
      </trkpt>
      <trkpt lat="41.763816" lon="-8.589720">
        <ele>16.028</ele>
        <time>2015-03-25T11:29:55Z</time>
      </trkpt>
      <trkpt lat="41.764010" lon="-8.589435">
        <ele>16.055</ele>
        <time>2015-03-25T11:30:38Z</time>
      </trkpt>
      <trkpt lat="41.764320" lon="-8.589034">
        <ele>16.023</ele>
        <time>2015-03-25T11:30:50Z</time>
      </trkpt>
      <trkpt lat="41.764620" lon="-8.588800">
        <ele>16.083</ele>
        <time>2015-03-25T11:31:01Z</time>
      </trkpt>
      <trkpt lat="41.764845" lon="-8.588488">
        <ele>16.511</ele>
        <time>2015-03-25T11:31:13Z</time>
      </trkpt>
      <trkpt lat="41.764926" lon="-8.588404">
        <ele>16.507</ele>
        <time>2015-03-25T11:31:24Z</time>
      </trkpt>
      <trkpt lat="41.764994" lon="-8.588352">
        <ele>16.531</ele>
        <time>2015-03-25T11:31:53Z</time>
      </trkpt>
      <trkpt lat="41.765033" lon="-8.588319">
        <ele>16.584</ele>
        <time>2015-03-25T11:32:26Z</time>
      </trkpt>
      <trkpt lat="41.765157" lon="-8.587991">
        <ele>16.086</ele>
        <time>2015-03-25T11:34:16Z</time>
      </trkpt>
      <trkpt lat="41.765421" lon="-8.587601">
        <ele>16.076</ele>
        <time>2015-03-25T11:34:29Z</time>
      </trkpt>
      <trkpt lat="41.765684" lon="-8.587243">
        <ele>15.064</ele>
        <time>2015-03-25T11:34:42Z</time>
      </trkpt>
      <trkpt lat="41.766007" lon="-8.586800">
        <ele>14.679</ele>
        <time>2015-03-25T11:34:56Z</time>
      </trkpt>
      <trkpt lat="41.766314" lon="-8.586398">
        <ele>14.676</ele>
        <time>2015-03-25T11:35:09Z</time>
      </trkpt>
      <trkpt lat="41.766660" lon="-8.586000">
        <ele>14.649</ele>
        <time>2015-03-25T11:35:22Z</time>
      </trkpt>
      <trkpt lat="41.766884" lon="-8.585762">
        <ele>14.602</ele>
        <time>2015-03-25T11:35:35Z</time>
      </trkpt>
      <trkpt lat="41.766956" lon="-8.585713">
        <ele>14.622</ele>
        <time>2015-03-25T11:36:05Z</time>
      </trkpt>
      <trkpt lat="41.766986" lon="-8.585658">
        <ele>14.607</ele>
        <time>2015-03-25T11:36:08Z</time>
      </trkpt>
      <trkpt lat="41.767039" lon="-8.585609">
        <ele>14.693</ele>
        <time>2015-03-25T11:36:12Z</time>
      </trkpt>
      <trkpt lat="41.767138" lon="-8.585458">
        <ele>14.646</ele>
        <time>2015-03-25T11:36:21Z</time>
      </trkpt>
      <trkpt lat="41.767195" lon="-8.585398">
        <ele>14.638</ele>
        <time>2015-03-25T11:36:25Z</time>
      </trkpt>
      <trkpt lat="41.767311" lon="-8.585318">
        <ele>14.648</ele>
        <time>2015-03-25T11:36:31Z</time>
      </trkpt>
      <trkpt lat="41.767340" lon="-8.585270">
        <ele>11.266</ele>
        <time>2015-03-25T12:11:24Z</time>
      </trkpt>
      <trkpt lat="41.767416" lon="-8.585262">
        <ele>11.261</ele>
        <time>2015-03-25T12:11:29Z</time>
      </trkpt>
      <trkpt lat="41.767663" lon="-8.585201">
        <ele>10.738</ele>
        <time>2015-03-25T12:11:53Z</time>
      </trkpt>
      <trkpt lat="41.767747" lon="-8.585138">
        <ele>12.677</ele>
        <time>2015-03-25T12:12:35Z</time>
      </trkpt>
      <trkpt lat="41.767878" lon="-8.585068">
        <ele>12.661</ele>
        <time>2015-03-25T12:12:45Z</time>
      </trkpt>
      <trkpt lat="41.768202" lon="-8.584794">
        <ele>13.127</ele>
        <time>2015-03-25T12:13:03Z</time>
      </trkpt>
      <trkpt lat="41.768276" lon="-8.584701">
        <ele>13.607</ele>
        <time>2015-03-25T12:13:15Z</time>
      </trkpt>
      <trkpt lat="41.768548" lon="-8.584585">
        <ele>13.656</ele>
        <time>2015-03-25T12:14:54Z</time>
      </trkpt>
      <trkpt lat="41.768647" lon="-8.584516">
        <ele>15.069</ele>
        <time>2015-03-25T12:14:59Z</time>
      </trkpt>
      <trkpt lat="41.768768" lon="-8.584448">
        <ele>15.531</ele>
        <time>2015-03-25T12:15:05Z</time>
      </trkpt>
      <trkpt lat="41.768823" lon="-8.584500">
        <ele>16.021</ele>
        <time>2015-03-25T12:15:09Z</time>
      </trkpt>
      <trkpt lat="41.768890" lon="-8.584923">
        <ele>18.449</ele>
        <time>2015-03-25T12:15:24Z</time>
      </trkpt>
      <trkpt lat="41.768902" lon="-8.585023">
        <ele>16.524</ele>
        <time>2015-03-25T12:15:35Z</time>
      </trkpt>
      <trkpt lat="41.768953" lon="-8.585150">
        <ele>17.941</ele>
        <time>2015-03-25T12:15:45Z</time>
      </trkpt>
      <trkpt lat="41.769043" lon="-8.585593">
        <ele>19.813</ele>
        <time>2015-03-25T12:16:24Z</time>
      </trkpt>
      <trkpt lat="41.769084" lon="-8.585761">
        <ele>18.443</ele>
        <time>2015-03-25T12:16:29Z</time>
      </trkpt>
      <trkpt lat="41.769171" lon="-8.586201">
        <ele>18.907</ele>
        <time>2015-03-25T12:16:43Z</time>
      </trkpt>
      <trkpt lat="41.769192" lon="-8.586375">
        <ele>18.907</ele>
        <time>2015-03-25T12:17:17Z</time>
      </trkpt>
      <trkpt lat="41.769309" lon="-8.586961">
        <ele>18.460</ele>
        <time>2015-03-25T12:17:31Z</time>
      </trkpt>
      <trkpt lat="41.769432" lon="-8.587668">
        <ele>17.483</ele>
        <time>2015-03-25T12:17:48Z</time>
      </trkpt>
      <trkpt lat="41.769482" lon="-8.587868">
        <ele>16.075</ele>
        <time>2015-03-25T12:18:20Z</time>
      </trkpt>
      <trkpt lat="41.769574" lon="-8.588280">
        <ele>17.425</ele>
        <time>2015-03-25T12:18:33Z</time>
      </trkpt>
      <trkpt lat="41.769712" lon="-8.588967">
        <ele>16.563</ele>
        <time>2015-03-25T12:18:53Z</time>
      </trkpt>
      <trkpt lat="41.769811" lon="-8.589222">
        <ele>16.568</ele>
        <time>2015-03-25T12:19:05Z</time>
      </trkpt>
      <trkpt lat="41.769866" lon="-8.589668">
        <ele>17.015</ele>
        <time>2015-03-25T12:21:58Z</time>
      </trkpt>
      <trkpt lat="41.770090" lon="-8.589558">
        <ele>16.552</ele>
        <time>2015-03-25T12:22:08Z</time>
      </trkpt>
      <trkpt lat="41.770159" lon="-8.589524">
        <ele>17.053</ele>
        <time>2015-03-25T12:22:11Z</time>
      </trkpt>
      <trkpt lat="41.770513" lon="-8.589384">
        <ele>17.008</ele>
        <time>2015-03-25T12:22:24Z</time>
      </trkpt>
      <trkpt lat="41.770826" lon="-8.589257">
        <ele>16.507</ele>
        <time>2015-03-25T12:22:36Z</time>
      </trkpt>
      <trkpt lat="41.770904" lon="-8.589259">
        <ele>16.524</ele>
        <time>2015-03-25T12:22:41Z</time>
      </trkpt>
      <trkpt lat="41.770978" lon="-8.589224">
        <ele>16.027</ele>
        <time>2015-03-25T12:22:46Z</time>
      </trkpt>
      <trkpt lat="41.771335" lon="-8.589165">
        <ele>16.029</ele>
        <time>2015-03-25T12:23:00Z</time>
      </trkpt>
      <trkpt lat="41.771632" lon="-8.589031">
        <ele>16.039</ele>
        <time>2015-03-25T12:23:13Z</time>
      </trkpt>
      <trkpt lat="41.771873" lon="-8.588634">
        <ele>16.067</ele>
        <time>2015-03-25T12:23:26Z</time>
      </trkpt>
      <trkpt lat="41.772085" lon="-8.588311">
        <ele>16.072</ele>
        <time>2015-03-25T12:23:37Z</time>
      </trkpt>
      <trkpt lat="41.772256" lon="-8.588290">
        <ele>16.049</ele>
        <time>2015-03-25T12:23:43Z</time>
      </trkpt>
      <trkpt lat="41.772836" lon="-8.588389">
        <ele>16.082</ele>
        <time>2015-03-25T12:24:01Z</time>
      </trkpt>
      <trkpt lat="41.773263" lon="-8.588631">
        <ele>15.043</ele>
        <time>2015-03-25T12:24:16Z</time>
      </trkpt>
      <trkpt lat="41.773684" lon="-8.589022">
        <ele>15.017</ele>
        <time>2015-03-25T12:24:31Z</time>
      </trkpt>
      <trkpt lat="41.774057" lon="-8.589375">
        <ele>15.007</ele>
        <time>2015-03-25T12:24:46Z</time>
      </trkpt>
      <trkpt lat="41.774439" lon="-8.589678">
        <ele>15.087</ele>
        <time>2015-03-25T12:25:01Z</time>
      </trkpt>
      <trkpt lat="41.774830" lon="-8.589908">
        <ele>15.080</ele>
        <time>2015-03-25T12:25:15Z</time>
      </trkpt>
      <trkpt lat="41.775086" lon="-8.590091">
        <ele>14.182</ele>
        <time>2015-03-25T12:25:26Z</time>
      </trkpt>
      <trkpt lat="41.775026" lon="-8.590036">
        <ele>14.142</ele>
        <time>2015-03-25T12:25:45Z</time>
      </trkpt>
      <trkpt lat="41.775247" lon="-8.590185">
        <ele>14.160</ele>
        <time>2015-03-25T12:26:07Z</time>
      </trkpt>
      <trkpt lat="41.775328" lon="-8.590217">
        <ele>15.575</ele>
        <time>2015-03-25T12:26:15Z</time>
      </trkpt>
      <trkpt lat="41.775483" lon="-8.590189">
        <ele>17.982</ele>
        <time>2015-03-25T12:26:33Z</time>
      </trkpt>
      <trkpt lat="41.775548" lon="-8.590203">
        <ele>17.916</ele>
        <time>2015-03-25T12:26:37Z</time>
      </trkpt>
      <trkpt lat="41.775658" lon="-8.590216">
        <ele>15.576</ele>
        <time>2015-03-25T12:26:43Z</time>
      </trkpt>
      <trkpt lat="41.775712" lon="-8.590202">
        <ele>15.513</ele>
        <time>2015-03-25T12:27:18Z</time>
      </trkpt>
      <trkpt lat="41.775867" lon="-8.590112">
        <ele>15.007</ele>
        <time>2015-03-25T12:27:35Z</time>
      </trkpt>
      <trkpt lat="41.776089" lon="-8.590020">
        <ele>15.040</ele>
        <time>2015-03-25T12:27:54Z</time>
      </trkpt>
      <trkpt lat="41.776336" lon="-8.589934">
        <ele>15.033</ele>
        <time>2015-03-25T12:28:14Z</time>
      </trkpt>
      <trkpt lat="41.776441" lon="-8.589917">
        <ele>16.525</ele>
        <time>2015-03-25T12:28:25Z</time>
      </trkpt>
      <trkpt lat="41.776729" lon="-8.589814">
        <ele>16.075</ele>
        <time>2015-03-25T12:28:39Z</time>
      </trkpt>
      <trkpt lat="41.777113" lon="-8.589731">
        <ele>16.523</ele>
        <time>2015-03-25T12:28:57Z</time>
      </trkpt>
      <trkpt lat="41.777407" lon="-8.589720">
        <ele>16.548</ele>
        <time>2015-03-25T12:29:11Z</time>
      </trkpt>
      <trkpt lat="41.777669" lon="-8.589825">
        <ele>16.515</ele>
        <time>2015-03-25T12:29:24Z</time>
      </trkpt>
      <trkpt lat="41.777957" lon="-8.589906">
        <ele>16.566</ele>
        <time>2015-03-25T12:29:37Z</time>
      </trkpt>
      <trkpt lat="41.778312" lon="-8.590055">
        <ele>16.529</ele>
        <time>2015-03-25T12:29:53Z</time>
      </trkpt>
      <trkpt lat="41.778700" lon="-8.590221">
        <ele>17.021</ele>
        <time>2015-03-25T12:30:11Z</time>
      </trkpt>
      <trkpt lat="41.779053" lon="-8.590348">
        <ele>17.407</ele>
        <time>2015-03-25T12:30:29Z</time>
      </trkpt>
      <trkpt lat="41.779110" lon="-8.590338">
        <ele>18.415</ele>
        <time>2015-03-25T12:30:34Z</time>
      </trkpt>
      <trkpt lat="41.779310" lon="-8.590232">
        <ele>17.948</ele>
        <time>2015-03-25T12:30:56Z</time>
      </trkpt>
      <trkpt lat="41.779658" lon="-8.590220">
        <ele>17.040</ele>
        <time>2015-03-25T12:31:09Z</time>
      </trkpt>
      <trkpt lat="41.780013" lon="-8.590339">
        <ele>17.040</ele>
        <time>2015-03-25T12:31:23Z</time>
      </trkpt>
      <trkpt lat="41.780419" lon="-8.590528">
        <ele>17.078</ele>
        <time>2015-03-25T12:31:40Z</time>
      </trkpt>
      <trkpt lat="41.780713" lon="-8.590693">
        <ele>18.933</ele>
        <time>2015-03-25T12:31:53Z</time>
      </trkpt>
      <trkpt lat="41.781092" lon="-8.590994">
        <ele>19.870</ele>
        <time>2015-03-25T12:32:11Z</time>
      </trkpt>
      <trkpt lat="41.781472" lon="-8.591239">
        <ele>20.324</ele>
        <time>2015-03-25T12:32:27Z</time>
      </trkpt>
      <trkpt lat="41.781862" lon="-8.591489">
        <ele>21.304</ele>
        <time>2015-03-25T12:32:44Z</time>
      </trkpt>
      <trkpt lat="41.782174" lon="-8.591875">
        <ele>21.314</ele>
        <time>2015-03-25T12:32:58Z</time>
      </trkpt>
      <trkpt lat="41.782583" lon="-8.592029">
        <ele>19.807</ele>
        <time>2015-03-25T12:33:11Z</time>
      </trkpt>
      <trkpt lat="41.783100" lon="-8.591912">
        <ele>19.891</ele>
        <time>2015-03-25T12:33:27Z</time>
      </trkpt>
      <trkpt lat="41.783467" lon="-8.591953">
        <ele>19.874</ele>
        <time>2015-03-25T12:33:40Z</time>
      </trkpt>
      <trkpt lat="41.783734" lon="-8.591921">
        <ele>19.866</ele>
        <time>2015-03-25T12:33:51Z</time>
      </trkpt>
      <trkpt lat="41.784027" lon="-8.591779">
        <ele>19.456</ele>
        <time>2015-03-25T12:34:03Z</time>
      </trkpt>
      <trkpt lat="41.784356" lon="-8.591570">
        <ele>19.424</ele>
        <time>2015-03-25T12:34:15Z</time>
      </trkpt>
      <trkpt lat="41.784943" lon="-8.591386">
        <ele>19.429</ele>
        <time>2015-03-25T12:34:32Z</time>
      </trkpt>
      <trkpt lat="41.785128" lon="-8.591317">
        <ele>20.896</ele>
        <time>2015-03-25T12:34:38Z</time>
      </trkpt>
      <trkpt lat="41.785581" lon="-8.591204">
        <ele>21.851</ele>
        <time>2015-03-25T12:34:53Z</time>
      </trkpt>
      <trkpt lat="41.785881" lon="-8.591110">
        <ele>21.801</ele>
        <time>2015-03-25T12:35:06Z</time>
      </trkpt>
      <trkpt lat="41.785961" lon="-8.591068">
        <ele>21.311</ele>
        <time>2015-03-25T12:35:08Z</time>
      </trkpt>
      <trkpt lat="41.786392" lon="-8.590972">
        <ele>21.307</ele>
        <time>2015-03-25T12:35:21Z</time>
      </trkpt>
      <trkpt lat="41.786867" lon="-8.590948">
        <ele>21.334</ele>
        <time>2015-03-25T12:35:36Z</time>
      </trkpt>
      <trkpt lat="41.787241" lon="-8.591052">
        <ele>22.377</ele>
        <time>2015-03-25T12:35:48Z</time>
      </trkpt>
      <trkpt lat="41.787721" lon="-8.591259">
        <ele>22.759</ele>
        <time>2015-03-25T12:36:04Z</time>
      </trkpt>
      <trkpt lat="41.788297" lon="-8.591284">
        <ele>23.269</ele>
        <time>2015-03-25T12:36:22Z</time>
      </trkpt>
      <trkpt lat="41.788797" lon="-8.591442">
        <ele>24.257</ele>
        <time>2015-03-25T12:36:39Z</time>
      </trkpt>
      <trkpt lat="41.789081" lon="-8.591604">
        <ele>25.122</ele>
        <time>2015-03-25T12:36:50Z</time>
      </trkpt>
      <trkpt lat="41.789480" lon="-8.591823">
        <ele>25.639</ele>
        <time>2015-03-25T12:37:05Z</time>
      </trkpt>
      <trkpt lat="41.789785" lon="-8.592020">
        <ele>26.115</ele>
        <time>2015-03-25T12:37:19Z</time>
      </trkpt>
      <trkpt lat="41.790114" lon="-8.592113">
        <ele>27.565</ele>
        <time>2015-03-25T12:37:37Z</time>
      </trkpt>
      <trkpt lat="41.790446" lon="-8.592053">
        <ele>29.011</ele>
        <time>2015-03-25T12:37:53Z</time>
      </trkpt>
      <trkpt lat="41.790694" lon="-8.591712">
        <ele>27.507</ele>
        <time>2015-03-25T12:38:05Z</time>
      </trkpt>
      <trkpt lat="41.790935" lon="-8.591453">
        <ele>27.510</ele>
        <time>2015-03-25T12:38:18Z</time>
      </trkpt>
      <trkpt lat="41.791002" lon="-8.591482">
        <ele>29.013</ele>
        <time>2015-03-25T12:38:22Z</time>
      </trkpt>
      <trkpt lat="41.791182" lon="-8.591683">
        <ele>30.925</ele>
        <time>2015-03-25T12:38:37Z</time>
      </trkpt>
      <trkpt lat="41.791219" lon="-8.591717">
        <ele>32.325</ele>
        <time>2015-03-25T12:38:40Z</time>
      </trkpt>
      <trkpt lat="41.791399" lon="-8.591938">
        <ele>35.253</ele>
        <time>2015-03-25T12:38:58Z</time>
      </trkpt>
      <trkpt lat="41.791579" lon="-8.592127">
        <ele>38.668</ele>
        <time>2015-03-25T12:39:15Z</time>
      </trkpt>
      <trkpt lat="41.791704" lon="-8.592346">
        <ele>40.595</ele>
        <time>2015-03-25T12:39:29Z</time>
      </trkpt>
      <trkpt lat="41.791757" lon="-8.592389">
        <ele>40.566</ele>
        <time>2015-03-25T12:39:33Z</time>
      </trkpt>
      <trkpt lat="41.792067" lon="-8.592545">
        <ele>41.529</ele>
        <time>2015-03-25T12:39:52Z</time>
      </trkpt>
      <trkpt lat="41.792226" lon="-8.592606">
        <ele>41.521</ele>
        <time>2015-03-25T12:39:59Z</time>
      </trkpt>
      <trkpt lat="41.792424" lon="-8.592608">
        <ele>39.607</ele>
        <time>2015-03-25T12:40:03Z</time>
      </trkpt>
      <trkpt lat="41.792660" lon="-8.592637">
        <ele>38.185</ele>
        <time>2015-03-25T12:40:07Z</time>
      </trkpt>
      <trkpt lat="41.792947" lon="-8.592663">
        <ele>36.718</ele>
        <time>2015-03-25T12:40:12Z</time>
      </trkpt>
      <trkpt lat="41.793383" lon="-8.592958">
        <ele>35.780</ele>
        <time>2015-03-25T12:40:21Z</time>
      </trkpt>
      <trkpt lat="41.793582" lon="-8.592923">
        <ele>35.710</ele>
        <time>2015-03-25T12:40:25Z</time>
      </trkpt>
      <trkpt lat="41.794212" lon="-8.592687">
        <ele>33.898</ele>
        <time>2015-03-25T12:40:37Z</time>
      </trkpt>
      <trkpt lat="41.794333" lon="-8.592534">
        <ele>33.343</ele>
        <time>2015-03-25T12:40:41Z</time>
      </trkpt>
      <trkpt lat="41.794356" lon="-8.592301">
        <ele>31.450</ele>
        <time>2015-03-25T12:40:44Z</time>
      </trkpt>
      <trkpt lat="41.794500" lon="-8.592160">
        <ele>30.931</ele>
        <time>2015-03-25T12:40:47Z</time>
      </trkpt>
      <trkpt lat="41.794870" lon="-8.591913">
        <ele>29.561</ele>
        <time>2015-03-25T12:40:54Z</time>
      </trkpt>
      <trkpt lat="41.795099" lon="-8.591976">
        <ele>30.907</ele>
        <time>2015-03-25T12:41:00Z</time>
      </trkpt>
      <trkpt lat="41.795167" lon="-8.592022">
        <ele>32.307</ele>
        <time>2015-03-25T12:41:04Z</time>
      </trkpt>
      <trkpt lat="41.795250" lon="-8.591912">
        <ele>33.362</ele>
        <time>2015-03-25T12:41:11Z</time>
      </trkpt>
      <trkpt lat="41.795459" lon="-8.591700">
        <ele>34.325</ele>
        <time>2015-03-25T12:41:24Z</time>
      </trkpt>
      <trkpt lat="41.795618" lon="-8.591544">
        <ele>32.367</ele>
        <time>2015-03-25T12:41:30Z</time>
      </trkpt>
      <trkpt lat="41.795703" lon="-8.591416">
        <ele>30.967</ele>
        <time>2015-03-25T12:41:33Z</time>
      </trkpt>
      <trkpt lat="41.796094" lon="-8.591021">
        <ele>29.975</ele>
        <time>2015-03-25T12:41:44Z</time>
      </trkpt>
      <trkpt lat="41.796354" lon="-8.590405">
        <ele>28.580</ele>
        <time>2015-03-25T12:41:59Z</time>
      </trkpt>
      <trkpt lat="41.796671" lon="-8.590359">
        <ele>28.097</ele>
        <time>2015-03-25T12:42:10Z</time>
      </trkpt>
      <trkpt lat="41.797077" lon="-8.590610">
        <ele>28.043</ele>
        <time>2015-03-25T12:42:26Z</time>
      </trkpt>
      <trkpt lat="41.797218" lon="-8.590818">
        <ele>29.964</ele>
        <time>2015-03-25T12:42:38Z</time>
      </trkpt>
      <trkpt lat="41.797379" lon="-8.591033">
        <ele>32.310</ele>
        <time>2015-03-25T12:42:52Z</time>
      </trkpt>
      <trkpt lat="41.797623" lon="-8.591371">
        <ele>32.807</ele>
        <time>2015-03-25T12:43:06Z</time>
      </trkpt>
      <trkpt lat="41.797667" lon="-8.591433">
        <ele>31.483</ele>
        <time>2015-03-25T12:43:08Z</time>
      </trkpt>
      <trkpt lat="41.797999" lon="-8.591685">
        <ele>32.846</ele>
        <time>2015-03-25T12:43:20Z</time>
      </trkpt>
      <trkpt lat="41.798286" lon="-8.591923">
        <ele>32.328</ele>
        <time>2015-03-25T12:43:31Z</time>
      </trkpt>
      <trkpt lat="41.798484" lon="-8.591894">
        <ele>30.958</ele>
        <time>2015-03-25T12:43:35Z</time>
      </trkpt>
      <trkpt lat="41.798800" lon="-8.591814">
        <ele>30.986</ele>
        <time>2015-03-25T12:43:46Z</time>
      </trkpt>
      <trkpt lat="41.798924" lon="-8.591849">
        <ele>34.321</ele>
        <time>2015-03-25T12:43:55Z</time>
      </trkpt>
      <trkpt lat="41.799098" lon="-8.591605">
        <ele>37.648</ele>
        <time>2015-03-25T12:44:14Z</time>
      </trkpt>
      <trkpt lat="41.799196" lon="-8.591323">
        <ele>40.045</ele>
        <time>2015-03-25T12:44:30Z</time>
      </trkpt>
      <trkpt lat="41.799457" lon="-8.591159">
        <ele>41.547</ele>
        <time>2015-03-25T12:44:43Z</time>
      </trkpt>
      <trkpt lat="41.799536" lon="-8.591129">
        <ele>40.011</ele>
        <time>2015-03-25T12:44:45Z</time>
      </trkpt>
      <trkpt lat="41.799664" lon="-8.591094">
        <ele>39.607</ele>
        <time>2015-03-25T12:44:48Z</time>
      </trkpt>
      <trkpt lat="41.799815" lon="-8.591103">
        <ele>38.113</ele>
        <time>2015-03-25T12:44:51Z</time>
      </trkpt>
      <trkpt lat="41.800452" lon="-8.591532">
        <ele>37.296</ele>
        <time>2015-03-25T12:45:05Z</time>
      </trkpt>
      <trkpt lat="41.800888" lon="-8.592319">
        <ele>36.768</ele>
        <time>2015-03-25T12:45:23Z</time>
      </trkpt>
      <trkpt lat="41.800967" lon="-8.592452">
        <ele>36.788</ele>
        <time>2015-03-25T12:45:26Z</time>
      </trkpt>
      <trkpt lat="41.801021" lon="-8.592548">
        <ele>36.796</ele>
        <time>2015-03-25T12:45:28Z</time>
      </trkpt>
      <trkpt lat="41.801318" lon="-8.593061">
        <ele>37.691</ele>
        <time>2015-03-25T12:45:42Z</time>
      </trkpt>
      <trkpt lat="41.801648" lon="-8.593396">
        <ele>40.058</ele>
        <time>2015-03-25T12:45:57Z</time>
      </trkpt>
      <trkpt lat="41.802002" lon="-8.593482">
        <ele>39.624</ele>
        <time>2015-03-25T12:46:10Z</time>
      </trkpt>
      <trkpt lat="41.802345" lon="-8.593263">
        <ele>41.004</ele>
        <time>2015-03-25T12:46:24Z</time>
      </trkpt>
      <trkpt lat="41.802546" lon="-8.593409">
        <ele>41.514</ele>
        <time>2015-03-25T12:46:36Z</time>
      </trkpt>
      <trkpt lat="41.802700" lon="-8.593220">
        <ele>43.907</ele>
        <time>2015-03-25T12:46:54Z</time>
      </trkpt>
      <trkpt lat="41.802772" lon="-8.593076">
        <ele>45.871</ele>
        <time>2015-03-25T12:47:05Z</time>
      </trkpt>
      <trkpt lat="41.802917" lon="-8.592884">
        <ele>47.724</ele>
        <time>2015-03-25T12:47:20Z</time>
      </trkpt>
      <trkpt lat="41.802968" lon="-8.592784">
        <ele>48.276</ele>
        <time>2015-03-25T12:47:27Z</time>
      </trkpt>
      <trkpt lat="41.802995" lon="-8.592717">
        <ele>49.286</ele>
        <time>2015-03-25T12:47:32Z</time>
      </trkpt>
      <trkpt lat="41.803030" lon="-8.592673">
        <ele>50.154</ele>
        <time>2015-03-25T12:47:36Z</time>
      </trkpt>
      <trkpt lat="41.803165" lon="-8.592473">
        <ele>53.039</ele>
        <time>2015-03-25T12:47:52Z</time>
      </trkpt>
      <trkpt lat="41.803220" lon="-8.592459">
        <ele>53.556</ele>
        <time>2015-03-25T12:47:56Z</time>
      </trkpt>
      <trkpt lat="41.803322" lon="-8.592539">
        <ele>54.095</ele>
        <time>2015-03-25T12:48:03Z</time>
      </trkpt>
      <trkpt lat="41.803435" lon="-8.592722">
        <ele>52.549</ele>
        <time>2015-03-25T12:48:09Z</time>
      </trkpt>
      <trkpt lat="41.803526" lon="-8.592865">
        <ele>49.223</ele>
        <time>2015-03-25T12:48:12Z</time>
      </trkpt>
      <trkpt lat="41.803583" lon="-8.592975">
        <ele>48.207</ele>
        <time>2015-03-25T12:48:14Z</time>
      </trkpt>
      <trkpt lat="41.803638" lon="-8.593075">
        <ele>46.868</ele>
        <time>2015-03-25T12:48:16Z</time>
      </trkpt>
      <trkpt lat="41.803761" lon="-8.593187">
        <ele>44.811</ele>
        <time>2015-03-25T12:48:19Z</time>
      </trkpt>
      <trkpt lat="41.803861" lon="-8.593225">
        <ele>43.953</ele>
        <time>2015-03-25T12:48:21Z</time>
      </trkpt>
      <trkpt lat="41.803986" lon="-8.593278">
        <ele>42.923</ele>
        <time>2015-03-25T12:48:24Z</time>
      </trkpt>
      <trkpt lat="41.804188" lon="-8.593516">
        <ele>42.961</ele>
        <time>2015-03-25T12:48:31Z</time>
      </trkpt>
      <trkpt lat="41.804228" lon="-8.593979">
        <ele>42.456</ele>
        <time>2015-03-25T12:48:44Z</time>
      </trkpt>
      <trkpt lat="41.804414" lon="-8.594422">
        <ele>42.453</ele>
        <time>2015-03-25T12:48:58Z</time>
      </trkpt>
      <trkpt lat="41.804640" lon="-8.594834">
        <ele>42.486</ele>
        <time>2015-03-25T12:49:12Z</time>
      </trkpt>
      <trkpt lat="41.804919" lon="-8.594975">
        <ele>42.460</ele>
        <time>2015-03-25T12:49:26Z</time>
      </trkpt>
      <trkpt lat="41.805006" lon="-8.594995">
        <ele>43.926</ele>
        <time>2015-03-25T12:49:32Z</time>
      </trkpt>
      <trkpt lat="41.805246" lon="-8.595125">
        <ele>46.307</ele>
        <time>2015-03-25T12:49:49Z</time>
      </trkpt>
      <trkpt lat="41.805454" lon="-8.595260">
        <ele>45.827</ele>
        <time>2015-03-25T12:49:57Z</time>
      </trkpt>
      <trkpt lat="41.805581" lon="-8.595460">
        <ele>44.440</ele>
        <time>2015-03-25T12:50:01Z</time>
      </trkpt>
      <trkpt lat="41.805674" lon="-8.595739">
        <ele>43.482</ele>
        <time>2015-03-25T12:50:06Z</time>
      </trkpt>
      <trkpt lat="41.806144" lon="-8.596415">
        <ele>42.932</ele>
        <time>2015-03-25T12:50:24Z</time>
      </trkpt>
      <trkpt lat="41.806476" lon="-8.596876">
        <ele>42.480</ele>
        <time>2015-03-25T12:50:39Z</time>
      </trkpt>
      <trkpt lat="41.806921" lon="-8.597240">
        <ele>42.415</ele>
        <time>2015-03-25T12:50:54Z</time>
      </trkpt>
      <trkpt lat="41.807463" lon="-8.597546">
        <ele>42.492</ele>
        <time>2015-03-25T12:51:12Z</time>
      </trkpt>
      <trkpt lat="41.807694" lon="-8.597618">
        <ele>44.829</ele>
        <time>2015-03-25T12:51:23Z</time>
      </trkpt>
      <trkpt lat="41.808044" lon="-8.597943">
        <ele>44.800</ele>
        <time>2015-03-25T12:51:37Z</time>
      </trkpt>
      <trkpt lat="41.808183" lon="-8.598058">
        <ele>43.420</ele>
        <time>2015-03-25T12:51:41Z</time>
      </trkpt>
      <trkpt lat="41.808496" lon="-8.598235">
        <ele>44.807</ele>
        <time>2015-03-25T12:51:48Z</time>
      </trkpt>
      <trkpt lat="41.808544" lon="-8.598256">
        <ele>43.451</ele>
        <time>2015-03-25T12:51:49Z</time>
      </trkpt>
      <trkpt lat="41.808780" lon="-8.598432">
        <ele>44.874</ele>
        <time>2015-03-25T12:51:59Z</time>
      </trkpt>
      <trkpt lat="41.808834" lon="-8.598439">
        <ele>45.316</ele>
        <time>2015-03-25T12:52:03Z</time>
      </trkpt>
      <trkpt lat="41.808999" lon="-8.598526">
        <ele>47.266</ele>
        <time>2015-03-25T12:52:18Z</time>
      </trkpt>
      <trkpt lat="41.809126" lon="-8.598600">
        <ele>49.754</ele>
        <time>2015-03-25T12:52:30Z</time>
      </trkpt>
      <trkpt lat="41.809255" lon="-8.598665">
        <ele>52.169</ele>
        <time>2015-03-25T12:52:41Z</time>
      </trkpt>
      <trkpt lat="41.809308" lon="-8.598661">
        <ele>52.526</ele>
        <time>2015-03-25T12:52:45Z</time>
      </trkpt>
      <trkpt lat="41.809381" lon="-8.598612">
        <ele>53.529</ele>
        <time>2015-03-25T12:52:51Z</time>
      </trkpt>
      <trkpt lat="41.809460" lon="-8.598600">
        <ele>54.500</ele>
        <time>2015-03-25T12:52:57Z</time>
      </trkpt>
      <trkpt lat="41.809564" lon="-8.598579">
        <ele>55.420</ele>
        <time>2015-03-25T12:53:05Z</time>
      </trkpt>
      <trkpt lat="41.809706" lon="-8.598448">
        <ele>57.307</ele>
        <time>2015-03-25T12:53:16Z</time>
      </trkpt>
      <trkpt lat="41.809872" lon="-8.598326">
        <ele>59.391</ele>
        <time>2015-03-25T12:53:29Z</time>
      </trkpt>
      <trkpt lat="41.810006" lon="-8.598365">
        <ele>60.244</ele>
        <time>2015-03-25T12:53:44Z</time>
      </trkpt>
      <trkpt lat="41.810052" lon="-8.598381">
        <ele>60.246</ele>
        <time>2015-03-25T12:54:09Z</time>
      </trkpt>
      <trkpt lat="41.810166" lon="-8.598487">
        <ele>59.396</ele>
        <time>2015-03-25T12:54:14Z</time>
      </trkpt>
      <trkpt lat="41.810277" lon="-8.598634">
        <ele>57.324</ele>
        <time>2015-03-25T12:54:17Z</time>
      </trkpt>
      <trkpt lat="41.810541" lon="-8.598749">
        <ele>54.919</ele>
        <time>2015-03-25T12:54:22Z</time>
      </trkpt>
      <trkpt lat="41.810752" lon="-8.598662">
        <ele>52.156</ele>
        <time>2015-03-25T12:54:30Z</time>
      </trkpt>
      <trkpt lat="41.811089" lon="-8.598868">
        <ele>48.291</ele>
        <time>2015-03-25T12:54:37Z</time>
      </trkpt>
      <trkpt lat="41.811186" lon="-8.598926">
        <ele>47.781</ele>
        <time>2015-03-25T12:54:39Z</time>
      </trkpt>
      <trkpt lat="41.811385" lon="-8.598942">
        <ele>47.219</ele>
        <time>2015-03-25T12:54:43Z</time>
      </trkpt>
      <trkpt lat="41.811564" lon="-8.598745">
        <ele>47.207</ele>
        <time>2015-03-25T12:54:51Z</time>
      </trkpt>
      <trkpt lat="41.811619" lon="-8.598761">
        <ele>48.778</ele>
        <time>2015-03-25T12:54:55Z</time>
      </trkpt>
      <trkpt lat="41.811934" lon="-8.598792">
        <ele>46.331</ele>
        <time>2015-03-25T12:55:05Z</time>
      </trkpt>
      <trkpt lat="41.812174" lon="-8.599003">
        <ele>45.843</ele>
        <time>2015-03-25T12:55:17Z</time>
      </trkpt>
      <trkpt lat="41.812175" lon="-8.599198">
        <ele>46.873</ele>
        <time>2015-03-25T12:55:27Z</time>
      </trkpt>
      <trkpt lat="41.812133" lon="-8.599264">
        <ele>47.271</ele>
        <time>2015-03-25T12:55:31Z</time>
      </trkpt>
      <trkpt lat="41.812317" lon="-8.599478">
        <ele>50.176</ele>
        <time>2015-03-25T12:55:46Z</time>
      </trkpt>
      <trkpt lat="41.812486" lon="-8.599530">
        <ele>52.543</ele>
        <time>2015-03-25T12:56:00Z</time>
      </trkpt>
      <trkpt lat="41.812548" lon="-8.599559">
        <ele>53.077</ele>
        <time>2015-03-25T12:56:05Z</time>
      </trkpt>
      <trkpt lat="41.812764" lon="-8.599716">
        <ele>54.961</ele>
        <time>2015-03-25T12:56:24Z</time>
      </trkpt>
      <trkpt lat="41.812836" lon="-8.599733">
        <ele>56.927</ele>
        <time>2015-03-25T12:56:31Z</time>
      </trkpt>
      <trkpt lat="41.812918" lon="-8.599780">
        <ele>59.707</ele>
        <time>2015-03-25T12:56:39Z</time>
      </trkpt>
      <trkpt lat="41.813110" lon="-8.599828">
        <ele>62.126</ele>
        <time>2015-03-25T12:56:55Z</time>
      </trkpt>
      <trkpt lat="41.813138" lon="-8.599582">
        <ele>63.179</ele>
        <time>2015-03-25T12:57:11Z</time>
      </trkpt>
      <trkpt lat="41.813240" lon="-8.599043">
        <ele>61.721</ele>
        <time>2015-03-25T12:57:23Z</time>
      </trkpt>
      <trkpt lat="41.813504" lon="-8.598975">
        <ele>60.761</ele>
        <time>2015-03-25T12:57:34Z</time>
      </trkpt>
      <trkpt lat="41.813566" lon="-8.598985">
        <ele>61.249</ele>
        <time>2015-03-25T12:57:44Z</time>
      </trkpt>
      <trkpt lat="41.813675" lon="-8.599063">
        <ele>65.024</ele>
        <time>2015-03-25T12:58:02Z</time>
      </trkpt>
      <trkpt lat="41.813763" lon="-8.599113">
        <ele>67.491</ele>
        <time>2015-03-25T12:58:12Z</time>
      </trkpt>
      <trkpt lat="41.813862" lon="-8.599110">
        <ele>69.844</ele>
        <time>2015-03-25T12:58:29Z</time>
      </trkpt>
      <trkpt lat="41.814007" lon="-8.599082">
        <ele>69.805</ele>
        <time>2015-03-25T12:59:09Z</time>
      </trkpt>
      <trkpt lat="41.814347" lon="-8.598963">
        <ele>70.315</ele>
        <time>2015-03-25T12:59:25Z</time>
      </trkpt>
      <trkpt lat="41.814425" lon="-8.598934">
        <ele>67.907</ele>
        <time>2015-03-25T12:59:27Z</time>
      </trkpt>
      <trkpt lat="41.814567" lon="-8.598924">
        <ele>66.523</ele>
        <time>2015-03-25T12:59:30Z</time>
      </trkpt>
      <trkpt lat="41.814697" lon="-8.598951">
        <ele>66.526</ele>
        <time>2015-03-25T12:59:33Z</time>
      </trkpt>
      <trkpt lat="41.814841" lon="-8.598968">
        <ele>67.948</ele>
        <time>2015-03-25T12:59:39Z</time>
      </trkpt>
      <trkpt lat="41.815034" lon="-8.598916">
        <ele>65.098</ele>
        <time>2015-03-25T12:59:45Z</time>
      </trkpt>
      <trkpt lat="41.815189" lon="-8.598846">
        <ele>62.116</ele>
        <time>2015-03-25T12:59:49Z</time>
      </trkpt>
      <trkpt lat="41.815259" lon="-8.598867">
        <ele>64.191</ele>
        <time>2015-03-25T12:59:52Z</time>
      </trkpt>
      <trkpt lat="41.815351" lon="-8.598903">
        <ele>65.058</ele>
        <time>2015-03-25T12:59:59Z</time>
      </trkpt>
      <trkpt lat="41.815488" lon="-8.598937">
        <ele>65.574</ele>
        <time>2015-03-25T13:00:10Z</time>
      </trkpt>
      <trkpt lat="41.815649" lon="-8.598999">
        <ele>67.956</ele>
        <time>2015-03-25T13:00:24Z</time>
      </trkpt>
      <trkpt lat="41.815770" lon="-8.598997">
        <ele>70.321</ele>
        <time>2015-03-25T13:00:37Z</time>
      </trkpt>
      <trkpt lat="41.815890" lon="-8.599038">
        <ele>72.207</ele>
        <time>2015-03-25T13:00:50Z</time>
      </trkpt>
      <trkpt lat="41.816000" lon="-8.599035">
        <ele>73.796</ele>
        <time>2015-03-25T13:01:02Z</time>
      </trkpt>
      <trkpt lat="41.816040" lon="-8.598962">
        <ele>74.679</ele>
        <time>2015-03-25T13:01:15Z</time>
      </trkpt>
      <trkpt lat="41.816048" lon="-8.598837">
        <ele>74.681</ele>
        <time>2015-03-25T13:01:22Z</time>
      </trkpt>
      <trkpt lat="41.816061" lon="-8.598492">
        <ele>76.641</ele>
        <time>2015-03-25T13:01:37Z</time>
      </trkpt>
      <trkpt lat="41.816159" lon="-8.598150">
        <ele>76.659</ele>
        <time>2015-03-25T13:01:50Z</time>
      </trkpt>
      <trkpt lat="41.816255" lon="-8.598112">
        <ele>76.644</ele>
        <time>2015-03-25T13:01:53Z</time>
      </trkpt>
      <trkpt lat="41.816337" lon="-8.598098">
        <ele>75.641</ele>
        <time>2015-03-25T13:01:55Z</time>
      </trkpt>
      <trkpt lat="41.816628" lon="-8.598063">
        <ele>73.227</ele>
        <time>2015-03-25T13:02:03Z</time>
      </trkpt>
      <trkpt lat="41.816644" lon="-8.597963">
        <ele>72.268</ele>
        <time>2015-03-25T13:02:05Z</time>
      </trkpt>
      <trkpt lat="41.816750" lon="-8.597319">
        <ele>70.314</ele>
        <time>2015-03-25T13:02:18Z</time>
      </trkpt>
      <trkpt lat="41.817061" lon="-8.597101">
        <ele>68.907</ele>
        <time>2015-03-25T13:02:25Z</time>
      </trkpt>
      <trkpt lat="41.817157" lon="-8.597032">
        <ele>67.971</ele>
        <time>2015-03-25T13:02:27Z</time>
      </trkpt>
      <trkpt lat="41.817362" lon="-8.596940">
        <ele>65.034</ele>
        <time>2015-03-25T13:02:31Z</time>
      </trkpt>
      <trkpt lat="41.817609" lon="-8.596885">
        <ele>63.196</ele>
        <time>2015-03-25T13:02:35Z</time>
      </trkpt>
      <trkpt lat="41.817933" lon="-8.596960">
        <ele>60.226</ele>
        <time>2015-03-25T13:02:40Z</time>
      </trkpt>
      <trkpt lat="41.818277" lon="-8.597216">
        <ele>57.874</ele>
        <time>2015-03-25T13:02:50Z</time>
      </trkpt>
      <trkpt lat="41.818345" lon="-8.597269">
        <ele>59.399</ele>
        <time>2015-03-25T13:02:55Z</time>
      </trkpt>
      <trkpt lat="41.818556" lon="-8.597489">
        <ele>61.796</ele>
        <time>2015-03-25T13:03:12Z</time>
      </trkpt>
      <trkpt lat="41.818714" lon="-8.597715">
        <ele>63.699</ele>
        <time>2015-03-25T13:03:28Z</time>
      </trkpt>
      <trkpt lat="41.818833" lon="-8.597944">
        <ele>65.507</ele>
        <time>2015-03-25T13:03:42Z</time>
      </trkpt>
      <trkpt lat="41.819064" lon="-8.598262">
        <ele>66.027</ele>
        <time>2015-03-25T13:03:55Z</time>
      </trkpt>
      <trkpt lat="41.819281" lon="-8.598490">
        <ele>66.007</ele>
        <time>2015-03-25T13:04:07Z</time>
      </trkpt>
      <trkpt lat="41.819410" lon="-8.598667">
        <ele>64.678</ele>
        <time>2015-03-25T13:04:12Z</time>
      </trkpt>
      <trkpt lat="41.819610" lon="-8.598949">
        <ele>64.131</ele>
        <time>2015-03-25T13:04:22Z</time>
      </trkpt>
      <trkpt lat="41.819714" lon="-8.599059">
        <ele>65.553</ele>
        <time>2015-03-25T13:04:29Z</time>
      </trkpt>
      <trkpt lat="41.819930" lon="-8.599140">
        <ele>67.043</ele>
        <time>2015-03-25T13:04:43Z</time>
      </trkpt>
      <trkpt lat="41.820023" lon="-8.599166">
        <ele>65.511</ele>
        <time>2015-03-25T13:04:46Z</time>
      </trkpt>
      <trkpt lat="41.820409" lon="-8.599152">
        <ele>65.526</ele>
        <time>2015-03-25T13:04:58Z</time>
      </trkpt>
      <trkpt lat="41.820729" lon="-8.599003">
        <ele>64.143</ele>
        <time>2015-03-25T13:05:10Z</time>
      </trkpt>
      <trkpt lat="41.820862" lon="-8.598889">
        <ele>65.548</ele>
        <time>2015-03-25T13:05:18Z</time>
      </trkpt>
      <trkpt lat="41.820941" lon="-8.598863">
        <ele>67.061</ele>
        <time>2015-03-25T13:05:24Z</time>
      </trkpt>
      <trkpt lat="41.821109" lon="-8.598825">
        <ele>68.917</ele>
        <time>2015-03-25T13:05:37Z</time>
      </trkpt>
      <trkpt lat="41.821302" lon="-8.598690">
        <ele>71.307</ele>
        <time>2015-03-25T13:05:51Z</time>
      </trkpt>
      <trkpt lat="41.821363" lon="-8.598671">
        <ele>70.813</ele>
        <time>2015-03-25T13:06:22Z</time>
      </trkpt>
      <trkpt lat="41.821496" lon="-8.598599">
        <ele>69.876</ele>
        <time>2015-03-25T13:06:29Z</time>
      </trkpt>
      <trkpt lat="41.821763" lon="-8.598446">
        <ele>69.448</ele>
        <time>2015-03-25T13:06:41Z</time>
      </trkpt>
      <trkpt lat="41.821885" lon="-8.598348">
        <ele>72.228</ele>
        <time>2015-03-25T13:06:49Z</time>
      </trkpt>
      <trkpt lat="41.822016" lon="-8.598260">
        <ele>72.246</ele>
        <time>2015-03-25T13:06:58Z</time>
      </trkpt>
      <trkpt lat="41.822083" lon="-8.598201">
        <ele>72.771</ele>
        <time>2015-03-25T13:07:03Z</time>
      </trkpt>
      <trkpt lat="41.822278" lon="-8.597839">
        <ele>71.848</ele>
        <time>2015-03-25T13:07:18Z</time>
      </trkpt>
      <trkpt lat="41.822291" lon="-8.597624">
        <ele>71.323</ele>
        <time>2015-03-25T13:07:23Z</time>
      </trkpt>
      <trkpt lat="41.822400" lon="-8.597506">
        <ele>72.283</ele>
        <time>2015-03-25T13:07:33Z</time>
      </trkpt>
      <trkpt lat="41.822485" lon="-8.597446">
        <ele>73.711</ele>
        <time>2015-03-25T13:07:40Z</time>
      </trkpt>
      <trkpt lat="41.822654" lon="-8.597239">
        <ele>76.107</ele>
        <time>2015-03-25T13:07:54Z</time>
      </trkpt>
      <trkpt lat="41.822740" lon="-8.597088">
        <ele>72.781</ele>
        <time>2015-03-25T13:07:58Z</time>
      </trkpt>
      <trkpt lat="41.822806" lon="-8.597043">
        <ele>72.234</ele>
        <time>2015-03-25T13:08:00Z</time>
      </trkpt>
      <trkpt lat="41.822999" lon="-8.596975">
        <ele>73.296</ele>
        <time>2015-03-25T13:08:10Z</time>
      </trkpt>
      <trkpt lat="41.823061" lon="-8.596989">
        <ele>73.236</ele>
        <time>2015-03-25T13:08:15Z</time>
      </trkpt>
      <trkpt lat="41.823128" lon="-8.597011">
        <ele>75.624</ele>
        <time>2015-03-25T13:08:20Z</time>
      </trkpt>
      <trkpt lat="41.823199" lon="-8.596990">
        <ele>76.639</ele>
        <time>2015-03-25T13:08:26Z</time>
      </trkpt>
      <trkpt lat="41.823273" lon="-8.596934">
        <ele>78.596</ele>
        <time>2015-03-25T13:08:34Z</time>
      </trkpt>
      <trkpt lat="41.823404" lon="-8.596758">
        <ele>79.517</ele>
        <time>2015-03-25T13:08:47Z</time>
      </trkpt>
      <trkpt lat="41.823629" lon="-8.596483">
        <ele>79.587</ele>
        <time>2015-03-25T13:09:00Z</time>
      </trkpt>
      <trkpt lat="41.823648" lon="-8.596266">
        <ele>78.015</ele>
        <time>2015-03-25T13:09:05Z</time>
      </trkpt>
      <trkpt lat="41.823643" lon="-8.596077">
        <ele>76.107</ele>
        <time>2015-03-25T13:09:08Z</time>
      </trkpt>
      <trkpt lat="41.823655" lon="-8.595777">
        <ele>73.750</ele>
        <time>2015-03-25T13:09:12Z</time>
      </trkpt>
      <trkpt lat="41.823704" lon="-8.595661">
        <ele>73.793</ele>
        <time>2015-03-25T13:09:14Z</time>
      </trkpt>
      <trkpt lat="41.823817" lon="-8.595519">
        <ele>73.245</ele>
        <time>2015-03-25T13:09:19Z</time>
      </trkpt>
      <trkpt lat="41.824135" lon="-8.595792">
        <ele>74.225</ele>
        <time>2015-03-25T13:09:35Z</time>
      </trkpt>
      <trkpt lat="41.824394" lon="-8.596133">
        <ele>74.253</ele>
        <time>2015-03-25T13:09:51Z</time>
      </trkpt>
      <trkpt lat="41.824710" lon="-8.596507">
        <ele>77.548</ele>
        <time>2015-03-25T13:10:09Z</time>
      </trkpt>
      <trkpt lat="41.825059" lon="-8.596862">
        <ele>78.545</ele>
        <time>2015-03-25T13:10:27Z</time>
      </trkpt>
      <trkpt lat="41.825340" lon="-8.596808">
        <ele>79.032</ele>
        <time>2015-03-25T13:10:39Z</time>
      </trkpt>
      <trkpt lat="41.825677" lon="-8.596495">
        <ele>79.992</ele>
        <time>2015-03-25T13:10:56Z</time>
      </trkpt>
      <trkpt lat="41.825992" lon="-8.596225">
        <ele>80.911</ele>
        <time>2015-03-25T13:11:12Z</time>
      </trkpt>
      <trkpt lat="41.826437" lon="-8.596011">
        <ele>82.807</ele>
        <time>2015-03-25T13:11:32Z</time>
      </trkpt>
      <trkpt lat="41.826878" lon="-8.595809">
        <ele>84.322</ele>
        <time>2015-03-25T13:11:51Z</time>
      </trkpt>
      <trkpt lat="41.827267" lon="-8.595882">
        <ele>84.325</ele>
        <time>2015-03-25T13:12:06Z</time>
      </trkpt>
      <trkpt lat="41.827702" lon="-8.595842">
        <ele>84.337</ele>
        <time>2015-03-25T13:12:24Z</time>
      </trkpt>
      <trkpt lat="41.828154" lon="-8.595878">
        <ele>85.217</ele>
        <time>2015-03-25T13:12:43Z</time>
      </trkpt>
      <trkpt lat="41.828590" lon="-8.595779">
        <ele>86.785</ele>
        <time>2015-03-25T13:13:02Z</time>
      </trkpt>
      <trkpt lat="41.829007" lon="-8.595773">
        <ele>87.640</ele>
        <time>2015-03-25T13:13:19Z</time>
      </trkpt>
      <trkpt lat="41.829243" lon="-8.595866">
        <ele>89.117</ele>
        <time>2015-03-25T13:14:08Z</time>
      </trkpt>
      <trkpt lat="41.829323" lon="-8.595796">
        <ele>88.685</ele>
        <time>2015-03-25T13:32:40Z</time>
      </trkpt>
      <trkpt lat="41.829544" lon="-8.595792">
        <ele>88.689</ele>
        <time>2015-03-25T13:32:54Z</time>
      </trkpt>
      <trkpt lat="41.829710" lon="-8.595964">
        <ele>89.517</ele>
        <time>2015-03-25T13:33:06Z</time>
      </trkpt>
      <trkpt lat="41.829759" lon="-8.596037">
        <ele>90.007</ele>
        <time>2015-03-25T13:33:11Z</time>
      </trkpt>
      <trkpt lat="41.829978" lon="-8.596144">
        <ele>92.467</ele>
        <time>2015-03-25T13:33:27Z</time>
      </trkpt>
      <trkpt lat="41.830265" lon="-8.596136">
        <ele>94.470</ele>
        <time>2015-03-25T13:33:44Z</time>
      </trkpt>
      <trkpt lat="41.830557" lon="-8.596159">
        <ele>95.872</ele>
        <time>2015-03-25T13:34:02Z</time>
      </trkpt>
      <trkpt lat="41.830867" lon="-8.596044">
        <ele>97.232</ele>
        <time>2015-03-25T13:34:20Z</time>
      </trkpt>
      <trkpt lat="41.831213" lon="-8.596112">
        <ele>98.270</ele>
        <time>2015-03-25T13:34:37Z</time>
      </trkpt>
      <trkpt lat="41.831568" lon="-8.596183">
        <ele>96.315</ele>
        <time>2015-03-25T13:34:48Z</time>
      </trkpt>
      <trkpt lat="41.831917" lon="-8.596470">
        <ele>96.392</ele>
        <time>2015-03-25T13:34:59Z</time>
      </trkpt>
      <trkpt lat="41.832127" lon="-8.596841">
        <ele>97.257</ele>
        <time>2015-03-25T13:35:13Z</time>
      </trkpt>
      <trkpt lat="41.832343" lon="-8.596764">
        <ele>97.700</ele>
        <time>2015-03-25T13:35:24Z</time>
      </trkpt>
      <trkpt lat="41.832389" lon="-8.596378">
        <ele>98.720</ele>
        <time>2015-03-25T13:35:37Z</time>
      </trkpt>
      <trkpt lat="41.832539" lon="-8.596190">
        <ele>101.107</ele>
        <time>2015-03-25T13:35:49Z</time>
      </trkpt>
      <trkpt lat="41.832585" lon="-8.596146">
        <ele>101.684</ele>
        <time>2015-03-25T13:35:53Z</time>
      </trkpt>
      <trkpt lat="41.832834" lon="-8.596242">
        <ele>104.447</ele>
        <time>2015-03-25T13:36:11Z</time>
      </trkpt>
      <trkpt lat="41.833028" lon="-8.596299">
        <ele>105.959</ele>
        <time>2015-03-25T13:36:25Z</time>
      </trkpt>
      <trkpt lat="41.833235" lon="-8.596394">
        <ele>107.819</ele>
        <time>2015-03-25T13:36:41Z</time>
      </trkpt>
      <trkpt lat="41.833337" lon="-8.596434">
        <ele>108.347</ele>
        <time>2015-03-25T13:36:49Z</time>
      </trkpt>
      <trkpt lat="41.833577" lon="-8.596504">
        <ele>110.722</ele>
        <time>2015-03-25T13:37:05Z</time>
      </trkpt>
      <trkpt lat="41.833672" lon="-8.596526">
        <ele>112.149</ele>
        <time>2015-03-25T13:37:22Z</time>
      </trkpt>
      <trkpt lat="41.833740" lon="-8.596523">
        <ele>113.675</ele>
        <time>2015-03-25T13:37:48Z</time>
      </trkpt>
      <trkpt lat="41.833985" lon="-8.596558">
        <ele>116.028</ele>
        <time>2015-03-25T13:38:04Z</time>
      </trkpt>
      <trkpt lat="41.834146" lon="-8.596610">
        <ele>118.920</ele>
        <time>2015-03-25T13:38:16Z</time>
      </trkpt>
      <trkpt lat="41.834382" lon="-8.596749">
        <ele>120.307</ele>
        <time>2015-03-25T13:38:33Z</time>
      </trkpt>
      <trkpt lat="41.834641" lon="-8.596772">
        <ele>121.776</ele>
        <time>2015-03-25T13:38:48Z</time>
      </trkpt>
      <trkpt lat="41.834914" lon="-8.596714">
        <ele>122.749</ele>
        <time>2015-03-25T13:39:05Z</time>
      </trkpt>
      <trkpt lat="41.835136" lon="-8.596712">
        <ele>124.641</ele>
        <time>2015-03-25T13:39:19Z</time>
      </trkpt>
      <trkpt lat="41.835380" lon="-8.596725">
        <ele>126.661</ele>
        <time>2015-03-25T13:39:33Z</time>
      </trkpt>
      <trkpt lat="41.835661" lon="-8.596833">
        <ele>127.589</ele>
        <time>2015-03-25T13:39:50Z</time>
      </trkpt>
      <trkpt lat="41.835895" lon="-8.596960">
        <ele>130.444</ele>
        <time>2015-03-25T13:40:07Z</time>
      </trkpt>
      <trkpt lat="41.835952" lon="-8.596996">
        <ele>130.981</ele>
        <time>2015-03-25T13:40:12Z</time>
      </trkpt>
      <trkpt lat="41.836118" lon="-8.597075">
        <ele>133.385</ele>
        <time>2015-03-25T13:40:26Z</time>
      </trkpt>
      <trkpt lat="41.836218" lon="-8.597084">
        <ele>135.289</ele>
        <time>2015-03-25T13:40:33Z</time>
      </trkpt>
      <trkpt lat="41.836474" lon="-8.597177">
        <ele>135.217</ele>
        <time>2015-03-25T13:40:48Z</time>
      </trkpt>
      <trkpt lat="41.836621" lon="-8.597328">
        <ele>137.607</ele>
        <time>2015-03-25T13:41:02Z</time>
      </trkpt>
      <trkpt lat="41.836679" lon="-8.597367">
        <ele>138.147</ele>
        <time>2015-03-25T13:41:07Z</time>
      </trkpt>
      <trkpt lat="41.836800" lon="-8.597547">
        <ele>141.520</ele>
        <time>2015-03-25T13:41:22Z</time>
      </trkpt>
      <trkpt lat="41.836847" lon="-8.597641">
        <ele>142.912</ele>
        <time>2015-03-25T13:41:30Z</time>
      </trkpt>
      <trkpt lat="41.836877" lon="-8.597772">
        <ele>145.382</ele>
        <time>2015-03-25T13:41:39Z</time>
      </trkpt>
      <trkpt lat="41.836949" lon="-8.597933">
        <ele>147.210</ele>
        <time>2015-03-25T13:41:52Z</time>
      </trkpt>
      <trkpt lat="41.837000" lon="-8.598114">
        <ele>150.185</ele>
        <time>2015-03-25T13:42:06Z</time>
      </trkpt>
      <trkpt lat="41.837012" lon="-8.598202">
        <ele>151.552</ele>
        <time>2015-03-25T13:42:12Z</time>
      </trkpt>
      <trkpt lat="41.837041" lon="-8.598249">
        <ele>152.042</ele>
        <time>2015-03-25T13:42:16Z</time>
      </trkpt>
      <trkpt lat="41.837116" lon="-8.598412">
        <ele>154.922</ele>
        <time>2015-03-25T13:42:27Z</time>
      </trkpt>
      <trkpt lat="41.837165" lon="-8.598577">
        <ele>155.914</ele>
        <time>2015-03-25T13:42:38Z</time>
      </trkpt>
      <trkpt lat="41.837194" lon="-8.598661">
        <ele>155.907</ele>
        <time>2015-03-25T13:42:42Z</time>
      </trkpt>
      <trkpt lat="41.837290" lon="-8.598854">
        <ele>152.543</ele>
        <time>2015-03-25T13:42:50Z</time>
      </trkpt>
      <trkpt lat="41.837427" lon="-8.599202">
        <ele>152.056</ele>
        <time>2015-03-25T13:43:00Z</time>
      </trkpt>
      <trkpt lat="41.837763" lon="-8.599422">
        <ele>153.068</ele>
        <time>2015-03-25T13:43:13Z</time>
      </trkpt>
      <trkpt lat="41.838001" lon="-8.599603">
        <ele>154.918</ele>
        <time>2015-03-25T13:43:28Z</time>
      </trkpt>
      <trkpt lat="41.838232" lon="-8.599865">
        <ele>156.426</ele>
        <time>2015-03-25T13:43:46Z</time>
      </trkpt>
      <trkpt lat="41.838355" lon="-8.599955">
        <ele>157.811</ele>
        <time>2015-03-25T13:43:59Z</time>
      </trkpt>
      <trkpt lat="41.838400" lon="-8.599990">
        <ele>158.358</ele>
        <time>2015-03-25T13:44:24Z</time>
      </trkpt>
      <trkpt lat="41.838534" lon="-8.600274">
        <ele>160.258</ele>
        <time>2015-03-25T13:44:38Z</time>
      </trkpt>
      <trkpt lat="41.838771" lon="-8.600734">
        <ele>161.252</ele>
        <time>2015-03-25T13:44:59Z</time>
      </trkpt>
      <trkpt lat="41.839118" lon="-8.600871">
        <ele>162.117</ele>
        <time>2015-03-25T13:45:18Z</time>
      </trkpt>
      <trkpt lat="41.839357" lon="-8.601006">
        <ele>165.007</ele>
        <time>2015-03-25T13:45:35Z</time>
      </trkpt>
      <trkpt lat="41.839627" lon="-8.601051">
        <ele>167.424</ele>
        <time>2015-03-25T13:45:53Z</time>
      </trkpt>
      <trkpt lat="41.839829" lon="-8.601146">
        <ele>167.917</ele>
        <time>2015-03-25T13:46:04Z</time>
      </trkpt>
      <trkpt lat="41.839937" lon="-8.601214">
        <ele>166.989</ele>
        <time>2015-03-25T13:46:09Z</time>
      </trkpt>
      <trkpt lat="41.840030" lon="-8.601240">
        <ele>168.959</ele>
        <time>2015-03-25T13:46:13Z</time>
      </trkpt>
      <trkpt lat="41.840265" lon="-8.601207">
        <ele>168.947</ele>
        <time>2015-03-25T13:46:22Z</time>
      </trkpt>
      <trkpt lat="41.840342" lon="-8.601155">
        <ele>167.472</ele>
        <time>2015-03-25T13:46:24Z</time>
      </trkpt>
      <trkpt lat="41.840433" lon="-8.601063">
        <ele>166.519</ele>
        <time>2015-03-25T13:46:26Z</time>
      </trkpt>
      <trkpt lat="41.840538" lon="-8.600971">
        <ele>166.023</ele>
        <time>2015-03-25T13:46:28Z</time>
      </trkpt>
      <trkpt lat="41.840846" lon="-8.600851">
        <ele>162.183</ele>
        <time>2015-03-25T13:46:33Z</time>
      </trkpt>
      <trkpt lat="41.841128" lon="-8.600803">
        <ele>162.111</ele>
        <time>2015-03-25T13:46:42Z</time>
      </trkpt>
      <trkpt lat="41.841240" lon="-8.600874">
        <ele>163.607</ele>
        <time>2015-03-25T13:46:46Z</time>
      </trkpt>
      <trkpt lat="41.841365" lon="-8.600932">
        <ele>163.681</ele>
        <time>2015-03-25T13:46:50Z</time>
      </trkpt>
      <trkpt lat="41.841583" lon="-8.600898">
        <ele>161.624</ele>
        <time>2015-03-25T13:46:56Z</time>
      </trkpt>
      <trkpt lat="41.842072" lon="-8.600719">
        <ele>161.616</ele>
        <time>2015-03-25T13:47:11Z</time>
      </trkpt>
      <trkpt lat="41.842527" lon="-8.600250">
        <ele>159.766</ele>
        <time>2015-03-25T13:47:26Z</time>
      </trkpt>
      <trkpt lat="41.842569" lon="-8.600206">
        <ele>159.264</ele>
        <time>2015-03-25T13:47:27Z</time>
      </trkpt>
      <trkpt lat="41.842738" lon="-8.600148">
        <ele>157.329</ele>
        <time>2015-03-25T13:47:30Z</time>
      </trkpt>
      <trkpt lat="41.842941" lon="-8.600307">
        <ele>154.946</ele>
        <time>2015-03-25T13:47:34Z</time>
      </trkpt>
      <trkpt lat="41.843244" lon="-8.600494">
        <ele>151.594</ele>
        <time>2015-03-25T13:47:39Z</time>
      </trkpt>
      <trkpt lat="41.843434" lon="-8.600490">
        <ele>151.557</ele>
        <time>2015-03-25T13:47:42Z</time>
      </trkpt>
      <trkpt lat="41.843588" lon="-8.600357">
        <ele>153.522</ele>
        <time>2015-03-25T13:47:48Z</time>
      </trkpt>
      <trkpt lat="41.843600" lon="-8.599937">
        <ele>156.407</ele>
        <time>2015-03-25T13:48:07Z</time>
      </trkpt>
      <trkpt lat="41.843701" lon="-8.599879">
        <ele>158.318</ele>
        <time>2015-03-25T13:48:15Z</time>
      </trkpt>
      <trkpt lat="41.843752" lon="-8.599971">
        <ele>159.281</ele>
        <time>2015-03-25T13:48:22Z</time>
      </trkpt>
      <trkpt lat="41.843821" lon="-8.600123">
        <ele>161.223</ele>
        <time>2015-03-25T13:48:34Z</time>
      </trkpt>
      <trkpt lat="41.843876" lon="-8.600188">
        <ele>163.623</ele>
        <time>2015-03-25T13:48:41Z</time>
      </trkpt>
      <trkpt lat="41.844049" lon="-8.600183">
        <ele>165.521</ele>
        <time>2015-03-25T13:48:57Z</time>
      </trkpt>
      <trkpt lat="41.844200" lon="-8.600116">
        <ele>167.916</ele>
        <time>2015-03-25T13:49:12Z</time>
      </trkpt>
      <trkpt lat="41.844279" lon="-8.600095">
        <ele>169.893</ele>
        <time>2015-03-25T13:49:20Z</time>
      </trkpt>
      <trkpt lat="41.844338" lon="-8.600115">
        <ele>171.369</ele>
        <time>2015-03-25T13:49:25Z</time>
      </trkpt>
      <trkpt lat="41.844425" lon="-8.600216">
        <ele>171.704</ele>
        <time>2015-03-25T13:49:33Z</time>
      </trkpt>
      <trkpt lat="41.844580" lon="-8.600467">
        <ele>174.124</ele>
        <time>2015-03-25T13:49:52Z</time>
      </trkpt>
      <trkpt lat="41.844679" lon="-8.600617">
        <ele>176.507</ele>
        <time>2015-03-25T13:50:05Z</time>
      </trkpt>
      <trkpt lat="41.844808" lon="-8.600733">
        <ele>179.455</ele>
        <time>2015-03-25T13:50:19Z</time>
      </trkpt>
      <trkpt lat="41.844969" lon="-8.600856">
        <ele>180.458</ele>
        <time>2015-03-25T13:50:32Z</time>
      </trkpt>
      <trkpt lat="41.845067" lon="-8.600892">
        <ele>183.850</ele>
        <time>2015-03-25T13:50:43Z</time>
      </trkpt>
      <trkpt lat="41.845154" lon="-8.600925">
        <ele>185.710</ele>
        <time>2015-03-25T13:50:55Z</time>
      </trkpt>
      <trkpt lat="41.845230" lon="-8.600916">
        <ele>187.698</ele>
        <time>2015-03-25T13:51:08Z</time>
      </trkpt>
      <trkpt lat="41.845339" lon="-8.600911">
        <ele>191.023</ele>
        <time>2015-03-25T13:51:26Z</time>
      </trkpt>
      <trkpt lat="41.845464" lon="-8.600963">
        <ele>193.460</ele>
        <time>2015-03-25T13:51:42Z</time>
      </trkpt>
      <trkpt lat="41.845582" lon="-8.601013">
        <ele>193.442</ele>
        <time>2015-03-25T13:51:57Z</time>
      </trkpt>
      <trkpt lat="41.845674" lon="-8.601061">
        <ele>193.822</ele>
        <time>2015-03-25T13:52:12Z</time>
      </trkpt>
      <trkpt lat="41.845763" lon="-8.601115">
        <ele>194.814</ele>
        <time>2015-03-25T13:52:32Z</time>
      </trkpt>
      <trkpt lat="41.845998" lon="-8.601285">
        <ele>195.307</ele>
        <time>2015-03-25T13:52:49Z</time>
      </trkpt>
      <trkpt lat="41.846193" lon="-8.601427">
        <ele>196.323</ele>
        <time>2015-03-25T13:53:03Z</time>
      </trkpt>
      <trkpt lat="41.846371" lon="-8.601542">
        <ele>197.796</ele>
        <time>2015-03-25T13:53:17Z</time>
      </trkpt>
      <trkpt lat="41.846539" lon="-8.601626">
        <ele>200.668</ele>
        <time>2015-03-25T13:53:31Z</time>
      </trkpt>
      <trkpt lat="41.846626" lon="-8.601662">
        <ele>202.048</ele>
        <time>2015-03-25T13:53:40Z</time>
      </trkpt>
      <trkpt lat="41.846752" lon="-8.601692">
        <ele>204.466</ele>
        <time>2015-03-25T13:53:53Z</time>
      </trkpt>
      <trkpt lat="41.846799" lon="-8.601703">
        <ele>204.981</ele>
        <time>2015-03-25T13:53:57Z</time>
      </trkpt>
      <trkpt lat="41.846956" lon="-8.601913">
        <ele>207.358</ele>
        <time>2015-03-25T13:54:13Z</time>
      </trkpt>
      <trkpt lat="41.846963" lon="-8.602015">
        <ele>209.258</ele>
        <time>2015-03-25T13:54:19Z</time>
      </trkpt>
      <trkpt lat="41.846983" lon="-8.602110">
        <ele>208.752</ele>
        <time>2015-03-25T13:54:25Z</time>
      </trkpt>
      <trkpt lat="41.847038" lon="-8.602212">
        <ele>209.217</ele>
        <time>2015-03-25T13:54:33Z</time>
      </trkpt>
      <trkpt lat="41.847151" lon="-8.602519">
        <ele>210.207</ele>
        <time>2015-03-25T13:54:49Z</time>
      </trkpt>
      <trkpt lat="41.847232" lon="-8.602688">
        <ele>211.294</ele>
        <time>2015-03-25T13:55:00Z</time>
      </trkpt>
      <trkpt lat="41.847274" lon="-8.602785">
        <ele>211.697</ele>
        <time>2015-03-25T13:55:06Z</time>
      </trkpt>
      <trkpt lat="41.847282" lon="-8.602865">
        <ele>211.649</ele>
        <time>2015-03-25T13:55:11Z</time>
      </trkpt>
      <trkpt lat="41.847342" lon="-8.602974">
        <ele>213.649</ele>
        <time>2015-03-25T13:55:19Z</time>
      </trkpt>
      <trkpt lat="41.847443" lon="-8.603191">
        <ele>215.047</ele>
        <time>2015-03-25T13:55:34Z</time>
      </trkpt>
      <trkpt lat="41.847492" lon="-8.603273">
        <ele>216.052</ele>
        <time>2015-03-25T13:55:42Z</time>
      </trkpt>
      <trkpt lat="41.847589" lon="-8.603316">
        <ele>216.419</ele>
        <time>2015-03-25T13:55:49Z</time>
      </trkpt>
      <trkpt lat="41.847662" lon="-8.603306">
        <ele>215.074</ele>
        <time>2015-03-25T13:55:53Z</time>
      </trkpt>
      <trkpt lat="41.847705" lon="-8.603288">
        <ele>215.056</ele>
        <time>2015-03-25T13:56:13Z</time>
      </trkpt>
      <trkpt lat="41.847833" lon="-8.603059">
        <ele>215.021</ele>
        <time>2015-03-25T13:56:28Z</time>
      </trkpt>
      <trkpt lat="41.847896" lon="-8.602984">
        <ele>216.007</ele>
        <time>2015-03-25T13:56:32Z</time>
      </trkpt>
      <trkpt lat="41.847932" lon="-8.602927">
        <ele>216.996</ele>
        <time>2015-03-25T13:56:35Z</time>
      </trkpt>
      <trkpt lat="41.848020" lon="-8.602808">
        <ele>217.989</ele>
        <time>2015-03-25T13:56:43Z</time>
      </trkpt>
      <trkpt lat="41.848288" lon="-8.602668">
        <ele>217.951</ele>
        <time>2015-03-25T13:56:56Z</time>
      </trkpt>
      <trkpt lat="41.848434" lon="-8.602649">
        <ele>214.511</ele>
        <time>2015-03-25T13:57:00Z</time>
      </trkpt>
      <trkpt lat="41.848518" lon="-8.602692">
        <ele>215.019</ele>
        <time>2015-03-25T13:57:10Z</time>
      </trkpt>
      <trkpt lat="41.848609" lon="-8.602733">
        <ele>215.594</ele>
        <time>2015-03-25T13:58:03Z</time>
      </trkpt>
      <trkpt lat="41.848931" lon="-8.602848">
        <ele>216.091</ele>
        <time>2015-03-25T13:58:19Z</time>
      </trkpt>
      <trkpt lat="41.849237" lon="-8.602983">
        <ele>217.498</ele>
        <time>2015-03-25T13:58:34Z</time>
      </trkpt>
      <trkpt lat="41.849398" lon="-8.603147">
        <ele>217.915</ele>
        <time>2015-03-25T13:58:44Z</time>
      </trkpt>
      <trkpt lat="41.849469" lon="-8.603217">
        <ele>217.926</ele>
        <time>2015-03-25T13:58:49Z</time>
      </trkpt>
      <trkpt lat="41.849545" lon="-8.603402">
        <ele>218.807</ele>
        <time>2015-03-25T13:59:00Z</time>
      </trkpt>
      <trkpt lat="41.849646" lon="-8.603495">
        <ele>218.858</ele>
        <time>2015-03-25T13:59:06Z</time>
      </trkpt>
      <trkpt lat="41.849731" lon="-8.603544">
        <ele>219.321</ele>
        <time>2015-03-25T13:59:19Z</time>
      </trkpt>
      <trkpt lat="41.849805" lon="-8.603555">
        <ele>220.363</ele>
        <time>2015-03-25T13:59:40Z</time>
      </trkpt>
      <trkpt lat="41.849928" lon="-8.603563">
        <ele>222.263</ele>
        <time>2015-03-25T13:59:55Z</time>
      </trkpt>
      <trkpt lat="41.850108" lon="-8.603601">
        <ele>224.131</ele>
        <time>2015-03-25T14:00:13Z</time>
      </trkpt>
      <trkpt lat="41.850276" lon="-8.603677">
        <ele>224.626</ele>
        <time>2015-03-25T14:00:30Z</time>
      </trkpt>
      <trkpt lat="41.850376" lon="-8.603755">
        <ele>225.163</ele>
        <time>2015-03-25T14:00:38Z</time>
      </trkpt>
      <trkpt lat="41.850523" lon="-8.603762">
        <ele>225.616</ele>
        <time>2015-03-25T14:00:48Z</time>
      </trkpt>
      <trkpt lat="41.850646" lon="-8.603703">
        <ele>227.076</ele>
        <time>2015-03-25T14:01:02Z</time>
      </trkpt>
      <trkpt lat="41.850803" lon="-8.603674">
        <ele>228.513</ele>
        <time>2015-03-25T14:01:20Z</time>
      </trkpt>
      <trkpt lat="41.850909" lon="-8.603644">
        <ele>230.407</ele>
        <time>2015-03-25T14:01:34Z</time>
      </trkpt>
      <trkpt lat="41.851000" lon="-8.603659">
        <ele>232.340</ele>
        <time>2015-03-25T14:01:49Z</time>
      </trkpt>
      <trkpt lat="41.851117" lon="-8.603651">
        <ele>234.253</ele>
        <time>2015-03-25T14:02:02Z</time>
      </trkpt>
      <trkpt lat="41.851304" lon="-8.603610">
        <ele>236.675</ele>
        <time>2015-03-25T14:02:17Z</time>
      </trkpt>
      <trkpt lat="41.851389" lon="-8.603626">
        <ele>237.165</ele>
        <time>2015-03-25T14:02:29Z</time>
      </trkpt>
      <trkpt lat="41.851558" lon="-8.603739">
        <ele>237.673</ele>
        <time>2015-03-25T14:02:43Z</time>
      </trkpt>
      <trkpt lat="41.851730" lon="-8.603835">
        <ele>238.598</ele>
        <time>2015-03-25T14:02:56Z</time>
      </trkpt>
      <trkpt lat="41.851879" lon="-8.603870">
        <ele>239.065</ele>
        <time>2015-03-25T14:03:09Z</time>
      </trkpt>
      <trkpt lat="41.852008" lon="-8.603875">
        <ele>240.033</ele>
        <time>2015-03-25T14:03:19Z</time>
      </trkpt>
      <trkpt lat="41.852053" lon="-8.603883">
        <ele>240.523</ele>
        <time>2015-03-25T14:03:22Z</time>
      </trkpt>
      <trkpt lat="41.852186" lon="-8.603907">
        <ele>241.415</ele>
        <time>2015-03-25T14:03:35Z</time>
      </trkpt>
      <trkpt lat="41.852283" lon="-8.604032">
        <ele>243.807</ele>
        <time>2015-03-25T14:03:51Z</time>
      </trkpt>
      <trkpt lat="41.852347" lon="-8.604151">
        <ele>246.282</ele>
        <time>2015-03-25T14:04:06Z</time>
      </trkpt>
      <trkpt lat="41.852397" lon="-8.604273">
        <ele>249.115</ele>
        <time>2015-03-25T14:04:21Z</time>
      </trkpt>
      <trkpt lat="41.852488" lon="-8.604311">
        <ele>250.657</ele>
        <time>2015-03-25T14:04:37Z</time>
      </trkpt>
      <trkpt lat="41.852603" lon="-8.604297">
        <ele>252.087</ele>
        <time>2015-03-25T14:04:55Z</time>
      </trkpt>
      <trkpt lat="41.852733" lon="-8.604280">
        <ele>255.925</ele>
        <time>2015-03-25T14:05:08Z</time>
      </trkpt>
      <trkpt lat="41.852863" lon="-8.604249">
        <ele>257.340</ele>
        <time>2015-03-25T14:05:20Z</time>
      </trkpt>
      <trkpt lat="41.853000" lon="-8.604210">
        <ele>259.277</ele>
        <time>2015-03-25T14:05:32Z</time>
      </trkpt>
      <trkpt lat="41.853139" lon="-8.604210">
        <ele>260.733</ele>
        <time>2015-03-25T14:05:45Z</time>
      </trkpt>
      <trkpt lat="41.853294" lon="-8.604212">
        <ele>262.623</ele>
        <time>2015-03-25T14:05:57Z</time>
      </trkpt>
      <trkpt lat="41.853495" lon="-8.604219">
        <ele>264.015</ele>
        <time>2015-03-25T14:06:10Z</time>
      </trkpt>
      <trkpt lat="41.853716" lon="-8.604269">
        <ele>265.507</ele>
        <time>2015-03-25T14:06:24Z</time>
      </trkpt>
      <trkpt lat="41.853956" lon="-8.604334">
        <ele>265.932</ele>
        <time>2015-03-25T14:06:38Z</time>
      </trkpt>
      <trkpt lat="41.854149" lon="-8.604320">
        <ele>266.925</ele>
        <time>2015-03-25T14:06:52Z</time>
      </trkpt>
      <trkpt lat="41.854303" lon="-8.604236">
        <ele>268.457</ele>
        <time>2015-03-25T14:07:04Z</time>
      </trkpt>
      <trkpt lat="41.854532" lon="-8.604147">
        <ele>270.317</ele>
        <time>2015-03-25T14:07:18Z</time>
      </trkpt>
      <trkpt lat="41.854654" lon="-8.604141">
        <ele>271.785</ele>
        <time>2015-03-25T14:07:29Z</time>
      </trkpt>
      <trkpt lat="41.854846" lon="-8.604192">
        <ele>275.110</ele>
        <time>2015-03-25T14:07:42Z</time>
      </trkpt>
      <trkpt lat="41.855063" lon="-8.604317">
        <ele>275.697</ele>
        <time>2015-03-25T14:07:56Z</time>
      </trkpt>
      <trkpt lat="41.855104" lon="-8.604350">
        <ele>276.595</ele>
        <time>2015-03-25T14:07:59Z</time>
      </trkpt>
      <trkpt lat="41.855233" lon="-8.604535">
        <ele>275.149</ele>
        <time>2015-03-25T14:08:08Z</time>
      </trkpt>
      <trkpt lat="41.855346" lon="-8.604539">
        <ele>274.623</ele>
        <time>2015-03-25T14:08:13Z</time>
      </trkpt>
      <trkpt lat="41.855507" lon="-8.604210">
        <ele>274.607</ele>
        <time>2015-03-25T14:08:25Z</time>
      </trkpt>
      <trkpt lat="41.855605" lon="-8.604020">
        <ele>276.028</ele>
        <time>2015-03-25T14:08:31Z</time>
      </trkpt>
      <trkpt lat="41.855704" lon="-8.603880">
        <ele>276.591</ele>
        <time>2015-03-25T14:08:40Z</time>
      </trkpt>
      <trkpt lat="41.855815" lon="-8.603834">
        <ele>278.443</ele>
        <time>2015-03-25T14:08:47Z</time>
      </trkpt>
      <trkpt lat="41.856115" lon="-8.603814">
        <ele>278.473</ele>
        <time>2015-03-25T14:08:59Z</time>
      </trkpt>
      <trkpt lat="41.856439" lon="-8.603845">
        <ele>279.451</ele>
        <time>2015-03-25T14:09:12Z</time>
      </trkpt>
      <trkpt lat="41.856530" lon="-8.603890">
        <ele>279.996</ele>
        <time>2015-03-25T14:09:25Z</time>
      </trkpt>
      <trkpt lat="41.856586" lon="-8.603905">
        <ele>280.833</ele>
        <time>2015-03-25T14:10:01Z</time>
      </trkpt>
      <trkpt lat="41.856690" lon="-8.603971">
        <ele>283.348</ele>
        <time>2015-03-25T14:10:15Z</time>
      </trkpt>
      <trkpt lat="41.856774" lon="-8.604009">
        <ele>285.261</ele>
        <time>2015-03-25T14:10:28Z</time>
      </trkpt>
      <trkpt lat="41.856907" lon="-8.604052">
        <ele>288.117</ele>
        <time>2015-03-25T14:10:43Z</time>
      </trkpt>
      <trkpt lat="41.857008" lon="-8.604122">
        <ele>290.007</ele>
        <time>2015-03-25T14:10:57Z</time>
      </trkpt>
      <trkpt lat="41.857079" lon="-8.604157">
        <ele>291.983</ele>
        <time>2015-03-25T14:11:09Z</time>
      </trkpt>
      <trkpt lat="41.857198" lon="-8.604157">
        <ele>293.396</ele>
        <time>2015-03-25T14:11:23Z</time>
      </trkpt>
      <trkpt lat="41.857290" lon="-8.604191">
        <ele>294.888</ele>
        <time>2015-03-25T14:11:34Z</time>
      </trkpt>
      <trkpt lat="41.857439" lon="-8.604244">
        <ele>297.218</ele>
        <time>2015-03-25T14:11:51Z</time>
      </trkpt>
      <trkpt lat="41.857519" lon="-8.604364">
        <ele>300.126</ele>
        <time>2015-03-25T14:12:09Z</time>
      </trkpt>
      <trkpt lat="41.857671" lon="-8.604419">
        <ele>301.031</ele>
        <time>2015-03-25T14:12:25Z</time>
      </trkpt>
      <trkpt lat="41.857793" lon="-8.604383">
        <ele>302.058</ele>
        <time>2015-03-25T14:12:41Z</time>
      </trkpt>
      <trkpt lat="41.857848" lon="-8.604391">
        <ele>304.425</ele>
        <time>2015-03-25T14:12:53Z</time>
      </trkpt>
      <trkpt lat="41.857898" lon="-8.604390">
        <ele>307.826</ele>
        <time>2015-03-25T14:13:04Z</time>
      </trkpt>
      <trkpt lat="41.858019" lon="-8.604387">
        <ele>308.708</ele>
        <time>2015-03-25T14:13:19Z</time>
      </trkpt>
      <trkpt lat="41.858154" lon="-8.604398">
        <ele>310.207</ele>
        <time>2015-03-25T14:13:34Z</time>
      </trkpt>
      <trkpt lat="41.858259" lon="-8.604392">
        <ele>311.181</ele>
        <time>2015-03-25T14:13:47Z</time>
      </trkpt>
      <trkpt lat="41.858393" lon="-8.604410">
        <ele>312.684</ele>
        <time>2015-03-25T14:13:59Z</time>
      </trkpt>
      <trkpt lat="41.858599" lon="-8.604491">
        <ele>314.086</ele>
        <time>2015-03-25T14:14:15Z</time>
      </trkpt>
      <trkpt lat="41.858818" lon="-8.604596">
        <ele>315.586</ele>
        <time>2015-03-25T14:14:30Z</time>
      </trkpt>
      <trkpt lat="41.858884" lon="-8.604640">
        <ele>316.474</ele>
        <time>2015-03-25T14:14:47Z</time>
      </trkpt>
      <trkpt lat="41.858976" lon="-8.604616">
        <ele>317.429</ele>
        <time>2015-03-25T14:15:07Z</time>
      </trkpt>
      <trkpt lat="41.859057" lon="-8.604677">
        <ele>319.876</ele>
        <time>2015-03-25T14:15:21Z</time>
      </trkpt>
      <trkpt lat="41.859127" lon="-8.604755">
        <ele>321.724</ele>
        <time>2015-03-25T14:15:34Z</time>
      </trkpt>
      <trkpt lat="41.859174" lon="-8.604783">
        <ele>323.604</ele>
        <time>2015-03-25T14:15:46Z</time>
      </trkpt>
      <trkpt lat="41.859246" lon="-8.604805">
        <ele>326.014</ele>
        <time>2015-03-25T14:16:01Z</time>
      </trkpt>
      <trkpt lat="41.859269" lon="-8.604912">
        <ele>329.407</ele>
        <time>2015-03-25T14:16:38Z</time>
      </trkpt>
      <trkpt lat="41.859306" lon="-8.604982">
        <ele>331.361</ele>
        <time>2015-03-25T14:16:50Z</time>
      </trkpt>
      <trkpt lat="41.859373" lon="-8.605028">
        <ele>333.234</ele>
        <time>2015-03-25T14:17:28Z</time>
      </trkpt>
      <trkpt lat="41.859359" lon="-8.605104">
        <ele>335.686</ele>
        <time>2015-03-25T14:17:40Z</time>
      </trkpt>
      <trkpt lat="41.859381" lon="-8.605163">
        <ele>338.536</ele>
        <time>2015-03-25T14:17:54Z</time>
      </trkpt>
      <trkpt lat="41.859458" lon="-8.605181">
        <ele>341.944</ele>
        <time>2015-03-25T14:18:13Z</time>
      </trkpt>
      <trkpt lat="41.859506" lon="-8.605188">
        <ele>342.479</ele>
        <time>2015-03-25T14:18:25Z</time>
      </trkpt>
      <trkpt lat="41.859592" lon="-8.605193">
        <ele>341.976</ele>
        <time>2015-03-25T14:20:09Z</time>
      </trkpt>
      <trkpt lat="41.859714" lon="-8.605227">
        <ele>343.377</ele>
        <time>2015-03-25T14:20:25Z</time>
      </trkpt>
      <trkpt lat="41.859798" lon="-8.605272">
        <ele>345.761</ele>
        <time>2015-03-25T14:20:40Z</time>
      </trkpt>
      <trkpt lat="41.859924" lon="-8.605354">
        <ele>347.727</ele>
        <time>2015-03-25T14:20:56Z</time>
      </trkpt>
      <trkpt lat="41.859992" lon="-8.605367">
        <ele>350.507</ele>
        <time>2015-03-25T14:21:10Z</time>
      </trkpt>
      <trkpt lat="41.860115" lon="-8.605393">
        <ele>351.576</ele>
        <time>2015-03-25T14:21:27Z</time>
      </trkpt>
      <trkpt lat="41.860183" lon="-8.605407">
        <ele>353.989</ele>
        <time>2015-03-25T14:21:40Z</time>
      </trkpt>
      <trkpt lat="41.860279" lon="-8.605433">
        <ele>356.381</ele>
        <time>2015-03-25T14:21:54Z</time>
      </trkpt>
      <trkpt lat="41.860366" lon="-8.605432">
        <ele>358.711</ele>
        <time>2015-03-25T14:22:12Z</time>
      </trkpt>
      <trkpt lat="41.860468" lon="-8.605468">
        <ele>361.699</ele>
        <time>2015-03-25T14:22:31Z</time>
      </trkpt>
      <trkpt lat="41.860542" lon="-8.605499">
        <ele>363.564</ele>
        <time>2015-03-25T14:22:46Z</time>
      </trkpt>
      <trkpt lat="41.860615" lon="-8.605532">
        <ele>365.081</ele>
        <time>2015-03-25T14:23:00Z</time>
      </trkpt>
      <trkpt lat="41.860700" lon="-8.605599">
        <ele>366.416</ele>
        <time>2015-03-25T14:23:14Z</time>
      </trkpt>
      <trkpt lat="41.860809" lon="-8.605679">
        <ele>367.876</ele>
        <time>2015-03-25T14:23:29Z</time>
      </trkpt>
      <trkpt lat="41.860935" lon="-8.605719">
        <ele>368.813</ele>
        <time>2015-03-25T14:23:45Z</time>
      </trkpt>
      <trkpt lat="41.861019" lon="-8.605766">
        <ele>370.707</ele>
        <time>2015-03-25T14:23:59Z</time>
      </trkpt>
      <trkpt lat="41.861103" lon="-8.605799">
        <ele>372.210</ele>
        <time>2015-03-25T14:24:10Z</time>
      </trkpt>
      <trkpt lat="41.861162" lon="-8.605877">
        <ele>373.123</ele>
        <time>2015-03-25T14:24:24Z</time>
      </trkpt>
      <trkpt lat="41.861217" lon="-8.605885">
        <ele>376.025</ele>
        <time>2015-03-25T14:24:37Z</time>
      </trkpt>
      <trkpt lat="41.861283" lon="-8.605908">
        <ele>377.035</ele>
        <time>2015-03-25T14:24:50Z</time>
      </trkpt>
      <trkpt lat="41.861361" lon="-8.605978">
        <ele>379.433</ele>
        <time>2015-03-25T14:25:07Z</time>
      </trkpt>
      <trkpt lat="41.861448" lon="-8.606047">
        <ele>380.378</ele>
        <time>2015-03-25T14:25:23Z</time>
      </trkpt>
      <trkpt lat="41.861499" lon="-8.606083">
        <ele>382.755</ele>
        <time>2015-03-25T14:25:35Z</time>
      </trkpt>
      <trkpt lat="41.861559" lon="-8.606080">
        <ele>383.726</ele>
        <time>2015-03-25T14:25:51Z</time>
      </trkpt>
      <trkpt lat="41.861636" lon="-8.606083">
        <ele>385.247</ele>
        <time>2015-03-25T14:26:05Z</time>
      </trkpt>
      <trkpt lat="41.861695" lon="-8.606092">
        <ele>386.611</ele>
        <time>2015-03-25T14:26:20Z</time>
      </trkpt>
      <trkpt lat="41.861746" lon="-8.606147">
        <ele>388.007</ele>
        <time>2015-03-25T14:27:06Z</time>
      </trkpt>
      <trkpt lat="41.861830" lon="-8.606153">
        <ele>389.561</ele>
        <time>2015-03-25T14:27:19Z</time>
      </trkpt>
      <trkpt lat="41.861894" lon="-8.606189">
        <ele>390.474</ele>
        <time>2015-03-25T14:27:32Z</time>
      </trkpt>
      <trkpt lat="41.861961" lon="-8.606233">
        <ele>392.886</ele>
        <time>2015-03-25T14:27:46Z</time>
      </trkpt>
      <trkpt lat="41.862036" lon="-8.606262">
        <ele>394.376</ele>
        <time>2015-03-25T14:27:59Z</time>
      </trkpt>
      <trkpt lat="41.862098" lon="-8.606288">
        <ele>395.724</ele>
        <time>2015-03-25T14:28:13Z</time>
      </trkpt>
      <trkpt lat="41.862182" lon="-8.606326">
        <ele>397.629</ele>
        <time>2015-03-25T14:28:26Z</time>
      </trkpt>
      <trkpt lat="41.862173" lon="-8.606420">
        <ele>399.626</ele>
        <time>2015-03-25T14:28:41Z</time>
      </trkpt>
      <trkpt lat="41.862168" lon="-8.606539">
        <ele>401.552</ele>
        <time>2015-03-25T14:28:56Z</time>
      </trkpt>
      <trkpt lat="41.862167" lon="-8.606675">
        <ele>403.453</ele>
        <time>2015-03-25T14:29:13Z</time>
      </trkpt>
      <trkpt lat="41.862188" lon="-8.606795">
        <ele>404.908</ele>
        <time>2015-03-25T14:29:27Z</time>
      </trkpt>
      <trkpt lat="41.862240" lon="-8.606869">
        <ele>405.807</ele>
        <time>2015-03-25T14:29:42Z</time>
      </trkpt>
      <trkpt lat="41.862442" lon="-8.606796">
        <ele>406.354</ele>
        <time>2015-03-25T14:30:12Z</time>
      </trkpt>
      <trkpt lat="41.862506" lon="-8.606711">
        <ele>408.237</ele>
        <time>2015-03-25T14:30:26Z</time>
      </trkpt>
      <trkpt lat="41.862565" lon="-8.606755">
        <ele>408.729</ele>
        <time>2015-03-25T14:30:38Z</time>
      </trkpt>
      <trkpt lat="41.862638" lon="-8.606971">
        <ele>408.729</ele>
        <time>2015-03-25T14:30:50Z</time>
      </trkpt>
      <trkpt lat="41.862756" lon="-8.607253">
        <ele>408.797</ele>
        <time>2015-03-25T14:31:02Z</time>
      </trkpt>
      <trkpt lat="41.862905" lon="-8.607565">
        <ele>409.722</ele>
        <time>2015-03-25T14:31:16Z</time>
      </trkpt>
      <trkpt lat="41.862942" lon="-8.607676">
        <ele>410.169</ele>
        <time>2015-03-25T14:31:22Z</time>
      </trkpt>
      <trkpt lat="41.862992" lon="-8.607766">
        <ele>410.622</ele>
        <time>2015-03-25T14:31:27Z</time>
      </trkpt>
      <trkpt lat="41.863080" lon="-8.608062">
        <ele>411.162</ele>
        <time>2015-03-25T14:31:40Z</time>
      </trkpt>
      <trkpt lat="41.862968" lon="-8.608199">
        <ele>411.608</ele>
        <time>2015-03-25T14:31:52Z</time>
      </trkpt>
      <trkpt lat="41.862730" lon="-8.608347">
        <ele>411.607</ele>
        <time>2015-03-25T14:32:10Z</time>
      </trkpt>
      <trkpt lat="41.862790" lon="-8.608513">
        <ele>409.781</ele>
        <time>2015-03-25T14:32:15Z</time>
      </trkpt>
      <trkpt lat="41.862919" lon="-8.608828">
        <ele>407.344</ele>
        <time>2015-03-25T14:32:22Z</time>
      </trkpt>
      <trkpt lat="41.863049" lon="-8.609044">
        <ele>404.926</ele>
        <time>2015-03-25T14:32:28Z</time>
      </trkpt>
      <trkpt lat="41.863109" lon="-8.609263">
        <ele>402.526</ele>
        <time>2015-03-25T14:32:33Z</time>
      </trkpt>
      <trkpt lat="41.863129" lon="-8.609366">
        <ele>400.114</ele>
        <time>2015-03-25T14:32:35Z</time>
      </trkpt>
      <trkpt lat="41.863322" lon="-8.609814">
        <ele>398.639</ele>
        <time>2015-03-25T14:32:46Z</time>
      </trkpt>
      <trkpt lat="41.863446" lon="-8.609972">
        <ele>397.216</ele>
        <time>2015-03-25T14:32:51Z</time>
      </trkpt>
      <trkpt lat="41.863641" lon="-8.610383">
        <ele>393.823</ele>
        <time>2015-03-25T14:33:00Z</time>
      </trkpt>
      <trkpt lat="41.863682" lon="-8.610483">
        <ele>392.483</ele>
        <time>2015-03-25T14:33:02Z</time>
      </trkpt>
      <trkpt lat="41.863728" lon="-8.610808">
        <ele>390.411</ele>
        <time>2015-03-25T14:33:09Z</time>
      </trkpt>
      <trkpt lat="41.863789" lon="-8.610914">
        <ele>388.507</ele>
        <time>2015-03-25T14:33:14Z</time>
      </trkpt>
      <trkpt lat="41.863809" lon="-8.611030">
        <ele>387.161</ele>
        <time>2015-03-25T14:33:17Z</time>
      </trkpt>
      <trkpt lat="41.863831" lon="-8.611102">
        <ele>386.124</ele>
        <time>2015-03-25T14:33:19Z</time>
      </trkpt>
      <trkpt lat="41.863865" lon="-8.611154">
        <ele>384.266</ele>
        <time>2015-03-25T14:33:30Z</time>
      </trkpt>
      <trkpt lat="41.863999" lon="-8.611355">
        <ele>383.296</ele>
        <time>2015-03-25T14:34:14Z</time>
      </trkpt>
      <trkpt lat="41.864092" lon="-8.611546">
        <ele>380.334</ele>
        <time>2015-03-25T14:34:20Z</time>
      </trkpt>
      <trkpt lat="41.864199" lon="-8.611705">
        <ele>376.029</ele>
        <time>2015-03-25T14:34:25Z</time>
      </trkpt>
      <trkpt lat="41.864293" lon="-8.611824">
        <ele>372.756</ele>
        <time>2015-03-25T14:34:31Z</time>
      </trkpt>
      <trkpt lat="41.864360" lon="-8.611851">
        <ele>370.221</ele>
        <time>2015-03-25T14:34:42Z</time>
      </trkpt>
      <trkpt lat="41.864410" lon="-8.611900">
        <ele>367.441</ele>
        <time>2015-03-25T14:34:48Z</time>
      </trkpt>
      <trkpt lat="41.864448" lon="-8.611941">
        <ele>365.005</ele>
        <time>2015-03-25T14:34:53Z</time>
      </trkpt>
      <trkpt lat="41.864481" lon="-8.612061">
        <ele>363.007</ele>
        <time>2015-03-25T14:35:05Z</time>
      </trkpt>
      <trkpt lat="41.864517" lon="-8.612106">
        <ele>360.661</ele>
        <time>2015-03-25T14:35:10Z</time>
      </trkpt>
      <trkpt lat="41.864633" lon="-8.612229">
        <ele>359.774</ele>
        <time>2015-03-25T14:35:23Z</time>
      </trkpt>
      <trkpt lat="41.864774" lon="-8.612296">
        <ele>359.736</ele>
        <time>2015-03-25T14:35:36Z</time>
      </trkpt>
      <trkpt lat="41.864984" lon="-8.612551">
        <ele>356.386</ele>
        <time>2015-03-25T14:35:45Z</time>
      </trkpt>
      <trkpt lat="41.865039" lon="-8.612675">
        <ele>354.494</ele>
        <time>2015-03-25T14:35:48Z</time>
      </trkpt>
      <trkpt lat="41.865215" lon="-8.612874">
        <ele>350.549</ele>
        <time>2015-03-25T14:35:54Z</time>
      </trkpt>
      <trkpt lat="41.865367" lon="-8.613044">
        <ele>347.266</ele>
        <time>2015-03-25T14:35:58Z</time>
      </trkpt>
      <trkpt lat="41.865408" lon="-8.613092">
        <ele>346.216</ele>
        <time>2015-03-25T14:35:59Z</time>
      </trkpt>
      <trkpt lat="41.865446" lon="-8.613137">
        <ele>345.376</ele>
        <time>2015-03-25T14:36:00Z</time>
      </trkpt>
      <trkpt lat="41.865584" lon="-8.613308">
        <ele>343.313</ele>
        <time>2015-03-25T14:36:04Z</time>
      </trkpt>
      <trkpt lat="41.865803" lon="-8.613654">
        <ele>339.507</ele>
        <time>2015-03-25T14:36:13Z</time>
      </trkpt>
      <trkpt lat="41.865879" lon="-8.613775">
        <ele>337.670</ele>
        <time>2015-03-25T14:36:17Z</time>
      </trkpt>
      <trkpt lat="41.866000" lon="-8.613907">
        <ele>335.663</ele>
        <time>2015-03-25T14:36:21Z</time>
      </trkpt>
      <trkpt lat="41.866061" lon="-8.614002">
        <ele>335.615</ele>
        <time>2015-03-25T14:36:23Z</time>
      </trkpt>
      <trkpt lat="41.866226" lon="-8.614346">
        <ele>334.765</ele>
        <time>2015-03-25T14:36:30Z</time>
      </trkpt>
      <trkpt lat="41.866378" lon="-8.614514">
        <ele>333.223</ele>
        <time>2015-03-25T14:36:34Z</time>
      </trkpt>
      <trkpt lat="41.866543" lon="-8.614636">
        <ele>333.218</ele>
        <time>2015-03-25T14:36:38Z</time>
      </trkpt>
      <trkpt lat="41.866757" lon="-8.614683">
        <ele>332.335</ele>
        <time>2015-03-25T14:36:43Z</time>
      </trkpt>
      <trkpt lat="41.867372" lon="-8.614806">
        <ele>328.046</ele>
        <time>2015-03-25T14:36:54Z</time>
      </trkpt>
      <trkpt lat="41.867594" lon="-8.614808">
        <ele>326.088</ele>
        <time>2015-03-25T14:37:00Z</time>
      </trkpt>
      <trkpt lat="41.867706" lon="-8.614770">
        <ele>324.116</ele>
        <time>2015-03-25T14:37:03Z</time>
      </trkpt>
      <trkpt lat="41.867784" lon="-8.614760">
        <ele>321.207</ele>
        <time>2015-03-25T14:37:07Z</time>
      </trkpt>
      <trkpt lat="41.867946" lon="-8.614743">
        <ele>319.333</ele>
        <time>2015-03-25T14:37:12Z</time>
      </trkpt>
      <trkpt lat="41.868089" lon="-8.614729">
        <ele>317.456</ele>
        <time>2015-03-25T14:37:15Z</time>
      </trkpt>
      <trkpt lat="41.868312" lon="-8.614777">
        <ele>320.318</ele>
        <time>2015-03-25T14:37:23Z</time>
      </trkpt>
      <trkpt lat="41.868379" lon="-8.614799">
        <ele>322.278</ele>
        <time>2015-03-25T14:37:33Z</time>
      </trkpt>
      <trkpt lat="41.868436" lon="-8.614852">
        <ele>323.666</ele>
        <time>2015-03-25T14:37:41Z</time>
      </trkpt>
      <trkpt lat="41.868523" lon="-8.614961">
        <ele>324.191</ele>
        <time>2015-03-25T14:37:54Z</time>
      </trkpt>
      <trkpt lat="41.868585" lon="-8.614981">
        <ele>324.638</ele>
        <time>2015-03-25T14:38:00Z</time>
      </trkpt>
      <trkpt lat="41.868702" lon="-8.614995">
        <ele>325.119</ele>
        <time>2015-03-25T14:38:11Z</time>
      </trkpt>
      <trkpt lat="41.868822" lon="-8.615017">
        <ele>327.509</ele>
        <time>2015-03-25T14:38:21Z</time>
      </trkpt>
      <trkpt lat="41.868888" lon="-8.615018">
        <ele>328.019</ele>
        <time>2015-03-25T14:38:27Z</time>
      </trkpt>
      <trkpt lat="41.869000" lon="-8.614948">
        <ele>329.407</ele>
        <time>2015-03-25T14:38:41Z</time>
      </trkpt>
      <trkpt lat="41.869063" lon="-8.614916">
        <ele>329.990</ele>
        <time>2015-03-25T14:39:05Z</time>
      </trkpt>
      <trkpt lat="41.869158" lon="-8.614835">
        <ele>329.943</ele>
        <time>2015-03-25T14:39:21Z</time>
      </trkpt>
      <trkpt lat="41.869308" lon="-8.614749">
        <ele>329.915</ele>
        <time>2015-03-25T14:39:29Z</time>
      </trkpt>
      <trkpt lat="41.869384" lon="-8.614738">
        <ele>329.955</ele>
        <time>2015-03-25T14:39:35Z</time>
      </trkpt>
      <trkpt lat="41.869466" lon="-8.614722">
        <ele>330.853</ele>
        <time>2015-03-25T14:39:41Z</time>
      </trkpt>
      <trkpt lat="41.869528" lon="-8.614732">
        <ele>330.848</ele>
        <time>2015-03-25T14:39:47Z</time>
      </trkpt>
      <trkpt lat="41.869658" lon="-8.614734">
        <ele>330.875</ele>
        <time>2015-03-25T14:39:53Z</time>
      </trkpt>
      <trkpt lat="41.869728" lon="-8.614717">
        <ele>330.836</ele>
        <time>2015-03-25T14:39:58Z</time>
      </trkpt>
      <trkpt lat="41.869999" lon="-8.614709">
        <ele>329.917</ele>
        <time>2015-03-25T14:40:10Z</time>
      </trkpt>
      <trkpt lat="41.870152" lon="-8.614722">
        <ele>328.418</ele>
        <time>2015-03-25T14:40:15Z</time>
      </trkpt>
      <trkpt lat="41.870454" lon="-8.614656">
        <ele>325.507</ele>
        <time>2015-03-25T14:40:23Z</time>
      </trkpt>
      <trkpt lat="41.871042" lon="-8.614823">
        <ele>322.792</ele>
        <time>2015-03-25T14:40:35Z</time>
      </trkpt>
      <trkpt lat="41.871223" lon="-8.614873">
        <ele>321.735</ele>
        <time>2015-03-25T14:40:39Z</time>
      </trkpt>
      <trkpt lat="41.871381" lon="-8.614931">
        <ele>320.327</ele>
        <time>2015-03-25T14:40:42Z</time>
      </trkpt>
      <trkpt lat="41.871620" lon="-8.615115">
        <ele>317.947</ele>
        <time>2015-03-25T14:40:46Z</time>
      </trkpt>
      <trkpt lat="41.871994" lon="-8.615269">
        <ele>315.555</ele>
        <time>2015-03-25T14:40:52Z</time>
      </trkpt>
      <trkpt lat="41.872056" lon="-8.615288">
        <ele>315.590</ele>
        <time>2015-03-25T14:40:53Z</time>
      </trkpt>
      <trkpt lat="41.872173" lon="-8.615332">
        <ele>314.517</ele>
        <time>2015-03-25T14:40:55Z</time>
      </trkpt>
      <trkpt lat="41.872430" lon="-8.615386">
        <ele>312.652</ele>
        <time>2015-03-25T14:40:59Z</time>
      </trkpt>
      <trkpt lat="41.872619" lon="-8.615476">
        <ele>311.153</ele>
        <time>2015-03-25T14:41:02Z</time>
      </trkpt>
      <trkpt lat="41.872728" lon="-8.615572">
        <ele>311.108</ele>
        <time>2015-03-25T14:41:04Z</time>
      </trkpt>
      <trkpt lat="41.872856" lon="-8.615716">
        <ele>311.107</ele>
        <time>2015-03-25T14:41:07Z</time>
      </trkpt>
      <trkpt lat="41.873034" lon="-8.615863">
        <ele>308.214</ele>
        <time>2015-03-25T14:41:11Z</time>
      </trkpt>
      <trkpt lat="41.873382" lon="-8.616342">
        <ele>306.837</ele>
        <time>2015-03-25T14:41:19Z</time>
      </trkpt>
      <trkpt lat="41.873535" lon="-8.616474">
        <ele>305.489</ele>
        <time>2015-03-25T14:41:22Z</time>
      </trkpt>
      <trkpt lat="41.873619" lon="-8.616572">
        <ele>304.439</ele>
        <time>2015-03-25T14:41:24Z</time>
      </trkpt>
      <trkpt lat="41.873686" lon="-8.616690">
        <ele>303.067</ele>
        <time>2015-03-25T14:41:26Z</time>
      </trkpt>
      <trkpt lat="41.873733" lon="-8.616835">
        <ele>301.592</ele>
        <time>2015-03-25T14:41:28Z</time>
      </trkpt>
      <trkpt lat="41.873934" lon="-8.617090">
        <ele>297.289</ele>
        <time>2015-03-25T14:41:32Z</time>
      </trkpt>
      <trkpt lat="41.873994" lon="-8.617141">
        <ele>297.235</ele>
        <time>2015-03-25T14:41:33Z</time>
      </trkpt>
      <trkpt lat="41.874181" lon="-8.617423">
        <ele>294.386</ele>
        <time>2015-03-25T14:41:37Z</time>
      </trkpt>
      <trkpt lat="41.874291" lon="-8.617572">
        <ele>290.914</ele>
        <time>2015-03-25T14:41:39Z</time>
      </trkpt>
      <trkpt lat="41.874672" lon="-8.617935">
        <ele>288.107</ele>
        <time>2015-03-25T14:41:45Z</time>
      </trkpt>
      <trkpt lat="41.874937" lon="-8.618240">
        <ele>287.692</ele>
        <time>2015-03-25T14:41:50Z</time>
      </trkpt>
      <trkpt lat="41.875142" lon="-8.618381">
        <ele>285.725</ele>
        <time>2015-03-25T14:41:54Z</time>
      </trkpt>
      <trkpt lat="41.875602" lon="-8.618578">
        <ele>286.197</ele>
        <time>2015-03-25T14:42:06Z</time>
      </trkpt>
      <trkpt lat="41.875829" lon="-8.618661">
        <ele>287.677</ele>
        <time>2015-03-25T14:42:12Z</time>
      </trkpt>
      <trkpt lat="41.876123" lon="-8.618760">
        <ele>285.755</ele>
        <time>2015-03-25T14:42:19Z</time>
      </trkpt>
      <trkpt lat="41.876229" lon="-8.618787">
        <ele>284.270</ele>
        <time>2015-03-25T14:42:21Z</time>
      </trkpt>
      <trkpt lat="41.876346" lon="-8.618827">
        <ele>283.397</ele>
        <time>2015-03-25T14:42:23Z</time>
      </trkpt>
      <trkpt lat="41.876587" lon="-8.618841">
        <ele>281.852</ele>
        <time>2015-03-25T14:42:27Z</time>
      </trkpt>
      <trkpt lat="41.876904" lon="-8.618813">
        <ele>278.453</ele>
        <time>2015-03-25T14:42:32Z</time>
      </trkpt>
      <trkpt lat="41.877031" lon="-8.618828">
        <ele>277.008</ele>
        <time>2015-03-25T14:42:35Z</time>
      </trkpt>
      <trkpt lat="41.877247" lon="-8.618768">
        <ele>275.607</ele>
        <time>2015-03-25T14:42:40Z</time>
      </trkpt>
      <trkpt lat="41.878016" lon="-8.618737">
        <ele>273.264</ele>
        <time>2015-03-25T14:42:54Z</time>
      </trkpt>
      <trkpt lat="41.878207" lon="-8.618743">
        <ele>272.277</ele>
        <time>2015-03-25T14:43:05Z</time>
      </trkpt>
      <trkpt lat="41.878265" lon="-8.618767">
        <ele>272.249</ele>
        <time>2015-03-25T14:43:28Z</time>
      </trkpt>
      <trkpt lat="41.878620" lon="-8.619090">
        <ele>272.299</ele>
        <time>2015-03-25T14:43:42Z</time>
      </trkpt>
      <trkpt lat="41.878854" lon="-8.619193">
        <ele>273.617</ele>
        <time>2015-03-25T14:43:53Z</time>
      </trkpt>
      <trkpt lat="41.879250" lon="-8.619297">
        <ele>272.722</ele>
        <time>2015-03-25T14:44:06Z</time>
      </trkpt>
      <trkpt lat="41.879851" lon="-8.619177">
        <ele>269.839</ele>
        <time>2015-03-25T14:44:17Z</time>
      </trkpt>
      <trkpt lat="41.880229" lon="-8.619186">
        <ele>269.314</ele>
        <time>2015-03-25T14:44:27Z</time>
      </trkpt>
      <trkpt lat="41.880712" lon="-8.619442">
        <ele>266.454</ele>
        <time>2015-03-25T14:44:38Z</time>
      </trkpt>
      <trkpt lat="41.880915" lon="-8.619542">
        <ele>265.509</ele>
        <time>2015-03-25T14:44:42Z</time>
      </trkpt>
      <trkpt lat="41.881377" lon="-8.619936">
        <ele>264.507</ele>
        <time>2015-03-25T14:44:56Z</time>
      </trkpt>
      <trkpt lat="41.881872" lon="-8.620405">
        <ele>263.150</ele>
        <time>2015-03-25T14:45:10Z</time>
      </trkpt>
      <trkpt lat="41.882197" lon="-8.620658">
        <ele>262.153</ele>
        <time>2015-03-25T14:45:17Z</time>
      </trkpt>
      <trkpt lat="41.882693" lon="-8.620687">
        <ele>262.615</ele>
        <time>2015-03-25T14:45:29Z</time>
      </trkpt>
      <trkpt lat="41.882950" lon="-8.620607">
        <ele>261.675</ele>
        <time>2015-03-25T14:45:35Z</time>
      </trkpt>
      <trkpt lat="41.883053" lon="-8.620529">
        <ele>261.653</ele>
        <time>2015-03-25T14:45:38Z</time>
      </trkpt>
      <trkpt lat="41.883191" lon="-8.620431">
        <ele>262.168</ele>
        <time>2015-03-25T14:46:04Z</time>
      </trkpt>
      <trkpt lat="41.883469" lon="-8.620231">
        <ele>260.245</ele>
        <time>2015-03-25T14:46:12Z</time>
      </trkpt>
      <trkpt lat="41.883741" lon="-8.620154">
        <ele>255.938</ele>
        <time>2015-03-25T14:46:18Z</time>
      </trkpt>
      <trkpt lat="41.883923" lon="-8.620055">
        <ele>252.070</ele>
        <time>2015-03-25T14:46:23Z</time>
      </trkpt>
      <trkpt lat="41.884002" lon="-8.620016">
        <ele>250.117</ele>
        <time>2015-03-25T14:46:25Z</time>
      </trkpt>
      <trkpt lat="41.884191" lon="-8.619878">
        <ele>246.707</ele>
        <time>2015-03-25T14:46:30Z</time>
      </trkpt>
      <trkpt lat="41.884241" lon="-8.619794">
        <ele>246.262</ele>
        <time>2015-03-25T14:46:32Z</time>
      </trkpt>
      <trkpt lat="41.884411" lon="-8.619524">
        <ele>245.395</ele>
        <time>2015-03-25T14:46:42Z</time>
      </trkpt>
      <trkpt lat="41.884648" lon="-8.619520">
        <ele>247.737</ele>
        <time>2015-03-25T14:46:57Z</time>
      </trkpt>
      <trkpt lat="41.884788" lon="-8.619428">
        <ele>251.047</ele>
        <time>2015-03-25T14:47:08Z</time>
      </trkpt>
      <trkpt lat="41.884830" lon="-8.619394">
        <ele>252.555</ele>
        <time>2015-03-25T14:47:20Z</time>
      </trkpt>
      <trkpt lat="41.884950" lon="-8.619449">
        <ele>253.020</ele>
        <time>2015-03-25T14:48:24Z</time>
      </trkpt>
      <trkpt lat="41.885161" lon="-8.619611">
        <ele>252.547</ele>
        <time>2015-03-25T14:48:53Z</time>
      </trkpt>
      <trkpt lat="41.885331" lon="-8.619894">
        <ele>253.026</ele>
        <time>2015-03-25T14:49:07Z</time>
      </trkpt>
      <trkpt lat="41.885425" lon="-8.620243">
        <ele>255.447</ele>
        <time>2015-03-25T14:49:22Z</time>
      </trkpt>
      <trkpt lat="41.885447" lon="-8.620688">
        <ele>256.311</ele>
        <time>2015-03-25T14:49:36Z</time>
      </trkpt>
      <trkpt lat="41.885556" lon="-8.621153">
        <ele>256.307</ele>
        <time>2015-03-25T14:49:50Z</time>
      </trkpt>
      <trkpt lat="41.885722" lon="-8.621696">
        <ele>256.851</ele>
        <time>2015-03-25T14:50:07Z</time>
      </trkpt>
      <trkpt lat="41.885997" lon="-8.621992">
        <ele>257.884</ele>
        <time>2015-03-25T14:50:22Z</time>
      </trkpt>
      <trkpt lat="41.886271" lon="-8.622097">
        <ele>259.716</ele>
        <time>2015-03-25T14:50:36Z</time>
      </trkpt>
      <trkpt lat="41.886513" lon="-8.622299">
        <ele>260.296</ele>
        <time>2015-03-25T14:50:49Z</time>
      </trkpt>
      <trkpt lat="41.886669" lon="-8.622472">
        <ele>261.144</ele>
        <time>2015-03-25T14:51:01Z</time>
      </trkpt>
      <trkpt lat="41.886810" lon="-8.622682">
        <ele>264.049</ele>
        <time>2015-03-25T14:51:15Z</time>
      </trkpt>
      <trkpt lat="41.886935" lon="-8.622916">
        <ele>265.546</ele>
        <time>2015-03-25T14:51:30Z</time>
      </trkpt>
      <trkpt lat="41.887054" lon="-8.623047">
        <ele>268.893</ele>
        <time>2015-03-25T14:51:41Z</time>
      </trkpt>
      <trkpt lat="41.887174" lon="-8.623267">
        <ele>270.865</ele>
        <time>2015-03-25T14:51:57Z</time>
      </trkpt>
      <trkpt lat="41.887225" lon="-8.623358">
        <ele>272.221</ele>
        <time>2015-03-25T14:52:04Z</time>
      </trkpt>
      <trkpt lat="41.887315" lon="-8.623452">
        <ele>272.707</ele>
        <time>2015-03-25T14:52:10Z</time>
      </trkpt>
      <trkpt lat="41.887425" lon="-8.623625">
        <ele>272.718</ele>
        <time>2015-03-25T14:52:17Z</time>
      </trkpt>
      <trkpt lat="41.887506" lon="-8.623714">
        <ele>275.641</ele>
        <time>2015-03-25T14:52:26Z</time>
      </trkpt>
      <trkpt lat="41.887692" lon="-8.623889">
        <ele>276.553</ele>
        <time>2015-03-25T14:52:41Z</time>
      </trkpt>
      <trkpt lat="41.887827" lon="-8.624052">
        <ele>278.983</ele>
        <time>2015-03-25T14:52:54Z</time>
      </trkpt>
      <trkpt lat="41.887865" lon="-8.624104">
        <ele>278.941</ele>
        <time>2015-03-25T14:52:58Z</time>
      </trkpt>
      <trkpt lat="41.888000" lon="-8.624310">
        <ele>277.556</ele>
        <time>2015-03-25T14:53:07Z</time>
      </trkpt>
      <trkpt lat="41.888098" lon="-8.624451">
        <ele>276.563</ele>
        <time>2015-03-25T14:53:11Z</time>
      </trkpt>
      <trkpt lat="41.888341" lon="-8.624841">
        <ele>272.777</ele>
        <time>2015-03-25T14:53:19Z</time>
      </trkpt>
      <trkpt lat="41.888401" lon="-8.624966">
        <ele>271.761</ele>
        <time>2015-03-25T14:53:21Z</time>
      </trkpt>
      <trkpt lat="41.888471" lon="-8.625099">
        <ele>270.827</ele>
        <time>2015-03-25T14:53:23Z</time>
      </trkpt>
      <trkpt lat="41.888677" lon="-8.625340">
        <ele>267.407</ele>
        <time>2015-03-25T14:53:27Z</time>
      </trkpt>
      <trkpt lat="41.888731" lon="-8.625385">
        <ele>266.456</ele>
        <time>2015-03-25T14:53:28Z</time>
      </trkpt>
      <trkpt lat="41.888805" lon="-8.625554">
        <ele>264.519</ele>
        <time>2015-03-25T14:53:35Z</time>
      </trkpt>
      <trkpt lat="41.888730" lon="-8.625851">
        <ele>263.141</ele>
        <time>2015-03-25T14:54:10Z</time>
      </trkpt>
      <trkpt lat="41.888688" lon="-8.626069">
        <ele>262.671</ele>
        <time>2015-03-25T14:54:20Z</time>
      </trkpt>
      <trkpt lat="41.889024" lon="-8.626153">
        <ele>261.119</ele>
        <time>2015-03-25T14:54:51Z</time>
      </trkpt>
      <trkpt lat="41.889390" lon="-8.626142">
        <ele>258.714</ele>
        <time>2015-03-25T14:54:59Z</time>
      </trkpt>
      <trkpt lat="41.889637" lon="-8.626086">
        <ele>256.381</ele>
        <time>2015-03-25T14:55:04Z</time>
      </trkpt>
      <trkpt lat="41.890384" lon="-8.625888">
        <ele>253.021</ele>
        <time>2015-03-25T14:55:19Z</time>
      </trkpt>
      <trkpt lat="41.890820" lon="-8.625671">
        <ele>249.641</ele>
        <time>2015-03-25T14:55:28Z</time>
      </trkpt>
      <trkpt lat="41.891019" lon="-8.625533">
        <ele>248.205</ele>
        <time>2015-03-25T14:55:37Z</time>
      </trkpt>
      <trkpt lat="41.891126" lon="-8.625315">
        <ele>248.607</ele>
        <time>2015-03-25T14:56:09Z</time>
      </trkpt>
      <trkpt lat="41.891490" lon="-8.625193">
        <ele>248.271</ele>
        <time>2015-03-25T14:56:21Z</time>
      </trkpt>
      <trkpt lat="41.891768" lon="-8.625244">
        <ele>250.114</ele>
        <time>2015-03-25T14:56:33Z</time>
      </trkpt>
      <trkpt lat="41.891969" lon="-8.625123">
        <ele>253.466</ele>
        <time>2015-03-25T14:56:48Z</time>
      </trkpt>
      <trkpt lat="41.892129" lon="-8.624891">
        <ele>255.416</ele>
        <time>2015-03-25T14:57:02Z</time>
      </trkpt>
      <trkpt lat="41.892402" lon="-8.624737">
        <ele>255.974</ele>
        <time>2015-03-25T14:57:18Z</time>
      </trkpt>
      <trkpt lat="41.892694" lon="-8.624595">
        <ele>255.929</ele>
        <time>2015-03-25T14:57:31Z</time>
      </trkpt>
      <trkpt lat="41.893118" lon="-8.624433">
        <ele>253.086</ele>
        <time>2015-03-25T14:57:42Z</time>
      </trkpt>
      <trkpt lat="41.893249" lon="-8.624344">
        <ele>251.573</ele>
        <time>2015-03-25T14:57:45Z</time>
      </trkpt>
      <trkpt lat="41.893336" lon="-8.624287">
        <ele>250.685</ele>
        <time>2015-03-25T14:57:47Z</time>
      </trkpt>
      <trkpt lat="41.894004" lon="-8.624100">
        <ele>249.113</ele>
        <time>2015-03-25T14:58:01Z</time>
      </trkpt>
      <trkpt lat="41.894520" lon="-8.624034">
        <ele>250.107</ele>
        <time>2015-03-25T14:58:16Z</time>
      </trkpt>
      <trkpt lat="41.894844" lon="-8.624004">
        <ele>251.056</ele>
        <time>2015-03-25T14:58:30Z</time>
      </trkpt>
      <trkpt lat="41.895197" lon="-8.623926">
        <ele>247.749</ele>
        <time>2015-03-25T14:58:39Z</time>
      </trkpt>
      <trkpt lat="41.895324" lon="-8.623903">
        <ele>247.251</ele>
        <time>2015-03-25T14:58:41Z</time>
      </trkpt>
      <trkpt lat="41.895550" lon="-8.623970">
        <ele>246.741</ele>
        <time>2015-03-25T14:58:45Z</time>
      </trkpt>
      <trkpt lat="41.896240" lon="-8.624327">
        <ele>242.969</ele>
        <time>2015-03-25T14:58:57Z</time>
      </trkpt>
      <trkpt lat="41.896341" lon="-8.624416">
        <ele>241.494</ele>
        <time>2015-03-25T14:58:59Z</time>
      </trkpt>
      <trkpt lat="41.896531" lon="-8.624516">
        <ele>239.041</ele>
        <time>2015-03-25T14:59:03Z</time>
      </trkpt>
      <trkpt lat="41.896637" lon="-8.624520">
        <ele>238.116</ele>
        <time>2015-03-25T14:59:05Z</time>
      </trkpt>
      <trkpt lat="41.896697" lon="-8.624525">
        <ele>237.176</ele>
        <time>2015-03-25T14:59:06Z</time>
      </trkpt>
      <trkpt lat="41.897010" lon="-8.624614">
        <ele>233.313</ele>
        <time>2015-03-25T14:59:12Z</time>
      </trkpt>
      <trkpt lat="41.897130" lon="-8.624587">
        <ele>231.307</ele>
        <time>2015-03-25T14:59:14Z</time>
      </trkpt>
      <trkpt lat="41.897624" lon="-8.624384">
        <ele>231.310</ele>
        <time>2015-03-25T14:59:26Z</time>
      </trkpt>
      <trkpt lat="41.898081" lon="-8.624166">
        <ele>232.843</ele>
        <time>2015-03-25T14:59:40Z</time>
      </trkpt>
      <trkpt lat="41.898262" lon="-8.624118">
        <ele>227.515</ele>
        <time>2015-03-25T14:59:44Z</time>
      </trkpt>
      <trkpt lat="41.898457" lon="-8.624035">
        <ele>224.695</ele>
        <time>2015-03-25T14:59:48Z</time>
      </trkpt>
      <trkpt lat="41.898545" lon="-8.624032">
        <ele>223.673</ele>
        <time>2015-03-25T14:59:50Z</time>
      </trkpt>
      <trkpt lat="41.898699" lon="-8.624063">
        <ele>220.318</ele>
        <time>2015-03-25T14:59:53Z</time>
      </trkpt>
      <trkpt lat="41.898933" lon="-8.624122">
        <ele>218.465</ele>
        <time>2015-03-25T14:59:57Z</time>
      </trkpt>
      <trkpt lat="41.899091" lon="-8.624128">
        <ele>216.419</ele>
        <time>2015-03-25T15:00:00Z</time>
      </trkpt>
      <trkpt lat="41.899240" lon="-8.624144">
        <ele>214.509</ele>
        <time>2015-03-25T15:00:03Z</time>
      </trkpt>
      <trkpt lat="41.899403" lon="-8.624160">
        <ele>211.619</ele>
        <time>2015-03-25T15:00:07Z</time>
      </trkpt>
      <trkpt lat="41.899560" lon="-8.624163">
        <ele>210.707</ele>
        <time>2015-03-25T15:00:18Z</time>
      </trkpt>
      <trkpt lat="41.899650" lon="-8.624210">
        <ele>211.670</ele>
        <time>2015-03-25T15:19:13Z</time>
      </trkpt>
      <trkpt lat="41.899678" lon="-8.624258">
        <ele>210.723</ele>
        <time>2015-03-25T15:19:17Z</time>
      </trkpt>
      <trkpt lat="41.899692" lon="-8.624323">
        <ele>209.235</ele>
        <time>2015-03-25T15:19:21Z</time>
      </trkpt>
      <trkpt lat="41.899648" lon="-8.624508">
        <ele>206.315</ele>
        <time>2015-03-25T15:19:32Z</time>
      </trkpt>
      <trkpt lat="41.899618" lon="-8.624566">
        <ele>205.443</ele>
        <time>2015-03-25T15:19:34Z</time>
      </trkpt>
      <trkpt lat="41.899646" lon="-8.624660">
        <ele>204.928</ele>
        <time>2015-03-25T15:19:43Z</time>
      </trkpt>
      <trkpt lat="41.899786" lon="-8.624599">
        <ele>203.915</ele>
        <time>2015-03-25T15:21:37Z</time>
      </trkpt>
      <trkpt lat="41.900264" lon="-8.624208">
        <ele>201.594</ele>
        <time>2015-03-25T15:21:54Z</time>
      </trkpt>
      <trkpt lat="41.900607" lon="-8.623746">
        <ele>200.657</ele>
        <time>2015-03-25T15:22:07Z</time>
      </trkpt>
      <trkpt lat="41.900729" lon="-8.623544">
        <ele>197.222</ele>
        <time>2015-03-25T15:22:12Z</time>
      </trkpt>
      <trkpt lat="41.900806" lon="-8.623414">
        <ele>196.707</ele>
        <time>2015-03-25T15:22:15Z</time>
      </trkpt>
      <trkpt lat="41.901338" lon="-8.622887">
        <ele>192.488</ele>
        <time>2015-03-25T15:22:27Z</time>
      </trkpt>
      <trkpt lat="41.901392" lon="-8.622866">
        <ele>192.411</ele>
        <time>2015-03-25T15:22:28Z</time>
      </trkpt>
      <trkpt lat="41.901690" lon="-8.622825">
        <ele>191.443</ele>
        <time>2015-03-25T15:22:34Z</time>
      </trkpt>
      <trkpt lat="41.901650" lon="-8.622945">
        <ele>190.053</ele>
        <time>2015-03-25T15:22:40Z</time>
      </trkpt>
      <trkpt lat="41.901254" lon="-8.623126">
        <ele>188.191</ele>
        <time>2015-03-25T15:22:52Z</time>
      </trkpt>
      <trkpt lat="41.901017" lon="-8.623348">
        <ele>188.176</ele>
        <time>2015-03-25T15:23:01Z</time>
      </trkpt>
      <trkpt lat="41.900972" lon="-8.623613">
        <ele>187.133</ele>
        <time>2015-03-25T15:23:06Z</time>
      </trkpt>
      <trkpt lat="41.900887" lon="-8.624031">
        <ele>182.828</ele>
        <time>2015-03-25T15:23:11Z</time>
      </trkpt>
      <trkpt lat="41.900831" lon="-8.624288">
        <ele>181.489</ele>
        <time>2015-03-25T15:23:14Z</time>
      </trkpt>
      <trkpt lat="41.900954" lon="-8.624647">
        <ele>179.417</ele>
        <time>2015-03-25T15:23:21Z</time>
      </trkpt>
      <trkpt lat="41.901198" lon="-8.624850">
        <ele>177.507</ele>
        <time>2015-03-25T15:23:26Z</time>
      </trkpt>
      <trkpt lat="41.901342" lon="-8.624935">
        <ele>177.091</ele>
        <time>2015-03-25T15:23:29Z</time>
      </trkpt>
      <trkpt lat="41.901586" lon="-8.624964">
        <ele>174.694</ele>
        <time>2015-03-25T15:23:34Z</time>
      </trkpt>
      <trkpt lat="41.901691" lon="-8.624934">
        <ele>174.676</ele>
        <time>2015-03-25T15:23:36Z</time>
      </trkpt>
      <trkpt lat="41.902061" lon="-8.625066">
        <ele>170.886</ele>
        <time>2015-03-25T15:23:42Z</time>
      </trkpt>
      <trkpt lat="41.902829" lon="-8.625259">
        <ele>168.474</ele>
        <time>2015-03-25T15:23:56Z</time>
      </trkpt>
      <trkpt lat="41.903373" lon="-8.625527">
        <ele>166.959</ele>
        <time>2015-03-25T15:24:10Z</time>
      </trkpt>
      <trkpt lat="41.903880" lon="-8.625798">
        <ele>166.086</ele>
        <time>2015-03-25T15:24:25Z</time>
      </trkpt>
      <trkpt lat="41.904129" lon="-8.626166">
        <ele>165.048</ele>
        <time>2015-03-25T15:24:39Z</time>
      </trkpt>
      <trkpt lat="41.904206" lon="-8.626482">
        <ele>166.961</ele>
        <time>2015-03-25T15:24:54Z</time>
      </trkpt>
      <trkpt lat="41.904289" lon="-8.626594">
        <ele>166.917</ele>
        <time>2015-03-25T15:25:06Z</time>
      </trkpt>
      <trkpt lat="41.904348" lon="-8.626684">
        <ele>167.907</ele>
        <time>2015-03-25T15:25:12Z</time>
      </trkpt>
      <trkpt lat="41.904436" lon="-8.626645">
        <ele>168.443</ele>
        <time>2015-03-25T15:25:23Z</time>
      </trkpt>
      <trkpt lat="41.904483" lon="-8.626611">
        <ele>168.476</ele>
        <time>2015-03-25T15:25:49Z</time>
      </trkpt>
      <trkpt lat="41.904779" lon="-8.626535">
        <ele>169.868</ele>
        <time>2015-03-25T15:26:05Z</time>
      </trkpt>
      <trkpt lat="41.905162" lon="-8.626650">
        <ele>169.868</ele>
        <time>2015-03-25T15:26:21Z</time>
      </trkpt>
      <trkpt lat="41.905529" lon="-8.626652">
        <ele>168.476</ele>
        <time>2015-03-25T15:26:34Z</time>
      </trkpt>
      <trkpt lat="41.905772" lon="-8.626600">
        <ele>169.871</ele>
        <time>2015-03-25T15:26:44Z</time>
      </trkpt>
      <trkpt lat="41.906121" lon="-8.626577">
        <ele>171.758</ele>
        <time>2015-03-25T15:27:01Z</time>
      </trkpt>
      <trkpt lat="41.906321" lon="-8.626756">
        <ele>173.237</ele>
        <time>2015-03-25T15:27:14Z</time>
      </trkpt>
      <trkpt lat="41.906583" lon="-8.626708">
        <ele>173.249</ele>
        <time>2015-03-25T15:27:27Z</time>
      </trkpt>
      <trkpt lat="41.907101" lon="-8.626619">
        <ele>171.713</ele>
        <time>2015-03-25T15:27:44Z</time>
      </trkpt>
      <trkpt lat="41.907393" lon="-8.626816">
        <ele>169.807</ele>
        <time>2015-03-25T15:27:56Z</time>
      </trkpt>
      <trkpt lat="41.907823" lon="-8.627035">
        <ele>167.922</ele>
        <time>2015-03-25T15:28:08Z</time>
      </trkpt>
      <trkpt lat="41.908185" lon="-8.627054">
        <ele>168.485</ele>
        <time>2015-03-25T15:28:21Z</time>
      </trkpt>
      <trkpt lat="41.908350" lon="-8.626939">
        <ele>169.877</ele>
        <time>2015-03-25T15:28:29Z</time>
      </trkpt>
      <trkpt lat="41.908622" lon="-8.626645">
        <ele>171.377</ele>
        <time>2015-03-25T15:28:46Z</time>
      </trkpt>
      <trkpt lat="41.908880" lon="-8.626430">
        <ele>172.765</ele>
        <time>2015-03-25T15:29:02Z</time>
      </trkpt>
      <trkpt lat="41.909178" lon="-8.626330">
        <ele>175.120</ele>
        <time>2015-03-25T15:29:19Z</time>
      </trkpt>
      <trkpt lat="41.909269" lon="-8.626337">
        <ele>175.667</ele>
        <time>2015-03-25T15:29:32Z</time>
      </trkpt>
      <trkpt lat="41.909380" lon="-8.626308">
        <ele>176.139</ele>
        <time>2015-03-25T15:30:04Z</time>
      </trkpt>
      <trkpt lat="41.909591" lon="-8.626195">
        <ele>177.501</ele>
        <time>2015-03-25T15:30:17Z</time>
      </trkpt>
      <trkpt lat="41.909811" lon="-8.626046">
        <ele>179.421</ele>
        <time>2015-03-25T15:30:32Z</time>
      </trkpt>
      <trkpt lat="41.910050" lon="-8.625995">
        <ele>180.407</ele>
        <time>2015-03-25T15:30:46Z</time>
      </trkpt>
      <trkpt lat="41.910250" lon="-8.626039">
        <ele>181.872</ele>
        <time>2015-03-25T15:30:59Z</time>
      </trkpt>
      <trkpt lat="41.910476" lon="-8.626055">
        <ele>184.295</ele>
        <time>2015-03-25T15:31:15Z</time>
      </trkpt>
      <trkpt lat="41.910636" lon="-8.626049">
        <ele>187.677</ele>
        <time>2015-03-25T15:31:28Z</time>
      </trkpt>
      <trkpt lat="41.910709" lon="-8.626033">
        <ele>188.657</ele>
        <time>2015-03-25T15:31:34Z</time>
      </trkpt>
      <trkpt lat="41.910799" lon="-8.626021">
        <ele>190.035</ele>
        <time>2015-03-25T15:31:48Z</time>
      </trkpt>
      <trkpt lat="41.910885" lon="-8.626064">
        <ele>191.910</ele>
        <time>2015-03-25T15:31:58Z</time>
      </trkpt>
      <trkpt lat="41.911014" lon="-8.626082">
        <ele>195.367</ele>
        <time>2015-03-25T15:32:15Z</time>
      </trkpt>
      <trkpt lat="41.911130" lon="-8.626142">
        <ele>198.236</ele>
        <time>2015-03-25T15:32:32Z</time>
      </trkpt>
      <trkpt lat="41.911201" lon="-8.626183">
        <ele>198.717</ele>
        <time>2015-03-25T15:32:48Z</time>
      </trkpt>
      <trkpt lat="41.911449" lon="-8.626276">
        <ele>199.618</ele>
        <time>2015-03-25T15:33:05Z</time>
      </trkpt>
      <trkpt lat="41.911836" lon="-8.626453">
        <ele>201.107</ele>
        <time>2015-03-25T15:33:22Z</time>
      </trkpt>
      <trkpt lat="41.912323" lon="-8.626855">
        <ele>202.052</ele>
        <time>2015-03-25T15:33:43Z</time>
      </trkpt>
      <trkpt lat="41.912810" lon="-8.627314">
        <ele>203.045</ele>
        <time>2015-03-25T15:34:00Z</time>
      </trkpt>
      <trkpt lat="41.913256" lon="-8.627464">
        <ele>203.017</ele>
        <time>2015-03-25T15:34:14Z</time>
      </trkpt>
      <trkpt lat="41.913303" lon="-8.627455">
        <ele>203.087</ele>
        <time>2015-03-25T15:34:15Z</time>
      </trkpt>
      <trkpt lat="41.913885" lon="-8.627364">
        <ele>202.095</ele>
        <time>2015-03-25T15:34:28Z</time>
      </trkpt>
      <trkpt lat="41.914304" lon="-8.627326">
        <ele>203.570</ele>
        <time>2015-03-25T15:34:39Z</time>
      </trkpt>
      <trkpt lat="41.914739" lon="-8.627303">
        <ele>203.537</ele>
        <time>2015-03-25T15:34:50Z</time>
      </trkpt>
      <trkpt lat="41.914996" lon="-8.627176">
        <ele>201.512</ele>
        <time>2015-03-25T15:34:56Z</time>
      </trkpt>
      <trkpt lat="41.915127" lon="-8.627158">
        <ele>200.632</ele>
        <time>2015-03-25T15:34:59Z</time>
      </trkpt>
      <trkpt lat="41.915224" lon="-8.627222">
        <ele>202.005</ele>
        <time>2015-03-25T15:35:05Z</time>
      </trkpt>
      <trkpt lat="41.915419" lon="-8.627305">
        <ele>203.907</ele>
        <time>2015-03-25T15:35:19Z</time>
      </trkpt>
      <trkpt lat="41.915554" lon="-8.627362">
        <ele>205.410</ele>
        <time>2015-03-25T15:35:29Z</time>
      </trkpt>
      <trkpt lat="41.915715" lon="-8.627431">
        <ele>206.353</ele>
        <time>2015-03-25T15:35:41Z</time>
      </trkpt>
      <trkpt lat="41.915766" lon="-8.627456">
        <ele>207.335</ele>
        <time>2015-03-25T15:35:45Z</time>
      </trkpt>
      <trkpt lat="41.915858" lon="-8.627494">
        <ele>208.315</ele>
        <time>2015-03-25T15:35:52Z</time>
      </trkpt>
      <trkpt lat="41.915943" lon="-8.627530">
        <ele>209.243</ele>
        <time>2015-03-25T15:35:58Z</time>
      </trkpt>
      <trkpt lat="41.916143" lon="-8.627534">
        <ele>211.628</ele>
        <time>2015-03-25T15:36:12Z</time>
      </trkpt>
      <trkpt lat="41.916338" lon="-8.627515">
        <ele>210.245</ele>
        <time>2015-03-25T15:36:20Z</time>
      </trkpt>
      <trkpt lat="41.916715" lon="-8.627691">
        <ele>210.269</ele>
        <time>2015-03-25T15:36:35Z</time>
      </trkpt>
      <trkpt lat="41.916902" lon="-8.627819">
        <ele>211.604</ele>
        <time>2015-03-25T15:36:44Z</time>
      </trkpt>
      <trkpt lat="41.917282" lon="-8.627927">
        <ele>211.624</ele>
        <time>2015-03-25T15:37:00Z</time>
      </trkpt>
      <trkpt lat="41.917361" lon="-8.627956">
        <ele>211.607</ele>
        <time>2015-03-25T15:37:04Z</time>
      </trkpt>
      <trkpt lat="41.917462" lon="-8.627994">
        <ele>212.675</ele>
        <time>2015-03-25T15:37:10Z</time>
      </trkpt>
      <trkpt lat="41.917768" lon="-8.628058">
        <ele>215.098</ele>
        <time>2015-03-25T15:37:28Z</time>
      </trkpt>
      <trkpt lat="41.918113" lon="-8.628113">
        <ele>215.540</ele>
        <time>2015-03-25T15:37:44Z</time>
      </trkpt>
      <trkpt lat="41.918465" lon="-8.628156">
        <ele>215.510</ele>
        <time>2015-03-25T15:37:58Z</time>
      </trkpt>
      <trkpt lat="41.918775" lon="-8.628209">
        <ele>216.018</ele>
        <time>2015-03-25T15:38:12Z</time>
      </trkpt>
      <trkpt lat="41.919043" lon="-8.628272">
        <ele>216.953</ele>
        <time>2015-03-25T15:38:25Z</time>
      </trkpt>
      <trkpt lat="41.919406" lon="-8.628403">
        <ele>217.940</ele>
        <time>2015-03-25T15:38:43Z</time>
      </trkpt>
      <trkpt lat="41.919761" lon="-8.628503">
        <ele>218.452</ele>
        <time>2015-03-25T15:38:58Z</time>
      </trkpt>
      <trkpt lat="41.919997" lon="-8.628454">
        <ele>216.953</ele>
        <time>2015-03-25T15:39:04Z</time>
      </trkpt>
      <trkpt lat="41.920044" lon="-8.628457">
        <ele>216.408</ele>
        <time>2015-03-25T15:39:05Z</time>
      </trkpt>
      <trkpt lat="41.920490" lon="-8.628548">
        <ele>215.507</ele>
        <time>2015-03-25T15:39:14Z</time>
      </trkpt>
      <trkpt lat="41.920858" lon="-8.628671">
        <ele>215.074</ele>
        <time>2015-03-25T15:39:26Z</time>
      </trkpt>
      <trkpt lat="41.920958" lon="-8.628648">
        <ele>216.477</ele>
        <time>2015-03-25T15:39:32Z</time>
      </trkpt>
      <trkpt lat="41.921220" lon="-8.628438">
        <ele>219.349</ele>
        <time>2015-03-25T15:39:49Z</time>
      </trkpt>
      <trkpt lat="41.921436" lon="-8.628190">
        <ele>221.229</ele>
        <time>2015-03-25T15:40:05Z</time>
      </trkpt>
      <trkpt lat="41.921733" lon="-8.627988">
        <ele>222.777</ele>
        <time>2015-03-25T15:40:21Z</time>
      </trkpt>
      <trkpt lat="41.921962" lon="-8.627930">
        <ele>224.122</ele>
        <time>2015-03-25T15:40:34Z</time>
      </trkpt>
      <trkpt lat="41.922182" lon="-8.627932">
        <ele>226.549</ele>
        <time>2015-03-25T15:40:49Z</time>
      </trkpt>
      <trkpt lat="41.922459" lon="-8.627997">
        <ele>228.047</ele>
        <time>2015-03-25T15:41:05Z</time>
      </trkpt>
      <trkpt lat="41.922699" lon="-8.628175">
        <ele>230.429</ele>
        <time>2015-03-25T15:41:23Z</time>
      </trkpt>
      <trkpt lat="41.922891" lon="-8.628263">
        <ele>231.321</ele>
        <time>2015-03-25T15:41:37Z</time>
      </trkpt>
      <trkpt lat="41.923092" lon="-8.628301">
        <ele>233.707</ele>
        <time>2015-03-25T15:41:51Z</time>
      </trkpt>
      <trkpt lat="41.923325" lon="-8.628266">
        <ele>235.233</ele>
        <time>2015-03-25T15:42:06Z</time>
      </trkpt>
      <trkpt lat="41.923470" lon="-8.628263">
        <ele>237.666</ele>
        <time>2015-03-25T15:42:20Z</time>
      </trkpt>
      <trkpt lat="41.923755" lon="-8.628223">
        <ele>239.598</ele>
        <time>2015-03-25T15:42:38Z</time>
      </trkpt>
      <trkpt lat="41.923998" lon="-8.628148">
        <ele>240.588</ele>
        <time>2015-03-25T15:42:51Z</time>
      </trkpt>
      <trkpt lat="41.924249" lon="-8.628228">
        <ele>241.056</ele>
        <time>2015-03-25T15:43:04Z</time>
      </trkpt>
      <trkpt lat="41.924606" lon="-8.628346">
        <ele>241.061</ele>
        <time>2015-03-25T15:43:19Z</time>
      </trkpt>
      <trkpt lat="41.925073" lon="-8.628551">
        <ele>241.458</ele>
        <time>2015-03-25T15:43:39Z</time>
      </trkpt>
      <trkpt lat="41.925386" lon="-8.628704">
        <ele>243.473</ele>
        <time>2015-03-25T15:43:57Z</time>
      </trkpt>
      <trkpt lat="41.925461" lon="-8.628708">
        <ele>244.885</ele>
        <time>2015-03-25T15:44:01Z</time>
      </trkpt>
      <trkpt lat="41.925500" lon="-8.628635">
        <ele>245.813</ele>
        <time>2015-03-25T15:44:05Z</time>
      </trkpt>
      <trkpt lat="41.925583" lon="-8.628221">
        <ele>248.607</ele>
        <time>2015-03-25T15:44:23Z</time>
      </trkpt>
      <trkpt lat="41.925740" lon="-8.627896">
        <ele>251.526</ele>
        <time>2015-03-25T15:44:40Z</time>
      </trkpt>
      <trkpt lat="41.925834" lon="-8.627553">
        <ele>253.019</ele>
        <time>2015-03-25T15:44:56Z</time>
      </trkpt>
      <trkpt lat="41.925689" lon="-8.627197">
        <ele>254.481</ele>
        <time>2015-03-25T15:45:13Z</time>
      </trkpt>
      <trkpt lat="41.925578" lon="-8.626846">
        <ele>256.351</ele>
        <time>2015-03-25T15:45:29Z</time>
      </trkpt>
      <trkpt lat="41.925769" lon="-8.626689">
        <ele>259.259</ele>
        <time>2015-03-25T15:45:43Z</time>
      </trkpt>
      <trkpt lat="41.926028" lon="-8.626639">
        <ele>261.134</ele>
        <time>2015-03-25T15:45:59Z</time>
      </trkpt>
      <trkpt lat="41.926360" lon="-8.626715">
        <ele>262.681</ele>
        <time>2015-03-25T15:46:17Z</time>
      </trkpt>
      <trkpt lat="41.926706" lon="-8.626640">
        <ele>264.545</ele>
        <time>2015-03-25T15:46:36Z</time>
      </trkpt>
      <trkpt lat="41.926972" lon="-8.626707">
        <ele>265.947</ele>
        <time>2015-03-25T15:46:49Z</time>
      </trkpt>
      <trkpt lat="41.927236" lon="-8.626776">
        <ele>266.411</ele>
        <time>2015-03-25T15:47:02Z</time>
      </trkpt>
      <trkpt lat="41.927572" lon="-8.626818">
        <ele>268.407</ele>
        <time>2015-03-25T15:47:18Z</time>
      </trkpt>
      <trkpt lat="41.927967" lon="-8.626803">
        <ele>268.463</ele>
        <time>2015-03-25T15:47:34Z</time>
      </trkpt>
      <trkpt lat="41.928399" lon="-8.626974">
        <ele>268.446</ele>
        <time>2015-03-25T15:47:49Z</time>
      </trkpt>
      <trkpt lat="41.928898" lon="-8.627244">
        <ele>269.378</ele>
        <time>2015-03-25T15:48:05Z</time>
      </trkpt>
      <trkpt lat="41.929341" lon="-8.627539">
        <ele>271.298</ele>
        <time>2015-03-25T15:48:20Z</time>
      </trkpt>
      <trkpt lat="41.929676" lon="-8.627677">
        <ele>272.746</ele>
        <time>2015-03-25T15:48:34Z</time>
      </trkpt>
      <trkpt lat="41.930025" lon="-8.627908">
        <ele>275.151</ele>
        <time>2015-03-25T15:48:51Z</time>
      </trkpt>
      <trkpt lat="41.930204" lon="-8.628017">
        <ele>276.048</ele>
        <time>2015-03-25T15:49:03Z</time>
      </trkpt>
      <trkpt lat="41.930414" lon="-8.628115">
        <ele>278.451</ele>
        <time>2015-03-25T15:49:16Z</time>
      </trkpt>
      <trkpt lat="41.930642" lon="-8.628134">
        <ele>281.301</ele>
        <time>2015-03-25T15:49:31Z</time>
      </trkpt>
      <trkpt lat="41.930880" lon="-8.628153">
        <ele>283.711</ele>
        <time>2015-03-25T15:49:44Z</time>
      </trkpt>
      <trkpt lat="41.930942" lon="-8.628158">
        <ele>284.707</ele>
        <time>2015-03-25T15:49:48Z</time>
      </trkpt>
      <trkpt lat="41.931241" lon="-8.628134">
        <ele>287.154</ele>
        <time>2015-03-25T15:50:04Z</time>
      </trkpt>
      <trkpt lat="41.931523" lon="-8.628123">
        <ele>287.687</ele>
        <time>2015-03-25T15:50:18Z</time>
      </trkpt>
      <trkpt lat="41.931878" lon="-8.628263">
        <ele>288.149</ele>
        <time>2015-03-25T15:50:31Z</time>
      </trkpt>
      <trkpt lat="41.932002" lon="-8.628228">
        <ele>286.639</ele>
        <time>2015-03-25T15:50:35Z</time>
      </trkpt>
      <trkpt lat="41.932227" lon="-8.628143">
        <ele>285.737</ele>
        <time>2015-03-25T15:50:43Z</time>
      </trkpt>
      <trkpt lat="41.932220" lon="-8.628252">
        <ele>285.722</ele>
        <time>2015-03-25T15:50:49Z</time>
      </trkpt>
      <trkpt lat="41.932197" lon="-8.628624">
        <ele>289.019</ele>
        <time>2015-03-25T15:51:04Z</time>
      </trkpt>
      <trkpt lat="41.932250" lon="-8.628795">
        <ele>289.021</ele>
        <time>2015-03-25T15:51:11Z</time>
      </trkpt>
      <trkpt lat="41.932380" lon="-8.629188">
        <ele>287.641</ele>
        <time>2015-03-25T15:51:22Z</time>
      </trkpt>
      <trkpt lat="41.932500" lon="-8.629362">
        <ele>286.105</ele>
        <time>2015-03-25T15:51:26Z</time>
      </trkpt>
      <trkpt lat="41.932598" lon="-8.629589">
        <ele>285.707</ele>
        <time>2015-03-25T15:51:30Z</time>
      </trkpt>
      <trkpt lat="41.932641" lon="-8.629715">
        <ele>285.271</ele>
        <time>2015-03-25T15:52:16Z</time>
      </trkpt>
      <trkpt lat="41.932887" lon="-8.629921">
        <ele>285.244</ele>
        <time>2015-03-25T15:52:27Z</time>
      </trkpt>
      <trkpt lat="41.932934" lon="-8.629940">
        <ele>284.796</ele>
        <time>2015-03-25T15:52:37Z</time>
      </trkpt>
      <trkpt lat="41.933227" lon="-8.630013">
        <ele>284.796</ele>
        <time>2015-03-25T15:52:53Z</time>
      </trkpt>
      <trkpt lat="41.933588" lon="-8.630249">
        <ele>283.374</ele>
        <time>2015-03-25T15:53:05Z</time>
      </trkpt>
      <trkpt lat="41.933985" lon="-8.630544">
        <ele>281.339</ele>
        <time>2015-03-25T15:53:17Z</time>
      </trkpt>
      <trkpt lat="41.934306" lon="-8.630672">
        <ele>279.486</ele>
        <time>2015-03-25T15:53:31Z</time>
      </trkpt>
      <trkpt lat="41.934417" lon="-8.630751">
        <ele>276.015</ele>
        <time>2015-03-25T15:53:36Z</time>
      </trkpt>
      <trkpt lat="41.934478" lon="-8.630776">
        <ele>274.665</ele>
        <time>2015-03-25T15:53:39Z</time>
      </trkpt>
      <trkpt lat="41.934825" lon="-8.630856">
        <ele>270.811</ele>
        <time>2015-03-25T15:53:51Z</time>
      </trkpt>
      <trkpt lat="41.934970" lon="-8.630939">
        <ele>267.907</ele>
        <time>2015-03-25T15:53:57Z</time>
      </trkpt>
      <trkpt lat="41.935078" lon="-8.630953">
        <ele>265.570</ele>
        <time>2015-03-25T15:54:02Z</time>
      </trkpt>
      <trkpt lat="41.935168" lon="-8.630978">
        <ele>264.523</ele>
        <time>2015-03-25T15:54:36Z</time>
      </trkpt>
      <trkpt lat="41.935191" lon="-8.631056">
        <ele>264.015</ele>
        <time>2015-03-25T15:54:40Z</time>
      </trkpt>
      <trkpt lat="41.935353" lon="-8.631104">
        <ele>264.065</ele>
        <time>2015-03-25T15:54:53Z</time>
      </trkpt>
      <trkpt lat="41.935394" lon="-8.631150">
        <ele>263.123</ele>
        <time>2015-03-25T15:54:55Z</time>
      </trkpt>
      <trkpt lat="41.935494" lon="-8.631277">
        <ele>260.768</ele>
        <time>2015-03-25T15:55:01Z</time>
      </trkpt>
      <trkpt lat="41.935577" lon="-8.631224">
        <ele>259.225</ele>
        <time>2015-03-25T15:55:07Z</time>
      </trkpt>
      <trkpt lat="41.935531" lon="-8.630801">
        <ele>256.381</ele>
        <time>2015-03-25T15:55:19Z</time>
      </trkpt>
      <trkpt lat="41.935467" lon="-8.630569">
        <ele>254.961</ele>
        <time>2015-03-25T15:55:25Z</time>
      </trkpt>
      <trkpt lat="41.935501" lon="-8.630475">
        <ele>253.917</ele>
        <time>2015-03-25T15:55:31Z</time>
      </trkpt>
      <trkpt lat="41.935702" lon="-8.630374">
        <ele>253.407</ele>
        <time>2015-03-25T15:55:42Z</time>
      </trkpt>
      <trkpt lat="41.935959" lon="-8.630337">
        <ele>250.617</ele>
        <time>2015-03-25T15:55:50Z</time>
      </trkpt>
      <trkpt lat="41.936083" lon="-8.630353">
        <ele>249.140</ele>
        <time>2015-03-25T15:55:53Z</time>
      </trkpt>
      <trkpt lat="41.936393" lon="-8.630284">
        <ele>245.382</ele>
        <time>2015-03-25T15:56:02Z</time>
      </trkpt>
      <trkpt lat="41.936560" lon="-8.630152">
        <ele>241.942</ele>
        <time>2015-03-25T15:56:09Z</time>
      </trkpt>
      <trkpt lat="41.936717" lon="-8.630160">
        <ele>239.010</ele>
        <time>2015-03-25T15:56:15Z</time>
      </trkpt>
      <trkpt lat="41.936784" lon="-8.630141">
        <ele>238.135</ele>
        <time>2015-03-25T15:56:18Z</time>
      </trkpt>
      <trkpt lat="41.936893" lon="-8.630090">
        <ele>235.782</ele>
        <time>2015-03-25T15:56:28Z</time>
      </trkpt>
      <trkpt lat="41.937048" lon="-8.630065">
        <ele>233.714</ele>
        <time>2015-03-25T15:56:41Z</time>
      </trkpt>
      <trkpt lat="41.937102" lon="-8.630032">
        <ele>233.354</ele>
        <time>2015-03-25T15:57:19Z</time>
      </trkpt>
      <trkpt lat="41.937379" lon="-8.629861">
        <ele>232.309</ele>
        <time>2015-03-25T15:57:30Z</time>
      </trkpt>
      <trkpt lat="41.937694" lon="-8.629790">
        <ele>230.907</ele>
        <time>2015-03-25T15:57:41Z</time>
      </trkpt>
      <trkpt lat="41.938195" lon="-8.629767">
        <ele>229.970</ele>
        <time>2015-03-25T15:57:53Z</time>
      </trkpt>
      <trkpt lat="41.938423" lon="-8.630161">
        <ele>228.533</ele>
        <time>2015-03-25T15:58:03Z</time>
      </trkpt>
      <trkpt lat="41.938736" lon="-8.630409">
        <ele>226.525</ele>
        <time>2015-03-25T15:58:14Z</time>
      </trkpt>
      <trkpt lat="41.939036" lon="-8.630509">
        <ele>224.685</ele>
        <time>2015-03-25T15:58:23Z</time>
      </trkpt>
      <trkpt lat="41.939243" lon="-8.630586">
        <ele>221.793</ele>
        <time>2015-03-25T15:58:30Z</time>
      </trkpt>
      <trkpt lat="41.939367" lon="-8.630617">
        <ele>219.838</ele>
        <time>2015-03-25T15:58:34Z</time>
      </trkpt>
      <trkpt lat="41.939537" lon="-8.630592">
        <ele>216.095</ele>
        <time>2015-03-25T15:58:39Z</time>
      </trkpt>
      <trkpt lat="41.939924" lon="-8.630612">
        <ele>211.647</ele>
        <time>2015-03-25T15:58:50Z</time>
      </trkpt>
      <trkpt lat="41.940336" lon="-8.630622">
        <ele>209.229</ele>
        <time>2015-03-25T15:59:03Z</time>
      </trkpt>
      <trkpt lat="41.940399" lon="-8.630644">
        <ele>207.321</ele>
        <time>2015-03-25T15:59:12Z</time>
      </trkpt>
      <trkpt lat="41.940476" lon="-8.630691">
        <ele>207.307</ele>
        <time>2015-03-25T15:59:31Z</time>
      </trkpt>
      <trkpt lat="41.940621" lon="-8.630725">
        <ele>205.423</ele>
        <time>2015-03-25T15:59:37Z</time>
      </trkpt>
      <trkpt lat="41.940852" lon="-8.630799">
        <ele>200.146</ele>
        <time>2015-03-25T15:59:41Z</time>
      </trkpt>
      <trkpt lat="41.940986" lon="-8.630843">
        <ele>198.778</ele>
        <time>2015-03-25T15:59:43Z</time>
      </trkpt>
      <trkpt lat="41.941047" lon="-8.630859">
        <ele>198.798</ele>
        <time>2015-03-25T15:59:44Z</time>
      </trkpt>
      <trkpt lat="41.941261" lon="-8.630851">
        <ele>197.276</ele>
        <time>2015-03-25T15:59:48Z</time>
      </trkpt>
      <trkpt lat="41.941595" lon="-8.630882">
        <ele>193.821</ele>
        <time>2015-03-25T15:59:56Z</time>
      </trkpt>
      <trkpt lat="41.941706" lon="-8.630903">
        <ele>190.528</ele>
        <time>2015-03-25T15:59:59Z</time>
      </trkpt>
      <trkpt lat="41.941951" lon="-8.630873">
        <ele>186.618</ele>
        <time>2015-03-25T16:00:05Z</time>
      </trkpt>
      <trkpt lat="41.942223" lon="-8.630840">
        <ele>181.498</ele>
        <time>2015-03-25T16:00:10Z</time>
      </trkpt>
      <trkpt lat="41.942566" lon="-8.630718">
        <ele>175.617</ele>
        <time>2015-03-25T16:00:14Z</time>
      </trkpt>
      <trkpt lat="41.942882" lon="-8.630667">
        <ele>172.207</ele>
        <time>2015-03-25T16:00:17Z</time>
      </trkpt>
      <trkpt lat="41.943238" lon="-8.630663">
        <ele>167.920</ele>
        <time>2015-03-25T16:00:20Z</time>
      </trkpt>
      <trkpt lat="41.943485" lon="-8.630650">
        <ele>163.683</ele>
        <time>2015-03-25T16:00:22Z</time>
      </trkpt>
      <trkpt lat="41.943827" lon="-8.630608">
        <ele>159.295</ele>
        <time>2015-03-25T16:00:25Z</time>
      </trkpt>
      <trkpt lat="41.944015" lon="-8.630572">
        <ele>155.495</ele>
        <time>2015-03-25T16:00:27Z</time>
      </trkpt>
      <trkpt lat="41.944106" lon="-8.630543">
        <ele>154.453</ele>
        <time>2015-03-25T16:00:28Z</time>
      </trkpt>
      <trkpt lat="41.944273" lon="-8.630457">
        <ele>153.578</ele>
        <time>2015-03-25T16:00:30Z</time>
      </trkpt>
      <trkpt lat="41.944419" lon="-8.630400">
        <ele>153.545</ele>
        <time>2015-03-25T16:00:32Z</time>
      </trkpt>
      <trkpt lat="41.944643" lon="-8.630299">
        <ele>157.849</ele>
        <time>2015-03-25T16:00:41Z</time>
      </trkpt>
      <trkpt lat="41.944778" lon="-8.630032">
        <ele>161.202</ele>
        <time>2015-03-25T16:00:55Z</time>
      </trkpt>
      <trkpt lat="41.944911" lon="-8.629887">
        <ele>162.622</ele>
        <time>2015-03-25T16:01:07Z</time>
      </trkpt>
      <trkpt lat="41.945007" lon="-8.629632">
        <ele>165.007</ele>
        <time>2015-03-25T16:01:23Z</time>
      </trkpt>
      <trkpt lat="41.945139" lon="-8.629443">
        <ele>167.913</ele>
        <time>2015-03-25T16:01:38Z</time>
      </trkpt>
      <trkpt lat="41.945353" lon="-8.629512">
        <ele>168.476</ele>
        <time>2015-03-25T16:01:51Z</time>
      </trkpt>
      <trkpt lat="41.945501" lon="-8.629582">
        <ele>167.928</ele>
        <time>2015-03-25T16:02:00Z</time>
      </trkpt>
      <trkpt lat="41.945614" lon="-8.629637">
        <ele>166.948</ele>
        <time>2015-03-25T16:02:20Z</time>
      </trkpt>
      <trkpt lat="41.945967" lon="-8.629828">
        <ele>163.626</ele>
        <time>2015-03-25T16:02:31Z</time>
      </trkpt>
      <trkpt lat="41.946026" lon="-8.629869">
        <ele>163.121</ele>
        <time>2015-03-25T16:02:33Z</time>
      </trkpt>
      <trkpt lat="41.946164" lon="-8.630011">
        <ele>159.788</ele>
        <time>2015-03-25T16:02:40Z</time>
      </trkpt>
      <trkpt lat="41.946280" lon="-8.630285">
        <ele>155.445</ele>
        <time>2015-03-25T16:02:49Z</time>
      </trkpt>
      <trkpt lat="41.946477" lon="-8.630485">
        <ele>152.547</ele>
        <time>2015-03-25T16:02:58Z</time>
      </trkpt>
      <trkpt lat="41.946681" lon="-8.630574">
        <ele>149.611</ele>
        <time>2015-03-25T16:03:09Z</time>
      </trkpt>
      <trkpt lat="41.946791" lon="-8.630584">
        <ele>145.807</ele>
        <time>2015-03-25T16:03:14Z</time>
      </trkpt>
      <trkpt lat="41.946981" lon="-8.630718">
        <ele>142.963</ele>
        <time>2015-03-25T16:03:22Z</time>
      </trkpt>
      <trkpt lat="41.947084" lon="-8.630785">
        <ele>139.596</ele>
        <time>2015-03-25T16:03:26Z</time>
      </trkpt>
      <trkpt lat="41.947199" lon="-8.630805">
        <ele>136.238</ele>
        <time>2015-03-25T16:03:29Z</time>
      </trkpt>
      <trkpt lat="41.947316" lon="-8.630779">
        <ele>133.348</ele>
        <time>2015-03-25T16:03:32Z</time>
      </trkpt>
      <trkpt lat="41.947457" lon="-8.630718">
        <ele>130.966</ele>
        <time>2015-03-25T16:03:36Z</time>
      </trkpt>
      <trkpt lat="41.947624" lon="-8.630671">
        <ele>126.161</ele>
        <time>2015-03-25T16:03:40Z</time>
      </trkpt>
      <trkpt lat="41.947693" lon="-8.630660">
        <ele>124.648</ele>
        <time>2015-03-25T16:03:42Z</time>
      </trkpt>
      <trkpt lat="41.947792" lon="-8.630679">
        <ele>124.692</ele>
        <time>2015-03-25T16:03:45Z</time>
      </trkpt>
      <trkpt lat="41.948246" lon="-8.631154">
        <ele>121.373</ele>
        <time>2015-03-25T16:03:54Z</time>
      </trkpt>
      <trkpt lat="41.948394" lon="-8.631278">
        <ele>119.820</ele>
        <time>2015-03-25T16:03:56Z</time>
      </trkpt>
      <trkpt lat="41.948472" lon="-8.631353">
        <ele>119.307</ele>
        <time>2015-03-25T16:03:57Z</time>
      </trkpt>
      <trkpt lat="41.948759" lon="-8.631868">
        <ele>116.998</ele>
        <time>2015-03-25T16:04:02Z</time>
      </trkpt>
      <trkpt lat="41.949258" lon="-8.632307">
        <ele>113.191</ele>
        <time>2015-03-25T16:04:09Z</time>
      </trkpt>
      <trkpt lat="41.949959" lon="-8.632712">
        <ele>108.343</ele>
        <time>2015-03-25T16:04:18Z</time>
      </trkpt>
      <trkpt lat="41.950331" lon="-8.633081">
        <ele>104.923</ele>
        <time>2015-03-25T16:04:23Z</time>
      </trkpt>
      <trkpt lat="41.950405" lon="-8.633155">
        <ele>104.421</ele>
        <time>2015-03-25T16:04:24Z</time>
      </trkpt>
      <trkpt lat="41.950647" lon="-8.633370">
        <ele>101.146</ele>
        <time>2015-03-25T16:04:27Z</time>
      </trkpt>
      <trkpt lat="41.950920" lon="-8.633528">
        <ele>99.293</ele>
        <time>2015-03-25T16:04:30Z</time>
      </trkpt>
      <trkpt lat="41.951108" lon="-8.633632">
        <ele>97.749</ele>
        <time>2015-03-25T16:04:32Z</time>
      </trkpt>
      <trkpt lat="41.951469" lon="-8.633786">
        <ele>94.802</ele>
        <time>2015-03-25T16:04:36Z</time>
      </trkpt>
      <trkpt lat="41.951833" lon="-8.633953">
        <ele>91.022</ele>
        <time>2015-03-25T16:04:40Z</time>
      </trkpt>
      <trkpt lat="41.952024" lon="-8.634069">
        <ele>88.107</ele>
        <time>2015-03-25T16:04:42Z</time>
      </trkpt>
      <trkpt lat="41.952335" lon="-8.634218">
        <ele>84.383</ele>
        <time>2015-03-25T16:04:45Z</time>
      </trkpt>
      <trkpt lat="41.952663" lon="-8.634340">
        <ele>79.996</ele>
        <time>2015-03-25T16:04:48Z</time>
      </trkpt>
      <trkpt lat="41.952951" lon="-8.634552">
        <ele>78.068</ele>
        <time>2015-03-25T16:04:52Z</time>
      </trkpt>
      <trkpt lat="41.953056" lon="-8.634555">
        <ele>76.168</ele>
        <time>2015-03-25T16:04:58Z</time>
      </trkpt>
      <trkpt lat="41.953137" lon="-8.634535">
        <ele>75.646</ele>
        <time>2015-03-25T16:05:35Z</time>
      </trkpt>
      <trkpt lat="41.953471" lon="-8.634436">
        <ele>73.721</ele>
        <time>2015-03-25T16:05:49Z</time>
      </trkpt>
      <trkpt lat="41.953766" lon="-8.634257">
        <ele>73.238</ele>
        <time>2015-03-25T16:06:02Z</time>
      </trkpt>
      <trkpt lat="41.954067" lon="-8.634172">
        <ele>72.713</ele>
        <time>2015-03-25T16:06:15Z</time>
      </trkpt>
      <trkpt lat="41.954334" lon="-8.633911">
        <ele>72.243</ele>
        <time>2015-03-25T16:06:27Z</time>
      </trkpt>
      <trkpt lat="41.954606" lon="-8.633735">
        <ele>73.707</ele>
        <time>2015-03-25T16:06:36Z</time>
      </trkpt>
      <trkpt lat="41.955144" lon="-8.633178">
        <ele>75.607</ele>
        <time>2015-03-25T16:06:57Z</time>
      </trkpt>
      <trkpt lat="41.955664" lon="-8.632832">
        <ele>78.040</ele>
        <time>2015-03-25T16:07:15Z</time>
      </trkpt>
      <trkpt lat="41.956103" lon="-8.632832">
        <ele>81.973</ele>
        <time>2015-03-25T16:07:29Z</time>
      </trkpt>
      <trkpt lat="41.956546" lon="-8.632841">
        <ele>80.985</ele>
        <time>2015-03-25T16:07:42Z</time>
      </trkpt>
      <trkpt lat="41.956840" lon="-8.632844">
        <ele>78.095</ele>
        <time>2015-03-25T16:07:47Z</time>
      </trkpt>
      <trkpt lat="41.957350" lon="-8.632734">
        <ele>73.793</ele>
        <time>2015-03-25T16:07:54Z</time>
      </trkpt>
      <trkpt lat="41.957593" lon="-8.632664">
        <ele>72.228</ele>
        <time>2015-03-25T16:07:57Z</time>
      </trkpt>
      <trkpt lat="41.957929" lon="-8.632579">
        <ele>70.375</ele>
        <time>2015-03-25T16:08:01Z</time>
      </trkpt>
      <trkpt lat="41.958834" lon="-8.632557">
        <ele>69.415</ele>
        <time>2015-03-25T16:08:13Z</time>
      </trkpt>
      <trkpt lat="41.959487" lon="-8.632320">
        <ele>68.465</ele>
        <time>2015-03-25T16:08:26Z</time>
      </trkpt>
      <trkpt lat="41.959785" lon="-8.632207">
        <ele>69.411</ele>
        <time>2015-03-25T16:08:34Z</time>
      </trkpt>
      <trkpt lat="41.960505" lon="-8.631990">
        <ele>71.307</ele>
        <time>2015-03-25T16:08:54Z</time>
      </trkpt>
      <trkpt lat="41.960969" lon="-8.631902">
        <ele>72.720</ele>
        <time>2015-03-25T16:09:10Z</time>
      </trkpt>
      <trkpt lat="41.961376" lon="-8.631760">
        <ele>76.143</ele>
        <time>2015-03-25T16:09:27Z</time>
      </trkpt>
      <trkpt lat="41.961810" lon="-8.631549">
        <ele>78.585</ele>
        <time>2015-03-25T16:09:46Z</time>
      </trkpt>
      <trkpt lat="41.962286" lon="-8.631440">
        <ele>78.575</ele>
        <time>2015-03-25T16:10:02Z</time>
      </trkpt>
      <trkpt lat="41.962560" lon="-8.631286">
        <ele>76.633</ele>
        <time>2015-03-25T16:10:09Z</time>
      </trkpt>
      <trkpt lat="41.962950" lon="-8.630991">
        <ele>76.178</ele>
        <time>2015-03-25T16:10:22Z</time>
      </trkpt>
      <trkpt lat="41.963114" lon="-8.630970">
        <ele>77.525</ele>
        <time>2015-03-25T16:10:27Z</time>
      </trkpt>
      <trkpt lat="41.963648" lon="-8.630868">
        <ele>77.096</ele>
        <time>2015-03-25T16:10:42Z</time>
      </trkpt>
      <trkpt lat="41.964032" lon="-8.630755">
        <ele>76.131</ele>
        <time>2015-03-25T16:10:53Z</time>
      </trkpt>
      <trkpt lat="41.964679" lon="-8.630783">
        <ele>73.724</ele>
        <time>2015-03-25T16:11:08Z</time>
      </trkpt>
      <trkpt lat="41.964988" lon="-8.630914">
        <ele>73.707</ele>
        <time>2015-03-25T16:11:19Z</time>
      </trkpt>
      <trkpt lat="41.965406" lon="-8.631095">
        <ele>73.758</ele>
        <time>2015-03-25T16:11:32Z</time>
      </trkpt>
      <trkpt lat="41.965707" lon="-8.631500">
        <ele>73.241</ele>
        <time>2015-03-25T16:11:45Z</time>
      </trkpt>
      <trkpt lat="41.966110" lon="-8.631799">
        <ele>71.883</ele>
        <time>2015-03-25T16:11:57Z</time>
      </trkpt>
      <trkpt lat="41.966378" lon="-8.631970">
        <ele>71.393</ele>
        <time>2015-03-25T16:12:05Z</time>
      </trkpt>
      <trkpt lat="41.966656" lon="-8.632158">
        <ele>70.841</ele>
        <time>2015-03-25T16:12:13Z</time>
      </trkpt>
      <trkpt lat="41.966950" lon="-8.632346">
        <ele>69.816</ele>
        <time>2015-03-25T16:12:21Z</time>
      </trkpt>
      <trkpt lat="41.967485" lon="-8.632600">
        <ele>68.933</ele>
        <time>2015-03-25T16:12:35Z</time>
      </trkpt>
      <trkpt lat="41.967931" lon="-8.632668">
        <ele>68.437</ele>
        <time>2015-03-25T16:12:47Z</time>
      </trkpt>
      <trkpt lat="41.968408" lon="-8.632642">
        <ele>67.949</ele>
        <time>2015-03-25T16:12:59Z</time>
      </trkpt>
      <trkpt lat="41.968986" lon="-8.632752">
        <ele>67.913</ele>
        <time>2015-03-25T16:13:14Z</time>
      </trkpt>
      <trkpt lat="41.969291" lon="-8.632876">
        <ele>67.907</ele>
        <time>2015-03-25T16:13:26Z</time>
      </trkpt>
      <trkpt lat="41.969671" lon="-8.632989">
        <ele>67.942</ele>
        <time>2015-03-25T16:13:40Z</time>
      </trkpt>
      <trkpt lat="41.969998" lon="-8.632975">
        <ele>67.935</ele>
        <time>2015-03-25T16:13:52Z</time>
      </trkpt>
      <trkpt lat="41.970650" lon="-8.632986">
        <ele>68.927</ele>
        <time>2015-03-25T16:14:11Z</time>
      </trkpt>
      <trkpt lat="41.971082" lon="-8.633037">
        <ele>69.457</ele>
        <time>2015-03-25T16:14:24Z</time>
      </trkpt>
      <trkpt lat="41.971634" lon="-8.633073">
        <ele>67.945</ele>
        <time>2015-03-25T16:14:39Z</time>
      </trkpt>
      <trkpt lat="41.971932" lon="-8.633111">
        <ele>68.990</ele>
        <time>2015-03-25T16:14:47Z</time>
      </trkpt>
      <trkpt lat="41.972319" lon="-8.633204">
        <ele>69.427</ele>
        <time>2015-03-25T16:14:57Z</time>
      </trkpt>
      <trkpt lat="41.972406" lon="-8.633238">
        <ele>69.421</ele>
        <time>2015-03-25T16:14:59Z</time>
      </trkpt>
      <trkpt lat="41.972670" lon="-8.633305">
        <ele>69.441</ele>
        <time>2015-03-25T16:15:06Z</time>
      </trkpt>
      <trkpt lat="41.972916" lon="-8.633361">
        <ele>69.405</ele>
        <time>2015-03-25T16:15:12Z</time>
      </trkpt>
      <trkpt lat="41.973099" lon="-8.633423">
        <ele>68.407</ele>
        <time>2015-03-25T16:15:16Z</time>
      </trkpt>
      <trkpt lat="41.973631" lon="-8.633542">
        <ele>67.071</ele>
        <time>2015-03-25T16:15:31Z</time>
      </trkpt>
      <trkpt lat="41.974219" lon="-8.633687">
        <ele>66.014</ele>
        <time>2015-03-25T16:15:45Z</time>
      </trkpt>
      <trkpt lat="41.974299" lon="-8.633708">
        <ele>66.056</ele>
        <time>2015-03-25T16:15:47Z</time>
      </trkpt>
      <trkpt lat="41.974447" lon="-8.633740">
        <ele>65.556</ele>
        <time>2015-03-25T16:15:51Z</time>
      </trkpt>
      <trkpt lat="41.974583" lon="-8.633781">
        <ele>67.084</ele>
        <time>2015-03-25T16:15:55Z</time>
      </trkpt>
      <trkpt lat="41.975141" lon="-8.633874">
        <ele>67.439</ele>
        <time>2015-03-25T16:16:12Z</time>
      </trkpt>
      <trkpt lat="41.975654" lon="-8.633978">
        <ele>66.576</ele>
        <time>2015-03-25T16:16:27Z</time>
      </trkpt>
      <trkpt lat="41.975891" lon="-8.634025">
        <ele>65.043</ele>
        <time>2015-03-25T16:16:33Z</time>
      </trkpt>
      <trkpt lat="41.976200" lon="-8.634104">
        <ele>62.664</ele>
        <time>2015-03-25T16:16:39Z</time>
      </trkpt>
      <trkpt lat="41.976548" lon="-8.634195">
        <ele>59.310</ele>
        <time>2015-03-25T16:16:44Z</time>
      </trkpt>
      <trkpt lat="41.976714" lon="-8.634230">
        <ele>57.807</ele>
        <time>2015-03-25T16:16:46Z</time>
      </trkpt>
      <trkpt lat="41.977320" lon="-8.634307">
        <ele>54.583</ele>
        <time>2015-03-25T16:16:54Z</time>
      </trkpt>
      <trkpt lat="41.977373" lon="-8.634307">
        <ele>54.026</ele>
        <time>2015-03-25T16:16:55Z</time>
      </trkpt>
      <trkpt lat="41.977772" lon="-8.634045">
        <ele>52.518</ele>
        <time>2015-03-25T16:17:04Z</time>
      </trkpt>
      <trkpt lat="41.977881" lon="-8.634080">
        <ele>51.678</ele>
        <time>2015-03-25T16:17:07Z</time>
      </trkpt>
      <trkpt lat="41.978317" lon="-8.634260">
        <ele>50.616</ele>
        <time>2015-03-25T16:17:19Z</time>
      </trkpt>
      <trkpt lat="41.978436" lon="-8.634339">
        <ele>50.641</ele>
        <time>2015-03-25T16:17:22Z</time>
      </trkpt>
      <trkpt lat="41.978546" lon="-8.634398">
        <ele>50.178</ele>
        <time>2015-03-25T16:17:30Z</time>
      </trkpt>
      <trkpt lat="41.978883" lon="-8.634622">
        <ele>48.282</ele>
        <time>2015-03-25T16:18:06Z</time>
      </trkpt>
      <trkpt lat="41.979218" lon="-8.634653">
        <ele>45.843</ele>
        <time>2015-03-25T16:18:15Z</time>
      </trkpt>
      <trkpt lat="41.979473" lon="-8.634566">
        <ele>43.917</ele>
        <time>2015-03-25T16:18:25Z</time>
      </trkpt>
      <trkpt lat="41.979629" lon="-8.634569">
        <ele>42.907</ele>
        <time>2015-03-25T16:18:36Z</time>
      </trkpt>
      <trkpt lat="41.979819" lon="-8.634594">
        <ele>42.097</ele>
        <time>2015-03-25T16:19:08Z</time>
      </trkpt>
      <trkpt lat="41.980029" lon="-8.634666">
        <ele>39.680</ele>
        <time>2015-03-25T16:19:20Z</time>
      </trkpt>
      <trkpt lat="41.980276" lon="-8.634675">
        <ele>38.132</ele>
        <time>2015-03-25T16:19:33Z</time>
      </trkpt>
      <trkpt lat="41.980438" lon="-8.634702">
        <ele>38.122</ele>
        <time>2015-03-25T16:19:41Z</time>
      </trkpt>
      <trkpt lat="41.980792" lon="-8.634772">
        <ele>35.780</ele>
        <time>2015-03-25T16:19:55Z</time>
      </trkpt>
      <trkpt lat="41.981071" lon="-8.634788">
        <ele>33.815</ele>
        <time>2015-03-25T16:20:06Z</time>
      </trkpt>
      <trkpt lat="41.981404" lon="-8.634807">
        <ele>32.862</ele>
        <time>2015-03-25T16:20:19Z</time>
      </trkpt>
      <trkpt lat="41.981758" lon="-8.634898">
        <ele>31.437</ele>
        <time>2015-03-25T16:20:31Z</time>
      </trkpt>
      <trkpt lat="41.982134" lon="-8.634714">
        <ele>29.549</ele>
        <time>2015-03-25T16:20:42Z</time>
      </trkpt>
      <trkpt lat="41.982505" lon="-8.634309">
        <ele>29.013</ele>
        <time>2015-03-25T16:20:55Z</time>
      </trkpt>
      <trkpt lat="41.982828" lon="-8.633954">
        <ele>29.007</ele>
        <time>2015-03-25T16:21:07Z</time>
      </trkpt>
      <trkpt lat="41.983212" lon="-8.633789">
        <ele>25.662</ele>
        <time>2015-03-25T16:21:15Z</time>
      </trkpt>
      <trkpt lat="41.983582" lon="-8.633568">
        <ele>22.375</ele>
        <time>2015-03-25T16:21:21Z</time>
      </trkpt>
      <trkpt lat="41.983786" lon="-8.633370">
        <ele>22.367</ele>
        <time>2015-03-25T16:21:26Z</time>
      </trkpt>
      <trkpt lat="41.983954" lon="-8.633260">
        <ele>21.897</ele>
        <time>2015-03-25T16:21:31Z</time>
      </trkpt>
      <trkpt lat="41.984275" lon="-8.633247">
        <ele>23.295</ele>
        <time>2015-03-25T16:21:43Z</time>
      </trkpt>
      <trkpt lat="41.984418" lon="-8.633308">
        <ele>25.640</ele>
        <time>2015-03-25T16:21:52Z</time>
      </trkpt>
      <trkpt lat="41.984581" lon="-8.633549">
        <ele>26.667</ele>
        <time>2015-03-25T16:22:06Z</time>
      </trkpt>
      <trkpt lat="41.984818" lon="-8.633753">
        <ele>27.178</ele>
        <time>2015-03-25T16:22:17Z</time>
      </trkpt>
      <trkpt lat="41.985150" lon="-8.633993">
        <ele>27.133</ele>
        <time>2015-03-25T16:22:32Z</time>
      </trkpt>
      <trkpt lat="41.985433" lon="-8.634167">
        <ele>28.526</ele>
        <time>2015-03-25T16:22:45Z</time>
      </trkpt>
      <trkpt lat="41.985702" lon="-8.634377">
        <ele>30.407</ele>
        <time>2015-03-25T16:23:01Z</time>
      </trkpt>
      <trkpt lat="41.985946" lon="-8.634535">
        <ele>31.916</ele>
        <time>2015-03-25T16:23:14Z</time>
      </trkpt>
      <trkpt lat="41.986072" lon="-8.634568">
        <ele>33.819</ele>
        <time>2015-03-25T16:23:22Z</time>
      </trkpt>
      <trkpt lat="41.986130" lon="-8.634610">
        <ele>33.891</ele>
        <time>2015-03-25T16:23:27Z</time>
      </trkpt>
      <trkpt lat="41.986264" lon="-8.634809">
        <ele>36.291</ele>
        <time>2015-03-25T16:23:43Z</time>
      </trkpt>
      <trkpt lat="41.986422" lon="-8.635041">
        <ele>39.149</ele>
        <time>2015-03-25T16:24:00Z</time>
      </trkpt>
      <trkpt lat="41.986479" lon="-8.635086">
        <ele>39.624</ele>
        <time>2015-03-25T16:24:04Z</time>
      </trkpt>
      <trkpt lat="41.986711" lon="-8.635236">
        <ele>40.541</ele>
        <time>2015-03-25T16:24:19Z</time>
      </trkpt>
      <trkpt lat="41.986975" lon="-8.635374">
        <ele>41.026</ele>
        <time>2015-03-25T16:24:33Z</time>
      </trkpt>
      <trkpt lat="41.987293" lon="-8.635466">
        <ele>42.047</ele>
        <time>2015-03-25T16:24:47Z</time>
      </trkpt>
      <trkpt lat="41.987700" lon="-8.635422">
        <ele>42.011</ele>
        <time>2015-03-25T16:25:02Z</time>
      </trkpt>
      <trkpt lat="41.988238" lon="-8.635264">
        <ele>42.907</ele>
        <time>2015-03-25T16:25:17Z</time>
      </trkpt>
      <trkpt lat="41.988595" lon="-8.635103">
        <ele>41.041</ele>
        <time>2015-03-25T16:25:27Z</time>
      </trkpt>
      <trkpt lat="41.989203" lon="-8.634940">
        <ele>40.584</ele>
        <time>2015-03-25T16:25:44Z</time>
      </trkpt>
      <trkpt lat="41.989746" lon="-8.635007">
        <ele>42.486</ele>
        <time>2015-03-25T16:25:59Z</time>
      </trkpt>
      <trkpt lat="41.990445" lon="-8.635146">
        <ele>42.436</ele>
        <time>2015-03-25T16:26:18Z</time>
      </trkpt>
      <trkpt lat="41.990788" lon="-8.635235">
        <ele>38.654</ele>
        <time>2015-03-25T16:26:27Z</time>
      </trkpt>
      <trkpt lat="41.991361" lon="-8.635401">
        <ele>35.279</ele>
        <time>2015-03-25T16:26:37Z</time>
      </trkpt>
      <trkpt lat="41.991582" lon="-8.635488">
        <ele>34.786</ele>
        <time>2015-03-25T16:26:41Z</time>
      </trkpt>
      <trkpt lat="41.991926" lon="-8.635498">
        <ele>31.427</ele>
        <time>2015-03-25T16:26:51Z</time>
      </trkpt>
      <trkpt lat="41.992146" lon="-8.635511">
        <ele>28.568</ele>
        <time>2015-03-25T16:26:57Z</time>
      </trkpt>
      <trkpt lat="41.992551" lon="-8.635550">
        <ele>24.214</ele>
        <time>2015-03-25T16:27:04Z</time>
      </trkpt>
      <trkpt lat="41.992686" lon="-8.635558">
        <ele>23.207</ele>
        <time>2015-03-25T16:27:06Z</time>
      </trkpt>
      <trkpt lat="41.993293" lon="-8.635529">
        <ele>20.341</ele>
        <time>2015-03-25T16:27:17Z</time>
      </trkpt>
      <trkpt lat="41.993354" lon="-8.635515">
        <ele>20.384</ele>
        <time>2015-03-25T16:27:26Z</time>
      </trkpt>
      <trkpt lat="41.993481" lon="-8.635577">
        <ele>20.366</ele>
        <time>2015-03-25T16:27:41Z</time>
      </trkpt>
      <trkpt lat="41.993575" lon="-8.635608">
        <ele>21.346</ele>
        <time>2015-03-25T16:27:45Z</time>
      </trkpt>
      <trkpt lat="41.993628" lon="-8.635620">
        <ele>21.314</ele>
        <time>2015-03-25T16:27:47Z</time>
      </trkpt>
      <trkpt lat="41.993702" lon="-8.635587">
        <ele>20.369</ele>
        <time>2015-03-25T16:27:56Z</time>
      </trkpt>
      <trkpt lat="41.993893" lon="-8.635607">
        <ele>21.876</ele>
        <time>2015-03-25T16:28:13Z</time>
      </trkpt>
      <trkpt lat="41.993948" lon="-8.635608">
        <ele>22.389</ele>
        <time>2015-03-25T16:28:28Z</time>
      </trkpt>
      <trkpt lat="41.994190" lon="-8.635625">
        <ele>23.206</ele>
        <time>2015-03-25T16:29:03Z</time>
      </trkpt>
      <trkpt lat="41.994351" lon="-8.635668">
        <ele>24.226</ele>
        <time>2015-03-25T16:29:13Z</time>
      </trkpt>
      <trkpt lat="41.994612" lon="-8.635719">
        <ele>25.607</ele>
        <time>2015-03-25T16:29:30Z</time>
      </trkpt>
      <trkpt lat="41.994806" lon="-8.635796">
        <ele>28.037</ele>
        <time>2015-03-25T16:29:46Z</time>
      </trkpt>
      <trkpt lat="41.994976" lon="-8.635874">
        <ele>29.950</ele>
        <time>2015-03-25T16:30:00Z</time>
      </trkpt>
      <trkpt lat="41.995225" lon="-8.635923">
        <ele>32.842</ele>
        <time>2015-03-25T16:30:16Z</time>
      </trkpt>
      <trkpt lat="41.995394" lon="-8.635843">
        <ele>33.892</ele>
        <time>2015-03-25T16:30:26Z</time>
      </trkpt>
      <trkpt lat="41.995792" lon="-8.635777">
        <ele>33.850</ele>
        <time>2015-03-25T16:30:42Z</time>
      </trkpt>
      <trkpt lat="41.996251" lon="-8.635795">
        <ele>33.895</ele>
        <time>2015-03-25T16:30:58Z</time>
      </trkpt>
      <trkpt lat="41.996782" lon="-8.635716">
        <ele>33.872</ele>
        <time>2015-03-25T16:31:15Z</time>
      </trkpt>
      <trkpt lat="41.997235" lon="-8.635674">
        <ele>33.897</ele>
        <time>2015-03-25T16:31:27Z</time>
      </trkpt>
      <trkpt lat="41.997718" lon="-8.635757">
        <ele>32.323</ele>
        <time>2015-03-25T16:31:40Z</time>
      </trkpt>
      <trkpt lat="41.998268" lon="-8.635809">
        <ele>31.925</ele>
        <time>2015-03-25T16:31:55Z</time>
      </trkpt>
      <trkpt lat="41.998615" lon="-8.635893">
        <ele>31.907</ele>
        <time>2015-03-25T16:32:04Z</time>
      </trkpt>
      <trkpt lat="41.999013" lon="-8.635972">
        <ele>31.978</ele>
        <time>2015-03-25T16:32:14Z</time>
      </trkpt>
      <trkpt lat="41.999206" lon="-8.636056">
        <ele>31.471</ele>
        <time>2015-03-25T16:32:19Z</time>
      </trkpt>
      <trkpt lat="41.999601" lon="-8.636188">
        <ele>30.463</ele>
        <time>2015-03-25T16:32:29Z</time>
      </trkpt>
      <trkpt lat="41.999856" lon="-8.636290">
        <ele>30.493</ele>
        <time>2015-03-25T16:32:35Z</time>
      </trkpt>
      <trkpt lat="42.000407" lon="-8.636427">
        <ele>29.571</ele>
        <time>2015-03-25T16:32:50Z</time>
      </trkpt>
      <trkpt lat="42.000980" lon="-8.636553">
        <ele>29.056</ele>
        <time>2015-03-25T16:33:05Z</time>
      </trkpt>
      <trkpt lat="42.001620" lon="-8.636760">
        <ele>29.043</ele>
        <time>2015-03-25T16:33:21Z</time>
      </trkpt>
      <trkpt lat="42.002059" lon="-8.636948">
        <ele>29.058</ele>
        <time>2015-03-25T16:33:32Z</time>
      </trkpt>
      <trkpt lat="42.002205" lon="-8.637044">
        <ele>29.552</ele>
        <time>2015-03-25T16:33:36Z</time>
      </trkpt>
      <trkpt lat="42.002524" lon="-8.637535">
        <ele>29.517</ele>
        <time>2015-03-25T16:33:49Z</time>
      </trkpt>
      <trkpt lat="42.003003" lon="-8.637469">
        <ele>29.507</ele>
        <time>2015-03-25T16:34:02Z</time>
      </trkpt>
      <trkpt lat="42.003573" lon="-8.637311">
        <ele>30.494</ele>
        <time>2015-03-25T16:34:18Z</time>
      </trkpt>
      <trkpt lat="42.003651" lon="-8.637459">
        <ele>30.457</ele>
        <time>2015-03-25T16:34:22Z</time>
      </trkpt>
      <trkpt lat="42.003678" lon="-8.637666">
        <ele>30.439</ele>
        <time>2015-03-25T16:34:26Z</time>
      </trkpt>
      <trkpt lat="42.003821" lon="-8.637742">
        <ele>30.419</ele>
        <time>2015-03-25T16:34:31Z</time>
      </trkpt>
      <trkpt lat="42.004256" lon="-8.637680">
        <ele>30.447</ele>
        <time>2015-03-25T16:34:46Z</time>
      </trkpt>
      <trkpt lat="42.004857" lon="-8.637664">
        <ele>30.432</ele>
        <time>2015-03-25T16:35:02Z</time>
      </trkpt>
      <trkpt lat="42.004974" lon="-8.637641">
        <ele>29.039</ele>
        <time>2015-03-25T16:35:05Z</time>
      </trkpt>
      <trkpt lat="42.005674" lon="-8.637599">
        <ele>28.539</ele>
        <time>2015-03-25T16:35:23Z</time>
      </trkpt>
      <trkpt lat="42.006337" lon="-8.637570">
        <ele>27.501</ele>
        <time>2015-03-25T16:35:40Z</time>
      </trkpt>
      <trkpt lat="42.006728" lon="-8.637610">
        <ele>29.021</ele>
        <time>2015-03-25T16:35:54Z</time>
      </trkpt>
      <trkpt lat="42.007065" lon="-8.637541">
        <ele>40.007</ele>
        <time>2015-03-25T16:51:25Z</time>
      </trkpt>
      <trkpt lat="42.007549" lon="-8.637490">
        <ele>40.072</ele>
        <time>2015-03-25T16:51:41Z</time>
      </trkpt>
      <trkpt lat="42.007997" lon="-8.637485">
        <ele>40.545</ele>
        <time>2015-03-25T16:51:56Z</time>
      </trkpt>
      <trkpt lat="42.008515" lon="-8.637453">
        <ele>42.037</ele>
        <time>2015-03-25T16:52:13Z</time>
      </trkpt>
      <trkpt lat="42.008844" lon="-8.637472">
        <ele>42.037</ele>
        <time>2015-03-25T16:52:24Z</time>
      </trkpt>
      <trkpt lat="42.008901" lon="-8.637580">
        <ele>42.075</ele>
        <time>2015-03-25T16:52:28Z</time>
      </trkpt>
      <trkpt lat="42.009130" lon="-8.638003">
        <ele>40.580</ele>
        <time>2015-03-25T16:52:38Z</time>
      </trkpt>
      <trkpt lat="42.009237" lon="-8.638242">
        <ele>40.547</ele>
        <time>2015-03-25T16:52:43Z</time>
      </trkpt>
      <trkpt lat="42.009549" lon="-8.639029">
        <ele>39.693</ele>
        <time>2015-03-25T16:52:58Z</time>
      </trkpt>
      <trkpt lat="42.009648" lon="-8.639825">
        <ele>38.165</ele>
        <time>2015-03-25T16:53:12Z</time>
      </trkpt>
      <trkpt lat="42.009504" lon="-8.640749">
        <ele>35.721</ele>
        <time>2015-03-25T16:53:28Z</time>
      </trkpt>
      <trkpt lat="42.009445" lon="-8.641138">
        <ele>35.207</ele>
        <time>2015-03-25T16:53:34Z</time>
      </trkpt>
      <trkpt lat="42.009464" lon="-8.641396">
        <ele>34.758</ele>
        <time>2015-03-25T16:53:38Z</time>
      </trkpt>
      <trkpt lat="42.009694" lon="-8.642264">
        <ele>34.391</ele>
        <time>2015-03-25T16:53:54Z</time>
      </trkpt>
      <trkpt lat="42.009750" lon="-8.642680">
        <ele>33.823</ele>
        <time>2015-03-25T16:54:02Z</time>
      </trkpt>
      <trkpt lat="42.009952" lon="-8.642912">
        <ele>31.443</ele>
        <time>2015-03-25T16:54:08Z</time>
      </trkpt>
      <trkpt lat="42.010284" lon="-8.642928">
        <ele>27.591</ele>
        <time>2015-03-25T16:54:13Z</time>
      </trkpt>
      <trkpt lat="42.010357" lon="-8.642887">
        <ele>27.196</ele>
        <time>2015-03-25T16:54:14Z</time>
      </trkpt>
      <trkpt lat="42.010942" lon="-8.642541">
        <ele>26.123</ele>
        <time>2015-03-25T16:54:25Z</time>
      </trkpt>
      <trkpt lat="42.011330" lon="-8.642452">
        <ele>27.592</ele>
        <time>2015-03-25T16:54:38Z</time>
      </trkpt>
      <trkpt lat="42.011626" lon="-8.642779">
        <ele>27.573</ele>
        <time>2015-03-25T16:54:52Z</time>
      </trkpt>
      <trkpt lat="42.011967" lon="-8.643128">
        <ele>27.520</ele>
        <time>2015-03-25T16:55:08Z</time>
      </trkpt>
      <trkpt lat="42.012188" lon="-8.643371">
        <ele>28.507</ele>
        <time>2015-03-25T16:55:23Z</time>
      </trkpt>
      <trkpt lat="42.012507" lon="-8.643362">
        <ele>32.358</ele>
        <time>2015-03-25T16:55:43Z</time>
      </trkpt>
      <trkpt lat="42.012788" lon="-8.643255">
        <ele>33.871</ele>
        <time>2015-03-25T16:56:00Z</time>
      </trkpt>
      <trkpt lat="42.013092" lon="-8.643249">
        <ele>36.753</ele>
        <time>2015-03-25T16:56:19Z</time>
      </trkpt>
      <trkpt lat="42.013353" lon="-8.643222">
        <ele>37.653</ele>
        <time>2015-03-25T16:56:33Z</time>
      </trkpt>
      <trkpt lat="42.013684" lon="-8.643200">
        <ele>37.671</ele>
        <time>2015-03-25T16:56:48Z</time>
      </trkpt>
      <trkpt lat="42.013958" lon="-8.643039">
        <ele>37.686</ele>
        <time>2015-03-25T16:57:00Z</time>
      </trkpt>
      <trkpt lat="42.014323" lon="-8.642975">
        <ele>37.643</ele>
        <time>2015-03-25T16:57:15Z</time>
      </trkpt>
      <trkpt lat="42.014674" lon="-8.643027">
        <ele>37.683</ele>
        <time>2015-03-25T16:57:30Z</time>
      </trkpt>
      <trkpt lat="42.014931" lon="-8.643166">
        <ele>39.125</ele>
        <time>2015-03-25T16:57:42Z</time>
      </trkpt>
      <trkpt lat="42.015238" lon="-8.643406">
        <ele>39.117</ele>
        <time>2015-03-25T16:57:56Z</time>
      </trkpt>
      <trkpt lat="42.015718" lon="-8.643574">
        <ele>39.107</ele>
        <time>2015-03-25T16:58:10Z</time>
      </trkpt>
      <trkpt lat="42.016198" lon="-8.643709">
        <ele>39.177</ele>
        <time>2015-03-25T16:58:23Z</time>
      </trkpt>
      <trkpt lat="42.016672" lon="-8.643541">
        <ele>40.010</ele>
        <time>2015-03-25T16:58:36Z</time>
      </trkpt>
      <trkpt lat="42.017460" lon="-8.643490">
        <ele>39.612</ele>
        <time>2015-03-25T16:58:55Z</time>
      </trkpt>
      <trkpt lat="42.018295" lon="-8.643458">
        <ele>39.632</ele>
        <time>2015-03-25T16:59:15Z</time>
      </trkpt>
      <trkpt lat="42.018870" lon="-8.643518">
        <ele>40.530</ele>
        <time>2015-03-25T16:59:29Z</time>
      </trkpt>
      <trkpt lat="42.019795" lon="-8.643772">
        <ele>40.585</ele>
        <time>2015-03-25T16:59:52Z</time>
      </trkpt>
      <trkpt lat="42.020460" lon="-8.644020">
        <ele>41.582</ele>
        <time>2015-03-25T17:00:09Z</time>
      </trkpt>
      <trkpt lat="42.021030" lon="-8.644197">
        <ele>42.972</ele>
        <time>2015-03-25T17:00:27Z</time>
      </trkpt>
      <trkpt lat="42.021309" lon="-8.644110">
        <ele>43.413</ele>
        <time>2015-03-25T17:00:40Z</time>
      </trkpt>
      <trkpt lat="42.021507" lon="-8.643676">
        <ele>44.414</ele>
        <time>2015-03-25T17:00:54Z</time>
      </trkpt>
      <trkpt lat="42.021759" lon="-8.643140">
        <ele>44.807</ele>
        <time>2015-03-25T17:01:10Z</time>
      </trkpt>
      <trkpt lat="42.021992" lon="-8.642708">
        <ele>46.336</ele>
        <time>2015-03-25T17:01:24Z</time>
      </trkpt>
      <trkpt lat="42.022276" lon="-8.642144">
        <ele>46.819</ele>
        <time>2015-03-25T17:01:39Z</time>
      </trkpt>
      <trkpt lat="42.022584" lon="-8.641986">
        <ele>47.211</ele>
        <time>2015-03-25T17:01:49Z</time>
      </trkpt>
      <trkpt lat="42.022718" lon="-8.641856">
        <ele>48.231</ele>
        <time>2015-03-25T17:01:54Z</time>
      </trkpt>
      <trkpt lat="42.022736" lon="-8.641252">
        <ele>48.239</ele>
        <time>2015-03-25T17:02:06Z</time>
      </trkpt>
      <trkpt lat="42.022769" lon="-8.640931">
        <ele>46.874</ele>
        <time>2015-03-25T17:02:13Z</time>
      </trkpt>
      <trkpt lat="42.022859" lon="-8.640745">
        <ele>46.871</ele>
        <time>2015-03-25T17:02:18Z</time>
      </trkpt>
      <trkpt lat="42.022979" lon="-8.640782">
        <ele>46.895</ele>
        <time>2015-03-25T17:02:23Z</time>
      </trkpt>
      <trkpt lat="42.023045" lon="-8.640801">
        <ele>48.249</ele>
        <time>2015-03-25T17:02:26Z</time>
      </trkpt>
      <trkpt lat="42.023465" lon="-8.640933">
        <ele>51.623</ele>
        <time>2015-03-25T17:02:44Z</time>
      </trkpt>
      <trkpt lat="42.023759" lon="-8.641029">
        <ele>53.007</ele>
        <time>2015-03-25T17:02:56Z</time>
      </trkpt>
      <trkpt lat="42.024200" lon="-8.641191">
        <ele>55.418</ele>
        <time>2015-03-25T17:03:14Z</time>
      </trkpt>
      <trkpt lat="42.024562" lon="-8.641308">
        <ele>55.981</ele>
        <time>2015-03-25T17:03:27Z</time>
      </trkpt>
      <trkpt lat="42.024735" lon="-8.641379">
        <ele>56.453</ele>
        <time>2015-03-25T17:03:39Z</time>
      </trkpt>
      <trkpt lat="42.025124" lon="-8.641504">
        <ele>56.433</ele>
        <time>2015-03-25T17:03:59Z</time>
      </trkpt>
      <trkpt lat="42.025635" lon="-8.641673">
        <ele>57.341</ele>
        <time>2015-03-25T17:04:15Z</time>
      </trkpt>
      <trkpt lat="42.026196" lon="-8.641860">
        <ele>59.766</ele>
        <time>2015-03-25T17:04:33Z</time>
      </trkpt>
      <trkpt lat="42.026636" lon="-8.641965">
        <ele>61.783</ele>
        <time>2015-03-25T17:04:49Z</time>
      </trkpt>
      <trkpt lat="42.026973" lon="-8.642011">
        <ele>62.184</ele>
        <time>2015-03-25T17:05:03Z</time>
      </trkpt>
      <trkpt lat="42.026978" lon="-8.642366">
        <ele>62.107</ele>
        <time>2015-03-25T17:05:13Z</time>
      </trkpt>
      <trkpt lat="42.026640" lon="-8.642991">
        <ele>65.017</ele>
        <time>2015-03-25T17:05:36Z</time>
      </trkpt>
      <trkpt lat="42.026464" lon="-8.643568">
        <ele>67.407</ele>
        <time>2015-03-25T17:05:55Z</time>
      </trkpt>
      <trkpt lat="42.026344" lon="-8.644100">
        <ele>70.327</ele>
        <time>2015-03-25T17:06:13Z</time>
      </trkpt>
      <trkpt lat="42.026238" lon="-8.644607">
        <ele>71.890</ele>
        <time>2015-03-25T17:06:28Z</time>
      </trkpt>
      <trkpt lat="42.026130" lon="-8.645161">
        <ele>72.292</ele>
        <time>2015-03-25T17:06:44Z</time>
      </trkpt>
      <trkpt lat="42.026040" lon="-8.645689">
        <ele>72.742</ele>
        <time>2015-03-25T17:07:00Z</time>
      </trkpt>
      <trkpt lat="42.025776" lon="-8.645841">
        <ele>73.230</ele>
        <time>2015-03-25T17:07:41Z</time>
      </trkpt>
      <trkpt lat="42.025723" lon="-8.646122">
        <ele>73.735</ele>
        <time>2015-03-25T17:07:50Z</time>
      </trkpt>
      <trkpt lat="42.025688" lon="-8.646212">
        <ele>73.252</ele>
        <time>2015-03-25T17:07:53Z</time>
      </trkpt>
      <trkpt lat="42.025719" lon="-8.646051">
        <ele>73.251</ele>
        <time>2015-03-25T17:10:05Z</time>
      </trkpt>
      <trkpt lat="42.025758" lon="-8.645979">
        <ele>73.201</ele>
        <time>2015-03-25T17:10:09Z</time>
      </trkpt>
      <trkpt lat="42.025857" lon="-8.645870">
        <ele>73.211</ele>
        <time>2015-03-25T17:10:18Z</time>
      </trkpt>
      <trkpt lat="42.025887" lon="-8.645629">
        <ele>73.207</ele>
        <time>2015-03-25T17:10:29Z</time>
      </trkpt>
      <trkpt lat="42.025950" lon="-8.645636">
        <ele>71.854</ele>
        <time>2015-03-25T17:10:33Z</time>
      </trkpt>
      <trkpt lat="42.026019" lon="-8.645673">
        <ele>71.837</ele>
        <time>2015-03-25T17:10:37Z</time>
      </trkpt>
      <trkpt lat="42.026058" lon="-8.645709">
        <ele>71.849</ele>
        <time>2015-03-25T17:10:47Z</time>
      </trkpt>
      <trkpt lat="42.026140" lon="-8.645769">
        <ele>74.649</ele>
        <time>2015-03-25T17:11:07Z</time>
      </trkpt>
      <trkpt lat="42.026234" lon="-8.645946">
        <ele>74.217</ele>
        <time>2015-03-25T17:11:16Z</time>
      </trkpt>
      <trkpt lat="42.026280" lon="-8.646016">
        <ele>75.152</ele>
        <time>2015-03-25T17:11:20Z</time>
      </trkpt>
      <trkpt lat="42.026337" lon="-8.646120">
        <ele>76.659</ele>
        <time>2015-03-25T17:11:26Z</time>
      </trkpt>
      <trkpt lat="42.026409" lon="-8.646197">
        <ele>77.572</ele>
        <time>2015-03-25T17:11:32Z</time>
      </trkpt>
      <trkpt lat="42.026465" lon="-8.646252">
        <ele>78.513</ele>
        <time>2015-03-25T17:11:43Z</time>
      </trkpt>
      <trkpt lat="42.026561" lon="-8.646316">
        <ele>81.414</ele>
        <time>2015-03-25T17:11:57Z</time>
      </trkpt>
      <trkpt lat="42.026655" lon="-8.646051">
        <ele>81.407</ele>
        <time>2015-03-25T17:12:16Z</time>
      </trkpt>
      <trkpt lat="42.026681" lon="-8.645987">
        <ele>82.316</ele>
        <time>2015-03-25T17:12:33Z</time>
      </trkpt>
      <trkpt lat="42.026761" lon="-8.645951">
        <ele>82.339</ele>
        <time>2015-03-25T17:13:09Z</time>
      </trkpt>
      <trkpt lat="42.026911" lon="-8.645673">
        <ele>82.821</ele>
        <time>2015-03-25T17:14:36Z</time>
      </trkpt>
      <trkpt lat="42.027121" lon="-8.645613">
        <ele>84.721</ele>
        <time>2015-03-25T17:14:50Z</time>
      </trkpt>
      <trkpt lat="42.027317" lon="-8.645673">
        <ele>85.279</ele>
        <time>2015-03-25T17:15:06Z</time>
      </trkpt>
      <trkpt lat="42.027364" lon="-8.645719">
        <ele>85.794</ele>
        <time>2015-03-25T17:15:10Z</time>
      </trkpt>
      <trkpt lat="42.027695" lon="-8.645776">
        <ele>86.221</ele>
        <time>2015-03-25T17:15:27Z</time>
      </trkpt>
      <trkpt lat="42.027867" lon="-8.645382">
        <ele>86.292</ele>
        <time>2015-03-25T17:15:41Z</time>
      </trkpt>
      <trkpt lat="42.028106" lon="-8.645211">
        <ele>86.273</ele>
        <time>2015-03-25T17:15:52Z</time>
      </trkpt>
      <trkpt lat="42.028322" lon="-8.645155">
        <ele>84.720</ele>
        <time>2015-03-25T17:16:02Z</time>
      </trkpt>
      <trkpt lat="42.028608" lon="-8.645006">
        <ele>84.307</ele>
        <time>2015-03-25T17:16:36Z</time>
      </trkpt>
      <trkpt lat="42.029079" lon="-8.644839">
        <ele>84.388</ele>
        <time>2015-03-25T17:16:52Z</time>
      </trkpt>
      <trkpt lat="42.029341" lon="-8.644911">
        <ele>82.841</ele>
        <time>2015-03-25T17:16:59Z</time>
      </trkpt>
      <trkpt lat="42.029745" lon="-8.644720">
        <ele>82.893</ele>
        <time>2015-03-25T17:17:10Z</time>
      </trkpt>
      <trkpt lat="42.029889" lon="-8.644703">
        <ele>80.423</ele>
        <time>2015-03-25T17:17:14Z</time>
      </trkpt>
      <trkpt lat="42.030335" lon="-8.644642">
        <ele>77.091</ele>
        <time>2015-03-25T17:17:27Z</time>
      </trkpt>
      <trkpt lat="42.030428" lon="-8.644636">
        <ele>76.626</ele>
        <time>2015-03-25T17:17:30Z</time>
      </trkpt>
      <trkpt lat="42.030585" lon="-8.644947">
        <ele>76.633</ele>
        <time>2015-03-25T17:17:41Z</time>
      </trkpt>
      <trkpt lat="42.030811" lon="-8.645063">
        <ele>76.699</ele>
        <time>2015-03-25T17:17:53Z</time>
      </trkpt>
      <trkpt lat="42.030906" lon="-8.645062">
        <ele>76.107</ele>
        <time>2015-03-25T17:18:04Z</time>
      </trkpt>
      <trkpt lat="42.031025" lon="-8.645060">
        <ele>76.127</ele>
        <time>2015-03-25T17:18:25Z</time>
      </trkpt>
      <trkpt lat="42.031306" lon="-8.645112">
        <ele>74.607</ele>
        <time>2015-03-25T17:18:34Z</time>
      </trkpt>
      <trkpt lat="42.031648" lon="-8.645274">
        <ele>74.688</ele>
        <time>2015-03-25T17:18:45Z</time>
      </trkpt>
      <trkpt lat="42.031697" lon="-8.645296">
        <ele>74.661</ele>
        <time>2015-03-25T17:18:47Z</time>
      </trkpt>
      <trkpt lat="42.031945" lon="-8.645318">
        <ele>76.123</ele>
        <time>2015-03-25T17:18:55Z</time>
      </trkpt>
      <trkpt lat="42.032268" lon="-8.645468">
        <ele>77.553</ele>
        <time>2015-03-25T17:19:06Z</time>
      </trkpt>
      <trkpt lat="42.032427" lon="-8.645493">
        <ele>78.091</ele>
        <time>2015-03-25T17:19:16Z</time>
      </trkpt>
      <trkpt lat="42.032528" lon="-8.645378">
        <ele>78.086</ele>
        <time>2015-03-25T17:19:26Z</time>
      </trkpt>
      <trkpt lat="42.032569" lon="-8.645257">
        <ele>78.513</ele>
        <time>2015-03-25T17:19:38Z</time>
      </trkpt>
      <trkpt lat="42.032638" lon="-8.645161">
        <ele>75.628</ele>
        <time>2015-03-25T17:19:46Z</time>
      </trkpt>
      <trkpt lat="42.032716" lon="-8.645052">
        <ele>73.289</ele>
        <time>2015-03-25T17:19:50Z</time>
      </trkpt>
      <trkpt lat="42.032827" lon="-8.645073">
        <ele>70.317</ele>
        <time>2015-03-25T17:19:56Z</time>
      </trkpt>
      <trkpt lat="42.032914" lon="-8.645082">
        <ele>67.007</ele>
        <time>2015-03-25T17:20:02Z</time>
      </trkpt>
      <trkpt lat="42.033073" lon="-8.645117">
        <ele>65.051</ele>
        <time>2015-03-25T17:20:16Z</time>
      </trkpt>
      <trkpt lat="42.033195" lon="-8.645232">
        <ele>62.664</ele>
        <time>2015-03-25T17:20:28Z</time>
      </trkpt>
      <trkpt lat="42.033294" lon="-8.645382">
        <ele>59.396</ele>
        <time>2015-03-25T17:20:35Z</time>
      </trkpt>
      <trkpt lat="42.033275" lon="-8.645011">
        <ele>56.426</ele>
        <time>2015-03-25T17:20:55Z</time>
      </trkpt>
      <trkpt lat="42.033163" lon="-8.644827">
        <ele>54.924</ele>
        <time>2015-03-25T17:21:17Z</time>
      </trkpt>
      <trkpt lat="42.033246" lon="-8.644818">
        <ele>54.589</ele>
        <time>2015-03-25T17:21:22Z</time>
      </trkpt>
      <trkpt lat="42.033531" lon="-8.644933">
        <ele>52.536</ele>
        <time>2015-03-25T17:21:32Z</time>
      </trkpt>
      <trkpt lat="42.033708" lon="-8.644747">
        <ele>48.774</ele>
        <time>2015-03-25T17:21:42Z</time>
      </trkpt>
      <trkpt lat="42.033806" lon="-8.644705">
        <ele>45.356</ele>
        <time>2015-03-25T17:21:49Z</time>
      </trkpt>
      <trkpt lat="42.033948" lon="-8.644578">
        <ele>41.521</ele>
        <time>2015-03-25T17:21:54Z</time>
      </trkpt>
      <trkpt lat="42.034068" lon="-8.644464">
        <ele>38.107</ele>
        <time>2015-03-25T17:21:58Z</time>
      </trkpt>
      <trkpt lat="42.034154" lon="-8.644390">
        <ele>35.776</ele>
        <time>2015-03-25T17:22:02Z</time>
      </trkpt>
      <trkpt lat="42.034237" lon="-8.644312">
        <ele>34.729</ele>
        <time>2015-03-25T17:22:12Z</time>
      </trkpt>
      <trkpt lat="42.034306" lon="-8.644329">
        <ele>35.271</ele>
        <time>2015-03-25T17:22:17Z</time>
      </trkpt>
      <trkpt lat="42.034690" lon="-8.644878">
        <ele>31.421</ele>
        <time>2015-03-25T17:22:31Z</time>
      </trkpt>
      <trkpt lat="42.034872" lon="-8.645137">
        <ele>29.099</ele>
        <time>2015-03-25T17:22:37Z</time>
      </trkpt>
      <trkpt lat="42.035065" lon="-8.645160">
        <ele>28.564</ele>
        <time>2015-03-25T17:22:45Z</time>
      </trkpt>
      <trkpt lat="42.035146" lon="-8.645197">
        <ele>28.051</ele>
        <time>2015-03-25T17:24:03Z</time>
      </trkpt>
      <trkpt lat="42.035196" lon="-8.645242">
        <ele>27.168</ele>
        <time>2015-03-25T17:24:08Z</time>
      </trkpt>
      <trkpt lat="42.035263" lon="-8.645322">
        <ele>26.642</ele>
        <time>2015-03-25T17:24:16Z</time>
      </trkpt>
      <trkpt lat="42.035334" lon="-8.645374">
        <ele>26.626</ele>
        <time>2015-03-25T17:24:28Z</time>
      </trkpt>
      <trkpt lat="42.035603" lon="-8.645643">
        <ele>26.607</ele>
        <time>2015-03-25T17:25:19Z</time>
      </trkpt>
      <trkpt lat="42.035906" lon="-8.646055">
        <ele>27.535</ele>
        <time>2015-03-25T17:25:33Z</time>
      </trkpt>
      <trkpt lat="42.036191" lon="-8.646470">
        <ele>26.648</ele>
        <time>2015-03-25T17:25:45Z</time>
      </trkpt>
      <trkpt lat="42.036548" lon="-8.646882">
        <ele>28.020</ele>
        <time>2015-03-25T17:25:59Z</time>
      </trkpt>
      <trkpt lat="42.036838" lon="-8.647283">
        <ele>27.170</ele>
        <time>2015-03-25T17:26:11Z</time>
      </trkpt>
      <trkpt lat="42.037206" lon="-8.647761">
        <ele>28.028</ele>
        <time>2015-03-25T17:26:26Z</time>
      </trkpt>
      <trkpt lat="42.037399" lon="-8.647967">
        <ele>28.553</ele>
        <time>2015-03-25T17:26:36Z</time>
      </trkpt>
      <trkpt lat="42.037513" lon="-8.648141">
        <ele>28.580</ele>
        <time>2015-03-25T17:26:43Z</time>
      </trkpt>
      <trkpt lat="42.037876" lon="-8.648073">
        <ele>28.529</ele>
        <time>2015-03-25T17:26:55Z</time>
      </trkpt>
      <trkpt lat="42.038323" lon="-8.647873">
        <ele>26.600</ele>
        <time>2015-03-25T17:27:08Z</time>
      </trkpt>
      <trkpt lat="42.038853" lon="-8.647838">
        <ele>26.120</ele>
        <time>2015-03-25T17:27:22Z</time>
      </trkpt>
      <trkpt lat="42.039584" lon="-8.647857">
        <ele>26.107</ele>
        <time>2015-03-25T17:27:42Z</time>
      </trkpt>
      <trkpt lat="42.040096" lon="-8.647868">
        <ele>26.681</ele>
        <time>2015-03-25T17:27:56Z</time>
      </trkpt>
      <trkpt lat="42.040564" lon="-8.647885">
        <ele>26.614</ele>
        <time>2015-03-25T17:28:09Z</time>
      </trkpt>
      <trkpt lat="42.040717" lon="-8.647882">
        <ele>26.686</ele>
        <time>2015-03-25T17:28:13Z</time>
      </trkpt>
      <trkpt lat="42.040930" lon="-8.647826">
        <ele>26.626</ele>
        <time>2015-03-25T17:28:19Z</time>
      </trkpt>
      <trkpt lat="42.040921" lon="-8.647591">
        <ele>26.654</ele>
        <time>2015-03-25T17:28:25Z</time>
      </trkpt>
      <trkpt lat="42.040615" lon="-8.646824">
        <ele>28.059</ele>
        <time>2015-03-25T17:28:42Z</time>
      </trkpt>
      <trkpt lat="42.040404" lon="-8.646282">
        <ele>29.036</ele>
        <time>2015-03-25T17:28:56Z</time>
      </trkpt>
      <trkpt lat="42.040409" lon="-8.645944">
        <ele>27.559</ele>
        <time>2015-03-25T17:29:01Z</time>
      </trkpt>
      <trkpt lat="42.040445" lon="-8.645765">
        <ele>26.103</ele>
        <time>2015-03-25T17:29:03Z</time>
      </trkpt>
      <trkpt lat="42.040523" lon="-8.645473">
        <ele>22.323</ele>
        <time>2015-03-25T17:29:06Z</time>
      </trkpt>
      <trkpt lat="42.040503" lon="-8.645173">
        <ele>19.807</ele>
        <time>2015-03-25T17:29:09Z</time>
      </trkpt>
      <trkpt lat="42.040464" lon="-8.645088">
        <ele>19.834</ele>
        <time>2015-03-25T17:29:10Z</time>
      </trkpt>
      <trkpt lat="42.040258" lon="-8.644708">
        <ele>17.047</ele>
        <time>2015-03-25T17:29:16Z</time>
      </trkpt>
      <trkpt lat="42.040231" lon="-8.644641">
        <ele>17.069</ele>
        <time>2015-03-25T17:29:18Z</time>
      </trkpt>
      <trkpt lat="42.040313" lon="-8.644533">
        <ele>16.569</ele>
        <time>2015-03-25T17:31:21Z</time>
      </trkpt>
      <trkpt lat="42.040447" lon="-8.644511">
        <ele>17.997</ele>
        <time>2015-03-25T17:31:49Z</time>
      </trkpt>
      <trkpt lat="42.040711" lon="-8.644465">
        <ele>19.422</ele>
        <time>2015-03-25T17:32:01Z</time>
      </trkpt>
      <trkpt lat="42.041005" lon="-8.644536">
        <ele>19.849</ele>
        <time>2015-03-25T17:32:13Z</time>
      </trkpt>
      <trkpt lat="42.041432" lon="-8.645019">
        <ele>21.858</ele>
        <time>2015-03-25T17:32:35Z</time>
      </trkpt>
      <trkpt lat="42.041610" lon="-8.645535">
        <ele>23.752</ele>
        <time>2015-03-25T17:32:52Z</time>
      </trkpt>
      <trkpt lat="42.041708" lon="-8.645977">
        <ele>23.217</ele>
        <time>2015-03-25T17:33:04Z</time>
      </trkpt>
      <trkpt lat="42.041713" lon="-8.646451">
        <ele>19.807</ele>
        <time>2015-03-25T17:33:12Z</time>
      </trkpt>
      <trkpt lat="42.041750" lon="-8.646508">
        <ele>19.864</ele>
        <time>2015-03-25T17:33:13Z</time>
      </trkpt>
      <trkpt lat="42.041838" lon="-8.646595">
        <ele>19.427</ele>
        <time>2015-03-25T17:33:15Z</time>
      </trkpt>
      <trkpt lat="42.042096" lon="-8.646762">
        <ele>18.999</ele>
        <time>2015-03-25T17:33:21Z</time>
      </trkpt>
      <trkpt lat="42.042454" lon="-8.646699">
        <ele>17.999</ele>
        <time>2015-03-25T17:33:30Z</time>
      </trkpt>
      <trkpt lat="42.042613" lon="-8.646641">
        <ele>17.497</ele>
        <time>2015-03-25T17:34:05Z</time>
      </trkpt>
      <trkpt lat="42.043021" lon="-8.646312">
        <ele>17.442</ele>
        <time>2015-03-25T17:34:19Z</time>
      </trkpt>
      <trkpt lat="42.043379" lon="-8.645720">
        <ele>16.519</ele>
        <time>2015-03-25T17:34:34Z</time>
      </trkpt>
      <trkpt lat="42.043631" lon="-8.645692">
        <ele>16.598</ele>
        <time>2015-03-25T17:34:42Z</time>
      </trkpt>
      <trkpt lat="42.043699" lon="-8.645599">
        <ele>16.515</ele>
        <time>2015-03-25T17:34:47Z</time>
      </trkpt>
      <trkpt lat="42.043736" lon="-8.645275">
        <ele>19.426</ele>
        <time>2015-03-25T17:35:02Z</time>
      </trkpt>
      <trkpt lat="42.043932" lon="-8.645342">
        <ele>21.307</ele>
        <time>2015-03-25T17:35:17Z</time>
      </trkpt>
      <trkpt lat="42.044264" lon="-8.645415">
        <ele>21.858</ele>
        <time>2015-03-25T17:35:34Z</time>
      </trkpt>
      <trkpt lat="42.044521" lon="-8.645588">
        <ele>24.731</ele>
        <time>2015-03-25T17:35:50Z</time>
      </trkpt>
      <trkpt lat="42.044784" lon="-8.645664">
        <ele>27.183</ele>
        <time>2015-03-25T17:36:06Z</time>
      </trkpt>
      <trkpt lat="42.044933" lon="-8.645577">
        <ele>29.933</ele>
        <time>2015-03-25T17:36:19Z</time>
      </trkpt>
      <trkpt lat="42.045055" lon="-8.645538">
        <ele>31.451</ele>
        <time>2015-03-25T17:36:29Z</time>
      </trkpt>
      <trkpt lat="42.045107" lon="-8.645516">
        <ele>32.856</ele>
        <time>2015-03-25T17:36:33Z</time>
      </trkpt>
      <trkpt lat="42.045038" lon="-8.645225">
        <ele>35.253</ele>
        <time>2015-03-25T17:36:51Z</time>
      </trkpt>
      <trkpt lat="42.044897" lon="-8.644856">
        <ele>37.615</ele>
        <time>2015-03-25T17:37:11Z</time>
      </trkpt>
      <trkpt lat="42.044852" lon="-8.644742">
        <ele>38.165</ele>
        <time>2015-03-25T17:37:18Z</time>
      </trkpt>
      <trkpt lat="42.044864" lon="-8.644668">
        <ele>38.611</ele>
        <time>2015-03-25T17:37:22Z</time>
      </trkpt>
      <trkpt lat="42.044936" lon="-8.644673">
        <ele>40.007</ele>
        <time>2015-03-25T17:37:32Z</time>
      </trkpt>
      <trkpt lat="42.045092" lon="-8.644792">
        <ele>43.460</ele>
        <time>2015-03-25T17:37:46Z</time>
      </trkpt>
      <trkpt lat="42.045283" lon="-8.644932">
        <ele>45.873</ele>
        <time>2015-03-25T17:38:03Z</time>
      </trkpt>
      <trkpt lat="42.045384" lon="-8.644977">
        <ele>46.385</ele>
        <time>2015-03-25T17:38:10Z</time>
      </trkpt>
      <trkpt lat="42.045558" lon="-8.645120">
        <ele>48.265</ele>
        <time>2015-03-25T17:38:25Z</time>
      </trkpt>
      <trkpt lat="42.045648" lon="-8.645184">
        <ele>50.133</ele>
        <time>2015-03-25T17:38:32Z</time>
      </trkpt>
      <trkpt lat="42.045775" lon="-8.645262">
        <ele>51.698</ele>
        <time>2015-03-25T17:38:42Z</time>
      </trkpt>
      <trkpt lat="42.045920" lon="-8.645349">
        <ele>53.095</ele>
        <time>2015-03-25T17:38:52Z</time>
      </trkpt>
      <trkpt lat="42.045982" lon="-8.645411">
        <ele>54.035</ele>
        <time>2015-03-25T17:38:57Z</time>
      </trkpt>
      <trkpt lat="42.046030" lon="-8.645413">
        <ele>54.586</ele>
        <time>2015-03-25T17:39:00Z</time>
      </trkpt>
      <trkpt lat="42.046105" lon="-8.645381">
        <ele>54.914</ele>
        <time>2015-03-25T17:39:05Z</time>
      </trkpt>
      <trkpt lat="42.046111" lon="-8.645140">
        <ele>56.907</ele>
        <time>2015-03-25T17:39:17Z</time>
      </trkpt>
      <trkpt lat="42.046204" lon="-8.645039">
        <ele>57.862</ele>
        <time>2015-03-25T17:39:28Z</time>
      </trkpt>
      <trkpt lat="42.046276" lon="-8.644862">
        <ele>58.815</ele>
        <time>2015-03-25T17:40:05Z</time>
      </trkpt>
      <trkpt lat="42.046290" lon="-8.644780">
        <ele>60.747</ele>
        <time>2015-03-25T17:40:19Z</time>
      </trkpt>
      <trkpt lat="42.046406" lon="-8.644604">
        <ele>60.737</ele>
        <time>2015-03-25T17:40:31Z</time>
      </trkpt>
      <trkpt lat="42.046381" lon="-8.644406">
        <ele>59.745</ele>
        <time>2015-03-25T17:40:40Z</time>
      </trkpt>
      <trkpt lat="42.046320" lon="-8.644039">
        <ele>56.960</ele>
        <time>2015-03-25T17:40:54Z</time>
      </trkpt>
      <trkpt lat="42.046268" lon="-8.644024">
        <ele>56.467</ele>
        <time>2015-03-25T17:42:45Z</time>
      </trkpt>
      <trkpt lat="42.046233" lon="-8.643950">
        <ele>55.462</ele>
        <time>2015-03-25T17:42:49Z</time>
      </trkpt>
      <trkpt lat="42.046183" lon="-8.643798">
        <ele>52.583</ele>
        <time>2015-03-25T17:43:01Z</time>
      </trkpt>
      <trkpt lat="42.046250" lon="-8.643969">
        <ele>54.511</ele>
        <time>2015-03-26T07:19:18Z</time>
      </trkpt>
      <trkpt lat="42.046313" lon="-8.644082">
        <ele>55.907</ele>
        <time>2015-03-26T07:19:33Z</time>
      </trkpt>
      <trkpt lat="42.046358" lon="-8.644199">
        <ele>57.355</ele>
        <time>2015-03-26T07:19:44Z</time>
      </trkpt>
      <trkpt lat="42.046415" lon="-8.644392">
        <ele>58.338</ele>
        <time>2015-03-26T07:20:00Z</time>
      </trkpt>
      <trkpt lat="42.046412" lon="-8.644508">
        <ele>58.370</ele>
        <time>2015-03-26T07:20:07Z</time>
      </trkpt>
      <trkpt lat="42.046386" lon="-8.644580">
        <ele>58.350</ele>
        <time>2015-03-26T07:20:11Z</time>
      </trkpt>
      <trkpt lat="42.046347" lon="-8.644614">
        <ele>58.328</ele>
        <time>2015-03-26T07:20:15Z</time>
      </trkpt>
      <trkpt lat="42.046198" lon="-8.644755">
        <ele>58.893</ele>
        <time>2015-03-26T07:20:33Z</time>
      </trkpt>
      <trkpt lat="42.046114" lon="-8.644760">
        <ele>58.880</ele>
        <time>2015-03-26T07:20:46Z</time>
      </trkpt>
      <trkpt lat="42.046108" lon="-8.644848">
        <ele>58.836</ele>
        <time>2015-03-26T07:21:08Z</time>
      </trkpt>
      <trkpt lat="42.046079" lon="-8.644986">
        <ele>58.317</ele>
        <time>2015-03-26T07:22:04Z</time>
      </trkpt>
      <trkpt lat="42.046087" lon="-8.645055">
        <ele>58.318</ele>
        <time>2015-03-26T07:22:15Z</time>
      </trkpt>
      <trkpt lat="42.046162" lon="-8.644851">
        <ele>58.307</ele>
        <time>2015-03-26T07:22:19Z</time>
      </trkpt>
      <trkpt lat="42.046288" lon="-8.644668">
        <ele>58.382</ele>
        <time>2015-03-26T07:22:29Z</time>
      </trkpt>
      <trkpt lat="42.046556" lon="-8.644460">
        <ele>56.925</ele>
        <time>2015-03-26T07:22:42Z</time>
      </trkpt>
      <trkpt lat="42.046740" lon="-8.644444">
        <ele>55.927</ele>
        <time>2015-03-26T07:22:49Z</time>
      </trkpt>
      <trkpt lat="42.046883" lon="-8.644312">
        <ele>55.977</ele>
        <time>2015-03-26T07:23:17Z</time>
      </trkpt>
      <trkpt lat="42.046838" lon="-8.644195">
        <ele>55.965</ele>
        <time>2015-03-26T07:23:23Z</time>
      </trkpt>
      <trkpt lat="42.046904" lon="-8.643985">
        <ele>55.960</ele>
        <time>2015-03-26T07:23:32Z</time>
      </trkpt>
      <trkpt lat="42.047178" lon="-8.643736">
        <ele>54.947</ele>
        <time>2015-03-26T07:23:45Z</time>
      </trkpt>
      <trkpt lat="42.047218" lon="-8.643680">
        <ele>54.022</ele>
        <time>2015-03-26T07:23:53Z</time>
      </trkpt>
      <trkpt lat="42.047284" lon="-8.643524">
        <ele>50.662</ele>
        <time>2015-03-26T07:24:10Z</time>
      </trkpt>
      <trkpt lat="42.047336" lon="-8.643388">
        <ele>49.208</ele>
        <time>2015-03-26T07:24:22Z</time>
      </trkpt>
      <trkpt lat="42.047474" lon="-8.643332">
        <ele>46.307</ele>
        <time>2015-03-26T07:24:37Z</time>
      </trkpt>
      <trkpt lat="42.047509" lon="-8.643237">
        <ele>44.421</ele>
        <time>2015-03-26T07:24:47Z</time>
      </trkpt>
      <trkpt lat="42.047620" lon="-8.643178">
        <ele>43.974</ele>
        <time>2015-03-26T07:24:58Z</time>
      </trkpt>
      <trkpt lat="42.047757" lon="-8.643319">
        <ele>43.996</ele>
        <time>2015-03-26T07:25:13Z</time>
      </trkpt>
      <trkpt lat="42.047820" lon="-8.643509">
        <ele>44.416</ele>
        <time>2015-03-26T07:25:22Z</time>
      </trkpt>
      <trkpt lat="42.047854" lon="-8.643627">
        <ele>46.364</ele>
        <time>2015-03-26T07:25:28Z</time>
      </trkpt>
      <trkpt lat="42.047868" lon="-8.643705">
        <ele>47.299</ele>
        <time>2015-03-26T07:25:45Z</time>
      </trkpt>
      <trkpt lat="42.047829" lon="-8.643669">
        <ele>47.236</ele>
        <time>2015-03-26T07:26:12Z</time>
      </trkpt>
      <trkpt lat="42.047796" lon="-8.643295">
        <ele>44.489</ele>
        <time>2015-03-26T07:26:49Z</time>
      </trkpt>
      <trkpt lat="42.047744" lon="-8.643210">
        <ele>44.406</ele>
        <time>2015-03-26T07:26:53Z</time>
      </trkpt>
      <trkpt lat="42.047532" lon="-8.643210">
        <ele>44.426</ele>
        <time>2015-03-26T07:27:05Z</time>
      </trkpt>
      <trkpt lat="42.047539" lon="-8.643134">
        <ele>42.907</ele>
        <time>2015-03-26T07:27:12Z</time>
      </trkpt>
      <trkpt lat="42.047534" lon="-8.643018">
        <ele>40.597</ele>
        <time>2015-03-26T07:27:23Z</time>
      </trkpt>
      <trkpt lat="42.047527" lon="-8.642945">
        <ele>39.680</ele>
        <time>2015-03-26T07:27:36Z</time>
      </trkpt>
      <trkpt lat="42.047485" lon="-8.642687">
        <ele>36.282</ele>
        <time>2015-03-26T07:27:43Z</time>
      </trkpt>
      <trkpt lat="42.047407" lon="-8.642366">
        <ele>32.342</ele>
        <time>2015-03-26T07:27:51Z</time>
      </trkpt>
      <trkpt lat="42.047302" lon="-8.642111">
        <ele>29.060</ele>
        <time>2015-03-26T07:27:59Z</time>
      </trkpt>
      <trkpt lat="42.047322" lon="-8.642044">
        <ele>28.535</ele>
        <time>2015-03-26T07:28:03Z</time>
      </trkpt>
      <trkpt lat="42.047606" lon="-8.641823">
        <ele>25.152</ele>
        <time>2015-03-26T07:28:13Z</time>
      </trkpt>
      <trkpt lat="42.048101" lon="-8.641312">
        <ele>22.712</ele>
        <time>2015-03-26T07:28:31Z</time>
      </trkpt>
      <trkpt lat="42.048365" lon="-8.641074">
        <ele>22.732</ele>
        <time>2015-03-26T07:28:45Z</time>
      </trkpt>
      <trkpt lat="42.048466" lon="-8.640977">
        <ele>24.205</ele>
        <time>2015-03-26T07:28:51Z</time>
      </trkpt>
      <trkpt lat="42.048795" lon="-8.640718">
        <ele>26.107</ele>
        <time>2015-03-26T07:29:07Z</time>
      </trkpt>
      <trkpt lat="42.049144" lon="-8.640541">
        <ele>27.170</ele>
        <time>2015-03-26T07:29:23Z</time>
      </trkpt>
      <trkpt lat="42.049430" lon="-8.640410">
        <ele>27.543</ele>
        <time>2015-03-26T07:29:36Z</time>
      </trkpt>
      <trkpt lat="42.049585" lon="-8.640340">
        <ele>28.055</ele>
        <time>2015-03-26T07:29:48Z</time>
      </trkpt>
      <trkpt lat="42.049500" lon="-8.640371">
        <ele>28.515</ele>
        <time>2015-03-26T07:30:21Z</time>
      </trkpt>
      <trkpt lat="42.049613" lon="-8.640347">
        <ele>29.063</ele>
        <time>2015-03-26T07:31:12Z</time>
      </trkpt>
      <trkpt lat="42.049730" lon="-8.640286">
        <ele>29.018</ele>
        <time>2015-03-26T07:31:17Z</time>
      </trkpt>
      <trkpt lat="42.050071" lon="-8.640144">
        <ele>29.025</ele>
        <time>2015-03-26T07:31:29Z</time>
      </trkpt>
      <trkpt lat="42.050551" lon="-8.639911">
        <ele>30.478</ele>
        <time>2015-03-26T07:31:45Z</time>
      </trkpt>
      <trkpt lat="42.051020" lon="-8.639704">
        <ele>30.433</ele>
        <time>2015-03-26T07:32:00Z</time>
      </trkpt>
      <trkpt lat="42.051433" lon="-8.639558">
        <ele>30.426</ele>
        <time>2015-03-26T07:32:15Z</time>
      </trkpt>
      <trkpt lat="42.051610" lon="-8.639542">
        <ele>30.407</ele>
        <time>2015-03-26T07:32:57Z</time>
      </trkpt>
      <trkpt lat="42.051998" lon="-8.639862">
        <ele>30.426</ele>
        <time>2015-03-26T07:33:11Z</time>
      </trkpt>
      <trkpt lat="42.052054" lon="-8.639984">
        <ele>29.049</ele>
        <time>2015-03-26T07:33:14Z</time>
      </trkpt>
      <trkpt lat="42.052132" lon="-8.640376">
        <ele>29.561</ele>
        <time>2015-03-26T07:33:23Z</time>
      </trkpt>
      <trkpt lat="42.052209" lon="-8.640439">
        <ele>29.581</ele>
        <time>2015-03-26T07:33:27Z</time>
      </trkpt>
      <trkpt lat="42.052747" lon="-8.640271">
        <ele>29.089</ele>
        <time>2015-03-26T07:33:43Z</time>
      </trkpt>
      <trkpt lat="42.053137" lon="-8.640156">
        <ele>28.554</ele>
        <time>2015-03-26T07:33:55Z</time>
      </trkpt>
      <trkpt lat="42.053480" lon="-8.639850">
        <ele>28.021</ele>
        <time>2015-03-26T07:34:07Z</time>
      </trkpt>
      <trkpt lat="42.053509" lon="-8.639682">
        <ele>27.522</ele>
        <time>2015-03-26T07:34:10Z</time>
      </trkpt>
      <trkpt lat="42.053646" lon="-8.639452">
        <ele>27.162</ele>
        <time>2015-03-26T07:34:15Z</time>
      </trkpt>
      <trkpt lat="42.053879" lon="-8.639276">
        <ele>26.608</ele>
        <time>2015-03-26T07:34:21Z</time>
      </trkpt>
      <trkpt lat="42.054014" lon="-8.639086">
        <ele>26.607</ele>
        <time>2015-03-26T07:34:26Z</time>
      </trkpt>
      <trkpt lat="42.054346" lon="-8.638349">
        <ele>26.181</ele>
        <time>2015-03-26T07:34:43Z</time>
      </trkpt>
      <trkpt lat="42.054858" lon="-8.637667">
        <ele>25.184</ele>
        <time>2015-03-26T07:35:01Z</time>
      </trkpt>
      <trkpt lat="42.055025" lon="-8.637431">
        <ele>24.796</ele>
        <time>2015-03-26T07:35:06Z</time>
      </trkpt>
      <trkpt lat="42.055087" lon="-8.637328">
        <ele>24.246</ele>
        <time>2015-03-26T07:35:08Z</time>
      </trkpt>
      <trkpt lat="42.055234" lon="-8.636937">
        <ele>22.764</ele>
        <time>2015-03-26T07:35:14Z</time>
      </trkpt>
      <trkpt lat="42.055261" lon="-8.636491">
        <ele>20.889</ele>
        <time>2015-03-26T07:35:20Z</time>
      </trkpt>
      <trkpt lat="42.055247" lon="-8.636338">
        <ele>19.856</ele>
        <time>2015-03-26T07:35:22Z</time>
      </trkpt>
      <trkpt lat="42.055249" lon="-8.636116">
        <ele>18.994</ele>
        <time>2015-03-26T07:35:25Z</time>
      </trkpt>
      <trkpt lat="42.055654" lon="-8.635554">
        <ele>17.057</ele>
        <time>2015-03-26T07:35:36Z</time>
      </trkpt>
      <trkpt lat="42.056009" lon="-8.635162">
        <ele>17.922</ele>
        <time>2015-03-26T07:35:47Z</time>
      </trkpt>
      <trkpt lat="42.056237" lon="-8.635037">
        <ele>18.907</ele>
        <time>2015-03-26T07:35:58Z</time>
      </trkpt>
      <trkpt lat="42.056378" lon="-8.634994">
        <ele>16.588</ele>
        <time>2015-03-26T07:36:08Z</time>
      </trkpt>
      <trkpt lat="42.056562" lon="-8.634883">
        <ele>15.521</ele>
        <time>2015-03-26T07:36:48Z</time>
      </trkpt>
      <trkpt lat="42.057003" lon="-8.634706">
        <ele>14.643</ele>
        <time>2015-03-26T07:37:02Z</time>
      </trkpt>
      <trkpt lat="42.057358" lon="-8.634716">
        <ele>14.673</ele>
        <time>2015-03-26T07:37:14Z</time>
      </trkpt>
      <trkpt lat="42.057685" lon="-8.634831">
        <ele>14.621</ele>
        <time>2015-03-26T07:37:26Z</time>
      </trkpt>
      <trkpt lat="42.058049" lon="-8.635010">
        <ele>14.646</ele>
        <time>2015-03-26T07:37:37Z</time>
      </trkpt>
      <trkpt lat="42.058373" lon="-8.635424">
        <ele>14.663</ele>
        <time>2015-03-26T07:37:49Z</time>
      </trkpt>
      <trkpt lat="42.058409" lon="-8.635843">
        <ele>14.687</ele>
        <time>2015-03-26T07:38:00Z</time>
      </trkpt>
      <trkpt lat="42.058404" lon="-8.636283">
        <ele>17.042</ele>
        <time>2015-03-26T07:38:13Z</time>
      </trkpt>
      <trkpt lat="42.058647" lon="-8.636537">
        <ele>17.026</ele>
        <time>2015-03-26T07:38:26Z</time>
      </trkpt>
      <trkpt lat="42.058931" lon="-8.636756">
        <ele>17.407</ele>
        <time>2015-03-26T07:38:40Z</time>
      </trkpt>
      <trkpt lat="42.059007" lon="-8.637038">
        <ele>19.877</ele>
        <time>2015-03-26T07:38:53Z</time>
      </trkpt>
      <trkpt lat="42.059021" lon="-8.637303">
        <ele>21.880</ele>
        <time>2015-03-26T07:39:04Z</time>
      </trkpt>
      <trkpt lat="42.059041" lon="-8.637402">
        <ele>22.372</ele>
        <time>2015-03-26T07:39:08Z</time>
      </trkpt>
      <trkpt lat="42.059083" lon="-8.637526">
        <ele>22.332</ele>
        <time>2015-03-26T07:39:13Z</time>
      </trkpt>
      <trkpt lat="42.059206" lon="-8.638097">
        <ele>22.790</ele>
        <time>2015-03-26T07:39:32Z</time>
      </trkpt>
      <trkpt lat="42.059319" lon="-8.638091">
        <ele>22.715</ele>
        <time>2015-03-26T07:39:36Z</time>
      </trkpt>
      <trkpt lat="42.059512" lon="-8.638020">
        <ele>21.352</ele>
        <time>2015-03-26T07:39:41Z</time>
      </trkpt>
      <trkpt lat="42.059958" lon="-8.637826">
        <ele>18.994</ele>
        <time>2015-03-26T07:39:50Z</time>
      </trkpt>
      <trkpt lat="42.060693" lon="-8.637458">
        <ele>15.557</ele>
        <time>2015-03-26T07:40:03Z</time>
      </trkpt>
      <trkpt lat="42.061442" lon="-8.637108">
        <ele>15.022</ele>
        <time>2015-03-26T07:40:17Z</time>
      </trkpt>
      <trkpt lat="42.061620" lon="-8.637048">
        <ele>15.007</ele>
        <time>2015-03-26T07:40:21Z</time>
      </trkpt>
      <trkpt lat="42.062021" lon="-8.637286">
        <ele>14.628</ele>
        <time>2015-03-26T07:40:33Z</time>
      </trkpt>
      <trkpt lat="42.062102" lon="-8.637732">
        <ele>16.021</ele>
        <time>2015-03-26T07:40:43Z</time>
      </trkpt>
      <trkpt lat="42.062070" lon="-8.638380">
        <ele>16.533</ele>
        <time>2015-03-26T07:40:57Z</time>
      </trkpt>
      <trkpt lat="42.062313" lon="-8.638897">
        <ele>17.483</ele>
        <time>2015-03-26T07:41:11Z</time>
      </trkpt>
      <trkpt lat="42.062763" lon="-8.639041">
        <ele>18.431</ele>
        <time>2015-03-26T07:41:25Z</time>
      </trkpt>
      <trkpt lat="42.063171" lon="-8.639079">
        <ele>20.316</ele>
        <time>2015-03-26T07:41:39Z</time>
      </trkpt>
      <trkpt lat="42.063535" lon="-8.639109">
        <ele>23.223</ele>
        <time>2015-03-26T07:41:55Z</time>
      </trkpt>
      <trkpt lat="42.063857" lon="-8.639147">
        <ele>25.191</ele>
        <time>2015-03-26T07:42:13Z</time>
      </trkpt>
      <trkpt lat="42.064131" lon="-8.639367">
        <ele>25.681</ele>
        <time>2015-03-26T07:42:35Z</time>
      </trkpt>
      <trkpt lat="42.064406" lon="-8.639778">
        <ele>26.619</ele>
        <time>2015-03-26T07:43:33Z</time>
      </trkpt>
      <trkpt lat="42.064463" lon="-8.639687">
        <ele>26.107</ele>
        <time>2015-03-26T07:43:37Z</time>
      </trkpt>
      <trkpt lat="42.064958" lon="-8.639300">
        <ele>27.568</ele>
        <time>2015-03-26T07:43:55Z</time>
      </trkpt>
      <trkpt lat="42.065471" lon="-8.638937">
        <ele>28.051</ele>
        <time>2015-03-26T07:44:13Z</time>
      </trkpt>
      <trkpt lat="42.065927" lon="-8.638709">
        <ele>29.073</ele>
        <time>2015-03-26T07:44:29Z</time>
      </trkpt>
      <trkpt lat="42.066161" lon="-8.638475">
        <ele>29.913</ele>
        <time>2015-03-26T07:44:41Z</time>
      </trkpt>
      <trkpt lat="42.066252" lon="-8.638407">
        <ele>29.961</ele>
        <time>2015-03-26T07:44:45Z</time>
      </trkpt>
      <trkpt lat="42.066657" lon="-8.638479">
        <ele>33.896</ele>
        <time>2015-03-26T07:45:03Z</time>
      </trkpt>
      <trkpt lat="42.067078" lon="-8.638452">
        <ele>36.213</ele>
        <time>2015-03-26T07:45:22Z</time>
      </trkpt>
      <trkpt lat="42.067520" lon="-8.638427">
        <ele>37.611</ele>
        <time>2015-03-26T07:45:40Z</time>
      </trkpt>
      <trkpt lat="42.068042" lon="-8.638487">
        <ele>36.721</ele>
        <time>2015-03-26T07:45:53Z</time>
      </trkpt>
      <trkpt lat="42.068225" lon="-8.638555">
        <ele>35.203</ele>
        <time>2015-03-26T07:45:56Z</time>
      </trkpt>
      <trkpt lat="42.068530" lon="-8.638683">
        <ele>31.907</ele>
        <time>2015-03-26T07:46:00Z</time>
      </trkpt>
      <trkpt lat="42.068889" lon="-8.638831">
        <ele>28.030</ele>
        <time>2015-03-26T07:46:04Z</time>
      </trkpt>
      <trkpt lat="42.069287" lon="-8.638962">
        <ele>24.253</ele>
        <time>2015-03-26T07:46:08Z</time>
      </trkpt>
      <trkpt lat="42.069594" lon="-8.639024">
        <ele>21.395</ele>
        <time>2015-03-26T07:46:11Z</time>
      </trkpt>
      <trkpt lat="42.070442" lon="-8.638907">
        <ele>18.965</ele>
        <time>2015-03-26T07:46:21Z</time>
      </trkpt>
      <trkpt lat="42.070863" lon="-8.638726">
        <ele>21.383</ele>
        <time>2015-03-26T07:46:31Z</time>
      </trkpt>
      <trkpt lat="42.071321" lon="-8.638652">
        <ele>24.268</ele>
        <time>2015-03-26T07:46:46Z</time>
      </trkpt>
      <trkpt lat="42.071699" lon="-8.638737">
        <ele>26.115</ele>
        <time>2015-03-26T07:46:59Z</time>
      </trkpt>
      <trkpt lat="42.072294" lon="-8.638852">
        <ele>27.157</ele>
        <time>2015-03-26T07:47:17Z</time>
      </trkpt>
      <trkpt lat="42.072891" lon="-8.639041">
        <ele>28.000</ele>
        <time>2015-03-26T07:47:34Z</time>
      </trkpt>
      <trkpt lat="42.073468" lon="-8.639152">
        <ele>28.020</ele>
        <time>2015-03-26T07:47:50Z</time>
      </trkpt>
      <trkpt lat="42.074063" lon="-8.639199">
        <ele>28.007</ele>
        <time>2015-03-26T07:48:05Z</time>
      </trkpt>
      <trkpt lat="42.074403" lon="-8.639285">
        <ele>26.614</ele>
        <time>2015-03-26T07:48:12Z</time>
      </trkpt>
      <trkpt lat="42.075477" lon="-8.639601">
        <ele>24.297</ele>
        <time>2015-03-26T07:48:32Z</time>
      </trkpt>
      <trkpt lat="42.075664" lon="-8.639638">
        <ele>23.749</ele>
        <time>2015-03-26T07:48:36Z</time>
      </trkpt>
      <trkpt lat="42.075883" lon="-8.639635">
        <ele>23.729</ele>
        <time>2015-03-26T07:48:41Z</time>
      </trkpt>
      <trkpt lat="42.076002" lon="-8.639588">
        <ele>23.717</ele>
        <time>2015-03-26T07:48:44Z</time>
      </trkpt>
      <trkpt lat="42.076143" lon="-8.639480">
        <ele>23.722</ele>
        <time>2015-03-26T07:48:48Z</time>
      </trkpt>
      <trkpt lat="42.076582" lon="-8.639000">
        <ele>26.199</ele>
        <time>2015-03-26T07:49:04Z</time>
      </trkpt>
      <trkpt lat="42.077062" lon="-8.638589">
        <ele>28.066</ele>
        <time>2015-03-26T07:49:21Z</time>
      </trkpt>
      <trkpt lat="42.077542" lon="-8.638370">
        <ele>29.529</ele>
        <time>2015-03-26T07:49:37Z</time>
      </trkpt>
      <trkpt lat="42.078164" lon="-8.638501">
        <ele>30.921</ele>
        <time>2015-03-26T07:49:55Z</time>
      </trkpt>
      <trkpt lat="42.078789" lon="-8.638686">
        <ele>30.907</ele>
        <time>2015-03-26T07:50:12Z</time>
      </trkpt>
      <trkpt lat="42.079150" lon="-8.638797">
        <ele>30.945</ele>
        <time>2015-03-26T07:50:21Z</time>
      </trkpt>
      <trkpt lat="42.079846" lon="-8.638973">
        <ele>31.448</ele>
        <time>2015-03-26T07:50:39Z</time>
      </trkpt>
      <trkpt lat="42.080419" lon="-8.638960">
        <ele>32.360</ele>
        <time>2015-03-26T07:50:53Z</time>
      </trkpt>
      <trkpt lat="42.080549" lon="-8.639005">
        <ele>32.360</ele>
        <time>2015-03-26T07:50:56Z</time>
      </trkpt>
      <trkpt lat="42.080640" lon="-8.639057">
        <ele>30.998</ele>
        <time>2015-03-26T07:50:58Z</time>
      </trkpt>
      <trkpt lat="42.080772" lon="-8.639180">
        <ele>30.413</ele>
        <time>2015-03-26T07:51:01Z</time>
      </trkpt>
      <trkpt lat="42.080931" lon="-8.639428">
        <ele>29.030</ele>
        <time>2015-03-26T07:51:05Z</time>
      </trkpt>
      <trkpt lat="42.081261" lon="-8.640045">
        <ele>26.141</ele>
        <time>2015-03-26T07:51:13Z</time>
      </trkpt>
      <trkpt lat="42.081443" lon="-8.640252">
        <ele>24.781</ele>
        <time>2015-03-26T07:51:16Z</time>
      </trkpt>
      <trkpt lat="42.082091" lon="-8.640619">
        <ele>25.109</ele>
        <time>2015-03-26T07:51:28Z</time>
      </trkpt>
      <trkpt lat="42.082228" lon="-8.640696">
        <ele>26.607</ele>
        <time>2015-03-26T07:51:32Z</time>
      </trkpt>
      <trkpt lat="42.082674" lon="-8.640955">
        <ele>27.563</ele>
        <time>2015-03-26T07:51:47Z</time>
      </trkpt>
      <trkpt lat="42.082737" lon="-8.640916">
        <ele>28.096</ele>
        <time>2015-03-26T07:51:51Z</time>
      </trkpt>
      <trkpt lat="42.082774" lon="-8.640620">
        <ele>30.968</ele>
        <time>2015-03-26T07:52:06Z</time>
      </trkpt>
      <trkpt lat="42.082784" lon="-8.640191">
        <ele>32.878</ele>
        <time>2015-03-26T07:52:23Z</time>
      </trkpt>
      <trkpt lat="42.082884" lon="-8.639837">
        <ele>35.266</ele>
        <time>2015-03-26T07:52:38Z</time>
      </trkpt>
      <trkpt lat="42.083037" lon="-8.639445">
        <ele>38.121</ele>
        <time>2015-03-26T07:52:57Z</time>
      </trkpt>
      <trkpt lat="42.083289" lon="-8.638930">
        <ele>38.638</ele>
        <time>2015-03-26T07:53:15Z</time>
      </trkpt>
      <trkpt lat="42.083341" lon="-8.638835">
        <ele>37.691</ele>
        <time>2015-03-26T07:53:17Z</time>
      </trkpt>
      <trkpt lat="42.083775" lon="-8.638475">
        <ele>34.381</ele>
        <time>2015-03-26T07:53:26Z</time>
      </trkpt>
      <trkpt lat="42.083895" lon="-8.638384">
        <ele>33.819</ele>
        <time>2015-03-26T07:53:29Z</time>
      </trkpt>
      <trkpt lat="42.084339" lon="-8.638103">
        <ele>29.007</ele>
        <time>2015-03-26T07:53:38Z</time>
      </trkpt>
      <trkpt lat="42.084832" lon="-8.637799">
        <ele>26.188</ele>
        <time>2015-03-26T07:53:46Z</time>
      </trkpt>
      <trkpt lat="42.084882" lon="-8.637759">
        <ele>26.141</ele>
        <time>2015-03-26T07:53:47Z</time>
      </trkpt>
      <trkpt lat="42.085246" lon="-8.637243">
        <ele>22.383</ele>
        <time>2015-03-26T07:53:56Z</time>
      </trkpt>
      <trkpt lat="42.085541" lon="-8.637105">
        <ele>20.313</ele>
        <time>2015-03-26T07:54:01Z</time>
      </trkpt>
      <trkpt lat="42.085955" lon="-8.637324">
        <ele>17.931</ele>
        <time>2015-03-26T07:54:09Z</time>
      </trkpt>
      <trkpt lat="42.086244" lon="-8.637445">
        <ele>16.556</ele>
        <time>2015-03-26T07:54:19Z</time>
      </trkpt>
      <trkpt lat="42.086444" lon="-8.637745">
        <ele>15.593</ele>
        <time>2015-03-26T07:54:32Z</time>
      </trkpt>
      <trkpt lat="42.086699" lon="-8.638129">
        <ele>17.038</ele>
        <time>2015-03-26T07:54:44Z</time>
      </trkpt>
      <trkpt lat="42.087056" lon="-8.638529">
        <ele>17.070</ele>
        <time>2015-03-26T07:54:57Z</time>
      </trkpt>
      <trkpt lat="42.087460" lon="-8.638829">
        <ele>17.017</ele>
        <time>2015-03-26T07:55:10Z</time>
      </trkpt>
      <trkpt lat="42.087928" lon="-8.639063">
        <ele>17.007</ele>
        <time>2015-03-26T07:55:24Z</time>
      </trkpt>
      <trkpt lat="42.088357" lon="-8.639170">
        <ele>17.492</ele>
        <time>2015-03-26T07:55:36Z</time>
      </trkpt>
      <trkpt lat="42.088835" lon="-8.639247">
        <ele>17.465</ele>
        <time>2015-03-26T07:55:50Z</time>
      </trkpt>
      <trkpt lat="42.089271" lon="-8.639324">
        <ele>17.467</ele>
        <time>2015-03-26T07:56:03Z</time>
      </trkpt>
      <trkpt lat="42.089669" lon="-8.639170">
        <ele>17.427</ele>
        <time>2015-03-26T07:56:15Z</time>
      </trkpt>
      <trkpt lat="42.090105" lon="-8.639118">
        <ele>17.445</ele>
        <time>2015-03-26T07:56:27Z</time>
      </trkpt>
      <trkpt lat="42.090325" lon="-8.639182">
        <ele>17.940</ele>
        <time>2015-03-26T07:56:36Z</time>
      </trkpt>
      <trkpt lat="42.090386" lon="-8.639226">
        <ele>18.917</ele>
        <time>2015-03-26T07:56:40Z</time>
      </trkpt>
      <trkpt lat="42.090450" lon="-8.639275">
        <ele>19.437</ele>
        <time>2015-03-26T07:56:44Z</time>
      </trkpt>
      <trkpt lat="42.090702" lon="-8.639280">
        <ele>22.349</ele>
        <time>2015-03-26T07:57:00Z</time>
      </trkpt>
      <trkpt lat="42.090944" lon="-8.639256">
        <ele>25.113</ele>
        <time>2015-03-26T07:57:15Z</time>
      </trkpt>
      <trkpt lat="42.091168" lon="-8.639286">
        <ele>26.607</ele>
        <time>2015-03-26T07:57:28Z</time>
      </trkpt>
      <trkpt lat="42.091483" lon="-8.639304">
        <ele>28.052</ele>
        <time>2015-03-26T07:57:45Z</time>
      </trkpt>
      <trkpt lat="42.091713" lon="-8.639263">
        <ele>29.595</ele>
        <time>2015-03-26T07:57:57Z</time>
      </trkpt>
      <trkpt lat="42.092151" lon="-8.639191">
        <ele>29.537</ele>
        <time>2015-03-26T07:58:14Z</time>
      </trkpt>
      <trkpt lat="42.092535" lon="-8.639050">
        <ele>29.597</ele>
        <time>2015-03-26T07:58:29Z</time>
      </trkpt>
      <trkpt lat="42.092988" lon="-8.638944">
        <ele>29.955</ele>
        <time>2015-03-26T07:58:47Z</time>
      </trkpt>
      <trkpt lat="42.093456" lon="-8.638804">
        <ele>31.910</ele>
        <time>2015-03-26T07:59:07Z</time>
      </trkpt>
      <trkpt lat="42.093787" lon="-8.638737">
        <ele>32.857</ele>
        <time>2015-03-26T07:59:21Z</time>
      </trkpt>
      <trkpt lat="42.094169" lon="-8.638606">
        <ele>32.893</ele>
        <time>2015-03-26T07:59:36Z</time>
      </trkpt>
      <trkpt lat="42.094617" lon="-8.638363">
        <ele>34.365</ele>
        <time>2015-03-26T07:59:55Z</time>
      </trkpt>
      <trkpt lat="42.095013" lon="-8.638375">
        <ele>36.721</ele>
        <time>2015-03-26T08:00:13Z</time>
      </trkpt>
      <trkpt lat="42.095397" lon="-8.638421">
        <ele>38.607</ele>
        <time>2015-03-26T08:00:29Z</time>
      </trkpt>
      <trkpt lat="42.095482" lon="-8.638464">
        <ele>38.698</ele>
        <time>2015-03-26T08:00:33Z</time>
      </trkpt>
      <trkpt lat="42.095470" lon="-8.638947">
        <ele>39.661</ele>
        <time>2015-03-26T08:00:47Z</time>
      </trkpt>
      <trkpt lat="42.095428" lon="-8.639442">
        <ele>39.653</ele>
        <time>2015-03-26T08:00:59Z</time>
      </trkpt>
      <trkpt lat="42.095443" lon="-8.639984">
        <ele>38.143</ele>
        <time>2015-03-26T08:01:08Z</time>
      </trkpt>
      <trkpt lat="42.095558" lon="-8.640715">
        <ele>37.691</ele>
        <time>2015-03-26T08:01:21Z</time>
      </trkpt>
      <trkpt lat="42.095754" lon="-8.640954">
        <ele>39.676</ele>
        <time>2015-03-26T08:01:32Z</time>
      </trkpt>
      <trkpt lat="42.096042" lon="-8.641176">
        <ele>40.523</ele>
        <time>2015-03-26T08:01:44Z</time>
      </trkpt>
      <trkpt lat="42.096358" lon="-8.641410">
        <ele>39.113</ele>
        <time>2015-03-26T08:01:52Z</time>
      </trkpt>
      <trkpt lat="42.096401" lon="-8.641440">
        <ele>38.643</ele>
        <time>2015-03-26T08:01:53Z</time>
      </trkpt>
      <trkpt lat="42.096552" lon="-8.641473">
        <ele>38.107</ele>
        <time>2015-03-26T08:01:57Z</time>
      </trkpt>
      <trkpt lat="42.096788" lon="-8.641429">
        <ele>39.607</ele>
        <time>2015-03-26T08:02:07Z</time>
      </trkpt>
      <trkpt lat="42.097111" lon="-8.641335">
        <ele>42.420</ele>
        <time>2015-03-26T08:02:22Z</time>
      </trkpt>
      <trkpt lat="42.097429" lon="-8.641229">
        <ele>44.863</ele>
        <time>2015-03-26T08:02:38Z</time>
      </trkpt>
      <trkpt lat="42.097359" lon="-8.640747">
        <ele>45.315</ele>
        <time>2015-03-26T08:02:53Z</time>
      </trkpt>
      <trkpt lat="42.097180" lon="-8.640141">
        <ele>45.365</ele>
        <time>2015-03-26T08:03:08Z</time>
      </trkpt>
      <trkpt lat="42.097295" lon="-8.639601">
        <ele>45.833</ele>
        <time>2015-03-26T08:03:21Z</time>
      </trkpt>
      <trkpt lat="42.097653" lon="-8.639425">
        <ele>46.898</ele>
        <time>2015-03-26T08:03:33Z</time>
      </trkpt>
      <trkpt lat="42.097700" lon="-8.639416">
        <ele>45.875</ele>
        <time>2015-03-26T08:03:35Z</time>
      </trkpt>
      <trkpt lat="42.098005" lon="-8.639791">
        <ele>44.436</ele>
        <time>2015-03-26T08:03:47Z</time>
      </trkpt>
      <trkpt lat="42.098137" lon="-8.639973">
        <ele>42.017</ele>
        <time>2015-03-26T08:03:52Z</time>
      </trkpt>
      <trkpt lat="42.098251" lon="-8.639815">
        <ele>38.618</ele>
        <time>2015-03-26T08:03:59Z</time>
      </trkpt>
      <trkpt lat="42.098314" lon="-8.639654">
        <ele>36.707</ele>
        <time>2015-03-26T08:04:02Z</time>
      </trkpt>
      <trkpt lat="42.098443" lon="-8.639380">
        <ele>32.852</ele>
        <time>2015-03-26T08:04:07Z</time>
      </trkpt>
      <trkpt lat="42.098536" lon="-8.639079">
        <ele>30.485</ele>
        <time>2015-03-26T08:04:11Z</time>
      </trkpt>
      <trkpt lat="42.098555" lon="-8.639006">
        <ele>29.967</ele>
        <time>2015-03-26T08:04:12Z</time>
      </trkpt>
      <trkpt lat="42.098887" lon="-8.638459">
        <ele>25.637</ele>
        <time>2015-03-26T08:04:20Z</time>
      </trkpt>
      <trkpt lat="42.099026" lon="-8.638169">
        <ele>22.395</ele>
        <time>2015-03-26T08:04:25Z</time>
      </trkpt>
      <trkpt lat="42.099272" lon="-8.638278">
        <ele>20.890</ele>
        <time>2015-03-26T08:04:35Z</time>
      </trkpt>
      <trkpt lat="42.099531" lon="-8.638245">
        <ele>20.327</ele>
        <time>2015-03-26T08:04:47Z</time>
      </trkpt>
      <trkpt lat="42.099593" lon="-8.638088">
        <ele>19.417</ele>
        <time>2015-03-26T08:04:54Z</time>
      </trkpt>
      <trkpt lat="42.099737" lon="-8.637723">
        <ele>18.987</ele>
        <time>2015-03-26T08:05:05Z</time>
      </trkpt>
      <trkpt lat="42.100109" lon="-8.637573">
        <ele>18.915</ele>
        <time>2015-03-26T08:05:17Z</time>
      </trkpt>
      <trkpt lat="42.100511" lon="-8.637356">
        <ele>18.907</ele>
        <time>2015-03-26T08:05:30Z</time>
      </trkpt>
      <trkpt lat="42.100936" lon="-8.637200">
        <ele>18.950</ele>
        <time>2015-03-26T08:05:43Z</time>
      </trkpt>
      <trkpt lat="42.101265" lon="-8.637114">
        <ele>18.993</ele>
        <time>2015-03-26T08:05:54Z</time>
      </trkpt>
      <trkpt lat="42.101620" lon="-8.637179">
        <ele>18.975</ele>
        <time>2015-03-26T08:06:06Z</time>
      </trkpt>
      <trkpt lat="42.102024" lon="-8.637182">
        <ele>18.995</ele>
        <time>2015-03-26T08:06:18Z</time>
      </trkpt>
      <trkpt lat="42.102105" lon="-8.637148">
        <ele>18.963</ele>
        <time>2015-03-26T08:06:21Z</time>
      </trkpt>
      <trkpt lat="42.102137" lon="-8.637034">
        <ele>18.918</ele>
        <time>2015-03-26T08:06:25Z</time>
      </trkpt>
      <trkpt lat="42.102290" lon="-8.636493">
        <ele>18.945</ele>
        <time>2015-03-26T08:06:40Z</time>
      </trkpt>
      <trkpt lat="42.102211" lon="-8.636099">
        <ele>19.843</ele>
        <time>2015-03-26T08:06:50Z</time>
      </trkpt>
      <trkpt lat="42.101987" lon="-8.635459">
        <ele>21.364</ele>
        <time>2015-03-26T08:07:08Z</time>
      </trkpt>
      <trkpt lat="42.101692" lon="-8.635319">
        <ele>22.710</ele>
        <time>2015-03-26T08:07:23Z</time>
      </trkpt>
      <trkpt lat="42.101472" lon="-8.635154">
        <ele>25.107</ele>
        <time>2015-03-26T08:07:37Z</time>
      </trkpt>
      <trkpt lat="42.101378" lon="-8.635080">
        <ele>25.633</ele>
        <time>2015-03-26T08:07:43Z</time>
      </trkpt>
      <trkpt lat="42.101251" lon="-8.634884">
        <ele>29.036</ele>
        <time>2015-03-26T08:07:57Z</time>
      </trkpt>
      <trkpt lat="42.101258" lon="-8.634637">
        <ele>31.988</ele>
        <time>2015-03-26T08:08:11Z</time>
      </trkpt>
      <trkpt lat="42.101403" lon="-8.634509">
        <ele>33.348</ele>
        <time>2015-03-26T08:08:24Z</time>
      </trkpt>
      <trkpt lat="42.101591" lon="-8.634331">
        <ele>36.276</ele>
        <time>2015-03-26T08:08:38Z</time>
      </trkpt>
      <trkpt lat="42.101819" lon="-8.634010">
        <ele>36.221</ele>
        <time>2015-03-26T08:08:55Z</time>
      </trkpt>
      <trkpt lat="42.102003" lon="-8.633657">
        <ele>38.648</ele>
        <time>2015-03-26T08:09:13Z</time>
      </trkpt>
      <trkpt lat="42.102217" lon="-8.633395">
        <ele>41.598</ele>
        <time>2015-03-26T08:09:30Z</time>
      </trkpt>
      <trkpt lat="42.102271" lon="-8.633470">
        <ele>42.015</ele>
        <time>2015-03-26T08:09:53Z</time>
      </trkpt>
      <trkpt lat="42.102520" lon="-8.633583">
        <ele>42.026</ele>
        <time>2015-03-26T08:10:06Z</time>
      </trkpt>
      <trkpt lat="42.102931" lon="-8.633646">
        <ele>39.107</ele>
        <time>2015-03-26T08:10:21Z</time>
      </trkpt>
      <trkpt lat="42.103017" lon="-8.633662">
        <ele>38.178</ele>
        <time>2015-03-26T08:10:24Z</time>
      </trkpt>
      <trkpt lat="42.103088" lon="-8.633754">
        <ele>36.711</ele>
        <time>2015-03-26T08:10:28Z</time>
      </trkpt>
      <trkpt lat="42.103277" lon="-8.633961">
        <ele>34.323</ele>
        <time>2015-03-26T08:10:37Z</time>
      </trkpt>
      <trkpt lat="42.103392" lon="-8.634067">
        <ele>33.823</ele>
        <time>2015-03-26T08:10:41Z</time>
      </trkpt>
      <trkpt lat="42.103789" lon="-8.634362">
        <ele>29.541</ele>
        <time>2015-03-26T08:10:53Z</time>
      </trkpt>
      <trkpt lat="42.104001" lon="-8.634543">
        <ele>26.176</ele>
        <time>2015-03-26T08:11:00Z</time>
      </trkpt>
      <trkpt lat="42.104087" lon="-8.634656">
        <ele>24.273</ele>
        <time>2015-03-26T08:11:03Z</time>
      </trkpt>
      <trkpt lat="42.104228" lon="-8.634759">
        <ele>21.865</ele>
        <time>2015-03-26T08:11:07Z</time>
      </trkpt>
      <trkpt lat="42.104655" lon="-8.634693">
        <ele>21.368</ele>
        <time>2015-03-26T08:11:19Z</time>
      </trkpt>
      <trkpt lat="42.104712" lon="-8.634765">
        <ele>21.314</ele>
        <time>2015-03-26T08:11:23Z</time>
      </trkpt>
      <trkpt lat="42.104828" lon="-8.635014">
        <ele>20.807</ele>
        <time>2015-03-26T08:11:36Z</time>
      </trkpt>
      <trkpt lat="42.104882" lon="-8.635043">
        <ele>20.875</ele>
        <time>2015-03-26T08:11:48Z</time>
      </trkpt>
      <trkpt lat="42.104997" lon="-8.635195">
        <ele>20.868</ele>
        <time>2015-03-26T08:12:01Z</time>
      </trkpt>
      <trkpt lat="42.105226" lon="-8.635495">
        <ele>20.860</ele>
        <time>2015-03-26T08:12:17Z</time>
      </trkpt>
      <trkpt lat="42.105442" lon="-8.635806">
        <ele>20.850</ele>
        <time>2015-03-26T08:12:31Z</time>
      </trkpt>
      <trkpt lat="42.105585" lon="-8.635948">
        <ele>20.888</ele>
        <time>2015-03-26T08:12:39Z</time>
      </trkpt>
      <trkpt lat="42.105689" lon="-8.636300">
        <ele>20.833</ele>
        <time>2015-03-26T08:12:52Z</time>
      </trkpt>
      <trkpt lat="42.105817" lon="-8.636684">
        <ele>23.290</ele>
        <time>2015-03-26T08:13:08Z</time>
      </trkpt>
      <trkpt lat="42.105863" lon="-8.637250">
        <ele>24.289</ele>
        <time>2015-03-26T08:13:26Z</time>
      </trkpt>
      <trkpt lat="42.105924" lon="-8.637740">
        <ele>25.606</ele>
        <time>2015-03-26T08:13:42Z</time>
      </trkpt>
      <trkpt lat="42.106214" lon="-8.637768">
        <ele>26.126</ele>
        <time>2015-03-26T08:13:55Z</time>
      </trkpt>
      <trkpt lat="42.106592" lon="-8.637823">
        <ele>26.607</ele>
        <time>2015-03-26T08:14:11Z</time>
      </trkpt>
      <trkpt lat="42.106777" lon="-8.637949">
        <ele>27.137</ele>
        <time>2015-03-26T08:14:21Z</time>
      </trkpt>
      <trkpt lat="42.106814" lon="-8.638070">
        <ele>27.570</ele>
        <time>2015-03-26T08:14:26Z</time>
      </trkpt>
      <trkpt lat="42.106819" lon="-8.638317">
        <ele>29.562</ele>
        <time>2015-03-26T08:14:37Z</time>
      </trkpt>
      <trkpt lat="42.107056" lon="-8.638531">
        <ele>32.312</ele>
        <time>2015-03-26T08:14:53Z</time>
      </trkpt>
      <trkpt lat="42.107299" lon="-8.638700">
        <ele>33.860</ele>
        <time>2015-03-26T08:15:08Z</time>
      </trkpt>
      <trkpt lat="42.107504" lon="-8.638947">
        <ele>36.725</ele>
        <time>2015-03-26T08:15:23Z</time>
      </trkpt>
      <trkpt lat="42.107699" lon="-8.639208">
        <ele>39.182</ele>
        <time>2015-03-26T08:15:38Z</time>
      </trkpt>
      <trkpt lat="42.107899" lon="-8.639487">
        <ele>41.039</ele>
        <time>2015-03-26T08:15:52Z</time>
      </trkpt>
      <trkpt lat="42.108168" lon="-8.639764">
        <ele>43.401</ele>
        <time>2015-03-26T08:16:08Z</time>
      </trkpt>
      <trkpt lat="42.108518" lon="-8.640000">
        <ele>44.821</ele>
        <time>2015-03-26T08:16:25Z</time>
      </trkpt>
      <trkpt lat="42.108836" lon="-8.640173">
        <ele>44.407</ele>
        <time>2015-03-26T08:16:36Z</time>
      </trkpt>
      <trkpt lat="42.109112" lon="-8.640533">
        <ele>44.422</ele>
        <time>2015-03-26T08:16:48Z</time>
      </trkpt>
      <trkpt lat="42.109267" lon="-8.640711">
        <ele>43.445</ele>
        <time>2015-03-26T08:16:53Z</time>
      </trkpt>
      <trkpt lat="42.109415" lon="-8.640865">
        <ele>42.427</ele>
        <time>2015-03-26T08:16:57Z</time>
      </trkpt>
      <trkpt lat="42.109643" lon="-8.640889">
        <ele>41.517</ele>
        <time>2015-03-26T08:17:02Z</time>
      </trkpt>
      <trkpt lat="42.109896" lon="-8.640841">
        <ele>39.125</ele>
        <time>2015-03-26T08:17:07Z</time>
      </trkpt>
      <trkpt lat="42.110202" lon="-8.640934">
        <ele>34.740</ele>
        <time>2015-03-26T08:17:12Z</time>
      </trkpt>
      <trkpt lat="42.110485" lon="-8.640931">
        <ele>30.927</ele>
        <time>2015-03-26T08:17:17Z</time>
      </trkpt>
      <trkpt lat="42.110587" lon="-8.640877">
        <ele>29.929</ele>
        <time>2015-03-26T08:17:21Z</time>
      </trkpt>
      <trkpt lat="42.110642" lon="-8.640848">
        <ele>29.000</ele>
        <time>2015-03-26T08:17:24Z</time>
      </trkpt>
      <trkpt lat="42.110915" lon="-8.640777">
        <ele>28.520</ele>
        <time>2015-03-26T08:17:39Z</time>
      </trkpt>
      <trkpt lat="42.111162" lon="-8.640712">
        <ele>28.507</ele>
        <time>2015-03-26T08:17:52Z</time>
      </trkpt>
      <trkpt lat="42.111440" lon="-8.640706">
        <ele>28.571</ele>
        <time>2015-03-26T08:18:06Z</time>
      </trkpt>
      <trkpt lat="42.111604" lon="-8.640691">
        <ele>28.514</ele>
        <time>2015-03-26T08:18:15Z</time>
      </trkpt>
      <trkpt lat="42.111894" lon="-8.640736">
        <ele>28.586</ele>
        <time>2015-03-26T08:18:32Z</time>
      </trkpt>
      <trkpt lat="42.112086" lon="-8.640689">
        <ele>29.986</ele>
        <time>2015-03-26T08:18:44Z</time>
      </trkpt>
      <trkpt lat="42.112188" lon="-8.640644">
        <ele>30.414</ele>
        <time>2015-03-26T08:18:51Z</time>
      </trkpt>
      <trkpt lat="42.112410" lon="-8.640565">
        <ele>30.939</ele>
        <time>2015-03-26T08:19:04Z</time>
      </trkpt>
      <trkpt lat="42.112605" lon="-8.640486">
        <ele>31.966</ele>
        <time>2015-03-26T08:19:17Z</time>
      </trkpt>
      <trkpt lat="42.112790" lon="-8.640438">
        <ele>33.852</ele>
        <time>2015-03-26T08:19:29Z</time>
      </trkpt>
      <trkpt lat="42.113032" lon="-8.640474">
        <ele>35.253</ele>
        <time>2015-03-26T08:19:44Z</time>
      </trkpt>
      <trkpt lat="42.113235" lon="-8.640504">
        <ele>36.708</ele>
        <time>2015-03-26T08:19:57Z</time>
      </trkpt>
      <trkpt lat="42.113451" lon="-8.640590">
        <ele>38.107</ele>
        <time>2015-03-26T08:20:09Z</time>
      </trkpt>
      <trkpt lat="42.113695" lon="-8.640740">
        <ele>38.634</ele>
        <time>2015-03-26T08:20:21Z</time>
      </trkpt>
      <trkpt lat="42.113732" lon="-8.640860">
        <ele>38.687</ele>
        <time>2015-03-26T08:20:33Z</time>
      </trkpt>
      <trkpt lat="42.113874" lon="-8.640889">
        <ele>38.619</ele>
        <time>2015-03-26T08:20:45Z</time>
      </trkpt>
      <trkpt lat="42.113967" lon="-8.640902">
        <ele>38.639</ele>
        <time>2015-03-26T08:20:52Z</time>
      </trkpt>
      <trkpt lat="42.114018" lon="-8.640900">
        <ele>38.667</ele>
        <time>2015-03-26T08:21:06Z</time>
      </trkpt>
      <trkpt lat="42.114149" lon="-8.640942">
        <ele>38.632</ele>
        <time>2015-03-26T08:21:17Z</time>
      </trkpt>
      <trkpt lat="42.114353" lon="-8.641099">
        <ele>38.689</ele>
        <time>2015-03-26T08:21:30Z</time>
      </trkpt>
      <trkpt lat="42.114563" lon="-8.641299">
        <ele>40.032</ele>
        <time>2015-03-26T08:21:43Z</time>
      </trkpt>
      <trkpt lat="42.114611" lon="-8.641342">
        <ele>40.592</ele>
        <time>2015-03-26T08:21:46Z</time>
      </trkpt>
      <trkpt lat="42.114866" lon="-8.641536">
        <ele>41.511</ele>
        <time>2015-03-26T08:22:03Z</time>
      </trkpt>
      <trkpt lat="42.115110" lon="-8.641619">
        <ele>42.907</ele>
        <time>2015-03-26T08:22:16Z</time>
      </trkpt>
      <trkpt lat="42.115444" lon="-8.641690">
        <ele>43.922</ele>
        <time>2015-03-26T08:22:32Z</time>
      </trkpt>
      <trkpt lat="42.115786" lon="-8.641844">
        <ele>44.855</ele>
        <time>2015-03-26T08:22:46Z</time>
      </trkpt>
      <trkpt lat="42.116195" lon="-8.642122">
        <ele>45.337</ele>
        <time>2015-03-26T08:23:00Z</time>
      </trkpt>
      <trkpt lat="42.116725" lon="-8.642324">
        <ele>45.867</ele>
        <time>2015-03-26T08:23:16Z</time>
      </trkpt>
      <trkpt lat="42.117160" lon="-8.642016">
        <ele>45.855</ele>
        <time>2015-03-26T08:23:29Z</time>
      </trkpt>
      <trkpt lat="42.117676" lon="-8.641692">
        <ele>44.820</ele>
        <time>2015-03-26T08:23:44Z</time>
      </trkpt>
      <trkpt lat="42.118057" lon="-8.641554">
        <ele>44.847</ele>
        <time>2015-03-26T08:23:58Z</time>
      </trkpt>
      <trkpt lat="42.118130" lon="-8.641531">
        <ele>45.847</ele>
        <time>2015-03-26T08:24:01Z</time>
      </trkpt>
      <trkpt lat="42.118414" lon="-8.641403">
        <ele>47.729</ele>
        <time>2015-03-26T08:24:16Z</time>
      </trkpt>
      <trkpt lat="42.118650" lon="-8.641284">
        <ele>49.721</ele>
        <time>2015-03-26T08:24:32Z</time>
      </trkpt>
      <trkpt lat="42.118817" lon="-8.641187">
        <ele>52.107</ele>
        <time>2015-03-26T08:24:45Z</time>
      </trkpt>
      <trkpt lat="42.119048" lon="-8.641147">
        <ele>54.043</ele>
        <time>2015-03-26T08:25:01Z</time>
      </trkpt>
      <trkpt lat="42.119366" lon="-8.641450">
        <ele>54.516</ele>
        <time>2015-03-26T08:25:16Z</time>
      </trkpt>
      <trkpt lat="42.119933" lon="-8.641945">
        <ele>54.598</ele>
        <time>2015-03-26T08:25:35Z</time>
      </trkpt>
      <trkpt lat="42.120476" lon="-8.642325">
        <ele>55.498</ele>
        <time>2015-03-26T08:25:53Z</time>
      </trkpt>
      <trkpt lat="42.120961" lon="-8.642409">
        <ele>53.536</ele>
        <time>2015-03-26T08:26:05Z</time>
      </trkpt>
      <trkpt lat="42.121224" lon="-8.642534">
        <ele>50.151</ele>
        <time>2015-03-26T08:26:09Z</time>
      </trkpt>
      <trkpt lat="42.121370" lon="-8.642644">
        <ele>48.248</ele>
        <time>2015-03-26T08:26:11Z</time>
      </trkpt>
      <trkpt lat="42.121511" lon="-8.642781">
        <ele>46.361</ele>
        <time>2015-03-26T08:26:13Z</time>
      </trkpt>
      <trkpt lat="42.121842" lon="-8.643302">
        <ele>41.521</ele>
        <time>2015-03-26T08:26:19Z</time>
      </trkpt>
      <trkpt lat="42.121905" lon="-8.643390">
        <ele>41.513</ele>
        <time>2015-03-26T08:26:20Z</time>
      </trkpt>
      <trkpt lat="42.122538" lon="-8.644116">
        <ele>40.507</ele>
        <time>2015-03-26T08:26:31Z</time>
      </trkpt>
      <trkpt lat="42.122624" lon="-8.644187">
        <ele>40.575</ele>
        <time>2015-03-26T08:26:33Z</time>
      </trkpt>
      <trkpt lat="42.122976" lon="-8.644513">
        <ele>40.548</ele>
        <time>2015-03-26T08:26:45Z</time>
      </trkpt>
      <trkpt lat="42.123351" lon="-8.644699">
        <ele>40.530</ele>
        <time>2015-03-26T08:26:56Z</time>
      </trkpt>
      <trkpt lat="42.123799" lon="-8.644937">
        <ele>41.550</ele>
        <time>2015-03-26T08:27:09Z</time>
      </trkpt>
      <trkpt lat="42.124492" lon="-8.645148">
        <ele>41.578</ele>
        <time>2015-03-26T08:27:25Z</time>
      </trkpt>
      <trkpt lat="42.124775" lon="-8.645040">
        <ele>40.593</ele>
        <time>2015-03-26T08:27:32Z</time>
      </trkpt>
      <trkpt lat="42.125208" lon="-8.644289">
        <ele>40.570</ele>
        <time>2015-03-26T08:27:51Z</time>
      </trkpt>
      <trkpt lat="42.125373" lon="-8.643480">
        <ele>40.579</ele>
        <time>2015-03-26T08:28:09Z</time>
      </trkpt>
      <trkpt lat="42.125251" lon="-8.643098">
        <ele>43.405</ele>
        <time>2015-03-26T08:28:22Z</time>
      </trkpt>
      <trkpt lat="42.125261" lon="-8.642643">
        <ele>44.425</ele>
        <time>2015-03-26T08:28:38Z</time>
      </trkpt>
      <trkpt lat="42.125411" lon="-8.642164">
        <ele>44.807</ele>
        <time>2015-03-26T08:28:51Z</time>
      </trkpt>
      <trkpt lat="42.125761" lon="-8.641525">
        <ele>45.366</ele>
        <time>2015-03-26T08:29:08Z</time>
      </trkpt>
      <trkpt lat="42.126111" lon="-8.641371">
        <ele>47.219</ele>
        <time>2015-03-26T08:29:22Z</time>
      </trkpt>
      <trkpt lat="42.126550" lon="-8.641490">
        <ele>48.741</ele>
        <time>2015-03-26T08:29:40Z</time>
      </trkpt>
      <trkpt lat="42.127034" lon="-8.641725">
        <ele>47.271</ele>
        <time>2015-03-26T08:29:53Z</time>
      </trkpt>
      <trkpt lat="42.127633" lon="-8.642142">
        <ele>47.299</ele>
        <time>2015-03-26T08:30:10Z</time>
      </trkpt>
      <trkpt lat="42.128387" lon="-8.642466">
        <ele>47.294</ele>
        <time>2015-03-26T08:30:31Z</time>
      </trkpt>
      <trkpt lat="42.128778" lon="-8.642551">
        <ele>50.181</ele>
        <time>2015-03-26T08:30:46Z</time>
      </trkpt>
      <trkpt lat="42.129288" lon="-8.642671">
        <ele>52.528</ele>
        <time>2015-03-26T08:31:06Z</time>
      </trkpt>
      <trkpt lat="42.129686" lon="-8.642606">
        <ele>54.989</ele>
        <time>2015-03-26T08:31:22Z</time>
      </trkpt>
      <trkpt lat="42.129891" lon="-8.642432">
        <ele>54.917</ele>
        <time>2015-03-26T08:31:28Z</time>
      </trkpt>
      <trkpt lat="42.129983" lon="-8.642373">
        <ele>53.507</ele>
        <time>2015-03-26T08:31:30Z</time>
      </trkpt>
      <trkpt lat="42.130162" lon="-8.642310">
        <ele>48.721</ele>
        <time>2015-03-26T08:46:17Z</time>
      </trkpt>
      <trkpt lat="42.130591" lon="-8.642183">
        <ele>47.274</ele>
        <time>2015-03-26T08:46:37Z</time>
      </trkpt>
      <trkpt lat="42.131228" lon="-8.642080">
        <ele>46.846</ele>
        <time>2015-03-26T08:46:54Z</time>
      </trkpt>
      <trkpt lat="42.131903" lon="-8.641753">
        <ele>46.376</ele>
        <time>2015-03-26T08:47:13Z</time>
      </trkpt>
      <trkpt lat="42.132316" lon="-8.641001">
        <ele>47.784</ele>
        <time>2015-03-26T08:47:32Z</time>
      </trkpt>
      <trkpt lat="42.132675" lon="-8.640321">
        <ele>49.229</ele>
        <time>2015-03-26T08:47:50Z</time>
      </trkpt>
      <trkpt lat="42.132750" lon="-8.640155">
        <ele>48.276</ele>
        <time>2015-03-26T08:47:53Z</time>
      </trkpt>
      <trkpt lat="42.132972" lon="-8.639605">
        <ele>44.894</ele>
        <time>2015-03-26T08:48:00Z</time>
      </trkpt>
      <trkpt lat="42.133392" lon="-8.638544">
        <ele>43.957</ele>
        <time>2015-03-26T08:48:14Z</time>
      </trkpt>
      <trkpt lat="42.133733" lon="-8.637740">
        <ele>42.922</ele>
        <time>2015-03-26T08:48:29Z</time>
      </trkpt>
      <trkpt lat="42.134020" lon="-8.637012">
        <ele>44.407</ele>
        <time>2015-03-26T08:48:45Z</time>
      </trkpt>
      <trkpt lat="42.134397" lon="-8.636143">
        <ele>43.418</ele>
        <time>2015-03-26T08:49:02Z</time>
      </trkpt>
      <trkpt lat="42.134575" lon="-8.635739">
        <ele>39.661</ele>
        <time>2015-03-26T08:49:07Z</time>
      </trkpt>
      <trkpt lat="42.134749" lon="-8.635331">
        <ele>36.773</ele>
        <time>2015-03-26T08:49:11Z</time>
      </trkpt>
      <trkpt lat="42.134895" lon="-8.634996">
        <ele>35.253</ele>
        <time>2015-03-26T08:49:14Z</time>
      </trkpt>
      <trkpt lat="42.135181" lon="-8.634348">
        <ele>31.991</ele>
        <time>2015-03-26T08:49:20Z</time>
      </trkpt>
      <trkpt lat="42.135282" lon="-8.634159">
        <ele>31.456</ele>
        <time>2015-03-26T08:49:22Z</time>
      </trkpt>
      <trkpt lat="42.135788" lon="-8.633848">
        <ele>27.163</ele>
        <time>2015-03-26T08:49:28Z</time>
      </trkpt>
      <trkpt lat="42.137023" lon="-8.633621">
        <ele>24.726</ele>
        <time>2015-03-26T08:49:42Z</time>
      </trkpt>
      <trkpt lat="42.137646" lon="-8.633460">
        <ele>24.747</ele>
        <time>2015-03-26T08:49:54Z</time>
      </trkpt>
      <trkpt lat="42.138270" lon="-8.633169">
        <ele>26.111</ele>
        <time>2015-03-26T08:50:11Z</time>
      </trkpt>
      <trkpt lat="42.139005" lon="-8.632828">
        <ele>27.507</ele>
        <time>2015-03-26T08:50:31Z</time>
      </trkpt>
      <trkpt lat="42.139428" lon="-8.632671">
        <ele>28.091</ele>
        <time>2015-03-26T08:50:42Z</time>
      </trkpt>
      <trkpt lat="42.140168" lon="-8.632523">
        <ele>25.184</ele>
        <time>2015-03-26T08:50:55Z</time>
      </trkpt>
      <trkpt lat="42.140736" lon="-8.632173">
        <ele>25.116</ele>
        <time>2015-03-26T08:51:09Z</time>
      </trkpt>
      <trkpt lat="42.140851" lon="-8.632101">
        <ele>26.676</ele>
        <time>2015-03-26T08:51:12Z</time>
      </trkpt>
      <trkpt lat="42.141526" lon="-8.631689">
        <ele>28.074</ele>
        <time>2015-03-26T08:51:31Z</time>
      </trkpt>
      <trkpt lat="42.142211" lon="-8.631349">
        <ele>28.039</ele>
        <time>2015-03-26T08:51:49Z</time>
      </trkpt>
      <trkpt lat="42.142998" lon="-8.630957">
        <ele>29.036</ele>
        <time>2015-03-26T08:52:10Z</time>
      </trkpt>
      <trkpt lat="42.143847" lon="-8.630507">
        <ele>29.016</ele>
        <time>2015-03-26T08:52:31Z</time>
      </trkpt>
      <trkpt lat="42.143996" lon="-8.630404">
        <ele>29.076</ele>
        <time>2015-03-26T08:52:35Z</time>
      </trkpt>
      <trkpt lat="42.144092" lon="-8.630301">
        <ele>28.013</ele>
        <time>2015-03-26T08:52:38Z</time>
      </trkpt>
      <trkpt lat="42.144273" lon="-8.629547">
        <ele>27.507</ele>
        <time>2015-03-26T08:52:52Z</time>
      </trkpt>
      <trkpt lat="42.144325" lon="-8.628700">
        <ele>27.150</ele>
        <time>2015-03-26T08:53:06Z</time>
      </trkpt>
      <trkpt lat="42.144488" lon="-8.627376">
        <ele>26.193</ele>
        <time>2015-03-26T08:53:27Z</time>
      </trkpt>
      <trkpt lat="42.144503" lon="-8.625888">
        <ele>25.685</ele>
        <time>2015-03-26T08:53:51Z</time>
      </trkpt>
      <trkpt lat="42.144522" lon="-8.625511">
        <ele>25.685</ele>
        <time>2015-03-26T08:53:57Z</time>
      </trkpt>
      <trkpt lat="42.144534" lon="-8.625259">
        <ele>25.643</ele>
        <time>2015-03-26T08:54:02Z</time>
      </trkpt>
      <trkpt lat="42.144431" lon="-8.624397">
        <ele>25.638</ele>
        <time>2015-03-26T08:54:16Z</time>
      </trkpt>
      <trkpt lat="42.144528" lon="-8.623953">
        <ele>25.625</ele>
        <time>2015-03-26T08:54:26Z</time>
      </trkpt>
      <trkpt lat="42.144798" lon="-8.623815">
        <ele>28.045</ele>
        <time>2015-03-26T08:54:40Z</time>
      </trkpt>
      <trkpt lat="42.145048" lon="-8.623678">
        <ele>31.447</ele>
        <time>2015-03-26T08:54:55Z</time>
      </trkpt>
      <trkpt lat="42.145353" lon="-8.623489">
        <ele>34.311</ele>
        <time>2015-03-26T08:55:15Z</time>
      </trkpt>
      <trkpt lat="42.145639" lon="-8.623299">
        <ele>37.207</ele>
        <time>2015-03-26T08:55:33Z</time>
      </trkpt>
      <trkpt lat="42.145846" lon="-8.622923">
        <ele>36.233</ele>
        <time>2015-03-26T08:55:46Z</time>
      </trkpt>
      <trkpt lat="42.145914" lon="-8.622594">
        <ele>32.836</ele>
        <time>2015-03-26T08:55:51Z</time>
      </trkpt>
      <trkpt lat="42.145937" lon="-8.622422">
        <ele>30.978</ele>
        <time>2015-03-26T08:56:00Z</time>
      </trkpt>
      <trkpt lat="42.145968" lon="-8.622325">
        <ele>30.998</ele>
        <time>2015-03-26T08:56:07Z</time>
      </trkpt>
      <trkpt lat="42.146423" lon="-8.622267">
        <ele>30.926</ele>
        <time>2015-03-26T08:56:20Z</time>
      </trkpt>
      <trkpt lat="42.147162" lon="-8.622236">
        <ele>30.921</ele>
        <time>2015-03-26T08:56:37Z</time>
      </trkpt>
      <trkpt lat="42.148161" lon="-8.622198">
        <ele>29.948</ele>
        <time>2015-03-26T08:56:59Z</time>
      </trkpt>
      <trkpt lat="42.148881" lon="-8.622061">
        <ele>30.913</ele>
        <time>2015-03-26T08:57:16Z</time>
      </trkpt>
      <trkpt lat="42.149834" lon="-8.621772">
        <ele>32.343</ele>
        <time>2015-03-26T08:57:39Z</time>
      </trkpt>
      <trkpt lat="42.150729" lon="-8.621498">
        <ele>32.807</ele>
        <time>2015-03-26T08:57:59Z</time>
      </trkpt>
      <trkpt lat="42.151425" lon="-8.621264">
        <ele>32.807</ele>
        <time>2015-03-26T08:58:15Z</time>
      </trkpt>
      <trkpt lat="42.152311" lon="-8.620972">
        <ele>32.860</ele>
        <time>2015-03-26T08:58:35Z</time>
      </trkpt>
      <trkpt lat="42.153121" lon="-8.620708">
        <ele>30.463</ele>
        <time>2015-03-26T08:58:52Z</time>
      </trkpt>
      <trkpt lat="42.153948" lon="-8.620454">
        <ele>29.975</ele>
        <time>2015-03-26T08:59:12Z</time>
      </trkpt>
      <trkpt lat="42.154403" lon="-8.620479">
        <ele>29.965</ele>
        <time>2015-03-26T08:59:25Z</time>
      </trkpt>
      <trkpt lat="42.154431" lon="-8.620550">
        <ele>29.943</ele>
        <time>2015-03-26T08:59:27Z</time>
      </trkpt>
      <trkpt lat="42.155007" lon="-8.620872">
        <ele>29.948</ele>
        <time>2015-03-26T08:59:43Z</time>
      </trkpt>
      <trkpt lat="42.155311" lon="-8.620906">
        <ele>30.965</ele>
        <time>2015-03-26T09:00:22Z</time>
      </trkpt>
      <trkpt lat="42.155619" lon="-8.620918">
        <ele>30.991</ele>
        <time>2015-03-26T09:00:35Z</time>
      </trkpt>
      <trkpt lat="42.156225" lon="-8.620635">
        <ele>29.981</ele>
        <time>2015-03-26T09:00:50Z</time>
      </trkpt>
      <trkpt lat="42.156781" lon="-8.620367">
        <ele>30.419</ele>
        <time>2015-03-26T09:01:05Z</time>
      </trkpt>
      <trkpt lat="42.157223" lon="-8.620068">
        <ele>31.407</ele>
        <time>2015-03-26T09:01:19Z</time>
      </trkpt>
      <trkpt lat="42.157540" lon="-8.620000">
        <ele>31.998</ele>
        <time>2015-03-26T09:01:29Z</time>
      </trkpt>
      <trkpt lat="42.157947" lon="-8.620032">
        <ele>32.851</ele>
        <time>2015-03-26T09:01:41Z</time>
      </trkpt>
      <trkpt lat="42.158185" lon="-8.620061">
        <ele>33.863</ele>
        <time>2015-03-26T09:01:51Z</time>
      </trkpt>
      <trkpt lat="42.158428" lon="-8.620185">
        <ele>36.733</ele>
        <time>2015-03-26T09:02:05Z</time>
      </trkpt>
      <trkpt lat="42.158716" lon="-8.620193">
        <ele>38.621</ele>
        <time>2015-03-26T09:02:20Z</time>
      </trkpt>
      <trkpt lat="42.159015" lon="-8.620197">
        <ele>39.196</ele>
        <time>2015-03-26T09:02:34Z</time>
      </trkpt>
      <trkpt lat="42.159227" lon="-8.620493">
        <ele>37.683</ele>
        <time>2015-03-26T09:02:45Z</time>
      </trkpt>
      <trkpt lat="42.159296" lon="-8.620894">
        <ele>34.744</ele>
        <time>2015-03-26T09:02:55Z</time>
      </trkpt>
      <trkpt lat="42.159303" lon="-8.621031">
        <ele>33.805</ele>
        <time>2015-03-26T09:02:58Z</time>
      </trkpt>
      <trkpt lat="42.159520" lon="-8.621076">
        <ele>33.315</ele>
        <time>2015-03-26T09:03:10Z</time>
      </trkpt>
      <trkpt lat="42.159586" lon="-8.621066">
        <ele>33.307</ele>
        <time>2015-03-26T09:03:13Z</time>
      </trkpt>
      <trkpt lat="42.159760" lon="-8.621081">
        <ele>35.233</ele>
        <time>2015-03-26T09:35:17Z</time>
      </trkpt>
      <trkpt lat="42.160145" lon="-8.621119">
        <ele>35.266</ele>
        <time>2015-03-26T09:35:31Z</time>
      </trkpt>
      <trkpt lat="42.160459" lon="-8.621062">
        <ele>35.218</ele>
        <time>2015-03-26T09:35:44Z</time>
      </trkpt>
      <trkpt lat="42.160819" lon="-8.621051">
        <ele>36.728</ele>
        <time>2015-03-26T09:35:58Z</time>
      </trkpt>
      <trkpt lat="42.161319" lon="-8.621035">
        <ele>37.296</ele>
        <time>2015-03-26T09:36:14Z</time>
      </trkpt>
      <trkpt lat="42.161575" lon="-8.621066">
        <ele>37.661</ele>
        <time>2015-03-26T09:36:23Z</time>
      </trkpt>
      <trkpt lat="42.161658" lon="-8.621068">
        <ele>37.688</ele>
        <time>2015-03-26T09:36:37Z</time>
      </trkpt>
      <trkpt lat="42.161754" lon="-8.621029">
        <ele>38.119</ele>
        <time>2015-03-26T09:37:07Z</time>
      </trkpt>
      <trkpt lat="42.161825" lon="-8.621066">
        <ele>38.109</ele>
        <time>2015-03-26T09:37:14Z</time>
      </trkpt>
      <trkpt lat="42.161886" lon="-8.621200">
        <ele>38.119</ele>
        <time>2015-03-26T09:37:24Z</time>
      </trkpt>
      <trkpt lat="42.162249" lon="-8.621381">
        <ele>39.607</ele>
        <time>2015-03-26T09:37:39Z</time>
      </trkpt>
      <trkpt lat="42.162556" lon="-8.621391">
        <ele>40.550</ele>
        <time>2015-03-26T09:37:50Z</time>
      </trkpt>
      <trkpt lat="42.162685" lon="-8.621461">
        <ele>41.073</ele>
        <time>2015-03-26T09:37:55Z</time>
      </trkpt>
      <trkpt lat="42.162849" lon="-8.621438">
        <ele>41.055</ele>
        <time>2015-03-26T09:38:03Z</time>
      </trkpt>
      <trkpt lat="42.163200" lon="-8.621318">
        <ele>41.575</ele>
        <time>2015-03-26T09:38:14Z</time>
      </trkpt>
      <trkpt lat="42.163730" lon="-8.621141">
        <ele>42.433</ele>
        <time>2015-03-26T09:38:30Z</time>
      </trkpt>
      <trkpt lat="42.164128" lon="-8.621068">
        <ele>43.428</ele>
        <time>2015-03-26T09:38:42Z</time>
      </trkpt>
      <trkpt lat="42.164617" lon="-8.620938">
        <ele>44.425</ele>
        <time>2015-03-26T09:38:57Z</time>
      </trkpt>
      <trkpt lat="42.165075" lon="-8.620821">
        <ele>44.843</ele>
        <time>2015-03-26T09:39:10Z</time>
      </trkpt>
      <trkpt lat="42.165689" lon="-8.620601">
        <ele>46.864</ele>
        <time>2015-03-26T09:39:28Z</time>
      </trkpt>
      <trkpt lat="42.165807" lon="-8.620546">
        <ele>47.210</ele>
        <time>2015-03-26T09:39:37Z</time>
      </trkpt>
      <trkpt lat="42.166012" lon="-8.620287">
        <ele>48.707</ele>
        <time>2015-03-26T09:39:50Z</time>
      </trkpt>
      <trkpt lat="42.166436" lon="-8.620393">
        <ele>49.273</ele>
        <time>2015-03-26T09:40:03Z</time>
      </trkpt>
      <trkpt lat="42.166951" lon="-8.620258">
        <ele>50.646</ele>
        <time>2015-03-26T09:40:19Z</time>
      </trkpt>
      <trkpt lat="42.167563" lon="-8.620091">
        <ele>52.538</ele>
        <time>2015-03-26T09:40:38Z</time>
      </trkpt>
      <trkpt lat="42.168196" lon="-8.619915">
        <ele>53.018</ele>
        <time>2015-03-26T09:40:57Z</time>
      </trkpt>
      <trkpt lat="42.168784" lon="-8.619756">
        <ele>54.036</ele>
        <time>2015-03-26T09:41:15Z</time>
      </trkpt>
      <trkpt lat="42.168828" lon="-8.619734">
        <ele>54.061</ele>
        <time>2015-03-26T09:41:17Z</time>
      </trkpt>
      <trkpt lat="42.168842" lon="-8.619612">
        <ele>54.028</ele>
        <time>2015-03-26T09:41:26Z</time>
      </trkpt>
      <trkpt lat="42.169226" lon="-8.619605">
        <ele>54.066</ele>
        <time>2015-03-26T09:41:48Z</time>
      </trkpt>
      <trkpt lat="42.169564" lon="-8.619509">
        <ele>54.529</ele>
        <time>2015-03-26T09:41:59Z</time>
      </trkpt>
      <trkpt lat="42.169607" lon="-8.619153">
        <ele>55.421</ele>
        <time>2015-03-26T09:42:10Z</time>
      </trkpt>
      <trkpt lat="42.169717" lon="-8.618834">
        <ele>56.907</ele>
        <time>2015-03-26T09:42:20Z</time>
      </trkpt>
      <trkpt lat="42.169882" lon="-8.618799">
        <ele>57.335</ele>
        <time>2015-03-26T09:42:27Z</time>
      </trkpt>
      <trkpt lat="42.170273" lon="-8.618699">
        <ele>57.378</ele>
        <time>2015-03-26T09:42:38Z</time>
      </trkpt>
      <trkpt lat="42.170417" lon="-8.618600">
        <ele>57.350</ele>
        <time>2015-03-26T09:42:42Z</time>
      </trkpt>
      <trkpt lat="42.171014" lon="-8.618342">
        <ele>55.440</ele>
        <time>2015-03-26T09:42:59Z</time>
      </trkpt>
      <trkpt lat="42.171663" lon="-8.618154">
        <ele>57.338</ele>
        <time>2015-03-26T09:43:17Z</time>
      </trkpt>
      <trkpt lat="42.172132" lon="-8.617964">
        <ele>59.713</ele>
        <time>2015-03-26T09:43:32Z</time>
      </trkpt>
      <trkpt lat="42.172548" lon="-8.617646">
        <ele>62.640</ele>
        <time>2015-03-26T09:43:46Z</time>
      </trkpt>
      <trkpt lat="42.173007" lon="-8.617307">
        <ele>62.136</ele>
        <time>2015-03-26T09:44:00Z</time>
      </trkpt>
      <trkpt lat="42.173078" lon="-8.617230">
        <ele>62.117</ele>
        <time>2015-03-26T09:44:02Z</time>
      </trkpt>
      <trkpt lat="42.173289" lon="-8.616903">
        <ele>60.718</ele>
        <time>2015-03-26T09:44:08Z</time>
      </trkpt>
      <trkpt lat="42.173417" lon="-8.616764">
        <ele>60.207</ele>
        <time>2015-03-26T09:44:11Z</time>
      </trkpt>
      <trkpt lat="42.173872" lon="-8.616590">
        <ele>61.232</ele>
        <time>2015-03-26T09:44:23Z</time>
      </trkpt>
      <trkpt lat="42.174422" lon="-8.616250">
        <ele>63.195</ele>
        <time>2015-03-26T09:44:40Z</time>
      </trkpt>
      <trkpt lat="42.174599" lon="-8.616128">
        <ele>62.197</ele>
        <time>2015-03-26T09:44:45Z</time>
      </trkpt>
      <trkpt lat="42.174838" lon="-8.615953">
        <ele>61.757</ele>
        <time>2015-03-26T09:44:52Z</time>
      </trkpt>
      <trkpt lat="42.175403" lon="-8.615760">
        <ele>61.215</ele>
        <time>2015-03-26T09:45:06Z</time>
      </trkpt>
      <trkpt lat="42.175513" lon="-8.615916">
        <ele>59.720</ele>
        <time>2015-03-26T09:45:13Z</time>
      </trkpt>
      <trkpt lat="42.175684" lon="-8.616461">
        <ele>55.937</ele>
        <time>2015-03-26T09:46:30Z</time>
      </trkpt>
      <trkpt lat="42.175767" lon="-8.616706">
        <ele>54.937</ele>
        <time>2015-03-26T09:46:40Z</time>
      </trkpt>
      <trkpt lat="42.175794" lon="-8.616767">
        <ele>54.949</ele>
        <time>2015-03-26T09:47:01Z</time>
      </trkpt>
      <trkpt lat="42.175767" lon="-8.616918">
        <ele>54.513</ele>
        <time>2015-03-26T09:47:06Z</time>
      </trkpt>
      <trkpt lat="42.175917" lon="-8.617274">
        <ele>51.107</ele>
        <time>2015-03-26T09:47:13Z</time>
      </trkpt>
      <trkpt lat="42.176028" lon="-8.617587">
        <ele>47.792</ele>
        <time>2015-03-26T09:47:18Z</time>
      </trkpt>
      <trkpt lat="42.176068" lon="-8.617705">
        <ele>46.365</ele>
        <time>2015-03-26T09:47:21Z</time>
      </trkpt>
      <trkpt lat="42.176159" lon="-8.617862">
        <ele>46.337</ele>
        <time>2015-03-26T09:47:35Z</time>
      </trkpt>
      <trkpt lat="42.176308" lon="-8.618126">
        <ele>46.357</ele>
        <time>2015-03-26T09:47:45Z</time>
      </trkpt>
      <trkpt lat="42.176326" lon="-8.618633">
        <ele>45.825</ele>
        <time>2015-03-26T09:47:56Z</time>
      </trkpt>
      <trkpt lat="42.176146" lon="-8.619241">
        <ele>44.440</ele>
        <time>2015-03-26T09:48:06Z</time>
      </trkpt>
      <trkpt lat="42.176140" lon="-8.619954">
        <ele>43.427</ele>
        <time>2015-03-26T09:48:17Z</time>
      </trkpt>
      <trkpt lat="42.176288" lon="-8.620685">
        <ele>43.412</ele>
        <time>2015-03-26T09:48:31Z</time>
      </trkpt>
      <trkpt lat="42.176399" lon="-8.621373">
        <ele>42.932</ele>
        <time>2015-03-26T09:48:43Z</time>
      </trkpt>
      <trkpt lat="42.176415" lon="-8.621540">
        <ele>42.905</ele>
        <time>2015-03-26T09:48:46Z</time>
      </trkpt>
      <trkpt lat="42.176510" lon="-8.622181">
        <ele>42.907</ele>
        <time>2015-03-26T09:48:59Z</time>
      </trkpt>
      <trkpt lat="42.176548" lon="-8.622308">
        <ele>44.460</ele>
        <time>2015-03-26T09:49:02Z</time>
      </trkpt>
      <trkpt lat="42.176683" lon="-8.622602">
        <ele>46.323</ele>
        <time>2015-03-26T09:49:12Z</time>
      </trkpt>
      <trkpt lat="42.176926" lon="-8.622647">
        <ele>48.785</ele>
        <time>2015-03-26T09:49:25Z</time>
      </trkpt>
      <trkpt lat="42.177289" lon="-8.622391">
        <ele>49.265</ele>
        <time>2015-03-26T09:49:39Z</time>
      </trkpt>
      <trkpt lat="42.177623" lon="-8.622102">
        <ele>50.133</ele>
        <time>2015-03-26T09:49:51Z</time>
      </trkpt>
      <trkpt lat="42.177742" lon="-8.621871">
        <ele>50.168</ele>
        <time>2015-03-26T09:49:56Z</time>
      </trkpt>
      <trkpt lat="42.178214" lon="-8.620975">
        <ele>46.825</ele>
        <time>2015-03-26T09:50:13Z</time>
      </trkpt>
      <trkpt lat="42.178254" lon="-8.620930">
        <ele>46.858</ele>
        <time>2015-03-26T09:50:14Z</time>
      </trkpt>
      <trkpt lat="42.178332" lon="-8.620832">
        <ele>45.852</ele>
        <time>2015-03-26T09:50:16Z</time>
      </trkpt>
      <trkpt lat="42.178503" lon="-8.620654">
        <ele>45.317</ele>
        <time>2015-03-26T09:50:20Z</time>
      </trkpt>
      <trkpt lat="42.178594" lon="-8.620583">
        <ele>45.307</ele>
        <time>2015-03-26T09:50:22Z</time>
      </trkpt>
      <trkpt lat="42.178960" lon="-8.620523">
        <ele>45.324</ele>
        <time>2015-03-26T09:50:31Z</time>
      </trkpt>
      <trkpt lat="42.179356" lon="-8.620680">
        <ele>46.897</ele>
        <time>2015-03-26T09:50:43Z</time>
      </trkpt>
      <trkpt lat="42.179618" lon="-8.620629">
        <ele>49.279</ele>
        <time>2015-03-26T09:50:57Z</time>
      </trkpt>
      <trkpt lat="42.179844" lon="-8.620514">
        <ele>52.579</ele>
        <time>2015-03-26T09:51:13Z</time>
      </trkpt>
      <trkpt lat="42.180056" lon="-8.620434">
        <ele>55.427</ele>
        <time>2015-03-26T09:51:28Z</time>
      </trkpt>
      <trkpt lat="42.180335" lon="-8.620474">
        <ele>58.862</ele>
        <time>2015-03-26T09:51:46Z</time>
      </trkpt>
      <trkpt lat="42.180660" lon="-8.620446">
        <ele>62.149</ele>
        <time>2015-03-26T09:52:07Z</time>
      </trkpt>
      <trkpt lat="42.180891" lon="-8.620401">
        <ele>64.655</ele>
        <time>2015-03-26T09:52:23Z</time>
      </trkpt>
      <trkpt lat="42.181094" lon="-8.620249">
        <ele>67.007</ele>
        <time>2015-03-26T09:52:39Z</time>
      </trkpt>
      <trkpt lat="42.181293" lon="-8.620030">
        <ele>70.317</ele>
        <time>2015-03-26T09:52:56Z</time>
      </trkpt>
      <trkpt lat="42.181574" lon="-8.619826">
        <ele>68.407</ele>
        <time>2015-03-26T09:53:07Z</time>
      </trkpt>
      <trkpt lat="42.181789" lon="-8.619761">
        <ele>66.084</ele>
        <time>2015-03-26T09:53:10Z</time>
      </trkpt>
      <trkpt lat="42.182067" lon="-8.619407">
        <ele>66.597</ele>
        <time>2015-03-26T09:53:16Z</time>
      </trkpt>
      <trkpt lat="42.182103" lon="-8.619294">
        <ele>67.029</ele>
        <time>2015-03-26T09:53:19Z</time>
      </trkpt>
      <trkpt lat="42.182182" lon="-8.619188">
        <ele>69.429</ele>
        <time>2015-03-26T09:53:26Z</time>
      </trkpt>
      <trkpt lat="42.182500" lon="-8.619142">
        <ele>71.817</ele>
        <time>2015-03-26T09:53:43Z</time>
      </trkpt>
      <trkpt lat="42.182807" lon="-8.618934">
        <ele>72.792</ele>
        <time>2015-03-26T09:53:58Z</time>
      </trkpt>
      <trkpt lat="42.183030" lon="-8.618616">
        <ele>74.219</ele>
        <time>2015-03-26T09:54:11Z</time>
      </trkpt>
      <trkpt lat="42.183197" lon="-8.618380">
        <ele>71.827</ele>
        <time>2015-03-26T09:54:17Z</time>
      </trkpt>
      <trkpt lat="42.183599" lon="-8.618263">
        <ele>70.868</ele>
        <time>2015-03-26T09:54:27Z</time>
      </trkpt>
      <trkpt lat="42.184032" lon="-8.618385">
        <ele>70.814</ele>
        <time>2015-03-26T09:54:42Z</time>
      </trkpt>
      <trkpt lat="42.184469" lon="-8.618165">
        <ele>71.807</ele>
        <time>2015-03-26T09:54:56Z</time>
      </trkpt>
      <trkpt lat="42.184895" lon="-8.617727">
        <ele>70.361</ele>
        <time>2015-03-26T09:55:09Z</time>
      </trkpt>
      <trkpt lat="42.185148" lon="-8.617351">
        <ele>67.064</ele>
        <time>2015-03-26T09:55:14Z</time>
      </trkpt>
      <trkpt lat="42.185579" lon="-8.616551">
        <ele>66.576</ele>
        <time>2015-03-26T09:55:25Z</time>
      </trkpt>
      <trkpt lat="42.185862" lon="-8.616111">
        <ele>65.596</ele>
        <time>2015-03-26T09:55:33Z</time>
      </trkpt>
      <trkpt lat="42.186152" lon="-8.615841">
        <ele>65.054</ele>
        <time>2015-03-26T09:55:40Z</time>
      </trkpt>
      <trkpt lat="42.186288" lon="-8.615634">
        <ele>64.189</ele>
        <time>2015-03-26T09:55:44Z</time>
      </trkpt>
      <trkpt lat="42.186341" lon="-8.615497">
        <ele>63.646</ele>
        <time>2015-03-26T09:55:46Z</time>
      </trkpt>
      <trkpt lat="42.186785" lon="-8.615175">
        <ele>60.258</ele>
        <time>2015-03-26T09:55:54Z</time>
      </trkpt>
      <trkpt lat="42.187191" lon="-8.615133">
        <ele>56.952</ele>
        <time>2015-03-26T09:55:59Z</time>
      </trkpt>
      <trkpt lat="42.187345" lon="-8.615035">
        <ele>55.417</ele>
        <time>2015-03-26T09:56:01Z</time>
      </trkpt>
      <trkpt lat="42.187616" lon="-8.614807">
        <ele>54.907</ele>
        <time>2015-03-26T09:56:05Z</time>
      </trkpt>
      <trkpt lat="42.187991" lon="-8.614684">
        <ele>55.414</ele>
        <time>2015-03-26T09:56:11Z</time>
      </trkpt>
      <trkpt lat="42.188195" lon="-8.614739">
        <ele>55.417</ele>
        <time>2015-03-26T09:56:16Z</time>
      </trkpt>
      <trkpt lat="42.188531" lon="-8.614600">
        <ele>58.819</ele>
        <time>2015-03-26T09:56:31Z</time>
      </trkpt>
      <trkpt lat="42.188929" lon="-8.614228">
        <ele>61.779</ele>
        <time>2015-03-26T09:56:51Z</time>
      </trkpt>
      <trkpt lat="42.189088" lon="-8.613904">
        <ele>63.667</ele>
        <time>2015-03-26T09:57:04Z</time>
      </trkpt>
      <trkpt lat="42.189371" lon="-8.613426">
        <ele>64.692</ele>
        <time>2015-03-26T09:57:20Z</time>
      </trkpt>
      <trkpt lat="42.189803" lon="-8.613012">
        <ele>65.559</ele>
        <time>2015-03-26T09:57:36Z</time>
      </trkpt>
      <trkpt lat="42.190284" lon="-8.612749">
        <ele>66.556</ele>
        <time>2015-03-26T09:57:51Z</time>
      </trkpt>
      <trkpt lat="42.190881" lon="-8.612573">
        <ele>69.459</ele>
        <time>2015-03-26T09:58:08Z</time>
      </trkpt>
      <trkpt lat="42.191255" lon="-8.612565">
        <ele>68.914</ele>
        <time>2015-03-26T09:58:17Z</time>
      </trkpt>
      <trkpt lat="42.191819" lon="-8.612177">
        <ele>67.907</ele>
        <time>2015-03-26T09:58:33Z</time>
      </trkpt>
      <trkpt lat="42.192396" lon="-8.611855">
        <ele>64.654</ele>
        <time>2015-03-26T09:58:44Z</time>
      </trkpt>
      <trkpt lat="42.192713" lon="-8.611700">
        <ele>64.187</ele>
        <time>2015-03-26T09:58:49Z</time>
      </trkpt>
      <trkpt lat="42.192960" lon="-8.611428">
        <ele>62.659</ele>
        <time>2015-03-26T09:58:54Z</time>
      </trkpt>
      <trkpt lat="42.193219" lon="-8.610946">
        <ele>60.719</ele>
        <time>2015-03-26T09:59:00Z</time>
      </trkpt>
      <trkpt lat="42.193500" lon="-8.610708">
        <ele>60.257</ele>
        <time>2015-03-26T09:59:05Z</time>
      </trkpt>
      <trkpt lat="42.193928" lon="-8.610591">
        <ele>61.262</ele>
        <time>2015-03-26T09:59:15Z</time>
      </trkpt>
      <trkpt lat="42.194526" lon="-8.610338">
        <ele>62.189</ele>
        <time>2015-03-26T09:59:30Z</time>
      </trkpt>
      <trkpt lat="42.195235" lon="-8.609959">
        <ele>63.165</ele>
        <time>2015-03-26T09:59:48Z</time>
      </trkpt>
      <trkpt lat="42.195948" lon="-8.609798">
        <ele>63.668</ele>
        <time>2015-03-26T10:00:05Z</time>
      </trkpt>
      <trkpt lat="42.196719" lon="-8.609579">
        <ele>63.614</ele>
        <time>2015-03-26T10:00:23Z</time>
      </trkpt>
      <trkpt lat="42.197425" lon="-8.609118">
        <ele>64.607</ele>
        <time>2015-03-26T10:00:42Z</time>
      </trkpt>
      <trkpt lat="42.198078" lon="-8.608581">
        <ele>65.045</ele>
        <time>2015-03-26T10:01:00Z</time>
      </trkpt>
      <trkpt lat="42.198372" lon="-8.608603">
        <ele>65.018</ele>
        <time>2015-03-26T10:01:07Z</time>
      </trkpt>
      <trkpt lat="42.198486" lon="-8.608675">
        <ele>65.040</ele>
        <time>2015-03-26T10:01:10Z</time>
      </trkpt>
      <trkpt lat="42.199046" lon="-8.608845">
        <ele>66.550</ele>
        <time>2015-03-26T10:01:24Z</time>
      </trkpt>
      <trkpt lat="42.199456" lon="-8.608763">
        <ele>67.418</ele>
        <time>2015-03-26T10:01:34Z</time>
      </trkpt>
      <trkpt lat="42.199725" lon="-8.608819">
        <ele>68.443</ele>
        <time>2015-03-26T10:01:41Z</time>
      </trkpt>
      <trkpt lat="42.200164" lon="-8.608791">
        <ele>71.310</ele>
        <time>2015-03-26T10:01:55Z</time>
      </trkpt>
      <trkpt lat="42.200669" lon="-8.608683">
        <ele>74.263</ele>
        <time>2015-03-26T10:02:10Z</time>
      </trkpt>
      <trkpt lat="42.201017" lon="-8.608616">
        <ele>76.144</ele>
        <time>2015-03-26T10:02:22Z</time>
      </trkpt>
      <trkpt lat="42.201304" lon="-8.608284">
        <ele>78.018</ele>
        <time>2015-03-26T10:02:39Z</time>
      </trkpt>
      <trkpt lat="42.201501" lon="-8.608138">
        <ele>81.407</ele>
        <time>2015-03-26T10:02:52Z</time>
      </trkpt>
      <trkpt lat="42.201695" lon="-8.607950">
        <ele>83.835</ele>
        <time>2015-03-26T10:03:06Z</time>
      </trkpt>
      <trkpt lat="42.201895" lon="-8.607640">
        <ele>86.268</ele>
        <time>2015-03-26T10:03:23Z</time>
      </trkpt>
      <trkpt lat="42.202112" lon="-8.607248">
        <ele>87.150</ele>
        <time>2015-03-26T10:03:38Z</time>
      </trkpt>
      <trkpt lat="42.202437" lon="-8.606669">
        <ele>87.170</ele>
        <time>2015-03-26T10:03:57Z</time>
      </trkpt>
      <trkpt lat="42.202921" lon="-8.606191">
        <ele>87.628</ele>
        <time>2015-03-26T10:04:15Z</time>
      </trkpt>
      <trkpt lat="42.203036" lon="-8.606051">
        <ele>88.113</ele>
        <time>2015-03-26T10:04:21Z</time>
      </trkpt>
      <trkpt lat="42.203124" lon="-8.606041">
        <ele>88.130</ele>
        <time>2015-03-26T10:04:25Z</time>
      </trkpt>
      <trkpt lat="42.203233" lon="-8.606082">
        <ele>88.657</ele>
        <time>2015-03-26T10:04:31Z</time>
      </trkpt>
      <trkpt lat="42.203297" lon="-8.606081">
        <ele>89.100</ele>
        <time>2015-03-26T10:04:35Z</time>
      </trkpt>
      <trkpt lat="42.203532" lon="-8.605959">
        <ele>91.020</ele>
        <time>2015-03-26T10:04:48Z</time>
      </trkpt>
      <trkpt lat="42.203618" lon="-8.605940">
        <ele>91.907</ele>
        <time>2015-03-26T10:04:52Z</time>
      </trkpt>
      <trkpt lat="42.203665" lon="-8.605824">
        <ele>89.534</ele>
        <time>2015-03-26T10:05:28Z</time>
      </trkpt>
      <trkpt lat="42.203894" lon="-8.605721">
        <ele>91.037</ele>
        <time>2015-03-26T10:05:39Z</time>
      </trkpt>
      <trkpt lat="42.204028" lon="-8.605866">
        <ele>92.969</ele>
        <time>2015-03-26T10:05:48Z</time>
      </trkpt>
      <trkpt lat="42.204120" lon="-8.605920">
        <ele>93.919</ele>
        <time>2015-03-26T10:05:54Z</time>
      </trkpt>
      <trkpt lat="42.204389" lon="-8.606093">
        <ele>96.867</ele>
        <time>2015-03-26T10:06:11Z</time>
      </trkpt>
      <trkpt lat="42.204547" lon="-8.606217">
        <ele>99.282</ele>
        <time>2015-03-26T10:06:23Z</time>
      </trkpt>
      <trkpt lat="42.204718" lon="-8.606245">
        <ele>101.619</ele>
        <time>2015-03-26T10:21:54Z</time>
      </trkpt>
      <trkpt lat="42.204902" lon="-8.606287">
        <ele>103.541</ele>
        <time>2015-03-26T10:22:09Z</time>
      </trkpt>
      <trkpt lat="42.205131" lon="-8.606251">
        <ele>105.481</ele>
        <time>2015-03-26T10:22:26Z</time>
      </trkpt>
      <trkpt lat="42.205344" lon="-8.606266">
        <ele>108.309</ele>
        <time>2015-03-26T10:22:43Z</time>
      </trkpt>
      <trkpt lat="42.205415" lon="-8.606242">
        <ele>109.307</ele>
        <time>2015-03-26T10:22:49Z</time>
      </trkpt>
      <trkpt lat="42.205614" lon="-8.606263">
        <ele>111.753</ele>
        <time>2015-03-26T10:23:06Z</time>
      </trkpt>
      <trkpt lat="42.205708" lon="-8.606311">
        <ele>113.166</ele>
        <time>2015-03-26T10:23:15Z</time>
      </trkpt>
      <trkpt lat="42.205821" lon="-8.606318">
        <ele>115.048</ele>
        <time>2015-03-26T10:23:24Z</time>
      </trkpt>
      <trkpt lat="42.206052" lon="-8.606402">
        <ele>116.548</ele>
        <time>2015-03-26T10:23:41Z</time>
      </trkpt>
      <trkpt lat="42.206255" lon="-8.606530">
        <ele>119.836</ele>
        <time>2015-03-26T10:23:58Z</time>
      </trkpt>
      <trkpt lat="42.206456" lon="-8.606707">
        <ele>122.721</ele>
        <time>2015-03-26T10:24:18Z</time>
      </trkpt>
      <trkpt lat="42.206644" lon="-8.606832">
        <ele>125.668</ele>
        <time>2015-03-26T10:24:35Z</time>
      </trkpt>
      <trkpt lat="42.206861" lon="-8.606971">
        <ele>128.594</ele>
        <time>2015-03-26T10:24:53Z</time>
      </trkpt>
      <trkpt lat="42.207087" lon="-8.607181">
        <ele>131.457</ele>
        <time>2015-03-26T10:25:13Z</time>
      </trkpt>
      <trkpt lat="42.207285" lon="-8.607423">
        <ele>134.222</ele>
        <time>2015-03-26T10:25:33Z</time>
      </trkpt>
      <trkpt lat="42.207460" lon="-8.607629">
        <ele>137.607</ele>
        <time>2015-03-26T10:25:51Z</time>
      </trkpt>
      <trkpt lat="42.207554" lon="-8.607753">
        <ele>139.198</ele>
        <time>2015-03-26T10:26:01Z</time>
      </trkpt>
      <trkpt lat="42.207627" lon="-8.607782">
        <ele>140.091</ele>
        <time>2015-03-26T10:26:07Z</time>
      </trkpt>
      <trkpt lat="42.207816" lon="-8.607922">
        <ele>141.933</ele>
        <time>2015-03-26T10:26:24Z</time>
      </trkpt>
      <trkpt lat="42.207982" lon="-8.608068">
        <ele>144.823</ele>
        <time>2015-03-26T10:26:39Z</time>
      </trkpt>
      <trkpt lat="42.208190" lon="-8.608191">
        <ele>147.231</ele>
        <time>2015-03-26T10:26:57Z</time>
      </trkpt>
      <trkpt lat="42.208381" lon="-8.608389">
        <ele>150.686</ele>
        <time>2015-03-26T10:27:15Z</time>
      </trkpt>
      <trkpt lat="42.208576" lon="-8.608625">
        <ele>153.573</ele>
        <time>2015-03-26T10:27:36Z</time>
      </trkpt>
      <trkpt lat="42.208800" lon="-8.608839">
        <ele>157.326</ele>
        <time>2015-03-26T10:27:58Z</time>
      </trkpt>
      <trkpt lat="42.209034" lon="-8.608944">
        <ele>160.247</ele>
        <time>2015-03-26T10:28:16Z</time>
      </trkpt>
      <trkpt lat="42.209272" lon="-8.609018">
        <ele>161.211</ele>
        <time>2015-03-26T10:28:30Z</time>
      </trkpt>
      <trkpt lat="42.209670" lon="-8.609018">
        <ele>162.107</ele>
        <time>2015-03-26T10:28:46Z</time>
      </trkpt>
      <trkpt lat="42.209826" lon="-8.609018">
        <ele>160.791</ele>
        <time>2015-03-26T10:28:50Z</time>
      </trkpt>
      <trkpt lat="42.210500" lon="-8.609078">
        <ele>158.344</ele>
        <time>2015-03-26T10:29:04Z</time>
      </trkpt>
      <trkpt lat="42.210897" lon="-8.609174">
        <ele>156.846</ele>
        <time>2015-03-26T10:29:16Z</time>
      </trkpt>
      <trkpt lat="42.211265" lon="-8.609288">
        <ele>155.916</ele>
        <time>2015-03-26T10:29:29Z</time>
      </trkpt>
      <trkpt lat="42.211831" lon="-8.609416">
        <ele>154.994</ele>
        <time>2015-03-26T10:29:45Z</time>
      </trkpt>
      <trkpt lat="42.212461" lon="-8.609463">
        <ele>154.989</ele>
        <time>2015-03-26T10:30:01Z</time>
      </trkpt>
      <trkpt lat="42.212591" lon="-8.609467">
        <ele>154.446</ele>
        <time>2015-03-26T10:30:04Z</time>
      </trkpt>
      <trkpt lat="42.212993" lon="-8.609448">
        <ele>154.067</ele>
        <time>2015-03-26T10:30:14Z</time>
      </trkpt>
      <trkpt lat="42.213776" lon="-8.609328">
        <ele>153.081</ele>
        <time>2015-03-26T10:30:33Z</time>
      </trkpt>
      <trkpt lat="42.214431" lon="-8.609043">
        <ele>152.519</ele>
        <time>2015-03-26T10:30:50Z</time>
      </trkpt>
      <trkpt lat="42.215084" lon="-8.608486">
        <ele>150.607</ele>
        <time>2015-03-26T10:31:07Z</time>
      </trkpt>
      <trkpt lat="42.215529" lon="-8.608123">
        <ele>150.185</ele>
        <time>2015-03-26T10:31:19Z</time>
      </trkpt>
      <trkpt lat="42.216073" lon="-8.607915">
        <ele>150.148</ele>
        <time>2015-03-26T10:31:33Z</time>
      </trkpt>
      <trkpt lat="42.216420" lon="-8.607782">
        <ele>149.650</ele>
        <time>2015-03-26T10:31:42Z</time>
      </trkpt>
      <trkpt lat="42.216537" lon="-8.607752">
        <ele>149.610</ele>
        <time>2015-03-26T10:31:45Z</time>
      </trkpt>
      <trkpt lat="42.216949" lon="-8.607611">
        <ele>148.758</ele>
        <time>2015-03-26T10:31:54Z</time>
      </trkpt>
      <trkpt lat="42.217326" lon="-8.607526">
        <ele>149.653</ele>
        <time>2015-03-26T10:32:06Z</time>
      </trkpt>
      <trkpt lat="42.217845" lon="-8.607499">
        <ele>151.520</ele>
        <time>2015-03-26T10:32:28Z</time>
      </trkpt>
      <trkpt lat="42.218253" lon="-8.607533">
        <ele>153.586</ele>
        <time>2015-03-26T10:32:45Z</time>
      </trkpt>
      <trkpt lat="42.218593" lon="-8.607575">
        <ele>154.960</ele>
        <time>2015-03-26T10:33:01Z</time>
      </trkpt>
      <trkpt lat="42.218851" lon="-8.607621">
        <ele>157.326</ele>
        <time>2015-03-26T10:33:16Z</time>
      </trkpt>
      <trkpt lat="42.219060" lon="-8.607638">
        <ele>159.207</ele>
        <time>2015-03-26T10:33:30Z</time>
      </trkpt>
      <trkpt lat="42.219174" lon="-8.607664">
        <ele>160.247</ele>
        <time>2015-03-26T10:33:38Z</time>
      </trkpt>
      <trkpt lat="42.219254" lon="-8.607652">
        <ele>160.740</ele>
        <time>2015-03-26T10:33:44Z</time>
      </trkpt>
      <trkpt lat="42.219517" lon="-8.607671">
        <ele>162.692</ele>
        <time>2015-03-26T10:34:02Z</time>
      </trkpt>
      <trkpt lat="42.219805" lon="-8.607659">
        <ele>164.032</ele>
        <time>2015-03-26T10:34:20Z</time>
      </trkpt>
      <trkpt lat="42.220103" lon="-8.607652">
        <ele>166.520</ele>
        <time>2015-03-26T10:34:39Z</time>
      </trkpt>
      <trkpt lat="42.220328" lon="-8.607681">
        <ele>167.425</ele>
        <time>2015-03-26T10:34:54Z</time>
      </trkpt>
      <trkpt lat="42.220488" lon="-8.607686">
        <ele>169.322</ele>
        <time>2015-03-26T10:35:06Z</time>
      </trkpt>
      <trkpt lat="42.220541" lon="-8.607703">
        <ele>169.824</ele>
        <time>2015-03-26T10:35:10Z</time>
      </trkpt>
      <trkpt lat="42.220781" lon="-8.607795">
        <ele>172.704</ele>
        <time>2015-03-26T10:35:27Z</time>
      </trkpt>
      <trkpt lat="42.221007" lon="-8.607920">
        <ele>175.614</ele>
        <time>2015-03-26T10:35:44Z</time>
      </trkpt>
      <trkpt lat="42.221242" lon="-8.608090">
        <ele>178.507</ele>
        <time>2015-03-26T10:36:03Z</time>
      </trkpt>
      <trkpt lat="42.221461" lon="-8.608138">
        <ele>179.951</ele>
        <time>2015-03-26T10:36:18Z</time>
      </trkpt>
      <trkpt lat="42.221719" lon="-8.608125">
        <ele>181.814</ele>
        <time>2015-03-26T10:36:35Z</time>
      </trkpt>
      <trkpt lat="42.221865" lon="-8.608153">
        <ele>181.836</ele>
        <time>2015-03-26T10:36:48Z</time>
      </trkpt>
      <trkpt lat="42.222068" lon="-8.608166">
        <ele>185.256</ele>
        <time>2015-03-26T10:37:04Z</time>
      </trkpt>
      <trkpt lat="42.222299" lon="-8.608183">
        <ele>187.634</ele>
        <time>2015-03-26T10:37:18Z</time>
      </trkpt>
      <trkpt lat="42.222495" lon="-8.608142">
        <ele>190.019</ele>
        <time>2015-03-26T10:37:32Z</time>
      </trkpt>
      <trkpt lat="42.222715" lon="-8.608039">
        <ele>192.476</ele>
        <time>2015-03-26T10:37:46Z</time>
      </trkpt>
      <trkpt lat="42.222942" lon="-8.607884">
        <ele>195.897</ele>
        <time>2015-03-26T10:38:03Z</time>
      </trkpt>
      <trkpt lat="42.223036" lon="-8.607730">
        <ele>197.723</ele>
        <time>2015-03-26T10:38:15Z</time>
      </trkpt>
      <trkpt lat="42.223147" lon="-8.607504">
        <ele>200.625</ele>
        <time>2015-03-26T10:38:29Z</time>
      </trkpt>
      <trkpt lat="42.223317" lon="-8.607354">
        <ele>201.107</ele>
        <time>2015-03-26T10:38:43Z</time>
      </trkpt>
      <trkpt lat="42.223584" lon="-8.607236">
        <ele>203.988</ele>
        <time>2015-03-26T10:39:02Z</time>
      </trkpt>
      <trkpt lat="42.223623" lon="-8.607189">
        <ele>204.981</ele>
        <time>2015-03-26T10:39:06Z</time>
      </trkpt>
      <trkpt lat="42.223866" lon="-8.607019">
        <ele>207.843</ele>
        <time>2015-03-26T10:39:25Z</time>
      </trkpt>
      <trkpt lat="42.224152" lon="-8.606845">
        <ele>210.793</ele>
        <time>2015-03-26T10:39:46Z</time>
      </trkpt>
      <trkpt lat="42.224411" lon="-8.606678">
        <ele>211.641</ele>
        <time>2015-03-26T10:40:01Z</time>
      </trkpt>
      <trkpt lat="42.224725" lon="-8.606499">
        <ele>212.646</ele>
        <time>2015-03-26T10:40:17Z</time>
      </trkpt>
      <trkpt lat="42.225078" lon="-8.606253">
        <ele>213.123</ele>
        <time>2015-03-26T10:40:32Z</time>
      </trkpt>
      <trkpt lat="42.225186" lon="-8.606166">
        <ele>211.644</ele>
        <time>2015-03-26T10:40:35Z</time>
      </trkpt>
      <trkpt lat="42.225419" lon="-8.606032">
        <ele>210.705</ele>
        <time>2015-03-26T10:40:40Z</time>
      </trkpt>
      <trkpt lat="42.225845" lon="-8.605993">
        <ele>209.215</ele>
        <time>2015-03-26T10:40:48Z</time>
      </trkpt>
      <trkpt lat="42.226268" lon="-8.606303">
        <ele>209.707</ele>
        <time>2015-03-26T10:41:02Z</time>
      </trkpt>
      <trkpt lat="42.226532" lon="-8.606575">
        <ele>210.723</ele>
        <time>2015-03-26T10:41:16Z</time>
      </trkpt>
      <trkpt lat="42.226827" lon="-8.606789">
        <ele>213.156</ele>
        <time>2015-03-26T10:41:34Z</time>
      </trkpt>
      <trkpt lat="42.227103" lon="-8.606868">
        <ele>216.098</ele>
        <time>2015-03-26T10:41:51Z</time>
      </trkpt>
      <trkpt lat="42.227342" lon="-8.607022">
        <ele>219.328</ele>
        <time>2015-03-26T10:42:09Z</time>
      </trkpt>
      <trkpt lat="42.227400" lon="-8.607110">
        <ele>220.316</ele>
        <time>2015-03-26T10:42:16Z</time>
      </trkpt>
      <trkpt lat="42.227411" lon="-8.607173">
        <ele>220.821</ele>
        <time>2015-03-26T10:42:20Z</time>
      </trkpt>
      <trkpt lat="42.227458" lon="-8.607362">
        <ele>223.648</ele>
        <time>2015-03-26T10:42:33Z</time>
      </trkpt>
      <trkpt lat="42.227521" lon="-8.607541">
        <ele>227.035</ele>
        <time>2015-03-26T10:42:47Z</time>
      </trkpt>
      <trkpt lat="42.227544" lon="-8.607612">
        <ele>228.586</ele>
        <time>2015-03-26T10:43:02Z</time>
      </trkpt>
      <trkpt lat="42.227606" lon="-8.607762">
        <ele>231.814</ele>
        <time>2015-03-26T10:43:19Z</time>
      </trkpt>
      <trkpt lat="42.227688" lon="-8.607973">
        <ele>234.707</ele>
        <time>2015-03-26T10:43:40Z</time>
      </trkpt>
      <trkpt lat="42.227850" lon="-8.608289">
        <ele>236.182</ele>
        <time>2015-03-26T10:44:07Z</time>
      </trkpt>
      <trkpt lat="42.227904" lon="-8.608417">
        <ele>236.145</ele>
        <time>2015-03-26T10:44:14Z</time>
      </trkpt>
      <trkpt lat="42.228028" lon="-8.608740">
        <ele>236.197</ele>
        <time>2015-03-26T10:44:29Z</time>
      </trkpt>
      <trkpt lat="42.228118" lon="-8.609034">
        <ele>236.177</ele>
        <time>2015-03-26T10:44:41Z</time>
      </trkpt>
      <trkpt lat="42.228261" lon="-8.609391">
        <ele>236.195</ele>
        <time>2015-03-26T10:44:54Z</time>
      </trkpt>
      <trkpt lat="42.228498" lon="-8.609797">
        <ele>236.680</ele>
        <time>2015-03-26T10:45:09Z</time>
      </trkpt>
      <trkpt lat="42.228759" lon="-8.610306">
        <ele>237.157</ele>
        <time>2015-03-26T10:45:26Z</time>
      </trkpt>
      <trkpt lat="42.229016" lon="-8.610657">
        <ele>237.627</ele>
        <time>2015-03-26T10:45:39Z</time>
      </trkpt>
      <trkpt lat="42.229402" lon="-8.610963">
        <ele>238.568</ele>
        <time>2015-03-26T10:45:56Z</time>
      </trkpt>
      <trkpt lat="42.229535" lon="-8.610994">
        <ele>237.114</ele>
        <time>2015-03-26T10:46:01Z</time>
      </trkpt>
      <trkpt lat="42.229588" lon="-8.610965">
        <ele>236.107</ele>
        <time>2015-03-26T10:46:11Z</time>
      </trkpt>
      <trkpt lat="42.229645" lon="-8.610960">
        <ele>236.141</ele>
        <time>2015-03-26T10:46:30Z</time>
      </trkpt>
      <trkpt lat="42.229690" lon="-8.610943">
        <ele>236.194</ele>
        <time>2015-03-26T10:46:49Z</time>
      </trkpt>
      <trkpt lat="42.230018" lon="-8.611116">
        <ele>234.766</ele>
        <time>2015-03-26T10:47:00Z</time>
      </trkpt>
      <trkpt lat="42.230221" lon="-8.611353">
        <ele>234.736</ele>
        <time>2015-03-26T10:47:11Z</time>
      </trkpt>
      <trkpt lat="42.230322" lon="-8.611504">
        <ele>236.124</ele>
        <time>2015-03-26T10:47:17Z</time>
      </trkpt>
      <trkpt lat="42.230677" lon="-8.611674">
        <ele>234.749</ele>
        <time>2015-03-26T10:47:27Z</time>
      </trkpt>
      <trkpt lat="42.231167" lon="-8.612140">
        <ele>233.396</ele>
        <time>2015-03-26T10:47:41Z</time>
      </trkpt>
      <trkpt lat="42.231258" lon="-8.612253">
        <ele>231.835</ele>
        <time>2015-03-26T10:47:50Z</time>
      </trkpt>
      <trkpt lat="42.231499" lon="-8.612514">
        <ele>229.986</ele>
        <time>2015-03-26T10:48:02Z</time>
      </trkpt>
      <trkpt lat="42.231682" lon="-8.612413">
        <ele>228.914</ele>
        <time>2015-03-26T10:48:07Z</time>
      </trkpt>
      <trkpt lat="42.231986" lon="-8.612351">
        <ele>227.007</ele>
        <time>2015-03-26T10:48:12Z</time>
      </trkpt>
      <trkpt lat="42.232720" lon="-8.612591">
        <ele>223.652</ele>
        <time>2015-03-26T10:48:23Z</time>
      </trkpt>
      <trkpt lat="42.233275" lon="-8.612731">
        <ele>220.315</ele>
        <time>2015-03-26T10:48:30Z</time>
      </trkpt>
      <trkpt lat="42.233666" lon="-8.612816">
        <ele>218.827</ele>
        <time>2015-03-26T10:48:36Z</time>
      </trkpt>
      <trkpt lat="42.234503" lon="-8.613300">
        <ele>215.057</ele>
        <time>2015-03-26T10:48:48Z</time>
      </trkpt>
      <trkpt lat="42.235008" lon="-8.613594">
        <ele>214.525</ele>
        <time>2015-03-26T10:48:56Z</time>
      </trkpt>
      <trkpt lat="42.235249" lon="-8.613671">
        <ele>213.630</ele>
        <time>2015-03-26T10:49:00Z</time>
      </trkpt>
      <trkpt lat="42.235970" lon="-8.613556">
        <ele>210.297</ele>
        <time>2015-03-26T10:49:13Z</time>
      </trkpt>
      <trkpt lat="42.236091" lon="-8.613529">
        <ele>210.239</ele>
        <time>2015-03-26T10:49:16Z</time>
      </trkpt>
      <trkpt lat="42.236426" lon="-8.613461">
        <ele>209.201</ele>
        <time>2015-03-26T10:49:27Z</time>
      </trkpt>
      <trkpt lat="42.236955" lon="-8.613347">
        <ele>208.721</ele>
        <time>2015-03-26T10:49:41Z</time>
      </trkpt>
      <trkpt lat="42.237693" lon="-8.613170">
        <ele>208.307</ele>
        <time>2015-03-26T10:49:59Z</time>
      </trkpt>
      <trkpt lat="42.238438" lon="-8.613005">
        <ele>206.322</ele>
        <time>2015-03-26T10:50:15Z</time>
      </trkpt>
      <trkpt lat="42.239094" lon="-8.612746">
        <ele>205.465</ele>
        <time>2015-03-26T10:50:30Z</time>
      </trkpt>
      <trkpt lat="42.239347" lon="-8.612635">
        <ele>204.947</ele>
        <time>2015-03-26T10:50:36Z</time>
      </trkpt>
      <trkpt lat="42.240045" lon="-8.612057">
        <ele>202.067</ele>
        <time>2015-03-26T10:50:51Z</time>
      </trkpt>
      <trkpt lat="42.240638" lon="-8.611440">
        <ele>198.755</ele>
        <time>2015-03-26T10:51:03Z</time>
      </trkpt>
      <trkpt lat="42.241064" lon="-8.610880">
        <ele>194.870</ele>
        <time>2015-03-26T10:51:11Z</time>
      </trkpt>
      <trkpt lat="42.241179" lon="-8.610728">
        <ele>194.317</ele>
        <time>2015-03-26T10:51:13Z</time>
      </trkpt>
      <trkpt lat="42.241472" lon="-8.610343">
        <ele>192.996</ele>
        <time>2015-03-26T10:51:19Z</time>
      </trkpt>
      <trkpt lat="42.241610" lon="-8.610457">
        <ele>191.431</ele>
        <time>2015-03-26T10:51:25Z</time>
      </trkpt>
      <trkpt lat="42.241599" lon="-8.610655">
        <ele>190.524</ele>
        <time>2015-03-26T10:51:28Z</time>
      </trkpt>
      <trkpt lat="42.241718" lon="-8.610803">
        <ele>190.507</ele>
        <time>2015-03-26T10:51:34Z</time>
      </trkpt>
      <trkpt lat="42.242463" lon="-8.610687">
        <ele>189.048</ele>
        <time>2015-03-26T10:51:52Z</time>
      </trkpt>
      <trkpt lat="42.242988" lon="-8.610645">
        <ele>190.071</ele>
        <time>2015-03-26T10:52:07Z</time>
      </trkpt>
      <trkpt lat="42.243289" lon="-8.610604">
        <ele>191.993</ele>
        <time>2015-03-26T10:52:19Z</time>
      </trkpt>
      <trkpt lat="42.243738" lon="-8.610516">
        <ele>192.943</ele>
        <time>2015-03-26T10:52:37Z</time>
      </trkpt>
      <trkpt lat="42.244253" lon="-8.610357">
        <ele>192.951</ele>
        <time>2015-03-26T10:52:54Z</time>
      </trkpt>
      <trkpt lat="42.244548" lon="-8.610261">
        <ele>192.976</ele>
        <time>2015-03-26T10:53:02Z</time>
      </trkpt>
      <trkpt lat="42.244754" lon="-8.610231">
        <ele>192.963</ele>
        <time>2015-03-26T10:53:07Z</time>
      </trkpt>
      <trkpt lat="42.244848" lon="-8.610211">
        <ele>191.471</ele>
        <time>2015-03-26T10:53:09Z</time>
      </trkpt>
      <trkpt lat="42.245048" lon="-8.610179">
        <ele>190.541</ele>
        <time>2015-03-26T10:53:13Z</time>
      </trkpt>
      <trkpt lat="42.245557" lon="-8.609924">
        <ele>188.615</ele>
        <time>2015-03-26T10:53:23Z</time>
      </trkpt>
      <trkpt lat="42.245976" lon="-8.609891">
        <ele>187.107</ele>
        <time>2015-03-26T10:53:29Z</time>
      </trkpt>
      <trkpt lat="42.246661" lon="-8.610236">
        <ele>184.786</ele>
        <time>2015-03-26T10:53:41Z</time>
      </trkpt>
      <trkpt lat="42.246780" lon="-8.610290">
        <ele>184.239</ele>
        <time>2015-03-26T10:53:43Z</time>
      </trkpt>
      <trkpt lat="42.247295" lon="-8.610516">
        <ele>180.981</ele>
        <time>2015-03-26T10:53:50Z</time>
      </trkpt>
      <trkpt lat="42.248062" lon="-8.610814">
        <ele>178.011</ele>
        <time>2015-03-26T10:54:01Z</time>
      </trkpt>
      <trkpt lat="42.248336" lon="-8.610882">
        <ele>177.549</ele>
        <time>2015-03-26T10:54:10Z</time>
      </trkpt>
      <trkpt lat="42.248548" lon="-8.610983">
        <ele>177.534</ele>
        <time>2015-03-26T10:54:17Z</time>
      </trkpt>
      <trkpt lat="42.248909" lon="-8.610928">
        <ele>178.081</ele>
        <time>2015-03-26T10:54:28Z</time>
      </trkpt>
      <trkpt lat="42.249093" lon="-8.610836">
        <ele>175.132</ele>
        <time>2015-03-26T10:54:32Z</time>
      </trkpt>
      <trkpt lat="42.249383" lon="-8.610763">
        <ele>173.292</ele>
        <time>2015-03-26T10:54:36Z</time>
      </trkpt>
      <trkpt lat="42.249507" lon="-8.610799">
        <ele>171.311</ele>
        <time>2015-03-26T10:54:38Z</time>
      </trkpt>
      <trkpt lat="42.249846" lon="-8.610984">
        <ele>166.907</ele>
        <time>2015-03-26T10:54:44Z</time>
      </trkpt>
      <trkpt lat="42.250156" lon="-8.611101">
        <ele>162.642</ele>
        <time>2015-03-26T10:54:49Z</time>
      </trkpt>
      <trkpt lat="42.250370" lon="-8.611174">
        <ele>159.265</ele>
        <time>2015-03-26T10:54:52Z</time>
      </trkpt>
      <trkpt lat="42.250582" lon="-8.611241">
        <ele>155.997</ele>
        <time>2015-03-26T10:54:55Z</time>
      </trkpt>
      <trkpt lat="42.250816" lon="-8.611281">
        <ele>152.597</ele>
        <time>2015-03-26T10:54:59Z</time>
      </trkpt>
      <trkpt lat="42.251007" lon="-8.611330">
        <ele>149.195</ele>
        <time>2015-03-26T10:55:03Z</time>
      </trkpt>
      <trkpt lat="42.251133" lon="-8.611436">
        <ele>145.820</ele>
        <time>2015-03-26T10:55:07Z</time>
      </trkpt>
      <trkpt lat="42.251286" lon="-8.611444">
        <ele>141.077</ele>
        <time>2015-03-26T10:55:11Z</time>
      </trkpt>
      <trkpt lat="42.251456" lon="-8.611350">
        <ele>136.263</ele>
        <time>2015-03-26T10:55:15Z</time>
      </trkpt>
      <trkpt lat="42.251533" lon="-8.611276">
        <ele>134.244</ele>
        <time>2015-03-26T10:55:17Z</time>
      </trkpt>
      <trkpt lat="42.251606" lon="-8.611222">
        <ele>133.318</ele>
        <time>2015-03-26T10:55:19Z</time>
      </trkpt>
      <trkpt lat="42.251690" lon="-8.611199">
        <ele>130.907</ele>
        <time>2015-03-26T10:55:21Z</time>
      </trkpt>
      <trkpt lat="42.251777" lon="-8.611189">
        <ele>128.575</ele>
        <time>2015-03-26T10:55:23Z</time>
      </trkpt>
      <trkpt lat="42.251922" lon="-8.611257">
        <ele>123.748</ele>
        <time>2015-03-26T10:55:27Z</time>
      </trkpt>
      <trkpt lat="42.252008" lon="-8.611322">
        <ele>120.360</ele>
        <time>2015-03-26T10:55:30Z</time>
      </trkpt>
      <trkpt lat="42.252161" lon="-8.611215">
        <ele>117.960</ele>
        <time>2015-03-26T10:55:34Z</time>
      </trkpt>
      <trkpt lat="42.252334" lon="-8.610940">
        <ele>114.568</ele>
        <time>2015-03-26T10:55:38Z</time>
      </trkpt>
      <trkpt lat="42.252562" lon="-8.610648">
        <ele>110.223</ele>
        <time>2015-03-26T10:55:42Z</time>
      </trkpt>
      <trkpt lat="42.252734" lon="-8.610350">
        <ele>105.990</ele>
        <time>2015-03-26T10:55:46Z</time>
      </trkpt>
      <trkpt lat="42.252908" lon="-8.610230">
        <ele>104.496</ele>
        <time>2015-03-26T10:55:51Z</time>
      </trkpt>
      <trkpt lat="42.253115" lon="-8.610275">
        <ele>102.531</ele>
        <time>2015-03-26T10:55:55Z</time>
      </trkpt>
      <trkpt lat="42.253348" lon="-8.610410">
        <ele>99.624</ele>
        <time>2015-03-26T10:55:59Z</time>
      </trkpt>
      <trkpt lat="42.253572" lon="-8.610652">
        <ele>94.407</ele>
        <time>2015-03-26T10:56:03Z</time>
      </trkpt>
      <trkpt lat="42.253646" lon="-8.610731">
        <ele>91.528</ele>
        <time>2015-03-26T10:56:05Z</time>
      </trkpt>
      <trkpt lat="42.253798" lon="-8.610404">
        <ele>87.661</ele>
        <time>2015-03-26T10:56:12Z</time>
      </trkpt>
      <trkpt lat="42.253815" lon="-8.610325">
        <ele>86.783</ele>
        <time>2015-03-26T10:56:13Z</time>
      </trkpt>
      <trkpt lat="42.253853" lon="-8.610167">
        <ele>84.743</ele>
        <time>2015-03-26T10:56:15Z</time>
      </trkpt>
      <trkpt lat="42.253966" lon="-8.609873">
        <ele>79.971</ele>
        <time>2015-03-26T10:56:19Z</time>
      </trkpt>
      <trkpt lat="42.254043" lon="-8.609637">
        <ele>76.676</ele>
        <time>2015-03-26T10:56:22Z</time>
      </trkpt>
      <trkpt lat="42.254120" lon="-8.609423">
        <ele>72.243</ele>
        <time>2015-03-26T10:56:25Z</time>
      </trkpt>
      <trkpt lat="42.254143" lon="-8.609361">
        <ele>71.399</ele>
        <time>2015-03-26T10:56:26Z</time>
      </trkpt>
      <trkpt lat="42.254293" lon="-8.609304">
        <ele>66.007</ele>
        <time>2015-03-26T10:56:31Z</time>
      </trkpt>
      <trkpt lat="42.254324" lon="-8.609353">
        <ele>65.527</ele>
        <time>2015-03-26T10:56:32Z</time>
      </trkpt>
      <trkpt lat="42.254564" lon="-8.609659">
        <ele>59.707</ele>
        <time>2015-03-26T10:56:37Z</time>
      </trkpt>
      <trkpt lat="42.254792" lon="-8.609823">
        <ele>55.938</ele>
        <time>2015-03-26T10:56:40Z</time>
      </trkpt>
      <trkpt lat="42.254928" lon="-8.609935">
        <ele>54.011</ele>
        <time>2015-03-26T10:56:42Z</time>
      </trkpt>
      <trkpt lat="42.255275" lon="-8.610043">
        <ele>50.183</ele>
        <time>2015-03-26T10:56:47Z</time>
      </trkpt>
      <trkpt lat="42.255616" lon="-8.609975">
        <ele>47.753</ele>
        <time>2015-03-26T10:56:51Z</time>
      </trkpt>
      <trkpt lat="42.255997" lon="-8.609655">
        <ele>44.881</ele>
        <time>2015-03-26T10:56:58Z</time>
      </trkpt>
      <trkpt lat="42.256381" lon="-8.609389">
        <ele>44.446</ele>
        <time>2015-03-26T10:57:09Z</time>
      </trkpt>
      <trkpt lat="42.256571" lon="-8.609228">
        <ele>43.943</ele>
        <time>2015-03-26T10:57:14Z</time>
      </trkpt>
      <trkpt lat="42.256730" lon="-8.609131">
        <ele>43.419</ele>
        <time>2015-03-26T10:57:18Z</time>
      </trkpt>
      <trkpt lat="42.257395" lon="-8.608764">
        <ele>42.909</ele>
        <time>2015-03-26T10:57:34Z</time>
      </trkpt>
      <trkpt lat="42.258157" lon="-8.608443">
        <ele>42.019</ele>
        <time>2015-03-26T10:57:52Z</time>
      </trkpt>
      <trkpt lat="42.258595" lon="-8.608297">
        <ele>40.507</ele>
        <time>2015-03-26T10:58:04Z</time>
      </trkpt>
      <trkpt lat="42.259182" lon="-8.608085">
        <ele>40.540</ele>
        <time>2015-03-26T10:58:19Z</time>
      </trkpt>
      <trkpt lat="42.259681" lon="-8.607899">
        <ele>41.533</ele>
        <time>2015-03-26T10:58:32Z</time>
      </trkpt>
      <trkpt lat="42.260319" lon="-8.607918">
        <ele>41.585</ele>
        <time>2015-03-26T10:58:46Z</time>
      </trkpt>
      <trkpt lat="42.260637" lon="-8.607949">
        <ele>40.555</ele>
        <time>2015-03-26T10:58:53Z</time>
      </trkpt>
      <trkpt lat="42.261088" lon="-8.607918">
        <ele>39.663</ele>
        <time>2015-03-26T10:59:02Z</time>
      </trkpt>
      <trkpt lat="42.261380" lon="-8.607763">
        <ele>38.658</ele>
        <time>2015-03-26T10:59:09Z</time>
      </trkpt>
      <trkpt lat="42.262228" lon="-8.607573">
        <ele>37.625</ele>
        <time>2015-03-26T10:59:27Z</time>
      </trkpt>
      <trkpt lat="42.262932" lon="-8.607870">
        <ele>36.743</ele>
        <time>2015-03-26T10:59:42Z</time>
      </trkpt>
      <trkpt lat="42.263564" lon="-8.608015">
        <ele>35.764</ele>
        <time>2015-03-26T10:59:54Z</time>
      </trkpt>
      <trkpt lat="42.264427" lon="-8.608222">
        <ele>34.710</ele>
        <time>2015-03-26T11:00:12Z</time>
      </trkpt>
      <trkpt lat="42.265200" lon="-8.608277">
        <ele>35.707</ele>
        <time>2015-03-26T11:00:30Z</time>
      </trkpt>
      <trkpt lat="42.265779" lon="-8.608596">
        <ele>36.223</ele>
        <time>2015-03-26T11:00:45Z</time>
      </trkpt>
      <trkpt lat="42.266390" lon="-8.608874">
        <ele>34.776</ele>
        <time>2015-03-26T11:00:59Z</time>
      </trkpt>
      <trkpt lat="42.267132" lon="-8.609342">
        <ele>34.738</ele>
        <time>2015-03-26T11:01:17Z</time>
      </trkpt>
      <trkpt lat="42.267412" lon="-8.609504">
        <ele>34.728</ele>
        <time>2015-03-26T11:01:25Z</time>
      </trkpt>
      <trkpt lat="42.267582" lon="-8.609597">
        <ele>34.746</ele>
        <time>2015-03-26T11:01:29Z</time>
      </trkpt>
      <trkpt lat="42.268292" lon="-8.609806">
        <ele>34.341</ele>
        <time>2015-03-26T11:01:44Z</time>
      </trkpt>
      <trkpt lat="42.269137" lon="-8.610265">
        <ele>33.848</ele>
        <time>2015-03-26T11:02:05Z</time>
      </trkpt>
      <trkpt lat="42.269834" lon="-8.610709">
        <ele>32.375</ele>
        <time>2015-03-26T11:02:21Z</time>
      </trkpt>
      <trkpt lat="42.270408" lon="-8.610992">
        <ele>30.928</ele>
        <time>2015-03-26T11:02:33Z</time>
      </trkpt>
      <trkpt lat="42.270673" lon="-8.610985">
        <ele>29.920</ele>
        <time>2015-03-26T11:02:38Z</time>
      </trkpt>
      <trkpt lat="42.271021" lon="-8.610826">
        <ele>28.507</ele>
        <time>2015-03-26T11:02:45Z</time>
      </trkpt>
      <trkpt lat="42.271531" lon="-8.610394">
        <ele>28.586</ele>
        <time>2015-03-26T11:03:00Z</time>
      </trkpt>
      <trkpt lat="42.271689" lon="-8.610245">
        <ele>30.459</ele>
        <time>2015-03-26T11:03:10Z</time>
      </trkpt>
      <trkpt lat="42.271970" lon="-8.610212">
        <ele>29.091</ele>
        <time>2015-03-26T11:03:16Z</time>
      </trkpt>
      <trkpt lat="42.272399" lon="-8.610224">
        <ele>26.151</ele>
        <time>2015-03-26T11:03:23Z</time>
      </trkpt>
      <trkpt lat="42.273519" lon="-8.610226">
        <ele>22.759</ele>
        <time>2015-03-26T11:03:39Z</time>
      </trkpt>
      <trkpt lat="42.274707" lon="-8.610243">
        <ele>20.324</ele>
        <time>2015-03-26T11:03:58Z</time>
      </trkpt>
      <trkpt lat="42.275626" lon="-8.610230">
        <ele>19.411</ele>
        <time>2015-03-26T11:04:15Z</time>
      </trkpt>
      <trkpt lat="42.275788" lon="-8.610230">
        <ele>17.428</ele>
        <time>2015-03-26T11:04:18Z</time>
      </trkpt>
      <trkpt lat="42.276303" lon="-8.610216">
        <ele>17.489</ele>
        <time>2015-03-26T11:04:28Z</time>
      </trkpt>
      <trkpt lat="42.276768" lon="-8.610251">
        <ele>17.017</ele>
        <time>2015-03-26T11:04:38Z</time>
      </trkpt>
      <trkpt lat="42.276915" lon="-8.610299">
        <ele>17.007</ele>
        <time>2015-03-26T11:04:41Z</time>
      </trkpt>
      <trkpt lat="42.277127" lon="-8.610287">
        <ele>16.051</ele>
        <time>2015-03-26T11:04:45Z</time>
      </trkpt>
      <trkpt lat="42.277981" lon="-8.610100">
        <ele>15.034</ele>
        <time>2015-03-26T11:05:02Z</time>
      </trkpt>
      <trkpt lat="42.278387" lon="-8.609968">
        <ele>14.126</ele>
        <time>2015-03-26T11:05:11Z</time>
      </trkpt>
      <trkpt lat="42.278480" lon="-8.609965">
        <ele>14.116</ele>
        <time>2015-03-26T11:05:13Z</time>
      </trkpt>
      <trkpt lat="42.278665" lon="-8.610030">
        <ele>13.164</ele>
        <time>2015-03-26T11:05:17Z</time>
      </trkpt>
      <trkpt lat="42.278799" lon="-8.610134">
        <ele>12.669</ele>
        <time>2015-03-26T11:05:21Z</time>
      </trkpt>
      <trkpt lat="42.278886" lon="-8.610223">
        <ele>12.656</ele>
        <time>2015-03-26T11:05:33Z</time>
      </trkpt>
      <trkpt lat="42.278954" lon="-8.610269">
        <ele>12.626</ele>
        <time>2015-03-26T11:05:58Z</time>
      </trkpt>
      <trkpt lat="42.279209" lon="-8.610466">
        <ele>11.247</ele>
        <time>2015-03-26T11:06:28Z</time>
      </trkpt>
      <trkpt lat="42.279287" lon="-8.610476">
        <ele>11.211</ele>
        <time>2015-03-26T11:06:30Z</time>
      </trkpt>
      <trkpt lat="42.279547" lon="-8.610500">
        <ele>10.707</ele>
        <time>2015-03-26T11:06:36Z</time>
      </trkpt>
      <trkpt lat="42.280050" lon="-8.610501">
        <ele>10.211</ele>
        <time>2015-03-26T11:06:50Z</time>
      </trkpt>
      <trkpt lat="42.280365" lon="-8.610435">
        <ele>10.284</ele>
        <time>2015-03-26T11:07:00Z</time>
      </trkpt>
      <trkpt lat="42.280767" lon="-8.610240">
        <ele>10.246</ele>
        <time>2015-03-26T11:07:11Z</time>
      </trkpt>
      <trkpt lat="42.281041" lon="-8.610007">
        <ele>10.276</ele>
        <time>2015-03-26T11:07:21Z</time>
      </trkpt>
      <trkpt lat="42.281399" lon="-8.609694">
        <ele>10.274</ele>
        <time>2015-03-26T11:07:32Z</time>
      </trkpt>
      <trkpt lat="42.281847" lon="-8.609276">
        <ele>10.289</ele>
        <time>2015-03-26T11:07:46Z</time>
      </trkpt>
      <trkpt lat="42.282008" lon="-8.609007">
        <ele>10.266</ele>
        <time>2015-03-26T11:07:56Z</time>
      </trkpt>
      <trkpt lat="42.282078" lon="-8.608935">
        <ele>10.221</ele>
        <time>2015-03-26T11:08:00Z</time>
      </trkpt>
      <trkpt lat="42.282145" lon="-8.608775">
        <ele>10.241</ele>
        <time>2015-03-26T11:08:14Z</time>
      </trkpt>
      <trkpt lat="42.282276" lon="-8.608892">
        <ele>10.205</ele>
        <time>2015-03-26T11:09:38Z</time>
      </trkpt>
      <trkpt lat="42.282396" lon="-8.608755">
        <ele>15.007</ele>
        <time>2015-03-26T11:45:22Z</time>
      </trkpt>
      <trkpt lat="42.282477" lon="-8.608738">
        <ele>15.571</ele>
        <time>2015-03-26T11:45:27Z</time>
      </trkpt>
      <trkpt lat="42.282810" lon="-8.608533">
        <ele>17.024</ele>
        <time>2015-03-26T11:45:42Z</time>
      </trkpt>
      <trkpt lat="42.283207" lon="-8.608410">
        <ele>17.096</ele>
        <time>2015-03-26T11:45:54Z</time>
      </trkpt>
      <trkpt lat="42.283532" lon="-8.608245">
        <ele>16.096</ele>
        <time>2015-03-26T11:46:04Z</time>
      </trkpt>
      <trkpt lat="42.283586" lon="-8.608202">
        <ele>16.014</ele>
        <time>2015-03-26T11:46:06Z</time>
      </trkpt>
      <trkpt lat="42.283841" lon="-8.608288">
        <ele>13.619</ele>
        <time>2015-03-26T11:46:14Z</time>
      </trkpt>
      <trkpt lat="42.283899" lon="-8.608162">
        <ele>13.626</ele>
        <time>2015-03-26T11:46:27Z</time>
      </trkpt>
      <trkpt lat="42.283911" lon="-8.608038">
        <ele>15.068</ele>
        <time>2015-03-26T11:47:11Z</time>
      </trkpt>
      <trkpt lat="42.283905" lon="-8.607838">
        <ele>16.542</ele>
        <time>2015-03-26T11:47:21Z</time>
      </trkpt>
      <trkpt lat="42.284013" lon="-8.607789">
        <ele>18.926</ele>
        <time>2015-03-26T11:47:33Z</time>
      </trkpt>
      <trkpt lat="42.284135" lon="-8.607796">
        <ele>19.807</ele>
        <time>2015-03-26T11:47:42Z</time>
      </trkpt>
      <trkpt lat="42.284184" lon="-8.607811">
        <ele>21.325</ele>
        <time>2015-03-26T11:47:46Z</time>
      </trkpt>
      <trkpt lat="42.284354" lon="-8.607833">
        <ele>23.228</ele>
        <time>2015-03-26T11:48:00Z</time>
      </trkpt>
      <trkpt lat="42.284542" lon="-8.607817">
        <ele>26.190</ele>
        <time>2015-03-26T11:48:16Z</time>
      </trkpt>
      <trkpt lat="42.284776" lon="-8.607762">
        <ele>28.010</ele>
        <time>2015-03-26T11:48:31Z</time>
      </trkpt>
      <trkpt lat="42.285012" lon="-8.607770">
        <ele>28.578</ele>
        <time>2015-03-26T11:48:44Z</time>
      </trkpt>
      <trkpt lat="42.285094" lon="-8.607777">
        <ele>28.543</ele>
        <time>2015-03-26T11:48:48Z</time>
      </trkpt>
      <trkpt lat="42.285402" lon="-8.607601">
        <ele>29.520</ele>
        <time>2015-03-26T11:49:03Z</time>
      </trkpt>
      <trkpt lat="42.285518" lon="-8.607598">
        <ele>30.476</ele>
        <time>2015-03-26T11:49:09Z</time>
      </trkpt>
      <trkpt lat="42.285798" lon="-8.607726">
        <ele>31.990</ele>
        <time>2015-03-26T11:49:24Z</time>
      </trkpt>
      <trkpt lat="42.286030" lon="-8.607789">
        <ele>32.819</ele>
        <time>2015-03-26T11:49:35Z</time>
      </trkpt>
      <trkpt lat="42.286099" lon="-8.607851">
        <ele>33.307</ele>
        <time>2015-03-26T11:49:39Z</time>
      </trkpt>
      <trkpt lat="42.286395" lon="-8.607977">
        <ele>33.826</ele>
        <time>2015-03-26T11:49:53Z</time>
      </trkpt>
      <trkpt lat="42.286651" lon="-8.608127">
        <ele>33.339</ele>
        <time>2015-03-26T11:50:03Z</time>
      </trkpt>
      <trkpt lat="42.287004" lon="-8.608091">
        <ele>30.911</ele>
        <time>2015-03-26T11:50:14Z</time>
      </trkpt>
      <trkpt lat="42.287048" lon="-8.608103">
        <ele>30.491</ele>
        <time>2015-03-26T11:50:15Z</time>
      </trkpt>
      <trkpt lat="42.287334" lon="-8.608259">
        <ele>27.129</ele>
        <time>2015-03-26T11:50:23Z</time>
      </trkpt>
      <trkpt lat="42.287510" lon="-8.608339">
        <ele>23.274</ele>
        <time>2015-03-26T11:50:30Z</time>
      </trkpt>
      <trkpt lat="42.287715" lon="-8.608431">
        <ele>18.951</ele>
        <time>2015-03-26T11:50:35Z</time>
      </trkpt>
      <trkpt lat="42.287808" lon="-8.608416">
        <ele>17.493</ele>
        <time>2015-03-26T11:50:37Z</time>
      </trkpt>
      <trkpt lat="42.288157" lon="-8.608628">
        <ele>16.565</ele>
        <time>2015-03-26T11:50:49Z</time>
      </trkpt>
      <trkpt lat="42.288258" lon="-8.608704">
        <ele>16.521</ele>
        <time>2015-03-26T11:51:01Z</time>
      </trkpt>
      <trkpt lat="42.288291" lon="-8.608746">
        <ele>16.507</ele>
        <time>2015-03-26T11:51:27Z</time>
      </trkpt>
      <trkpt lat="42.288372" lon="-8.608751">
        <ele>16.558</ele>
        <time>2015-03-26T11:51:32Z</time>
      </trkpt>
      <trkpt lat="42.288544" lon="-8.608720">
        <ele>17.431</ele>
        <time>2015-03-26T11:51:38Z</time>
      </trkpt>
      <trkpt lat="42.289012" lon="-8.608604">
        <ele>17.943</ele>
        <time>2015-03-26T11:51:53Z</time>
      </trkpt>
      <trkpt lat="42.289652" lon="-8.608491">
        <ele>17.993</ele>
        <time>2015-03-26T11:52:11Z</time>
      </trkpt>
      <trkpt lat="42.290101" lon="-8.608381">
        <ele>18.991</ele>
        <time>2015-03-26T11:52:23Z</time>
      </trkpt>
      <trkpt lat="42.290658" lon="-8.608253">
        <ele>19.476</ele>
        <time>2015-03-26T11:52:38Z</time>
      </trkpt>
      <trkpt lat="42.291356" lon="-8.607977">
        <ele>17.983</ele>
        <time>2015-03-26T11:52:55Z</time>
      </trkpt>
      <trkpt lat="42.292137" lon="-8.607826">
        <ele>17.432</ele>
        <time>2015-03-26T11:53:14Z</time>
      </trkpt>
      <trkpt lat="42.292609" lon="-8.607701">
        <ele>16.092</ele>
        <time>2015-03-26T11:53:24Z</time>
      </trkpt>
      <trkpt lat="42.292842" lon="-8.607642">
        <ele>15.511</ele>
        <time>2015-03-26T11:53:29Z</time>
      </trkpt>
      <trkpt lat="42.293458" lon="-8.607428">
        <ele>15.007</ele>
        <time>2015-03-26T11:53:44Z</time>
      </trkpt>
      <trkpt lat="42.293575" lon="-8.607370">
        <ele>15.042</ele>
        <time>2015-03-26T11:53:47Z</time>
      </trkpt>
      <trkpt lat="42.293813" lon="-8.607374">
        <ele>15.075</ele>
        <time>2015-03-26T11:53:53Z</time>
      </trkpt>
      <trkpt lat="42.294013" lon="-8.607515">
        <ele>16.567</ele>
        <time>2015-03-26T11:54:01Z</time>
      </trkpt>
      <trkpt lat="42.294146" lon="-8.607780">
        <ele>18.917</ele>
        <time>2015-03-26T11:54:14Z</time>
      </trkpt>
      <trkpt lat="42.294284" lon="-8.608123">
        <ele>21.365</ele>
        <time>2015-03-26T11:54:31Z</time>
      </trkpt>
      <trkpt lat="42.294451" lon="-8.608465">
        <ele>24.230</ele>
        <time>2015-03-26T11:54:49Z</time>
      </trkpt>
      <trkpt lat="42.294612" lon="-8.608768">
        <ele>27.577</ele>
        <time>2015-03-26T11:55:06Z</time>
      </trkpt>
      <trkpt lat="42.294824" lon="-8.609020">
        <ele>29.566</ele>
        <time>2015-03-26T11:55:22Z</time>
      </trkpt>
      <trkpt lat="42.295114" lon="-8.609300">
        <ele>30.429</ele>
        <time>2015-03-26T11:55:38Z</time>
      </trkpt>
      <trkpt lat="42.295512" lon="-8.609614">
        <ele>31.921</ele>
        <time>2015-03-26T11:55:57Z</time>
      </trkpt>
      <trkpt lat="42.295808" lon="-8.609958">
        <ele>34.307</ele>
        <time>2015-03-26T11:56:14Z</time>
      </trkpt>
      <trkpt lat="42.296184" lon="-8.610287">
        <ele>34.315</ele>
        <time>2015-03-26T11:56:31Z</time>
      </trkpt>
      <trkpt lat="42.296638" lon="-8.610203">
        <ele>33.358</ele>
        <time>2015-03-26T11:56:44Z</time>
      </trkpt>
      <trkpt lat="42.297060" lon="-8.610181">
        <ele>33.340</ele>
        <time>2015-03-26T11:56:58Z</time>
      </trkpt>
      <trkpt lat="42.297385" lon="-8.610097">
        <ele>32.870</ele>
        <time>2015-03-26T11:57:07Z</time>
      </trkpt>
      <trkpt lat="42.297530" lon="-8.610012">
        <ele>32.818</ele>
        <time>2015-03-26T11:57:11Z</time>
      </trkpt>
      <trkpt lat="42.298360" lon="-8.609626">
        <ele>29.983</ele>
        <time>2015-03-26T11:57:31Z</time>
      </trkpt>
      <trkpt lat="42.298708" lon="-8.609539">
        <ele>29.090</ele>
        <time>2015-03-26T11:57:38Z</time>
      </trkpt>
      <trkpt lat="42.299290" lon="-8.609542">
        <ele>29.042</ele>
        <time>2015-03-26T11:57:53Z</time>
      </trkpt>
      <trkpt lat="42.299556" lon="-8.609353">
        <ele>31.922</ele>
        <time>2015-03-26T11:58:05Z</time>
      </trkpt>
      <trkpt lat="42.299723" lon="-8.609035">
        <ele>34.714</ele>
        <time>2015-03-26T11:58:19Z</time>
      </trkpt>
      <trkpt lat="42.299931" lon="-8.608857">
        <ele>37.207</ele>
        <time>2015-03-26T11:58:34Z</time>
      </trkpt>
      <trkpt lat="42.300087" lon="-8.608719">
        <ele>39.613</ele>
        <time>2015-03-26T11:58:47Z</time>
      </trkpt>
      <trkpt lat="42.300177" lon="-8.608631">
        <ele>41.036</ele>
        <time>2015-03-26T11:58:55Z</time>
      </trkpt>
      <trkpt lat="42.300211" lon="-8.608589">
        <ele>42.098</ele>
        <time>2015-03-26T11:58:59Z</time>
      </trkpt>
      <trkpt lat="42.300309" lon="-8.608349">
        <ele>44.868</ele>
        <time>2015-03-26T11:59:15Z</time>
      </trkpt>
      <trkpt lat="42.300444" lon="-8.608169">
        <ele>47.756</ele>
        <time>2015-03-26T11:59:30Z</time>
      </trkpt>
      <trkpt lat="42.300723" lon="-8.608318">
        <ele>45.891</ele>
        <time>2015-03-26T11:59:45Z</time>
      </trkpt>
      <trkpt lat="42.300921" lon="-8.608362">
        <ele>42.998</ele>
        <time>2015-03-26T11:59:50Z</time>
      </trkpt>
      <trkpt lat="42.301351" lon="-8.608243">
        <ele>42.913</ele>
        <time>2015-03-26T12:00:06Z</time>
      </trkpt>
      <trkpt lat="42.301655" lon="-8.608104">
        <ele>42.943</ele>
        <time>2015-03-26T12:00:20Z</time>
      </trkpt>
      <trkpt lat="42.301954" lon="-8.607921">
        <ele>45.307</ele>
        <time>2015-03-26T12:00:36Z</time>
      </trkpt>
      <trkpt lat="42.302167" lon="-8.607730">
        <ele>46.307</ele>
        <time>2015-03-26T12:00:48Z</time>
      </trkpt>
      <trkpt lat="42.302334" lon="-8.607549">
        <ele>48.210</ele>
        <time>2015-03-26T12:00:59Z</time>
      </trkpt>
      <trkpt lat="42.302595" lon="-8.607308">
        <ele>49.763</ele>
        <time>2015-03-26T12:01:13Z</time>
      </trkpt>
      <trkpt lat="42.302795" lon="-8.607018">
        <ele>50.175</ele>
        <time>2015-03-26T12:01:26Z</time>
      </trkpt>
      <trkpt lat="42.303061" lon="-8.606775">
        <ele>51.135</ele>
        <time>2015-03-26T12:01:41Z</time>
      </trkpt>
      <trkpt lat="42.303301" lon="-8.606466">
        <ele>52.553</ele>
        <time>2015-03-26T12:01:57Z</time>
      </trkpt>
      <trkpt lat="42.303377" lon="-8.606373">
        <ele>53.058</ele>
        <time>2015-03-26T12:02:03Z</time>
      </trkpt>
      <trkpt lat="42.303776" lon="-8.606145">
        <ele>54.045</ele>
        <time>2015-03-26T12:02:24Z</time>
      </trkpt>
      <trkpt lat="42.304046" lon="-8.605911">
        <ele>56.429</ele>
        <time>2015-03-26T12:02:41Z</time>
      </trkpt>
      <trkpt lat="42.304269" lon="-8.605921">
        <ele>56.900</ele>
        <time>2015-03-26T12:02:52Z</time>
      </trkpt>
      <trkpt lat="42.304546" lon="-8.605935">
        <ele>57.320</ele>
        <time>2015-03-26T12:03:06Z</time>
      </trkpt>
      <trkpt lat="42.304846" lon="-8.605919">
        <ele>59.307</ele>
        <time>2015-03-26T12:03:22Z</time>
      </trkpt>
      <trkpt lat="42.305098" lon="-8.605932">
        <ele>61.731</ele>
        <time>2015-03-26T12:03:37Z</time>
      </trkpt>
      <trkpt lat="42.305184" lon="-8.605914">
        <ele>63.124</ele>
        <time>2015-03-26T12:03:42Z</time>
      </trkpt>
      <trkpt lat="42.305479" lon="-8.605840">
        <ele>65.046</ele>
        <time>2015-03-26T12:03:59Z</time>
      </trkpt>
      <trkpt lat="42.305853" lon="-8.605768">
        <ele>67.486</ele>
        <time>2015-03-26T12:04:20Z</time>
      </trkpt>
      <trkpt lat="42.306174" lon="-8.605646">
        <ele>68.484</ele>
        <time>2015-03-26T12:04:36Z</time>
      </trkpt>
      <trkpt lat="42.306375" lon="-8.605520">
        <ele>69.439</ele>
        <time>2015-03-26T12:04:46Z</time>
      </trkpt>
      <trkpt lat="42.306549" lon="-8.605193">
        <ele>70.876</ele>
        <time>2015-03-26T12:05:01Z</time>
      </trkpt>
      <trkpt lat="42.306715" lon="-8.604961">
        <ele>73.235</ele>
        <time>2015-03-26T12:05:17Z</time>
      </trkpt>
      <trkpt lat="42.306777" lon="-8.604824">
        <ele>75.186</ele>
        <time>2015-03-26T12:05:26Z</time>
      </trkpt>
      <trkpt lat="42.306835" lon="-8.604799">
        <ele>75.614</ele>
        <time>2015-03-26T12:05:30Z</time>
      </trkpt>
      <trkpt lat="42.306908" lon="-8.604796">
        <ele>76.107</ele>
        <time>2015-03-26T12:05:34Z</time>
      </trkpt>
      <trkpt lat="42.307200" lon="-8.604830">
        <ele>76.622</ele>
        <time>2015-03-26T12:05:49Z</time>
      </trkpt>
      <trkpt lat="42.307478" lon="-8.604640">
        <ele>78.515</ele>
        <time>2015-03-26T12:06:06Z</time>
      </trkpt>
      <trkpt lat="42.307700" lon="-8.604286">
        <ele>79.977</ele>
        <time>2015-03-26T12:06:25Z</time>
      </trkpt>
      <trkpt lat="42.307913" lon="-8.603823">
        <ele>82.897</ele>
        <time>2015-03-26T12:06:47Z</time>
      </trkpt>
      <trkpt lat="42.308166" lon="-8.603534">
        <ele>83.395</ele>
        <time>2015-03-26T12:07:02Z</time>
      </trkpt>
      <trkpt lat="42.308487" lon="-8.603221">
        <ele>83.830</ele>
        <time>2015-03-26T12:07:17Z</time>
      </trkpt>
      <trkpt lat="42.308733" lon="-8.603186">
        <ele>84.787</ele>
        <time>2015-03-26T12:07:30Z</time>
      </trkpt>
      <trkpt lat="42.309132" lon="-8.603170">
        <ele>88.169</ele>
        <time>2015-03-26T12:07:50Z</time>
      </trkpt>
      <trkpt lat="42.309521" lon="-8.603143">
        <ele>90.504</ele>
        <time>2015-03-26T12:08:10Z</time>
      </trkpt>
      <trkpt lat="42.309779" lon="-8.603111">
        <ele>92.424</ele>
        <time>2015-03-26T12:08:25Z</time>
      </trkpt>
      <trkpt lat="42.310099" lon="-8.603049">
        <ele>95.307</ele>
        <time>2015-03-26T12:08:44Z</time>
      </trkpt>
      <trkpt lat="42.310192" lon="-8.603164">
        <ele>96.395</ele>
        <time>2015-03-26T12:08:52Z</time>
      </trkpt>
      <trkpt lat="42.310297" lon="-8.603467">
        <ele>99.268</ele>
        <time>2015-03-26T12:09:09Z</time>
      </trkpt>
      <trkpt lat="42.310341" lon="-8.603633">
        <ele>101.140</ele>
        <time>2015-03-26T12:09:18Z</time>
      </trkpt>
      <trkpt lat="42.310555" lon="-8.603760">
        <ele>104.090</ele>
        <time>2015-03-26T12:09:37Z</time>
      </trkpt>
      <trkpt lat="42.310714" lon="-8.603907">
        <ele>107.368</ele>
        <time>2015-03-26T12:09:53Z</time>
      </trkpt>
      <trkpt lat="42.310832" lon="-8.604015">
        <ele>109.383</ele>
        <time>2015-03-26T12:10:06Z</time>
      </trkpt>
      <trkpt lat="42.310872" lon="-8.604066">
        <ele>110.780</ele>
        <time>2015-03-26T12:10:11Z</time>
      </trkpt>
      <trkpt lat="42.310966" lon="-8.604214">
        <ele>113.694</ele>
        <time>2015-03-26T12:10:24Z</time>
      </trkpt>
      <trkpt lat="42.311050" lon="-8.604422">
        <ele>116.957</ele>
        <time>2015-03-26T12:10:41Z</time>
      </trkpt>
      <trkpt lat="42.311131" lon="-8.604465">
        <ele>118.922</ele>
        <time>2015-03-26T12:10:49Z</time>
      </trkpt>
      <trkpt lat="42.311204" lon="-8.604601">
        <ele>120.807</ele>
        <time>2015-03-26T12:11:01Z</time>
      </trkpt>
      <trkpt lat="42.311279" lon="-8.604625">
        <ele>122.228</ele>
        <time>2015-03-26T12:11:08Z</time>
      </trkpt>
      <trkpt lat="42.311429" lon="-8.604703">
        <ele>125.681</ele>
        <time>2015-03-26T12:11:23Z</time>
      </trkpt>
      <trkpt lat="42.311493" lon="-8.604719">
        <ele>126.663</ele>
        <time>2015-03-26T12:11:28Z</time>
      </trkpt>
      <trkpt lat="42.311531" lon="-8.604772">
        <ele>127.523</ele>
        <time>2015-03-26T12:11:33Z</time>
      </trkpt>
      <trkpt lat="42.311669" lon="-8.604892">
        <ele>130.411</ele>
        <time>2015-03-26T12:11:48Z</time>
      </trkpt>
      <trkpt lat="42.311719" lon="-8.604989">
        <ele>131.416</ele>
        <time>2015-03-26T12:11:55Z</time>
      </trkpt>
      <trkpt lat="42.311795" lon="-8.605112">
        <ele>132.363</ele>
        <time>2015-03-26T12:12:03Z</time>
      </trkpt>
      <trkpt lat="42.311881" lon="-8.605231">
        <ele>132.353</ele>
        <time>2015-03-26T12:12:10Z</time>
      </trkpt>
      <trkpt lat="42.311947" lon="-8.605300">
        <ele>132.304</ele>
        <time>2015-03-26T12:12:15Z</time>
      </trkpt>
      <trkpt lat="42.312205" lon="-8.605566">
        <ele>133.814</ele>
        <time>2015-03-26T12:12:31Z</time>
      </trkpt>
      <trkpt lat="42.312535" lon="-8.605765">
        <ele>133.807</ele>
        <time>2015-03-26T12:12:49Z</time>
      </trkpt>
      <trkpt lat="42.312879" lon="-8.605913">
        <ele>135.264</ele>
        <time>2015-03-26T12:13:06Z</time>
      </trkpt>
      <trkpt lat="42.313124" lon="-8.606035">
        <ele>136.257</ele>
        <time>2015-03-26T12:13:19Z</time>
      </trkpt>
      <trkpt lat="42.313407" lon="-8.606134">
        <ele>139.549</ele>
        <time>2015-03-26T12:13:36Z</time>
      </trkpt>
      <trkpt lat="42.313710" lon="-8.606166">
        <ele>141.989</ele>
        <time>2015-03-26T12:13:54Z</time>
      </trkpt>
      <trkpt lat="42.313959" lon="-8.606223">
        <ele>143.477</ele>
        <time>2015-03-26T12:14:09Z</time>
      </trkpt>
      <trkpt lat="42.314193" lon="-8.606309">
        <ele>145.322</ele>
        <time>2015-03-26T12:14:23Z</time>
      </trkpt>
      <trkpt lat="42.314265" lon="-8.606333">
        <ele>146.369</ele>
        <time>2015-03-26T12:14:28Z</time>
      </trkpt>
      <trkpt lat="42.314428" lon="-8.606486">
        <ele>146.778</ele>
        <time>2015-03-26T12:14:41Z</time>
      </trkpt>
      <trkpt lat="42.314589" lon="-8.606622">
        <ele>148.233</ele>
        <time>2015-03-26T12:14:53Z</time>
      </trkpt>
      <trkpt lat="42.314798" lon="-8.606725">
        <ele>150.126</ele>
        <time>2015-03-26T12:15:06Z</time>
      </trkpt>
      <trkpt lat="42.314976" lon="-8.606839">
        <ele>150.107</ele>
        <time>2015-03-26T12:15:15Z</time>
      </trkpt>
      <trkpt lat="42.315106" lon="-8.606980">
        <ele>150.126</ele>
        <time>2015-03-26T12:15:23Z</time>
      </trkpt>
      <trkpt lat="42.315192" lon="-8.607013">
        <ele>150.689</ele>
        <time>2015-03-26T12:15:28Z</time>
      </trkpt>
      <trkpt lat="42.315283" lon="-8.607092">
        <ele>150.681</ele>
        <time>2015-03-26T12:15:33Z</time>
      </trkpt>
      <trkpt lat="42.315375" lon="-8.607153">
        <ele>151.131</ele>
        <time>2015-03-26T12:15:39Z</time>
      </trkpt>
      <trkpt lat="42.315738" lon="-8.607455">
        <ele>151.549</ele>
        <time>2015-03-26T12:15:54Z</time>
      </trkpt>
      <trkpt lat="42.316052" lon="-8.607485">
        <ele>153.024</ele>
        <time>2015-03-26T12:16:08Z</time>
      </trkpt>
      <trkpt lat="42.316229" lon="-8.607480">
        <ele>155.971</ele>
        <time>2015-03-26T12:16:20Z</time>
      </trkpt>
      <trkpt lat="42.316350" lon="-8.607485">
        <ele>157.865</ele>
        <time>2015-03-26T12:16:34Z</time>
      </trkpt>
      <trkpt lat="42.316405" lon="-8.607474">
        <ele>157.868</ele>
        <time>2015-03-26T12:17:19Z</time>
      </trkpt>
      <trkpt lat="42.316526" lon="-8.607502">
        <ele>156.814</ele>
        <time>2015-03-26T12:17:41Z</time>
      </trkpt>
      <trkpt lat="42.316842" lon="-8.607375">
        <ele>154.907</ele>
        <time>2015-03-26T12:17:48Z</time>
      </trkpt>
      <trkpt lat="42.317046" lon="-8.607256">
        <ele>154.425</ele>
        <time>2015-03-26T12:17:53Z</time>
      </trkpt>
      <trkpt lat="42.317406" lon="-8.607051">
        <ele>154.038</ele>
        <time>2015-03-26T12:18:03Z</time>
      </trkpt>
      <trkpt lat="42.317762" lon="-8.606763">
        <ele>151.580</ele>
        <time>2015-03-26T12:18:14Z</time>
      </trkpt>
      <trkpt lat="42.318097" lon="-8.606267">
        <ele>149.620</ele>
        <time>2015-03-26T12:18:23Z</time>
      </trkpt>
      <trkpt lat="42.318213" lon="-8.606137">
        <ele>148.718</ele>
        <time>2015-03-26T12:18:26Z</time>
      </trkpt>
      <trkpt lat="42.318305" lon="-8.606060">
        <ele>148.213</ele>
        <time>2015-03-26T12:18:28Z</time>
      </trkpt>
      <trkpt lat="42.318638" lon="-8.606097">
        <ele>147.250</ele>
        <time>2015-03-26T12:18:36Z</time>
      </trkpt>
      <trkpt lat="42.319042" lon="-8.606188">
        <ele>147.225</ele>
        <time>2015-03-26T12:18:49Z</time>
      </trkpt>
      <trkpt lat="42.319265" lon="-8.606180">
        <ele>146.726</ele>
        <time>2015-03-26T12:18:55Z</time>
      </trkpt>
      <trkpt lat="42.319411" lon="-8.606208">
        <ele>145.308</ele>
        <time>2015-03-26T12:18:58Z</time>
      </trkpt>
      <trkpt lat="42.319606" lon="-8.606314">
        <ele>142.907</ele>
        <time>2015-03-26T12:19:02Z</time>
      </trkpt>
      <trkpt lat="42.319965" lon="-8.606650">
        <ele>139.111</ele>
        <time>2015-03-26T12:19:09Z</time>
      </trkpt>
      <trkpt lat="42.320078" lon="-8.606763">
        <ele>137.674</ele>
        <time>2015-03-26T12:19:11Z</time>
      </trkpt>
      <trkpt lat="42.320362" lon="-8.607184">
        <ele>132.896</ele>
        <time>2015-03-26T12:19:17Z</time>
      </trkpt>
      <trkpt lat="42.320463" lon="-8.607313">
        <ele>132.316</ele>
        <time>2015-03-26T12:19:19Z</time>
      </trkpt>
      <trkpt lat="42.320557" lon="-8.607426">
        <ele>130.454</ele>
        <time>2015-03-26T12:19:21Z</time>
      </trkpt>
      <trkpt lat="42.320824" lon="-8.607594">
        <ele>127.559</ele>
        <time>2015-03-26T12:19:26Z</time>
      </trkpt>
      <trkpt lat="42.320924" lon="-8.607611">
        <ele>127.086</ele>
        <time>2015-03-26T12:19:28Z</time>
      </trkpt>
      <trkpt lat="42.321125" lon="-8.607626">
        <ele>124.297</ele>
        <time>2015-03-26T12:19:32Z</time>
      </trkpt>
      <trkpt lat="42.321314" lon="-8.607613">
        <ele>121.723</ele>
        <time>2015-03-26T12:19:36Z</time>
      </trkpt>
      <trkpt lat="42.321501" lon="-8.607521">
        <ele>119.825</ele>
        <time>2015-03-26T12:19:40Z</time>
      </trkpt>
      <trkpt lat="42.321803" lon="-8.607403">
        <ele>116.507</ele>
        <time>2015-03-26T12:19:45Z</time>
      </trkpt>
      <trkpt lat="42.322112" lon="-8.607312">
        <ele>113.178</ele>
        <time>2015-03-26T12:19:49Z</time>
      </trkpt>
      <trkpt lat="42.322421" lon="-8.607264">
        <ele>110.211</ele>
        <time>2015-03-26T12:19:53Z</time>
      </trkpt>
      <trkpt lat="42.322588" lon="-8.607249">
        <ele>106.443</ele>
        <time>2015-03-26T12:19:56Z</time>
      </trkpt>
      <trkpt lat="42.322776" lon="-8.607236">
        <ele>103.013</ele>
        <time>2015-03-26T12:20:00Z</time>
      </trkpt>
      <trkpt lat="42.322900" lon="-8.607225">
        <ele>100.651</ele>
        <time>2015-03-26T12:20:03Z</time>
      </trkpt>
      <trkpt lat="42.323100" lon="-8.607218">
        <ele>96.356</ele>
        <time>2015-03-26T12:20:08Z</time>
      </trkpt>
      <trkpt lat="42.323309" lon="-8.607235">
        <ele>91.923</ele>
        <time>2015-03-26T12:20:12Z</time>
      </trkpt>
      <trkpt lat="42.323781" lon="-8.607194">
        <ele>91.525</ele>
        <time>2015-03-26T12:20:20Z</time>
      </trkpt>
      <trkpt lat="42.323879" lon="-8.607174">
        <ele>91.526</ele>
        <time>2015-03-26T12:20:22Z</time>
      </trkpt>
      <trkpt lat="42.324369" lon="-8.607096">
        <ele>88.608</ele>
        <time>2015-03-26T12:20:30Z</time>
      </trkpt>
      <trkpt lat="42.324849" lon="-8.606969">
        <ele>84.307</ele>
        <time>2015-03-26T12:20:36Z</time>
      </trkpt>
      <trkpt lat="42.325112" lon="-8.606893">
        <ele>80.991</ele>
        <time>2015-03-26T12:20:39Z</time>
      </trkpt>
      <trkpt lat="42.325204" lon="-8.606863">
        <ele>79.584</ele>
        <time>2015-03-26T12:20:40Z</time>
      </trkpt>
      <trkpt lat="42.325545" lon="-8.606618">
        <ele>74.676</ele>
        <time>2015-03-26T12:20:44Z</time>
      </trkpt>
      <trkpt lat="42.325834" lon="-8.606356">
        <ele>70.886</ele>
        <time>2015-03-26T12:20:47Z</time>
      </trkpt>
      <trkpt lat="42.325994" lon="-8.606258">
        <ele>67.414</ele>
        <time>2015-03-26T12:20:49Z</time>
      </trkpt>
      <trkpt lat="42.326292" lon="-8.606218">
        <ele>63.139</ele>
        <time>2015-03-26T12:20:53Z</time>
      </trkpt>
      <trkpt lat="42.326371" lon="-8.606224">
        <ele>62.186</ele>
        <time>2015-03-26T12:20:54Z</time>
      </trkpt>
      <trkpt lat="42.326634" lon="-8.606162">
        <ele>57.396</ele>
        <time>2015-03-26T12:20:57Z</time>
      </trkpt>
      <trkpt lat="42.326897" lon="-8.605921">
        <ele>54.531</ele>
        <time>2015-03-26T12:21:00Z</time>
      </trkpt>
      <trkpt lat="42.327072" lon="-8.605775">
        <ele>54.024</ele>
        <time>2015-03-26T12:21:02Z</time>
      </trkpt>
      <trkpt lat="42.327636" lon="-8.605607">
        <ele>55.907</ele>
        <time>2015-03-26T12:21:10Z</time>
      </trkpt>
      <trkpt lat="42.328019" lon="-8.605675">
        <ele>59.348</ele>
        <time>2015-03-26T12:21:23Z</time>
      </trkpt>
      <trkpt lat="42.328370" lon="-8.605786">
        <ele>60.291</ele>
        <time>2015-03-26T12:21:38Z</time>
      </trkpt>
      <trkpt lat="42.328750" lon="-8.606046">
        <ele>62.123</ele>
        <time>2015-03-26T12:21:56Z</time>
      </trkpt>
      <trkpt lat="42.329063" lon="-8.606276">
        <ele>63.643</ele>
        <time>2015-03-26T12:22:11Z</time>
      </trkpt>
      <trkpt lat="42.329487" lon="-8.606545">
        <ele>66.591</ele>
        <time>2015-03-26T12:22:31Z</time>
      </trkpt>
      <trkpt lat="42.329936" lon="-8.606708">
        <ele>69.866</ele>
        <time>2015-03-26T12:22:51Z</time>
      </trkpt>
      <trkpt lat="42.330350" lon="-8.606764">
        <ele>71.353</ele>
        <time>2015-03-26T12:23:09Z</time>
      </trkpt>
      <trkpt lat="42.330764" lon="-8.606796">
        <ele>73.297</ele>
        <time>2015-03-26T12:23:26Z</time>
      </trkpt>
      <trkpt lat="42.331183" lon="-8.606810">
        <ele>75.123</ele>
        <time>2015-03-26T12:23:43Z</time>
      </trkpt>
      <trkpt lat="42.331751" lon="-8.606834">
        <ele>76.125</ele>
        <time>2015-03-26T12:24:02Z</time>
      </trkpt>
      <trkpt lat="42.332009" lon="-8.606811">
        <ele>74.607</ele>
        <time>2015-03-26T12:24:08Z</time>
      </trkpt>
      <trkpt lat="42.332582" lon="-8.606813">
        <ele>71.818</ele>
        <time>2015-03-26T12:24:19Z</time>
      </trkpt>
      <trkpt lat="42.332783" lon="-8.606814">
        <ele>70.331</ele>
        <time>2015-03-26T12:24:23Z</time>
      </trkpt>
      <trkpt lat="42.332933" lon="-8.607029">
        <ele>69.893</ele>
        <time>2015-03-26T12:24:28Z</time>
      </trkpt>
      <trkpt lat="42.332939" lon="-8.607159">
        <ele>70.353</ele>
        <time>2015-03-26T12:24:31Z</time>
      </trkpt>
      <trkpt lat="42.333026" lon="-8.607279">
        <ele>70.351</ele>
        <time>2015-03-26T12:24:35Z</time>
      </trkpt>
      <trkpt lat="42.333123" lon="-8.607325">
        <ele>70.366</ele>
        <time>2015-03-26T12:24:38Z</time>
      </trkpt>
      <trkpt lat="42.333296" lon="-8.607390">
        <ele>69.423</ele>
        <time>2015-03-26T12:24:42Z</time>
      </trkpt>
      <trkpt lat="42.333978" lon="-8.607399">
        <ele>65.526</ele>
        <time>2015-03-26T12:24:54Z</time>
      </trkpt>
      <trkpt lat="42.334116" lon="-8.607418">
        <ele>64.647</ele>
        <time>2015-03-26T12:24:56Z</time>
      </trkpt>
      <trkpt lat="42.334555" lon="-8.607408">
        <ele>60.711</ele>
        <time>2015-03-26T12:25:02Z</time>
      </trkpt>
      <trkpt lat="42.334686" lon="-8.607405">
        <ele>59.707</ele>
        <time>2015-03-26T12:25:04Z</time>
      </trkpt>
      <trkpt lat="42.334783" lon="-8.607424">
        <ele>58.881</ele>
        <time>2015-03-26T12:25:06Z</time>
      </trkpt>
      <trkpt lat="42.334897" lon="-8.607483">
        <ele>57.384</ele>
        <time>2015-03-26T12:25:09Z</time>
      </trkpt>
      <trkpt lat="42.335237" lon="-8.607773">
        <ele>55.966</ele>
        <time>2015-03-26T12:25:20Z</time>
      </trkpt>
      <trkpt lat="42.335326" lon="-8.607899">
        <ele>52.186</ele>
        <time>2015-03-26T12:25:23Z</time>
      </trkpt>
      <trkpt lat="42.335420" lon="-8.607980">
        <ele>48.734</ele>
        <time>2015-03-26T12:25:26Z</time>
      </trkpt>
      <trkpt lat="42.335635" lon="-8.607867">
        <ele>45.899</ele>
        <time>2015-03-26T12:25:32Z</time>
      </trkpt>
      <trkpt lat="42.335788" lon="-8.607808">
        <ele>45.356</ele>
        <time>2015-03-26T12:25:35Z</time>
      </trkpt>
      <trkpt lat="42.335968" lon="-8.607636">
        <ele>44.899</ele>
        <time>2015-03-26T12:25:40Z</time>
      </trkpt>
      <trkpt lat="42.336092" lon="-8.607428">
        <ele>49.207</ele>
        <time>2015-03-26T12:25:53Z</time>
      </trkpt>
      <trkpt lat="42.336150" lon="-8.607362">
        <ele>50.127</ele>
        <time>2015-03-26T12:26:09Z</time>
      </trkpt>
      <trkpt lat="42.336188" lon="-8.607310">
        <ele>50.607</ele>
        <time>2015-03-26T12:26:34Z</time>
      </trkpt>
      <trkpt lat="42.336274" lon="-8.607228">
        <ele>50.638</ele>
        <time>2015-03-26T12:26:39Z</time>
      </trkpt>
      <trkpt lat="42.336373" lon="-8.607016">
        <ele>51.621</ele>
        <time>2015-03-26T12:26:50Z</time>
      </trkpt>
      <trkpt lat="42.336580" lon="-8.606723">
        <ele>54.013</ele>
        <time>2015-03-26T12:27:08Z</time>
      </trkpt>
      <trkpt lat="42.336832" lon="-8.606633">
        <ele>54.523</ele>
        <time>2015-03-26T12:27:22Z</time>
      </trkpt>
      <trkpt lat="42.337208" lon="-8.606607">
        <ele>54.551</ele>
        <time>2015-03-26T12:27:37Z</time>
      </trkpt>
      <trkpt lat="42.337611" lon="-8.606593">
        <ele>54.536</ele>
        <time>2015-03-26T12:27:50Z</time>
      </trkpt>
      <trkpt lat="42.337785" lon="-8.606509">
        <ele>53.583</ele>
        <time>2015-03-26T12:27:54Z</time>
      </trkpt>
      <trkpt lat="42.338015" lon="-8.606492">
        <ele>52.154</ele>
        <time>2015-03-26T12:27:59Z</time>
      </trkpt>
      <trkpt lat="42.338186" lon="-8.606477">
        <ele>50.656</ele>
        <time>2015-03-26T12:28:02Z</time>
      </trkpt>
      <trkpt lat="42.338365" lon="-8.606492">
        <ele>47.711</ele>
        <time>2015-03-26T12:28:05Z</time>
      </trkpt>
      <trkpt lat="42.338753" lon="-8.606441">
        <ele>45.307</ele>
        <time>2015-03-26T12:28:16Z</time>
      </trkpt>
      <trkpt lat="42.339150" lon="-8.606546">
        <ele>45.324</ele>
        <time>2015-03-26T12:28:28Z</time>
      </trkpt>
      <trkpt lat="42.339559" lon="-8.606668">
        <ele>45.877</ele>
        <time>2015-03-26T12:28:39Z</time>
      </trkpt>
      <trkpt lat="42.339777" lon="-8.606680">
        <ele>44.829</ele>
        <time>2015-03-26T12:28:44Z</time>
      </trkpt>
      <trkpt lat="42.339936" lon="-8.606751">
        <ele>43.929</ele>
        <time>2015-03-26T12:28:48Z</time>
      </trkpt>
      <trkpt lat="42.340011" lon="-8.606822">
        <ele>43.417</ele>
        <time>2015-03-26T12:28:50Z</time>
      </trkpt>
      <trkpt lat="42.340257" lon="-8.606978">
        <ele>42.072</ele>
        <time>2015-03-26T12:28:55Z</time>
      </trkpt>
      <trkpt lat="42.340432" lon="-8.607081">
        <ele>40.099</ele>
        <time>2015-03-26T12:28:58Z</time>
      </trkpt>
      <trkpt lat="42.340872" lon="-8.607251">
        <ele>36.224</ele>
        <time>2015-03-26T12:29:07Z</time>
      </trkpt>
      <trkpt lat="42.340892" lon="-8.607381">
        <ele>35.704</ele>
        <time>2015-03-26T12:29:09Z</time>
      </trkpt>
      <trkpt lat="42.340977" lon="-8.607959">
        <ele>34.314</ele>
        <time>2015-03-26T12:29:17Z</time>
      </trkpt>
      <trkpt lat="42.341081" lon="-8.608176">
        <ele>33.807</ele>
        <time>2015-03-26T12:29:21Z</time>
      </trkpt>
      <trkpt lat="42.341153" lon="-8.608321">
        <ele>33.861</ele>
        <time>2015-03-26T12:29:24Z</time>
      </trkpt>
      <trkpt lat="42.341394" lon="-8.608662">
        <ele>32.864</ele>
        <time>2015-03-26T12:29:31Z</time>
      </trkpt>
      <trkpt lat="42.341635" lon="-8.608749">
        <ele>31.436</ele>
        <time>2015-03-26T12:29:36Z</time>
      </trkpt>
      <trkpt lat="42.342086" lon="-8.608824">
        <ele>28.096</ele>
        <time>2015-03-26T12:29:48Z</time>
      </trkpt>
      <trkpt lat="42.342429" lon="-8.608921">
        <ele>28.594</ele>
        <time>2015-03-26T12:30:10Z</time>
      </trkpt>
      <trkpt lat="42.342738" lon="-8.609002">
        <ele>28.569</ele>
        <time>2015-03-26T12:30:19Z</time>
      </trkpt>
      <trkpt lat="42.343076" lon="-8.608950">
        <ele>27.526</ele>
        <time>2015-03-26T12:30:27Z</time>
      </trkpt>
      <trkpt lat="42.343169" lon="-8.608938">
        <ele>27.155</ele>
        <time>2015-03-26T12:30:29Z</time>
      </trkpt>
      <trkpt lat="42.343473" lon="-8.608786">
        <ele>23.707</ele>
        <time>2015-03-26T12:30:38Z</time>
      </trkpt>
      <trkpt lat="42.343618" lon="-8.608591">
        <ele>21.317</ele>
        <time>2015-03-26T12:30:41Z</time>
      </trkpt>
      <trkpt lat="42.344112" lon="-8.608096">
        <ele>18.407</ele>
        <time>2015-03-26T12:30:52Z</time>
      </trkpt>
      <trkpt lat="42.344184" lon="-8.607965">
        <ele>19.824</ele>
        <time>2015-03-26T12:30:57Z</time>
      </trkpt>
      <trkpt lat="42.344383" lon="-8.607519">
        <ele>22.767</ele>
        <time>2015-03-26T12:31:13Z</time>
      </trkpt>
      <trkpt lat="42.344436" lon="-8.607445">
        <ele>24.299</ele>
        <time>2015-03-26T12:31:19Z</time>
      </trkpt>
      <trkpt lat="42.344537" lon="-8.607456">
        <ele>24.299</ele>
        <time>2015-03-26T12:31:23Z</time>
      </trkpt>
      <trkpt lat="42.344664" lon="-8.607504">
        <ele>22.747</ele>
        <time>2015-03-26T12:31:26Z</time>
      </trkpt>
      <trkpt lat="42.344854" lon="-8.607495">
        <ele>20.322</ele>
        <time>2015-03-26T12:31:30Z</time>
      </trkpt>
      <trkpt lat="42.344940" lon="-8.607437">
        <ele>19.479</ele>
        <time>2015-03-26T12:31:32Z</time>
      </trkpt>
      <trkpt lat="42.345266" lon="-8.607158">
        <ele>17.934</ele>
        <time>2015-03-26T12:31:44Z</time>
      </trkpt>
      <trkpt lat="42.345519" lon="-8.606914">
        <ele>17.455</ele>
        <time>2015-03-26T12:32:42Z</time>
      </trkpt>
      <trkpt lat="42.346059" lon="-8.606823">
        <ele>17.010</ele>
        <time>2015-03-26T12:32:58Z</time>
      </trkpt>
      <trkpt lat="42.346609" lon="-8.606749">
        <ele>15.507</ele>
        <time>2015-03-26T12:33:13Z</time>
      </trkpt>
      <trkpt lat="42.346731" lon="-8.606905">
        <ele>15.522</ele>
        <time>2015-03-26T12:33:19Z</time>
      </trkpt>
      <trkpt lat="42.346824" lon="-8.606962">
        <ele>15.555</ele>
        <time>2015-03-26T12:34:02Z</time>
      </trkpt>
      <trkpt lat="42.346965" lon="-8.607219">
        <ele>17.997</ele>
        <time>2015-03-26T12:34:56Z</time>
      </trkpt>
      <trkpt lat="42.346930" lon="-8.607424">
        <ele>17.457</ele>
        <time>2015-03-26T12:35:07Z</time>
      </trkpt>
      <trkpt lat="42.346960" lon="-8.607541">
        <ele>20.825</ele>
        <time>2015-03-26T12:35:25Z</time>
      </trkpt>
      <trkpt lat="42.346999" lon="-8.607482">
        <ele>21.810</ele>
        <time>2015-03-26T12:36:36Z</time>
      </trkpt>
      <trkpt lat="42.347092" lon="-8.607375">
        <ele>23.757</ele>
        <time>2015-03-26T12:36:46Z</time>
      </trkpt>
      <trkpt lat="42.347222" lon="-8.607377">
        <ele>25.629</ele>
        <time>2015-03-26T12:36:56Z</time>
      </trkpt>
      <trkpt lat="42.347306" lon="-8.607410">
        <ele>27.100</ele>
        <time>2015-03-26T12:37:03Z</time>
      </trkpt>
      <trkpt lat="42.347278" lon="-8.607570">
        <ele>30.420</ele>
        <time>2015-03-26T12:37:22Z</time>
      </trkpt>
      <trkpt lat="42.347327" lon="-8.607750">
        <ele>32.807</ele>
        <time>2015-03-26T12:37:39Z</time>
      </trkpt>
      <trkpt lat="42.347450" lon="-8.607732">
        <ele>34.741</ele>
        <time>2015-03-26T12:37:54Z</time>
      </trkpt>
      <trkpt lat="42.347677" lon="-8.607834">
        <ele>35.294</ele>
        <time>2015-03-26T12:38:11Z</time>
      </trkpt>
      <trkpt lat="42.347939" lon="-8.607832">
        <ele>31.426</ele>
        <time>2015-03-26T12:38:17Z</time>
      </trkpt>
      <trkpt lat="42.347985" lon="-8.607830">
        <ele>30.486</ele>
        <time>2015-03-26T12:38:18Z</time>
      </trkpt>
      <trkpt lat="42.348211" lon="-8.607824">
        <ele>27.514</ele>
        <time>2015-03-26T12:38:24Z</time>
      </trkpt>
      <trkpt lat="42.348311" lon="-8.608061">
        <ele>24.799</ele>
        <time>2015-03-26T12:38:30Z</time>
      </trkpt>
      <trkpt lat="42.348477" lon="-8.608458">
        <ele>20.886</ele>
        <time>2015-03-26T12:38:36Z</time>
      </trkpt>
      <trkpt lat="42.348634" lon="-8.608517">
        <ele>17.047</ele>
        <time>2015-03-26T12:38:41Z</time>
      </trkpt>
      <trkpt lat="42.349183" lon="-8.608433">
        <ele>13.629</ele>
        <time>2015-03-26T12:38:49Z</time>
      </trkpt>
      <trkpt lat="42.349650" lon="-8.608242">
        <ele>13.621</ele>
        <time>2015-03-26T12:38:57Z</time>
      </trkpt>
      <trkpt lat="42.349816" lon="-8.608291">
        <ele>13.607</ele>
        <time>2015-03-26T12:39:04Z</time>
      </trkpt>
      <trkpt lat="42.349835" lon="-8.608747">
        <ele>17.423</ele>
        <time>2015-03-26T12:39:25Z</time>
      </trkpt>
      <trkpt lat="42.349707" lon="-8.609023">
        <ele>19.476</ele>
        <time>2015-03-26T12:39:40Z</time>
      </trkpt>
      <trkpt lat="42.349549" lon="-8.609144">
        <ele>22.368</ele>
        <time>2015-03-26T12:39:54Z</time>
      </trkpt>
      <trkpt lat="42.349480" lon="-8.609158">
        <ele>22.718</ele>
        <time>2015-03-26T12:39:59Z</time>
      </trkpt>
      <trkpt lat="42.349505" lon="-8.609309">
        <ele>25.676</ele>
        <time>2015-03-26T12:40:10Z</time>
      </trkpt>
      <trkpt lat="42.349548" lon="-8.609448">
        <ele>29.031</ele>
        <time>2015-03-26T12:40:20Z</time>
      </trkpt>
      <trkpt lat="42.349548" lon="-8.609514">
        <ele>29.948</ele>
        <time>2015-03-26T12:40:24Z</time>
      </trkpt>
      <trkpt lat="42.349734" lon="-8.609674">
        <ele>31.445</ele>
        <time>2015-03-26T12:40:40Z</time>
      </trkpt>
      <trkpt lat="42.349864" lon="-8.609808">
        <ele>34.347</ele>
        <time>2015-03-26T12:40:53Z</time>
      </trkpt>
      <trkpt lat="42.349991" lon="-8.609911">
        <ele>36.211</ele>
        <time>2015-03-26T12:41:05Z</time>
      </trkpt>
      <trkpt lat="42.350055" lon="-8.609979">
        <ele>37.607</ele>
        <time>2015-03-26T12:41:13Z</time>
      </trkpt>
      <trkpt lat="42.350108" lon="-8.610278">
        <ele>40.083</ele>
        <time>2015-03-26T12:41:28Z</time>
      </trkpt>
      <trkpt lat="42.350110" lon="-8.610542">
        <ele>38.616</ele>
        <time>2015-03-26T12:41:34Z</time>
      </trkpt>
      <trkpt lat="42.350115" lon="-8.610703">
        <ele>38.178</ele>
        <time>2015-03-26T12:41:37Z</time>
      </trkpt>
      <trkpt lat="42.350134" lon="-8.610810">
        <ele>37.218</ele>
        <time>2015-03-26T12:41:39Z</time>
      </trkpt>
      <trkpt lat="42.350266" lon="-8.611068">
        <ele>35.756</ele>
        <time>2015-03-26T12:41:44Z</time>
      </trkpt>
      <trkpt lat="42.350391" lon="-8.611180">
        <ele>35.291</ele>
        <time>2015-03-26T12:41:47Z</time>
      </trkpt>
      <trkpt lat="42.350582" lon="-8.611290">
        <ele>34.758</ele>
        <time>2015-03-26T12:41:51Z</time>
      </trkpt>
      <trkpt lat="42.351123" lon="-8.611525">
        <ele>31.936</ele>
        <time>2015-03-26T12:42:02Z</time>
      </trkpt>
      <trkpt lat="42.351264" lon="-8.611604">
        <ele>29.517</ele>
        <time>2015-03-26T12:42:06Z</time>
      </trkpt>
      <trkpt lat="42.351310" lon="-8.611630">
        <ele>28.518</ele>
        <time>2015-03-26T12:42:08Z</time>
      </trkpt>
      <trkpt lat="42.351368" lon="-8.611742">
        <ele>27.107</ele>
        <time>2015-03-26T12:42:13Z</time>
      </trkpt>
      <trkpt lat="42.351399" lon="-8.611912">
        <ele>22.792</ele>
        <time>2015-03-26T12:42:19Z</time>
      </trkpt>
      <trkpt lat="42.351433" lon="-8.612035">
        <ele>19.895</ele>
        <time>2015-03-26T12:42:23Z</time>
      </trkpt>
      <trkpt lat="42.351532" lon="-8.612103">
        <ele>17.017</ele>
        <time>2015-03-26T12:42:29Z</time>
      </trkpt>
      <trkpt lat="42.351907" lon="-8.611986">
        <ele>15.537</ele>
        <time>2015-03-26T12:42:43Z</time>
      </trkpt>
      <trkpt lat="42.352223" lon="-8.611786">
        <ele>15.025</ele>
        <time>2015-03-26T12:42:55Z</time>
      </trkpt>
      <trkpt lat="42.352274" lon="-8.611716">
        <ele>15.080</ele>
        <time>2015-03-26T12:42:58Z</time>
      </trkpt>
      <trkpt lat="42.352341" lon="-8.611734">
        <ele>15.057</ele>
        <time>2015-03-26T12:43:02Z</time>
      </trkpt>
      <trkpt lat="42.352401" lon="-8.611811">
        <ele>15.069</ele>
        <time>2015-03-26T12:43:06Z</time>
      </trkpt>
      <trkpt lat="42.352614" lon="-8.611937">
        <ele>13.604</ele>
        <time>2015-03-26T12:43:16Z</time>
      </trkpt>
      <trkpt lat="42.352763" lon="-8.612133">
        <ele>15.024</ele>
        <time>2015-03-26T12:43:26Z</time>
      </trkpt>
      <trkpt lat="42.352910" lon="-8.612260">
        <ele>15.507</ele>
        <time>2015-03-26T12:43:39Z</time>
      </trkpt>
      <trkpt lat="42.352996" lon="-8.612303">
        <ele>17.035</ele>
        <time>2015-03-26T12:43:51Z</time>
      </trkpt>
      <trkpt lat="42.353039" lon="-8.612478">
        <ele>18.958</ele>
        <time>2015-03-26T12:44:07Z</time>
      </trkpt>
      <trkpt lat="42.353022" lon="-8.612626">
        <ele>20.310</ele>
        <time>2015-03-26T12:44:22Z</time>
      </trkpt>
      <trkpt lat="42.353011" lon="-8.612696">
        <ele>20.850</ele>
        <time>2015-03-26T12:44:28Z</time>
      </trkpt>
      <trkpt lat="42.353039" lon="-8.612822">
        <ele>20.828</ele>
        <time>2015-03-26T12:44:46Z</time>
      </trkpt>
      <trkpt lat="42.353096" lon="-8.612989">
        <ele>20.893</ele>
        <time>2015-03-26T12:45:19Z</time>
      </trkpt>
      <trkpt lat="42.353156" lon="-8.613163">
        <ele>20.870</ele>
        <time>2015-03-26T12:45:25Z</time>
      </trkpt>
      <trkpt lat="42.353190" lon="-8.613207">
        <ele>19.414</ele>
        <time>2015-03-26T12:45:27Z</time>
      </trkpt>
      <trkpt lat="42.353353" lon="-8.613373">
        <ele>19.454</ele>
        <time>2015-03-26T12:45:37Z</time>
      </trkpt>
      <trkpt lat="42.353398" lon="-8.613421">
        <ele>20.809</ele>
        <time>2015-03-26T12:45:40Z</time>
      </trkpt>
      <trkpt lat="42.353557" lon="-8.613630">
        <ele>19.807</ele>
        <time>2015-03-26T12:45:50Z</time>
      </trkpt>
      <trkpt lat="42.353874" lon="-8.613918">
        <ele>18.930</ele>
        <time>2015-03-26T12:46:02Z</time>
      </trkpt>
      <trkpt lat="42.354004" lon="-8.614033">
        <ele>17.453</ele>
        <time>2015-03-26T12:46:06Z</time>
      </trkpt>
      <trkpt lat="42.354603" lon="-8.614288">
        <ele>15.515</ele>
        <time>2015-03-26T12:46:21Z</time>
      </trkpt>
      <trkpt lat="42.354704" lon="-8.614353">
        <ele>15.595</ele>
        <time>2015-03-26T12:46:26Z</time>
      </trkpt>
      <trkpt lat="42.354804" lon="-8.614509">
        <ele>15.583</ele>
        <time>2015-03-26T12:46:36Z</time>
      </trkpt>
      <trkpt lat="42.354988" lon="-8.614672">
        <ele>18.938</ele>
        <time>2015-03-26T12:46:51Z</time>
      </trkpt>
      <trkpt lat="42.355042" lon="-8.614693">
        <ele>18.925</ele>
        <time>2015-03-26T12:47:18Z</time>
      </trkpt>
      <trkpt lat="42.355152" lon="-8.614708">
        <ele>19.469</ele>
        <time>2015-03-26T12:57:00Z</time>
      </trkpt>
      <trkpt lat="42.355253" lon="-8.614752">
        <ele>20.804</ele>
        <time>2015-03-26T12:57:16Z</time>
      </trkpt>
      <trkpt lat="42.355313" lon="-8.614795">
        <ele>22.324</ele>
        <time>2015-03-26T12:57:27Z</time>
      </trkpt>
      <trkpt lat="42.355375" lon="-8.614888">
        <ele>23.707</ele>
        <time>2015-03-26T12:57:43Z</time>
      </trkpt>
      <trkpt lat="42.355458" lon="-8.614997">
        <ele>24.715</ele>
        <time>2015-03-26T12:57:57Z</time>
      </trkpt>
      <trkpt lat="42.355542" lon="-8.615092">
        <ele>26.148</ele>
        <time>2015-03-26T12:58:12Z</time>
      </trkpt>
      <trkpt lat="42.355611" lon="-8.615151">
        <ele>27.180</ele>
        <time>2015-03-26T12:58:26Z</time>
      </trkpt>
      <trkpt lat="42.355710" lon="-8.615275">
        <ele>28.040</ele>
        <time>2015-03-26T12:58:43Z</time>
      </trkpt>
      <trkpt lat="42.355825" lon="-8.615386">
        <ele>29.948</ele>
        <time>2015-03-26T12:58:59Z</time>
      </trkpt>
      <trkpt lat="42.355908" lon="-8.615482">
        <ele>31.993</ele>
        <time>2015-03-26T12:59:14Z</time>
      </trkpt>
      <trkpt lat="42.355974" lon="-8.615642">
        <ele>33.860</ele>
        <time>2015-03-26T12:59:30Z</time>
      </trkpt>
      <trkpt lat="42.356070" lon="-8.615781">
        <ele>34.753</ele>
        <time>2015-03-26T12:59:52Z</time>
      </trkpt>
      <trkpt lat="42.356189" lon="-8.615910">
        <ele>35.204</ele>
        <time>2015-03-26T13:00:05Z</time>
      </trkpt>
      <trkpt lat="42.356273" lon="-8.615978">
        <ele>35.714</ele>
        <time>2015-03-26T13:00:18Z</time>
      </trkpt>
      <trkpt lat="42.356366" lon="-8.615997">
        <ele>36.707</ele>
        <time>2015-03-26T13:00:32Z</time>
      </trkpt>
      <trkpt lat="42.356461" lon="-8.616056">
        <ele>39.114</ele>
        <time>2015-03-26T13:00:46Z</time>
      </trkpt>
      <trkpt lat="42.356577" lon="-8.616125">
        <ele>41.097</ele>
        <time>2015-03-26T13:01:01Z</time>
      </trkpt>
      <trkpt lat="42.356688" lon="-8.616222">
        <ele>42.489</ele>
        <time>2015-03-26T13:01:14Z</time>
      </trkpt>
      <trkpt lat="42.356751" lon="-8.616267">
        <ele>43.459</ele>
        <time>2015-03-26T13:01:23Z</time>
      </trkpt>
      <trkpt lat="42.356866" lon="-8.616250">
        <ele>44.827</ele>
        <time>2015-03-26T13:01:37Z</time>
      </trkpt>
      <trkpt lat="42.356956" lon="-8.616189">
        <ele>47.272</ele>
        <time>2015-03-26T13:01:52Z</time>
      </trkpt>
      <trkpt lat="42.357049" lon="-8.616204">
        <ele>49.259</ele>
        <time>2015-03-26T13:02:06Z</time>
      </trkpt>
      <trkpt lat="42.357156" lon="-8.616174">
        <ele>49.795</ele>
        <time>2015-03-26T13:02:21Z</time>
      </trkpt>
      <trkpt lat="42.357195" lon="-8.616217">
        <ele>50.149</ele>
        <time>2015-03-26T13:02:41Z</time>
      </trkpt>
      <trkpt lat="42.357251" lon="-8.616266">
        <ele>50.123</ele>
        <time>2015-03-26T13:02:47Z</time>
      </trkpt>
      <trkpt lat="42.357369" lon="-8.616309">
        <ele>50.107</ele>
        <time>2015-03-26T13:02:56Z</time>
      </trkpt>
      <trkpt lat="42.357706" lon="-8.616134">
        <ele>50.678</ele>
        <time>2015-03-26T13:03:10Z</time>
      </trkpt>
      <trkpt lat="42.357926" lon="-8.615932">
        <ele>50.641</ele>
        <time>2015-03-26T13:03:23Z</time>
      </trkpt>
      <trkpt lat="42.358092" lon="-8.615749">
        <ele>51.133</ele>
        <time>2015-03-26T13:03:33Z</time>
      </trkpt>
      <trkpt lat="42.358151" lon="-8.615677">
        <ele>51.623</ele>
        <time>2015-03-26T13:03:38Z</time>
      </trkpt>
      <trkpt lat="42.358289" lon="-8.615586">
        <ele>52.141</ele>
        <time>2015-03-26T13:03:49Z</time>
      </trkpt>
      <trkpt lat="42.358407" lon="-8.615511">
        <ele>53.086</ele>
        <time>2015-03-26T13:04:01Z</time>
      </trkpt>
      <trkpt lat="42.358496" lon="-8.615421">
        <ele>54.593</ele>
        <time>2015-03-26T13:04:15Z</time>
      </trkpt>
      <trkpt lat="42.358631" lon="-8.615338">
        <ele>56.454</ele>
        <time>2015-03-26T13:04:30Z</time>
      </trkpt>
      <trkpt lat="42.358700" lon="-8.615366">
        <ele>56.956</ele>
        <time>2015-03-26T13:04:36Z</time>
      </trkpt>
      <trkpt lat="42.358856" lon="-8.615328">
        <ele>57.811</ele>
        <time>2015-03-26T13:04:49Z</time>
      </trkpt>
      <trkpt lat="42.358969" lon="-8.615381">
        <ele>58.307</ele>
        <time>2015-03-26T13:05:04Z</time>
      </trkpt>
      <trkpt lat="42.359090" lon="-8.615440">
        <ele>59.394</ele>
        <time>2015-03-26T13:05:15Z</time>
      </trkpt>
      <trkpt lat="42.359223" lon="-8.615575">
        <ele>60.227</ele>
        <time>2015-03-26T13:05:25Z</time>
      </trkpt>
      <trkpt lat="42.359308" lon="-8.615616">
        <ele>60.249</ele>
        <time>2015-03-26T13:05:30Z</time>
      </trkpt>
      <trkpt lat="42.359504" lon="-8.615734">
        <ele>61.269</ele>
        <time>2015-03-26T13:05:41Z</time>
      </trkpt>
      <trkpt lat="42.359841" lon="-8.615670">
        <ele>61.247</ele>
        <time>2015-03-26T13:05:55Z</time>
      </trkpt>
      <trkpt lat="42.360083" lon="-8.615658">
        <ele>62.162</ele>
        <time>2015-03-26T13:06:09Z</time>
      </trkpt>
      <trkpt lat="42.360219" lon="-8.615670">
        <ele>62.619</ele>
        <time>2015-03-26T13:06:17Z</time>
      </trkpt>
      <trkpt lat="42.360371" lon="-8.615903">
        <ele>66.066</ele>
        <time>2015-03-26T13:06:34Z</time>
      </trkpt>
      <trkpt lat="42.360486" lon="-8.616046">
        <ele>68.429</ele>
        <time>2015-03-26T13:06:47Z</time>
      </trkpt>
      <trkpt lat="42.360542" lon="-8.616061">
        <ele>68.921</ele>
        <time>2015-03-26T13:06:51Z</time>
      </trkpt>
      <trkpt lat="42.360751" lon="-8.616178">
        <ele>69.407</ele>
        <time>2015-03-26T13:07:05Z</time>
      </trkpt>
      <trkpt lat="42.361043" lon="-8.616176">
        <ele>69.895</ele>
        <time>2015-03-26T13:07:21Z</time>
      </trkpt>
      <trkpt lat="42.361299" lon="-8.616156">
        <ele>71.398</ele>
        <time>2015-03-26T13:07:37Z</time>
      </trkpt>
      <trkpt lat="42.361513" lon="-8.616246">
        <ele>72.710</ele>
        <time>2015-03-26T13:07:51Z</time>
      </trkpt>
      <trkpt lat="42.361740" lon="-8.616309">
        <ele>75.190</ele>
        <time>2015-03-26T13:08:07Z</time>
      </trkpt>
      <trkpt lat="42.361993" lon="-8.616283">
        <ele>76.148</ele>
        <time>2015-03-26T13:08:22Z</time>
      </trkpt>
      <trkpt lat="42.362243" lon="-8.616259">
        <ele>77.543</ele>
        <time>2015-03-26T13:08:38Z</time>
      </trkpt>
      <trkpt lat="42.362488" lon="-8.616235">
        <ele>79.030</ele>
        <time>2015-03-26T13:08:53Z</time>
      </trkpt>
      <trkpt lat="42.362687" lon="-8.616335">
        <ele>80.429</ele>
        <time>2015-03-26T13:09:07Z</time>
      </trkpt>
      <trkpt lat="42.362867" lon="-8.616401">
        <ele>82.300</ele>
        <time>2015-03-26T13:09:20Z</time>
      </trkpt>
      <trkpt lat="42.363098" lon="-8.616485">
        <ele>84.720</ele>
        <time>2015-03-26T13:09:37Z</time>
      </trkpt>
      <trkpt lat="42.363192" lon="-8.616516">
        <ele>87.107</ele>
        <time>2015-03-26T13:09:46Z</time>
      </trkpt>
      <trkpt lat="42.363293" lon="-8.616549">
        <ele>88.691</ele>
        <time>2015-03-26T13:09:55Z</time>
      </trkpt>
      <trkpt lat="42.363466" lon="-8.616708">
        <ele>90.574</ele>
        <time>2015-03-26T13:10:12Z</time>
      </trkpt>
      <trkpt lat="42.363584" lon="-8.616736">
        <ele>92.456</ele>
        <time>2015-03-26T13:10:25Z</time>
      </trkpt>
      <trkpt lat="42.363817" lon="-8.616746">
        <ele>94.856</ele>
        <time>2015-03-26T13:10:41Z</time>
      </trkpt>
      <trkpt lat="42.363957" lon="-8.616767">
        <ele>97.244</ele>
        <time>2015-03-26T13:10:53Z</time>
      </trkpt>
      <trkpt lat="42.364007" lon="-8.616741">
        <ele>98.239</ele>
        <time>2015-03-26T13:10:57Z</time>
      </trkpt>
      <trkpt lat="42.364137" lon="-8.616601">
        <ele>99.666</ele>
        <time>2015-03-26T13:11:06Z</time>
      </trkpt>
      <trkpt lat="42.364307" lon="-8.616522">
        <ele>100.651</ele>
        <time>2015-03-26T13:11:20Z</time>
      </trkpt>
      <trkpt lat="42.364431" lon="-8.616541">
        <ele>101.601</ele>
        <time>2015-03-26T13:11:31Z</time>
      </trkpt>
      <trkpt lat="42.364664" lon="-8.616562">
        <ele>103.011</ele>
        <time>2015-03-26T13:11:46Z</time>
      </trkpt>
      <trkpt lat="42.364836" lon="-8.616555">
        <ele>104.007</ele>
        <time>2015-03-26T13:11:57Z</time>
      </trkpt>
      <trkpt lat="42.365040" lon="-8.616694">
        <ele>106.824</ele>
        <time>2015-03-26T13:12:14Z</time>
      </trkpt>
      <trkpt lat="42.365095" lon="-8.616721">
        <ele>107.397</ele>
        <time>2015-03-26T13:12:19Z</time>
      </trkpt>
      <trkpt lat="42.365224" lon="-8.616803">
        <ele>110.239</ele>
        <time>2015-03-26T13:12:33Z</time>
      </trkpt>
      <trkpt lat="42.365265" lon="-8.616854">
        <ele>111.719</ele>
        <time>2015-03-26T13:12:38Z</time>
      </trkpt>
      <trkpt lat="42.365293" lon="-8.616946">
        <ele>112.617</ele>
        <time>2015-03-26T13:12:51Z</time>
      </trkpt>
      <trkpt lat="42.365226" lon="-8.617005">
        <ele>114.562</ele>
        <time>2015-03-26T13:13:06Z</time>
      </trkpt>
      <trkpt lat="42.365144" lon="-8.617143">
        <ele>117.429</ele>
        <time>2015-03-26T13:13:25Z</time>
      </trkpt>
      <trkpt lat="42.365114" lon="-8.617317">
        <ele>119.879</ele>
        <time>2015-03-26T13:13:40Z</time>
      </trkpt>
      <trkpt lat="42.365046" lon="-8.617407">
        <ele>120.805</ele>
        <time>2015-03-26T13:13:57Z</time>
      </trkpt>
      <trkpt lat="42.364859" lon="-8.617614">
        <ele>121.725</ele>
        <time>2015-03-26T13:14:15Z</time>
      </trkpt>
      <trkpt lat="42.364701" lon="-8.617748">
        <ele>122.707</ele>
        <time>2015-03-26T13:14:28Z</time>
      </trkpt>
      <trkpt lat="42.364500" lon="-8.617822">
        <ele>123.766</ele>
        <time>2015-03-26T13:14:39Z</time>
      </trkpt>
      <trkpt lat="42.364263" lon="-8.617855">
        <ele>124.239</ele>
        <time>2015-03-26T13:14:54Z</time>
      </trkpt>
      <trkpt lat="42.364235" lon="-8.617947">
        <ele>125.191</ele>
        <time>2015-03-26T13:15:01Z</time>
      </trkpt>
      <trkpt lat="42.364409" lon="-8.618072">
        <ele>128.531</ele>
        <time>2015-03-26T13:15:17Z</time>
      </trkpt>
      <trkpt lat="42.364608" lon="-8.618137">
        <ele>131.429</ele>
        <time>2015-03-26T13:15:33Z</time>
      </trkpt>
      <trkpt lat="42.364828" lon="-8.618162">
        <ele>132.884</ele>
        <time>2015-03-26T13:15:47Z</time>
      </trkpt>
      <trkpt lat="42.365069" lon="-8.618238">
        <ele>134.791</ele>
        <time>2015-03-26T13:16:04Z</time>
      </trkpt>
      <trkpt lat="42.365171" lon="-8.618261">
        <ele>135.228</ele>
        <time>2015-03-26T13:16:11Z</time>
      </trkpt>
      <trkpt lat="42.365241" lon="-8.618345">
        <ele>136.689</ele>
        <time>2015-03-26T13:16:16Z</time>
      </trkpt>
      <trkpt lat="42.365442" lon="-8.618525">
        <ele>139.117</ele>
        <time>2015-03-26T13:16:31Z</time>
      </trkpt>
      <trkpt lat="42.365478" lon="-8.618567">
        <ele>139.507</ele>
        <time>2015-03-26T13:16:34Z</time>
      </trkpt>
      <trkpt lat="42.365672" lon="-8.618791">
        <ele>141.081</ele>
        <time>2015-03-26T13:16:49Z</time>
      </trkpt>
      <trkpt lat="42.365886" lon="-8.619092">
        <ele>142.994</ele>
        <time>2015-03-26T13:17:05Z</time>
      </trkpt>
      <trkpt lat="42.366245" lon="-8.619360">
        <ele>145.346</ele>
        <time>2015-03-26T13:17:28Z</time>
      </trkpt>
      <trkpt lat="42.366486" lon="-8.619505">
        <ele>147.276</ele>
        <time>2015-03-26T13:17:44Z</time>
      </trkpt>
      <trkpt lat="42.366603" lon="-8.619577">
        <ele>148.754</ele>
        <time>2015-03-26T13:17:52Z</time>
      </trkpt>
      <trkpt lat="42.366682" lon="-8.619767">
        <ele>150.629</ele>
        <time>2015-03-26T13:18:02Z</time>
      </trkpt>
      <trkpt lat="42.366636" lon="-8.619911">
        <ele>151.596</ele>
        <time>2015-03-26T13:18:11Z</time>
      </trkpt>
      <trkpt lat="42.366604" lon="-8.620051">
        <ele>152.012</ele>
        <time>2015-03-26T13:18:17Z</time>
      </trkpt>
      <trkpt lat="42.366756" lon="-8.620222">
        <ele>152.032</ele>
        <time>2015-03-26T13:18:28Z</time>
      </trkpt>
      <trkpt lat="42.366999" lon="-8.620433">
        <ele>153.505</ele>
        <time>2015-03-26T13:18:42Z</time>
      </trkpt>
      <trkpt lat="42.367257" lon="-8.620537">
        <ele>153.507</ele>
        <time>2015-03-26T13:18:54Z</time>
      </trkpt>
      <trkpt lat="42.367405" lon="-8.620543">
        <ele>149.670</ele>
        <time>2015-03-26T13:18:58Z</time>
      </trkpt>
      <trkpt lat="42.367536" lon="-8.620607">
        <ele>148.253</ele>
        <time>2015-03-26T13:19:01Z</time>
      </trkpt>
      <trkpt lat="42.367651" lon="-8.620767">
        <ele>144.885</ele>
        <time>2015-03-26T13:19:04Z</time>
      </trkpt>
      <trkpt lat="42.367749" lon="-8.620893">
        <ele>142.435</ele>
        <time>2015-03-26T13:19:06Z</time>
      </trkpt>
      <trkpt lat="42.367898" lon="-8.621237">
        <ele>138.623</ele>
        <time>2015-03-26T13:19:11Z</time>
      </trkpt>
      <trkpt lat="42.368004" lon="-8.621646">
        <ele>134.278</ele>
        <time>2015-03-26T13:19:18Z</time>
      </trkpt>
      <trkpt lat="42.368090" lon="-8.621894">
        <ele>132.375</ele>
        <time>2015-03-26T13:19:21Z</time>
      </trkpt>
      <trkpt lat="42.368160" lon="-8.622037">
        <ele>130.412</ele>
        <time>2015-03-26T13:19:23Z</time>
      </trkpt>
      <trkpt lat="42.368242" lon="-8.622334">
        <ele>126.132</ele>
        <time>2015-03-26T13:19:27Z</time>
      </trkpt>
      <trkpt lat="42.368309" lon="-8.622572">
        <ele>122.205</ele>
        <time>2015-03-26T13:19:30Z</time>
      </trkpt>
      <trkpt lat="42.368335" lon="-8.622637">
        <ele>120.307</ele>
        <time>2015-03-26T13:19:31Z</time>
      </trkpt>
      <trkpt lat="42.368529" lon="-8.623035">
        <ele>116.560</ele>
        <time>2015-03-26T13:19:36Z</time>
      </trkpt>
      <trkpt lat="42.368786" lon="-8.623527">
        <ele>115.513</ele>
        <time>2015-03-26T13:19:42Z</time>
      </trkpt>
      <trkpt lat="42.368889" lon="-8.623823">
        <ele>115.565</ele>
        <time>2015-03-26T13:19:46Z</time>
      </trkpt>
      <trkpt lat="42.368983" lon="-8.624266">
        <ele>116.965</ele>
        <time>2015-03-26T13:19:57Z</time>
      </trkpt>
      <trkpt lat="42.369010" lon="-8.624369">
        <ele>117.953</ele>
        <time>2015-03-26T13:20:02Z</time>
      </trkpt>
      <trkpt lat="42.369083" lon="-8.624477">
        <ele>119.878</ele>
        <time>2015-03-26T13:20:09Z</time>
      </trkpt>
      <trkpt lat="42.369238" lon="-8.624787">
        <ele>123.225</ele>
        <time>2015-03-26T13:20:28Z</time>
      </trkpt>
      <trkpt lat="42.369422" lon="-8.625144">
        <ele>123.789</ele>
        <time>2015-03-26T13:20:41Z</time>
      </trkpt>
      <trkpt lat="42.369600" lon="-8.625343">
        <ele>122.206</ele>
        <time>2015-03-26T13:20:47Z</time>
      </trkpt>
      <trkpt lat="42.369707" lon="-8.625436">
        <ele>121.726</ele>
        <time>2015-03-26T13:20:50Z</time>
      </trkpt>
      <trkpt lat="42.369975" lon="-8.625610">
        <ele>119.807</ele>
        <time>2015-03-26T13:20:57Z</time>
      </trkpt>
      <trkpt lat="42.370469" lon="-8.625815">
        <ele>118.977</ele>
        <time>2015-03-26T13:21:13Z</time>
      </trkpt>
      <trkpt lat="42.370662" lon="-8.626054">
        <ele>118.960</ele>
        <time>2015-03-26T13:21:23Z</time>
      </trkpt>
      <trkpt lat="42.370786" lon="-8.626104">
        <ele>117.492</ele>
        <time>2015-03-26T13:21:26Z</time>
      </trkpt>
      <trkpt lat="42.371119" lon="-8.625998">
        <ele>116.992</ele>
        <time>2015-03-26T13:21:37Z</time>
      </trkpt>
      <trkpt lat="42.371251" lon="-8.625976">
        <ele>118.480</ele>
        <time>2015-03-26T13:21:42Z</time>
      </trkpt>
      <trkpt lat="42.371640" lon="-8.625709">
        <ele>119.315</ele>
        <time>2015-03-26T13:21:58Z</time>
      </trkpt>
      <trkpt lat="42.372062" lon="-8.625371">
        <ele>117.942</ele>
        <time>2015-03-26T13:22:13Z</time>
      </trkpt>
      <trkpt lat="42.372489" lon="-8.624946">
        <ele>119.849</ele>
        <time>2015-03-26T13:22:32Z</time>
      </trkpt>
      <trkpt lat="42.372881" lon="-8.624823">
        <ele>120.802</ele>
        <time>2015-03-26T13:22:46Z</time>
      </trkpt>
      <trkpt lat="42.373300" lon="-8.625079">
        <ele>120.322</ele>
        <time>2015-03-26T13:23:01Z</time>
      </trkpt>
      <trkpt lat="42.373718" lon="-8.625342">
        <ele>122.207</ele>
        <time>2015-03-26T13:23:18Z</time>
      </trkpt>
      <trkpt lat="42.373774" lon="-8.625359">
        <ele>122.723</ele>
        <time>2015-03-26T13:23:27Z</time>
      </trkpt>
      <trkpt lat="42.374011" lon="-8.625387">
        <ele>122.786</ele>
        <time>2015-03-26T13:24:08Z</time>
      </trkpt>
      <trkpt lat="42.374131" lon="-8.625379">
        <ele>121.358</ele>
        <time>2015-03-26T13:24:11Z</time>
      </trkpt>
      <trkpt lat="42.374314" lon="-8.625358">
        <ele>120.348</ele>
        <time>2015-03-26T13:24:15Z</time>
      </trkpt>
      <trkpt lat="42.374570" lon="-8.625496">
        <ele>118.946</ele>
        <time>2015-03-26T13:24:20Z</time>
      </trkpt>
      <trkpt lat="42.374678" lon="-8.625612">
        <ele>117.421</ele>
        <time>2015-03-26T13:24:22Z</time>
      </trkpt>
      <trkpt lat="42.375060" lon="-8.625850">
        <ele>113.138</ele>
        <time>2015-03-26T13:24:27Z</time>
      </trkpt>
      <trkpt lat="42.375219" lon="-8.625961">
        <ele>111.246</ele>
        <time>2015-03-26T13:24:29Z</time>
      </trkpt>
      <trkpt lat="42.375681" lon="-8.626432">
        <ele>106.888</ele>
        <time>2015-03-26T13:24:35Z</time>
      </trkpt>
      <trkpt lat="42.376020" lon="-8.626750">
        <ele>103.016</ele>
        <time>2015-03-26T13:24:39Z</time>
      </trkpt>
      <trkpt lat="42.376305" lon="-8.626953">
        <ele>101.607</ele>
        <time>2015-03-26T13:24:42Z</time>
      </trkpt>
      <trkpt lat="42.376676" lon="-8.627030">
        <ele>100.673</ele>
        <time>2015-03-26T13:24:46Z</time>
      </trkpt>
      <trkpt lat="42.376924" lon="-8.626981">
        <ele>102.586</ele>
        <time>2015-03-26T13:24:50Z</time>
      </trkpt>
      <trkpt lat="42.377035" lon="-8.626960">
        <ele>103.578</ele>
        <time>2015-03-26T13:24:53Z</time>
      </trkpt>
      <trkpt lat="42.377338" lon="-8.627084">
        <ele>106.458</ele>
        <time>2015-03-26T13:25:06Z</time>
      </trkpt>
      <trkpt lat="42.377567" lon="-8.627263">
        <ele>106.416</ele>
        <time>2015-03-26T13:25:14Z</time>
      </trkpt>
      <trkpt lat="42.377861" lon="-8.627216">
        <ele>104.961</ele>
        <time>2015-03-26T13:25:20Z</time>
      </trkpt>
      <trkpt lat="42.378326" lon="-8.627265">
        <ele>102.018</ele>
        <time>2015-03-26T13:25:28Z</time>
      </trkpt>
      <trkpt lat="42.378663" lon="-8.627461">
        <ele>98.284</ele>
        <time>2015-03-26T13:25:33Z</time>
      </trkpt>
      <trkpt lat="42.378842" lon="-8.627653">
        <ele>96.307</ele>
        <time>2015-03-26T13:25:36Z</time>
      </trkpt>
      <trkpt lat="42.378947" lon="-8.627752">
        <ele>94.417</ele>
        <time>2015-03-26T13:25:38Z</time>
      </trkpt>
      <trkpt lat="42.379108" lon="-8.628009">
        <ele>91.907</ele>
        <time>2015-03-26T13:25:42Z</time>
      </trkpt>
      <trkpt lat="42.379288" lon="-8.628541">
        <ele>88.127</ele>
        <time>2015-03-26T13:25:48Z</time>
      </trkpt>
      <trkpt lat="42.379340" lon="-8.628728">
        <ele>86.280</ele>
        <time>2015-03-26T13:25:55Z</time>
      </trkpt>
      <trkpt lat="42.379652" lon="-8.629119">
        <ele>84.392</ele>
        <time>2015-03-26T13:26:05Z</time>
      </trkpt>
      <trkpt lat="42.379871" lon="-8.629258">
        <ele>83.862</ele>
        <time>2015-03-26T13:26:09Z</time>
      </trkpt>
      <trkpt lat="42.380588" lon="-8.629529">
        <ele>80.420</ele>
        <time>2015-03-26T13:26:20Z</time>
      </trkpt>
      <trkpt lat="42.380660" lon="-8.629558">
        <ele>80.425</ele>
        <time>2015-03-26T13:26:21Z</time>
      </trkpt>
      <trkpt lat="42.381087" lon="-8.629535">
        <ele>77.572</ele>
        <time>2015-03-26T13:26:30Z</time>
      </trkpt>
      <trkpt lat="42.381442" lon="-8.629433">
        <ele>75.667</ele>
        <time>2015-03-26T13:26:40Z</time>
      </trkpt>
      <trkpt lat="42.381834" lon="-8.629509">
        <ele>73.281</ele>
        <time>2015-03-26T13:26:48Z</time>
      </trkpt>
      <trkpt lat="42.382277" lon="-8.629579">
        <ele>70.819</ele>
        <time>2015-03-26T13:26:56Z</time>
      </trkpt>
      <trkpt lat="42.382919" lon="-8.629652">
        <ele>67.407</ele>
        <time>2015-03-26T13:27:07Z</time>
      </trkpt>
      <trkpt lat="42.382976" lon="-8.629680">
        <ele>67.495</ele>
        <time>2015-03-26T13:27:08Z</time>
      </trkpt>
      <trkpt lat="42.383153" lon="-8.629796">
        <ele>66.528</ele>
        <time>2015-03-26T13:27:11Z</time>
      </trkpt>
      <trkpt lat="42.383394" lon="-8.629910">
        <ele>65.010</ele>
        <time>2015-03-26T13:27:16Z</time>
      </trkpt>
      <trkpt lat="42.383595" lon="-8.630086">
        <ele>61.730</ele>
        <time>2015-03-26T13:27:22Z</time>
      </trkpt>
      <trkpt lat="42.383774" lon="-8.630015">
        <ele>56.968</ele>
        <time>2015-03-26T13:27:26Z</time>
      </trkpt>
      <trkpt lat="42.383831" lon="-8.629986">
        <ele>55.923</ele>
        <time>2015-03-26T13:27:27Z</time>
      </trkpt>
      <trkpt lat="42.384072" lon="-8.630071">
        <ele>52.150</ele>
        <time>2015-03-26T13:27:32Z</time>
      </trkpt>
      <trkpt lat="42.384579" lon="-8.630578">
        <ele>50.153</ele>
        <time>2015-03-26T13:27:44Z</time>
      </trkpt>
      <trkpt lat="42.385121" lon="-8.630474">
        <ele>49.204</ele>
        <time>2015-03-26T13:27:59Z</time>
      </trkpt>
      <trkpt lat="42.385553" lon="-8.630454">
        <ele>48.714</ele>
        <time>2015-03-26T13:28:12Z</time>
      </trkpt>
      <trkpt lat="42.386100" lon="-8.630413">
        <ele>49.707</ele>
        <time>2015-03-26T13:28:27Z</time>
      </trkpt>
      <trkpt lat="42.386449" lon="-8.630339">
        <ele>49.734</ele>
        <time>2015-03-26T13:28:36Z</time>
      </trkpt>
      <trkpt lat="42.386562" lon="-8.630266">
        <ele>48.767</ele>
        <time>2015-03-26T13:28:39Z</time>
      </trkpt>
      <trkpt lat="42.387072" lon="-8.629886">
        <ele>47.249</ele>
        <time>2015-03-26T13:28:53Z</time>
      </trkpt>
      <trkpt lat="42.387600" lon="-8.629584">
        <ele>46.849</ele>
        <time>2015-03-26T13:29:07Z</time>
      </trkpt>
      <trkpt lat="42.388102" lon="-8.629512">
        <ele>46.387</ele>
        <time>2015-03-26T13:29:20Z</time>
      </trkpt>
      <trkpt lat="42.388534" lon="-8.629705">
        <ele>46.372</ele>
        <time>2015-03-26T13:29:33Z</time>
      </trkpt>
      <trkpt lat="42.389091" lon="-8.629910">
        <ele>46.389</ele>
        <time>2015-03-26T13:29:48Z</time>
      </trkpt>
      <trkpt lat="42.389790" lon="-8.630015">
        <ele>45.344</ele>
        <time>2015-03-26T13:30:07Z</time>
      </trkpt>
      <trkpt lat="42.390439" lon="-8.629848">
        <ele>42.905</ele>
        <time>2015-03-26T13:30:21Z</time>
      </trkpt>
      <trkpt lat="42.390801" lon="-8.629721">
        <ele>42.015</ele>
        <time>2015-03-26T13:30:30Z</time>
      </trkpt>
      <trkpt lat="42.391357" lon="-8.629684">
        <ele>41.507</ele>
        <time>2015-03-26T13:30:44Z</time>
      </trkpt>
      <trkpt lat="42.391962" lon="-8.629873">
        <ele>41.053</ele>
        <time>2015-03-26T13:31:00Z</time>
      </trkpt>
      <trkpt lat="42.392450" lon="-8.629793">
        <ele>41.076</ele>
        <time>2015-03-26T13:31:13Z</time>
      </trkpt>
      <trkpt lat="42.393018" lon="-8.629624">
        <ele>40.058</ele>
        <time>2015-03-26T13:31:28Z</time>
      </trkpt>
      <trkpt lat="42.393612" lon="-8.629493">
        <ele>39.618</ele>
        <time>2015-03-26T13:31:44Z</time>
      </trkpt>
      <trkpt lat="42.394115" lon="-8.629474">
        <ele>39.696</ele>
        <time>2015-03-26T13:31:57Z</time>
      </trkpt>
      <trkpt lat="42.394587" lon="-8.629273">
        <ele>39.671</ele>
        <time>2015-03-26T13:32:11Z</time>
      </trkpt>
      <trkpt lat="42.394930" lon="-8.629037">
        <ele>38.618</ele>
        <time>2015-03-26T13:32:25Z</time>
      </trkpt>
      <trkpt lat="42.395035" lon="-8.628920">
        <ele>38.634</ele>
        <time>2015-03-26T13:32:43Z</time>
      </trkpt>
      <trkpt lat="42.395460" lon="-8.628824">
        <ele>38.155</ele>
        <time>2015-03-26T13:32:55Z</time>
      </trkpt>
      <trkpt lat="42.396138" lon="-8.628829">
        <ele>39.610</ele>
        <time>2015-03-26T13:33:14Z</time>
      </trkpt>
      <trkpt lat="42.396536" lon="-8.629334">
        <ele>40.507</ele>
        <time>2015-03-26T13:33:30Z</time>
      </trkpt>
      <trkpt lat="42.396939" lon="-8.629782">
        <ele>42.482</ele>
        <time>2015-03-26T13:33:45Z</time>
      </trkpt>
      <trkpt lat="42.397497" lon="-8.629927">
        <ele>43.945</ele>
        <time>2015-03-26T13:34:01Z</time>
      </trkpt>
      <trkpt lat="42.398040" lon="-8.629790">
        <ele>45.827</ele>
        <time>2015-03-26T13:34:16Z</time>
      </trkpt>
      <trkpt lat="42.398622" lon="-8.629737">
        <ele>47.747</ele>
        <time>2015-03-26T13:34:33Z</time>
      </trkpt>
      <trkpt lat="42.399179" lon="-8.629919">
        <ele>48.215</ele>
        <time>2015-03-26T13:34:49Z</time>
      </trkpt>
      <trkpt lat="42.399916" lon="-8.630295">
        <ele>49.270</ele>
        <time>2015-03-26T13:35:10Z</time>
      </trkpt>
      <trkpt lat="42.400575" lon="-8.630709">
        <ele>50.187</ele>
        <time>2015-03-26T13:35:29Z</time>
      </trkpt>
      <trkpt lat="42.400784" lon="-8.630915">
        <ele>50.187</ele>
        <time>2015-03-26T13:35:35Z</time>
      </trkpt>
      <trkpt lat="42.400980" lon="-8.631145">
        <ele>50.142</ele>
        <time>2015-03-26T13:35:41Z</time>
      </trkpt>
      <trkpt lat="42.401195" lon="-8.631389">
        <ele>49.226</ele>
        <time>2015-03-26T13:35:47Z</time>
      </trkpt>
      <trkpt lat="42.401736" lon="-8.631991">
        <ele>46.307</ele>
        <time>2015-03-26T13:36:01Z</time>
      </trkpt>
      <trkpt lat="42.401953" lon="-8.632134">
        <ele>44.827</ele>
        <time>2015-03-26T13:36:05Z</time>
      </trkpt>
      <trkpt lat="42.402943" lon="-8.632093">
        <ele>43.460</ele>
        <time>2015-03-26T13:36:22Z</time>
      </trkpt>
      <trkpt lat="42.403589" lon="-8.632180">
        <ele>43.432</ele>
        <time>2015-03-26T13:36:37Z</time>
      </trkpt>
      <trkpt lat="42.404430" lon="-8.632296">
        <ele>41.042</ele>
        <time>2015-03-26T13:36:53Z</time>
      </trkpt>
      <trkpt lat="42.405406" lon="-8.632479">
        <ele>38.170</ele>
        <time>2015-03-26T13:37:09Z</time>
      </trkpt>
      <trkpt lat="42.406202" lon="-8.632673">
        <ele>37.245</ele>
        <time>2015-03-26T13:37:25Z</time>
      </trkpt>
      <trkpt lat="42.406914" lon="-8.633036">
        <ele>35.742</ele>
        <time>2015-03-26T13:37:40Z</time>
      </trkpt>
      <trkpt lat="42.407859" lon="-8.633227">
        <ele>35.772</ele>
        <time>2015-03-26T13:38:00Z</time>
      </trkpt>
      <trkpt lat="42.408579" lon="-8.633358">
        <ele>36.713</ele>
        <time>2015-03-26T13:38:18Z</time>
      </trkpt>
      <trkpt lat="42.408882" lon="-8.633327">
        <ele>38.114</ele>
        <time>2015-03-26T13:38:29Z</time>
      </trkpt>
      <trkpt lat="42.409424" lon="-8.633196">
        <ele>40.007</ele>
        <time>2015-03-26T13:38:44Z</time>
      </trkpt>
      <trkpt lat="42.410051" lon="-8.633061">
        <ele>40.066</ele>
        <time>2015-03-26T13:38:59Z</time>
      </trkpt>
      <trkpt lat="42.410575" lon="-8.633011">
        <ele>38.639</ele>
        <time>2015-03-26T13:39:10Z</time>
      </trkpt>
      <trkpt lat="42.411086" lon="-8.633066">
        <ele>35.721</ele>
        <time>2015-03-26T13:39:18Z</time>
      </trkpt>
      <trkpt lat="42.411994" lon="-8.633014">
        <ele>32.321</ele>
        <time>2015-03-26T13:39:30Z</time>
      </trkpt>
      <trkpt lat="42.413045" lon="-8.633135">
        <ele>29.979</ele>
        <time>2015-03-26T13:39:44Z</time>
      </trkpt>
      <trkpt lat="42.413973" lon="-8.632989">
        <ele>28.044</ele>
        <time>2015-03-26T13:39:58Z</time>
      </trkpt>
      <trkpt lat="42.414767" lon="-8.633169">
        <ele>27.191</ele>
        <time>2015-03-26T13:40:13Z</time>
      </trkpt>
      <trkpt lat="42.415061" lon="-8.633200">
        <ele>26.646</ele>
        <time>2015-03-26T13:40:19Z</time>
      </trkpt>
      <trkpt lat="42.415614" lon="-8.633074">
        <ele>26.688</ele>
        <time>2015-03-26T13:40:32Z</time>
      </trkpt>
      <trkpt lat="42.416319" lon="-8.633392">
        <ele>26.616</ele>
        <time>2015-03-26T13:40:51Z</time>
      </trkpt>
      <trkpt lat="42.416486" lon="-8.633482">
        <ele>26.607</ele>
        <time>2015-03-26T13:41:03Z</time>
      </trkpt>
      <trkpt lat="42.416569" lon="-8.633556">
        <ele>26.653</ele>
        <time>2015-03-26T13:41:11Z</time>
      </trkpt>
      <trkpt lat="42.416943" lon="-8.633532">
        <ele>26.626</ele>
        <time>2015-03-26T13:41:23Z</time>
      </trkpt>
      <trkpt lat="42.417284" lon="-8.633528">
        <ele>26.628</ele>
        <time>2015-03-26T13:41:35Z</time>
      </trkpt>
      <trkpt lat="42.417542" lon="-8.633537">
        <ele>26.628</ele>
        <time>2015-03-26T13:41:47Z</time>
      </trkpt>
      <trkpt lat="42.417950" lon="-8.633653">
        <ele>26.666</ele>
        <time>2015-03-26T13:41:58Z</time>
      </trkpt>
      <trkpt lat="42.418078" lon="-8.633800">
        <ele>26.671</ele>
        <time>2015-03-26T13:42:02Z</time>
      </trkpt>
      <trkpt lat="42.418301" lon="-8.634280">
        <ele>26.628</ele>
        <time>2015-03-26T13:42:12Z</time>
      </trkpt>
      <trkpt lat="42.418348" lon="-8.634512">
        <ele>26.617</ele>
        <time>2015-03-26T13:42:16Z</time>
      </trkpt>
      <trkpt lat="42.418396" lon="-8.634937">
        <ele>26.187</ele>
        <time>2015-03-26T13:42:23Z</time>
      </trkpt>
      <trkpt lat="42.418650" lon="-8.635892">
        <ele>24.715</ele>
        <time>2015-03-26T13:42:40Z</time>
      </trkpt>
      <trkpt lat="42.418973" lon="-8.636206">
        <ele>24.707</ele>
        <time>2015-03-26T13:42:51Z</time>
      </trkpt>
      <trkpt lat="42.419476" lon="-8.636419">
        <ele>24.770</ele>
        <time>2015-03-26T13:43:05Z</time>
      </trkpt>
      <trkpt lat="42.419627" lon="-8.636468">
        <ele>26.133</ele>
        <time>2015-03-26T13:43:11Z</time>
      </trkpt>
      <trkpt lat="42.419929" lon="-8.636504">
        <ele>27.555</ele>
        <time>2015-03-26T13:43:22Z</time>
      </trkpt>
      <trkpt lat="42.420177" lon="-8.636506">
        <ele>28.515</ele>
        <time>2015-03-26T13:43:31Z</time>
      </trkpt>
      <trkpt lat="42.420114" lon="-8.636418">
        <ele>29.593</ele>
        <time>2015-03-26T13:43:39Z</time>
      </trkpt>
      <trkpt lat="42.420062" lon="-8.636374">
        <ele>29.958</ele>
        <time>2015-03-26T13:43:47Z</time>
      </trkpt>
      <trkpt lat="42.419914" lon="-8.636402">
        <ele>31.455</ele>
        <time>2015-03-26T13:43:59Z</time>
      </trkpt>
      <trkpt lat="42.419876" lon="-8.636436">
        <ele>31.477</ele>
        <time>2015-03-26T13:44:13Z</time>
      </trkpt>
      <trkpt lat="42.419646" lon="-8.636382">
        <ele>31.461</ele>
        <time>2015-03-26T13:44:24Z</time>
      </trkpt>
      <trkpt lat="42.419561" lon="-8.636328">
        <ele>31.427</ele>
        <time>2015-03-26T13:44:35Z</time>
      </trkpt>
      <trkpt lat="42.419808" lon="-8.636308">
        <ele>-1.307</ele>
        <time>2015-03-27T07:13:54Z</time>
      </trkpt>
      <trkpt lat="42.419900" lon="-8.636431">
        <ele>-0.346</ele>
        <time>2015-03-27T07:14:45Z</time>
      </trkpt>
      <trkpt lat="42.420213" lon="-8.636457">
        <ele>-2.799</ele>
        <time>2015-03-27T07:15:19Z</time>
      </trkpt>
      <trkpt lat="42.420258" lon="-8.636461">
        <ele>-2.761</ele>
        <time>2015-03-27T07:15:26Z</time>
      </trkpt>
      <trkpt lat="42.420594" lon="-8.636448">
        <ele>-0.391</ele>
        <time>2015-03-27T07:15:43Z</time>
      </trkpt>
      <trkpt lat="42.420981" lon="-8.636409">
        <ele>0.659</ele>
        <time>2015-03-27T07:16:00Z</time>
      </trkpt>
      <trkpt lat="42.421487" lon="-8.636398">
        <ele>1.124</ele>
        <time>2015-03-27T07:16:18Z</time>
      </trkpt>
      <trkpt lat="42.421696" lon="-8.636395">
        <ele>1.161</ele>
        <time>2015-03-27T07:16:31Z</time>
      </trkpt>
      <trkpt lat="42.421842" lon="-8.636682">
        <ele>0.148</ele>
        <time>2015-03-27T07:16:40Z</time>
      </trkpt>
      <trkpt lat="42.422532" lon="-8.636877">
        <ele>-1.861</ele>
        <time>2015-03-27T07:16:56Z</time>
      </trkpt>
      <trkpt lat="42.422581" lon="-8.636888">
        <ele>-2.317</ele>
        <time>2015-03-27T07:16:57Z</time>
      </trkpt>
      <trkpt lat="42.422872" lon="-8.636930">
        <ele>-2.707</ele>
        <time>2015-03-27T07:17:03Z</time>
      </trkpt>
      <trkpt lat="42.423616" lon="-8.637052">
        <ele>-4.773</ele>
        <time>2015-03-27T07:17:16Z</time>
      </trkpt>
      <trkpt lat="42.424310" lon="-8.637062">
        <ele>-6.656</ele>
        <time>2015-03-27T07:17:28Z</time>
      </trkpt>
      <trkpt lat="42.424838" lon="-8.637282">
        <ele>-6.168</ele>
        <time>2015-03-27T07:17:41Z</time>
      </trkpt>
      <trkpt lat="42.425221" lon="-8.637603">
        <ele>-5.678</ele>
        <time>2015-03-27T07:17:55Z</time>
      </trkpt>
      <trkpt lat="42.425597" lon="-8.637893">
        <ele>-5.136</ele>
        <time>2015-03-27T07:18:10Z</time>
      </trkpt>
      <trkpt lat="42.425641" lon="-8.637931">
        <ele>-4.211</ele>
        <time>2015-03-27T07:18:12Z</time>
      </trkpt>
      <trkpt lat="42.425976" lon="-8.638213">
        <ele>-3.258</ele>
        <time>2015-03-27T07:18:24Z</time>
      </trkpt>
      <trkpt lat="42.426367" lon="-8.638627">
        <ele>-2.712</ele>
        <time>2015-03-27T07:18:38Z</time>
      </trkpt>
      <trkpt lat="42.426464" lon="-8.638710">
        <ele>-2.332</ele>
        <time>2015-03-27T07:18:41Z</time>
      </trkpt>
      <trkpt lat="42.426758" lon="-8.639100">
        <ele>-1.305</ele>
        <time>2015-03-27T07:18:54Z</time>
      </trkpt>
      <trkpt lat="42.427014" lon="-8.639294">
        <ele>1.607</ele>
        <time>2015-03-27T07:19:08Z</time>
      </trkpt>
      <trkpt lat="42.427134" lon="-8.639156">
        <ele>3.040</ele>
        <time>2015-03-27T07:19:19Z</time>
      </trkpt>
      <trkpt lat="42.427186" lon="-8.639304">
        <ele>3.093</ele>
        <time>2015-03-27T07:19:24Z</time>
      </trkpt>
      <trkpt lat="42.427206" lon="-8.639532">
        <ele>3.025</ele>
        <time>2015-03-27T07:19:30Z</time>
      </trkpt>
      <trkpt lat="42.427384" lon="-8.639907">
        <ele>3.065</ele>
        <time>2015-03-27T07:19:44Z</time>
      </trkpt>
      <trkpt lat="42.427686" lon="-8.640330">
        <ele>3.063</ele>
        <time>2015-03-27T07:19:57Z</time>
      </trkpt>
      <trkpt lat="42.428015" lon="-8.640780">
        <ele>3.558</ele>
        <time>2015-03-27T07:20:10Z</time>
      </trkpt>
      <trkpt lat="42.428343" lon="-8.641297">
        <ele>3.525</ele>
        <time>2015-03-27T07:20:24Z</time>
      </trkpt>
      <trkpt lat="42.428684" lon="-8.641780">
        <ele>4.028</ele>
        <time>2015-03-27T07:20:38Z</time>
      </trkpt>
      <trkpt lat="42.428799" lon="-8.641918">
        <ele>2.589</ele>
        <time>2015-03-27T07:20:43Z</time>
      </trkpt>
      <trkpt lat="42.428793" lon="-8.642128">
        <ele>1.617</ele>
        <time>2015-03-27T07:20:52Z</time>
      </trkpt>
      <trkpt lat="42.428803" lon="-8.642235">
        <ele>1.607</ele>
        <time>2015-03-27T07:20:56Z</time>
      </trkpt>
      <trkpt lat="42.429004" lon="-8.642405">
        <ele>2.121</ele>
        <time>2015-03-27T07:21:03Z</time>
      </trkpt>
      <trkpt lat="42.429301" lon="-8.642808">
        <ele>2.184</ele>
        <time>2015-03-27T07:21:17Z</time>
      </trkpt>
      <trkpt lat="42.429523" lon="-8.643081">
        <ele>2.556</ele>
        <time>2015-03-27T07:21:27Z</time>
      </trkpt>
      <trkpt lat="42.429738" lon="-8.643433">
        <ele>2.526</ele>
        <time>2015-03-27T07:21:38Z</time>
      </trkpt>
      <trkpt lat="42.429823" lon="-8.643480">
        <ele>2.564</ele>
        <time>2015-03-27T07:21:41Z</time>
      </trkpt>
      <trkpt lat="42.429905" lon="-8.643531">
        <ele>2.149</ele>
        <time>2015-03-27T07:21:45Z</time>
      </trkpt>
      <trkpt lat="42.430070" lon="-8.643640">
        <ele>2.146</ele>
        <time>2015-03-27T07:21:50Z</time>
      </trkpt>
      <trkpt lat="42.430435" lon="-8.643880">
        <ele>1.167</ele>
        <time>2015-03-27T07:22:02Z</time>
      </trkpt>
      <trkpt lat="42.430640" lon="-8.643940">
        <ele>1.181</ele>
        <time>2015-03-27T07:22:08Z</time>
      </trkpt>
      <trkpt lat="42.430726" lon="-8.643948">
        <ele>1.119</ele>
        <time>2015-03-27T07:22:19Z</time>
      </trkpt>
      <trkpt lat="42.430774" lon="-8.643967">
        <ele>1.607</ele>
        <time>2015-03-27T07:22:37Z</time>
      </trkpt>
      <trkpt lat="42.430844" lon="-8.643989">
        <ele>2.185</ele>
        <time>2015-03-27T07:23:03Z</time>
      </trkpt>
      <trkpt lat="42.430864" lon="-8.644165">
        <ele>10.288</ele>
        <time>2015-03-27T07:30:12Z</time>
      </trkpt>
      <trkpt lat="42.431016" lon="-8.644278">
        <ele>8.810</ele>
        <time>2015-03-27T07:30:20Z</time>
      </trkpt>
      <trkpt lat="42.431082" lon="-8.644339">
        <ele>8.810</ele>
        <time>2015-03-27T07:30:22Z</time>
      </trkpt>
      <trkpt lat="42.431297" lon="-8.644686">
        <ele>6.938</ele>
        <time>2015-03-27T07:30:29Z</time>
      </trkpt>
      <trkpt lat="42.431426" lon="-8.644859">
        <ele>6.973</ele>
        <time>2015-03-27T07:30:33Z</time>
      </trkpt>
      <trkpt lat="42.431547" lon="-8.645010">
        <ele>6.490</ele>
        <time>2015-03-27T07:30:37Z</time>
      </trkpt>
      <trkpt lat="42.431936" lon="-8.645007">
        <ele>5.496</ele>
        <time>2015-03-27T07:30:47Z</time>
      </trkpt>
      <trkpt lat="42.432001" lon="-8.645049">
        <ele>4.931</ele>
        <time>2015-03-27T07:30:49Z</time>
      </trkpt>
      <trkpt lat="42.432208" lon="-8.645112">
        <ele>4.024</ele>
        <time>2015-03-27T07:30:53Z</time>
      </trkpt>
      <trkpt lat="42.432407" lon="-8.645123">
        <ele>3.507</ele>
        <time>2015-03-27T07:30:57Z</time>
      </trkpt>
      <trkpt lat="42.432725" lon="-8.645184">
        <ele>1.628</ele>
        <time>2015-03-27T07:31:03Z</time>
      </trkpt>
      <trkpt lat="42.433166" lon="-8.645164">
        <ele>0.121</ele>
        <time>2015-03-27T07:31:11Z</time>
      </trkpt>
      <trkpt lat="42.433394" lon="-8.645114">
        <ele>-0.353</ele>
        <time>2015-03-27T07:31:16Z</time>
      </trkpt>
      <trkpt lat="42.433467" lon="-8.645112">
        <ele>-0.843</ele>
        <time>2015-03-27T07:31:17Z</time>
      </trkpt>
      <trkpt lat="42.433687" lon="-8.645015">
        <ele>-1.851</ele>
        <time>2015-03-27T07:31:22Z</time>
      </trkpt>
      <trkpt lat="42.434095" lon="-8.644876">
        <ele>-2.766</ele>
        <time>2015-03-27T07:31:34Z</time>
      </trkpt>
      <trkpt lat="42.434398" lon="-8.645071">
        <ele>-2.313</ele>
        <time>2015-03-27T07:31:43Z</time>
      </trkpt>
      <trkpt lat="42.434478" lon="-8.645175">
        <ele>-2.341</ele>
        <time>2015-03-27T07:31:46Z</time>
      </trkpt>
      <trkpt lat="42.434540" lon="-8.645162">
        <ele>-2.781</ele>
        <time>2015-03-27T07:31:50Z</time>
      </trkpt>
      <trkpt lat="42.434759" lon="-8.644893">
        <ele>-2.709</ele>
        <time>2015-03-27T07:32:03Z</time>
      </trkpt>
      <trkpt lat="42.434815" lon="-8.644806">
        <ele>-2.307</ele>
        <time>2015-03-27T07:33:00Z</time>
      </trkpt>
      <trkpt lat="42.434923" lon="-8.644669">
        <ele>-0.843</ele>
        <time>2015-03-27T07:33:15Z</time>
      </trkpt>
      <trkpt lat="42.434862" lon="-8.644497">
        <ele>-0.356</ele>
        <time>2015-03-27T07:33:30Z</time>
      </trkpt>
      <trkpt lat="42.434970" lon="-8.644306">
        <ele>-0.388</ele>
        <time>2015-03-27T07:33:46Z</time>
      </trkpt>
      <trkpt lat="42.435025" lon="-8.644353">
        <ele>0.118</ele>
        <time>2015-03-27T07:34:52Z</time>
      </trkpt>
      <trkpt lat="42.435090" lon="-8.644402">
        <ele>0.186</ele>
        <time>2015-03-27T07:34:56Z</time>
      </trkpt>
      <trkpt lat="42.435359" lon="-8.644255">
        <ele>0.691</ele>
        <time>2015-03-27T07:35:09Z</time>
      </trkpt>
      <trkpt lat="42.435803" lon="-8.643792">
        <ele>0.698</ele>
        <time>2015-03-27T07:35:27Z</time>
      </trkpt>
      <trkpt lat="42.436348" lon="-8.643384">
        <ele>-0.845</ele>
        <time>2015-03-27T07:35:45Z</time>
      </trkpt>
      <trkpt lat="42.436577" lon="-8.643254">
        <ele>-1.347</ele>
        <time>2015-03-27T07:35:56Z</time>
      </trkpt>
      <trkpt lat="42.436902" lon="-8.643152">
        <ele>-1.311</ele>
        <time>2015-03-27T07:36:08Z</time>
      </trkpt>
      <trkpt lat="42.437124" lon="-8.643322">
        <ele>-1.307</ele>
        <time>2015-03-27T07:36:17Z</time>
      </trkpt>
      <trkpt lat="42.437267" lon="-8.643310">
        <ele>0.113</ele>
        <time>2015-03-27T07:36:22Z</time>
      </trkpt>
      <trkpt lat="42.437432" lon="-8.643282">
        <ele>0.686</ele>
        <time>2015-03-27T07:36:33Z</time>
      </trkpt>
      <trkpt lat="42.437719" lon="-8.643322">
        <ele>1.638</ele>
        <time>2015-03-27T07:36:44Z</time>
      </trkpt>
      <trkpt lat="42.438109" lon="-8.643204">
        <ele>2.588</ele>
        <time>2015-03-27T07:36:59Z</time>
      </trkpt>
      <trkpt lat="42.438408" lon="-8.643078">
        <ele>3.546</ele>
        <time>2015-03-27T07:37:12Z</time>
      </trkpt>
      <trkpt lat="42.438795" lon="-8.642897">
        <ele>4.911</ele>
        <time>2015-03-27T07:37:29Z</time>
      </trkpt>
      <trkpt lat="42.439145" lon="-8.642783">
        <ele>5.438</ele>
        <time>2015-03-27T07:37:43Z</time>
      </trkpt>
      <trkpt lat="42.439495" lon="-8.642707">
        <ele>6.451</ele>
        <time>2015-03-27T07:37:56Z</time>
      </trkpt>
      <trkpt lat="42.439948" lon="-8.642588">
        <ele>6.901</ele>
        <time>2015-03-27T07:38:12Z</time>
      </trkpt>
      <trkpt lat="42.440369" lon="-8.642557">
        <ele>7.811</ele>
        <time>2015-03-27T07:38:26Z</time>
      </trkpt>
      <trkpt lat="42.440801" lon="-8.642734">
        <ele>9.307</ele>
        <time>2015-03-27T07:38:40Z</time>
      </trkpt>
      <trkpt lat="42.441073" lon="-8.642888">
        <ele>10.294</ele>
        <time>2015-03-27T07:38:50Z</time>
      </trkpt>
      <trkpt lat="42.441357" lon="-8.642961">
        <ele>10.257</ele>
        <time>2015-03-27T07:38:58Z</time>
      </trkpt>
      <trkpt lat="42.441961" lon="-8.642978">
        <ele>8.899</ele>
        <time>2015-03-27T07:39:12Z</time>
      </trkpt>
      <trkpt lat="42.442374" lon="-8.643107">
        <ele>8.399</ele>
        <time>2015-03-27T07:39:25Z</time>
      </trkpt>
      <trkpt lat="42.442435" lon="-8.643151">
        <ele>7.837</ele>
        <time>2015-03-27T07:39:27Z</time>
      </trkpt>
      <trkpt lat="42.442922" lon="-8.643337">
        <ele>4.572</ele>
        <time>2015-03-27T07:39:36Z</time>
      </trkpt>
      <trkpt lat="42.443738" lon="-8.643612">
        <ele>1.659</ele>
        <time>2015-03-27T07:39:48Z</time>
      </trkpt>
      <trkpt lat="42.443806" lon="-8.643627">
        <ele>1.697</ele>
        <time>2015-03-27T07:39:49Z</time>
      </trkpt>
      <trkpt lat="42.444137" lon="-8.643548">
        <ele>0.623</ele>
        <time>2015-03-27T07:39:54Z</time>
      </trkpt>
      <trkpt lat="42.444388" lon="-8.643400">
        <ele>0.625</ele>
        <time>2015-03-27T07:39:59Z</time>
      </trkpt>
      <trkpt lat="42.444885" lon="-8.643210">
        <ele>2.107</ele>
        <time>2015-03-27T07:40:13Z</time>
      </trkpt>
      <trkpt lat="42.445155" lon="-8.643017">
        <ele>4.948</ele>
        <time>2015-03-27T07:40:27Z</time>
      </trkpt>
      <trkpt lat="42.445465" lon="-8.642863">
        <ele>6.411</ele>
        <time>2015-03-27T07:40:43Z</time>
      </trkpt>
      <trkpt lat="42.445773" lon="-8.642808">
        <ele>8.843</ele>
        <time>2015-03-27T07:40:58Z</time>
      </trkpt>
      <trkpt lat="42.446254" lon="-8.642685">
        <ele>9.333</ele>
        <time>2015-03-27T07:41:17Z</time>
      </trkpt>
      <trkpt lat="42.446705" lon="-8.642787">
        <ele>10.291</ele>
        <time>2015-03-27T07:41:31Z</time>
      </trkpt>
      <trkpt lat="42.447344" lon="-8.642820">
        <ele>11.256</ele>
        <time>2015-03-27T07:41:49Z</time>
      </trkpt>
      <trkpt lat="42.447746" lon="-8.642850">
        <ele>11.753</ele>
        <time>2015-03-27T07:42:00Z</time>
      </trkpt>
      <trkpt lat="42.448062" lon="-8.642730">
        <ele>8.873</ele>
        <time>2015-03-27T07:42:06Z</time>
      </trkpt>
      <trkpt lat="42.448260" lon="-8.642563">
        <ele>6.985</ele>
        <time>2015-03-27T07:42:09Z</time>
      </trkpt>
      <trkpt lat="42.448748" lon="-8.642269">
        <ele>3.513</ele>
        <time>2015-03-27T07:42:15Z</time>
      </trkpt>
      <trkpt lat="42.449525" lon="-8.642051">
        <ele>0.607</ele>
        <time>2015-03-27T07:42:24Z</time>
      </trkpt>
      <trkpt lat="42.450189" lon="-8.641811">
        <ele>0.686</ele>
        <time>2015-03-27T07:42:35Z</time>
      </trkpt>
      <trkpt lat="42.450771" lon="-8.641662">
        <ele>0.679</ele>
        <time>2015-03-27T07:42:49Z</time>
      </trkpt>
      <trkpt lat="42.451398" lon="-8.641501">
        <ele>0.691</ele>
        <time>2015-03-27T07:43:03Z</time>
      </trkpt>
      <trkpt lat="42.451966" lon="-8.641516">
        <ele>0.631</ele>
        <time>2015-03-27T07:43:18Z</time>
      </trkpt>
      <trkpt lat="42.452662" lon="-8.641807">
        <ele>2.149</ele>
        <time>2015-03-27T07:43:36Z</time>
      </trkpt>
      <trkpt lat="42.453154" lon="-8.642120">
        <ele>2.594</ele>
        <time>2015-03-27T07:43:50Z</time>
      </trkpt>
      <trkpt lat="42.453685" lon="-8.642459">
        <ele>3.561</ele>
        <time>2015-03-27T07:44:05Z</time>
      </trkpt>
      <trkpt lat="42.453788" lon="-8.642548">
        <ele>3.532</ele>
        <time>2015-03-27T07:44:08Z</time>
      </trkpt>
      <trkpt lat="42.454449" lon="-8.642995">
        <ele>3.592</ele>
        <time>2015-03-27T07:44:26Z</time>
      </trkpt>
      <trkpt lat="42.455052" lon="-8.643384">
        <ele>3.511</ele>
        <time>2015-03-27T07:44:42Z</time>
      </trkpt>
      <trkpt lat="42.455665" lon="-8.643753">
        <ele>4.007</ele>
        <time>2015-03-27T07:44:58Z</time>
      </trkpt>
      <trkpt lat="42.456251" lon="-8.644054">
        <ele>4.052</ele>
        <time>2015-03-27T07:45:13Z</time>
      </trkpt>
      <trkpt lat="42.456706" lon="-8.644415">
        <ele>4.045</ele>
        <time>2015-03-27T07:45:29Z</time>
      </trkpt>
      <trkpt lat="42.456911" lon="-8.644304">
        <ele>4.027</ele>
        <time>2015-03-27T07:46:04Z</time>
      </trkpt>
      <trkpt lat="42.457009" lon="-8.644210">
        <ele>4.527</ele>
        <time>2015-03-27T07:46:08Z</time>
      </trkpt>
      <trkpt lat="42.457168" lon="-8.644205">
        <ele>4.945</ele>
        <time>2015-03-27T07:46:14Z</time>
      </trkpt>
      <trkpt lat="42.457468" lon="-8.644179">
        <ele>8.320</ele>
        <time>2015-03-27T07:46:30Z</time>
      </trkpt>
      <trkpt lat="42.457767" lon="-8.644180">
        <ele>11.797</ele>
        <time>2015-03-27T07:46:48Z</time>
      </trkpt>
      <trkpt lat="42.458064" lon="-8.644293">
        <ele>13.153</ele>
        <time>2015-03-27T07:47:04Z</time>
      </trkpt>
      <trkpt lat="42.458397" lon="-8.644313">
        <ele>14.104</ele>
        <time>2015-03-27T07:47:19Z</time>
      </trkpt>
      <trkpt lat="42.458734" lon="-8.644286">
        <ele>16.014</ele>
        <time>2015-03-27T07:47:35Z</time>
      </trkpt>
      <trkpt lat="42.459048" lon="-8.644380">
        <ele>19.407</ele>
        <time>2015-03-27T07:47:51Z</time>
      </trkpt>
      <trkpt lat="42.459485" lon="-8.644491">
        <ele>19.814</ele>
        <time>2015-03-27T07:48:07Z</time>
      </trkpt>
      <trkpt lat="42.459862" lon="-8.644643">
        <ele>16.537</ele>
        <time>2015-03-27T07:48:14Z</time>
      </trkpt>
      <trkpt lat="42.460575" lon="-8.644695">
        <ele>13.139</ele>
        <time>2015-03-27T07:48:24Z</time>
      </trkpt>
      <trkpt lat="42.460821" lon="-8.644555">
        <ele>12.659</ele>
        <time>2015-03-27T07:48:28Z</time>
      </trkpt>
      <trkpt lat="42.461354" lon="-8.644153">
        <ele>12.627</ele>
        <time>2015-03-27T07:48:41Z</time>
      </trkpt>
      <trkpt lat="42.461478" lon="-8.644095">
        <ele>14.122</ele>
        <time>2015-03-27T07:48:46Z</time>
      </trkpt>
      <trkpt lat="42.461704" lon="-8.643986">
        <ele>15.589</ele>
        <time>2015-03-27T07:48:56Z</time>
      </trkpt>
      <trkpt lat="42.461789" lon="-8.644020">
        <ele>16.575</ele>
        <time>2015-03-27T07:49:00Z</time>
      </trkpt>
      <trkpt lat="42.461867" lon="-8.644076">
        <ele>17.028</ele>
        <time>2015-03-27T07:49:11Z</time>
      </trkpt>
      <trkpt lat="42.461903" lon="-8.644153">
        <ele>17.920</ele>
        <time>2015-03-27T07:49:17Z</time>
      </trkpt>
      <trkpt lat="42.462179" lon="-8.644263">
        <ele>21.307</ele>
        <time>2015-03-27T07:49:33Z</time>
      </trkpt>
      <trkpt lat="42.462463" lon="-8.644355">
        <ele>23.726</ele>
        <time>2015-03-27T07:49:50Z</time>
      </trkpt>
      <trkpt lat="42.462771" lon="-8.644319">
        <ele>26.129</ele>
        <time>2015-03-27T07:50:08Z</time>
      </trkpt>
      <trkpt lat="42.463120" lon="-8.644329">
        <ele>29.041</ele>
        <time>2015-03-27T07:50:27Z</time>
      </trkpt>
      <trkpt lat="42.463347" lon="-8.644286">
        <ele>31.921</ele>
        <time>2015-03-27T07:50:40Z</time>
      </trkpt>
      <trkpt lat="42.463652" lon="-8.644337">
        <ele>33.869</ele>
        <time>2015-03-27T07:50:58Z</time>
      </trkpt>
      <trkpt lat="42.463869" lon="-8.644512">
        <ele>36.744</ele>
        <time>2015-03-27T07:51:12Z</time>
      </trkpt>
      <trkpt lat="42.464070" lon="-8.644993">
        <ele>34.331</ele>
        <time>2015-03-27T07:51:26Z</time>
      </trkpt>
      <trkpt lat="42.464135" lon="-8.645292">
        <ele>30.919</ele>
        <time>2015-03-27T07:51:29Z</time>
      </trkpt>
      <trkpt lat="42.464239" lon="-8.645610">
        <ele>27.509</ele>
        <time>2015-03-27T07:51:32Z</time>
      </trkpt>
      <trkpt lat="42.464538" lon="-8.645971">
        <ele>22.319</ele>
        <time>2015-03-27T07:51:37Z</time>
      </trkpt>
      <trkpt lat="42.464777" lon="-8.646043">
        <ele>19.407</ele>
        <time>2015-03-27T07:51:41Z</time>
      </trkpt>
      <trkpt lat="42.464931" lon="-8.646301">
        <ele>16.590</ele>
        <time>2015-03-27T07:51:46Z</time>
      </trkpt>
      <trkpt lat="42.465219" lon="-8.647142">
        <ele>17.493</ele>
        <time>2015-03-27T07:52:01Z</time>
      </trkpt>
      <trkpt lat="42.465778" lon="-8.647624">
        <ele>17.425</ele>
        <time>2015-03-27T07:52:17Z</time>
      </trkpt>
      <trkpt lat="42.466280" lon="-8.648043">
        <ele>16.535</ele>
        <time>2015-03-27T07:52:30Z</time>
      </trkpt>
      <trkpt lat="42.467073" lon="-8.648348">
        <ele>15.563</ele>
        <time>2015-03-27T07:52:48Z</time>
      </trkpt>
      <trkpt lat="42.467338" lon="-8.648340">
        <ele>15.548</ele>
        <time>2015-03-27T07:52:54Z</time>
      </trkpt>
      <trkpt lat="42.468068" lon="-8.648214">
        <ele>16.095</ele>
        <time>2015-03-27T07:53:11Z</time>
      </trkpt>
      <trkpt lat="42.468668" lon="-8.648243">
        <ele>16.043</ele>
        <time>2015-03-27T07:53:25Z</time>
      </trkpt>
      <trkpt lat="42.469257" lon="-8.648352">
        <ele>16.064</ele>
        <time>2015-03-27T07:53:40Z</time>
      </trkpt>
      <trkpt lat="42.469346" lon="-8.648356">
        <ele>17.410</ele>
        <time>2015-03-27T07:53:43Z</time>
      </trkpt>
      <trkpt lat="42.469684" lon="-8.648383">
        <ele>18.407</ele>
        <time>2015-03-27T07:53:57Z</time>
      </trkpt>
      <trkpt lat="42.469854" lon="-8.648404">
        <ele>19.873</ele>
        <time>2015-03-27T07:56:43Z</time>
      </trkpt>
      <trkpt lat="42.469958" lon="-8.648440">
        <ele>20.856</ele>
        <time>2015-03-27T07:56:54Z</time>
      </trkpt>
      <trkpt lat="42.470328" lon="-8.648441">
        <ele>22.728</ele>
        <time>2015-03-27T07:57:11Z</time>
      </trkpt>
      <trkpt lat="42.470720" lon="-8.648430">
        <ele>24.778</ele>
        <time>2015-03-27T07:57:29Z</time>
      </trkpt>
      <trkpt lat="42.471065" lon="-8.648386">
        <ele>27.196</ele>
        <time>2015-03-27T07:57:46Z</time>
      </trkpt>
      <trkpt lat="42.471277" lon="-8.648327">
        <ele>29.921</ele>
        <time>2015-03-27T07:57:59Z</time>
      </trkpt>
      <trkpt lat="42.471564" lon="-8.648595">
        <ele>31.468</ele>
        <time>2015-03-27T07:58:15Z</time>
      </trkpt>
      <trkpt lat="42.472011" lon="-8.648915">
        <ele>30.441</ele>
        <time>2015-03-27T07:58:30Z</time>
      </trkpt>
      <trkpt lat="42.472670" lon="-8.649209">
        <ele>30.481</ele>
        <time>2015-03-27T07:58:49Z</time>
      </trkpt>
      <trkpt lat="42.473268" lon="-8.649422">
        <ele>31.909</ele>
        <time>2015-03-27T07:59:05Z</time>
      </trkpt>
      <trkpt lat="42.473739" lon="-8.649597">
        <ele>32.807</ele>
        <time>2015-03-27T07:59:20Z</time>
      </trkpt>
      <trkpt lat="42.474352" lon="-8.649614">
        <ele>34.393</ele>
        <time>2015-03-27T07:59:37Z</time>
      </trkpt>
      <trkpt lat="42.474655" lon="-8.649777">
        <ele>32.836</ele>
        <time>2015-03-27T07:59:44Z</time>
      </trkpt>
      <trkpt lat="42.474789" lon="-8.649836">
        <ele>32.898</ele>
        <time>2015-03-27T07:59:47Z</time>
      </trkpt>
      <trkpt lat="42.475314" lon="-8.649986">
        <ele>32.818</ele>
        <time>2015-03-27T08:00:01Z</time>
      </trkpt>
      <trkpt lat="42.475801" lon="-8.650047">
        <ele>32.836</ele>
        <time>2015-03-27T08:00:14Z</time>
      </trkpt>
      <trkpt lat="42.476387" lon="-8.650100">
        <ele>32.861</ele>
        <time>2015-03-27T08:00:29Z</time>
      </trkpt>
      <trkpt lat="42.476879" lon="-8.650377">
        <ele>33.898</ele>
        <time>2015-03-27T08:00:43Z</time>
      </trkpt>
      <trkpt lat="42.477447" lon="-8.650558">
        <ele>34.766</ele>
        <time>2015-03-27T08:00:59Z</time>
      </trkpt>
      <trkpt lat="42.478031" lon="-8.650674">
        <ele>35.729</ele>
        <time>2015-03-27T08:01:15Z</time>
      </trkpt>
      <trkpt lat="42.478762" lon="-8.650820">
        <ele>37.221</ele>
        <time>2015-03-27T08:01:35Z</time>
      </trkpt>
      <trkpt lat="42.479391" lon="-8.651002">
        <ele>37.607</ele>
        <time>2015-03-27T08:01:51Z</time>
      </trkpt>
      <trkpt lat="42.480027" lon="-8.651151">
        <ele>37.655</ele>
        <time>2015-03-27T08:02:08Z</time>
      </trkpt>
      <trkpt lat="42.480369" lon="-8.651013">
        <ele>37.278</ele>
        <time>2015-03-27T08:02:17Z</time>
      </trkpt>
      <trkpt lat="42.480822" lon="-8.650699">
        <ele>36.270</ele>
        <time>2015-03-27T08:02:29Z</time>
      </trkpt>
      <trkpt lat="42.481166" lon="-8.650754">
        <ele>36.250</ele>
        <time>2015-03-27T08:02:42Z</time>
      </trkpt>
      <trkpt lat="42.481573" lon="-8.650845">
        <ele>36.228</ele>
        <time>2015-03-27T08:02:55Z</time>
      </trkpt>
      <trkpt lat="42.481825" lon="-8.650877">
        <ele>37.643</ele>
        <time>2015-03-27T08:03:05Z</time>
      </trkpt>
      <trkpt lat="42.482268" lon="-8.650936">
        <ele>39.180</ele>
        <time>2015-03-27T08:03:23Z</time>
      </trkpt>
      <trkpt lat="42.482742" lon="-8.650858">
        <ele>41.597</ele>
        <time>2015-03-27T08:03:42Z</time>
      </trkpt>
      <trkpt lat="42.483302" lon="-8.650848">
        <ele>43.923</ele>
        <time>2015-03-27T08:04:05Z</time>
      </trkpt>
      <trkpt lat="42.483749" lon="-8.650776">
        <ele>44.825</ele>
        <time>2015-03-27T08:04:23Z</time>
      </trkpt>
      <trkpt lat="42.484002" lon="-8.650751">
        <ele>46.307</ele>
        <time>2015-03-27T08:04:35Z</time>
      </trkpt>
      <trkpt lat="42.484486" lon="-8.650743">
        <ele>46.358</ele>
        <time>2015-03-27T08:04:52Z</time>
      </trkpt>
      <trkpt lat="42.485005" lon="-8.650695">
        <ele>46.861</ele>
        <time>2015-03-27T08:05:09Z</time>
      </trkpt>
      <trkpt lat="42.485497" lon="-8.650601">
        <ele>47.233</ele>
        <time>2015-03-27T08:05:27Z</time>
      </trkpt>
      <trkpt lat="42.485990" lon="-8.650608">
        <ele>47.793</ele>
        <time>2015-03-27T08:05:44Z</time>
      </trkpt>
      <trkpt lat="42.486374" lon="-8.650440">
        <ele>48.711</ele>
        <time>2015-03-27T08:05:59Z</time>
      </trkpt>
      <trkpt lat="42.486620" lon="-8.650266">
        <ele>52.126</ele>
        <time>2015-03-27T08:06:14Z</time>
      </trkpt>
      <trkpt lat="42.486993" lon="-8.650142">
        <ele>52.553</ele>
        <time>2015-03-27T08:06:29Z</time>
      </trkpt>
      <trkpt lat="42.487337" lon="-8.649998">
        <ele>52.543</ele>
        <time>2015-03-27T08:06:41Z</time>
      </trkpt>
      <trkpt lat="42.487687" lon="-8.649981">
        <ele>52.564</ele>
        <time>2015-03-27T08:06:55Z</time>
      </trkpt>
      <trkpt lat="42.487986" lon="-8.650022">
        <ele>53.010</ele>
        <time>2015-03-27T08:07:09Z</time>
      </trkpt>
      <trkpt lat="42.488208" lon="-8.650059">
        <ele>53.007</ele>
        <time>2015-03-27T08:07:21Z</time>
      </trkpt>
      <trkpt lat="42.488274" lon="-8.650049">
        <ele>53.023</ele>
        <time>2015-03-27T08:07:47Z</time>
      </trkpt>
      <trkpt lat="42.488574" lon="-8.649976">
        <ele>54.566</ele>
        <time>2015-03-27T08:07:59Z</time>
      </trkpt>
      <trkpt lat="42.488905" lon="-8.649881">
        <ele>54.968</ele>
        <time>2015-03-27T08:08:12Z</time>
      </trkpt>
      <trkpt lat="42.489027" lon="-8.649850">
        <ele>54.968</ele>
        <time>2015-03-27T08:08:17Z</time>
      </trkpt>
      <trkpt lat="42.489105" lon="-8.649801">
        <ele>55.426</ele>
        <time>2015-03-27T08:08:21Z</time>
      </trkpt>
      <trkpt lat="42.489371" lon="-8.649614">
        <ele>56.991</ele>
        <time>2015-03-27T08:08:34Z</time>
      </trkpt>
      <trkpt lat="42.489665" lon="-8.649442">
        <ele>58.878</ele>
        <time>2015-03-27T08:08:47Z</time>
      </trkpt>
      <trkpt lat="42.489982" lon="-8.649393">
        <ele>59.791</ele>
        <time>2015-03-27T08:09:00Z</time>
      </trkpt>
      <trkpt lat="42.490297" lon="-8.649313">
        <ele>60.781</ele>
        <time>2015-03-27T08:09:12Z</time>
      </trkpt>
      <trkpt lat="42.490605" lon="-8.649227">
        <ele>61.719</ele>
        <time>2015-03-27T08:09:24Z</time>
      </trkpt>
      <trkpt lat="42.490979" lon="-8.649125">
        <ele>63.107</ele>
        <time>2015-03-27T08:09:39Z</time>
      </trkpt>
      <trkpt lat="42.491203" lon="-8.649022">
        <ele>64.688</ele>
        <time>2015-03-27T08:09:50Z</time>
      </trkpt>
      <trkpt lat="42.491430" lon="-8.648902">
        <ele>66.531</ele>
        <time>2015-03-27T08:10:04Z</time>
      </trkpt>
      <trkpt lat="42.491650" lon="-8.648773">
        <ele>67.933</ele>
        <time>2015-03-27T08:10:16Z</time>
      </trkpt>
      <trkpt lat="42.491841" lon="-8.648709">
        <ele>69.893</ele>
        <time>2015-03-27T08:10:29Z</time>
      </trkpt>
      <trkpt lat="42.491921" lon="-8.648682">
        <ele>71.321</ele>
        <time>2015-03-27T08:10:34Z</time>
      </trkpt>
      <trkpt lat="42.492128" lon="-8.648610">
        <ele>73.766</ele>
        <time>2015-03-27T08:10:48Z</time>
      </trkpt>
      <trkpt lat="42.492354" lon="-8.648483">
        <ele>75.133</ele>
        <time>2015-03-27T08:11:01Z</time>
      </trkpt>
      <trkpt lat="42.492646" lon="-8.648443">
        <ele>76.192</ele>
        <time>2015-03-27T08:11:15Z</time>
      </trkpt>
      <trkpt lat="42.492800" lon="-8.648460">
        <ele>76.173</ele>
        <time>2015-03-27T08:11:23Z</time>
      </trkpt>
      <trkpt lat="42.492938" lon="-8.648469">
        <ele>76.620</ele>
        <time>2015-03-27T08:11:30Z</time>
      </trkpt>
      <trkpt lat="42.493304" lon="-8.648449">
        <ele>78.007</ele>
        <time>2015-03-27T08:11:46Z</time>
      </trkpt>
      <trkpt lat="42.493706" lon="-8.648378">
        <ele>78.548</ele>
        <time>2015-03-27T08:12:01Z</time>
      </trkpt>
      <trkpt lat="42.493932" lon="-8.648339">
        <ele>77.021</ele>
        <time>2015-03-27T08:12:07Z</time>
      </trkpt>
      <trkpt lat="42.494066" lon="-8.648318">
        <ele>77.013</ele>
        <time>2015-03-27T08:12:10Z</time>
      </trkpt>
      <trkpt lat="42.494389" lon="-8.648348">
        <ele>76.123</ele>
        <time>2015-03-27T08:12:17Z</time>
      </trkpt>
      <trkpt lat="42.494623" lon="-8.648433">
        <ele>74.631</ele>
        <time>2015-03-27T08:12:22Z</time>
      </trkpt>
      <trkpt lat="42.494733" lon="-8.648490">
        <ele>74.266</ele>
        <time>2015-03-27T08:12:24Z</time>
      </trkpt>
      <trkpt lat="42.494942" lon="-8.648595">
        <ele>73.773</ele>
        <time>2015-03-27T08:12:28Z</time>
      </trkpt>
      <trkpt lat="42.495554" lon="-8.648714">
        <ele>72.242</ele>
        <time>2015-03-27T08:12:40Z</time>
      </trkpt>
      <trkpt lat="42.495848" lon="-8.648879">
        <ele>71.822</ele>
        <time>2015-03-27T08:12:49Z</time>
      </trkpt>
      <trkpt lat="42.495903" lon="-8.648931">
        <ele>71.814</ele>
        <time>2015-03-27T08:12:53Z</time>
      </trkpt>
      <trkpt lat="42.496184" lon="-8.648947">
        <ele>71.807</ele>
        <time>2015-03-27T08:13:07Z</time>
      </trkpt>
      <trkpt lat="42.496290" lon="-8.648983">
        <ele>73.243</ele>
        <time>2015-03-27T08:13:12Z</time>
      </trkpt>
      <trkpt lat="42.496411" lon="-8.649004">
        <ele>74.276</ele>
        <time>2015-03-27T08:13:18Z</time>
      </trkpt>
      <trkpt lat="42.496611" lon="-8.649127">
        <ele>76.138</ele>
        <time>2015-03-27T08:13:31Z</time>
      </trkpt>
      <trkpt lat="42.496860" lon="-8.649102">
        <ele>80.498</ele>
        <time>2015-03-27T08:13:48Z</time>
      </trkpt>
      <trkpt lat="42.497081" lon="-8.649014">
        <ele>82.336</ele>
        <time>2015-03-27T08:14:02Z</time>
      </trkpt>
      <trkpt lat="42.497328" lon="-8.648916">
        <ele>84.341</ele>
        <time>2015-03-27T08:14:17Z</time>
      </trkpt>
      <trkpt lat="42.497592" lon="-8.648916">
        <ele>86.288</ele>
        <time>2015-03-27T08:14:33Z</time>
      </trkpt>
      <trkpt lat="42.497742" lon="-8.649007">
        <ele>89.596</ele>
        <time>2015-03-27T08:14:45Z</time>
      </trkpt>
      <trkpt lat="42.497957" lon="-8.649128">
        <ele>91.931</ele>
        <time>2015-03-27T08:15:02Z</time>
      </trkpt>
      <trkpt lat="42.498150" lon="-8.649147">
        <ele>94.824</ele>
        <time>2015-03-27T08:15:17Z</time>
      </trkpt>
      <trkpt lat="42.498301" lon="-8.649135">
        <ele>97.207</ele>
        <time>2015-03-27T08:15:29Z</time>
      </trkpt>
      <trkpt lat="42.498504" lon="-8.649159">
        <ele>98.738</ele>
        <time>2015-03-27T08:15:44Z</time>
      </trkpt>
      <trkpt lat="42.498773" lon="-8.649254">
        <ele>98.781</ele>
        <time>2015-03-27T08:15:58Z</time>
      </trkpt>
      <trkpt lat="42.499102" lon="-8.649438">
        <ele>99.253</ele>
        <time>2015-03-27T08:16:14Z</time>
      </trkpt>
      <trkpt lat="42.499461" lon="-8.649580">
        <ele>100.613</ele>
        <time>2015-03-27T08:16:31Z</time>
      </trkpt>
      <trkpt lat="42.499597" lon="-8.649434">
        <ele>101.651</ele>
        <time>2015-03-27T08:16:41Z</time>
      </trkpt>
      <trkpt lat="42.499870" lon="-8.649399">
        <ele>103.076</ele>
        <time>2015-03-27T08:16:57Z</time>
      </trkpt>
      <trkpt lat="42.500073" lon="-8.649401">
        <ele>105.913</ele>
        <time>2015-03-27T08:17:11Z</time>
      </trkpt>
      <trkpt lat="42.500122" lon="-8.649409">
        <ele>106.875</ele>
        <time>2015-03-27T08:17:15Z</time>
      </trkpt>
      <trkpt lat="42.500230" lon="-8.649447">
        <ele>108.328</ele>
        <time>2015-03-27T08:17:24Z</time>
      </trkpt>
      <trkpt lat="42.500403" lon="-8.649582">
        <ele>109.320</ele>
        <time>2015-03-27T08:17:37Z</time>
      </trkpt>
      <trkpt lat="42.500591" lon="-8.649722">
        <ele>111.207</ele>
        <time>2015-03-27T08:17:51Z</time>
      </trkpt>
      <trkpt lat="42.500828" lon="-8.649756">
        <ele>113.686</ele>
        <time>2015-03-27T08:18:05Z</time>
      </trkpt>
      <trkpt lat="42.501029" lon="-8.649755">
        <ele>114.529</ele>
        <time>2015-03-27T08:18:18Z</time>
      </trkpt>
      <trkpt lat="42.501160" lon="-8.649714">
        <ele>115.031</ele>
        <time>2015-03-27T08:18:25Z</time>
      </trkpt>
      <trkpt lat="42.501261" lon="-8.649758">
        <ele>115.541</ele>
        <time>2015-03-27T08:18:34Z</time>
      </trkpt>
      <trkpt lat="42.501392" lon="-8.649809">
        <ele>116.049</ele>
        <time>2015-03-27T08:18:38Z</time>
      </trkpt>
      <trkpt lat="42.501593" lon="-8.649961">
        <ele>118.954</ele>
        <time>2015-03-27T08:18:53Z</time>
      </trkpt>
      <trkpt lat="42.501656" lon="-8.650034">
        <ele>120.311</ele>
        <time>2015-03-27T08:18:59Z</time>
      </trkpt>
      <trkpt lat="42.501730" lon="-8.650116">
        <ele>121.338</ele>
        <time>2015-03-27T08:19:04Z</time>
      </trkpt>
      <trkpt lat="42.501963" lon="-8.650349">
        <ele>123.770</ele>
        <time>2015-03-27T08:19:20Z</time>
      </trkpt>
      <trkpt lat="42.502229" lon="-8.650511">
        <ele>123.717</ele>
        <time>2015-03-27T08:19:33Z</time>
      </trkpt>
      <trkpt lat="42.502497" lon="-8.650565">
        <ele>123.707</ele>
        <time>2015-03-27T08:19:43Z</time>
      </trkpt>
      <trkpt lat="42.502775" lon="-8.650704">
        <ele>123.782</ele>
        <time>2015-03-27T08:19:55Z</time>
      </trkpt>
      <trkpt lat="42.503167" lon="-8.650889">
        <ele>123.775</ele>
        <time>2015-03-27T08:20:10Z</time>
      </trkpt>
      <trkpt lat="42.503505" lon="-8.650919">
        <ele>124.667</ele>
        <time>2015-03-27T08:20:24Z</time>
      </trkpt>
      <trkpt lat="42.503792" lon="-8.650901">
        <ele>126.627</ele>
        <time>2015-03-27T08:20:38Z</time>
      </trkpt>
      <trkpt lat="42.504056" lon="-8.650788">
        <ele>128.095</ele>
        <time>2015-03-27T08:20:51Z</time>
      </trkpt>
      <trkpt lat="42.504332" lon="-8.650470">
        <ele>129.490</ele>
        <time>2015-03-27T08:21:07Z</time>
      </trkpt>
      <trkpt lat="42.504505" lon="-8.650289">
        <ele>129.997</ele>
        <time>2015-03-27T08:21:30Z</time>
      </trkpt>
      <trkpt lat="42.504713" lon="-8.649909">
        <ele>128.577</ele>
        <time>2015-03-27T08:21:41Z</time>
      </trkpt>
      <trkpt lat="42.504737" lon="-8.649754">
        <ele>128.061</ele>
        <time>2015-03-27T08:21:55Z</time>
      </trkpt>
      <trkpt lat="42.504827" lon="-8.649639">
        <ele>129.927</ele>
        <time>2015-03-27T08:31:46Z</time>
      </trkpt>
      <trkpt lat="42.504881" lon="-8.649587">
        <ele>129.907</ele>
        <time>2015-03-27T08:32:41Z</time>
      </trkpt>
      <trkpt lat="42.505006" lon="-8.649776">
        <ele>126.666</ele>
        <time>2015-03-27T08:48:43Z</time>
      </trkpt>
      <trkpt lat="42.505412" lon="-8.649488">
        <ele>121.749</ele>
        <time>2015-03-27T08:48:50Z</time>
      </trkpt>
      <trkpt lat="42.505647" lon="-8.649345">
        <ele>119.811</ele>
        <time>2015-03-27T08:48:53Z</time>
      </trkpt>
      <trkpt lat="42.506273" lon="-8.649152">
        <ele>116.531</ele>
        <time>2015-03-27T08:49:00Z</time>
      </trkpt>
      <trkpt lat="42.506858" lon="-8.649011">
        <ele>113.199</ele>
        <time>2015-03-27T08:49:06Z</time>
      </trkpt>
      <trkpt lat="42.507062" lon="-8.648967">
        <ele>112.144</ele>
        <time>2015-03-27T08:49:08Z</time>
      </trkpt>
      <trkpt lat="42.507486" lon="-8.648887">
        <ele>109.741</ele>
        <time>2015-03-27T08:49:12Z</time>
      </trkpt>
      <trkpt lat="42.507863" lon="-8.649080">
        <ele>107.359</ele>
        <time>2015-03-27T08:49:31Z</time>
      </trkpt>
      <trkpt lat="42.508301" lon="-8.649358">
        <ele>104.003</ele>
        <time>2015-03-27T08:49:41Z</time>
      </trkpt>
      <trkpt lat="42.508428" lon="-8.649438">
        <ele>103.523</ele>
        <time>2015-03-27T08:49:43Z</time>
      </trkpt>
      <trkpt lat="42.508973" lon="-8.649615">
        <ele>100.107</ele>
        <time>2015-03-27T08:49:50Z</time>
      </trkpt>
      <trkpt lat="42.509427" lon="-8.649619">
        <ele>97.734</ele>
        <time>2015-03-27T08:49:55Z</time>
      </trkpt>
      <trkpt lat="42.510104" lon="-8.649728">
        <ele>93.947</ele>
        <time>2015-03-27T08:50:02Z</time>
      </trkpt>
      <trkpt lat="42.510708" lon="-8.649869">
        <ele>90.579</ele>
        <time>2015-03-27T08:50:08Z</time>
      </trkpt>
      <trkpt lat="42.511139" lon="-8.650024">
        <ele>87.129</ele>
        <time>2015-03-27T08:50:12Z</time>
      </trkpt>
      <trkpt lat="42.511364" lon="-8.650115">
        <ele>84.797</ele>
        <time>2015-03-27T08:50:14Z</time>
      </trkpt>
      <trkpt lat="42.511842" lon="-8.650136">
        <ele>80.432</ele>
        <time>2015-03-27T08:50:18Z</time>
      </trkpt>
      <trkpt lat="42.511965" lon="-8.650097">
        <ele>79.049</ele>
        <time>2015-03-27T08:50:19Z</time>
      </trkpt>
      <trkpt lat="42.512214" lon="-8.650010">
        <ele>78.083</ele>
        <time>2015-03-27T08:50:21Z</time>
      </trkpt>
      <trkpt lat="42.512881" lon="-8.649846">
        <ele>76.625</ele>
        <time>2015-03-27T08:50:27Z</time>
      </trkpt>
      <trkpt lat="42.513559" lon="-8.649308">
        <ele>78.017</ele>
        <time>2015-03-27T08:50:37Z</time>
      </trkpt>
      <trkpt lat="42.514085" lon="-8.648966">
        <ele>79.507</ele>
        <time>2015-03-27T08:50:49Z</time>
      </trkpt>
      <trkpt lat="42.514168" lon="-8.648929">
        <ele>79.517</ele>
        <time>2015-03-27T08:50:51Z</time>
      </trkpt>
      <trkpt lat="42.514895" lon="-8.648537">
        <ele>81.430</ele>
        <time>2015-03-27T08:51:11Z</time>
      </trkpt>
      <trkpt lat="42.515226" lon="-8.648384">
        <ele>81.462</ele>
        <time>2015-03-27T08:51:19Z</time>
      </trkpt>
      <trkpt lat="42.515407" lon="-8.648250">
        <ele>79.982</ele>
        <time>2015-03-27T08:51:23Z</time>
      </trkpt>
      <trkpt lat="42.516241" lon="-8.647596">
        <ele>78.080</ele>
        <time>2015-03-27T08:51:40Z</time>
      </trkpt>
      <trkpt lat="42.516885" lon="-8.647349">
        <ele>77.545</ele>
        <time>2015-03-27T08:51:54Z</time>
      </trkpt>
      <trkpt lat="42.517498" lon="-8.646909">
        <ele>76.632</ele>
        <time>2015-03-27T08:52:08Z</time>
      </trkpt>
      <trkpt lat="42.518200" lon="-8.645955">
        <ele>74.269</ele>
        <time>2015-03-27T08:52:26Z</time>
      </trkpt>
      <trkpt lat="42.518556" lon="-8.645087">
        <ele>73.204</ele>
        <time>2015-03-27T08:52:39Z</time>
      </trkpt>
      <trkpt lat="42.518780" lon="-8.645123">
        <ele>72.224</ele>
        <time>2015-03-27T08:52:46Z</time>
      </trkpt>
      <trkpt lat="42.518950" lon="-8.645397">
        <ele>69.807</ele>
        <time>2015-03-27T08:52:55Z</time>
      </trkpt>
      <trkpt lat="42.519589" lon="-8.645390">
        <ele>68.475</ele>
        <time>2015-03-27T08:53:09Z</time>
      </trkpt>
      <trkpt lat="42.519647" lon="-8.645397">
        <ele>67.478</ele>
        <time>2015-03-27T08:53:10Z</time>
      </trkpt>
      <trkpt lat="42.519871" lon="-8.645312">
        <ele>66.550</ele>
        <time>2015-03-27T08:53:14Z</time>
      </trkpt>
      <trkpt lat="42.520295" lon="-8.644800">
        <ele>65.530</ele>
        <time>2015-03-27T08:53:24Z</time>
      </trkpt>
      <trkpt lat="42.520633" lon="-8.644615">
        <ele>63.668</ele>
        <time>2015-03-27T08:53:30Z</time>
      </trkpt>
      <trkpt lat="42.520751" lon="-8.644602">
        <ele>63.653</ele>
        <time>2015-03-27T08:53:32Z</time>
      </trkpt>
      <trkpt lat="42.521045" lon="-8.644748">
        <ele>63.140</ele>
        <time>2015-03-27T08:53:38Z</time>
      </trkpt>
      <trkpt lat="42.521121" lon="-8.644849">
        <ele>62.666</ele>
        <time>2015-03-27T08:53:40Z</time>
      </trkpt>
      <trkpt lat="42.521465" lon="-8.645076">
        <ele>62.629</ele>
        <time>2015-03-27T08:53:49Z</time>
      </trkpt>
      <trkpt lat="42.521912" lon="-8.645122">
        <ele>64.121</ele>
        <time>2015-03-27T08:54:03Z</time>
      </trkpt>
      <trkpt lat="42.522229" lon="-8.645188">
        <ele>66.507</ele>
        <time>2015-03-27T08:54:18Z</time>
      </trkpt>
      <trkpt lat="42.522506" lon="-8.645306">
        <ele>68.915</ele>
        <time>2015-03-27T08:54:35Z</time>
      </trkpt>
      <trkpt lat="42.522745" lon="-8.645498">
        <ele>70.868</ele>
        <time>2015-03-27T08:54:50Z</time>
      </trkpt>
      <trkpt lat="42.522996" lon="-8.645638">
        <ele>72.730</ele>
        <time>2015-03-27T08:55:04Z</time>
      </trkpt>
      <trkpt lat="42.523275" lon="-8.645724">
        <ele>75.120</ele>
        <time>2015-03-27T08:55:20Z</time>
      </trkpt>
      <trkpt lat="42.523441" lon="-8.645993">
        <ele>78.078</ele>
        <time>2015-03-27T08:55:37Z</time>
      </trkpt>
      <trkpt lat="42.523446" lon="-8.646318">
        <ele>80.493</ele>
        <time>2015-03-27T08:55:53Z</time>
      </trkpt>
      <trkpt lat="42.523395" lon="-8.646646">
        <ele>81.910</ele>
        <time>2015-03-27T08:56:08Z</time>
      </trkpt>
      <trkpt lat="42.523546" lon="-8.646619">
        <ele>81.996</ele>
        <time>2015-03-27T08:56:15Z</time>
      </trkpt>
      <trkpt lat="42.523853" lon="-8.646409">
        <ele>80.431</ele>
        <time>2015-03-27T08:56:24Z</time>
      </trkpt>
      <trkpt lat="42.523958" lon="-8.646389">
        <ele>79.524</ele>
        <time>2015-03-27T08:56:32Z</time>
      </trkpt>
      <trkpt lat="42.524054" lon="-8.646437">
        <ele>79.507</ele>
        <time>2015-03-27T08:56:56Z</time>
      </trkpt>
      <trkpt lat="42.524389" lon="-8.646520">
        <ele>77.598</ele>
        <time>2015-03-27T08:57:04Z</time>
      </trkpt>
      <trkpt lat="42.524551" lon="-8.646337">
        <ele>75.171</ele>
        <time>2015-03-27T08:57:09Z</time>
      </trkpt>
      <trkpt lat="42.524737" lon="-8.645895">
        <ele>73.733</ele>
        <time>2015-03-27T08:57:16Z</time>
      </trkpt>
      <trkpt lat="42.525571" lon="-8.645329">
        <ele>72.213</ele>
        <time>2015-03-27T08:57:32Z</time>
      </trkpt>
      <trkpt lat="42.525655" lon="-8.645256">
        <ele>72.211</ele>
        <time>2015-03-27T08:57:34Z</time>
      </trkpt>
      <trkpt lat="42.525757" lon="-8.645131">
        <ele>71.876</ele>
        <time>2015-03-27T08:57:37Z</time>
      </trkpt>
      <trkpt lat="42.526055" lon="-8.644837">
        <ele>73.273</ele>
        <time>2015-03-27T08:57:46Z</time>
      </trkpt>
      <trkpt lat="42.526494" lon="-8.644727">
        <ele>74.682</ele>
        <time>2015-03-27T08:57:58Z</time>
      </trkpt>
      <trkpt lat="42.526563" lon="-8.644880">
        <ele>73.243</ele>
        <time>2015-03-27T08:58:01Z</time>
      </trkpt>
      <trkpt lat="42.526749" lon="-8.645013">
        <ele>70.817</ele>
        <time>2015-03-27T08:58:05Z</time>
      </trkpt>
      <trkpt lat="42.527181" lon="-8.644982">
        <ele>67.407</ele>
        <time>2015-03-27T08:58:11Z</time>
      </trkpt>
      <trkpt lat="42.527622" lon="-8.645071">
        <ele>64.117</ele>
        <time>2015-03-27T08:58:16Z</time>
      </trkpt>
      <trkpt lat="42.527806" lon="-8.645126">
        <ele>63.690</ele>
        <time>2015-03-27T08:58:18Z</time>
      </trkpt>
      <trkpt lat="42.528081" lon="-8.645184">
        <ele>61.782</ele>
        <time>2015-03-27T08:58:21Z</time>
      </trkpt>
      <trkpt lat="42.528456" lon="-8.645692">
        <ele>60.232</ele>
        <time>2015-03-27T08:58:28Z</time>
      </trkpt>
      <trkpt lat="42.528468" lon="-8.645788">
        <ele>59.760</ele>
        <time>2015-03-27T08:58:29Z</time>
      </trkpt>
      <trkpt lat="42.528481" lon="-8.645967">
        <ele>59.795</ele>
        <time>2015-03-27T08:58:31Z</time>
      </trkpt>
      <trkpt lat="42.528763" lon="-8.646368">
        <ele>58.332</ele>
        <time>2015-03-27T08:58:38Z</time>
      </trkpt>
      <trkpt lat="42.529649" lon="-8.646575">
        <ele>57.382</ele>
        <time>2015-03-27T08:58:54Z</time>
      </trkpt>
      <trkpt lat="42.530498" lon="-8.646663">
        <ele>55.443</ele>
        <time>2015-03-27T08:59:09Z</time>
      </trkpt>
      <trkpt lat="42.531308" lon="-8.646360">
        <ele>53.017</ele>
        <time>2015-03-27T08:59:23Z</time>
      </trkpt>
      <trkpt lat="42.532240" lon="-8.646201">
        <ele>50.607</ele>
        <time>2015-03-27T08:59:38Z</time>
      </trkpt>
      <trkpt lat="42.533023" lon="-8.645886">
        <ele>49.767</ele>
        <time>2015-03-27T08:59:53Z</time>
      </trkpt>
      <trkpt lat="42.533903" lon="-8.645501">
        <ele>48.710</ele>
        <time>2015-03-27T09:00:10Z</time>
      </trkpt>
      <trkpt lat="42.534770" lon="-8.645419">
        <ele>47.792</ele>
        <time>2015-03-27T09:00:26Z</time>
      </trkpt>
      <trkpt lat="42.535032" lon="-8.645472">
        <ele>47.272</ele>
        <time>2015-03-27T09:00:31Z</time>
      </trkpt>
      <trkpt lat="42.535181" lon="-8.645539">
        <ele>47.220</ele>
        <time>2015-03-27T09:00:34Z</time>
      </trkpt>
      <trkpt lat="42.535813" lon="-8.645457">
        <ele>46.865</ele>
        <time>2015-03-27T09:00:46Z</time>
      </trkpt>
      <trkpt lat="42.536457" lon="-8.645223">
        <ele>46.332</ele>
        <time>2015-03-27T09:00:59Z</time>
      </trkpt>
      <trkpt lat="42.536648" lon="-8.645158">
        <ele>46.392</ele>
        <time>2015-03-27T09:01:03Z</time>
      </trkpt>
      <trkpt lat="42.536819" lon="-8.645195">
        <ele>45.873</ele>
        <time>2015-03-27T09:01:07Z</time>
      </trkpt>
      <trkpt lat="42.537104" lon="-8.645392">
        <ele>44.820</ele>
        <time>2015-03-27T09:01:13Z</time>
      </trkpt>
      <trkpt lat="42.537375" lon="-8.645406">
        <ele>43.407</ele>
        <time>2015-03-27T09:01:18Z</time>
      </trkpt>
      <trkpt lat="42.537843" lon="-8.645284">
        <ele>42.488</ele>
        <time>2015-03-27T09:01:27Z</time>
      </trkpt>
      <trkpt lat="42.538575" lon="-8.644847">
        <ele>41.511</ele>
        <time>2015-03-27T09:01:44Z</time>
      </trkpt>
      <trkpt lat="42.538689" lon="-8.644769">
        <ele>41.563</ele>
        <time>2015-03-27T09:01:47Z</time>
      </trkpt>
      <trkpt lat="42.538935" lon="-8.644371">
        <ele>41.093</ele>
        <time>2015-03-27T09:01:57Z</time>
      </trkpt>
      <trkpt lat="42.539361" lon="-8.643974">
        <ele>41.031</ele>
        <time>2015-03-27T09:02:11Z</time>
      </trkpt>
      <trkpt lat="42.539993" lon="-8.643741">
        <ele>41.046</ele>
        <time>2015-03-27T09:02:28Z</time>
      </trkpt>
      <trkpt lat="42.540576" lon="-8.643535">
        <ele>42.973</ele>
        <time>2015-03-27T09:02:46Z</time>
      </trkpt>
      <trkpt lat="42.540908" lon="-8.643379">
        <ele>44.415</ele>
        <time>2015-03-27T09:02:57Z</time>
      </trkpt>
      <trkpt lat="42.541407" lon="-8.643169">
        <ele>42.965</ele>
        <time>2015-03-27T09:03:12Z</time>
      </trkpt>
      <trkpt lat="42.541536" lon="-8.643059">
        <ele>44.411</ele>
        <time>2015-03-27T09:03:17Z</time>
      </trkpt>
      <trkpt lat="42.542019" lon="-8.642844">
        <ele>45.307</ele>
        <time>2015-03-27T09:03:33Z</time>
      </trkpt>
      <trkpt lat="42.542345" lon="-8.642684">
        <ele>43.950</ele>
        <time>2015-03-27T09:03:40Z</time>
      </trkpt>
      <trkpt lat="42.542696" lon="-8.642593">
        <ele>42.973</ele>
        <time>2015-03-27T09:03:46Z</time>
      </trkpt>
      <trkpt lat="42.542987" lon="-8.642710">
        <ele>43.925</ele>
        <time>2015-03-27T09:03:53Z</time>
      </trkpt>
      <trkpt lat="42.543349" lon="-8.642876">
        <ele>47.235</ele>
        <time>2015-03-27T09:04:08Z</time>
      </trkpt>
      <trkpt lat="42.543625" lon="-8.643007">
        <ele>48.283</ele>
        <time>2015-03-27T09:04:19Z</time>
      </trkpt>
      <trkpt lat="42.543772" lon="-8.643000">
        <ele>46.858</ele>
        <time>2015-03-27T09:04:22Z</time>
      </trkpt>
      <trkpt lat="42.543890" lon="-8.642928">
        <ele>45.315</ele>
        <time>2015-03-27T09:04:24Z</time>
      </trkpt>
      <trkpt lat="42.543947" lon="-8.642869">
        <ele>44.484</ele>
        <time>2015-03-27T09:04:25Z</time>
      </trkpt>
      <trkpt lat="42.544098" lon="-8.642678">
        <ele>43.907</ele>
        <time>2015-03-27T09:04:28Z</time>
      </trkpt>
      <trkpt lat="42.544632" lon="-8.642337">
        <ele>43.917</ele>
        <time>2015-03-27T09:04:39Z</time>
      </trkpt>
      <trkpt lat="42.544766" lon="-8.642300">
        <ele>45.307</ele>
        <time>2015-03-27T09:04:44Z</time>
      </trkpt>
      <trkpt lat="42.545180" lon="-8.642295">
        <ele>45.817</ele>
        <time>2015-03-27T09:04:57Z</time>
      </trkpt>
      <trkpt lat="42.545288" lon="-8.642307">
        <ele>44.470</ele>
        <time>2015-03-27T09:04:59Z</time>
      </trkpt>
      <trkpt lat="42.545511" lon="-8.642417">
        <ele>43.492</ele>
        <time>2015-03-27T09:05:03Z</time>
      </trkpt>
      <trkpt lat="42.545793" lon="-8.642608">
        <ele>42.072</ele>
        <time>2015-03-27T09:05:08Z</time>
      </trkpt>
      <trkpt lat="42.546109" lon="-8.642643">
        <ele>41.020</ele>
        <time>2015-03-27T09:05:13Z</time>
      </trkpt>
      <trkpt lat="42.546819" lon="-8.642497">
        <ele>40.035</ele>
        <time>2015-03-27T09:05:25Z</time>
      </trkpt>
      <trkpt lat="42.546947" lon="-8.642479">
        <ele>40.032</ele>
        <time>2015-03-27T09:05:28Z</time>
      </trkpt>
      <trkpt lat="42.547191" lon="-8.642459">
        <ele>41.555</ele>
        <time>2015-03-27T09:05:34Z</time>
      </trkpt>
      <trkpt lat="42.547460" lon="-8.642417">
        <ele>41.507</ele>
        <time>2015-03-27T09:05:40Z</time>
      </trkpt>
      <trkpt lat="42.547690" lon="-8.642475">
        <ele>38.617</ele>
        <time>2015-03-27T09:05:44Z</time>
      </trkpt>
      <trkpt lat="42.547781" lon="-8.642524">
        <ele>38.607</ele>
        <time>2015-03-27T09:05:46Z</time>
      </trkpt>
      <trkpt lat="42.547875" lon="-8.642406">
        <ele>38.164</ele>
        <time>2015-03-27T09:05:51Z</time>
      </trkpt>
      <trkpt lat="42.548010" lon="-8.642167">
        <ele>39.147</ele>
        <time>2015-03-27T09:05:58Z</time>
      </trkpt>
      <trkpt lat="42.548470" lon="-8.641524">
        <ele>40.029</ele>
        <time>2015-03-27T09:06:15Z</time>
      </trkpt>
      <trkpt lat="42.548589" lon="-8.641359">
        <ele>40.019</ele>
        <time>2015-03-27T09:06:19Z</time>
      </trkpt>
      <trkpt lat="42.548676" lon="-8.641231">
        <ele>40.087</ele>
        <time>2015-03-27T09:06:22Z</time>
      </trkpt>
      <trkpt lat="42.549368" lon="-8.640454">
        <ele>40.062</ele>
        <time>2015-03-27T09:06:43Z</time>
      </trkpt>
      <trkpt lat="42.549470" lon="-8.640235">
        <ele>40.519</ele>
        <time>2015-03-27T09:06:48Z</time>
      </trkpt>
      <trkpt lat="42.549466" lon="-8.640001">
        <ele>40.529</ele>
        <time>2015-03-27T09:06:52Z</time>
      </trkpt>
      <trkpt lat="42.549435" lon="-8.639722">
        <ele>40.500</ele>
        <time>2015-03-27T09:06:57Z</time>
      </trkpt>
      <trkpt lat="42.549545" lon="-8.639481">
        <ele>41.020</ele>
        <time>2015-03-27T09:07:03Z</time>
      </trkpt>
      <trkpt lat="42.550115" lon="-8.639298">
        <ele>39.607</ele>
        <time>2015-03-27T09:07:16Z</time>
      </trkpt>
      <trkpt lat="42.550770" lon="-8.639090">
        <ele>39.141</ele>
        <time>2015-03-27T09:07:31Z</time>
      </trkpt>
      <trkpt lat="42.551549" lon="-8.638859">
        <ele>38.144</ele>
        <time>2015-03-27T09:07:48Z</time>
      </trkpt>
      <trkpt lat="42.552503" lon="-8.638720">
        <ele>37.626</ele>
        <time>2015-03-27T09:08:08Z</time>
      </trkpt>
      <trkpt lat="42.552740" lon="-8.638688">
        <ele>37.686</ele>
        <time>2015-03-27T09:08:13Z</time>
      </trkpt>
      <trkpt lat="42.553547" lon="-8.638517">
        <ele>36.214</ele>
        <time>2015-03-27T09:08:28Z</time>
      </trkpt>
      <trkpt lat="42.553807" lon="-8.638464">
        <ele>35.279</ele>
        <time>2015-03-27T09:08:32Z</time>
      </trkpt>
      <trkpt lat="42.554634" lon="-8.638079">
        <ele>34.736</ele>
        <time>2015-03-27T09:08:48Z</time>
      </trkpt>
      <trkpt lat="42.555199" lon="-8.637757">
        <ele>34.312</ele>
        <time>2015-03-27T09:09:02Z</time>
      </trkpt>
      <trkpt lat="42.556076" lon="-8.637685">
        <ele>33.832</ele>
        <time>2015-03-27T09:09:22Z</time>
      </trkpt>
      <trkpt lat="42.556848" lon="-8.637623">
        <ele>33.805</ele>
        <time>2015-03-27T09:09:41Z</time>
      </trkpt>
      <trkpt lat="42.557509" lon="-8.637570">
        <ele>35.707</ele>
        <time>2015-03-27T09:09:59Z</time>
      </trkpt>
      <trkpt lat="42.558159" lon="-8.637540">
        <ele>39.150</ele>
        <time>2015-03-27T09:10:17Z</time>
      </trkpt>
      <trkpt lat="42.558318" lon="-8.637720">
        <ele>35.253</ele>
        <time>2015-03-27T09:10:23Z</time>
      </trkpt>
      <trkpt lat="42.558458" lon="-8.637807">
        <ele>34.715</ele>
        <time>2015-03-27T09:10:26Z</time>
      </trkpt>
      <trkpt lat="42.558558" lon="-8.637825">
        <ele>34.375</ele>
        <time>2015-03-27T09:10:28Z</time>
      </trkpt>
      <trkpt lat="42.558945" lon="-8.638043">
        <ele>34.383</ele>
        <time>2015-03-27T09:10:41Z</time>
      </trkpt>
      <trkpt lat="42.559030" lon="-8.638129">
        <ele>35.788</ele>
        <time>2015-03-27T09:10:45Z</time>
      </trkpt>
      <trkpt lat="42.559437" lon="-8.638511">
        <ele>36.765</ele>
        <time>2015-03-27T09:11:04Z</time>
      </trkpt>
      <trkpt lat="42.559720" lon="-8.638725">
        <ele>39.125</ele>
        <time>2015-03-27T09:11:19Z</time>
      </trkpt>
      <trkpt lat="42.560118" lon="-8.638975">
        <ele>41.026</ele>
        <time>2015-03-27T09:11:38Z</time>
      </trkpt>
      <trkpt lat="42.560179" lon="-8.639123">
        <ele>42.008</ele>
        <time>2015-03-27T09:11:43Z</time>
      </trkpt>
      <trkpt lat="42.560185" lon="-8.639505">
        <ele>42.007</ele>
        <time>2015-03-27T09:11:52Z</time>
      </trkpt>
      <trkpt lat="42.560267" lon="-8.639592">
        <ele>39.651</ele>
        <time>2015-03-27T09:11:57Z</time>
      </trkpt>
      <trkpt lat="42.560316" lon="-8.639580">
        <ele>38.654</ele>
        <time>2015-03-27T09:12:37Z</time>
      </trkpt>
      <trkpt lat="42.560402" lon="-8.639600">
        <ele>38.646</ele>
        <time>2015-03-27T09:13:07Z</time>
      </trkpt>
      <trkpt lat="42.560854" lon="-8.639587">
        <ele>36.726</ele>
        <time>2015-03-27T09:13:20Z</time>
      </trkpt>
      <trkpt lat="42.561151" lon="-8.639602">
        <ele>36.714</ele>
        <time>2015-03-27T09:13:31Z</time>
      </trkpt>
      <trkpt lat="42.561217" lon="-8.639478">
        <ele>36.259</ele>
        <time>2015-03-27T09:13:36Z</time>
      </trkpt>
      <trkpt lat="42.561411" lon="-8.639167">
        <ele>37.676</ele>
        <time>2015-03-27T09:13:50Z</time>
      </trkpt>
      <trkpt lat="42.561454" lon="-8.639133">
        <ele>38.168</ele>
        <time>2015-03-27T09:13:58Z</time>
      </trkpt>
      <trkpt lat="42.561502" lon="-8.639150">
        <ele>39.142</ele>
        <time>2015-03-27T09:14:07Z</time>
      </trkpt>
      <trkpt lat="42.561557" lon="-8.639181">
        <ele>39.126</ele>
        <time>2015-03-27T09:14:11Z</time>
      </trkpt>
      <trkpt lat="42.561957" lon="-8.639475">
        <ele>39.607</ele>
        <time>2015-03-27T09:14:27Z</time>
      </trkpt>
      <trkpt lat="42.562327" lon="-8.639792">
        <ele>39.695</ele>
        <time>2015-03-27T09:14:42Z</time>
      </trkpt>
      <trkpt lat="42.562353" lon="-8.640243">
        <ele>36.258</ele>
        <time>2015-03-27T09:14:51Z</time>
      </trkpt>
      <trkpt lat="42.562360" lon="-8.640509">
        <ele>33.820</ele>
        <time>2015-03-27T09:14:57Z</time>
      </trkpt>
      <trkpt lat="42.562591" lon="-8.640665">
        <ele>33.350</ele>
        <time>2015-03-27T09:15:05Z</time>
      </trkpt>
      <trkpt lat="42.562716" lon="-8.640728">
        <ele>33.348</ele>
        <time>2015-03-27T09:15:13Z</time>
      </trkpt>
      <trkpt lat="42.562894" lon="-8.640827">
        <ele>33.883</ele>
        <time>2015-03-27T09:15:23Z</time>
      </trkpt>
      <trkpt lat="42.563173" lon="-8.641108">
        <ele>36.210</ele>
        <time>2015-03-27T09:15:39Z</time>
      </trkpt>
      <trkpt lat="42.563414" lon="-8.641353">
        <ele>37.648</ele>
        <time>2015-03-27T09:15:53Z</time>
      </trkpt>
      <trkpt lat="42.563700" lon="-8.641522">
        <ele>36.761</ele>
        <time>2015-03-27T09:16:03Z</time>
      </trkpt>
      <trkpt lat="42.564187" lon="-8.641697">
        <ele>36.717</ele>
        <time>2015-03-27T09:16:17Z</time>
      </trkpt>
      <trkpt lat="42.564612" lon="-8.641701">
        <ele>36.707</ele>
        <time>2015-03-27T09:16:29Z</time>
      </trkpt>
      <trkpt lat="42.564925" lon="-8.641811">
        <ele>35.733</ele>
        <time>2015-03-27T09:16:39Z</time>
      </trkpt>
      <trkpt lat="42.565624" lon="-8.641654">
        <ele>35.216</ele>
        <time>2015-03-27T09:16:56Z</time>
      </trkpt>
      <trkpt lat="42.566242" lon="-8.641615">
        <ele>33.838</ele>
        <time>2015-03-27T09:17:10Z</time>
      </trkpt>
      <trkpt lat="42.566399" lon="-8.641634">
        <ele>32.888</ele>
        <time>2015-03-27T09:17:13Z</time>
      </trkpt>
      <trkpt lat="42.566549" lon="-8.641685">
        <ele>32.836</ele>
        <time>2015-03-27T09:17:17Z</time>
      </trkpt>
      <trkpt lat="42.566935" lon="-8.641681">
        <ele>32.861</ele>
        <time>2015-03-27T09:17:29Z</time>
      </trkpt>
      <trkpt lat="42.567071" lon="-8.641791">
        <ele>32.898</ele>
        <time>2015-03-27T09:17:33Z</time>
      </trkpt>
      <trkpt lat="42.567206" lon="-8.641913">
        <ele>33.363</ele>
        <time>2015-03-27T09:17:37Z</time>
      </trkpt>
      <trkpt lat="42.567370" lon="-8.641995">
        <ele>32.844</ele>
        <time>2015-03-27T09:17:41Z</time>
      </trkpt>
      <trkpt lat="42.567972" lon="-8.642146">
        <ele>34.318</ele>
        <time>2015-03-27T09:17:57Z</time>
      </trkpt>
      <trkpt lat="42.568462" lon="-8.642031">
        <ele>35.707</ele>
        <time>2015-03-27T09:18:12Z</time>
      </trkpt>
      <trkpt lat="42.568461" lon="-8.641743">
        <ele>37.655</ele>
        <time>2015-03-27T09:18:23Z</time>
      </trkpt>
      <trkpt lat="42.568405" lon="-8.641517">
        <ele>40.088</ele>
        <time>2015-03-27T09:18:32Z</time>
      </trkpt>
      <trkpt lat="42.568501" lon="-8.641462">
        <ele>41.080</ele>
        <time>2015-03-27T09:18:38Z</time>
      </trkpt>
      <trkpt lat="42.568894" lon="-8.641496">
        <ele>42.960</ele>
        <time>2015-03-27T09:18:55Z</time>
      </trkpt>
      <trkpt lat="42.569344" lon="-8.641531">
        <ele>43.428</ele>
        <time>2015-03-27T09:19:12Z</time>
      </trkpt>
      <trkpt lat="42.569817" lon="-8.641562">
        <ele>43.463</ele>
        <time>2015-03-27T09:19:25Z</time>
      </trkpt>
      <trkpt lat="42.570367" lon="-8.641615">
        <ele>42.070</ele>
        <time>2015-03-27T09:19:38Z</time>
      </trkpt>
      <trkpt lat="42.570499" lon="-8.641618">
        <ele>42.048</ele>
        <time>2015-03-27T09:19:41Z</time>
      </trkpt>
      <trkpt lat="42.570546" lon="-8.641869">
        <ele>40.561</ele>
        <time>2015-03-27T09:19:48Z</time>
      </trkpt>
      <trkpt lat="42.570546" lon="-8.642009">
        <ele>40.517</ele>
        <time>2015-03-27T09:19:51Z</time>
      </trkpt>
      <trkpt lat="42.570580" lon="-8.642206">
        <ele>40.007</ele>
        <time>2015-03-27T09:19:55Z</time>
      </trkpt>
      <trkpt lat="42.570717" lon="-8.642527">
        <ele>38.143</ele>
        <time>2015-03-27T09:20:02Z</time>
      </trkpt>
      <trkpt lat="42.571059" lon="-8.642680">
        <ele>35.286</ele>
        <time>2015-03-27T09:20:08Z</time>
      </trkpt>
      <trkpt lat="42.571268" lon="-8.642765">
        <ele>33.888</ele>
        <time>2015-03-27T09:20:11Z</time>
      </trkpt>
      <trkpt lat="42.571412" lon="-8.642822">
        <ele>32.858</ele>
        <time>2015-03-27T09:20:13Z</time>
      </trkpt>
      <trkpt lat="42.572300" lon="-8.643099">
        <ele>30.416</ele>
        <time>2015-03-27T09:20:25Z</time>
      </trkpt>
      <trkpt lat="42.573120" lon="-8.643155">
        <ele>28.061</ele>
        <time>2015-03-27T09:20:39Z</time>
      </trkpt>
      <trkpt lat="42.573609" lon="-8.643213">
        <ele>28.038</ele>
        <time>2015-03-27T09:20:50Z</time>
      </trkpt>
      <trkpt lat="42.573826" lon="-8.643253">
        <ele>28.012</ele>
        <time>2015-03-27T09:20:55Z</time>
      </trkpt>
      <trkpt lat="42.574061" lon="-8.643355">
        <ele>28.032</ele>
        <time>2015-03-27T09:21:01Z</time>
      </trkpt>
      <trkpt lat="42.574183" lon="-8.643414">
        <ele>28.005</ele>
        <time>2015-03-27T09:21:04Z</time>
      </trkpt>
      <trkpt lat="42.574312" lon="-8.643439">
        <ele>28.007</ele>
        <time>2015-03-27T09:21:07Z</time>
      </trkpt>
      <trkpt lat="42.574890" lon="-8.643314">
        <ele>28.020</ele>
        <time>2015-03-27T09:21:21Z</time>
      </trkpt>
      <trkpt lat="42.575055" lon="-8.643270">
        <ele>28.013</ele>
        <time>2015-03-27T09:21:25Z</time>
      </trkpt>
      <trkpt lat="42.575138" lon="-8.643260">
        <ele>28.085</ele>
        <time>2015-03-27T09:21:27Z</time>
      </trkpt>
      <trkpt lat="42.575259" lon="-8.643224">
        <ele>29.595</ele>
        <time>2015-03-27T09:21:30Z</time>
      </trkpt>
      <trkpt lat="42.575474" lon="-8.643158">
        <ele>29.563</ele>
        <time>2015-03-27T09:21:35Z</time>
      </trkpt>
      <trkpt lat="42.575891" lon="-8.643232">
        <ele>29.578</ele>
        <time>2015-03-27T09:21:45Z</time>
      </trkpt>
      <trkpt lat="42.576355" lon="-8.643246">
        <ele>29.595</ele>
        <time>2015-03-27T09:21:56Z</time>
      </trkpt>
      <trkpt lat="42.576925" lon="-8.643153">
        <ele>30.421</ele>
        <time>2015-03-27T09:22:10Z</time>
      </trkpt>
      <trkpt lat="42.577205" lon="-8.643265">
        <ele>30.441</ele>
        <time>2015-03-27T09:22:17Z</time>
      </trkpt>
      <trkpt lat="42.577295" lon="-8.643295">
        <ele>30.405</ele>
        <time>2015-03-27T09:22:19Z</time>
      </trkpt>
      <trkpt lat="42.577463" lon="-8.643305">
        <ele>30.407</ele>
        <time>2015-03-27T09:22:23Z</time>
      </trkpt>
      <trkpt lat="42.577643" lon="-8.643339">
        <ele>30.411</ele>
        <time>2015-03-27T09:22:27Z</time>
      </trkpt>
      <trkpt lat="42.577869" lon="-8.643337">
        <ele>30.464</ele>
        <time>2015-03-27T09:22:32Z</time>
      </trkpt>
      <trkpt lat="42.578134" lon="-8.643369">
        <ele>29.056</ele>
        <time>2015-03-27T09:22:38Z</time>
      </trkpt>
      <trkpt lat="42.578311" lon="-8.643375">
        <ele>29.046</ele>
        <time>2015-03-27T09:22:42Z</time>
      </trkpt>
      <trkpt lat="42.578920" lon="-8.643351">
        <ele>29.084</ele>
        <time>2015-03-27T09:22:57Z</time>
      </trkpt>
      <trkpt lat="42.579398" lon="-8.643348">
        <ele>29.079</ele>
        <time>2015-03-27T09:23:08Z</time>
      </trkpt>
      <trkpt lat="42.580036" lon="-8.643329">
        <ele>29.056</ele>
        <time>2015-03-27T09:23:24Z</time>
      </trkpt>
      <trkpt lat="42.580321" lon="-8.643458">
        <ele>29.044</ele>
        <time>2015-03-27T09:23:32Z</time>
      </trkpt>
      <trkpt lat="42.580418" lon="-8.643562">
        <ele>29.005</ele>
        <time>2015-03-27T09:23:35Z</time>
      </trkpt>
      <trkpt lat="42.580644" lon="-8.643902">
        <ele>29.015</ele>
        <time>2015-03-27T09:23:43Z</time>
      </trkpt>
      <trkpt lat="42.581104" lon="-8.644349">
        <ele>29.007</ele>
        <time>2015-03-27T09:23:57Z</time>
      </trkpt>
      <trkpt lat="42.581883" lon="-8.644770">
        <ele>27.143</ele>
        <time>2015-03-27T09:24:15Z</time>
      </trkpt>
      <trkpt lat="42.581985" lon="-8.644794">
        <ele>26.196</ele>
        <time>2015-03-27T09:24:17Z</time>
      </trkpt>
      <trkpt lat="42.582190" lon="-8.644763">
        <ele>26.158</ele>
        <time>2015-03-27T09:24:21Z</time>
      </trkpt>
      <trkpt lat="42.582412" lon="-8.644650">
        <ele>26.168</ele>
        <time>2015-03-27T09:24:26Z</time>
      </trkpt>
      <trkpt lat="42.582779" lon="-8.644627">
        <ele>26.116</ele>
        <time>2015-03-27T09:24:36Z</time>
      </trkpt>
      <trkpt lat="42.583048" lon="-8.644719">
        <ele>27.191</ele>
        <time>2015-03-27T09:24:44Z</time>
      </trkpt>
      <trkpt lat="42.583420" lon="-8.644679">
        <ele>27.598</ele>
        <time>2015-03-27T09:24:55Z</time>
      </trkpt>
      <trkpt lat="42.583882" lon="-8.644906">
        <ele>28.511</ele>
        <time>2015-03-27T09:25:08Z</time>
      </trkpt>
      <trkpt lat="42.584414" lon="-8.645464">
        <ele>27.521</ele>
        <time>2015-03-27T09:25:24Z</time>
      </trkpt>
      <trkpt lat="42.584490" lon="-8.645543">
        <ele>27.503</ele>
        <time>2015-03-27T09:25:26Z</time>
      </trkpt>
      <trkpt lat="42.584559" lon="-8.645630">
        <ele>27.507</ele>
        <time>2015-03-27T09:25:28Z</time>
      </trkpt>
      <trkpt lat="42.584716" lon="-8.645759">
        <ele>27.160</ele>
        <time>2015-03-27T09:25:32Z</time>
      </trkpt>
      <trkpt lat="42.584920" lon="-8.645831">
        <ele>27.143</ele>
        <time>2015-03-27T09:25:37Z</time>
      </trkpt>
      <trkpt lat="42.585607" lon="-8.645803">
        <ele>27.125</ele>
        <time>2015-03-27T09:25:53Z</time>
      </trkpt>
      <trkpt lat="42.585696" lon="-8.645792">
        <ele>27.195</ele>
        <time>2015-03-27T09:25:55Z</time>
      </trkpt>
      <trkpt lat="42.586336" lon="-8.645915">
        <ele>27.123</ele>
        <time>2015-03-27T09:26:10Z</time>
      </trkpt>
      <trkpt lat="42.586419" lon="-8.645911">
        <ele>27.118</ele>
        <time>2015-03-27T09:26:12Z</time>
      </trkpt>
      <trkpt lat="42.586782" lon="-8.645711">
        <ele>28.045</ele>
        <time>2015-03-27T09:26:22Z</time>
      </trkpt>
      <trkpt lat="42.587287" lon="-8.645479">
        <ele>29.059</ele>
        <time>2015-03-27T09:26:36Z</time>
      </trkpt>
      <trkpt lat="42.587787" lon="-8.645349">
        <ele>29.903</ele>
        <time>2015-03-27T09:26:49Z</time>
      </trkpt>
      <trkpt lat="42.588093" lon="-8.645258">
        <ele>29.923</ele>
        <time>2015-03-27T09:26:57Z</time>
      </trkpt>
      <trkpt lat="42.588398" lon="-8.645375">
        <ele>29.907</ele>
        <time>2015-03-27T09:27:05Z</time>
      </trkpt>
      <trkpt lat="42.588978" lon="-8.645396">
        <ele>29.924</ele>
        <time>2015-03-27T09:27:20Z</time>
      </trkpt>
      <trkpt lat="42.589467" lon="-8.645489">
        <ele>29.947</ele>
        <time>2015-03-27T09:27:34Z</time>
      </trkpt>
      <trkpt lat="42.589812" lon="-8.645277">
        <ele>29.959</ele>
        <time>2015-03-27T09:28:30Z</time>
      </trkpt>
      <trkpt lat="42.590174" lon="-8.645067">
        <ele>29.979</ele>
        <time>2015-03-27T09:28:41Z</time>
      </trkpt>
      <trkpt lat="42.590774" lon="-8.644598">
        <ele>30.967</ele>
        <time>2015-03-27T09:29:00Z</time>
      </trkpt>
      <trkpt lat="42.591333" lon="-8.644038">
        <ele>32.362</ele>
        <time>2015-03-27T09:29:19Z</time>
      </trkpt>
      <trkpt lat="42.591807" lon="-8.644006">
        <ele>33.349</ele>
        <time>2015-03-27T09:29:32Z</time>
      </trkpt>
      <trkpt lat="42.592257" lon="-8.644181">
        <ele>34.786</ele>
        <time>2015-03-27T09:29:47Z</time>
      </trkpt>
      <trkpt lat="42.592709" lon="-8.644203">
        <ele>37.260</ele>
        <time>2015-03-27T09:30:05Z</time>
      </trkpt>
      <trkpt lat="42.593145" lon="-8.644050">
        <ele>39.126</ele>
        <time>2015-03-27T09:30:22Z</time>
      </trkpt>
      <trkpt lat="42.593592" lon="-8.643853">
        <ele>41.007</ele>
        <time>2015-03-27T09:30:40Z</time>
      </trkpt>
      <trkpt lat="42.594067" lon="-8.643668">
        <ele>43.437</ele>
        <time>2015-03-27T09:30:59Z</time>
      </trkpt>
      <trkpt lat="42.594555" lon="-8.643538">
        <ele>44.840</ele>
        <time>2015-03-27T09:31:18Z</time>
      </trkpt>
      <trkpt lat="42.595000" lon="-8.643599">
        <ele>46.892</ele>
        <time>2015-03-27T09:31:35Z</time>
      </trkpt>
      <trkpt lat="42.595452" lon="-8.643651">
        <ele>47.262</ele>
        <time>2015-03-27T09:31:48Z</time>
      </trkpt>
      <trkpt lat="42.596011" lon="-8.643648">
        <ele>47.290</ele>
        <time>2015-03-27T09:32:02Z</time>
      </trkpt>
      <trkpt lat="42.596623" lon="-8.643597">
        <ele>44.455</ele>
        <time>2015-03-27T09:32:16Z</time>
      </trkpt>
      <trkpt lat="42.597124" lon="-8.643575">
        <ele>41.542</ele>
        <time>2015-03-27T09:32:23Z</time>
      </trkpt>
      <trkpt lat="42.597698" lon="-8.643547">
        <ele>38.117</ele>
        <time>2015-03-27T09:32:32Z</time>
      </trkpt>
      <trkpt lat="42.597944" lon="-8.643545">
        <ele>37.287</ele>
        <time>2015-03-27T09:32:36Z</time>
      </trkpt>
      <trkpt lat="42.598134" lon="-8.643422">
        <ele>36.715</ele>
        <time>2015-03-27T09:32:40Z</time>
      </trkpt>
      <trkpt lat="42.598380" lon="-8.643311">
        <ele>36.207</ele>
        <time>2015-03-27T09:32:45Z</time>
      </trkpt>
      <trkpt lat="42.598596" lon="-8.643289">
        <ele>35.210</ele>
        <time>2015-03-27T09:32:49Z</time>
      </trkpt>
      <trkpt lat="42.599229" lon="-8.643266">
        <ele>33.863</ele>
        <time>2015-03-27T09:33:03Z</time>
      </trkpt>
      <trkpt lat="42.599699" lon="-8.643082">
        <ele>32.825</ele>
        <time>2015-03-27T09:33:15Z</time>
      </trkpt>
      <trkpt lat="42.599868" lon="-8.642886">
        <ele>32.825</ele>
        <time>2015-03-27T09:33:22Z</time>
      </trkpt>
      <trkpt lat="42.600010" lon="-8.642797">
        <ele>31.953</ele>
        <time>2015-03-27T09:33:31Z</time>
      </trkpt>
      <trkpt lat="42.600142" lon="-8.642812">
        <ele>31.978</ele>
        <time>2015-03-27T09:34:19Z</time>
      </trkpt>
      <trkpt lat="42.600290" lon="-8.642834">
        <ele>31.415</ele>
        <time>2015-03-27T09:34:23Z</time>
      </trkpt>
      <trkpt lat="42.600389" lon="-8.642982">
        <ele>30.446</ele>
        <time>2015-03-27T09:34:27Z</time>
      </trkpt>
      <trkpt lat="42.600519" lon="-8.643084">
        <ele>29.988</ele>
        <time>2015-03-27T09:34:31Z</time>
      </trkpt>
      <trkpt lat="42.600711" lon="-8.643032">
        <ele>29.516</ele>
        <time>2015-03-27T09:34:35Z</time>
      </trkpt>
      <trkpt lat="42.600999" lon="-8.642969">
        <ele>28.007</ele>
        <time>2015-03-27T09:34:40Z</time>
      </trkpt>
      <trkpt lat="42.601238" lon="-8.642956">
        <ele>26.613</ele>
        <time>2015-03-27T09:34:44Z</time>
      </trkpt>
      <trkpt lat="42.601320" lon="-8.642976">
        <ele>26.676</ele>
        <time>2015-03-27T09:34:46Z</time>
      </trkpt>
      <trkpt lat="42.601594" lon="-8.642754">
        <ele>26.188</ele>
        <time>2015-03-27T09:34:59Z</time>
      </trkpt>
      <trkpt lat="42.601711" lon="-8.642695">
        <ele>26.158</ele>
        <time>2015-03-27T09:35:07Z</time>
      </trkpt>
      <trkpt lat="42.602023" lon="-8.642639">
        <ele>24.796</ele>
        <time>2015-03-27T09:35:18Z</time>
      </trkpt>
      <trkpt lat="42.602424" lon="-8.642541">
        <ele>24.711</ele>
        <time>2015-03-27T09:35:28Z</time>
      </trkpt>
      <trkpt lat="42.602757" lon="-8.642446">
        <ele>26.148</ele>
        <time>2015-03-27T09:35:37Z</time>
      </trkpt>
      <trkpt lat="42.603366" lon="-8.642328">
        <ele>25.165</ele>
        <time>2015-03-27T09:35:55Z</time>
      </trkpt>
      <trkpt lat="42.603440" lon="-8.642311">
        <ele>25.168</ele>
        <time>2015-03-27T09:35:58Z</time>
      </trkpt>
      <trkpt lat="42.603626" lon="-8.642727">
        <ele>23.714</ele>
        <time>2015-03-27T09:36:11Z</time>
      </trkpt>
      <trkpt lat="42.603690" lon="-8.642945">
        <ele>23.207</ele>
        <time>2015-03-27T09:36:18Z</time>
      </trkpt>
      <trkpt lat="42.603664" lon="-8.643006">
        <ele>22.795</ele>
        <time>2015-03-27T09:50:21Z</time>
      </trkpt>
      <trkpt lat="42.603735" lon="-8.643100">
        <ele>22.748</ele>
        <time>2015-03-27T09:50:37Z</time>
      </trkpt>
      <trkpt lat="42.603798" lon="-8.643135">
        <ele>22.770</ele>
        <time>2015-03-27T09:51:12Z</time>
      </trkpt>
      <trkpt lat="42.603959" lon="-8.643199">
        <ele>22.710</ele>
        <time>2015-03-27T09:51:31Z</time>
      </trkpt>
      <trkpt lat="42.604151" lon="-8.643393">
        <ele>22.748</ele>
        <time>2015-03-27T09:52:23Z</time>
      </trkpt>
      <trkpt lat="42.604338" lon="-8.643656">
        <ele>22.763</ele>
        <time>2015-03-27T09:52:36Z</time>
      </trkpt>
      <trkpt lat="42.604409" lon="-8.643708">
        <ele>22.750</ele>
        <time>2015-03-27T09:52:40Z</time>
      </trkpt>
      <trkpt lat="42.604711" lon="-8.643972">
        <ele>23.747</ele>
        <time>2015-03-27T09:52:54Z</time>
      </trkpt>
      <trkpt lat="42.604936" lon="-8.644193">
        <ele>24.229</ele>
        <time>2015-03-27T09:53:05Z</time>
      </trkpt>
      <trkpt lat="42.605070" lon="-8.644326">
        <ele>24.721</ele>
        <time>2015-03-27T09:53:16Z</time>
      </trkpt>
      <trkpt lat="42.605436" lon="-8.644662">
        <ele>24.707</ele>
        <time>2015-03-27T09:53:30Z</time>
      </trkpt>
      <trkpt lat="42.605743" lon="-8.644935">
        <ele>25.663</ele>
        <time>2015-03-27T09:53:43Z</time>
      </trkpt>
      <trkpt lat="42.605803" lon="-8.645048">
        <ele>26.136</ele>
        <time>2015-03-27T09:53:53Z</time>
      </trkpt>
      <trkpt lat="42.605987" lon="-8.645177">
        <ele>27.148</ele>
        <time>2015-03-27T09:54:06Z</time>
      </trkpt>
      <trkpt lat="42.605975" lon="-8.645269">
        <ele>25.638</ele>
        <time>2015-03-27T09:54:11Z</time>
      </trkpt>
      <trkpt lat="42.605869" lon="-8.645384">
        <ele>25.636</ele>
        <time>2015-03-27T09:54:18Z</time>
      </trkpt>
      <trkpt lat="42.605813" lon="-8.645365">
        <ele>25.631</ele>
        <time>2015-03-27T09:54:28Z</time>
      </trkpt>
      <trkpt lat="42.605728" lon="-8.645231">
        <ele>25.628</ele>
        <time>2015-03-27T09:54:46Z</time>
      </trkpt>
      <trkpt lat="42.605757" lon="-8.645353">
        <ele>25.157</ele>
        <time>2015-03-27T09:56:11Z</time>
      </trkpt>
      <trkpt lat="42.605814" lon="-8.645449">
        <ele>25.100</ele>
        <time>2015-03-27T09:56:17Z</time>
      </trkpt>
      <trkpt lat="42.605883" lon="-8.645388">
        <ele>25.620</ele>
        <time>2015-03-27T10:02:45Z</time>
      </trkpt>
      <trkpt lat="42.606142" lon="-8.645345">
        <ele>25.607</ele>
        <time>2015-03-27T10:02:57Z</time>
      </trkpt>
      <trkpt lat="42.606405" lon="-8.645449">
        <ele>25.654</ele>
        <time>2015-03-27T10:03:09Z</time>
      </trkpt>
      <trkpt lat="42.606765" lon="-8.645453">
        <ele>25.667</ele>
        <time>2015-03-27T10:03:22Z</time>
      </trkpt>
      <trkpt lat="42.607172" lon="-8.645470">
        <ele>27.559</ele>
        <time>2015-03-27T10:03:35Z</time>
      </trkpt>
      <trkpt lat="42.607468" lon="-8.645456">
        <ele>28.019</ele>
        <time>2015-03-27T10:03:45Z</time>
      </trkpt>
      <trkpt lat="42.607625" lon="-8.645466">
        <ele>28.567</ele>
        <time>2015-03-27T10:03:51Z</time>
      </trkpt>
      <trkpt lat="42.607706" lon="-8.645532">
        <ele>28.532</ele>
        <time>2015-03-27T10:03:55Z</time>
      </trkpt>
      <trkpt lat="42.608072" lon="-8.645550">
        <ele>29.929</ele>
        <time>2015-03-27T10:04:08Z</time>
      </trkpt>
      <trkpt lat="42.608212" lon="-8.645348">
        <ele>30.493</ele>
        <time>2015-03-27T10:04:18Z</time>
      </trkpt>
      <trkpt lat="42.608376" lon="-8.645178">
        <ele>30.965</ele>
        <time>2015-03-27T10:04:28Z</time>
      </trkpt>
      <trkpt lat="42.608742" lon="-8.645089">
        <ele>32.821</ele>
        <time>2015-03-27T10:04:44Z</time>
      </trkpt>
      <trkpt lat="42.609138" lon="-8.645023">
        <ele>35.207</ele>
        <time>2015-03-27T10:05:03Z</time>
      </trkpt>
      <trkpt lat="42.609544" lon="-8.644862">
        <ele>38.638</ele>
        <time>2015-03-27T10:05:23Z</time>
      </trkpt>
      <trkpt lat="42.609874" lon="-8.644603">
        <ele>37.681</ele>
        <time>2015-03-27T10:05:33Z</time>
      </trkpt>
      <trkpt lat="42.610049" lon="-8.644460">
        <ele>36.283</ele>
        <time>2015-03-27T10:05:37Z</time>
      </trkpt>
      <trkpt lat="42.610252" lon="-8.644402">
        <ele>35.713</ele>
        <time>2015-03-27T10:05:41Z</time>
      </trkpt>
      <trkpt lat="42.611011" lon="-8.644480">
        <ele>34.741</ele>
        <time>2015-03-27T10:05:57Z</time>
      </trkpt>
      <trkpt lat="42.611497" lon="-8.644227">
        <ele>34.316</ele>
        <time>2015-03-27T10:06:11Z</time>
      </trkpt>
      <trkpt lat="42.612056" lon="-8.644140">
        <ele>34.333</ele>
        <time>2015-03-27T10:06:26Z</time>
      </trkpt>
      <trkpt lat="42.612459" lon="-8.644298">
        <ele>35.741</ele>
        <time>2015-03-27T10:06:38Z</time>
      </trkpt>
      <trkpt lat="42.612974" lon="-8.644496">
        <ele>36.281</ele>
        <time>2015-03-27T10:06:59Z</time>
      </trkpt>
      <trkpt lat="42.613322" lon="-8.644678">
        <ele>37.609</ele>
        <time>2015-03-27T10:07:15Z</time>
      </trkpt>
      <trkpt lat="42.613531" lon="-8.644778">
        <ele>39.607</ele>
        <time>2015-03-27T10:07:26Z</time>
      </trkpt>
      <trkpt lat="42.613812" lon="-8.644845">
        <ele>42.013</ele>
        <time>2015-03-27T10:07:42Z</time>
      </trkpt>
      <trkpt lat="42.614003" lon="-8.644804">
        <ele>45.376</ele>
        <time>2015-03-27T10:07:55Z</time>
      </trkpt>
      <trkpt lat="42.614061" lon="-8.644786">
        <ele>44.858</ele>
        <time>2015-03-27T10:08:07Z</time>
      </trkpt>
      <trkpt lat="42.614379" lon="-8.644719">
        <ele>44.888</ele>
        <time>2015-03-27T10:08:21Z</time>
      </trkpt>
      <trkpt lat="42.614739" lon="-8.644663">
        <ele>44.816</ele>
        <time>2015-03-27T10:08:37Z</time>
      </trkpt>
      <trkpt lat="42.615314" lon="-8.644576">
        <ele>43.451</ele>
        <time>2015-03-27T10:08:53Z</time>
      </trkpt>
      <trkpt lat="42.615940" lon="-8.644505">
        <ele>42.918</ele>
        <time>2015-03-27T10:09:09Z</time>
      </trkpt>
      <trkpt lat="42.616342" lon="-8.644609">
        <ele>44.812</ele>
        <time>2015-03-27T10:09:21Z</time>
      </trkpt>
      <trkpt lat="42.616919" lon="-8.644764">
        <ele>44.832</ele>
        <time>2015-03-27T10:09:37Z</time>
      </trkpt>
      <trkpt lat="42.617562" lon="-8.644679">
        <ele>44.805</ele>
        <time>2015-03-27T10:09:54Z</time>
      </trkpt>
      <trkpt lat="42.618222" lon="-8.644602">
        <ele>46.307</ele>
        <time>2015-03-27T10:10:12Z</time>
      </trkpt>
      <trkpt lat="42.618552" lon="-8.644631">
        <ele>47.730</ele>
        <time>2015-03-27T10:10:24Z</time>
      </trkpt>
      <trkpt lat="42.618882" lon="-8.644601">
        <ele>49.293</ele>
        <time>2015-03-27T10:10:38Z</time>
      </trkpt>
      <trkpt lat="42.619220" lon="-8.644720">
        <ele>49.785</ele>
        <time>2015-03-27T10:10:51Z</time>
      </trkpt>
      <trkpt lat="42.619737" lon="-8.644565">
        <ele>50.145</ele>
        <time>2015-03-27T10:11:07Z</time>
      </trkpt>
      <trkpt lat="42.620110" lon="-8.644366">
        <ele>50.123</ele>
        <time>2015-03-27T10:11:18Z</time>
      </trkpt>
      <trkpt lat="42.620549" lon="-8.644317">
        <ele>50.618</ele>
        <time>2015-03-27T10:11:31Z</time>
      </trkpt>
      <trkpt lat="42.620879" lon="-8.644186">
        <ele>50.645</ele>
        <time>2015-03-27T10:11:42Z</time>
      </trkpt>
      <trkpt lat="42.621198" lon="-8.643990">
        <ele>51.159</ele>
        <time>2015-03-27T10:11:52Z</time>
      </trkpt>
      <trkpt lat="42.621599" lon="-8.643752">
        <ele>52.103</ele>
        <time>2015-03-27T10:12:04Z</time>
      </trkpt>
      <trkpt lat="42.622036" lon="-8.643532">
        <ele>53.023</ele>
        <time>2015-03-27T10:12:17Z</time>
      </trkpt>
      <trkpt lat="42.622455" lon="-8.643475">
        <ele>54.007</ele>
        <time>2015-03-27T10:12:30Z</time>
      </trkpt>
      <trkpt lat="42.622817" lon="-8.643402">
        <ele>54.014</ele>
        <time>2015-03-27T10:12:40Z</time>
      </trkpt>
      <trkpt lat="42.623255" lon="-8.643555">
        <ele>54.047</ele>
        <time>2015-03-27T10:12:53Z</time>
      </trkpt>
      <trkpt lat="42.623781" lon="-8.643788">
        <ele>54.549</ele>
        <time>2015-03-27T10:13:07Z</time>
      </trkpt>
      <trkpt lat="42.624080" lon="-8.643782">
        <ele>54.529</ele>
        <time>2015-03-27T10:13:19Z</time>
      </trkpt>
      <trkpt lat="42.624140" lon="-8.643781">
        <ele>54.967</ele>
        <time>2015-03-27T10:13:43Z</time>
      </trkpt>
      <trkpt lat="42.624466" lon="-8.643813">
        <ele>55.982</ele>
        <time>2015-03-27T10:13:55Z</time>
      </trkpt>
      <trkpt lat="42.624959" lon="-8.643916">
        <ele>56.419</ele>
        <time>2015-03-27T10:14:09Z</time>
      </trkpt>
      <trkpt lat="42.625515" lon="-8.643891">
        <ele>57.316</ele>
        <time>2015-03-27T10:14:25Z</time>
      </trkpt>
      <trkpt lat="42.625772" lon="-8.643997">
        <ele>59.376</ele>
        <time>2015-03-27T10:14:37Z</time>
      </trkpt>
      <trkpt lat="42.625961" lon="-8.644180">
        <ele>62.113</ele>
        <time>2015-03-27T10:14:52Z</time>
      </trkpt>
      <trkpt lat="42.626270" lon="-8.644507">
        <ele>61.207</ele>
        <time>2015-03-27T10:15:03Z</time>
      </trkpt>
      <trkpt lat="42.626346" lon="-8.644589">
        <ele>61.280</ele>
        <time>2015-03-27T10:15:05Z</time>
      </trkpt>
      <trkpt lat="42.626847" lon="-8.644814">
        <ele>61.293</ele>
        <time>2015-03-27T10:15:19Z</time>
      </trkpt>
      <trkpt lat="42.627353" lon="-8.644948">
        <ele>61.275</ele>
        <time>2015-03-27T10:15:33Z</time>
      </trkpt>
      <trkpt lat="42.627427" lon="-8.644968">
        <ele>62.645</ele>
        <time>2015-03-27T10:15:35Z</time>
      </trkpt>
      <trkpt lat="42.627882" lon="-8.645109">
        <ele>63.633</ele>
        <time>2015-03-27T10:15:48Z</time>
      </trkpt>
      <trkpt lat="42.628457" lon="-8.645081">
        <ele>64.118</ele>
        <time>2015-03-27T10:16:04Z</time>
      </trkpt>
      <trkpt lat="42.629011" lon="-8.645025">
        <ele>65.545</ele>
        <time>2015-03-27T10:16:19Z</time>
      </trkpt>
      <trkpt lat="42.629469" lon="-8.645010">
        <ele>66.593</ele>
        <time>2015-03-27T10:16:31Z</time>
      </trkpt>
      <trkpt lat="42.629913" lon="-8.644937">
        <ele>66.565</ele>
        <time>2015-03-27T10:16:43Z</time>
      </trkpt>
      <trkpt lat="42.630438" lon="-8.644791">
        <ele>64.621</ele>
        <time>2015-03-27T10:16:55Z</time>
      </trkpt>
      <trkpt lat="42.630657" lon="-8.644713">
        <ele>65.007</ele>
        <time>2015-03-27T10:17:04Z</time>
      </trkpt>
      <trkpt lat="42.631131" lon="-8.644560">
        <ele>65.028</ele>
        <time>2015-03-27T10:17:17Z</time>
      </trkpt>
      <trkpt lat="42.631429" lon="-8.644561">
        <ele>65.061</ele>
        <time>2015-03-27T10:17:27Z</time>
      </trkpt>
      <trkpt lat="42.631478" lon="-8.644554">
        <ele>66.013</ele>
        <time>2015-03-27T10:17:29Z</time>
      </trkpt>
      <trkpt lat="42.631887" lon="-8.644543">
        <ele>67.973</ele>
        <time>2015-03-27T10:17:45Z</time>
      </trkpt>
      <trkpt lat="42.632244" lon="-8.644969">
        <ele>70.371</ele>
        <time>2015-03-27T10:18:05Z</time>
      </trkpt>
      <trkpt lat="42.632479" lon="-8.645198">
        <ele>72.236</ele>
        <time>2015-03-27T10:18:19Z</time>
      </trkpt>
      <trkpt lat="42.632693" lon="-8.645227">
        <ele>73.763</ele>
        <time>2015-03-27T10:18:30Z</time>
      </trkpt>
      <trkpt lat="42.633049" lon="-8.645243">
        <ele>75.182</ele>
        <time>2015-03-27T10:18:45Z</time>
      </trkpt>
      <trkpt lat="42.633333" lon="-8.645156">
        <ele>76.143</ele>
        <time>2015-03-27T10:18:57Z</time>
      </trkpt>
      <trkpt lat="42.633567" lon="-8.645079">
        <ele>76.617</ele>
        <time>2015-03-27T10:19:32Z</time>
      </trkpt>
      <trkpt lat="42.633912" lon="-8.645010">
        <ele>76.607</ele>
        <time>2015-03-27T10:19:46Z</time>
      </trkpt>
      <trkpt lat="42.634225" lon="-8.644943">
        <ele>76.687</ele>
        <time>2015-03-27T10:19:57Z</time>
      </trkpt>
      <trkpt lat="42.634365" lon="-8.644912">
        <ele>76.630</ele>
        <time>2015-03-27T10:20:02Z</time>
      </trkpt>
      <trkpt lat="42.634752" lon="-8.644792">
        <ele>77.022</ele>
        <time>2015-03-27T10:20:14Z</time>
      </trkpt>
      <trkpt lat="42.635187" lon="-8.644786">
        <ele>77.032</ele>
        <time>2015-03-27T10:20:26Z</time>
      </trkpt>
      <trkpt lat="42.635311" lon="-8.644801">
        <ele>76.110</ele>
        <time>2015-03-27T10:20:29Z</time>
      </trkpt>
      <trkpt lat="42.635716" lon="-8.644808">
        <ele>76.185</ele>
        <time>2015-03-27T10:20:40Z</time>
      </trkpt>
      <trkpt lat="42.636127" lon="-8.644782">
        <ele>77.562</ele>
        <time>2015-03-27T10:20:51Z</time>
      </trkpt>
      <trkpt lat="42.636415" lon="-8.644795">
        <ele>76.635</ele>
        <time>2015-03-27T10:20:58Z</time>
      </trkpt>
      <trkpt lat="42.636941" lon="-8.644828">
        <ele>76.686</ele>
        <time>2015-03-27T10:21:13Z</time>
      </trkpt>
      <trkpt lat="42.637266" lon="-8.644646">
        <ele>76.614</ele>
        <time>2015-03-27T10:21:27Z</time>
      </trkpt>
      <trkpt lat="42.637601" lon="-8.644646">
        <ele>78.007</ele>
        <time>2015-03-27T10:21:41Z</time>
      </trkpt>
      <trkpt lat="42.638004" lon="-8.644669">
        <ele>79.982</ele>
        <time>2015-03-27T10:21:58Z</time>
      </trkpt>
      <trkpt lat="42.638291" lon="-8.644625">
        <ele>80.455</ele>
        <time>2015-03-27T10:22:11Z</time>
      </trkpt>
      <trkpt lat="42.638638" lon="-8.644505">
        <ele>81.987</ele>
        <time>2015-03-27T10:22:25Z</time>
      </trkpt>
      <trkpt lat="42.638909" lon="-8.644464">
        <ele>83.357</ele>
        <time>2015-03-27T10:22:36Z</time>
      </trkpt>
      <trkpt lat="42.639222" lon="-8.644298">
        <ele>84.335</ele>
        <time>2015-03-27T10:22:48Z</time>
      </trkpt>
      <trkpt lat="42.639595" lon="-8.644099">
        <ele>86.250</ele>
        <time>2015-03-27T10:23:03Z</time>
      </trkpt>
      <trkpt lat="42.639868" lon="-8.643762">
        <ele>85.247</ele>
        <time>2015-03-27T10:23:13Z</time>
      </trkpt>
      <trkpt lat="42.640305" lon="-8.643441">
        <ele>84.792</ele>
        <time>2015-03-27T10:23:26Z</time>
      </trkpt>
      <trkpt lat="42.640614" lon="-8.643311">
        <ele>86.273</ele>
        <time>2015-03-27T10:23:40Z</time>
      </trkpt>
      <trkpt lat="42.640914" lon="-8.643200">
        <ele>87.620</ele>
        <time>2015-03-27T10:23:56Z</time>
      </trkpt>
      <trkpt lat="42.641158" lon="-8.643120">
        <ele>89.507</ele>
        <time>2015-03-27T10:24:11Z</time>
      </trkpt>
      <trkpt lat="42.641349" lon="-8.643071">
        <ele>91.018</ele>
        <time>2015-03-27T10:24:25Z</time>
      </trkpt>
      <trkpt lat="42.641467" lon="-8.643061">
        <ele>92.491</ele>
        <time>2015-03-27T10:24:33Z</time>
      </trkpt>
      <trkpt lat="42.641720" lon="-8.642971">
        <ele>95.833</ele>
        <time>2015-03-27T10:24:50Z</time>
      </trkpt>
      <trkpt lat="42.641907" lon="-8.642975">
        <ele>99.213</ele>
        <time>2015-03-27T10:25:05Z</time>
      </trkpt>
      <trkpt lat="42.641971" lon="-8.643014">
        <ele>100.151</ele>
        <time>2015-03-27T10:25:11Z</time>
      </trkpt>
      <trkpt lat="42.642124" lon="-8.643042">
        <ele>104.086</ele>
        <time>2015-03-27T10:25:25Z</time>
      </trkpt>
      <trkpt lat="42.642325" lon="-8.643041">
        <ele>105.493</ele>
        <time>2015-03-27T10:25:40Z</time>
      </trkpt>
      <trkpt lat="42.642550" lon="-8.643051">
        <ele>106.863</ele>
        <time>2015-03-27T10:25:55Z</time>
      </trkpt>
      <trkpt lat="42.642728" lon="-8.643249">
        <ele>108.344</ele>
        <time>2015-03-27T10:26:08Z</time>
      </trkpt>
      <trkpt lat="42.642989" lon="-8.643393">
        <ele>110.218</ele>
        <time>2015-03-27T10:26:24Z</time>
      </trkpt>
      <trkpt lat="42.643212" lon="-8.643394">
        <ele>113.107</ele>
        <time>2015-03-27T10:26:38Z</time>
      </trkpt>
      <trkpt lat="42.643453" lon="-8.643420">
        <ele>116.525</ele>
        <time>2015-03-27T10:26:52Z</time>
      </trkpt>
      <trkpt lat="42.643715" lon="-8.643369">
        <ele>117.438</ele>
        <time>2015-03-27T10:27:06Z</time>
      </trkpt>
      <trkpt lat="42.644039" lon="-8.643259">
        <ele>119.350</ele>
        <time>2015-03-27T10:27:23Z</time>
      </trkpt>
      <trkpt lat="42.644370" lon="-8.643185">
        <ele>120.370</ele>
        <time>2015-03-27T10:27:40Z</time>
      </trkpt>
      <trkpt lat="42.644662" lon="-8.643185">
        <ele>122.768</ele>
        <time>2015-03-27T10:27:56Z</time>
      </trkpt>
      <trkpt lat="42.644915" lon="-8.643299">
        <ele>125.163</ele>
        <time>2015-03-27T10:28:12Z</time>
      </trkpt>
      <trkpt lat="42.645078" lon="-8.643390">
        <ele>128.010</ele>
        <time>2015-03-27T10:28:25Z</time>
      </trkpt>
      <trkpt lat="42.645257" lon="-8.643426">
        <ele>130.461</ele>
        <time>2015-03-27T10:28:39Z</time>
      </trkpt>
      <trkpt lat="42.645636" lon="-8.643471">
        <ele>132.321</ele>
        <time>2015-03-27T10:28:59Z</time>
      </trkpt>
      <trkpt lat="42.645975" lon="-8.643586">
        <ele>132.313</ele>
        <time>2015-03-27T10:29:13Z</time>
      </trkpt>
      <trkpt lat="42.646542" lon="-8.643606">
        <ele>132.307</ele>
        <time>2015-03-27T10:29:29Z</time>
      </trkpt>
      <trkpt lat="42.647111" lon="-8.643814">
        <ele>132.835</ele>
        <time>2015-03-27T10:29:45Z</time>
      </trkpt>
      <trkpt lat="42.647485" lon="-8.644317">
        <ele>133.868</ele>
        <time>2015-03-27T10:29:59Z</time>
      </trkpt>
      <trkpt lat="42.647892" lon="-8.644612">
        <ele>135.790</ele>
        <time>2015-03-27T10:30:13Z</time>
      </trkpt>
      <trkpt lat="42.648365" lon="-8.644727">
        <ele>137.160</ele>
        <time>2015-03-27T10:30:31Z</time>
      </trkpt>
      <trkpt lat="42.648667" lon="-8.644861">
        <ele>138.158</ele>
        <time>2015-03-27T10:30:46Z</time>
      </trkpt>
      <trkpt lat="42.649062" lon="-8.644948">
        <ele>140.573</ele>
        <time>2015-03-27T10:31:03Z</time>
      </trkpt>
      <trkpt lat="42.649379" lon="-8.645125">
        <ele>141.970</ele>
        <time>2015-03-27T10:31:19Z</time>
      </trkpt>
      <trkpt lat="42.649410" lon="-8.645187">
        <ele>141.932</ele>
        <time>2015-03-27T10:31:22Z</time>
      </trkpt>
      <trkpt lat="42.649343" lon="-8.645259">
        <ele>141.992</ele>
        <time>2015-03-27T10:31:59Z</time>
      </trkpt>
      <trkpt lat="42.649362" lon="-8.645585">
        <ele>142.911</ele>
        <time>2015-03-27T10:32:26Z</time>
      </trkpt>
      <trkpt lat="42.649574" lon="-8.645987">
        <ele>145.307</ele>
        <time>2015-03-27T10:32:41Z</time>
      </trkpt>
      <trkpt lat="42.649838" lon="-8.646238">
        <ele>145.842</ele>
        <time>2015-03-27T10:32:54Z</time>
      </trkpt>
      <trkpt lat="42.650167" lon="-8.646637">
        <ele>146.365</ele>
        <time>2015-03-27T10:33:07Z</time>
      </trkpt>
      <trkpt lat="42.650493" lon="-8.646799">
        <ele>147.237</ele>
        <time>2015-03-27T10:33:18Z</time>
      </trkpt>
      <trkpt lat="42.650606" lon="-8.646880">
        <ele>147.777</ele>
        <time>2015-03-27T10:33:22Z</time>
      </trkpt>
      <trkpt lat="42.650798" lon="-8.646760">
        <ele>148.255</ele>
        <time>2015-03-27T10:33:29Z</time>
      </trkpt>
      <trkpt lat="42.650919" lon="-8.646396">
        <ele>148.780</ele>
        <time>2015-03-27T10:33:37Z</time>
      </trkpt>
      <trkpt lat="42.651101" lon="-8.646332">
        <ele>148.767</ele>
        <time>2015-03-27T10:33:43Z</time>
      </trkpt>
      <trkpt lat="42.651208" lon="-8.646330">
        <ele>148.787</ele>
        <time>2015-03-27T10:33:54Z</time>
      </trkpt>
      <trkpt lat="42.651331" lon="-8.646356">
        <ele>148.742</ele>
        <time>2015-03-27T10:34:18Z</time>
      </trkpt>
      <trkpt lat="42.651571" lon="-8.646407">
        <ele>149.626</ele>
        <time>2015-03-27T10:34:26Z</time>
      </trkpt>
      <trkpt lat="42.651709" lon="-8.646303">
        <ele>149.607</ele>
        <time>2015-03-27T10:34:30Z</time>
      </trkpt>
      <trkpt lat="42.651993" lon="-8.645819">
        <ele>149.617</ele>
        <time>2015-03-27T10:34:44Z</time>
      </trkpt>
      <trkpt lat="42.652322" lon="-8.645470">
        <ele>152.510</ele>
        <time>2015-03-27T10:35:01Z</time>
      </trkpt>
      <trkpt lat="42.652547" lon="-8.645395">
        <ele>155.492</ele>
        <time>2015-03-27T10:35:14Z</time>
      </trkpt>
      <trkpt lat="42.652766" lon="-8.645164">
        <ele>157.842</ele>
        <time>2015-03-27T10:35:29Z</time>
      </trkpt>
      <trkpt lat="42.653097" lon="-8.644867">
        <ele>160.720</ele>
        <time>2015-03-27T10:35:50Z</time>
      </trkpt>
      <trkpt lat="42.653393" lon="-8.644630">
        <ele>162.685</ele>
        <time>2015-03-27T10:36:06Z</time>
      </trkpt>
      <trkpt lat="42.653696" lon="-8.644278">
        <ele>164.572</ele>
        <time>2015-03-27T10:36:23Z</time>
      </trkpt>
      <trkpt lat="42.653967" lon="-8.644208">
        <ele>166.598</ele>
        <time>2015-03-27T10:36:37Z</time>
      </trkpt>
      <trkpt lat="42.654374" lon="-8.644130">
        <ele>167.415</ele>
        <time>2015-03-27T10:36:53Z</time>
      </trkpt>
      <trkpt lat="42.654634" lon="-8.643936">
        <ele>167.926</ele>
        <time>2015-03-27T10:37:01Z</time>
      </trkpt>
      <trkpt lat="42.654744" lon="-8.643651">
        <ele>166.007</ele>
        <time>2015-03-27T10:37:06Z</time>
      </trkpt>
      <trkpt lat="42.654775" lon="-8.643362">
        <ele>166.058</ele>
        <time>2015-03-27T10:37:10Z</time>
      </trkpt>
      <trkpt lat="42.654864" lon="-8.643153">
        <ele>166.011</ele>
        <time>2015-03-27T10:37:14Z</time>
      </trkpt>
      <trkpt lat="42.655153" lon="-8.643007">
        <ele>167.453</ele>
        <time>2015-03-27T10:37:26Z</time>
      </trkpt>
      <trkpt lat="42.655452" lon="-8.643080">
        <ele>169.853</ele>
        <time>2015-03-27T10:37:39Z</time>
      </trkpt>
      <trkpt lat="42.655498" lon="-8.642943">
        <ele>169.841</ele>
        <time>2015-03-27T10:37:43Z</time>
      </trkpt>
      <trkpt lat="42.655528" lon="-8.642576">
        <ele>169.816</ele>
        <time>2015-03-27T10:37:50Z</time>
      </trkpt>
      <trkpt lat="42.655540" lon="-8.642446">
        <ele>169.863</ele>
        <time>2015-03-27T10:37:52Z</time>
      </trkpt>
      <trkpt lat="42.655585" lon="-8.642328">
        <ele>168.471</ele>
        <time>2015-03-27T10:37:54Z</time>
      </trkpt>
      <trkpt lat="42.655912" lon="-8.642116">
        <ele>167.941</ele>
        <time>2015-03-27T10:38:02Z</time>
      </trkpt>
      <trkpt lat="42.656216" lon="-8.642333">
        <ele>167.415</ele>
        <time>2015-03-27T10:38:10Z</time>
      </trkpt>
      <trkpt lat="42.656900" lon="-8.642595">
        <ele>166.907</ele>
        <time>2015-03-27T10:38:26Z</time>
      </trkpt>
      <trkpt lat="42.656984" lon="-8.642630">
        <ele>166.996</ele>
        <time>2015-03-27T10:38:28Z</time>
      </trkpt>
      <trkpt lat="42.657205" lon="-8.642804">
        <ele>166.999</ele>
        <time>2015-03-27T10:38:34Z</time>
      </trkpt>
      <trkpt lat="42.657409" lon="-8.642694">
        <ele>166.971</ele>
        <time>2015-03-27T10:38:40Z</time>
      </trkpt>
      <trkpt lat="42.657533" lon="-8.642446">
        <ele>166.961</ele>
        <time>2015-03-27T10:38:45Z</time>
      </trkpt>
      <trkpt lat="42.657611" lon="-8.642224">
        <ele>166.989</ele>
        <time>2015-03-27T10:38:49Z</time>
      </trkpt>
      <trkpt lat="42.657941" lon="-8.641514">
        <ele>166.064</ele>
        <time>2015-03-27T10:39:02Z</time>
      </trkpt>
      <trkpt lat="42.657988" lon="-8.641307">
        <ele>165.521</ele>
        <time>2015-03-27T10:39:05Z</time>
      </trkpt>
      <trkpt lat="42.658002" lon="-8.641169">
        <ele>165.516</ele>
        <time>2015-03-27T10:39:07Z</time>
      </trkpt>
      <trkpt lat="42.658035" lon="-8.640911">
        <ele>165.576</ele>
        <time>2015-03-27T10:39:11Z</time>
      </trkpt>
      <trkpt lat="42.658065" lon="-8.640683">
        <ele>165.513</ele>
        <time>2015-03-27T10:39:15Z</time>
      </trkpt>
      <trkpt lat="42.658132" lon="-8.640277">
        <ele>165.007</ele>
        <time>2015-03-27T10:39:22Z</time>
      </trkpt>
      <trkpt lat="42.658339" lon="-8.639971">
        <ele>162.680</ele>
        <time>2015-03-27T10:39:28Z</time>
      </trkpt>
      <trkpt lat="42.658463" lon="-8.639922">
        <ele>162.153</ele>
        <time>2015-03-27T10:39:30Z</time>
      </trkpt>
      <trkpt lat="42.658678" lon="-8.639525">
        <ele>158.895</ele>
        <time>2015-03-27T10:39:35Z</time>
      </trkpt>
      <trkpt lat="42.658527" lon="-8.639127">
        <ele>155.935</ele>
        <time>2015-03-27T10:39:40Z</time>
      </trkpt>
      <trkpt lat="42.658407" lon="-8.639044">
        <ele>155.423</ele>
        <time>2015-03-27T10:39:42Z</time>
      </trkpt>
      <trkpt lat="42.658235" lon="-8.638786">
        <ele>154.928</ele>
        <time>2015-03-27T10:39:46Z</time>
      </trkpt>
      <trkpt lat="42.658134" lon="-8.638457">
        <ele>154.085</ele>
        <time>2015-03-27T10:39:50Z</time>
      </trkpt>
      <trkpt lat="42.658088" lon="-8.638310">
        <ele>153.573</ele>
        <time>2015-03-27T10:39:52Z</time>
      </trkpt>
      <trkpt lat="42.658153" lon="-8.637856">
        <ele>153.585</ele>
        <time>2015-03-27T10:40:01Z</time>
      </trkpt>
      <trkpt lat="42.658242" lon="-8.637818">
        <ele>153.513</ele>
        <time>2015-03-27T10:40:03Z</time>
      </trkpt>
      <trkpt lat="42.658430" lon="-8.637590">
        <ele>153.507</ele>
        <time>2015-03-27T10:40:09Z</time>
      </trkpt>
      <trkpt lat="42.658498" lon="-8.637005">
        <ele>153.546</ele>
        <time>2015-03-27T10:40:19Z</time>
      </trkpt>
      <trkpt lat="42.658587" lon="-8.636814">
        <ele>153.539</ele>
        <time>2015-03-27T10:40:23Z</time>
      </trkpt>
      <trkpt lat="42.658711" lon="-8.636660">
        <ele>153.511</ele>
        <time>2015-03-27T10:40:27Z</time>
      </trkpt>
      <trkpt lat="42.658793" lon="-8.636455">
        <ele>153.571</ele>
        <time>2015-03-27T10:40:31Z</time>
      </trkpt>
      <trkpt lat="42.658929" lon="-8.635528">
        <ele>155.469</ele>
        <time>2015-03-27T10:40:47Z</time>
      </trkpt>
      <trkpt lat="42.659067" lon="-8.635344">
        <ele>155.934</ele>
        <time>2015-03-27T10:40:53Z</time>
      </trkpt>
      <trkpt lat="42.659476" lon="-8.635239">
        <ele>157.341</ele>
        <time>2015-03-27T10:41:07Z</time>
      </trkpt>
      <trkpt lat="42.659680" lon="-8.635314">
        <ele>156.848</ele>
        <time>2015-03-27T10:41:17Z</time>
      </trkpt>
      <trkpt lat="42.660043" lon="-8.635585">
        <ele>156.861</ele>
        <time>2015-03-27T10:41:29Z</time>
      </trkpt>
      <trkpt lat="42.660414" lon="-8.635876">
        <ele>157.817</ele>
        <time>2015-03-27T10:41:42Z</time>
      </trkpt>
      <trkpt lat="42.660760" lon="-8.636168">
        <ele>159.207</ele>
        <time>2015-03-27T10:41:56Z</time>
      </trkpt>
      <trkpt lat="42.660863" lon="-8.636247">
        <ele>159.273</ele>
        <time>2015-03-27T10:41:59Z</time>
      </trkpt>
      <trkpt lat="42.661140" lon="-8.636412">
        <ele>159.216</ele>
        <time>2015-03-27T10:42:07Z</time>
      </trkpt>
      <trkpt lat="42.661581" lon="-8.636274">
        <ele>159.288</ele>
        <time>2015-03-27T10:42:20Z</time>
      </trkpt>
      <trkpt lat="42.661754" lon="-8.636020">
        <ele>158.318</ele>
        <time>2015-03-27T10:42:27Z</time>
      </trkpt>
      <trkpt lat="42.661987" lon="-8.635680">
        <ele>155.436</ele>
        <time>2015-03-27T10:42:34Z</time>
      </trkpt>
      <trkpt lat="42.662077" lon="-8.635565">
        <ele>153.531</ele>
        <time>2015-03-27T10:42:36Z</time>
      </trkpt>
      <trkpt lat="42.662386" lon="-8.635301">
        <ele>149.178</ele>
        <time>2015-03-27T10:42:40Z</time>
      </trkpt>
      <trkpt lat="42.662470" lon="-8.635234">
        <ele>147.756</ele>
        <time>2015-03-27T10:42:41Z</time>
      </trkpt>
      <trkpt lat="42.662773" lon="-8.634884">
        <ele>142.459</ele>
        <time>2015-03-27T10:42:45Z</time>
      </trkpt>
      <trkpt lat="42.662936" lon="-8.634680">
        <ele>140.014</ele>
        <time>2015-03-27T10:42:47Z</time>
      </trkpt>
      <trkpt lat="42.663137" lon="-8.634506">
        <ele>139.107</ele>
        <time>2015-03-27T10:42:50Z</time>
      </trkpt>
      <trkpt lat="42.663418" lon="-8.634253">
        <ele>138.674</ele>
        <time>2015-03-27T10:43:00Z</time>
      </trkpt>
      <trkpt lat="42.663865" lon="-8.633918">
        <ele>141.577</ele>
        <time>2015-03-27T10:43:20Z</time>
      </trkpt>
      <trkpt lat="42.664213" lon="-8.633752">
        <ele>142.499</ele>
        <time>2015-03-27T10:43:34Z</time>
      </trkpt>
      <trkpt lat="42.664646" lon="-8.633544">
        <ele>143.429</ele>
        <time>2015-03-27T10:43:47Z</time>
      </trkpt>
      <trkpt lat="42.665217" lon="-8.633352">
        <ele>143.467</ele>
        <time>2015-03-27T10:44:03Z</time>
      </trkpt>
      <trkpt lat="42.665396" lon="-8.633307">
        <ele>142.462</ele>
        <time>2015-03-27T10:44:10Z</time>
      </trkpt>
      <trkpt lat="42.665494" lon="-8.633292">
        <ele>141.999</ele>
        <time>2015-03-27T10:44:24Z</time>
      </trkpt>
      <trkpt lat="42.665706" lon="-8.633238">
        <ele>141.592</ele>
        <time>2015-03-27T10:44:34Z</time>
      </trkpt>
      <trkpt lat="42.666354" lon="-8.633147">
        <ele>140.573</ele>
        <time>2015-03-27T10:44:51Z</time>
      </trkpt>
      <trkpt lat="42.666641" lon="-8.633138">
        <ele>141.920</ele>
        <time>2015-03-27T10:44:59Z</time>
      </trkpt>
      <trkpt lat="42.667152" lon="-8.633131">
        <ele>144.307</ele>
        <time>2015-03-27T10:45:15Z</time>
      </trkpt>
      <trkpt lat="42.667222" lon="-8.633129">
        <ele>144.348</ele>
        <time>2015-03-27T10:45:18Z</time>
      </trkpt>
      <trkpt lat="42.667258" lon="-8.633264">
        <ele>144.341</ele>
        <time>2015-03-27T10:45:23Z</time>
      </trkpt>
      <trkpt lat="42.667194" lon="-8.633764">
        <ele>144.363</ele>
        <time>2015-03-27T10:45:33Z</time>
      </trkpt>
      <trkpt lat="42.667332" lon="-8.633800">
        <ele>144.363</ele>
        <time>2015-03-27T10:45:39Z</time>
      </trkpt>
      <trkpt lat="42.667407" lon="-8.633786">
        <ele>142.911</ele>
        <time>2015-03-27T10:45:41Z</time>
      </trkpt>
      <trkpt lat="42.667733" lon="-8.633815">
        <ele>139.586</ele>
        <time>2015-03-27T10:45:49Z</time>
      </trkpt>
      <trkpt lat="42.667983" lon="-8.633814">
        <ele>138.153</ele>
        <time>2015-03-27T10:46:00Z</time>
      </trkpt>
      <trkpt lat="42.668250" lon="-8.633851">
        <ele>136.693</ele>
        <time>2015-03-27T10:46:10Z</time>
      </trkpt>
      <trkpt lat="42.668843" lon="-8.633840">
        <ele>132.365</ele>
        <time>2015-03-27T10:46:20Z</time>
      </trkpt>
      <trkpt lat="42.669146" lon="-8.633847">
        <ele>130.921</ele>
        <time>2015-03-27T10:46:24Z</time>
      </trkpt>
      <trkpt lat="42.669647" lon="-8.633818">
        <ele>127.007</ele>
        <time>2015-03-27T10:46:30Z</time>
      </trkpt>
      <trkpt lat="42.669736" lon="-8.633806">
        <ele>127.078</ele>
        <time>2015-03-27T10:46:31Z</time>
      </trkpt>
      <trkpt lat="42.670648" lon="-8.633567">
        <ele>123.751</ele>
        <time>2015-03-27T10:46:42Z</time>
      </trkpt>
      <trkpt lat="42.671204" lon="-8.633417">
        <ele>119.823</ele>
        <time>2015-03-27T10:46:49Z</time>
      </trkpt>
      <trkpt lat="42.671393" lon="-8.633370">
        <ele>118.953</ele>
        <time>2015-03-27T10:46:51Z</time>
      </trkpt>
      <trkpt lat="42.672013" lon="-8.633159">
        <ele>115.521</ele>
        <time>2015-03-27T10:46:58Z</time>
      </trkpt>
      <trkpt lat="42.672159" lon="-8.633124">
        <ele>115.526</ele>
        <time>2015-03-27T10:47:00Z</time>
      </trkpt>
      <trkpt lat="42.672396" lon="-8.633025">
        <ele>118.933</ele>
        <time>2015-03-27T10:47:07Z</time>
      </trkpt>
      <trkpt lat="42.672496" lon="-8.633005">
        <ele>120.322</ele>
        <time>2015-03-27T10:47:15Z</time>
      </trkpt>
      <trkpt lat="42.672544" lon="-8.632996">
        <ele>121.362</ele>
        <time>2015-03-27T10:47:19Z</time>
      </trkpt>
      <trkpt lat="42.672850" lon="-8.633022">
        <ele>123.708</ele>
        <time>2015-03-27T10:47:37Z</time>
      </trkpt>
      <trkpt lat="42.673261" lon="-8.633186">
        <ele>124.207</ele>
        <time>2015-03-27T10:47:52Z</time>
      </trkpt>
      <trkpt lat="42.673663" lon="-8.633217">
        <ele>125.151</ele>
        <time>2015-03-27T10:48:04Z</time>
      </trkpt>
      <trkpt lat="42.674167" lon="-8.633227">
        <ele>126.194</ele>
        <time>2015-03-27T10:48:18Z</time>
      </trkpt>
      <trkpt lat="42.674586" lon="-8.633390">
        <ele>128.076</ele>
        <time>2015-03-27T10:48:33Z</time>
      </trkpt>
      <trkpt lat="42.674774" lon="-8.633714">
        <ele>130.976</ele>
        <time>2015-03-27T10:48:44Z</time>
      </trkpt>
      <trkpt lat="42.674826" lon="-8.634281">
        <ele>131.484</ele>
        <time>2015-03-27T10:48:59Z</time>
      </trkpt>
      <trkpt lat="42.674868" lon="-8.634844">
        <ele>133.399</ele>
        <time>2015-03-27T10:49:14Z</time>
      </trkpt>
      <trkpt lat="42.674955" lon="-8.635402">
        <ele>134.716</ele>
        <time>2015-03-27T10:49:28Z</time>
      </trkpt>
      <trkpt lat="42.675056" lon="-8.635866">
        <ele>135.288</ele>
        <time>2015-03-27T10:49:39Z</time>
      </trkpt>
      <trkpt lat="42.675290" lon="-8.636514">
        <ele>136.224</ele>
        <time>2015-03-27T10:49:52Z</time>
      </trkpt>
      <trkpt lat="42.675544" lon="-8.637224">
        <ele>137.626</ele>
        <time>2015-03-27T10:50:06Z</time>
      </trkpt>
      <trkpt lat="42.675631" lon="-8.637405">
        <ele>137.607</ele>
        <time>2015-03-27T10:50:10Z</time>
      </trkpt>
      <trkpt lat="42.676053" lon="-8.638032">
        <ele>138.647</ele>
        <time>2015-03-27T10:50:25Z</time>
      </trkpt>
      <trkpt lat="42.676377" lon="-8.638616">
        <ele>138.610</ele>
        <time>2015-03-27T10:50:41Z</time>
      </trkpt>
      <trkpt lat="42.676466" lon="-8.638633">
        <ele>138.672</ele>
        <time>2015-03-27T10:50:45Z</time>
      </trkpt>
      <trkpt lat="42.676679" lon="-8.638553">
        <ele>138.642</ele>
        <time>2015-03-27T10:50:53Z</time>
      </trkpt>
      <trkpt lat="42.676750" lon="-8.638479">
        <ele>137.110</ele>
        <time>2015-03-27T10:50:55Z</time>
      </trkpt>
      <trkpt lat="42.676917" lon="-8.638237">
        <ele>136.675</ele>
        <time>2015-03-27T10:51:00Z</time>
      </trkpt>
      <trkpt lat="42.677038" lon="-8.637805">
        <ele>134.252</ele>
        <time>2015-03-27T10:51:06Z</time>
      </trkpt>
      <trkpt lat="42.677114" lon="-8.637534">
        <ele>132.346</ele>
        <time>2015-03-27T10:51:09Z</time>
      </trkpt>
      <trkpt lat="42.677181" lon="-8.637365">
        <ele>129.488</ele>
        <time>2015-03-27T10:51:11Z</time>
      </trkpt>
      <trkpt lat="42.677377" lon="-8.637129">
        <ele>125.616</ele>
        <time>2015-03-27T10:51:15Z</time>
      </trkpt>
      <trkpt lat="42.677517" lon="-8.637076">
        <ele>124.207</ele>
        <time>2015-03-27T10:51:17Z</time>
      </trkpt>
      <trkpt lat="42.677872" lon="-8.637110">
        <ele>118.493</ele>
        <time>2015-03-27T10:51:23Z</time>
      </trkpt>
      <trkpt lat="42.678002" lon="-8.637084">
        <ele>116.046</ele>
        <time>2015-03-27T10:51:25Z</time>
      </trkpt>
      <trkpt lat="42.678154" lon="-8.637011">
        <ele>113.698</ele>
        <time>2015-03-27T10:51:28Z</time>
      </trkpt>
      <trkpt lat="42.678202" lon="-8.636988">
        <ele>112.158</ele>
        <time>2015-03-27T10:51:29Z</time>
      </trkpt>
      <trkpt lat="42.678492" lon="-8.636938">
        <ele>108.376</ele>
        <time>2015-03-27T10:51:37Z</time>
      </trkpt>
      <trkpt lat="42.678566" lon="-8.636958">
        <ele>107.391</ele>
        <time>2015-03-27T10:51:39Z</time>
      </trkpt>
      <trkpt lat="42.678785" lon="-8.637242">
        <ele>104.438</ele>
        <time>2015-03-27T10:51:45Z</time>
      </trkpt>
      <trkpt lat="42.678892" lon="-8.637401">
        <ele>102.528</ele>
        <time>2015-03-27T10:51:48Z</time>
      </trkpt>
      <trkpt lat="42.679049" lon="-8.637201">
        <ele>98.789</ele>
        <time>2015-03-27T10:51:55Z</time>
      </trkpt>
      <trkpt lat="42.679155" lon="-8.637282">
        <ele>95.817</ele>
        <time>2015-03-27T10:52:02Z</time>
      </trkpt>
      <trkpt lat="42.679305" lon="-8.637304">
        <ele>92.907</ele>
        <time>2015-03-27T10:52:08Z</time>
      </trkpt>
      <trkpt lat="42.679492" lon="-8.637077">
        <ele>89.141</ele>
        <time>2015-03-27T10:52:15Z</time>
      </trkpt>
      <trkpt lat="42.679664" lon="-8.636993">
        <ele>85.774</ele>
        <time>2015-03-27T10:52:19Z</time>
      </trkpt>
      <trkpt lat="42.679814" lon="-8.636909">
        <ele>83.316</ele>
        <time>2015-03-27T10:52:23Z</time>
      </trkpt>
      <trkpt lat="42.680124" lon="-8.636680">
        <ele>81.426</ele>
        <time>2015-03-27T10:52:36Z</time>
      </trkpt>
      <trkpt lat="42.680351" lon="-8.636353">
        <ele>80.414</ele>
        <time>2015-03-27T10:52:45Z</time>
      </trkpt>
      <trkpt lat="42.680496" lon="-8.636224">
        <ele>78.059</ele>
        <time>2015-03-27T10:52:48Z</time>
      </trkpt>
      <trkpt lat="42.680664" lon="-8.636109">
        <ele>74.646</ele>
        <time>2015-03-27T10:52:52Z</time>
      </trkpt>
      <trkpt lat="42.680900" lon="-8.636129">
        <ele>73.268</ele>
        <time>2015-03-27T10:52:58Z</time>
      </trkpt>
      <trkpt lat="42.681054" lon="-8.636184">
        <ele>73.242</ele>
        <time>2015-03-27T10:53:06Z</time>
      </trkpt>
      <trkpt lat="42.681132" lon="-8.636237">
        <ele>74.626</ele>
        <time>2015-03-27T10:53:12Z</time>
      </trkpt>
      <trkpt lat="42.681195" lon="-8.636292">
        <ele>75.607</ele>
        <time>2015-03-27T10:53:17Z</time>
      </trkpt>
      <trkpt lat="42.681356" lon="-8.636387">
        <ele>76.675</ele>
        <time>2015-03-27T10:53:28Z</time>
      </trkpt>
      <trkpt lat="42.681552" lon="-8.636527">
        <ele>78.568</ele>
        <time>2015-03-27T10:53:43Z</time>
      </trkpt>
      <trkpt lat="42.681775" lon="-8.636633">
        <ele>79.980</ele>
        <time>2015-03-27T10:53:57Z</time>
      </trkpt>
      <trkpt lat="42.681993" lon="-8.636688">
        <ele>79.990</ele>
        <time>2015-03-27T10:54:08Z</time>
      </trkpt>
      <trkpt lat="42.682043" lon="-8.636729">
        <ele>79.978</ele>
        <time>2015-03-27T10:54:12Z</time>
      </trkpt>
      <trkpt lat="42.682231" lon="-8.636874">
        <ele>81.923</ele>
        <time>2015-03-27T10:54:26Z</time>
      </trkpt>
      <trkpt lat="42.682402" lon="-8.637009">
        <ele>85.260</ele>
        <time>2015-03-27T10:54:41Z</time>
      </trkpt>
      <trkpt lat="42.682717" lon="-8.637050">
        <ele>83.357</ele>
        <time>2015-03-27T10:54:55Z</time>
      </trkpt>
      <trkpt lat="42.682904" lon="-8.637099">
        <ele>81.900</ele>
        <time>2015-03-27T10:55:00Z</time>
      </trkpt>
      <trkpt lat="42.682994" lon="-8.637109">
        <ele>80.920</ele>
        <time>2015-03-27T10:55:02Z</time>
      </trkpt>
      <trkpt lat="42.683181" lon="-8.637032">
        <ele>78.507</ele>
        <time>2015-03-27T10:55:06Z</time>
      </trkpt>
      <trkpt lat="42.683447" lon="-8.636756">
        <ele>74.234</ele>
        <time>2015-03-27T10:55:12Z</time>
      </trkpt>
      <trkpt lat="42.683675" lon="-8.636651">
        <ele>70.367</ele>
        <time>2015-03-27T10:55:16Z</time>
      </trkpt>
      <trkpt lat="42.683820" lon="-8.636627">
        <ele>68.939</ele>
        <time>2015-03-27T10:55:19Z</time>
      </trkpt>
      <trkpt lat="42.684065" lon="-8.636572">
        <ele>65.519</ele>
        <time>2015-03-27T10:55:24Z</time>
      </trkpt>
      <trkpt lat="42.684180" lon="-8.636550">
        <ele>63.657</ele>
        <time>2015-03-27T10:55:27Z</time>
      </trkpt>
      <trkpt lat="42.684345" lon="-8.636570">
        <ele>61.722</ele>
        <time>2015-03-27T10:55:30Z</time>
      </trkpt>
      <trkpt lat="42.684406" lon="-8.636605">
        <ele>63.649</ele>
        <time>2015-03-27T10:55:33Z</time>
      </trkpt>
      <trkpt lat="42.684463" lon="-8.636619">
        <ele>64.627</ele>
        <time>2015-03-27T10:55:37Z</time>
      </trkpt>
      <trkpt lat="42.684655" lon="-8.636699">
        <ele>67.968</ele>
        <time>2015-03-27T10:55:51Z</time>
      </trkpt>
      <trkpt lat="42.684867" lon="-8.636812">
        <ele>70.314</ele>
        <time>2015-03-27T10:56:06Z</time>
      </trkpt>
      <trkpt lat="42.685037" lon="-8.636895">
        <ele>71.307</ele>
        <time>2015-03-27T10:56:23Z</time>
      </trkpt>
      <trkpt lat="42.685198" lon="-8.636929">
        <ele>70.381</ele>
        <time>2015-03-27T10:56:58Z</time>
      </trkpt>
      <trkpt lat="42.685325" lon="-8.637043">
        <ele>70.334</ele>
        <time>2015-03-27T10:57:03Z</time>
      </trkpt>
      <trkpt lat="42.685411" lon="-8.637171">
        <ele>70.386</ele>
        <time>2015-03-27T10:57:09Z</time>
      </trkpt>
      <trkpt lat="42.685499" lon="-8.637157">
        <ele>70.366</ele>
        <time>2015-03-27T10:57:14Z</time>
      </trkpt>
      <trkpt lat="42.685567" lon="-8.637112">
        <ele>71.364</ele>
        <time>2015-03-27T10:57:18Z</time>
      </trkpt>
      <trkpt lat="42.685816" lon="-8.637142">
        <ele>72.269</ele>
        <time>2015-03-27T10:57:30Z</time>
      </trkpt>
      <trkpt lat="42.686009" lon="-8.637246">
        <ele>74.676</ele>
        <time>2015-03-27T10:57:41Z</time>
      </trkpt>
      <trkpt lat="42.686099" lon="-8.637330">
        <ele>75.673</ele>
        <time>2015-03-27T10:57:48Z</time>
      </trkpt>
      <trkpt lat="42.686273" lon="-8.637416">
        <ele>77.085</ele>
        <time>2015-03-27T10:57:59Z</time>
      </trkpt>
      <trkpt lat="42.686396" lon="-8.637481">
        <ele>78.513</ele>
        <time>2015-03-27T10:58:06Z</time>
      </trkpt>
      <trkpt lat="42.686511" lon="-8.637485">
        <ele>78.007</ele>
        <time>2015-03-27T10:58:11Z</time>
      </trkpt>
      <trkpt lat="42.686582" lon="-8.637572">
        <ele>78.516</ele>
        <time>2015-03-27T10:58:23Z</time>
      </trkpt>
      <trkpt lat="42.686630" lon="-8.637619">
        <ele>77.049</ele>
        <time>2015-03-27T10:58:48Z</time>
      </trkpt>
      <trkpt lat="42.686656" lon="-8.637772">
        <ele>76.191</ele>
        <time>2015-03-27T10:59:19Z</time>
      </trkpt>
      <trkpt lat="42.686748" lon="-8.637809">
        <ele>75.671</ele>
        <time>2015-03-27T10:59:24Z</time>
      </trkpt>
      <trkpt lat="42.686887" lon="-8.637671">
        <ele>73.299</ele>
        <time>2015-03-27T10:59:30Z</time>
      </trkpt>
      <trkpt lat="42.687108" lon="-8.637699">
        <ele>70.844</ele>
        <time>2015-03-27T10:59:35Z</time>
      </trkpt>
      <trkpt lat="42.687367" lon="-8.637747">
        <ele>68.421</ele>
        <time>2015-03-27T10:59:40Z</time>
      </trkpt>
      <trkpt lat="42.687476" lon="-8.637726">
        <ele>67.968</ele>
        <time>2015-03-27T10:59:42Z</time>
      </trkpt>
      <trkpt lat="42.687894" lon="-8.637838">
        <ele>67.042</ele>
        <time>2015-03-27T10:59:52Z</time>
      </trkpt>
      <trkpt lat="42.688166" lon="-8.638228">
        <ele>66.526</ele>
        <time>2015-03-27T11:00:02Z</time>
      </trkpt>
      <trkpt lat="42.688203" lon="-8.638376">
        <ele>66.007</ele>
        <time>2015-03-27T11:00:05Z</time>
      </trkpt>
      <trkpt lat="42.688385" lon="-8.638453">
        <ele>64.615</ele>
        <time>2015-03-27T11:00:10Z</time>
      </trkpt>
      <trkpt lat="42.688840" lon="-8.638248">
        <ele>62.698</ele>
        <time>2015-03-27T11:00:21Z</time>
      </trkpt>
      <trkpt lat="42.689052" lon="-8.638121">
        <ele>58.890</ele>
        <time>2015-03-27T11:00:25Z</time>
      </trkpt>
      <trkpt lat="42.689177" lon="-8.638095">
        <ele>57.360</ele>
        <time>2015-03-27T11:00:27Z</time>
      </trkpt>
      <trkpt lat="42.689451" lon="-8.638172">
        <ele>54.958</ele>
        <time>2015-03-27T11:00:31Z</time>
      </trkpt>
      <trkpt lat="42.689779" lon="-8.638393">
        <ele>53.073</ele>
        <time>2015-03-27T11:00:37Z</time>
      </trkpt>
      <trkpt lat="42.690119" lon="-8.638466">
        <ele>49.730</ele>
        <time>2015-03-27T11:00:41Z</time>
      </trkpt>
      <trkpt lat="42.690475" lon="-8.638715">
        <ele>48.746</ele>
        <time>2015-03-27T11:00:49Z</time>
      </trkpt>
      <trkpt lat="42.690595" lon="-8.638442">
        <ele>49.288</ele>
        <time>2015-03-27T11:00:56Z</time>
      </trkpt>
      <trkpt lat="42.690919" lon="-8.637665">
        <ele>50.116</ele>
        <time>2015-03-27T11:01:12Z</time>
      </trkpt>
      <trkpt lat="42.691242" lon="-8.637583">
        <ele>51.607</ele>
        <time>2015-03-27T11:01:22Z</time>
      </trkpt>
      <trkpt lat="42.691615" lon="-8.637546">
        <ele>54.033</ele>
        <time>2015-03-27T11:01:37Z</time>
      </trkpt>
      <trkpt lat="42.692043" lon="-8.637427">
        <ele>56.456</ele>
        <time>2015-03-27T11:01:55Z</time>
      </trkpt>
      <trkpt lat="42.692365" lon="-8.637492">
        <ele>56.448</ele>
        <time>2015-03-27T11:02:05Z</time>
      </trkpt>
      <trkpt lat="42.692536" lon="-8.637485">
        <ele>56.488</ele>
        <time>2015-03-27T11:02:09Z</time>
      </trkpt>
      <trkpt lat="42.692741" lon="-8.637518">
        <ele>55.426</ele>
        <time>2015-03-27T11:02:14Z</time>
      </trkpt>
      <trkpt lat="42.693198" lon="-8.637801">
        <ele>56.991</ele>
        <time>2015-03-27T11:02:29Z</time>
      </trkpt>
      <trkpt lat="42.693309" lon="-8.637835">
        <ele>57.848</ele>
        <time>2015-03-27T11:02:34Z</time>
      </trkpt>
      <trkpt lat="42.693374" lon="-8.637888">
        <ele>59.342</ele>
        <time>2015-03-27T11:02:38Z</time>
      </trkpt>
      <trkpt lat="42.693444" lon="-8.637920">
        <ele>60.222</ele>
        <time>2015-03-27T11:02:42Z</time>
      </trkpt>
      <trkpt lat="42.693817" lon="-8.638045">
        <ele>60.214</ele>
        <time>2015-03-27T11:02:54Z</time>
      </trkpt>
      <trkpt lat="42.694302" lon="-8.638189">
        <ele>60.707</ele>
        <time>2015-03-27T11:03:09Z</time>
      </trkpt>
      <trkpt lat="42.694786" lon="-8.638227">
        <ele>61.793</ele>
        <time>2015-03-27T11:03:24Z</time>
      </trkpt>
      <trkpt lat="42.695301" lon="-8.638243">
        <ele>62.176</ele>
        <time>2015-03-27T11:03:40Z</time>
      </trkpt>
      <trkpt lat="42.695611" lon="-8.638298">
        <ele>62.198</ele>
        <time>2015-03-27T11:03:50Z</time>
      </trkpt>
      <trkpt lat="42.695652" lon="-8.638349">
        <ele>66.098</ele>
        <time>2015-03-27T11:19:47Z</time>
      </trkpt>
      <trkpt lat="42.695891" lon="-8.638580">
        <ele>66.066</ele>
        <time>2015-03-27T11:20:01Z</time>
      </trkpt>
      <trkpt lat="42.696005" lon="-8.638755">
        <ele>67.451</ele>
        <time>2015-03-27T11:20:08Z</time>
      </trkpt>
      <trkpt lat="42.696336" lon="-8.639126">
        <ele>68.918</ele>
        <time>2015-03-27T11:20:25Z</time>
      </trkpt>
      <trkpt lat="42.696553" lon="-8.639327">
        <ele>71.358</ele>
        <time>2015-03-27T11:20:39Z</time>
      </trkpt>
      <trkpt lat="42.696582" lon="-8.639557">
        <ele>70.852</ele>
        <time>2015-03-27T11:20:47Z</time>
      </trkpt>
      <trkpt lat="42.696532" lon="-8.639974">
        <ele>69.417</ele>
        <time>2015-03-27T11:20:55Z</time>
      </trkpt>
      <trkpt lat="42.696587" lon="-8.640215">
        <ele>66.507</ele>
        <time>2015-03-27T11:20:59Z</time>
      </trkpt>
      <trkpt lat="42.696663" lon="-8.640393">
        <ele>65.584</ele>
        <time>2015-03-27T11:21:02Z</time>
      </trkpt>
      <trkpt lat="42.696734" lon="-8.640497">
        <ele>65.087</ele>
        <time>2015-03-27T11:21:04Z</time>
      </trkpt>
      <trkpt lat="42.697189" lon="-8.640808">
        <ele>64.199</ele>
        <time>2015-03-27T11:21:16Z</time>
      </trkpt>
      <trkpt lat="42.697499" lon="-8.640903">
        <ele>66.519</ele>
        <time>2015-03-27T11:21:32Z</time>
      </trkpt>
      <trkpt lat="42.697748" lon="-8.640949">
        <ele>69.877</ele>
        <time>2015-03-27T11:21:47Z</time>
      </trkpt>
      <trkpt lat="42.698126" lon="-8.640976">
        <ele>70.812</ele>
        <time>2015-03-27T11:22:04Z</time>
      </trkpt>
      <trkpt lat="42.698551" lon="-8.640962">
        <ele>71.389</ele>
        <time>2015-03-27T11:22:22Z</time>
      </trkpt>
      <trkpt lat="42.698840" lon="-8.640822">
        <ele>72.754</ele>
        <time>2015-03-27T11:22:36Z</time>
      </trkpt>
      <trkpt lat="42.699164" lon="-8.640523">
        <ele>72.756</ele>
        <time>2015-03-27T11:22:50Z</time>
      </trkpt>
      <trkpt lat="42.699431" lon="-8.640095">
        <ele>73.711</ele>
        <time>2015-03-27T11:23:04Z</time>
      </trkpt>
      <trkpt lat="42.699892" lon="-8.640219">
        <ele>74.607</ele>
        <time>2015-03-27T11:23:18Z</time>
      </trkpt>
      <trkpt lat="42.700427" lon="-8.640178">
        <ele>76.134</ele>
        <time>2015-03-27T11:23:34Z</time>
      </trkpt>
      <trkpt lat="42.700818" lon="-8.640103">
        <ele>75.127</ele>
        <time>2015-03-27T11:23:44Z</time>
      </trkpt>
      <trkpt lat="42.700955" lon="-8.640072">
        <ele>74.219</ele>
        <time>2015-03-27T11:23:47Z</time>
      </trkpt>
      <trkpt lat="42.701223" lon="-8.640192">
        <ele>71.899</ele>
        <time>2015-03-27T11:23:52Z</time>
      </trkpt>
      <trkpt lat="42.701396" lon="-8.640699">
        <ele>70.397</ele>
        <time>2015-03-27T11:24:00Z</time>
      </trkpt>
      <trkpt lat="42.701480" lon="-8.640834">
        <ele>70.382</ele>
        <time>2015-03-27T11:24:04Z</time>
      </trkpt>
      <trkpt lat="42.701569" lon="-8.640904">
        <ele>71.859</ele>
        <time>2015-03-27T11:24:08Z</time>
      </trkpt>
      <trkpt lat="42.701618" lon="-8.641340">
        <ele>73.267</ele>
        <time>2015-03-27T11:24:22Z</time>
      </trkpt>
      <trkpt lat="42.701502" lon="-8.641849">
        <ele>75.181</ele>
        <time>2015-03-27T11:24:38Z</time>
      </trkpt>
      <trkpt lat="42.701644" lon="-8.642142">
        <ele>76.119</ele>
        <time>2015-03-27T11:24:50Z</time>
      </trkpt>
      <trkpt lat="42.701972" lon="-8.642259">
        <ele>77.507</ele>
        <time>2015-03-27T11:25:04Z</time>
      </trkpt>
      <trkpt lat="42.702357" lon="-8.642125">
        <ele>79.965</ele>
        <time>2015-03-27T11:25:20Z</time>
      </trkpt>
      <trkpt lat="42.702632" lon="-8.642087">
        <ele>79.918</ele>
        <time>2015-03-27T11:25:31Z</time>
      </trkpt>
      <trkpt lat="42.703136" lon="-8.642171">
        <ele>79.910</ele>
        <time>2015-03-27T11:25:44Z</time>
      </trkpt>
      <trkpt lat="42.703755" lon="-8.642244">
        <ele>79.970</ele>
        <time>2015-03-27T11:25:59Z</time>
      </trkpt>
      <trkpt lat="42.704132" lon="-8.642338">
        <ele>79.938</ele>
        <time>2015-03-27T11:26:09Z</time>
      </trkpt>
      <trkpt lat="42.704284" lon="-8.642338">
        <ele>79.943</ele>
        <time>2015-03-27T11:26:13Z</time>
      </trkpt>
      <trkpt lat="42.704370" lon="-8.642331">
        <ele>78.540</ele>
        <time>2015-03-27T11:26:15Z</time>
      </trkpt>
      <trkpt lat="42.704420" lon="-8.642330">
        <ele>78.086</ele>
        <time>2015-03-27T11:26:16Z</time>
      </trkpt>
      <trkpt lat="42.704724" lon="-8.642400">
        <ele>74.660</ele>
        <time>2015-03-27T11:26:21Z</time>
      </trkpt>
      <trkpt lat="42.704949" lon="-8.642383">
        <ele>72.726</ele>
        <time>2015-03-27T11:26:24Z</time>
      </trkpt>
      <trkpt lat="42.705339" lon="-8.642398">
        <ele>69.807</ele>
        <time>2015-03-27T11:26:29Z</time>
      </trkpt>
      <trkpt lat="42.705624" lon="-8.642556">
        <ele>68.967</ele>
        <time>2015-03-27T11:26:35Z</time>
      </trkpt>
      <trkpt lat="42.705783" lon="-8.642818">
        <ele>67.970</ele>
        <time>2015-03-27T11:26:40Z</time>
      </trkpt>
      <trkpt lat="42.705862" lon="-8.642910">
        <ele>67.412</ele>
        <time>2015-03-27T11:26:42Z</time>
      </trkpt>
      <trkpt lat="42.705969" lon="-8.643278">
        <ele>66.082</ele>
        <time>2015-03-27T11:26:47Z</time>
      </trkpt>
      <trkpt lat="42.705989" lon="-8.643757">
        <ele>63.660</ele>
        <time>2015-03-27T11:26:52Z</time>
      </trkpt>
      <trkpt lat="42.706122" lon="-8.644231">
        <ele>61.725</ele>
        <time>2015-03-27T11:26:57Z</time>
      </trkpt>
      <trkpt lat="42.706284" lon="-8.644504">
        <ele>60.272</ele>
        <time>2015-03-27T11:27:01Z</time>
      </trkpt>
      <trkpt lat="42.706455" lon="-8.644593">
        <ele>57.369</ele>
        <time>2015-03-27T11:27:09Z</time>
      </trkpt>
      <trkpt lat="42.706495" lon="-8.644968">
        <ele>54.904</ele>
        <time>2015-03-27T11:27:18Z</time>
      </trkpt>
      <trkpt lat="42.706477" lon="-8.645156">
        <ele>53.024</ele>
        <time>2015-03-27T11:27:21Z</time>
      </trkpt>
      <trkpt lat="42.706527" lon="-8.645588">
        <ele>48.707</ele>
        <time>2015-03-27T11:27:27Z</time>
      </trkpt>
      <trkpt lat="42.706606" lon="-8.645911">
        <ele>44.835</ele>
        <time>2015-03-27T11:27:31Z</time>
      </trkpt>
      <trkpt lat="42.706640" lon="-8.646085">
        <ele>43.998</ele>
        <time>2015-03-27T11:27:33Z</time>
      </trkpt>
      <trkpt lat="42.706670" lon="-8.646254">
        <ele>42.080</ele>
        <time>2015-03-27T11:27:35Z</time>
      </trkpt>
      <trkpt lat="42.706736" lon="-8.646745">
        <ele>40.050</ele>
        <time>2015-03-27T11:27:41Z</time>
      </trkpt>
      <trkpt lat="42.706754" lon="-8.647367">
        <ele>39.138</ele>
        <time>2015-03-27T11:27:48Z</time>
      </trkpt>
      <trkpt lat="42.706831" lon="-8.647487">
        <ele>38.133</ele>
        <time>2015-03-27T11:27:52Z</time>
      </trkpt>
      <trkpt lat="42.707255" lon="-8.647488">
        <ele>37.630</ele>
        <time>2015-03-27T11:28:02Z</time>
      </trkpt>
      <trkpt lat="42.707523" lon="-8.647558">
        <ele>36.239</ele>
        <time>2015-03-27T11:28:08Z</time>
      </trkpt>
      <trkpt lat="42.708316" lon="-8.647344">
        <ele>36.201</ele>
        <time>2015-03-27T11:28:26Z</time>
      </trkpt>
      <trkpt lat="42.708408" lon="-8.647317">
        <ele>35.721</ele>
        <time>2015-03-27T11:28:28Z</time>
      </trkpt>
      <trkpt lat="42.708593" lon="-8.647279">
        <ele>35.707</ele>
        <time>2015-03-27T11:28:32Z</time>
      </trkpt>
      <trkpt lat="42.708811" lon="-8.647201">
        <ele>35.722</ele>
        <time>2015-03-27T11:28:37Z</time>
      </trkpt>
      <trkpt lat="42.709559" lon="-8.647252">
        <ele>36.725</ele>
        <time>2015-03-27T11:28:54Z</time>
      </trkpt>
      <trkpt lat="42.710194" lon="-8.647286">
        <ele>36.737</ele>
        <time>2015-03-27T11:29:08Z</time>
      </trkpt>
      <trkpt lat="42.710947" lon="-8.647150">
        <ele>36.797</ele>
        <time>2015-03-27T11:29:26Z</time>
      </trkpt>
      <trkpt lat="42.711473" lon="-8.647046">
        <ele>37.685</ele>
        <time>2015-03-27T11:29:41Z</time>
      </trkpt>
      <trkpt lat="42.711817" lon="-8.647054">
        <ele>38.190</ele>
        <time>2015-03-27T11:29:50Z</time>
      </trkpt>
      <trkpt lat="42.712176" lon="-8.647128">
        <ele>36.767</ele>
        <time>2015-03-27T11:29:57Z</time>
      </trkpt>
      <trkpt lat="42.712966" lon="-8.647268">
        <ele>36.285</ele>
        <time>2015-03-27T11:30:13Z</time>
      </trkpt>
      <trkpt lat="42.713828" lon="-8.647673">
        <ele>35.789</ele>
        <time>2015-03-27T11:30:32Z</time>
      </trkpt>
      <trkpt lat="42.714708" lon="-8.648083">
        <ele>35.717</ele>
        <time>2015-03-27T11:30:51Z</time>
      </trkpt>
      <trkpt lat="42.715476" lon="-8.648282">
        <ele>35.707</ele>
        <time>2015-03-27T11:31:08Z</time>
      </trkpt>
      <trkpt lat="42.716402" lon="-8.648498">
        <ele>35.717</ele>
        <time>2015-03-27T11:31:28Z</time>
      </trkpt>
      <trkpt lat="42.716976" lon="-8.648649">
        <ele>35.720</ele>
        <time>2015-03-27T11:31:40Z</time>
      </trkpt>
      <trkpt lat="42.717633" lon="-8.648566">
        <ele>35.232</ele>
        <time>2015-03-27T11:31:53Z</time>
      </trkpt>
      <trkpt lat="42.717726" lon="-8.648565">
        <ele>35.292</ele>
        <time>2015-03-27T11:31:55Z</time>
      </trkpt>
      <trkpt lat="42.718338" lon="-8.648884">
        <ele>35.240</ele>
        <time>2015-03-27T11:32:10Z</time>
      </trkpt>
      <trkpt lat="42.718413" lon="-8.648968">
        <ele>35.255</ele>
        <time>2015-03-27T11:32:12Z</time>
      </trkpt>
      <trkpt lat="42.718610" lon="-8.649163">
        <ele>31.412</ele>
        <time>2015-03-27T11:32:17Z</time>
      </trkpt>
      <trkpt lat="42.718666" lon="-8.649165">
        <ele>30.482</ele>
        <time>2015-03-27T11:32:18Z</time>
      </trkpt>
      <trkpt lat="42.718906" lon="-8.649190">
        <ele>28.043</ele>
        <time>2015-03-27T11:32:22Z</time>
      </trkpt>
      <trkpt lat="42.719042" lon="-8.649171">
        <ele>28.017</ele>
        <time>2015-03-27T11:32:25Z</time>
      </trkpt>
      <trkpt lat="42.719496" lon="-8.648978">
        <ele>31.407</ele>
        <time>2015-03-27T11:32:39Z</time>
      </trkpt>
      <trkpt lat="42.719761" lon="-8.649156">
        <ele>31.427</ele>
        <time>2015-03-27T11:32:49Z</time>
      </trkpt>
      <trkpt lat="42.719888" lon="-8.649537">
        <ele>34.360</ele>
        <time>2015-03-27T11:33:02Z</time>
      </trkpt>
      <trkpt lat="42.719978" lon="-8.649589">
        <ele>34.732</ele>
        <time>2015-03-27T11:33:07Z</time>
      </trkpt>
      <trkpt lat="42.720103" lon="-8.649539">
        <ele>36.242</ele>
        <time>2015-03-27T11:33:14Z</time>
      </trkpt>
      <trkpt lat="42.720240" lon="-8.649586">
        <ele>37.610</ele>
        <time>2015-03-27T11:33:23Z</time>
      </trkpt>
      <trkpt lat="42.720502" lon="-8.649878">
        <ele>40.595</ele>
        <time>2015-03-27T11:33:39Z</time>
      </trkpt>
      <trkpt lat="42.720840" lon="-8.650209">
        <ele>40.582</ele>
        <time>2015-03-27T11:33:52Z</time>
      </trkpt>
      <trkpt lat="42.721080" lon="-8.650213">
        <ele>40.516</ele>
        <time>2015-03-27T11:33:57Z</time>
      </trkpt>
      <trkpt lat="42.721167" lon="-8.650176">
        <ele>39.676</ele>
        <time>2015-03-27T11:33:59Z</time>
      </trkpt>
      <trkpt lat="42.721493" lon="-8.649998">
        <ele>40.513</ele>
        <time>2015-03-27T11:34:09Z</time>
      </trkpt>
      <trkpt lat="42.721997" lon="-8.649795">
        <ele>42.007</ele>
        <time>2015-03-27T11:34:24Z</time>
      </trkpt>
      <trkpt lat="42.722172" lon="-8.649789">
        <ele>42.030</ele>
        <time>2015-03-27T11:34:29Z</time>
      </trkpt>
      <trkpt lat="42.722579" lon="-8.650078">
        <ele>42.023</ele>
        <time>2015-03-27T11:34:41Z</time>
      </trkpt>
      <trkpt lat="42.722649" lon="-8.650121">
        <ele>42.025</ele>
        <time>2015-03-27T11:34:43Z</time>
      </trkpt>
      <trkpt lat="42.722923" lon="-8.650205">
        <ele>39.135</ele>
        <time>2015-03-27T11:34:48Z</time>
      </trkpt>
      <trkpt lat="42.723166" lon="-8.650312">
        <ele>35.783</ele>
        <time>2015-03-27T11:34:51Z</time>
      </trkpt>
      <trkpt lat="42.723299" lon="-8.650429">
        <ele>33.898</ele>
        <time>2015-03-27T11:34:53Z</time>
      </trkpt>
      <trkpt lat="42.723464" lon="-8.650525">
        <ele>32.335</ele>
        <time>2015-03-27T11:34:56Z</time>
      </trkpt>
      <trkpt lat="42.723674" lon="-8.650560">
        <ele>29.968</ele>
        <time>2015-03-27T11:34:59Z</time>
      </trkpt>
      <trkpt lat="42.723922" lon="-8.650495">
        <ele>27.142</ele>
        <time>2015-03-27T11:35:03Z</time>
      </trkpt>
      <trkpt lat="42.724226" lon="-8.650546">
        <ele>24.726</ele>
        <time>2015-03-27T11:35:09Z</time>
      </trkpt>
      <trkpt lat="42.724294" lon="-8.650533">
        <ele>26.107</ele>
        <time>2015-03-27T11:35:11Z</time>
      </trkpt>
      <trkpt lat="42.724441" lon="-8.650500">
        <ele>26.155</ele>
        <time>2015-03-27T11:35:15Z</time>
      </trkpt>
      <trkpt lat="42.724804" lon="-8.650445">
        <ele>24.748</ele>
        <time>2015-03-27T11:35:22Z</time>
      </trkpt>
      <trkpt lat="42.724862" lon="-8.650429">
        <ele>23.760</ele>
        <time>2015-03-27T11:35:23Z</time>
      </trkpt>
      <trkpt lat="42.725211" lon="-8.650447">
        <ele>20.350</ele>
        <time>2015-03-27T11:35:30Z</time>
      </trkpt>
      <trkpt lat="42.725472" lon="-8.650534">
        <ele>18.448</ele>
        <time>2015-03-27T11:35:38Z</time>
      </trkpt>
      <trkpt lat="42.725610" lon="-8.650541">
        <ele>17.413</ele>
        <time>2015-03-27T11:35:41Z</time>
      </trkpt>
      <trkpt lat="42.725741" lon="-8.650544">
        <ele>16.080</ele>
        <time>2015-03-27T11:35:44Z</time>
      </trkpt>
      <trkpt lat="42.725912" lon="-8.650691">
        <ele>15.073</ele>
        <time>2015-03-27T11:35:50Z</time>
      </trkpt>
      <trkpt lat="42.726109" lon="-8.650829">
        <ele>14.185</ele>
        <time>2015-03-27T11:35:56Z</time>
      </trkpt>
      <trkpt lat="42.726083" lon="-8.651035">
        <ele>13.113</ele>
        <time>2015-03-27T11:36:01Z</time>
      </trkpt>
      <trkpt lat="42.725952" lon="-8.651439">
        <ele>13.107</ele>
        <time>2015-03-27T11:36:11Z</time>
      </trkpt>
      <trkpt lat="42.725917" lon="-8.651516">
        <ele>13.196</ele>
        <time>2015-03-27T11:36:13Z</time>
      </trkpt>
      <trkpt lat="42.725852" lon="-8.651777">
        <ele>12.259</ele>
        <time>2015-03-27T11:36:17Z</time>
      </trkpt>
      <trkpt lat="42.725729" lon="-8.652356">
        <ele>12.251</ele>
        <time>2015-03-27T11:36:27Z</time>
      </trkpt>
      <trkpt lat="42.725599" lon="-8.652403">
        <ele>10.741</ele>
        <time>2015-03-27T11:36:31Z</time>
      </trkpt>
      <trkpt lat="42.725446" lon="-8.652437">
        <ele>10.249</ele>
        <time>2015-03-27T11:36:36Z</time>
      </trkpt>
      <trkpt lat="42.725512" lon="-8.652902">
        <ele>11.714</ele>
        <time>2015-03-27T11:36:49Z</time>
      </trkpt>
      <trkpt lat="42.725572" lon="-8.653151">
        <ele>13.691</ele>
        <time>2015-03-27T11:37:00Z</time>
      </trkpt>
      <trkpt lat="42.725556" lon="-8.653534">
        <ele>13.633</ele>
        <time>2015-03-27T11:37:11Z</time>
      </trkpt>
      <trkpt lat="42.725554" lon="-8.653728">
        <ele>13.623</ele>
        <time>2015-03-27T11:37:19Z</time>
      </trkpt>
      <trkpt lat="42.725636" lon="-8.653945">
        <ele>13.615</ele>
        <time>2015-03-27T11:37:27Z</time>
      </trkpt>
      <trkpt lat="42.725592" lon="-8.654484">
        <ele>13.607</ele>
        <time>2015-03-27T11:37:40Z</time>
      </trkpt>
      <trkpt lat="42.725507" lon="-8.655513">
        <ele>13.632</ele>
        <time>2015-03-27T11:37:59Z</time>
      </trkpt>
      <trkpt lat="42.725696" lon="-8.655851">
        <ele>13.675</ele>
        <time>2015-03-27T11:38:09Z</time>
      </trkpt>
      <trkpt lat="42.725679" lon="-8.655924">
        <ele>13.197</ele>
        <time>2015-03-27T11:39:39Z</time>
      </trkpt>
      <trkpt lat="42.725610" lon="-8.655950">
        <ele>13.157</ele>
        <time>2015-03-27T11:39:41Z</time>
      </trkpt>
      <trkpt lat="42.725634" lon="-8.656118">
        <ele>10.785</ele>
        <time>2015-03-27T11:40:40Z</time>
      </trkpt>
      <trkpt lat="42.725702" lon="-8.656374">
        <ele>10.720</ele>
        <time>2015-03-27T11:40:46Z</time>
      </trkpt>
      <trkpt lat="42.725907" lon="-8.657151">
        <ele>10.727</ele>
        <time>2015-03-27T11:41:02Z</time>
      </trkpt>
      <trkpt lat="42.726073" lon="-8.657775">
        <ele>10.718</ele>
        <time>2015-03-27T11:41:15Z</time>
      </trkpt>
      <trkpt lat="42.726390" lon="-8.658420">
        <ele>10.798</ele>
        <time>2015-03-27T11:41:29Z</time>
      </trkpt>
      <trkpt lat="42.726548" lon="-8.658432">
        <ele>10.717</ele>
        <time>2015-03-27T11:41:33Z</time>
      </trkpt>
      <trkpt lat="42.726778" lon="-8.658602">
        <ele>10.707</ele>
        <time>2015-03-27T11:41:40Z</time>
      </trkpt>
      <trkpt lat="42.726911" lon="-8.659582">
        <ele>10.750</ele>
        <time>2015-03-27T11:41:57Z</time>
      </trkpt>
      <trkpt lat="42.727145" lon="-8.659898">
        <ele>10.733</ele>
        <time>2015-03-27T11:42:05Z</time>
      </trkpt>
      <trkpt lat="42.727188" lon="-8.660000">
        <ele>10.735</ele>
        <time>2015-03-27T11:42:07Z</time>
      </trkpt>
      <trkpt lat="42.727264" lon="-8.660338">
        <ele>10.755</ele>
        <time>2015-03-27T11:42:13Z</time>
      </trkpt>
      <trkpt lat="42.727168" lon="-8.660773">
        <ele>10.743</ele>
        <time>2015-03-27T11:42:21Z</time>
      </trkpt>
      <trkpt lat="42.727113" lon="-8.661259">
        <ele>10.738</ele>
        <time>2015-03-27T11:42:32Z</time>
      </trkpt>
      <trkpt lat="42.727221" lon="-8.661280">
        <ele>12.265</ele>
        <time>2015-03-27T11:42:36Z</time>
      </trkpt>
      <trkpt lat="42.727526" lon="-8.661181">
        <ele>12.635</ele>
        <time>2015-03-27T11:42:44Z</time>
      </trkpt>
      <trkpt lat="42.727613" lon="-8.661162">
        <ele>12.686</ele>
        <time>2015-03-27T11:42:46Z</time>
      </trkpt>
      <trkpt lat="42.728359" lon="-8.661028">
        <ele>12.614</ele>
        <time>2015-03-27T11:43:03Z</time>
      </trkpt>
      <trkpt lat="42.728886" lon="-8.660967">
        <ele>12.607</ele>
        <time>2015-03-27T11:43:16Z</time>
      </trkpt>
      <trkpt lat="42.729275" lon="-8.660960">
        <ele>12.282</ele>
        <time>2015-03-27T11:43:25Z</time>
      </trkpt>
      <trkpt lat="42.729990" lon="-8.660888">
        <ele>12.215</ele>
        <time>2015-03-27T11:43:42Z</time>
      </trkpt>
      <trkpt lat="42.730580" lon="-8.660934">
        <ele>12.267</ele>
        <time>2015-03-27T11:43:56Z</time>
      </trkpt>
      <trkpt lat="42.731061" lon="-8.660976">
        <ele>12.257</ele>
        <time>2015-03-27T11:44:06Z</time>
      </trkpt>
      <trkpt lat="42.731748" lon="-8.661136">
        <ele>12.255</ele>
        <time>2015-03-27T11:44:21Z</time>
      </trkpt>
      <trkpt lat="42.732458" lon="-8.661338">
        <ele>11.270</ele>
        <time>2015-03-27T11:44:36Z</time>
      </trkpt>
      <trkpt lat="42.733265" lon="-8.661483">
        <ele>11.267</ele>
        <time>2015-03-27T11:44:53Z</time>
      </trkpt>
      <trkpt lat="42.733690" lon="-8.661543">
        <ele>11.212</ele>
        <time>2015-03-27T11:45:02Z</time>
      </trkpt>
      <trkpt lat="42.734211" lon="-8.661613">
        <ele>11.232</ele>
        <time>2015-03-27T11:45:16Z</time>
      </trkpt>
      <trkpt lat="42.734814" lon="-8.661667">
        <ele>11.205</ele>
        <time>2015-03-27T11:45:33Z</time>
      </trkpt>
      <trkpt lat="42.734962" lon="-8.661643">
        <ele>11.207</ele>
        <time>2015-03-27T11:45:38Z</time>
      </trkpt>
      <trkpt lat="42.735083" lon="-8.661479">
        <ele>11.210</ele>
        <time>2015-03-27T11:45:44Z</time>
      </trkpt>
      <trkpt lat="42.735633" lon="-8.661371">
        <ele>11.213</ele>
        <time>2015-03-27T11:45:59Z</time>
      </trkpt>
      <trkpt lat="42.736139" lon="-8.661352">
        <ele>12.265</ele>
        <time>2015-03-27T11:46:13Z</time>
      </trkpt>
      <trkpt lat="42.736593" lon="-8.661374">
        <ele>12.255</ele>
        <time>2015-03-27T11:46:25Z</time>
      </trkpt>
      <trkpt lat="42.736720" lon="-8.661404">
        <ele>12.243</ele>
        <time>2015-03-27T11:46:34Z</time>
      </trkpt>
      <trkpt lat="42.736767" lon="-8.661455">
        <ele>12.288</ele>
        <time>2015-03-27T11:46:48Z</time>
      </trkpt>
      <trkpt lat="42.736940" lon="-8.661508">
        <ele>12.285</ele>
        <time>2015-03-27T11:46:56Z</time>
      </trkpt>
      <trkpt lat="42.737134" lon="-8.661546">
        <ele>12.286</ele>
        <time>2015-03-27T11:47:02Z</time>
      </trkpt>
      <trkpt lat="42.737347" lon="-8.661548">
        <ele>12.260</ele>
        <time>2015-03-27T11:47:09Z</time>
      </trkpt>
      <trkpt lat="42.737869" lon="-8.661546">
        <ele>12.226</ele>
        <time>2015-03-27T11:47:26Z</time>
      </trkpt>
      <trkpt lat="42.738188" lon="-8.661606">
        <ele>12.207</ele>
        <time>2015-03-27T11:47:39Z</time>
      </trkpt>
      <trkpt lat="42.738393" lon="-8.661686">
        <ele>12.247</ele>
        <time>2015-03-27T11:48:19Z</time>
      </trkpt>
      <trkpt lat="42.738501" lon="-8.661655">
        <ele>12.650</ele>
        <time>2015-03-27T11:49:14Z</time>
      </trkpt>
      <trkpt lat="42.738829" lon="-8.661667">
        <ele>12.632</ele>
        <time>2015-03-27T11:49:28Z</time>
      </trkpt>
      <trkpt lat="42.738941" lon="-8.661551">
        <ele>12.682</ele>
        <time>2015-03-27T11:50:34Z</time>
      </trkpt>
      <trkpt lat="42.739058" lon="-8.661303">
        <ele>12.640</ele>
        <time>2015-03-27T11:51:12Z</time>
      </trkpt>
      <trkpt lat="42.739049" lon="-8.660957">
        <ele>12.655</ele>
        <time>2015-03-27T11:51:23Z</time>
      </trkpt>
      <trkpt lat="42.739024" lon="-8.660639">
        <ele>12.682</ele>
        <time>2015-03-27T11:51:32Z</time>
      </trkpt>
      <trkpt lat="42.738952" lon="-8.660573">
        <ele>12.687</ele>
        <time>2015-03-27T11:51:37Z</time>
      </trkpt>
      <trkpt lat="42.738915" lon="-8.660386">
        <ele>12.642</ele>
        <time>2015-03-27T11:51:48Z</time>
      </trkpt>
      <trkpt lat="42.738856" lon="-8.660144">
        <ele>12.226</ele>
        <time>2015-03-27T11:51:55Z</time>
      </trkpt>
      <trkpt lat="42.738795" lon="-8.659805">
        <ele>12.207</ele>
        <time>2015-03-27T11:52:06Z</time>
      </trkpt>
      <trkpt lat="42.738520" lon="-8.659930">
        <ele>14.657</ele>
        <time>2015-03-27T12:27:15Z</time>
      </trkpt>
      <trkpt lat="42.738341" lon="-8.659857">
        <ele>14.610</ele>
        <time>2015-03-27T12:27:27Z</time>
      </trkpt>
      <trkpt lat="42.738067" lon="-8.659861">
        <ele>14.632</ele>
        <time>2015-03-27T12:28:27Z</time>
      </trkpt>
      <trkpt lat="42.737904" lon="-8.659830">
        <ele>14.672</ele>
        <time>2015-03-27T12:28:44Z</time>
      </trkpt>
      <trkpt lat="42.737682" lon="-8.659951">
        <ele>14.640</ele>
        <time>2015-03-27T12:29:01Z</time>
      </trkpt>
      <trkpt lat="42.737663" lon="-8.660020">
        <ele>14.615</ele>
        <time>2015-03-27T12:29:20Z</time>
      </trkpt>
      <trkpt lat="42.737520" lon="-8.660125">
        <ele>14.632</ele>
        <time>2015-03-27T12:29:34Z</time>
      </trkpt>
      <trkpt lat="42.737275" lon="-8.660297">
        <ele>14.652</ele>
        <time>2015-03-27T12:29:49Z</time>
      </trkpt>
      <trkpt lat="42.737010" lon="-8.660396">
        <ele>14.653</ele>
        <time>2015-03-27T12:30:06Z</time>
      </trkpt>
      <trkpt lat="42.736950" lon="-8.660390">
        <ele>14.608</ele>
        <time>2015-03-27T12:30:11Z</time>
      </trkpt>
      <trkpt lat="42.736878" lon="-8.660234">
        <ele>14.607</ele>
        <time>2015-03-27T12:30:24Z</time>
      </trkpt>
      <trkpt lat="42.736958" lon="-8.660114">
        <ele>14.624</ele>
        <time>2015-03-27T12:30:43Z</time>
      </trkpt>
      <trkpt lat="42.736946" lon="-8.660174">
        <ele>14.617</ele>
        <time>2015-03-27T12:31:55Z</time>
      </trkpt>
      <trkpt lat="42.736826" lon="-8.660324">
        <ele>14.639</ele>
        <time>2015-03-27T12:32:09Z</time>
      </trkpt>
      <trkpt lat="42.736884" lon="-8.660411">
        <ele>14.679</ele>
        <time>2015-03-27T12:32:21Z</time>
      </trkpt>
      <trkpt lat="42.736886" lon="-8.660496">
        <ele>14.627</ele>
        <time>2015-03-27T12:32:36Z</time>
      </trkpt>
      <trkpt lat="42.736874" lon="-8.660593">
        <ele>14.672</ele>
        <time>2015-03-27T12:32:42Z</time>
      </trkpt>
      <trkpt lat="42.736818" lon="-8.660579">
        <ele>14.649</ele>
        <time>2015-03-27T12:32:45Z</time>
      </trkpt>
      <trkpt lat="42.736764" lon="-8.660650">
        <ele>14.677</ele>
        <time>2015-03-27T12:32:49Z</time>
      </trkpt>
      <trkpt lat="42.736714" lon="-8.661190">
        <ele>14.161</ele>
        <time>2015-03-27T12:33:04Z</time>
      </trkpt>
      <trkpt lat="42.736890" lon="-8.661428">
        <ele>14.127</ele>
        <time>2015-03-27T12:33:14Z</time>
      </trkpt>
      <trkpt lat="42.737158" lon="-8.661443">
        <ele>14.107</ele>
        <time>2015-03-27T12:33:24Z</time>
      </trkpt>
      <trkpt lat="42.737211" lon="-8.661421">
        <ele>14.156</ele>
        <time>2015-03-27T12:33:27Z</time>
      </trkpt>
      <trkpt lat="42.737531" lon="-8.661508">
        <ele>14.169</ele>
        <time>2015-03-27T12:33:37Z</time>
      </trkpt>
      <trkpt lat="42.737673" lon="-8.661538">
        <ele>14.131</ele>
        <time>2015-03-27T12:33:41Z</time>
      </trkpt>
      <trkpt lat="42.737766" lon="-8.661579">
        <ele>14.681</ele>
        <time>2015-03-27T12:33:50Z</time>
      </trkpt>
      <trkpt lat="42.738135" lon="-8.661586">
        <ele>14.689</ele>
        <time>2015-03-27T12:34:19Z</time>
      </trkpt>
      <trkpt lat="42.738623" lon="-8.661590">
        <ele>14.624</ele>
        <time>2015-03-27T12:34:34Z</time>
      </trkpt>
      <trkpt lat="42.738786" lon="-8.661610">
        <ele>14.611</ele>
        <time>2015-03-27T12:34:39Z</time>
      </trkpt>
      <trkpt lat="42.739008" lon="-8.661438">
        <ele>14.696</ele>
        <time>2015-03-27T12:34:48Z</time>
      </trkpt>
      <trkpt lat="42.739305" lon="-8.661334">
        <ele>14.631</ele>
        <time>2015-03-27T12:35:02Z</time>
      </trkpt>
      <trkpt lat="42.739625" lon="-8.661313">
        <ele>14.624</ele>
        <time>2015-03-27T12:35:13Z</time>
      </trkpt>
      <trkpt lat="42.739725" lon="-8.661168">
        <ele>14.607</ele>
        <time>2015-03-27T12:35:19Z</time>
      </trkpt>
      <trkpt lat="42.739825" lon="-8.660733">
        <ele>16.018</ele>
        <time>2015-03-27T12:35:31Z</time>
      </trkpt>
      <trkpt lat="42.739993" lon="-8.660521">
        <ele>14.611</ele>
        <time>2015-03-27T12:35:38Z</time>
      </trkpt>
      <trkpt lat="42.739972" lon="-8.660311">
        <ele>14.663</ele>
        <time>2015-03-27T12:35:44Z</time>
      </trkpt>
      <trkpt lat="42.740207" lon="-8.660132">
        <ele>14.643</ele>
        <time>2015-03-27T12:35:55Z</time>
      </trkpt>
      <trkpt lat="42.740487" lon="-8.659957">
        <ele>14.641</ele>
        <time>2015-03-27T12:36:06Z</time>
      </trkpt>
      <trkpt lat="42.740963" lon="-8.659605">
        <ele>14.156</ele>
        <time>2015-03-27T12:36:20Z</time>
      </trkpt>
      <trkpt lat="42.741493" lon="-8.659340">
        <ele>14.193</ele>
        <time>2015-03-27T12:36:35Z</time>
      </trkpt>
      <trkpt lat="42.741792" lon="-8.659217">
        <ele>14.196</ele>
        <time>2015-03-27T12:36:43Z</time>
      </trkpt>
      <trkpt lat="42.742128" lon="-8.658876">
        <ele>14.131</ele>
        <time>2015-03-27T12:36:53Z</time>
      </trkpt>
      <trkpt lat="42.742605" lon="-8.658456">
        <ele>14.124</ele>
        <time>2015-03-27T12:37:08Z</time>
      </trkpt>
      <trkpt lat="42.743083" lon="-8.657967">
        <ele>14.107</ele>
        <time>2015-03-27T12:37:23Z</time>
      </trkpt>
      <trkpt lat="42.743515" lon="-8.657490">
        <ele>14.138</ele>
        <time>2015-03-27T12:37:37Z</time>
      </trkpt>
      <trkpt lat="42.743996" lon="-8.657310">
        <ele>14.161</ele>
        <time>2015-03-27T12:37:52Z</time>
      </trkpt>
      <trkpt lat="42.744182" lon="-8.657209">
        <ele>14.133</ele>
        <time>2015-03-27T12:38:01Z</time>
      </trkpt>
      <trkpt lat="42.744263" lon="-8.657150">
        <ele>14.153</ele>
        <time>2015-03-27T12:38:13Z</time>
      </trkpt>
      <trkpt lat="42.744447" lon="-8.656861">
        <ele>14.191</ele>
        <time>2015-03-27T12:38:22Z</time>
      </trkpt>
      <trkpt lat="42.744625" lon="-8.656474">
        <ele>16.596</ele>
        <time>2015-03-27T12:38:36Z</time>
      </trkpt>
      <trkpt lat="42.744667" lon="-8.656397">
        <ele>17.053</ele>
        <time>2015-03-27T12:38:50Z</time>
      </trkpt>
      <trkpt lat="42.744715" lon="-8.656369">
        <ele>17.495</ele>
        <time>2015-03-27T12:38:57Z</time>
      </trkpt>
      <trkpt lat="42.744790" lon="-8.656142">
        <ele>17.449</ele>
        <time>2015-03-27T12:39:07Z</time>
      </trkpt>
      <trkpt lat="42.744862" lon="-8.655987">
        <ele>17.023</ele>
        <time>2015-03-27T12:39:19Z</time>
      </trkpt>
      <trkpt lat="42.744905" lon="-8.655924">
        <ele>17.007</ele>
        <time>2015-03-27T12:39:48Z</time>
      </trkpt>
      <trkpt lat="42.745182" lon="-8.655463">
        <ele>17.088</ele>
        <time>2015-03-27T12:40:03Z</time>
      </trkpt>
      <trkpt lat="42.745446" lon="-8.655031">
        <ele>17.991</ele>
        <time>2015-03-27T12:40:17Z</time>
      </trkpt>
      <trkpt lat="42.745601" lon="-8.654663">
        <ele>18.443</ele>
        <time>2015-03-27T12:40:30Z</time>
      </trkpt>
      <trkpt lat="42.745648" lon="-8.654712">
        <ele>18.433</ele>
        <time>2015-03-27T12:40:53Z</time>
      </trkpt>
      <trkpt lat="42.745642" lon="-8.654840">
        <ele>18.441</ele>
        <time>2015-03-27T12:41:01Z</time>
      </trkpt>
      <trkpt lat="42.745655" lon="-8.655161">
        <ele>18.496</ele>
        <time>2015-03-27T12:41:21Z</time>
      </trkpt>
      <trkpt lat="42.745711" lon="-8.655383">
        <ele>18.453</ele>
        <time>2015-03-27T12:41:35Z</time>
      </trkpt>
      <trkpt lat="42.745756" lon="-8.655394">
        <ele>18.498</ele>
        <time>2015-03-27T12:41:39Z</time>
      </trkpt>
      <trkpt lat="42.745881" lon="-8.655342">
        <ele>18.415</ele>
        <time>2015-03-27T12:41:57Z</time>
      </trkpt>
      <trkpt lat="42.745727" lon="-8.655425">
        <ele>18.426</ele>
        <time>2015-03-27T12:44:07Z</time>
      </trkpt>
      <trkpt lat="42.745689" lon="-8.655335">
        <ele>18.407</ele>
        <time>2015-03-27T12:44:13Z</time>
      </trkpt>
      <trkpt lat="42.745642" lon="-8.654936">
        <ele>18.498</ele>
        <time>2015-03-27T12:44:37Z</time>
      </trkpt>
      <trkpt lat="42.745648" lon="-8.654760">
        <ele>18.481</ele>
        <time>2015-03-27T12:44:57Z</time>
      </trkpt>
      <trkpt lat="42.745601" lon="-8.654675">
        <ele>18.493</ele>
        <time>2015-03-27T12:45:32Z</time>
      </trkpt>
      <trkpt lat="42.745599" lon="-8.654587">
        <ele>18.473</ele>
        <time>2015-03-27T12:45:53Z</time>
      </trkpt>
      <trkpt lat="42.745623" lon="-8.654137">
        <ele>16.591</ele>
        <time>2015-03-27T12:46:02Z</time>
      </trkpt>
      <trkpt lat="42.745645" lon="-8.653958">
        <ele>15.086</ele>
        <time>2015-03-27T12:46:04Z</time>
      </trkpt>
      <trkpt lat="42.745765" lon="-8.653643">
        <ele>16.553</ele>
        <time>2015-03-27T12:46:10Z</time>
      </trkpt>
      <trkpt lat="42.745933" lon="-8.653433">
        <ele>20.375</ele>
        <time>2015-03-27T12:46:20Z</time>
      </trkpt>
      <trkpt lat="42.746256" lon="-8.653153">
        <ele>21.828</ele>
        <time>2015-03-27T12:46:35Z</time>
      </trkpt>
      <trkpt lat="42.746683" lon="-8.652877">
        <ele>24.220</ele>
        <time>2015-03-27T12:46:55Z</time>
      </trkpt>
      <trkpt lat="42.747100" lon="-8.652754">
        <ele>24.707</ele>
        <time>2015-03-27T12:47:08Z</time>
      </trkpt>
      <trkpt lat="42.747478" lon="-8.652754">
        <ele>24.756</ele>
        <time>2015-03-27T12:47:19Z</time>
      </trkpt>
      <trkpt lat="42.747865" lon="-8.652549">
        <ele>24.749</ele>
        <time>2015-03-27T12:47:31Z</time>
      </trkpt>
      <trkpt lat="42.748225" lon="-8.652332">
        <ele>26.651</ele>
        <time>2015-03-27T12:47:48Z</time>
      </trkpt>
      <trkpt lat="42.748513" lon="-8.652280">
        <ele>29.521</ele>
        <time>2015-03-27T12:48:03Z</time>
      </trkpt>
      <trkpt lat="42.748794" lon="-8.652368">
        <ele>29.979</ele>
        <time>2015-03-27T12:48:15Z</time>
      </trkpt>
      <trkpt lat="42.748844" lon="-8.652565">
        <ele>28.574</ele>
        <time>2015-03-27T12:48:19Z</time>
      </trkpt>
      <trkpt lat="42.748854" lon="-8.653031">
        <ele>24.771</ele>
        <time>2015-03-27T12:48:24Z</time>
      </trkpt>
      <trkpt lat="42.748857" lon="-8.653351">
        <ele>23.214</ele>
        <time>2015-03-27T12:48:27Z</time>
      </trkpt>
      <trkpt lat="42.748906" lon="-8.653757">
        <ele>22.354</ele>
        <time>2015-03-27T12:48:31Z</time>
      </trkpt>
      <trkpt lat="42.748910" lon="-8.654345">
        <ele>20.309</ele>
        <time>2015-03-27T12:48:37Z</time>
      </trkpt>
      <trkpt lat="42.749023" lon="-8.654526">
        <ele>20.307</ele>
        <time>2015-03-27T12:48:44Z</time>
      </trkpt>
      <trkpt lat="42.749138" lon="-8.654468">
        <ele>20.320</ele>
        <time>2015-03-27T12:48:48Z</time>
      </trkpt>
      <trkpt lat="42.749667" lon="-8.654254">
        <ele>20.393</ele>
        <time>2015-03-27T12:49:04Z</time>
      </trkpt>
      <trkpt lat="42.750242" lon="-8.654032">
        <ele>21.365</ele>
        <time>2015-03-27T12:49:21Z</time>
      </trkpt>
      <trkpt lat="42.750842" lon="-8.653787">
        <ele>22.395</ele>
        <time>2015-03-27T12:49:38Z</time>
      </trkpt>
      <trkpt lat="42.751439" lon="-8.653578">
        <ele>23.273</ele>
        <time>2015-03-27T12:49:55Z</time>
      </trkpt>
      <trkpt lat="42.751834" lon="-8.653431">
        <ele>24.798</ele>
        <time>2015-03-27T12:50:06Z</time>
      </trkpt>
      <trkpt lat="42.751955" lon="-8.653366">
        <ele>23.285</ele>
        <time>2015-03-27T12:50:09Z</time>
      </trkpt>
      <trkpt lat="42.752958" lon="-8.652918">
        <ele>20.827</ele>
        <time>2015-03-27T12:50:29Z</time>
      </trkpt>
      <trkpt lat="42.753768" lon="-8.652614">
        <ele>21.368</ele>
        <time>2015-03-27T12:50:47Z</time>
      </trkpt>
      <trkpt lat="42.754593" lon="-8.652303">
        <ele>22.314</ele>
        <time>2015-03-27T12:51:07Z</time>
      </trkpt>
      <trkpt lat="42.755244" lon="-8.652059">
        <ele>23.707</ele>
        <time>2015-03-27T12:51:23Z</time>
      </trkpt>
      <trkpt lat="42.755811" lon="-8.651747">
        <ele>26.191</ele>
        <time>2015-03-27T12:51:40Z</time>
      </trkpt>
      <trkpt lat="42.756087" lon="-8.651558">
        <ele>27.184</ele>
        <time>2015-03-27T12:51:49Z</time>
      </trkpt>
      <trkpt lat="42.756322" lon="-8.651633">
        <ele>27.186</ele>
        <time>2015-03-27T12:51:55Z</time>
      </trkpt>
      <trkpt lat="42.756959" lon="-8.651447">
        <ele>28.066</ele>
        <time>2015-03-27T12:52:11Z</time>
      </trkpt>
      <trkpt lat="42.757670" lon="-8.651270">
        <ele>28.094</ele>
        <time>2015-03-27T12:52:29Z</time>
      </trkpt>
      <trkpt lat="42.758353" lon="-8.651158">
        <ele>29.939</ele>
        <time>2015-03-27T12:52:46Z</time>
      </trkpt>
      <trkpt lat="42.758764" lon="-8.651114">
        <ele>30.956</ele>
        <time>2015-03-27T12:52:56Z</time>
      </trkpt>
      <trkpt lat="42.759468" lon="-8.651074">
        <ele>32.384</ele>
        <time>2015-03-27T12:53:13Z</time>
      </trkpt>
      <trkpt lat="42.759937" lon="-8.651069">
        <ele>32.307</ele>
        <time>2015-03-27T12:53:25Z</time>
      </trkpt>
      <trkpt lat="42.759965" lon="-8.651311">
        <ele>31.417</ele>
        <time>2015-03-27T12:53:52Z</time>
      </trkpt>
      <trkpt lat="42.760002" lon="-8.652011">
        <ele>27.107</ele>
        <time>2015-03-27T12:54:00Z</time>
      </trkpt>
      <trkpt lat="42.760040" lon="-8.652444">
        <ele>25.637</ele>
        <time>2015-03-27T12:54:04Z</time>
      </trkpt>
      <trkpt lat="42.760074" lon="-8.653020">
        <ele>21.860</ele>
        <time>2015-03-27T12:54:09Z</time>
      </trkpt>
      <trkpt lat="42.760120" lon="-8.653415">
        <ele>20.382</ele>
        <time>2015-03-27T12:54:15Z</time>
      </trkpt>
      <trkpt lat="42.760186" lon="-8.653462">
        <ele>19.822</ele>
        <time>2015-03-27T12:54:19Z</time>
      </trkpt>
      <trkpt lat="42.760506" lon="-8.653487">
        <ele>19.840</ele>
        <time>2015-03-27T12:54:28Z</time>
      </trkpt>
      <trkpt lat="42.760666" lon="-8.653521">
        <ele>19.815</ele>
        <time>2015-03-27T12:54:32Z</time>
      </trkpt>
      <trkpt lat="42.761435" lon="-8.653632">
        <ele>19.472</ele>
        <time>2015-03-27T12:54:50Z</time>
      </trkpt>
      <trkpt lat="42.762114" lon="-8.653790">
        <ele>18.462</ele>
        <time>2015-03-27T12:55:05Z</time>
      </trkpt>
      <trkpt lat="42.762361" lon="-8.653752">
        <ele>19.483</ele>
        <time>2015-03-27T12:55:11Z</time>
      </trkpt>
      <trkpt lat="42.762842" lon="-8.653644">
        <ele>19.811</ele>
        <time>2015-03-27T12:55:23Z</time>
      </trkpt>
      <trkpt lat="42.762986" lon="-8.653806">
        <ele>19.807</ele>
        <time>2015-03-27T12:55:28Z</time>
      </trkpt>
      <trkpt lat="42.763085" lon="-8.653971">
        <ele>19.825</ele>
        <time>2015-03-27T12:55:31Z</time>
      </trkpt>
      <trkpt lat="42.763156" lon="-8.654104">
        <ele>18.498</ele>
        <time>2015-03-27T12:55:33Z</time>
      </trkpt>
      <trkpt lat="42.763312" lon="-8.654285">
        <ele>17.440</ele>
        <time>2015-03-27T12:55:38Z</time>
      </trkpt>
      <trkpt lat="42.763482" lon="-8.654416">
        <ele>17.090</ele>
        <time>2015-03-27T12:55:43Z</time>
      </trkpt>
      <trkpt lat="42.763746" lon="-8.654467">
        <ele>18.458</ele>
        <time>2015-03-27T12:55:50Z</time>
      </trkpt>
      <trkpt lat="42.763865" lon="-8.654500">
        <ele>18.433</ele>
        <time>2015-03-27T12:55:53Z</time>
      </trkpt>
      <trkpt lat="42.764099" lon="-8.654645">
        <ele>18.430</ele>
        <time>2015-03-27T12:56:02Z</time>
      </trkpt>
      <trkpt lat="42.764151" lon="-8.654813">
        <ele>18.464</ele>
        <time>2015-03-27T12:56:08Z</time>
      </trkpt>
      <trkpt lat="42.764425" lon="-8.654928">
        <ele>18.406</ele>
        <time>2015-03-27T12:56:18Z</time>
      </trkpt>
      <trkpt lat="42.764490" lon="-8.654974">
        <ele>18.416</ele>
        <time>2015-03-27T12:56:20Z</time>
      </trkpt>
      <trkpt lat="42.764597" lon="-8.655126">
        <ele>18.407</ele>
        <time>2015-03-27T12:56:24Z</time>
      </trkpt>
      <trkpt lat="42.764650" lon="-8.655211">
        <ele>18.425</ele>
        <time>2015-03-27T12:56:26Z</time>
      </trkpt>
      <trkpt lat="42.765019" lon="-8.655393">
        <ele>17.418</ele>
        <time>2015-03-27T12:56:35Z</time>
      </trkpt>
      <trkpt lat="42.765239" lon="-8.655357">
        <ele>17.050</ele>
        <time>2015-03-27T12:56:40Z</time>
      </trkpt>
      <trkpt lat="42.765386" lon="-8.655077">
        <ele>16.540</ele>
        <time>2015-03-27T12:56:47Z</time>
      </trkpt>
      <trkpt lat="42.765431" lon="-8.655064">
        <ele>16.518</ele>
        <time>2015-03-27T12:56:48Z</time>
      </trkpt>
      <trkpt lat="42.765607" lon="-8.654986">
        <ele>16.573</ele>
        <time>2015-03-27T12:56:53Z</time>
      </trkpt>
      <trkpt lat="42.765650" lon="-8.654724">
        <ele>17.960</ele>
        <time>2015-03-27T12:56:59Z</time>
      </trkpt>
      <trkpt lat="42.765811" lon="-8.654243">
        <ele>18.945</ele>
        <time>2015-03-27T12:57:11Z</time>
      </trkpt>
      <trkpt lat="42.765948" lon="-8.654179">
        <ele>19.447</ele>
        <time>2015-03-27T12:57:16Z</time>
      </trkpt>
      <trkpt lat="42.766250" lon="-8.654143">
        <ele>21.311</ele>
        <time>2015-03-27T12:57:29Z</time>
      </trkpt>
      <trkpt lat="42.766476" lon="-8.654219">
        <ele>23.207</ele>
        <time>2015-03-27T12:57:40Z</time>
      </trkpt>
      <trkpt lat="42.766526" lon="-8.654274">
        <ele>23.213</ele>
        <time>2015-03-27T12:57:43Z</time>
      </trkpt>
      <trkpt lat="42.766561" lon="-8.654524">
        <ele>21.856</ele>
        <time>2015-03-27T12:57:51Z</time>
      </trkpt>
      <trkpt lat="42.766667" lon="-8.654975">
        <ele>20.888</ele>
        <time>2015-03-27T12:58:01Z</time>
      </trkpt>
      <trkpt lat="42.766925" lon="-8.655384">
        <ele>18.498</ele>
        <time>2015-03-27T12:58:09Z</time>
      </trkpt>
      <trkpt lat="42.767088" lon="-8.655418">
        <ele>18.476</ele>
        <time>2015-03-27T12:58:13Z</time>
      </trkpt>
      <trkpt lat="42.767626" lon="-8.654957">
        <ele>18.961</ele>
        <time>2015-03-27T12:58:30Z</time>
      </trkpt>
      <trkpt lat="42.768210" lon="-8.654513">
        <ele>20.858</ele>
        <time>2015-03-27T12:58:48Z</time>
      </trkpt>
      <trkpt lat="42.768850" lon="-8.654041">
        <ele>21.825</ele>
        <time>2015-03-27T12:59:07Z</time>
      </trkpt>
      <trkpt lat="42.769478" lon="-8.653558">
        <ele>22.726</ele>
        <time>2015-03-27T12:59:26Z</time>
      </trkpt>
      <trkpt lat="42.769847" lon="-8.653127">
        <ele>23.708</ele>
        <time>2015-03-27T12:59:39Z</time>
      </trkpt>
      <trkpt lat="42.769964" lon="-8.653174">
        <ele>24.207</ele>
        <time>2015-03-27T12:59:43Z</time>
      </trkpt>
      <trkpt lat="42.770291" lon="-8.653631">
        <ele>24.241</ele>
        <time>2015-03-27T12:59:57Z</time>
      </trkpt>
      <trkpt lat="42.770405" lon="-8.653687">
        <ele>24.784</ele>
        <time>2015-03-27T13:00:03Z</time>
      </trkpt>
      <trkpt lat="42.770384" lon="-8.654023">
        <ele>25.626</ele>
        <time>2015-03-27T13:00:12Z</time>
      </trkpt>
      <trkpt lat="42.770397" lon="-8.654217">
        <ele>27.156</ele>
        <time>2015-03-27T13:00:18Z</time>
      </trkpt>
      <trkpt lat="42.770758" lon="-8.654427">
        <ele>29.014</ele>
        <time>2015-03-27T13:00:35Z</time>
      </trkpt>
      <trkpt lat="42.771195" lon="-8.654569">
        <ele>30.459</ele>
        <time>2015-03-27T13:00:52Z</time>
      </trkpt>
      <trkpt lat="42.771256" lon="-8.654435">
        <ele>30.426</ele>
        <time>2015-03-27T13:00:56Z</time>
      </trkpt>
      <trkpt lat="42.771242" lon="-8.654318">
        <ele>30.479</ele>
        <time>2015-03-27T13:00:58Z</time>
      </trkpt>
      <trkpt lat="42.771334" lon="-8.654096">
        <ele>29.505</ele>
        <time>2015-03-27T13:01:03Z</time>
      </trkpt>
      <trkpt lat="42.771805" lon="-8.654004">
        <ele>30.425</ele>
        <time>2015-03-27T13:01:20Z</time>
      </trkpt>
      <trkpt lat="42.772267" lon="-8.653903">
        <ele>31.407</ele>
        <time>2015-03-27T13:01:35Z</time>
      </trkpt>
      <trkpt lat="42.772949" lon="-8.653761">
        <ele>34.366</ele>
        <time>2015-03-27T13:01:54Z</time>
      </trkpt>
      <trkpt lat="42.773552" lon="-8.653622">
        <ele>35.289</ele>
        <time>2015-03-27T13:02:11Z</time>
      </trkpt>
      <trkpt lat="42.773835" lon="-8.653604">
        <ele>36.261</ele>
        <time>2015-03-27T13:02:19Z</time>
      </trkpt>
      <trkpt lat="42.773907" lon="-8.653757">
        <ele>36.721</ele>
        <time>2015-03-27T13:02:23Z</time>
      </trkpt>
      <trkpt lat="42.773953" lon="-8.654006">
        <ele>36.719</ele>
        <time>2015-03-27T13:02:28Z</time>
      </trkpt>
      <trkpt lat="42.774067" lon="-8.654075">
        <ele>37.214</ele>
        <time>2015-03-27T13:02:32Z</time>
      </trkpt>
      <trkpt lat="42.774819" lon="-8.653951">
        <ele>38.181</ele>
        <time>2015-03-27T13:02:52Z</time>
      </trkpt>
      <trkpt lat="42.775099" lon="-8.653912">
        <ele>38.177</ele>
        <time>2015-03-27T13:02:59Z</time>
      </trkpt>
      <trkpt lat="42.775609" lon="-8.653823">
        <ele>36.761</ele>
        <time>2015-03-27T13:03:11Z</time>
      </trkpt>
      <trkpt lat="42.776264" lon="-8.653767">
        <ele>36.227</ele>
        <time>2015-03-27T13:03:27Z</time>
      </trkpt>
      <trkpt lat="42.776674" lon="-8.653612">
        <ele>35.207</ele>
        <time>2015-03-27T13:03:38Z</time>
      </trkpt>
      <trkpt lat="42.776767" lon="-8.653593">
        <ele>34.786</ele>
        <time>2015-03-27T13:03:40Z</time>
      </trkpt>
      <trkpt lat="42.777166" lon="-8.653718">
        <ele>31.989</ele>
        <time>2015-03-27T13:03:47Z</time>
      </trkpt>
      <trkpt lat="42.777469" lon="-8.653723">
        <ele>31.951</ele>
        <time>2015-03-27T13:03:55Z</time>
      </trkpt>
      <trkpt lat="42.777596" lon="-8.653751">
        <ele>30.441</ele>
        <time>2015-03-27T13:03:58Z</time>
      </trkpt>
      <trkpt lat="42.777905" lon="-8.653506">
        <ele>30.939</ele>
        <time>2015-03-27T13:04:07Z</time>
      </trkpt>
      <trkpt lat="42.778352" lon="-8.653533">
        <ele>29.994</ele>
        <time>2015-03-27T13:04:16Z</time>
      </trkpt>
      <trkpt lat="42.778546" lon="-8.653561">
        <ele>29.531</ele>
        <time>2015-03-27T13:04:20Z</time>
      </trkpt>
      <trkpt lat="42.778779" lon="-8.653497">
        <ele>32.317</ele>
        <time>2015-03-27T13:04:29Z</time>
      </trkpt>
      <trkpt lat="42.779050" lon="-8.653103">
        <ele>33.387</ele>
        <time>2015-03-27T13:04:43Z</time>
      </trkpt>
      <trkpt lat="42.779397" lon="-8.652651">
        <ele>34.315</ele>
        <time>2015-03-27T13:04:57Z</time>
      </trkpt>
      <trkpt lat="42.779759" lon="-8.652144">
        <ele>35.207</ele>
        <time>2015-03-27T13:05:13Z</time>
      </trkpt>
      <trkpt lat="42.780048" lon="-8.651658">
        <ele>36.760</ele>
        <time>2015-03-27T13:05:27Z</time>
      </trkpt>
      <trkpt lat="42.780114" lon="-8.651282">
        <ele>37.673</ele>
        <time>2015-03-27T13:05:39Z</time>
      </trkpt>
      <trkpt lat="42.780156" lon="-8.651220">
        <ele>37.635</ele>
        <time>2015-03-27T13:05:43Z</time>
      </trkpt>
      <trkpt lat="42.780197" lon="-8.651084">
        <ele>37.625</ele>
        <time>2015-03-27T13:05:48Z</time>
      </trkpt>
      <trkpt lat="42.780582" lon="-8.650976">
        <ele>37.633</ele>
        <time>2015-03-27T13:06:00Z</time>
      </trkpt>
      <trkpt lat="42.780682" lon="-8.650949">
        <ele>37.628</ele>
        <time>2015-03-27T13:06:04Z</time>
      </trkpt>
      <trkpt lat="42.780762" lon="-8.650856">
        <ele>37.655</ele>
        <time>2015-03-27T13:06:10Z</time>
      </trkpt>
      <trkpt lat="42.780876" lon="-8.650829">
        <ele>36.767</ele>
        <time>2015-03-27T13:06:13Z</time>
      </trkpt>
      <trkpt lat="42.781383" lon="-8.650684">
        <ele>36.281</ele>
        <time>2015-03-27T13:06:26Z</time>
      </trkpt>
      <trkpt lat="42.782029" lon="-8.650547">
        <ele>36.219</ele>
        <time>2015-03-27T13:06:43Z</time>
      </trkpt>
      <trkpt lat="42.782530" lon="-8.650416">
        <ele>36.207</ele>
        <time>2015-03-27T13:06:58Z</time>
      </trkpt>
      <trkpt lat="42.782868" lon="-8.650344">
        <ele>36.245</ele>
        <time>2015-03-27T13:07:08Z</time>
      </trkpt>
      <trkpt lat="42.783008" lon="-8.650322">
        <ele>37.258</ele>
        <time>2015-03-27T13:07:12Z</time>
      </trkpt>
      <trkpt lat="42.783144" lon="-8.650286">
        <ele>38.140</ele>
        <time>2015-03-27T13:07:17Z</time>
      </trkpt>
      <trkpt lat="42.783414" lon="-8.650208">
        <ele>38.180</ele>
        <time>2015-03-27T13:07:27Z</time>
      </trkpt>
      <trkpt lat="42.783882" lon="-8.650086">
        <ele>39.178</ele>
        <time>2015-03-27T13:07:42Z</time>
      </trkpt>
      <trkpt lat="42.784002" lon="-8.650046">
        <ele>41.083</ele>
        <time>2015-03-27T13:08:07Z</time>
      </trkpt>
      <trkpt lat="42.784063" lon="-8.650009">
        <ele>42.960</ele>
        <time>2015-03-27T13:08:51Z</time>
      </trkpt>
      <trkpt lat="42.784128" lon="-8.649960">
        <ele>42.981</ele>
        <time>2015-03-27T13:09:28Z</time>
      </trkpt>
      <trkpt lat="42.784339" lon="-8.649714">
        <ele>42.961</ele>
        <time>2015-03-27T13:09:40Z</time>
      </trkpt>
      <trkpt lat="42.784624" lon="-8.649440">
        <ele>43.917</ele>
        <time>2015-03-27T13:09:54Z</time>
      </trkpt>
      <trkpt lat="42.784825" lon="-8.649167">
        <ele>46.807</ele>
        <time>2015-03-27T13:10:09Z</time>
      </trkpt>
      <trkpt lat="42.785072" lon="-8.648881">
        <ele>49.257</ele>
        <time>2015-03-27T13:10:27Z</time>
      </trkpt>
      <trkpt lat="42.785356" lon="-8.648665">
        <ele>51.690</ele>
        <time>2015-03-27T13:10:45Z</time>
      </trkpt>
      <trkpt lat="42.785586" lon="-8.648400">
        <ele>53.042</ele>
        <time>2015-03-27T13:10:59Z</time>
      </trkpt>
      <trkpt lat="42.785950" lon="-8.647883">
        <ele>54.522</ele>
        <time>2015-03-27T13:11:20Z</time>
      </trkpt>
      <trkpt lat="42.786316" lon="-8.647797">
        <ele>55.450</ele>
        <time>2015-03-27T13:11:35Z</time>
      </trkpt>
      <trkpt lat="42.786674" lon="-8.647953">
        <ele>56.425</ele>
        <time>2015-03-27T13:11:49Z</time>
      </trkpt>
      <trkpt lat="42.786831" lon="-8.648013">
        <ele>56.442</ele>
        <time>2015-03-27T13:11:53Z</time>
      </trkpt>
      <trkpt lat="42.786907" lon="-8.648070">
        <ele>56.493</ele>
        <time>2015-03-27T13:11:55Z</time>
      </trkpt>
      <trkpt lat="42.787047" lon="-8.648043">
        <ele>56.465</ele>
        <time>2015-03-27T13:11:59Z</time>
      </trkpt>
      <trkpt lat="42.787628" lon="-8.647715">
        <ele>56.921</ele>
        <time>2015-03-27T13:12:16Z</time>
      </trkpt>
      <trkpt lat="42.788047" lon="-8.647702">
        <ele>57.307</ele>
        <time>2015-03-27T13:12:27Z</time>
      </trkpt>
      <trkpt lat="42.788118" lon="-8.647637">
        <ele>57.358</ele>
        <time>2015-03-27T13:12:29Z</time>
      </trkpt>
      <trkpt lat="42.788064" lon="-8.647274">
        <ele>57.811</ele>
        <time>2015-03-27T13:12:37Z</time>
      </trkpt>
      <trkpt lat="42.788164" lon="-8.647149">
        <ele>57.853</ele>
        <time>2015-03-27T13:12:41Z</time>
      </trkpt>
      <trkpt lat="42.789005" lon="-8.646908">
        <ele>57.863</ele>
        <time>2015-03-27T13:13:01Z</time>
      </trkpt>
      <trkpt lat="42.789741" lon="-8.646686">
        <ele>55.981</ele>
        <time>2015-03-27T13:13:17Z</time>
      </trkpt>
      <trkpt lat="42.789851" lon="-8.646650">
        <ele>54.926</ele>
        <time>2015-03-27T13:13:19Z</time>
      </trkpt>
      <trkpt lat="42.789935" lon="-8.646378">
        <ele>54.543</ele>
        <time>2015-03-27T13:13:25Z</time>
      </trkpt>
      <trkpt lat="42.789889" lon="-8.646214">
        <ele>55.934</ele>
        <time>2015-03-27T13:13:30Z</time>
      </trkpt>
      <trkpt lat="42.789904" lon="-8.645864">
        <ele>59.355</ele>
        <time>2015-03-27T13:13:43Z</time>
      </trkpt>
      <trkpt lat="42.790024" lon="-8.645454">
        <ele>62.110</ele>
        <time>2015-03-27T13:14:01Z</time>
      </trkpt>
      <trkpt lat="42.790068" lon="-8.645120">
        <ele>65.507</ele>
        <time>2015-03-27T13:14:15Z</time>
      </trkpt>
      <trkpt lat="42.790073" lon="-8.644918">
        <ele>66.532</ele>
        <time>2015-03-27T13:14:23Z</time>
      </trkpt>
      <trkpt lat="42.790181" lon="-8.644904">
        <ele>67.435</ele>
        <time>2015-03-27T13:14:30Z</time>
      </trkpt>
      <trkpt lat="42.790530" lon="-8.644863">
        <ele>67.937</ele>
        <time>2015-03-27T13:14:44Z</time>
      </trkpt>
      <trkpt lat="42.790925" lon="-8.644843">
        <ele>67.487</ele>
        <time>2015-03-27T13:14:58Z</time>
      </trkpt>
      <trkpt lat="42.791196" lon="-8.644850">
        <ele>67.485</ele>
        <time>2015-03-27T13:15:08Z</time>
      </trkpt>
      <trkpt lat="42.791626" lon="-8.644787">
        <ele>67.950</ele>
        <time>2015-03-27T13:15:22Z</time>
      </trkpt>
      <trkpt lat="42.792038" lon="-8.644510">
        <ele>67.947</ele>
        <time>2015-03-27T13:15:36Z</time>
      </trkpt>
      <trkpt lat="42.792284" lon="-8.644145">
        <ele>67.024</ele>
        <time>2015-03-27T13:15:44Z</time>
      </trkpt>
      <trkpt lat="42.792745" lon="-8.643562">
        <ele>66.504</ele>
        <time>2015-03-27T13:15:59Z</time>
      </trkpt>
      <trkpt lat="42.792849" lon="-8.643469">
        <ele>67.914</ele>
        <time>2015-03-27T13:16:04Z</time>
      </trkpt>
      <trkpt lat="42.793139" lon="-8.643137">
        <ele>70.307</ele>
        <time>2015-03-27T13:16:18Z</time>
      </trkpt>
      <trkpt lat="42.793412" lon="-8.642766">
        <ele>70.881</ele>
        <time>2015-03-27T13:16:31Z</time>
      </trkpt>
      <trkpt lat="42.793480" lon="-8.642717">
        <ele>70.894</ele>
        <time>2015-03-27T13:16:33Z</time>
      </trkpt>
      <trkpt lat="42.793815" lon="-8.642390">
        <ele>67.456</ele>
        <time>2015-03-27T13:16:40Z</time>
      </trkpt>
      <trkpt lat="42.794041" lon="-8.642082">
        <ele>64.146</ele>
        <time>2015-03-27T13:16:44Z</time>
      </trkpt>
      <trkpt lat="42.794235" lon="-8.641844">
        <ele>60.294</ele>
        <time>2015-03-27T13:16:47Z</time>
      </trkpt>
      <trkpt lat="42.794351" lon="-8.641719">
        <ele>57.869</ele>
        <time>2015-03-27T13:16:49Z</time>
      </trkpt>
      <trkpt lat="42.794656" lon="-8.641691">
        <ele>53.516</ele>
        <time>2015-03-27T13:16:54Z</time>
      </trkpt>
      <trkpt lat="42.794785" lon="-8.641819">
        <ele>53.046</ele>
        <time>2015-03-27T13:16:56Z</time>
      </trkpt>
      <trkpt lat="42.795339" lon="-8.642270">
        <ele>51.188</ele>
        <time>2015-03-27T13:17:05Z</time>
      </trkpt>
      <trkpt lat="42.795669" lon="-8.642183">
        <ele>50.116</ele>
        <time>2015-03-27T13:17:11Z</time>
      </trkpt>
      <trkpt lat="42.796076" lon="-8.641559">
        <ele>48.207</ele>
        <time>2015-03-27T13:17:21Z</time>
      </trkpt>
      <trkpt lat="42.796191" lon="-8.641112">
        <ele>47.773</ele>
        <time>2015-03-27T13:17:27Z</time>
      </trkpt>
      <trkpt lat="42.796311" lon="-8.640507">
        <ele>49.226</ele>
        <time>2015-03-27T13:17:41Z</time>
      </trkpt>
      <trkpt lat="42.796454" lon="-8.640220">
        <ele>49.288</ele>
        <time>2015-03-27T13:17:49Z</time>
      </trkpt>
      <trkpt lat="42.796480" lon="-8.639872">
        <ele>49.258</ele>
        <time>2015-03-27T13:17:56Z</time>
      </trkpt>
      <trkpt lat="42.796392" lon="-8.639590">
        <ele>49.756</ele>
        <time>2015-03-27T13:18:02Z</time>
      </trkpt>
      <trkpt lat="42.796512" lon="-8.639068">
        <ele>49.791</ele>
        <time>2015-03-27T13:18:12Z</time>
      </trkpt>
      <trkpt lat="42.796617" lon="-8.639080">
        <ele>48.238</ele>
        <time>2015-03-27T13:18:27Z</time>
      </trkpt>
      <trkpt lat="42.796791" lon="-8.639067">
        <ele>47.768</ele>
        <time>2015-03-27T13:18:36Z</time>
      </trkpt>
      <trkpt lat="42.797010" lon="-8.638864">
        <ele>47.242</ele>
        <time>2015-03-27T13:18:46Z</time>
      </trkpt>
      <trkpt lat="42.797262" lon="-8.638772">
        <ele>47.226</ele>
        <time>2015-03-27T13:18:53Z</time>
      </trkpt>
      <trkpt lat="42.797460" lon="-8.638555">
        <ele>45.807</ele>
        <time>2015-03-27T13:18:59Z</time>
      </trkpt>
      <trkpt lat="42.797532" lon="-8.638494">
        <ele>45.885</ele>
        <time>2015-03-27T13:19:01Z</time>
      </trkpt>
      <trkpt lat="42.797829" lon="-8.638020">
        <ele>45.368</ele>
        <time>2015-03-27T13:19:13Z</time>
      </trkpt>
      <trkpt lat="42.798005" lon="-8.638014">
        <ele>44.860</ele>
        <time>2015-03-27T13:19:22Z</time>
      </trkpt>
      <trkpt lat="42.798234" lon="-8.637437">
        <ele>45.870</ele>
        <time>2015-03-27T13:19:35Z</time>
      </trkpt>
      <trkpt lat="42.798536" lon="-8.636985">
        <ele>47.278</ele>
        <time>2015-03-27T13:19:49Z</time>
      </trkpt>
      <trkpt lat="42.798800" lon="-8.636787">
        <ele>48.293</ele>
        <time>2015-03-27T13:20:01Z</time>
      </trkpt>
      <trkpt lat="42.799182" lon="-8.636443">
        <ele>51.150</ele>
        <time>2015-03-27T13:20:19Z</time>
      </trkpt>
      <trkpt lat="42.799068" lon="-8.636003">
        <ele>53.022</ele>
        <time>2015-03-27T13:20:35Z</time>
      </trkpt>
      <trkpt lat="42.798981" lon="-8.635449">
        <ele>54.562</ele>
        <time>2015-03-27T13:20:55Z</time>
      </trkpt>
      <trkpt lat="42.799246" lon="-8.635047">
        <ele>56.908</ele>
        <time>2015-03-27T13:21:13Z</time>
      </trkpt>
      <trkpt lat="42.799435" lon="-8.634744">
        <ele>58.307</ele>
        <time>2015-03-27T13:21:26Z</time>
      </trkpt>
      <trkpt lat="42.799459" lon="-8.634667">
        <ele>58.391</ele>
        <time>2015-03-27T13:21:29Z</time>
      </trkpt>
      <trkpt lat="42.799642" lon="-8.634498">
        <ele>59.754</ele>
        <time>2015-03-27T13:21:40Z</time>
      </trkpt>
      <trkpt lat="42.799713" lon="-8.634620">
        <ele>60.256</ele>
        <time>2015-03-27T13:21:47Z</time>
      </trkpt>
      <trkpt lat="42.799748" lon="-8.634770">
        <ele>60.276</ele>
        <time>2015-03-27T13:21:52Z</time>
      </trkpt>
      <trkpt lat="42.800017" lon="-8.635292">
        <ele>60.244</ele>
        <time>2015-03-27T13:22:05Z</time>
      </trkpt>
      <trkpt lat="42.800207" lon="-8.635840">
        <ele>60.259</ele>
        <time>2015-03-27T13:22:18Z</time>
      </trkpt>
      <trkpt lat="42.800625" lon="-8.636337">
        <ele>58.356</ele>
        <time>2015-03-27T13:22:32Z</time>
      </trkpt>
      <trkpt lat="42.800765" lon="-8.636414">
        <ele>57.841</ele>
        <time>2015-03-27T13:22:35Z</time>
      </trkpt>
      <trkpt lat="42.800985" lon="-8.636706">
        <ele>55.981</ele>
        <time>2015-03-27T13:22:40Z</time>
      </trkpt>
      <trkpt lat="42.801063" lon="-8.636962">
        <ele>55.409</ele>
        <time>2015-03-27T13:22:43Z</time>
      </trkpt>
      <trkpt lat="42.801341" lon="-8.637357">
        <ele>54.507</ele>
        <time>2015-03-27T13:22:49Z</time>
      </trkpt>
      <trkpt lat="42.801839" lon="-8.637758">
        <ele>51.153</ele>
        <time>2015-03-27T13:22:57Z</time>
      </trkpt>
      <trkpt lat="42.801899" lon="-8.637808">
        <ele>50.656</ele>
        <time>2015-03-27T13:22:58Z</time>
      </trkpt>
      <trkpt lat="42.802254" lon="-8.637813">
        <ele>50.148</ele>
        <time>2015-03-27T13:23:04Z</time>
      </trkpt>
      <trkpt lat="42.802849" lon="-8.637302">
        <ele>51.148</ele>
        <time>2015-03-27T13:23:20Z</time>
      </trkpt>
      <trkpt lat="42.803632" lon="-8.636602">
        <ele>51.166</ele>
        <time>2015-03-27T13:23:41Z</time>
      </trkpt>
      <trkpt lat="42.804356" lon="-8.635918">
        <ele>50.111</ele>
        <time>2015-03-27T13:24:01Z</time>
      </trkpt>
      <trkpt lat="42.804700" lon="-8.635607">
        <ele>51.128</ele>
        <time>2015-03-27T13:24:11Z</time>
      </trkpt>
      <trkpt lat="42.805347" lon="-8.635030">
        <ele>53.526</ele>
        <time>2015-03-27T13:24:31Z</time>
      </trkpt>
      <trkpt lat="42.805997" lon="-8.634426">
        <ele>55.447</ele>
        <time>2015-03-27T13:24:52Z</time>
      </trkpt>
      <trkpt lat="42.806590" lon="-8.633890">
        <ele>58.311</ele>
        <time>2015-03-27T13:25:11Z</time>
      </trkpt>
      <trkpt lat="42.806914" lon="-8.633595">
        <ele>60.707</ele>
        <time>2015-03-27T13:25:26Z</time>
      </trkpt>
      <trkpt lat="42.807077" lon="-8.633421">
        <ele>62.651</ele>
        <time>2015-03-27T13:25:38Z</time>
      </trkpt>
      <trkpt lat="42.807144" lon="-8.633460">
        <ele>63.164</ele>
        <time>2015-03-27T13:26:09Z</time>
      </trkpt>
      <trkpt lat="42.807230" lon="-8.633418">
        <ele>63.636</ele>
        <time>2015-03-27T13:26:24Z</time>
      </trkpt>
      <trkpt lat="42.807475" lon="-8.633141">
        <ele>65.526</ele>
        <time>2015-03-27T13:26:37Z</time>
      </trkpt>
      <trkpt lat="42.807820" lon="-8.632763">
        <ele>67.034</ele>
        <time>2015-03-27T13:26:54Z</time>
      </trkpt>
      <trkpt lat="42.808156" lon="-8.632371">
        <ele>69.489</ele>
        <time>2015-03-27T13:27:11Z</time>
      </trkpt>
      <trkpt lat="42.808510" lon="-8.631983">
        <ele>71.876</ele>
        <time>2015-03-27T13:27:29Z</time>
      </trkpt>
      <trkpt lat="42.808756" lon="-8.631503">
        <ele>74.224</ele>
        <time>2015-03-27T13:27:46Z</time>
      </trkpt>
      <trkpt lat="42.808974" lon="-8.631240">
        <ele>74.204</ele>
        <time>2015-03-27T13:27:55Z</time>
      </trkpt>
      <trkpt lat="42.809191" lon="-8.630957">
        <ele>73.214</ele>
        <time>2015-03-27T13:28:01Z</time>
      </trkpt>
      <trkpt lat="42.809464" lon="-8.630411">
        <ele>74.207</ele>
        <time>2015-03-27T13:28:14Z</time>
      </trkpt>
      <trkpt lat="42.809642" lon="-8.629673">
        <ele>74.621</ele>
        <time>2015-03-27T13:28:29Z</time>
      </trkpt>
      <trkpt lat="42.809830" lon="-8.628809">
        <ele>75.694</ele>
        <time>2015-03-27T13:28:46Z</time>
      </trkpt>
      <trkpt lat="42.809856" lon="-8.628504">
        <ele>75.636</ele>
        <time>2015-03-27T13:28:51Z</time>
      </trkpt>
      <trkpt lat="42.809854" lon="-8.628333">
        <ele>75.686</ele>
        <time>2015-03-27T13:28:54Z</time>
      </trkpt>
      <trkpt lat="42.809792" lon="-8.627884">
        <ele>74.284</ele>
        <time>2015-03-27T13:29:01Z</time>
      </trkpt>
      <trkpt lat="42.809634" lon="-8.627461">
        <ele>71.839</ele>
        <time>2015-03-27T13:29:06Z</time>
      </trkpt>
      <trkpt lat="42.809427" lon="-8.626776">
        <ele>69.486</ele>
        <time>2015-03-27T13:29:13Z</time>
      </trkpt>
      <trkpt lat="42.809397" lon="-8.626418">
        <ele>69.449</ele>
        <time>2015-03-27T13:29:17Z</time>
      </trkpt>
      <trkpt lat="42.809426" lon="-8.626102">
        <ele>69.402</ele>
        <time>2015-03-27T13:29:21Z</time>
      </trkpt>
      <trkpt lat="42.809705" lon="-8.625277">
        <ele>68.922</ele>
        <time>2015-03-27T13:29:35Z</time>
      </trkpt>
      <trkpt lat="42.809836" lon="-8.624933">
        <ele>70.307</ele>
        <time>2015-03-27T13:29:42Z</time>
      </trkpt>
      <trkpt lat="42.810120" lon="-8.624507">
        <ele>72.793</ele>
        <time>2015-03-27T13:29:56Z</time>
      </trkpt>
      <trkpt lat="42.810521" lon="-8.624173">
        <ele>71.356</ele>
        <time>2015-03-27T13:30:08Z</time>
      </trkpt>
      <trkpt lat="42.810893" lon="-8.623933">
        <ele>70.368</ele>
        <time>2015-03-27T13:30:14Z</time>
      </trkpt>
      <trkpt lat="42.811255" lon="-8.623718">
        <ele>72.288</ele>
        <time>2015-03-27T13:30:24Z</time>
      </trkpt>
      <trkpt lat="42.811448" lon="-8.623555">
        <ele>75.176</ele>
        <time>2015-03-27T13:30:37Z</time>
      </trkpt>
      <trkpt lat="42.811515" lon="-8.623333">
        <ele>78.051</ele>
        <time>2015-03-27T13:30:49Z</time>
      </trkpt>
      <trkpt lat="42.811648" lon="-8.623048">
        <ele>80.428</ele>
        <time>2015-03-27T13:31:05Z</time>
      </trkpt>
      <trkpt lat="42.811797" lon="-8.622811">
        <ele>83.881</ele>
        <time>2015-03-27T13:31:19Z</time>
      </trkpt>
      <trkpt lat="42.812007" lon="-8.622611">
        <ele>86.761</ele>
        <time>2015-03-27T13:31:36Z</time>
      </trkpt>
      <trkpt lat="42.812199" lon="-8.622526">
        <ele>89.517</ele>
        <time>2015-03-27T13:31:49Z</time>
      </trkpt>
      <trkpt lat="42.812444" lon="-8.622467">
        <ele>91.907</ele>
        <time>2015-03-27T13:32:04Z</time>
      </trkpt>
      <trkpt lat="42.812743" lon="-8.622269">
        <ele>92.437</ele>
        <time>2015-03-27T13:32:19Z</time>
      </trkpt>
      <trkpt lat="42.813057" lon="-8.622090">
        <ele>92.930</ele>
        <time>2015-03-27T13:32:33Z</time>
      </trkpt>
      <trkpt lat="42.813363" lon="-8.621788">
        <ele>93.922</ele>
        <time>2015-03-27T13:32:49Z</time>
      </trkpt>
      <trkpt lat="42.813541" lon="-8.621441">
        <ele>95.862</ele>
        <time>2015-03-27T13:33:04Z</time>
      </trkpt>
      <trkpt lat="42.813761" lon="-8.620911">
        <ele>97.790</ele>
        <time>2015-03-27T13:33:25Z</time>
      </trkpt>
      <trkpt lat="42.813909" lon="-8.620556">
        <ele>101.135</ele>
        <time>2015-03-27T13:33:42Z</time>
      </trkpt>
      <trkpt lat="42.813954" lon="-8.620467">
        <ele>102.572</ele>
        <time>2015-03-27T13:33:47Z</time>
      </trkpt>
      <trkpt lat="42.814137" lon="-8.620333">
        <ele>104.944</ele>
        <time>2015-03-27T13:34:03Z</time>
      </trkpt>
      <trkpt lat="42.814363" lon="-8.620283">
        <ele>107.305</ele>
        <time>2015-03-27T13:34:18Z</time>
      </trkpt>
      <trkpt lat="42.814438" lon="-8.620249">
        <ele>108.315</ele>
        <time>2015-03-27T13:34:30Z</time>
      </trkpt>
      <trkpt lat="42.814474" lon="-8.620186">
        <ele>108.307</ele>
        <time>2015-03-27T13:34:49Z</time>
      </trkpt>
      <trkpt lat="42.814585" lon="-8.620137">
        <ele>108.373</ele>
        <time>2015-03-27T13:41:04Z</time>
      </trkpt>
      <trkpt lat="42.814671" lon="-8.620239">
        <ele>107.886</ele>
        <time>2015-03-27T13:54:13Z</time>
      </trkpt>
      <trkpt lat="42.814697" lon="-8.620369">
        <ele>107.818</ele>
        <time>2015-03-27T13:54:18Z</time>
      </trkpt>
      <trkpt lat="42.814729" lon="-8.620634">
        <ele>106.428</ele>
        <time>2015-03-27T13:54:23Z</time>
      </trkpt>
      <trkpt lat="42.814771" lon="-8.621114">
        <ele>104.046</ele>
        <time>2015-03-27T13:54:29Z</time>
      </trkpt>
      <trkpt lat="42.815030" lon="-8.621632">
        <ele>102.051</ele>
        <time>2015-03-27T13:54:37Z</time>
      </trkpt>
      <trkpt lat="42.815219" lon="-8.621780">
        <ele>102.058</ele>
        <time>2015-03-27T13:54:42Z</time>
      </trkpt>
      <trkpt lat="42.815527" lon="-8.622102">
        <ele>102.098</ele>
        <time>2015-03-27T13:54:53Z</time>
      </trkpt>
      <trkpt lat="42.815948" lon="-8.622146">
        <ele>99.215</ele>
        <time>2015-03-27T13:55:04Z</time>
      </trkpt>
      <trkpt lat="42.816062" lon="-8.622125">
        <ele>96.326</ele>
        <time>2015-03-27T13:55:07Z</time>
      </trkpt>
      <trkpt lat="42.816151" lon="-8.621960">
        <ele>93.907</ele>
        <time>2015-03-27T13:55:11Z</time>
      </trkpt>
      <trkpt lat="42.816202" lon="-8.621794">
        <ele>93.478</ele>
        <time>2015-03-27T13:55:15Z</time>
      </trkpt>
      <trkpt lat="42.816667" lon="-8.621437">
        <ele>93.411</ele>
        <time>2015-03-27T13:55:28Z</time>
      </trkpt>
      <trkpt lat="42.817028" lon="-8.621252">
        <ele>94.453</ele>
        <time>2015-03-27T13:55:41Z</time>
      </trkpt>
      <trkpt lat="42.817356" lon="-8.621218">
        <ele>95.343</ele>
        <time>2015-03-27T13:55:55Z</time>
      </trkpt>
      <trkpt lat="42.817626" lon="-8.621168">
        <ele>96.821</ele>
        <time>2015-03-27T13:56:09Z</time>
      </trkpt>
      <trkpt lat="42.817821" lon="-8.621120">
        <ele>99.296</ele>
        <time>2015-03-27T13:56:22Z</time>
      </trkpt>
      <trkpt lat="42.818046" lon="-8.620926">
        <ele>102.523</ele>
        <time>2015-03-27T13:56:39Z</time>
      </trkpt>
      <trkpt lat="42.818209" lon="-8.620732">
        <ele>105.451</ele>
        <time>2015-03-27T13:56:54Z</time>
      </trkpt>
      <trkpt lat="42.818380" lon="-8.620578">
        <ele>108.801</ele>
        <time>2015-03-27T13:57:09Z</time>
      </trkpt>
      <trkpt lat="42.818548" lon="-8.620436">
        <ele>111.211</ele>
        <time>2015-03-27T13:57:23Z</time>
      </trkpt>
      <trkpt lat="42.818764" lon="-8.620258">
        <ele>114.507</ele>
        <time>2015-03-27T13:57:39Z</time>
      </trkpt>
      <trkpt lat="42.819036" lon="-8.619920">
        <ele>115.574</ele>
        <time>2015-03-27T13:58:00Z</time>
      </trkpt>
      <trkpt lat="42.819253" lon="-8.619654">
        <ele>116.977</ele>
        <time>2015-03-27T13:58:16Z</time>
      </trkpt>
      <trkpt lat="42.819384" lon="-8.619245">
        <ele>117.949</ele>
        <time>2015-03-27T13:58:32Z</time>
      </trkpt>
      <trkpt lat="42.819585" lon="-8.618955">
        <ele>119.359</ele>
        <time>2015-03-27T13:58:46Z</time>
      </trkpt>
      <trkpt lat="42.819625" lon="-8.618901">
        <ele>119.317</ele>
        <time>2015-03-27T13:58:49Z</time>
      </trkpt>
      <trkpt lat="42.819802" lon="-8.618703">
        <ele>120.862</ele>
        <time>2015-03-27T13:59:02Z</time>
      </trkpt>
      <trkpt lat="42.819956" lon="-8.618529">
        <ele>122.229</ele>
        <time>2015-03-27T13:59:14Z</time>
      </trkpt>
      <trkpt lat="42.820218" lon="-8.618362">
        <ele>125.622</ele>
        <time>2015-03-27T13:59:29Z</time>
      </trkpt>
      <trkpt lat="42.820559" lon="-8.618168">
        <ele>127.562</ele>
        <time>2015-03-27T13:59:46Z</time>
      </trkpt>
      <trkpt lat="42.820725" lon="-8.617867">
        <ele>128.008</ele>
        <time>2015-03-27T13:59:59Z</time>
      </trkpt>
      <trkpt lat="42.820778" lon="-8.617400">
        <ele>129.007</ele>
        <time>2015-03-27T14:00:13Z</time>
      </trkpt>
      <trkpt lat="42.820936" lon="-8.616956">
        <ele>129.041</ele>
        <time>2015-03-27T14:00:26Z</time>
      </trkpt>
      <trkpt lat="42.821174" lon="-8.616946">
        <ele>127.574</ele>
        <time>2015-03-27T14:00:32Z</time>
      </trkpt>
      <trkpt lat="42.821268" lon="-8.616971">
        <ele>126.656</ele>
        <time>2015-03-27T14:00:34Z</time>
      </trkpt>
      <trkpt lat="42.821388" lon="-8.616831">
        <ele>128.586</ele>
        <time>2015-03-27T14:00:42Z</time>
      </trkpt>
      <trkpt lat="42.821294" lon="-8.616098">
        <ele>129.994</ele>
        <time>2015-03-27T14:01:00Z</time>
      </trkpt>
      <trkpt lat="42.821278" lon="-8.615856">
        <ele>129.979</ele>
        <time>2015-03-27T14:01:04Z</time>
      </trkpt>
      <trkpt lat="42.821295" lon="-8.615733">
        <ele>128.566</ele>
        <time>2015-03-27T14:01:06Z</time>
      </trkpt>
      <trkpt lat="42.821424" lon="-8.615606">
        <ele>128.597</ele>
        <time>2015-03-27T14:01:10Z</time>
      </trkpt>
      <trkpt lat="42.821792" lon="-8.615470">
        <ele>128.523</ele>
        <time>2015-03-27T14:01:19Z</time>
      </trkpt>
      <trkpt lat="42.822139" lon="-8.615144">
        <ele>128.525</ele>
        <time>2015-03-27T14:01:29Z</time>
      </trkpt>
      <trkpt lat="42.822564" lon="-8.614346">
        <ele>128.507</ele>
        <time>2015-03-27T14:01:46Z</time>
      </trkpt>
      <trkpt lat="42.823095" lon="-8.613774">
        <ele>128.578</ele>
        <time>2015-03-27T14:02:02Z</time>
      </trkpt>
      <trkpt lat="42.823881" lon="-8.613337">
        <ele>128.531</ele>
        <time>2015-03-27T14:02:21Z</time>
      </trkpt>
      <trkpt lat="42.824397" lon="-8.612934">
        <ele>127.513</ele>
        <time>2015-03-27T14:02:32Z</time>
      </trkpt>
      <trkpt lat="42.824468" lon="-8.612710">
        <ele>126.653</ele>
        <time>2015-03-27T14:02:38Z</time>
      </trkpt>
      <trkpt lat="42.824362" lon="-8.612596">
        <ele>128.031</ele>
        <time>2015-03-27T14:02:43Z</time>
      </trkpt>
      <trkpt lat="42.824064" lon="-8.612260">
        <ele>130.966</ele>
        <time>2015-03-27T14:02:59Z</time>
      </trkpt>
      <trkpt lat="42.823681" lon="-8.611841">
        <ele>133.323</ele>
        <time>2015-03-27T14:03:17Z</time>
      </trkpt>
      <trkpt lat="42.823500" lon="-8.611620">
        <ele>133.846</ele>
        <time>2015-03-27T14:03:25Z</time>
      </trkpt>
      <trkpt lat="42.823595" lon="-8.611473">
        <ele>133.888</ele>
        <time>2015-03-27T14:03:30Z</time>
      </trkpt>
      <trkpt lat="42.824198" lon="-8.611123">
        <ele>130.916</ele>
        <time>2015-03-27T14:03:42Z</time>
      </trkpt>
      <trkpt lat="42.824945" lon="-8.610893">
        <ele>129.907</ele>
        <time>2015-03-27T14:03:56Z</time>
      </trkpt>
      <trkpt lat="42.825712" lon="-8.611017">
        <ele>127.513</ele>
        <time>2015-03-27T14:04:10Z</time>
      </trkpt>
      <trkpt lat="42.826041" lon="-8.611140">
        <ele>127.016</ele>
        <time>2015-03-27T14:04:17Z</time>
      </trkpt>
      <trkpt lat="42.826233" lon="-8.610966">
        <ele>127.038</ele>
        <time>2015-03-27T14:04:24Z</time>
      </trkpt>
      <trkpt lat="42.826596" lon="-8.610859">
        <ele>127.018</ele>
        <time>2015-03-27T14:04:37Z</time>
      </trkpt>
      <trkpt lat="42.826668" lon="-8.610875">
        <ele>128.566</ele>
        <time>2015-03-27T14:04:41Z</time>
      </trkpt>
      <trkpt lat="42.826939" lon="-8.610802">
        <ele>131.481</ele>
        <time>2015-03-27T14:04:56Z</time>
      </trkpt>
      <trkpt lat="42.827241" lon="-8.610644">
        <ele>133.328</ele>
        <time>2015-03-27T14:05:12Z</time>
      </trkpt>
      <trkpt lat="42.827535" lon="-8.610380">
        <ele>133.878</ele>
        <time>2015-03-27T14:05:27Z</time>
      </trkpt>
      <trkpt lat="42.828005" lon="-8.610242">
        <ele>133.833</ele>
        <time>2015-03-27T14:05:41Z</time>
      </trkpt>
      <trkpt lat="42.828272" lon="-8.609820">
        <ele>133.826</ele>
        <time>2015-03-27T14:05:52Z</time>
      </trkpt>
      <trkpt lat="42.828309" lon="-8.609541">
        <ele>132.807</ele>
        <time>2015-03-27T14:06:01Z</time>
      </trkpt>
      <trkpt lat="42.828245" lon="-8.608928">
        <ele>133.836</ele>
        <time>2015-03-27T14:06:15Z</time>
      </trkpt>
      <trkpt lat="42.828350" lon="-8.608584">
        <ele>134.299</ele>
        <time>2015-03-27T14:06:24Z</time>
      </trkpt>
      <trkpt lat="42.828561" lon="-8.608378">
        <ele>135.221</ele>
        <time>2015-03-27T14:06:36Z</time>
      </trkpt>
      <trkpt lat="42.828698" lon="-8.608182">
        <ele>137.171</ele>
        <time>2015-03-27T14:06:49Z</time>
      </trkpt>
      <trkpt lat="42.828827" lon="-8.607957">
        <ele>140.079</ele>
        <time>2015-03-27T14:07:02Z</time>
      </trkpt>
      <trkpt lat="42.828841" lon="-8.607876">
        <ele>140.564</ele>
        <time>2015-03-27T14:07:06Z</time>
      </trkpt>
      <trkpt lat="42.828828" lon="-8.607570">
        <ele>142.971</ele>
        <time>2015-03-27T14:07:20Z</time>
      </trkpt>
      <trkpt lat="42.828838" lon="-8.607494">
        <ele>143.948</ele>
        <time>2015-03-27T14:07:24Z</time>
      </trkpt>
      <trkpt lat="42.828908" lon="-8.607180">
        <ele>145.861</ele>
        <time>2015-03-27T14:07:38Z</time>
      </trkpt>
      <trkpt lat="42.828960" lon="-8.606801">
        <ele>146.717</ele>
        <time>2015-03-27T14:07:52Z</time>
      </trkpt>
      <trkpt lat="42.828989" lon="-8.606544">
        <ele>146.707</ele>
        <time>2015-03-27T14:07:58Z</time>
      </trkpt>
      <trkpt lat="42.829004" lon="-8.606425">
        <ele>146.733</ele>
        <time>2015-03-27T14:08:00Z</time>
      </trkpt>
      <trkpt lat="42.829133" lon="-8.606149">
        <ele>143.976</ele>
        <time>2015-03-27T14:08:05Z</time>
      </trkpt>
      <trkpt lat="42.829471" lon="-8.605837">
        <ele>143.958</ele>
        <time>2015-03-27T14:08:17Z</time>
      </trkpt>
      <trkpt lat="42.829947" lon="-8.605667">
        <ele>144.878</ele>
        <time>2015-03-27T14:08:31Z</time>
      </trkpt>
      <trkpt lat="42.830594" lon="-8.605490">
        <ele>145.836</ele>
        <time>2015-03-27T14:08:49Z</time>
      </trkpt>
      <trkpt lat="42.831031" lon="-8.605289">
        <ele>147.761</ele>
        <time>2015-03-27T14:09:03Z</time>
      </trkpt>
      <trkpt lat="42.831455" lon="-8.604996">
        <ele>148.748</ele>
        <time>2015-03-27T14:09:18Z</time>
      </trkpt>
      <trkpt lat="42.831743" lon="-8.604454">
        <ele>150.194</ele>
        <time>2015-03-27T14:09:32Z</time>
      </trkpt>
      <trkpt lat="42.831966" lon="-8.604027">
        <ele>151.557</ele>
        <time>2015-03-27T14:09:45Z</time>
      </trkpt>
      <trkpt lat="42.832088" lon="-8.603856">
        <ele>152.022</ele>
        <time>2015-03-27T14:09:52Z</time>
      </trkpt>
      <trkpt lat="42.832127" lon="-8.603802">
        <ele>152.007</ele>
        <time>2015-03-27T14:09:54Z</time>
      </trkpt>
      <trkpt lat="42.832198" lon="-8.603677">
        <ele>153.568</ele>
        <time>2015-03-27T14:10:00Z</time>
      </trkpt>
      <trkpt lat="42.832276" lon="-8.603444">
        <ele>154.941</ele>
        <time>2015-03-27T14:10:10Z</time>
      </trkpt>
      <trkpt lat="42.832386" lon="-8.603227">
        <ele>155.463</ele>
        <time>2015-03-27T14:10:24Z</time>
      </trkpt>
      <trkpt lat="42.832475" lon="-8.603111">
        <ele>155.433</ele>
        <time>2015-03-27T14:10:58Z</time>
      </trkpt>
      <trkpt lat="42.832581" lon="-8.602948">
        <ele>156.881</ele>
        <time>2015-03-27T14:11:09Z</time>
      </trkpt>
      <trkpt lat="42.832686" lon="-8.602762">
        <ele>158.826</ele>
        <time>2015-03-27T14:11:24Z</time>
      </trkpt>
      <trkpt lat="42.832731" lon="-8.602609">
        <ele>160.233</ele>
        <time>2015-03-27T14:11:35Z</time>
      </trkpt>
      <trkpt lat="42.832798" lon="-8.602452">
        <ele>162.124</ele>
        <time>2015-03-27T14:11:44Z</time>
      </trkpt>
      <trkpt lat="42.832833" lon="-8.602263">
        <ele>163.604</ele>
        <time>2015-03-27T14:11:54Z</time>
      </trkpt>
      <trkpt lat="42.832926" lon="-8.602126">
        <ele>164.014</ele>
        <time>2015-03-27T14:11:58Z</time>
      </trkpt>
      <trkpt lat="42.833134" lon="-8.601700">
        <ele>166.007</ele>
        <time>2015-03-27T14:12:11Z</time>
      </trkpt>
      <trkpt lat="42.833268" lon="-8.601434">
        <ele>167.971</ele>
        <time>2015-03-27T14:12:24Z</time>
      </trkpt>
      <trkpt lat="42.833357" lon="-8.601281">
        <ele>168.934</ele>
        <time>2015-03-27T14:12:34Z</time>
      </trkpt>
      <trkpt lat="42.833386" lon="-8.601226">
        <ele>169.396</ele>
        <time>2015-03-27T14:12:37Z</time>
      </trkpt>
      <trkpt lat="42.833438" lon="-8.601119">
        <ele>168.976</ele>
        <time>2015-03-27T14:12:42Z</time>
      </trkpt>
      <trkpt lat="42.833845" lon="-8.600886">
        <ele>169.884</ele>
        <time>2015-03-27T14:12:58Z</time>
      </trkpt>
      <trkpt lat="42.834043" lon="-8.600751">
        <ele>170.849</ele>
        <time>2015-03-27T14:13:07Z</time>
      </trkpt>
      <trkpt lat="42.834341" lon="-8.600432">
        <ele>171.396</ele>
        <time>2015-03-27T14:13:21Z</time>
      </trkpt>
      <trkpt lat="42.834800" lon="-8.599998">
        <ele>171.313</ele>
        <time>2015-03-27T14:13:35Z</time>
      </trkpt>
      <trkpt lat="42.835261" lon="-8.599568">
        <ele>172.743</ele>
        <time>2015-03-27T14:13:51Z</time>
      </trkpt>
      <trkpt lat="42.835479" lon="-8.599283">
        <ele>176.107</ele>
        <time>2015-03-27T14:14:05Z</time>
      </trkpt>
      <trkpt lat="42.835622" lon="-8.599048">
        <ele>177.507</ele>
        <time>2015-03-27T14:14:16Z</time>
      </trkpt>
      <trkpt lat="42.835738" lon="-8.598603">
        <ele>179.490</ele>
        <time>2015-03-27T14:14:32Z</time>
      </trkpt>
      <trkpt lat="42.835943" lon="-8.598217">
        <ele>181.843</ele>
        <time>2015-03-27T14:14:48Z</time>
      </trkpt>
      <trkpt lat="42.836231" lon="-8.597740">
        <ele>180.955</ele>
        <time>2015-03-27T14:15:00Z</time>
      </trkpt>
      <trkpt lat="42.836417" lon="-8.596983">
        <ele>180.955</ele>
        <time>2015-03-27T14:15:16Z</time>
      </trkpt>
      <trkpt lat="42.836521" lon="-8.596133">
        <ele>180.453</ele>
        <time>2015-03-27T14:15:32Z</time>
      </trkpt>
      <trkpt lat="42.836574" lon="-8.595603">
        <ele>181.858</ele>
        <time>2015-03-27T14:15:43Z</time>
      </trkpt>
      <trkpt lat="42.836574" lon="-8.595477">
        <ele>182.325</ele>
        <time>2015-03-27T14:15:46Z</time>
      </trkpt>
      <trkpt lat="42.836488" lon="-8.595101">
        <ele>185.799</ele>
        <time>2015-03-27T14:16:01Z</time>
      </trkpt>
      <trkpt lat="42.836421" lon="-8.594746">
        <ele>188.607</ele>
        <time>2015-03-27T14:16:15Z</time>
      </trkpt>
      <trkpt lat="42.836401" lon="-8.594466">
        <ele>190.027</ele>
        <time>2015-03-27T14:16:27Z</time>
      </trkpt>
      <trkpt lat="42.836440" lon="-8.594112">
        <ele>191.907</ele>
        <time>2015-03-27T14:16:43Z</time>
      </trkpt>
      <trkpt lat="42.836478" lon="-8.593820">
        <ele>195.328</ele>
        <time>2015-03-27T14:16:58Z</time>
      </trkpt>
      <trkpt lat="42.836430" lon="-8.593434">
        <ele>198.231</ele>
        <time>2015-03-27T14:17:16Z</time>
      </trkpt>
      <trkpt lat="42.836518" lon="-8.593118">
        <ele>198.733</ele>
        <time>2015-03-27T14:17:29Z</time>
      </trkpt>
      <trkpt lat="42.836612" lon="-8.592829">
        <ele>199.193</ele>
        <time>2015-03-27T14:17:42Z</time>
      </trkpt>
      <trkpt lat="42.836626" lon="-8.592619">
        <ele>199.681</ele>
        <time>2015-03-27T14:17:50Z</time>
      </trkpt>
      <trkpt lat="42.836649" lon="-8.592493">
        <ele>199.676</ele>
        <time>2015-03-27T14:17:55Z</time>
      </trkpt>
      <trkpt lat="42.836668" lon="-8.592428">
        <ele>200.133</ele>
        <time>2015-03-27T14:17:58Z</time>
      </trkpt>
      <trkpt lat="42.836685" lon="-8.592083">
        <ele>203.576</ele>
        <time>2015-03-27T14:18:14Z</time>
      </trkpt>
      <trkpt lat="42.836572" lon="-8.591959">
        <ele>204.990</ele>
        <time>2015-03-27T14:18:23Z</time>
      </trkpt>
      <trkpt lat="42.836509" lon="-8.591908">
        <ele>204.419</ele>
        <time>2015-03-27T14:18:27Z</time>
      </trkpt>
      <trkpt lat="42.836180" lon="-8.591709">
        <ele>204.407</ele>
        <time>2015-03-27T14:18:40Z</time>
      </trkpt>
      <trkpt lat="42.835782" lon="-8.591427">
        <ele>204.946</ele>
        <time>2015-03-27T14:18:54Z</time>
      </trkpt>
      <trkpt lat="42.835471" lon="-8.591036">
        <ele>205.459</ele>
        <time>2015-03-27T14:19:07Z</time>
      </trkpt>
      <trkpt lat="42.835219" lon="-8.590570">
        <ele>207.351</ele>
        <time>2015-03-27T14:19:20Z</time>
      </trkpt>
      <trkpt lat="42.835124" lon="-8.590095">
        <ele>207.831</ele>
        <time>2015-03-27T14:19:30Z</time>
      </trkpt>
      <trkpt lat="42.835239" lon="-8.590006">
        <ele>207.849</ele>
        <time>2015-03-27T14:19:35Z</time>
      </trkpt>
      <trkpt lat="42.835467" lon="-8.589965">
        <ele>207.864</ele>
        <time>2015-03-27T14:19:41Z</time>
      </trkpt>
      <trkpt lat="42.835414" lon="-8.589695">
        <ele>207.811</ele>
        <time>2015-03-27T14:19:48Z</time>
      </trkpt>
      <trkpt lat="42.835132" lon="-8.589126">
        <ele>207.819</ele>
        <time>2015-03-27T14:20:02Z</time>
      </trkpt>
      <trkpt lat="42.835326" lon="-8.589018">
        <ele>207.809</ele>
        <time>2015-03-27T14:20:12Z</time>
      </trkpt>
      <trkpt lat="42.835368" lon="-8.589082">
        <ele>207.819</ele>
        <time>2015-03-27T14:20:14Z</time>
      </trkpt>
      <trkpt lat="42.835616" lon="-8.589567">
        <ele>207.807</ele>
        <time>2015-03-27T14:20:26Z</time>
      </trkpt>
      <trkpt lat="42.835798" lon="-8.589896">
        <ele>207.830</ele>
        <time>2015-03-27T14:20:34Z</time>
      </trkpt>
      <trkpt lat="42.835986" lon="-8.590010">
        <ele>206.323</ele>
        <time>2015-03-27T14:20:39Z</time>
      </trkpt>
      <trkpt lat="42.836238" lon="-8.589851">
        <ele>205.925</ele>
        <time>2015-03-27T14:20:46Z</time>
      </trkpt>
      <trkpt lat="42.836391" lon="-8.589561">
        <ele>207.325</ele>
        <time>2015-03-27T14:20:54Z</time>
      </trkpt>
      <trkpt lat="42.836775" lon="-8.588870">
        <ele>209.263</ele>
        <time>2015-03-27T14:21:12Z</time>
      </trkpt>
      <trkpt lat="42.837146" lon="-8.588234">
        <ele>208.358</ele>
        <time>2015-03-27T14:21:26Z</time>
      </trkpt>
      <trkpt lat="42.837522" lon="-8.587620">
        <ele>209.255</ele>
        <time>2015-03-27T14:21:42Z</time>
      </trkpt>
      <trkpt lat="42.837921" lon="-8.586928">
        <ele>212.178</ele>
        <time>2015-03-27T14:22:00Z</time>
      </trkpt>
      <trkpt lat="42.838068" lon="-8.586725">
        <ele>212.633</ele>
        <time>2015-03-27T14:22:06Z</time>
      </trkpt>
      <trkpt lat="42.838383" lon="-8.586956">
        <ele>212.626</ele>
        <time>2015-03-27T14:22:16Z</time>
      </trkpt>
      <trkpt lat="42.839019" lon="-8.587618">
        <ele>213.107</ele>
        <time>2015-03-27T14:22:35Z</time>
      </trkpt>
      <trkpt lat="42.839618" lon="-8.588253">
        <ele>214.526</ele>
        <time>2015-03-27T14:22:54Z</time>
      </trkpt>
      <trkpt lat="42.839691" lon="-8.588286">
        <ele>215.079</ele>
        <time>2015-03-27T14:22:57Z</time>
      </trkpt>
      <trkpt lat="42.839935" lon="-8.587851">
        <ele>216.021</ele>
        <time>2015-03-27T14:23:09Z</time>
      </trkpt>
      <trkpt lat="42.840232" lon="-8.587072">
        <ele>216.971</ele>
        <time>2015-03-27T14:23:27Z</time>
      </trkpt>
      <trkpt lat="42.840642" lon="-8.586005">
        <ele>219.329</ele>
        <time>2015-03-27T14:23:51Z</time>
      </trkpt>
      <trkpt lat="42.840944" lon="-8.585215">
        <ele>221.724</ele>
        <time>2015-03-27T14:24:09Z</time>
      </trkpt>
      <trkpt lat="42.841136" lon="-8.584684">
        <ele>223.241</ele>
        <time>2015-03-27T14:24:23Z</time>
      </trkpt>
      <trkpt lat="42.841311" lon="-8.584123">
        <ele>225.636</ele>
        <time>2015-03-27T14:24:42Z</time>
      </trkpt>
      <trkpt lat="42.841508" lon="-8.583732">
        <ele>228.017</ele>
        <time>2015-03-27T14:24:57Z</time>
      </trkpt>
      <trkpt lat="42.841738" lon="-8.583345">
        <ele>230.418</ele>
        <time>2015-03-27T14:25:12Z</time>
      </trkpt>
      <trkpt lat="42.842017" lon="-8.582997">
        <ele>233.307</ele>
        <time>2015-03-27T14:25:30Z</time>
      </trkpt>
      <trkpt lat="42.842356" lon="-8.582676">
        <ele>236.652</ele>
        <time>2015-03-27T14:25:51Z</time>
      </trkpt>
      <trkpt lat="42.842610" lon="-8.582461">
        <ele>239.015</ele>
        <time>2015-03-27T14:26:07Z</time>
      </trkpt>
      <trkpt lat="42.842857" lon="-8.582247">
        <ele>242.457</ele>
        <time>2015-03-27T14:26:24Z</time>
      </trkpt>
      <trkpt lat="42.843161" lon="-8.581924">
        <ele>244.847</ele>
        <time>2015-03-27T14:26:39Z</time>
      </trkpt>
      <trkpt lat="42.843351" lon="-8.581708">
        <ele>246.265</ele>
        <time>2015-03-27T14:26:52Z</time>
      </trkpt>
      <trkpt lat="42.843531" lon="-8.581451">
        <ele>248.670</ele>
        <time>2015-03-27T14:27:04Z</time>
      </trkpt>
      <trkpt lat="42.843832" lon="-8.581266">
        <ele>250.197</ele>
        <time>2015-03-27T14:27:17Z</time>
      </trkpt>
      <trkpt lat="42.844261" lon="-8.581004">
        <ele>251.546</ele>
        <time>2015-03-27T14:27:32Z</time>
      </trkpt>
      <trkpt lat="42.844806" lon="-8.580632">
        <ele>253.088</ele>
        <time>2015-03-27T14:27:48Z</time>
      </trkpt>
      <trkpt lat="42.845193" lon="-8.580467">
        <ele>253.416</ele>
        <time>2015-03-27T14:27:59Z</time>
      </trkpt>
      <trkpt lat="42.845484" lon="-8.580415">
        <ele>253.407</ele>
        <time>2015-03-27T14:28:06Z</time>
      </trkpt>
      <trkpt lat="42.845568" lon="-8.580409">
        <ele>253.463</ele>
        <time>2015-03-27T14:28:08Z</time>
      </trkpt>
      <trkpt lat="42.845831" lon="-8.580374">
        <ele>252.096</ele>
        <time>2015-03-27T14:28:14Z</time>
      </trkpt>
      <trkpt lat="42.846412" lon="-8.580289">
        <ele>250.638</ele>
        <time>2015-03-27T14:28:26Z</time>
      </trkpt>
      <trkpt lat="42.847250" lon="-8.580195">
        <ele>248.678</ele>
        <time>2015-03-27T14:28:44Z</time>
      </trkpt>
      <trkpt lat="42.847371" lon="-8.580135">
        <ele>248.696</ele>
        <time>2015-03-27T14:28:47Z</time>
      </trkpt>
      <trkpt lat="42.847565" lon="-8.580131">
        <ele>247.771</ele>
        <time>2015-03-27T14:28:52Z</time>
      </trkpt>
      <trkpt lat="42.847983" lon="-8.580145">
        <ele>249.158</ele>
        <time>2015-03-27T14:29:04Z</time>
      </trkpt>
      <trkpt lat="42.848385" lon="-8.580059">
        <ele>249.616</ele>
        <time>2015-03-27T14:29:16Z</time>
      </trkpt>
      <trkpt lat="42.848473" lon="-8.580017">
        <ele>249.676</ele>
        <time>2015-03-27T14:29:21Z</time>
      </trkpt>
      <trkpt lat="42.848570" lon="-8.580094">
        <ele>250.113</ele>
        <time>2015-03-27T14:29:25Z</time>
      </trkpt>
      <trkpt lat="42.848907" lon="-8.580223">
        <ele>250.607</ele>
        <time>2015-03-27T14:29:34Z</time>
      </trkpt>
      <trkpt lat="42.849464" lon="-8.580246">
        <ele>250.670</ele>
        <time>2015-03-27T14:29:48Z</time>
      </trkpt>
      <trkpt lat="42.849939" lon="-8.580206">
        <ele>251.043</ele>
        <time>2015-03-27T14:30:01Z</time>
      </trkpt>
      <trkpt lat="42.850481" lon="-8.580213">
        <ele>251.065</ele>
        <time>2015-03-27T14:30:14Z</time>
      </trkpt>
      <trkpt lat="42.851226" lon="-8.580381">
        <ele>251.075</ele>
        <time>2015-03-27T14:30:31Z</time>
      </trkpt>
      <trkpt lat="42.851513" lon="-8.580293">
        <ele>251.093</ele>
        <time>2015-03-27T14:30:39Z</time>
      </trkpt>
      <trkpt lat="42.851668" lon="-8.580192">
        <ele>251.018</ele>
        <time>2015-03-27T14:30:43Z</time>
      </trkpt>
      <trkpt lat="42.851988" lon="-8.579935">
        <ele>251.535</ele>
        <time>2015-03-27T14:30:52Z</time>
      </trkpt>
      <trkpt lat="42.852159" lon="-8.579805">
        <ele>251.588</ele>
        <time>2015-03-27T14:30:56Z</time>
      </trkpt>
      <trkpt lat="42.852367" lon="-8.579709">
        <ele>251.524</ele>
        <time>2015-03-27T14:31:00Z</time>
      </trkpt>
      <trkpt lat="42.853302" lon="-8.579558">
        <ele>250.126</ele>
        <time>2015-03-27T14:31:20Z</time>
      </trkpt>
      <trkpt lat="42.854059" lon="-8.579420">
        <ele>250.107</ele>
        <time>2015-03-27T14:31:36Z</time>
      </trkpt>
      <trkpt lat="42.854619" lon="-8.579361">
        <ele>250.137</ele>
        <time>2015-03-27T14:31:50Z</time>
      </trkpt>
      <trkpt lat="42.854978" lon="-8.579310">
        <ele>251.050</ele>
        <time>2015-03-27T14:31:59Z</time>
      </trkpt>
      <trkpt lat="42.855340" lon="-8.579285">
        <ele>253.042</ele>
        <time>2015-03-27T14:32:11Z</time>
      </trkpt>
      <trkpt lat="42.855648" lon="-8.579238">
        <ele>255.482</ele>
        <time>2015-03-27T14:32:24Z</time>
      </trkpt>
      <trkpt lat="42.855794" lon="-8.579246">
        <ele>256.870</ele>
        <time>2015-03-27T14:32:30Z</time>
      </trkpt>
      <trkpt lat="42.856131" lon="-8.579360">
        <ele>258.725</ele>
        <time>2015-03-27T14:32:44Z</time>
      </trkpt>
      <trkpt lat="42.856318" lon="-8.579401">
        <ele>258.792</ele>
        <time>2015-03-27T14:32:49Z</time>
      </trkpt>
      <trkpt lat="42.856413" lon="-8.579393">
        <ele>256.859</ele>
        <time>2015-03-27T14:32:51Z</time>
      </trkpt>
      <trkpt lat="42.856518" lon="-8.579349">
        <ele>255.403</ele>
        <time>2015-03-27T14:32:53Z</time>
      </trkpt>
      <trkpt lat="42.856819" lon="-8.579120">
        <ele>251.023</ele>
        <time>2015-03-27T14:32:58Z</time>
      </trkpt>
      <trkpt lat="42.857001" lon="-8.578972">
        <ele>248.207</ele>
        <time>2015-03-27T14:33:01Z</time>
      </trkpt>
      <trkpt lat="42.857234" lon="-8.578789">
        <ele>244.374</ele>
        <time>2015-03-27T14:33:07Z</time>
      </trkpt>
      <trkpt lat="42.857546" lon="-8.578606">
        <ele>240.597</ele>
        <time>2015-03-27T14:43:14Z</time>
      </trkpt>
      <trkpt lat="42.857831" lon="-8.578408">
        <ele>237.139</ele>
        <time>2015-03-27T14:43:19Z</time>
      </trkpt>
      <trkpt lat="42.858028" lon="-8.578257">
        <ele>234.799</ele>
        <time>2015-03-27T14:43:22Z</time>
      </trkpt>
      <trkpt lat="42.858431" lon="-8.578334">
        <ele>231.367</ele>
        <time>2015-03-27T14:43:28Z</time>
      </trkpt>
      <trkpt lat="42.858527" lon="-8.578481">
        <ele>231.872</ele>
        <time>2015-03-27T14:43:30Z</time>
      </trkpt>
      <trkpt lat="42.858954" lon="-8.579094">
        <ele>232.399</ele>
        <time>2015-03-27T14:43:42Z</time>
      </trkpt>
      <trkpt lat="42.859206" lon="-8.579376">
        <ele>235.785</ele>
        <time>2015-03-27T14:43:57Z</time>
      </trkpt>
      <trkpt lat="42.859587" lon="-8.579861">
        <ele>234.789</ele>
        <time>2015-03-27T14:44:14Z</time>
      </trkpt>
      <trkpt lat="42.859645" lon="-8.579964">
        <ele>234.217</ele>
        <time>2015-03-27T14:44:16Z</time>
      </trkpt>
      <trkpt lat="42.859932" lon="-8.580526">
        <ele>233.307</ele>
        <time>2015-03-27T14:44:28Z</time>
      </trkpt>
      <trkpt lat="42.860102" lon="-8.580576">
        <ele>231.887</ele>
        <time>2015-03-27T14:44:32Z</time>
      </trkpt>
      <trkpt lat="42.860364" lon="-8.580460">
        <ele>230.440</ele>
        <time>2015-03-27T14:44:37Z</time>
      </trkpt>
      <trkpt lat="42.860479" lon="-8.580461">
        <ele>229.992</ele>
        <time>2015-03-27T14:44:39Z</time>
      </trkpt>
      <trkpt lat="42.860587" lon="-8.580442">
        <ele>229.952</ele>
        <time>2015-03-27T14:44:41Z</time>
      </trkpt>
      <trkpt lat="42.860836" lon="-8.580314">
        <ele>229.980</ele>
        <time>2015-03-27T14:44:46Z</time>
      </trkpt>
      <trkpt lat="42.861374" lon="-8.580062">
        <ele>229.465</ele>
        <time>2015-03-27T14:44:59Z</time>
      </trkpt>
      <trkpt lat="42.861501" lon="-8.580059">
        <ele>229.452</ele>
        <time>2015-03-27T14:45:02Z</time>
      </trkpt>
      <trkpt lat="42.861657" lon="-8.579974">
        <ele>228.929</ele>
        <time>2015-03-27T14:45:06Z</time>
      </trkpt>
      <trkpt lat="42.861866" lon="-8.579664">
        <ele>228.900</ele>
        <time>2015-03-27T14:45:13Z</time>
      </trkpt>
      <trkpt lat="42.861909" lon="-8.579560">
        <ele>228.520</ele>
        <time>2015-03-27T14:45:15Z</time>
      </trkpt>
      <trkpt lat="42.862044" lon="-8.579367">
        <ele>227.507</ele>
        <time>2015-03-27T14:45:19Z</time>
      </trkpt>
      <trkpt lat="42.862232" lon="-8.579124">
        <ele>226.191</ele>
        <time>2015-03-27T14:45:24Z</time>
      </trkpt>
      <trkpt lat="42.862432" lon="-8.578874">
        <ele>224.184</ele>
        <time>2015-03-27T14:45:29Z</time>
      </trkpt>
      <trkpt lat="42.862586" lon="-8.578711">
        <ele>222.296</ele>
        <time>2015-03-27T14:45:33Z</time>
      </trkpt>
      <trkpt lat="42.862656" lon="-8.578605">
        <ele>221.786</ele>
        <time>2015-03-27T14:45:35Z</time>
      </trkpt>
      <trkpt lat="42.862906" lon="-8.578290">
        <ele>217.424</ele>
        <time>2015-03-27T14:45:41Z</time>
      </trkpt>
      <trkpt lat="42.862947" lon="-8.578232">
        <ele>216.929</ele>
        <time>2015-03-27T14:45:42Z</time>
      </trkpt>
      <trkpt lat="42.863040" lon="-8.578129">
        <ele>215.056</ele>
        <time>2015-03-27T14:45:44Z</time>
      </trkpt>
      <trkpt lat="42.863648" lon="-8.577620">
        <ele>211.256</ele>
        <time>2015-03-27T14:45:54Z</time>
      </trkpt>
      <trkpt lat="42.863967" lon="-8.577342">
        <ele>208.359</ele>
        <time>2015-03-27T14:46:03Z</time>
      </trkpt>
      <trkpt lat="42.864094" lon="-8.577129">
        <ele>204.914</ele>
        <time>2015-03-27T14:46:10Z</time>
      </trkpt>
      <trkpt lat="42.864152" lon="-8.576929">
        <ele>202.007</ele>
        <time>2015-03-27T14:46:14Z</time>
      </trkpt>
      <trkpt lat="42.864213" lon="-8.576672">
        <ele>198.224</ele>
        <time>2015-03-27T14:46:22Z</time>
      </trkpt>
      <trkpt lat="42.864357" lon="-8.576508">
        <ele>196.317</ele>
        <time>2015-03-27T14:46:29Z</time>
      </trkpt>
      <trkpt lat="42.864463" lon="-8.576352">
        <ele>193.849</ele>
        <time>2015-03-27T14:46:32Z</time>
      </trkpt>
      <trkpt lat="42.864575" lon="-8.575947">
        <ele>190.019</ele>
        <time>2015-03-27T14:46:37Z</time>
      </trkpt>
      <trkpt lat="42.864517" lon="-8.575745">
        <ele>188.637</ele>
        <time>2015-03-27T14:46:40Z</time>
      </trkpt>
      <trkpt lat="42.864301" lon="-8.575381">
        <ele>186.612</ele>
        <time>2015-03-27T14:46:46Z</time>
      </trkpt>
      <trkpt lat="42.863914" lon="-8.574958">
        <ele>187.159</ele>
        <time>2015-03-27T14:46:59Z</time>
      </trkpt>
      <trkpt lat="42.863654" lon="-8.574740">
        <ele>189.545</ele>
        <time>2015-03-27T14:47:14Z</time>
      </trkpt>
      <trkpt lat="42.863453" lon="-8.574603">
        <ele>192.447</ele>
        <time>2015-03-27T14:47:29Z</time>
      </trkpt>
      <trkpt lat="42.863318" lon="-8.574557">
        <ele>194.811</ele>
        <time>2015-03-27T14:47:38Z</time>
      </trkpt>
      <trkpt lat="42.863313" lon="-8.574459">
        <ele>195.307</ele>
        <time>2015-03-27T14:47:43Z</time>
      </trkpt>
      <trkpt lat="42.863492" lon="-8.574086">
        <ele>195.383</ele>
        <time>2015-03-27T14:47:56Z</time>
      </trkpt>
      <trkpt lat="42.863548" lon="-8.574129">
        <ele>195.356</ele>
        <time>2015-03-27T14:48:00Z</time>
      </trkpt>
      <trkpt lat="42.863732" lon="-8.574224">
        <ele>195.368</ele>
        <time>2015-03-27T14:48:06Z</time>
      </trkpt>
      <trkpt lat="42.863841" lon="-8.574327">
        <ele>193.468</ele>
        <time>2015-03-27T14:48:09Z</time>
      </trkpt>
      <trkpt lat="42.864033" lon="-8.574635">
        <ele>189.096</ele>
        <time>2015-03-27T14:48:14Z</time>
      </trkpt>
      <trkpt lat="42.864125" lon="-8.574775">
        <ele>188.141</ele>
        <time>2015-03-27T14:48:16Z</time>
      </trkpt>
      <trkpt lat="42.864441" lon="-8.575159">
        <ele>185.218</ele>
        <time>2015-03-27T14:48:22Z</time>
      </trkpt>
      <trkpt lat="42.864497" lon="-8.575219">
        <ele>185.259</ele>
        <time>2015-03-27T14:48:23Z</time>
      </trkpt>
      <trkpt lat="42.864965" lon="-8.575982">
        <ele>184.203</ele>
        <time>2015-03-27T14:48:36Z</time>
      </trkpt>
      <trkpt lat="42.865109" lon="-8.575933">
        <ele>183.323</ele>
        <time>2015-03-27T14:48:40Z</time>
      </trkpt>
      <trkpt lat="42.865293" lon="-8.575645">
        <ele>178.907</ele>
        <time>2015-03-27T14:48:44Z</time>
      </trkpt>
      <trkpt lat="42.865517" lon="-8.575406">
        <ele>175.184</ele>
        <time>2015-03-27T14:48:47Z</time>
      </trkpt>
      <trkpt lat="42.865757" lon="-8.575178">
        <ele>170.897</ele>
        <time>2015-03-27T14:48:50Z</time>
      </trkpt>
      <trkpt lat="42.865890" lon="-8.575059">
        <ele>167.969</ele>
        <time>2015-03-27T14:48:52Z</time>
      </trkpt>
      <trkpt lat="42.865986" lon="-8.574923">
        <ele>167.419</ele>
        <time>2015-03-27T14:48:54Z</time>
      </trkpt>
      <trkpt lat="42.866030" lon="-8.574760">
        <ele>166.997</ele>
        <time>2015-03-27T14:48:56Z</time>
      </trkpt>
      <trkpt lat="42.866103" lon="-8.574418">
        <ele>165.552</ele>
        <time>2015-03-27T14:49:00Z</time>
      </trkpt>
      <trkpt lat="42.866089" lon="-8.573810">
        <ele>164.069</ele>
        <time>2015-03-27T14:49:06Z</time>
      </trkpt>
      <trkpt lat="42.865801" lon="-8.572855">
        <ele>161.224</ele>
        <time>2015-03-27T14:49:16Z</time>
      </trkpt>
      <trkpt lat="42.865695" lon="-8.572589">
        <ele>161.204</ele>
        <time>2015-03-27T14:49:19Z</time>
      </trkpt>
      <trkpt lat="42.865679" lon="-8.572332">
        <ele>159.714</ele>
        <time>2015-03-27T14:49:25Z</time>
      </trkpt>
      <trkpt lat="42.865815" lon="-8.572200">
        <ele>160.207</ele>
        <time>2015-03-27T14:49:33Z</time>
      </trkpt>
      <trkpt lat="42.865907" lon="-8.571797">
        <ele>161.681</ele>
        <time>2015-03-27T14:49:48Z</time>
      </trkpt>
      <trkpt lat="42.866043" lon="-8.571630">
        <ele>164.084</ele>
        <time>2015-03-27T14:50:01Z</time>
      </trkpt>
      <trkpt lat="42.866261" lon="-8.571608">
        <ele>166.966</ele>
        <time>2015-03-27T14:50:17Z</time>
      </trkpt>
      <trkpt lat="42.866511" lon="-8.571571">
        <ele>169.896</ele>
        <time>2015-03-27T14:50:34Z</time>
      </trkpt>
      <trkpt lat="42.866587" lon="-8.571397">
        <ele>171.774</ele>
        <time>2015-03-27T14:50:46Z</time>
      </trkpt>
      <trkpt lat="42.866666" lon="-8.571011">
        <ele>172.279</ele>
        <time>2015-03-27T14:51:02Z</time>
      </trkpt>
      <trkpt lat="42.866782" lon="-8.570909">
        <ele>172.746</ele>
        <time>2015-03-27T14:51:09Z</time>
      </trkpt>
      <trkpt lat="42.866816" lon="-8.570618">
        <ele>176.157</ele>
        <time>2015-03-27T14:51:24Z</time>
      </trkpt>
      <trkpt lat="42.866842" lon="-8.570307">
        <ele>178.900</ele>
        <time>2015-03-27T14:51:40Z</time>
      </trkpt>
      <trkpt lat="42.866982" lon="-8.570001">
        <ele>182.320</ele>
        <time>2015-03-27T14:51:59Z</time>
      </trkpt>
      <trkpt lat="42.867138" lon="-8.569756">
        <ele>184.207</ele>
        <time>2015-03-27T14:52:16Z</time>
      </trkpt>
      <trkpt lat="42.867265" lon="-8.569414">
        <ele>187.644</ele>
        <time>2015-03-27T14:52:35Z</time>
      </trkpt>
      <trkpt lat="42.867371" lon="-8.569067">
        <ele>191.097</ele>
        <time>2015-03-27T14:52:53Z</time>
      </trkpt>
      <trkpt lat="42.867411" lon="-8.568851">
        <ele>192.989</ele>
        <time>2015-03-27T14:53:09Z</time>
      </trkpt>
      <trkpt lat="42.867439" lon="-8.568747">
        <ele>193.849</ele>
        <time>2015-03-27T14:53:23Z</time>
      </trkpt>
      <trkpt lat="42.867481" lon="-8.568409">
        <ele>197.797</ele>
        <time>2015-03-27T14:53:40Z</time>
      </trkpt>
      <trkpt lat="42.867560" lon="-8.568148">
        <ele>199.642</ele>
        <time>2015-03-27T14:53:55Z</time>
      </trkpt>
      <trkpt lat="42.867747" lon="-8.567928">
        <ele>202.029</ele>
        <time>2015-03-27T14:54:11Z</time>
      </trkpt>
      <trkpt lat="42.867806" lon="-8.567738">
        <ele>203.994</ele>
        <time>2015-03-27T14:54:21Z</time>
      </trkpt>
      <trkpt lat="42.867761" lon="-8.567304">
        <ele>206.857</ele>
        <time>2015-03-27T14:54:41Z</time>
      </trkpt>
      <trkpt lat="42.867773" lon="-8.566877">
        <ele>209.722</ele>
        <time>2015-03-27T14:55:01Z</time>
      </trkpt>
      <trkpt lat="42.867789" lon="-8.566385">
        <ele>212.607</ele>
        <time>2015-03-27T14:55:23Z</time>
      </trkpt>
      <trkpt lat="42.867801" lon="-8.565868">
        <ele>215.578</ele>
        <time>2015-03-27T14:55:46Z</time>
      </trkpt>
      <trkpt lat="42.867790" lon="-8.565469">
        <ele>217.951</ele>
        <time>2015-03-27T14:56:04Z</time>
      </trkpt>
      <trkpt lat="42.867823" lon="-8.565047">
        <ele>220.853</ele>
        <time>2015-03-27T14:56:23Z</time>
      </trkpt>
      <trkpt lat="42.867909" lon="-8.564606">
        <ele>221.723</ele>
        <time>2015-03-27T14:56:39Z</time>
      </trkpt>
      <trkpt lat="42.868069" lon="-8.563959">
        <ele>221.711</ele>
        <time>2015-03-27T14:56:55Z</time>
      </trkpt>
      <trkpt lat="42.868251" lon="-8.563163">
        <ele>221.746</ele>
        <time>2015-03-27T14:57:12Z</time>
      </trkpt>
      <trkpt lat="42.868365" lon="-8.562779">
        <ele>220.363</ele>
        <time>2015-03-27T14:57:19Z</time>
      </trkpt>
      <trkpt lat="42.868406" lon="-8.562654">
        <ele>219.886</ele>
        <time>2015-03-27T14:57:21Z</time>
      </trkpt>
      <trkpt lat="42.868690" lon="-8.562252">
        <ele>217.460</ele>
        <time>2015-03-27T14:57:30Z</time>
      </trkpt>
      <trkpt lat="42.868756" lon="-8.562147">
        <ele>217.426</ele>
        <time>2015-03-27T14:57:32Z</time>
      </trkpt>
      <trkpt lat="42.868967" lon="-8.561833">
        <ele>216.407</ele>
        <time>2015-03-27T14:57:41Z</time>
      </trkpt>
      <trkpt lat="42.869177" lon="-8.561303">
        <ele>216.417</ele>
        <time>2015-03-27T14:57:54Z</time>
      </trkpt>
      <trkpt lat="42.869370" lon="-8.560915">
        <ele>217.980</ele>
        <time>2015-03-27T14:58:04Z</time>
      </trkpt>
      <trkpt lat="42.869698" lon="-8.560440">
        <ele>218.862</ele>
        <time>2015-03-27T14:58:19Z</time>
      </trkpt>
      <trkpt lat="42.869693" lon="-8.560297">
        <ele>219.372</ele>
        <time>2015-03-27T14:58:26Z</time>
      </trkpt>
      <trkpt lat="42.869768" lon="-8.560220">
        <ele>219.820</ele>
        <time>2015-03-27T14:58:32Z</time>
      </trkpt>
      <trkpt lat="42.869778" lon="-8.559797">
        <ele>222.295</ele>
        <time>2015-03-27T14:58:47Z</time>
      </trkpt>
      <trkpt lat="42.869588" lon="-8.559492">
        <ele>223.232</ele>
        <time>2015-03-27T14:59:14Z</time>
      </trkpt>
      <trkpt lat="42.869583" lon="-8.559330">
        <ele>223.657</ele>
        <time>2015-03-27T14:59:26Z</time>
      </trkpt>
      <trkpt lat="42.869830" lon="-8.558948">
        <ele>225.600</ele>
        <time>2015-03-27T14:59:44Z</time>
      </trkpt>
      <trkpt lat="42.870074" lon="-8.558575">
        <ele>227.520</ele>
        <time>2015-03-27T15:00:00Z</time>
      </trkpt>
      <trkpt lat="42.870338" lon="-8.558132">
        <ele>229.407</ele>
        <time>2015-03-27T15:00:19Z</time>
      </trkpt>
      <trkpt lat="42.870527" lon="-8.557848">
        <ele>230.464</ele>
        <time>2015-03-27T15:00:32Z</time>
      </trkpt>
      <trkpt lat="42.870573" lon="-8.557741">
        <ele>230.927</ele>
        <time>2015-03-27T15:00:38Z</time>
      </trkpt>
      <trkpt lat="42.870824" lon="-8.557376">
        <ele>232.369</ele>
        <time>2015-03-27T15:00:54Z</time>
      </trkpt>
      <trkpt lat="42.870995" lon="-8.557148">
        <ele>233.759</ele>
        <time>2015-03-27T15:01:04Z</time>
      </trkpt>
      <trkpt lat="42.871176" lon="-8.556858">
        <ele>234.737</ele>
        <time>2015-03-27T15:01:16Z</time>
      </trkpt>
      <trkpt lat="42.871397" lon="-8.556504">
        <ele>235.742</ele>
        <time>2015-03-27T15:01:30Z</time>
      </trkpt>
      <trkpt lat="42.871630" lon="-8.556163">
        <ele>237.689</ele>
        <time>2015-03-27T15:01:44Z</time>
      </trkpt>
      <trkpt lat="42.871822" lon="-8.555700">
        <ele>239.565</ele>
        <time>2015-03-27T15:02:01Z</time>
      </trkpt>
      <trkpt lat="42.871910" lon="-8.555482">
        <ele>240.068</ele>
        <time>2015-03-27T15:02:08Z</time>
      </trkpt>
      <trkpt lat="42.872086" lon="-8.555031">
        <ele>240.014</ele>
        <time>2015-03-27T15:02:21Z</time>
      </trkpt>
      <trkpt lat="42.872280" lon="-8.554498">
        <ele>241.007</ele>
        <time>2015-03-27T15:02:35Z</time>
      </trkpt>
      <trkpt lat="42.872595" lon="-8.554052">
        <ele>241.095</ele>
        <time>2015-03-27T15:02:48Z</time>
      </trkpt>
      <trkpt lat="42.872866" lon="-8.553721">
        <ele>241.078</ele>
        <time>2015-03-27T15:03:02Z</time>
      </trkpt>
      <trkpt lat="42.873015" lon="-8.553411">
        <ele>241.090</ele>
        <time>2015-03-27T15:03:13Z</time>
      </trkpt>
      <trkpt lat="42.873235" lon="-8.553214">
        <ele>241.050</ele>
        <time>2015-03-27T15:03:21Z</time>
      </trkpt>
      <trkpt lat="42.873692" lon="-8.552630">
        <ele>241.438</ele>
        <time>2015-03-27T15:03:37Z</time>
      </trkpt>
      <trkpt lat="42.874092" lon="-8.552235">
        <ele>241.443</ele>
        <time>2015-03-27T15:03:51Z</time>
      </trkpt>
      <trkpt lat="42.874500" lon="-8.551763">
        <ele>241.490</ele>
        <time>2015-03-27T15:04:05Z</time>
      </trkpt>
      <trkpt lat="42.874932" lon="-8.551330">
        <ele>242.415</ele>
        <time>2015-03-27T15:04:21Z</time>
      </trkpt>
      <trkpt lat="42.875149" lon="-8.550881">
        <ele>243.865</ele>
        <time>2015-03-27T15:04:33Z</time>
      </trkpt>
      <trkpt lat="42.875576" lon="-8.550400">
        <ele>247.211</ele>
        <time>2015-03-27T15:04:53Z</time>
      </trkpt>
      <trkpt lat="42.875546" lon="-8.550271">
        <ele>247.207</ele>
        <time>2015-03-27T15:04:56Z</time>
      </trkpt>
      <trkpt lat="42.875548" lon="-8.550088">
        <ele>247.790</ele>
        <time>2015-03-27T15:05:01Z</time>
      </trkpt>
      <trkpt lat="42.875701" lon="-8.549704">
        <ele>250.693</ele>
        <time>2015-03-27T15:05:15Z</time>
      </trkpt>
      <trkpt lat="42.875719" lon="-8.549538">
        <ele>251.045</ele>
        <time>2015-03-27T15:05:20Z</time>
      </trkpt>
      <trkpt lat="42.875987" lon="-8.549159">
        <ele>253.925</ele>
        <time>2015-03-27T15:05:36Z</time>
      </trkpt>
      <trkpt lat="42.876090" lon="-8.548736">
        <ele>255.473</ele>
        <time>2015-03-27T15:05:49Z</time>
      </trkpt>
      <trkpt lat="42.876321" lon="-8.548100">
        <ele>255.988</ele>
        <time>2015-03-27T15:06:05Z</time>
      </trkpt>
      <trkpt lat="42.876591" lon="-8.547323">
        <ele>255.935</ele>
        <time>2015-03-27T15:06:23Z</time>
      </trkpt>
      <trkpt lat="42.876737" lon="-8.546914">
        <ele>256.396</ele>
        <time>2015-03-27T15:06:36Z</time>
      </trkpt>
      <trkpt lat="42.876886" lon="-8.546338">
        <ele>256.331</ele>
        <time>2015-03-27T15:06:49Z</time>
      </trkpt>
      <trkpt lat="42.876983" lon="-8.546197">
        <ele>256.324</ele>
        <time>2015-03-27T15:07:14Z</time>
      </trkpt>
      <trkpt lat="42.877304" lon="-8.545925">
        <ele>257.307</ele>
        <time>2015-03-27T15:07:28Z</time>
      </trkpt>
      <trkpt lat="42.877342" lon="-8.545802">
        <ele>257.848</ele>
        <time>2015-03-27T15:07:32Z</time>
      </trkpt>
      <trkpt lat="42.877475" lon="-8.545669">
        <ele>258.341</ele>
        <time>2015-03-27T15:07:39Z</time>
      </trkpt>
      <trkpt lat="42.877777" lon="-8.545470">
        <ele>258.793</ele>
        <time>2015-03-27T15:07:53Z</time>
      </trkpt>
      <trkpt lat="42.878077" lon="-8.545326">
        <ele>257.353</ele>
        <time>2015-03-27T15:08:04Z</time>
      </trkpt>
      <trkpt lat="42.878308" lon="-8.545202">
        <ele>256.851</ele>
        <time>2015-03-27T15:08:16Z</time>
      </trkpt>
      <trkpt lat="42.878473" lon="-8.545096">
        <ele>255.916</ele>
        <time>2015-03-27T15:08:31Z</time>
      </trkpt>
      <trkpt lat="42.878629" lon="-8.545043">
        <ele>255.483</ele>
        <time>2015-03-27T15:08:42Z</time>
      </trkpt>
      <trkpt lat="42.878690" lon="-8.545044">
        <ele>255.489</ele>
        <time>2015-03-27T15:08:45Z</time>
      </trkpt>
      <trkpt lat="42.879153" lon="-8.545075">
        <ele>253.906</ele>
        <time>2015-03-27T15:08:59Z</time>
      </trkpt>
      <trkpt lat="42.879537" lon="-8.544934">
        <ele>255.426</ele>
        <time>2015-03-27T15:09:11Z</time>
      </trkpt>
      <trkpt lat="42.879961" lon="-8.545033">
        <ele>256.807</ele>
        <time>2015-03-27T15:09:26Z</time>
      </trkpt>
      <trkpt lat="42.880124" lon="-8.545120">
        <ele>257.847</ele>
        <time>2015-03-27T15:09:33Z</time>
      </trkpt>
      <trkpt lat="42.880154" lon="-8.545169">
        <ele>257.850</ele>
        <time>2015-03-27T15:09:34Z</time>
      </trkpt>
      <trkpt lat="42.880174" lon="-8.545315">
        <ele>257.842</ele>
        <time>2015-03-27T15:09:36Z</time>
      </trkpt>
      <trkpt lat="42.880494" lon="-8.545639">
        <ele>257.842</ele>
        <time>2015-03-27T15:09:50Z</time>
      </trkpt>
      <trkpt lat="42.880447" lon="-8.545877">
        <ele>257.860</ele>
        <time>2015-03-27T15:09:59Z</time>
      </trkpt>
      <trkpt lat="42.880436" lon="-8.545975">
        <ele>257.885</ele>
        <time>2015-03-27T15:10:02Z</time>
      </trkpt>
      <trkpt lat="42.880205" lon="-8.545895">
        <ele>258.392</ele>
        <time>2015-03-27T15:11:07Z</time>
      </trkpt>
      <trkpt lat="42.880059" lon="-8.545862">
        <ele>258.362</ele>
        <time>2015-03-27T15:11:22Z</time>
      </trkpt>
      <trkpt lat="42.880056" lon="-8.545766">
        <ele>259.283</ele>
        <time>2015-03-27T15:21:58Z</time>
      </trkpt>
      <trkpt lat="42.880134" lon="-8.545713">
        <ele>265.511</ele>
        <time>2015-03-27T16:26:45Z</time>
      </trkpt>
      <trkpt lat="42.880213" lon="-8.545656">
        <ele>266.907</ele>
        <time>2015-03-27T16:27:52Z</time>
      </trkpt>
      <trkpt lat="42.880455" lon="-8.545703">
        <ele>266.955</ele>
        <time>2015-03-27T16:28:12Z</time>
      </trkpt>
      <trkpt lat="42.880687" lon="-8.545591">
        <ele>266.938</ele>
        <time>2015-03-27T16:28:24Z</time>
      </trkpt>
      <trkpt lat="42.880918" lon="-8.545477">
        <ele>267.430</ele>
        <time>2015-03-27T16:28:34Z</time>
      </trkpt>
      <trkpt lat="42.880960" lon="-8.545408">
        <ele>267.440</ele>
        <time>2015-03-27T16:28:37Z</time>
      </trkpt>
      <trkpt lat="42.880980" lon="-8.545318">
        <ele>267.918</ele>
        <time>2015-03-27T16:29:11Z</time>
      </trkpt>
      <trkpt lat="42.881011" lon="-8.545230">
        <ele>269.863</ele>
        <time>2015-03-27T16:29:29Z</time>
      </trkpt>
      <trkpt lat="42.881036" lon="-8.545029">
        <ele>271.770</ele>
        <time>2015-03-27T16:29:49Z</time>
      </trkpt>
      <trkpt lat="42.881005" lon="-8.544942">
        <ele>272.789</ele>
        <time>2015-03-27T16:29:56Z</time>
      </trkpt>
      <trkpt lat="42.881060" lon="-8.544650">
        <ele>274.606</ele>
        <time>2015-03-27T16:30:06Z</time>
      </trkpt>
      <trkpt lat="42.881227" lon="-8.544283">
        <ele>278.026</ele>
        <time>2015-03-27T16:30:22Z</time>
      </trkpt>
      <trkpt lat="42.881271" lon="-8.543936">
        <ele>279.907</ele>
        <time>2015-03-27T16:30:37Z</time>
      </trkpt>
      <trkpt lat="42.881195" lon="-8.543587">
        <ele>281.867</ele>
        <time>2015-03-27T16:30:53Z</time>
      </trkpt>
      <trkpt lat="42.881234" lon="-8.543393">
        <ele>282.360</ele>
        <time>2015-03-27T16:31:00Z</time>
      </trkpt>
      <trkpt lat="42.881233" lon="-8.543056">
        <ele>284.262</ele>
        <time>2015-03-27T16:31:13Z</time>
      </trkpt>
      <trkpt lat="42.881203" lon="-8.542749">
        <ele>285.262</ele>
        <time>2015-03-27T16:31:25Z</time>
      </trkpt>
      <trkpt lat="42.881211" lon="-8.542672">
        <ele>285.710</ele>
        <time>2015-03-27T16:31:28Z</time>
      </trkpt>
      <trkpt lat="42.881314" lon="-8.542409">
        <ele>286.645</ele>
        <time>2015-03-27T16:31:39Z</time>
      </trkpt>
      <trkpt lat="42.881392" lon="-8.542361">
        <ele>286.632</ele>
        <time>2015-03-27T16:31:45Z</time>
      </trkpt>
      <trkpt lat="42.881627" lon="-8.542326">
        <ele>288.147</ele>
        <time>2015-03-27T16:31:59Z</time>
      </trkpt>
      <trkpt lat="42.881859" lon="-8.542362">
        <ele>289.529</ele>
        <time>2015-03-27T16:32:14Z</time>
      </trkpt>
      <trkpt lat="42.882135" lon="-8.542415">
        <ele>291.421</ele>
        <time>2015-03-27T16:32:28Z</time>
      </trkpt>
      <trkpt lat="42.882322" lon="-8.542337">
        <ele>291.907</ele>
        <time>2015-03-27T16:32:39Z</time>
      </trkpt>
      <trkpt lat="42.882493" lon="-8.542290">
        <ele>292.423</ele>
        <time>2015-03-27T16:32:50Z</time>
      </trkpt>
      <trkpt lat="42.882592" lon="-8.542249">
        <ele>292.966</ele>
        <time>2015-03-27T16:32:55Z</time>
      </trkpt>
      <trkpt lat="42.882928" lon="-8.542239">
        <ele>293.358</ele>
        <time>2015-03-27T16:33:09Z</time>
      </trkpt>
      <trkpt lat="42.883046" lon="-8.542197">
        <ele>293.388</ele>
        <time>2015-03-27T16:33:14Z</time>
      </trkpt>
      <trkpt lat="42.883134" lon="-8.542212">
        <ele>293.386</ele>
        <time>2015-03-27T16:33:19Z</time>
      </trkpt>
      <trkpt lat="42.883197" lon="-8.542187">
        <ele>293.321</ele>
        <time>2015-03-27T16:33:23Z</time>
      </trkpt>
      <trkpt lat="42.883253" lon="-8.542148">
        <ele>293.348</ele>
        <time>2015-03-27T16:33:27Z</time>
      </trkpt>
      <trkpt lat="42.883281" lon="-8.542097">
        <ele>293.379</ele>
        <time>2015-03-27T16:33:30Z</time>
      </trkpt>
      <trkpt lat="42.883483" lon="-8.541979">
        <ele>293.805</ele>
        <time>2015-03-27T16:33:42Z</time>
      </trkpt>
      <trkpt lat="42.883823" lon="-8.541778">
        <ele>295.325</ele>
        <time>2015-03-27T16:34:57Z</time>
      </trkpt>
      <trkpt lat="42.884237" lon="-8.541548">
        <ele>297.207</ele>
        <time>2015-03-27T16:35:15Z</time>
      </trkpt>
      <trkpt lat="42.884490" lon="-8.541400">
        <ele>298.686</ele>
        <time>2015-03-27T16:35:30Z</time>
      </trkpt>
      <trkpt lat="42.884733" lon="-8.541273">
        <ele>299.699</ele>
        <time>2015-03-27T16:35:42Z</time>
      </trkpt>
      <trkpt lat="42.884912" lon="-8.541189">
        <ele>300.121</ele>
        <time>2015-03-27T16:35:54Z</time>
      </trkpt>
      <trkpt lat="42.885376" lon="-8.540995">
        <ele>302.581</ele>
        <time>2015-03-27T16:36:14Z</time>
      </trkpt>
      <trkpt lat="42.885535" lon="-8.540967">
        <ele>302.599</ele>
        <time>2015-03-27T16:36:20Z</time>
      </trkpt>
      <trkpt lat="42.885936" lon="-8.540750">
        <ele>303.994</ele>
        <time>2015-03-27T16:36:38Z</time>
      </trkpt>
      <trkpt lat="42.886312" lon="-8.540408">
        <ele>305.841</ele>
        <time>2015-03-27T16:36:56Z</time>
      </trkpt>
      <trkpt lat="42.886569" lon="-8.540094">
        <ele>307.844</ele>
        <time>2015-03-27T16:37:10Z</time>
      </trkpt>
      <trkpt lat="42.886944" lon="-8.539521">
        <ele>310.605</ele>
        <time>2015-03-27T16:37:33Z</time>
      </trkpt>
      <trkpt lat="42.887229" lon="-8.539038">
        <ele>311.615</ele>
        <time>2015-03-27T16:37:51Z</time>
      </trkpt>
      <trkpt lat="42.887412" lon="-8.538786">
        <ele>312.107</ele>
        <time>2015-03-27T16:38:04Z</time>
      </trkpt>
      <trkpt lat="42.887390" lon="-8.538713">
        <ele>312.183</ele>
        <time>2015-03-27T16:38:52Z</time>
      </trkpt>
      <trkpt lat="42.887544" lon="-8.538394">
        <ele>312.146</ele>
        <time>2015-03-27T16:39:11Z</time>
      </trkpt>
      <trkpt lat="42.887802" lon="-8.537837">
        <ele>312.128</ele>
        <time>2015-03-27T16:39:24Z</time>
      </trkpt>
      <trkpt lat="42.887918" lon="-8.537580">
        <ele>310.668</ele>
        <time>2015-03-27T16:39:30Z</time>
      </trkpt>
      <trkpt lat="42.888089" lon="-8.537064">
        <ele>310.686</ele>
        <time>2015-03-27T16:39:43Z</time>
      </trkpt>
      <trkpt lat="42.888324" lon="-8.536489">
        <ele>310.661</ele>
        <time>2015-03-27T16:39:56Z</time>
      </trkpt>
      <trkpt lat="42.888399" lon="-8.536312">
        <ele>310.678</ele>
        <time>2015-03-27T16:40:00Z</time>
      </trkpt>
      <trkpt lat="42.888361" lon="-8.536045">
        <ele>312.181</ele>
        <time>2015-03-27T16:40:06Z</time>
      </trkpt>
      <trkpt lat="42.887967" lon="-8.535242">
        <ele>312.161</ele>
        <time>2015-03-27T16:40:23Z</time>
      </trkpt>
      <trkpt lat="42.887836" lon="-8.534996">
        <ele>310.617</ele>
        <time>2015-03-27T16:40:27Z</time>
      </trkpt>
      <trkpt lat="42.887530" lon="-8.534451">
        <ele>308.207</ele>
        <time>2015-03-27T16:40:35Z</time>
      </trkpt>
      <trkpt lat="42.887326" lon="-8.534055">
        <ele>307.877</ele>
        <time>2015-03-27T16:40:43Z</time>
      </trkpt>
      <trkpt lat="42.887198" lon="-8.533911">
        <ele>308.290</ele>
        <time>2015-03-27T16:40:48Z</time>
      </trkpt>
      <trkpt lat="42.887062" lon="-8.533854">
        <ele>308.232</ele>
        <time>2015-03-27T16:40:56Z</time>
      </trkpt>
      <trkpt lat="42.887132" lon="-8.533749">
        <ele>309.262</ele>
        <time>2015-03-27T16:41:25Z</time>
      </trkpt>
      <trkpt lat="42.887145" lon="-8.533690">
        <ele>309.290</ele>
        <time>2015-03-27T16:42:01Z</time>
      </trkpt>
      <trkpt lat="42.887157" lon="-8.533662">
        <ele>309.275</ele>
        <time>2015-03-27T16:42:05Z</time>
      </trkpt>
      <trkpt lat="43.5358770" lon="-7.0436600">
        <ele>44.6</ele>
        <time>2014-07-28T17:48:49Z</time>
      </trkpt>
      <trkpt lat="43.5358780" lon="-7.0436590">
        <ele>44.6</ele>
        <time>2014-07-28T17:49:11Z</time>
      </trkpt>
      <trkpt lat="43.5358780" lon="-7.0436590">
        <ele>44.6</ele>
        <time>2014-07-28T17:49:35Z</time>
      </trkpt>
      <trkpt lat="43.5358780" lon="-7.0436600">
        <ele>44.6</ele>
        <time>2014-07-28T17:50:06Z</time>
      </trkpt>
      <trkpt lat="43.5358830" lon="-7.0436600">
        <ele>44.7</ele>
        <time>2014-07-28T17:50:28Z</time>
      </trkpt>
      <trkpt lat="43.5358830" lon="-7.0436600">
        <ele>44.7</ele>
        <time>2014-07-28T17:50:51Z</time>
      </trkpt>
      <trkpt lat="43.5358850" lon="-7.0436570">
        <ele>44.7</ele>
        <time>2014-07-28T17:51:15Z</time>
      </trkpt>
      <trkpt lat="43.5358850" lon="-7.0436570">
        <ele>44.7</ele>
        <time>2014-07-28T17:51:41Z</time>
      </trkpt>
      <trkpt lat="43.5359020" lon="-7.0438560">
        <ele>44.7</ele>
        <time>2014-07-28T17:52:07Z</time>
      </trkpt>
      <trkpt lat="43.5361200" lon="-7.0432890">
        <ele>45.2</ele>
        <time>2014-07-29T07:45:47Z</time>
      </trkpt>
      <trkpt lat="43.5361200" lon="-7.0432890">
        <ele>45.2</ele>
        <time>2014-07-29T07:45:51Z</time>
      </trkpt>
      <trkpt lat="43.5361260" lon="-7.0432910">
        <ele>45.3</ele>
        <time>2014-07-29T07:46:18Z</time>
      </trkpt>
      <trkpt lat="43.5361110" lon="-7.0433210">
        <ele>45.3</ele>
        <time>2014-07-29T07:46:35Z</time>
      </trkpt>
      <trkpt lat="43.5361110" lon="-7.0433210">
        <ele>45.3</ele>
        <time>2014-07-29T07:47:00Z</time>
      </trkpt>
      <trkpt lat="43.5360790" lon="-7.0433270">
        <ele>45.3</ele>
        <time>2014-07-29T07:47:11Z</time>
      </trkpt>
      <trkpt lat="43.5359810" lon="-7.0432560">
        <ele>45.4</ele>
        <time>2014-07-29T07:47:17Z</time>
      </trkpt>
      <trkpt lat="43.5356640" lon="-7.0428980">
        <ele>45.8</ele>
        <time>2014-07-29T07:47:28Z</time>
      </trkpt>
      <trkpt lat="43.5356160" lon="-7.0428250">
        <ele>45.8</ele>
        <time>2014-07-29T07:47:31Z</time>
      </trkpt>
      <trkpt lat="43.5355300" lon="-7.0426640">
        <ele>45.8</ele>
        <time>2014-07-29T07:47:38Z</time>
      </trkpt>
      <trkpt lat="43.5353670" lon="-7.0427360">
        <ele>45.8</ele>
        <time>2014-07-29T07:47:45Z</time>
      </trkpt>
      <trkpt lat="43.5350140" lon="-7.0431240">
        <ele>44.5</ele>
        <time>2014-07-29T07:48:00Z</time>
      </trkpt>
      <trkpt lat="43.5349130" lon="-7.0431350">
        <ele>44.2</ele>
        <time>2014-07-29T07:48:04Z</time>
      </trkpt>
      <trkpt lat="43.5348780" lon="-7.0428950">
        <ele>44.5</ele>
        <time>2014-07-29T07:48:15Z</time>
      </trkpt>
      <trkpt lat="43.5347540" lon="-7.0426960">
        <ele>44.8</ele>
        <time>2014-07-29T07:48:25Z</time>
      </trkpt>
      <trkpt lat="43.5344600" lon="-7.0427940">
        <ele>44.9</ele>
        <time>2014-07-29T07:48:39Z</time>
      </trkpt>
      <trkpt lat="43.5344070" lon="-7.0428050">
        <ele>45.0</ele>
        <time>2014-07-29T07:48:43Z</time>
      </trkpt>
      <trkpt lat="43.5343890" lon="-7.0428090">
        <ele>45.0</ele>
        <time>2014-07-29T07:48:45Z</time>
      </trkpt>
      <trkpt lat="43.5343980" lon="-7.0428110">
        <ele>45.1</ele>
        <time>2014-07-29T07:48:55Z</time>
      </trkpt>
      <trkpt lat="43.5346720" lon="-7.0427050">
        <ele>45.0</ele>
        <time>2014-07-29T07:49:08Z</time>
      </trkpt>
      <trkpt lat="43.5346910" lon="-7.0427020">
        <ele>45.0</ele>
        <time>2014-07-29T07:49:10Z</time>
      </trkpt>
      <trkpt lat="43.5348570" lon="-7.0425980">
        <ele>44.9</ele>
        <time>2014-07-29T07:49:22Z</time>
      </trkpt>
      <trkpt lat="43.5348960" lon="-7.0425690">
        <ele>44.9</ele>
        <time>2014-07-29T07:49:25Z</time>
      </trkpt>
      <trkpt lat="43.5349860" lon="-7.0424690">
        <ele>45.0</ele>
        <time>2014-07-29T07:49:31Z</time>
      </trkpt>
      <trkpt lat="43.5351660" lon="-7.0422860">
        <ele>45.8</ele>
        <time>2014-07-29T07:49:44Z</time>
      </trkpt>
      <trkpt lat="43.5351660" lon="-7.0422860">
        <ele>45.8</ele>
        <time>2014-07-29T07:49:52Z</time>
      </trkpt>
      <trkpt lat="43.5351660" lon="-7.0422860">
        <ele>45.8</ele>
        <time>2014-07-29T07:50:17Z</time>
      </trkpt>
      <trkpt lat="43.5351660" lon="-7.0422860">
        <ele>45.8</ele>
        <time>2014-07-29T07:50:18Z</time>
      </trkpt>
      <trkpt lat="43.5351640" lon="-7.0422810">
        <ele>45.8</ele>
        <time>2014-07-29T07:50:34Z</time>
      </trkpt>
      <trkpt lat="43.5352750" lon="-7.0423600">
        <ele>45.9</ele>
        <time>2014-07-29T07:50:43Z</time>
      </trkpt>
      <trkpt lat="43.5355650" lon="-7.0428720">
        <ele>45.8</ele>
        <time>2014-07-29T07:50:58Z</time>
      </trkpt>
      <trkpt lat="43.5357930" lon="-7.0433910">
        <ele>45.1</ele>
        <time>2014-07-29T07:51:13Z</time>
      </trkpt>
      <trkpt lat="43.5360600" lon="-7.0438160">
        <ele>44.6</ele>
        <time>2014-07-29T07:51:26Z</time>
      </trkpt>
      <trkpt lat="43.5361050" lon="-7.0439000">
        <ele>44.5</ele>
        <time>2014-07-29T07:51:30Z</time>
      </trkpt>
      <trkpt lat="43.5359430" lon="-7.0441590">
        <ele>42.7</ele>
        <time>2014-07-29T07:51:41Z</time>
      </trkpt>
      <trkpt lat="43.5355910" lon="-7.0444840">
        <ele>41.6</ele>
        <time>2014-07-29T07:51:53Z</time>
      </trkpt>
      <trkpt lat="43.5352050" lon="-7.0447200">
        <ele>41.0</ele>
        <time>2014-07-29T07:52:05Z</time>
      </trkpt>
      <trkpt lat="43.5348320" lon="-7.0450210">
        <ele>41.5</ele>
        <time>2014-07-29T07:52:18Z</time>
      </trkpt>
      <trkpt lat="43.5348140" lon="-7.0457630">
        <ele>40.5</ele>
        <time>2014-07-29T07:52:33Z</time>
      </trkpt>
      <trkpt lat="43.5347960" lon="-7.0465870">
        <ele>40.1</ele>
        <time>2014-07-29T07:52:49Z</time>
      </trkpt>
      <trkpt lat="43.5346900" lon="-7.0474090">
        <ele>41.2</ele>
        <time>2014-07-29T07:53:05Z</time>
      </trkpt>
      <trkpt lat="43.5344900" lon="-7.0482360">
        <ele>42.5</ele>
        <time>2014-07-29T07:53:22Z</time>
      </trkpt>
      <trkpt lat="43.5344420" lon="-7.0491040">
        <ele>42.2</ele>
        <time>2014-07-29T07:53:39Z</time>
      </trkpt>
      <trkpt lat="43.5345560" lon="-7.0501170">
        <ele>41.4</ele>
        <time>2014-07-29T07:53:59Z</time>
      </trkpt>
      <trkpt lat="43.5343730" lon="-7.0505250">
        <ele>42.2</ele>
        <time>2014-07-29T07:54:09Z</time>
      </trkpt>
      <trkpt lat="43.5340400" lon="-7.0511790">
        <ele>42.2</ele>
        <time>2014-07-29T07:54:24Z</time>
      </trkpt>
      <trkpt lat="43.5338000" lon="-7.0517340">
        <ele>41.9</ele>
        <time>2014-07-29T07:54:36Z</time>
      </trkpt>
      <trkpt lat="43.5335120" lon="-7.0524240">
        <ele>41.5</ele>
        <time>2014-07-29T07:54:52Z</time>
      </trkpt>
      <trkpt lat="43.5331860" lon="-7.0532440">
        <ele>40.9</ele>
        <time>2014-07-29T07:55:10Z</time>
      </trkpt>
      <trkpt lat="43.5327930" lon="-7.0540370">
        <ele>40.7</ele>
        <time>2014-07-29T07:55:28Z</time>
      </trkpt>
      <trkpt lat="43.5324010" lon="-7.0541110">
        <ele>40.4</ele>
        <time>2014-07-29T07:55:39Z</time>
      </trkpt>
      <trkpt lat="43.5320690" lon="-7.0540190">
        <ele>40.1</ele>
        <time>2014-07-29T07:55:47Z</time>
      </trkpt>
      <trkpt lat="43.5315960" lon="-7.0535180">
        <ele>39.5</ele>
        <time>2014-07-29T07:56:02Z</time>
      </trkpt>
      <trkpt lat="43.5313620" lon="-7.0534380">
        <ele>40.8</ele>
        <time>2014-07-29T07:56:10Z</time>
      </trkpt>
      <trkpt lat="43.5313000" lon="-7.0534560">
        <ele>41.3</ele>
        <time>2014-07-29T07:56:13Z</time>
      </trkpt>
      <trkpt lat="43.5310610" lon="-7.0535430">
        <ele>43.0</ele>
        <time>2014-07-29T07:56:25Z</time>
      </trkpt>
      <trkpt lat="43.5307380" lon="-7.0537330">
        <ele>45.0</ele>
        <time>2014-07-29T07:56:44Z</time>
      </trkpt>
      <trkpt lat="43.5306330" lon="-7.0538900">
        <ele>45.5</ele>
        <time>2014-07-29T07:56:53Z</time>
      </trkpt>
      <trkpt lat="43.5306210" lon="-7.0539050">
        <ele>45.5</ele>
        <time>2014-07-29T07:56:54Z</time>
      </trkpt>
      <trkpt lat="43.5306140" lon="-7.0539240">
        <ele>45.5</ele>
        <time>2014-07-29T07:56:55Z</time>
      </trkpt>
      <trkpt lat="43.5306100" lon="-7.0539460">
        <ele>45.6</ele>
        <time>2014-07-29T07:56:56Z</time>
      </trkpt>
      <trkpt lat="43.5306050" lon="-7.0539680">
        <ele>45.6</ele>
        <time>2014-07-29T07:56:57Z</time>
      </trkpt>
      <trkpt lat="43.5306000" lon="-7.0539880">
        <ele>45.7</ele>
        <time>2014-07-29T07:56:58Z</time>
      </trkpt>
      <trkpt lat="43.5304760" lon="-7.0544170">
        <ele>47.9</ele>
        <time>2014-07-29T07:57:11Z</time>
      </trkpt>
      <trkpt lat="43.5301250" lon="-7.0547210">
        <ele>48.3</ele>
        <time>2014-07-29T07:57:26Z</time>
      </trkpt>
      <trkpt lat="43.5297910" lon="-7.0550260">
        <ele>52.9</ele>
        <time>2014-07-29T07:57:42Z</time>
      </trkpt>
      <trkpt lat="43.5296970" lon="-7.0551020">
        <ele>53.5</ele>
        <time>2014-07-29T07:57:47Z</time>
      </trkpt>
      <trkpt lat="43.5296820" lon="-7.0551320">
        <ele>53.7</ele>
        <time>2014-07-29T07:57:48Z</time>
      </trkpt>
      <trkpt lat="43.5296730" lon="-7.0551650">
        <ele>53.9</ele>
        <time>2014-07-29T07:57:49Z</time>
      </trkpt>
      <trkpt lat="43.5296660" lon="-7.0551980">
        <ele>54.0</ele>
        <time>2014-07-29T07:57:50Z</time>
      </trkpt>
      <trkpt lat="43.5296630" lon="-7.0552310">
        <ele>54.1</ele>
        <time>2014-07-29T07:57:51Z</time>
      </trkpt>
      <trkpt lat="43.5296610" lon="-7.0552660">
        <ele>54.2</ele>
        <time>2014-07-29T07:57:52Z</time>
      </trkpt>
      <trkpt lat="43.5296460" lon="-7.0559690">
        <ele>56.3</ele>
        <time>2014-07-29T07:58:12Z</time>
      </trkpt>
      <trkpt lat="43.5295520" lon="-7.0562830">
        <ele>58.3</ele>
        <time>2014-07-29T07:58:22Z</time>
      </trkpt>
      <trkpt lat="43.5293770" lon="-7.0564920">
        <ele>60.0</ele>
        <time>2014-07-29T07:58:34Z</time>
      </trkpt>
      <trkpt lat="43.5293040" lon="-7.0565880">
        <ele>60.9</ele>
        <time>2014-07-29T07:58:47Z</time>
      </trkpt>
      <trkpt lat="43.5293000" lon="-7.0565590">
        <ele>61.1</ele>
        <time>2014-07-29T07:59:02Z</time>
      </trkpt>
      <trkpt lat="43.5293000" lon="-7.0565590">
        <ele>61.1</ele>
        <time>2014-07-29T07:59:34Z</time>
      </trkpt>
      <trkpt lat="43.5293020" lon="-7.0565600">
        <ele>61.1</ele>
        <time>2014-07-29T08:00:11Z</time>
      </trkpt>
      <trkpt lat="43.5293010" lon="-7.0565590">
        <ele>61.1</ele>
        <time>2014-07-29T08:00:53Z</time>
      </trkpt>
      <trkpt lat="43.5293000" lon="-7.0565510">
        <ele>61.2</ele>
        <time>2014-07-29T08:01:14Z</time>
      </trkpt>
      <trkpt lat="43.5292970" lon="-7.0565480">
        <ele>61.2</ele>
        <time>2014-07-29T08:01:57Z</time>
      </trkpt>
      <trkpt lat="43.5292960" lon="-7.0565470">
        <ele>61.2</ele>
        <time>2014-07-29T08:02:35Z</time>
      </trkpt>
      <trkpt lat="43.5293150" lon="-7.0565570">
        <ele>61.3</ele>
        <time>2014-07-29T08:03:06Z</time>
      </trkpt>
      <trkpt lat="43.5292990" lon="-7.0565820">
        <ele>61.5</ele>
        <time>2014-07-29T08:03:22Z</time>
      </trkpt>
      <trkpt lat="43.5292760" lon="-7.0566030">
        <ele>61.6</ele>
        <time>2014-07-29T08:03:29Z</time>
      </trkpt>
      <trkpt lat="43.5292620" lon="-7.0566150">
        <ele>61.7</ele>
        <time>2014-07-29T08:03:30Z</time>
      </trkpt>
      <trkpt lat="43.5289990" lon="-7.0569320">
        <ele>64.2</ele>
        <time>2014-07-29T08:03:49Z</time>
      </trkpt>
      <trkpt lat="43.5287870" lon="-7.0571930">
        <ele>66.0</ele>
        <time>2014-07-29T08:04:05Z</time>
      </trkpt>
      <trkpt lat="43.5286460" lon="-7.0573260">
        <ele>67.2</ele>
        <time>2014-07-29T08:04:15Z</time>
      </trkpt>
      <trkpt lat="43.5286330" lon="-7.0573380">
        <ele>67.3</ele>
        <time>2014-07-29T08:04:16Z</time>
      </trkpt>
      <trkpt lat="43.5286210" lon="-7.0573560">
        <ele>67.4</ele>
        <time>2014-07-29T08:04:17Z</time>
      </trkpt>
      <trkpt lat="43.5284370" lon="-7.0575870">
        <ele>69.7</ele>
        <time>2014-07-29T08:04:31Z</time>
      </trkpt>
      <trkpt lat="43.5283660" lon="-7.0576740">
        <ele>70.6</ele>
        <time>2014-07-29T08:04:37Z</time>
      </trkpt>
      <trkpt lat="43.5283500" lon="-7.0576790">
        <ele>70.7</ele>
        <time>2014-07-29T08:04:38Z</time>
      </trkpt>
      <trkpt lat="43.5283350" lon="-7.0576890">
        <ele>70.9</ele>
        <time>2014-07-29T08:04:39Z</time>
      </trkpt>
      <trkpt lat="43.5283200" lon="-7.0577040">
        <ele>71.0</ele>
        <time>2014-07-29T08:04:40Z</time>
      </trkpt>
      <trkpt lat="43.5283080" lon="-7.0577220">
        <ele>71.2</ele>
        <time>2014-07-29T08:04:41Z</time>
      </trkpt>
      <trkpt lat="43.5282980" lon="-7.0577420">
        <ele>71.3</ele>
        <time>2014-07-29T08:04:42Z</time>
      </trkpt>
      <trkpt lat="43.5282890" lon="-7.0577610">
        <ele>71.5</ele>
        <time>2014-07-29T08:04:43Z</time>
      </trkpt>
      <trkpt lat="43.5282790" lon="-7.0577770">
        <ele>71.6</ele>
        <time>2014-07-29T08:04:44Z</time>
      </trkpt>
      <trkpt lat="43.5282670" lon="-7.0577920">
        <ele>71.7</ele>
        <time>2014-07-29T08:04:45Z</time>
      </trkpt>
      <trkpt lat="43.5282560" lon="-7.0578070">
        <ele>71.9</ele>
        <time>2014-07-29T08:04:46Z</time>
      </trkpt>
      <trkpt lat="43.5280820" lon="-7.0579760">
        <ele>74.2</ele>
        <time>2014-07-29T08:05:01Z</time>
      </trkpt>
      <trkpt lat="43.5279160" lon="-7.0581760">
        <ele>76.9</ele>
        <time>2014-07-29T08:05:18Z</time>
      </trkpt>
      <trkpt lat="43.5278370" lon="-7.0582570">
        <ele>78.5</ele>
        <time>2014-07-29T08:05:25Z</time>
      </trkpt>
      <trkpt lat="43.5278240" lon="-7.0582650">
        <ele>78.8</ele>
        <time>2014-07-29T08:05:26Z</time>
      </trkpt>
      <trkpt lat="43.5278130" lon="-7.0582750">
        <ele>79.0</ele>
        <time>2014-07-29T08:05:27Z</time>
      </trkpt>
      <trkpt lat="43.5278040" lon="-7.0582840">
        <ele>79.1</ele>
        <time>2014-07-29T08:05:28Z</time>
      </trkpt>
      <trkpt lat="43.5277960" lon="-7.0582930">
        <ele>79.3</ele>
        <time>2014-07-29T08:05:29Z</time>
      </trkpt>
      <trkpt lat="43.5277860" lon="-7.0583020">
        <ele>79.4</ele>
        <time>2014-07-29T08:05:30Z</time>
      </trkpt>
      <trkpt lat="43.5277760" lon="-7.0583120">
        <ele>79.5</ele>
        <time>2014-07-29T08:05:31Z</time>
      </trkpt>
      <trkpt lat="43.5277660" lon="-7.0583230">
        <ele>79.6</ele>
        <time>2014-07-29T08:05:32Z</time>
      </trkpt>
      <trkpt lat="43.5277590" lon="-7.0583330">
        <ele>79.6</ele>
        <time>2014-07-29T08:05:33Z</time>
      </trkpt>
      <trkpt lat="43.5276410" lon="-7.0584340">
        <ele>81.5</ele>
        <time>2014-07-29T08:05:44Z</time>
      </trkpt>
      <trkpt lat="43.5276360" lon="-7.0584500">
        <ele>81.7</ele>
        <time>2014-07-29T08:05:45Z</time>
      </trkpt>
      <trkpt lat="43.5276260" lon="-7.0584650">
        <ele>81.9</ele>
        <time>2014-07-29T08:05:46Z</time>
      </trkpt>
      <trkpt lat="43.5276170" lon="-7.0584790">
        <ele>82.1</ele>
        <time>2014-07-29T08:05:47Z</time>
      </trkpt>
      <trkpt lat="43.5276060" lon="-7.0584880">
        <ele>82.3</ele>
        <time>2014-07-29T08:05:48Z</time>
      </trkpt>
      <trkpt lat="43.5275940" lon="-7.0584950">
        <ele>82.5</ele>
        <time>2014-07-29T08:05:49Z</time>
      </trkpt>
      <trkpt lat="43.5275820" lon="-7.0584980">
        <ele>82.7</ele>
        <time>2014-07-29T08:05:50Z</time>
      </trkpt>
      <trkpt lat="43.5275340" lon="-7.0585240">
        <ele>83.5</ele>
        <time>2014-07-29T08:05:54Z</time>
      </trkpt>
      <trkpt lat="43.5275260" lon="-7.0585350">
        <ele>83.7</ele>
        <time>2014-07-29T08:05:55Z</time>
      </trkpt>
      <trkpt lat="43.5275200" lon="-7.0585480">
        <ele>83.8</ele>
        <time>2014-07-29T08:05:56Z</time>
      </trkpt>
      <trkpt lat="43.5275130" lon="-7.0585620">
        <ele>84.0</ele>
        <time>2014-07-29T08:05:57Z</time>
      </trkpt>
      <trkpt lat="43.5275020" lon="-7.0585710">
        <ele>84.2</ele>
        <time>2014-07-29T08:05:58Z</time>
      </trkpt>
      <trkpt lat="43.5274890" lon="-7.0585730">
        <ele>84.4</ele>
        <time>2014-07-29T08:05:59Z</time>
      </trkpt>
      <trkpt lat="43.5274750" lon="-7.0585740">
        <ele>84.6</ele>
        <time>2014-07-29T08:06:00Z</time>
      </trkpt>
      <trkpt lat="43.5274630" lon="-7.0585810">
        <ele>84.9</ele>
        <time>2014-07-29T08:06:01Z</time>
      </trkpt>
      <trkpt lat="43.5274530" lon="-7.0585930">
        <ele>85.1</ele>
        <time>2014-07-29T08:06:02Z</time>
      </trkpt>
      <trkpt lat="43.5274470" lon="-7.0586050">
        <ele>85.2</ele>
        <time>2014-07-29T08:06:03Z</time>
      </trkpt>
      <trkpt lat="43.5274410" lon="-7.0586190">
        <ele>85.4</ele>
        <time>2014-07-29T08:06:04Z</time>
      </trkpt>
      <trkpt lat="43.5274360" lon="-7.0586330">
        <ele>85.6</ele>
        <time>2014-07-29T08:06:05Z</time>
      </trkpt>
      <trkpt lat="43.5273350" lon="-7.0587070">
        <ele>87.4</ele>
        <time>2014-07-29T08:06:15Z</time>
      </trkpt>
      <trkpt lat="43.5273300" lon="-7.0587200">
        <ele>87.5</ele>
        <time>2014-07-29T08:06:16Z</time>
      </trkpt>
      <trkpt lat="43.5273230" lon="-7.0587320">
        <ele>87.7</ele>
        <time>2014-07-29T08:06:17Z</time>
      </trkpt>
      <trkpt lat="43.5273130" lon="-7.0587410">
        <ele>87.9</ele>
        <time>2014-07-29T08:06:18Z</time>
      </trkpt>
      <trkpt lat="43.5273020" lon="-7.0587460">
        <ele>88.1</ele>
        <time>2014-07-29T08:06:19Z</time>
      </trkpt>
      <trkpt lat="43.5272890" lon="-7.0587500">
        <ele>88.3</ele>
        <time>2014-07-29T08:06:20Z</time>
      </trkpt>
      <trkpt lat="43.5272770" lon="-7.0587580">
        <ele>88.5</ele>
        <time>2014-07-29T08:06:21Z</time>
      </trkpt>
      <trkpt lat="43.5271860" lon="-7.0588630">
        <ele>90.3</ele>
        <time>2014-07-29T08:06:31Z</time>
      </trkpt>
      <trkpt lat="43.5271730" lon="-7.0588670">
        <ele>90.6</ele>
        <time>2014-07-29T08:06:32Z</time>
      </trkpt>
      <trkpt lat="43.5271610" lon="-7.0588690">
        <ele>90.7</ele>
        <time>2014-07-29T08:06:33Z</time>
      </trkpt>
      <trkpt lat="43.5271490" lon="-7.0588690">
        <ele>90.9</ele>
        <time>2014-07-29T08:06:34Z</time>
      </trkpt>
      <trkpt lat="43.5271380" lon="-7.0588750">
        <ele>91.1</ele>
        <time>2014-07-29T08:06:35Z</time>
      </trkpt>
      <trkpt lat="43.5271280" lon="-7.0588870">
        <ele>91.3</ele>
        <time>2014-07-29T08:06:36Z</time>
      </trkpt>
      <trkpt lat="43.5271190" lon="-7.0588990">
        <ele>91.5</ele>
        <time>2014-07-29T08:06:37Z</time>
      </trkpt>
      <trkpt lat="43.5271130" lon="-7.0589160">
        <ele>91.7</ele>
        <time>2014-07-29T08:06:38Z</time>
      </trkpt>
      <trkpt lat="43.5271090" lon="-7.0589300">
        <ele>91.9</ele>
        <time>2014-07-29T08:06:39Z</time>
      </trkpt>
      <trkpt lat="43.5270990" lon="-7.0589400">
        <ele>92.1</ele>
        <time>2014-07-29T08:06:40Z</time>
      </trkpt>
      <trkpt lat="43.5270870" lon="-7.0589490">
        <ele>92.3</ele>
        <time>2014-07-29T08:06:41Z</time>
      </trkpt>
      <trkpt lat="43.5270410" lon="-7.0589720">
        <ele>93.1</ele>
        <time>2014-07-29T08:06:45Z</time>
      </trkpt>
      <trkpt lat="43.5270340" lon="-7.0589850">
        <ele>93.3</ele>
        <time>2014-07-29T08:06:46Z</time>
      </trkpt>
      <trkpt lat="43.5270300" lon="-7.0589990">
        <ele>93.5</ele>
        <time>2014-07-29T08:06:47Z</time>
      </trkpt>
      <trkpt lat="43.5270240" lon="-7.0590130">
        <ele>93.7</ele>
        <time>2014-07-29T08:06:48Z</time>
      </trkpt>
      <trkpt lat="43.5270140" lon="-7.0590240">
        <ele>93.9</ele>
        <time>2014-07-29T08:06:49Z</time>
      </trkpt>
      <trkpt lat="43.5268720" lon="-7.0591380">
        <ele>96.7</ele>
        <time>2014-07-29T08:07:03Z</time>
      </trkpt>
      <trkpt lat="43.5268580" lon="-7.0591410">
        <ele>97.0</ele>
        <time>2014-07-29T08:07:04Z</time>
      </trkpt>
      <trkpt lat="43.5267050" lon="-7.0592810">
        <ele>100.2</ele>
        <time>2014-07-29T08:07:20Z</time>
      </trkpt>
      <trkpt lat="43.5266200" lon="-7.0593440">
        <ele>101.6</ele>
        <time>2014-07-29T08:07:28Z</time>
      </trkpt>
      <trkpt lat="43.5266080" lon="-7.0593470">
        <ele>101.8</ele>
        <time>2014-07-29T08:07:29Z</time>
      </trkpt>
      <trkpt lat="43.5265110" lon="-7.0594190">
        <ele>103.2</ele>
        <time>2014-07-29T08:07:36Z</time>
      </trkpt>
      <trkpt lat="43.5263420" lon="-7.0596210">
        <ele>106.1</ele>
        <time>2014-07-29T08:07:51Z</time>
      </trkpt>
      <trkpt lat="43.5262570" lon="-7.0597490">
        <ele>107.5</ele>
        <time>2014-07-29T08:07:59Z</time>
      </trkpt>
      <trkpt lat="43.5262460" lon="-7.0597620">
        <ele>107.7</ele>
        <time>2014-07-29T08:08:00Z</time>
      </trkpt>
      <trkpt lat="43.5262330" lon="-7.0597730">
        <ele>107.9</ele>
        <time>2014-07-29T08:08:01Z</time>
      </trkpt>
      <trkpt lat="43.5262200" lon="-7.0597870">
        <ele>108.1</ele>
        <time>2014-07-29T08:08:02Z</time>
      </trkpt>
      <trkpt lat="43.5262060" lon="-7.0598020">
        <ele>108.3</ele>
        <time>2014-07-29T08:08:03Z</time>
      </trkpt>
      <trkpt lat="43.5261930" lon="-7.0598160">
        <ele>108.4</ele>
        <time>2014-07-29T08:08:04Z</time>
      </trkpt>
      <trkpt lat="43.5261810" lon="-7.0598320">
        <ele>108.6</ele>
        <time>2014-07-29T08:08:05Z</time>
      </trkpt>
      <trkpt lat="43.5260330" lon="-7.0600300">
        <ele>110.8</ele>
        <time>2014-07-29T08:08:18Z</time>
      </trkpt>
      <trkpt lat="43.5258390" lon="-7.0602100">
        <ele>113.0</ele>
        <time>2014-07-29T08:08:33Z</time>
      </trkpt>
      <trkpt lat="43.5257100" lon="-7.0603380">
        <ele>114.7</ele>
        <time>2014-07-29T08:08:43Z</time>
      </trkpt>
      <trkpt lat="43.5256950" lon="-7.0603480">
        <ele>114.8</ele>
        <time>2014-07-29T08:08:44Z</time>
      </trkpt>
      <trkpt lat="43.5256830" lon="-7.0603580">
        <ele>115.0</ele>
        <time>2014-07-29T08:08:45Z</time>
      </trkpt>
      <trkpt lat="43.5256680" lon="-7.0603660">
        <ele>115.2</ele>
        <time>2014-07-29T08:08:46Z</time>
      </trkpt>
      <trkpt lat="43.5256530" lon="-7.0603710">
        <ele>115.4</ele>
        <time>2014-07-29T08:08:47Z</time>
      </trkpt>
      <trkpt lat="43.5256370" lon="-7.0603770">
        <ele>115.5</ele>
        <time>2014-07-29T08:08:48Z</time>
      </trkpt>
      <trkpt lat="43.5256210" lon="-7.0603840">
        <ele>115.7</ele>
        <time>2014-07-29T08:08:49Z</time>
      </trkpt>
      <trkpt lat="43.5254290" lon="-7.0605990">
        <ele>119.0</ele>
        <time>2014-07-29T08:09:04Z</time>
      </trkpt>
      <trkpt lat="43.5252450" lon="-7.0608290">
        <ele>122.2</ele>
        <time>2014-07-29T08:09:20Z</time>
      </trkpt>
      <trkpt lat="43.5250630" lon="-7.0611100">
        <ele>124.8</ele>
        <time>2014-07-29T08:09:35Z</time>
      </trkpt>
      <trkpt lat="43.5248940" lon="-7.0615080">
        <ele>126.2</ele>
        <time>2014-07-29T08:09:49Z</time>
      </trkpt>
      <trkpt lat="43.5247630" lon="-7.0620460">
        <ele>128.3</ele>
        <time>2014-07-29T08:10:05Z</time>
      </trkpt>
      <trkpt lat="43.5245680" lon="-7.0626940">
        <ele>131.5</ele>
        <time>2014-07-29T08:10:23Z</time>
      </trkpt>
      <trkpt lat="43.5242190" lon="-7.0632460">
        <ele>133.3</ele>
        <time>2014-07-29T08:10:38Z</time>
      </trkpt>
      <trkpt lat="43.5240400" lon="-7.0634380">
        <ele>134.0</ele>
        <time>2014-07-29T08:10:49Z</time>
      </trkpt>
      <trkpt lat="43.5238680" lon="-7.0636410">
        <ele>134.6</ele>
        <time>2014-07-29T08:11:01Z</time>
      </trkpt>
      <trkpt lat="43.5238570" lon="-7.0636640">
        <ele>134.7</ele>
        <time>2014-07-29T08:11:02Z</time>
      </trkpt>
      <trkpt lat="43.5236190" lon="-7.0640040">
        <ele>135.2</ele>
        <time>2014-07-29T08:11:18Z</time>
      </trkpt>
      <trkpt lat="43.5233750" lon="-7.0643490">
        <ele>136.1</ele>
        <time>2014-07-29T08:11:33Z</time>
      </trkpt>
      <trkpt lat="43.5231830" lon="-7.0646890">
        <ele>138.3</ele>
        <time>2014-07-29T08:11:46Z</time>
      </trkpt>
      <trkpt lat="43.5229680" lon="-7.0650970">
        <ele>140.3</ele>
        <time>2014-07-29T08:12:00Z</time>
      </trkpt>
      <trkpt lat="43.5228120" lon="-7.0654230">
        <ele>140.5</ele>
        <time>2014-07-29T08:12:13Z</time>
      </trkpt>
      <trkpt lat="43.5226410" lon="-7.0657800">
        <ele>140.3</ele>
        <time>2014-07-29T08:12:30Z</time>
      </trkpt>
      <trkpt lat="43.5224360" lon="-7.0661740">
        <ele>139.5</ele>
        <time>2014-07-29T08:12:46Z</time>
      </trkpt>
      <trkpt lat="43.5222210" lon="-7.0667210">
        <ele>138.2</ele>
        <time>2014-07-29T08:13:00Z</time>
      </trkpt>
      <trkpt lat="43.5221960" lon="-7.0668340">
        <ele>137.9</ele>
        <time>2014-07-29T08:13:02Z</time>
      </trkpt>
      <trkpt lat="43.5221800" lon="-7.0669540">
        <ele>137.7</ele>
        <time>2014-07-29T08:13:04Z</time>
      </trkpt>
      <trkpt lat="43.5221760" lon="-7.0670800">
        <ele>137.5</ele>
        <time>2014-07-29T08:13:06Z</time>
      </trkpt>
      <trkpt lat="43.5221790" lon="-7.0671450">
        <ele>137.5</ele>
        <time>2014-07-29T08:13:07Z</time>
      </trkpt>
      <trkpt lat="43.5222240" lon="-7.0675550">
        <ele>137.7</ele>
        <time>2014-07-29T08:13:13Z</time>
      </trkpt>
      <trkpt lat="43.5222210" lon="-7.0676250">
        <ele>137.7</ele>
        <time>2014-07-29T08:13:14Z</time>
      </trkpt>
      <trkpt lat="43.5222000" lon="-7.0677750">
        <ele>136.8</ele>
        <time>2014-07-29T08:13:16Z</time>
      </trkpt>
      <trkpt lat="43.5221740" lon="-7.0678420">
        <ele>135.8</ele>
        <time>2014-07-29T08:13:17Z</time>
      </trkpt>
      <trkpt lat="43.5221350" lon="-7.0678950">
        <ele>134.9</ele>
        <time>2014-07-29T08:13:18Z</time>
      </trkpt>
      <trkpt lat="43.5220900" lon="-7.0679280">
        <ele>134.0</ele>
        <time>2014-07-29T08:13:19Z</time>
      </trkpt>
      <trkpt lat="43.5220410" lon="-7.0679380">
        <ele>133.0</ele>
        <time>2014-07-29T08:13:20Z</time>
      </trkpt>
      <trkpt lat="43.5219920" lon="-7.0679330">
        <ele>132.2</ele>
        <time>2014-07-29T08:13:21Z</time>
      </trkpt>
      <trkpt lat="43.5219450" lon="-7.0679210">
        <ele>131.7</ele>
        <time>2014-07-29T08:13:22Z</time>
      </trkpt>
      <trkpt lat="43.5218970" lon="-7.0679060">
        <ele>131.6</ele>
        <time>2014-07-29T08:13:23Z</time>
      </trkpt>
      <trkpt lat="43.5218520" lon="-7.0678860">
        <ele>131.6</ele>
        <time>2014-07-29T08:13:24Z</time>
      </trkpt>
      <trkpt lat="43.5217710" lon="-7.0678480">
        <ele>131.7</ele>
        <time>2014-07-29T08:13:26Z</time>
      </trkpt>
      <trkpt lat="43.5217330" lon="-7.0678360">
        <ele>131.8</ele>
        <time>2014-07-29T08:13:27Z</time>
      </trkpt>
      <trkpt lat="43.5214100" lon="-7.0679000">
        <ele>133.7</ele>
        <time>2014-07-29T08:13:40Z</time>
      </trkpt>
      <trkpt lat="43.5211820" lon="-7.0682300">
        <ele>136.5</ele>
        <time>2014-07-29T08:13:56Z</time>
      </trkpt>
      <trkpt lat="43.5209560" lon="-7.0686540">
        <ele>138.7</ele>
        <time>2014-07-29T08:14:14Z</time>
      </trkpt>
      <trkpt lat="43.5206530" lon="-7.0692200">
        <ele>139.4</ele>
        <time>2014-07-29T08:14:31Z</time>
      </trkpt>
      <trkpt lat="43.5205660" lon="-7.0694400">
        <ele>139.4</ele>
        <time>2014-07-29T08:14:35Z</time>
      </trkpt>
      <trkpt lat="43.5203230" lon="-7.0703220">
        <ele>139.5</ele>
        <time>2014-07-29T08:14:51Z</time>
      </trkpt>
      <trkpt lat="43.5199340" lon="-7.0707040">
        <ele>141.5</ele>
        <time>2014-07-29T08:15:06Z</time>
      </trkpt>
      <trkpt lat="43.5196080" lon="-7.0708860">
        <ele>143.4</ele>
        <time>2014-07-29T08:15:21Z</time>
      </trkpt>
      <trkpt lat="43.5192590" lon="-7.0711460">
        <ele>146.7</ele>
        <time>2014-07-29T08:15:40Z</time>
      </trkpt>
      <trkpt lat="43.5189530" lon="-7.0714230">
        <ele>149.1</ele>
        <time>2014-07-29T08:15:55Z</time>
      </trkpt>
      <trkpt lat="43.5185980" lon="-7.0717550">
        <ele>151.5</ele>
        <time>2014-07-29T08:16:09Z</time>
      </trkpt>
      <trkpt lat="43.5182350" lon="-7.0722290">
        <ele>153.3</ele>
        <time>2014-07-29T08:16:23Z</time>
      </trkpt>
      <trkpt lat="43.5178010" lon="-7.0728650">
        <ele>152.6</ele>
        <time>2014-07-29T08:16:39Z</time>
      </trkpt>
      <trkpt lat="43.5174100" lon="-7.0733320">
        <ele>153.8</ele>
        <time>2014-07-29T08:16:52Z</time>
      </trkpt>
      <trkpt lat="43.5173750" lon="-7.0733670">
        <ele>153.7</ele>
        <time>2014-07-29T08:16:53Z</time>
      </trkpt>
      <trkpt lat="43.5168730" lon="-7.0738840">
        <ele>154.9</ele>
        <time>2014-07-29T08:17:08Z</time>
      </trkpt>
      <trkpt lat="43.5168410" lon="-7.0739240">
        <ele>155.0</ele>
        <time>2014-07-29T08:17:09Z</time>
      </trkpt>
      <trkpt lat="43.5168100" lon="-7.0739650">
        <ele>155.0</ele>
        <time>2014-07-29T08:17:10Z</time>
      </trkpt>
      <trkpt lat="43.5166100" lon="-7.0742400">
        <ele>155.1</ele>
        <time>2014-07-29T08:17:17Z</time>
      </trkpt>
      <trkpt lat="43.5165890" lon="-7.0742840">
        <ele>155.1</ele>
        <time>2014-07-29T08:17:18Z</time>
      </trkpt>
      <trkpt lat="43.5165740" lon="-7.0743320">
        <ele>155.1</ele>
        <time>2014-07-29T08:17:19Z</time>
      </trkpt>
      <trkpt lat="43.5164780" lon="-7.0749890">
        <ele>156.4</ele>
        <time>2014-07-29T08:17:33Z</time>
      </trkpt>
      <trkpt lat="43.5163470" lon="-7.0756660">
        <ele>157.6</ele>
        <time>2014-07-29T08:17:48Z</time>
      </trkpt>
      <trkpt lat="43.5162280" lon="-7.0761610">
        <ele>156.4</ele>
        <time>2014-07-29T08:17:59Z</time>
      </trkpt>
      <trkpt lat="43.5160880" lon="-7.0767640">
        <ele>155.3</ele>
        <time>2014-07-29T08:18:11Z</time>
      </trkpt>
      <trkpt lat="43.5159260" lon="-7.0774630">
        <ele>152.0</ele>
        <time>2014-07-29T08:18:22Z</time>
      </trkpt>
      <trkpt lat="43.5157450" lon="-7.0783410">
        <ele>146.7</ele>
        <time>2014-07-29T08:18:35Z</time>
      </trkpt>
      <trkpt lat="43.5157330" lon="-7.0784720">
        <ele>145.6</ele>
        <time>2014-07-29T08:18:37Z</time>
      </trkpt>
      <trkpt lat="43.5157320" lon="-7.0785360">
        <ele>144.9</ele>
        <time>2014-07-29T08:18:38Z</time>
      </trkpt>
      <trkpt lat="43.5157350" lon="-7.0786030">
        <ele>144.4</ele>
        <time>2014-07-29T08:18:39Z</time>
      </trkpt>
      <trkpt lat="43.5157450" lon="-7.0786750">
        <ele>143.8</ele>
        <time>2014-07-29T08:18:40Z</time>
      </trkpt>
      <trkpt lat="43.5157600" lon="-7.0787450">
        <ele>143.6</ele>
        <time>2014-07-29T08:18:41Z</time>
      </trkpt>
      <trkpt lat="43.5157820" lon="-7.0788100">
        <ele>143.7</ele>
        <time>2014-07-29T08:18:42Z</time>
      </trkpt>
      <trkpt lat="43.5158050" lon="-7.0788620">
        <ele>143.7</ele>
        <time>2014-07-29T08:18:43Z</time>
      </trkpt>
      <trkpt lat="43.5159700" lon="-7.0791840">
        <ele>144.5</ele>
        <time>2014-07-29T08:18:51Z</time>
      </trkpt>
      <trkpt lat="43.5160490" lon="-7.0793710">
        <ele>145.3</ele>
        <time>2014-07-29T08:18:54Z</time>
      </trkpt>
      <trkpt lat="43.5160710" lon="-7.0794440">
        <ele>145.6</ele>
        <time>2014-07-29T08:18:55Z</time>
      </trkpt>
      <trkpt lat="43.5160890" lon="-7.0795200">
        <ele>146.0</ele>
        <time>2014-07-29T08:18:56Z</time>
      </trkpt>
      <trkpt lat="43.5161020" lon="-7.0796030">
        <ele>146.3</ele>
        <time>2014-07-29T08:18:57Z</time>
      </trkpt>
      <trkpt lat="43.5161080" lon="-7.0796890">
        <ele>146.8</ele>
        <time>2014-07-29T08:18:58Z</time>
      </trkpt>
      <trkpt lat="43.5161110" lon="-7.0797760">
        <ele>147.2</ele>
        <time>2014-07-29T08:18:59Z</time>
      </trkpt>
      <trkpt lat="43.5161090" lon="-7.0798640">
        <ele>147.6</ele>
        <time>2014-07-29T08:19:00Z</time>
      </trkpt>
      <trkpt lat="43.5161020" lon="-7.0799520">
        <ele>148.1</ele>
        <time>2014-07-29T08:19:01Z</time>
      </trkpt>
      <trkpt lat="43.5160890" lon="-7.0800400">
        <ele>148.5</ele>
        <time>2014-07-29T08:19:02Z</time>
      </trkpt>
      <trkpt lat="43.5160720" lon="-7.0801260">
        <ele>149.0</ele>
        <time>2014-07-29T08:19:03Z</time>
      </trkpt>
      <trkpt lat="43.5160480" lon="-7.0802090">
        <ele>149.4</ele>
        <time>2014-07-29T08:19:04Z</time>
      </trkpt>
      <trkpt lat="43.5160220" lon="-7.0802870">
        <ele>149.8</ele>
        <time>2014-07-29T08:19:05Z</time>
      </trkpt>
      <trkpt lat="43.5159950" lon="-7.0803580">
        <ele>150.2</ele>
        <time>2014-07-29T08:19:06Z</time>
      </trkpt>
      <trkpt lat="43.5159640" lon="-7.0804190">
        <ele>150.6</ele>
        <time>2014-07-29T08:19:07Z</time>
      </trkpt>
      <trkpt lat="43.5159320" lon="-7.0804740">
        <ele>150.9</ele>
        <time>2014-07-29T08:19:08Z</time>
      </trkpt>
      <trkpt lat="43.5158700" lon="-7.0805700">
        <ele>151.5</ele>
        <time>2014-07-29T08:19:10Z</time>
      </trkpt>
      <trkpt lat="43.5154730" lon="-7.0809310">
        <ele>153.6</ele>
        <time>2014-07-29T08:19:23Z</time>
      </trkpt>
      <trkpt lat="43.5151010" lon="-7.0812060">
        <ele>156.7</ele>
        <time>2014-07-29T08:19:38Z</time>
      </trkpt>
      <trkpt lat="43.5148480" lon="-7.0815310">
        <ele>159.8</ele>
        <time>2014-07-29T08:19:52Z</time>
      </trkpt>
      <trkpt lat="43.5146980" lon="-7.0818160">
        <ele>161.3</ele>
        <time>2014-07-29T08:20:04Z</time>
      </trkpt>
      <trkpt lat="43.5144950" lon="-7.0823200">
        <ele>163.6</ele>
        <time>2014-07-29T08:20:24Z</time>
      </trkpt>
      <trkpt lat="43.5143800" lon="-7.0829350">
        <ele>165.9</ele>
        <time>2014-07-29T08:20:44Z</time>
      </trkpt>
      <trkpt lat="43.5143010" lon="-7.0835260">
        <ele>166.3</ele>
        <time>2014-07-29T08:20:57Z</time>
      </trkpt>
      <trkpt lat="43.5142780" lon="-7.0837600">
        <ele>166.3</ele>
        <time>2014-07-29T08:21:01Z</time>
      </trkpt>
      <trkpt lat="43.5142450" lon="-7.0841070">
        <ele>166.1</ele>
        <time>2014-07-29T08:21:06Z</time>
      </trkpt>
      <trkpt lat="43.5141260" lon="-7.0848250">
        <ele>167.4</ele>
        <time>2014-07-29T08:21:16Z</time>
      </trkpt>
      <trkpt lat="43.5140200" lon="-7.0851340">
        <ele>169.0</ele>
        <time>2014-07-29T08:21:21Z</time>
      </trkpt>
      <trkpt lat="43.5140020" lon="-7.0851460">
        <ele>168.9</ele>
        <time>2014-07-29T08:21:22Z</time>
      </trkpt>
      <trkpt lat="43.5139850" lon="-7.0851470">
        <ele>168.8</ele>
        <time>2014-07-29T08:21:23Z</time>
      </trkpt>
      <trkpt lat="43.5139700" lon="-7.0851520">
        <ele>168.7</ele>
        <time>2014-07-29T08:21:24Z</time>
      </trkpt>
      <trkpt lat="43.5139490" lon="-7.0851560">
        <ele>168.6</ele>
        <time>2014-07-29T08:21:25Z</time>
      </trkpt>
      <trkpt lat="43.5139300" lon="-7.0851680">
        <ele>168.4</ele>
        <time>2014-07-29T08:21:26Z</time>
      </trkpt>
      <trkpt lat="43.5139070" lon="-7.0851790">
        <ele>168.3</ele>
        <time>2014-07-29T08:21:27Z</time>
      </trkpt>
      <trkpt lat="43.5138750" lon="-7.0851920">
        <ele>168.1</ele>
        <time>2014-07-29T08:21:28Z</time>
      </trkpt>
      <trkpt lat="43.5138370" lon="-7.0852150">
        <ele>167.9</ele>
        <time>2014-07-29T08:21:29Z</time>
      </trkpt>
      <trkpt lat="43.5138040" lon="-7.0852390">
        <ele>167.6</ele>
        <time>2014-07-29T08:21:30Z</time>
      </trkpt>
      <trkpt lat="43.5135220" lon="-7.0854100">
        <ele>165.7</ele>
        <time>2014-07-29T08:21:38Z</time>
      </trkpt>
      <trkpt lat="43.5134090" lon="-7.0855250">
        <ele>164.9</ele>
        <time>2014-07-29T08:21:41Z</time>
      </trkpt>
      <trkpt lat="43.5132980" lon="-7.0856190">
        <ele>164.0</ele>
        <time>2014-07-29T08:21:44Z</time>
      </trkpt>
      <trkpt lat="43.5128520" lon="-7.0861170">
        <ele>160.3</ele>
        <time>2014-07-29T08:21:55Z</time>
      </trkpt>
      <trkpt lat="43.5125600" lon="-7.0864720">
        <ele>158.5</ele>
        <time>2014-07-29T08:22:06Z</time>
      </trkpt>
      <trkpt lat="43.5125390" lon="-7.0870140">
        <ele>157.4</ele>
        <time>2014-07-29T08:22:17Z</time>
      </trkpt>
      <trkpt lat="43.5126710" lon="-7.0873360">
        <ele>157.6</ele>
        <time>2014-07-29T08:22:29Z</time>
      </trkpt>
      <trkpt lat="43.5127470" lon="-7.0876370">
        <ele>158.9</ele>
        <time>2014-07-29T08:22:43Z</time>
      </trkpt>
      <trkpt lat="43.5127540" lon="-7.0876540">
        <ele>159.0</ele>
        <time>2014-07-29T08:22:44Z</time>
      </trkpt>
      <trkpt lat="43.5127550" lon="-7.0876710">
        <ele>159.1</ele>
        <time>2014-07-29T08:22:45Z</time>
      </trkpt>
      <trkpt lat="43.5127560" lon="-7.0876890">
        <ele>159.3</ele>
        <time>2014-07-29T08:22:46Z</time>
      </trkpt>
      <trkpt lat="43.5127590" lon="-7.0877090">
        <ele>159.4</ele>
        <time>2014-07-29T08:22:47Z</time>
      </trkpt>
      <trkpt lat="43.5127640" lon="-7.0877270">
        <ele>159.5</ele>
        <time>2014-07-29T08:22:48Z</time>
      </trkpt>
      <trkpt lat="43.5127710" lon="-7.0877460">
        <ele>159.7</ele>
        <time>2014-07-29T08:22:49Z</time>
      </trkpt>
      <trkpt lat="43.5127750" lon="-7.0877640">
        <ele>159.8</ele>
        <time>2014-07-29T08:22:50Z</time>
      </trkpt>
      <trkpt lat="43.5127780" lon="-7.0877820">
        <ele>159.9</ele>
        <time>2014-07-29T08:22:51Z</time>
      </trkpt>
      <trkpt lat="43.5128040" lon="-7.0879030">
        <ele>160.6</ele>
        <time>2014-07-29T08:22:58Z</time>
      </trkpt>
      <trkpt lat="43.5128070" lon="-7.0879200">
        <ele>160.7</ele>
        <time>2014-07-29T08:22:59Z</time>
      </trkpt>
      <trkpt lat="43.5128130" lon="-7.0879350">
        <ele>160.8</ele>
        <time>2014-07-29T08:23:00Z</time>
      </trkpt>
      <trkpt lat="43.5128190" lon="-7.0879520">
        <ele>160.9</ele>
        <time>2014-07-29T08:23:01Z</time>
      </trkpt>
      <trkpt lat="43.5128250" lon="-7.0879680">
        <ele>161.0</ele>
        <time>2014-07-29T08:23:02Z</time>
      </trkpt>
      <trkpt lat="43.5128320" lon="-7.0879820">
        <ele>161.1</ele>
        <time>2014-07-29T08:23:03Z</time>
      </trkpt>
      <trkpt lat="43.5128570" lon="-7.0883410">
        <ele>161.8</ele>
        <time>2014-07-29T08:23:16Z</time>
      </trkpt>
      <trkpt lat="43.5127470" lon="-7.0889910">
        <ele>159.0</ele>
        <time>2014-07-29T08:23:24Z</time>
      </trkpt>
      <trkpt lat="43.5125910" lon="-7.0897850">
        <ele>155.4</ele>
        <time>2014-07-29T08:23:31Z</time>
      </trkpt>
      <trkpt lat="43.5124870" lon="-7.0903050">
        <ele>153.1</ele>
        <time>2014-07-29T08:23:35Z</time>
      </trkpt>
      <trkpt lat="43.5123540" lon="-7.0909820">
        <ele>150.5</ele>
        <time>2014-07-29T08:23:40Z</time>
      </trkpt>
      <trkpt lat="43.5122470" lon="-7.0915510">
        <ele>148.4</ele>
        <time>2014-07-29T08:23:44Z</time>
      </trkpt>
      <trkpt lat="43.5118160" lon="-7.0927870">
        <ele>146.7</ele>
        <time>2014-07-29T08:23:54Z</time>
      </trkpt>
      <trkpt lat="43.5114480" lon="-7.0934660">
        <ele>143.3</ele>
        <time>2014-07-29T08:24:01Z</time>
      </trkpt>
      <trkpt lat="43.5109630" lon="-7.0943730">
        <ele>139.0</ele>
        <time>2014-07-29T08:24:10Z</time>
      </trkpt>
      <trkpt lat="43.5106910" lon="-7.0949090">
        <ele>135.6</ele>
        <time>2014-07-29T08:24:15Z</time>
      </trkpt>
      <trkpt lat="43.5105000" lon="-7.0953820">
        <ele>131.3</ele>
        <time>2014-07-29T08:24:19Z</time>
      </trkpt>
      <trkpt lat="43.5103650" lon="-7.0957600">
        <ele>126.8</ele>
        <time>2014-07-29T08:24:22Z</time>
      </trkpt>
      <trkpt lat="43.5102710" lon="-7.0960950">
        <ele>124.1</ele>
        <time>2014-07-29T08:24:25Z</time>
      </trkpt>
      <trkpt lat="43.5102530" lon="-7.0961920">
        <ele>123.1</ele>
        <time>2014-07-29T08:24:26Z</time>
      </trkpt>
      <trkpt lat="43.5102430" lon="-7.0962870">
        <ele>122.2</ele>
        <time>2014-07-29T08:24:27Z</time>
      </trkpt>
      <trkpt lat="43.5102340" lon="-7.0964930">
        <ele>121.1</ele>
        <time>2014-07-29T08:24:29Z</time>
      </trkpt>
      <trkpt lat="43.5101840" lon="-7.0972960">
        <ele>116.0</ele>
        <time>2014-07-29T08:24:37Z</time>
      </trkpt>
      <trkpt lat="43.5101740" lon="-7.0973960">
        <ele>115.4</ele>
        <time>2014-07-29T08:24:38Z</time>
      </trkpt>
      <trkpt lat="43.5101020" lon="-7.0978750">
        <ele>112.2</ele>
        <time>2014-07-29T08:24:43Z</time>
      </trkpt>
      <trkpt lat="43.5100080" lon="-7.0984360">
        <ele>107.6</ele>
        <time>2014-07-29T08:24:48Z</time>
      </trkpt>
      <trkpt lat="43.5098990" lon="-7.0990300">
        <ele>103.2</ele>
        <time>2014-07-29T08:24:53Z</time>
      </trkpt>
      <trkpt lat="43.5098600" lon="-7.0991360">
        <ele>102.6</ele>
        <time>2014-07-29T08:24:54Z</time>
      </trkpt>
      <trkpt lat="43.5098170" lon="-7.0992320">
        <ele>102.5</ele>
        <time>2014-07-29T08:24:55Z</time>
      </trkpt>
      <trkpt lat="43.5095790" lon="-7.0996450">
        <ele>103.8</ele>
        <time>2014-07-29T08:25:00Z</time>
      </trkpt>
      <trkpt lat="43.5095250" lon="-7.0997030">
        <ele>104.6</ele>
        <time>2014-07-29T08:25:01Z</time>
      </trkpt>
      <trkpt lat="43.5094670" lon="-7.0997460">
        <ele>105.1</ele>
        <time>2014-07-29T08:25:02Z</time>
      </trkpt>
      <trkpt lat="43.5094050" lon="-7.0997730">
        <ele>105.7</ele>
        <time>2014-07-29T08:25:03Z</time>
      </trkpt>
      <trkpt lat="43.5093420" lon="-7.0997780">
        <ele>106.2</ele>
        <time>2014-07-29T08:25:04Z</time>
      </trkpt>
      <trkpt lat="43.5092810" lon="-7.0997640">
        <ele>106.7</ele>
        <time>2014-07-29T08:25:05Z</time>
      </trkpt>
      <trkpt lat="43.5092250" lon="-7.0997350">
        <ele>107.1</ele>
        <time>2014-07-29T08:25:06Z</time>
      </trkpt>
      <trkpt lat="43.5091720" lon="-7.0996940">
        <ele>107.6</ele>
        <time>2014-07-29T08:25:07Z</time>
      </trkpt>
      <trkpt lat="43.5091260" lon="-7.0996500">
        <ele>108.0</ele>
        <time>2014-07-29T08:25:08Z</time>
      </trkpt>
      <trkpt lat="43.5090850" lon="-7.0996070">
        <ele>108.4</ele>
        <time>2014-07-29T08:25:09Z</time>
      </trkpt>
      <trkpt lat="43.5088180" lon="-7.0993910">
        <ele>111.2</ele>
        <time>2014-07-29T08:25:19Z</time>
      </trkpt>
      <trkpt lat="43.5086220" lon="-7.0992510">
        <ele>113.3</ele>
        <time>2014-07-29T08:25:31Z</time>
      </trkpt>
      <trkpt lat="43.5085260" lon="-7.0991460">
        <ele>114.1</ele>
        <time>2014-07-29T08:25:39Z</time>
      </trkpt>
      <trkpt lat="43.5084960" lon="-7.0990950">
        <ele>114.4</ele>
        <time>2014-07-29T08:25:43Z</time>
      </trkpt>
      <trkpt lat="43.5084180" lon="-7.0989740">
        <ele>115.1</ele>
        <time>2014-07-29T08:25:51Z</time>
      </trkpt>
      <trkpt lat="43.5082190" lon="-7.0987890">
        <ele>116.8</ele>
        <time>2014-07-29T08:26:04Z</time>
      </trkpt>
      <trkpt lat="43.5080170" lon="-7.0986800">
        <ele>118.1</ele>
        <time>2014-07-29T08:26:18Z</time>
      </trkpt>
      <trkpt lat="43.5077680" lon="-7.0985820">
        <ele>120.0</ele>
        <time>2014-07-29T08:26:32Z</time>
      </trkpt>
      <trkpt lat="43.5074170" lon="-7.0985960">
        <ele>123.1</ele>
        <time>2014-07-29T08:26:48Z</time>
      </trkpt>
      <trkpt lat="43.5070810" lon="-7.0987680">
        <ele>128.3</ele>
        <time>2014-07-29T08:27:05Z</time>
      </trkpt>
      <trkpt lat="43.5070530" lon="-7.0988090">
        <ele>129.0</ele>
        <time>2014-07-29T08:27:07Z</time>
      </trkpt>
      <trkpt lat="43.5070460" lon="-7.0988360">
        <ele>129.3</ele>
        <time>2014-07-29T08:27:08Z</time>
      </trkpt>
      <trkpt lat="43.5070430" lon="-7.0988630">
        <ele>130.1</ele>
        <time>2014-07-29T08:27:09Z</time>
      </trkpt>
      <trkpt lat="43.5070420" lon="-7.0988890">
        <ele>130.2</ele>
        <time>2014-07-29T08:27:10Z</time>
      </trkpt>
      <trkpt lat="43.5070410" lon="-7.0989160">
        <ele>130.3</ele>
        <time>2014-07-29T08:27:11Z</time>
      </trkpt>
      <trkpt lat="43.5069510" lon="-7.0993380">
        <ele>132.7</ele>
        <time>2014-07-29T08:27:28Z</time>
      </trkpt>
      <trkpt lat="43.5067320" lon="-7.0996400">
        <ele>134.8</ele>
        <time>2014-07-29T08:27:47Z</time>
      </trkpt>
      <trkpt lat="43.5065060" lon="-7.0999240">
        <ele>135.9</ele>
        <time>2014-07-29T08:28:05Z</time>
      </trkpt>
      <trkpt lat="43.5063200" lon="-7.1001950">
        <ele>137.6</ele>
        <time>2014-07-29T08:28:21Z</time>
      </trkpt>
      <trkpt lat="43.5062140" lon="-7.1005600">
        <ele>140.1</ele>
        <time>2014-07-29T08:28:39Z</time>
      </trkpt>
      <trkpt lat="43.5062110" lon="-7.1009060">
        <ele>142.5</ele>
        <time>2014-07-29T08:28:57Z</time>
      </trkpt>
      <trkpt lat="43.5062080" lon="-7.1011880">
        <ele>144.1</ele>
        <time>2014-07-29T08:29:11Z</time>
      </trkpt>
      <trkpt lat="43.5062090" lon="-7.1012070">
        <ele>144.2</ele>
        <time>2014-07-29T08:29:12Z</time>
      </trkpt>
      <trkpt lat="43.5062090" lon="-7.1012250">
        <ele>144.3</ele>
        <time>2014-07-29T08:29:13Z</time>
      </trkpt>
      <trkpt lat="43.5062440" lon="-7.1015190">
        <ele>145.6</ele>
        <time>2014-07-29T08:29:28Z</time>
      </trkpt>
      <trkpt lat="43.5062540" lon="-7.1018570">
        <ele>146.8</ele>
        <time>2014-07-29T08:29:44Z</time>
      </trkpt>
      <trkpt lat="43.5062620" lon="-7.1018820">
        <ele>146.9</ele>
        <time>2014-07-29T08:29:45Z</time>
      </trkpt>
      <trkpt lat="43.5062680" lon="-7.1019060">
        <ele>147.0</ele>
        <time>2014-07-29T08:29:46Z</time>
      </trkpt>
      <trkpt lat="43.5062730" lon="-7.1019300">
        <ele>147.1</ele>
        <time>2014-07-29T08:29:47Z</time>
      </trkpt>
      <trkpt lat="43.5062810" lon="-7.1019540">
        <ele>147.1</ele>
        <time>2014-07-29T08:29:48Z</time>
      </trkpt>
      <trkpt lat="43.5063640" lon="-7.1024030">
        <ele>148.1</ele>
        <time>2014-07-29T08:30:03Z</time>
      </trkpt>
      <trkpt lat="43.5064580" lon="-7.1029640">
        <ele>148.2</ele>
        <time>2014-07-29T08:30:18Z</time>
      </trkpt>
      <trkpt lat="43.5065150" lon="-7.1036470">
        <ele>147.5</ele>
        <time>2014-07-29T08:30:34Z</time>
      </trkpt>
      <trkpt lat="43.5063750" lon="-7.1042670">
        <ele>148.0</ele>
        <time>2014-07-29T08:30:48Z</time>
      </trkpt>
      <trkpt lat="43.5061700" lon="-7.1047820">
        <ele>148.2</ele>
        <time>2014-07-29T08:31:00Z</time>
      </trkpt>
      <trkpt lat="43.5059780" lon="-7.1053180">
        <ele>148.1</ele>
        <time>2014-07-29T08:31:12Z</time>
      </trkpt>
      <trkpt lat="43.5057900" lon="-7.1058380">
        <ele>147.9</ele>
        <time>2014-07-29T08:31:25Z</time>
      </trkpt>
      <trkpt lat="43.5056050" lon="-7.1064250">
        <ele>147.7</ele>
        <time>2014-07-29T08:31:40Z</time>
      </trkpt>
      <trkpt lat="43.5055290" lon="-7.1069130">
        <ele>147.9</ele>
        <time>2014-07-29T08:31:51Z</time>
      </trkpt>
      <trkpt lat="43.5054990" lon="-7.1074420">
        <ele>148.6</ele>
        <time>2014-07-29T08:32:02Z</time>
      </trkpt>
      <trkpt lat="43.5055100" lon="-7.1079860">
        <ele>149.7</ele>
        <time>2014-07-29T08:32:14Z</time>
      </trkpt>
      <trkpt lat="43.5057570" lon="-7.1084050">
        <ele>150.4</ele>
        <time>2014-07-29T08:32:24Z</time>
      </trkpt>
      <trkpt lat="43.5058240" lon="-7.1084980">
        <ele>150.5</ele>
        <time>2014-07-29T08:32:26Z</time>
      </trkpt>
      <trkpt lat="43.5058520" lon="-7.1085390">
        <ele>150.5</ele>
        <time>2014-07-29T08:32:27Z</time>
      </trkpt>
      <trkpt lat="43.5058790" lon="-7.1085840">
        <ele>150.4</ele>
        <time>2014-07-29T08:32:28Z</time>
      </trkpt>
      <trkpt lat="43.5060240" lon="-7.1087890">
        <ele>150.4</ele>
        <time>2014-07-29T08:32:32Z</time>
      </trkpt>
      <trkpt lat="43.5061620" lon="-7.1089920">
        <ele>150.0</ele>
        <time>2014-07-29T08:32:35Z</time>
      </trkpt>
      <trkpt lat="43.5062720" lon="-7.1092150">
        <ele>149.5</ele>
        <time>2014-07-29T08:32:38Z</time>
      </trkpt>
      <trkpt lat="43.5062900" lon="-7.1092990">
        <ele>149.2</ele>
        <time>2014-07-29T08:32:39Z</time>
      </trkpt>
      <trkpt lat="43.5062920" lon="-7.1093860">
        <ele>149.0</ele>
        <time>2014-07-29T08:32:40Z</time>
      </trkpt>
      <trkpt lat="43.5062730" lon="-7.1094830">
        <ele>148.7</ele>
        <time>2014-07-29T08:32:41Z</time>
      </trkpt>
      <trkpt lat="43.5062390" lon="-7.1095640">
        <ele>148.3</ele>
        <time>2014-07-29T08:32:42Z</time>
      </trkpt>
      <trkpt lat="43.5062010" lon="-7.1096320">
        <ele>147.9</ele>
        <time>2014-07-29T08:32:43Z</time>
      </trkpt>
      <trkpt lat="43.5061650" lon="-7.1097060">
        <ele>147.6</ele>
        <time>2014-07-29T08:32:44Z</time>
      </trkpt>
      <trkpt lat="43.5061240" lon="-7.1097820">
        <ele>147.2</ele>
        <time>2014-07-29T08:32:45Z</time>
      </trkpt>
      <trkpt lat="43.5060880" lon="-7.1098610">
        <ele>146.7</ele>
        <time>2014-07-29T08:32:46Z</time>
      </trkpt>
      <trkpt lat="43.5060550" lon="-7.1099400">
        <ele>146.2</ele>
        <time>2014-07-29T08:32:47Z</time>
      </trkpt>
      <trkpt lat="43.5059690" lon="-7.1101790">
        <ele>144.8</ele>
        <time>2014-07-29T08:32:50Z</time>
      </trkpt>
      <trkpt lat="43.5059300" lon="-7.1103360">
        <ele>144.0</ele>
        <time>2014-07-29T08:32:52Z</time>
      </trkpt>
      <trkpt lat="43.5059080" lon="-7.1104110">
        <ele>143.6</ele>
        <time>2014-07-29T08:32:53Z</time>
      </trkpt>
      <trkpt lat="43.5057400" lon="-7.1109100">
        <ele>142.4</ele>
        <time>2014-07-29T08:33:00Z</time>
      </trkpt>
      <trkpt lat="43.5055140" lon="-7.1116930">
        <ele>141.8</ele>
        <time>2014-07-29T08:33:11Z</time>
      </trkpt>
      <trkpt lat="43.5054280" lon="-7.1119930">
        <ele>141.3</ele>
        <time>2014-07-29T08:33:15Z</time>
      </trkpt>
      <trkpt lat="43.5050790" lon="-7.1132110">
        <ele>138.9</ele>
        <time>2014-07-29T08:33:29Z</time>
      </trkpt>
      <trkpt lat="43.5049270" lon="-7.1137760">
        <ele>137.9</ele>
        <time>2014-07-29T08:33:35Z</time>
      </trkpt>
      <trkpt lat="43.5049010" lon="-7.1138700">
        <ele>137.7</ele>
        <time>2014-07-29T08:33:36Z</time>
      </trkpt>
      <trkpt lat="43.5048740" lon="-7.1139610">
        <ele>137.4</ele>
        <time>2014-07-29T08:33:37Z</time>
      </trkpt>
      <trkpt lat="43.5047720" lon="-7.1142390">
        <ele>136.6</ele>
        <time>2014-07-29T08:33:40Z</time>
      </trkpt>
      <trkpt lat="43.5047210" lon="-7.1143110">
        <ele>136.3</ele>
        <time>2014-07-29T08:33:41Z</time>
      </trkpt>
      <trkpt lat="43.5046640" lon="-7.1143670">
        <ele>136.1</ele>
        <time>2014-07-29T08:33:42Z</time>
      </trkpt>
      <trkpt lat="43.5045930" lon="-7.1144010">
        <ele>135.8</ele>
        <time>2014-07-29T08:33:43Z</time>
      </trkpt>
      <trkpt lat="43.5045210" lon="-7.1144120">
        <ele>135.6</ele>
        <time>2014-07-29T08:33:44Z</time>
      </trkpt>
      <trkpt lat="43.5044450" lon="-7.1143990">
        <ele>135.2</ele>
        <time>2014-07-29T08:33:45Z</time>
      </trkpt>
      <trkpt lat="43.5043690" lon="-7.1143760">
        <ele>134.9</ele>
        <time>2014-07-29T08:33:46Z</time>
      </trkpt>
      <trkpt lat="43.5042940" lon="-7.1143570">
        <ele>134.6</ele>
        <time>2014-07-29T08:33:47Z</time>
      </trkpt>
      <trkpt lat="43.5042190" lon="-7.1143510">
        <ele>134.1</ele>
        <time>2014-07-29T08:33:48Z</time>
      </trkpt>
      <trkpt lat="43.5041430" lon="-7.1143620">
        <ele>133.6</ele>
        <time>2014-07-29T08:33:49Z</time>
      </trkpt>
      <trkpt lat="43.5040710" lon="-7.1143900">
        <ele>133.1</ele>
        <time>2014-07-29T08:33:50Z</time>
      </trkpt>
      <trkpt lat="43.5040040" lon="-7.1144340">
        <ele>132.4</ele>
        <time>2014-07-29T08:33:51Z</time>
      </trkpt>
      <trkpt lat="43.5039400" lon="-7.1144870">
        <ele>131.5</ele>
        <time>2014-07-29T08:33:52Z</time>
      </trkpt>
      <trkpt lat="43.5038770" lon="-7.1145420">
        <ele>130.5</ele>
        <time>2014-07-29T08:33:53Z</time>
      </trkpt>
      <trkpt lat="43.5031930" lon="-7.1151110">
        <ele>123.4</ele>
        <time>2014-07-29T08:34:06Z</time>
      </trkpt>
      <trkpt lat="43.5028330" lon="-7.1154100">
        <ele>120.5</ele>
        <time>2014-07-29T08:34:11Z</time>
      </trkpt>
      <trkpt lat="43.5024900" lon="-7.1156780">
        <ele>117.6</ele>
        <time>2014-07-29T08:34:15Z</time>
      </trkpt>
      <trkpt lat="43.5023910" lon="-7.1157200">
        <ele>117.1</ele>
        <time>2014-07-29T08:34:16Z</time>
      </trkpt>
      <trkpt lat="43.5022920" lon="-7.1157420">
        <ele>116.5</ele>
        <time>2014-07-29T08:34:17Z</time>
      </trkpt>
      <trkpt lat="43.5021960" lon="-7.1157380">
        <ele>115.8</ele>
        <time>2014-07-29T08:34:18Z</time>
      </trkpt>
      <trkpt lat="43.5021100" lon="-7.1157070">
        <ele>115.0</ele>
        <time>2014-07-29T08:34:19Z</time>
      </trkpt>
      <trkpt lat="43.5020420" lon="-7.1156490">
        <ele>114.2</ele>
        <time>2014-07-29T08:34:20Z</time>
      </trkpt>
      <trkpt lat="43.5019900" lon="-7.1155810">
        <ele>113.4</ele>
        <time>2014-07-29T08:34:21Z</time>
      </trkpt>
      <trkpt lat="43.5019500" lon="-7.1155170">
        <ele>112.8</ele>
        <time>2014-07-29T08:34:22Z</time>
      </trkpt>
      <trkpt lat="43.5019170" lon="-7.1154620">
        <ele>112.2</ele>
        <time>2014-07-29T08:34:23Z</time>
      </trkpt>
      <trkpt lat="43.5016110" lon="-7.1151710">
        <ele>109.1</ele>
        <time>2014-07-29T08:34:34Z</time>
      </trkpt>
      <trkpt lat="43.5011790" lon="-7.1151360">
        <ele>108.2</ele>
        <time>2014-07-29T08:34:46Z</time>
      </trkpt>
      <trkpt lat="43.5011500" lon="-7.1151420">
        <ele>108.1</ele>
        <time>2014-07-29T08:34:54Z</time>
      </trkpt>
      <trkpt lat="43.5011580" lon="-7.1151890">
        <ele>108.1</ele>
        <time>2014-07-29T08:35:06Z</time>
      </trkpt>
      <trkpt lat="43.5011580" lon="-7.1151890">
        <ele>108.1</ele>
        <time>2014-07-29T08:35:23Z</time>
      </trkpt>
      <trkpt lat="43.5011750" lon="-7.1152210">
        <ele>108.1</ele>
        <time>2014-07-29T08:35:26Z</time>
      </trkpt>
      <trkpt lat="43.5012450" lon="-7.1152710">
        <ele>109.3</ele>
        <time>2014-07-29T08:35:32Z</time>
      </trkpt>
      <trkpt lat="43.5012800" lon="-7.1154350">
        <ele>110.5</ele>
        <time>2014-07-29T08:35:40Z</time>
      </trkpt>
      <trkpt lat="43.5013320" lon="-7.1155640">
        <ele>111.4</ele>
        <time>2014-07-29T08:35:54Z</time>
      </trkpt>
      <trkpt lat="43.5013320" lon="-7.1155640">
        <ele>111.4</ele>
        <time>2014-07-29T08:36:22Z</time>
      </trkpt>
      <trkpt lat="43.5013320" lon="-7.1155790">
        <ele>111.4</ele>
        <time>2014-07-29T08:36:30Z</time>
      </trkpt>
      <trkpt lat="43.5013890" lon="-7.1159600">
        <ele>113.2</ele>
        <time>2014-07-29T08:36:47Z</time>
      </trkpt>
      <trkpt lat="43.5013120" lon="-7.1163120">
        <ele>114.5</ele>
        <time>2014-07-29T08:37:01Z</time>
      </trkpt>
      <trkpt lat="43.5012020" lon="-7.1167180">
        <ele>115.4</ele>
        <time>2014-07-29T08:37:16Z</time>
      </trkpt>
      <trkpt lat="43.5010480" lon="-7.1172450">
        <ele>117.2</ele>
        <time>2014-07-29T08:37:32Z</time>
      </trkpt>
      <trkpt lat="43.5009550" lon="-7.1177320">
        <ele>118.8</ele>
        <time>2014-07-29T08:37:46Z</time>
      </trkpt>
      <trkpt lat="43.5009560" lon="-7.1181380">
        <ele>119.7</ele>
        <time>2014-07-29T08:37:56Z</time>
      </trkpt>
      <trkpt lat="43.5008480" lon="-7.1187560">
        <ele>120.5</ele>
        <time>2014-07-29T08:38:10Z</time>
      </trkpt>
      <trkpt lat="43.5006470" lon="-7.1193270">
        <ele>121.8</ele>
        <time>2014-07-29T08:38:24Z</time>
      </trkpt>
      <trkpt lat="43.5005170" lon="-7.1198560">
        <ele>122.7</ele>
        <time>2014-07-29T08:38:36Z</time>
      </trkpt>
      <trkpt lat="43.5004020" lon="-7.1204740">
        <ele>123.8</ele>
        <time>2014-07-29T08:38:50Z</time>
      </trkpt>
      <trkpt lat="43.5003020" lon="-7.1210630">
        <ele>125.9</ele>
        <time>2014-07-29T08:39:04Z</time>
      </trkpt>
      <trkpt lat="43.5002160" lon="-7.1216360">
        <ele>128.0</ele>
        <time>2014-07-29T08:39:19Z</time>
      </trkpt>
      <trkpt lat="43.5001490" lon="-7.1222430">
        <ele>129.5</ele>
        <time>2014-07-29T08:39:35Z</time>
      </trkpt>
      <trkpt lat="43.5001450" lon="-7.1226330">
        <ele>130.9</ele>
        <time>2014-07-29T08:39:46Z</time>
      </trkpt>
      <trkpt lat="43.5001350" lon="-7.1228450">
        <ele>131.8</ele>
        <time>2014-07-29T08:39:56Z</time>
      </trkpt>
      <trkpt lat="43.5001530" lon="-7.1228550">
        <ele>132.0</ele>
        <time>2014-07-29T08:39:57Z</time>
      </trkpt>
      <trkpt lat="43.5003690" lon="-7.1229360">
        <ele>134.5</ele>
        <time>2014-07-29T08:40:12Z</time>
      </trkpt>
      <trkpt lat="43.5005380" lon="-7.1230260">
        <ele>137.7</ele>
        <time>2014-07-29T08:40:25Z</time>
      </trkpt>
      <trkpt lat="43.5005440" lon="-7.1230400">
        <ele>137.9</ele>
        <time>2014-07-29T08:40:26Z</time>
      </trkpt>
      <trkpt lat="43.5006050" lon="-7.1232420">
        <ele>140.7</ele>
        <time>2014-07-29T08:40:39Z</time>
      </trkpt>
      <trkpt lat="43.5006740" lon="-7.1233980">
        <ele>142.9</ele>
        <time>2014-07-29T08:40:50Z</time>
      </trkpt>
      <trkpt lat="43.5007040" lon="-7.1234750">
        <ele>143.9</ele>
        <time>2014-07-29T08:40:55Z</time>
      </trkpt>
      <trkpt lat="43.5008020" lon="-7.1237060">
        <ele>146.6</ele>
        <time>2014-07-29T08:41:12Z</time>
      </trkpt>
      <trkpt lat="43.5008340" lon="-7.1237980">
        <ele>147.6</ele>
        <time>2014-07-29T08:41:17Z</time>
      </trkpt>
      <trkpt lat="43.5008280" lon="-7.1240690">
        <ele>147.4</ele>
        <time>2014-07-29T08:41:29Z</time>
      </trkpt>
      <trkpt lat="43.5007920" lon="-7.1244570">
        <ele>147.2</ele>
        <time>2014-07-29T08:41:43Z</time>
      </trkpt>
      <trkpt lat="43.5007510" lon="-7.1248730">
        <ele>147.1</ele>
        <time>2014-07-29T08:41:56Z</time>
      </trkpt>
      <trkpt lat="43.5007150" lon="-7.1253650">
        <ele>146.8</ele>
        <time>2014-07-29T08:42:11Z</time>
      </trkpt>
      <trkpt lat="43.5006780" lon="-7.1257400">
        <ele>146.4</ele>
        <time>2014-07-29T08:42:22Z</time>
      </trkpt>
      <trkpt lat="43.5006430" lon="-7.1263330">
        <ele>146.3</ele>
        <time>2014-07-29T08:42:38Z</time>
      </trkpt>
      <trkpt lat="43.5006080" lon="-7.1268360">
        <ele>146.0</ele>
        <time>2014-07-29T08:42:52Z</time>
      </trkpt>
      <trkpt lat="43.5005390" lon="-7.1277270">
        <ele>145.1</ele>
        <time>2014-07-29T08:43:08Z</time>
      </trkpt>
      <trkpt lat="43.5004830" lon="-7.1284530">
        <ele>146.5</ele>
        <time>2014-07-29T08:43:23Z</time>
      </trkpt>
      <trkpt lat="43.5004410" lon="-7.1292750">
        <ele>150.5</ele>
        <time>2014-07-29T08:43:40Z</time>
      </trkpt>
      <trkpt lat="43.5004410" lon="-7.1293020">
        <ele>150.7</ele>
        <time>2014-07-29T08:43:41Z</time>
      </trkpt>
      <trkpt lat="43.5004410" lon="-7.1293500">
        <ele>151.1</ele>
        <time>2014-07-29T08:43:43Z</time>
      </trkpt>
      <trkpt lat="43.5004430" lon="-7.1293730">
        <ele>151.3</ele>
        <time>2014-07-29T08:43:44Z</time>
      </trkpt>
      <trkpt lat="43.5004420" lon="-7.1293960">
        <ele>151.4</ele>
        <time>2014-07-29T08:43:45Z</time>
      </trkpt>
      <trkpt lat="43.5004390" lon="-7.1294210">
        <ele>151.6</ele>
        <time>2014-07-29T08:43:46Z</time>
      </trkpt>
      <trkpt lat="43.5004390" lon="-7.1294460">
        <ele>151.8</ele>
        <time>2014-07-29T08:43:47Z</time>
      </trkpt>
      <trkpt lat="43.5004540" lon="-7.1297690">
        <ele>154.6</ele>
        <time>2014-07-29T08:44:02Z</time>
      </trkpt>
      <trkpt lat="43.5004930" lon="-7.1300910">
        <ele>156.6</ele>
        <time>2014-07-29T08:44:18Z</time>
      </trkpt>
      <trkpt lat="43.5004990" lon="-7.1302240">
        <ele>157.4</ele>
        <time>2014-07-29T08:44:25Z</time>
      </trkpt>
      <trkpt lat="43.5005000" lon="-7.1302420">
        <ele>157.6</ele>
        <time>2014-07-29T08:44:26Z</time>
      </trkpt>
      <trkpt lat="43.5005440" lon="-7.1305880">
        <ele>159.0</ele>
        <time>2014-07-29T08:44:42Z</time>
      </trkpt>
      <trkpt lat="43.5005340" lon="-7.1309550">
        <ele>160.5</ele>
        <time>2014-07-29T08:44:58Z</time>
      </trkpt>
      <trkpt lat="43.5004540" lon="-7.1312270">
        <ele>161.4</ele>
        <time>2014-07-29T08:45:10Z</time>
      </trkpt>
      <trkpt lat="43.5004780" lon="-7.1315580">
        <ele>165.0</ele>
        <time>2014-07-29T08:45:23Z</time>
      </trkpt>
      <trkpt lat="43.5003060" lon="-7.1319650">
        <ele>163.4</ele>
        <time>2014-07-29T08:45:37Z</time>
      </trkpt>
      <trkpt lat="43.5001150" lon="-7.1325680">
        <ele>160.8</ele>
        <time>2014-07-29T08:45:50Z</time>
      </trkpt>
      <trkpt lat="43.5000210" lon="-7.1331430">
        <ele>159.2</ele>
        <time>2014-07-29T08:46:00Z</time>
      </trkpt>
      <trkpt lat="43.5000010" lon="-7.1332910">
        <ele>158.7</ele>
        <time>2014-07-29T08:46:02Z</time>
      </trkpt>
      <trkpt lat="43.4999830" lon="-7.1333620">
        <ele>158.4</ele>
        <time>2014-07-29T08:46:03Z</time>
      </trkpt>
      <trkpt lat="43.4999010" lon="-7.1335940">
        <ele>157.8</ele>
        <time>2014-07-29T08:46:07Z</time>
      </trkpt>
      <trkpt lat="43.4998830" lon="-7.1336470">
        <ele>157.6</ele>
        <time>2014-07-29T08:46:08Z</time>
      </trkpt>
      <trkpt lat="43.4997530" lon="-7.1340430">
        <ele>157.0</ele>
        <time>2014-07-29T08:46:16Z</time>
      </trkpt>
      <trkpt lat="43.4997440" lon="-7.1340980">
        <ele>157.0</ele>
        <time>2014-07-29T08:46:17Z</time>
      </trkpt>
      <trkpt lat="43.4997360" lon="-7.1341510">
        <ele>156.9</ele>
        <time>2014-07-29T08:46:18Z</time>
      </trkpt>
      <trkpt lat="43.4997290" lon="-7.1342010">
        <ele>156.9</ele>
        <time>2014-07-29T08:46:19Z</time>
      </trkpt>
      <trkpt lat="43.4997260" lon="-7.1342500">
        <ele>156.8</ele>
        <time>2014-07-29T08:46:20Z</time>
      </trkpt>
      <trkpt lat="43.4997240" lon="-7.1344060">
        <ele>156.6</ele>
        <time>2014-07-29T08:46:25Z</time>
      </trkpt>
      <trkpt lat="43.4997280" lon="-7.1344260">
        <ele>156.6</ele>
        <time>2014-07-29T08:46:26Z</time>
      </trkpt>
      <trkpt lat="43.4997340" lon="-7.1344520">
        <ele>156.6</ele>
        <time>2014-07-29T08:46:38Z</time>
      </trkpt>
      <trkpt lat="43.4997340" lon="-7.1344520">
        <ele>156.6</ele>
        <time>2014-07-29T08:47:07Z</time>
      </trkpt>
      <trkpt lat="43.4997190" lon="-7.1344790">
        <ele>156.5</ele>
        <time>2014-07-29T08:47:23Z</time>
      </trkpt>
      <trkpt lat="43.4997070" lon="-7.1344930">
        <ele>156.5</ele>
        <time>2014-07-29T08:47:24Z</time>
      </trkpt>
      <trkpt lat="43.4996140" lon="-7.1349330">
        <ele>154.9</ele>
        <time>2014-07-29T08:47:37Z</time>
      </trkpt>
      <trkpt lat="43.4995000" lon="-7.1353880">
        <ele>153.2</ele>
        <time>2014-07-29T08:47:47Z</time>
      </trkpt>
      <trkpt lat="43.4994720" lon="-7.1361060">
        <ele>151.2</ele>
        <time>2014-07-29T08:48:01Z</time>
      </trkpt>
      <trkpt lat="43.4994230" lon="-7.1366910">
        <ele>150.0</ele>
        <time>2014-07-29T08:48:15Z</time>
      </trkpt>
      <trkpt lat="43.4993890" lon="-7.1368460">
        <ele>149.7</ele>
        <time>2014-07-29T08:48:20Z</time>
      </trkpt>
      <trkpt lat="43.4993820" lon="-7.1368710">
        <ele>149.7</ele>
        <time>2014-07-29T08:48:21Z</time>
      </trkpt>
      <trkpt lat="43.4993790" lon="-7.1368900">
        <ele>149.7</ele>
        <time>2014-07-29T08:48:22Z</time>
      </trkpt>
      <trkpt lat="43.4993740" lon="-7.1369160">
        <ele>149.6</ele>
        <time>2014-07-29T08:48:23Z</time>
      </trkpt>
      <trkpt lat="43.4993660" lon="-7.1369450">
        <ele>149.6</ele>
        <time>2014-07-29T08:48:24Z</time>
      </trkpt>
      <trkpt lat="43.4993610" lon="-7.1369750">
        <ele>149.5</ele>
        <time>2014-07-29T08:48:25Z</time>
      </trkpt>
      <trkpt lat="43.4993600" lon="-7.1370040">
        <ele>149.4</ele>
        <time>2014-07-29T08:48:26Z</time>
      </trkpt>
      <trkpt lat="43.4993640" lon="-7.1370300">
        <ele>149.4</ele>
        <time>2014-07-29T08:48:27Z</time>
      </trkpt>
      <trkpt lat="43.4992960" lon="-7.1374040">
        <ele>148.7</ele>
        <time>2014-07-29T08:48:39Z</time>
      </trkpt>
      <trkpt lat="43.4991440" lon="-7.1378940">
        <ele>147.8</ele>
        <time>2014-07-29T08:48:52Z</time>
      </trkpt>
      <trkpt lat="43.4989610" lon="-7.1382930">
        <ele>147.2</ele>
        <time>2014-07-29T08:49:05Z</time>
      </trkpt>
      <trkpt lat="43.4988190" lon="-7.1386850">
        <ele>146.5</ele>
        <time>2014-07-29T08:49:16Z</time>
      </trkpt>
      <trkpt lat="43.4987320" lon="-7.1388900">
        <ele>145.9</ele>
        <time>2014-07-29T08:49:20Z</time>
      </trkpt>
      <trkpt lat="43.4986660" lon="-7.1391340">
        <ele>144.4</ele>
        <time>2014-07-29T08:49:24Z</time>
      </trkpt>
      <trkpt lat="43.4986440" lon="-7.1391870">
        <ele>144.0</ele>
        <time>2014-07-29T08:49:25Z</time>
      </trkpt>
      <trkpt lat="43.4986220" lon="-7.1392290">
        <ele>143.6</ele>
        <time>2014-07-29T08:49:26Z</time>
      </trkpt>
      <trkpt lat="43.4985970" lon="-7.1392590">
        <ele>143.3</ele>
        <time>2014-07-29T08:49:27Z</time>
      </trkpt>
      <trkpt lat="43.4985710" lon="-7.1392900">
        <ele>143.0</ele>
        <time>2014-07-29T08:49:28Z</time>
      </trkpt>
      <trkpt lat="43.4985540" lon="-7.1393350">
        <ele>142.7</ele>
        <time>2014-07-29T08:49:29Z</time>
      </trkpt>
      <trkpt lat="43.4985510" lon="-7.1393860">
        <ele>141.9</ele>
        <time>2014-07-29T08:49:30Z</time>
      </trkpt>
      <trkpt lat="43.4985520" lon="-7.1394340">
        <ele>141.7</ele>
        <time>2014-07-29T08:49:31Z</time>
      </trkpt>
      <trkpt lat="43.4985490" lon="-7.1394780">
        <ele>141.5</ele>
        <time>2014-07-29T08:49:32Z</time>
      </trkpt>
      <trkpt lat="43.4985490" lon="-7.1395210">
        <ele>141.3</ele>
        <time>2014-07-29T08:49:33Z</time>
      </trkpt>
      <trkpt lat="43.4985490" lon="-7.1395600">
        <ele>141.1</ele>
        <time>2014-07-29T08:49:34Z</time>
      </trkpt>
      <trkpt lat="43.4985480" lon="-7.1395950">
        <ele>141.0</ele>
        <time>2014-07-29T08:49:35Z</time>
      </trkpt>
      <trkpt lat="43.4985430" lon="-7.1396260">
        <ele>140.9</ele>
        <time>2014-07-29T08:49:36Z</time>
      </trkpt>
      <trkpt lat="43.4985310" lon="-7.1396530">
        <ele>140.7</ele>
        <time>2014-07-29T08:49:37Z</time>
      </trkpt>
      <trkpt lat="43.4985150" lon="-7.1396660">
        <ele>140.6</ele>
        <time>2014-07-29T08:49:38Z</time>
      </trkpt>
      <trkpt lat="43.4985010" lon="-7.1396790">
        <ele>140.5</ele>
        <time>2014-07-29T08:49:39Z</time>
      </trkpt>
      <trkpt lat="43.4984920" lon="-7.1396920">
        <ele>140.5</ele>
        <time>2014-07-29T08:49:40Z</time>
      </trkpt>
      <trkpt lat="43.4984780" lon="-7.1397280">
        <ele>140.3</ele>
        <time>2014-07-29T08:49:52Z</time>
      </trkpt>
      <trkpt lat="43.4984780" lon="-7.1397280">
        <ele>140.3</ele>
        <time>2014-07-29T08:50:12Z</time>
      </trkpt>
      <trkpt lat="43.4984040" lon="-7.1399290">
        <ele>135.6</ele>
        <time>2014-07-29T08:50:17Z</time>
      </trkpt>
      <trkpt lat="43.4982680" lon="-7.1401270">
        <ele>131.2</ele>
        <time>2014-07-29T08:50:21Z</time>
      </trkpt>
      <trkpt lat="43.4981930" lon="-7.1402190">
        <ele>129.4</ele>
        <time>2014-07-29T08:50:23Z</time>
      </trkpt>
      <trkpt lat="43.4980690" lon="-7.1403410">
        <ele>126.8</ele>
        <time>2014-07-29T08:50:26Z</time>
      </trkpt>
      <trkpt lat="43.4980000" lon="-7.1404200">
        <ele>125.4</ele>
        <time>2014-07-29T08:50:28Z</time>
      </trkpt>
      <trkpt lat="43.4978660" lon="-7.1405970">
        <ele>122.2</ele>
        <time>2014-07-29T08:50:32Z</time>
      </trkpt>
      <trkpt lat="43.4976660" lon="-7.1407860">
        <ele>119.3</ele>
        <time>2014-07-29T08:50:36Z</time>
      </trkpt>
      <trkpt lat="43.4975260" lon="-7.1408930">
        <ele>117.8</ele>
        <time>2014-07-29T08:50:39Z</time>
      </trkpt>
      <trkpt lat="43.4974890" lon="-7.1409280">
        <ele>117.4</ele>
        <time>2014-07-29T08:50:40Z</time>
      </trkpt>
      <trkpt lat="43.4974610" lon="-7.1409700">
        <ele>116.7</ele>
        <time>2014-07-29T08:50:41Z</time>
      </trkpt>
      <trkpt lat="43.4974460" lon="-7.1410210">
        <ele>116.2</ele>
        <time>2014-07-29T08:50:42Z</time>
      </trkpt>
      <trkpt lat="43.4974420" lon="-7.1410850">
        <ele>115.6</ele>
        <time>2014-07-29T08:50:43Z</time>
      </trkpt>
      <trkpt lat="43.4974420" lon="-7.1411550">
        <ele>115.0</ele>
        <time>2014-07-29T08:50:44Z</time>
      </trkpt>
      <trkpt lat="43.4974160" lon="-7.1416280">
        <ele>110.5</ele>
        <time>2014-07-29T08:50:51Z</time>
      </trkpt>
      <trkpt lat="43.4973970" lon="-7.1416540">
        <ele>110.0</ele>
        <time>2014-07-29T08:50:52Z</time>
      </trkpt>
      <trkpt lat="43.4973760" lon="-7.1416570">
        <ele>109.6</ele>
        <time>2014-07-29T08:50:53Z</time>
      </trkpt>
      <trkpt lat="43.4973540" lon="-7.1416380">
        <ele>109.2</ele>
        <time>2014-07-29T08:50:54Z</time>
      </trkpt>
      <trkpt lat="43.4973360" lon="-7.1416160">
        <ele>108.9</ele>
        <time>2014-07-29T08:50:55Z</time>
      </trkpt>
      <trkpt lat="43.4971080" lon="-7.1413930">
        <ele>106.3</ele>
        <time>2014-07-29T08:51:05Z</time>
      </trkpt>
      <trkpt lat="43.4969140" lon="-7.1411070">
        <ele>105.8</ele>
        <time>2014-07-29T08:51:14Z</time>
      </trkpt>
      <trkpt lat="43.4968780" lon="-7.1411090">
        <ele>105.7</ele>
        <time>2014-07-29T08:51:15Z</time>
      </trkpt>
      <trkpt lat="43.4968420" lon="-7.1411380">
        <ele>105.1</ele>
        <time>2014-07-29T08:51:16Z</time>
      </trkpt>
      <trkpt lat="43.4968190" lon="-7.1411900">
        <ele>104.8</ele>
        <time>2014-07-29T08:51:17Z</time>
      </trkpt>
      <trkpt lat="43.4968090" lon="-7.1412580">
        <ele>104.5</ele>
        <time>2014-07-29T08:51:18Z</time>
      </trkpt>
      <trkpt lat="43.4968060" lon="-7.1413360">
        <ele>104.2</ele>
        <time>2014-07-29T08:51:19Z</time>
      </trkpt>
      <trkpt lat="43.4968100" lon="-7.1414230">
        <ele>103.8</ele>
        <time>2014-07-29T08:51:20Z</time>
      </trkpt>
      <trkpt lat="43.4968160" lon="-7.1415170">
        <ele>103.6</ele>
        <time>2014-07-29T08:51:21Z</time>
      </trkpt>
      <trkpt lat="43.4968290" lon="-7.1416170">
        <ele>103.3</ele>
        <time>2014-07-29T08:51:22Z</time>
      </trkpt>
      <trkpt lat="43.4968510" lon="-7.1417270">
        <ele>103.0</ele>
        <time>2014-07-29T08:51:23Z</time>
      </trkpt>
      <trkpt lat="43.4968770" lon="-7.1418430">
        <ele>102.6</ele>
        <time>2014-07-29T08:51:24Z</time>
      </trkpt>
      <trkpt lat="43.4969460" lon="-7.1422020">
        <ele>101.5</ele>
        <time>2014-07-29T08:51:27Z</time>
      </trkpt>
      <trkpt lat="43.4969520" lon="-7.1423290">
        <ele>101.1</ele>
        <time>2014-07-29T08:51:28Z</time>
      </trkpt>
      <trkpt lat="43.4969430" lon="-7.1424590">
        <ele>100.7</ele>
        <time>2014-07-29T08:51:29Z</time>
      </trkpt>
      <trkpt lat="43.4968990" lon="-7.1427130">
        <ele>99.9</ele>
        <time>2014-07-29T08:51:31Z</time>
      </trkpt>
      <trkpt lat="43.4967230" lon="-7.1433780">
        <ele>102.3</ele>
        <time>2014-07-29T08:51:37Z</time>
      </trkpt>
      <trkpt lat="43.4967000" lon="-7.1434540">
        <ele>102.8</ele>
        <time>2014-07-29T08:51:38Z</time>
      </trkpt>
      <trkpt lat="43.4966430" lon="-7.1436630">
        <ele>104.3</ele>
        <time>2014-07-29T08:51:42Z</time>
      </trkpt>
      <trkpt lat="43.4965410" lon="-7.1439340">
        <ele>106.7</ele>
        <time>2014-07-29T08:51:54Z</time>
      </trkpt>
      <trkpt lat="43.4965010" lon="-7.1440580">
        <ele>107.8</ele>
        <time>2014-07-29T08:52:00Z</time>
      </trkpt>
      <trkpt lat="43.4964920" lon="-7.1440760">
        <ele>108.0</ele>
        <time>2014-07-29T08:52:01Z</time>
      </trkpt>
      <trkpt lat="43.4964830" lon="-7.1440940">
        <ele>108.2</ele>
        <time>2014-07-29T08:52:02Z</time>
      </trkpt>
      <trkpt lat="43.4964760" lon="-7.1441100">
        <ele>108.3</ele>
        <time>2014-07-29T08:52:03Z</time>
      </trkpt>
      <trkpt lat="43.4964670" lon="-7.1441250">
        <ele>108.5</ele>
        <time>2014-07-29T08:52:04Z</time>
      </trkpt>
      <trkpt lat="43.4964590" lon="-7.1441420">
        <ele>108.6</ele>
        <time>2014-07-29T08:52:05Z</time>
      </trkpt>
      <trkpt lat="43.4964530" lon="-7.1441640">
        <ele>108.8</ele>
        <time>2014-07-29T08:52:06Z</time>
      </trkpt>
      <trkpt lat="43.4964330" lon="-7.1442740">
        <ele>109.8</ele>
        <time>2014-07-29T08:52:11Z</time>
      </trkpt>
      <trkpt lat="43.4964220" lon="-7.1442930">
        <ele>110.0</ele>
        <time>2014-07-29T08:52:12Z</time>
      </trkpt>
      <trkpt lat="43.4964100" lon="-7.1443090">
        <ele>110.2</ele>
        <time>2014-07-29T08:52:13Z</time>
      </trkpt>
      <trkpt lat="43.4963990" lon="-7.1443230">
        <ele>110.4</ele>
        <time>2014-07-29T08:52:14Z</time>
      </trkpt>
      <trkpt lat="43.4963940" lon="-7.1443390">
        <ele>110.5</ele>
        <time>2014-07-29T08:52:15Z</time>
      </trkpt>
      <trkpt lat="43.4963870" lon="-7.1443570">
        <ele>110.8</ele>
        <time>2014-07-29T08:52:16Z</time>
      </trkpt>
      <trkpt lat="43.4963810" lon="-7.1443760">
        <ele>111.0</ele>
        <time>2014-07-29T08:52:17Z</time>
      </trkpt>
      <trkpt lat="43.4963720" lon="-7.1443940">
        <ele>111.2</ele>
        <time>2014-07-29T08:52:18Z</time>
      </trkpt>
      <trkpt lat="43.4963650" lon="-7.1444130">
        <ele>111.4</ele>
        <time>2014-07-29T08:52:19Z</time>
      </trkpt>
      <trkpt lat="43.4963620" lon="-7.1444340">
        <ele>111.6</ele>
        <time>2014-07-29T08:52:20Z</time>
      </trkpt>
      <trkpt lat="43.4963650" lon="-7.1444510">
        <ele>111.8</ele>
        <time>2014-07-29T08:52:21Z</time>
      </trkpt>
      <trkpt lat="43.4963730" lon="-7.1444660">
        <ele>112.0</ele>
        <time>2014-07-29T08:52:22Z</time>
      </trkpt>
      <trkpt lat="43.4963930" lon="-7.1444790">
        <ele>112.3</ele>
        <time>2014-07-29T08:52:24Z</time>
      </trkpt>
      <trkpt lat="43.4964150" lon="-7.1444670">
        <ele>112.7</ele>
        <time>2014-07-29T08:52:26Z</time>
      </trkpt>
      <trkpt lat="43.4964320" lon="-7.1444130">
        <ele>113.4</ele>
        <time>2014-07-29T08:52:30Z</time>
      </trkpt>
      <trkpt lat="43.4964880" lon="-7.1443170">
        <ele>116.1</ele>
        <time>2014-07-29T08:52:39Z</time>
      </trkpt>
      <trkpt lat="43.4966270" lon="-7.1442910">
        <ele>115.9</ele>
        <time>2014-07-29T08:52:56Z</time>
      </trkpt>
      <trkpt lat="43.4966270" lon="-7.1442910">
        <ele>115.9</ele>
        <time>2014-07-29T08:53:22Z</time>
      </trkpt>
      <trkpt lat="43.4966270" lon="-7.1442920">
        <ele>115.9</ele>
        <time>2014-07-29T08:53:47Z</time>
      </trkpt>
      <trkpt lat="43.4966260" lon="-7.1442980">
        <ele>115.9</ele>
        <time>2014-07-29T08:54:14Z</time>
      </trkpt>
      <trkpt lat="43.4966270" lon="-7.1442980">
        <ele>115.9</ele>
        <time>2014-07-29T08:54:41Z</time>
      </trkpt>
      <trkpt lat="43.4966310" lon="-7.1442940">
        <ele>116.0</ele>
        <time>2014-07-29T08:54:57Z</time>
      </trkpt>
      <trkpt lat="43.4966310" lon="-7.1442940">
        <ele>116.0</ele>
        <time>2014-07-29T08:55:22Z</time>
      </trkpt>
      <trkpt lat="43.4966330" lon="-7.1442960">
        <ele>116.0</ele>
        <time>2014-07-29T08:55:50Z</time>
      </trkpt>
      <trkpt lat="43.4966350" lon="-7.1442990">
        <ele>116.0</ele>
        <time>2014-07-29T08:56:08Z</time>
      </trkpt>
      <trkpt lat="43.4966880" lon="-7.1442890">
        <ele>116.2</ele>
        <time>2014-07-29T08:56:24Z</time>
      </trkpt>
      <trkpt lat="43.4966890" lon="-7.1442850">
        <ele>116.2</ele>
        <time>2014-07-29T08:56:53Z</time>
      </trkpt>
      <trkpt lat="43.4967520" lon="-7.1442950">
        <ele>116.4</ele>
        <time>2014-07-29T08:57:01Z</time>
      </trkpt>
      <trkpt lat="43.4969020" lon="-7.1443450">
        <ele>117.0</ele>
        <time>2014-07-29T08:57:18Z</time>
      </trkpt>
      <trkpt lat="43.4969730" lon="-7.1444780">
        <ele>118.3</ele>
        <time>2014-07-29T08:57:33Z</time>
      </trkpt>
      <trkpt lat="43.4969780" lon="-7.1444860">
        <ele>118.4</ele>
        <time>2014-07-29T08:57:34Z</time>
      </trkpt>
      <trkpt lat="43.4970610" lon="-7.1446690">
        <ele>121.0</ele>
        <time>2014-07-29T08:57:51Z</time>
      </trkpt>
      <trkpt lat="43.4970810" lon="-7.1448270">
        <ele>123.0</ele>
        <time>2014-07-29T08:58:06Z</time>
      </trkpt>
      <trkpt lat="43.4970520" lon="-7.1449850">
        <ele>125.3</ele>
        <time>2014-07-29T08:58:21Z</time>
      </trkpt>
      <trkpt lat="43.4970240" lon="-7.1450970">
        <ele>127.1</ele>
        <time>2014-07-29T08:58:31Z</time>
      </trkpt>
      <trkpt lat="43.4969890" lon="-7.1452950">
        <ele>130.1</ele>
        <time>2014-07-29T08:58:47Z</time>
      </trkpt>
      <trkpt lat="43.4969540" lon="-7.1454580">
        <ele>132.7</ele>
        <time>2014-07-29T08:59:02Z</time>
      </trkpt>
      <trkpt lat="43.4969260" lon="-7.1456020">
        <ele>135.0</ele>
        <time>2014-07-29T08:59:17Z</time>
      </trkpt>
      <trkpt lat="43.4969200" lon="-7.1456650">
        <ele>136.1</ele>
        <time>2014-07-29T08:59:32Z</time>
      </trkpt>
      <trkpt lat="43.4969230" lon="-7.1458010">
        <ele>138.4</ele>
        <time>2014-07-29T08:59:46Z</time>
      </trkpt>
      <trkpt lat="43.4969480" lon="-7.1460040">
        <ele>141.6</ele>
        <time>2014-07-29T09:00:04Z</time>
      </trkpt>
      <trkpt lat="43.4969520" lon="-7.1460180">
        <ele>141.8</ele>
        <time>2014-07-29T09:00:05Z</time>
      </trkpt>
      <trkpt lat="43.4970160" lon="-7.1461690">
        <ele>144.4</ele>
        <time>2014-07-29T09:00:19Z</time>
      </trkpt>
      <trkpt lat="43.4970620" lon="-7.1462650">
        <ele>146.2</ele>
        <time>2014-07-29T09:00:30Z</time>
      </trkpt>
      <trkpt lat="43.4970750" lon="-7.1463780">
        <ele>148.1</ele>
        <time>2014-07-29T09:00:40Z</time>
      </trkpt>
      <trkpt lat="43.4971520" lon="-7.1465160">
        <ele>151.0</ele>
        <time>2014-07-29T09:00:53Z</time>
      </trkpt>
      <trkpt lat="43.4971790" lon="-7.1465610">
        <ele>151.9</ele>
        <time>2014-07-29T09:01:06Z</time>
      </trkpt>
      <trkpt lat="43.4972120" lon="-7.1466600">
        <ele>153.4</ele>
        <time>2014-07-29T09:01:13Z</time>
      </trkpt>
      <trkpt lat="43.4972650" lon="-7.1467850">
        <ele>155.2</ele>
        <time>2014-07-29T09:01:22Z</time>
      </trkpt>
      <trkpt lat="43.4973380" lon="-7.1470330">
        <ele>158.4</ele>
        <time>2014-07-29T09:01:37Z</time>
      </trkpt>
      <trkpt lat="43.4974430" lon="-7.1473030">
        <ele>162.1</ele>
        <time>2014-07-29T09:01:53Z</time>
      </trkpt>
      <trkpt lat="43.4974910" lon="-7.1474690">
        <ele>164.3</ele>
        <time>2014-07-29T09:02:03Z</time>
      </trkpt>
      <trkpt lat="43.4974980" lon="-7.1475350">
        <ele>165.2</ele>
        <time>2014-07-29T09:02:07Z</time>
      </trkpt>
      <trkpt lat="43.4975540" lon="-7.1477130">
        <ele>167.7</ele>
        <time>2014-07-29T09:02:20Z</time>
      </trkpt>
      <trkpt lat="43.4975820" lon="-7.1478200">
        <ele>169.3</ele>
        <time>2014-07-29T09:02:28Z</time>
      </trkpt>
      <trkpt lat="43.4975880" lon="-7.1478980">
        <ele>170.3</ele>
        <time>2014-07-29T09:02:33Z</time>
      </trkpt>
      <trkpt lat="43.4976290" lon="-7.1480790">
        <ele>172.7</ele>
        <time>2014-07-29T09:02:46Z</time>
      </trkpt>
      <trkpt lat="43.4976280" lon="-7.1481070">
        <ele>173.0</ele>
        <time>2014-07-29T09:02:48Z</time>
      </trkpt>
      <trkpt lat="43.4976270" lon="-7.1482640">
        <ele>174.3</ele>
        <time>2014-07-29T09:02:59Z</time>
      </trkpt>
      <trkpt lat="43.4976140" lon="-7.1484150">
        <ele>175.7</ele>
        <time>2014-07-29T09:03:09Z</time>
      </trkpt>
      <trkpt lat="43.4976150" lon="-7.1486820">
        <ele>177.1</ele>
        <time>2014-07-29T09:03:25Z</time>
      </trkpt>
      <trkpt lat="43.4976240" lon="-7.1487110">
        <ele>177.3</ele>
        <time>2014-07-29T09:03:27Z</time>
      </trkpt>
      <trkpt lat="43.4977230" lon="-7.1485810">
        <ele>179.4</ele>
        <time>2014-07-29T09:03:39Z</time>
      </trkpt>
      <trkpt lat="43.4977490" lon="-7.1485370">
        <ele>180.0</ele>
        <time>2014-07-29T09:03:42Z</time>
      </trkpt>
      <trkpt lat="43.4978100" lon="-7.1484810">
        <ele>180.9</ele>
        <time>2014-07-29T09:03:48Z</time>
      </trkpt>
      <trkpt lat="43.4978530" lon="-7.1485130">
        <ele>181.6</ele>
        <time>2014-07-29T09:03:52Z</time>
      </trkpt>
      <trkpt lat="43.4978680" lon="-7.1487470">
        <ele>184.9</ele>
        <time>2014-07-29T09:04:05Z</time>
      </trkpt>
      <trkpt lat="43.4978930" lon="-7.1488400">
        <ele>185.8</ele>
        <time>2014-07-29T09:04:11Z</time>
      </trkpt>
      <trkpt lat="43.4979880" lon="-7.1490830">
        <ele>188.6</ele>
        <time>2014-07-29T09:04:28Z</time>
      </trkpt>
      <trkpt lat="43.4980040" lon="-7.1491280">
        <ele>189.0</ele>
        <time>2014-07-29T09:04:31Z</time>
      </trkpt>
      <trkpt lat="43.4980750" lon="-7.1493160">
        <ele>190.6</ele>
        <time>2014-07-29T09:04:44Z</time>
      </trkpt>
      <trkpt lat="43.4981880" lon="-7.1495480">
        <ele>192.7</ele>
        <time>2014-07-29T09:05:00Z</time>
      </trkpt>
      <trkpt lat="43.4983220" lon="-7.1498570">
        <ele>194.7</ele>
        <time>2014-07-29T09:05:20Z</time>
      </trkpt>
      <trkpt lat="43.4984540" lon="-7.1501410">
        <ele>196.8</ele>
        <time>2014-07-29T09:05:37Z</time>
      </trkpt>
      <trkpt lat="43.4984650" lon="-7.1501770">
        <ele>197.0</ele>
        <time>2014-07-29T09:05:39Z</time>
      </trkpt>
      <trkpt lat="43.4984970" lon="-7.1502740">
        <ele>197.6</ele>
        <time>2014-07-29T09:05:45Z</time>
      </trkpt>
      <trkpt lat="43.4985960" lon="-7.1504990">
        <ele>199.1</ele>
        <time>2014-07-29T09:05:59Z</time>
      </trkpt>
      <trkpt lat="43.4986450" lon="-7.1506540">
        <ele>200.3</ele>
        <time>2014-07-29T09:06:08Z</time>
      </trkpt>
      <trkpt lat="43.4986890" lon="-7.1507780">
        <ele>201.4</ele>
        <time>2014-07-29T09:06:16Z</time>
      </trkpt>
      <trkpt lat="43.4987230" lon="-7.1508830">
        <ele>202.3</ele>
        <time>2014-07-29T09:06:23Z</time>
      </trkpt>
      <trkpt lat="43.4987510" lon="-7.1509850">
        <ele>203.3</ele>
        <time>2014-07-29T09:06:30Z</time>
      </trkpt>
      <trkpt lat="43.4988200" lon="-7.1511820">
        <ele>205.7</ele>
        <time>2014-07-29T09:06:44Z</time>
      </trkpt>
      <trkpt lat="43.4988730" lon="-7.1512850">
        <ele>207.1</ele>
        <time>2014-07-29T09:06:52Z</time>
      </trkpt>
      <trkpt lat="43.4989180" lon="-7.1513880">
        <ele>208.1</ele>
        <time>2014-07-29T09:06:59Z</time>
      </trkpt>
      <trkpt lat="43.4990690" lon="-7.1515980">
        <ele>211.0</ele>
        <time>2014-07-29T09:07:17Z</time>
      </trkpt>
      <trkpt lat="43.4991160" lon="-7.1516510">
        <ele>211.7</ele>
        <time>2014-07-29T09:07:22Z</time>
      </trkpt>
      <trkpt lat="43.4992150" lon="-7.1517820">
        <ele>213.1</ele>
        <time>2014-07-29T09:07:34Z</time>
      </trkpt>
      <trkpt lat="43.4993670" lon="-7.1520350">
        <ele>215.3</ele>
        <time>2014-07-29T09:07:54Z</time>
      </trkpt>
      <trkpt lat="43.4993760" lon="-7.1520680">
        <ele>215.5</ele>
        <time>2014-07-29T09:07:56Z</time>
      </trkpt>
      <trkpt lat="43.4994940" lon="-7.1523650">
        <ele>217.4</ele>
        <time>2014-07-29T09:08:16Z</time>
      </trkpt>
      <trkpt lat="43.4995300" lon="-7.1524650">
        <ele>218.4</ele>
        <time>2014-07-29T09:08:23Z</time>
      </trkpt>
      <trkpt lat="43.4995620" lon="-7.1525300">
        <ele>219.1</ele>
        <time>2014-07-29T09:08:28Z</time>
      </trkpt>
      <trkpt lat="43.4995730" lon="-7.1525590">
        <ele>219.4</ele>
        <time>2014-07-29T09:08:30Z</time>
      </trkpt>
      <trkpt lat="43.4996670" lon="-7.1527820">
        <ele>220.9</ele>
        <time>2014-07-29T09:08:46Z</time>
      </trkpt>
      <trkpt lat="43.4997700" lon="-7.1530240">
        <ele>222.8</ele>
        <time>2014-07-29T09:09:03Z</time>
      </trkpt>
      <trkpt lat="43.4998060" lon="-7.1531070">
        <ele>223.7</ele>
        <time>2014-07-29T09:09:09Z</time>
      </trkpt>
      <trkpt lat="43.4998210" lon="-7.1531760">
        <ele>224.3</ele>
        <time>2014-07-29T09:09:14Z</time>
      </trkpt>
      <trkpt lat="43.4999470" lon="-7.1534020">
        <ele>227.3</ele>
        <time>2014-07-29T09:09:32Z</time>
      </trkpt>
      <trkpt lat="43.5000630" lon="-7.1536030">
        <ele>230.2</ele>
        <time>2014-07-29T09:09:49Z</time>
      </trkpt>
      <trkpt lat="43.5000800" lon="-7.1536180">
        <ele>230.6</ele>
        <time>2014-07-29T09:09:51Z</time>
      </trkpt>
      <trkpt lat="43.5000960" lon="-7.1536580">
        <ele>231.1</ele>
        <time>2014-07-29T09:09:54Z</time>
      </trkpt>
      <trkpt lat="43.5002410" lon="-7.1538250">
        <ele>234.9</ele>
        <time>2014-07-29T09:10:11Z</time>
      </trkpt>
      <trkpt lat="43.5003590" lon="-7.1539390">
        <ele>238.4</ele>
        <time>2014-07-29T09:10:25Z</time>
      </trkpt>
      <trkpt lat="43.5004070" lon="-7.1539910">
        <ele>240.0</ele>
        <time>2014-07-29T09:10:31Z</time>
      </trkpt>
      <trkpt lat="43.5004270" lon="-7.1539990">
        <ele>240.6</ele>
        <time>2014-07-29T09:10:33Z</time>
      </trkpt>
      <trkpt lat="43.5004810" lon="-7.1540310">
        <ele>241.9</ele>
        <time>2014-07-29T09:10:39Z</time>
      </trkpt>
      <trkpt lat="43.5005190" lon="-7.1540430">
        <ele>242.9</ele>
        <time>2014-07-29T09:10:43Z</time>
      </trkpt>
      <trkpt lat="43.5005670" lon="-7.1540700">
        <ele>244.3</ele>
        <time>2014-07-29T09:10:47Z</time>
      </trkpt>
      <trkpt lat="43.5006360" lon="-7.1541300">
        <ele>246.4</ele>
        <time>2014-07-29T09:10:54Z</time>
      </trkpt>
      <trkpt lat="43.5007490" lon="-7.1542640">
        <ele>249.9</ele>
        <time>2014-07-29T09:11:08Z</time>
      </trkpt>
      <trkpt lat="43.5007980" lon="-7.1543260">
        <ele>251.6</ele>
        <time>2014-07-29T09:11:13Z</time>
      </trkpt>
      <trkpt lat="43.5008140" lon="-7.1544150">
        <ele>252.5</ele>
        <time>2014-07-29T09:11:19Z</time>
      </trkpt>
      <trkpt lat="43.5008820" lon="-7.1546470">
        <ele>254.5</ele>
        <time>2014-07-29T09:11:34Z</time>
      </trkpt>
      <trkpt lat="43.5008950" lon="-7.1546740">
        <ele>254.8</ele>
        <time>2014-07-29T09:11:36Z</time>
      </trkpt>
      <trkpt lat="43.5009300" lon="-7.1549640">
        <ele>257.4</ele>
        <time>2014-07-29T09:11:52Z</time>
      </trkpt>
      <trkpt lat="43.5009460" lon="-7.1552310">
        <ele>259.9</ele>
        <time>2014-07-29T09:12:07Z</time>
      </trkpt>
      <trkpt lat="43.5009440" lon="-7.1552490">
        <ele>260.1</ele>
        <time>2014-07-29T09:12:08Z</time>
      </trkpt>
      <trkpt lat="43.5009520" lon="-7.1553380">
        <ele>261.0</ele>
        <time>2014-07-29T09:12:13Z</time>
      </trkpt>
      <trkpt lat="43.5009450" lon="-7.1554120">
        <ele>261.7</ele>
        <time>2014-07-29T09:12:17Z</time>
      </trkpt>
      <trkpt lat="43.5009480" lon="-7.1555700">
        <ele>262.9</ele>
        <time>2014-07-29T09:12:25Z</time>
      </trkpt>
      <trkpt lat="43.5009340" lon="-7.1558780">
        <ele>264.6</ele>
        <time>2014-07-29T09:12:39Z</time>
      </trkpt>
      <trkpt lat="43.5009310" lon="-7.1559420">
        <ele>264.9</ele>
        <time>2014-07-29T09:12:42Z</time>
      </trkpt>
      <trkpt lat="43.5009210" lon="-7.1561110">
        <ele>265.5</ele>
        <time>2014-07-29T09:12:50Z</time>
      </trkpt>
      <trkpt lat="43.5008750" lon="-7.1564590">
        <ele>267.1</ele>
        <time>2014-07-29T09:13:06Z</time>
      </trkpt>
      <trkpt lat="43.5008790" lon="-7.1565300">
        <ele>267.6</ele>
        <time>2014-07-29T09:13:17Z</time>
      </trkpt>
      <trkpt lat="43.5008790" lon="-7.1565300">
        <ele>267.6</ele>
        <time>2014-07-29T09:13:34Z</time>
      </trkpt>
      <trkpt lat="43.5008680" lon="-7.1565460">
        <ele>267.7</ele>
        <time>2014-07-29T09:13:45Z</time>
      </trkpt>
      <trkpt lat="43.5008390" lon="-7.1566610">
        <ele>268.5</ele>
        <time>2014-07-29T09:13:51Z</time>
      </trkpt>
      <trkpt lat="43.5008000" lon="-7.1569650">
        <ele>271.0</ele>
        <time>2014-07-29T09:14:06Z</time>
      </trkpt>
      <trkpt lat="43.5006460" lon="-7.1572670">
        <ele>273.6</ele>
        <time>2014-07-29T09:14:21Z</time>
      </trkpt>
      <trkpt lat="43.5004780" lon="-7.1574970">
        <ele>275.3</ele>
        <time>2014-07-29T09:14:36Z</time>
      </trkpt>
      <trkpt lat="43.5003560" lon="-7.1576550">
        <ele>276.7</ele>
        <time>2014-07-29T09:14:46Z</time>
      </trkpt>
      <trkpt lat="43.5001620" lon="-7.1579400">
        <ele>279.0</ele>
        <time>2014-07-29T09:15:03Z</time>
      </trkpt>
      <trkpt lat="43.4999990" lon="-7.1582140">
        <ele>281.0</ele>
        <time>2014-07-29T09:15:19Z</time>
      </trkpt>
      <trkpt lat="43.4998740" lon="-7.1584840">
        <ele>282.5</ele>
        <time>2014-07-29T09:15:33Z</time>
      </trkpt>
      <trkpt lat="43.4998220" lon="-7.1586600">
        <ele>283.3</ele>
        <time>2014-07-29T09:15:41Z</time>
      </trkpt>
      <trkpt lat="43.4997210" lon="-7.1591360">
        <ele>284.8</ele>
        <time>2014-07-29T09:15:59Z</time>
      </trkpt>
      <trkpt lat="43.4996290" lon="-7.1596210">
        <ele>285.9</ele>
        <time>2014-07-29T09:16:13Z</time>
      </trkpt>
      <trkpt lat="43.4994890" lon="-7.1602240">
        <ele>286.9</ele>
        <time>2014-07-29T09:16:30Z</time>
      </trkpt>
      <trkpt lat="43.4993960" lon="-7.1608850">
        <ele>287.5</ele>
        <time>2014-07-29T09:16:45Z</time>
      </trkpt>
      <trkpt lat="43.4992770" lon="-7.1614870">
        <ele>287.6</ele>
        <time>2014-07-29T09:16:57Z</time>
      </trkpt>
      <trkpt lat="43.4990600" lon="-7.1620550">
        <ele>287.7</ele>
        <time>2014-07-29T09:17:10Z</time>
      </trkpt>
      <trkpt lat="43.4987970" lon="-7.1625070">
        <ele>287.9</ele>
        <time>2014-07-29T09:17:22Z</time>
      </trkpt>
      <trkpt lat="43.4985280" lon="-7.1631480">
        <ele>288.0</ele>
        <time>2014-07-29T09:17:36Z</time>
      </trkpt>
      <trkpt lat="43.4985160" lon="-7.1633170">
        <ele>288.0</ele>
        <time>2014-07-29T09:17:39Z</time>
      </trkpt>
      <trkpt lat="43.4985200" lon="-7.1633740">
        <ele>288.0</ele>
        <time>2014-07-29T09:17:40Z</time>
      </trkpt>
      <trkpt lat="43.4985870" lon="-7.1641840">
        <ele>288.2</ele>
        <time>2014-07-29T09:17:55Z</time>
      </trkpt>
      <trkpt lat="43.4985670" lon="-7.1647000">
        <ele>289.0</ele>
        <time>2014-07-29T09:18:06Z</time>
      </trkpt>
      <trkpt lat="43.4985160" lon="-7.1650750">
        <ele>290.2</ele>
        <time>2014-07-29T09:18:18Z</time>
      </trkpt>
      <trkpt lat="43.4985480" lon="-7.1652110">
        <ele>290.8</ele>
        <time>2014-07-29T09:18:24Z</time>
      </trkpt>
      <trkpt lat="43.4985560" lon="-7.1652340">
        <ele>290.9</ele>
        <time>2014-07-29T09:18:25Z</time>
      </trkpt>
      <trkpt lat="43.4985630" lon="-7.1652570">
        <ele>291.0</ele>
        <time>2014-07-29T09:18:26Z</time>
      </trkpt>
      <trkpt lat="43.4986130" lon="-7.1653950">
        <ele>291.6</ele>
        <time>2014-07-29T09:18:32Z</time>
      </trkpt>
      <trkpt lat="43.4986230" lon="-7.1654220">
        <ele>291.7</ele>
        <time>2014-07-29T09:18:33Z</time>
      </trkpt>
      <trkpt lat="43.4986320" lon="-7.1654510">
        <ele>291.8</ele>
        <time>2014-07-29T09:18:34Z</time>
      </trkpt>
      <trkpt lat="43.4986370" lon="-7.1654820">
        <ele>292.0</ele>
        <time>2014-07-29T09:18:35Z</time>
      </trkpt>
      <trkpt lat="43.4986400" lon="-7.1655170">
        <ele>292.1</ele>
        <time>2014-07-29T09:18:36Z</time>
      </trkpt>
      <trkpt lat="43.4986830" lon="-7.1657080">
        <ele>292.9</ele>
        <time>2014-07-29T09:18:42Z</time>
      </trkpt>
      <trkpt lat="43.4986970" lon="-7.1657430">
        <ele>293.0</ele>
        <time>2014-07-29T09:18:43Z</time>
      </trkpt>
      <trkpt lat="43.4987030" lon="-7.1657770">
        <ele>293.2</ele>
        <time>2014-07-29T09:18:44Z</time>
      </trkpt>
      <trkpt lat="43.4987120" lon="-7.1658080">
        <ele>293.3</ele>
        <time>2014-07-29T09:18:45Z</time>
      </trkpt>
      <trkpt lat="43.4987180" lon="-7.1658390">
        <ele>293.4</ele>
        <time>2014-07-29T09:18:46Z</time>
      </trkpt>
      <trkpt lat="43.4987240" lon="-7.1658710">
        <ele>293.5</ele>
        <time>2014-07-29T09:18:47Z</time>
      </trkpt>
      <trkpt lat="43.4987330" lon="-7.1659020">
        <ele>293.6</ele>
        <time>2014-07-29T09:18:48Z</time>
      </trkpt>
      <trkpt lat="43.4987370" lon="-7.1659330">
        <ele>293.8</ele>
        <time>2014-07-29T09:18:49Z</time>
      </trkpt>
      <trkpt lat="43.4987380" lon="-7.1659600">
        <ele>293.9</ele>
        <time>2014-07-29T09:18:50Z</time>
      </trkpt>
      <trkpt lat="43.4987410" lon="-7.1659830">
        <ele>294.0</ele>
        <time>2014-07-29T09:18:51Z</time>
      </trkpt>
      <trkpt lat="43.4988490" lon="-7.1663690">
        <ele>295.4</ele>
        <time>2014-07-29T09:19:04Z</time>
      </trkpt>
      <trkpt lat="43.4989400" lon="-7.1668840">
        <ele>296.9</ele>
        <time>2014-07-29T09:19:18Z</time>
      </trkpt>
      <trkpt lat="43.4989630" lon="-7.1674310">
        <ele>298.5</ele>
        <time>2014-07-29T09:19:33Z</time>
      </trkpt>
      <trkpt lat="43.4989130" lon="-7.1678610">
        <ele>300.2</ele>
        <time>2014-07-29T09:19:47Z</time>
      </trkpt>
      <trkpt lat="43.4988820" lon="-7.1681870">
        <ele>302.4</ele>
        <time>2014-07-29T09:20:01Z</time>
      </trkpt>
      <trkpt lat="43.4989040" lon="-7.1683150">
        <ele>303.5</ele>
        <time>2014-07-29T09:20:07Z</time>
      </trkpt>
      <trkpt lat="43.4989250" lon="-7.1684340">
        <ele>304.4</ele>
        <time>2014-07-29T09:20:12Z</time>
      </trkpt>
      <trkpt lat="43.4989900" lon="-7.1687600">
        <ele>306.4</ele>
        <time>2014-07-29T09:20:26Z</time>
      </trkpt>
      <trkpt lat="43.4990400" lon="-7.1691020">
        <ele>307.9</ele>
        <time>2014-07-29T09:20:39Z</time>
      </trkpt>
      <trkpt lat="43.4990590" lon="-7.1692930">
        <ele>308.6</ele>
        <time>2014-07-29T09:20:46Z</time>
      </trkpt>
      <trkpt lat="43.4990650" lon="-7.1694740">
        <ele>309.2</ele>
        <time>2014-07-29T09:20:53Z</time>
      </trkpt>
      <trkpt lat="43.4991230" lon="-7.1699530">
        <ele>310.4</ele>
        <time>2014-07-29T09:21:09Z</time>
      </trkpt>
      <trkpt lat="43.4991360" lon="-7.1703790">
        <ele>310.9</ele>
        <time>2014-07-29T09:21:21Z</time>
      </trkpt>
      <trkpt lat="43.4990920" lon="-7.1707480">
        <ele>311.2</ele>
        <time>2014-07-29T09:21:32Z</time>
      </trkpt>
      <trkpt lat="43.4990910" lon="-7.1712360">
        <ele>311.4</ele>
        <time>2014-07-29T09:21:45Z</time>
      </trkpt>
      <trkpt lat="43.4991210" lon="-7.1717030">
        <ele>311.6</ele>
        <time>2014-07-29T09:21:57Z</time>
      </trkpt>
      <trkpt lat="43.4991350" lon="-7.1720630">
        <ele>311.8</ele>
        <time>2014-07-29T09:22:06Z</time>
      </trkpt>
      <trkpt lat="43.4991410" lon="-7.1724920">
        <ele>312.1</ele>
        <time>2014-07-29T09:22:18Z</time>
      </trkpt>
      <trkpt lat="43.4991240" lon="-7.1727570">
        <ele>312.3</ele>
        <time>2014-07-29T09:22:27Z</time>
      </trkpt>
      <trkpt lat="43.4987980" lon="-7.1735290">
        <ele>313.5</ele>
        <time>2014-07-29T09:22:40Z</time>
      </trkpt>
      <trkpt lat="43.4986940" lon="-7.1737730">
        <ele>314.5</ele>
        <time>2014-07-29T09:22:47Z</time>
      </trkpt>
      <trkpt lat="43.4986700" lon="-7.1738770">
        <ele>315.2</ele>
        <time>2014-07-29T09:22:51Z</time>
      </trkpt>
      <trkpt lat="43.4986340" lon="-7.1740360">
        <ele>316.2</ele>
        <time>2014-07-29T09:22:58Z</time>
      </trkpt>
      <trkpt lat="43.4986010" lon="-7.1744220">
        <ele>318.8</ele>
        <time>2014-07-29T09:23:15Z</time>
      </trkpt>
      <trkpt lat="43.4985700" lon="-7.1746260">
        <ele>320.2</ele>
        <time>2014-07-29T09:23:25Z</time>
      </trkpt>
      <trkpt lat="43.4985440" lon="-7.1749500">
        <ele>322.8</ele>
        <time>2014-07-29T09:23:41Z</time>
      </trkpt>
      <trkpt lat="43.4985200" lon="-7.1751130">
        <ele>324.1</ele>
        <time>2014-07-29T09:23:50Z</time>
      </trkpt>
      <trkpt lat="43.4984830" lon="-7.1753040">
        <ele>325.9</ele>
        <time>2014-07-29T09:24:01Z</time>
      </trkpt>
      <trkpt lat="43.4984780" lon="-7.1753880">
        <ele>326.6</ele>
        <time>2014-07-29T09:24:06Z</time>
      </trkpt>
      <trkpt lat="43.4984720" lon="-7.1755270">
        <ele>327.9</ele>
        <time>2014-07-29T09:24:14Z</time>
      </trkpt>
      <trkpt lat="43.4984890" lon="-7.1756440">
        <ele>328.9</ele>
        <time>2014-07-29T09:24:21Z</time>
      </trkpt>
      <trkpt lat="43.4985670" lon="-7.1757630">
        <ele>330.0</ele>
        <time>2014-07-29T09:24:31Z</time>
      </trkpt>
      <trkpt lat="43.4987090" lon="-7.1758330">
        <ele>331.1</ele>
        <time>2014-07-29T09:24:42Z</time>
      </trkpt>
      <trkpt lat="43.4988060" lon="-7.1758290">
        <ele>331.7</ele>
        <time>2014-07-29T09:24:49Z</time>
      </trkpt>
      <trkpt lat="43.4990360" lon="-7.1758500">
        <ele>332.8</ele>
        <time>2014-07-29T09:25:01Z</time>
      </trkpt>
      <trkpt lat="43.4991270" lon="-7.1760200">
        <ele>333.9</ele>
        <time>2014-07-29T09:25:10Z</time>
      </trkpt>
      <trkpt lat="43.4991160" lon="-7.1761630">
        <ele>334.4</ele>
        <time>2014-07-29T09:25:15Z</time>
      </trkpt>
      <trkpt lat="43.4990550" lon="-7.1765500">
        <ele>336.1</ele>
        <time>2014-07-29T09:25:31Z</time>
      </trkpt>
      <trkpt lat="43.4990180" lon="-7.1768000">
        <ele>338.3</ele>
        <time>2014-07-29T09:25:44Z</time>
      </trkpt>
      <trkpt lat="43.4989940" lon="-7.1769480">
        <ele>339.6</ele>
        <time>2014-07-29T09:25:52Z</time>
      </trkpt>
      <trkpt lat="43.4989820" lon="-7.1770300">
        <ele>340.4</ele>
        <time>2014-07-29T09:25:57Z</time>
      </trkpt>
      <trkpt lat="43.4989780" lon="-7.1770830">
        <ele>340.9</ele>
        <time>2014-07-29T09:26:00Z</time>
      </trkpt>
      <trkpt lat="43.4989620" lon="-7.1772120">
        <ele>342.0</ele>
        <time>2014-07-29T09:26:08Z</time>
      </trkpt>
      <trkpt lat="43.4989250" lon="-7.1773070">
        <ele>342.6</ele>
        <time>2014-07-29T09:26:14Z</time>
      </trkpt>
      <trkpt lat="43.4988830" lon="-7.1774380">
        <ele>342.9</ele>
        <time>2014-07-29T09:26:22Z</time>
      </trkpt>
      <trkpt lat="43.4988500" lon="-7.1775130">
        <ele>343.0</ele>
        <time>2014-07-29T09:26:26Z</time>
      </trkpt>
      <trkpt lat="43.4986570" lon="-7.1778630">
        <ele>343.2</ele>
        <time>2014-07-29T09:26:40Z</time>
      </trkpt>
      <trkpt lat="43.4984510" lon="-7.1783460">
        <ele>343.3</ele>
        <time>2014-07-29T09:26:52Z</time>
      </trkpt>
      <trkpt lat="43.4983410" lon="-7.1787450">
        <ele>343.6</ele>
        <time>2014-07-29T09:27:03Z</time>
      </trkpt>
      <trkpt lat="43.4981650" lon="-7.1794540">
        <ele>344.3</ele>
        <time>2014-07-29T09:27:19Z</time>
      </trkpt>
      <trkpt lat="43.4980110" lon="-7.1799590">
        <ele>345.4</ele>
        <time>2014-07-29T09:27:32Z</time>
      </trkpt>
      <trkpt lat="43.4978530" lon="-7.1803850">
        <ele>346.9</ele>
        <time>2014-07-29T09:27:47Z</time>
      </trkpt>
      <trkpt lat="43.4976720" lon="-7.1809550">
        <ele>349.1</ele>
        <time>2014-07-29T09:28:06Z</time>
      </trkpt>
      <trkpt lat="43.4975970" lon="-7.1811940">
        <ele>350.1</ele>
        <time>2014-07-29T09:28:15Z</time>
      </trkpt>
      <trkpt lat="43.4975630" lon="-7.1813030">
        <ele>350.7</ele>
        <time>2014-07-29T09:28:20Z</time>
      </trkpt>
      <trkpt lat="43.4975530" lon="-7.1813450">
        <ele>350.8</ele>
        <time>2014-07-29T09:28:22Z</time>
      </trkpt>
      <trkpt lat="43.4974640" lon="-7.1815220">
        <ele>352.3</ele>
        <time>2014-07-29T09:28:33Z</time>
      </trkpt>
      <trkpt lat="43.4973240" lon="-7.1817090">
        <ele>354.4</ele>
        <time>2014-07-29T09:28:46Z</time>
      </trkpt>
      <trkpt lat="43.4973170" lon="-7.1819410">
        <ele>354.8</ele>
        <time>2014-07-29T09:28:57Z</time>
      </trkpt>
      <trkpt lat="43.4973820" lon="-7.1824070">
        <ele>354.3</ele>
        <time>2014-07-29T09:29:12Z</time>
      </trkpt>
      <trkpt lat="43.4973470" lon="-7.1830970">
        <ele>354.1</ele>
        <time>2014-07-29T09:29:28Z</time>
      </trkpt>
      <trkpt lat="43.4972280" lon="-7.1835370">
        <ele>354.7</ele>
        <time>2014-07-29T09:29:41Z</time>
      </trkpt>
      <trkpt lat="43.4971830" lon="-7.1836490">
        <ele>354.9</ele>
        <time>2014-07-29T09:29:45Z</time>
      </trkpt>
      <trkpt lat="43.4971090" lon="-7.1837570">
        <ele>355.2</ele>
        <time>2014-07-29T09:29:50Z</time>
      </trkpt>
      <trkpt lat="43.4969100" lon="-7.1840580">
        <ele>356.1</ele>
        <time>2014-07-29T09:30:01Z</time>
      </trkpt>
      <trkpt lat="43.4967590" lon="-7.1843890">
        <ele>356.8</ele>
        <time>2014-07-29T09:30:11Z</time>
      </trkpt>
      <trkpt lat="43.4966490" lon="-7.1847960">
        <ele>357.3</ele>
        <time>2014-07-29T09:30:22Z</time>
      </trkpt>
      <trkpt lat="43.4965530" lon="-7.1851230">
        <ele>357.7</ele>
        <time>2014-07-29T09:30:32Z</time>
      </trkpt>
      <trkpt lat="43.4964770" lon="-7.1856380">
        <ele>358.8</ele>
        <time>2014-07-29T09:30:44Z</time>
      </trkpt>
      <trkpt lat="43.4963890" lon="-7.1860550">
        <ele>360.7</ele>
        <time>2014-07-29T09:30:57Z</time>
      </trkpt>
      <trkpt lat="43.4962920" lon="-7.1864030">
        <ele>363.6</ele>
        <time>2014-07-29T09:31:12Z</time>
      </trkpt>
      <trkpt lat="43.4962300" lon="-7.1866960">
        <ele>365.5</ele>
        <time>2014-07-29T09:31:25Z</time>
      </trkpt>
      <trkpt lat="43.4961580" lon="-7.1871470">
        <ele>367.0</ele>
        <time>2014-07-29T09:31:43Z</time>
      </trkpt>
      <trkpt lat="43.4960620" lon="-7.1876870">
        <ele>367.0</ele>
        <time>2014-07-29T09:31:57Z</time>
      </trkpt>
      <trkpt lat="43.4958350" lon="-7.1881180">
        <ele>366.8</ele>
        <time>2014-07-29T09:32:10Z</time>
      </trkpt>
      <trkpt lat="43.4956960" lon="-7.1882950">
        <ele>366.7</ele>
        <time>2014-07-29T09:32:22Z</time>
      </trkpt>
      <trkpt lat="43.4956960" lon="-7.1882950">
        <ele>366.7</ele>
        <time>2014-07-29T09:32:46Z</time>
      </trkpt>
      <trkpt lat="43.4956960" lon="-7.1882950">
        <ele>366.7</ele>
        <time>2014-07-29T09:32:59Z</time>
      </trkpt>
      <trkpt lat="43.4956960" lon="-7.1882950">
        <ele>366.7</ele>
        <time>2014-07-29T09:33:00Z</time>
      </trkpt>
      <trkpt lat="43.4956940" lon="-7.1883040">
        <ele>366.7</ele>
        <time>2014-07-29T09:33:08Z</time>
      </trkpt>
      <trkpt lat="43.4954990" lon="-7.1886710">
        <ele>366.5</ele>
        <time>2014-07-29T09:33:21Z</time>
      </trkpt>
      <trkpt lat="43.4952520" lon="-7.1891620">
        <ele>365.8</ele>
        <time>2014-07-29T09:33:36Z</time>
      </trkpt>
      <trkpt lat="43.4951980" lon="-7.1893280">
        <ele>365.3</ele>
        <time>2014-07-29T09:33:46Z</time>
      </trkpt>
      <trkpt lat="43.4951980" lon="-7.1893280">
        <ele>365.3</ele>
        <time>2014-07-29T09:34:10Z</time>
      </trkpt>
      <trkpt lat="43.4951960" lon="-7.1893300">
        <ele>365.3</ele>
        <time>2014-07-29T09:34:29Z</time>
      </trkpt>
      <trkpt lat="43.4951390" lon="-7.1895520">
        <ele>364.6</ele>
        <time>2014-07-29T09:34:41Z</time>
      </trkpt>
      <trkpt lat="43.4951280" lon="-7.1896060">
        <ele>364.4</ele>
        <time>2014-07-29T09:34:42Z</time>
      </trkpt>
      <trkpt lat="43.4948090" lon="-7.1903690">
        <ele>360.8</ele>
        <time>2014-07-29T09:34:53Z</time>
      </trkpt>
      <trkpt lat="43.4946800" lon="-7.1906800">
        <ele>358.7</ele>
        <time>2014-07-29T09:34:58Z</time>
      </trkpt>
      <trkpt lat="43.4946560" lon="-7.1907470">
        <ele>358.2</ele>
        <time>2014-07-29T09:34:59Z</time>
      </trkpt>
      <trkpt lat="43.4945460" lon="-7.1911040">
        <ele>355.1</ele>
        <time>2014-07-29T09:35:04Z</time>
      </trkpt>
      <trkpt lat="43.4944790" lon="-7.1913400">
        <ele>352.3</ele>
        <time>2014-07-29T09:35:07Z</time>
      </trkpt>
      <trkpt lat="43.4944190" lon="-7.1915720">
        <ele>349.6</ele>
        <time>2014-07-29T09:35:10Z</time>
      </trkpt>
      <trkpt lat="43.4943630" lon="-7.1918820">
        <ele>346.0</ele>
        <time>2014-07-29T09:35:14Z</time>
      </trkpt>
      <trkpt lat="43.4942850" lon="-7.1921870">
        <ele>342.1</ele>
        <time>2014-07-29T09:35:18Z</time>
      </trkpt>
      <trkpt lat="43.4942500" lon="-7.1922600">
        <ele>341.1</ele>
        <time>2014-07-29T09:35:19Z</time>
      </trkpt>
      <trkpt lat="43.4942040" lon="-7.1923320">
        <ele>340.2</ele>
        <time>2014-07-29T09:35:20Z</time>
      </trkpt>
      <trkpt lat="43.4941530" lon="-7.1924020">
        <ele>339.3</ele>
        <time>2014-07-29T09:35:21Z</time>
      </trkpt>
      <trkpt lat="43.4941010" lon="-7.1924690">
        <ele>338.3</ele>
        <time>2014-07-29T09:35:22Z</time>
      </trkpt>
      <trkpt lat="43.4934680" lon="-7.1932110">
        <ele>333.5</ele>
        <time>2014-07-29T09:35:34Z</time>
      </trkpt>
      <trkpt lat="43.4930990" lon="-7.1937890">
        <ele>333.4</ele>
        <time>2014-07-29T09:35:46Z</time>
      </trkpt>
      <trkpt lat="43.4928170" lon="-7.1943430">
        <ele>334.2</ele>
        <time>2014-07-29T09:35:59Z</time>
      </trkpt>
      <trkpt lat="43.4927860" lon="-7.1944010">
        <ele>334.1</ele>
        <time>2014-07-29T09:36:00Z</time>
      </trkpt>
      <trkpt lat="43.4924480" lon="-7.1950580">
        <ele>331.5</ele>
        <time>2014-07-29T09:36:10Z</time>
      </trkpt>
      <trkpt lat="43.4919730" lon="-7.1959800">
        <ele>328.7</ele>
        <time>2014-07-29T09:36:23Z</time>
      </trkpt>
      <trkpt lat="43.4919500" lon="-7.1960530">
        <ele>328.8</ele>
        <time>2014-07-29T09:36:24Z</time>
      </trkpt>
      <trkpt lat="43.4917930" lon="-7.1966520">
        <ele>331.1</ele>
        <time>2014-07-29T09:36:36Z</time>
      </trkpt>
      <trkpt lat="43.4916760" lon="-7.1970930">
        <ele>334.0</ele>
        <time>2014-07-29T09:36:48Z</time>
      </trkpt>
      <trkpt lat="43.4917430" lon="-7.1974600">
        <ele>332.9</ele>
        <time>2014-07-29T09:36:58Z</time>
      </trkpt>
      <trkpt lat="43.4919010" lon="-7.1977710">
        <ele>328.3</ele>
        <time>2014-07-29T09:37:02Z</time>
      </trkpt>
      <trkpt lat="43.4920740" lon="-7.1981030">
        <ele>322.9</ele>
        <time>2014-07-29T09:37:06Z</time>
      </trkpt>
      <trkpt lat="43.4922390" lon="-7.1984250">
        <ele>318.0</ele>
        <time>2014-07-29T09:37:10Z</time>
      </trkpt>
      <trkpt lat="43.4924030" lon="-7.1987270">
        <ele>313.9</ele>
        <time>2014-07-29T09:37:15Z</time>
      </trkpt>
      <trkpt lat="43.4924460" lon="-7.1988110">
        <ele>312.9</ele>
        <time>2014-07-29T09:37:17Z</time>
      </trkpt>
      <trkpt lat="43.4924940" lon="-7.1989130">
        <ele>311.8</ele>
        <time>2014-07-29T09:37:19Z</time>
      </trkpt>
      <trkpt lat="43.4925350" lon="-7.1989690">
        <ele>311.3</ele>
        <time>2014-07-29T09:37:20Z</time>
      </trkpt>
      <trkpt lat="43.4927440" lon="-7.1992220">
        <ele>308.1</ele>
        <time>2014-07-29T09:37:24Z</time>
      </trkpt>
      <trkpt lat="43.4930020" lon="-7.1995340">
        <ele>303.9</ele>
        <time>2014-07-29T09:37:29Z</time>
      </trkpt>
      <trkpt lat="43.4931930" lon="-7.1997660">
        <ele>300.9</ele>
        <time>2014-07-29T09:37:33Z</time>
      </trkpt>
      <trkpt lat="43.4932710" lon="-7.1998840">
        <ele>299.2</ele>
        <time>2014-07-29T09:37:35Z</time>
      </trkpt>
      <trkpt lat="43.4933000" lon="-7.1999460">
        <ele>298.3</ele>
        <time>2014-07-29T09:37:36Z</time>
      </trkpt>
      <trkpt lat="43.4933210" lon="-7.2000140">
        <ele>297.3</ele>
        <time>2014-07-29T09:37:37Z</time>
      </trkpt>
      <trkpt lat="43.4933340" lon="-7.2000910">
        <ele>296.4</ele>
        <time>2014-07-29T09:37:38Z</time>
      </trkpt>
      <trkpt lat="43.4933390" lon="-7.2001710">
        <ele>295.4</ele>
        <time>2014-07-29T09:37:39Z</time>
      </trkpt>
      <trkpt lat="43.4933400" lon="-7.2002540">
        <ele>294.4</ele>
        <time>2014-07-29T09:37:40Z</time>
      </trkpt>
      <trkpt lat="43.4933410" lon="-7.2005100">
        <ele>291.9</ele>
        <time>2014-07-29T09:37:43Z</time>
      </trkpt>
      <trkpt lat="43.4933380" lon="-7.2007550">
        <ele>289.3</ele>
        <time>2014-07-29T09:37:46Z</time>
      </trkpt>
      <trkpt lat="43.4933240" lon="-7.2008350">
        <ele>288.5</ele>
        <time>2014-07-29T09:37:47Z</time>
      </trkpt>
      <trkpt lat="43.4932990" lon="-7.2009150">
        <ele>287.4</ele>
        <time>2014-07-29T09:37:48Z</time>
      </trkpt>
      <trkpt lat="43.4932640" lon="-7.2009940">
        <ele>286.4</ele>
        <time>2014-07-29T09:37:49Z</time>
      </trkpt>
      <trkpt lat="43.4932200" lon="-7.2010690">
        <ele>285.7</ele>
        <time>2014-07-29T09:37:50Z</time>
      </trkpt>
      <trkpt lat="43.4931640" lon="-7.2011390">
        <ele>285.2</ele>
        <time>2014-07-29T09:37:51Z</time>
      </trkpt>
      <trkpt lat="43.4930970" lon="-7.2012040">
        <ele>284.8</ele>
        <time>2014-07-29T09:37:52Z</time>
      </trkpt>
      <trkpt lat="43.4930210" lon="-7.2012690">
        <ele>284.1</ele>
        <time>2014-07-29T09:37:53Z</time>
      </trkpt>
      <trkpt lat="43.4929420" lon="-7.2013330">
        <ele>283.5</ele>
        <time>2014-07-29T09:37:54Z</time>
      </trkpt>
      <trkpt lat="43.4925900" lon="-7.2016080">
        <ele>281.7</ele>
        <time>2014-07-29T09:37:58Z</time>
      </trkpt>
      <trkpt lat="43.4915250" lon="-7.2024070">
        <ele>280.9</ele>
        <time>2014-07-29T09:38:12Z</time>
      </trkpt>
      <trkpt lat="43.4907120" lon="-7.2027570">
        <ele>280.0</ele>
        <time>2014-07-29T09:38:25Z</time>
      </trkpt>
      <trkpt lat="43.4904230" lon="-7.2028360">
        <ele>279.3</ele>
        <time>2014-07-29T09:38:29Z</time>
      </trkpt>
      <trkpt lat="43.4903540" lon="-7.2028730">
        <ele>279.1</ele>
        <time>2014-07-29T09:38:30Z</time>
      </trkpt>
      <trkpt lat="43.4902940" lon="-7.2029250">
        <ele>279.0</ele>
        <time>2014-07-29T09:38:31Z</time>
      </trkpt>
      <trkpt lat="43.4902500" lon="-7.2029920">
        <ele>279.0</ele>
        <time>2014-07-29T09:38:32Z</time>
      </trkpt>
      <trkpt lat="43.4902170" lon="-7.2030670">
        <ele>279.0</ele>
        <time>2014-07-29T09:38:33Z</time>
      </trkpt>
      <trkpt lat="43.4901940" lon="-7.2031470">
        <ele>279.0</ele>
        <time>2014-07-29T09:38:34Z</time>
      </trkpt>
      <trkpt lat="43.4901760" lon="-7.2032310">
        <ele>279.1</ele>
        <time>2014-07-29T09:38:35Z</time>
      </trkpt>
      <trkpt lat="43.4900230" lon="-7.2040620">
        <ele>279.1</ele>
        <time>2014-07-29T09:38:47Z</time>
      </trkpt>
      <trkpt lat="43.4899800" lon="-7.2043260">
        <ele>278.3</ele>
        <time>2014-07-29T09:38:50Z</time>
      </trkpt>
      <trkpt lat="43.4898890" lon="-7.2049250">
        <ele>276.4</ele>
        <time>2014-07-29T09:38:56Z</time>
      </trkpt>
      <trkpt lat="43.4898570" lon="-7.2051610">
        <ele>275.4</ele>
        <time>2014-07-29T09:38:58Z</time>
      </trkpt>
      <trkpt lat="43.4897730" lon="-7.2056830">
        <ele>273.1</ele>
        <time>2014-07-29T09:39:02Z</time>
      </trkpt>
      <trkpt lat="43.4896590" lon="-7.2062220">
        <ele>270.7</ele>
        <time>2014-07-29T09:39:06Z</time>
      </trkpt>
      <trkpt lat="43.4896180" lon="-7.2063540">
        <ele>270.1</ele>
        <time>2014-07-29T09:39:07Z</time>
      </trkpt>
      <trkpt lat="43.4895670" lon="-7.2064780">
        <ele>269.6</ele>
        <time>2014-07-29T09:39:08Z</time>
      </trkpt>
      <trkpt lat="43.4895100" lon="-7.2065940">
        <ele>269.2</ele>
        <time>2014-07-29T09:39:09Z</time>
      </trkpt>
      <trkpt lat="43.4890750" lon="-7.2073710">
        <ele>269.1</ele>
        <time>2014-07-29T09:39:18Z</time>
      </trkpt>
      <trkpt lat="43.4886570" lon="-7.2080840">
        <ele>271.9</ele>
        <time>2014-07-29T09:39:32Z</time>
      </trkpt>
      <trkpt lat="43.4886050" lon="-7.2081780">
        <ele>272.1</ele>
        <time>2014-07-29T09:39:34Z</time>
      </trkpt>
      <trkpt lat="43.4884820" lon="-7.2084190">
        <ele>272.3</ele>
        <time>2014-07-29T09:39:39Z</time>
      </trkpt>
      <trkpt lat="43.4884750" lon="-7.2084790">
        <ele>272.3</ele>
        <time>2014-07-29T09:39:40Z</time>
      </trkpt>
      <trkpt lat="43.4884870" lon="-7.2085450">
        <ele>271.9</ele>
        <time>2014-07-29T09:39:41Z</time>
      </trkpt>
      <trkpt lat="43.4885170" lon="-7.2086180">
        <ele>271.6</ele>
        <time>2014-07-29T09:39:42Z</time>
      </trkpt>
      <trkpt lat="43.4885570" lon="-7.2087000">
        <ele>271.1</ele>
        <time>2014-07-29T09:39:43Z</time>
      </trkpt>
      <trkpt lat="43.4886540" lon="-7.2088930">
        <ele>269.8</ele>
        <time>2014-07-29T09:39:45Z</time>
      </trkpt>
      <trkpt lat="43.4888430" lon="-7.2092340">
        <ele>266.7</ele>
        <time>2014-07-29T09:39:48Z</time>
      </trkpt>
      <trkpt lat="43.4889270" lon="-7.2093420">
        <ele>265.7</ele>
        <time>2014-07-29T09:39:49Z</time>
      </trkpt>
      <trkpt lat="43.4890190" lon="-7.2094340">
        <ele>264.4</ele>
        <time>2014-07-29T09:39:50Z</time>
      </trkpt>
      <trkpt lat="43.4891100" lon="-7.2095080">
        <ele>263.5</ele>
        <time>2014-07-29T09:39:51Z</time>
      </trkpt>
      <trkpt lat="43.4892010" lon="-7.2095710">
        <ele>263.0</ele>
        <time>2014-07-29T09:39:52Z</time>
      </trkpt>
      <trkpt lat="43.4894210" lon="-7.2097130">
        <ele>263.1</ele>
        <time>2014-07-29T09:39:55Z</time>
      </trkpt>
      <trkpt lat="43.4895640" lon="-7.2098080">
        <ele>264.8</ele>
        <time>2014-07-29T09:39:58Z</time>
      </trkpt>
      <trkpt lat="43.4897570" lon="-7.2099200">
        <ele>268.6</ele>
        <time>2014-07-29T09:40:08Z</time>
      </trkpt>
      <trkpt lat="43.4899790" lon="-7.2100530">
        <ele>272.4</ele>
        <time>2014-07-29T09:40:24Z</time>
      </trkpt>
      <trkpt lat="43.4901620" lon="-7.2101690">
        <ele>275.0</ele>
        <time>2014-07-29T09:40:39Z</time>
      </trkpt>
      <trkpt lat="43.4903890" lon="-7.2103100">
        <ele>277.8</ele>
        <time>2014-07-29T09:40:57Z</time>
      </trkpt>
      <trkpt lat="43.4906050" lon="-7.2104460">
        <ele>280.6</ele>
        <time>2014-07-29T09:41:13Z</time>
      </trkpt>
      <trkpt lat="43.4908480" lon="-7.2105350">
        <ele>283.7</ele>
        <time>2014-07-29T09:41:31Z</time>
      </trkpt>
      <trkpt lat="43.4909180" lon="-7.2105470">
        <ele>284.7</ele>
        <time>2014-07-29T09:41:36Z</time>
      </trkpt>
      <trkpt lat="43.4909290" lon="-7.2105430">
        <ele>284.8</ele>
        <time>2014-07-29T09:41:37Z</time>
      </trkpt>
      <trkpt lat="43.4909430" lon="-7.2105420">
        <ele>284.9</ele>
        <time>2014-07-29T09:41:38Z</time>
      </trkpt>
      <trkpt lat="43.4909550" lon="-7.2105380">
        <ele>285.1</ele>
        <time>2014-07-29T09:41:39Z</time>
      </trkpt>
      <trkpt lat="43.4909670" lon="-7.2105370">
        <ele>285.2</ele>
        <time>2014-07-29T09:41:40Z</time>
      </trkpt>
      <trkpt lat="43.4909790" lon="-7.2105330">
        <ele>285.3</ele>
        <time>2014-07-29T09:41:41Z</time>
      </trkpt>
      <trkpt lat="43.4909950" lon="-7.2105320">
        <ele>285.5</ele>
        <time>2014-07-29T09:41:42Z</time>
      </trkpt>
      <trkpt lat="43.4910080" lon="-7.2105330">
        <ele>285.6</ele>
        <time>2014-07-29T09:41:43Z</time>
      </trkpt>
      <trkpt lat="43.4910210" lon="-7.2105350">
        <ele>285.8</ele>
        <time>2014-07-29T09:41:44Z</time>
      </trkpt>
      <trkpt lat="43.4910320" lon="-7.2105320">
        <ele>286.0</ele>
        <time>2014-07-29T09:41:45Z</time>
      </trkpt>
      <trkpt lat="43.4910430" lon="-7.2105280">
        <ele>286.2</ele>
        <time>2014-07-29T09:41:46Z</time>
      </trkpt>
      <trkpt lat="43.4910560" lon="-7.2105310">
        <ele>286.4</ele>
        <time>2014-07-29T09:41:47Z</time>
      </trkpt>
      <trkpt lat="43.4910700" lon="-7.2105320">
        <ele>286.6</ele>
        <time>2014-07-29T09:41:48Z</time>
      </trkpt>
      <trkpt lat="43.4910830" lon="-7.2105290">
        <ele>286.8</ele>
        <time>2014-07-29T09:41:49Z</time>
      </trkpt>
      <trkpt lat="43.4910960" lon="-7.2105270">
        <ele>287.0</ele>
        <time>2014-07-29T09:41:50Z</time>
      </trkpt>
      <trkpt lat="43.4911100" lon="-7.2105260">
        <ele>287.2</ele>
        <time>2014-07-29T09:41:51Z</time>
      </trkpt>
      <trkpt lat="43.4911270" lon="-7.2105260">
        <ele>287.4</ele>
        <time>2014-07-29T09:41:52Z</time>
      </trkpt>
      <trkpt lat="43.4911420" lon="-7.2105250">
        <ele>287.7</ele>
        <time>2014-07-29T09:41:53Z</time>
      </trkpt>
      <trkpt lat="43.4913110" lon="-7.2105280">
        <ele>290.2</ele>
        <time>2014-07-29T09:42:06Z</time>
      </trkpt>
      <trkpt lat="43.4914940" lon="-7.2105410">
        <ele>293.4</ele>
        <time>2014-07-29T09:42:20Z</time>
      </trkpt>
      <trkpt lat="43.4916790" lon="-7.2105340">
        <ele>296.3</ele>
        <time>2014-07-29T09:42:33Z</time>
      </trkpt>
      <trkpt lat="43.4917560" lon="-7.2105490">
        <ele>297.6</ele>
        <time>2014-07-29T09:42:39Z</time>
      </trkpt>
      <trkpt lat="43.4919240" lon="-7.2106740">
        <ele>301.0</ele>
        <time>2014-07-29T09:42:54Z</time>
      </trkpt>
      <trkpt lat="43.4920530" lon="-7.2108660">
        <ele>304.3</ele>
        <time>2014-07-29T09:43:09Z</time>
      </trkpt>
      <trkpt lat="43.4921210" lon="-7.2110030">
        <ele>306.6</ele>
        <time>2014-07-29T09:43:18Z</time>
      </trkpt>
      <trkpt lat="43.4921340" lon="-7.2110070">
        <ele>306.8</ele>
        <time>2014-07-29T09:43:19Z</time>
      </trkpt>
      <trkpt lat="43.4921480" lon="-7.2110150">
        <ele>307.2</ele>
        <time>2014-07-29T09:43:20Z</time>
      </trkpt>
      <trkpt lat="43.4921690" lon="-7.2110350">
        <ele>307.6</ele>
        <time>2014-07-29T09:43:22Z</time>
      </trkpt>
      <trkpt lat="43.4921730" lon="-7.2110500">
        <ele>307.9</ele>
        <time>2014-07-29T09:43:23Z</time>
      </trkpt>
      <trkpt lat="43.4921750" lon="-7.2110690">
        <ele>308.1</ele>
        <time>2014-07-29T09:43:24Z</time>
      </trkpt>
      <trkpt lat="43.4922850" lon="-7.2112420">
        <ele>310.8</ele>
        <time>2014-07-29T09:43:37Z</time>
      </trkpt>
      <trkpt lat="43.4923780" lon="-7.2114340">
        <ele>313.7</ele>
        <time>2014-07-29T09:43:50Z</time>
      </trkpt>
      <trkpt lat="43.4924030" lon="-7.2114690">
        <ele>314.2</ele>
        <time>2014-07-29T09:43:53Z</time>
      </trkpt>
      <trkpt lat="43.4924610" lon="-7.2115210">
        <ele>315.2</ele>
        <time>2014-07-29T09:43:58Z</time>
      </trkpt>
      <trkpt lat="43.4925990" lon="-7.2117440">
        <ele>318.3</ele>
        <time>2014-07-29T09:44:14Z</time>
      </trkpt>
      <trkpt lat="43.4926130" lon="-7.2117770">
        <ele>318.7</ele>
        <time>2014-07-29T09:44:16Z</time>
      </trkpt>
      <trkpt lat="43.4926150" lon="-7.2117940">
        <ele>318.8</ele>
        <time>2014-07-29T09:44:17Z</time>
      </trkpt>
      <trkpt lat="43.4926180" lon="-7.2118120">
        <ele>319.0</ele>
        <time>2014-07-29T09:44:18Z</time>
      </trkpt>
      <trkpt lat="43.4926230" lon="-7.2118270">
        <ele>319.2</ele>
        <time>2014-07-29T09:44:19Z</time>
      </trkpt>
      <trkpt lat="43.4926310" lon="-7.2118390">
        <ele>319.3</ele>
        <time>2014-07-29T09:44:20Z</time>
      </trkpt>
      <trkpt lat="43.4926420" lon="-7.2118490">
        <ele>319.5</ele>
        <time>2014-07-29T09:44:21Z</time>
      </trkpt>
      <trkpt lat="43.4926540" lon="-7.2118550">
        <ele>319.7</ele>
        <time>2014-07-29T09:44:22Z</time>
      </trkpt>
      <trkpt lat="43.4926650" lon="-7.2118590">
        <ele>319.9</ele>
        <time>2014-07-29T09:44:23Z</time>
      </trkpt>
      <trkpt lat="43.4926770" lon="-7.2118670">
        <ele>320.1</ele>
        <time>2014-07-29T09:44:24Z</time>
      </trkpt>
      <trkpt lat="43.4926850" lon="-7.2118790">
        <ele>320.3</ele>
        <time>2014-07-29T09:44:25Z</time>
      </trkpt>
      <trkpt lat="43.4926920" lon="-7.2118950">
        <ele>320.4</ele>
        <time>2014-07-29T09:44:26Z</time>
      </trkpt>
      <trkpt lat="43.4926990" lon="-7.2119110">
        <ele>320.6</ele>
        <time>2014-07-29T09:44:27Z</time>
      </trkpt>
      <trkpt lat="43.4927070" lon="-7.2119270">
        <ele>320.8</ele>
        <time>2014-07-29T09:44:28Z</time>
      </trkpt>
      <trkpt lat="43.4927150" lon="-7.2119400">
        <ele>320.9</ele>
        <time>2014-07-29T09:44:29Z</time>
      </trkpt>
      <trkpt lat="43.4927230" lon="-7.2119560">
        <ele>321.1</ele>
        <time>2014-07-29T09:44:30Z</time>
      </trkpt>
      <trkpt lat="43.4927300" lon="-7.2119700">
        <ele>321.3</ele>
        <time>2014-07-29T09:44:31Z</time>
      </trkpt>
      <trkpt lat="43.4927400" lon="-7.2119830">
        <ele>321.5</ele>
        <time>2014-07-29T09:44:32Z</time>
      </trkpt>
      <trkpt lat="43.4927490" lon="-7.2119990">
        <ele>321.7</ele>
        <time>2014-07-29T09:44:33Z</time>
      </trkpt>
      <trkpt lat="43.4927800" lon="-7.2120450">
        <ele>322.9</ele>
        <time>2014-07-29T09:44:37Z</time>
      </trkpt>
      <trkpt lat="43.4928370" lon="-7.2121060">
        <ele>323.5</ele>
        <time>2014-07-29T09:44:43Z</time>
      </trkpt>
      <trkpt lat="43.4928410" lon="-7.2121210">
        <ele>323.6</ele>
        <time>2014-07-29T09:44:44Z</time>
      </trkpt>
      <trkpt lat="43.4928470" lon="-7.2121870">
        <ele>324.0</ele>
        <time>2014-07-29T09:44:48Z</time>
      </trkpt>
      <trkpt lat="43.4929160" lon="-7.2124290">
        <ele>325.9</ele>
        <time>2014-07-29T09:45:02Z</time>
      </trkpt>
      <trkpt lat="43.4929520" lon="-7.2125430">
        <ele>326.8</ele>
        <time>2014-07-29T09:45:09Z</time>
      </trkpt>
      <trkpt lat="43.4929620" lon="-7.2125540">
        <ele>326.9</ele>
        <time>2014-07-29T09:45:10Z</time>
      </trkpt>
      <trkpt lat="43.4929670" lon="-7.2125740">
        <ele>327.1</ele>
        <time>2014-07-29T09:45:11Z</time>
      </trkpt>
      <trkpt lat="43.4929670" lon="-7.2125940">
        <ele>327.2</ele>
        <time>2014-07-29T09:45:12Z</time>
      </trkpt>
      <trkpt lat="43.4929690" lon="-7.2126140">
        <ele>327.4</ele>
        <time>2014-07-29T09:45:13Z</time>
      </trkpt>
      <trkpt lat="43.4929740" lon="-7.2126320">
        <ele>327.5</ele>
        <time>2014-07-29T09:45:14Z</time>
      </trkpt>
      <trkpt lat="43.4929800" lon="-7.2126500">
        <ele>327.7</ele>
        <time>2014-07-29T09:45:15Z</time>
      </trkpt>
      <trkpt lat="43.4929860" lon="-7.2126670">
        <ele>327.8</ele>
        <time>2014-07-29T09:45:16Z</time>
      </trkpt>
      <trkpt lat="43.4930650" lon="-7.2129140">
        <ele>329.9</ele>
        <time>2014-07-29T09:45:31Z</time>
      </trkpt>
      <trkpt lat="43.4930690" lon="-7.2130220">
        <ele>330.7</ele>
        <time>2014-07-29T09:45:37Z</time>
      </trkpt>
      <trkpt lat="43.4930770" lon="-7.2130340">
        <ele>330.9</ele>
        <time>2014-07-29T09:45:38Z</time>
      </trkpt>
      <trkpt lat="43.4930830" lon="-7.2130490">
        <ele>331.0</ele>
        <time>2014-07-29T09:45:39Z</time>
      </trkpt>
      <trkpt lat="43.4930850" lon="-7.2130690">
        <ele>331.2</ele>
        <time>2014-07-29T09:45:40Z</time>
      </trkpt>
      <trkpt lat="43.4930860" lon="-7.2130880">
        <ele>331.3</ele>
        <time>2014-07-29T09:45:41Z</time>
      </trkpt>
      <trkpt lat="43.4930870" lon="-7.2131050">
        <ele>331.5</ele>
        <time>2014-07-29T09:45:42Z</time>
      </trkpt>
      <trkpt lat="43.4930890" lon="-7.2131230">
        <ele>331.6</ele>
        <time>2014-07-29T09:45:43Z</time>
      </trkpt>
      <trkpt lat="43.4930910" lon="-7.2131400">
        <ele>331.7</ele>
        <time>2014-07-29T09:45:44Z</time>
      </trkpt>
      <trkpt lat="43.4930970" lon="-7.2131530">
        <ele>331.8</ele>
        <time>2014-07-29T09:45:45Z</time>
      </trkpt>
      <trkpt lat="43.4931030" lon="-7.2131690">
        <ele>332.0</ele>
        <time>2014-07-29T09:45:46Z</time>
      </trkpt>
      <trkpt lat="43.4931060" lon="-7.2131860">
        <ele>332.1</ele>
        <time>2014-07-29T09:45:47Z</time>
      </trkpt>
      <trkpt lat="43.4931070" lon="-7.2132040">
        <ele>332.2</ele>
        <time>2014-07-29T09:45:48Z</time>
      </trkpt>
      <trkpt lat="43.4931090" lon="-7.2132220">
        <ele>332.4</ele>
        <time>2014-07-29T09:45:49Z</time>
      </trkpt>
      <trkpt lat="43.4931090" lon="-7.2132380">
        <ele>332.5</ele>
        <time>2014-07-29T09:45:50Z</time>
      </trkpt>
      <trkpt lat="43.4931080" lon="-7.2132560">
        <ele>332.6</ele>
        <time>2014-07-29T09:45:51Z</time>
      </trkpt>
      <trkpt lat="43.4931100" lon="-7.2132720">
        <ele>332.7</ele>
        <time>2014-07-29T09:45:52Z</time>
      </trkpt>
      <trkpt lat="43.4931100" lon="-7.2132890">
        <ele>332.9</ele>
        <time>2014-07-29T09:45:53Z</time>
      </trkpt>
      <trkpt lat="43.4931070" lon="-7.2133070">
        <ele>333.0</ele>
        <time>2014-07-29T09:45:54Z</time>
      </trkpt>
      <trkpt lat="43.4931030" lon="-7.2133230">
        <ele>333.2</ele>
        <time>2014-07-29T09:45:55Z</time>
      </trkpt>
      <trkpt lat="43.4931040" lon="-7.2133420">
        <ele>333.3</ele>
        <time>2014-07-29T09:45:56Z</time>
      </trkpt>
      <trkpt lat="43.4931060" lon="-7.2133640">
        <ele>333.5</ele>
        <time>2014-07-29T09:45:57Z</time>
      </trkpt>
      <trkpt lat="43.4931090" lon="-7.2133840">
        <ele>333.6</ele>
        <time>2014-07-29T09:45:58Z</time>
      </trkpt>
      <trkpt lat="43.4931100" lon="-7.2134050">
        <ele>333.8</ele>
        <time>2014-07-29T09:45:59Z</time>
      </trkpt>
      <trkpt lat="43.4931110" lon="-7.2134250">
        <ele>333.9</ele>
        <time>2014-07-29T09:46:00Z</time>
      </trkpt>
      <trkpt lat="43.4931310" lon="-7.2136440">
        <ele>335.2</ele>
        <time>2014-07-29T09:46:13Z</time>
      </trkpt>
      <trkpt lat="43.4931560" lon="-7.2139830">
        <ele>337.4</ele>
        <time>2014-07-29T09:46:31Z</time>
      </trkpt>
      <trkpt lat="43.4932040" lon="-7.2142640">
        <ele>339.0</ele>
        <time>2014-07-29T09:46:46Z</time>
      </trkpt>
      <trkpt lat="43.4932380" lon="-7.2145350">
        <ele>340.6</ele>
        <time>2014-07-29T09:46:59Z</time>
      </trkpt>
      <trkpt lat="43.4932820" lon="-7.2147990">
        <ele>342.0</ele>
        <time>2014-07-29T09:47:11Z</time>
      </trkpt>
      <trkpt lat="43.4933990" lon="-7.2149540">
        <ele>342.8</ele>
        <time>2014-07-29T09:47:21Z</time>
      </trkpt>
      <trkpt lat="43.4934120" lon="-7.2149660">
        <ele>342.9</ele>
        <time>2014-07-29T09:47:22Z</time>
      </trkpt>
      <trkpt lat="43.4934420" lon="-7.2149870">
        <ele>343.2</ele>
        <time>2014-07-29T09:47:25Z</time>
      </trkpt>
      <trkpt lat="43.4934460" lon="-7.2150020">
        <ele>343.1</ele>
        <time>2014-07-29T09:47:26Z</time>
      </trkpt>
      <trkpt lat="43.4934520" lon="-7.2150170">
        <ele>343.0</ele>
        <time>2014-07-29T09:47:27Z</time>
      </trkpt>
      <trkpt lat="43.4934600" lon="-7.2150330">
        <ele>343.0</ele>
        <time>2014-07-29T09:47:28Z</time>
      </trkpt>
      <trkpt lat="43.4934680" lon="-7.2150550">
        <ele>342.8</ele>
        <time>2014-07-29T09:47:29Z</time>
      </trkpt>
      <trkpt lat="43.4935010" lon="-7.2153630">
        <ele>341.4</ele>
        <time>2014-07-29T09:47:43Z</time>
      </trkpt>
      <trkpt lat="43.4935550" lon="-7.2156400">
        <ele>339.7</ele>
        <time>2014-07-29T09:47:57Z</time>
      </trkpt>
      <trkpt lat="43.4936200" lon="-7.2159010">
        <ele>337.5</ele>
        <time>2014-07-29T09:48:04Z</time>
      </trkpt>
      <trkpt lat="43.4936300" lon="-7.2159650">
        <ele>336.9</ele>
        <time>2014-07-29T09:48:05Z</time>
      </trkpt>
      <trkpt lat="43.4936380" lon="-7.2160370">
        <ele>336.3</ele>
        <time>2014-07-29T09:48:06Z</time>
      </trkpt>
      <trkpt lat="43.4936370" lon="-7.2161190">
        <ele>335.7</ele>
        <time>2014-07-29T09:48:07Z</time>
      </trkpt>
      <trkpt lat="43.4936290" lon="-7.2162090">
        <ele>335.6</ele>
        <time>2014-07-29T09:48:08Z</time>
      </trkpt>
      <trkpt lat="43.4936170" lon="-7.2163000">
        <ele>335.6</ele>
        <time>2014-07-29T09:48:09Z</time>
      </trkpt>
      <trkpt lat="43.4935830" lon="-7.2164640">
        <ele>335.5</ele>
        <time>2014-07-29T09:48:11Z</time>
      </trkpt>
      <trkpt lat="43.4935580" lon="-7.2165280">
        <ele>335.5</ele>
        <time>2014-07-29T09:48:12Z</time>
      </trkpt>
      <trkpt lat="43.4935290" lon="-7.2165790">
        <ele>335.5</ele>
        <time>2014-07-29T09:48:13Z</time>
      </trkpt>
      <trkpt lat="43.4935000" lon="-7.2166170">
        <ele>335.4</ele>
        <time>2014-07-29T09:48:14Z</time>
      </trkpt>
      <trkpt lat="43.4934760" lon="-7.2166470">
        <ele>335.4</ele>
        <time>2014-07-29T09:48:15Z</time>
      </trkpt>
      <trkpt lat="43.4934610" lon="-7.2166660">
        <ele>335.4</ele>
        <time>2014-07-29T09:48:16Z</time>
      </trkpt>
      <trkpt lat="43.4934490" lon="-7.2166780">
        <ele>335.3</ele>
        <time>2014-07-29T09:48:28Z</time>
      </trkpt>
      <trkpt lat="43.4934280" lon="-7.2166870">
        <ele>335.3</ele>
        <time>2014-07-29T09:48:47Z</time>
      </trkpt>
      <trkpt lat="43.4934130" lon="-7.2166970">
        <ele>335.3</ele>
        <time>2014-07-29T09:48:48Z</time>
      </trkpt>
      <trkpt lat="43.4933970" lon="-7.2167120">
        <ele>335.2</ele>
        <time>2014-07-29T09:48:49Z</time>
      </trkpt>
      <trkpt lat="43.4933780" lon="-7.2167320">
        <ele>335.2</ele>
        <time>2014-07-29T09:48:50Z</time>
      </trkpt>
      <trkpt lat="43.4933560" lon="-7.2167540">
        <ele>335.2</ele>
        <time>2014-07-29T09:48:51Z</time>
      </trkpt>
      <trkpt lat="43.4933310" lon="-7.2167750">
        <ele>335.1</ele>
        <time>2014-07-29T09:48:52Z</time>
      </trkpt>
      <trkpt lat="43.4929430" lon="-7.2172790">
        <ele>333.1</ele>
        <time>2014-07-29T09:49:09Z</time>
      </trkpt>
      <trkpt lat="43.4927430" lon="-7.2180820">
        <ele>331.2</ele>
        <time>2014-07-29T09:49:21Z</time>
      </trkpt>
      <trkpt lat="43.4925870" lon="-7.2186880">
        <ele>329.8</ele>
        <time>2014-07-29T09:49:27Z</time>
      </trkpt>
      <trkpt lat="43.4924800" lon="-7.2190420">
        <ele>328.3</ele>
        <time>2014-07-29T09:49:30Z</time>
      </trkpt>
      <trkpt lat="43.4923530" lon="-7.2194250">
        <ele>326.5</ele>
        <time>2014-07-29T09:49:33Z</time>
      </trkpt>
      <trkpt lat="43.4922180" lon="-7.2198080">
        <ele>324.2</ele>
        <time>2014-07-29T09:49:36Z</time>
      </trkpt>
      <trkpt lat="43.4921010" lon="-7.2201670">
        <ele>321.0</ele>
        <time>2014-07-29T09:49:39Z</time>
      </trkpt>
      <trkpt lat="43.4920070" lon="-7.2205510">
        <ele>317.3</ele>
        <time>2014-07-29T09:49:42Z</time>
      </trkpt>
      <trkpt lat="43.4919480" lon="-7.2208050">
        <ele>314.8</ele>
        <time>2014-07-29T09:49:44Z</time>
      </trkpt>
      <trkpt lat="43.4918490" lon="-7.2211930">
        <ele>311.2</ele>
        <time>2014-07-29T09:49:47Z</time>
      </trkpt>
      <trkpt lat="43.4917780" lon="-7.2214530">
        <ele>308.8</ele>
        <time>2014-07-29T09:49:49Z</time>
      </trkpt>
      <trkpt lat="43.4917110" lon="-7.2217330">
        <ele>306.1</ele>
        <time>2014-07-29T09:49:51Z</time>
      </trkpt>
      <trkpt lat="43.4915760" lon="-7.2221280">
        <ele>302.1</ele>
        <time>2014-07-29T09:49:54Z</time>
      </trkpt>
      <trkpt lat="43.4915130" lon="-7.2222510">
        <ele>300.7</ele>
        <time>2014-07-29T09:49:55Z</time>
      </trkpt>
      <trkpt lat="43.4912380" lon="-7.2226980">
        <ele>294.9</ele>
        <time>2014-07-29T09:49:59Z</time>
      </trkpt>
      <trkpt lat="43.4909200" lon="-7.2230600">
        <ele>288.7</ele>
        <time>2014-07-29T09:50:03Z</time>
      </trkpt>
      <trkpt lat="43.4905240" lon="-7.2234120">
        <ele>281.4</ele>
        <time>2014-07-29T09:50:08Z</time>
      </trkpt>
      <trkpt lat="43.4902790" lon="-7.2236380">
        <ele>277.0</ele>
        <time>2014-07-29T09:50:11Z</time>
      </trkpt>
      <trkpt lat="43.4899550" lon="-7.2239510">
        <ele>273.5</ele>
        <time>2014-07-29T09:50:15Z</time>
      </trkpt>
      <trkpt lat="43.4897950" lon="-7.2241120">
        <ele>272.0</ele>
        <time>2014-07-29T09:50:17Z</time>
      </trkpt>
      <trkpt lat="43.4895980" lon="-7.2243740">
        <ele>269.7</ele>
        <time>2014-07-29T09:50:20Z</time>
      </trkpt>
      <trkpt lat="43.4895510" lon="-7.2244580">
        <ele>268.6</ele>
        <time>2014-07-29T09:50:21Z</time>
      </trkpt>
      <trkpt lat="43.4895150" lon="-7.2245380">
        <ele>267.3</ele>
        <time>2014-07-29T09:50:22Z</time>
      </trkpt>
      <trkpt lat="43.4894960" lon="-7.2245950">
        <ele>266.5</ele>
        <time>2014-07-29T09:50:23Z</time>
      </trkpt>
      <trkpt lat="43.4895240" lon="-7.2246550">
        <ele>265.7</ele>
        <time>2014-07-29T09:50:26Z</time>
      </trkpt>
      <trkpt lat="43.4895580" lon="-7.2246820">
        <ele>265.1</ele>
        <time>2014-07-29T09:50:27Z</time>
      </trkpt>
      <trkpt lat="43.4895900" lon="-7.2247080">
        <ele>264.6</ele>
        <time>2014-07-29T09:50:28Z</time>
      </trkpt>
      <trkpt lat="43.4896210" lon="-7.2247350">
        <ele>264.2</ele>
        <time>2014-07-29T09:50:29Z</time>
      </trkpt>
      <trkpt lat="43.4896480" lon="-7.2247650">
        <ele>263.9</ele>
        <time>2014-07-29T09:50:30Z</time>
      </trkpt>
      <trkpt lat="43.4896670" lon="-7.2247970">
        <ele>263.7</ele>
        <time>2014-07-29T09:50:31Z</time>
      </trkpt>
      <trkpt lat="43.4896860" lon="-7.2248320">
        <ele>263.5</ele>
        <time>2014-07-29T09:50:32Z</time>
      </trkpt>
      <trkpt lat="43.4897140" lon="-7.2248720">
        <ele>263.4</ele>
        <time>2014-07-29T09:50:33Z</time>
      </trkpt>
      <trkpt lat="43.4897400" lon="-7.2249160">
        <ele>263.3</ele>
        <time>2014-07-29T09:50:34Z</time>
      </trkpt>
      <trkpt lat="43.4898140" lon="-7.2250900">
        <ele>263.4</ele>
        <time>2014-07-29T09:50:39Z</time>
      </trkpt>
      <trkpt lat="43.4898250" lon="-7.2251200">
        <ele>263.5</ele>
        <time>2014-07-29T09:50:40Z</time>
      </trkpt>
      <trkpt lat="43.4899520" lon="-7.2255310">
        <ele>266.1</ele>
        <time>2014-07-29T09:50:54Z</time>
      </trkpt>
      <trkpt lat="43.4900150" lon="-7.2257770">
        <ele>267.9</ele>
        <time>2014-07-29T09:51:02Z</time>
      </trkpt>
      <trkpt lat="43.4900270" lon="-7.2258060">
        <ele>268.1</ele>
        <time>2014-07-29T09:51:03Z</time>
      </trkpt>
      <trkpt lat="43.4900380" lon="-7.2258380">
        <ele>268.2</ele>
        <time>2014-07-29T09:51:04Z</time>
      </trkpt>
      <trkpt lat="43.4901120" lon="-7.2261160">
        <ele>269.1</ele>
        <time>2014-07-29T09:51:11Z</time>
      </trkpt>
      <trkpt lat="43.4901220" lon="-7.2261780">
        <ele>269.1</ele>
        <time>2014-07-29T09:51:12Z</time>
      </trkpt>
      <trkpt lat="43.4901320" lon="-7.2262430">
        <ele>269.2</ele>
        <time>2014-07-29T09:51:13Z</time>
      </trkpt>
      <trkpt lat="43.4901760" lon="-7.2265720">
        <ele>269.2</ele>
        <time>2014-07-29T09:51:17Z</time>
      </trkpt>
      <trkpt lat="43.4901740" lon="-7.2266700">
        <ele>269.2</ele>
        <time>2014-07-29T09:51:18Z</time>
      </trkpt>
      <trkpt lat="43.4901630" lon="-7.2267760">
        <ele>269.1</ele>
        <time>2014-07-29T09:51:19Z</time>
      </trkpt>
      <trkpt lat="43.4901400" lon="-7.2268870">
        <ele>269.0</ele>
        <time>2014-07-29T09:51:20Z</time>
      </trkpt>
      <trkpt lat="43.4901090" lon="-7.2269970">
        <ele>268.9</ele>
        <time>2014-07-29T09:51:21Z</time>
      </trkpt>
      <trkpt lat="43.4900690" lon="-7.2271090">
        <ele>268.7</ele>
        <time>2014-07-29T09:51:22Z</time>
      </trkpt>
      <trkpt lat="43.4900190" lon="-7.2272210">
        <ele>268.4</ele>
        <time>2014-07-29T09:51:23Z</time>
      </trkpt>
      <trkpt lat="43.4899640" lon="-7.2273320">
        <ele>268.1</ele>
        <time>2014-07-29T09:51:24Z</time>
      </trkpt>
      <trkpt lat="43.4897100" lon="-7.2277830">
        <ele>264.7</ele>
        <time>2014-07-29T09:51:28Z</time>
      </trkpt>
      <trkpt lat="43.4894440" lon="-7.2282320">
        <ele>258.4</ele>
        <time>2014-07-29T09:51:33Z</time>
      </trkpt>
      <trkpt lat="43.4894080" lon="-7.2283150">
        <ele>258.1</ele>
        <time>2014-07-29T09:51:34Z</time>
      </trkpt>
      <trkpt lat="43.4893220" lon="-7.2284760">
        <ele>257.3</ele>
        <time>2014-07-29T09:51:36Z</time>
      </trkpt>
      <trkpt lat="43.4891580" lon="-7.2287870">
        <ele>255.8</ele>
        <time>2014-07-29T09:51:40Z</time>
      </trkpt>
      <trkpt lat="43.4891290" lon="-7.2288860">
        <ele>255.5</ele>
        <time>2014-07-29T09:51:41Z</time>
      </trkpt>
      <trkpt lat="43.4891100" lon="-7.2289920">
        <ele>255.1</ele>
        <time>2014-07-29T09:51:42Z</time>
      </trkpt>
      <trkpt lat="43.4891030" lon="-7.2290980">
        <ele>254.7</ele>
        <time>2014-07-29T09:51:43Z</time>
      </trkpt>
      <trkpt lat="43.4891040" lon="-7.2292010">
        <ele>254.2</ele>
        <time>2014-07-29T09:51:44Z</time>
      </trkpt>
      <trkpt lat="43.4890900" lon="-7.2295260">
        <ele>253.1</ele>
        <time>2014-07-29T09:51:47Z</time>
      </trkpt>
      <trkpt lat="43.4890740" lon="-7.2296320">
        <ele>252.7</ele>
        <time>2014-07-29T09:51:48Z</time>
      </trkpt>
      <trkpt lat="43.4890500" lon="-7.2297400">
        <ele>252.4</ele>
        <time>2014-07-29T09:51:49Z</time>
      </trkpt>
      <trkpt lat="43.4889940" lon="-7.2299610">
        <ele>251.7</ele>
        <time>2014-07-29T09:51:51Z</time>
      </trkpt>
      <trkpt lat="43.4888150" lon="-7.2307900">
        <ele>249.0</ele>
        <time>2014-07-29T09:51:58Z</time>
      </trkpt>
      <trkpt lat="43.4888060" lon="-7.2309180">
        <ele>248.3</ele>
        <time>2014-07-29T09:51:59Z</time>
      </trkpt>
      <trkpt lat="43.4888070" lon="-7.2310480">
        <ele>247.4</ele>
        <time>2014-07-29T09:52:00Z</time>
      </trkpt>
      <trkpt lat="43.4888740" lon="-7.2318740">
        <ele>240.7</ele>
        <time>2014-07-29T09:52:06Z</time>
      </trkpt>
      <trkpt lat="43.4888960" lon="-7.2324300">
        <ele>235.1</ele>
        <time>2014-07-29T09:52:10Z</time>
      </trkpt>
      <trkpt lat="43.4888690" lon="-7.2325660">
        <ele>233.7</ele>
        <time>2014-07-29T09:52:11Z</time>
      </trkpt>
      <trkpt lat="43.4888270" lon="-7.2326980">
        <ele>232.4</ele>
        <time>2014-07-29T09:52:12Z</time>
      </trkpt>
      <trkpt lat="43.4887750" lon="-7.2328230">
        <ele>231.0</ele>
        <time>2014-07-29T09:52:13Z</time>
      </trkpt>
      <trkpt lat="43.4887210" lon="-7.2329470">
        <ele>229.6</ele>
        <time>2014-07-29T09:52:14Z</time>
      </trkpt>
      <trkpt lat="43.4885600" lon="-7.2332960">
        <ele>226.5</ele>
        <time>2014-07-29T09:52:17Z</time>
      </trkpt>
      <trkpt lat="43.4883630" lon="-7.2337270">
        <ele>223.2</ele>
        <time>2014-07-29T09:52:21Z</time>
      </trkpt>
      <trkpt lat="43.4883100" lon="-7.2338250">
        <ele>222.2</ele>
        <time>2014-07-29T09:52:22Z</time>
      </trkpt>
      <trkpt lat="43.4882500" lon="-7.2339070">
        <ele>221.2</ele>
        <time>2014-07-29T09:52:23Z</time>
      </trkpt>
      <trkpt lat="43.4881790" lon="-7.2339610">
        <ele>220.6</ele>
        <time>2014-07-29T09:52:24Z</time>
      </trkpt>
      <trkpt lat="43.4880970" lon="-7.2339830">
        <ele>220.0</ele>
        <time>2014-07-29T09:52:25Z</time>
      </trkpt>
      <trkpt lat="43.4880090" lon="-7.2339750">
        <ele>219.4</ele>
        <time>2014-07-29T09:52:26Z</time>
      </trkpt>
      <trkpt lat="43.4879220" lon="-7.2339490">
        <ele>218.7</ele>
        <time>2014-07-29T09:52:27Z</time>
      </trkpt>
      <trkpt lat="43.4878330" lon="-7.2339160">
        <ele>218.0</ele>
        <time>2014-07-29T09:52:28Z</time>
      </trkpt>
      <trkpt lat="43.4874660" lon="-7.2337820">
        <ele>215.7</ele>
        <time>2014-07-29T09:52:32Z</time>
      </trkpt>
      <trkpt lat="43.4873690" lon="-7.2337640">
        <ele>215.0</ele>
        <time>2014-07-29T09:52:33Z</time>
      </trkpt>
      <trkpt lat="43.4872700" lon="-7.2337700">
        <ele>214.4</ele>
        <time>2014-07-29T09:52:34Z</time>
      </trkpt>
      <trkpt lat="43.4871710" lon="-7.2338020">
        <ele>213.9</ele>
        <time>2014-07-29T09:52:35Z</time>
      </trkpt>
      <trkpt lat="43.4870790" lon="-7.2338510">
        <ele>213.2</ele>
        <time>2014-07-29T09:52:36Z</time>
      </trkpt>
      <trkpt lat="43.4869970" lon="-7.2339110">
        <ele>212.5</ele>
        <time>2014-07-29T09:52:37Z</time>
      </trkpt>
      <trkpt lat="43.4869260" lon="-7.2339830">
        <ele>211.9</ele>
        <time>2014-07-29T09:52:38Z</time>
      </trkpt>
      <trkpt lat="43.4868690" lon="-7.2340740">
        <ele>211.3</ele>
        <time>2014-07-29T09:52:39Z</time>
      </trkpt>
      <trkpt lat="43.4868310" lon="-7.2341810">
        <ele>210.6</ele>
        <time>2014-07-29T09:52:40Z</time>
      </trkpt>
      <trkpt lat="43.4868120" lon="-7.2343000">
        <ele>209.9</ele>
        <time>2014-07-29T09:52:41Z</time>
      </trkpt>
      <trkpt lat="43.4868090" lon="-7.2344300">
        <ele>209.0</ele>
        <time>2014-07-29T09:52:42Z</time>
      </trkpt>
      <trkpt lat="43.4868200" lon="-7.2345650">
        <ele>208.1</ele>
        <time>2014-07-29T09:52:43Z</time>
      </trkpt>
      <trkpt lat="43.4868440" lon="-7.2347030">
        <ele>207.1</ele>
        <time>2014-07-29T09:52:44Z</time>
      </trkpt>
      <trkpt lat="43.4868750" lon="-7.2348430">
        <ele>206.1</ele>
        <time>2014-07-29T09:52:45Z</time>
      </trkpt>
      <trkpt lat="43.4870100" lon="-7.2354100">
        <ele>202.5</ele>
        <time>2014-07-29T09:52:49Z</time>
      </trkpt>
      <trkpt lat="43.4871550" lon="-7.2359950">
        <ele>199.3</ele>
        <time>2014-07-29T09:52:53Z</time>
      </trkpt>
      <trkpt lat="43.4873420" lon="-7.2365340">
        <ele>196.7</ele>
        <time>2014-07-29T09:52:57Z</time>
      </trkpt>
      <trkpt lat="43.4876200" lon="-7.2371720">
        <ele>193.1</ele>
        <time>2014-07-29T09:53:02Z</time>
      </trkpt>
      <trkpt lat="43.4876560" lon="-7.2373080">
        <ele>192.3</ele>
        <time>2014-07-29T09:53:03Z</time>
      </trkpt>
      <trkpt lat="43.4876840" lon="-7.2374400">
        <ele>191.5</ele>
        <time>2014-07-29T09:53:04Z</time>
      </trkpt>
      <trkpt lat="43.4877040" lon="-7.2375720">
        <ele>190.9</ele>
        <time>2014-07-29T09:53:05Z</time>
      </trkpt>
      <trkpt lat="43.4877180" lon="-7.2377030">
        <ele>190.3</ele>
        <time>2014-07-29T09:53:06Z</time>
      </trkpt>
      <trkpt lat="43.4877230" lon="-7.2378320">
        <ele>189.8</ele>
        <time>2014-07-29T09:53:07Z</time>
      </trkpt>
      <trkpt lat="43.4877160" lon="-7.2379590">
        <ele>189.4</ele>
        <time>2014-07-29T09:53:08Z</time>
      </trkpt>
      <trkpt lat="43.4877000" lon="-7.2380820">
        <ele>188.7</ele>
        <time>2014-07-29T09:53:09Z</time>
      </trkpt>
      <trkpt lat="43.4876780" lon="-7.2382000">
        <ele>188.0</ele>
        <time>2014-07-29T09:53:10Z</time>
      </trkpt>
      <trkpt lat="43.4876240" lon="-7.2384030">
        <ele>186.5</ele>
        <time>2014-07-29T09:53:12Z</time>
      </trkpt>
      <trkpt lat="43.4875850" lon="-7.2384910">
        <ele>185.9</ele>
        <time>2014-07-29T09:53:13Z</time>
      </trkpt>
      <trkpt lat="43.4875280" lon="-7.2385600">
        <ele>185.2</ele>
        <time>2014-07-29T09:53:14Z</time>
      </trkpt>
      <trkpt lat="43.4874590" lon="-7.2386070">
        <ele>184.3</ele>
        <time>2014-07-29T09:53:15Z</time>
      </trkpt>
      <trkpt lat="43.4873830" lon="-7.2386380">
        <ele>183.3</ele>
        <time>2014-07-29T09:53:16Z</time>
      </trkpt>
      <trkpt lat="43.4873040" lon="-7.2386610">
        <ele>182.3</ele>
        <time>2014-07-29T09:53:17Z</time>
      </trkpt>
      <trkpt lat="43.4872210" lon="-7.2386820">
        <ele>181.3</ele>
        <time>2014-07-29T09:53:18Z</time>
      </trkpt>
      <trkpt lat="43.4871320" lon="-7.2387000">
        <ele>180.4</ele>
        <time>2014-07-29T09:53:19Z</time>
      </trkpt>
      <trkpt lat="43.4867780" lon="-7.2387760">
        <ele>178.1</ele>
        <time>2014-07-29T09:53:23Z</time>
      </trkpt>
      <trkpt lat="43.4864250" lon="-7.2388540">
        <ele>175.7</ele>
        <time>2014-07-29T09:53:27Z</time>
      </trkpt>
      <trkpt lat="43.4860200" lon="-7.2389770">
        <ele>172.9</ele>
        <time>2014-07-29T09:53:32Z</time>
      </trkpt>
      <trkpt lat="43.4859500" lon="-7.2390170">
        <ele>172.5</ele>
        <time>2014-07-29T09:53:33Z</time>
      </trkpt>
      <trkpt lat="43.4858830" lon="-7.2390630">
        <ele>172.1</ele>
        <time>2014-07-29T09:53:34Z</time>
      </trkpt>
      <trkpt lat="43.4858220" lon="-7.2391160">
        <ele>171.7</ele>
        <time>2014-07-29T09:53:35Z</time>
      </trkpt>
      <trkpt lat="43.4857660" lon="-7.2391760">
        <ele>171.4</ele>
        <time>2014-07-29T09:53:36Z</time>
      </trkpt>
      <trkpt lat="43.4857150" lon="-7.2392490">
        <ele>171.1</ele>
        <time>2014-07-29T09:53:37Z</time>
      </trkpt>
      <trkpt lat="43.4856730" lon="-7.2393320">
        <ele>170.6</ele>
        <time>2014-07-29T09:53:38Z</time>
      </trkpt>
      <trkpt lat="43.4856440" lon="-7.2394260">
        <ele>170.0</ele>
        <time>2014-07-29T09:53:39Z</time>
      </trkpt>
      <trkpt lat="43.4856260" lon="-7.2395280">
        <ele>169.3</ele>
        <time>2014-07-29T09:53:40Z</time>
      </trkpt>
      <trkpt lat="43.4856190" lon="-7.2396340">
        <ele>168.4</ele>
        <time>2014-07-29T09:53:41Z</time>
      </trkpt>
      <trkpt lat="43.4856190" lon="-7.2397430">
        <ele>167.7</ele>
        <time>2014-07-29T09:53:42Z</time>
      </trkpt>
      <trkpt lat="43.4856370" lon="-7.2400930">
        <ele>165.3</ele>
        <time>2014-07-29T09:53:45Z</time>
      </trkpt>
      <trkpt lat="43.4856670" lon="-7.2406840">
        <ele>161.2</ele>
        <time>2014-07-29T09:53:51Z</time>
      </trkpt>
      <trkpt lat="43.4856790" lon="-7.2407620">
        <ele>161.0</ele>
        <time>2014-07-29T09:53:52Z</time>
      </trkpt>
      <trkpt lat="43.4857030" lon="-7.2408330">
        <ele>160.9</ele>
        <time>2014-07-29T09:53:53Z</time>
      </trkpt>
      <trkpt lat="43.4857410" lon="-7.2408920">
        <ele>161.0</ele>
        <time>2014-07-29T09:53:54Z</time>
      </trkpt>
      <trkpt lat="43.4857900" lon="-7.2409370">
        <ele>161.3</ele>
        <time>2014-07-29T09:53:55Z</time>
      </trkpt>
      <trkpt lat="43.4858420" lon="-7.2409710">
        <ele>161.4</ele>
        <time>2014-07-29T09:53:56Z</time>
      </trkpt>
      <trkpt lat="43.4858940" lon="-7.2409970">
        <ele>161.6</ele>
        <time>2014-07-29T09:53:57Z</time>
      </trkpt>
      <trkpt lat="43.4867210" lon="-7.2414830">
        <ele>161.3</ele>
        <time>2014-07-29T09:54:13Z</time>
      </trkpt>
      <trkpt lat="43.4873770" lon="-7.2418920">
        <ele>160.7</ele>
        <time>2014-07-29T09:54:28Z</time>
      </trkpt>
      <trkpt lat="43.4874910" lon="-7.2420180">
        <ele>160.8</ele>
        <time>2014-07-29T09:54:33Z</time>
      </trkpt>
      <trkpt lat="43.4874940" lon="-7.2420560">
        <ele>160.8</ele>
        <time>2014-07-29T09:54:34Z</time>
      </trkpt>
      <trkpt lat="43.4874930" lon="-7.2420950">
        <ele>160.8</ele>
        <time>2014-07-29T09:54:35Z</time>
      </trkpt>
      <trkpt lat="43.4874860" lon="-7.2421390">
        <ele>160.6</ele>
        <time>2014-07-29T09:54:36Z</time>
      </trkpt>
      <trkpt lat="43.4874730" lon="-7.2421900">
        <ele>160.5</ele>
        <time>2014-07-29T09:54:37Z</time>
      </trkpt>
      <trkpt lat="43.4874230" lon="-7.2424740">
        <ele>159.9</ele>
        <time>2014-07-29T09:54:41Z</time>
      </trkpt>
      <trkpt lat="43.4873560" lon="-7.2432770">
        <ele>158.1</ele>
        <time>2014-07-29T09:54:49Z</time>
      </trkpt>
      <trkpt lat="43.4873090" lon="-7.2440190">
        <ele>155.5</ele>
        <time>2014-07-29T09:54:55Z</time>
      </trkpt>
      <trkpt lat="43.4872760" lon="-7.2445650">
        <ele>153.6</ele>
        <time>2014-07-29T09:54:59Z</time>
      </trkpt>
      <trkpt lat="43.4872390" lon="-7.2451510">
        <ele>151.8</ele>
        <time>2014-07-29T09:55:03Z</time>
      </trkpt>
      <trkpt lat="43.4872040" lon="-7.2457690">
        <ele>149.0</ele>
        <time>2014-07-29T09:55:07Z</time>
      </trkpt>
      <trkpt lat="43.4871700" lon="-7.2464320">
        <ele>145.6</ele>
        <time>2014-07-29T09:55:11Z</time>
      </trkpt>
      <trkpt lat="43.4871380" lon="-7.2469580">
        <ele>142.5</ele>
        <time>2014-07-29T09:55:14Z</time>
      </trkpt>
      <trkpt lat="43.4871130" lon="-7.2473230">
        <ele>140.2</ele>
        <time>2014-07-29T09:55:16Z</time>
      </trkpt>
      <trkpt lat="43.4870870" lon="-7.2478650">
        <ele>136.1</ele>
        <time>2014-07-29T09:55:19Z</time>
      </trkpt>
      <trkpt lat="43.4870650" lon="-7.2483720">
        <ele>132.4</ele>
        <time>2014-07-29T09:55:22Z</time>
      </trkpt>
      <trkpt lat="43.4870420" lon="-7.2488880">
        <ele>129.4</ele>
        <time>2014-07-29T09:55:25Z</time>
      </trkpt>
      <trkpt lat="43.4870170" lon="-7.2492290">
        <ele>127.6</ele>
        <time>2014-07-29T09:55:27Z</time>
      </trkpt>
      <trkpt lat="43.4869660" lon="-7.2498540">
        <ele>124.3</ele>
        <time>2014-07-29T09:55:31Z</time>
      </trkpt>
      <trkpt lat="43.4868920" lon="-7.2510050">
        <ele>120.0</ele>
        <time>2014-07-29T09:55:39Z</time>
      </trkpt>
      <trkpt lat="43.4868880" lon="-7.2510810">
        <ele>119.6</ele>
        <time>2014-07-29T09:55:40Z</time>
      </trkpt>
      <trkpt lat="43.4868840" lon="-7.2511300">
        <ele>119.3</ele>
        <time>2014-07-29T09:55:41Z</time>
      </trkpt>
      <trkpt lat="43.4868710" lon="-7.2511770">
        <ele>119.0</ele>
        <time>2014-07-29T09:55:42Z</time>
      </trkpt>
      <trkpt lat="43.4868470" lon="-7.2512230">
        <ele>118.4</ele>
        <time>2014-07-29T09:55:43Z</time>
      </trkpt>
      <trkpt lat="43.4868180" lon="-7.2512700">
        <ele>118.1</ele>
        <time>2014-07-29T09:55:44Z</time>
      </trkpt>
      <trkpt lat="43.4867900" lon="-7.2513260">
        <ele>117.6</ele>
        <time>2014-07-29T09:55:45Z</time>
      </trkpt>
      <trkpt lat="43.4867550" lon="-7.2513910">
        <ele>117.1</ele>
        <time>2014-07-29T09:55:46Z</time>
      </trkpt>
      <trkpt lat="43.4865670" lon="-7.2517420">
        <ele>114.9</ele>
        <time>2014-07-29T09:55:50Z</time>
      </trkpt>
      <trkpt lat="43.4863950" lon="-7.2520350">
        <ele>112.6</ele>
        <time>2014-07-29T09:55:53Z</time>
      </trkpt>
      <trkpt lat="43.4861760" lon="-7.2523710">
        <ele>108.9</ele>
        <time>2014-07-29T09:55:57Z</time>
      </trkpt>
      <trkpt lat="43.4861300" lon="-7.2524300">
        <ele>108.0</ele>
        <time>2014-07-29T09:55:58Z</time>
      </trkpt>
      <trkpt lat="43.4860910" lon="-7.2524760">
        <ele>107.2</ele>
        <time>2014-07-29T09:55:59Z</time>
      </trkpt>
      <trkpt lat="43.4860540" lon="-7.2525120">
        <ele>106.4</ele>
        <time>2014-07-29T09:56:00Z</time>
      </trkpt>
      <trkpt lat="43.4860150" lon="-7.2525350">
        <ele>105.4</ele>
        <time>2014-07-29T09:56:01Z</time>
      </trkpt>
      <trkpt lat="43.4859700" lon="-7.2525340">
        <ele>104.7</ele>
        <time>2014-07-29T09:56:02Z</time>
      </trkpt>
      <trkpt lat="43.4859180" lon="-7.2525050">
        <ele>103.7</ele>
        <time>2014-07-29T09:56:03Z</time>
      </trkpt>
      <trkpt lat="43.4858660" lon="-7.2524560">
        <ele>102.8</ele>
        <time>2014-07-29T09:56:04Z</time>
      </trkpt>
      <trkpt lat="43.4858120" lon="-7.2523960">
        <ele>101.6</ele>
        <time>2014-07-29T09:56:05Z</time>
      </trkpt>
      <trkpt lat="43.4857120" lon="-7.2522820">
        <ele>100.0</ele>
        <time>2014-07-29T09:56:07Z</time>
      </trkpt>
      <trkpt lat="43.4856570" lon="-7.2522390">
        <ele>99.2</ele>
        <time>2014-07-29T09:56:08Z</time>
      </trkpt>
      <trkpt lat="43.4855950" lon="-7.2522110">
        <ele>98.4</ele>
        <time>2014-07-29T09:56:09Z</time>
      </trkpt>
      <trkpt lat="43.4855320" lon="-7.2521960">
        <ele>97.6</ele>
        <time>2014-07-29T09:56:10Z</time>
      </trkpt>
      <trkpt lat="43.4854720" lon="-7.2521870">
        <ele>96.5</ele>
        <time>2014-07-29T09:56:11Z</time>
      </trkpt>
      <trkpt lat="43.4854150" lon="-7.2521840">
        <ele>95.3</ele>
        <time>2014-07-29T09:56:12Z</time>
      </trkpt>
      <trkpt lat="43.4853070" lon="-7.2521750">
        <ele>93.3</ele>
        <time>2014-07-29T09:56:14Z</time>
      </trkpt>
      <trkpt lat="43.4852630" lon="-7.2521780">
        <ele>92.2</ele>
        <time>2014-07-29T09:56:15Z</time>
      </trkpt>
      <trkpt lat="43.4852300" lon="-7.2521880">
        <ele>91.5</ele>
        <time>2014-07-29T09:56:16Z</time>
      </trkpt>
      <trkpt lat="43.4852090" lon="-7.2522160">
        <ele>90.8</ele>
        <time>2014-07-29T09:56:17Z</time>
      </trkpt>
      <trkpt lat="43.4851990" lon="-7.2522670">
        <ele>89.9</ele>
        <time>2014-07-29T09:56:18Z</time>
      </trkpt>
      <trkpt lat="43.4851970" lon="-7.2523280">
        <ele>88.9</ele>
        <time>2014-07-29T09:56:19Z</time>
      </trkpt>
      <trkpt lat="43.4851890" lon="-7.2523980">
        <ele>88.7</ele>
        <time>2014-07-29T09:56:20Z</time>
      </trkpt>
      <trkpt lat="43.4851710" lon="-7.2524710">
        <ele>88.5</ele>
        <time>2014-07-29T09:56:21Z</time>
      </trkpt>
      <trkpt lat="43.4851500" lon="-7.2525460">
        <ele>88.3</ele>
        <time>2014-07-29T09:56:22Z</time>
      </trkpt>
      <trkpt lat="43.4851290" lon="-7.2526240">
        <ele>88.2</ele>
        <time>2014-07-29T09:56:23Z</time>
      </trkpt>
      <trkpt lat="43.4848800" lon="-7.2535210">
        <ele>88.7</ele>
        <time>2014-07-29T09:56:36Z</time>
      </trkpt>
      <trkpt lat="43.4848630" lon="-7.2540080">
        <ele>90.6</ele>
        <time>2014-07-29T09:56:50Z</time>
      </trkpt>
      <trkpt lat="43.4850250" lon="-7.2544310">
        <ele>91.6</ele>
        <time>2014-07-29T09:57:04Z</time>
      </trkpt>
      <trkpt lat="43.4851580" lon="-7.2547430">
        <ele>93.9</ele>
        <time>2014-07-29T09:57:21Z</time>
      </trkpt>
      <trkpt lat="43.4851880" lon="-7.2547860">
        <ele>94.3</ele>
        <time>2014-07-29T09:57:24Z</time>
      </trkpt>
      <trkpt lat="43.4851940" lon="-7.2548000">
        <ele>94.5</ele>
        <time>2014-07-29T09:57:25Z</time>
      </trkpt>
      <trkpt lat="43.4852030" lon="-7.2548130">
        <ele>94.6</ele>
        <time>2014-07-29T09:57:26Z</time>
      </trkpt>
      <trkpt lat="43.4852130" lon="-7.2548260">
        <ele>94.8</ele>
        <time>2014-07-29T09:57:27Z</time>
      </trkpt>
      <trkpt lat="43.4852250" lon="-7.2548360">
        <ele>95.0</ele>
        <time>2014-07-29T09:57:28Z</time>
      </trkpt>
      <trkpt lat="43.4852380" lon="-7.2548440">
        <ele>95.1</ele>
        <time>2014-07-29T09:57:29Z</time>
      </trkpt>
      <trkpt lat="43.4852940" lon="-7.2548770">
        <ele>95.9</ele>
        <time>2014-07-29T09:57:42Z</time>
      </trkpt>
      <trkpt lat="43.4852950" lon="-7.2548810">
        <ele>96.0</ele>
        <time>2014-07-29T09:58:07Z</time>
      </trkpt>
      <trkpt lat="43.4853430" lon="-7.2549140">
        <ele>96.7</ele>
        <time>2014-07-29T09:58:15Z</time>
      </trkpt>
      <trkpt lat="43.4853590" lon="-7.2549240">
        <ele>96.9</ele>
        <time>2014-07-29T09:58:16Z</time>
      </trkpt>
      <trkpt lat="43.4855380" lon="-7.2551910">
        <ele>99.4</ele>
        <time>2014-07-29T09:58:32Z</time>
      </trkpt>
      <trkpt lat="43.4855890" lon="-7.2554900">
        <ele>100.4</ele>
        <time>2014-07-29T09:58:44Z</time>
      </trkpt>
      <trkpt lat="43.4856360" lon="-7.2557890">
        <ele>100.8</ele>
        <time>2014-07-29T09:58:58Z</time>
      </trkpt>
      <trkpt lat="43.4856420" lon="-7.2557980">
        <ele>100.8</ele>
        <time>2014-07-29T09:59:14Z</time>
      </trkpt>
      <trkpt lat="43.4856410" lon="-7.2557920">
        <ele>100.8</ele>
        <time>2014-07-29T09:59:48Z</time>
      </trkpt>
      <trkpt lat="43.4856410" lon="-7.2557920">
        <ele>100.8</ele>
        <time>2014-07-29T10:00:25Z</time>
      </trkpt>
      <trkpt lat="43.4856420" lon="-7.2557900">
        <ele>100.8</ele>
        <time>2014-07-29T10:00:59Z</time>
      </trkpt>
      <trkpt lat="43.4856370" lon="-7.2558310">
        <ele>100.8</ele>
        <time>2014-07-29T10:01:16Z</time>
      </trkpt>
      <trkpt lat="43.4856380" lon="-7.2558560">
        <ele>100.8</ele>
        <time>2014-07-29T10:01:17Z</time>
      </trkpt>
      <trkpt lat="43.4856810" lon="-7.2564890">
        <ele>100.5</ele>
        <time>2014-07-29T10:01:32Z</time>
      </trkpt>
      <trkpt lat="43.4857620" lon="-7.2572130">
        <ele>99.5</ele>
        <time>2014-07-29T10:01:46Z</time>
      </trkpt>
      <trkpt lat="43.4858010" lon="-7.2579100">
        <ele>99.4</ele>
        <time>2014-07-29T10:02:04Z</time>
      </trkpt>
      <trkpt lat="43.4858070" lon="-7.2579320">
        <ele>99.4</ele>
        <time>2014-07-29T10:02:16Z</time>
      </trkpt>
      <trkpt lat="43.4858080" lon="-7.2580210">
        <ele>99.5</ele>
        <time>2014-07-29T10:02:33Z</time>
      </trkpt>
      <trkpt lat="43.4858120" lon="-7.2580490">
        <ele>99.5</ele>
        <time>2014-07-29T10:02:47Z</time>
      </trkpt>
      <trkpt lat="43.4858120" lon="-7.2580510">
        <ele>99.5</ele>
        <time>2014-07-29T10:03:20Z</time>
      </trkpt>
      <trkpt lat="43.4858120" lon="-7.2580510">
        <ele>99.5</ele>
        <time>2014-07-29T10:03:53Z</time>
      </trkpt>
      <trkpt lat="43.4858130" lon="-7.2580500">
        <ele>99.5</ele>
        <time>2014-07-29T10:04:28Z</time>
      </trkpt>
      <trkpt lat="43.4858120" lon="-7.2580510">
        <ele>99.5</ele>
        <time>2014-07-29T10:05:03Z</time>
      </trkpt>
      <trkpt lat="43.4858100" lon="-7.2580500">
        <ele>99.5</ele>
        <time>2014-07-29T10:05:37Z</time>
      </trkpt>
      <trkpt lat="43.4858110" lon="-7.2580550">
        <ele>99.5</ele>
        <time>2014-07-29T10:06:12Z</time>
      </trkpt>
      <trkpt lat="43.4858120" lon="-7.2580540">
        <ele>99.5</ele>
        <time>2014-07-29T10:06:52Z</time>
      </trkpt>
      <trkpt lat="43.4858090" lon="-7.2580460">
        <ele>99.5</ele>
        <time>2014-07-29T10:07:26Z</time>
      </trkpt>
      <trkpt lat="43.4858090" lon="-7.2580450">
        <ele>99.5</ele>
        <time>2014-07-29T10:08:07Z</time>
      </trkpt>
      <trkpt lat="43.4858090" lon="-7.2580460">
        <ele>99.5</ele>
        <time>2014-07-29T10:08:43Z</time>
      </trkpt>
      <trkpt lat="43.4858120" lon="-7.2580440">
        <ele>99.5</ele>
        <time>2014-07-29T10:09:19Z</time>
      </trkpt>
      <trkpt lat="43.4858120" lon="-7.2580440">
        <ele>99.5</ele>
        <time>2014-07-29T10:09:53Z</time>
      </trkpt>
      <trkpt lat="43.4858090" lon="-7.2580440">
        <ele>99.5</ele>
        <time>2014-07-29T10:10:30Z</time>
      </trkpt>
      <trkpt lat="43.4858090" lon="-7.2580420">
        <ele>99.5</ele>
        <time>2014-07-29T10:11:01Z</time>
      </trkpt>
      <trkpt lat="43.4858030" lon="-7.2580400">
        <ele>99.5</ele>
        <time>2014-07-29T10:11:34Z</time>
      </trkpt>
      <trkpt lat="43.4858030" lon="-7.2580400">
        <ele>99.5</ele>
        <time>2014-07-29T10:12:09Z</time>
      </trkpt>
      <trkpt lat="43.4858030" lon="-7.2580400">
        <ele>99.5</ele>
        <time>2014-07-29T10:12:42Z</time>
      </trkpt>
      <trkpt lat="43.4858070" lon="-7.2580370">
        <ele>99.6</ele>
        <time>2014-07-29T10:13:18Z</time>
      </trkpt>
      <trkpt lat="43.4858070" lon="-7.2580370">
        <ele>99.6</ele>
        <time>2014-07-29T10:13:51Z</time>
      </trkpt>
      <trkpt lat="43.4858080" lon="-7.2580360">
        <ele>99.6</ele>
        <time>2014-07-29T10:14:27Z</time>
      </trkpt>
      <trkpt lat="43.4858150" lon="-7.2580370">
        <ele>99.6</ele>
        <time>2014-07-29T10:15:04Z</time>
      </trkpt>
      <trkpt lat="43.4858180" lon="-7.2580330">
        <ele>99.6</ele>
        <time>2014-07-29T10:15:41Z</time>
      </trkpt>
      <trkpt lat="43.4858160" lon="-7.2580340">
        <ele>99.6</ele>
        <time>2014-07-29T10:16:14Z</time>
      </trkpt>
      <trkpt lat="43.4858130" lon="-7.2580480">
        <ele>99.6</ele>
        <time>2014-07-29T10:16:54Z</time>
      </trkpt>
      <trkpt lat="43.4858130" lon="-7.2580500">
        <ele>99.6</ele>
        <time>2014-07-29T10:17:29Z</time>
      </trkpt>
      <trkpt lat="43.4858140" lon="-7.2580500">
        <ele>99.6</ele>
        <time>2014-07-29T10:17:57Z</time>
      </trkpt>
      <trkpt lat="43.4858140" lon="-7.2580500">
        <ele>99.6</ele>
        <time>2014-07-29T10:18:32Z</time>
      </trkpt>
      <trkpt lat="43.4858180" lon="-7.2580510">
        <ele>99.6</ele>
        <time>2014-07-29T10:19:05Z</time>
      </trkpt>
      <trkpt lat="43.4858210" lon="-7.2580520">
        <ele>99.6</ele>
        <time>2014-07-29T10:19:36Z</time>
      </trkpt>
      <trkpt lat="43.4858180" lon="-7.2580540">
        <ele>99.6</ele>
        <time>2014-07-29T10:20:15Z</time>
      </trkpt>
      <trkpt lat="43.4858200" lon="-7.2580490">
        <ele>99.6</ele>
        <time>2014-07-29T10:20:47Z</time>
      </trkpt>
      <trkpt lat="43.4858250" lon="-7.2580520">
        <ele>99.6</ele>
        <time>2014-07-29T10:21:27Z</time>
      </trkpt>
      <trkpt lat="43.4858250" lon="-7.2580570">
        <ele>99.6</ele>
        <time>2014-07-29T10:21:58Z</time>
      </trkpt>
      <trkpt lat="43.4858250" lon="-7.2580570">
        <ele>99.6</ele>
        <time>2014-07-29T10:22:27Z</time>
      </trkpt>
      <trkpt lat="43.4858260" lon="-7.2580570">
        <ele>99.6</ele>
        <time>2014-07-29T10:22:56Z</time>
      </trkpt>
      <trkpt lat="43.4858270" lon="-7.2580580">
        <ele>99.6</ele>
        <time>2014-07-29T10:23:29Z</time>
      </trkpt>
      <trkpt lat="43.4858120" lon="-7.2581060">
        <ele>99.7</ele>
        <time>2014-07-29T10:23:40Z</time>
      </trkpt>
      <trkpt lat="43.4858880" lon="-7.2582200">
        <ele>99.9</ele>
        <time>2014-07-29T10:23:51Z</time>
      </trkpt>
      <trkpt lat="43.4861730" lon="-7.2582630">
        <ele>100.2</ele>
        <time>2014-07-29T10:24:04Z</time>
      </trkpt>
      <trkpt lat="43.4862320" lon="-7.2583430">
        <ele>100.8</ele>
        <time>2014-07-29T10:24:09Z</time>
      </trkpt>
      <trkpt lat="43.4862390" lon="-7.2583640">
        <ele>100.9</ele>
        <time>2014-07-29T10:24:10Z</time>
      </trkpt>
      <trkpt lat="43.4862400" lon="-7.2583860">
        <ele>100.9</ele>
        <time>2014-07-29T10:24:11Z</time>
      </trkpt>
      <trkpt lat="43.4862360" lon="-7.2584110">
        <ele>101.0</ele>
        <time>2014-07-29T10:24:12Z</time>
      </trkpt>
      <trkpt lat="43.4862300" lon="-7.2584360">
        <ele>101.1</ele>
        <time>2014-07-29T10:24:13Z</time>
      </trkpt>
      <trkpt lat="43.4862210" lon="-7.2584610">
        <ele>101.2</ele>
        <time>2014-07-29T10:24:14Z</time>
      </trkpt>
      <trkpt lat="43.4862120" lon="-7.2584850">
        <ele>101.3</ele>
        <time>2014-07-29T10:24:15Z</time>
      </trkpt>
      <trkpt lat="43.4862040" lon="-7.2585130">
        <ele>101.4</ele>
        <time>2014-07-29T10:24:16Z</time>
      </trkpt>
      <trkpt lat="43.4861180" lon="-7.2588830">
        <ele>102.9</ele>
        <time>2014-07-29T10:24:31Z</time>
      </trkpt>
      <trkpt lat="43.4861020" lon="-7.2589710">
        <ele>103.3</ele>
        <time>2014-07-29T10:24:35Z</time>
      </trkpt>
      <trkpt lat="43.4860950" lon="-7.2589910">
        <ele>103.4</ele>
        <time>2014-07-29T10:24:36Z</time>
      </trkpt>
      <trkpt lat="43.4860820" lon="-7.2591910">
        <ele>104.2</ele>
        <time>2014-07-29T10:24:45Z</time>
      </trkpt>
      <trkpt lat="43.4860880" lon="-7.2592100">
        <ele>104.2</ele>
        <time>2014-07-29T10:24:46Z</time>
      </trkpt>
      <trkpt lat="43.4860940" lon="-7.2592280">
        <ele>104.3</ele>
        <time>2014-07-29T10:24:47Z</time>
      </trkpt>
      <trkpt lat="43.4861020" lon="-7.2592490">
        <ele>104.4</ele>
        <time>2014-07-29T10:24:48Z</time>
      </trkpt>
      <trkpt lat="43.4861080" lon="-7.2592720">
        <ele>104.5</ele>
        <time>2014-07-29T10:24:49Z</time>
      </trkpt>
      <trkpt lat="43.4861670" lon="-7.2595970">
        <ele>105.6</ele>
        <time>2014-07-29T10:25:05Z</time>
      </trkpt>
      <trkpt lat="43.4861710" lon="-7.2596190">
        <ele>105.7</ele>
        <time>2014-07-29T10:25:06Z</time>
      </trkpt>
      <trkpt lat="43.4861800" lon="-7.2596350">
        <ele>105.8</ele>
        <time>2014-07-29T10:25:07Z</time>
      </trkpt>
      <trkpt lat="43.4861900" lon="-7.2596440">
        <ele>105.8</ele>
        <time>2014-07-29T10:25:08Z</time>
      </trkpt>
      <trkpt lat="43.4861990" lon="-7.2596570">
        <ele>105.9</ele>
        <time>2014-07-29T10:25:09Z</time>
      </trkpt>
      <trkpt lat="43.4862090" lon="-7.2596700">
        <ele>105.9</ele>
        <time>2014-07-29T10:25:10Z</time>
      </trkpt>
      <trkpt lat="43.4862160" lon="-7.2596860">
        <ele>106.0</ele>
        <time>2014-07-29T10:25:11Z</time>
      </trkpt>
      <trkpt lat="43.4862240" lon="-7.2597030">
        <ele>106.1</ele>
        <time>2014-07-29T10:25:12Z</time>
      </trkpt>
      <trkpt lat="43.4862320" lon="-7.2597200">
        <ele>106.1</ele>
        <time>2014-07-29T10:25:13Z</time>
      </trkpt>
      <trkpt lat="43.4862420" lon="-7.2597340">
        <ele>106.2</ele>
        <time>2014-07-29T10:25:14Z</time>
      </trkpt>
      <trkpt lat="43.4862510" lon="-7.2597490">
        <ele>106.3</ele>
        <time>2014-07-29T10:25:15Z</time>
      </trkpt>
      <trkpt lat="43.4863840" lon="-7.2599690">
        <ele>107.4</ele>
        <time>2014-07-29T10:25:31Z</time>
      </trkpt>
      <trkpt lat="43.4865210" lon="-7.2602680">
        <ele>109.1</ele>
        <time>2014-07-29T10:25:49Z</time>
      </trkpt>
      <trkpt lat="43.4866030" lon="-7.2605040">
        <ele>110.1</ele>
        <time>2014-07-29T10:26:03Z</time>
      </trkpt>
      <trkpt lat="43.4866300" lon="-7.2608050">
        <ele>111.1</ele>
        <time>2014-07-29T10:26:20Z</time>
      </trkpt>
      <trkpt lat="43.4867320" lon="-7.2612170">
        <ele>112.3</ele>
        <time>2014-07-29T10:26:40Z</time>
      </trkpt>
      <trkpt lat="43.4868210" lon="-7.2615840">
        <ele>113.6</ele>
        <time>2014-07-29T10:26:56Z</time>
      </trkpt>
      <trkpt lat="43.4868960" lon="-7.2619780">
        <ele>115.0</ele>
        <time>2014-07-29T10:27:13Z</time>
      </trkpt>
      <trkpt lat="43.4869050" lon="-7.2623800">
        <ele>116.9</ele>
        <time>2014-07-29T10:27:31Z</time>
      </trkpt>
      <trkpt lat="43.4869020" lon="-7.2626480">
        <ele>118.9</ele>
        <time>2014-07-29T10:27:45Z</time>
      </trkpt>
      <trkpt lat="43.4869350" lon="-7.2629010">
        <ele>120.8</ele>
        <time>2014-07-29T10:28:00Z</time>
      </trkpt>
      <trkpt lat="43.4869400" lon="-7.2629200">
        <ele>120.9</ele>
        <time>2014-07-29T10:28:01Z</time>
      </trkpt>
      <trkpt lat="43.4870040" lon="-7.2631350">
        <ele>122.7</ele>
        <time>2014-07-29T10:28:14Z</time>
      </trkpt>
      <trkpt lat="43.4870090" lon="-7.2631500">
        <ele>122.8</ele>
        <time>2014-07-29T10:28:15Z</time>
      </trkpt>
      <trkpt lat="43.4870150" lon="-7.2631660">
        <ele>123.0</ele>
        <time>2014-07-29T10:28:16Z</time>
      </trkpt>
      <trkpt lat="43.4870190" lon="-7.2631820">
        <ele>123.1</ele>
        <time>2014-07-29T10:28:17Z</time>
      </trkpt>
      <trkpt lat="43.4870240" lon="-7.2631970">
        <ele>123.2</ele>
        <time>2014-07-29T10:28:18Z</time>
      </trkpt>
      <trkpt lat="43.4870290" lon="-7.2632120">
        <ele>123.3</ele>
        <time>2014-07-29T10:28:19Z</time>
      </trkpt>
      <trkpt lat="43.4870390" lon="-7.2632370">
        <ele>123.5</ele>
        <time>2014-07-29T10:28:21Z</time>
      </trkpt>
      <trkpt lat="43.4870440" lon="-7.2632500">
        <ele>123.6</ele>
        <time>2014-07-29T10:28:22Z</time>
      </trkpt>
      <trkpt lat="43.4871230" lon="-7.2634690">
        <ele>125.4</ele>
        <time>2014-07-29T10:28:37Z</time>
      </trkpt>
      <trkpt lat="43.4872180" lon="-7.2636780">
        <ele>127.2</ele>
        <time>2014-07-29T10:28:52Z</time>
      </trkpt>
      <trkpt lat="43.4873360" lon="-7.2639230">
        <ele>130.1</ele>
        <time>2014-07-29T10:29:11Z</time>
      </trkpt>
      <trkpt lat="43.4874820" lon="-7.2641490">
        <ele>135.2</ele>
        <time>2014-07-29T10:29:30Z</time>
      </trkpt>
      <trkpt lat="43.4875880" lon="-7.2643480">
        <ele>139.5</ele>
        <time>2014-07-29T10:29:45Z</time>
      </trkpt>
      <trkpt lat="43.4877270" lon="-7.2645740">
        <ele>141.8</ele>
        <time>2014-07-29T10:30:04Z</time>
      </trkpt>
      <trkpt lat="43.4877570" lon="-7.2646530">
        <ele>142.0</ele>
        <time>2014-07-29T10:30:10Z</time>
      </trkpt>
      <trkpt lat="43.4877580" lon="-7.2646700">
        <ele>142.1</ele>
        <time>2014-07-29T10:30:11Z</time>
      </trkpt>
      <trkpt lat="43.4877600" lon="-7.2646840">
        <ele>142.1</ele>
        <time>2014-07-29T10:30:12Z</time>
      </trkpt>
      <trkpt lat="43.4877440" lon="-7.2649310">
        <ele>144.3</ele>
        <time>2014-07-29T10:30:27Z</time>
      </trkpt>
      <trkpt lat="43.4876610" lon="-7.2652160">
        <ele>147.5</ele>
        <time>2014-07-29T10:30:45Z</time>
      </trkpt>
      <trkpt lat="43.4875830" lon="-7.2654760">
        <ele>150.2</ele>
        <time>2014-07-29T10:31:02Z</time>
      </trkpt>
      <trkpt lat="43.4874950" lon="-7.2657790">
        <ele>153.6</ele>
        <time>2014-07-29T10:31:21Z</time>
      </trkpt>
      <trkpt lat="43.4874780" lon="-7.2658250">
        <ele>154.1</ele>
        <time>2014-07-29T10:31:24Z</time>
      </trkpt>
      <trkpt lat="43.4874680" lon="-7.2658380">
        <ele>154.4</ele>
        <time>2014-07-29T10:31:25Z</time>
      </trkpt>
      <trkpt lat="43.4874570" lon="-7.2658510">
        <ele>154.6</ele>
        <time>2014-07-29T10:31:26Z</time>
      </trkpt>
      <trkpt lat="43.4874490" lon="-7.2658650">
        <ele>154.8</ele>
        <time>2014-07-29T10:31:27Z</time>
      </trkpt>
      <trkpt lat="43.4874410" lon="-7.2658810">
        <ele>155.1</ele>
        <time>2014-07-29T10:31:28Z</time>
      </trkpt>
      <trkpt lat="43.4874320" lon="-7.2658930">
        <ele>155.3</ele>
        <time>2014-07-29T10:31:29Z</time>
      </trkpt>
      <trkpt lat="43.4873180" lon="-7.2660720">
        <ele>157.5</ele>
        <time>2014-07-29T10:31:44Z</time>
      </trkpt>
      <trkpt lat="43.4871600" lon="-7.2662950">
        <ele>160.1</ele>
        <time>2014-07-29T10:32:01Z</time>
      </trkpt>
      <trkpt lat="43.4870360" lon="-7.2665770">
        <ele>162.7</ele>
        <time>2014-07-29T10:32:20Z</time>
      </trkpt>
      <trkpt lat="43.4870330" lon="-7.2665950">
        <ele>162.8</ele>
        <time>2014-07-29T10:32:21Z</time>
      </trkpt>
      <trkpt lat="43.4870320" lon="-7.2666120">
        <ele>162.9</ele>
        <time>2014-07-29T10:32:22Z</time>
      </trkpt>
      <trkpt lat="43.4870280" lon="-7.2666260">
        <ele>163.0</ele>
        <time>2014-07-29T10:32:23Z</time>
      </trkpt>
      <trkpt lat="43.4870230" lon="-7.2666410">
        <ele>163.0</ele>
        <time>2014-07-29T10:32:24Z</time>
      </trkpt>
      <trkpt lat="43.4870190" lon="-7.2666550">
        <ele>163.1</ele>
        <time>2014-07-29T10:32:25Z</time>
      </trkpt>
      <trkpt lat="43.4869400" lon="-7.2669750">
        <ele>165.5</ele>
        <time>2014-07-29T10:32:45Z</time>
      </trkpt>
      <trkpt lat="43.4868570" lon="-7.2672650">
        <ele>167.8</ele>
        <time>2014-07-29T10:33:02Z</time>
      </trkpt>
      <trkpt lat="43.4868130" lon="-7.2675120">
        <ele>170.0</ele>
        <time>2014-07-29T10:33:17Z</time>
      </trkpt>
      <trkpt lat="43.4867940" lon="-7.2676780">
        <ele>171.4</ele>
        <time>2014-07-29T10:33:26Z</time>
      </trkpt>
      <trkpt lat="43.4867880" lon="-7.2676950">
        <ele>171.6</ele>
        <time>2014-07-29T10:33:27Z</time>
      </trkpt>
      <trkpt lat="43.4867860" lon="-7.2677120">
        <ele>171.8</ele>
        <time>2014-07-29T10:33:28Z</time>
      </trkpt>
      <trkpt lat="43.4867510" lon="-7.2679380">
        <ele>174.1</ele>
        <time>2014-07-29T10:33:42Z</time>
      </trkpt>
      <trkpt lat="43.4867380" lon="-7.2679800">
        <ele>174.5</ele>
        <time>2014-07-29T10:33:45Z</time>
      </trkpt>
      <trkpt lat="43.4867310" lon="-7.2679960">
        <ele>174.7</ele>
        <time>2014-07-29T10:33:46Z</time>
      </trkpt>
      <trkpt lat="43.4867250" lon="-7.2680110">
        <ele>174.8</ele>
        <time>2014-07-29T10:33:47Z</time>
      </trkpt>
      <trkpt lat="43.4866940" lon="-7.2681190">
        <ele>176.0</ele>
        <time>2014-07-29T10:33:54Z</time>
      </trkpt>
      <trkpt lat="43.4866530" lon="-7.2681870">
        <ele>176.9</ele>
        <time>2014-07-29T10:33:59Z</time>
      </trkpt>
      <trkpt lat="43.4866450" lon="-7.2682020">
        <ele>177.1</ele>
        <time>2014-07-29T10:34:00Z</time>
      </trkpt>
      <trkpt lat="43.4866370" lon="-7.2682170">
        <ele>177.3</ele>
        <time>2014-07-29T10:34:01Z</time>
      </trkpt>
      <trkpt lat="43.4866300" lon="-7.2682310">
        <ele>177.4</ele>
        <time>2014-07-29T10:34:02Z</time>
      </trkpt>
      <trkpt lat="43.4866230" lon="-7.2682450">
        <ele>177.6</ele>
        <time>2014-07-29T10:34:03Z</time>
      </trkpt>
      <trkpt lat="43.4866150" lon="-7.2682610">
        <ele>177.7</ele>
        <time>2014-07-29T10:34:04Z</time>
      </trkpt>
      <trkpt lat="43.4865160" lon="-7.2684220">
        <ele>179.6</ele>
        <time>2014-07-29T10:34:16Z</time>
      </trkpt>
      <trkpt lat="43.4865090" lon="-7.2684350">
        <ele>179.7</ele>
        <time>2014-07-29T10:34:17Z</time>
      </trkpt>
      <trkpt lat="43.4864990" lon="-7.2684480">
        <ele>179.9</ele>
        <time>2014-07-29T10:34:18Z</time>
      </trkpt>
      <trkpt lat="43.4863320" lon="-7.2686550">
        <ele>182.5</ele>
        <time>2014-07-29T10:34:34Z</time>
      </trkpt>
      <trkpt lat="43.4863250" lon="-7.2686660">
        <ele>182.6</ele>
        <time>2014-07-29T10:34:35Z</time>
      </trkpt>
      <trkpt lat="43.4863150" lon="-7.2686770">
        <ele>182.7</ele>
        <time>2014-07-29T10:34:36Z</time>
      </trkpt>
      <trkpt lat="43.4863050" lon="-7.2686890">
        <ele>182.8</ele>
        <time>2014-07-29T10:34:37Z</time>
      </trkpt>
      <trkpt lat="43.4862830" lon="-7.2687150">
        <ele>183.3</ele>
        <time>2014-07-29T10:34:40Z</time>
      </trkpt>
      <trkpt lat="43.4862740" lon="-7.2687310">
        <ele>183.6</ele>
        <time>2014-07-29T10:34:41Z</time>
      </trkpt>
      <trkpt lat="43.4862640" lon="-7.2687420">
        <ele>183.8</ele>
        <time>2014-07-29T10:34:42Z</time>
      </trkpt>
      <trkpt lat="43.4862550" lon="-7.2687530">
        <ele>184.1</ele>
        <time>2014-07-29T10:34:43Z</time>
      </trkpt>
      <trkpt lat="43.4862480" lon="-7.2687660">
        <ele>184.3</ele>
        <time>2014-07-29T10:34:44Z</time>
      </trkpt>
      <trkpt lat="43.4862420" lon="-7.2687790">
        <ele>184.5</ele>
        <time>2014-07-29T10:34:45Z</time>
      </trkpt>
      <trkpt lat="43.4862360" lon="-7.2687920">
        <ele>184.8</ele>
        <time>2014-07-29T10:34:46Z</time>
      </trkpt>
      <trkpt lat="43.4862340" lon="-7.2688050">
        <ele>185.0</ele>
        <time>2014-07-29T10:34:47Z</time>
      </trkpt>
      <trkpt lat="43.4862310" lon="-7.2688220">
        <ele>185.2</ele>
        <time>2014-07-29T10:34:48Z</time>
      </trkpt>
      <trkpt lat="43.4862260" lon="-7.2688360">
        <ele>185.5</ele>
        <time>2014-07-29T10:34:49Z</time>
      </trkpt>
      <trkpt lat="43.4862200" lon="-7.2688490">
        <ele>185.7</ele>
        <time>2014-07-29T10:34:50Z</time>
      </trkpt>
      <trkpt lat="43.4862160" lon="-7.2688640">
        <ele>185.9</ele>
        <time>2014-07-29T10:34:51Z</time>
      </trkpt>
      <trkpt lat="43.4862100" lon="-7.2688800">
        <ele>186.2</ele>
        <time>2014-07-29T10:34:52Z</time>
      </trkpt>
      <trkpt lat="43.4862030" lon="-7.2688940">
        <ele>186.4</ele>
        <time>2014-07-29T10:34:53Z</time>
      </trkpt>
      <trkpt lat="43.4861960" lon="-7.2689070">
        <ele>186.7</ele>
        <time>2014-07-29T10:34:54Z</time>
      </trkpt>
      <trkpt lat="43.4861900" lon="-7.2689210">
        <ele>186.9</ele>
        <time>2014-07-29T10:34:55Z</time>
      </trkpt>
      <trkpt lat="43.4861850" lon="-7.2689390">
        <ele>187.2</ele>
        <time>2014-07-29T10:34:56Z</time>
      </trkpt>
      <trkpt lat="43.4861790" lon="-7.2689550">
        <ele>187.5</ele>
        <time>2014-07-29T10:34:57Z</time>
      </trkpt>
      <trkpt lat="43.4861330" lon="-7.2690390">
        <ele>189.4</ele>
        <time>2014-07-29T10:35:04Z</time>
      </trkpt>
      <trkpt lat="43.4860970" lon="-7.2691080">
        <ele>191.0</ele>
        <time>2014-07-29T10:35:10Z</time>
      </trkpt>
      <trkpt lat="43.4860780" lon="-7.2691410">
        <ele>191.8</ele>
        <time>2014-07-29T10:35:13Z</time>
      </trkpt>
      <trkpt lat="43.4860660" lon="-7.2691670">
        <ele>192.4</ele>
        <time>2014-07-29T10:35:15Z</time>
      </trkpt>
      <trkpt lat="43.4860580" lon="-7.2691810">
        <ele>192.8</ele>
        <time>2014-07-29T10:35:16Z</time>
      </trkpt>
      <trkpt lat="43.4860530" lon="-7.2691990">
        <ele>193.1</ele>
        <time>2014-07-29T10:35:17Z</time>
      </trkpt>
      <trkpt lat="43.4860450" lon="-7.2692130">
        <ele>193.5</ele>
        <time>2014-07-29T10:35:18Z</time>
      </trkpt>
      <trkpt lat="43.4860390" lon="-7.2692290">
        <ele>193.8</ele>
        <time>2014-07-29T10:35:19Z</time>
      </trkpt>
      <trkpt lat="43.4860200" lon="-7.2692680">
        <ele>194.7</ele>
        <time>2014-07-29T10:35:22Z</time>
      </trkpt>
      <trkpt lat="43.4859790" lon="-7.2693350">
        <ele>196.3</ele>
        <time>2014-07-29T10:35:28Z</time>
      </trkpt>
      <trkpt lat="43.4859780" lon="-7.2693480">
        <ele>196.5</ele>
        <time>2014-07-29T10:35:29Z</time>
      </trkpt>
      <trkpt lat="43.4859740" lon="-7.2693650">
        <ele>196.8</ele>
        <time>2014-07-29T10:35:30Z</time>
      </trkpt>
      <trkpt lat="43.4859660" lon="-7.2693820">
        <ele>197.1</ele>
        <time>2014-07-29T10:35:31Z</time>
      </trkpt>
      <trkpt lat="43.4858950" lon="-7.2694870">
        <ele>199.8</ele>
        <time>2014-07-29T10:35:41Z</time>
      </trkpt>
      <trkpt lat="43.4858230" lon="-7.2696720">
        <ele>203.7</ele>
        <time>2014-07-29T10:35:53Z</time>
      </trkpt>
      <trkpt lat="43.4858030" lon="-7.2697260">
        <ele>204.9</ele>
        <time>2014-07-29T10:35:56Z</time>
      </trkpt>
      <trkpt lat="43.4858010" lon="-7.2697460">
        <ele>205.2</ele>
        <time>2014-07-29T10:35:57Z</time>
      </trkpt>
      <trkpt lat="43.4857960" lon="-7.2697600">
        <ele>205.4</ele>
        <time>2014-07-29T10:35:58Z</time>
      </trkpt>
      <trkpt lat="43.4857920" lon="-7.2697710">
        <ele>205.6</ele>
        <time>2014-07-29T10:35:59Z</time>
      </trkpt>
      <trkpt lat="43.4857880" lon="-7.2697910">
        <ele>205.9</ele>
        <time>2014-07-29T10:36:00Z</time>
      </trkpt>
      <trkpt lat="43.4857800" lon="-7.2698090">
        <ele>206.1</ele>
        <time>2014-07-29T10:36:01Z</time>
      </trkpt>
      <trkpt lat="43.4857710" lon="-7.2698250">
        <ele>206.4</ele>
        <time>2014-07-29T10:36:02Z</time>
      </trkpt>
      <trkpt lat="43.4857190" lon="-7.2699420">
        <ele>208.5</ele>
        <time>2014-07-29T10:36:11Z</time>
      </trkpt>
      <trkpt lat="43.4856460" lon="-7.2701090">
        <ele>212.0</ele>
        <time>2014-07-29T10:36:23Z</time>
      </trkpt>
      <trkpt lat="43.4856370" lon="-7.2701200">
        <ele>212.4</ele>
        <time>2014-07-29T10:36:24Z</time>
      </trkpt>
      <trkpt lat="43.4856320" lon="-7.2701350">
        <ele>212.7</ele>
        <time>2014-07-29T10:36:25Z</time>
      </trkpt>
      <trkpt lat="43.4856310" lon="-7.2701510">
        <ele>213.0</ele>
        <time>2014-07-29T10:36:26Z</time>
      </trkpt>
      <trkpt lat="43.4856280" lon="-7.2701680">
        <ele>213.4</ele>
        <time>2014-07-29T10:36:27Z</time>
      </trkpt>
      <trkpt lat="43.4856070" lon="-7.2702330">
        <ele>214.9</ele>
        <time>2014-07-29T10:36:36Z</time>
      </trkpt>
      <trkpt lat="43.4855470" lon="-7.2703830">
        <ele>218.4</ele>
        <time>2014-07-29T10:36:51Z</time>
      </trkpt>
      <trkpt lat="43.4854890" lon="-7.2705350">
        <ele>222.0</ele>
        <time>2014-07-29T10:37:06Z</time>
      </trkpt>
      <trkpt lat="43.4854640" lon="-7.2706660">
        <ele>224.0</ele>
        <time>2014-07-29T10:37:19Z</time>
      </trkpt>
      <trkpt lat="43.4854390" lon="-7.2708000">
        <ele>226.8</ele>
        <time>2014-07-29T10:37:33Z</time>
      </trkpt>
      <trkpt lat="43.4854040" lon="-7.2709810">
        <ele>230.2</ele>
        <time>2014-07-29T10:37:45Z</time>
      </trkpt>
      <trkpt lat="43.4853860" lon="-7.2711220">
        <ele>232.0</ele>
        <time>2014-07-29T10:37:56Z</time>
      </trkpt>
      <trkpt lat="43.4853760" lon="-7.2711800">
        <ele>232.1</ele>
        <time>2014-07-29T10:38:11Z</time>
      </trkpt>
      <trkpt lat="43.4853430" lon="-7.2714130">
        <ele>232.7</ele>
        <time>2014-07-29T10:38:24Z</time>
      </trkpt>
      <trkpt lat="43.4853390" lon="-7.2714260">
        <ele>232.7</ele>
        <time>2014-07-29T10:38:25Z</time>
      </trkpt>
      <trkpt lat="43.4853130" lon="-7.2717150">
        <ele>233.3</ele>
        <time>2014-07-29T10:38:39Z</time>
      </trkpt>
      <trkpt lat="43.4853080" lon="-7.2717380">
        <ele>233.3</ele>
        <time>2014-07-29T10:38:40Z</time>
      </trkpt>
      <trkpt lat="43.4853040" lon="-7.2717590">
        <ele>233.3</ele>
        <time>2014-07-29T10:38:41Z</time>
      </trkpt>
      <trkpt lat="43.4852650" lon="-7.2719540">
        <ele>233.7</ele>
        <time>2014-07-29T10:38:51Z</time>
      </trkpt>
      <trkpt lat="43.4852640" lon="-7.2719730">
        <ele>233.7</ele>
        <time>2014-07-29T10:38:52Z</time>
      </trkpt>
      <trkpt lat="43.4852600" lon="-7.2719920">
        <ele>233.7</ele>
        <time>2014-07-29T10:38:53Z</time>
      </trkpt>
      <trkpt lat="43.4852560" lon="-7.2720110">
        <ele>233.8</ele>
        <time>2014-07-29T10:38:54Z</time>
      </trkpt>
      <trkpt lat="43.4852540" lon="-7.2720300">
        <ele>233.8</ele>
        <time>2014-07-29T10:38:55Z</time>
      </trkpt>
      <trkpt lat="43.4852490" lon="-7.2720490">
        <ele>233.8</ele>
        <time>2014-07-29T10:38:56Z</time>
      </trkpt>
      <trkpt lat="43.4852440" lon="-7.2720690">
        <ele>233.9</ele>
        <time>2014-07-29T10:38:57Z</time>
      </trkpt>
      <trkpt lat="43.4852410" lon="-7.2720880">
        <ele>233.9</ele>
        <time>2014-07-29T10:38:58Z</time>
      </trkpt>
      <trkpt lat="43.4851990" lon="-7.2723370">
        <ele>234.2</ele>
        <time>2014-07-29T10:39:11Z</time>
      </trkpt>
      <trkpt lat="43.4851900" lon="-7.2726480">
        <ele>234.5</ele>
        <time>2014-07-29T10:39:25Z</time>
      </trkpt>
      <trkpt lat="43.4852210" lon="-7.2729900">
        <ele>234.6</ele>
        <time>2014-07-29T10:39:40Z</time>
      </trkpt>
      <trkpt lat="43.4852270" lon="-7.2731550">
        <ele>234.4</ele>
        <time>2014-07-29T10:39:47Z</time>
      </trkpt>
      <trkpt lat="43.4852250" lon="-7.2731810">
        <ele>234.3</ele>
        <time>2014-07-29T10:39:48Z</time>
      </trkpt>
      <trkpt lat="43.4852270" lon="-7.2732070">
        <ele>234.3</ele>
        <time>2014-07-29T10:39:49Z</time>
      </trkpt>
      <trkpt lat="43.4852430" lon="-7.2737110">
        <ele>233.5</ele>
        <time>2014-07-29T10:40:02Z</time>
      </trkpt>
      <trkpt lat="43.4852580" lon="-7.2742250">
        <ele>232.4</ele>
        <time>2014-07-29T10:40:14Z</time>
      </trkpt>
      <trkpt lat="43.4852750" lon="-7.2747140">
        <ele>230.6</ele>
        <time>2014-07-29T10:40:26Z</time>
      </trkpt>
      <trkpt lat="43.4852730" lon="-7.2749340">
        <ele>229.7</ele>
        <time>2014-07-29T10:40:29Z</time>
      </trkpt>
      <trkpt lat="43.4852740" lon="-7.2751580">
        <ele>228.8</ele>
        <time>2014-07-29T10:40:32Z</time>
      </trkpt>
      <trkpt lat="43.4852680" lon="-7.2753220">
        <ele>228.3</ele>
        <time>2014-07-29T10:40:34Z</time>
      </trkpt>
      <trkpt lat="43.4853200" lon="-7.2756140">
        <ele>227.4</ele>
        <time>2014-07-29T10:40:38Z</time>
      </trkpt>
      <trkpt lat="43.4855470" lon="-7.2761020">
        <ele>226.0</ele>
        <time>2014-07-29T10:40:46Z</time>
      </trkpt>
      <trkpt lat="43.4856690" lon="-7.2765160">
        <ele>224.5</ele>
        <time>2014-07-29T10:40:52Z</time>
      </trkpt>
      <trkpt lat="43.4857670" lon="-7.2768000">
        <ele>223.3</ele>
        <time>2014-07-29T10:40:56Z</time>
      </trkpt>
      <trkpt lat="43.4858380" lon="-7.2770370">
        <ele>222.6</ele>
        <time>2014-07-29T10:41:00Z</time>
      </trkpt>
      <trkpt lat="43.4858440" lon="-7.2773070">
        <ele>221.9</ele>
        <time>2014-07-29T10:41:04Z</time>
      </trkpt>
      <trkpt lat="43.4858170" lon="-7.2776390">
        <ele>220.7</ele>
        <time>2014-07-29T10:41:08Z</time>
      </trkpt>
      <trkpt lat="43.4857800" lon="-7.2778110">
        <ele>219.8</ele>
        <time>2014-07-29T10:41:10Z</time>
      </trkpt>
      <trkpt lat="43.4857360" lon="-7.2780020">
        <ele>218.9</ele>
        <time>2014-07-29T10:41:12Z</time>
      </trkpt>
      <trkpt lat="43.4855960" lon="-7.2785170">
        <ele>216.6</ele>
        <time>2014-07-29T10:41:18Z</time>
      </trkpt>
      <trkpt lat="43.4854960" lon="-7.2789620">
        <ele>214.8</ele>
        <time>2014-07-29T10:41:23Z</time>
      </trkpt>
      <trkpt lat="43.4853750" lon="-7.2794900">
        <ele>212.8</ele>
        <time>2014-07-29T10:41:29Z</time>
      </trkpt>
      <trkpt lat="43.4853220" lon="-7.2796430">
        <ele>212.1</ele>
        <time>2014-07-29T10:41:31Z</time>
      </trkpt>
      <trkpt lat="43.4852290" lon="-7.2798800">
        <ele>210.5</ele>
        <time>2014-07-29T10:41:34Z</time>
      </trkpt>
      <trkpt lat="43.4851020" lon="-7.2802030">
        <ele>206.7</ele>
        <time>2014-07-29T10:41:37Z</time>
      </trkpt>
      <trkpt lat="43.4849820" lon="-7.2805080">
        <ele>203.8</ele>
        <time>2014-07-29T10:41:40Z</time>
      </trkpt>
      <trkpt lat="43.4848420" lon="-7.2808740">
        <ele>201.4</ele>
        <time>2014-07-29T10:41:44Z</time>
      </trkpt>
      <trkpt lat="43.4847880" lon="-7.2810250">
        <ele>200.6</ele>
        <time>2014-07-29T10:41:46Z</time>
      </trkpt>
      <trkpt lat="43.4847430" lon="-7.2811560">
        <ele>200.0</ele>
        <time>2014-07-29T10:41:48Z</time>
      </trkpt>
      <trkpt lat="43.4844040" lon="-7.2819430">
        <ele>197.0</ele>
        <time>2014-07-29T10:42:01Z</time>
      </trkpt>
      <trkpt lat="43.4842700" lon="-7.2822510">
        <ele>194.5</ele>
        <time>2014-07-29T10:42:05Z</time>
      </trkpt>
      <trkpt lat="43.4841520" lon="-7.2825420">
        <ele>190.4</ele>
        <time>2014-07-29T10:42:09Z</time>
      </trkpt>
      <trkpt lat="43.4841250" lon="-7.2826100">
        <ele>189.6</ele>
        <time>2014-07-29T10:42:10Z</time>
      </trkpt>
      <trkpt lat="43.4840260" lon="-7.2829040">
        <ele>185.1</ele>
        <time>2014-07-29T10:42:14Z</time>
      </trkpt>
      <trkpt lat="43.4840030" lon="-7.2829840">
        <ele>183.9</ele>
        <time>2014-07-29T10:42:15Z</time>
      </trkpt>
      <trkpt lat="43.4839490" lon="-7.2833170">
        <ele>179.6</ele>
        <time>2014-07-29T10:42:19Z</time>
      </trkpt>
      <trkpt lat="43.4839280" lon="-7.2833970">
        <ele>178.7</ele>
        <time>2014-07-29T10:42:20Z</time>
      </trkpt>
      <trkpt lat="43.4837670" lon="-7.2838870">
        <ele>173.9</ele>
        <time>2014-07-29T10:42:26Z</time>
      </trkpt>
      <trkpt lat="43.4836570" lon="-7.2842610">
        <ele>171.2</ele>
        <time>2014-07-29T10:42:31Z</time>
      </trkpt>
      <trkpt lat="43.4836410" lon="-7.2844350">
        <ele>170.1</ele>
        <time>2014-07-29T10:42:33Z</time>
      </trkpt>
      <trkpt lat="43.4835160" lon="-7.2850070">
        <ele>167.7</ele>
        <time>2014-07-29T10:42:40Z</time>
      </trkpt>
      <trkpt lat="43.4834950" lon="-7.2850810">
        <ele>167.4</ele>
        <time>2014-07-29T10:42:41Z</time>
      </trkpt>
      <trkpt lat="43.4834100" lon="-7.2852850">
        <ele>166.5</ele>
        <time>2014-07-29T10:42:44Z</time>
      </trkpt>
      <trkpt lat="43.4832630" lon="-7.2856030">
        <ele>165.2</ele>
        <time>2014-07-29T10:42:49Z</time>
      </trkpt>
      <trkpt lat="43.4830730" lon="-7.2859950">
        <ele>163.8</ele>
        <time>2014-07-29T10:42:57Z</time>
      </trkpt>
      <trkpt lat="43.4830140" lon="-7.2860920">
        <ele>163.4</ele>
        <time>2014-07-29T10:42:59Z</time>
      </trkpt>
      <trkpt lat="43.4828390" lon="-7.2862670">
        <ele>162.4</ele>
        <time>2014-07-29T10:43:03Z</time>
      </trkpt>
      <trkpt lat="43.4827400" lon="-7.2863590">
        <ele>161.5</ele>
        <time>2014-07-29T10:43:05Z</time>
      </trkpt>
      <trkpt lat="43.4825250" lon="-7.2866560">
        <ele>159.8</ele>
        <time>2014-07-29T10:43:10Z</time>
      </trkpt>
      <trkpt lat="43.4823410" lon="-7.2869120">
        <ele>158.7</ele>
        <time>2014-07-29T10:43:15Z</time>
      </trkpt>
      <trkpt lat="43.4823070" lon="-7.2869640">
        <ele>158.5</ele>
        <time>2014-07-29T10:43:16Z</time>
      </trkpt>
      <trkpt lat="43.4822690" lon="-7.2870140">
        <ele>158.3</ele>
        <time>2014-07-29T10:43:17Z</time>
      </trkpt>
      <trkpt lat="43.4821910" lon="-7.2871250">
        <ele>157.8</ele>
        <time>2014-07-29T10:43:19Z</time>
      </trkpt>
      <trkpt lat="43.4821500" lon="-7.2871740">
        <ele>157.6</ele>
        <time>2014-07-29T10:43:20Z</time>
      </trkpt>
      <trkpt lat="43.4821110" lon="-7.2872230">
        <ele>157.4</ele>
        <time>2014-07-29T10:43:21Z</time>
      </trkpt>
      <trkpt lat="43.4820760" lon="-7.2872740">
        <ele>157.3</ele>
        <time>2014-07-29T10:43:22Z</time>
      </trkpt>
      <trkpt lat="43.4820480" lon="-7.2873240">
        <ele>157.1</ele>
        <time>2014-07-29T10:43:23Z</time>
      </trkpt>
      <trkpt lat="43.4820190" lon="-7.2873700">
        <ele>157.0</ele>
        <time>2014-07-29T10:43:24Z</time>
      </trkpt>
      <trkpt lat="43.4817690" lon="-7.2877230">
        <ele>156.0</ele>
        <time>2014-07-29T10:43:34Z</time>
      </trkpt>
      <trkpt lat="43.4814660" lon="-7.2880700">
        <ele>153.9</ele>
        <time>2014-07-29T10:43:44Z</time>
      </trkpt>
      <trkpt lat="43.4814280" lon="-7.2881100">
        <ele>153.5</ele>
        <time>2014-07-29T10:43:45Z</time>
      </trkpt>
      <trkpt lat="43.4813920" lon="-7.2881590">
        <ele>153.1</ele>
        <time>2014-07-29T10:43:46Z</time>
      </trkpt>
      <trkpt lat="43.4813020" lon="-7.2882760">
        <ele>151.9</ele>
        <time>2014-07-29T10:43:48Z</time>
      </trkpt>
      <trkpt lat="43.4812110" lon="-7.2883600">
        <ele>150.5</ele>
        <time>2014-07-29T10:43:50Z</time>
      </trkpt>
      <trkpt lat="43.4811710" lon="-7.2884090">
        <ele>150.1</ele>
        <time>2014-07-29T10:43:51Z</time>
      </trkpt>
      <trkpt lat="43.4810850" lon="-7.2885000">
        <ele>149.3</ele>
        <time>2014-07-29T10:43:53Z</time>
      </trkpt>
      <trkpt lat="43.4810390" lon="-7.2885520">
        <ele>148.9</ele>
        <time>2014-07-29T10:43:54Z</time>
      </trkpt>
      <trkpt lat="43.4809920" lon="-7.2886050">
        <ele>148.1</ele>
        <time>2014-07-29T10:43:55Z</time>
      </trkpt>
      <trkpt lat="43.4809480" lon="-7.2886550">
        <ele>147.7</ele>
        <time>2014-07-29T10:43:56Z</time>
      </trkpt>
      <trkpt lat="43.4809100" lon="-7.2887040">
        <ele>147.3</ele>
        <time>2014-07-29T10:43:57Z</time>
      </trkpt>
      <trkpt lat="43.4808780" lon="-7.2887500">
        <ele>146.9</ele>
        <time>2014-07-29T10:43:58Z</time>
      </trkpt>
      <trkpt lat="43.4807350" lon="-7.2889180">
        <ele>145.2</ele>
        <time>2014-07-29T10:44:02Z</time>
      </trkpt>
      <trkpt lat="43.4806920" lon="-7.2889720">
        <ele>144.7</ele>
        <time>2014-07-29T10:44:03Z</time>
      </trkpt>
      <trkpt lat="43.4806520" lon="-7.2890120">
        <ele>144.2</ele>
        <time>2014-07-29T10:44:04Z</time>
      </trkpt>
      <trkpt lat="43.4806090" lon="-7.2890540">
        <ele>143.5</ele>
        <time>2014-07-29T10:44:05Z</time>
      </trkpt>
      <trkpt lat="43.4805640" lon="-7.2891090">
        <ele>142.8</ele>
        <time>2014-07-29T10:44:06Z</time>
      </trkpt>
      <trkpt lat="43.4805150" lon="-7.2891740">
        <ele>142.0</ele>
        <time>2014-07-29T10:44:07Z</time>
      </trkpt>
      <trkpt lat="43.4804700" lon="-7.2892460">
        <ele>140.8</ele>
        <time>2014-07-29T10:44:08Z</time>
      </trkpt>
      <trkpt lat="43.4804220" lon="-7.2893240">
        <ele>139.8</ele>
        <time>2014-07-29T10:44:09Z</time>
      </trkpt>
      <trkpt lat="43.4802160" lon="-7.2895990">
        <ele>135.7</ele>
        <time>2014-07-29T10:44:13Z</time>
      </trkpt>
      <trkpt lat="43.4801690" lon="-7.2896540">
        <ele>134.7</ele>
        <time>2014-07-29T10:44:14Z</time>
      </trkpt>
      <trkpt lat="43.4801130" lon="-7.2897220">
        <ele>133.6</ele>
        <time>2014-07-29T10:44:15Z</time>
      </trkpt>
      <trkpt lat="43.4800700" lon="-7.2897950">
        <ele>132.6</ele>
        <time>2014-07-29T10:44:16Z</time>
      </trkpt>
      <trkpt lat="43.4800270" lon="-7.2898580">
        <ele>131.6</ele>
        <time>2014-07-29T10:44:17Z</time>
      </trkpt>
      <trkpt lat="43.4799840" lon="-7.2899020">
        <ele>130.8</ele>
        <time>2014-07-29T10:44:18Z</time>
      </trkpt>
      <trkpt lat="43.4799490" lon="-7.2899200">
        <ele>130.2</ele>
        <time>2014-07-29T10:44:19Z</time>
      </trkpt>
      <trkpt lat="43.4799200" lon="-7.2899260">
        <ele>129.8</ele>
        <time>2014-07-29T10:44:20Z</time>
      </trkpt>
      <trkpt lat="43.4798910" lon="-7.2899360">
        <ele>129.3</ele>
        <time>2014-07-29T10:44:21Z</time>
      </trkpt>
      <trkpt lat="43.4798500" lon="-7.2899320">
        <ele>128.7</ele>
        <time>2014-07-29T10:44:22Z</time>
      </trkpt>
      <trkpt lat="43.4798090" lon="-7.2899490">
        <ele>128.0</ele>
        <time>2014-07-29T10:44:23Z</time>
      </trkpt>
      <trkpt lat="43.4797760" lon="-7.2900130">
        <ele>127.2</ele>
        <time>2014-07-29T10:44:24Z</time>
      </trkpt>
      <trkpt lat="43.4797490" lon="-7.2900890">
        <ele>126.7</ele>
        <time>2014-07-29T10:44:25Z</time>
      </trkpt>
      <trkpt lat="43.4797270" lon="-7.2901620">
        <ele>126.3</ele>
        <time>2014-07-29T10:44:26Z</time>
      </trkpt>
      <trkpt lat="43.4793880" lon="-7.2911460">
        <ele>120.0</ele>
        <time>2014-07-29T10:44:38Z</time>
      </trkpt>
      <trkpt lat="43.4793530" lon="-7.2912480">
        <ele>119.4</ele>
        <time>2014-07-29T10:44:39Z</time>
      </trkpt>
      <trkpt lat="43.4791810" lon="-7.2917520">
        <ele>117.1</ele>
        <time>2014-07-29T10:44:44Z</time>
      </trkpt>
      <trkpt lat="43.4790020" lon="-7.2923300">
        <ele>114.5</ele>
        <time>2014-07-29T10:44:49Z</time>
      </trkpt>
      <trkpt lat="43.4786720" lon="-7.2933780">
        <ele>109.2</ele>
        <time>2014-07-29T10:45:01Z</time>
      </trkpt>
      <trkpt lat="43.4785660" lon="-7.2936800">
        <ele>108.0</ele>
        <time>2014-07-29T10:45:05Z</time>
      </trkpt>
      <trkpt lat="43.4784010" lon="-7.2940350">
        <ele>106.8</ele>
        <time>2014-07-29T10:45:10Z</time>
      </trkpt>
      <trkpt lat="43.4779680" lon="-7.2947350">
        <ele>103.9</ele>
        <time>2014-07-29T10:45:21Z</time>
      </trkpt>
      <trkpt lat="43.4777050" lon="-7.2950470">
        <ele>102.3</ele>
        <time>2014-07-29T10:45:26Z</time>
      </trkpt>
      <trkpt lat="43.4776400" lon="-7.2951050">
        <ele>101.9</ele>
        <time>2014-07-29T10:45:27Z</time>
      </trkpt>
      <trkpt lat="43.4775710" lon="-7.2951650">
        <ele>101.2</ele>
        <time>2014-07-29T10:45:28Z</time>
      </trkpt>
      <trkpt lat="43.4772060" lon="-7.2954660">
        <ele>98.1</ele>
        <time>2014-07-29T10:45:33Z</time>
      </trkpt>
      <trkpt lat="43.4771330" lon="-7.2955320">
        <ele>97.1</ele>
        <time>2014-07-29T10:45:34Z</time>
      </trkpt>
      <trkpt lat="43.4769820" lon="-7.2956690">
        <ele>95.1</ele>
        <time>2014-07-29T10:45:36Z</time>
      </trkpt>
      <trkpt lat="43.4763770" lon="-7.2961560">
        <ele>91.2</ele>
        <time>2014-07-29T10:45:44Z</time>
      </trkpt>
      <trkpt lat="43.4762970" lon="-7.2961970">
        <ele>90.4</ele>
        <time>2014-07-29T10:45:45Z</time>
      </trkpt>
      <trkpt lat="43.4762140" lon="-7.2962240">
        <ele>89.9</ele>
        <time>2014-07-29T10:45:46Z</time>
      </trkpt>
      <trkpt lat="43.4761280" lon="-7.2962350">
        <ele>89.5</ele>
        <time>2014-07-29T10:45:47Z</time>
      </trkpt>
      <trkpt lat="43.4760380" lon="-7.2962330">
        <ele>89.1</ele>
        <time>2014-07-29T10:45:48Z</time>
      </trkpt>
      <trkpt lat="43.4759460" lon="-7.2962260">
        <ele>88.8</ele>
        <time>2014-07-29T10:45:49Z</time>
      </trkpt>
      <trkpt lat="43.4750190" lon="-7.2961020">
        <ele>84.2</ele>
        <time>2014-07-29T10:45:59Z</time>
      </trkpt>
      <trkpt lat="43.4747870" lon="-7.2960450">
        <ele>83.3</ele>
        <time>2014-07-29T10:46:02Z</time>
      </trkpt>
      <trkpt lat="43.4746570" lon="-7.2960270">
        <ele>82.9</ele>
        <time>2014-07-29T10:46:05Z</time>
      </trkpt>
      <trkpt lat="43.4746330" lon="-7.2960620">
        <ele>82.8</ele>
        <time>2014-07-29T10:46:06Z</time>
      </trkpt>
      <trkpt lat="43.4746160" lon="-7.2961140">
        <ele>82.7</ele>
        <time>2014-07-29T10:46:07Z</time>
      </trkpt>
      <trkpt lat="43.4744020" lon="-7.2971210">
        <ele>80.1</ele>
        <time>2014-07-29T10:46:23Z</time>
      </trkpt>
      <trkpt lat="43.4743370" lon="-7.2974780">
        <ele>78.2</ele>
        <time>2014-07-29T10:46:29Z</time>
      </trkpt>
      <trkpt lat="43.4741730" lon="-7.2983560">
        <ele>72.8</ele>
        <time>2014-07-29T10:46:44Z</time>
      </trkpt>
      <trkpt lat="43.4741660" lon="-7.2984800">
        <ele>71.8</ele>
        <time>2014-07-29T10:46:46Z</time>
      </trkpt>
      <trkpt lat="43.4741750" lon="-7.2989780">
        <ele>67.5</ele>
        <time>2014-07-29T10:46:57Z</time>
      </trkpt>
      <trkpt lat="43.4741980" lon="-7.2991440">
        <ele>65.3</ele>
        <time>2014-07-29T10:47:01Z</time>
      </trkpt>
      <trkpt lat="43.4742190" lon="-7.2993310">
        <ele>63.0</ele>
        <time>2014-07-29T10:47:06Z</time>
      </trkpt>
      <trkpt lat="43.4742110" lon="-7.2993770">
        <ele>62.7</ele>
        <time>2014-07-29T10:47:16Z</time>
      </trkpt>
      <trkpt lat="43.4741500" lon="-7.2994730">
        <ele>61.6</ele>
        <time>2014-07-29T10:47:33Z</time>
      </trkpt>
      <trkpt lat="43.4740920" lon="-7.2995110">
        <ele>60.9</ele>
        <time>2014-07-29T10:47:38Z</time>
      </trkpt>
      <trkpt lat="43.4740250" lon="-7.2995280">
        <ele>60.2</ele>
        <time>2014-07-29T10:47:43Z</time>
      </trkpt>
      <trkpt lat="43.4739690" lon="-7.2995610">
        <ele>59.5</ele>
        <time>2014-07-29T10:47:53Z</time>
      </trkpt>
      <trkpt lat="43.4736060" lon="-7.2995220">
        <ele>57.6</ele>
        <time>2014-07-29T10:48:03Z</time>
      </trkpt>
      <trkpt lat="43.4735520" lon="-7.2995160">
        <ele>57.5</ele>
        <time>2014-07-29T10:48:04Z</time>
      </trkpt>
      <trkpt lat="43.4733310" lon="-7.2994850">
        <ele>57.5</ele>
        <time>2014-07-29T10:48:10Z</time>
      </trkpt>
      <trkpt lat="43.4733220" lon="-7.2994950">
        <ele>57.3</ele>
        <time>2014-07-29T10:48:11Z</time>
      </trkpt>
      <trkpt lat="43.4733190" lon="-7.2995120">
        <ele>57.1</ele>
        <time>2014-07-29T10:48:12Z</time>
      </trkpt>
      <trkpt lat="43.4733270" lon="-7.2995770">
        <ele>56.3</ele>
        <time>2014-07-29T10:48:14Z</time>
      </trkpt>
      <trkpt lat="43.4733590" lon="-7.2997780">
        <ele>53.9</ele>
        <time>2014-07-29T10:48:18Z</time>
      </trkpt>
      <trkpt lat="43.4733230" lon="-7.2998740">
        <ele>52.3</ele>
        <time>2014-07-29T10:48:20Z</time>
      </trkpt>
      <trkpt lat="43.4732850" lon="-7.2998890">
        <ele>52.3</ele>
        <time>2014-07-29T10:48:21Z</time>
      </trkpt>
      <trkpt lat="43.4732360" lon="-7.2998940">
        <ele>52.2</ele>
        <time>2014-07-29T10:48:22Z</time>
      </trkpt>
      <trkpt lat="43.4728710" lon="-7.2999300">
        <ele>51.5</ele>
        <time>2014-07-29T10:48:32Z</time>
      </trkpt>
      <trkpt lat="43.4728540" lon="-7.2999130">
        <ele>51.6</ele>
        <time>2014-07-29T10:48:42Z</time>
      </trkpt>
      <trkpt lat="43.4728090" lon="-7.2999050">
        <ele>51.8</ele>
        <time>2014-07-29T10:48:55Z</time>
      </trkpt>
      <trkpt lat="43.4728070" lon="-7.2999030">
        <ele>51.8</ele>
        <time>2014-07-29T10:49:21Z</time>
      </trkpt>
      <trkpt lat="43.4727260" lon="-7.2998720">
        <ele>52.1</ele>
        <time>2014-07-29T10:49:25Z</time>
      </trkpt>
      <trkpt lat="43.4726850" lon="-7.2998580">
        <ele>52.3</ele>
        <time>2014-07-29T10:49:26Z</time>
      </trkpt>
      <trkpt lat="43.4726470" lon="-7.2998370">
        <ele>52.5</ele>
        <time>2014-07-29T10:49:27Z</time>
      </trkpt>
      <trkpt lat="43.4726110" lon="-7.2997940">
        <ele>52.7</ele>
        <time>2014-07-29T10:49:28Z</time>
      </trkpt>
      <trkpt lat="43.4725780" lon="-7.2997540">
        <ele>52.9</ele>
        <time>2014-07-29T10:49:29Z</time>
      </trkpt>
      <trkpt lat="43.4725490" lon="-7.2997200">
        <ele>53.0</ele>
        <time>2014-07-29T10:49:30Z</time>
      </trkpt>
      <trkpt lat="43.4725240" lon="-7.2996950">
        <ele>53.1</ele>
        <time>2014-07-29T10:49:31Z</time>
      </trkpt>
      <trkpt lat="43.4724900" lon="-7.2996620">
        <ele>53.3</ele>
        <time>2014-07-29T10:49:33Z</time>
      </trkpt>
      <trkpt lat="43.4724390" lon="-7.2996530">
        <ele>53.5</ele>
        <time>2014-07-29T10:49:38Z</time>
      </trkpt>
      <trkpt lat="43.4724340" lon="-7.2996690">
        <ele>53.6</ele>
        <time>2014-07-29T10:49:39Z</time>
      </trkpt>
      <trkpt lat="43.4724230" lon="-7.2996840">
        <ele>53.6</ele>
        <time>2014-07-29T10:49:40Z</time>
      </trkpt>
      <trkpt lat="43.4724080" lon="-7.2996950">
        <ele>53.7</ele>
        <time>2014-07-29T10:49:41Z</time>
      </trkpt>
      <trkpt lat="43.4723890" lon="-7.2996950">
        <ele>53.8</ele>
        <time>2014-07-29T10:49:42Z</time>
      </trkpt>
      <trkpt lat="43.4723750" lon="-7.2996810">
        <ele>53.8</ele>
        <time>2014-07-29T10:49:43Z</time>
      </trkpt>
      <trkpt lat="43.4723710" lon="-7.2996560">
        <ele>53.9</ele>
        <time>2014-07-29T10:49:44Z</time>
      </trkpt>
      <trkpt lat="43.4723330" lon="-7.2995020">
        <ele>54.1</ele>
        <time>2014-07-29T10:49:49Z</time>
      </trkpt>
      <trkpt lat="43.4721870" lon="-7.2993930">
        <ele>54.3</ele>
        <time>2014-07-29T10:49:56Z</time>
      </trkpt>
      <trkpt lat="43.4719060" lon="-7.2993170">
        <ele>54.5</ele>
        <time>2014-07-29T10:50:08Z</time>
      </trkpt>
      <trkpt lat="43.4716900" lon="-7.2993440">
        <ele>54.7</ele>
        <time>2014-07-29T10:50:19Z</time>
      </trkpt>
      <trkpt lat="43.4713900" lon="-7.2993880">
        <ele>55.2</ele>
        <time>2014-07-29T10:50:30Z</time>
      </trkpt>
      <trkpt lat="43.4709950" lon="-7.2994220">
        <ele>56.3</ele>
        <time>2014-07-29T10:50:43Z</time>
      </trkpt>
      <trkpt lat="43.4706920" lon="-7.2994220">
        <ele>57.0</ele>
        <time>2014-07-29T10:50:55Z</time>
      </trkpt>
      <trkpt lat="43.4706550" lon="-7.2993950">
        <ele>57.1</ele>
        <time>2014-07-29T10:50:57Z</time>
      </trkpt>
      <trkpt lat="43.4706060" lon="-7.2991630">
        <ele>57.1</ele>
        <time>2014-07-29T10:51:07Z</time>
      </trkpt>
      <trkpt lat="43.4705640" lon="-7.2988000">
        <ele>57.8</ele>
        <time>2014-07-29T10:51:20Z</time>
      </trkpt>
      <trkpt lat="43.4705640" lon="-7.2988000">
        <ele>57.8</ele>
        <time>2014-07-29T10:51:39Z</time>
      </trkpt>
      <trkpt lat="43.4705680" lon="-7.2988010">
        <ele>57.8</ele>
        <time>2014-07-29T10:52:07Z</time>
      </trkpt>
      <trkpt lat="43.4705700" lon="-7.2987980">
        <ele>57.8</ele>
        <time>2014-07-29T10:52:19Z</time>
      </trkpt>
      <trkpt lat="43.4705760" lon="-7.2987720">
        <ele>57.9</ele>
        <time>2014-07-29T10:52:21Z</time>
      </trkpt>
      <trkpt lat="43.4704470" lon="-7.2984850">
        <ele>59.0</ele>
        <time>2014-07-29T10:52:35Z</time>
      </trkpt>
      <trkpt lat="43.4702310" lon="-7.2983270">
        <ele>60.3</ele>
        <time>2014-07-29T10:52:48Z</time>
      </trkpt>
      <trkpt lat="43.4699670" lon="-7.2982740">
        <ele>61.9</ele>
        <time>2014-07-29T10:53:01Z</time>
      </trkpt>
      <trkpt lat="43.4695960" lon="-7.2983710">
        <ele>66.2</ele>
        <time>2014-07-29T10:53:19Z</time>
      </trkpt>
      <trkpt lat="43.4692500" lon="-7.2985060">
        <ele>68.4</ele>
        <time>2014-07-29T10:53:36Z</time>
      </trkpt>
      <trkpt lat="43.4689120" lon="-7.2986070">
        <ele>69.6</ele>
        <time>2014-07-29T10:53:53Z</time>
      </trkpt>
      <trkpt lat="43.4688570" lon="-7.2986160">
        <ele>69.9</ele>
        <time>2014-07-29T10:53:56Z</time>
      </trkpt>
      <trkpt lat="43.4685190" lon="-7.2987740">
        <ele>71.2</ele>
        <time>2014-07-29T10:54:15Z</time>
      </trkpt>
      <trkpt lat="43.4682320" lon="-7.2989810">
        <ele>72.7</ele>
        <time>2014-07-29T10:54:31Z</time>
      </trkpt>
      <trkpt lat="43.4679540" lon="-7.2992800">
        <ele>74.4</ele>
        <time>2014-07-29T10:54:48Z</time>
      </trkpt>
      <trkpt lat="43.4676900" lon="-7.2996980">
        <ele>76.3</ele>
        <time>2014-07-29T10:55:07Z</time>
      </trkpt>
      <trkpt lat="43.4675030" lon="-7.3002300">
        <ele>78.5</ele>
        <time>2014-07-29T10:55:27Z</time>
      </trkpt>
      <trkpt lat="43.4674050" lon="-7.3005880">
        <ele>79.7</ele>
        <time>2014-07-29T10:55:41Z</time>
      </trkpt>
      <trkpt lat="43.4672880" lon="-7.3010330">
        <ele>82.3</ele>
        <time>2014-07-29T10:55:59Z</time>
      </trkpt>
      <trkpt lat="43.4671800" lon="-7.3014120">
        <ele>84.0</ele>
        <time>2014-07-29T10:56:14Z</time>
      </trkpt>
      <trkpt lat="43.4670370" lon="-7.3017960">
        <ele>86.6</ele>
        <time>2014-07-29T10:56:30Z</time>
      </trkpt>
      <trkpt lat="43.4668440" lon="-7.3021970">
        <ele>89.2</ele>
        <time>2014-07-29T10:56:47Z</time>
      </trkpt>
      <trkpt lat="43.4667110" lon="-7.3024610">
        <ele>90.4</ele>
        <time>2014-07-29T10:57:01Z</time>
      </trkpt>
      <trkpt lat="43.4665820" lon="-7.3027180">
        <ele>92.0</ele>
        <time>2014-07-29T10:57:13Z</time>
      </trkpt>
      <trkpt lat="43.4664450" lon="-7.3029830">
        <ele>93.4</ele>
        <time>2014-07-29T10:57:25Z</time>
      </trkpt>
      <trkpt lat="43.4662660" lon="-7.3033350">
        <ele>95.5</ele>
        <time>2014-07-29T10:57:40Z</time>
      </trkpt>
      <trkpt lat="43.4661930" lon="-7.3034700">
        <ele>96.7</ele>
        <time>2014-07-29T10:57:46Z</time>
      </trkpt>
      <trkpt lat="43.4660550" lon="-7.3036970">
        <ele>99.6</ele>
        <time>2014-07-29T10:57:57Z</time>
      </trkpt>
      <trkpt lat="43.4658320" lon="-7.3039620">
        <ele>104.3</ele>
        <time>2014-07-29T10:58:12Z</time>
      </trkpt>
      <trkpt lat="43.4656990" lon="-7.3041240">
        <ele>106.8</ele>
        <time>2014-07-29T10:58:21Z</time>
      </trkpt>
      <trkpt lat="43.4655690" lon="-7.3043170">
        <ele>110.0</ele>
        <time>2014-07-29T10:58:33Z</time>
      </trkpt>
      <trkpt lat="43.4653910" lon="-7.3044770">
        <ele>113.1</ele>
        <time>2014-07-29T10:58:45Z</time>
      </trkpt>
      <trkpt lat="43.4653750" lon="-7.3044930">
        <ele>113.4</ele>
        <time>2014-07-29T10:58:46Z</time>
      </trkpt>
      <trkpt lat="43.4653120" lon="-7.3045450">
        <ele>114.7</ele>
        <time>2014-07-29T10:58:50Z</time>
      </trkpt>
      <trkpt lat="43.4650890" lon="-7.3047120">
        <ele>118.7</ele>
        <time>2014-07-29T10:59:03Z</time>
      </trkpt>
      <trkpt lat="43.4650760" lon="-7.3047360">
        <ele>119.0</ele>
        <time>2014-07-29T10:59:15Z</time>
      </trkpt>
      <trkpt lat="43.4650760" lon="-7.3047360">
        <ele>119.0</ele>
        <time>2014-07-29T10:59:45Z</time>
      </trkpt>
      <trkpt lat="43.4650790" lon="-7.3047380">
        <ele>119.0</ele>
        <time>2014-07-29T11:00:14Z</time>
      </trkpt>
      <trkpt lat="43.4650810" lon="-7.3047360">
        <ele>119.0</ele>
        <time>2014-07-29T11:00:34Z</time>
      </trkpt>
      <trkpt lat="43.4650710" lon="-7.3047480">
        <ele>119.2</ele>
        <time>2014-07-29T11:00:36Z</time>
      </trkpt>
      <trkpt lat="43.4649260" lon="-7.3050020">
        <ele>122.1</ele>
        <time>2014-07-29T11:00:50Z</time>
      </trkpt>
      <trkpt lat="43.4647550" lon="-7.3051930">
        <ele>124.9</ele>
        <time>2014-07-29T11:01:01Z</time>
      </trkpt>
      <trkpt lat="43.4645730" lon="-7.3054690">
        <ele>128.2</ele>
        <time>2014-07-29T11:01:16Z</time>
      </trkpt>
      <trkpt lat="43.4644570" lon="-7.3056430">
        <ele>130.4</ele>
        <time>2014-07-29T11:01:25Z</time>
      </trkpt>
      <trkpt lat="43.4642780" lon="-7.3058260">
        <ele>133.3</ele>
        <time>2014-07-29T11:01:38Z</time>
      </trkpt>
      <trkpt lat="43.4641030" lon="-7.3060970">
        <ele>136.2</ele>
        <time>2014-07-29T11:01:53Z</time>
      </trkpt>
      <trkpt lat="43.4639780" lon="-7.3062580">
        <ele>138.0</ele>
        <time>2014-07-29T11:02:02Z</time>
      </trkpt>
      <trkpt lat="43.4639100" lon="-7.3063410">
        <ele>138.8</ele>
        <time>2014-07-29T11:02:08Z</time>
      </trkpt>
      <trkpt lat="43.4637230" lon="-7.3066320">
        <ele>141.2</ele>
        <time>2014-07-29T11:02:23Z</time>
      </trkpt>
      <trkpt lat="43.4634870" lon="-7.3068800">
        <ele>142.5</ele>
        <time>2014-07-29T11:02:37Z</time>
      </trkpt>
      <trkpt lat="43.4631770" lon="-7.3071080">
        <ele>143.6</ele>
        <time>2014-07-29T11:02:54Z</time>
      </trkpt>
      <trkpt lat="43.4629230" lon="-7.3072420">
        <ele>144.1</ele>
        <time>2014-07-29T11:03:07Z</time>
      </trkpt>
      <trkpt lat="43.4625940" lon="-7.3073430">
        <ele>144.1</ele>
        <time>2014-07-29T11:03:23Z</time>
      </trkpt>
      <trkpt lat="43.4623130" lon="-7.3074200">
        <ele>144.4</ele>
        <time>2014-07-29T11:03:36Z</time>
      </trkpt>
      <trkpt lat="43.4620340" lon="-7.3076540">
        <ele>145.4</ele>
        <time>2014-07-29T11:03:50Z</time>
      </trkpt>
      <trkpt lat="43.4617880" lon="-7.3079470">
        <ele>145.7</ele>
        <time>2014-07-29T11:04:04Z</time>
      </trkpt>
      <trkpt lat="43.4615030" lon="-7.3083020">
        <ele>146.0</ele>
        <time>2014-07-29T11:04:21Z</time>
      </trkpt>
      <trkpt lat="43.4612350" lon="-7.3086640">
        <ele>146.9</ele>
        <time>2014-07-29T11:04:37Z</time>
      </trkpt>
      <trkpt lat="43.4612060" lon="-7.3090580">
        <ele>147.0</ele>
        <time>2014-07-29T11:04:51Z</time>
      </trkpt>
      <trkpt lat="43.4614530" lon="-7.3089440">
        <ele>146.9</ele>
        <time>2014-07-29T11:05:02Z</time>
      </trkpt>
      <trkpt lat="43.4615870" lon="-7.3086190">
        <ele>147.0</ele>
        <time>2014-07-29T11:05:14Z</time>
      </trkpt>
      <trkpt lat="43.4617950" lon="-7.3082590">
        <ele>148.2</ele>
        <time>2014-07-29T11:05:30Z</time>
      </trkpt>
      <trkpt lat="43.4619610" lon="-7.3080790">
        <ele>148.9</ele>
        <time>2014-07-29T11:05:41Z</time>
      </trkpt>
      <trkpt lat="43.4622420" lon="-7.3079290">
        <ele>150.0</ele>
        <time>2014-07-29T11:05:56Z</time>
      </trkpt>
      <trkpt lat="43.4625150" lon="-7.3079140">
        <ele>150.1</ele>
        <time>2014-07-29T11:06:10Z</time>
      </trkpt>
      <trkpt lat="43.4628660" lon="-7.3079460">
        <ele>149.9</ele>
        <time>2014-07-29T11:06:26Z</time>
      </trkpt>
      <trkpt lat="43.4631460" lon="-7.3079140">
        <ele>149.7</ele>
        <time>2014-07-29T11:06:39Z</time>
      </trkpt>
      <trkpt lat="43.4633920" lon="-7.3078350">
        <ele>149.5</ele>
        <time>2014-07-29T11:06:51Z</time>
      </trkpt>
      <trkpt lat="43.4638020" lon="-7.3076890">
        <ele>148.8</ele>
        <time>2014-07-29T11:07:11Z</time>
      </trkpt>
      <trkpt lat="43.4641440" lon="-7.3075460">
        <ele>147.1</ele>
        <time>2014-07-29T11:07:28Z</time>
      </trkpt>
      <trkpt lat="43.4644230" lon="-7.3073170">
        <ele>146.7</ele>
        <time>2014-07-29T11:07:44Z</time>
      </trkpt>
      <trkpt lat="43.4644800" lon="-7.3072530">
        <ele>146.7</ele>
        <time>2014-07-29T11:07:48Z</time>
      </trkpt>
      <trkpt lat="43.4645560" lon="-7.3072000">
        <ele>146.8</ele>
        <time>2014-07-29T11:07:53Z</time>
      </trkpt>
      <trkpt lat="43.4646510" lon="-7.3071420">
        <ele>147.0</ele>
        <time>2014-07-29T11:07:59Z</time>
      </trkpt>
      <trkpt lat="43.4647660" lon="-7.3070800">
        <ele>147.3</ele>
        <time>2014-07-29T11:08:05Z</time>
      </trkpt>
      <trkpt lat="43.4650230" lon="-7.3068880">
        <ele>148.3</ele>
        <time>2014-07-29T11:08:19Z</time>
      </trkpt>
      <trkpt lat="43.4653140" lon="-7.3067850">
        <ele>148.2</ele>
        <time>2014-07-29T11:08:33Z</time>
      </trkpt>
      <trkpt lat="43.4655790" lon="-7.3066820">
        <ele>148.1</ele>
        <time>2014-07-29T11:08:45Z</time>
      </trkpt>
      <trkpt lat="43.4658260" lon="-7.3065950">
        <ele>148.1</ele>
        <time>2014-07-29T11:08:58Z</time>
      </trkpt>
      <trkpt lat="43.4659690" lon="-7.3065840">
        <ele>148.4</ele>
        <time>2014-07-29T11:09:05Z</time>
      </trkpt>
      <trkpt lat="43.4660660" lon="-7.3066010">
        <ele>148.8</ele>
        <time>2014-07-29T11:09:10Z</time>
      </trkpt>
      <trkpt lat="43.4661920" lon="-7.3068330">
        <ele>148.6</ele>
        <time>2014-07-29T11:09:21Z</time>
      </trkpt>
      <trkpt lat="43.4661920" lon="-7.3068400">
        <ele>148.6</ele>
        <time>2014-07-29T11:09:35Z</time>
      </trkpt>
      <trkpt lat="43.4661930" lon="-7.3068390">
        <ele>148.6</ele>
        <time>2014-07-29T11:10:02Z</time>
      </trkpt>
      <trkpt lat="43.4662000" lon="-7.3068430">
        <ele>148.5</ele>
        <time>2014-07-29T11:10:04Z</time>
      </trkpt>
      <trkpt lat="43.4662390" lon="-7.3070990">
        <ele>149.5</ele>
        <time>2014-07-29T11:10:16Z</time>
      </trkpt>
      <trkpt lat="43.4660860" lon="-7.3072890">
        <ele>150.9</ele>
        <time>2014-07-29T11:10:31Z</time>
      </trkpt>
      <trkpt lat="43.4659940" lon="-7.3073720">
        <ele>151.7</ele>
        <time>2014-07-29T11:10:40Z</time>
      </trkpt>
      <trkpt lat="43.4659300" lon="-7.3074330">
        <ele>152.2</ele>
        <time>2014-07-29T11:10:47Z</time>
      </trkpt>
      <trkpt lat="43.4657770" lon="-7.3075670">
        <ele>153.6</ele>
        <time>2014-07-29T11:11:03Z</time>
      </trkpt>
      <trkpt lat="43.4657240" lon="-7.3076120">
        <ele>154.2</ele>
        <time>2014-07-29T11:11:09Z</time>
      </trkpt>
      <trkpt lat="43.4655170" lon="-7.3077320">
        <ele>156.7</ele>
        <time>2014-07-29T11:11:26Z</time>
      </trkpt>
      <trkpt lat="43.4654100" lon="-7.3078110">
        <ele>157.6</ele>
        <time>2014-07-29T11:11:34Z</time>
      </trkpt>
      <trkpt lat="43.4653220" lon="-7.3079360">
        <ele>158.7</ele>
        <time>2014-07-29T11:11:42Z</time>
      </trkpt>
      <trkpt lat="43.4651900" lon="-7.3080890">
        <ele>160.4</ele>
        <time>2014-07-29T11:11:53Z</time>
      </trkpt>
      <trkpt lat="43.4651030" lon="-7.3081850">
        <ele>161.3</ele>
        <time>2014-07-29T11:12:00Z</time>
      </trkpt>
      <trkpt lat="43.4649140" lon="-7.3084630">
        <ele>163.4</ele>
        <time>2014-07-29T11:12:16Z</time>
      </trkpt>
      <trkpt lat="43.4647540" lon="-7.3087560">
        <ele>165.3</ele>
        <time>2014-07-29T11:12:30Z</time>
      </trkpt>
      <trkpt lat="43.4646030" lon="-7.3090080">
        <ele>166.9</ele>
        <time>2014-07-29T11:12:43Z</time>
      </trkpt>
      <trkpt lat="43.4644990" lon="-7.3091590">
        <ele>168.2</ele>
        <time>2014-07-29T11:12:53Z</time>
      </trkpt>
      <trkpt lat="43.4643780" lon="-7.3093920">
        <ele>170.1</ele>
        <time>2014-07-29T11:13:06Z</time>
      </trkpt>
      <trkpt lat="43.4643710" lon="-7.3094150">
        <ele>170.2</ele>
        <time>2014-07-29T11:13:07Z</time>
      </trkpt>
      <trkpt lat="43.4643380" lon="-7.3094610">
        <ele>170.6</ele>
        <time>2014-07-29T11:13:10Z</time>
      </trkpt>
      <trkpt lat="43.4642950" lon="-7.3096140">
        <ele>171.5</ele>
        <time>2014-07-29T11:13:18Z</time>
      </trkpt>
      <trkpt lat="43.4642520" lon="-7.3097530">
        <ele>172.4</ele>
        <time>2014-07-29T11:13:25Z</time>
      </trkpt>
      <trkpt lat="43.4642370" lon="-7.3098410">
        <ele>173.0</ele>
        <time>2014-07-29T11:13:29Z</time>
      </trkpt>
      <trkpt lat="43.4641750" lon="-7.3101050">
        <ele>175.1</ele>
        <time>2014-07-29T11:13:42Z</time>
      </trkpt>
      <trkpt lat="43.4640930" lon="-7.3102370">
        <ele>176.2</ele>
        <time>2014-07-29T11:13:51Z</time>
      </trkpt>
      <trkpt lat="43.4639440" lon="-7.3104860">
        <ele>177.9</ele>
        <time>2014-07-29T11:14:06Z</time>
      </trkpt>
      <trkpt lat="43.4639250" lon="-7.3105210">
        <ele>178.0</ele>
        <time>2014-07-29T11:14:08Z</time>
      </trkpt>
      <trkpt lat="43.4638450" lon="-7.3106230">
        <ele>178.7</ele>
        <time>2014-07-29T11:14:21Z</time>
      </trkpt>
      <trkpt lat="43.4638450" lon="-7.3106230">
        <ele>178.7</ele>
        <time>2014-07-29T11:14:29Z</time>
      </trkpt>
      <trkpt lat="43.4638250" lon="-7.3107020">
        <ele>179.0</ele>
        <time>2014-07-29T11:15:18Z</time>
      </trkpt>
      <trkpt lat="43.4638090" lon="-7.3107030">
        <ele>179.1</ele>
        <time>2014-07-29T11:15:20Z</time>
      </trkpt>
      <trkpt lat="43.4638400" lon="-7.3107540">
        <ele>179.4</ele>
        <time>2014-07-29T11:15:39Z</time>
      </trkpt>
      <trkpt lat="43.4638330" lon="-7.3107810">
        <ele>179.5</ele>
        <time>2014-07-29T11:15:50Z</time>
      </trkpt>
      <trkpt lat="43.4637690" lon="-7.3108100">
        <ele>179.9</ele>
        <time>2014-07-29T11:15:56Z</time>
      </trkpt>
      <trkpt lat="43.4637440" lon="-7.3108290">
        <ele>180.1</ele>
        <time>2014-07-29T11:15:58Z</time>
      </trkpt>
      <trkpt lat="43.4636680" lon="-7.3109050">
        <ele>180.6</ele>
        <time>2014-07-29T11:16:04Z</time>
      </trkpt>
      <trkpt lat="43.4636250" lon="-7.3109710">
        <ele>181.0</ele>
        <time>2014-07-29T11:16:08Z</time>
      </trkpt>
      <trkpt lat="43.4635080" lon="-7.3110820">
        <ele>182.1</ele>
        <time>2014-07-29T11:16:18Z</time>
      </trkpt>
      <trkpt lat="43.4634220" lon="-7.3111830">
        <ele>182.8</ele>
        <time>2014-07-29T11:16:26Z</time>
      </trkpt>
      <trkpt lat="43.4633600" lon="-7.3112410">
        <ele>183.3</ele>
        <time>2014-07-29T11:16:31Z</time>
      </trkpt>
      <trkpt lat="43.4632040" lon="-7.3113920">
        <ele>184.6</ele>
        <time>2014-07-29T11:16:43Z</time>
      </trkpt>
      <trkpt lat="43.4631650" lon="-7.3114200">
        <ele>185.0</ele>
        <time>2014-07-29T11:16:46Z</time>
      </trkpt>
      <trkpt lat="43.4631550" lon="-7.3114290">
        <ele>185.1</ele>
        <time>2014-07-29T11:16:47Z</time>
      </trkpt>
      <trkpt lat="43.4629640" lon="-7.3116600">
        <ele>186.8</ele>
        <time>2014-07-29T11:16:59Z</time>
      </trkpt>
      <trkpt lat="43.4629100" lon="-7.3117140">
        <ele>187.2</ele>
        <time>2014-07-29T11:17:02Z</time>
      </trkpt>
      <trkpt lat="43.4628050" lon="-7.3118700">
        <ele>187.9</ele>
        <time>2014-07-29T11:17:09Z</time>
      </trkpt>
      <trkpt lat="43.4627350" lon="-7.3119840">
        <ele>188.6</ele>
        <time>2014-07-29T11:17:14Z</time>
      </trkpt>
      <trkpt lat="43.4625920" lon="-7.3122690">
        <ele>190.3</ele>
        <time>2014-07-29T11:17:27Z</time>
      </trkpt>
      <trkpt lat="43.4625270" lon="-7.3124200">
        <ele>190.9</ele>
        <time>2014-07-29T11:17:34Z</time>
      </trkpt>
      <trkpt lat="43.4624560" lon="-7.3125520">
        <ele>191.5</ele>
        <time>2014-07-29T11:17:40Z</time>
      </trkpt>
      <trkpt lat="43.4622600" lon="-7.3128520">
        <ele>193.4</ele>
        <time>2014-07-29T11:17:56Z</time>
      </trkpt>
      <trkpt lat="43.4622060" lon="-7.3129260">
        <ele>193.8</ele>
        <time>2014-07-29T11:18:00Z</time>
      </trkpt>
      <trkpt lat="43.4621400" lon="-7.3130140">
        <ele>194.2</ele>
        <time>2014-07-29T11:18:05Z</time>
      </trkpt>
      <trkpt lat="43.4620750" lon="-7.3131050">
        <ele>194.5</ele>
        <time>2014-07-29T11:18:10Z</time>
      </trkpt>
      <trkpt lat="43.4620390" lon="-7.3131310">
        <ele>194.7</ele>
        <time>2014-07-29T11:18:12Z</time>
      </trkpt>
      <trkpt lat="43.4619330" lon="-7.3132710">
        <ele>195.3</ele>
        <time>2014-07-29T11:18:20Z</time>
      </trkpt>
      <trkpt lat="43.4617480" lon="-7.3135620">
        <ele>196.9</ele>
        <time>2014-07-29T11:18:35Z</time>
      </trkpt>
      <trkpt lat="43.4616010" lon="-7.3138290">
        <ele>198.8</ele>
        <time>2014-07-29T11:18:47Z</time>
      </trkpt>
      <trkpt lat="43.4615850" lon="-7.3138460">
        <ele>198.9</ele>
        <time>2014-07-29T11:18:48Z</time>
      </trkpt>
      <trkpt lat="43.4615210" lon="-7.3139240">
        <ele>199.6</ele>
        <time>2014-07-29T11:18:52Z</time>
      </trkpt>
      <trkpt lat="43.4613560" lon="-7.3140900">
        <ele>201.5</ele>
        <time>2014-07-29T11:19:00Z</time>
      </trkpt>
      <trkpt lat="43.4611890" lon="-7.3142560">
        <ele>204.1</ele>
        <time>2014-07-29T11:19:09Z</time>
      </trkpt>
      <trkpt lat="43.4611770" lon="-7.3143170">
        <ele>204.7</ele>
        <time>2014-07-29T11:19:11Z</time>
      </trkpt>
      <trkpt lat="43.4611780" lon="-7.3143410">
        <ele>205.0</ele>
        <time>2014-07-29T11:19:12Z</time>
      </trkpt>
      <trkpt lat="43.4611350" lon="-7.3143380">
        <ele>205.6</ele>
        <time>2014-07-29T11:19:13Z</time>
      </trkpt>
      <trkpt lat="43.4610290" lon="-7.3144080">
        <ele>207.5</ele>
        <time>2014-07-29T11:19:17Z</time>
      </trkpt>
      <trkpt lat="43.4608050" lon="-7.3146340">
        <ele>211.8</ele>
        <time>2014-07-29T11:19:28Z</time>
      </trkpt>
      <trkpt lat="43.4607810" lon="-7.3146500">
        <ele>212.1</ele>
        <time>2014-07-29T11:19:30Z</time>
      </trkpt>
      <trkpt lat="43.4607700" lon="-7.3146790">
        <ele>212.3</ele>
        <time>2014-07-29T11:19:32Z</time>
      </trkpt>
      <trkpt lat="43.4607410" lon="-7.3146910">
        <ele>212.6</ele>
        <time>2014-07-29T11:19:34Z</time>
      </trkpt>
      <trkpt lat="43.4606110" lon="-7.3147390">
        <ele>213.7</ele>
        <time>2014-07-29T11:19:42Z</time>
      </trkpt>
      <trkpt lat="43.4605660" lon="-7.3147760">
        <ele>214.2</ele>
        <time>2014-07-29T11:19:45Z</time>
      </trkpt>
      <trkpt lat="43.4604870" lon="-7.3148690">
        <ele>215.1</ele>
        <time>2014-07-29T11:19:53Z</time>
      </trkpt>
      <trkpt lat="43.4603660" lon="-7.3149720">
        <ele>216.5</ele>
        <time>2014-07-29T11:20:02Z</time>
      </trkpt>
      <trkpt lat="43.4603180" lon="-7.3150260">
        <ele>217.0</ele>
        <time>2014-07-29T11:20:06Z</time>
      </trkpt>
      <trkpt lat="43.4602920" lon="-7.3150370">
        <ele>217.2</ele>
        <time>2014-07-29T11:20:08Z</time>
      </trkpt>
      <trkpt lat="43.4602330" lon="-7.3151080">
        <ele>217.9</ele>
        <time>2014-07-29T11:20:13Z</time>
      </trkpt>
      <trkpt lat="43.4600950" lon="-7.3152610">
        <ele>219.8</ele>
        <time>2014-07-29T11:20:25Z</time>
      </trkpt>
      <trkpt lat="43.4600430" lon="-7.3152970">
        <ele>220.4</ele>
        <time>2014-07-29T11:20:30Z</time>
      </trkpt>
      <trkpt lat="43.4599920" lon="-7.3153410">
        <ele>221.1</ele>
        <time>2014-07-29T11:20:35Z</time>
      </trkpt>
      <trkpt lat="43.4599430" lon="-7.3153670">
        <ele>221.9</ele>
        <time>2014-07-29T11:20:40Z</time>
      </trkpt>
      <trkpt lat="43.4599300" lon="-7.3153890">
        <ele>222.2</ele>
        <time>2014-07-29T11:20:42Z</time>
      </trkpt>
      <trkpt lat="43.4597850" lon="-7.3154320">
        <ele>224.3</ele>
        <time>2014-07-29T11:20:55Z</time>
      </trkpt>
      <trkpt lat="43.4597290" lon="-7.3154400">
        <ele>225.0</ele>
        <time>2014-07-29T11:21:00Z</time>
      </trkpt>
      <trkpt lat="43.4595890" lon="-7.3155360">
        <ele>226.5</ele>
        <time>2014-07-29T11:21:13Z</time>
      </trkpt>
      <trkpt lat="43.4594650" lon="-7.3156670">
        <ele>227.7</ele>
        <time>2014-07-29T11:21:25Z</time>
      </trkpt>
      <trkpt lat="43.4594170" lon="-7.3157250">
        <ele>228.2</ele>
        <time>2014-07-29T11:21:30Z</time>
      </trkpt>
      <trkpt lat="43.4592500" lon="-7.3158660">
        <ele>229.5</ele>
        <time>2014-07-29T11:21:44Z</time>
      </trkpt>
      <trkpt lat="43.4591970" lon="-7.3159070">
        <ele>229.8</ele>
        <time>2014-07-29T11:21:47Z</time>
      </trkpt>
      <trkpt lat="43.4590680" lon="-7.3159710">
        <ele>230.5</ele>
        <time>2014-07-29T11:21:54Z</time>
      </trkpt>
      <trkpt lat="43.4590140" lon="-7.3159980">
        <ele>230.8</ele>
        <time>2014-07-29T11:21:57Z</time>
      </trkpt>
      <trkpt lat="43.4589920" lon="-7.3160230">
        <ele>231.0</ele>
        <time>2014-07-29T11:21:59Z</time>
      </trkpt>
      <trkpt lat="43.4587720" lon="-7.3162370">
        <ele>233.2</ele>
        <time>2014-07-29T11:22:17Z</time>
      </trkpt>
      <trkpt lat="43.4586640" lon="-7.3163450">
        <ele>234.6</ele>
        <time>2014-07-29T11:22:27Z</time>
      </trkpt>
      <trkpt lat="43.4585580" lon="-7.3164700">
        <ele>235.9</ele>
        <time>2014-07-29T11:22:37Z</time>
      </trkpt>
      <trkpt lat="43.4585130" lon="-7.3165380">
        <ele>236.5</ele>
        <time>2014-07-29T11:22:42Z</time>
      </trkpt>
      <trkpt lat="43.4584830" lon="-7.3165870">
        <ele>237.0</ele>
        <time>2014-07-29T11:22:46Z</time>
      </trkpt>
      <trkpt lat="43.4584400" lon="-7.3166210">
        <ele>237.4</ele>
        <time>2014-07-29T11:22:50Z</time>
      </trkpt>
      <trkpt lat="43.4583360" lon="-7.3167680">
        <ele>238.8</ele>
        <time>2014-07-29T11:23:01Z</time>
      </trkpt>
      <trkpt lat="43.4581760" lon="-7.3169010">
        <ele>239.8</ele>
        <time>2014-07-29T11:23:14Z</time>
      </trkpt>
      <trkpt lat="43.4580900" lon="-7.3168920">
        <ele>240.0</ele>
        <time>2014-07-29T11:23:20Z</time>
      </trkpt>
      <trkpt lat="43.4578460" lon="-7.3170710">
        <ele>239.8</ele>
        <time>2014-07-29T11:23:34Z</time>
      </trkpt>
      <trkpt lat="43.4575530" lon="-7.3173130">
        <ele>238.7</ele>
        <time>2014-07-29T11:23:44Z</time>
      </trkpt>
      <trkpt lat="43.4575250" lon="-7.3173350">
        <ele>238.6</ele>
        <time>2014-07-29T11:23:45Z</time>
      </trkpt>
      <trkpt lat="43.4573850" lon="-7.3174650">
        <ele>237.7</ele>
        <time>2014-07-29T11:23:48Z</time>
      </trkpt>
      <trkpt lat="43.4572940" lon="-7.3175560">
        <ele>237.1</ele>
        <time>2014-07-29T11:23:50Z</time>
      </trkpt>
      <trkpt lat="43.4570720" lon="-7.3177350">
        <ele>235.9</ele>
        <time>2014-07-29T11:23:54Z</time>
      </trkpt>
      <trkpt lat="43.4568990" lon="-7.3178620">
        <ele>235.2</ele>
        <time>2014-07-29T11:23:57Z</time>
      </trkpt>
      <trkpt lat="43.4567430" lon="-7.3179960">
        <ele>234.0</ele>
        <time>2014-07-29T11:24:02Z</time>
      </trkpt>
      <trkpt lat="43.4566560" lon="-7.3181270">
        <ele>232.8</ele>
        <time>2014-07-29T11:24:07Z</time>
      </trkpt>
      <trkpt lat="43.4563910" lon="-7.3183010">
        <ele>228.8</ele>
        <time>2014-07-29T11:24:17Z</time>
      </trkpt>
      <trkpt lat="43.4561550" lon="-7.3183660">
        <ele>226.5</ele>
        <time>2014-07-29T11:24:24Z</time>
      </trkpt>
      <trkpt lat="43.4559360" lon="-7.3184290">
        <ele>225.8</ele>
        <time>2014-07-29T11:24:35Z</time>
      </trkpt>
      <trkpt lat="43.4559360" lon="-7.3184290">
        <ele>225.8</ele>
        <time>2014-07-29T11:24:37Z</time>
      </trkpt>
      <trkpt lat="43.4557250" lon="-7.3183480">
        <ele>225.6</ele>
        <time>2014-07-29T11:24:49Z</time>
      </trkpt>
      <trkpt lat="43.4557030" lon="-7.3183360">
        <ele>225.5</ele>
        <time>2014-07-29T11:25:06Z</time>
      </trkpt>
      <trkpt lat="43.4557030" lon="-7.3183360">
        <ele>225.5</ele>
        <time>2014-07-29T11:25:13Z</time>
      </trkpt>
      <trkpt lat="43.4557030" lon="-7.3183360">
        <ele>225.5</ele>
        <time>2014-07-29T11:25:14Z</time>
      </trkpt>
      <trkpt lat="43.4556630" lon="-7.3183110">
        <ele>225.3</ele>
        <time>2014-07-29T11:25:42Z</time>
      </trkpt>
      <trkpt lat="43.4555740" lon="-7.3183140">
        <ele>225.5</ele>
        <time>2014-07-29T11:25:48Z</time>
      </trkpt>
      <trkpt lat="43.4554420" lon="-7.3184650">
        <ele>226.1</ele>
        <time>2014-07-29T11:25:57Z</time>
      </trkpt>
      <trkpt lat="43.4552070" lon="-7.3188110">
        <ele>227.5</ele>
        <time>2014-07-29T11:26:15Z</time>
      </trkpt>
      <trkpt lat="43.4549200" lon="-7.3191720">
        <ele>229.0</ele>
        <time>2014-07-29T11:26:33Z</time>
      </trkpt>
      <trkpt lat="43.4546640" lon="-7.3195120">
        <ele>230.4</ele>
        <time>2014-07-29T11:26:49Z</time>
      </trkpt>
      <trkpt lat="43.4543890" lon="-7.3198610">
        <ele>231.2</ele>
        <time>2014-07-29T11:27:05Z</time>
      </trkpt>
      <trkpt lat="43.4542010" lon="-7.3201260">
        <ele>232.0</ele>
        <time>2014-07-29T11:27:13Z</time>
      </trkpt>
      <trkpt lat="43.4538410" lon="-7.3205840">
        <ele>232.9</ele>
        <time>2014-07-29T11:27:23Z</time>
      </trkpt>
      <trkpt lat="43.4533190" lon="-7.3212700">
        <ele>232.2</ele>
        <time>2014-07-29T11:27:33Z</time>
      </trkpt>
      <trkpt lat="43.4528000" lon="-7.3219590">
        <ele>227.8</ele>
        <time>2014-07-29T11:27:41Z</time>
      </trkpt>
      <trkpt lat="43.4525750" lon="-7.3222320">
        <ele>225.3</ele>
        <time>2014-07-29T11:27:44Z</time>
      </trkpt>
      <trkpt lat="43.4522270" lon="-7.3227460">
        <ele>222.7</ele>
        <time>2014-07-29T11:27:49Z</time>
      </trkpt>
      <trkpt lat="43.4520960" lon="-7.3229530">
        <ele>220.9</ele>
        <time>2014-07-29T11:27:51Z</time>
      </trkpt>
      <trkpt lat="43.4520300" lon="-7.3230610">
        <ele>219.5</ele>
        <time>2014-07-29T11:27:52Z</time>
      </trkpt>
      <trkpt lat="43.4518220" lon="-7.3233840">
        <ele>216.0</ele>
        <time>2014-07-29T11:27:55Z</time>
      </trkpt>
      <trkpt lat="43.4516870" lon="-7.3236010">
        <ele>214.7</ele>
        <time>2014-07-29T11:27:57Z</time>
      </trkpt>
      <trkpt lat="43.4513250" lon="-7.3242630">
        <ele>211.0</ele>
        <time>2014-07-29T11:28:03Z</time>
      </trkpt>
      <trkpt lat="43.4510800" lon="-7.3247060">
        <ele>208.1</ele>
        <time>2014-07-29T11:28:07Z</time>
      </trkpt>
      <trkpt lat="43.4510210" lon="-7.3248300">
        <ele>207.3</ele>
        <time>2014-07-29T11:28:08Z</time>
      </trkpt>
      <trkpt lat="43.4509700" lon="-7.3249600">
        <ele>206.5</ele>
        <time>2014-07-29T11:28:09Z</time>
      </trkpt>
      <trkpt lat="43.4509280" lon="-7.3250980">
        <ele>205.6</ele>
        <time>2014-07-29T11:28:10Z</time>
      </trkpt>
      <trkpt lat="43.4508600" lon="-7.3253760">
        <ele>203.8</ele>
        <time>2014-07-29T11:28:12Z</time>
      </trkpt>
      <trkpt lat="43.4507250" lon="-7.3260480">
        <ele>201.1</ele>
        <time>2014-07-29T11:28:17Z</time>
      </trkpt>
      <trkpt lat="43.4507400" lon="-7.3268650">
        <ele>196.3</ele>
        <time>2014-07-29T11:28:23Z</time>
      </trkpt>
      <trkpt lat="43.4507610" lon="-7.3272490">
        <ele>193.7</ele>
        <time>2014-07-29T11:28:26Z</time>
      </trkpt>
      <trkpt lat="43.4507500" lon="-7.3273720">
        <ele>192.9</ele>
        <time>2014-07-29T11:28:27Z</time>
      </trkpt>
      <trkpt lat="43.4507110" lon="-7.3276130">
        <ele>191.4</ele>
        <time>2014-07-29T11:28:29Z</time>
      </trkpt>
      <trkpt lat="43.4506260" lon="-7.3282600">
        <ele>188.4</ele>
        <time>2014-07-29T11:28:35Z</time>
      </trkpt>
      <trkpt lat="43.4506360" lon="-7.3283540">
        <ele>188.1</ele>
        <time>2014-07-29T11:28:36Z</time>
      </trkpt>
      <trkpt lat="43.4506550" lon="-7.3284900">
        <ele>187.4</ele>
        <time>2014-07-29T11:28:38Z</time>
      </trkpt>
      <trkpt lat="43.4506460" lon="-7.3285310">
        <ele>187.1</ele>
        <time>2014-07-29T11:28:39Z</time>
      </trkpt>
      <trkpt lat="43.4506350" lon="-7.3285580">
        <ele>187.0</ele>
        <time>2014-07-29T11:28:40Z</time>
      </trkpt>
      <trkpt lat="43.4506190" lon="-7.3286070">
        <ele>186.8</ele>
        <time>2014-07-29T11:28:42Z</time>
      </trkpt>
      <trkpt lat="43.4506240" lon="-7.3289730">
        <ele>186.6</ele>
        <time>2014-07-29T11:28:52Z</time>
      </trkpt>
      <trkpt lat="43.4505780" lon="-7.3296590">
        <ele>186.9</ele>
        <time>2014-07-29T11:29:08Z</time>
      </trkpt>
      <trkpt lat="43.4505600" lon="-7.3300610">
        <ele>187.2</ele>
        <time>2014-07-29T11:29:20Z</time>
      </trkpt>
      <trkpt lat="43.4507070" lon="-7.3304730">
        <ele>188.2</ele>
        <time>2014-07-29T11:29:32Z</time>
      </trkpt>
      <trkpt lat="43.4508170" lon="-7.3307870">
        <ele>189.0</ele>
        <time>2014-07-29T11:29:44Z</time>
      </trkpt>
      <trkpt lat="43.4508890" lon="-7.3309770">
        <ele>189.9</ele>
        <time>2014-07-29T11:29:55Z</time>
      </trkpt>
      <trkpt lat="43.4508610" lon="-7.3310900">
        <ele>190.8</ele>
        <time>2014-07-29T11:30:02Z</time>
      </trkpt>
      <trkpt lat="43.4508080" lon="-7.3313430">
        <ele>192.6</ele>
        <time>2014-07-29T11:30:17Z</time>
      </trkpt>
      <trkpt lat="43.4507490" lon="-7.3316710">
        <ele>193.8</ele>
        <time>2014-07-29T11:30:35Z</time>
      </trkpt>
      <trkpt lat="43.4507010" lon="-7.3319230">
        <ele>193.9</ele>
        <time>2014-07-29T11:30:47Z</time>
      </trkpt>
      <trkpt lat="43.4507040" lon="-7.3319510">
        <ele>193.9</ele>
        <time>2014-07-29T11:30:58Z</time>
      </trkpt>
      <trkpt lat="43.4507040" lon="-7.3319510">
        <ele>193.9</ele>
        <time>2014-07-29T11:31:26Z</time>
      </trkpt>
      <trkpt lat="43.4507030" lon="-7.3319520">
        <ele>193.9</ele>
        <time>2014-07-29T11:31:51Z</time>
      </trkpt>
      <trkpt lat="43.4507000" lon="-7.3319640">
        <ele>193.9</ele>
        <time>2014-07-29T11:32:12Z</time>
      </trkpt>
      <trkpt lat="43.4506780" lon="-7.3321700">
        <ele>193.6</ele>
        <time>2014-07-29T11:32:18Z</time>
      </trkpt>
      <trkpt lat="43.4506700" lon="-7.3323130">
        <ele>193.4</ele>
        <time>2014-07-29T11:32:20Z</time>
      </trkpt>
      <trkpt lat="43.4506700" lon="-7.3323950">
        <ele>193.3</ele>
        <time>2014-07-29T11:32:21Z</time>
      </trkpt>
      <trkpt lat="43.4506410" lon="-7.3328570">
        <ele>192.6</ele>
        <time>2014-07-29T11:32:26Z</time>
      </trkpt>
      <trkpt lat="43.4504420" lon="-7.3340160">
        <ele>191.8</ele>
        <time>2014-07-29T11:32:37Z</time>
      </trkpt>
      <trkpt lat="43.4504120" lon="-7.3342380">
        <ele>191.7</ele>
        <time>2014-07-29T11:32:39Z</time>
      </trkpt>
      <trkpt lat="43.4501980" lon="-7.3351910">
        <ele>191.3</ele>
        <time>2014-07-29T11:32:49Z</time>
      </trkpt>
      <trkpt lat="43.4501700" lon="-7.3351880">
        <ele>191.2</ele>
        <time>2014-07-29T11:32:58Z</time>
      </trkpt>
      <trkpt lat="43.4501700" lon="-7.3351880">
        <ele>191.2</ele>
        <time>2014-07-29T11:33:00Z</time>
      </trkpt>
      <trkpt lat="43.4501360" lon="-7.3352790">
        <ele>190.9</ele>
        <time>2014-07-29T11:33:05Z</time>
      </trkpt>
      <trkpt lat="43.4500810" lon="-7.3356550">
        <ele>186.4</ele>
        <time>2014-07-29T11:33:14Z</time>
      </trkpt>
      <trkpt lat="43.4500900" lon="-7.3357040">
        <ele>185.8</ele>
        <time>2014-07-29T11:33:15Z</time>
      </trkpt>
      <trkpt lat="43.4500790" lon="-7.3360670">
        <ele>181.8</ele>
        <time>2014-07-29T11:33:23Z</time>
      </trkpt>
      <trkpt lat="43.4500420" lon="-7.3363790">
        <ele>178.3</ele>
        <time>2014-07-29T11:33:32Z</time>
      </trkpt>
      <trkpt lat="43.4500210" lon="-7.3364910">
        <ele>177.1</ele>
        <time>2014-07-29T11:33:35Z</time>
      </trkpt>
      <trkpt lat="43.4499960" lon="-7.3367840">
        <ele>173.7</ele>
        <time>2014-07-29T11:33:41Z</time>
      </trkpt>
      <trkpt lat="43.4499830" lon="-7.3371970">
        <ele>169.7</ele>
        <time>2014-07-29T11:33:48Z</time>
      </trkpt>
      <trkpt lat="43.4499290" lon="-7.3379040">
        <ele>164.1</ele>
        <time>2014-07-29T11:34:02Z</time>
      </trkpt>
      <trkpt lat="43.4498780" lon="-7.3381950">
        <ele>161.8</ele>
        <time>2014-07-29T11:34:08Z</time>
      </trkpt>
      <trkpt lat="43.4498530" lon="-7.3382270">
        <ele>161.4</ele>
        <time>2014-07-29T11:34:09Z</time>
      </trkpt>
      <trkpt lat="43.4498380" lon="-7.3382600">
        <ele>161.1</ele>
        <time>2014-07-29T11:34:10Z</time>
      </trkpt>
      <trkpt lat="43.4498240" lon="-7.3382940">
        <ele>160.8</ele>
        <time>2014-07-29T11:34:11Z</time>
      </trkpt>
      <trkpt lat="43.4498060" lon="-7.3383300">
        <ele>160.4</ele>
        <time>2014-07-29T11:34:12Z</time>
      </trkpt>
      <trkpt lat="43.4497830" lon="-7.3383690">
        <ele>159.8</ele>
        <time>2014-07-29T11:34:13Z</time>
      </trkpt>
      <trkpt lat="43.4497580" lon="-7.3384090">
        <ele>159.3</ele>
        <time>2014-07-29T11:34:14Z</time>
      </trkpt>
      <trkpt lat="43.4497340" lon="-7.3384520">
        <ele>158.7</ele>
        <time>2014-07-29T11:34:15Z</time>
      </trkpt>
      <trkpt lat="43.4496860" lon="-7.3385930">
        <ele>157.2</ele>
        <time>2014-07-29T11:34:19Z</time>
      </trkpt>
      <trkpt lat="43.4496730" lon="-7.3386070">
        <ele>157.0</ele>
        <time>2014-07-29T11:34:20Z</time>
      </trkpt>
      <trkpt lat="43.4496570" lon="-7.3386200">
        <ele>156.8</ele>
        <time>2014-07-29T11:34:21Z</time>
      </trkpt>
      <trkpt lat="43.4496410" lon="-7.3386390">
        <ele>156.5</ele>
        <time>2014-07-29T11:34:22Z</time>
      </trkpt>
      <trkpt lat="43.4496260" lon="-7.3386720">
        <ele>155.9</ele>
        <time>2014-07-29T11:34:23Z</time>
      </trkpt>
      <trkpt lat="43.4496130" lon="-7.3387130">
        <ele>155.6</ele>
        <time>2014-07-29T11:34:24Z</time>
      </trkpt>
      <trkpt lat="43.4495940" lon="-7.3387500">
        <ele>155.3</ele>
        <time>2014-07-29T11:34:25Z</time>
      </trkpt>
      <trkpt lat="43.4495730" lon="-7.3387840">
        <ele>155.1</ele>
        <time>2014-07-29T11:34:26Z</time>
      </trkpt>
      <trkpt lat="43.4495630" lon="-7.3388250">
        <ele>154.9</ele>
        <time>2014-07-29T11:34:27Z</time>
      </trkpt>
      <trkpt lat="43.4495530" lon="-7.3388800">
        <ele>154.6</ele>
        <time>2014-07-29T11:34:28Z</time>
      </trkpt>
      <trkpt lat="43.4495370" lon="-7.3389250">
        <ele>154.4</ele>
        <time>2014-07-29T11:34:29Z</time>
      </trkpt>
      <trkpt lat="43.4495210" lon="-7.3389510">
        <ele>154.2</ele>
        <time>2014-07-29T11:34:30Z</time>
      </trkpt>
      <trkpt lat="43.4494850" lon="-7.3390530">
        <ele>153.5</ele>
        <time>2014-07-29T11:34:39Z</time>
      </trkpt>
      <trkpt lat="43.4495060" lon="-7.3390430">
        <ele>153.2</ele>
        <time>2014-07-29T11:34:53Z</time>
      </trkpt>
      <trkpt lat="43.4495080" lon="-7.3390650">
        <ele>152.9</ele>
        <time>2014-07-29T11:35:05Z</time>
      </trkpt>
      <trkpt lat="43.4495250" lon="-7.3391340">
        <ele>152.1</ele>
        <time>2014-07-29T11:35:16Z</time>
      </trkpt>
      <trkpt lat="43.4495360" lon="-7.3392160">
        <ele>151.2</ele>
        <time>2014-07-29T11:35:18Z</time>
      </trkpt>
      <trkpt lat="43.4494920" lon="-7.3394870">
        <ele>148.9</ele>
        <time>2014-07-29T11:35:22Z</time>
      </trkpt>
      <trkpt lat="43.4494660" lon="-7.3399550">
        <ele>145.6</ele>
        <time>2014-07-29T11:35:35Z</time>
      </trkpt>
      <trkpt lat="43.4494600" lon="-7.3402210">
        <ele>143.9</ele>
        <time>2014-07-29T11:35:42Z</time>
      </trkpt>
      <trkpt lat="43.4494530" lon="-7.3402770">
        <ele>143.3</ele>
        <time>2014-07-29T11:35:51Z</time>
      </trkpt>
      <trkpt lat="43.4494290" lon="-7.3403100">
        <ele>142.8</ele>
        <time>2014-07-29T11:36:06Z</time>
      </trkpt>
      <trkpt lat="43.4493830" lon="-7.3402840">
        <ele>142.1</ele>
        <time>2014-07-29T11:36:24Z</time>
      </trkpt>
      <trkpt lat="43.4493690" lon="-7.3402750">
        <ele>141.9</ele>
        <time>2014-07-29T11:36:25Z</time>
      </trkpt>
      <trkpt lat="43.4492450" lon="-7.3402290">
        <ele>141.1</ele>
        <time>2014-07-29T11:36:34Z</time>
      </trkpt>
      <trkpt lat="43.4492280" lon="-7.3402330">
        <ele>141.1</ele>
        <time>2014-07-29T11:36:35Z</time>
      </trkpt>
      <trkpt lat="43.4490900" lon="-7.3401610">
        <ele>141.3</ele>
        <time>2014-07-29T11:36:47Z</time>
      </trkpt>
      <trkpt lat="43.4489990" lon="-7.3401230">
        <ele>141.4</ele>
        <time>2014-07-29T11:36:57Z</time>
      </trkpt>
      <trkpt lat="43.4489550" lon="-7.3401090">
        <ele>141.5</ele>
        <time>2014-07-29T11:37:07Z</time>
      </trkpt>
      <trkpt lat="43.4488100" lon="-7.3400600">
        <ele>141.5</ele>
        <time>2014-07-29T11:37:16Z</time>
      </trkpt>
      <trkpt lat="43.4486200" lon="-7.3400740">
        <ele>141.9</ele>
        <time>2014-07-29T11:37:25Z</time>
      </trkpt>
      <trkpt lat="43.4484330" lon="-7.3401870">
        <ele>142.8</ele>
        <time>2014-07-29T11:37:34Z</time>
      </trkpt>
      <trkpt lat="43.4483320" lon="-7.3404550">
        <ele>144.3</ele>
        <time>2014-07-29T11:37:45Z</time>
      </trkpt>
      <trkpt lat="43.4482570" lon="-7.3406840">
        <ele>145.9</ele>
        <time>2014-07-29T11:37:55Z</time>
      </trkpt>
      <trkpt lat="43.4481620" lon="-7.3408630">
        <ele>147.3</ele>
        <time>2014-07-29T11:38:06Z</time>
      </trkpt>
      <trkpt lat="43.4481420" lon="-7.3408870">
        <ele>147.6</ele>
        <time>2014-07-29T11:38:08Z</time>
      </trkpt>
      <trkpt lat="43.4480890" lon="-7.3409500">
        <ele>148.2</ele>
        <time>2014-07-29T11:38:13Z</time>
      </trkpt>
      <trkpt lat="43.4480360" lon="-7.3410000">
        <ele>148.8</ele>
        <time>2014-07-29T11:38:18Z</time>
      </trkpt>
      <trkpt lat="43.4479770" lon="-7.3410340">
        <ele>149.4</ele>
        <time>2014-07-29T11:38:23Z</time>
      </trkpt>
      <trkpt lat="43.4477990" lon="-7.3411640">
        <ele>151.1</ele>
        <time>2014-07-29T11:38:40Z</time>
      </trkpt>
      <trkpt lat="43.4477420" lon="-7.3411760">
        <ele>151.5</ele>
        <time>2014-07-29T11:38:44Z</time>
      </trkpt>
      <trkpt lat="43.4476340" lon="-7.3412390">
        <ele>152.5</ele>
        <time>2014-07-29T11:38:53Z</time>
      </trkpt>
      <trkpt lat="43.4475690" lon="-7.3413480">
        <ele>153.3</ele>
        <time>2014-07-29T11:39:00Z</time>
      </trkpt>
      <trkpt lat="43.4474860" lon="-7.3414470">
        <ele>154.1</ele>
        <time>2014-07-29T11:39:08Z</time>
      </trkpt>
      <trkpt lat="43.4473120" lon="-7.3416710">
        <ele>155.5</ele>
        <time>2014-07-29T11:39:25Z</time>
      </trkpt>
      <trkpt lat="43.4471090" lon="-7.3417970">
        <ele>156.6</ele>
        <time>2014-07-29T11:39:40Z</time>
      </trkpt>
      <trkpt lat="43.4470390" lon="-7.3418010">
        <ele>157.0</ele>
        <time>2014-07-29T11:39:45Z</time>
      </trkpt>
      <trkpt lat="43.4468640" lon="-7.3416900">
        <ele>158.6</ele>
        <time>2014-07-29T11:39:58Z</time>
      </trkpt>
      <trkpt lat="43.4468450" lon="-7.3415680">
        <ele>159.7</ele>
        <time>2014-07-29T11:40:09Z</time>
      </trkpt>
      <trkpt lat="43.4468450" lon="-7.3415680">
        <ele>159.7</ele>
        <time>2014-07-29T11:40:10Z</time>
      </trkpt>
      <trkpt lat="43.4468450" lon="-7.3415680">
        <ele>159.7</ele>
        <time>2014-07-29T11:40:11Z</time>
      </trkpt>
      <trkpt lat="43.4468450" lon="-7.3415680">
        <ele>159.7</ele>
        <time>2014-07-29T11:40:30Z</time>
      </trkpt>
      <trkpt lat="43.4468430" lon="-7.3415370">
        <ele>160.0</ele>
        <time>2014-07-29T11:40:33Z</time>
      </trkpt>
      <trkpt lat="43.4468380" lon="-7.3413790">
        <ele>161.3</ele>
        <time>2014-07-29T11:40:41Z</time>
      </trkpt>
      <trkpt lat="43.4468260" lon="-7.3412990">
        <ele>162.0</ele>
        <time>2014-07-29T11:40:46Z</time>
      </trkpt>
      <trkpt lat="43.4467560" lon="-7.3411260">
        <ele>164.0</ele>
        <time>2014-07-29T11:40:57Z</time>
      </trkpt>
      <trkpt lat="43.4466820" lon="-7.3409480">
        <ele>166.5</ele>
        <time>2014-07-29T11:41:10Z</time>
      </trkpt>
      <trkpt lat="43.4466480" lon="-7.3409000">
        <ele>167.4</ele>
        <time>2014-07-29T11:41:15Z</time>
      </trkpt>
      <trkpt lat="43.4466380" lon="-7.3408650">
        <ele>167.9</ele>
        <time>2014-07-29T11:41:18Z</time>
      </trkpt>
      <trkpt lat="43.4465740" lon="-7.3407440">
        <ele>169.8</ele>
        <time>2014-07-29T11:41:28Z</time>
      </trkpt>
      <trkpt lat="43.4464930" lon="-7.3406130">
        <ele>172.1</ele>
        <time>2014-07-29T11:41:40Z</time>
      </trkpt>
      <trkpt lat="43.4464480" lon="-7.3405300">
        <ele>173.4</ele>
        <time>2014-07-29T11:41:51Z</time>
      </trkpt>
      <trkpt lat="43.4463800" lon="-7.3404220">
        <ele>175.2</ele>
        <time>2014-07-29T11:42:05Z</time>
      </trkpt>
      <trkpt lat="43.4462830" lon="-7.3402940">
        <ele>177.5</ele>
        <time>2014-07-29T11:42:21Z</time>
      </trkpt>
      <trkpt lat="43.4462280" lon="-7.3402750">
        <ele>178.5</ele>
        <time>2014-07-29T11:42:31Z</time>
      </trkpt>
      <trkpt lat="43.4460830" lon="-7.3402530">
        <ele>182.6</ele>
        <time>2014-07-29T11:42:48Z</time>
      </trkpt>
      <trkpt lat="43.4459590" lon="-7.3401800">
        <ele>185.0</ele>
        <time>2014-07-29T11:43:03Z</time>
      </trkpt>
      <trkpt lat="43.4459250" lon="-7.3401580">
        <ele>185.3</ele>
        <time>2014-07-29T11:43:16Z</time>
      </trkpt>
      <trkpt lat="43.4459140" lon="-7.3401570">
        <ele>185.4</ele>
        <time>2014-07-29T11:43:18Z</time>
      </trkpt>
      <trkpt lat="43.4457400" lon="-7.3401450">
        <ele>186.4</ele>
        <time>2014-07-29T11:43:31Z</time>
      </trkpt>
      <trkpt lat="43.4455410" lon="-7.3401320">
        <ele>187.4</ele>
        <time>2014-07-29T11:43:43Z</time>
      </trkpt>
      <trkpt lat="43.4454850" lon="-7.3401310">
        <ele>187.6</ele>
        <time>2014-07-29T11:43:46Z</time>
      </trkpt>
      <trkpt lat="43.4454500" lon="-7.3401370">
        <ele>187.7</ele>
        <time>2014-07-29T11:43:49Z</time>
      </trkpt>
      <trkpt lat="43.4454240" lon="-7.3401310">
        <ele>187.8</ele>
        <time>2014-07-29T11:43:53Z</time>
      </trkpt>
      <trkpt lat="43.4453100" lon="-7.3401910">
        <ele>188.2</ele>
        <time>2014-07-29T11:44:02Z</time>
      </trkpt>
      <trkpt lat="43.4452290" lon="-7.3402230">
        <ele>188.4</ele>
        <time>2014-07-29T11:44:06Z</time>
      </trkpt>
      <trkpt lat="43.4451450" lon="-7.3403140">
        <ele>188.8</ele>
        <time>2014-07-29T11:44:20Z</time>
      </trkpt>
      <trkpt lat="43.4451110" lon="-7.3403450">
        <ele>188.9</ele>
        <time>2014-07-29T11:44:31Z</time>
      </trkpt>
      <trkpt lat="43.4450490" lon="-7.3404060">
        <ele>189.0</ele>
        <time>2014-07-29T11:44:35Z</time>
      </trkpt>
      <trkpt lat="43.4448840" lon="-7.3405140">
        <ele>189.3</ele>
        <time>2014-07-29T11:44:43Z</time>
      </trkpt>
      <trkpt lat="43.4448430" lon="-7.3405860">
        <ele>189.4</ele>
        <time>2014-07-29T11:44:47Z</time>
      </trkpt>
      <trkpt lat="43.4448100" lon="-7.3406330">
        <ele>189.5</ele>
        <time>2014-07-29T11:44:49Z</time>
      </trkpt>
      <trkpt lat="43.4445550" lon="-7.3409100">
        <ele>189.6</ele>
        <time>2014-07-29T11:44:58Z</time>
      </trkpt>
      <trkpt lat="43.4444140" lon="-7.3410470">
        <ele>189.3</ele>
        <time>2014-07-29T11:45:08Z</time>
      </trkpt>
      <trkpt lat="43.4444140" lon="-7.3410510">
        <ele>189.3</ele>
        <time>2014-07-29T11:45:24Z</time>
      </trkpt>
      <trkpt lat="43.4444390" lon="-7.3410720">
        <ele>189.3</ele>
        <time>2014-07-29T11:45:27Z</time>
      </trkpt>
      <trkpt lat="43.4444490" lon="-7.3410820">
        <ele>189.3</ele>
        <time>2014-07-29T11:45:29Z</time>
      </trkpt>
      <trkpt lat="43.4443940" lon="-7.3411970">
        <ele>189.2</ele>
        <time>2014-07-29T11:45:33Z</time>
      </trkpt>
      <trkpt lat="43.4443640" lon="-7.3412590">
        <ele>189.1</ele>
        <time>2014-07-29T11:45:35Z</time>
      </trkpt>
      <trkpt lat="43.4440290" lon="-7.3415520">
        <ele>188.2</ele>
        <time>2014-07-29T11:45:45Z</time>
      </trkpt>
      <trkpt lat="43.4439370" lon="-7.3416220">
        <ele>187.4</ele>
        <time>2014-07-29T11:45:47Z</time>
      </trkpt>
      <trkpt lat="43.4438230" lon="-7.3417420">
        <ele>186.5</ele>
        <time>2014-07-29T11:45:51Z</time>
      </trkpt>
      <trkpt lat="43.4437510" lon="-7.3418130">
        <ele>185.9</ele>
        <time>2014-07-29T11:45:54Z</time>
      </trkpt>
      <trkpt lat="43.4437060" lon="-7.3419320">
        <ele>185.2</ele>
        <time>2014-07-29T11:45:57Z</time>
      </trkpt>
      <trkpt lat="43.4436420" lon="-7.3419890">
        <ele>184.6</ele>
        <time>2014-07-29T11:46:00Z</time>
      </trkpt>
      <trkpt lat="43.4435170" lon="-7.3421200">
        <ele>183.1</ele>
        <time>2014-07-29T11:46:06Z</time>
      </trkpt>
      <trkpt lat="43.4434550" lon="-7.3421940">
        <ele>182.6</ele>
        <time>2014-07-29T11:46:08Z</time>
      </trkpt>
      <trkpt lat="43.4434290" lon="-7.3422220">
        <ele>182.3</ele>
        <time>2014-07-29T11:46:09Z</time>
      </trkpt>
      <trkpt lat="43.4432830" lon="-7.3424160">
        <ele>181.2</ele>
        <time>2014-07-29T11:46:16Z</time>
      </trkpt>
      <trkpt lat="43.4432850" lon="-7.3424370">
        <ele>181.1</ele>
        <time>2014-07-29T11:46:17Z</time>
      </trkpt>
      <trkpt lat="43.4433100" lon="-7.3425710">
        <ele>180.7</ele>
        <time>2014-07-29T11:46:22Z</time>
      </trkpt>
      <trkpt lat="43.4432830" lon="-7.3427280">
        <ele>180.5</ele>
        <time>2014-07-29T11:46:27Z</time>
      </trkpt>
      <trkpt lat="43.4432330" lon="-7.3429190">
        <ele>180.5</ele>
        <time>2014-07-29T11:46:34Z</time>
      </trkpt>
      <trkpt lat="43.4431700" lon="-7.3430660">
        <ele>180.4</ele>
        <time>2014-07-29T11:46:40Z</time>
      </trkpt>
      <trkpt lat="43.4431120" lon="-7.3432260">
        <ele>180.4</ele>
        <time>2014-07-29T11:46:46Z</time>
      </trkpt>
      <trkpt lat="43.4430280" lon="-7.3433430">
        <ele>180.3</ele>
        <time>2014-07-29T11:46:52Z</time>
      </trkpt>
      <trkpt lat="43.4430100" lon="-7.3433910">
        <ele>180.3</ele>
        <time>2014-07-29T11:46:54Z</time>
      </trkpt>
      <trkpt lat="43.4428610" lon="-7.3435080">
        <ele>180.3</ele>
        <time>2014-07-29T11:47:03Z</time>
      </trkpt>
      <trkpt lat="43.4426860" lon="-7.3436530">
        <ele>180.1</ele>
        <time>2014-07-29T11:47:10Z</time>
      </trkpt>
      <trkpt lat="43.4426500" lon="-7.3436990">
        <ele>180.0</ele>
        <time>2014-07-29T11:47:13Z</time>
      </trkpt>
      <trkpt lat="43.4425340" lon="-7.3438140">
        <ele>179.9</ele>
        <time>2014-07-29T11:47:25Z</time>
      </trkpt>
      <trkpt lat="43.4425330" lon="-7.3438320">
        <ele>179.9</ele>
        <time>2014-07-29T11:47:26Z</time>
      </trkpt>
      <trkpt lat="43.4425380" lon="-7.3438420">
        <ele>179.9</ele>
        <time>2014-07-29T11:47:29Z</time>
      </trkpt>
      <trkpt lat="43.4425300" lon="-7.3438790">
        <ele>179.8</ele>
        <time>2014-07-29T11:47:43Z</time>
      </trkpt>
      <trkpt lat="43.4424390" lon="-7.3440120">
        <ele>179.5</ele>
        <time>2014-07-29T11:47:55Z</time>
      </trkpt>
      <trkpt lat="43.4423520" lon="-7.3440850">
        <ele>179.2</ele>
        <time>2014-07-29T11:48:06Z</time>
      </trkpt>
      <trkpt lat="43.4423460" lon="-7.3441270">
        <ele>179.1</ele>
        <time>2014-07-29T11:48:20Z</time>
      </trkpt>
      <trkpt lat="43.4423640" lon="-7.3441940">
        <ele>178.9</ele>
        <time>2014-07-29T11:48:31Z</time>
      </trkpt>
      <trkpt lat="43.4424180" lon="-7.3442730">
        <ele>178.5</ele>
        <time>2014-07-29T11:48:34Z</time>
      </trkpt>
      <trkpt lat="43.4424140" lon="-7.3445740">
        <ele>176.8</ele>
        <time>2014-07-29T11:48:41Z</time>
      </trkpt>
      <trkpt lat="43.4424730" lon="-7.3446480">
        <ele>175.1</ele>
        <time>2014-07-29T11:48:43Z</time>
      </trkpt>
      <trkpt lat="43.4425060" lon="-7.3446870">
        <ele>174.6</ele>
        <time>2014-07-29T11:48:44Z</time>
      </trkpt>
      <trkpt lat="43.4425300" lon="-7.3447180">
        <ele>174.3</ele>
        <time>2014-07-29T11:48:45Z</time>
      </trkpt>
      <trkpt lat="43.4425410" lon="-7.3447500">
        <ele>174.1</ele>
        <time>2014-07-29T11:48:46Z</time>
      </trkpt>
      <trkpt lat="43.4425530" lon="-7.3447780">
        <ele>173.9</ele>
        <time>2014-07-29T11:48:47Z</time>
      </trkpt>
      <trkpt lat="43.4425700" lon="-7.3448020">
        <ele>173.7</ele>
        <time>2014-07-29T11:48:48Z</time>
      </trkpt>
      <trkpt lat="43.4425710" lon="-7.3449560">
        <ele>172.8</ele>
        <time>2014-07-29T11:48:51Z</time>
      </trkpt>
      <trkpt lat="43.4425550" lon="-7.3450170">
        <ele>172.4</ele>
        <time>2014-07-29T11:48:52Z</time>
      </trkpt>
      <trkpt lat="43.4423580" lon="-7.3454100">
        <ele>168.1</ele>
        <time>2014-07-29T11:49:01Z</time>
      </trkpt>
      <trkpt lat="43.4423790" lon="-7.3454680">
        <ele>167.3</ele>
        <time>2014-07-29T11:49:02Z</time>
      </trkpt>
      <trkpt lat="43.4424080" lon="-7.3455290">
        <ele>166.4</ele>
        <time>2014-07-29T11:49:03Z</time>
      </trkpt>
      <trkpt lat="43.4424440" lon="-7.3455940">
        <ele>165.6</ele>
        <time>2014-07-29T11:49:04Z</time>
      </trkpt>
      <trkpt lat="43.4424860" lon="-7.3456600">
        <ele>164.7</ele>
        <time>2014-07-29T11:49:05Z</time>
      </trkpt>
      <trkpt lat="43.4426230" lon="-7.3458570">
        <ele>162.0</ele>
        <time>2014-07-29T11:49:08Z</time>
      </trkpt>
      <trkpt lat="43.4426570" lon="-7.3459230">
        <ele>161.2</ele>
        <time>2014-07-29T11:49:09Z</time>
      </trkpt>
      <trkpt lat="43.4427880" lon="-7.3461760">
        <ele>157.8</ele>
        <time>2014-07-29T11:49:13Z</time>
      </trkpt>
      <trkpt lat="43.4428530" lon="-7.3463010">
        <ele>156.1</ele>
        <time>2014-07-29T11:49:15Z</time>
      </trkpt>
      <trkpt lat="43.4428780" lon="-7.3463750">
        <ele>155.1</ele>
        <time>2014-07-29T11:49:16Z</time>
      </trkpt>
      <trkpt lat="43.4428980" lon="-7.3464490">
        <ele>154.0</ele>
        <time>2014-07-29T11:49:17Z</time>
      </trkpt>
      <trkpt lat="43.4429410" lon="-7.3466020">
        <ele>152.2</ele>
        <time>2014-07-29T11:49:19Z</time>
      </trkpt>
      <trkpt lat="43.4429650" lon="-7.3466770">
        <ele>151.3</ele>
        <time>2014-07-29T11:49:20Z</time>
      </trkpt>
      <trkpt lat="43.4429950" lon="-7.3467440">
        <ele>150.4</ele>
        <time>2014-07-29T11:49:21Z</time>
      </trkpt>
      <trkpt lat="43.4430240" lon="-7.3468090">
        <ele>149.4</ele>
        <time>2014-07-29T11:49:22Z</time>
      </trkpt>
      <trkpt lat="43.4430710" lon="-7.3469440">
        <ele>147.5</ele>
        <time>2014-07-29T11:49:24Z</time>
      </trkpt>
      <trkpt lat="43.4431260" lon="-7.3471660">
        <ele>144.6</ele>
        <time>2014-07-29T11:49:27Z</time>
      </trkpt>
      <trkpt lat="43.4431320" lon="-7.3472430">
        <ele>143.6</ele>
        <time>2014-07-29T11:49:28Z</time>
      </trkpt>
      <trkpt lat="43.4431350" lon="-7.3473210">
        <ele>142.5</ele>
        <time>2014-07-29T11:49:29Z</time>
      </trkpt>
      <trkpt lat="43.4431350" lon="-7.3473980">
        <ele>141.5</ele>
        <time>2014-07-29T11:49:30Z</time>
      </trkpt>
      <trkpt lat="43.4431220" lon="-7.3474840">
        <ele>140.5</ele>
        <time>2014-07-29T11:49:31Z</time>
      </trkpt>
      <trkpt lat="43.4430860" lon="-7.3476590">
        <ele>138.9</ele>
        <time>2014-07-29T11:49:33Z</time>
      </trkpt>
      <trkpt lat="43.4429540" lon="-7.3481830">
        <ele>134.3</ele>
        <time>2014-07-29T11:49:38Z</time>
      </trkpt>
      <trkpt lat="43.4428740" lon="-7.3484780">
        <ele>132.4</ele>
        <time>2014-07-29T11:49:41Z</time>
      </trkpt>
      <trkpt lat="43.4427570" lon="-7.3488410">
        <ele>130.1</ele>
        <time>2014-07-29T11:49:45Z</time>
      </trkpt>
      <trkpt lat="43.4426910" lon="-7.3491910">
        <ele>127.5</ele>
        <time>2014-07-29T11:49:49Z</time>
      </trkpt>
      <trkpt lat="43.4426510" lon="-7.3494680">
        <ele>125.5</ele>
        <time>2014-07-29T11:49:53Z</time>
      </trkpt>
      <trkpt lat="43.4426220" lon="-7.3495300">
        <ele>124.8</ele>
        <time>2014-07-29T11:49:55Z</time>
      </trkpt>
      <trkpt lat="43.4425180" lon="-7.3495790">
        <ele>125.6</ele>
        <time>2014-07-29T11:50:01Z</time>
      </trkpt>
      <trkpt lat="43.4424340" lon="-7.3495810">
        <ele>126.3</ele>
        <time>2014-07-29T11:50:07Z</time>
      </trkpt>
      <trkpt lat="43.4424140" lon="-7.3495840">
        <ele>126.4</ele>
        <time>2014-07-29T11:50:08Z</time>
      </trkpt>
      <trkpt lat="43.4423650" lon="-7.3495880">
        <ele>126.6</ele>
        <time>2014-07-29T11:50:19Z</time>
      </trkpt>
      <trkpt lat="43.4423710" lon="-7.3496300">
        <ele>126.8</ele>
        <time>2014-07-29T11:50:39Z</time>
      </trkpt>
      <trkpt lat="43.4423710" lon="-7.3496300">
        <ele>126.8</ele>
        <time>2014-07-29T11:51:05Z</time>
      </trkpt>
      <trkpt lat="43.4423630" lon="-7.3496400">
        <ele>126.8</ele>
        <time>2014-07-29T11:51:32Z</time>
      </trkpt>
      <trkpt lat="43.4423650" lon="-7.3496410">
        <ele>126.8</ele>
        <time>2014-07-29T11:52:01Z</time>
      </trkpt>
      <trkpt lat="43.4423460" lon="-7.3496220">
        <ele>126.9</ele>
        <time>2014-07-29T11:52:06Z</time>
      </trkpt>
      <trkpt lat="43.4423300" lon="-7.3496380">
        <ele>126.9</ele>
        <time>2014-07-29T11:52:07Z</time>
      </trkpt>
      <trkpt lat="43.4422010" lon="-7.3496640">
        <ele>126.9</ele>
        <time>2014-07-29T11:52:17Z</time>
      </trkpt>
      <trkpt lat="43.4419380" lon="-7.3496150">
        <ele>125.9</ele>
        <time>2014-07-29T11:52:29Z</time>
      </trkpt>
      <trkpt lat="43.4418770" lon="-7.3495730">
        <ele>125.6</ele>
        <time>2014-07-29T11:52:34Z</time>
      </trkpt>
      <trkpt lat="43.4418510" lon="-7.3495580">
        <ele>125.5</ele>
        <time>2014-07-29T11:52:35Z</time>
      </trkpt>
      <trkpt lat="43.4418280" lon="-7.3495470">
        <ele>125.4</ele>
        <time>2014-07-29T11:52:36Z</time>
      </trkpt>
      <trkpt lat="43.4418090" lon="-7.3495350">
        <ele>125.4</ele>
        <time>2014-07-29T11:52:37Z</time>
      </trkpt>
      <trkpt lat="43.4417930" lon="-7.3495240">
        <ele>125.3</ele>
        <time>2014-07-29T11:52:38Z</time>
      </trkpt>
      <trkpt lat="43.4417660" lon="-7.3494900">
        <ele>125.2</ele>
        <time>2014-07-29T11:52:39Z</time>
      </trkpt>
      <trkpt lat="43.4417380" lon="-7.3494460">
        <ele>125.1</ele>
        <time>2014-07-29T11:52:40Z</time>
      </trkpt>
      <trkpt lat="43.4417120" lon="-7.3493970">
        <ele>124.9</ele>
        <time>2014-07-29T11:52:41Z</time>
      </trkpt>
      <trkpt lat="43.4416870" lon="-7.3493440">
        <ele>124.8</ele>
        <time>2014-07-29T11:52:42Z</time>
      </trkpt>
      <trkpt lat="43.4416670" lon="-7.3492840">
        <ele>124.6</ele>
        <time>2014-07-29T11:52:43Z</time>
      </trkpt>
      <trkpt lat="43.4416480" lon="-7.3492200">
        <ele>124.4</ele>
        <time>2014-07-29T11:52:44Z</time>
      </trkpt>
      <trkpt lat="43.4415520" lon="-7.3489170">
        <ele>123.4</ele>
        <time>2014-07-29T11:52:48Z</time>
      </trkpt>
      <trkpt lat="43.4415180" lon="-7.3488460">
        <ele>123.2</ele>
        <time>2014-07-29T11:52:49Z</time>
      </trkpt>
      <trkpt lat="43.4414850" lon="-7.3487810">
        <ele>123.1</ele>
        <time>2014-07-29T11:52:50Z</time>
      </trkpt>
      <trkpt lat="43.4414320" lon="-7.3486710">
        <ele>123.1</ele>
        <time>2014-07-29T11:52:52Z</time>
      </trkpt>
      <trkpt lat="43.4414010" lon="-7.3486320">
        <ele>123.1</ele>
        <time>2014-07-29T11:52:53Z</time>
      </trkpt>
      <trkpt lat="43.4413700" lon="-7.3486100">
        <ele>123.3</ele>
        <time>2014-07-29T11:52:54Z</time>
      </trkpt>
      <trkpt lat="43.4413400" lon="-7.3485970">
        <ele>123.5</ele>
        <time>2014-07-29T11:52:55Z</time>
      </trkpt>
      <trkpt lat="43.4413140" lon="-7.3485870">
        <ele>123.6</ele>
        <time>2014-07-29T11:52:56Z</time>
      </trkpt>
      <trkpt lat="43.4412210" lon="-7.3485720">
        <ele>124.1</ele>
        <time>2014-07-29T11:53:00Z</time>
      </trkpt>
      <trkpt lat="43.4411810" lon="-7.3485850">
        <ele>124.3</ele>
        <time>2014-07-29T11:53:03Z</time>
      </trkpt>
      <trkpt lat="43.4409820" lon="-7.3487050">
        <ele>126.2</ele>
        <time>2014-07-29T11:53:15Z</time>
      </trkpt>
      <trkpt lat="43.4409230" lon="-7.3487790">
        <ele>127.0</ele>
        <time>2014-07-29T11:53:26Z</time>
      </trkpt>
      <trkpt lat="43.4408770" lon="-7.3488500">
        <ele>127.7</ele>
        <time>2014-07-29T11:53:39Z</time>
      </trkpt>
      <trkpt lat="43.4406780" lon="-7.3489810">
        <ele>129.9</ele>
        <time>2014-07-29T11:53:52Z</time>
      </trkpt>
      <trkpt lat="43.4404780" lon="-7.3491820">
        <ele>127.7</ele>
        <time>2014-07-29T11:54:03Z</time>
      </trkpt>
      <trkpt lat="43.4404040" lon="-7.3492620">
        <ele>126.6</ele>
        <time>2014-07-29T11:54:07Z</time>
      </trkpt>
      <trkpt lat="43.4402980" lon="-7.3495110">
        <ele>124.9</ele>
        <time>2014-07-29T11:54:15Z</time>
      </trkpt>
      <trkpt lat="43.4402400" lon="-7.3495680">
        <ele>124.5</ele>
        <time>2014-07-29T11:54:17Z</time>
      </trkpt>
      <trkpt lat="43.4401840" lon="-7.3496640">
        <ele>123.7</ele>
        <time>2014-07-29T11:54:20Z</time>
      </trkpt>
      <trkpt lat="43.4401630" lon="-7.3498200">
        <ele>122.0</ele>
        <time>2014-07-29T11:54:24Z</time>
      </trkpt>
      <trkpt lat="43.4400450" lon="-7.3498680">
        <ele>119.3</ele>
        <time>2014-07-29T11:54:28Z</time>
      </trkpt>
      <trkpt lat="43.4400250" lon="-7.3498860">
        <ele>118.8</ele>
        <time>2014-07-29T11:54:29Z</time>
      </trkpt>
      <trkpt lat="43.4400240" lon="-7.3500500">
        <ele>114.5</ele>
        <time>2014-07-29T11:54:33Z</time>
      </trkpt>
      <trkpt lat="43.4400340" lon="-7.3501110">
        <ele>113.4</ele>
        <time>2014-07-29T11:54:34Z</time>
      </trkpt>
      <trkpt lat="43.4400390" lon="-7.3503190">
        <ele>110.1</ele>
        <time>2014-07-29T11:54:38Z</time>
      </trkpt>
      <trkpt lat="43.4400920" lon="-7.3504440">
        <ele>107.8</ele>
        <time>2014-07-29T11:54:41Z</time>
      </trkpt>
      <trkpt lat="43.4401180" lon="-7.3504890">
        <ele>107.0</ele>
        <time>2014-07-29T11:54:42Z</time>
      </trkpt>
      <trkpt lat="43.4401450" lon="-7.3505350">
        <ele>106.1</ele>
        <time>2014-07-29T11:54:43Z</time>
      </trkpt>
      <trkpt lat="43.4402920" lon="-7.3508100">
        <ele>104.5</ele>
        <time>2014-07-29T11:54:48Z</time>
      </trkpt>
      <trkpt lat="43.4403630" lon="-7.3509530">
        <ele>103.9</ele>
        <time>2014-07-29T11:54:50Z</time>
      </trkpt>
      <trkpt lat="43.4404650" lon="-7.3511690">
        <ele>102.9</ele>
        <time>2014-07-29T11:54:53Z</time>
      </trkpt>
      <trkpt lat="43.4404950" lon="-7.3512340">
        <ele>102.5</ele>
        <time>2014-07-29T11:54:54Z</time>
      </trkpt>
      <trkpt lat="43.4405220" lon="-7.3512950">
        <ele>102.2</ele>
        <time>2014-07-29T11:54:55Z</time>
      </trkpt>
      <trkpt lat="43.4405540" lon="-7.3513450">
        <ele>101.9</ele>
        <time>2014-07-29T11:54:56Z</time>
      </trkpt>
      <trkpt lat="43.4405910" lon="-7.3513820">
        <ele>101.7</ele>
        <time>2014-07-29T11:54:57Z</time>
      </trkpt>
      <trkpt lat="43.4406380" lon="-7.3514000">
        <ele>101.4</ele>
        <time>2014-07-29T11:54:58Z</time>
      </trkpt>
      <trkpt lat="43.4406900" lon="-7.3514070">
        <ele>101.1</ele>
        <time>2014-07-29T11:54:59Z</time>
      </trkpt>
      <trkpt lat="43.4407550" lon="-7.3514080">
        <ele>100.7</ele>
        <time>2014-07-29T11:55:00Z</time>
      </trkpt>
      <trkpt lat="43.4408550" lon="-7.3514000">
        <ele>100.1</ele>
        <time>2014-07-29T11:55:01Z</time>
      </trkpt>
      <trkpt lat="43.4409410" lon="-7.3514050">
        <ele>99.7</ele>
        <time>2014-07-29T11:55:02Z</time>
      </trkpt>
      <trkpt lat="43.4411260" lon="-7.3514480">
        <ele>98.8</ele>
        <time>2014-07-29T11:55:04Z</time>
      </trkpt>
      <trkpt lat="43.4417160" lon="-7.3516090">
        <ele>95.7</ele>
        <time>2014-07-29T11:55:11Z</time>
      </trkpt>
      <trkpt lat="43.4417730" lon="-7.3516400">
        <ele>95.3</ele>
        <time>2014-07-29T11:55:12Z</time>
      </trkpt>
      <trkpt lat="43.4418140" lon="-7.3516760">
        <ele>95.0</ele>
        <time>2014-07-29T11:55:13Z</time>
      </trkpt>
      <trkpt lat="43.4418420" lon="-7.3517130">
        <ele>94.8</ele>
        <time>2014-07-29T11:55:14Z</time>
      </trkpt>
      <trkpt lat="43.4418600" lon="-7.3517510">
        <ele>94.6</ele>
        <time>2014-07-29T11:55:15Z</time>
      </trkpt>
      <trkpt lat="43.4418720" lon="-7.3517920">
        <ele>94.2</ele>
        <time>2014-07-29T11:55:16Z</time>
      </trkpt>
      <trkpt lat="43.4418800" lon="-7.3518340">
        <ele>93.8</ele>
        <time>2014-07-29T11:55:17Z</time>
      </trkpt>
      <trkpt lat="43.4418850" lon="-7.3518780">
        <ele>93.4</ele>
        <time>2014-07-29T11:55:18Z</time>
      </trkpt>
      <trkpt lat="43.4418890" lon="-7.3519240">
        <ele>93.0</ele>
        <time>2014-07-29T11:55:19Z</time>
      </trkpt>
      <trkpt lat="43.4418910" lon="-7.3519700">
        <ele>92.6</ele>
        <time>2014-07-29T11:55:20Z</time>
      </trkpt>
      <trkpt lat="43.4419490" lon="-7.3524550">
        <ele>87.6</ele>
        <time>2014-07-29T11:55:31Z</time>
      </trkpt>
      <trkpt lat="43.4419420" lon="-7.3525280">
        <ele>87.5</ele>
        <time>2014-07-29T11:55:33Z</time>
      </trkpt>
      <trkpt lat="43.4419290" lon="-7.3525600">
        <ele>87.4</ele>
        <time>2014-07-29T11:55:34Z</time>
      </trkpt>
      <trkpt lat="43.4419090" lon="-7.3525880">
        <ele>87.3</ele>
        <time>2014-07-29T11:55:35Z</time>
      </trkpt>
      <trkpt lat="43.4414940" lon="-7.3530010">
        <ele>86.5</ele>
        <time>2014-07-29T11:55:49Z</time>
      </trkpt>
      <trkpt lat="43.4408800" lon="-7.3536110">
        <ele>87.4</ele>
        <time>2014-07-29T11:56:06Z</time>
      </trkpt>
      <trkpt lat="43.4401680" lon="-7.3543280">
        <ele>88.1</ele>
        <time>2014-07-29T11:56:26Z</time>
      </trkpt>
      <trkpt lat="43.4397580" lon="-7.3549050">
        <ele>88.3</ele>
        <time>2014-07-29T11:56:42Z</time>
      </trkpt>
      <trkpt lat="43.4396390" lon="-7.3556630">
        <ele>88.7</ele>
        <time>2014-07-29T11:56:55Z</time>
      </trkpt>
      <trkpt lat="43.4394640" lon="-7.3564310">
        <ele>91.0</ele>
        <time>2014-07-29T11:57:10Z</time>
      </trkpt>
      <trkpt lat="43.4392770" lon="-7.3570990">
        <ele>91.5</ele>
        <time>2014-07-29T11:57:25Z</time>
      </trkpt>
      <trkpt lat="43.4390680" lon="-7.3576120">
        <ele>93.0</ele>
        <time>2014-07-29T11:57:39Z</time>
      </trkpt>
      <trkpt lat="43.4390420" lon="-7.3576520">
        <ele>93.0</ele>
        <time>2014-07-29T11:57:50Z</time>
      </trkpt>
      <trkpt lat="43.4390420" lon="-7.3576520">
        <ele>93.0</ele>
        <time>2014-07-29T11:58:19Z</time>
      </trkpt>
      <trkpt lat="43.4390420" lon="-7.3576520">
        <ele>93.0</ele>
        <time>2014-07-29T11:58:20Z</time>
      </trkpt>
      <trkpt lat="43.4387960" lon="-7.3577640">
        <ele>93.0</ele>
        <time>2014-07-29T11:58:33Z</time>
      </trkpt>
      <trkpt lat="43.4384830" lon="-7.3578640">
        <ele>93.6</ele>
        <time>2014-07-29T11:58:46Z</time>
      </trkpt>
      <trkpt lat="43.4380950" lon="-7.3580740">
        <ele>94.2</ele>
        <time>2014-07-29T11:59:00Z</time>
      </trkpt>
      <trkpt lat="43.4376980" lon="-7.3583550">
        <ele>94.6</ele>
        <time>2014-07-29T11:59:15Z</time>
      </trkpt>
      <trkpt lat="43.4373790" lon="-7.3586250">
        <ele>95.5</ele>
        <time>2014-07-29T11:59:29Z</time>
      </trkpt>
      <trkpt lat="43.4369280" lon="-7.3589880">
        <ele>97.8</ele>
        <time>2014-07-29T11:59:48Z</time>
      </trkpt>
      <trkpt lat="43.4365010" lon="-7.3593240">
        <ele>99.8</ele>
        <time>2014-07-29T12:00:05Z</time>
      </trkpt>
      <trkpt lat="43.4361500" lon="-7.3596060">
        <ele>101.3</ele>
        <time>2014-07-29T12:00:20Z</time>
      </trkpt>
      <trkpt lat="43.4358100" lon="-7.3598650">
        <ele>103.8</ele>
        <time>2014-07-29T12:00:36Z</time>
      </trkpt>
      <trkpt lat="43.4353940" lon="-7.3600330">
        <ele>106.3</ele>
        <time>2014-07-29T12:00:53Z</time>
      </trkpt>
      <trkpt lat="43.4349580" lon="-7.3598530">
        <ele>106.9</ele>
        <time>2014-07-29T12:01:09Z</time>
      </trkpt>
      <trkpt lat="43.4344940" lon="-7.3597130">
        <ele>107.3</ele>
        <time>2014-07-29T12:01:26Z</time>
      </trkpt>
      <trkpt lat="43.4340040" lon="-7.3595680">
        <ele>107.8</ele>
        <time>2014-07-29T12:01:45Z</time>
      </trkpt>
      <trkpt lat="43.4336040" lon="-7.3594680">
        <ele>108.4</ele>
        <time>2014-07-29T12:01:59Z</time>
      </trkpt>
      <trkpt lat="43.4332050" lon="-7.3595660">
        <ele>110.3</ele>
        <time>2014-07-29T12:02:13Z</time>
      </trkpt>
      <trkpt lat="43.4327990" lon="-7.3597950">
        <ele>112.1</ele>
        <time>2014-07-29T12:02:28Z</time>
      </trkpt>
      <trkpt lat="43.4324230" lon="-7.3600100">
        <ele>112.5</ele>
        <time>2014-07-29T12:02:42Z</time>
      </trkpt>
      <trkpt lat="43.4320160" lon="-7.3602440">
        <ele>114.0</ele>
        <time>2014-07-29T12:02:57Z</time>
      </trkpt>
      <trkpt lat="43.4316360" lon="-7.3606050">
        <ele>116.3</ele>
        <time>2014-07-29T12:03:13Z</time>
      </trkpt>
      <trkpt lat="43.4311940" lon="-7.3610530">
        <ele>119.7</ele>
        <time>2014-07-29T12:03:32Z</time>
      </trkpt>
      <trkpt lat="43.4306040" lon="-7.3616090">
        <ele>123.8</ele>
        <time>2014-07-29T12:03:54Z</time>
      </trkpt>
      <trkpt lat="43.4301430" lon="-7.3619960">
        <ele>127.2</ele>
        <time>2014-07-29T12:04:11Z</time>
      </trkpt>
      <trkpt lat="43.4297760" lon="-7.3621410">
        <ele>128.5</ele>
        <time>2014-07-29T12:04:25Z</time>
      </trkpt>
      <trkpt lat="43.4297580" lon="-7.3621400">
        <ele>128.6</ele>
        <time>2014-07-29T12:04:26Z</time>
      </trkpt>
      <trkpt lat="43.4295670" lon="-7.3621490">
        <ele>128.2</ele>
        <time>2014-07-29T12:04:41Z</time>
      </trkpt>
      <trkpt lat="43.4291900" lon="-7.3621580">
        <ele>127.1</ele>
        <time>2014-07-29T12:04:55Z</time>
      </trkpt>
      <trkpt lat="43.4290220" lon="-7.3621800">
        <ele>127.9</ele>
        <time>2014-07-29T12:05:03Z</time>
      </trkpt>
      <trkpt lat="43.4290440" lon="-7.3625100">
        <ele>130.4</ele>
        <time>2014-07-29T12:05:16Z</time>
      </trkpt>
      <trkpt lat="43.4289470" lon="-7.3627470">
        <ele>132.0</ele>
        <time>2014-07-29T12:05:26Z</time>
      </trkpt>
      <trkpt lat="43.4289330" lon="-7.3627620">
        <ele>132.1</ele>
        <time>2014-07-29T12:05:27Z</time>
      </trkpt>
      <trkpt lat="43.4289030" lon="-7.3628880">
        <ele>132.6</ele>
        <time>2014-07-29T12:05:32Z</time>
      </trkpt>
      <trkpt lat="43.4285790" lon="-7.3632870">
        <ele>136.4</ele>
        <time>2014-07-29T12:05:43Z</time>
      </trkpt>
      <trkpt lat="43.4284510" lon="-7.3635960">
        <ele>137.9</ele>
        <time>2014-07-29T12:05:56Z</time>
      </trkpt>
      <trkpt lat="43.4284510" lon="-7.3635950">
        <ele>137.9</ele>
        <time>2014-07-29T12:06:13Z</time>
      </trkpt>
      <trkpt lat="43.4284570" lon="-7.3635970">
        <ele>137.9</ele>
        <time>2014-07-29T12:06:37Z</time>
      </trkpt>
      <trkpt lat="43.4284770" lon="-7.3636000">
        <ele>137.8</ele>
        <time>2014-07-29T12:07:03Z</time>
      </trkpt>
      <trkpt lat="43.4284740" lon="-7.3635880">
        <ele>137.8</ele>
        <time>2014-07-29T12:07:20Z</time>
      </trkpt>
      <trkpt lat="43.4284910" lon="-7.3635840">
        <ele>137.8</ele>
        <time>2014-07-29T12:07:38Z</time>
      </trkpt>
      <trkpt lat="43.4284960" lon="-7.3635800">
        <ele>137.8</ele>
        <time>2014-07-29T12:08:01Z</time>
      </trkpt>
      <trkpt lat="43.4284740" lon="-7.3635640">
        <ele>137.8</ele>
        <time>2014-07-29T12:08:17Z</time>
      </trkpt>
      <trkpt lat="43.4284740" lon="-7.3635640">
        <ele>137.8</ele>
        <time>2014-07-29T12:08:43Z</time>
      </trkpt>
      <trkpt lat="43.4284750" lon="-7.3635640">
        <ele>137.8</ele>
        <time>2014-07-29T12:09:07Z</time>
      </trkpt>
      <trkpt lat="43.4284640" lon="-7.3635700">
        <ele>137.8</ele>
        <time>2014-07-29T12:09:27Z</time>
      </trkpt>
      <trkpt lat="43.4284590" lon="-7.3635790">
        <ele>137.8</ele>
        <time>2014-07-29T12:09:40Z</time>
      </trkpt>
      <trkpt lat="43.4284590" lon="-7.3635790">
        <ele>137.8</ele>
        <time>2014-07-29T12:09:41Z</time>
      </trkpt>
      <trkpt lat="43.4285060" lon="-7.3635240">
        <ele>137.6</ele>
        <time>2014-07-29T12:09:53Z</time>
      </trkpt>
      <trkpt lat="43.4285350" lon="-7.3635220">
        <ele>137.6</ele>
        <time>2014-07-29T12:10:08Z</time>
      </trkpt>
      <trkpt lat="43.4285510" lon="-7.3635370">
        <ele>138.4</ele>
        <time>2014-07-29T12:10:10Z</time>
      </trkpt>
      <trkpt lat="43.4286210" lon="-7.3635550">
        <ele>138.4</ele>
        <time>2014-07-29T12:10:22Z</time>
      </trkpt>
      <trkpt lat="43.4286630" lon="-7.3634910">
        <ele>138.4</ele>
        <time>2014-07-29T12:10:32Z</time>
      </trkpt>
      <trkpt lat="43.4286590" lon="-7.3634930">
        <ele>138.4</ele>
        <time>2014-07-29T12:10:42Z</time>
      </trkpt>
      <trkpt lat="43.4286470" lon="-7.3634190">
        <ele>138.4</ele>
        <time>2014-07-29T12:10:48Z</time>
      </trkpt>
      <trkpt lat="43.4286440" lon="-7.3634090">
        <ele>138.4</ele>
        <time>2014-07-29T12:10:58Z</time>
      </trkpt>
      <trkpt lat="43.4286440" lon="-7.3634090">
        <ele>138.4</ele>
        <time>2014-07-29T12:11:28Z</time>
      </trkpt>
      <trkpt lat="43.4286400" lon="-7.3634110">
        <ele>138.4</ele>
        <time>2014-07-29T12:11:57Z</time>
      </trkpt>
      <trkpt lat="43.4286340" lon="-7.3634350">
        <ele>138.4</ele>
        <time>2014-07-29T12:12:21Z</time>
      </trkpt>
      <trkpt lat="43.4286340" lon="-7.3634350">
        <ele>138.4</ele>
        <time>2014-07-29T12:12:44Z</time>
      </trkpt>
      <trkpt lat="43.4286330" lon="-7.3634390">
        <ele>138.4</ele>
        <time>2014-07-29T12:13:11Z</time>
      </trkpt>
      <trkpt lat="43.4286310" lon="-7.3634430">
        <ele>138.4</ele>
        <time>2014-07-29T12:13:40Z</time>
      </trkpt>
      <trkpt lat="43.4286330" lon="-7.3634460">
        <ele>138.4</ele>
        <time>2014-07-29T12:14:07Z</time>
      </trkpt>
      <trkpt lat="43.4286290" lon="-7.3634500">
        <ele>138.4</ele>
        <time>2014-07-29T12:14:33Z</time>
      </trkpt>
      <trkpt lat="43.4286290" lon="-7.3634500">
        <ele>138.4</ele>
        <time>2014-07-29T12:15:01Z</time>
      </trkpt>
      <trkpt lat="43.4286250" lon="-7.3634530">
        <ele>138.4</ele>
        <time>2014-07-29T12:15:33Z</time>
      </trkpt>
      <trkpt lat="43.4286230" lon="-7.3634450">
        <ele>138.4</ele>
        <time>2014-07-29T12:16:01Z</time>
      </trkpt>
      <trkpt lat="43.4286270" lon="-7.3634490">
        <ele>138.4</ele>
        <time>2014-07-29T12:16:27Z</time>
      </trkpt>
      <trkpt lat="43.4286270" lon="-7.3634490">
        <ele>138.4</ele>
        <time>2014-07-29T12:16:53Z</time>
      </trkpt>
      <trkpt lat="43.4286250" lon="-7.3634480">
        <ele>138.4</ele>
        <time>2014-07-29T12:17:21Z</time>
      </trkpt>
      <trkpt lat="43.4286220" lon="-7.3634510">
        <ele>138.4</ele>
        <time>2014-07-29T12:17:49Z</time>
      </trkpt>
      <trkpt lat="43.4286220" lon="-7.3634510">
        <ele>138.4</ele>
        <time>2014-07-29T12:18:18Z</time>
      </trkpt>
      <trkpt lat="43.4286220" lon="-7.3634510">
        <ele>138.4</ele>
        <time>2014-07-29T12:18:41Z</time>
      </trkpt>
      <trkpt lat="43.4286220" lon="-7.3634510">
        <ele>138.4</ele>
        <time>2014-07-29T12:18:44Z</time>
      </trkpt>
      <trkpt lat="43.4286220" lon="-7.3634510">
        <ele>138.4</ele>
        <time>2014-07-29T12:18:45Z</time>
      </trkpt>
      <trkpt lat="43.4286220" lon="-7.3634510">
        <ele>138.4</ele>
        <time>2014-07-29T12:18:46Z</time>
      </trkpt>
      <trkpt lat="43.4286220" lon="-7.3634510">
        <ele>138.4</ele>
        <time>2014-07-29T12:18:47Z</time>
      </trkpt>
      <trkpt lat="43.4286220" lon="-7.3634510">
        <ele>138.4</ele>
        <time>2014-07-29T12:18:48Z</time>
      </trkpt>
      <trkpt lat="43.4286220" lon="-7.3634500">
        <ele>138.4</ele>
        <time>2014-07-29T12:18:49Z</time>
      </trkpt>
      <trkpt lat="43.4286220" lon="-7.3634500">
        <ele>138.4</ele>
        <time>2014-07-29T12:19:01Z</time>
      </trkpt>
      <trkpt lat="43.4286210" lon="-7.3634500">
        <ele>138.4</ele>
        <time>2014-07-29T12:19:02Z</time>
      </trkpt>
      <trkpt lat="43.4286220" lon="-7.3634510">
        <ele>138.4</ele>
        <time>2014-07-29T12:19:03Z</time>
      </trkpt>
      <trkpt lat="43.4286220" lon="-7.3634510">
        <ele>138.4</ele>
        <time>2014-07-29T12:19:04Z</time>
      </trkpt>
      <trkpt lat="43.4286220" lon="-7.3634510">
        <ele>138.4</ele>
        <time>2014-07-29T12:19:05Z</time>
      </trkpt>
      <trkpt lat="43.4285730" lon="-7.3634490">
        <ele>138.4</ele>
        <time>2014-07-29T12:19:30Z</time>
      </trkpt>
      <trkpt lat="43.4285670" lon="-7.3634640">
        <ele>138.4</ele>
        <time>2014-07-29T12:19:49Z</time>
      </trkpt>
      <trkpt lat="43.4285670" lon="-7.3634640">
        <ele>138.4</ele>
        <time>2014-07-29T12:19:50Z</time>
      </trkpt>
      <trkpt lat="43.4285440" lon="-7.3634370">
        <ele>138.4</ele>
        <time>2014-07-29T12:20:10Z</time>
      </trkpt>
      <trkpt lat="43.4285480" lon="-7.3634190">
        <ele>138.4</ele>
        <time>2014-07-29T12:20:37Z</time>
      </trkpt>
      <trkpt lat="43.4285390" lon="-7.3633920">
        <ele>138.4</ele>
        <time>2014-07-29T12:21:06Z</time>
      </trkpt>
      <trkpt lat="43.4285390" lon="-7.3633920">
        <ele>138.4</ele>
        <time>2014-07-29T12:21:35Z</time>
      </trkpt>
      <trkpt lat="43.4285380" lon="-7.3633950">
        <ele>138.4</ele>
        <time>2014-07-29T12:22:04Z</time>
      </trkpt>
      <trkpt lat="43.4285380" lon="-7.3633970">
        <ele>138.4</ele>
        <time>2014-07-29T12:22:31Z</time>
      </trkpt>
      <trkpt lat="43.4285380" lon="-7.3633940">
        <ele>138.4</ele>
        <time>2014-07-29T12:23:03Z</time>
      </trkpt>
      <trkpt lat="43.4285380" lon="-7.3633950">
        <ele>138.4</ele>
        <time>2014-07-29T12:23:35Z</time>
      </trkpt>
      <trkpt lat="43.4285380" lon="-7.3633950">
        <ele>138.4</ele>
        <time>2014-07-29T12:24:04Z</time>
      </trkpt>
      <trkpt lat="43.4285380" lon="-7.3633950">
        <ele>138.4</ele>
        <time>2014-07-29T12:24:39Z</time>
      </trkpt>
      <trkpt lat="43.4285380" lon="-7.3633960">
        <ele>138.4</ele>
        <time>2014-07-29T12:25:12Z</time>
      </trkpt>
      <trkpt lat="43.4285370" lon="-7.3633960">
        <ele>138.4</ele>
        <time>2014-07-29T12:25:43Z</time>
      </trkpt>
      <trkpt lat="43.4285370" lon="-7.3633970">
        <ele>138.4</ele>
        <time>2014-07-29T12:26:13Z</time>
      </trkpt>
      <trkpt lat="43.4285380" lon="-7.3633950">
        <ele>138.4</ele>
        <time>2014-07-29T12:26:45Z</time>
      </trkpt>
      <trkpt lat="43.4285390" lon="-7.3633980">
        <ele>138.4</ele>
        <time>2014-07-29T12:27:12Z</time>
      </trkpt>
      <trkpt lat="43.4285410" lon="-7.3633960">
        <ele>138.4</ele>
        <time>2014-07-29T12:27:45Z</time>
      </trkpt>
      <trkpt lat="43.4285410" lon="-7.3633960">
        <ele>138.4</ele>
        <time>2014-07-29T12:28:14Z</time>
      </trkpt>
      <trkpt lat="43.4285400" lon="-7.3633950">
        <ele>138.4</ele>
        <time>2014-07-29T12:28:41Z</time>
      </trkpt>
      <trkpt lat="43.4285400" lon="-7.3633920">
        <ele>138.4</ele>
        <time>2014-07-29T12:29:07Z</time>
      </trkpt>
      <trkpt lat="43.4285400" lon="-7.3633930">
        <ele>138.4</ele>
        <time>2014-07-29T12:29:40Z</time>
      </trkpt>
      <trkpt lat="43.4285390" lon="-7.3633930">
        <ele>138.4</ele>
        <time>2014-07-29T12:30:15Z</time>
      </trkpt>
      <trkpt lat="43.4285400" lon="-7.3633930">
        <ele>138.4</ele>
        <time>2014-07-29T12:30:47Z</time>
      </trkpt>
      <trkpt lat="43.4285430" lon="-7.3633970">
        <ele>138.4</ele>
        <time>2014-07-29T12:31:18Z</time>
      </trkpt>
      <trkpt lat="43.4285450" lon="-7.3633960">
        <ele>138.4</ele>
        <time>2014-07-29T12:31:49Z</time>
      </trkpt>
      <trkpt lat="43.4285450" lon="-7.3633960">
        <ele>138.4</ele>
        <time>2014-07-29T12:32:20Z</time>
      </trkpt>
      <trkpt lat="43.4285460" lon="-7.3633950">
        <ele>138.4</ele>
        <time>2014-07-29T12:32:48Z</time>
      </trkpt>
      <trkpt lat="43.4285470" lon="-7.3633940">
        <ele>138.4</ele>
        <time>2014-07-29T12:33:20Z</time>
      </trkpt>
      <trkpt lat="43.4285460" lon="-7.3633960">
        <ele>138.4</ele>
        <time>2014-07-29T12:33:53Z</time>
      </trkpt>
      <trkpt lat="43.4285490" lon="-7.3633970">
        <ele>138.4</ele>
        <time>2014-07-29T12:34:24Z</time>
      </trkpt>
      <trkpt lat="43.4285490" lon="-7.3633970">
        <ele>138.4</ele>
        <time>2014-07-29T12:34:54Z</time>
      </trkpt>
      <trkpt lat="43.4285480" lon="-7.3633960">
        <ele>138.4</ele>
        <time>2014-07-29T12:35:25Z</time>
      </trkpt>
      <trkpt lat="43.4285480" lon="-7.3633970">
        <ele>138.4</ele>
        <time>2014-07-29T12:35:53Z</time>
      </trkpt>
      <trkpt lat="43.4285470" lon="-7.3633970">
        <ele>138.4</ele>
        <time>2014-07-29T12:36:29Z</time>
      </trkpt>
      <trkpt lat="43.4285490" lon="-7.3633990">
        <ele>138.4</ele>
        <time>2014-07-29T12:37:05Z</time>
      </trkpt>
      <trkpt lat="43.4285480" lon="-7.3633990">
        <ele>138.4</ele>
        <time>2014-07-29T12:37:36Z</time>
      </trkpt>
      <trkpt lat="43.4285500" lon="-7.3634010">
        <ele>138.4</ele>
        <time>2014-07-29T12:38:10Z</time>
      </trkpt>
      <trkpt lat="43.4285490" lon="-7.3634000">
        <ele>138.4</ele>
        <time>2014-07-29T12:38:42Z</time>
      </trkpt>
      <trkpt lat="43.4285490" lon="-7.3634010">
        <ele>138.4</ele>
        <time>2014-07-29T12:39:17Z</time>
      </trkpt>
      <trkpt lat="43.4285510" lon="-7.3633980">
        <ele>138.4</ele>
        <time>2014-07-29T12:39:47Z</time>
      </trkpt>
      <trkpt lat="43.4285510" lon="-7.3633980">
        <ele>138.4</ele>
        <time>2014-07-29T12:40:19Z</time>
      </trkpt>
      <trkpt lat="43.4285560" lon="-7.3634030">
        <ele>138.4</ele>
        <time>2014-07-29T12:40:55Z</time>
      </trkpt>
      <trkpt lat="43.4285540" lon="-7.3634000">
        <ele>138.4</ele>
        <time>2014-07-29T12:41:30Z</time>
      </trkpt>
      <trkpt lat="43.4285550" lon="-7.3633990">
        <ele>138.4</ele>
        <time>2014-07-29T12:42:02Z</time>
      </trkpt>
      <trkpt lat="43.4285580" lon="-7.3633980">
        <ele>138.4</ele>
        <time>2014-07-29T12:42:31Z</time>
      </trkpt>
      <trkpt lat="43.4285610" lon="-7.3633990">
        <ele>138.4</ele>
        <time>2014-07-29T12:43:03Z</time>
      </trkpt>
      <trkpt lat="43.4285630" lon="-7.3633850">
        <ele>138.4</ele>
        <time>2014-07-29T12:43:34Z</time>
      </trkpt>
      <trkpt lat="43.4285480" lon="-7.3633800">
        <ele>138.4</ele>
        <time>2014-07-29T12:44:03Z</time>
      </trkpt>
      <trkpt lat="43.4284940" lon="-7.3633270">
        <ele>138.4</ele>
        <time>2014-07-29T12:44:34Z</time>
      </trkpt>
      <trkpt lat="43.4285200" lon="-7.3633380">
        <ele>138.4</ele>
        <time>2014-07-29T12:45:04Z</time>
      </trkpt>
      <trkpt lat="43.4285230" lon="-7.3633410">
        <ele>138.4</ele>
        <time>2014-07-29T12:45:38Z</time>
      </trkpt>
      <trkpt lat="43.4285230" lon="-7.3633410">
        <ele>138.4</ele>
        <time>2014-07-29T12:46:07Z</time>
      </trkpt>
      <trkpt lat="43.4285030" lon="-7.3632960">
        <ele>138.4</ele>
        <time>2014-07-29T12:46:30Z</time>
      </trkpt>
      <trkpt lat="43.4285000" lon="-7.3632540">
        <ele>138.4</ele>
        <time>2014-07-29T12:46:54Z</time>
      </trkpt>
      <trkpt lat="43.4285290" lon="-7.3632770">
        <ele>138.4</ele>
        <time>2014-07-29T12:47:20Z</time>
      </trkpt>
      <trkpt lat="43.4285600" lon="-7.3633180">
        <ele>138.4</ele>
        <time>2014-07-29T12:47:49Z</time>
      </trkpt>
      <trkpt lat="43.4285600" lon="-7.3633180">
        <ele>138.4</ele>
        <time>2014-07-29T12:48:26Z</time>
      </trkpt>
      <trkpt lat="43.4285580" lon="-7.3633200">
        <ele>138.4</ele>
        <time>2014-07-29T12:48:54Z</time>
      </trkpt>
      <trkpt lat="43.4285550" lon="-7.3633170">
        <ele>138.4</ele>
        <time>2014-07-29T12:49:28Z</time>
      </trkpt>
      <trkpt lat="43.4285550" lon="-7.3633380">
        <ele>138.4</ele>
        <time>2014-07-29T12:50:00Z</time>
      </trkpt>
      <trkpt lat="43.4285690" lon="-7.3633320">
        <ele>138.4</ele>
        <time>2014-07-29T12:50:30Z</time>
      </trkpt>
      <trkpt lat="43.4285680" lon="-7.3633200">
        <ele>138.3</ele>
        <time>2014-07-29T12:51:01Z</time>
      </trkpt>
      <trkpt lat="43.4285370" lon="-7.3632930">
        <ele>138.3</ele>
        <time>2014-07-29T12:51:38Z</time>
      </trkpt>
      <trkpt lat="43.4285400" lon="-7.3632940">
        <ele>138.3</ele>
        <time>2014-07-29T12:52:11Z</time>
      </trkpt>
      <trkpt lat="43.4285430" lon="-7.3632950">
        <ele>138.3</ele>
        <time>2014-07-29T12:52:43Z</time>
      </trkpt>
      <trkpt lat="43.4285430" lon="-7.3632950">
        <ele>138.3</ele>
        <time>2014-07-29T12:53:12Z</time>
      </trkpt>
      <trkpt lat="43.4285410" lon="-7.3632940">
        <ele>138.3</ele>
        <time>2014-07-29T12:53:46Z</time>
      </trkpt>
      <trkpt lat="43.4285410" lon="-7.3632900">
        <ele>138.3</ele>
        <time>2014-07-29T12:54:23Z</time>
      </trkpt>
      <trkpt lat="43.4285520" lon="-7.3633350">
        <ele>138.3</ele>
        <time>2014-07-29T12:54:52Z</time>
      </trkpt>
      <trkpt lat="43.4285530" lon="-7.3633350">
        <ele>138.3</ele>
        <time>2014-07-29T12:55:22Z</time>
      </trkpt>
      <trkpt lat="43.4285470" lon="-7.3633270">
        <ele>138.3</ele>
        <time>2014-07-29T12:55:51Z</time>
      </trkpt>
      <trkpt lat="43.4285370" lon="-7.3633080">
        <ele>138.3</ele>
        <time>2014-07-29T12:56:21Z</time>
      </trkpt>
      <trkpt lat="43.4285370" lon="-7.3633070">
        <ele>138.3</ele>
        <time>2014-07-29T12:56:52Z</time>
      </trkpt>
      <trkpt lat="43.4285360" lon="-7.3633060">
        <ele>138.3</ele>
        <time>2014-07-29T12:57:20Z</time>
      </trkpt>
      <trkpt lat="43.4285420" lon="-7.3633540">
        <ele>138.3</ele>
        <time>2014-07-29T12:57:53Z</time>
      </trkpt>
      <trkpt lat="43.4285380" lon="-7.3633840">
        <ele>138.3</ele>
        <time>2014-07-29T12:58:22Z</time>
      </trkpt>
      <trkpt lat="43.4285930" lon="-7.3633950">
        <ele>138.3</ele>
        <time>2014-07-29T12:58:48Z</time>
      </trkpt>
      <trkpt lat="43.4285910" lon="-7.3634550">
        <ele>138.3</ele>
        <time>2014-07-29T12:59:19Z</time>
      </trkpt>
      <trkpt lat="43.4285910" lon="-7.3634550">
        <ele>138.3</ele>
        <time>2014-07-29T12:59:51Z</time>
      </trkpt>
      <trkpt lat="43.4285930" lon="-7.3634600">
        <ele>138.3</ele>
        <time>2014-07-29T13:00:17Z</time>
      </trkpt>
      <trkpt lat="43.4285970" lon="-7.3634680">
        <ele>138.8</ele>
        <time>2014-07-29T13:00:50Z</time>
      </trkpt>
      <trkpt lat="43.4286010" lon="-7.3634750">
        <ele>138.8</ele>
        <time>2014-07-29T13:01:20Z</time>
      </trkpt>
      <trkpt lat="43.4286010" lon="-7.3634750">
        <ele>138.8</ele>
        <time>2014-07-29T13:01:51Z</time>
      </trkpt>
      <trkpt lat="43.4286010" lon="-7.3634860">
        <ele>138.8</ele>
        <time>2014-07-29T13:02:24Z</time>
      </trkpt>
      <trkpt lat="43.4286010" lon="-7.3634870">
        <ele>138.8</ele>
        <time>2014-07-29T13:02:56Z</time>
      </trkpt>
      <trkpt lat="43.4285920" lon="-7.3634970">
        <ele>138.8</ele>
        <time>2014-07-29T13:03:24Z</time>
      </trkpt>
      <trkpt lat="43.4285920" lon="-7.3634970">
        <ele>138.8</ele>
        <time>2014-07-29T13:03:53Z</time>
      </trkpt>
      <trkpt lat="43.4285870" lon="-7.3635000">
        <ele>138.8</ele>
        <time>2014-07-29T13:04:27Z</time>
      </trkpt>
      <trkpt lat="43.4285800" lon="-7.3635040">
        <ele>138.8</ele>
        <time>2014-07-29T13:04:55Z</time>
      </trkpt>
      <trkpt lat="43.4285770" lon="-7.3635120">
        <ele>138.8</ele>
        <time>2014-07-29T13:05:25Z</time>
      </trkpt>
      <trkpt lat="43.4285750" lon="-7.3635180">
        <ele>138.8</ele>
        <time>2014-07-29T13:05:56Z</time>
      </trkpt>
      <trkpt lat="43.4285750" lon="-7.3635180">
        <ele>138.8</ele>
        <time>2014-07-29T13:06:28Z</time>
      </trkpt>
      <trkpt lat="43.4285690" lon="-7.3635210">
        <ele>138.8</ele>
        <time>2014-07-29T13:06:57Z</time>
      </trkpt>
      <trkpt lat="43.4285660" lon="-7.3635240">
        <ele>138.8</ele>
        <time>2014-07-29T13:07:31Z</time>
      </trkpt>
      <trkpt lat="43.4285630" lon="-7.3635270">
        <ele>138.8</ele>
        <time>2014-07-29T13:07:59Z</time>
      </trkpt>
      <trkpt lat="43.4285320" lon="-7.3635880">
        <ele>138.8</ele>
        <time>2014-07-29T13:08:27Z</time>
      </trkpt>
      <trkpt lat="43.4285950" lon="-7.3635870">
        <ele>138.9</ele>
        <time>2014-07-29T13:08:41Z</time>
      </trkpt>
      <trkpt lat="43.4286200" lon="-7.3635770">
        <ele>138.9</ele>
        <time>2014-07-29T13:08:42Z</time>
      </trkpt>
      <trkpt lat="43.4286440" lon="-7.3635810">
        <ele>138.9</ele>
        <time>2014-07-29T13:08:43Z</time>
      </trkpt>
      <trkpt lat="43.4286440" lon="-7.3635810">
        <ele>138.9</ele>
        <time>2014-07-29T13:09:11Z</time>
      </trkpt>
      <trkpt lat="43.4286710" lon="-7.3635950">
        <ele>138.9</ele>
        <time>2014-07-29T13:09:35Z</time>
      </trkpt>
      <trkpt lat="43.4286910" lon="-7.3636120">
        <ele>139.0</ele>
        <time>2014-07-29T13:10:05Z</time>
      </trkpt>
      <trkpt lat="43.4286910" lon="-7.3636120">
        <ele>139.0</ele>
        <time>2014-07-29T13:10:39Z</time>
      </trkpt>
      <trkpt lat="43.4286980" lon="-7.3636210">
        <ele>139.0</ele>
        <time>2014-07-29T13:11:11Z</time>
      </trkpt>
      <trkpt lat="43.4287050" lon="-7.3636050">
        <ele>139.0</ele>
        <time>2014-07-29T13:11:43Z</time>
      </trkpt>
      <trkpt lat="43.4287050" lon="-7.3636040">
        <ele>139.0</ele>
        <time>2014-07-29T13:12:15Z</time>
      </trkpt>
      <trkpt lat="43.4287050" lon="-7.3635830">
        <ele>139.0</ele>
        <time>2014-07-29T13:12:44Z</time>
      </trkpt>
      <trkpt lat="43.4287050" lon="-7.3635830">
        <ele>139.0</ele>
        <time>2014-07-29T13:13:09Z</time>
      </trkpt>
      <trkpt lat="43.4287120" lon="-7.3635910">
        <ele>139.0</ele>
        <time>2014-07-29T13:13:35Z</time>
      </trkpt>
      <trkpt lat="43.4286980" lon="-7.3635410">
        <ele>139.0</ele>
        <time>2014-07-29T13:13:54Z</time>
      </trkpt>
      <trkpt lat="43.4286980" lon="-7.3635410">
        <ele>139.0</ele>
        <time>2014-07-29T13:14:16Z</time>
      </trkpt>
      <trkpt lat="43.4286260" lon="-7.3635300">
        <ele>139.1</ele>
        <time>2014-07-29T13:14:23Z</time>
      </trkpt>
      <trkpt lat="43.4285640" lon="-7.3635930">
        <ele>139.6</ele>
        <time>2014-07-29T13:14:37Z</time>
      </trkpt>
      <trkpt lat="43.4285640" lon="-7.3635930">
        <ele>139.6</ele>
        <time>2014-07-29T13:14:59Z</time>
      </trkpt>
      <trkpt lat="43.4285590" lon="-7.3636040">
        <ele>139.6</ele>
        <time>2014-07-29T13:15:16Z</time>
      </trkpt>
      <trkpt lat="43.4284690" lon="-7.3634210">
        <ele>137.3</ele>
        <time>2014-07-29T13:15:26Z</time>
      </trkpt>
      <trkpt lat="43.4286020" lon="-7.3631660">
        <ele>135.6</ele>
        <time>2014-07-29T13:15:35Z</time>
      </trkpt>
      <trkpt lat="43.4284850" lon="-7.3630710">
        <ele>134.7</ele>
        <time>2014-07-29T13:15:42Z</time>
      </trkpt>
      <trkpt lat="43.4281470" lon="-7.3632370">
        <ele>133.6</ele>
        <time>2014-07-29T13:15:50Z</time>
      </trkpt>
      <trkpt lat="43.4280180" lon="-7.3630790">
        <ele>133.4</ele>
        <time>2014-07-29T13:15:56Z</time>
      </trkpt>
      <trkpt lat="43.4277840" lon="-7.3629840">
        <ele>131.9</ele>
        <time>2014-07-29T13:16:03Z</time>
      </trkpt>
      <trkpt lat="43.4276400" lon="-7.3628460">
        <ele>130.8</ele>
        <time>2014-07-29T13:16:14Z</time>
      </trkpt>
      <trkpt lat="43.4276240" lon="-7.3628520">
        <ele>130.6</ele>
        <time>2014-07-29T13:16:27Z</time>
      </trkpt>
      <trkpt lat="43.4276240" lon="-7.3628520">
        <ele>130.6</ele>
        <time>2014-07-29T13:16:54Z</time>
      </trkpt>
      <trkpt lat="43.4276140" lon="-7.3628530">
        <ele>130.6</ele>
        <time>2014-07-29T13:17:25Z</time>
      </trkpt>
      <trkpt lat="43.4275840" lon="-7.3628660">
        <ele>130.4</ele>
        <time>2014-07-29T13:17:48Z</time>
      </trkpt>
      <trkpt lat="43.4275840" lon="-7.3628660">
        <ele>130.4</ele>
        <time>2014-07-29T13:18:15Z</time>
      </trkpt>
      <trkpt lat="43.4275810" lon="-7.3628660">
        <ele>130.3</ele>
        <time>2014-07-29T13:18:46Z</time>
      </trkpt>
      <trkpt lat="43.4275670" lon="-7.3628690">
        <ele>130.3</ele>
        <time>2014-07-29T13:19:03Z</time>
      </trkpt>
      <trkpt lat="43.4275670" lon="-7.3628690">
        <ele>130.3</ele>
        <time>2014-07-29T13:19:05Z</time>
      </trkpt>
      <trkpt lat="43.4275670" lon="-7.3628690">
        <ele>130.3</ele>
        <time>2014-07-29T13:19:07Z</time>
      </trkpt>
      <trkpt lat="43.4275740" lon="-7.3628610">
        <ele>130.2</ele>
        <time>2014-07-29T13:19:08Z</time>
      </trkpt>
      <trkpt lat="43.4275740" lon="-7.3628610">
        <ele>130.2</ele>
        <time>2014-07-29T13:19:36Z</time>
      </trkpt>
      <trkpt lat="43.4275570" lon="-7.3628610">
        <ele>130.1</ele>
        <time>2014-07-29T13:20:03Z</time>
      </trkpt>
      <trkpt lat="43.4275720" lon="-7.3628610">
        <ele>130.0</ele>
        <time>2014-07-29T13:20:37Z</time>
      </trkpt>
      <trkpt lat="43.4275720" lon="-7.3628560">
        <ele>130.0</ele>
        <time>2014-07-29T13:21:08Z</time>
      </trkpt>
      <trkpt lat="43.4275550" lon="-7.3628480">
        <ele>129.8</ele>
        <time>2014-07-29T13:21:28Z</time>
      </trkpt>
      <trkpt lat="43.4275550" lon="-7.3628480">
        <ele>129.8</ele>
        <time>2014-07-29T13:21:38Z</time>
      </trkpt>
      <trkpt lat="43.4275190" lon="-7.3630460">
        <ele>131.1</ele>
        <time>2014-07-29T13:21:50Z</time>
      </trkpt>
      <trkpt lat="43.4274420" lon="-7.3632700">
        <ele>133.7</ele>
        <time>2014-07-29T13:22:01Z</time>
      </trkpt>
      <trkpt lat="43.4273040" lon="-7.3634520">
        <ele>135.8</ele>
        <time>2014-07-29T13:22:14Z</time>
      </trkpt>
      <trkpt lat="43.4271980" lon="-7.3635530">
        <ele>137.1</ele>
        <time>2014-07-29T13:22:21Z</time>
      </trkpt>
      <trkpt lat="43.4270470" lon="-7.3637320">
        <ele>139.2</ele>
        <time>2014-07-29T13:22:34Z</time>
      </trkpt>
      <trkpt lat="43.4270400" lon="-7.3637750">
        <ele>139.5</ele>
        <time>2014-07-29T13:22:37Z</time>
      </trkpt>
      <trkpt lat="43.4269990" lon="-7.3638160">
        <ele>140.2</ele>
        <time>2014-07-29T13:22:42Z</time>
      </trkpt>
      <trkpt lat="43.4269090" lon="-7.3639550">
        <ele>142.0</ele>
        <time>2014-07-29T13:22:54Z</time>
      </trkpt>
      <trkpt lat="43.4268670" lon="-7.3640280">
        <ele>143.1</ele>
        <time>2014-07-29T13:22:59Z</time>
      </trkpt>
      <trkpt lat="43.4267850" lon="-7.3641910">
        <ele>145.7</ele>
        <time>2014-07-29T13:23:12Z</time>
      </trkpt>
      <trkpt lat="43.4266410" lon="-7.3643760">
        <ele>149.4</ele>
        <time>2014-07-29T13:23:25Z</time>
      </trkpt>
      <trkpt lat="43.4265870" lon="-7.3644360">
        <ele>150.6</ele>
        <time>2014-07-29T13:23:32Z</time>
      </trkpt>
      <trkpt lat="43.4265330" lon="-7.3645530">
        <ele>152.1</ele>
        <time>2014-07-29T13:23:40Z</time>
      </trkpt>
      <trkpt lat="43.4264880" lon="-7.3648180">
        <ele>153.7</ele>
        <time>2014-07-29T13:23:53Z</time>
      </trkpt>
      <trkpt lat="43.4263610" lon="-7.3652740">
        <ele>152.9</ele>
        <time>2014-07-29T13:24:06Z</time>
      </trkpt>
      <trkpt lat="43.4261730" lon="-7.3655930">
        <ele>154.7</ele>
        <time>2014-07-29T13:24:25Z</time>
      </trkpt>
      <trkpt lat="43.4260250" lon="-7.3658020">
        <ele>156.5</ele>
        <time>2014-07-29T13:24:40Z</time>
      </trkpt>
      <trkpt lat="43.4258800" lon="-7.3660210">
        <ele>158.7</ele>
        <time>2014-07-29T13:24:56Z</time>
      </trkpt>
      <trkpt lat="43.4258710" lon="-7.3660350">
        <ele>158.8</ele>
        <time>2014-07-29T13:24:57Z</time>
      </trkpt>
      <trkpt lat="43.4258390" lon="-7.3660710">
        <ele>159.3</ele>
        <time>2014-07-29T13:25:00Z</time>
      </trkpt>
      <trkpt lat="43.4256990" lon="-7.3662630">
        <ele>161.1</ele>
        <time>2014-07-29T13:25:14Z</time>
      </trkpt>
      <trkpt lat="43.4256340" lon="-7.3663260">
        <ele>161.7</ele>
        <time>2014-07-29T13:25:20Z</time>
      </trkpt>
      <trkpt lat="43.4255820" lon="-7.3663790">
        <ele>162.2</ele>
        <time>2014-07-29T13:25:25Z</time>
      </trkpt>
      <trkpt lat="43.4255660" lon="-7.3664210">
        <ele>162.5</ele>
        <time>2014-07-29T13:25:28Z</time>
      </trkpt>
      <trkpt lat="43.4255210" lon="-7.3664450">
        <ele>163.0</ele>
        <time>2014-07-29T13:25:32Z</time>
      </trkpt>
      <trkpt lat="43.4253400" lon="-7.3665750">
        <ele>165.7</ele>
        <time>2014-07-29T13:25:49Z</time>
      </trkpt>
      <trkpt lat="43.4251920" lon="-7.3666540">
        <ele>167.9</ele>
        <time>2014-07-29T13:26:03Z</time>
      </trkpt>
      <trkpt lat="43.4251040" lon="-7.3667150">
        <ele>169.3</ele>
        <time>2014-07-29T13:26:12Z</time>
      </trkpt>
      <trkpt lat="43.4251450" lon="-7.3665300">
        <ele>170.1</ele>
        <time>2014-07-29T13:26:23Z</time>
      </trkpt>
      <trkpt lat="43.4251730" lon="-7.3664630">
        <ele>170.3</ele>
        <time>2014-07-29T13:26:27Z</time>
      </trkpt>
      <trkpt lat="43.4253030" lon="-7.3661970">
        <ele>171.1</ele>
        <time>2014-07-29T13:26:45Z</time>
      </trkpt>
      <trkpt lat="43.4254060" lon="-7.3659790">
        <ele>171.9</ele>
        <time>2014-07-29T13:26:59Z</time>
      </trkpt>
      <trkpt lat="43.4255200" lon="-7.3657310">
        <ele>172.7</ele>
        <time>2014-07-29T13:27:15Z</time>
      </trkpt>
      <trkpt lat="43.4256730" lon="-7.3654050">
        <ele>173.8</ele>
        <time>2014-07-29T13:27:32Z</time>
      </trkpt>
      <trkpt lat="43.4257990" lon="-7.3651140">
        <ele>174.7</ele>
        <time>2014-07-29T13:27:46Z</time>
      </trkpt>
      <trkpt lat="43.4259140" lon="-7.3649130">
        <ele>175.2</ele>
        <time>2014-07-29T13:27:56Z</time>
      </trkpt>
      <trkpt lat="43.4260280" lon="-7.3645920">
        <ele>176.1</ele>
        <time>2014-07-29T13:28:08Z</time>
      </trkpt>
      <trkpt lat="43.4261470" lon="-7.3642070">
        <ele>177.6</ele>
        <time>2014-07-29T13:28:22Z</time>
      </trkpt>
      <trkpt lat="43.4261320" lon="-7.3639830">
        <ele>179.2</ele>
        <time>2014-07-29T13:28:33Z</time>
      </trkpt>
      <trkpt lat="43.4261270" lon="-7.3639620">
        <ele>179.3</ele>
        <time>2014-07-29T13:28:34Z</time>
      </trkpt>
      <trkpt lat="43.4260610" lon="-7.3636750">
        <ele>181.4</ele>
        <time>2014-07-29T13:28:50Z</time>
      </trkpt>
      <trkpt lat="43.4260250" lon="-7.3634620">
        <ele>183.0</ele>
        <time>2014-07-29T13:29:03Z</time>
      </trkpt>
      <trkpt lat="43.4259710" lon="-7.3632980">
        <ele>184.4</ele>
        <time>2014-07-29T13:29:14Z</time>
      </trkpt>
      <trkpt lat="43.4259570" lon="-7.3632190">
        <ele>185.1</ele>
        <time>2014-07-29T13:29:19Z</time>
      </trkpt>
      <trkpt lat="43.4259350" lon="-7.3631330">
        <ele>185.7</ele>
        <time>2014-07-29T13:29:25Z</time>
      </trkpt>
      <trkpt lat="43.4259170" lon="-7.3630920">
        <ele>186.1</ele>
        <time>2014-07-29T13:29:28Z</time>
      </trkpt>
      <trkpt lat="43.4259020" lon="-7.3630730">
        <ele>186.3</ele>
        <time>2014-07-29T13:29:30Z</time>
      </trkpt>
      <trkpt lat="43.4258960" lon="-7.3630020">
        <ele>186.7</ele>
        <time>2014-07-29T13:29:43Z</time>
      </trkpt>
      <trkpt lat="43.4259050" lon="-7.3629980">
        <ele>186.8</ele>
        <time>2014-07-29T13:30:06Z</time>
      </trkpt>
      <trkpt lat="43.4259060" lon="-7.3630010">
        <ele>186.8</ele>
        <time>2014-07-29T13:30:31Z</time>
      </trkpt>
      <trkpt lat="43.4258710" lon="-7.3629800">
        <ele>187.1</ele>
        <time>2014-07-29T13:30:50Z</time>
      </trkpt>
      <trkpt lat="43.4258610" lon="-7.3629810">
        <ele>187.2</ele>
        <time>2014-07-29T13:30:52Z</time>
      </trkpt>
      <trkpt lat="43.4256950" lon="-7.3629630">
        <ele>187.9</ele>
        <time>2014-07-29T13:31:04Z</time>
      </trkpt>
      <trkpt lat="43.4256370" lon="-7.3629920">
        <ele>188.2</ele>
        <time>2014-07-29T13:31:08Z</time>
      </trkpt>
      <trkpt lat="43.4254400" lon="-7.3631170">
        <ele>188.7</ele>
        <time>2014-07-29T13:31:23Z</time>
      </trkpt>
      <trkpt lat="43.4252550" lon="-7.3633010">
        <ele>189.8</ele>
        <time>2014-07-29T13:31:39Z</time>
      </trkpt>
      <trkpt lat="43.4250520" lon="-7.3635300">
        <ele>191.8</ele>
        <time>2014-07-29T13:31:57Z</time>
      </trkpt>
      <trkpt lat="43.4249730" lon="-7.3636200">
        <ele>192.9</ele>
        <time>2014-07-29T13:32:04Z</time>
      </trkpt>
      <trkpt lat="43.4247540" lon="-7.3637870">
        <ele>195.4</ele>
        <time>2014-07-29T13:32:21Z</time>
      </trkpt>
      <trkpt lat="43.4245670" lon="-7.3639090">
        <ele>197.6</ele>
        <time>2014-07-29T13:32:35Z</time>
      </trkpt>
      <trkpt lat="43.4243750" lon="-7.3640320">
        <ele>199.8</ele>
        <time>2014-07-29T13:32:51Z</time>
      </trkpt>
      <trkpt lat="43.4243390" lon="-7.3640660">
        <ele>200.2</ele>
        <time>2014-07-29T13:32:55Z</time>
      </trkpt>
      <trkpt lat="43.4243400" lon="-7.3641180">
        <ele>200.5</ele>
        <time>2014-07-29T13:32:59Z</time>
      </trkpt>
      <trkpt lat="43.4242870" lon="-7.3641690">
        <ele>201.1</ele>
        <time>2014-07-29T13:33:04Z</time>
      </trkpt>
      <trkpt lat="43.4240980" lon="-7.3641350">
        <ele>203.5</ele>
        <time>2014-07-29T13:33:15Z</time>
      </trkpt>
      <trkpt lat="43.4239800" lon="-7.3641610">
        <ele>205.4</ele>
        <time>2014-07-29T13:33:25Z</time>
      </trkpt>
      <trkpt lat="43.4238640" lon="-7.3642610">
        <ele>207.3</ele>
        <time>2014-07-29T13:33:35Z</time>
      </trkpt>
      <trkpt lat="43.4238270" lon="-7.3643090">
        <ele>208.0</ele>
        <time>2014-07-29T13:33:38Z</time>
      </trkpt>
      <trkpt lat="43.4237110" lon="-7.3643720">
        <ele>209.6</ele>
        <time>2014-07-29T13:33:46Z</time>
      </trkpt>
      <trkpt lat="43.4236430" lon="-7.3644420">
        <ele>210.6</ele>
        <time>2014-07-29T13:33:53Z</time>
      </trkpt>
      <trkpt lat="43.4236100" lon="-7.3644640">
        <ele>211.1</ele>
        <time>2014-07-29T13:33:56Z</time>
      </trkpt>
      <trkpt lat="43.4234330" lon="-7.3645290">
        <ele>213.9</ele>
        <time>2014-07-29T13:34:10Z</time>
      </trkpt>
      <trkpt lat="43.4233170" lon="-7.3645580">
        <ele>215.8</ele>
        <time>2014-07-29T13:34:19Z</time>
      </trkpt>
      <trkpt lat="43.4232200" lon="-7.3645820">
        <ele>217.1</ele>
        <time>2014-07-29T13:34:31Z</time>
      </trkpt>
      <trkpt lat="43.4230480" lon="-7.3646260">
        <ele>219.2</ele>
        <time>2014-07-29T13:34:45Z</time>
      </trkpt>
      <trkpt lat="43.4229170" lon="-7.3646950">
        <ele>220.9</ele>
        <time>2014-07-29T13:34:58Z</time>
      </trkpt>
      <trkpt lat="43.4227270" lon="-7.3647400">
        <ele>223.3</ele>
        <time>2014-07-29T13:35:12Z</time>
      </trkpt>
      <trkpt lat="43.4226680" lon="-7.3647390">
        <ele>224.1</ele>
        <time>2014-07-29T13:35:16Z</time>
      </trkpt>
      <trkpt lat="43.4225500" lon="-7.3647670">
        <ele>225.7</ele>
        <time>2014-07-29T13:35:26Z</time>
      </trkpt>
      <trkpt lat="43.4224140" lon="-7.3648610">
        <ele>227.4</ele>
        <time>2014-07-29T13:35:40Z</time>
      </trkpt>
      <trkpt lat="43.4223350" lon="-7.3649560">
        <ele>228.5</ele>
        <time>2014-07-29T13:35:51Z</time>
      </trkpt>
      <trkpt lat="43.4222740" lon="-7.3649990">
        <ele>229.3</ele>
        <time>2014-07-29T13:35:57Z</time>
      </trkpt>
      <trkpt lat="43.4221610" lon="-7.3651210">
        <ele>230.8</ele>
        <time>2014-07-29T13:36:11Z</time>
      </trkpt>
      <trkpt lat="43.4221030" lon="-7.3651890">
        <ele>231.6</ele>
        <time>2014-07-29T13:36:18Z</time>
      </trkpt>
      <trkpt lat="43.4220630" lon="-7.3652240">
        <ele>232.1</ele>
        <time>2014-07-29T13:36:23Z</time>
      </trkpt>
      <trkpt lat="43.4219990" lon="-7.3654550">
        <ele>233.8</ele>
        <time>2014-07-29T13:36:38Z</time>
      </trkpt>
      <trkpt lat="43.4219720" lon="-7.3655190">
        <ele>234.4</ele>
        <time>2014-07-29T13:36:43Z</time>
      </trkpt>
      <trkpt lat="43.4218330" lon="-7.3657070">
        <ele>236.9</ele>
        <time>2014-07-29T13:37:00Z</time>
      </trkpt>
      <trkpt lat="43.4217150" lon="-7.3659010">
        <ele>239.5</ele>
        <time>2014-07-29T13:37:18Z</time>
      </trkpt>
      <trkpt lat="43.4215240" lon="-7.3659340">
        <ele>238.8</ele>
        <time>2014-07-29T13:37:34Z</time>
      </trkpt>
      <trkpt lat="43.4213370" lon="-7.3659350">
        <ele>238.8</ele>
        <time>2014-07-29T13:37:49Z</time>
      </trkpt>
      <trkpt lat="43.4213280" lon="-7.3659380">
        <ele>238.8</ele>
        <time>2014-07-29T13:37:50Z</time>
      </trkpt>
      <trkpt lat="43.4212630" lon="-7.3659430">
        <ele>239.0</ele>
        <time>2014-07-29T13:37:55Z</time>
      </trkpt>
      <trkpt lat="43.4211360" lon="-7.3659510">
        <ele>239.4</ele>
        <time>2014-07-29T13:38:06Z</time>
      </trkpt>
      <trkpt lat="43.4209310" lon="-7.3658540">
        <ele>240.0</ele>
        <time>2014-07-29T13:38:23Z</time>
      </trkpt>
      <trkpt lat="43.4208930" lon="-7.3658080">
        <ele>240.2</ele>
        <time>2014-07-29T13:38:27Z</time>
      </trkpt>
      <trkpt lat="43.4208520" lon="-7.3657640">
        <ele>240.4</ele>
        <time>2014-07-29T13:38:31Z</time>
      </trkpt>
      <trkpt lat="43.4207080" lon="-7.3655780">
        <ele>241.0</ele>
        <time>2014-07-29T13:38:47Z</time>
      </trkpt>
      <trkpt lat="43.4206340" lon="-7.3654910">
        <ele>242.1</ele>
        <time>2014-07-29T13:38:55Z</time>
      </trkpt>
      <trkpt lat="43.4205070" lon="-7.3653110">
        <ele>244.4</ele>
        <time>2014-07-29T13:39:11Z</time>
      </trkpt>
      <trkpt lat="43.4204150" lon="-7.3651420">
        <ele>246.4</ele>
        <time>2014-07-29T13:39:25Z</time>
      </trkpt>
      <trkpt lat="43.4204060" lon="-7.3650930">
        <ele>246.8</ele>
        <time>2014-07-29T13:39:28Z</time>
      </trkpt>
      <trkpt lat="43.4203780" lon="-7.3650060">
        <ele>247.7</ele>
        <time>2014-07-29T13:39:35Z</time>
      </trkpt>
      <trkpt lat="43.4203440" lon="-7.3649670">
        <ele>248.3</ele>
        <time>2014-07-29T13:39:39Z</time>
      </trkpt>
      <trkpt lat="43.4202710" lon="-7.3647540">
        <ele>250.5</ele>
        <time>2014-07-29T13:39:55Z</time>
      </trkpt>
      <trkpt lat="43.4202640" lon="-7.3647260">
        <ele>250.8</ele>
        <time>2014-07-29T13:39:57Z</time>
      </trkpt>
      <trkpt lat="43.4201760" lon="-7.3645370">
        <ele>253.0</ele>
        <time>2014-07-29T13:40:12Z</time>
      </trkpt>
      <trkpt lat="43.4200920" lon="-7.3644340">
        <ele>254.5</ele>
        <time>2014-07-29T13:40:22Z</time>
      </trkpt>
      <trkpt lat="43.4200370" lon="-7.3643740">
        <ele>255.4</ele>
        <time>2014-07-29T13:40:28Z</time>
      </trkpt>
      <trkpt lat="43.4199820" lon="-7.3643160">
        <ele>256.3</ele>
        <time>2014-07-29T13:40:34Z</time>
      </trkpt>
      <trkpt lat="43.4198120" lon="-7.3641360">
        <ele>259.0</ele>
        <time>2014-07-29T13:40:53Z</time>
      </trkpt>
      <trkpt lat="43.4197320" lon="-7.3640500">
        <ele>260.1</ele>
        <time>2014-07-29T13:41:01Z</time>
      </trkpt>
      <trkpt lat="43.4195410" lon="-7.3638840">
        <ele>260.4</ele>
        <time>2014-07-29T13:41:15Z</time>
      </trkpt>
      <trkpt lat="43.4191590" lon="-7.3636630">
        <ele>259.3</ele>
        <time>2014-07-29T13:41:22Z</time>
      </trkpt>
      <trkpt lat="43.4190760" lon="-7.3636450">
        <ele>259.0</ele>
        <time>2014-07-29T13:41:23Z</time>
      </trkpt>
      <trkpt lat="43.4189900" lon="-7.3636380">
        <ele>258.7</ele>
        <time>2014-07-29T13:41:24Z</time>
      </trkpt>
      <trkpt lat="43.4188990" lon="-7.3636420">
        <ele>258.3</ele>
        <time>2014-07-29T13:41:25Z</time>
      </trkpt>
      <trkpt lat="43.4188070" lon="-7.3636580">
        <ele>258.0</ele>
        <time>2014-07-29T13:41:26Z</time>
      </trkpt>
      <trkpt lat="43.4187140" lon="-7.3636880">
        <ele>257.5</ele>
        <time>2014-07-29T13:41:27Z</time>
      </trkpt>
      <trkpt lat="43.4186220" lon="-7.3637290">
        <ele>257.0</ele>
        <time>2014-07-29T13:41:28Z</time>
      </trkpt>
      <trkpt lat="43.4185270" lon="-7.3637730">
        <ele>256.5</ele>
        <time>2014-07-29T13:41:29Z</time>
      </trkpt>
      <trkpt lat="43.4184290" lon="-7.3638050">
        <ele>255.9</ele>
        <time>2014-07-29T13:41:30Z</time>
      </trkpt>
      <trkpt lat="43.4183300" lon="-7.3638040">
        <ele>255.3</ele>
        <time>2014-07-29T13:41:31Z</time>
      </trkpt>
      <trkpt lat="43.4182460" lon="-7.3637650">
        <ele>254.8</ele>
        <time>2014-07-29T13:41:32Z</time>
      </trkpt>
      <trkpt lat="43.4181760" lon="-7.3637010">
        <ele>254.4</ele>
        <time>2014-07-29T13:41:33Z</time>
      </trkpt>
      <trkpt lat="43.4181140" lon="-7.3636340">
        <ele>254.1</ele>
        <time>2014-07-29T13:41:34Z</time>
      </trkpt>
      <trkpt lat="43.4180640" lon="-7.3635740">
        <ele>253.9</ele>
        <time>2014-07-29T13:41:35Z</time>
      </trkpt>
      <trkpt lat="43.4179670" lon="-7.3634660">
        <ele>254.0</ele>
        <time>2014-07-29T13:41:37Z</time>
      </trkpt>
      <trkpt lat="43.4176800" lon="-7.3632240">
        <ele>256.9</ele>
        <time>2014-07-29T13:41:45Z</time>
      </trkpt>
      <trkpt lat="43.4175970" lon="-7.3631800">
        <ele>258.0</ele>
        <time>2014-07-29T13:41:49Z</time>
      </trkpt>
      <trkpt lat="43.4175810" lon="-7.3631720">
        <ele>258.2</ele>
        <time>2014-07-29T13:41:50Z</time>
      </trkpt>
      <trkpt lat="43.4175500" lon="-7.3631600">
        <ele>258.6</ele>
        <time>2014-07-29T13:41:52Z</time>
      </trkpt>
      <trkpt lat="43.4174140" lon="-7.3630650">
        <ele>260.7</ele>
        <time>2014-07-29T13:42:01Z</time>
      </trkpt>
      <trkpt lat="43.4173970" lon="-7.3630470">
        <ele>261.0</ele>
        <time>2014-07-29T13:42:02Z</time>
      </trkpt>
      <trkpt lat="43.4173120" lon="-7.3629660">
        <ele>262.4</ele>
        <time>2014-07-29T13:42:08Z</time>
      </trkpt>
      <trkpt lat="43.4171840" lon="-7.3628500">
        <ele>264.5</ele>
        <time>2014-07-29T13:42:18Z</time>
      </trkpt>
      <trkpt lat="43.4171710" lon="-7.3628340">
        <ele>264.7</ele>
        <time>2014-07-29T13:42:19Z</time>
      </trkpt>
      <trkpt lat="43.4170550" lon="-7.3627260">
        <ele>266.5</ele>
        <time>2014-07-29T13:42:30Z</time>
      </trkpt>
      <trkpt lat="43.4169890" lon="-7.3626700">
        <ele>267.5</ele>
        <time>2014-07-29T13:42:36Z</time>
      </trkpt>
      <trkpt lat="43.4169690" lon="-7.3626510">
        <ele>267.8</ele>
        <time>2014-07-29T13:42:38Z</time>
      </trkpt>
      <trkpt lat="43.4169520" lon="-7.3626470">
        <ele>268.0</ele>
        <time>2014-07-29T13:42:39Z</time>
      </trkpt>
      <trkpt lat="43.4168110" lon="-7.3625860">
        <ele>270.0</ele>
        <time>2014-07-29T13:42:53Z</time>
      </trkpt>
      <trkpt lat="43.4167860" lon="-7.3625850">
        <ele>270.3</ele>
        <time>2014-07-29T13:42:55Z</time>
      </trkpt>
      <trkpt lat="43.4167740" lon="-7.3625900">
        <ele>270.5</ele>
        <time>2014-07-29T13:42:56Z</time>
      </trkpt>
      <trkpt lat="43.4167040" lon="-7.3626220">
        <ele>271.5</ele>
        <time>2014-07-29T13:43:05Z</time>
      </trkpt>
      <trkpt lat="43.4166910" lon="-7.3626170">
        <ele>271.7</ele>
        <time>2014-07-29T13:43:06Z</time>
      </trkpt>
      <trkpt lat="43.4166790" lon="-7.3626120">
        <ele>271.8</ele>
        <time>2014-07-29T13:43:07Z</time>
      </trkpt>
      <trkpt lat="43.4165150" lon="-7.3625770">
        <ele>273.8</ele>
        <time>2014-07-29T13:43:20Z</time>
      </trkpt>
      <trkpt lat="43.4162480" lon="-7.3624040">
        <ele>277.1</ele>
        <time>2014-07-29T13:43:33Z</time>
      </trkpt>
      <trkpt lat="43.4161100" lon="-7.3623450">
        <ele>278.4</ele>
        <time>2014-07-29T13:43:44Z</time>
      </trkpt>
      <trkpt lat="43.4160980" lon="-7.3623420">
        <ele>278.5</ele>
        <time>2014-07-29T13:43:45Z</time>
      </trkpt>
      <trkpt lat="43.4160890" lon="-7.3623380">
        <ele>278.5</ele>
        <time>2014-07-29T13:43:46Z</time>
      </trkpt>
      <trkpt lat="43.4160760" lon="-7.3623360">
        <ele>278.6</ele>
        <time>2014-07-29T13:43:47Z</time>
      </trkpt>
      <trkpt lat="43.4160640" lon="-7.3623340">
        <ele>278.7</ele>
        <time>2014-07-29T13:43:48Z</time>
      </trkpt>
      <trkpt lat="43.4160510" lon="-7.3623330">
        <ele>278.8</ele>
        <time>2014-07-29T13:43:49Z</time>
      </trkpt>
      <trkpt lat="43.4160360" lon="-7.3623290">
        <ele>279.0</ele>
        <time>2014-07-29T13:43:50Z</time>
      </trkpt>
      <trkpt lat="43.4160230" lon="-7.3623220">
        <ele>279.1</ele>
        <time>2014-07-29T13:43:51Z</time>
      </trkpt>
      <trkpt lat="43.4158260" lon="-7.3622570">
        <ele>280.3</ele>
        <time>2014-07-29T13:44:05Z</time>
      </trkpt>
      <trkpt lat="43.4156050" lon="-7.3623100">
        <ele>280.6</ele>
        <time>2014-07-29T13:44:18Z</time>
      </trkpt>
      <trkpt lat="43.4151410" lon="-7.3627750">
        <ele>280.2</ele>
        <time>2014-07-29T13:44:31Z</time>
      </trkpt>
      <trkpt lat="43.4143760" lon="-7.3638050">
        <ele>278.6</ele>
        <time>2014-07-29T13:44:48Z</time>
      </trkpt>
      <trkpt lat="43.4137480" lon="-7.3645430">
        <ele>278.0</ele>
        <time>2014-07-29T13:44:59Z</time>
      </trkpt>
      <trkpt lat="43.4135760" lon="-7.3647740">
        <ele>277.4</ele>
        <time>2014-07-29T13:45:02Z</time>
      </trkpt>
      <trkpt lat="43.4135320" lon="-7.3648630">
        <ele>277.3</ele>
        <time>2014-07-29T13:45:03Z</time>
      </trkpt>
      <trkpt lat="43.4134980" lon="-7.3649550">
        <ele>277.2</ele>
        <time>2014-07-29T13:45:04Z</time>
      </trkpt>
      <trkpt lat="43.4134730" lon="-7.3650490">
        <ele>277.2</ele>
        <time>2014-07-29T13:45:05Z</time>
      </trkpt>
      <trkpt lat="43.4134510" lon="-7.3651410">
        <ele>277.2</ele>
        <time>2014-07-29T13:45:06Z</time>
      </trkpt>
      <trkpt lat="43.4132020" lon="-7.3657840">
        <ele>279.1</ele>
        <time>2014-07-29T13:45:15Z</time>
      </trkpt>
      <trkpt lat="43.4129940" lon="-7.3662030">
        <ele>281.3</ele>
        <time>2014-07-29T13:45:26Z</time>
      </trkpt>
      <trkpt lat="43.4127740" lon="-7.3665290">
        <ele>282.6</ele>
        <time>2014-07-29T13:45:40Z</time>
      </trkpt>
      <trkpt lat="43.4127240" lon="-7.3666040">
        <ele>283.0</ele>
        <time>2014-07-29T13:45:44Z</time>
      </trkpt>
      <trkpt lat="43.4127210" lon="-7.3666250">
        <ele>283.2</ele>
        <time>2014-07-29T13:45:45Z</time>
      </trkpt>
      <trkpt lat="43.4127160" lon="-7.3666430">
        <ele>283.3</ele>
        <time>2014-07-29T13:45:46Z</time>
      </trkpt>
      <trkpt lat="43.4127060" lon="-7.3666590">
        <ele>283.4</ele>
        <time>2014-07-29T13:45:47Z</time>
      </trkpt>
      <trkpt lat="43.4126940" lon="-7.3666750">
        <ele>283.5</ele>
        <time>2014-07-29T13:45:48Z</time>
      </trkpt>
      <trkpt lat="43.4126680" lon="-7.3667300">
        <ele>283.8</ele>
        <time>2014-07-29T13:45:51Z</time>
      </trkpt>
      <trkpt lat="43.4124920" lon="-7.3669620">
        <ele>284.4</ele>
        <time>2014-07-29T13:46:05Z</time>
      </trkpt>
      <trkpt lat="43.4122940" lon="-7.3671500">
        <ele>284.5</ele>
        <time>2014-07-29T13:46:19Z</time>
      </trkpt>
      <trkpt lat="43.4122280" lon="-7.3671460">
        <ele>284.3</ele>
        <time>2014-07-29T13:46:23Z</time>
      </trkpt>
      <trkpt lat="43.4122130" lon="-7.3671410">
        <ele>284.3</ele>
        <time>2014-07-29T13:46:24Z</time>
      </trkpt>
      <trkpt lat="43.4119730" lon="-7.3670240">
        <ele>282.6</ele>
        <time>2014-07-29T13:46:39Z</time>
      </trkpt>
      <trkpt lat="43.4118050" lon="-7.3668870">
        <ele>280.6</ele>
        <time>2014-07-29T13:46:51Z</time>
      </trkpt>
      <trkpt lat="43.4117910" lon="-7.3668730">
        <ele>280.4</ele>
        <time>2014-07-29T13:46:52Z</time>
      </trkpt>
      <trkpt lat="43.4117800" lon="-7.3668650">
        <ele>280.3</ele>
        <time>2014-07-29T13:46:53Z</time>
      </trkpt>
      <trkpt lat="43.4117660" lon="-7.3668590">
        <ele>280.2</ele>
        <time>2014-07-29T13:46:54Z</time>
      </trkpt>
      <trkpt lat="43.4116890" lon="-7.3667570">
        <ele>279.6</ele>
        <time>2014-07-29T13:47:02Z</time>
      </trkpt>
      <trkpt lat="43.4116820" lon="-7.3667480">
        <ele>279.6</ele>
        <time>2014-07-29T13:47:03Z</time>
      </trkpt>
      <trkpt lat="43.4116690" lon="-7.3667320">
        <ele>279.5</ele>
        <time>2014-07-29T13:47:04Z</time>
      </trkpt>
      <trkpt lat="43.4116570" lon="-7.3667180">
        <ele>279.4</ele>
        <time>2014-07-29T13:47:05Z</time>
      </trkpt>
      <trkpt lat="43.4116380" lon="-7.3667000">
        <ele>279.3</ele>
        <time>2014-07-29T13:47:06Z</time>
      </trkpt>
      <trkpt lat="43.4116080" lon="-7.3666840">
        <ele>279.2</ele>
        <time>2014-07-29T13:47:07Z</time>
      </trkpt>
      <trkpt lat="43.4114070" lon="-7.3665700">
        <ele>278.5</ele>
        <time>2014-07-29T13:47:13Z</time>
      </trkpt>
      <trkpt lat="43.4109770" lon="-7.3663230">
        <ele>275.3</ele>
        <time>2014-07-29T13:47:25Z</time>
      </trkpt>
      <trkpt lat="43.4106100" lon="-7.3661700">
        <ele>272.8</ele>
        <time>2014-07-29T13:47:34Z</time>
      </trkpt>
      <trkpt lat="43.4105640" lon="-7.3661630">
        <ele>272.4</ele>
        <time>2014-07-29T13:47:35Z</time>
      </trkpt>
      <trkpt lat="43.4105210" lon="-7.3661680">
        <ele>272.0</ele>
        <time>2014-07-29T13:47:36Z</time>
      </trkpt>
      <trkpt lat="43.4104810" lon="-7.3661810">
        <ele>271.6</ele>
        <time>2014-07-29T13:47:37Z</time>
      </trkpt>
      <trkpt lat="43.4104460" lon="-7.3661970">
        <ele>271.1</ele>
        <time>2014-07-29T13:47:38Z</time>
      </trkpt>
      <trkpt lat="43.4104210" lon="-7.3662230">
        <ele>271.0</ele>
        <time>2014-07-29T13:47:39Z</time>
      </trkpt>
      <trkpt lat="43.4104050" lon="-7.3662550">
        <ele>271.9</ele>
        <time>2014-07-29T13:47:40Z</time>
      </trkpt>
      <trkpt lat="43.4103930" lon="-7.3662850">
        <ele>272.6</ele>
        <time>2014-07-29T13:47:41Z</time>
      </trkpt>
      <trkpt lat="43.4103840" lon="-7.3663090">
        <ele>273.0</ele>
        <time>2014-07-29T13:47:42Z</time>
      </trkpt>
      <trkpt lat="43.4103790" lon="-7.3663360">
        <ele>273.3</ele>
        <time>2014-07-29T13:47:43Z</time>
      </trkpt>
      <trkpt lat="43.4103820" lon="-7.3663640">
        <ele>273.7</ele>
        <time>2014-07-29T13:47:44Z</time>
      </trkpt>
      <trkpt lat="43.4103890" lon="-7.3663950">
        <ele>274.2</ele>
        <time>2014-07-29T13:47:45Z</time>
      </trkpt>
      <trkpt lat="43.4103910" lon="-7.3664260">
        <ele>274.6</ele>
        <time>2014-07-29T13:47:46Z</time>
      </trkpt>
      <trkpt lat="43.4103930" lon="-7.3664540">
        <ele>275.0</ele>
        <time>2014-07-29T13:47:47Z</time>
      </trkpt>
      <trkpt lat="43.4103840" lon="-7.3664720">
        <ele>275.4</ele>
        <time>2014-07-29T13:47:48Z</time>
      </trkpt>
      <trkpt lat="43.4103680" lon="-7.3664890">
        <ele>275.8</ele>
        <time>2014-07-29T13:47:49Z</time>
      </trkpt>
      <trkpt lat="43.4103520" lon="-7.3665030">
        <ele>276.1</ele>
        <time>2014-07-29T13:47:50Z</time>
      </trkpt>
      <trkpt lat="43.4102510" lon="-7.3666130">
        <ele>278.6</ele>
        <time>2014-07-29T13:47:59Z</time>
      </trkpt>
      <trkpt lat="43.4102410" lon="-7.3666250">
        <ele>278.8</ele>
        <time>2014-07-29T13:48:00Z</time>
      </trkpt>
      <trkpt lat="43.4102290" lon="-7.3666390">
        <ele>279.1</ele>
        <time>2014-07-29T13:48:01Z</time>
      </trkpt>
      <trkpt lat="43.4102060" lon="-7.3666630">
        <ele>279.6</ele>
        <time>2014-07-29T13:48:03Z</time>
      </trkpt>
      <trkpt lat="43.4101980" lon="-7.3666780">
        <ele>279.8</ele>
        <time>2014-07-29T13:48:04Z</time>
      </trkpt>
      <trkpt lat="43.4101650" lon="-7.3667320">
        <ele>280.7</ele>
        <time>2014-07-29T13:48:08Z</time>
      </trkpt>
      <trkpt lat="43.4101210" lon="-7.3668660">
        <ele>283.5</ele>
        <time>2014-07-29T13:48:16Z</time>
      </trkpt>
      <trkpt lat="43.4101120" lon="-7.3668820">
        <ele>283.8</ele>
        <time>2014-07-29T13:48:17Z</time>
      </trkpt>
      <trkpt lat="43.4101050" lon="-7.3668950">
        <ele>283.9</ele>
        <time>2014-07-29T13:48:18Z</time>
      </trkpt>
      <trkpt lat="43.4101030" lon="-7.3669210">
        <ele>284.2</ele>
        <time>2014-07-29T13:48:32Z</time>
      </trkpt>
      <trkpt lat="43.4101040" lon="-7.3669220">
        <ele>284.2</ele>
        <time>2014-07-29T13:49:00Z</time>
      </trkpt>
      <trkpt lat="43.4101030" lon="-7.3669180">
        <ele>284.3</ele>
        <time>2014-07-29T13:49:29Z</time>
      </trkpt>
      <trkpt lat="43.4101200" lon="-7.3669160">
        <ele>284.5</ele>
        <time>2014-07-29T13:49:32Z</time>
      </trkpt>
      <trkpt lat="43.4101380" lon="-7.3668960">
        <ele>284.8</ele>
        <time>2014-07-29T13:49:33Z</time>
      </trkpt>
      <trkpt lat="43.4101570" lon="-7.3668640">
        <ele>285.2</ele>
        <time>2014-07-29T13:49:34Z</time>
      </trkpt>
      <trkpt lat="43.4101790" lon="-7.3668270">
        <ele>284.6</ele>
        <time>2014-07-29T13:49:35Z</time>
      </trkpt>
      <trkpt lat="43.4102040" lon="-7.3667850">
        <ele>284.0</ele>
        <time>2014-07-29T13:49:36Z</time>
      </trkpt>
      <trkpt lat="43.4102300" lon="-7.3667360">
        <ele>282.8</ele>
        <time>2014-07-29T13:49:37Z</time>
      </trkpt>
      <trkpt lat="43.4102600" lon="-7.3666850">
        <ele>281.4</ele>
        <time>2014-07-29T13:49:38Z</time>
      </trkpt>
      <trkpt lat="43.4102950" lon="-7.3666340">
        <ele>280.2</ele>
        <time>2014-07-29T13:49:39Z</time>
      </trkpt>
      <trkpt lat="43.4103310" lon="-7.3665890">
        <ele>279.2</ele>
        <time>2014-07-29T13:49:40Z</time>
      </trkpt>
      <trkpt lat="43.4103690" lon="-7.3665400">
        <ele>278.1</ele>
        <time>2014-07-29T13:49:41Z</time>
      </trkpt>
      <trkpt lat="43.4103970" lon="-7.3664800">
        <ele>277.0</ele>
        <time>2014-07-29T13:49:42Z</time>
      </trkpt>
      <trkpt lat="43.4104370" lon="-7.3663090">
        <ele>274.0</ele>
        <time>2014-07-29T13:49:45Z</time>
      </trkpt>
      <trkpt lat="43.4104330" lon="-7.3662720">
        <ele>273.4</ele>
        <time>2014-07-29T13:49:46Z</time>
      </trkpt>
      <trkpt lat="43.4104240" lon="-7.3662540">
        <ele>273.1</ele>
        <time>2014-07-29T13:49:47Z</time>
      </trkpt>
      <trkpt lat="43.4103980" lon="-7.3662680">
        <ele>272.5</ele>
        <time>2014-07-29T13:49:49Z</time>
      </trkpt>
      <trkpt lat="43.4103130" lon="-7.3663300">
        <ele>271.0</ele>
        <time>2014-07-29T13:49:55Z</time>
      </trkpt>
      <trkpt lat="43.4101020" lon="-7.3664980">
        <ele>271.5</ele>
        <time>2014-07-29T13:50:09Z</time>
      </trkpt>
      <trkpt lat="43.4099160" lon="-7.3667320">
        <ele>272.0</ele>
        <time>2014-07-29T13:50:21Z</time>
      </trkpt>
      <trkpt lat="43.4097480" lon="-7.3669940">
        <ele>272.4</ele>
        <time>2014-07-29T13:50:35Z</time>
      </trkpt>
      <trkpt lat="43.4095080" lon="-7.3670560">
        <ele>273.3</ele>
        <time>2014-07-29T13:50:47Z</time>
      </trkpt>
      <trkpt lat="43.4091880" lon="-7.3670310">
        <ele>275.4</ele>
        <time>2014-07-29T13:51:01Z</time>
      </trkpt>
      <trkpt lat="43.4088100" lon="-7.3672110">
        <ele>274.6</ele>
        <time>2014-07-29T13:51:13Z</time>
      </trkpt>
      <trkpt lat="43.4087700" lon="-7.3672350">
        <ele>274.4</ele>
        <time>2014-07-29T13:51:14Z</time>
      </trkpt>
      <trkpt lat="43.4082530" lon="-7.3676490">
        <ele>273.8</ele>
        <time>2014-07-29T13:51:26Z</time>
      </trkpt>
      <trkpt lat="43.4081180" lon="-7.3677080">
        <ele>275.0</ele>
        <time>2014-07-29T13:51:29Z</time>
      </trkpt>
      <trkpt lat="43.4077760" lon="-7.3678590">
        <ele>277.9</ele>
        <time>2014-07-29T13:51:38Z</time>
      </trkpt>
      <trkpt lat="43.4077420" lon="-7.3678830">
        <ele>278.2</ele>
        <time>2014-07-29T13:51:39Z</time>
      </trkpt>
      <trkpt lat="43.4077140" lon="-7.3679130">
        <ele>278.4</ele>
        <time>2014-07-29T13:51:40Z</time>
      </trkpt>
      <trkpt lat="43.4072400" lon="-7.3682120">
        <ele>280.9</ele>
        <time>2014-07-29T13:51:54Z</time>
      </trkpt>
      <trkpt lat="43.4069550" lon="-7.3683400">
        <ele>282.1</ele>
        <time>2014-07-29T13:52:04Z</time>
      </trkpt>
      <trkpt lat="43.4068560" lon="-7.3683670">
        <ele>282.3</ele>
        <time>2014-07-29T13:52:08Z</time>
      </trkpt>
      <trkpt lat="43.4068300" lon="-7.3683690">
        <ele>282.3</ele>
        <time>2014-07-29T13:52:09Z</time>
      </trkpt>
      <trkpt lat="43.4068040" lon="-7.3683760">
        <ele>282.3</ele>
        <time>2014-07-29T13:52:10Z</time>
      </trkpt>
      <trkpt lat="43.4067780" lon="-7.3683860">
        <ele>282.2</ele>
        <time>2014-07-29T13:52:11Z</time>
      </trkpt>
      <trkpt lat="43.4067540" lon="-7.3683960">
        <ele>282.2</ele>
        <time>2014-07-29T13:52:12Z</time>
      </trkpt>
      <trkpt lat="43.4067350" lon="-7.3684090">
        <ele>282.2</ele>
        <time>2014-07-29T13:52:13Z</time>
      </trkpt>
      <trkpt lat="43.4067190" lon="-7.3684260">
        <ele>282.2</ele>
        <time>2014-07-29T13:52:14Z</time>
      </trkpt>
      <trkpt lat="43.4067080" lon="-7.3684420">
        <ele>282.2</ele>
        <time>2014-07-29T13:52:15Z</time>
      </trkpt>
      <trkpt lat="43.4066860" lon="-7.3684530">
        <ele>282.2</ele>
        <time>2014-07-29T13:52:25Z</time>
      </trkpt>
      <trkpt lat="43.4066360" lon="-7.3684600">
        <ele>282.2</ele>
        <time>2014-07-29T13:52:39Z</time>
      </trkpt>
      <trkpt lat="43.4066190" lon="-7.3684390">
        <ele>282.1</ele>
        <time>2014-07-29T13:53:04Z</time>
      </trkpt>
      <trkpt lat="43.4066130" lon="-7.3684320">
        <ele>282.1</ele>
        <time>2014-07-29T13:53:26Z</time>
      </trkpt>
      <trkpt lat="43.4066020" lon="-7.3684040">
        <ele>282.1</ele>
        <time>2014-07-29T13:53:54Z</time>
      </trkpt>
      <trkpt lat="43.4066020" lon="-7.3684090">
        <ele>282.1</ele>
        <time>2014-07-29T13:54:13Z</time>
      </trkpt>
      <trkpt lat="43.4066060" lon="-7.3684080">
        <ele>282.0</ele>
        <time>2014-07-29T13:54:42Z</time>
      </trkpt>
      <trkpt lat="43.4066060" lon="-7.3684080">
        <ele>282.0</ele>
        <time>2014-07-29T13:55:09Z</time>
      </trkpt>
      <trkpt lat="43.4066060" lon="-7.3684080">
        <ele>282.0</ele>
        <time>2014-07-29T13:55:37Z</time>
      </trkpt>
      <trkpt lat="43.4065160" lon="-7.3683030">
        <ele>281.7</ele>
        <time>2014-07-29T13:55:58Z</time>
      </trkpt>
      <trkpt lat="43.4064620" lon="-7.3682700">
        <ele>281.5</ele>
        <time>2014-07-29T13:56:08Z</time>
      </trkpt>
      <trkpt lat="43.4062790" lon="-7.3683100">
        <ele>280.6</ele>
        <time>2014-07-29T13:56:18Z</time>
      </trkpt>
      <trkpt lat="43.4061850" lon="-7.3683410">
        <ele>280.3</ele>
        <time>2014-07-29T13:56:22Z</time>
      </trkpt>
      <trkpt lat="43.4061120" lon="-7.3683540">
        <ele>280.1</ele>
        <time>2014-07-29T13:56:25Z</time>
      </trkpt>
      <trkpt lat="43.4058740" lon="-7.3683500">
        <ele>280.6</ele>
        <time>2014-07-29T13:56:35Z</time>
      </trkpt>
      <trkpt lat="43.4056110" lon="-7.3681490">
        <ele>281.7</ele>
        <time>2014-07-29T13:56:45Z</time>
      </trkpt>
      <trkpt lat="43.4054050" lon="-7.3679750">
        <ele>282.4</ele>
        <time>2014-07-29T13:56:57Z</time>
      </trkpt>
      <trkpt lat="43.4053130" lon="-7.3679210">
        <ele>282.2</ele>
        <time>2014-07-29T13:57:02Z</time>
      </trkpt>
      <trkpt lat="43.4052550" lon="-7.3679120">
        <ele>282.0</ele>
        <time>2014-07-29T13:57:07Z</time>
      </trkpt>
      <trkpt lat="43.4050380" lon="-7.3677900">
        <ele>280.9</ele>
        <time>2014-07-29T13:57:15Z</time>
      </trkpt>
      <trkpt lat="43.4049650" lon="-7.3677480">
        <ele>280.4</ele>
        <time>2014-07-29T13:57:16Z</time>
      </trkpt>
      <trkpt lat="43.4048020" lon="-7.3677840">
        <ele>280.2</ele>
        <time>2014-07-29T13:57:20Z</time>
      </trkpt>
      <trkpt lat="43.4045700" lon="-7.3679920">
        <ele>280.3</ele>
        <time>2014-07-29T13:57:30Z</time>
      </trkpt>
      <trkpt lat="43.4045090" lon="-7.3680190">
        <ele>280.3</ele>
        <time>2014-07-29T13:57:33Z</time>
      </trkpt>
      <trkpt lat="43.4043620" lon="-7.3680440">
        <ele>280.5</ele>
        <time>2014-07-29T13:57:38Z</time>
      </trkpt>
      <trkpt lat="43.4041290" lon="-7.3681370">
        <ele>281.1</ele>
        <time>2014-07-29T13:57:49Z</time>
      </trkpt>
      <trkpt lat="43.4039620" lon="-7.3683690">
        <ele>281.9</ele>
        <time>2014-07-29T13:57:59Z</time>
      </trkpt>
      <trkpt lat="43.4037180" lon="-7.3686890">
        <ele>282.8</ele>
        <time>2014-07-29T13:58:11Z</time>
      </trkpt>
      <trkpt lat="43.4034280" lon="-7.3691770">
        <ele>283.8</ele>
        <time>2014-07-29T13:58:27Z</time>
      </trkpt>
      <trkpt lat="43.4032420" lon="-7.3695850">
        <ele>284.8</ele>
        <time>2014-07-29T13:58:39Z</time>
      </trkpt>
      <trkpt lat="43.4032100" lon="-7.3696880">
        <ele>285.0</ele>
        <time>2014-07-29T13:58:42Z</time>
      </trkpt>
      <trkpt lat="43.4031310" lon="-7.3698950">
        <ele>285.5</ele>
        <time>2014-07-29T13:58:49Z</time>
      </trkpt>
      <trkpt lat="43.4029250" lon="-7.3703170">
        <ele>286.5</ele>
        <time>2014-07-29T13:59:02Z</time>
      </trkpt>
      <trkpt lat="43.4026480" lon="-7.3706190">
        <ele>287.5</ele>
        <time>2014-07-29T13:59:15Z</time>
      </trkpt>
      <trkpt lat="43.4023940" lon="-7.3706760">
        <ele>288.5</ele>
        <time>2014-07-29T13:59:26Z</time>
      </trkpt>
      <trkpt lat="43.4020970" lon="-7.3708580">
        <ele>289.7</ele>
        <time>2014-07-29T13:59:39Z</time>
      </trkpt>
      <trkpt lat="43.4019840" lon="-7.3710050">
        <ele>290.5</ele>
        <time>2014-07-29T13:59:47Z</time>
      </trkpt>
      <trkpt lat="43.4018230" lon="-7.3712770">
        <ele>292.0</ele>
        <time>2014-07-29T13:59:59Z</time>
      </trkpt>
      <trkpt lat="43.4016800" lon="-7.3716380">
        <ele>293.6</ele>
        <time>2014-07-29T14:00:13Z</time>
      </trkpt>
      <trkpt lat="43.4016290" lon="-7.3718270">
        <ele>294.1</ele>
        <time>2014-07-29T14:00:18Z</time>
      </trkpt>
      <trkpt lat="43.4015920" lon="-7.3718770">
        <ele>294.2</ele>
        <time>2014-07-29T14:00:20Z</time>
      </trkpt>
      <trkpt lat="43.4015380" lon="-7.3722340">
        <ele>294.3</ele>
        <time>2014-07-29T14:00:25Z</time>
      </trkpt>
      <trkpt lat="43.4015130" lon="-7.3723150">
        <ele>294.4</ele>
        <time>2014-07-29T14:00:26Z</time>
      </trkpt>
      <trkpt lat="43.4014700" lon="-7.3723960">
        <ele>294.4</ele>
        <time>2014-07-29T14:00:27Z</time>
      </trkpt>
      <trkpt lat="43.4014080" lon="-7.3724780">
        <ele>294.3</ele>
        <time>2014-07-29T14:00:28Z</time>
      </trkpt>
      <trkpt lat="43.4013410" lon="-7.3725500">
        <ele>294.2</ele>
        <time>2014-07-29T14:00:29Z</time>
      </trkpt>
      <trkpt lat="43.4012700" lon="-7.3726140">
        <ele>294.1</ele>
        <time>2014-07-29T14:00:30Z</time>
      </trkpt>
      <trkpt lat="43.4011990" lon="-7.3726810">
        <ele>293.8</ele>
        <time>2014-07-29T14:00:31Z</time>
      </trkpt>
      <trkpt lat="43.4010630" lon="-7.3728410">
        <ele>293.1</ele>
        <time>2014-07-29T14:00:33Z</time>
      </trkpt>
      <trkpt lat="43.4009480" lon="-7.3730270">
        <ele>292.1</ele>
        <time>2014-07-29T14:00:35Z</time>
      </trkpt>
      <trkpt lat="43.4008400" lon="-7.3732400">
        <ele>290.8</ele>
        <time>2014-07-29T14:00:37Z</time>
      </trkpt>
      <trkpt lat="43.4007750" lon="-7.3733440">
        <ele>290.0</ele>
        <time>2014-07-29T14:00:38Z</time>
      </trkpt>
      <trkpt lat="43.4007050" lon="-7.3734370">
        <ele>289.3</ele>
        <time>2014-07-29T14:00:39Z</time>
      </trkpt>
      <trkpt lat="43.4006300" lon="-7.3735100">
        <ele>288.5</ele>
        <time>2014-07-29T14:00:40Z</time>
      </trkpt>
      <trkpt lat="43.4005380" lon="-7.3735860">
        <ele>287.7</ele>
        <time>2014-07-29T14:00:41Z</time>
      </trkpt>
      <trkpt lat="43.4003130" lon="-7.3738290">
        <ele>285.3</ele>
        <time>2014-07-29T14:00:44Z</time>
      </trkpt>
      <trkpt lat="43.4002600" lon="-7.3739020">
        <ele>284.7</ele>
        <time>2014-07-29T14:00:45Z</time>
      </trkpt>
      <trkpt lat="43.4002170" lon="-7.3739790">
        <ele>284.3</ele>
        <time>2014-07-29T14:00:46Z</time>
      </trkpt>
      <trkpt lat="43.4001820" lon="-7.3740590">
        <ele>283.9</ele>
        <time>2014-07-29T14:00:47Z</time>
      </trkpt>
      <trkpt lat="43.4001490" lon="-7.3741390">
        <ele>283.6</ele>
        <time>2014-07-29T14:00:48Z</time>
      </trkpt>
      <trkpt lat="43.4000550" lon="-7.3743560">
        <ele>283.1</ele>
        <time>2014-07-29T14:00:51Z</time>
      </trkpt>
      <trkpt lat="43.4000280" lon="-7.3744220">
        <ele>283.0</ele>
        <time>2014-07-29T14:00:52Z</time>
      </trkpt>
      <trkpt lat="43.4000090" lon="-7.3744820">
        <ele>283.0</ele>
        <time>2014-07-29T14:00:53Z</time>
      </trkpt>
      <trkpt lat="43.3998660" lon="-7.3749140">
        <ele>283.0</ele>
        <time>2014-07-29T14:01:00Z</time>
      </trkpt>
      <trkpt lat="43.3998440" lon="-7.3749730">
        <ele>283.1</ele>
        <time>2014-07-29T14:01:01Z</time>
      </trkpt>
      <trkpt lat="43.3998250" lon="-7.3750300">
        <ele>283.1</ele>
        <time>2014-07-29T14:01:02Z</time>
      </trkpt>
      <trkpt lat="43.3998050" lon="-7.3750850">
        <ele>283.2</ele>
        <time>2014-07-29T14:01:03Z</time>
      </trkpt>
      <trkpt lat="43.3997890" lon="-7.3751370">
        <ele>283.3</ele>
        <time>2014-07-29T14:01:04Z</time>
      </trkpt>
      <trkpt lat="43.3997150" lon="-7.3756560">
        <ele>284.2</ele>
        <time>2014-07-29T14:01:17Z</time>
      </trkpt>
      <trkpt lat="43.3997160" lon="-7.3756710">
        <ele>284.2</ele>
        <time>2014-07-29T14:01:41Z</time>
      </trkpt>
      <trkpt lat="43.3997490" lon="-7.3759360">
        <ele>284.8</ele>
        <time>2014-07-29T14:01:52Z</time>
      </trkpt>
      <trkpt lat="43.3997690" lon="-7.3760860">
        <ele>285.3</ele>
        <time>2014-07-29T14:01:59Z</time>
      </trkpt>
      <trkpt lat="43.3997670" lon="-7.3761060">
        <ele>285.4</ele>
        <time>2014-07-29T14:02:00Z</time>
      </trkpt>
      <trkpt lat="43.3997660" lon="-7.3761260">
        <ele>285.5</ele>
        <time>2014-07-29T14:02:01Z</time>
      </trkpt>
      <trkpt lat="43.3997610" lon="-7.3761480">
        <ele>285.6</ele>
        <time>2014-07-29T14:02:02Z</time>
      </trkpt>
      <trkpt lat="43.3997590" lon="-7.3761640">
        <ele>285.6</ele>
        <time>2014-07-29T14:02:03Z</time>
      </trkpt>
      <trkpt lat="43.3997290" lon="-7.3762560">
        <ele>286.0</ele>
        <time>2014-07-29T14:02:08Z</time>
      </trkpt>
      <trkpt lat="43.3997140" lon="-7.3763080">
        <ele>286.4</ele>
        <time>2014-07-29T14:02:11Z</time>
      </trkpt>
      <trkpt lat="43.3997040" lon="-7.3763690">
        <ele>286.9</ele>
        <time>2014-07-29T14:02:14Z</time>
      </trkpt>
      <trkpt lat="43.3996500" lon="-7.3765600">
        <ele>288.3</ele>
        <time>2014-07-29T14:02:23Z</time>
      </trkpt>
      <trkpt lat="43.3996150" lon="-7.3768150">
        <ele>290.4</ele>
        <time>2014-07-29T14:02:36Z</time>
      </trkpt>
      <trkpt lat="43.3996010" lon="-7.3769430">
        <ele>291.7</ele>
        <time>2014-07-29T14:02:43Z</time>
      </trkpt>
      <trkpt lat="43.3995610" lon="-7.3772080">
        <ele>294.1</ele>
        <time>2014-07-29T14:02:59Z</time>
      </trkpt>
      <trkpt lat="43.3995650" lon="-7.3773190">
        <ele>295.3</ele>
        <time>2014-07-29T14:03:08Z</time>
      </trkpt>
      <trkpt lat="43.3995430" lon="-7.3775090">
        <ele>297.4</ele>
        <time>2014-07-29T14:03:20Z</time>
      </trkpt>
      <trkpt lat="43.3995390" lon="-7.3776360">
        <ele>299.0</ele>
        <time>2014-07-29T14:03:29Z</time>
      </trkpt>
      <trkpt lat="43.3995350" lon="-7.3776540">
        <ele>299.2</ele>
        <time>2014-07-29T14:03:30Z</time>
      </trkpt>
      <trkpt lat="43.3995710" lon="-7.3777580">
        <ele>300.5</ele>
        <time>2014-07-29T14:03:41Z</time>
      </trkpt>
      <trkpt lat="43.3995450" lon="-7.3778550">
        <ele>301.5</ele>
        <time>2014-07-29T14:03:49Z</time>
      </trkpt>
      <trkpt lat="43.3994860" lon="-7.3778770">
        <ele>302.3</ele>
        <time>2014-07-29T14:04:01Z</time>
      </trkpt>
      <trkpt lat="43.3994170" lon="-7.3778010">
        <ele>303.2</ele>
        <time>2014-07-29T14:04:13Z</time>
      </trkpt>
      <trkpt lat="43.3993810" lon="-7.3777560">
        <ele>303.6</ele>
        <time>2014-07-29T14:04:15Z</time>
      </trkpt>
      <trkpt lat="43.3992870" lon="-7.3776240">
        <ele>304.6</ele>
        <time>2014-07-29T14:04:28Z</time>
      </trkpt>
      <trkpt lat="43.3992200" lon="-7.3775680">
        <ele>305.4</ele>
        <time>2014-07-29T14:04:33Z</time>
      </trkpt>
      <trkpt lat="43.3991820" lon="-7.3775110">
        <ele>305.9</ele>
        <time>2014-07-29T14:04:37Z</time>
      </trkpt>
      <trkpt lat="43.3990770" lon="-7.3775940">
        <ele>306.9</ele>
        <time>2014-07-29T14:04:41Z</time>
      </trkpt>
      <trkpt lat="43.3990090" lon="-7.3774330">
        <ele>308.1</ele>
        <time>2014-07-29T14:04:53Z</time>
      </trkpt>
      <trkpt lat="43.3989800" lon="-7.3773500">
        <ele>308.7</ele>
        <time>2014-07-29T14:04:59Z</time>
      </trkpt>
      <trkpt lat="43.3988970" lon="-7.3772190">
        <ele>309.9</ele>
        <time>2014-07-29T14:05:10Z</time>
      </trkpt>
      <trkpt lat="43.3987940" lon="-7.3770690">
        <ele>311.6</ele>
        <time>2014-07-29T14:05:22Z</time>
      </trkpt>
      <trkpt lat="43.3987490" lon="-7.3770280">
        <ele>312.2</ele>
        <time>2014-07-29T14:05:26Z</time>
      </trkpt>
      <trkpt lat="43.3986900" lon="-7.3769510">
        <ele>313.1</ele>
        <time>2014-07-29T14:05:32Z</time>
      </trkpt>
      <trkpt lat="43.3985870" lon="-7.3768410">
        <ele>314.6</ele>
        <time>2014-07-29T14:05:43Z</time>
      </trkpt>
      <trkpt lat="43.3984630" lon="-7.3768080">
        <ele>316.2</ele>
        <time>2014-07-29T14:05:53Z</time>
      </trkpt>
      <trkpt lat="43.3983010" lon="-7.3769200">
        <ele>318.4</ele>
        <time>2014-07-29T14:06:08Z</time>
      </trkpt>
      <trkpt lat="43.3981880" lon="-7.3770790">
        <ele>320.1</ele>
        <time>2014-07-29T14:06:21Z</time>
      </trkpt>
      <trkpt lat="43.3981140" lon="-7.3771890">
        <ele>321.1</ele>
        <time>2014-07-29T14:06:29Z</time>
      </trkpt>
      <trkpt lat="43.3980590" lon="-7.3772970">
        <ele>321.9</ele>
        <time>2014-07-29T14:06:35Z</time>
      </trkpt>
      <trkpt lat="43.3980130" lon="-7.3774070">
        <ele>322.6</ele>
        <time>2014-07-29T14:06:41Z</time>
      </trkpt>
      <trkpt lat="43.3978850" lon="-7.3780060">
        <ele>324.4</ele>
        <time>2014-07-29T14:06:52Z</time>
      </trkpt>
      <trkpt lat="43.3977770" lon="-7.3782850">
        <ele>324.5</ele>
        <time>2014-07-29T14:06:55Z</time>
      </trkpt>
      <trkpt lat="43.3977230" lon="-7.3783790">
        <ele>324.4</ele>
        <time>2014-07-29T14:06:56Z</time>
      </trkpt>
      <trkpt lat="43.3976590" lon="-7.3784650">
        <ele>324.4</ele>
        <time>2014-07-29T14:06:57Z</time>
      </trkpt>
      <trkpt lat="43.3975860" lon="-7.3785450">
        <ele>324.2</ele>
        <time>2014-07-29T14:06:58Z</time>
      </trkpt>
      <trkpt lat="43.3975080" lon="-7.3786170">
        <ele>324.0</ele>
        <time>2014-07-29T14:06:59Z</time>
      </trkpt>
      <trkpt lat="43.3974300" lon="-7.3786880">
        <ele>323.7</ele>
        <time>2014-07-29T14:07:00Z</time>
      </trkpt>
      <trkpt lat="43.3972870" lon="-7.3788480">
        <ele>322.9</ele>
        <time>2014-07-29T14:07:02Z</time>
      </trkpt>
      <trkpt lat="43.3972270" lon="-7.3789460">
        <ele>322.4</ele>
        <time>2014-07-29T14:07:03Z</time>
      </trkpt>
      <trkpt lat="43.3971740" lon="-7.3790570">
        <ele>321.8</ele>
        <time>2014-07-29T14:07:04Z</time>
      </trkpt>
      <trkpt lat="43.3969470" lon="-7.3795390">
        <ele>319.4</ele>
        <time>2014-07-29T14:07:08Z</time>
      </trkpt>
      <trkpt lat="43.3965270" lon="-7.3801140">
        <ele>317.2</ele>
        <time>2014-07-29T14:07:16Z</time>
      </trkpt>
      <trkpt lat="43.3963370" lon="-7.3805870">
        <ele>320.4</ele>
        <time>2014-07-29T14:07:28Z</time>
      </trkpt>
      <trkpt lat="43.3963090" lon="-7.3809540">
        <ele>322.5</ele>
        <time>2014-07-29T14:07:42Z</time>
      </trkpt>
      <trkpt lat="43.3963110" lon="-7.3809790">
        <ele>322.7</ele>
        <time>2014-07-29T14:07:43Z</time>
      </trkpt>
      <trkpt lat="43.3963140" lon="-7.3810040">
        <ele>322.8</ele>
        <time>2014-07-29T14:07:44Z</time>
      </trkpt>
      <trkpt lat="43.3963150" lon="-7.3814060">
        <ele>325.0</ele>
        <time>2014-07-29T14:08:00Z</time>
      </trkpt>
      <trkpt lat="43.3962500" lon="-7.3816880">
        <ele>326.4</ele>
        <time>2014-07-29T14:08:14Z</time>
      </trkpt>
      <trkpt lat="43.3960670" lon="-7.3818850">
        <ele>328.8</ele>
        <time>2014-07-29T14:08:30Z</time>
      </trkpt>
      <trkpt lat="43.3959890" lon="-7.3819530">
        <ele>330.0</ele>
        <time>2014-07-29T14:08:38Z</time>
      </trkpt>
      <trkpt lat="43.3958820" lon="-7.3820480">
        <ele>331.4</ele>
        <time>2014-07-29T14:08:48Z</time>
      </trkpt>
      <trkpt lat="43.3958550" lon="-7.3820810">
        <ele>331.8</ele>
        <time>2014-07-29T14:08:50Z</time>
      </trkpt>
      <trkpt lat="43.3956970" lon="-7.3824260">
        <ele>331.6</ele>
        <time>2014-07-29T14:09:04Z</time>
      </trkpt>
      <trkpt lat="43.3954950" lon="-7.3828380">
        <ele>330.4</ele>
        <time>2014-07-29T14:09:19Z</time>
      </trkpt>
      <trkpt lat="43.3953630" lon="-7.3831360">
        <ele>330.2</ele>
        <time>2014-07-29T14:09:30Z</time>
      </trkpt>
      <trkpt lat="43.3952110" lon="-7.3835150">
        <ele>330.0</ele>
        <time>2014-07-29T14:09:42Z</time>
      </trkpt>
      <trkpt lat="43.3951680" lon="-7.3836470">
        <ele>329.9</ele>
        <time>2014-07-29T14:09:54Z</time>
      </trkpt>
      <trkpt lat="43.3951640" lon="-7.3837300">
        <ele>329.8</ele>
        <time>2014-07-29T14:10:17Z</time>
      </trkpt>
      <trkpt lat="43.3951580" lon="-7.3842140">
        <ele>329.6</ele>
        <time>2014-07-29T14:10:30Z</time>
      </trkpt>
      <trkpt lat="43.3952230" lon="-7.3843340">
        <ele>329.6</ele>
        <time>2014-07-29T14:10:33Z</time>
      </trkpt>
      <trkpt lat="43.3952570" lon="-7.3843730">
        <ele>329.5</ele>
        <time>2014-07-29T14:10:34Z</time>
      </trkpt>
      <trkpt lat="43.3953760" lon="-7.3844890">
        <ele>329.4</ele>
        <time>2014-07-29T14:10:37Z</time>
      </trkpt>
      <trkpt lat="43.3956950" lon="-7.3846760">
        <ele>329.2</ele>
        <time>2014-07-29T14:10:43Z</time>
      </trkpt>
      <trkpt lat="43.3957500" lon="-7.3847280">
        <ele>329.2</ele>
        <time>2014-07-29T14:10:44Z</time>
      </trkpt>
      <trkpt lat="43.3958000" lon="-7.3847950">
        <ele>329.1</ele>
        <time>2014-07-29T14:10:45Z</time>
      </trkpt>
      <trkpt lat="43.3960170" lon="-7.3852380">
        <ele>328.9</ele>
        <time>2014-07-29T14:10:50Z</time>
      </trkpt>
      <trkpt lat="43.3960430" lon="-7.3853480">
        <ele>329.0</ele>
        <time>2014-07-29T14:10:51Z</time>
      </trkpt>
      <trkpt lat="43.3960940" lon="-7.3856690">
        <ele>329.1</ele>
        <time>2014-07-29T14:10:54Z</time>
      </trkpt>
      <trkpt lat="43.3960960" lon="-7.3857750">
        <ele>329.1</ele>
        <time>2014-07-29T14:10:55Z</time>
      </trkpt>
      <trkpt lat="43.3960800" lon="-7.3858680">
        <ele>329.2</ele>
        <time>2014-07-29T14:10:56Z</time>
      </trkpt>
      <trkpt lat="43.3959820" lon="-7.3859730">
        <ele>329.5</ele>
        <time>2014-07-29T14:10:58Z</time>
      </trkpt>
      <trkpt lat="43.3959260" lon="-7.3859790">
        <ele>329.8</ele>
        <time>2014-07-29T14:10:59Z</time>
      </trkpt>
      <trkpt lat="43.3958710" lon="-7.3859740">
        <ele>330.1</ele>
        <time>2014-07-29T14:11:00Z</time>
      </trkpt>
      <trkpt lat="43.3958230" lon="-7.3859670">
        <ele>330.5</ele>
        <time>2014-07-29T14:11:01Z</time>
      </trkpt>
      <trkpt lat="43.3957830" lon="-7.3859610">
        <ele>330.8</ele>
        <time>2014-07-29T14:11:02Z</time>
      </trkpt>
      <trkpt lat="43.3957540" lon="-7.3859560">
        <ele>331.0</ele>
        <time>2014-07-29T14:11:03Z</time>
      </trkpt>
      <trkpt lat="43.3957280" lon="-7.3859500">
        <ele>331.2</ele>
        <time>2014-07-29T14:11:04Z</time>
      </trkpt>
      <trkpt lat="43.3957070" lon="-7.3859460">
        <ele>331.4</ele>
        <time>2014-07-29T14:11:05Z</time>
      </trkpt>
      <trkpt lat="43.3955720" lon="-7.3859630">
        <ele>332.5</ele>
        <time>2014-07-29T14:11:12Z</time>
      </trkpt>
      <trkpt lat="43.3955570" lon="-7.3859760">
        <ele>332.7</ele>
        <time>2014-07-29T14:11:13Z</time>
      </trkpt>
      <trkpt lat="43.3955410" lon="-7.3859830">
        <ele>332.8</ele>
        <time>2014-07-29T14:11:14Z</time>
      </trkpt>
      <trkpt lat="43.3954870" lon="-7.3860010">
        <ele>333.3</ele>
        <time>2014-07-29T14:11:17Z</time>
      </trkpt>
      <trkpt lat="43.3952620" lon="-7.3860580">
        <ele>335.1</ele>
        <time>2014-07-29T14:11:30Z</time>
      </trkpt>
      <trkpt lat="43.3952330" lon="-7.3860710">
        <ele>335.4</ele>
        <time>2014-07-29T14:11:32Z</time>
      </trkpt>
      <trkpt lat="43.3951220" lon="-7.3861250">
        <ele>336.3</ele>
        <time>2014-07-29T14:11:39Z</time>
      </trkpt>
      <trkpt lat="43.3949090" lon="-7.3862820">
        <ele>338.0</ele>
        <time>2014-07-29T14:11:53Z</time>
      </trkpt>
      <trkpt lat="43.3947510" lon="-7.3865470">
        <ele>339.5</ele>
        <time>2014-07-29T14:12:04Z</time>
      </trkpt>
      <trkpt lat="43.3946070" lon="-7.3870570">
        <ele>340.3</ele>
        <time>2014-07-29T14:12:13Z</time>
      </trkpt>
      <trkpt lat="43.3945880" lon="-7.3871320">
        <ele>340.4</ele>
        <time>2014-07-29T14:12:14Z</time>
      </trkpt>
      <trkpt lat="43.3945670" lon="-7.3872080">
        <ele>340.5</ele>
        <time>2014-07-29T14:12:15Z</time>
      </trkpt>
      <trkpt lat="43.3944980" lon="-7.3873740">
        <ele>341.1</ele>
        <time>2014-07-29T14:12:17Z</time>
      </trkpt>
      <trkpt lat="43.3942110" lon="-7.3879370">
        <ele>341.3</ele>
        <time>2014-07-29T14:12:23Z</time>
      </trkpt>
      <trkpt lat="43.3939280" lon="-7.3884850">
        <ele>339.2</ele>
        <time>2014-07-29T14:12:28Z</time>
      </trkpt>
      <trkpt lat="43.3935940" lon="-7.3889810">
        <ele>337.0</ele>
        <time>2014-07-29T14:12:33Z</time>
      </trkpt>
      <trkpt lat="43.3932620" lon="-7.3894600">
        <ele>333.2</ele>
        <time>2014-07-29T14:12:39Z</time>
      </trkpt>
      <trkpt lat="43.3931790" lon="-7.3896200">
        <ele>332.5</ele>
        <time>2014-07-29T14:12:41Z</time>
      </trkpt>
      <trkpt lat="43.3929730" lon="-7.3901040">
        <ele>331.4</ele>
        <time>2014-07-29T14:12:47Z</time>
      </trkpt>
      <trkpt lat="43.3929390" lon="-7.3901780">
        <ele>331.3</ele>
        <time>2014-07-29T14:12:48Z</time>
      </trkpt>
      <trkpt lat="43.3929060" lon="-7.3902500">
        <ele>331.2</ele>
        <time>2014-07-29T14:12:49Z</time>
      </trkpt>
      <trkpt lat="43.3925500" lon="-7.3910020">
        <ele>331.1</ele>
        <time>2014-07-29T14:13:02Z</time>
      </trkpt>
      <trkpt lat="43.3923970" lon="-7.3915730">
        <ele>331.9</ele>
        <time>2014-07-29T14:13:15Z</time>
      </trkpt>
      <trkpt lat="43.3922330" lon="-7.3921040">
        <ele>332.1</ele>
        <time>2014-07-29T14:13:26Z</time>
      </trkpt>
      <trkpt lat="43.3920360" lon="-7.3923920">
        <ele>331.7</ele>
        <time>2014-07-29T14:13:33Z</time>
      </trkpt>
      <trkpt lat="43.3919060" lon="-7.3926020">
        <ele>331.4</ele>
        <time>2014-07-29T14:13:38Z</time>
      </trkpt>
      <trkpt lat="43.3918710" lon="-7.3927100">
        <ele>331.2</ele>
        <time>2014-07-29T14:13:40Z</time>
      </trkpt>
      <trkpt lat="43.3917870" lon="-7.3929840">
        <ele>330.7</ele>
        <time>2014-07-29T14:13:45Z</time>
      </trkpt>
      <trkpt lat="43.3917190" lon="-7.3936560">
        <ele>329.6</ele>
        <time>2014-07-29T14:13:58Z</time>
      </trkpt>
      <trkpt lat="43.3918590" lon="-7.3938610">
        <ele>329.2</ele>
        <time>2014-07-29T14:14:09Z</time>
      </trkpt>
      <trkpt lat="43.3918600" lon="-7.3938580">
        <ele>329.2</ele>
        <time>2014-07-29T14:14:28Z</time>
      </trkpt>
      <trkpt lat="43.3918600" lon="-7.3938580">
        <ele>329.2</ele>
        <time>2014-07-29T14:14:58Z</time>
      </trkpt>
      <trkpt lat="43.3918590" lon="-7.3938590">
        <ele>329.2</ele>
        <time>2014-07-29T14:15:23Z</time>
      </trkpt>
      <trkpt lat="43.3918530" lon="-7.3938530">
        <ele>329.2</ele>
        <time>2014-07-29T14:15:53Z</time>
      </trkpt>
      <trkpt lat="43.3918530" lon="-7.3938530">
        <ele>329.2</ele>
        <time>2014-07-29T14:16:24Z</time>
      </trkpt>
      <trkpt lat="43.3918820" lon="-7.3938680">
        <ele>329.1</ele>
        <time>2014-07-29T14:16:42Z</time>
      </trkpt>
      <trkpt lat="43.3922120" lon="-7.3940220">
        <ele>328.5</ele>
        <time>2014-07-29T14:16:57Z</time>
      </trkpt>
      <trkpt lat="43.3922920" lon="-7.3943250">
        <ele>328.4</ele>
        <time>2014-07-29T14:17:10Z</time>
      </trkpt>
      <trkpt lat="43.3922480" lon="-7.3946200">
        <ele>328.5</ele>
        <time>2014-07-29T14:17:27Z</time>
      </trkpt>
      <trkpt lat="43.3922170" lon="-7.3948760">
        <ele>329.2</ele>
        <time>2014-07-29T14:17:41Z</time>
      </trkpt>
      <trkpt lat="43.3922000" lon="-7.3949610">
        <ele>329.6</ele>
        <time>2014-07-29T14:17:46Z</time>
      </trkpt>
      <trkpt lat="43.3921750" lon="-7.3950960">
        <ele>330.6</ele>
        <time>2014-07-29T14:17:53Z</time>
      </trkpt>
      <trkpt lat="43.3921470" lon="-7.3952700">
        <ele>332.2</ele>
        <time>2014-07-29T14:18:03Z</time>
      </trkpt>
      <trkpt lat="43.3921480" lon="-7.3953220">
        <ele>332.7</ele>
        <time>2014-07-29T14:18:06Z</time>
      </trkpt>
      <trkpt lat="43.3921070" lon="-7.3954540">
        <ele>334.1</ele>
        <time>2014-07-29T14:18:15Z</time>
      </trkpt>
      <trkpt lat="43.3920840" lon="-7.3955770">
        <ele>335.0</ele>
        <time>2014-07-29T14:18:23Z</time>
      </trkpt>
      <trkpt lat="43.3920440" lon="-7.3957360">
        <ele>336.2</ele>
        <time>2014-07-29T14:18:34Z</time>
      </trkpt>
      <trkpt lat="43.3920260" lon="-7.3958090">
        <ele>336.9</ele>
        <time>2014-07-29T14:18:39Z</time>
      </trkpt>
      <trkpt lat="43.3919730" lon="-7.3960400">
        <ele>338.5</ele>
        <time>2014-07-29T14:18:54Z</time>
      </trkpt>
      <trkpt lat="43.3919680" lon="-7.3962020">
        <ele>339.2</ele>
        <time>2014-07-29T14:19:04Z</time>
      </trkpt>
      <trkpt lat="43.3920570" lon="-7.3964430">
        <ele>340.7</ele>
        <time>2014-07-29T14:19:20Z</time>
      </trkpt>
      <trkpt lat="43.3921780" lon="-7.3965850">
        <ele>341.9</ele>
        <time>2014-07-29T14:19:33Z</time>
      </trkpt>
      <trkpt lat="43.3923720" lon="-7.3967850">
        <ele>343.4</ele>
        <time>2014-07-29T14:19:53Z</time>
      </trkpt>
      <trkpt lat="43.3925350" lon="-7.3969290">
        <ele>344.8</ele>
        <time>2014-07-29T14:20:08Z</time>
      </trkpt>
      <trkpt lat="43.3926840" lon="-7.3970990">
        <ele>346.2</ele>
        <time>2014-07-29T14:20:23Z</time>
      </trkpt>
      <trkpt lat="43.3928840" lon="-7.3973050">
        <ele>348.1</ele>
        <time>2014-07-29T14:20:42Z</time>
      </trkpt>
      <trkpt lat="43.3931340" lon="-7.3973660">
        <ele>349.3</ele>
        <time>2014-07-29T14:20:57Z</time>
      </trkpt>
      <trkpt lat="43.3933670" lon="-7.3972850">
        <ele>350.1</ele>
        <time>2014-07-29T14:21:10Z</time>
      </trkpt>
      <trkpt lat="43.3935910" lon="-7.3972370">
        <ele>350.8</ele>
        <time>2014-07-29T14:21:19Z</time>
      </trkpt>
      <trkpt lat="43.3936920" lon="-7.3972540">
        <ele>351.1</ele>
        <time>2014-07-29T14:21:23Z</time>
      </trkpt>
      <trkpt lat="43.3937370" lon="-7.3975020">
        <ele>352.3</ele>
        <time>2014-07-29T14:21:34Z</time>
      </trkpt>
      <trkpt lat="43.3935910" lon="-7.3977100">
        <ele>354.7</ele>
        <time>2014-07-29T14:21:46Z</time>
      </trkpt>
      <trkpt lat="43.3935200" lon="-7.3977790">
        <ele>355.7</ele>
        <time>2014-07-29T14:21:52Z</time>
      </trkpt>
      <trkpt lat="43.3934150" lon="-7.3979000">
        <ele>357.0</ele>
        <time>2014-07-29T14:22:05Z</time>
      </trkpt>
      <trkpt lat="43.3933210" lon="-7.3980420">
        <ele>357.9</ele>
        <time>2014-07-29T14:22:12Z</time>
      </trkpt>
      <trkpt lat="43.3932080" lon="-7.3982040">
        <ele>358.4</ele>
        <time>2014-07-29T14:22:20Z</time>
      </trkpt>
      <trkpt lat="43.3929030" lon="-7.3985300">
        <ele>359.6</ele>
        <time>2014-07-29T14:22:36Z</time>
      </trkpt>
      <trkpt lat="43.3927840" lon="-7.3986510">
        <ele>359.9</ele>
        <time>2014-07-29T14:22:42Z</time>
      </trkpt>
      <trkpt lat="43.3926380" lon="-7.3987540">
        <ele>360.2</ele>
        <time>2014-07-29T14:22:50Z</time>
      </trkpt>
      <trkpt lat="43.3923420" lon="-7.3989900">
        <ele>360.7</ele>
        <time>2014-07-29T14:23:02Z</time>
      </trkpt>
      <trkpt lat="43.3922810" lon="-7.3990200">
        <ele>360.7</ele>
        <time>2014-07-29T14:23:04Z</time>
      </trkpt>
      <trkpt lat="43.3920080" lon="-7.3990160">
        <ele>360.5</ele>
        <time>2014-07-29T14:23:12Z</time>
      </trkpt>
      <trkpt lat="43.3919640" lon="-7.3990200">
        <ele>360.4</ele>
        <time>2014-07-29T14:23:13Z</time>
      </trkpt>
      <trkpt lat="43.3919210" lon="-7.3990230">
        <ele>360.4</ele>
        <time>2014-07-29T14:23:14Z</time>
      </trkpt>
      <trkpt lat="43.3918800" lon="-7.3990190">
        <ele>360.3</ele>
        <time>2014-07-29T14:23:15Z</time>
      </trkpt>
      <trkpt lat="43.3917250" lon="-7.3989560">
        <ele>359.9</ele>
        <time>2014-07-29T14:23:18Z</time>
      </trkpt>
      <trkpt lat="43.3916650" lon="-7.3989300">
        <ele>359.6</ele>
        <time>2014-07-29T14:23:19Z</time>
      </trkpt>
      <trkpt lat="43.3911110" lon="-7.3986810">
        <ele>357.0</ele>
        <time>2014-07-29T14:23:27Z</time>
      </trkpt>
      <trkpt lat="43.3910270" lon="-7.3986710">
        <ele>356.4</ele>
        <time>2014-07-29T14:23:28Z</time>
      </trkpt>
      <trkpt lat="43.3909400" lon="-7.3986870">
        <ele>355.5</ele>
        <time>2014-07-29T14:23:29Z</time>
      </trkpt>
      <trkpt lat="43.3908530" lon="-7.3987190">
        <ele>354.5</ele>
        <time>2014-07-29T14:23:30Z</time>
      </trkpt>
      <trkpt lat="43.3907590" lon="-7.3987470">
        <ele>352.9</ele>
        <time>2014-07-29T14:23:31Z</time>
      </trkpt>
      <trkpt lat="43.3906580" lon="-7.3987680">
        <ele>351.4</ele>
        <time>2014-07-29T14:23:32Z</time>
      </trkpt>
      <trkpt lat="43.3905520" lon="-7.3987790">
        <ele>350.2</ele>
        <time>2014-07-29T14:23:33Z</time>
      </trkpt>
      <trkpt lat="43.3901180" lon="-7.3987840">
        <ele>346.1</ele>
        <time>2014-07-29T14:23:37Z</time>
      </trkpt>
      <trkpt lat="43.3900150" lon="-7.3987990">
        <ele>345.3</ele>
        <time>2014-07-29T14:23:38Z</time>
      </trkpt>
      <trkpt lat="43.3899190" lon="-7.3988250">
        <ele>344.6</ele>
        <time>2014-07-29T14:23:39Z</time>
      </trkpt>
      <trkpt lat="43.3898320" lon="-7.3988620">
        <ele>343.8</ele>
        <time>2014-07-29T14:23:40Z</time>
      </trkpt>
      <trkpt lat="43.3897550" lon="-7.3989180">
        <ele>343.2</ele>
        <time>2014-07-29T14:23:41Z</time>
      </trkpt>
      <trkpt lat="43.3896870" lon="-7.3989930">
        <ele>342.6</ele>
        <time>2014-07-29T14:23:42Z</time>
      </trkpt>
      <trkpt lat="43.3896240" lon="-7.3990870">
        <ele>341.8</ele>
        <time>2014-07-29T14:23:43Z</time>
      </trkpt>
      <trkpt lat="43.3895710" lon="-7.3992100">
        <ele>340.8</ele>
        <time>2014-07-29T14:23:44Z</time>
      </trkpt>
      <trkpt lat="43.3893910" lon="-7.3997230">
        <ele>337.7</ele>
        <time>2014-07-29T14:23:48Z</time>
      </trkpt>
      <trkpt lat="43.3893330" lon="-7.3998540">
        <ele>337.3</ele>
        <time>2014-07-29T14:23:49Z</time>
      </trkpt>
      <trkpt lat="43.3892740" lon="-7.3999850">
        <ele>337.2</ele>
        <time>2014-07-29T14:23:50Z</time>
      </trkpt>
      <trkpt lat="43.3891670" lon="-7.4002490">
        <ele>337.8</ele>
        <time>2014-07-29T14:23:52Z</time>
      </trkpt>
      <trkpt lat="43.3887670" lon="-7.4013240">
        <ele>340.1</ele>
        <time>2014-07-29T14:24:02Z</time>
      </trkpt>
      <trkpt lat="43.3885660" lon="-7.4020160">
        <ele>343.1</ele>
        <time>2014-07-29T14:24:13Z</time>
      </trkpt>
      <trkpt lat="43.3883910" lon="-7.4024630">
        <ele>343.1</ele>
        <time>2014-07-29T14:24:28Z</time>
      </trkpt>
      <trkpt lat="43.3882890" lon="-7.4027590">
        <ele>344.4</ele>
        <time>2014-07-29T14:24:39Z</time>
      </trkpt>
      <trkpt lat="43.3881940" lon="-7.4031230">
        <ele>346.6</ele>
        <time>2014-07-29T14:24:52Z</time>
      </trkpt>
      <trkpt lat="43.3881750" lon="-7.4032760">
        <ele>347.5</ele>
        <time>2014-07-29T14:24:57Z</time>
      </trkpt>
      <trkpt lat="43.3881590" lon="-7.4036340">
        <ele>349.8</ele>
        <time>2014-07-29T14:25:08Z</time>
      </trkpt>
      <trkpt lat="43.3882790" lon="-7.4039470">
        <ele>351.2</ele>
        <time>2014-07-29T14:25:20Z</time>
      </trkpt>
      <trkpt lat="43.3884810" lon="-7.4040820">
        <ele>352.3</ele>
        <time>2014-07-29T14:25:35Z</time>
      </trkpt>
      <trkpt lat="43.3886860" lon="-7.4043410">
        <ele>354.4</ele>
        <time>2014-07-29T14:25:54Z</time>
      </trkpt>
      <trkpt lat="43.3888010" lon="-7.4046110">
        <ele>356.7</ele>
        <time>2014-07-29T14:26:09Z</time>
      </trkpt>
      <trkpt lat="43.3888690" lon="-7.4049640">
        <ele>359.1</ele>
        <time>2014-07-29T14:26:27Z</time>
      </trkpt>
      <trkpt lat="43.3888540" lon="-7.4050900">
        <ele>359.9</ele>
        <time>2014-07-29T14:26:34Z</time>
      </trkpt>
      <trkpt lat="43.3887780" lon="-7.4052150">
        <ele>360.9</ele>
        <time>2014-07-29T14:26:42Z</time>
      </trkpt>
      <trkpt lat="43.3886540" lon="-7.4054610">
        <ele>363.0</ele>
        <time>2014-07-29T14:26:56Z</time>
      </trkpt>
      <trkpt lat="43.3885830" lon="-7.4057240">
        <ele>365.2</ele>
        <time>2014-07-29T14:27:09Z</time>
      </trkpt>
      <trkpt lat="43.3885590" lon="-7.4057890">
        <ele>365.8</ele>
        <time>2014-07-29T14:27:12Z</time>
      </trkpt>
      <trkpt lat="43.3885280" lon="-7.4059350">
        <ele>367.1</ele>
        <time>2014-07-29T14:27:19Z</time>
      </trkpt>
      <trkpt lat="43.3885080" lon="-7.4061600">
        <ele>368.7</ele>
        <time>2014-07-29T14:27:31Z</time>
      </trkpt>
      <trkpt lat="43.3885230" lon="-7.4064740">
        <ele>370.9</ele>
        <time>2014-07-29T14:27:47Z</time>
      </trkpt>
      <trkpt lat="43.3885150" lon="-7.4067370">
        <ele>372.4</ele>
        <time>2014-07-29T14:28:00Z</time>
      </trkpt>
      <trkpt lat="43.3883070" lon="-7.4068410">
        <ele>373.7</ele>
        <time>2014-07-29T14:28:12Z</time>
      </trkpt>
      <trkpt lat="43.3880170" lon="-7.4068170">
        <ele>375.1</ele>
        <time>2014-07-29T14:28:27Z</time>
      </trkpt>
      <trkpt lat="43.3879230" lon="-7.4068970">
        <ele>375.5</ele>
        <time>2014-07-29T14:28:33Z</time>
      </trkpt>
      <trkpt lat="43.3877750" lon="-7.4071290">
        <ele>376.9</ele>
        <time>2014-07-29T14:28:47Z</time>
      </trkpt>
      <trkpt lat="43.3875600" lon="-7.4074680">
        <ele>378.7</ele>
        <time>2014-07-29T14:29:06Z</time>
      </trkpt>
      <trkpt lat="43.3873280" lon="-7.4078400">
        <ele>381.0</ele>
        <time>2014-07-29T14:29:26Z</time>
      </trkpt>
      <trkpt lat="43.3871470" lon="-7.4081300">
        <ele>383.0</ele>
        <time>2014-07-29T14:29:42Z</time>
      </trkpt>
      <trkpt lat="43.3870120" lon="-7.4083710">
        <ele>384.8</ele>
        <time>2014-07-29T14:29:57Z</time>
      </trkpt>
      <trkpt lat="43.3869010" lon="-7.4086100">
        <ele>386.7</ele>
        <time>2014-07-29T14:30:13Z</time>
      </trkpt>
      <trkpt lat="43.3869010" lon="-7.4086100">
        <ele>386.7</ele>
        <time>2014-07-29T14:30:21Z</time>
      </trkpt>
      <trkpt lat="43.3869010" lon="-7.4086100">
        <ele>386.7</ele>
        <time>2014-07-29T14:30:22Z</time>
      </trkpt>
      <trkpt lat="43.3869010" lon="-7.4086100">
        <ele>386.7</ele>
        <time>2014-07-29T14:30:46Z</time>
      </trkpt>
      <trkpt lat="43.3869010" lon="-7.4086100">
        <ele>386.7</ele>
        <time>2014-07-29T14:30:47Z</time>
      </trkpt>
      <trkpt lat="43.3869010" lon="-7.4086110">
        <ele>386.7</ele>
        <time>2014-07-29T14:31:04Z</time>
      </trkpt>
      <trkpt lat="43.3869010" lon="-7.4086110">
        <ele>386.7</ele>
        <time>2014-07-29T14:31:05Z</time>
      </trkpt>
      <trkpt lat="43.3869010" lon="-7.4086110">
        <ele>386.7</ele>
        <time>2014-07-29T14:31:07Z</time>
      </trkpt>
      <trkpt lat="43.3869010" lon="-7.4086110">
        <ele>386.7</ele>
        <time>2014-07-29T14:31:08Z</time>
      </trkpt>
      <trkpt lat="43.3869010" lon="-7.4086110">
        <ele>386.7</ele>
        <time>2014-07-29T14:31:13Z</time>
      </trkpt>
      <trkpt lat="43.3869010" lon="-7.4086110">
        <ele>386.7</ele>
        <time>2014-07-29T14:31:14Z</time>
      </trkpt>
      <trkpt lat="43.3869010" lon="-7.4086110">
        <ele>386.7</ele>
        <time>2014-07-29T14:31:17Z</time>
      </trkpt>
      <trkpt lat="43.3869010" lon="-7.4086110">
        <ele>386.7</ele>
        <time>2014-07-29T14:31:18Z</time>
      </trkpt>
      <trkpt lat="43.3868990" lon="-7.4086130">
        <ele>386.7</ele>
        <time>2014-07-29T14:31:45Z</time>
      </trkpt>
      <trkpt lat="43.3868940" lon="-7.4086290">
        <ele>386.8</ele>
        <time>2014-07-29T14:31:55Z</time>
      </trkpt>
      <trkpt lat="43.3868380" lon="-7.4086880">
        <ele>387.4</ele>
        <time>2014-07-29T14:31:59Z</time>
      </trkpt>
      <trkpt lat="43.3868260" lon="-7.4087040">
        <ele>387.5</ele>
        <time>2014-07-29T14:32:00Z</time>
      </trkpt>
      <trkpt lat="43.3867780" lon="-7.4088200">
        <ele>388.2</ele>
        <time>2014-07-29T14:32:06Z</time>
      </trkpt>
      <trkpt lat="43.3867330" lon="-7.4088910">
        <ele>388.7</ele>
        <time>2014-07-29T14:32:10Z</time>
      </trkpt>
      <trkpt lat="43.3865400" lon="-7.4091950">
        <ele>390.6</ele>
        <time>2014-07-29T14:32:24Z</time>
      </trkpt>
      <trkpt lat="43.3862910" lon="-7.4095600">
        <ele>391.2</ele>
        <time>2014-07-29T14:32:38Z</time>
      </trkpt>
      <trkpt lat="43.3860130" lon="-7.4099910">
        <ele>389.8</ele>
        <time>2014-07-29T14:32:53Z</time>
      </trkpt>
      <trkpt lat="43.3858400" lon="-7.4105670">
        <ele>391.0</ele>
        <time>2014-07-29T14:33:08Z</time>
      </trkpt>
      <trkpt lat="43.3855250" lon="-7.4111400">
        <ele>387.4</ele>
        <time>2014-07-29T14:33:19Z</time>
      </trkpt>
      <trkpt lat="43.3850190" lon="-7.4120050">
        <ele>382.4</ele>
        <time>2014-07-29T14:33:29Z</time>
      </trkpt>
      <trkpt lat="43.3846470" lon="-7.4126030">
        <ele>386.0</ele>
        <time>2014-07-29T14:33:39Z</time>
      </trkpt>
      <trkpt lat="43.3844450" lon="-7.4129710">
        <ele>390.6</ele>
        <time>2014-07-29T14:33:53Z</time>
      </trkpt>
      <trkpt lat="43.3842980" lon="-7.4133320">
        <ele>394.6</ele>
        <time>2014-07-29T14:34:09Z</time>
      </trkpt>
      <trkpt lat="43.3841300" lon="-7.4137320">
        <ele>398.4</ele>
        <time>2014-07-29T14:34:28Z</time>
      </trkpt>
      <trkpt lat="43.3839520" lon="-7.4141440">
        <ele>401.9</ele>
        <time>2014-07-29T14:34:47Z</time>
      </trkpt>
      <trkpt lat="43.3838050" lon="-7.4144160">
        <ele>405.3</ele>
        <time>2014-07-29T14:35:02Z</time>
      </trkpt>
      <trkpt lat="43.3836870" lon="-7.4146420">
        <ele>408.6</ele>
        <time>2014-07-29T14:35:16Z</time>
      </trkpt>
      <trkpt lat="43.3836280" lon="-7.4147350">
        <ele>410.6</ele>
        <time>2014-07-29T14:35:22Z</time>
      </trkpt>
      <trkpt lat="43.3835570" lon="-7.4147820">
        <ele>412.3</ele>
        <time>2014-07-29T14:35:28Z</time>
      </trkpt>
      <trkpt lat="43.3833760" lon="-7.4148870">
        <ele>414.0</ele>
        <time>2014-07-29T14:35:45Z</time>
      </trkpt>
      <trkpt lat="43.3832170" lon="-7.4150330">
        <ele>413.9</ele>
        <time>2014-07-29T14:36:03Z</time>
      </trkpt>
      <trkpt lat="43.3831520" lon="-7.4150890">
        <ele>414.5</ele>
        <time>2014-07-29T14:36:10Z</time>
      </trkpt>
      <trkpt lat="43.3830730" lon="-7.4152360">
        <ele>415.5</ele>
        <time>2014-07-29T14:36:23Z</time>
      </trkpt>
      <trkpt lat="43.3830360" lon="-7.4153310">
        <ele>416.4</ele>
        <time>2014-07-29T14:36:31Z</time>
      </trkpt>
      <trkpt lat="43.3829630" lon="-7.4155170">
        <ele>417.9</ele>
        <time>2014-07-29T14:36:44Z</time>
      </trkpt>
      <trkpt lat="43.3829370" lon="-7.4156440">
        <ele>418.7</ele>
        <time>2014-07-29T14:36:53Z</time>
      </trkpt>
      <trkpt lat="43.3829070" lon="-7.4157990">
        <ele>419.9</ele>
        <time>2014-07-29T14:37:03Z</time>
      </trkpt>
      <trkpt lat="43.3828740" lon="-7.4159020">
        <ele>420.7</ele>
        <time>2014-07-29T14:37:10Z</time>
      </trkpt>
      <trkpt lat="43.3827860" lon="-7.4160940">
        <ele>422.3</ele>
        <time>2014-07-29T14:37:24Z</time>
      </trkpt>
      <trkpt lat="43.3827180" lon="-7.4161920">
        <ele>423.3</ele>
        <time>2014-07-29T14:37:30Z</time>
      </trkpt>
      <trkpt lat="43.3826950" lon="-7.4162160">
        <ele>423.6</ele>
        <time>2014-07-29T14:37:32Z</time>
      </trkpt>
      <trkpt lat="43.3826170" lon="-7.4163570">
        <ele>425.0</ele>
        <time>2014-07-29T14:37:42Z</time>
      </trkpt>
      <trkpt lat="43.3825930" lon="-7.4163860">
        <ele>425.4</ele>
        <time>2014-07-29T14:37:44Z</time>
      </trkpt>
      <trkpt lat="43.3825410" lon="-7.4164710">
        <ele>426.4</ele>
        <time>2014-07-29T14:37:48Z</time>
      </trkpt>
      <trkpt lat="43.3824870" lon="-7.4165390">
        <ele>427.3</ele>
        <time>2014-07-29T14:37:52Z</time>
      </trkpt>
      <trkpt lat="43.3823590" lon="-7.4167230">
        <ele>428.8</ele>
        <time>2014-07-29T14:38:03Z</time>
      </trkpt>
      <trkpt lat="43.3823000" lon="-7.4170440">
        <ele>430.8</ele>
        <time>2014-07-29T14:38:22Z</time>
      </trkpt>
      <trkpt lat="43.3822820" lon="-7.4171960">
        <ele>431.7</ele>
        <time>2014-07-29T14:38:31Z</time>
      </trkpt>
      <trkpt lat="43.3822920" lon="-7.4173350">
        <ele>432.7</ele>
        <time>2014-07-29T14:38:38Z</time>
      </trkpt>
      <trkpt lat="43.3823040" lon="-7.4174200">
        <ele>433.2</ele>
        <time>2014-07-29T14:38:42Z</time>
      </trkpt>
      <trkpt lat="43.3823020" lon="-7.4175120">
        <ele>433.6</ele>
        <time>2014-07-29T14:38:47Z</time>
      </trkpt>
      <trkpt lat="43.3823170" lon="-7.4178450">
        <ele>434.9</ele>
        <time>2014-07-29T14:39:06Z</time>
      </trkpt>
      <trkpt lat="43.3823280" lon="-7.4179520">
        <ele>435.4</ele>
        <time>2014-07-29T14:39:21Z</time>
      </trkpt>
      <trkpt lat="43.3823280" lon="-7.4179520">
        <ele>435.4</ele>
        <time>2014-07-29T14:39:35Z</time>
      </trkpt>
      <trkpt lat="43.3823210" lon="-7.4179780">
        <ele>435.6</ele>
        <time>2014-07-29T14:39:38Z</time>
      </trkpt>
      <trkpt lat="43.3823330" lon="-7.4180720">
        <ele>436.1</ele>
        <time>2014-07-29T14:39:44Z</time>
      </trkpt>
      <trkpt lat="43.3823280" lon="-7.4181590">
        <ele>436.6</ele>
        <time>2014-07-29T14:39:49Z</time>
      </trkpt>
      <trkpt lat="43.3823570" lon="-7.4182580">
        <ele>437.3</ele>
        <time>2014-07-29T14:39:55Z</time>
      </trkpt>
      <trkpt lat="43.3824130" lon="-7.4182980">
        <ele>437.9</ele>
        <time>2014-07-29T14:40:00Z</time>
      </trkpt>
      <trkpt lat="43.3824370" lon="-7.4182980">
        <ele>438.2</ele>
        <time>2014-07-29T14:40:02Z</time>
      </trkpt>
      <trkpt lat="43.3824640" lon="-7.4182810">
        <ele>438.5</ele>
        <time>2014-07-29T14:40:04Z</time>
      </trkpt>
      <trkpt lat="43.3825000" lon="-7.4182230">
        <ele>439.3</ele>
        <time>2014-07-29T14:40:08Z</time>
      </trkpt>
      <trkpt lat="43.3825130" lon="-7.4180240">
        <ele>441.1</ele>
        <time>2014-07-29T14:40:19Z</time>
      </trkpt>
      <trkpt lat="43.3825610" lon="-7.4177080">
        <ele>443.3</ele>
        <time>2014-07-29T14:40:38Z</time>
      </trkpt>
      <trkpt lat="43.3826110" lon="-7.4175690">
        <ele>444.1</ele>
        <time>2014-07-29T14:40:47Z</time>
      </trkpt>
      <trkpt lat="43.3826990" lon="-7.4173820">
        <ele>445.3</ele>
        <time>2014-07-29T14:40:59Z</time>
      </trkpt>
      <trkpt lat="43.3828020" lon="-7.4171200">
        <ele>446.9</ele>
        <time>2014-07-29T14:41:17Z</time>
      </trkpt>
      <trkpt lat="43.3828190" lon="-7.4171010">
        <ele>447.0</ele>
        <time>2014-07-29T14:41:19Z</time>
      </trkpt>
      <trkpt lat="43.3829370" lon="-7.4169430">
        <ele>448.0</ele>
        <time>2014-07-29T14:41:33Z</time>
      </trkpt>
      <trkpt lat="43.3831090" lon="-7.4166950">
        <ele>450.2</ele>
        <time>2014-07-29T14:41:52Z</time>
      </trkpt>
      <trkpt lat="43.3832320" lon="-7.4166160">
        <ele>451.2</ele>
        <time>2014-07-29T14:42:03Z</time>
      </trkpt>
      <trkpt lat="43.3832430" lon="-7.4168240">
        <ele>451.8</ele>
        <time>2014-07-29T14:42:16Z</time>
      </trkpt>
      <trkpt lat="43.3830850" lon="-7.4170970">
        <ele>452.9</ele>
        <time>2014-07-29T14:42:33Z</time>
      </trkpt>
      <trkpt lat="43.3830500" lon="-7.4172140">
        <ele>453.3</ele>
        <time>2014-07-29T14:42:38Z</time>
      </trkpt>
      <trkpt lat="43.3830220" lon="-7.4176220">
        <ele>454.8</ele>
        <time>2014-07-29T14:42:56Z</time>
      </trkpt>
      <trkpt lat="43.3830140" lon="-7.4178770">
        <ele>455.6</ele>
        <time>2014-07-29T14:43:06Z</time>
      </trkpt>
      <trkpt lat="43.3830130" lon="-7.4180260">
        <ele>456.1</ele>
        <time>2014-07-29T14:43:12Z</time>
      </trkpt>
      <trkpt lat="43.3830590" lon="-7.4184310">
        <ele>457.2</ele>
        <time>2014-07-29T14:43:27Z</time>
      </trkpt>
      <trkpt lat="43.3831420" lon="-7.4187430">
        <ele>458.2</ele>
        <time>2014-07-29T14:43:39Z</time>
      </trkpt>
      <trkpt lat="43.3832050" lon="-7.4191130">
        <ele>459.6</ele>
        <time>2014-07-29T14:43:55Z</time>
      </trkpt>
      <trkpt lat="43.3832650" lon="-7.4195150">
        <ele>461.0</ele>
        <time>2014-07-29T14:44:12Z</time>
      </trkpt>
      <trkpt lat="43.3832700" lon="-7.4196190">
        <ele>461.3</ele>
        <time>2014-07-29T14:44:16Z</time>
      </trkpt>
      <trkpt lat="43.3832990" lon="-7.4197270">
        <ele>461.6</ele>
        <time>2014-07-29T14:44:21Z</time>
      </trkpt>
      <trkpt lat="43.3834710" lon="-7.4198190">
        <ele>462.3</ele>
        <time>2014-07-29T14:44:35Z</time>
      </trkpt>
      <trkpt lat="43.3835060" lon="-7.4197730">
        <ele>462.5</ele>
        <time>2014-07-29T14:44:38Z</time>
      </trkpt>
      <trkpt lat="43.3835180" lon="-7.4197390">
        <ele>462.7</ele>
        <time>2014-07-29T14:44:54Z</time>
      </trkpt>
      <trkpt lat="43.3835360" lon="-7.4196430">
        <ele>463.0</ele>
        <time>2014-07-29T14:45:09Z</time>
      </trkpt>
      <trkpt lat="43.3835960" lon="-7.4195040">
        <ele>463.9</ele>
        <time>2014-07-29T14:45:16Z</time>
      </trkpt>
      <trkpt lat="43.3836730" lon="-7.4192200">
        <ele>465.6</ele>
        <time>2014-07-29T14:45:30Z</time>
      </trkpt>
      <trkpt lat="43.3837260" lon="-7.4189260">
        <ele>466.9</ele>
        <time>2014-07-29T14:45:45Z</time>
      </trkpt>
      <trkpt lat="43.3836870" lon="-7.4186640">
        <ele>468.0</ele>
        <time>2014-07-29T14:45:59Z</time>
      </trkpt>
      <trkpt lat="43.3836430" lon="-7.4184090">
        <ele>469.3</ele>
        <time>2014-07-29T14:46:13Z</time>
      </trkpt>
      <trkpt lat="43.3836620" lon="-7.4181540">
        <ele>470.5</ele>
        <time>2014-07-29T14:46:27Z</time>
      </trkpt>
      <trkpt lat="43.3837390" lon="-7.4179360">
        <ele>471.7</ele>
        <time>2014-07-29T14:46:40Z</time>
      </trkpt>
      <trkpt lat="43.3837490" lon="-7.4179050">
        <ele>471.9</ele>
        <time>2014-07-29T14:46:42Z</time>
      </trkpt>
      <trkpt lat="43.3838820" lon="-7.4177460">
        <ele>472.8</ele>
        <time>2014-07-29T14:46:54Z</time>
      </trkpt>
      <trkpt lat="43.3840780" lon="-7.4176420">
        <ele>474.9</ele>
        <time>2014-07-29T14:47:09Z</time>
      </trkpt>
      <trkpt lat="43.3842070" lon="-7.4176050">
        <ele>476.6</ele>
        <time>2014-07-29T14:47:19Z</time>
      </trkpt>
      <trkpt lat="43.3843940" lon="-7.4175730">
        <ele>479.1</ele>
        <time>2014-07-29T14:47:33Z</time>
      </trkpt>
      <trkpt lat="43.3846000" lon="-7.4175180">
        <ele>482.0</ele>
        <time>2014-07-29T14:47:49Z</time>
      </trkpt>
      <trkpt lat="43.3847630" lon="-7.4174850">
        <ele>484.4</ele>
        <time>2014-07-29T14:48:02Z</time>
      </trkpt>
      <trkpt lat="43.3850030" lon="-7.4174230">
        <ele>487.2</ele>
        <time>2014-07-29T14:48:19Z</time>
      </trkpt>
      <trkpt lat="43.3850550" lon="-7.4174020">
        <ele>487.7</ele>
        <time>2014-07-29T14:48:23Z</time>
      </trkpt>
      <trkpt lat="43.3851050" lon="-7.4173830">
        <ele>488.2</ele>
        <time>2014-07-29T14:48:27Z</time>
      </trkpt>
      <trkpt lat="43.3853130" lon="-7.4172570">
        <ele>490.3</ele>
        <time>2014-07-29T14:48:44Z</time>
      </trkpt>
      <trkpt lat="43.3855000" lon="-7.4171490">
        <ele>492.7</ele>
        <time>2014-07-29T14:48:59Z</time>
      </trkpt>
      <trkpt lat="43.3855710" lon="-7.4171060">
        <ele>493.5</ele>
        <time>2014-07-29T14:49:05Z</time>
      </trkpt>
      <trkpt lat="43.3857690" lon="-7.4170720">
        <ele>495.6</ele>
        <time>2014-07-29T14:49:18Z</time>
      </trkpt>
      <trkpt lat="43.3859750" lon="-7.4171150">
        <ele>497.7</ele>
        <time>2014-07-29T14:49:33Z</time>
      </trkpt>
      <trkpt lat="43.3861650" lon="-7.4172590">
        <ele>499.3</ele>
        <time>2014-07-29T14:49:47Z</time>
      </trkpt>
      <trkpt lat="43.3863250" lon="-7.4174780">
        <ele>500.5</ele>
        <time>2014-07-29T14:50:01Z</time>
      </trkpt>
      <trkpt lat="43.3864290" lon="-7.4177470">
        <ele>501.6</ele>
        <time>2014-07-29T14:50:13Z</time>
      </trkpt>
      <trkpt lat="43.3864340" lon="-7.4177510">
        <ele>501.6</ele>
        <time>2014-07-29T14:50:26Z</time>
      </trkpt>
      <trkpt lat="43.3864340" lon="-7.4177510">
        <ele>501.6</ele>
        <time>2014-07-29T14:50:48Z</time>
      </trkpt>
      <trkpt lat="43.3864340" lon="-7.4177510">
        <ele>501.6</ele>
        <time>2014-07-29T14:50:50Z</time>
      </trkpt>
      <trkpt lat="43.3864420" lon="-7.4177590">
        <ele>501.7</ele>
        <time>2014-07-29T14:50:52Z</time>
      </trkpt>
      <trkpt lat="43.3866110" lon="-7.4180130">
        <ele>503.1</ele>
        <time>2014-07-29T14:51:06Z</time>
      </trkpt>
      <trkpt lat="43.3868290" lon="-7.4181620">
        <ele>504.4</ele>
        <time>2014-07-29T14:51:18Z</time>
      </trkpt>
      <trkpt lat="43.3871040" lon="-7.4181650">
        <ele>506.0</ele>
        <time>2014-07-29T14:51:32Z</time>
      </trkpt>
      <trkpt lat="43.3874030" lon="-7.4182170">
        <ele>508.4</ele>
        <time>2014-07-29T14:51:47Z</time>
      </trkpt>
      <trkpt lat="43.3875680" lon="-7.4179980">
        <ele>510.7</ele>
        <time>2014-07-29T14:52:00Z</time>
      </trkpt>
      <trkpt lat="43.3877500" lon="-7.4177080">
        <ele>513.1</ele>
        <time>2014-07-29T14:52:17Z</time>
      </trkpt>
      <trkpt lat="43.3879580" lon="-7.4173990">
        <ele>515.8</ele>
        <time>2014-07-29T14:52:34Z</time>
      </trkpt>
      <trkpt lat="43.3881150" lon="-7.4170790">
        <ele>518.4</ele>
        <time>2014-07-29T14:52:48Z</time>
      </trkpt>
      <trkpt lat="43.3882700" lon="-7.4168820">
        <ele>519.6</ele>
        <time>2014-07-29T14:52:58Z</time>
      </trkpt>
      <trkpt lat="43.3882930" lon="-7.4168650">
        <ele>519.8</ele>
        <time>2014-07-29T14:52:59Z</time>
      </trkpt>
      <trkpt lat="43.3887210" lon="-7.4165290">
        <ele>521.8</ele>
        <time>2014-07-29T14:53:16Z</time>
      </trkpt>
      <trkpt lat="43.3887140" lon="-7.4161130">
        <ele>518.8</ele>
        <time>2014-07-29T14:53:25Z</time>
      </trkpt>
      <trkpt lat="43.3886810" lon="-7.4159030">
        <ele>517.5</ele>
        <time>2014-07-29T14:53:35Z</time>
      </trkpt>
      <trkpt lat="43.3886810" lon="-7.4159030">
        <ele>517.5</ele>
        <time>2014-07-29T14:53:58Z</time>
      </trkpt>
      <trkpt lat="43.3887120" lon="-7.4156310">
        <ele>516.1</ele>
        <time>2014-07-29T14:54:10Z</time>
      </trkpt>
      <trkpt lat="43.3889390" lon="-7.4155090">
        <ele>517.0</ele>
        <time>2014-07-29T14:54:22Z</time>
      </trkpt>
      <trkpt lat="43.3890510" lon="-7.4155450">
        <ele>517.9</ele>
        <time>2014-07-29T14:54:28Z</time>
      </trkpt>
      <trkpt lat="43.3890690" lon="-7.4155500">
        <ele>518.0</ele>
        <time>2014-07-29T14:54:29Z</time>
      </trkpt>
      <trkpt lat="43.3890870" lon="-7.4155590">
        <ele>518.1</ele>
        <time>2014-07-29T14:54:30Z</time>
      </trkpt>
      <trkpt lat="43.3893280" lon="-7.4156660">
        <ele>520.3</ele>
        <time>2014-07-29T14:54:40Z</time>
      </trkpt>
      <trkpt lat="43.3893530" lon="-7.4156930">
        <ele>520.7</ele>
        <time>2014-07-29T14:54:41Z</time>
      </trkpt>
      <trkpt lat="43.3896960" lon="-7.4159300">
        <ele>526.5</ele>
        <time>2014-07-29T14:54:55Z</time>
      </trkpt>
      <trkpt lat="43.3898300" lon="-7.4160810">
        <ele>527.7</ele>
        <time>2014-07-29T14:55:06Z</time>
      </trkpt>
      <trkpt lat="43.3898200" lon="-7.4165070">
        <ele>528.1</ele>
        <time>2014-07-29T14:55:19Z</time>
      </trkpt>
      <trkpt lat="43.3897270" lon="-7.4170090">
        <ele>528.8</ele>
        <time>2014-07-29T14:55:31Z</time>
      </trkpt>
      <trkpt lat="43.3895820" lon="-7.4178120">
        <ele>530.1</ele>
        <time>2014-07-29T14:55:48Z</time>
      </trkpt>
      <trkpt lat="43.3895100" lon="-7.4185290">
        <ele>531.3</ele>
        <time>2014-07-29T14:56:02Z</time>
      </trkpt>
      <trkpt lat="43.3895190" lon="-7.4187680">
        <ele>531.9</ele>
        <time>2014-07-29T14:56:06Z</time>
      </trkpt>
      <trkpt lat="43.3894600" lon="-7.4193100">
        <ele>534.5</ele>
        <time>2014-07-29T14:56:19Z</time>
      </trkpt>
      <trkpt lat="43.3893720" lon="-7.4195260">
        <ele>537.1</ele>
        <time>2014-07-29T14:56:29Z</time>
      </trkpt>
      <trkpt lat="43.3893630" lon="-7.4195460">
        <ele>537.5</ele>
        <time>2014-07-29T14:56:30Z</time>
      </trkpt>
      <trkpt lat="43.3893550" lon="-7.4195670">
        <ele>537.8</ele>
        <time>2014-07-29T14:56:31Z</time>
      </trkpt>
      <trkpt lat="43.3891920" lon="-7.4198080">
        <ele>540.7</ele>
        <time>2014-07-29T14:56:45Z</time>
      </trkpt>
      <trkpt lat="43.3888460" lon="-7.4200310">
        <ele>541.3</ele>
        <time>2014-07-29T14:57:00Z</time>
      </trkpt>
      <trkpt lat="43.3887430" lon="-7.4201220">
        <ele>542.1</ele>
        <time>2014-07-29T14:57:10Z</time>
      </trkpt>
      <trkpt lat="43.3884700" lon="-7.4202930">
        <ele>541.5</ele>
        <time>2014-07-29T14:57:21Z</time>
      </trkpt>
      <trkpt lat="43.3881080" lon="-7.4203990">
        <ele>540.7</ele>
        <time>2014-07-29T14:57:33Z</time>
      </trkpt>
      <trkpt lat="43.3881080" lon="-7.4203990">
        <ele>540.7</ele>
        <time>2014-07-29T14:57:42Z</time>
      </trkpt>
      <trkpt lat="43.3881080" lon="-7.4203990">
        <ele>540.7</ele>
        <time>2014-07-29T14:57:43Z</time>
      </trkpt>
      <trkpt lat="43.3879620" lon="-7.4204560">
        <ele>540.3</ele>
        <time>2014-07-29T14:57:57Z</time>
      </trkpt>
      <trkpt lat="43.3876240" lon="-7.4206230">
        <ele>539.8</ele>
        <time>2014-07-29T14:58:05Z</time>
      </trkpt>
      <trkpt lat="43.3871540" lon="-7.4212270">
        <ele>539.0</ele>
        <time>2014-07-29T14:58:19Z</time>
      </trkpt>
      <trkpt lat="43.3867520" lon="-7.4220540">
        <ele>538.1</ele>
        <time>2014-07-29T14:58:36Z</time>
      </trkpt>
      <trkpt lat="43.3863460" lon="-7.4227780">
        <ele>538.4</ele>
        <time>2014-07-29T14:58:50Z</time>
      </trkpt>
      <trkpt lat="43.3857370" lon="-7.4235170">
        <ele>538.5</ele>
        <time>2014-07-29T14:59:07Z</time>
      </trkpt>
      <trkpt lat="43.3849090" lon="-7.4241140">
        <ele>539.2</ele>
        <time>2014-07-29T14:59:26Z</time>
      </trkpt>
      <trkpt lat="43.3841970" lon="-7.4245720">
        <ele>538.8</ele>
        <time>2014-07-29T14:59:42Z</time>
      </trkpt>
      <trkpt lat="43.3831460" lon="-7.4252750">
        <ele>540.0</ele>
        <time>2014-07-29T15:00:06Z</time>
      </trkpt>
      <trkpt lat="43.3827450" lon="-7.4256520">
        <ele>539.9</ele>
        <time>2014-07-29T15:00:20Z</time>
      </trkpt>
      <trkpt lat="43.3823500" lon="-7.4260730">
        <ele>539.6</ele>
        <time>2014-07-29T15:00:36Z</time>
      </trkpt>
      <trkpt lat="43.3820590" lon="-7.4265320">
        <ele>537.4</ele>
        <time>2014-07-29T15:00:49Z</time>
      </trkpt>
      <trkpt lat="43.3816460" lon="-7.4271390">
        <ele>537.1</ele>
        <time>2014-07-29T15:01:06Z</time>
      </trkpt>
      <trkpt lat="43.3813750" lon="-7.4276850">
        <ele>537.6</ele>
        <time>2014-07-29T15:01:20Z</time>
      </trkpt>
      <trkpt lat="43.3811210" lon="-7.4282490">
        <ele>538.3</ele>
        <time>2014-07-29T15:01:35Z</time>
      </trkpt>
      <trkpt lat="43.3808730" lon="-7.4288120">
        <ele>540.2</ele>
        <time>2014-07-29T15:01:50Z</time>
      </trkpt>
      <trkpt lat="43.3806070" lon="-7.4294460">
        <ele>543.3</ele>
        <time>2014-07-29T15:02:06Z</time>
      </trkpt>
      <trkpt lat="43.3804220" lon="-7.4299690">
        <ele>545.6</ele>
        <time>2014-07-29T15:02:20Z</time>
      </trkpt>
      <trkpt lat="43.3804440" lon="-7.4300000">
        <ele>545.7</ele>
        <time>2014-07-29T15:02:21Z</time>
      </trkpt>
      <trkpt lat="43.3804660" lon="-7.4300300">
        <ele>545.8</ele>
        <time>2014-07-29T15:02:22Z</time>
      </trkpt>
      <trkpt lat="43.3804870" lon="-7.4300570">
        <ele>545.9</ele>
        <time>2014-07-29T15:02:23Z</time>
      </trkpt>
      <trkpt lat="43.3805050" lon="-7.4300820">
        <ele>546.1</ele>
        <time>2014-07-29T15:02:24Z</time>
      </trkpt>
      <trkpt lat="43.3805370" lon="-7.4301130">
        <ele>546.2</ele>
        <time>2014-07-29T15:02:26Z</time>
      </trkpt>
      <trkpt lat="43.3806970" lon="-7.4302710">
        <ele>547.4</ele>
        <time>2014-07-29T15:02:38Z</time>
      </trkpt>
      <trkpt lat="43.3807830" lon="-7.4303810">
        <ele>548.0</ele>
        <time>2014-07-29T15:02:45Z</time>
      </trkpt>
      <trkpt lat="43.3809750" lon="-7.4305870">
        <ele>549.7</ele>
        <time>2014-07-29T15:02:59Z</time>
      </trkpt>
      <trkpt lat="43.3811670" lon="-7.4307870">
        <ele>551.3</ele>
        <time>2014-07-29T15:03:13Z</time>
      </trkpt>
      <trkpt lat="43.3813390" lon="-7.4310120">
        <ele>553.1</ele>
        <time>2014-07-29T15:03:27Z</time>
      </trkpt>
      <trkpt lat="43.3814780" lon="-7.4311630">
        <ele>554.3</ele>
        <time>2014-07-29T15:03:38Z</time>
      </trkpt>
      <trkpt lat="43.3816710" lon="-7.4313890">
        <ele>556.2</ele>
        <time>2014-07-29T15:03:55Z</time>
      </trkpt>
      <trkpt lat="43.3816900" lon="-7.4314330">
        <ele>556.5</ele>
        <time>2014-07-29T15:03:58Z</time>
      </trkpt>
      <trkpt lat="43.3817020" lon="-7.4314480">
        <ele>556.6</ele>
        <time>2014-07-29T15:03:59Z</time>
      </trkpt>
      <trkpt lat="43.3818690" lon="-7.4316320">
        <ele>558.2</ele>
        <time>2014-07-29T15:04:13Z</time>
      </trkpt>
      <trkpt lat="43.3818830" lon="-7.4316430">
        <ele>558.3</ele>
        <time>2014-07-29T15:04:14Z</time>
      </trkpt>
      <trkpt lat="43.3818960" lon="-7.4316560">
        <ele>558.4</ele>
        <time>2014-07-29T15:04:15Z</time>
      </trkpt>
      <trkpt lat="43.3819040" lon="-7.4316740">
        <ele>558.5</ele>
        <time>2014-07-29T15:04:16Z</time>
      </trkpt>
      <trkpt lat="43.3819110" lon="-7.4316940">
        <ele>558.6</ele>
        <time>2014-07-29T15:04:17Z</time>
      </trkpt>
      <trkpt lat="43.3819190" lon="-7.4317120">
        <ele>558.7</ele>
        <time>2014-07-29T15:04:18Z</time>
      </trkpt>
      <trkpt lat="43.3819310" lon="-7.4317270">
        <ele>558.8</ele>
        <time>2014-07-29T15:04:19Z</time>
      </trkpt>
      <trkpt lat="43.3820230" lon="-7.4319950">
        <ele>559.8</ele>
        <time>2014-07-29T15:04:33Z</time>
      </trkpt>
      <trkpt lat="43.3820130" lon="-7.4320140">
        <ele>559.8</ele>
        <time>2014-07-29T15:04:34Z</time>
      </trkpt>
      <trkpt lat="43.3820010" lon="-7.4320330">
        <ele>559.8</ele>
        <time>2014-07-29T15:04:35Z</time>
      </trkpt>
      <trkpt lat="43.3818450" lon="-7.4323430">
        <ele>559.9</ele>
        <time>2014-07-29T15:04:50Z</time>
      </trkpt>
      <trkpt lat="43.3817430" lon="-7.4325330">
        <ele>559.6</ele>
        <time>2014-07-29T15:05:01Z</time>
      </trkpt>
      <trkpt lat="43.3817340" lon="-7.4325500">
        <ele>559.6</ele>
        <time>2014-07-29T15:05:12Z</time>
      </trkpt>
      <trkpt lat="43.3817280" lon="-7.4325640">
        <ele>559.6</ele>
        <time>2014-07-29T15:05:13Z</time>
      </trkpt>
      <trkpt lat="43.3815560" lon="-7.4329080">
        <ele>559.2</ele>
        <time>2014-07-29T15:05:24Z</time>
      </trkpt>
      <trkpt lat="43.3812610" lon="-7.4334420">
        <ele>559.0</ele>
        <time>2014-07-29T15:05:38Z</time>
      </trkpt>
      <trkpt lat="43.3808500" lon="-7.4342230">
        <ele>555.1</ele>
        <time>2014-07-29T15:05:52Z</time>
      </trkpt>
      <trkpt lat="43.3805250" lon="-7.4348650">
        <ele>551.6</ele>
        <time>2014-07-29T15:05:59Z</time>
      </trkpt>
      <trkpt lat="43.3804120" lon="-7.4350790">
        <ele>550.4</ele>
        <time>2014-07-29T15:06:01Z</time>
      </trkpt>
      <trkpt lat="43.3801220" lon="-7.4356820">
        <ele>547.3</ele>
        <time>2014-07-29T15:06:07Z</time>
      </trkpt>
      <trkpt lat="43.3800080" lon="-7.4359600">
        <ele>546.1</ele>
        <time>2014-07-29T15:06:10Z</time>
      </trkpt>
      <trkpt lat="43.3798860" lon="-7.4362870">
        <ele>545.1</ele>
        <time>2014-07-29T15:06:14Z</time>
      </trkpt>
      <trkpt lat="43.3797680" lon="-7.4367600">
        <ele>543.0</ele>
        <time>2014-07-29T15:06:20Z</time>
      </trkpt>
      <trkpt lat="43.3796990" lon="-7.4370150">
        <ele>541.7</ele>
        <time>2014-07-29T15:06:23Z</time>
      </trkpt>
      <trkpt lat="43.3794630" lon="-7.4378250">
        <ele>537.0</ele>
        <time>2014-07-29T15:06:32Z</time>
      </trkpt>
      <trkpt lat="43.3793570" lon="-7.4381980">
        <ele>534.8</ele>
        <time>2014-07-29T15:06:36Z</time>
      </trkpt>
      <trkpt lat="43.3792110" lon="-7.4387350">
        <ele>532.2</ele>
        <time>2014-07-29T15:06:41Z</time>
      </trkpt>
      <trkpt lat="43.3790330" lon="-7.4394040">
        <ele>527.3</ele>
        <time>2014-07-29T15:06:47Z</time>
      </trkpt>
      <trkpt lat="43.3790010" lon="-7.4401340">
        <ele>524.1</ele>
        <time>2014-07-29T15:06:54Z</time>
      </trkpt>
      <trkpt lat="43.3790480" lon="-7.4404320">
        <ele>523.3</ele>
        <time>2014-07-29T15:06:57Z</time>
      </trkpt>
      <trkpt lat="43.3791820" lon="-7.4409350">
        <ele>524.3</ele>
        <time>2014-07-29T15:07:07Z</time>
      </trkpt>
      <trkpt lat="43.3791920" lon="-7.4409790">
        <ele>524.7</ele>
        <time>2014-07-29T15:07:09Z</time>
      </trkpt>
      <trkpt lat="43.3792510" lon="-7.4412450">
        <ele>527.6</ele>
        <time>2014-07-29T15:07:23Z</time>
      </trkpt>
      <trkpt lat="43.3793120" lon="-7.4415310">
        <ele>531.0</ele>
        <time>2014-07-29T15:07:40Z</time>
      </trkpt>
      <trkpt lat="43.3793800" lon="-7.4417520">
        <ele>533.5</ele>
        <time>2014-07-29T15:07:54Z</time>
      </trkpt>
      <trkpt lat="43.3794490" lon="-7.4419760">
        <ele>535.9</ele>
        <time>2014-07-29T15:08:09Z</time>
      </trkpt>
      <trkpt lat="43.3794930" lon="-7.4422560">
        <ele>538.2</ele>
        <time>2014-07-29T15:08:28Z</time>
      </trkpt>
      <trkpt lat="43.3794840" lon="-7.4423430">
        <ele>538.8</ele>
        <time>2014-07-29T15:08:33Z</time>
      </trkpt>
      <trkpt lat="43.3794610" lon="-7.4424940">
        <ele>539.6</ele>
        <time>2014-07-29T15:08:41Z</time>
      </trkpt>
      <trkpt lat="43.3793800" lon="-7.4427890">
        <ele>540.6</ele>
        <time>2014-07-29T15:08:56Z</time>
      </trkpt>
      <trkpt lat="43.3792820" lon="-7.4431100">
        <ele>540.6</ele>
        <time>2014-07-29T15:09:08Z</time>
      </trkpt>
      <trkpt lat="43.3791190" lon="-7.4435730">
        <ele>539.8</ele>
        <time>2014-07-29T15:09:20Z</time>
      </trkpt>
      <trkpt lat="43.3788820" lon="-7.4442700">
        <ele>537.7</ele>
        <time>2014-07-29T15:09:32Z</time>
      </trkpt>
      <trkpt lat="43.3787340" lon="-7.4447070">
        <ele>536.0</ele>
        <time>2014-07-29T15:09:38Z</time>
      </trkpt>
      <trkpt lat="43.3784880" lon="-7.4449570">
        <ele>534.3</ele>
        <time>2014-07-29T15:09:43Z</time>
      </trkpt>
      <trkpt lat="43.3784100" lon="-7.4449660">
        <ele>533.8</ele>
        <time>2014-07-29T15:09:44Z</time>
      </trkpt>
      <trkpt lat="43.3781630" lon="-7.4449680">
        <ele>532.2</ele>
        <time>2014-07-29T15:09:47Z</time>
      </trkpt>
      <trkpt lat="43.3779360" lon="-7.4450670">
        <ele>530.3</ele>
        <time>2014-07-29T15:09:50Z</time>
      </trkpt>
      <trkpt lat="43.3778760" lon="-7.4451120">
        <ele>529.7</ele>
        <time>2014-07-29T15:09:51Z</time>
      </trkpt>
      <trkpt lat="43.3778250" lon="-7.4451490">
        <ele>529.1</ele>
        <time>2014-07-29T15:09:52Z</time>
      </trkpt>
      <trkpt lat="43.3777840" lon="-7.4451790">
        <ele>528.7</ele>
        <time>2014-07-29T15:09:53Z</time>
      </trkpt>
      <trkpt lat="43.3777540" lon="-7.4452060">
        <ele>528.4</ele>
        <time>2014-07-29T15:09:54Z</time>
      </trkpt>
      <trkpt lat="43.3776620" lon="-7.4453050">
        <ele>527.9</ele>
        <time>2014-07-29T15:10:00Z</time>
      </trkpt>
      <trkpt lat="43.3776440" lon="-7.4454860">
        <ele>529.8</ele>
        <time>2014-07-29T15:10:09Z</time>
      </trkpt>
      <trkpt lat="43.3777410" lon="-7.4455670">
        <ele>532.0</ele>
        <time>2014-07-29T15:10:17Z</time>
      </trkpt>
      <trkpt lat="43.3779620" lon="-7.4457570">
        <ele>536.4</ele>
        <time>2014-07-29T15:10:36Z</time>
      </trkpt>
      <trkpt lat="43.3779930" lon="-7.4457880">
        <ele>536.9</ele>
        <time>2014-07-29T15:10:39Z</time>
      </trkpt>
      <trkpt lat="43.3780060" lon="-7.4458010">
        <ele>537.1</ele>
        <time>2014-07-29T15:10:40Z</time>
      </trkpt>
      <trkpt lat="43.3781440" lon="-7.4459610">
        <ele>539.8</ele>
        <time>2014-07-29T15:10:53Z</time>
      </trkpt>
      <trkpt lat="43.3781970" lon="-7.4460000">
        <ele>540.5</ele>
        <time>2014-07-29T15:10:57Z</time>
      </trkpt>
      <trkpt lat="43.3782480" lon="-7.4460790">
        <ele>541.3</ele>
        <time>2014-07-29T15:11:03Z</time>
      </trkpt>
      <trkpt lat="43.3783710" lon="-7.4462530">
        <ele>543.8</ele>
        <time>2014-07-29T15:11:17Z</time>
      </trkpt>
      <trkpt lat="43.3784560" lon="-7.4464080">
        <ele>545.9</ele>
        <time>2014-07-29T15:11:28Z</time>
      </trkpt>
      <trkpt lat="43.3785950" lon="-7.4466390">
        <ele>548.9</ele>
        <time>2014-07-29T15:11:45Z</time>
      </trkpt>
      <trkpt lat="43.3786390" lon="-7.4468540">
        <ele>551.7</ele>
        <time>2014-07-29T15:11:58Z</time>
      </trkpt>
      <trkpt lat="43.3786500" lon="-7.4468870">
        <ele>552.2</ele>
        <time>2014-07-29T15:12:00Z</time>
      </trkpt>
      <trkpt lat="43.3786720" lon="-7.4469460">
        <ele>552.8</ele>
        <time>2014-07-29T15:12:04Z</time>
      </trkpt>
      <trkpt lat="43.3787500" lon="-7.4471120">
        <ele>554.7</ele>
        <time>2014-07-29T15:12:15Z</time>
      </trkpt>
      <trkpt lat="43.3787630" lon="-7.4471390">
        <ele>555.0</ele>
        <time>2014-07-29T15:12:17Z</time>
      </trkpt>
      <trkpt lat="43.3787860" lon="-7.4472120">
        <ele>555.9</ele>
        <time>2014-07-29T15:12:21Z</time>
      </trkpt>
      <trkpt lat="43.3788310" lon="-7.4473680">
        <ele>557.4</ele>
        <time>2014-07-29T15:12:30Z</time>
      </trkpt>
      <trkpt lat="43.3788700" lon="-7.4475290">
        <ele>558.7</ele>
        <time>2014-07-29T15:12:40Z</time>
      </trkpt>
      <trkpt lat="43.3788910" lon="-7.4476880">
        <ele>560.0</ele>
        <time>2014-07-29T15:12:48Z</time>
      </trkpt>
      <trkpt lat="43.3788890" lon="-7.4477750">
        <ele>560.8</ele>
        <time>2014-07-29T15:12:52Z</time>
      </trkpt>
      <trkpt lat="43.3788690" lon="-7.4478110">
        <ele>560.6</ele>
        <time>2014-07-29T15:13:07Z</time>
      </trkpt>
      <trkpt lat="43.3788690" lon="-7.4478110">
        <ele>560.6</ele>
        <time>2014-07-29T15:13:25Z</time>
      </trkpt>
      <trkpt lat="43.3788690" lon="-7.4478110">
        <ele>560.6</ele>
        <time>2014-07-29T15:13:26Z</time>
      </trkpt>
      <trkpt lat="43.3788690" lon="-7.4478110">
        <ele>560.6</ele>
        <time>2014-07-29T15:13:27Z</time>
      </trkpt>
      <trkpt lat="43.3788690" lon="-7.4478110">
        <ele>560.6</ele>
        <time>2014-07-29T15:13:28Z</time>
      </trkpt>
      <trkpt lat="43.3788690" lon="-7.4478110">
        <ele>560.6</ele>
        <time>2014-07-29T15:13:29Z</time>
      </trkpt>
      <trkpt lat="43.3788690" lon="-7.4478110">
        <ele>560.6</ele>
        <time>2014-07-29T15:13:30Z</time>
      </trkpt>
      <trkpt lat="43.3788690" lon="-7.4478110">
        <ele>560.6</ele>
        <time>2014-07-29T15:13:31Z</time>
      </trkpt>
      <trkpt lat="43.3788690" lon="-7.4478110">
        <ele>560.6</ele>
        <time>2014-07-29T15:13:32Z</time>
      </trkpt>
      <trkpt lat="43.3788690" lon="-7.4478110">
        <ele>560.6</ele>
        <time>2014-07-29T15:13:34Z</time>
      </trkpt>
      <trkpt lat="43.3788690" lon="-7.4478110">
        <ele>560.6</ele>
        <time>2014-07-29T15:13:35Z</time>
      </trkpt>
      <trkpt lat="43.3788690" lon="-7.4478110">
        <ele>560.6</ele>
        <time>2014-07-29T15:13:36Z</time>
      </trkpt>
      <trkpt lat="43.3788690" lon="-7.4478110">
        <ele>560.6</ele>
        <time>2014-07-29T15:13:37Z</time>
      </trkpt>
      <trkpt lat="43.3788690" lon="-7.4478110">
        <ele>560.6</ele>
        <time>2014-07-29T15:13:38Z</time>
      </trkpt>
      <trkpt lat="43.3788690" lon="-7.4478110">
        <ele>560.6</ele>
        <time>2014-07-29T15:13:39Z</time>
      </trkpt>
      <trkpt lat="43.3788670" lon="-7.4478100">
        <ele>560.6</ele>
        <time>2014-07-29T15:13:42Z</time>
      </trkpt>
      <trkpt lat="43.3788670" lon="-7.4478100">
        <ele>560.6</ele>
        <time>2014-07-29T15:13:43Z</time>
      </trkpt>
      <trkpt lat="43.3788670" lon="-7.4478100">
        <ele>560.6</ele>
        <time>2014-07-29T15:13:45Z</time>
      </trkpt>
      <trkpt lat="43.3788670" lon="-7.4478100">
        <ele>560.6</ele>
        <time>2014-07-29T15:13:46Z</time>
      </trkpt>
      <trkpt lat="43.3788670" lon="-7.4478100">
        <ele>560.6</ele>
        <time>2014-07-29T15:13:56Z</time>
      </trkpt>
      <trkpt lat="43.3788670" lon="-7.4478100">
        <ele>560.6</ele>
        <time>2014-07-29T15:13:57Z</time>
      </trkpt>
      <trkpt lat="43.3788600" lon="-7.4478130">
        <ele>560.6</ele>
        <time>2014-07-29T15:14:09Z</time>
      </trkpt>
      <trkpt lat="43.3787710" lon="-7.4478500">
        <ele>560.1</ele>
        <time>2014-07-29T15:14:16Z</time>
      </trkpt>
      <trkpt lat="43.3784400" lon="-7.4480440">
        <ele>558.6</ele>
        <time>2014-07-29T15:14:31Z</time>
      </trkpt>
      <trkpt lat="43.3778370" lon="-7.4482670">
        <ele>556.9</ele>
        <time>2014-07-29T15:14:44Z</time>
      </trkpt>
      <trkpt lat="43.3775910" lon="-7.4483170">
        <ele>556.4</ele>
        <time>2014-07-29T15:14:53Z</time>
      </trkpt>
      <trkpt lat="43.3774800" lon="-7.4483380">
        <ele>555.9</ele>
        <time>2014-07-29T15:15:08Z</time>
      </trkpt>
      <trkpt lat="43.3772500" lon="-7.4483880">
        <ele>554.7</ele>
        <time>2014-07-29T15:15:14Z</time>
      </trkpt>
      <trkpt lat="43.3767810" lon="-7.4485050">
        <ele>551.1</ele>
        <time>2014-07-29T15:15:22Z</time>
      </trkpt>
      <trkpt lat="43.3764310" lon="-7.4486000">
        <ele>547.9</ele>
        <time>2014-07-29T15:15:26Z</time>
      </trkpt>
      <trkpt lat="43.3759180" lon="-7.4487410">
        <ele>543.3</ele>
        <time>2014-07-29T15:15:31Z</time>
      </trkpt>
      <trkpt lat="43.3754510" lon="-7.4489150">
        <ele>540.6</ele>
        <time>2014-07-29T15:15:35Z</time>
      </trkpt>
      <trkpt lat="43.3749860" lon="-7.4491410">
        <ele>538.4</ele>
        <time>2014-07-29T15:15:39Z</time>
      </trkpt>
      <trkpt lat="43.3745580" lon="-7.4493550">
        <ele>536.5</ele>
        <time>2014-07-29T15:15:43Z</time>
      </trkpt>
      <trkpt lat="43.3741020" lon="-7.4495570">
        <ele>537.6</ele>
        <time>2014-07-29T15:15:48Z</time>
      </trkpt>
      <trkpt lat="43.3740290" lon="-7.4496030">
        <ele>537.7</ele>
        <time>2014-07-29T15:15:49Z</time>
      </trkpt>
      <trkpt lat="43.3739640" lon="-7.4496560">
        <ele>537.2</ele>
        <time>2014-07-29T15:15:50Z</time>
      </trkpt>
      <trkpt lat="43.3738990" lon="-7.4497110">
        <ele>536.7</ele>
        <time>2014-07-29T15:15:51Z</time>
      </trkpt>
      <trkpt lat="43.3738390" lon="-7.4497650">
        <ele>536.3</ele>
        <time>2014-07-29T15:15:52Z</time>
      </trkpt>
      <trkpt lat="43.3737860" lon="-7.4498200">
        <ele>536.0</ele>
        <time>2014-07-29T15:15:53Z</time>
      </trkpt>
      <trkpt lat="43.3733120" lon="-7.4503230">
        <ele>534.0</ele>
        <time>2014-07-29T15:16:04Z</time>
      </trkpt>
      <trkpt lat="43.3729220" lon="-7.4507400">
        <ele>533.3</ele>
        <time>2014-07-29T15:16:20Z</time>
      </trkpt>
      <trkpt lat="43.3725550" lon="-7.4510830">
        <ele>533.6</ele>
        <time>2014-07-29T15:16:34Z</time>
      </trkpt>
      <trkpt lat="43.3720990" lon="-7.4514430">
        <ele>534.1</ele>
        <time>2014-07-29T15:16:49Z</time>
      </trkpt>
      <trkpt lat="43.3716420" lon="-7.4519140">
        <ele>534.1</ele>
        <time>2014-07-29T15:17:05Z</time>
      </trkpt>
      <trkpt lat="43.3713840" lon="-7.4523330">
        <ele>533.9</ele>
        <time>2014-07-29T15:17:13Z</time>
      </trkpt>
      <trkpt lat="43.3712010" lon="-7.4532970">
        <ele>533.0</ele>
        <time>2014-07-29T15:17:25Z</time>
      </trkpt>
      <trkpt lat="43.3712140" lon="-7.4540620">
        <ele>532.4</ele>
        <time>2014-07-29T15:17:35Z</time>
      </trkpt>
      <trkpt lat="43.3712300" lon="-7.4541320">
        <ele>532.4</ele>
        <time>2014-07-29T15:17:36Z</time>
      </trkpt>
      <trkpt lat="43.3712500" lon="-7.4541990">
        <ele>532.4</ele>
        <time>2014-07-29T15:17:37Z</time>
      </trkpt>
      <trkpt lat="43.3712770" lon="-7.4542640">
        <ele>532.4</ele>
        <time>2014-07-29T15:17:38Z</time>
      </trkpt>
      <trkpt lat="43.3713070" lon="-7.4543310">
        <ele>532.4</ele>
        <time>2014-07-29T15:17:39Z</time>
      </trkpt>
      <trkpt lat="43.3714650" lon="-7.4547120">
        <ele>532.2</ele>
        <time>2014-07-29T15:17:44Z</time>
      </trkpt>
      <trkpt lat="43.3714800" lon="-7.4548040">
        <ele>532.0</ele>
        <time>2014-07-29T15:17:45Z</time>
      </trkpt>
      <trkpt lat="43.3714900" lon="-7.4548980">
        <ele>531.9</ele>
        <time>2014-07-29T15:17:46Z</time>
      </trkpt>
      <trkpt lat="43.3714940" lon="-7.4549900">
        <ele>531.7</ele>
        <time>2014-07-29T15:17:47Z</time>
      </trkpt>
      <trkpt lat="43.3714930" lon="-7.4550850">
        <ele>531.5</ele>
        <time>2014-07-29T15:17:48Z</time>
      </trkpt>
      <trkpt lat="43.3714870" lon="-7.4551820">
        <ele>531.3</ele>
        <time>2014-07-29T15:17:49Z</time>
      </trkpt>
      <trkpt lat="43.3714780" lon="-7.4552800">
        <ele>531.0</ele>
        <time>2014-07-29T15:17:50Z</time>
      </trkpt>
      <trkpt lat="43.3714200" lon="-7.4559240">
        <ele>529.0</ele>
        <time>2014-07-29T15:17:56Z</time>
      </trkpt>
      <trkpt lat="43.3713890" lon="-7.4561560">
        <ele>528.1</ele>
        <time>2014-07-29T15:17:58Z</time>
      </trkpt>
      <trkpt lat="43.3713650" lon="-7.4562700">
        <ele>527.7</ele>
        <time>2014-07-29T15:17:59Z</time>
      </trkpt>
      <trkpt lat="43.3713350" lon="-7.4563810">
        <ele>527.3</ele>
        <time>2014-07-29T15:18:00Z</time>
      </trkpt>
      <trkpt lat="43.3711310" lon="-7.4573820">
        <ele>524.0</ele>
        <time>2014-07-29T15:18:09Z</time>
      </trkpt>
      <trkpt lat="43.3710920" lon="-7.4588110">
        <ele>521.8</ele>
        <time>2014-07-29T15:18:21Z</time>
      </trkpt>
      <trkpt lat="43.3709590" lon="-7.4598210">
        <ele>519.6</ele>
        <time>2014-07-29T15:18:29Z</time>
      </trkpt>
      <trkpt lat="43.3708380" lon="-7.4609740">
        <ele>517.8</ele>
        <time>2014-07-29T15:18:40Z</time>
      </trkpt>
      <trkpt lat="43.3708450" lon="-7.4612080">
        <ele>517.9</ele>
        <time>2014-07-29T15:18:43Z</time>
      </trkpt>
      <trkpt lat="43.3709300" lon="-7.4617660">
        <ele>519.3</ele>
        <time>2014-07-29T15:18:54Z</time>
      </trkpt>
      <trkpt lat="43.3710240" lon="-7.4620460">
        <ele>520.2</ele>
        <time>2014-07-29T15:19:03Z</time>
      </trkpt>
      <trkpt lat="43.3711120" lon="-7.4623240">
        <ele>521.6</ele>
        <time>2014-07-29T15:19:13Z</time>
      </trkpt>
      <trkpt lat="43.3711120" lon="-7.4624450">
        <ele>522.3</ele>
        <time>2014-07-29T15:19:17Z</time>
      </trkpt>
      <trkpt lat="43.3710220" lon="-7.4627470">
        <ele>524.0</ele>
        <time>2014-07-29T15:19:26Z</time>
      </trkpt>
      <trkpt lat="43.3709550" lon="-7.4628950">
        <ele>524.8</ele>
        <time>2014-07-29T15:19:32Z</time>
      </trkpt>
      <trkpt lat="43.3708500" lon="-7.4630460">
        <ele>525.7</ele>
        <time>2014-07-29T15:19:39Z</time>
      </trkpt>
      <trkpt lat="43.3707820" lon="-7.4631730">
        <ele>526.3</ele>
        <time>2014-07-29T15:19:45Z</time>
      </trkpt>
      <trkpt lat="43.3707470" lon="-7.4632730">
        <ele>526.6</ele>
        <time>2014-07-29T15:19:50Z</time>
      </trkpt>
      <trkpt lat="43.3707170" lon="-7.4633130">
        <ele>526.7</ele>
        <time>2014-07-29T15:19:54Z</time>
      </trkpt>
      <trkpt lat="43.3705990" lon="-7.4634900">
        <ele>527.1</ele>
        <time>2014-07-29T15:20:00Z</time>
      </trkpt>
      <trkpt lat="43.3705240" lon="-7.4636430">
        <ele>527.1</ele>
        <time>2014-07-29T15:20:02Z</time>
      </trkpt>
      <trkpt lat="43.3704820" lon="-7.4637440">
        <ele>527.0</ele>
        <time>2014-07-29T15:20:03Z</time>
      </trkpt>
      <trkpt lat="43.3701930" lon="-7.4644620">
        <ele>524.3</ele>
        <time>2014-07-29T15:20:09Z</time>
      </trkpt>
      <trkpt lat="43.3700560" lon="-7.4653350">
        <ele>514.6</ele>
        <time>2014-07-29T15:20:17Z</time>
      </trkpt>
      <trkpt lat="43.3700610" lon="-7.4654400">
        <ele>513.5</ele>
        <time>2014-07-29T15:20:18Z</time>
      </trkpt>
      <trkpt lat="43.3700850" lon="-7.4656380">
        <ele>511.2</ele>
        <time>2014-07-29T15:20:20Z</time>
      </trkpt>
      <trkpt lat="43.3701320" lon="-7.4658220">
        <ele>509.7</ele>
        <time>2014-07-29T15:20:22Z</time>
      </trkpt>
      <trkpt lat="43.3701900" lon="-7.4660470">
        <ele>507.1</ele>
        <time>2014-07-29T15:20:25Z</time>
      </trkpt>
      <trkpt lat="43.3701910" lon="-7.4661130">
        <ele>506.6</ele>
        <time>2014-07-29T15:20:26Z</time>
      </trkpt>
      <trkpt lat="43.3701760" lon="-7.4661760">
        <ele>506.0</ele>
        <time>2014-07-29T15:20:27Z</time>
      </trkpt>
      <trkpt lat="43.3701470" lon="-7.4662370">
        <ele>505.1</ele>
        <time>2014-07-29T15:20:28Z</time>
      </trkpt>
      <trkpt lat="43.3701030" lon="-7.4663020">
        <ele>504.0</ele>
        <time>2014-07-29T15:20:29Z</time>
      </trkpt>
      <trkpt lat="43.3700450" lon="-7.4663690">
        <ele>503.4</ele>
        <time>2014-07-29T15:20:30Z</time>
      </trkpt>
      <trkpt lat="43.3698430" lon="-7.4665930">
        <ele>501.2</ele>
        <time>2014-07-29T15:20:33Z</time>
      </trkpt>
      <trkpt lat="43.3696200" lon="-7.4668170">
        <ele>499.2</ele>
        <time>2014-07-29T15:20:36Z</time>
      </trkpt>
      <trkpt lat="43.3695520" lon="-7.4668850">
        <ele>498.6</ele>
        <time>2014-07-29T15:20:37Z</time>
      </trkpt>
      <trkpt lat="43.3692920" lon="-7.4671410">
        <ele>496.3</ele>
        <time>2014-07-29T15:20:41Z</time>
      </trkpt>
      <trkpt lat="43.3691040" lon="-7.4673100">
        <ele>494.5</ele>
        <time>2014-07-29T15:20:44Z</time>
      </trkpt>
      <trkpt lat="43.3688140" lon="-7.4675380">
        <ele>491.7</ele>
        <time>2014-07-29T15:20:49Z</time>
      </trkpt>
      <trkpt lat="43.3686040" lon="-7.4676600">
        <ele>489.8</ele>
        <time>2014-07-29T15:20:53Z</time>
      </trkpt>
      <trkpt lat="43.3683780" lon="-7.4677320">
        <ele>488.6</ele>
        <time>2014-07-29T15:21:01Z</time>
      </trkpt>
      <trkpt lat="43.3681980" lon="-7.4679300">
        <ele>487.5</ele>
        <time>2014-07-29T15:21:06Z</time>
      </trkpt>
      <trkpt lat="43.3681430" lon="-7.4679760">
        <ele>487.1</ele>
        <time>2014-07-29T15:21:07Z</time>
      </trkpt>
      <trkpt lat="43.3678000" lon="-7.4682290">
        <ele>484.4</ele>
        <time>2014-07-29T15:21:13Z</time>
      </trkpt>
      <trkpt lat="43.3677060" lon="-7.4682990">
        <ele>483.9</ele>
        <time>2014-07-29T15:21:15Z</time>
      </trkpt>
      <trkpt lat="43.3675470" lon="-7.4684140">
        <ele>483.0</ele>
        <time>2014-07-29T15:21:19Z</time>
      </trkpt>
      <trkpt lat="43.3673470" lon="-7.4685690">
        <ele>481.9</ele>
        <time>2014-07-29T15:21:26Z</time>
      </trkpt>
      <trkpt lat="43.3673190" lon="-7.4686160">
        <ele>481.7</ele>
        <time>2014-07-29T15:21:28Z</time>
      </trkpt>
      <trkpt lat="43.3672980" lon="-7.4686290">
        <ele>481.6</ele>
        <time>2014-07-29T15:21:29Z</time>
      </trkpt>
      <trkpt lat="43.3672760" lon="-7.4686350">
        <ele>481.4</ele>
        <time>2014-07-29T15:21:30Z</time>
      </trkpt>
      <trkpt lat="43.3672550" lon="-7.4686330">
        <ele>481.3</ele>
        <time>2014-07-29T15:21:31Z</time>
      </trkpt>
      <trkpt lat="43.3672220" lon="-7.4685710">
        <ele>480.9</ele>
        <time>2014-07-29T15:21:34Z</time>
      </trkpt>
      <trkpt lat="43.3672190" lon="-7.4685030">
        <ele>480.6</ele>
        <time>2014-07-29T15:21:48Z</time>
      </trkpt>
      <trkpt lat="43.3672170" lon="-7.4684990">
        <ele>480.6</ele>
        <time>2014-07-29T15:22:20Z</time>
      </trkpt>
      <trkpt lat="43.3672170" lon="-7.4684990">
        <ele>480.6</ele>
        <time>2014-07-29T15:22:28Z</time>
      </trkpt>
      <trkpt lat="43.3672170" lon="-7.4684990">
        <ele>480.6</ele>
        <time>2014-07-29T15:22:29Z</time>
      </trkpt>
      <trkpt lat="43.3672170" lon="-7.4684990">
        <ele>480.6</ele>
        <time>2014-07-29T15:22:56Z</time>
      </trkpt>
      <trkpt lat="43.3672230" lon="-7.4685030">
        <ele>480.5</ele>
        <time>2014-07-29T15:23:17Z</time>
      </trkpt>
      <trkpt lat="43.3672220" lon="-7.4685050">
        <ele>480.5</ele>
        <time>2014-07-29T15:23:22Z</time>
      </trkpt>
      <trkpt lat="43.3671980" lon="-7.4685880">
        <ele>480.1</ele>
        <time>2014-07-29T15:23:27Z</time>
      </trkpt>
      <trkpt lat="43.3670050" lon="-7.4688220">
        <ele>479.4</ele>
        <time>2014-07-29T15:23:41Z</time>
      </trkpt>
      <trkpt lat="43.3667830" lon="-7.4689320">
        <ele>479.0</ele>
        <time>2014-07-29T15:23:54Z</time>
      </trkpt>
      <trkpt lat="43.3666050" lon="-7.4691170">
        <ele>478.5</ele>
        <time>2014-07-29T15:24:03Z</time>
      </trkpt>
      <trkpt lat="43.3665850" lon="-7.4691380">
        <ele>478.5</ele>
        <time>2014-07-29T15:24:04Z</time>
      </trkpt>
      <trkpt lat="43.3664970" lon="-7.4691410">
        <ele>478.2</ele>
        <time>2014-07-29T15:24:08Z</time>
      </trkpt>
      <trkpt lat="43.3663770" lon="-7.4692040">
        <ele>478.8</ele>
        <time>2014-07-29T15:24:18Z</time>
      </trkpt>
      <trkpt lat="43.3663770" lon="-7.4692040">
        <ele>478.8</ele>
        <time>2014-07-29T15:24:42Z</time>
      </trkpt>
      <trkpt lat="43.3663780" lon="-7.4692050">
        <ele>478.8</ele>
        <time>2014-07-29T15:25:08Z</time>
      </trkpt>
      <trkpt lat="43.3663780" lon="-7.4692040">
        <ele>478.9</ele>
        <time>2014-07-29T15:25:39Z</time>
      </trkpt>
      <trkpt lat="43.3663270" lon="-7.4691980">
        <ele>479.2</ele>
        <time>2014-07-29T15:26:00Z</time>
      </trkpt>
      <trkpt lat="43.3662350" lon="-7.4691900">
        <ele>479.8</ele>
        <time>2014-07-29T15:26:06Z</time>
      </trkpt>
      <trkpt lat="43.3661180" lon="-7.4691690">
        <ele>480.6</ele>
        <time>2014-07-29T15:26:13Z</time>
      </trkpt>
      <trkpt lat="43.3660800" lon="-7.4691600">
        <ele>480.9</ele>
        <time>2014-07-29T15:26:15Z</time>
      </trkpt>
      <trkpt lat="43.3657830" lon="-7.4690760">
        <ele>483.3</ele>
        <time>2014-07-29T15:26:30Z</time>
      </trkpt>
      <trkpt lat="43.3656250" lon="-7.4690550">
        <ele>484.6</ele>
        <time>2014-07-29T15:26:41Z</time>
      </trkpt>
      <trkpt lat="43.3656250" lon="-7.4690530">
        <ele>484.6</ele>
        <time>2014-07-29T15:27:01Z</time>
      </trkpt>
      <trkpt lat="43.3656200" lon="-7.4690560">
        <ele>484.7</ele>
        <time>2014-07-29T15:27:30Z</time>
      </trkpt>
      <trkpt lat="43.3656240" lon="-7.4690530">
        <ele>484.7</ele>
        <time>2014-07-29T15:27:59Z</time>
      </trkpt>
      <trkpt lat="43.3656240" lon="-7.4690530">
        <ele>484.7</ele>
        <time>2014-07-29T15:28:29Z</time>
      </trkpt>
      <trkpt lat="43.3656150" lon="-7.4690550">
        <ele>484.8</ele>
        <time>2014-07-29T15:28:49Z</time>
      </trkpt>
      <trkpt lat="43.3656060" lon="-7.4690600">
        <ele>484.9</ele>
        <time>2014-07-29T15:29:08Z</time>
      </trkpt>
      <trkpt lat="43.3656000" lon="-7.4690610">
        <ele>484.9</ele>
        <time>2014-07-29T15:29:33Z</time>
      </trkpt>
      <trkpt lat="43.3655980" lon="-7.4690580">
        <ele>484.9</ele>
        <time>2014-07-29T15:29:56Z</time>
      </trkpt>
      <trkpt lat="43.3655830" lon="-7.4690300">
        <ele>485.2</ele>
        <time>2014-07-29T15:29:58Z</time>
      </trkpt>
      <trkpt lat="43.3655470" lon="-7.4690530">
        <ele>485.5</ele>
        <time>2014-07-29T15:30:01Z</time>
      </trkpt>
      <trkpt lat="43.3654410" lon="-7.4694450">
        <ele>487.4</ele>
        <time>2014-07-29T15:30:18Z</time>
      </trkpt>
      <trkpt lat="43.3654160" lon="-7.4697410">
        <ele>488.1</ele>
        <time>2014-07-29T15:30:31Z</time>
      </trkpt>
      <trkpt lat="43.3654530" lon="-7.4701490">
        <ele>489.5</ele>
        <time>2014-07-29T15:30:50Z</time>
      </trkpt>
      <trkpt lat="43.3654820" lon="-7.4705020">
        <ele>490.6</ele>
        <time>2014-07-29T15:31:07Z</time>
      </trkpt>
      <trkpt lat="43.3655320" lon="-7.4708310">
        <ele>492.3</ele>
        <time>2014-07-29T15:31:24Z</time>
      </trkpt>
      <trkpt lat="43.3655260" lon="-7.4710390">
        <ele>495.1</ele>
        <time>2014-07-29T15:31:34Z</time>
      </trkpt>
      <trkpt lat="43.3655250" lon="-7.4713550">
        <ele>497.5</ele>
        <time>2014-07-29T15:31:49Z</time>
      </trkpt>
      <trkpt lat="43.3655110" lon="-7.4714350">
        <ele>498.0</ele>
        <time>2014-07-29T15:31:53Z</time>
      </trkpt>
      <trkpt lat="43.3654120" lon="-7.4717580">
        <ele>500.0</ele>
        <time>2014-07-29T15:32:10Z</time>
      </trkpt>
      <trkpt lat="43.3653580" lon="-7.4718560">
        <ele>500.7</ele>
        <time>2014-07-29T15:32:16Z</time>
      </trkpt>
      <trkpt lat="43.3653110" lon="-7.4719420">
        <ele>501.5</ele>
        <time>2014-07-29T15:32:21Z</time>
      </trkpt>
      <trkpt lat="43.3652990" lon="-7.4719610">
        <ele>501.7</ele>
        <time>2014-07-29T15:32:22Z</time>
      </trkpt>
      <trkpt lat="43.3651520" lon="-7.4721610">
        <ele>504.3</ele>
        <time>2014-07-29T15:32:36Z</time>
      </trkpt>
      <trkpt lat="43.3649740" lon="-7.4723110">
        <ele>506.4</ele>
        <time>2014-07-29T15:32:51Z</time>
      </trkpt>
      <trkpt lat="43.3647650" lon="-7.4724160">
        <ele>507.7</ele>
        <time>2014-07-29T15:33:06Z</time>
      </trkpt>
      <trkpt lat="43.3644950" lon="-7.4725710">
        <ele>508.2</ele>
        <time>2014-07-29T15:33:22Z</time>
      </trkpt>
      <trkpt lat="43.3643690" lon="-7.4728690">
        <ele>508.1</ele>
        <time>2014-07-29T15:33:34Z</time>
      </trkpt>
      <trkpt lat="43.3642060" lon="-7.4734030">
        <ele>508.6</ele>
        <time>2014-07-29T15:33:52Z</time>
      </trkpt>
      <trkpt lat="43.3640900" lon="-7.4737930">
        <ele>509.7</ele>
        <time>2014-07-29T15:34:06Z</time>
      </trkpt>
      <trkpt lat="43.3639360" lon="-7.4742710">
        <ele>510.0</ele>
        <time>2014-07-29T15:34:22Z</time>
      </trkpt>
      <trkpt lat="43.3638560" lon="-7.4745200">
        <ele>510.1</ele>
        <time>2014-07-29T15:34:33Z</time>
      </trkpt>
      <trkpt lat="43.3637770" lon="-7.4745790">
        <ele>510.2</ele>
        <time>2014-07-29T15:34:42Z</time>
      </trkpt>
      <trkpt lat="43.3637770" lon="-7.4745790">
        <ele>510.2</ele>
        <time>2014-07-29T15:35:03Z</time>
      </trkpt>
      <trkpt lat="43.3637290" lon="-7.4746530">
        <ele>510.2</ele>
        <time>2014-07-29T15:35:16Z</time>
      </trkpt>
      <trkpt lat="43.3637060" lon="-7.4747130">
        <ele>510.2</ele>
        <time>2014-07-29T15:35:28Z</time>
      </trkpt>
      <trkpt lat="43.3636790" lon="-7.4747710">
        <ele>510.2</ele>
        <time>2014-07-29T15:35:41Z</time>
      </trkpt>
      <trkpt lat="43.3636790" lon="-7.4747710">
        <ele>510.2</ele>
        <time>2014-07-29T15:36:09Z</time>
      </trkpt>
      <trkpt lat="43.3636840" lon="-7.4747840">
        <ele>510.2</ele>
        <time>2014-07-29T15:36:44Z</time>
      </trkpt>
      <trkpt lat="43.3636830" lon="-7.4747810">
        <ele>510.2</ele>
        <time>2014-07-29T15:37:13Z</time>
      </trkpt>
      <trkpt lat="43.3636830" lon="-7.4747790">
        <ele>510.2</ele>
        <time>2014-07-29T15:37:48Z</time>
      </trkpt>
      <trkpt lat="43.3636850" lon="-7.4747830">
        <ele>510.2</ele>
        <time>2014-07-29T15:38:20Z</time>
      </trkpt>
      <trkpt lat="43.3636850" lon="-7.4747830">
        <ele>510.2</ele>
        <time>2014-07-29T15:38:53Z</time>
      </trkpt>
      <trkpt lat="43.3636820" lon="-7.4747910">
        <ele>510.2</ele>
        <time>2014-07-29T15:39:17Z</time>
      </trkpt>
      <trkpt lat="43.3636830" lon="-7.4747870">
        <ele>510.2</ele>
        <time>2014-07-29T15:39:47Z</time>
      </trkpt>
      <trkpt lat="43.3636800" lon="-7.4747940">
        <ele>510.2</ele>
        <time>2014-07-29T15:40:22Z</time>
      </trkpt>
      <trkpt lat="43.3636770" lon="-7.4747860">
        <ele>510.3</ele>
        <time>2014-07-29T15:40:56Z</time>
      </trkpt>
      <trkpt lat="43.3636770" lon="-7.4747860">
        <ele>510.3</ele>
        <time>2014-07-29T15:41:33Z</time>
      </trkpt>
      <trkpt lat="43.3636680" lon="-7.4748200">
        <ele>510.3</ele>
        <time>2014-07-29T15:42:04Z</time>
      </trkpt>
      <trkpt lat="43.3636620" lon="-7.4748460">
        <ele>510.3</ele>
        <time>2014-07-29T15:42:06Z</time>
      </trkpt>
      <trkpt lat="43.3636350" lon="-7.4748450">
        <ele>510.3</ele>
        <time>2014-07-29T15:42:09Z</time>
      </trkpt>
      <trkpt lat="43.3635680" lon="-7.4748050">
        <ele>510.3</ele>
        <time>2014-07-29T15:42:16Z</time>
      </trkpt>
      <trkpt lat="43.3634970" lon="-7.4747250">
        <ele>510.3</ele>
        <time>2014-07-29T15:42:26Z</time>
      </trkpt>
      <trkpt lat="43.3635020" lon="-7.4746330">
        <ele>510.3</ele>
        <time>2014-07-29T15:42:39Z</time>
      </trkpt>
      <trkpt lat="43.3634930" lon="-7.4746230">
        <ele>510.3</ele>
        <time>2014-07-29T15:42:53Z</time>
      </trkpt>
      <trkpt lat="43.3635080" lon="-7.4746180">
        <ele>510.3</ele>
        <time>2014-07-29T15:43:06Z</time>
      </trkpt>
      <trkpt lat="43.3634920" lon="-7.4746260">
        <ele>510.3</ele>
        <time>2014-07-29T15:43:19Z</time>
      </trkpt>
      <trkpt lat="43.3634800" lon="-7.4745910">
        <ele>510.3</ele>
        <time>2014-07-30T06:40:54Z</time>
      </trkpt>
      <trkpt lat="43.3634800" lon="-7.4745910">
        <ele>510.3</ele>
        <time>2014-07-30T06:40:56Z</time>
      </trkpt>
      <trkpt lat="43.3634710" lon="-7.4745860">
        <ele>510.3</ele>
        <time>2014-07-30T06:41:23Z</time>
      </trkpt>
      <trkpt lat="43.3634690" lon="-7.4745870">
        <ele>510.3</ele>
        <time>2014-07-30T06:41:51Z</time>
      </trkpt>
      <trkpt lat="43.3634750" lon="-7.4746040">
        <ele>510.3</ele>
        <time>2014-07-30T06:42:13Z</time>
      </trkpt>
      <trkpt lat="43.3634750" lon="-7.4746040">
        <ele>510.3</ele>
        <time>2014-07-30T06:42:39Z</time>
      </trkpt>
      <trkpt lat="43.3634630" lon="-7.4746140">
        <ele>510.3</ele>
        <time>2014-07-30T06:42:59Z</time>
      </trkpt>
      <trkpt lat="43.3634630" lon="-7.4746140">
        <ele>510.3</ele>
        <time>2014-07-30T06:43:23Z</time>
      </trkpt>
      <trkpt lat="43.3634990" lon="-7.4747000">
        <ele>510.3</ele>
        <time>2014-07-30T06:43:35Z</time>
      </trkpt>
      <trkpt lat="43.3635070" lon="-7.4747510">
        <ele>510.3</ele>
        <time>2014-07-30T06:43:52Z</time>
      </trkpt>
      <trkpt lat="43.3635180" lon="-7.4747660">
        <ele>510.3</ele>
        <time>2014-07-30T06:43:55Z</time>
      </trkpt>
      <trkpt lat="43.3636460" lon="-7.4748330">
        <ele>510.3</ele>
        <time>2014-07-30T06:44:10Z</time>
      </trkpt>
      <trkpt lat="43.3637080" lon="-7.4749180">
        <ele>510.3</ele>
        <time>2014-07-30T06:44:23Z</time>
      </trkpt>
      <trkpt lat="43.3637050" lon="-7.4749540">
        <ele>510.3</ele>
        <time>2014-07-30T06:44:41Z</time>
      </trkpt>
      <trkpt lat="43.3636980" lon="-7.4749760">
        <ele>510.3</ele>
        <time>2014-07-30T06:45:00Z</time>
      </trkpt>
      <trkpt lat="43.3636920" lon="-7.4749980">
        <ele>510.3</ele>
        <time>2014-07-30T06:45:02Z</time>
      </trkpt>
      <trkpt lat="43.3636770" lon="-7.4750610">
        <ele>510.3</ele>
        <time>2014-07-30T06:45:06Z</time>
      </trkpt>
      <trkpt lat="43.3635930" lon="-7.4752920">
        <ele>510.2</ele>
        <time>2014-07-30T06:45:15Z</time>
      </trkpt>
      <trkpt lat="43.3636900" lon="-7.4755090">
        <ele>510.1</ele>
        <time>2014-07-30T06:45:25Z</time>
      </trkpt>
      <trkpt lat="43.3636980" lon="-7.4755250">
        <ele>510.1</ele>
        <time>2014-07-30T06:45:26Z</time>
      </trkpt>
      <trkpt lat="43.3637260" lon="-7.4755720">
        <ele>510.1</ele>
        <time>2014-07-30T06:45:39Z</time>
      </trkpt>
      <trkpt lat="43.3637260" lon="-7.4755720">
        <ele>510.1</ele>
        <time>2014-07-30T06:45:59Z</time>
      </trkpt>
      <trkpt lat="43.3637260" lon="-7.4755720">
        <ele>510.1</ele>
        <time>2014-07-30T06:46:21Z</time>
      </trkpt>
      <trkpt lat="43.3637260" lon="-7.4755720">
        <ele>510.1</ele>
        <time>2014-07-30T06:46:44Z</time>
      </trkpt>
      <trkpt lat="43.3637290" lon="-7.4755750">
        <ele>510.1</ele>
        <time>2014-07-30T06:47:10Z</time>
      </trkpt>
      <trkpt lat="43.3637450" lon="-7.4755870">
        <ele>510.1</ele>
        <time>2014-07-30T06:47:29Z</time>
      </trkpt>
      <trkpt lat="43.3637950" lon="-7.4756190">
        <ele>510.1</ele>
        <time>2014-07-30T06:47:33Z</time>
      </trkpt>
      <trkpt lat="43.3638250" lon="-7.4756500">
        <ele>510.0</ele>
        <time>2014-07-30T06:47:35Z</time>
      </trkpt>
      <trkpt lat="43.3638670" lon="-7.4761200">
        <ele>507.9</ele>
        <time>2014-07-30T06:47:48Z</time>
      </trkpt>
      <trkpt lat="43.3640020" lon="-7.4768690">
        <ele>504.9</ele>
        <time>2014-07-30T06:48:00Z</time>
      </trkpt>
      <trkpt lat="43.3640320" lon="-7.4771000">
        <ele>503.7</ele>
        <time>2014-07-30T06:48:03Z</time>
      </trkpt>
      <trkpt lat="43.3640420" lon="-7.4772710">
        <ele>502.8</ele>
        <time>2014-07-30T06:48:05Z</time>
      </trkpt>
      <trkpt lat="43.3640540" lon="-7.4775490">
        <ele>501.4</ele>
        <time>2014-07-30T06:48:08Z</time>
      </trkpt>
      <trkpt lat="43.3640690" lon="-7.4778290">
        <ele>499.9</ele>
        <time>2014-07-30T06:48:11Z</time>
      </trkpt>
      <trkpt lat="43.3640950" lon="-7.4781050">
        <ele>498.3</ele>
        <time>2014-07-30T06:48:14Z</time>
      </trkpt>
      <trkpt lat="43.3641130" lon="-7.4781970">
        <ele>497.7</ele>
        <time>2014-07-30T06:48:15Z</time>
      </trkpt>
      <trkpt lat="43.3641640" lon="-7.4783830">
        <ele>496.6</ele>
        <time>2014-07-30T06:48:17Z</time>
      </trkpt>
      <trkpt lat="43.3641980" lon="-7.4784710">
        <ele>496.0</ele>
        <time>2014-07-30T06:48:18Z</time>
      </trkpt>
      <trkpt lat="43.3642750" lon="-7.4786460">
        <ele>495.0</ele>
        <time>2014-07-30T06:48:20Z</time>
      </trkpt>
      <trkpt lat="43.3644130" lon="-7.4788890">
        <ele>493.9</ele>
        <time>2014-07-30T06:48:23Z</time>
      </trkpt>
      <trkpt lat="43.3644660" lon="-7.4789600">
        <ele>493.8</ele>
        <time>2014-07-30T06:48:24Z</time>
      </trkpt>
      <trkpt lat="43.3647730" lon="-7.4793210">
        <ele>494.3</ele>
        <time>2014-07-30T06:48:32Z</time>
      </trkpt>
      <trkpt lat="43.3648630" lon="-7.4794380">
        <ele>495.1</ele>
        <time>2014-07-30T06:48:39Z</time>
      </trkpt>
      <trkpt lat="43.3648690" lon="-7.4794720">
        <ele>495.4</ele>
        <time>2014-07-30T06:48:41Z</time>
      </trkpt>
      <trkpt lat="43.3648800" lon="-7.4794890">
        <ele>495.6</ele>
        <time>2014-07-30T06:48:42Z</time>
      </trkpt>
      <trkpt lat="43.3649710" lon="-7.4796170">
        <ele>497.5</ele>
        <time>2014-07-30T06:48:53Z</time>
      </trkpt>
      <trkpt lat="43.3649980" lon="-7.4796850">
        <ele>498.3</ele>
        <time>2014-07-30T06:48:58Z</time>
      </trkpt>
      <trkpt lat="43.3649950" lon="-7.4797010">
        <ele>498.5</ele>
        <time>2014-07-30T06:48:59Z</time>
      </trkpt>
      <trkpt lat="43.3649910" lon="-7.4797180">
        <ele>498.7</ele>
        <time>2014-07-30T06:49:00Z</time>
      </trkpt>
      <trkpt lat="43.3649320" lon="-7.4798800">
        <ele>500.5</ele>
        <time>2014-07-30T06:49:10Z</time>
      </trkpt>
      <trkpt lat="43.3648180" lon="-7.4800440">
        <ele>502.2</ele>
        <time>2014-07-30T06:49:22Z</time>
      </trkpt>
      <trkpt lat="43.3646050" lon="-7.4802670">
        <ele>504.0</ele>
        <time>2014-07-30T06:49:37Z</time>
      </trkpt>
      <trkpt lat="43.3643680" lon="-7.4805620">
        <ele>505.8</ele>
        <time>2014-07-30T06:49:51Z</time>
      </trkpt>
      <trkpt lat="43.3641420" lon="-7.4812420">
        <ele>506.2</ele>
        <time>2014-07-30T06:50:03Z</time>
      </trkpt>
      <trkpt lat="43.3637750" lon="-7.4823320">
        <ele>503.0</ele>
        <time>2014-07-30T06:50:16Z</time>
      </trkpt>
      <trkpt lat="43.3636340" lon="-7.4833060">
        <ele>503.0</ele>
        <time>2014-07-30T06:50:26Z</time>
      </trkpt>
      <trkpt lat="43.3637050" lon="-7.4837600">
        <ele>504.1</ele>
        <time>2014-07-30T06:50:32Z</time>
      </trkpt>
      <trkpt lat="43.3637250" lon="-7.4838260">
        <ele>504.2</ele>
        <time>2014-07-30T06:50:33Z</time>
      </trkpt>
      <trkpt lat="43.3637870" lon="-7.4840850">
        <ele>504.9</ele>
        <time>2014-07-30T06:50:37Z</time>
      </trkpt>
      <trkpt lat="43.3637920" lon="-7.4841430">
        <ele>505.0</ele>
        <time>2014-07-30T06:50:38Z</time>
      </trkpt>
      <trkpt lat="43.3637920" lon="-7.4845300">
        <ele>507.4</ele>
        <time>2014-07-30T06:50:48Z</time>
      </trkpt>
      <trkpt lat="43.3638020" lon="-7.4849960">
        <ele>510.4</ele>
        <time>2014-07-30T06:51:04Z</time>
      </trkpt>
      <trkpt lat="43.3638450" lon="-7.4856090">
        <ele>514.0</ele>
        <time>2014-07-30T06:51:24Z</time>
      </trkpt>
      <trkpt lat="43.3638500" lon="-7.4862630">
        <ele>515.7</ele>
        <time>2014-07-30T06:51:42Z</time>
      </trkpt>
      <trkpt lat="43.3638130" lon="-7.4870180">
        <ele>515.5</ele>
        <time>2014-07-30T06:51:56Z</time>
      </trkpt>
      <trkpt lat="43.3637500" lon="-7.4874890">
        <ele>515.0</ele>
        <time>2014-07-30T06:52:03Z</time>
      </trkpt>
      <trkpt lat="43.3637360" lon="-7.4875580">
        <ele>515.0</ele>
        <time>2014-07-30T06:52:04Z</time>
      </trkpt>
      <trkpt lat="43.3636190" lon="-7.4879110">
        <ele>514.9</ele>
        <time>2014-07-30T06:52:13Z</time>
      </trkpt>
      <trkpt lat="43.3636410" lon="-7.4878820">
        <ele>514.6</ele>
        <time>2014-07-30T06:52:25Z</time>
      </trkpt>
      <trkpt lat="43.3636410" lon="-7.4878820">
        <ele>514.6</ele>
        <time>2014-07-30T06:52:26Z</time>
      </trkpt>
      <trkpt lat="43.3638360" lon="-7.4879670">
        <ele>513.4</ele>
        <time>2014-07-30T06:52:34Z</time>
      </trkpt>
      <trkpt lat="43.3639160" lon="-7.4880660">
        <ele>513.2</ele>
        <time>2014-07-30T06:52:37Z</time>
      </trkpt>
      <trkpt lat="43.3639310" lon="-7.4881200">
        <ele>513.1</ele>
        <time>2014-07-30T06:52:38Z</time>
      </trkpt>
      <trkpt lat="43.3639420" lon="-7.4881770">
        <ele>513.0</ele>
        <time>2014-07-30T06:52:39Z</time>
      </trkpt>
      <trkpt lat="43.3639550" lon="-7.4882390">
        <ele>512.8</ele>
        <time>2014-07-30T06:52:40Z</time>
      </trkpt>
      <trkpt lat="43.3640670" lon="-7.4889690">
        <ele>511.3</ele>
        <time>2014-07-30T06:52:52Z</time>
      </trkpt>
      <trkpt lat="43.3640840" lon="-7.4892270">
        <ele>510.3</ele>
        <time>2014-07-30T06:52:57Z</time>
      </trkpt>
      <trkpt lat="43.3640650" lon="-7.4895130">
        <ele>509.1</ele>
        <time>2014-07-30T06:53:02Z</time>
      </trkpt>
      <trkpt lat="43.3640340" lon="-7.4896250">
        <ele>508.8</ele>
        <time>2014-07-30T06:53:04Z</time>
      </trkpt>
      <trkpt lat="43.3638110" lon="-7.4898730">
        <ele>508.3</ele>
        <time>2014-07-30T06:53:10Z</time>
      </trkpt>
      <trkpt lat="43.3632210" lon="-7.4902610">
        <ele>512.4</ele>
        <time>2014-07-30T06:53:25Z</time>
      </trkpt>
      <trkpt lat="43.3629950" lon="-7.4904940">
        <ele>512.2</ele>
        <time>2014-07-30T06:53:36Z</time>
      </trkpt>
      <trkpt lat="43.3629490" lon="-7.4905270">
        <ele>511.8</ele>
        <time>2014-07-30T06:53:38Z</time>
      </trkpt>
      <trkpt lat="43.3628970" lon="-7.4906000">
        <ele>511.2</ele>
        <time>2014-07-30T06:53:42Z</time>
      </trkpt>
      <trkpt lat="43.3626870" lon="-7.4907580">
        <ele>508.9</ele>
        <time>2014-07-30T06:53:51Z</time>
      </trkpt>
      <trkpt lat="43.3626620" lon="-7.4907790">
        <ele>508.7</ele>
        <time>2014-07-30T06:53:52Z</time>
      </trkpt>
      <trkpt lat="43.3622790" lon="-7.4910990">
        <ele>505.7</ele>
        <time>2014-07-30T06:54:02Z</time>
      </trkpt>
      <trkpt lat="43.3620930" lon="-7.4913070">
        <ele>503.0</ele>
        <time>2014-07-30T06:54:07Z</time>
      </trkpt>
      <trkpt lat="43.3620580" lon="-7.4913520">
        <ele>502.3</ele>
        <time>2014-07-30T06:54:08Z</time>
      </trkpt>
      <trkpt lat="43.3619560" lon="-7.4915130">
        <ele>499.8</ele>
        <time>2014-07-30T06:54:11Z</time>
      </trkpt>
      <trkpt lat="43.3619290" lon="-7.4915740">
        <ele>498.9</ele>
        <time>2014-07-30T06:54:12Z</time>
      </trkpt>
      <trkpt lat="43.3619080" lon="-7.4916360">
        <ele>498.0</ele>
        <time>2014-07-30T06:54:13Z</time>
      </trkpt>
      <trkpt lat="43.3618910" lon="-7.4916950">
        <ele>497.1</ele>
        <time>2014-07-30T06:54:14Z</time>
      </trkpt>
      <trkpt lat="43.3618730" lon="-7.4917640">
        <ele>496.1</ele>
        <time>2014-07-30T06:54:15Z</time>
      </trkpt>
      <trkpt lat="43.3618430" lon="-7.4919470">
        <ele>493.6</ele>
        <time>2014-07-30T06:54:18Z</time>
      </trkpt>
      <trkpt lat="43.3618040" lon="-7.4922100">
        <ele>489.4</ele>
        <time>2014-07-30T06:54:23Z</time>
      </trkpt>
      <trkpt lat="43.3617640" lon="-7.4923920">
        <ele>486.8</ele>
        <time>2014-07-30T06:54:26Z</time>
      </trkpt>
      <trkpt lat="43.3617520" lon="-7.4924570">
        <ele>486.1</ele>
        <time>2014-07-30T06:54:27Z</time>
      </trkpt>
      <trkpt lat="43.3616930" lon="-7.4926880">
        <ele>483.6</ele>
        <time>2014-07-30T06:54:31Z</time>
      </trkpt>
      <trkpt lat="43.3616710" lon="-7.4927510">
        <ele>483.0</ele>
        <time>2014-07-30T06:54:32Z</time>
      </trkpt>
      <trkpt lat="43.3616540" lon="-7.4928150">
        <ele>482.5</ele>
        <time>2014-07-30T06:54:33Z</time>
      </trkpt>
      <trkpt lat="43.3616320" lon="-7.4928810">
        <ele>481.9</ele>
        <time>2014-07-30T06:54:34Z</time>
      </trkpt>
      <trkpt lat="43.3616100" lon="-7.4929420">
        <ele>481.3</ele>
        <time>2014-07-30T06:54:35Z</time>
      </trkpt>
      <trkpt lat="43.3615910" lon="-7.4930030">
        <ele>480.7</ele>
        <time>2014-07-30T06:54:36Z</time>
      </trkpt>
      <trkpt lat="43.3615660" lon="-7.4930670">
        <ele>480.0</ele>
        <time>2014-07-30T06:54:37Z</time>
      </trkpt>
      <trkpt lat="43.3615420" lon="-7.4931280">
        <ele>479.3</ele>
        <time>2014-07-30T06:54:38Z</time>
      </trkpt>
      <trkpt lat="43.3615180" lon="-7.4931920">
        <ele>478.7</ele>
        <time>2014-07-30T06:54:39Z</time>
      </trkpt>
      <trkpt lat="43.3614900" lon="-7.4932600">
        <ele>478.1</ele>
        <time>2014-07-30T06:54:40Z</time>
      </trkpt>
      <trkpt lat="43.3614060" lon="-7.4934840">
        <ele>476.4</ele>
        <time>2014-07-30T06:54:43Z</time>
      </trkpt>
      <trkpt lat="43.3613260" lon="-7.4937000">
        <ele>474.6</ele>
        <time>2014-07-30T06:54:46Z</time>
      </trkpt>
      <trkpt lat="43.3612290" lon="-7.4939360">
        <ele>472.2</ele>
        <time>2014-07-30T06:54:49Z</time>
      </trkpt>
      <trkpt lat="43.3611410" lon="-7.4941670">
        <ele>469.8</ele>
        <time>2014-07-30T06:54:52Z</time>
      </trkpt>
      <trkpt lat="43.3611120" lon="-7.4942200">
        <ele>469.3</ele>
        <time>2014-07-30T06:54:53Z</time>
      </trkpt>
      <trkpt lat="43.3610830" lon="-7.4942750">
        <ele>468.7</ele>
        <time>2014-07-30T06:54:54Z</time>
      </trkpt>
      <trkpt lat="43.3610210" lon="-7.4944030">
        <ele>467.7</ele>
        <time>2014-07-30T06:54:57Z</time>
      </trkpt>
      <trkpt lat="43.3609900" lon="-7.4944930">
        <ele>467.1</ele>
        <time>2014-07-30T06:55:00Z</time>
      </trkpt>
      <trkpt lat="43.3609880" lon="-7.4945260">
        <ele>466.9</ele>
        <time>2014-07-30T06:55:01Z</time>
      </trkpt>
      <trkpt lat="43.3609790" lon="-7.4945710">
        <ele>466.7</ele>
        <time>2014-07-30T06:55:02Z</time>
      </trkpt>
      <trkpt lat="43.3609690" lon="-7.4946040">
        <ele>466.6</ele>
        <time>2014-07-30T06:55:03Z</time>
      </trkpt>
      <trkpt lat="43.3609540" lon="-7.4946390">
        <ele>466.4</ele>
        <time>2014-07-30T06:55:04Z</time>
      </trkpt>
      <trkpt lat="43.3609370" lon="-7.4946710">
        <ele>466.3</ele>
        <time>2014-07-30T06:55:05Z</time>
      </trkpt>
      <trkpt lat="43.3609180" lon="-7.4946990">
        <ele>466.1</ele>
        <time>2014-07-30T06:55:06Z</time>
      </trkpt>
      <trkpt lat="43.3607130" lon="-7.4948780">
        <ele>465.4</ele>
        <time>2014-07-30T06:55:18Z</time>
      </trkpt>
      <trkpt lat="43.3607130" lon="-7.4948780">
        <ele>465.4</ele>
        <time>2014-07-30T06:55:38Z</time>
      </trkpt>
      <trkpt lat="43.3605880" lon="-7.4949480">
        <ele>465.2</ele>
        <time>2014-07-30T06:55:54Z</time>
      </trkpt>
      <trkpt lat="43.3602680" lon="-7.4952410">
        <ele>465.2</ele>
        <time>2014-07-30T06:56:09Z</time>
      </trkpt>
      <trkpt lat="43.3599310" lon="-7.4954930">
        <ele>464.3</ele>
        <time>2014-07-30T06:56:20Z</time>
      </trkpt>
      <trkpt lat="43.3598590" lon="-7.4955430">
        <ele>464.0</ele>
        <time>2014-07-30T06:56:22Z</time>
      </trkpt>
      <trkpt lat="43.3598270" lon="-7.4955790">
        <ele>463.9</ele>
        <time>2014-07-30T06:56:23Z</time>
      </trkpt>
      <trkpt lat="43.3598020" lon="-7.4956160">
        <ele>463.7</ele>
        <time>2014-07-30T06:56:24Z</time>
      </trkpt>
      <trkpt lat="43.3597800" lon="-7.4956650">
        <ele>463.7</ele>
        <time>2014-07-30T06:56:32Z</time>
      </trkpt>
      <trkpt lat="43.3597930" lon="-7.4957610">
        <ele>464.1</ele>
        <time>2014-07-30T06:56:41Z</time>
      </trkpt>
      <trkpt lat="43.3598000" lon="-7.4958200">
        <ele>464.4</ele>
        <time>2014-07-30T06:56:56Z</time>
      </trkpt>
      <trkpt lat="43.3597990" lon="-7.4958210">
        <ele>464.4</ele>
        <time>2014-07-30T06:57:24Z</time>
      </trkpt>
      <trkpt lat="43.3598110" lon="-7.4959030">
        <ele>464.8</ele>
        <time>2014-07-30T06:57:35Z</time>
      </trkpt>
      <trkpt lat="43.3598150" lon="-7.4959270">
        <ele>464.9</ele>
        <time>2014-07-30T06:57:36Z</time>
      </trkpt>
      <trkpt lat="43.3598250" lon="-7.4959630">
        <ele>465.1</ele>
        <time>2014-07-30T06:57:37Z</time>
      </trkpt>
      <trkpt lat="43.3598420" lon="-7.4959970">
        <ele>465.4</ele>
        <time>2014-07-30T06:57:38Z</time>
      </trkpt>
      <trkpt lat="43.3598560" lon="-7.4960350">
        <ele>465.6</ele>
        <time>2014-07-30T06:57:39Z</time>
      </trkpt>
      <trkpt lat="43.3598630" lon="-7.4960730">
        <ele>465.7</ele>
        <time>2014-07-30T06:57:40Z</time>
      </trkpt>
      <trkpt lat="43.3598670" lon="-7.4961120">
        <ele>465.9</ele>
        <time>2014-07-30T06:57:41Z</time>
      </trkpt>
      <trkpt lat="43.3598680" lon="-7.4961480">
        <ele>466.1</ele>
        <time>2014-07-30T06:57:42Z</time>
      </trkpt>
      <trkpt lat="43.3598550" lon="-7.4961840">
        <ele>466.3</ele>
        <time>2014-07-30T06:57:43Z</time>
      </trkpt>
      <trkpt lat="43.3598380" lon="-7.4962210">
        <ele>466.5</ele>
        <time>2014-07-30T06:57:44Z</time>
      </trkpt>
      <trkpt lat="43.3598210" lon="-7.4962540">
        <ele>466.7</ele>
        <time>2014-07-30T06:57:45Z</time>
      </trkpt>
      <trkpt lat="43.3598000" lon="-7.4962830">
        <ele>467.0</ele>
        <time>2014-07-30T06:57:46Z</time>
      </trkpt>
      <trkpt lat="43.3597800" lon="-7.4963030">
        <ele>467.2</ele>
        <time>2014-07-30T06:57:47Z</time>
      </trkpt>
      <trkpt lat="43.3597630" lon="-7.4963170">
        <ele>467.4</ele>
        <time>2014-07-30T06:57:48Z</time>
      </trkpt>
      <trkpt lat="43.3597440" lon="-7.4963350">
        <ele>467.6</ele>
        <time>2014-07-30T06:57:49Z</time>
      </trkpt>
      <trkpt lat="43.3595020" lon="-7.4965580">
        <ele>470.5</ele>
        <time>2014-07-30T06:58:02Z</time>
      </trkpt>
      <trkpt lat="43.3593050" lon="-7.4967470">
        <ele>473.5</ele>
        <time>2014-07-30T06:58:14Z</time>
      </trkpt>
      <trkpt lat="43.3592470" lon="-7.4968080">
        <ele>474.3</ele>
        <time>2014-07-30T06:58:18Z</time>
      </trkpt>
      <trkpt lat="43.3592320" lon="-7.4968200">
        <ele>474.5</ele>
        <time>2014-07-30T06:58:19Z</time>
      </trkpt>
      <trkpt lat="43.3592210" lon="-7.4968330">
        <ele>474.6</ele>
        <time>2014-07-30T06:58:20Z</time>
      </trkpt>
      <trkpt lat="43.3592100" lon="-7.4968470">
        <ele>474.8</ele>
        <time>2014-07-30T06:58:21Z</time>
      </trkpt>
      <trkpt lat="43.3591580" lon="-7.4969440">
        <ele>475.6</ele>
        <time>2014-07-30T06:58:29Z</time>
      </trkpt>
      <trkpt lat="43.3591490" lon="-7.4969660">
        <ele>475.8</ele>
        <time>2014-07-30T06:58:30Z</time>
      </trkpt>
      <trkpt lat="43.3591410" lon="-7.4969880">
        <ele>476.0</ele>
        <time>2014-07-30T06:58:31Z</time>
      </trkpt>
      <trkpt lat="43.3591230" lon="-7.4970890">
        <ele>476.8</ele>
        <time>2014-07-30T06:58:35Z</time>
      </trkpt>
      <trkpt lat="43.3591200" lon="-7.4971090">
        <ele>476.9</ele>
        <time>2014-07-30T06:58:36Z</time>
      </trkpt>
      <trkpt lat="43.3591160" lon="-7.4971430">
        <ele>477.2</ele>
        <time>2014-07-30T06:58:38Z</time>
      </trkpt>
      <trkpt lat="43.3591270" lon="-7.4971780">
        <ele>477.5</ele>
        <time>2014-07-30T06:58:40Z</time>
      </trkpt>
      <trkpt lat="43.3591290" lon="-7.4971950">
        <ele>477.7</ele>
        <time>2014-07-30T06:58:41Z</time>
      </trkpt>
      <trkpt lat="43.3591320" lon="-7.4972120">
        <ele>477.9</ele>
        <time>2014-07-30T06:58:42Z</time>
      </trkpt>
      <trkpt lat="43.3591340" lon="-7.4972280">
        <ele>478.0</ele>
        <time>2014-07-30T06:58:43Z</time>
      </trkpt>
      <trkpt lat="43.3591370" lon="-7.4972460">
        <ele>478.2</ele>
        <time>2014-07-30T06:58:44Z</time>
      </trkpt>
      <trkpt lat="43.3591430" lon="-7.4972600">
        <ele>478.4</ele>
        <time>2014-07-30T06:58:45Z</time>
      </trkpt>
      <trkpt lat="43.3592010" lon="-7.4974850">
        <ele>480.7</ele>
        <time>2014-07-30T06:58:59Z</time>
      </trkpt>
      <trkpt lat="43.3592730" lon="-7.4977260">
        <ele>483.2</ele>
        <time>2014-07-30T06:59:15Z</time>
      </trkpt>
      <trkpt lat="43.3593510" lon="-7.4979560">
        <ele>486.2</ele>
        <time>2014-07-30T06:59:30Z</time>
      </trkpt>
      <trkpt lat="43.3594320" lon="-7.4981620">
        <ele>489.2</ele>
        <time>2014-07-30T06:59:45Z</time>
      </trkpt>
      <trkpt lat="43.3595170" lon="-7.4984200">
        <ele>491.7</ele>
        <time>2014-07-30T07:00:02Z</time>
      </trkpt>
      <trkpt lat="43.3596020" lon="-7.4986940">
        <ele>494.2</ele>
        <time>2014-07-30T07:00:19Z</time>
      </trkpt>
      <trkpt lat="43.3596090" lon="-7.4987100">
        <ele>494.4</ele>
        <time>2014-07-30T07:00:20Z</time>
      </trkpt>
      <trkpt lat="43.3596140" lon="-7.4987250">
        <ele>494.5</ele>
        <time>2014-07-30T07:00:21Z</time>
      </trkpt>
      <trkpt lat="43.3596180" lon="-7.4987380">
        <ele>494.6</ele>
        <time>2014-07-30T07:00:22Z</time>
      </trkpt>
      <trkpt lat="43.3596220" lon="-7.4987550">
        <ele>494.7</ele>
        <time>2014-07-30T07:00:23Z</time>
      </trkpt>
      <trkpt lat="43.3597180" lon="-7.4990410">
        <ele>497.4</ele>
        <time>2014-07-30T07:00:41Z</time>
      </trkpt>
      <trkpt lat="43.3598090" lon="-7.4993100">
        <ele>499.8</ele>
        <time>2014-07-30T07:00:59Z</time>
      </trkpt>
      <trkpt lat="43.3599030" lon="-7.4995980">
        <ele>502.8</ele>
        <time>2014-07-30T07:01:17Z</time>
      </trkpt>
      <trkpt lat="43.3599600" lon="-7.4997890">
        <ele>504.7</ele>
        <time>2014-07-30T07:01:29Z</time>
      </trkpt>
      <trkpt lat="43.3599810" lon="-7.4998560">
        <ele>505.5</ele>
        <time>2014-07-30T07:01:33Z</time>
      </trkpt>
      <trkpt lat="43.3600040" lon="-7.5000580">
        <ele>507.5</ele>
        <time>2014-07-30T07:01:44Z</time>
      </trkpt>
      <trkpt lat="43.3598310" lon="-7.5001810">
        <ele>506.1</ele>
        <time>2014-07-30T07:01:51Z</time>
      </trkpt>
      <trkpt lat="43.3597800" lon="-7.5002010">
        <ele>505.8</ele>
        <time>2014-07-30T07:01:52Z</time>
      </trkpt>
      <trkpt lat="43.3597260" lon="-7.5002280">
        <ele>505.4</ele>
        <time>2014-07-30T07:01:53Z</time>
      </trkpt>
      <trkpt lat="43.3596100" lon="-7.5002980">
        <ele>504.7</ele>
        <time>2014-07-30T07:01:55Z</time>
      </trkpt>
      <trkpt lat="43.3595510" lon="-7.5003440">
        <ele>504.4</ele>
        <time>2014-07-30T07:01:56Z</time>
      </trkpt>
      <trkpt lat="43.3590740" lon="-7.5008780">
        <ele>500.8</ele>
        <time>2014-07-30T07:02:04Z</time>
      </trkpt>
      <trkpt lat="43.3586190" lon="-7.5015710">
        <ele>497.5</ele>
        <time>2014-07-30T07:02:12Z</time>
      </trkpt>
      <trkpt lat="43.3583880" lon="-7.5021730">
        <ele>496.7</ele>
        <time>2014-07-30T07:02:18Z</time>
      </trkpt>
      <trkpt lat="43.3583420" lon="-7.5022570">
        <ele>496.6</ele>
        <time>2014-07-30T07:02:19Z</time>
      </trkpt>
      <trkpt lat="43.3579920" lon="-7.5027810">
        <ele>499.0</ele>
        <time>2014-07-30T07:02:29Z</time>
      </trkpt>
      <trkpt lat="43.3578630" lon="-7.5030250">
        <ele>502.2</ele>
        <time>2014-07-30T07:02:41Z</time>
      </trkpt>
      <trkpt lat="43.3577550" lon="-7.5033110">
        <ele>504.9</ele>
        <time>2014-07-30T07:02:56Z</time>
      </trkpt>
      <trkpt lat="43.3577390" lon="-7.5036580">
        <ele>506.9</ele>
        <time>2014-07-30T07:03:12Z</time>
      </trkpt>
      <trkpt lat="43.3577520" lon="-7.5040660">
        <ele>509.0</ele>
        <time>2014-07-30T07:03:29Z</time>
      </trkpt>
      <trkpt lat="43.3576300" lon="-7.5044790">
        <ele>510.2</ele>
        <time>2014-07-30T07:03:44Z</time>
      </trkpt>
      <trkpt lat="43.3573240" lon="-7.5049230">
        <ele>511.0</ele>
        <time>2014-07-30T07:03:59Z</time>
      </trkpt>
      <trkpt lat="43.3569300" lon="-7.5054560">
        <ele>511.8</ele>
        <time>2014-07-30T07:04:10Z</time>
      </trkpt>
      <trkpt lat="43.3568460" lon="-7.5055530">
        <ele>512.8</ele>
        <time>2014-07-30T07:04:14Z</time>
      </trkpt>
      <trkpt lat="43.3566400" lon="-7.5057180">
        <ele>514.7</ele>
        <time>2014-07-30T07:04:26Z</time>
      </trkpt>
      <trkpt lat="43.3562310" lon="-7.5058160">
        <ele>516.7</ele>
        <time>2014-07-30T07:04:44Z</time>
      </trkpt>
      <trkpt lat="43.3557120" lon="-7.5058900">
        <ele>518.1</ele>
        <time>2014-07-30T07:05:02Z</time>
      </trkpt>
      <trkpt lat="43.3550330" lon="-7.5060050">
        <ele>517.0</ele>
        <time>2014-07-30T07:05:17Z</time>
      </trkpt>
      <trkpt lat="43.3549820" lon="-7.5060300">
        <ele>516.8</ele>
        <time>2014-07-30T07:05:18Z</time>
      </trkpt>
      <trkpt lat="43.3549360" lon="-7.5060680">
        <ele>517.1</ele>
        <time>2014-07-30T07:05:19Z</time>
      </trkpt>
      <trkpt lat="43.3548950" lon="-7.5061150">
        <ele>517.4</ele>
        <time>2014-07-30T07:05:20Z</time>
      </trkpt>
      <trkpt lat="43.3548570" lon="-7.5061650">
        <ele>517.6</ele>
        <time>2014-07-30T07:05:21Z</time>
      </trkpt>
      <trkpt lat="43.3545270" lon="-7.5066700">
        <ele>520.3</ele>
        <time>2014-07-30T07:05:31Z</time>
      </trkpt>
      <trkpt lat="43.3544980" lon="-7.5067120">
        <ele>520.5</ele>
        <time>2014-07-30T07:05:32Z</time>
      </trkpt>
      <trkpt lat="43.3544690" lon="-7.5067550">
        <ele>520.6</ele>
        <time>2014-07-30T07:05:33Z</time>
      </trkpt>
      <trkpt lat="43.3540990" lon="-7.5073330">
        <ele>523.4</ele>
        <time>2014-07-30T07:05:49Z</time>
      </trkpt>
      <trkpt lat="43.3536860" lon="-7.5079420">
        <ele>526.2</ele>
        <time>2014-07-30T07:06:07Z</time>
      </trkpt>
      <trkpt lat="43.3531980" lon="-7.5083420">
        <ele>527.4</ele>
        <time>2014-07-30T07:06:23Z</time>
      </trkpt>
      <trkpt lat="43.3531600" lon="-7.5083630">
        <ele>527.5</ele>
        <time>2014-07-30T07:06:24Z</time>
      </trkpt>
      <trkpt lat="43.3529730" lon="-7.5085230">
        <ele>528.2</ele>
        <time>2014-07-30T07:06:29Z</time>
      </trkpt>
      <trkpt lat="43.3528370" lon="-7.5087040">
        <ele>529.1</ele>
        <time>2014-07-30T07:06:33Z</time>
      </trkpt>
      <trkpt lat="43.3526130" lon="-7.5090620">
        <ele>531.4</ele>
        <time>2014-07-30T07:06:40Z</time>
      </trkpt>
      <trkpt lat="43.3525880" lon="-7.5091150">
        <ele>531.8</ele>
        <time>2014-07-30T07:06:41Z</time>
      </trkpt>
      <trkpt lat="43.3524160" lon="-7.5095720">
        <ele>534.9</ele>
        <time>2014-07-30T07:06:54Z</time>
      </trkpt>
      <trkpt lat="43.3522880" lon="-7.5099770">
        <ele>537.7</ele>
        <time>2014-07-30T07:07:08Z</time>
      </trkpt>
      <trkpt lat="43.3521490" lon="-7.5103860">
        <ele>539.7</ele>
        <time>2014-07-30T07:07:24Z</time>
      </trkpt>
      <trkpt lat="43.3520150" lon="-7.5107530">
        <ele>540.7</ele>
        <time>2014-07-30T07:07:39Z</time>
      </trkpt>
      <trkpt lat="43.3518800" lon="-7.5112190">
        <ele>541.3</ele>
        <time>2014-07-30T07:07:54Z</time>
      </trkpt>
      <trkpt lat="43.3516050" lon="-7.5119590">
        <ele>541.5</ele>
        <time>2014-07-30T07:08:11Z</time>
      </trkpt>
      <trkpt lat="43.3513260" lon="-7.5127600">
        <ele>541.4</ele>
        <time>2014-07-30T07:08:26Z</time>
      </trkpt>
      <trkpt lat="43.3508930" lon="-7.5140450">
        <ele>540.1</ele>
        <time>2014-07-30T07:08:45Z</time>
      </trkpt>
      <trkpt lat="43.3504100" lon="-7.5154240">
        <ele>539.9</ele>
        <time>2014-07-30T07:09:04Z</time>
      </trkpt>
      <trkpt lat="43.3501550" lon="-7.5161370">
        <ele>534.5</ele>
        <time>2014-07-30T07:09:13Z</time>
      </trkpt>
      <trkpt lat="43.3501180" lon="-7.5162050">
        <ele>534.1</ele>
        <time>2014-07-30T07:09:14Z</time>
      </trkpt>
      <trkpt lat="43.3500780" lon="-7.5162670">
        <ele>533.7</ele>
        <time>2014-07-30T07:09:15Z</time>
      </trkpt>
      <trkpt lat="43.3499960" lon="-7.5163800">
        <ele>532.9</ele>
        <time>2014-07-30T07:09:17Z</time>
      </trkpt>
      <trkpt lat="43.3495610" lon="-7.5169590">
        <ele>535.9</ele>
        <time>2014-07-30T07:09:28Z</time>
      </trkpt>
      <trkpt lat="43.3494220" lon="-7.5171250">
        <ele>537.4</ele>
        <time>2014-07-30T07:09:31Z</time>
      </trkpt>
      <trkpt lat="43.3488520" lon="-7.5178070">
        <ele>539.8</ele>
        <time>2014-07-30T07:09:42Z</time>
      </trkpt>
      <trkpt lat="43.3487970" lon="-7.5178660">
        <ele>539.6</ele>
        <time>2014-07-30T07:09:43Z</time>
      </trkpt>
      <trkpt lat="43.3482220" lon="-7.5185050">
        <ele>536.9</ele>
        <time>2014-07-30T07:09:53Z</time>
      </trkpt>
      <trkpt lat="43.3481690" lon="-7.5185810">
        <ele>536.7</ele>
        <time>2014-07-30T07:09:54Z</time>
      </trkpt>
      <trkpt lat="43.3481220" lon="-7.5186620">
        <ele>536.5</ele>
        <time>2014-07-30T07:09:55Z</time>
      </trkpt>
      <trkpt lat="43.3478190" lon="-7.5194530">
        <ele>535.3</ele>
        <time>2014-07-30T07:10:04Z</time>
      </trkpt>
      <trkpt lat="43.3478070" lon="-7.5195390">
        <ele>535.3</ele>
        <time>2014-07-30T07:10:05Z</time>
      </trkpt>
      <trkpt lat="43.3477960" lon="-7.5196240">
        <ele>535.2</ele>
        <time>2014-07-30T07:10:06Z</time>
      </trkpt>
      <trkpt lat="43.3476760" lon="-7.5206350">
        <ele>535.0</ele>
        <time>2014-07-30T07:10:18Z</time>
      </trkpt>
      <trkpt lat="43.3476500" lon="-7.5207090">
        <ele>534.9</ele>
        <time>2014-07-30T07:10:19Z</time>
      </trkpt>
      <trkpt lat="43.3476180" lon="-7.5207810">
        <ele>534.8</ele>
        <time>2014-07-30T07:10:20Z</time>
      </trkpt>
      <trkpt lat="43.3475830" lon="-7.5208510">
        <ele>534.6</ele>
        <time>2014-07-30T07:10:21Z</time>
      </trkpt>
      <trkpt lat="43.3475490" lon="-7.5209160">
        <ele>534.4</ele>
        <time>2014-07-30T07:10:22Z</time>
      </trkpt>
      <trkpt lat="43.3473110" lon="-7.5214770">
        <ele>531.8</ele>
        <time>2014-07-30T07:10:33Z</time>
      </trkpt>
      <trkpt lat="43.3472880" lon="-7.5215260">
        <ele>531.6</ele>
        <time>2014-07-30T07:10:34Z</time>
      </trkpt>
      <trkpt lat="43.3472220" lon="-7.5216460">
        <ele>531.0</ele>
        <time>2014-07-30T07:10:36Z</time>
      </trkpt>
      <trkpt lat="43.3469970" lon="-7.5220350">
        <ele>528.6</ele>
        <time>2014-07-30T07:10:42Z</time>
      </trkpt>
      <trkpt lat="43.3469730" lon="-7.5221090">
        <ele>528.1</ele>
        <time>2014-07-30T07:10:43Z</time>
      </trkpt>
      <trkpt lat="43.3469580" lon="-7.5221900">
        <ele>527.4</ele>
        <time>2014-07-30T07:10:44Z</time>
      </trkpt>
      <trkpt lat="43.3469490" lon="-7.5222730">
        <ele>527.0</ele>
        <time>2014-07-30T07:10:45Z</time>
      </trkpt>
      <trkpt lat="43.3469450" lon="-7.5223580">
        <ele>526.5</ele>
        <time>2014-07-30T07:10:46Z</time>
      </trkpt>
      <trkpt lat="43.3469570" lon="-7.5235860">
        <ele>519.5</ele>
        <time>2014-07-30T07:10:59Z</time>
      </trkpt>
      <trkpt lat="43.3470010" lon="-7.5243390">
        <ele>516.9</ele>
        <time>2014-07-30T07:11:07Z</time>
      </trkpt>
      <trkpt lat="43.3470010" lon="-7.5244380">
        <ele>516.7</ele>
        <time>2014-07-30T07:11:08Z</time>
      </trkpt>
      <trkpt lat="43.3469950" lon="-7.5245410">
        <ele>516.5</ele>
        <time>2014-07-30T07:11:09Z</time>
      </trkpt>
      <trkpt lat="43.3469230" lon="-7.5251520">
        <ele>515.1</ele>
        <time>2014-07-30T07:11:15Z</time>
      </trkpt>
      <trkpt lat="43.3469110" lon="-7.5252550">
        <ele>514.9</ele>
        <time>2014-07-30T07:11:16Z</time>
      </trkpt>
      <trkpt lat="43.3468720" lon="-7.5256760">
        <ele>513.5</ele>
        <time>2014-07-30T07:11:20Z</time>
      </trkpt>
      <trkpt lat="43.3468410" lon="-7.5259710">
        <ele>512.4</ele>
        <time>2014-07-30T07:11:23Z</time>
      </trkpt>
      <trkpt lat="43.3468000" lon="-7.5263570">
        <ele>509.9</ele>
        <time>2014-07-30T07:11:27Z</time>
      </trkpt>
      <trkpt lat="43.3467670" lon="-7.5267440">
        <ele>507.2</ele>
        <time>2014-07-30T07:11:31Z</time>
      </trkpt>
      <trkpt lat="43.3467590" lon="-7.5268260">
        <ele>506.6</ele>
        <time>2014-07-30T07:11:32Z</time>
      </trkpt>
      <trkpt lat="43.3467280" lon="-7.5269490">
        <ele>505.7</ele>
        <time>2014-07-30T07:11:34Z</time>
      </trkpt>
      <trkpt lat="43.3466180" lon="-7.5269960">
        <ele>504.9</ele>
        <time>2014-07-30T07:11:37Z</time>
      </trkpt>
      <trkpt lat="43.3460210" lon="-7.5269460">
        <ele>502.8</ele>
        <time>2014-07-30T07:11:48Z</time>
      </trkpt>
      <trkpt lat="43.3458160" lon="-7.5270650">
        <ele>501.5</ele>
        <time>2014-07-30T07:11:56Z</time>
      </trkpt>
      <trkpt lat="43.3457350" lon="-7.5277280">
        <ele>497.6</ele>
        <time>2014-07-30T07:12:05Z</time>
      </trkpt>
      <trkpt lat="43.3457170" lon="-7.5279030">
        <ele>496.6</ele>
        <time>2014-07-30T07:12:07Z</time>
      </trkpt>
      <trkpt lat="43.3456710" lon="-7.5283150">
        <ele>494.7</ele>
        <time>2014-07-30T07:12:12Z</time>
      </trkpt>
      <trkpt lat="43.3456140" lon="-7.5286440">
        <ele>493.4</ele>
        <time>2014-07-30T07:12:18Z</time>
      </trkpt>
      <trkpt lat="43.3456230" lon="-7.5290500">
        <ele>492.3</ele>
        <time>2014-07-30T07:12:24Z</time>
      </trkpt>
      <trkpt lat="43.3456480" lon="-7.5293320">
        <ele>491.6</ele>
        <time>2014-07-30T07:12:28Z</time>
      </trkpt>
      <trkpt lat="43.3456410" lon="-7.5294130">
        <ele>491.4</ele>
        <time>2014-07-30T07:12:29Z</time>
      </trkpt>
      <trkpt lat="43.3456270" lon="-7.5294870">
        <ele>491.2</ele>
        <time>2014-07-30T07:12:30Z</time>
      </trkpt>
      <trkpt lat="43.3453220" lon="-7.5303270">
        <ele>488.1</ele>
        <time>2014-07-30T07:12:40Z</time>
      </trkpt>
      <trkpt lat="43.3452530" lon="-7.5304900">
        <ele>487.5</ele>
        <time>2014-07-30T07:12:42Z</time>
      </trkpt>
      <trkpt lat="43.3452320" lon="-7.5305760">
        <ele>487.3</ele>
        <time>2014-07-30T07:12:43Z</time>
      </trkpt>
      <trkpt lat="43.3452160" lon="-7.5306720">
        <ele>487.0</ele>
        <time>2014-07-30T07:12:44Z</time>
      </trkpt>
      <trkpt lat="43.3451610" lon="-7.5315520">
        <ele>483.7</ele>
        <time>2014-07-30T07:12:53Z</time>
      </trkpt>
      <trkpt lat="43.3451740" lon="-7.5316330">
        <ele>483.4</ele>
        <time>2014-07-30T07:12:54Z</time>
      </trkpt>
      <trkpt lat="43.3451960" lon="-7.5317070">
        <ele>483.2</ele>
        <time>2014-07-30T07:12:55Z</time>
      </trkpt>
      <trkpt lat="43.3452170" lon="-7.5317800">
        <ele>483.1</ele>
        <time>2014-07-30T07:12:56Z</time>
      </trkpt>
      <trkpt lat="43.3452350" lon="-7.5318560">
        <ele>482.9</ele>
        <time>2014-07-30T07:12:57Z</time>
      </trkpt>
      <trkpt lat="43.3452860" lon="-7.5320550">
        <ele>482.4</ele>
        <time>2014-07-30T07:13:00Z</time>
      </trkpt>
      <trkpt lat="43.3453480" lon="-7.5324860">
        <ele>481.2</ele>
        <time>2014-07-30T07:13:06Z</time>
      </trkpt>
      <trkpt lat="43.3453810" lon="-7.5327090">
        <ele>480.4</ele>
        <time>2014-07-30T07:13:09Z</time>
      </trkpt>
      <trkpt lat="43.3453890" lon="-7.5330300">
        <ele>478.9</ele>
        <time>2014-07-30T07:13:13Z</time>
      </trkpt>
      <trkpt lat="43.3453790" lon="-7.5330920">
        <ele>478.7</ele>
        <time>2014-07-30T07:13:14Z</time>
      </trkpt>
      <trkpt lat="43.3453600" lon="-7.5331340">
        <ele>478.5</ele>
        <time>2014-07-30T07:13:15Z</time>
      </trkpt>
      <trkpt lat="43.3453390" lon="-7.5331590">
        <ele>478.4</ele>
        <time>2014-07-30T07:13:16Z</time>
      </trkpt>
      <trkpt lat="43.3453260" lon="-7.5331760">
        <ele>478.3</ele>
        <time>2014-07-30T07:13:17Z</time>
      </trkpt>
      <trkpt lat="43.3453340" lon="-7.5332030">
        <ele>478.3</ele>
        <time>2014-07-30T07:13:19Z</time>
      </trkpt>
      <trkpt lat="43.3453400" lon="-7.5332200">
        <ele>478.2</ele>
        <time>2014-07-30T07:13:20Z</time>
      </trkpt>
      <trkpt lat="43.3453450" lon="-7.5332490">
        <ele>478.1</ele>
        <time>2014-07-30T07:13:21Z</time>
      </trkpt>
      <trkpt lat="43.3453470" lon="-7.5332890">
        <ele>478.0</ele>
        <time>2014-07-30T07:13:22Z</time>
      </trkpt>
      <trkpt lat="43.3453440" lon="-7.5333380">
        <ele>477.9</ele>
        <time>2014-07-30T07:13:23Z</time>
      </trkpt>
      <trkpt lat="43.3453420" lon="-7.5333870">
        <ele>477.8</ele>
        <time>2014-07-30T07:13:24Z</time>
      </trkpt>
      <trkpt lat="43.3453410" lon="-7.5334330">
        <ele>477.7</ele>
        <time>2014-07-30T07:13:25Z</time>
      </trkpt>
      <trkpt lat="43.3453390" lon="-7.5334870">
        <ele>477.6</ele>
        <time>2014-07-30T07:13:26Z</time>
      </trkpt>
      <trkpt lat="43.3453380" lon="-7.5336540">
        <ele>477.3</ele>
        <time>2014-07-30T07:13:29Z</time>
      </trkpt>
      <trkpt lat="43.3453130" lon="-7.5337670">
        <ele>477.1</ele>
        <time>2014-07-30T07:13:32Z</time>
      </trkpt>
      <trkpt lat="43.3452240" lon="-7.5340400">
        <ele>476.2</ele>
        <time>2014-07-30T07:13:37Z</time>
      </trkpt>
      <trkpt lat="43.3451680" lon="-7.5342280">
        <ele>474.7</ele>
        <time>2014-07-30T07:13:40Z</time>
      </trkpt>
      <trkpt lat="43.3451480" lon="-7.5342910">
        <ele>474.2</ele>
        <time>2014-07-30T07:13:41Z</time>
      </trkpt>
      <trkpt lat="43.3450690" lon="-7.5345440">
        <ele>471.6</ele>
        <time>2014-07-30T07:13:47Z</time>
      </trkpt>
      <trkpt lat="43.3450490" lon="-7.5345720">
        <ele>471.1</ele>
        <time>2014-07-30T07:13:48Z</time>
      </trkpt>
      <trkpt lat="43.3449820" lon="-7.5346920">
        <ele>468.8</ele>
        <time>2014-07-30T07:13:53Z</time>
      </trkpt>
      <trkpt lat="43.3449340" lon="-7.5347900">
        <ele>467.2</ele>
        <time>2014-07-30T07:13:57Z</time>
      </trkpt>
      <trkpt lat="43.3448570" lon="-7.5349090">
        <ele>464.9</ele>
        <time>2014-07-30T07:14:01Z</time>
      </trkpt>
      <trkpt lat="43.3448140" lon="-7.5349780">
        <ele>463.8</ele>
        <time>2014-07-30T07:14:03Z</time>
      </trkpt>
      <trkpt lat="43.3447910" lon="-7.5350250">
        <ele>462.9</ele>
        <time>2014-07-30T07:14:04Z</time>
      </trkpt>
      <trkpt lat="43.3447650" lon="-7.5350860">
        <ele>461.8</ele>
        <time>2014-07-30T07:14:05Z</time>
      </trkpt>
      <trkpt lat="43.3447410" lon="-7.5351460">
        <ele>460.7</ele>
        <time>2014-07-30T07:14:06Z</time>
      </trkpt>
      <trkpt lat="43.3447190" lon="-7.5352060">
        <ele>459.7</ele>
        <time>2014-07-30T07:14:07Z</time>
      </trkpt>
      <trkpt lat="43.3447040" lon="-7.5352720">
        <ele>458.8</ele>
        <time>2014-07-30T07:14:08Z</time>
      </trkpt>
      <trkpt lat="43.3446930" lon="-7.5353470">
        <ele>457.7</ele>
        <time>2014-07-30T07:14:09Z</time>
      </trkpt>
      <trkpt lat="43.3446780" lon="-7.5354220">
        <ele>456.7</ele>
        <time>2014-07-30T07:14:10Z</time>
      </trkpt>
      <trkpt lat="43.3446690" lon="-7.5354890">
        <ele>455.8</ele>
        <time>2014-07-30T07:14:11Z</time>
      </trkpt>
      <trkpt lat="43.3446560" lon="-7.5355630">
        <ele>454.4</ele>
        <time>2014-07-30T07:14:12Z</time>
      </trkpt>
      <trkpt lat="43.3446330" lon="-7.5356420">
        <ele>453.2</ele>
        <time>2014-07-30T07:14:13Z</time>
      </trkpt>
      <trkpt lat="43.3446010" lon="-7.5357230">
        <ele>451.9</ele>
        <time>2014-07-30T07:14:14Z</time>
      </trkpt>
      <trkpt lat="43.3445660" lon="-7.5358140">
        <ele>450.3</ele>
        <time>2014-07-30T07:14:15Z</time>
      </trkpt>
      <trkpt lat="43.3445410" lon="-7.5359020">
        <ele>448.7</ele>
        <time>2014-07-30T07:14:16Z</time>
      </trkpt>
      <trkpt lat="43.3445130" lon="-7.5359890">
        <ele>447.5</ele>
        <time>2014-07-30T07:14:17Z</time>
      </trkpt>
      <trkpt lat="43.3444850" lon="-7.5360750">
        <ele>446.8</ele>
        <time>2014-07-30T07:14:18Z</time>
      </trkpt>
      <trkpt lat="43.3444580" lon="-7.5361610">
        <ele>446.3</ele>
        <time>2014-07-30T07:14:19Z</time>
      </trkpt>
      <trkpt lat="43.3444370" lon="-7.5362380">
        <ele>446.2</ele>
        <time>2014-07-30T07:14:20Z</time>
      </trkpt>
      <trkpt lat="43.3444200" lon="-7.5363070">
        <ele>446.2</ele>
        <time>2014-07-30T07:14:21Z</time>
      </trkpt>
      <trkpt lat="43.3444060" lon="-7.5363670">
        <ele>446.4</ele>
        <time>2014-07-30T07:14:22Z</time>
      </trkpt>
      <trkpt lat="43.3443910" lon="-7.5364120">
        <ele>446.7</ele>
        <time>2014-07-30T07:14:23Z</time>
      </trkpt>
      <trkpt lat="43.3443790" lon="-7.5364450">
        <ele>447.0</ele>
        <time>2014-07-30T07:14:24Z</time>
      </trkpt>
      <trkpt lat="43.3443350" lon="-7.5366000">
        <ele>448.3</ele>
        <time>2014-07-30T07:14:28Z</time>
      </trkpt>
      <trkpt lat="43.3443340" lon="-7.5366450">
        <ele>448.9</ele>
        <time>2014-07-30T07:14:29Z</time>
      </trkpt>
      <trkpt lat="43.3443360" lon="-7.5366880">
        <ele>449.4</ele>
        <time>2014-07-30T07:14:30Z</time>
      </trkpt>
      <trkpt lat="43.3443410" lon="-7.5367240">
        <ele>450.7</ele>
        <time>2014-07-30T07:14:31Z</time>
      </trkpt>
      <trkpt lat="43.3443460" lon="-7.5367550">
        <ele>450.9</ele>
        <time>2014-07-30T07:14:32Z</time>
      </trkpt>
      <trkpt lat="43.3443540" lon="-7.5368290">
        <ele>451.3</ele>
        <time>2014-07-30T07:14:44Z</time>
      </trkpt>
      <trkpt lat="43.3443540" lon="-7.5368290">
        <ele>451.3</ele>
        <time>2014-07-30T07:15:06Z</time>
      </trkpt>
      <trkpt lat="43.3443550" lon="-7.5368290">
        <ele>451.3</ele>
        <time>2014-07-30T07:15:29Z</time>
      </trkpt>
      <trkpt lat="43.3443570" lon="-7.5368470">
        <ele>451.4</ele>
        <time>2014-07-30T07:15:52Z</time>
      </trkpt>
      <trkpt lat="43.3443620" lon="-7.5368700">
        <ele>451.5</ele>
        <time>2014-07-30T07:15:53Z</time>
      </trkpt>
      <trkpt lat="43.3443720" lon="-7.5368940">
        <ele>451.5</ele>
        <time>2014-07-30T07:15:54Z</time>
      </trkpt>
      <trkpt lat="43.3443860" lon="-7.5369220">
        <ele>451.7</ele>
        <time>2014-07-30T07:15:55Z</time>
      </trkpt>
      <trkpt lat="43.3444010" lon="-7.5369550">
        <ele>451.8</ele>
        <time>2014-07-30T07:15:56Z</time>
      </trkpt>
      <trkpt lat="43.3444140" lon="-7.5369920">
        <ele>451.9</ele>
        <time>2014-07-30T07:15:57Z</time>
      </trkpt>
      <trkpt lat="43.3444230" lon="-7.5370320">
        <ele>452.0</ele>
        <time>2014-07-30T07:15:58Z</time>
      </trkpt>
      <trkpt lat="43.3444180" lon="-7.5371000">
        <ele>451.8</ele>
        <time>2014-07-30T07:15:59Z</time>
      </trkpt>
      <trkpt lat="43.3444110" lon="-7.5371630">
        <ele>451.7</ele>
        <time>2014-07-30T07:16:00Z</time>
      </trkpt>
      <trkpt lat="43.3444000" lon="-7.5372120">
        <ele>451.5</ele>
        <time>2014-07-30T07:16:01Z</time>
      </trkpt>
      <trkpt lat="43.3443870" lon="-7.5372610">
        <ele>451.4</ele>
        <time>2014-07-30T07:16:02Z</time>
      </trkpt>
      <trkpt lat="43.3443720" lon="-7.5373100">
        <ele>451.2</ele>
        <time>2014-07-30T07:16:03Z</time>
      </trkpt>
      <trkpt lat="43.3442420" lon="-7.5377820">
        <ele>449.8</ele>
        <time>2014-07-30T07:16:14Z</time>
      </trkpt>
      <trkpt lat="43.3441740" lon="-7.5381340">
        <ele>449.0</ele>
        <time>2014-07-30T07:16:27Z</time>
      </trkpt>
      <trkpt lat="43.3441450" lon="-7.5384330">
        <ele>450.0</ele>
        <time>2014-07-30T07:16:40Z</time>
      </trkpt>
      <trkpt lat="43.3441560" lon="-7.5385330">
        <ele>450.3</ele>
        <time>2014-07-30T07:16:45Z</time>
      </trkpt>
      <trkpt lat="43.3443600" lon="-7.5388800">
        <ele>453.9</ele>
        <time>2014-07-30T07:17:04Z</time>
      </trkpt>
      <trkpt lat="43.3445180" lon="-7.5392150">
        <ele>457.2</ele>
        <time>2014-07-30T07:17:19Z</time>
      </trkpt>
      <trkpt lat="43.3444120" lon="-7.5395730">
        <ele>459.3</ele>
        <time>2014-07-30T07:17:34Z</time>
      </trkpt>
      <trkpt lat="43.3440780" lon="-7.5399580">
        <ele>460.3</ele>
        <time>2014-07-30T07:17:50Z</time>
      </trkpt>
      <trkpt lat="43.3439110" lon="-7.5403830">
        <ele>460.7</ele>
        <time>2014-07-30T07:18:02Z</time>
      </trkpt>
      <trkpt lat="43.3438370" lon="-7.5408930">
        <ele>461.1</ele>
        <time>2014-07-30T07:18:16Z</time>
      </trkpt>
      <trkpt lat="43.3437540" lon="-7.5414740">
        <ele>461.7</ele>
        <time>2014-07-30T07:18:31Z</time>
      </trkpt>
      <trkpt lat="43.3436740" lon="-7.5423310">
        <ele>463.4</ele>
        <time>2014-07-30T07:18:51Z</time>
      </trkpt>
      <trkpt lat="43.3437450" lon="-7.5428420">
        <ele>464.7</ele>
        <time>2014-07-30T07:19:03Z</time>
      </trkpt>
      <trkpt lat="43.3437480" lon="-7.5430000">
        <ele>465.3</ele>
        <time>2014-07-30T07:19:07Z</time>
      </trkpt>
      <trkpt lat="43.3436490" lon="-7.5430860">
        <ele>465.9</ele>
        <time>2014-07-30T07:19:11Z</time>
      </trkpt>
      <trkpt lat="43.3433560" lon="-7.5434010">
        <ele>466.8</ele>
        <time>2014-07-30T07:19:22Z</time>
      </trkpt>
      <trkpt lat="43.3433410" lon="-7.5434540">
        <ele>466.9</ele>
        <time>2014-07-30T07:19:23Z</time>
      </trkpt>
      <trkpt lat="43.3433350" lon="-7.5435090">
        <ele>466.9</ele>
        <time>2014-07-30T07:19:24Z</time>
      </trkpt>
      <trkpt lat="43.3433380" lon="-7.5435670">
        <ele>466.9</ele>
        <time>2014-07-30T07:19:25Z</time>
      </trkpt>
      <trkpt lat="43.3433470" lon="-7.5436260">
        <ele>466.9</ele>
        <time>2014-07-30T07:19:26Z</time>
      </trkpt>
      <trkpt lat="43.3433570" lon="-7.5436840">
        <ele>466.9</ele>
        <time>2014-07-30T07:19:27Z</time>
      </trkpt>
      <trkpt lat="43.3436000" lon="-7.5444600">
        <ele>467.5</ele>
        <time>2014-07-30T07:19:43Z</time>
      </trkpt>
      <trkpt lat="43.3436250" lon="-7.5447220">
        <ele>467.6</ele>
        <time>2014-07-30T07:19:52Z</time>
      </trkpt>
      <trkpt lat="43.3435830" lon="-7.5450050">
        <ele>467.4</ele>
        <time>2014-07-30T07:19:58Z</time>
      </trkpt>
      <trkpt lat="43.3435810" lon="-7.5450670">
        <ele>467.3</ele>
        <time>2014-07-30T07:19:59Z</time>
      </trkpt>
      <trkpt lat="43.3435810" lon="-7.5453300">
        <ele>467.0</ele>
        <time>2014-07-30T07:20:03Z</time>
      </trkpt>
      <trkpt lat="43.3435710" lon="-7.5454670">
        <ele>466.8</ele>
        <time>2014-07-30T07:20:05Z</time>
      </trkpt>
      <trkpt lat="43.3435570" lon="-7.5455350">
        <ele>466.8</ele>
        <time>2014-07-30T07:20:06Z</time>
      </trkpt>
      <trkpt lat="43.3435350" lon="-7.5456020">
        <ele>466.7</ele>
        <time>2014-07-30T07:20:07Z</time>
      </trkpt>
      <trkpt lat="43.3431040" lon="-7.5465300">
        <ele>464.0</ele>
        <time>2014-07-30T07:20:21Z</time>
      </trkpt>
      <trkpt lat="43.3430650" lon="-7.5465950">
        <ele>463.7</ele>
        <time>2014-07-30T07:20:22Z</time>
      </trkpt>
      <trkpt lat="43.3429420" lon="-7.5468150">
        <ele>462.6</ele>
        <time>2014-07-30T07:20:25Z</time>
      </trkpt>
      <trkpt lat="43.3429060" lon="-7.5469090">
        <ele>462.1</ele>
        <time>2014-07-30T07:20:26Z</time>
      </trkpt>
      <trkpt lat="43.3428790" lon="-7.5470080">
        <ele>461.6</ele>
        <time>2014-07-30T07:20:27Z</time>
      </trkpt>
      <trkpt lat="43.3428290" lon="-7.5472170">
        <ele>460.7</ele>
        <time>2014-07-30T07:20:29Z</time>
      </trkpt>
      <trkpt lat="43.3425990" lon="-7.5479570">
        <ele>457.8</ele>
        <time>2014-07-30T07:20:36Z</time>
      </trkpt>
      <trkpt lat="43.3425660" lon="-7.5480680">
        <ele>457.2</ele>
        <time>2014-07-30T07:20:37Z</time>
      </trkpt>
      <trkpt lat="43.3425380" lon="-7.5481860">
        <ele>456.5</ele>
        <time>2014-07-30T07:20:38Z</time>
      </trkpt>
      <trkpt lat="43.3423880" lon="-7.5491270">
        <ele>453.6</ele>
        <time>2014-07-30T07:20:46Z</time>
      </trkpt>
      <trkpt lat="43.3423560" lon="-7.5493270">
        <ele>453.1</ele>
        <time>2014-07-30T07:20:48Z</time>
      </trkpt>
      <trkpt lat="43.3422110" lon="-7.5498940">
        <ele>452.0</ele>
        <time>2014-07-30T07:20:54Z</time>
      </trkpt>
      <trkpt lat="43.3422010" lon="-7.5499840">
        <ele>451.9</ele>
        <time>2014-07-30T07:20:55Z</time>
      </trkpt>
      <trkpt lat="43.3421940" lon="-7.5501440">
        <ele>451.7</ele>
        <time>2014-07-30T07:20:57Z</time>
      </trkpt>
      <trkpt lat="43.3421880" lon="-7.5507220">
        <ele>452.2</ele>
        <time>2014-07-30T07:21:06Z</time>
      </trkpt>
      <trkpt lat="43.3421770" lon="-7.5507810">
        <ele>452.2</ele>
        <time>2014-07-30T07:21:07Z</time>
      </trkpt>
      <trkpt lat="43.3421640" lon="-7.5508380">
        <ele>452.2</ele>
        <time>2014-07-30T07:21:08Z</time>
      </trkpt>
      <trkpt lat="43.3420590" lon="-7.5514140">
        <ele>452.2</ele>
        <time>2014-07-30T07:21:18Z</time>
      </trkpt>
      <trkpt lat="43.3420540" lon="-7.5514740">
        <ele>452.1</ele>
        <time>2014-07-30T07:21:19Z</time>
      </trkpt>
      <trkpt lat="43.3420220" lon="-7.5518130">
        <ele>451.6</ele>
        <time>2014-07-30T07:21:25Z</time>
      </trkpt>
      <trkpt lat="43.3420200" lon="-7.5518700">
        <ele>451.5</ele>
        <time>2014-07-30T07:21:26Z</time>
      </trkpt>
      <trkpt lat="43.3420160" lon="-7.5519260">
        <ele>451.3</ele>
        <time>2014-07-30T07:21:27Z</time>
      </trkpt>
      <trkpt lat="43.3420090" lon="-7.5519850">
        <ele>451.2</ele>
        <time>2014-07-30T07:21:28Z</time>
      </trkpt>
      <trkpt lat="43.3419900" lon="-7.5520430">
        <ele>450.9</ele>
        <time>2014-07-30T07:21:29Z</time>
      </trkpt>
      <trkpt lat="43.3419640" lon="-7.5520970">
        <ele>450.8</ele>
        <time>2014-07-30T07:21:30Z</time>
      </trkpt>
      <trkpt lat="43.3417610" lon="-7.5524210">
        <ele>449.9</ele>
        <time>2014-07-30T07:21:36Z</time>
      </trkpt>
      <trkpt lat="43.3416570" lon="-7.5525440">
        <ele>449.3</ele>
        <time>2014-07-30T07:21:39Z</time>
      </trkpt>
      <trkpt lat="43.3415810" lon="-7.5526120">
        <ele>448.8</ele>
        <time>2014-07-30T07:21:41Z</time>
      </trkpt>
      <trkpt lat="43.3415410" lon="-7.5526400">
        <ele>448.6</ele>
        <time>2014-07-30T07:21:42Z</time>
      </trkpt>
      <trkpt lat="43.3413490" lon="-7.5528110">
        <ele>447.6</ele>
        <time>2014-07-30T07:21:47Z</time>
      </trkpt>
      <trkpt lat="43.3412320" lon="-7.5529540">
        <ele>446.3</ele>
        <time>2014-07-30T07:21:50Z</time>
      </trkpt>
      <trkpt lat="43.3411860" lon="-7.5529960">
        <ele>446.0</ele>
        <time>2014-07-30T07:21:51Z</time>
      </trkpt>
      <trkpt lat="43.3411400" lon="-7.5530310">
        <ele>445.7</ele>
        <time>2014-07-30T07:21:52Z</time>
      </trkpt>
      <trkpt lat="43.3410950" lon="-7.5530640">
        <ele>445.4</ele>
        <time>2014-07-30T07:21:53Z</time>
      </trkpt>
      <trkpt lat="43.3410480" lon="-7.5531020">
        <ele>444.9</ele>
        <time>2014-07-30T07:21:54Z</time>
      </trkpt>
      <trkpt lat="43.3407770" lon="-7.5533500">
        <ele>442.7</ele>
        <time>2014-07-30T07:22:00Z</time>
      </trkpt>
      <trkpt lat="43.3407420" lon="-7.5533830">
        <ele>442.5</ele>
        <time>2014-07-30T07:22:01Z</time>
      </trkpt>
      <trkpt lat="43.3407090" lon="-7.5534180">
        <ele>442.2</ele>
        <time>2014-07-30T07:22:08Z</time>
      </trkpt>
      <trkpt lat="43.3405500" lon="-7.5535790">
        <ele>440.8</ele>
        <time>2014-07-30T07:22:19Z</time>
      </trkpt>
      <trkpt lat="43.3402610" lon="-7.5538870">
        <ele>439.1</ele>
        <time>2014-07-30T07:22:27Z</time>
      </trkpt>
      <trkpt lat="43.3400880" lon="-7.5540570">
        <ele>438.0</ele>
        <time>2014-07-30T07:22:31Z</time>
      </trkpt>
      <trkpt lat="43.3398830" lon="-7.5543110">
        <ele>437.1</ele>
        <time>2014-07-30T07:22:36Z</time>
      </trkpt>
      <trkpt lat="43.3398330" lon="-7.5543530">
        <ele>436.9</ele>
        <time>2014-07-30T07:22:37Z</time>
      </trkpt>
      <trkpt lat="43.3397800" lon="-7.5543870">
        <ele>436.7</ele>
        <time>2014-07-30T07:22:38Z</time>
      </trkpt>
      <trkpt lat="43.3396800" lon="-7.5544430">
        <ele>436.5</ele>
        <time>2014-07-30T07:22:40Z</time>
      </trkpt>
      <trkpt lat="43.3396300" lon="-7.5544710">
        <ele>436.4</ele>
        <time>2014-07-30T07:22:41Z</time>
      </trkpt>
      <trkpt lat="43.3395790" lon="-7.5545070">
        <ele>436.2</ele>
        <time>2014-07-30T07:22:42Z</time>
      </trkpt>
      <trkpt lat="43.3395290" lon="-7.5545420">
        <ele>436.1</ele>
        <time>2014-07-30T07:22:43Z</time>
      </trkpt>
      <trkpt lat="43.3394780" lon="-7.5545720">
        <ele>436.0</ele>
        <time>2014-07-30T07:22:44Z</time>
      </trkpt>
      <trkpt lat="43.3392800" lon="-7.5547280">
        <ele>435.6</ele>
        <time>2014-07-30T07:22:48Z</time>
      </trkpt>
      <trkpt lat="43.3392330" lon="-7.5547790">
        <ele>435.4</ele>
        <time>2014-07-30T07:22:49Z</time>
      </trkpt>
      <trkpt lat="43.3388570" lon="-7.5551810">
        <ele>434.5</ele>
        <time>2014-07-30T07:22:58Z</time>
      </trkpt>
      <trkpt lat="43.3387390" lon="-7.5552940">
        <ele>434.3</ele>
        <time>2014-07-30T07:23:01Z</time>
      </trkpt>
      <trkpt lat="43.3386970" lon="-7.5553350">
        <ele>434.2</ele>
        <time>2014-07-30T07:23:02Z</time>
      </trkpt>
      <trkpt lat="43.3386570" lon="-7.5553750">
        <ele>434.2</ele>
        <time>2014-07-30T07:23:03Z</time>
      </trkpt>
      <trkpt lat="43.3386240" lon="-7.5554140">
        <ele>434.2</ele>
        <time>2014-07-30T07:23:04Z</time>
      </trkpt>
      <trkpt lat="43.3385970" lon="-7.5554500">
        <ele>434.2</ele>
        <time>2014-07-30T07:23:05Z</time>
      </trkpt>
      <trkpt lat="43.3385650" lon="-7.5554820">
        <ele>434.2</ele>
        <time>2014-07-30T07:23:06Z</time>
      </trkpt>
      <trkpt lat="43.3384960" lon="-7.5555560">
        <ele>434.2</ele>
        <time>2014-07-30T07:23:08Z</time>
      </trkpt>
      <trkpt lat="43.3383890" lon="-7.5556720">
        <ele>434.1</ele>
        <time>2014-07-30T07:23:11Z</time>
      </trkpt>
      <trkpt lat="43.3383560" lon="-7.5557060">
        <ele>434.1</ele>
        <time>2014-07-30T07:23:12Z</time>
      </trkpt>
      <trkpt lat="43.3380780" lon="-7.5563130">
        <ele>433.7</ele>
        <time>2014-07-30T07:23:25Z</time>
      </trkpt>
      <trkpt lat="43.3380050" lon="-7.5566240">
        <ele>433.8</ele>
        <time>2014-07-30T07:23:37Z</time>
      </trkpt>
      <trkpt lat="43.3379690" lon="-7.5568160">
        <ele>433.6</ele>
        <time>2014-07-30T07:23:56Z</time>
      </trkpt>
      <trkpt lat="43.3377630" lon="-7.5575750">
        <ele>432.0</ele>
        <time>2014-07-30T07:24:08Z</time>
      </trkpt>
      <trkpt lat="43.3377360" lon="-7.5576230">
        <ele>431.9</ele>
        <time>2014-07-30T07:24:09Z</time>
      </trkpt>
      <trkpt lat="43.3377010" lon="-7.5576570">
        <ele>431.7</ele>
        <time>2014-07-30T07:24:10Z</time>
      </trkpt>
      <trkpt lat="43.3376640" lon="-7.5576760">
        <ele>431.6</ele>
        <time>2014-07-30T07:24:11Z</time>
      </trkpt>
      <trkpt lat="43.3376230" lon="-7.5576790">
        <ele>431.5</ele>
        <time>2014-07-30T07:24:12Z</time>
      </trkpt>
      <trkpt lat="43.3374910" lon="-7.5576430">
        <ele>431.1</ele>
        <time>2014-07-30T07:24:15Z</time>
      </trkpt>
      <trkpt lat="43.3372010" lon="-7.5575370">
        <ele>430.4</ele>
        <time>2014-07-30T07:24:21Z</time>
      </trkpt>
      <trkpt lat="43.3371750" lon="-7.5575990">
        <ele>430.4</ele>
        <time>2014-07-30T07:24:22Z</time>
      </trkpt>
      <trkpt lat="43.3371710" lon="-7.5576300">
        <ele>430.5</ele>
        <time>2014-07-30T07:24:23Z</time>
      </trkpt>
      <trkpt lat="43.3371620" lon="-7.5576690">
        <ele>430.6</ele>
        <time>2014-07-30T07:24:24Z</time>
      </trkpt>
      <trkpt lat="43.3371570" lon="-7.5577160">
        <ele>430.8</ele>
        <time>2014-07-30T07:24:25Z</time>
      </trkpt>
      <trkpt lat="43.3371500" lon="-7.5577580">
        <ele>430.9</ele>
        <time>2014-07-30T07:24:26Z</time>
      </trkpt>
      <trkpt lat="43.3371380" lon="-7.5577940">
        <ele>430.9</ele>
        <time>2014-07-30T07:24:27Z</time>
      </trkpt>
      <trkpt lat="43.3371230" lon="-7.5578280">
        <ele>431.0</ele>
        <time>2014-07-30T07:24:28Z</time>
      </trkpt>
      <trkpt lat="43.3367020" lon="-7.5584300">
        <ele>432.2</ele>
        <time>2014-07-30T07:24:46Z</time>
      </trkpt>
      <trkpt lat="43.3361870" lon="-7.5590100">
        <ele>432.7</ele>
        <time>2014-07-30T07:25:04Z</time>
      </trkpt>
      <trkpt lat="43.3355520" lon="-7.5596450">
        <ele>431.5</ele>
        <time>2014-07-30T07:25:22Z</time>
      </trkpt>
      <trkpt lat="43.3348930" lon="-7.5602710">
        <ele>429.9</ele>
        <time>2014-07-30T07:25:39Z</time>
      </trkpt>
      <trkpt lat="43.3342130" lon="-7.5609030">
        <ele>430.0</ele>
        <time>2014-07-30T07:25:56Z</time>
      </trkpt>
      <trkpt lat="43.3336260" lon="-7.5614080">
        <ele>429.9</ele>
        <time>2014-07-30T07:26:11Z</time>
      </trkpt>
      <trkpt lat="43.3335630" lon="-7.5614640">
        <ele>429.7</ele>
        <time>2014-07-30T07:26:22Z</time>
      </trkpt>
      <trkpt lat="43.3331570" lon="-7.5618490">
        <ele>430.5</ele>
        <time>2014-07-30T07:26:35Z</time>
      </trkpt>
      <trkpt lat="43.3324210" lon="-7.5625080">
        <ele>430.6</ele>
        <time>2014-07-30T07:26:53Z</time>
      </trkpt>
      <trkpt lat="43.3319040" lon="-7.5627870">
        <ele>433.0</ele>
        <time>2014-07-30T07:27:06Z</time>
      </trkpt>
      <trkpt lat="43.3314110" lon="-7.5631310">
        <ele>434.9</ele>
        <time>2014-07-30T07:27:23Z</time>
      </trkpt>
      <trkpt lat="43.3311540" lon="-7.5636490">
        <ele>436.5</ele>
        <time>2014-07-30T07:27:37Z</time>
      </trkpt>
      <trkpt lat="43.3307910" lon="-7.5642130">
        <ele>438.5</ele>
        <time>2014-07-30T07:27:53Z</time>
      </trkpt>
      <trkpt lat="43.3305300" lon="-7.5646070">
        <ele>439.0</ele>
        <time>2014-07-30T07:28:03Z</time>
      </trkpt>
      <trkpt lat="43.3303100" lon="-7.5649550">
        <ele>439.0</ele>
        <time>2014-07-30T07:28:11Z</time>
      </trkpt>
      <trkpt lat="43.3302730" lon="-7.5649870">
        <ele>439.0</ele>
        <time>2014-07-30T07:28:12Z</time>
      </trkpt>
      <trkpt lat="43.3299590" lon="-7.5652030">
        <ele>438.7</ele>
        <time>2014-07-30T07:28:20Z</time>
      </trkpt>
      <trkpt lat="43.3296750" lon="-7.5654270">
        <ele>437.7</ele>
        <time>2014-07-30T07:28:27Z</time>
      </trkpt>
      <trkpt lat="43.3294770" lon="-7.5655590">
        <ele>436.4</ele>
        <time>2014-07-30T07:28:31Z</time>
      </trkpt>
      <trkpt lat="43.3293550" lon="-7.5656550">
        <ele>435.7</ele>
        <time>2014-07-30T07:28:33Z</time>
      </trkpt>
      <trkpt lat="43.3289840" lon="-7.5661030">
        <ele>431.8</ele>
        <time>2014-07-30T07:28:41Z</time>
      </trkpt>
      <trkpt lat="43.3286590" lon="-7.5665370">
        <ele>428.3</ele>
        <time>2014-07-30T07:28:48Z</time>
      </trkpt>
      <trkpt lat="43.3286110" lon="-7.5666000">
        <ele>427.9</ele>
        <time>2014-07-30T07:28:49Z</time>
      </trkpt>
      <trkpt lat="43.3282280" lon="-7.5671580">
        <ele>426.5</ele>
        <time>2014-07-30T07:28:57Z</time>
      </trkpt>
      <trkpt lat="43.3281850" lon="-7.5672280">
        <ele>426.5</ele>
        <time>2014-07-30T07:28:58Z</time>
      </trkpt>
      <trkpt lat="43.3281080" lon="-7.5673360">
        <ele>426.4</ele>
        <time>2014-07-30T07:29:00Z</time>
      </trkpt>
      <trkpt lat="43.3279140" lon="-7.5674930">
        <ele>426.4</ele>
        <time>2014-07-30T07:29:09Z</time>
      </trkpt>
      <trkpt lat="43.3278950" lon="-7.5675120">
        <ele>426.5</ele>
        <time>2014-07-30T07:29:20Z</time>
      </trkpt>
      <trkpt lat="43.3278650" lon="-7.5675290">
        <ele>426.5</ele>
        <time>2014-07-30T07:29:46Z</time>
      </trkpt>
      <trkpt lat="43.3278510" lon="-7.5675370">
        <ele>426.5</ele>
        <time>2014-07-30T07:29:47Z</time>
      </trkpt>
      <trkpt lat="43.3278370" lon="-7.5675440">
        <ele>426.5</ele>
        <time>2014-07-30T07:29:48Z</time>
      </trkpt>
      <trkpt lat="43.3278220" lon="-7.5675540">
        <ele>426.6</ele>
        <time>2014-07-30T07:29:49Z</time>
      </trkpt>
      <trkpt lat="43.3278040" lon="-7.5675710">
        <ele>426.6</ele>
        <time>2014-07-30T07:29:50Z</time>
      </trkpt>
      <trkpt lat="43.3277870" lon="-7.5675890">
        <ele>426.6</ele>
        <time>2014-07-30T07:29:51Z</time>
      </trkpt>
      <trkpt lat="43.3277710" lon="-7.5676120">
        <ele>426.7</ele>
        <time>2014-07-30T07:29:52Z</time>
      </trkpt>
      <trkpt lat="43.3277510" lon="-7.5676380">
        <ele>426.7</ele>
        <time>2014-07-30T07:29:53Z</time>
      </trkpt>
      <trkpt lat="43.3277330" lon="-7.5676600">
        <ele>426.8</ele>
        <time>2014-07-30T07:29:54Z</time>
      </trkpt>
      <trkpt lat="43.3275770" lon="-7.5680390">
        <ele>428.3</ele>
        <time>2014-07-30T07:30:06Z</time>
      </trkpt>
      <trkpt lat="43.3274680" lon="-7.5685420">
        <ele>430.0</ele>
        <time>2014-07-30T07:30:21Z</time>
      </trkpt>
      <trkpt lat="43.3273430" lon="-7.5690530">
        <ele>431.6</ele>
        <time>2014-07-30T07:30:35Z</time>
      </trkpt>
      <trkpt lat="43.3272520" lon="-7.5694920">
        <ele>433.4</ele>
        <time>2014-07-30T07:30:47Z</time>
      </trkpt>
      <trkpt lat="43.3271680" lon="-7.5699080">
        <ele>435.0</ele>
        <time>2014-07-30T07:31:00Z</time>
      </trkpt>
      <trkpt lat="43.3270810" lon="-7.5703590">
        <ele>436.7</ele>
        <time>2014-07-30T07:31:13Z</time>
      </trkpt>
      <trkpt lat="43.3269800" lon="-7.5708690">
        <ele>438.8</ele>
        <time>2014-07-30T07:31:28Z</time>
      </trkpt>
      <trkpt lat="43.3269550" lon="-7.5711470">
        <ele>439.8</ele>
        <time>2014-07-30T07:31:37Z</time>
      </trkpt>
      <trkpt lat="43.3269140" lon="-7.5717010">
        <ele>441.4</ele>
        <time>2014-07-30T07:31:54Z</time>
      </trkpt>
      <trkpt lat="43.3268550" lon="-7.5721360">
        <ele>442.4</ele>
        <time>2014-07-30T07:32:09Z</time>
      </trkpt>
      <trkpt lat="43.3268480" lon="-7.5722300">
        <ele>442.6</ele>
        <time>2014-07-30T07:32:12Z</time>
      </trkpt>
      <trkpt lat="43.3268410" lon="-7.5722590">
        <ele>442.7</ele>
        <time>2014-07-30T07:32:13Z</time>
      </trkpt>
      <trkpt lat="43.3268370" lon="-7.5722890">
        <ele>442.7</ele>
        <time>2014-07-30T07:32:14Z</time>
      </trkpt>
      <trkpt lat="43.3268070" lon="-7.5726050">
        <ele>443.3</ele>
        <time>2014-07-30T07:32:24Z</time>
      </trkpt>
      <trkpt lat="43.3268090" lon="-7.5726460">
        <ele>443.3</ele>
        <time>2014-07-30T07:32:25Z</time>
      </trkpt>
      <trkpt lat="43.3267290" lon="-7.5732070">
        <ele>444.0</ele>
        <time>2014-07-30T07:32:39Z</time>
      </trkpt>
      <trkpt lat="43.3266780" lon="-7.5738670">
        <ele>444.3</ele>
        <time>2014-07-30T07:32:54Z</time>
      </trkpt>
      <trkpt lat="43.3264690" lon="-7.5746720">
        <ele>445.9</ele>
        <time>2014-07-30T07:33:08Z</time>
      </trkpt>
      <trkpt lat="43.3261790" lon="-7.5755430">
        <ele>446.8</ele>
        <time>2014-07-30T07:33:22Z</time>
      </trkpt>
      <trkpt lat="43.3260300" lon="-7.5758710">
        <ele>446.9</ele>
        <time>2014-07-30T07:33:28Z</time>
      </trkpt>
      <trkpt lat="43.3260110" lon="-7.5759220">
        <ele>446.9</ele>
        <time>2014-07-30T07:33:29Z</time>
      </trkpt>
      <trkpt lat="43.3257000" lon="-7.5767640">
        <ele>447.1</ele>
        <time>2014-07-30T07:33:43Z</time>
      </trkpt>
      <trkpt lat="43.3255400" lon="-7.5772870">
        <ele>447.2</ele>
        <time>2014-07-30T07:33:51Z</time>
      </trkpt>
      <trkpt lat="43.3255230" lon="-7.5773560">
        <ele>447.2</ele>
        <time>2014-07-30T07:33:52Z</time>
      </trkpt>
      <trkpt lat="43.3254690" lon="-7.5775600">
        <ele>447.2</ele>
        <time>2014-07-30T07:33:55Z</time>
      </trkpt>
      <trkpt lat="43.3254510" lon="-7.5776210">
        <ele>447.2</ele>
        <time>2014-07-30T07:33:56Z</time>
      </trkpt>
      <trkpt lat="43.3251880" lon="-7.5784830">
        <ele>447.3</ele>
        <time>2014-07-30T07:34:09Z</time>
      </trkpt>
      <trkpt lat="43.3249320" lon="-7.5793730">
        <ele>447.4</ele>
        <time>2014-07-30T07:34:23Z</time>
      </trkpt>
      <trkpt lat="43.3248240" lon="-7.5797520">
        <ele>447.5</ele>
        <time>2014-07-30T07:34:29Z</time>
      </trkpt>
      <trkpt lat="43.3248060" lon="-7.5798120">
        <ele>447.6</ele>
        <time>2014-07-30T07:34:30Z</time>
      </trkpt>
      <trkpt lat="43.3247870" lon="-7.5798710">
        <ele>447.6</ele>
        <time>2014-07-30T07:34:31Z</time>
      </trkpt>
      <trkpt lat="43.3246020" lon="-7.5804360">
        <ele>447.9</ele>
        <time>2014-07-30T07:34:44Z</time>
      </trkpt>
      <trkpt lat="43.3243980" lon="-7.5809690">
        <ele>449.6</ele>
        <time>2014-07-30T07:34:58Z</time>
      </trkpt>
      <trkpt lat="43.3241610" lon="-7.5815010">
        <ele>451.3</ele>
        <time>2014-07-30T07:35:12Z</time>
      </trkpt>
      <trkpt lat="43.3239640" lon="-7.5819770">
        <ele>451.9</ele>
        <time>2014-07-30T07:35:24Z</time>
      </trkpt>
      <trkpt lat="43.3237720" lon="-7.5824740">
        <ele>452.6</ele>
        <time>2014-07-30T07:35:36Z</time>
      </trkpt>
      <trkpt lat="43.3236130" lon="-7.5828540">
        <ele>453.1</ele>
        <time>2014-07-30T07:35:45Z</time>
      </trkpt>
      <trkpt lat="43.3233890" lon="-7.5833420">
        <ele>453.6</ele>
        <time>2014-07-30T07:35:55Z</time>
      </trkpt>
      <trkpt lat="43.3233600" lon="-7.5833860">
        <ele>453.6</ele>
        <time>2014-07-30T07:35:56Z</time>
      </trkpt>
      <trkpt lat="43.3232180" lon="-7.5836700">
        <ele>453.8</ele>
        <time>2014-07-30T07:36:02Z</time>
      </trkpt>
      <trkpt lat="43.3230810" lon="-7.5839530">
        <ele>453.9</ele>
        <time>2014-07-30T07:36:08Z</time>
      </trkpt>
      <trkpt lat="43.3228930" lon="-7.5844270">
        <ele>454.1</ele>
        <time>2014-07-30T07:36:18Z</time>
      </trkpt>
      <trkpt lat="43.3228240" lon="-7.5845830">
        <ele>454.2</ele>
        <time>2014-07-30T07:36:21Z</time>
      </trkpt>
      <trkpt lat="43.3228010" lon="-7.5846330">
        <ele>454.2</ele>
        <time>2014-07-30T07:36:22Z</time>
      </trkpt>
      <trkpt lat="43.3227130" lon="-7.5848330">
        <ele>454.4</ele>
        <time>2014-07-30T07:36:26Z</time>
      </trkpt>
      <trkpt lat="43.3226920" lon="-7.5848880">
        <ele>454.4</ele>
        <time>2014-07-30T07:36:27Z</time>
      </trkpt>
      <trkpt lat="43.3226670" lon="-7.5849470">
        <ele>454.4</ele>
        <time>2014-07-30T07:36:28Z</time>
      </trkpt>
      <trkpt lat="43.3224170" lon="-7.5853890">
        <ele>454.1</ele>
        <time>2014-07-30T07:36:37Z</time>
      </trkpt>
      <trkpt lat="43.3222280" lon="-7.5856510">
        <ele>453.8</ele>
        <time>2014-07-30T07:36:43Z</time>
      </trkpt>
      <trkpt lat="43.3221930" lon="-7.5856930">
        <ele>453.8</ele>
        <time>2014-07-30T07:36:44Z</time>
      </trkpt>
      <trkpt lat="43.3221580" lon="-7.5857350">
        <ele>453.8</ele>
        <time>2014-07-30T07:36:45Z</time>
      </trkpt>
      <trkpt lat="43.3221230" lon="-7.5857740">
        <ele>453.8</ele>
        <time>2014-07-30T07:36:46Z</time>
      </trkpt>
      <trkpt lat="43.3220900" lon="-7.5858180">
        <ele>453.8</ele>
        <time>2014-07-30T07:36:47Z</time>
      </trkpt>
      <trkpt lat="43.3220620" lon="-7.5858690">
        <ele>453.9</ele>
        <time>2014-07-30T07:36:48Z</time>
      </trkpt>
      <trkpt lat="43.3219490" lon="-7.5860790">
        <ele>453.9</ele>
        <time>2014-07-30T07:36:52Z</time>
      </trkpt>
      <trkpt lat="43.3219180" lon="-7.5861230">
        <ele>453.9</ele>
        <time>2014-07-30T07:36:53Z</time>
      </trkpt>
      <trkpt lat="43.3218850" lon="-7.5861620">
        <ele>453.9</ele>
        <time>2014-07-30T07:36:54Z</time>
      </trkpt>
      <trkpt lat="43.3218520" lon="-7.5862070">
        <ele>453.9</ele>
        <time>2014-07-30T07:36:55Z</time>
      </trkpt>
      <trkpt lat="43.3218180" lon="-7.5862540">
        <ele>453.9</ele>
        <time>2014-07-30T07:36:56Z</time>
      </trkpt>
      <trkpt lat="43.3214500" lon="-7.5867670">
        <ele>455.1</ele>
        <time>2014-07-30T07:37:09Z</time>
      </trkpt>
      <trkpt lat="43.3214220" lon="-7.5868110">
        <ele>455.3</ele>
        <time>2014-07-30T07:37:10Z</time>
      </trkpt>
      <trkpt lat="43.3213940" lon="-7.5868590">
        <ele>455.4</ele>
        <time>2014-07-30T07:37:11Z</time>
      </trkpt>
      <trkpt lat="43.3211780" lon="-7.5871550">
        <ele>455.8</ele>
        <time>2014-07-30T07:37:18Z</time>
      </trkpt>
      <trkpt lat="43.3211480" lon="-7.5872040">
        <ele>455.8</ele>
        <time>2014-07-30T07:37:19Z</time>
      </trkpt>
      <trkpt lat="43.3211170" lon="-7.5872540">
        <ele>455.8</ele>
        <time>2014-07-30T07:37:20Z</time>
      </trkpt>
      <trkpt lat="43.3207860" lon="-7.5877610">
        <ele>455.7</ele>
        <time>2014-07-30T07:37:30Z</time>
      </trkpt>
      <trkpt lat="43.3206760" lon="-7.5879060">
        <ele>455.6</ele>
        <time>2014-07-30T07:37:33Z</time>
      </trkpt>
      <trkpt lat="43.3206420" lon="-7.5879520">
        <ele>455.5</ele>
        <time>2014-07-30T07:37:34Z</time>
      </trkpt>
      <trkpt lat="43.3205090" lon="-7.5881660">
        <ele>455.2</ele>
        <time>2014-07-30T07:37:38Z</time>
      </trkpt>
      <trkpt lat="43.3203800" lon="-7.5883630">
        <ele>454.9</ele>
        <time>2014-07-30T07:37:42Z</time>
      </trkpt>
      <trkpt lat="43.3200230" lon="-7.5889050">
        <ele>453.4</ele>
        <time>2014-07-30T07:37:53Z</time>
      </trkpt>
      <trkpt lat="43.3198050" lon="-7.5891630">
        <ele>452.3</ele>
        <time>2014-07-30T07:38:02Z</time>
      </trkpt>
      <trkpt lat="43.3197520" lon="-7.5893200">
        <ele>452.4</ele>
        <time>2014-07-30T07:38:10Z</time>
      </trkpt>
      <trkpt lat="43.3196650" lon="-7.5896540">
        <ele>453.1</ele>
        <time>2014-07-30T07:38:22Z</time>
      </trkpt>
      <trkpt lat="43.3195540" lon="-7.5900920">
        <ele>455.1</ele>
        <time>2014-07-30T07:38:35Z</time>
      </trkpt>
      <trkpt lat="43.3194520" lon="-7.5904530">
        <ele>456.6</ele>
        <time>2014-07-30T07:38:46Z</time>
      </trkpt>
      <trkpt lat="43.3193740" lon="-7.5908070">
        <ele>458.3</ele>
        <time>2014-07-30T07:38:57Z</time>
      </trkpt>
      <trkpt lat="43.3192150" lon="-7.5912840">
        <ele>461.2</ele>
        <time>2014-07-30T07:39:12Z</time>
      </trkpt>
      <trkpt lat="43.3190330" lon="-7.5916230">
        <ele>462.0</ele>
        <time>2014-07-30T07:39:25Z</time>
      </trkpt>
      <trkpt lat="43.3188740" lon="-7.5919750">
        <ele>463.2</ele>
        <time>2014-07-30T07:39:37Z</time>
      </trkpt>
      <trkpt lat="43.3187280" lon="-7.5923610">
        <ele>464.2</ele>
        <time>2014-07-30T07:39:49Z</time>
      </trkpt>
      <trkpt lat="43.3185380" lon="-7.5926620">
        <ele>465.0</ele>
        <time>2014-07-30T07:39:59Z</time>
      </trkpt>
      <trkpt lat="43.3182510" lon="-7.5932340">
        <ele>465.7</ele>
        <time>2014-07-30T07:40:14Z</time>
      </trkpt>
      <trkpt lat="43.3179510" lon="-7.5938270">
        <ele>466.3</ele>
        <time>2014-07-30T07:40:29Z</time>
      </trkpt>
      <trkpt lat="43.3175380" lon="-7.5946690">
        <ele>467.9</ele>
        <time>2014-07-30T07:40:47Z</time>
      </trkpt>
      <trkpt lat="43.3173170" lon="-7.5951670">
        <ele>470.0</ele>
        <time>2014-07-30T07:40:59Z</time>
      </trkpt>
      <trkpt lat="43.3171340" lon="-7.5955140">
        <ele>472.4</ele>
        <time>2014-07-30T07:41:11Z</time>
      </trkpt>
      <trkpt lat="43.3170480" lon="-7.5957410">
        <ele>473.9</ele>
        <time>2014-07-30T07:41:20Z</time>
      </trkpt>
      <trkpt lat="43.3169000" lon="-7.5960130">
        <ele>475.2</ele>
        <time>2014-07-30T07:41:30Z</time>
      </trkpt>
      <trkpt lat="43.3167330" lon="-7.5964150">
        <ele>476.3</ele>
        <time>2014-07-30T07:41:41Z</time>
      </trkpt>
      <trkpt lat="43.3166010" lon="-7.5968330">
        <ele>477.3</ele>
        <time>2014-07-30T07:41:51Z</time>
      </trkpt>
      <trkpt lat="43.3164780" lon="-7.5972440">
        <ele>476.9</ele>
        <time>2014-07-30T07:42:02Z</time>
      </trkpt>
      <trkpt lat="43.3164010" lon="-7.5975690">
        <ele>476.5</ele>
        <time>2014-07-30T07:42:09Z</time>
      </trkpt>
      <trkpt lat="43.3163890" lon="-7.5976240">
        <ele>476.4</ele>
        <time>2014-07-30T07:42:10Z</time>
      </trkpt>
      <trkpt lat="43.3163740" lon="-7.5976760">
        <ele>476.4</ele>
        <time>2014-07-30T07:42:11Z</time>
      </trkpt>
      <trkpt lat="43.3162830" lon="-7.5982000">
        <ele>476.3</ele>
        <time>2014-07-30T07:42:21Z</time>
      </trkpt>
      <trkpt lat="43.3162170" lon="-7.5987730">
        <ele>477.2</ele>
        <time>2014-07-30T07:42:33Z</time>
      </trkpt>
      <trkpt lat="43.3161390" lon="-7.5992680">
        <ele>478.1</ele>
        <time>2014-07-30T07:42:44Z</time>
      </trkpt>
      <trkpt lat="43.3160450" lon="-7.5997360">
        <ele>479.2</ele>
        <time>2014-07-30T07:42:55Z</time>
      </trkpt>
      <trkpt lat="43.3160270" lon="-7.6003280">
        <ele>480.7</ele>
        <time>2014-07-30T07:43:10Z</time>
      </trkpt>
      <trkpt lat="43.3159060" lon="-7.6010280">
        <ele>482.5</ele>
        <time>2014-07-30T07:43:26Z</time>
      </trkpt>
      <trkpt lat="43.3158730" lon="-7.6015540">
        <ele>482.6</ele>
        <time>2014-07-30T07:43:39Z</time>
      </trkpt>
      <trkpt lat="43.3160200" lon="-7.6020300">
        <ele>482.1</ele>
        <time>2014-07-30T07:43:49Z</time>
      </trkpt>
      <trkpt lat="43.3162600" lon="-7.6027400">
        <ele>481.1</ele>
        <time>2014-07-30T07:44:03Z</time>
      </trkpt>
      <trkpt lat="43.3163260" lon="-7.6029420">
        <ele>480.7</ele>
        <time>2014-07-30T07:44:07Z</time>
      </trkpt>
      <trkpt lat="43.3165110" lon="-7.6033820">
        <ele>479.2</ele>
        <time>2014-07-30T07:44:15Z</time>
      </trkpt>
      <trkpt lat="43.3165290" lon="-7.6034380">
        <ele>478.9</ele>
        <time>2014-07-30T07:44:16Z</time>
      </trkpt>
      <trkpt lat="43.3166370" lon="-7.6037130">
        <ele>478.0</ele>
        <time>2014-07-30T07:44:21Z</time>
      </trkpt>
      <trkpt lat="43.3166910" lon="-7.6038300">
        <ele>477.5</ele>
        <time>2014-07-30T07:44:23Z</time>
      </trkpt>
      <trkpt lat="43.3167110" lon="-7.6039010">
        <ele>477.2</ele>
        <time>2014-07-30T07:44:24Z</time>
      </trkpt>
      <trkpt lat="43.3167500" lon="-7.6040510">
        <ele>476.8</ele>
        <time>2014-07-30T07:44:26Z</time>
      </trkpt>
      <trkpt lat="43.3167960" lon="-7.6041960">
        <ele>476.4</ele>
        <time>2014-07-30T07:44:28Z</time>
      </trkpt>
      <trkpt lat="43.3168250" lon="-7.6043510">
        <ele>476.0</ele>
        <time>2014-07-30T07:44:30Z</time>
      </trkpt>
      <trkpt lat="43.3168400" lon="-7.6044240">
        <ele>475.8</ele>
        <time>2014-07-30T07:44:31Z</time>
      </trkpt>
      <trkpt lat="43.3168570" lon="-7.6045010">
        <ele>475.7</ele>
        <time>2014-07-30T07:44:32Z</time>
      </trkpt>
      <trkpt lat="43.3169740" lon="-7.6051000">
        <ele>474.5</ele>
        <time>2014-07-30T07:44:40Z</time>
      </trkpt>
      <trkpt lat="43.3170200" lon="-7.6052840">
        <ele>473.9</ele>
        <time>2014-07-30T07:44:43Z</time>
      </trkpt>
      <trkpt lat="43.3170450" lon="-7.6053410">
        <ele>473.6</ele>
        <time>2014-07-30T07:44:44Z</time>
      </trkpt>
      <trkpt lat="43.3170740" lon="-7.6053880">
        <ele>473.3</ele>
        <time>2014-07-30T07:44:45Z</time>
      </trkpt>
      <trkpt lat="43.3171000" lon="-7.6054210">
        <ele>473.0</ele>
        <time>2014-07-30T07:44:46Z</time>
      </trkpt>
      <trkpt lat="43.3171270" lon="-7.6054440">
        <ele>472.8</ele>
        <time>2014-07-30T07:44:47Z</time>
      </trkpt>
      <trkpt lat="43.3171530" lon="-7.6054760">
        <ele>472.6</ele>
        <time>2014-07-30T07:44:48Z</time>
      </trkpt>
      <trkpt lat="43.3171790" lon="-7.6055110">
        <ele>472.4</ele>
        <time>2014-07-30T07:44:49Z</time>
      </trkpt>
      <trkpt lat="43.3172040" lon="-7.6055420">
        <ele>472.2</ele>
        <time>2014-07-30T07:44:50Z</time>
      </trkpt>
      <trkpt lat="43.3172690" lon="-7.6056670">
        <ele>471.5</ele>
        <time>2014-07-30T07:44:53Z</time>
      </trkpt>
      <trkpt lat="43.3175120" lon="-7.6066180">
        <ele>466.6</ele>
        <time>2014-07-30T07:45:06Z</time>
      </trkpt>
      <trkpt lat="43.3176670" lon="-7.6071270">
        <ele>464.8</ele>
        <time>2014-07-30T07:45:15Z</time>
      </trkpt>
      <trkpt lat="43.3176900" lon="-7.6071700">
        <ele>464.6</ele>
        <time>2014-07-30T07:45:16Z</time>
      </trkpt>
      <trkpt lat="43.3178230" lon="-7.6073650">
        <ele>463.7</ele>
        <time>2014-07-30T07:45:21Z</time>
      </trkpt>
      <trkpt lat="43.3178530" lon="-7.6074240">
        <ele>463.5</ele>
        <time>2014-07-30T07:45:22Z</time>
      </trkpt>
      <trkpt lat="43.3179130" lon="-7.6075590">
        <ele>463.2</ele>
        <time>2014-07-30T07:45:24Z</time>
      </trkpt>
      <trkpt lat="43.3179380" lon="-7.6076290">
        <ele>463.0</ele>
        <time>2014-07-30T07:45:25Z</time>
      </trkpt>
      <trkpt lat="43.3179620" lon="-7.6076960">
        <ele>462.8</ele>
        <time>2014-07-30T07:45:26Z</time>
      </trkpt>
      <trkpt lat="43.3180740" lon="-7.6079410">
        <ele>461.6</ele>
        <time>2014-07-30T07:45:30Z</time>
      </trkpt>
      <trkpt lat="43.3181030" lon="-7.6079920">
        <ele>461.3</ele>
        <time>2014-07-30T07:45:31Z</time>
      </trkpt>
      <trkpt lat="43.3181240" lon="-7.6080410">
        <ele>461.1</ele>
        <time>2014-07-30T07:45:32Z</time>
      </trkpt>
      <trkpt lat="43.3181410" lon="-7.6080920">
        <ele>460.8</ele>
        <time>2014-07-30T07:45:33Z</time>
      </trkpt>
      <trkpt lat="43.3181640" lon="-7.6081480">
        <ele>460.4</ele>
        <time>2014-07-30T07:45:34Z</time>
      </trkpt>
      <trkpt lat="43.3182320" lon="-7.6083870">
        <ele>459.3</ele>
        <time>2014-07-30T07:45:40Z</time>
      </trkpt>
      <trkpt lat="43.3182490" lon="-7.6084130">
        <ele>459.2</ele>
        <time>2014-07-30T07:45:41Z</time>
      </trkpt>
      <trkpt lat="43.3183620" lon="-7.6085900">
        <ele>458.6</ele>
        <time>2014-07-30T07:45:49Z</time>
      </trkpt>
      <trkpt lat="43.3183740" lon="-7.6086090">
        <ele>458.6</ele>
        <time>2014-07-30T07:45:50Z</time>
      </trkpt>
      <trkpt lat="43.3183920" lon="-7.6086470">
        <ele>458.6</ele>
        <time>2014-07-30T07:45:52Z</time>
      </trkpt>
      <trkpt lat="43.3184030" lon="-7.6086790">
        <ele>458.6</ele>
        <time>2014-07-30T07:45:53Z</time>
      </trkpt>
      <trkpt lat="43.3184080" lon="-7.6087060">
        <ele>458.6</ele>
        <time>2014-07-30T07:45:54Z</time>
      </trkpt>
      <trkpt lat="43.3184140" lon="-7.6087410">
        <ele>458.6</ele>
        <time>2014-07-30T07:45:55Z</time>
      </trkpt>
      <trkpt lat="43.3184220" lon="-7.6087820">
        <ele>458.6</ele>
        <time>2014-07-30T07:45:56Z</time>
      </trkpt>
      <trkpt lat="43.3185030" lon="-7.6091100">
        <ele>459.3</ele>
        <time>2014-07-30T07:46:07Z</time>
      </trkpt>
      <trkpt lat="43.3185200" lon="-7.6092170">
        <ele>459.5</ele>
        <time>2014-07-30T07:46:11Z</time>
      </trkpt>
      <trkpt lat="43.3185180" lon="-7.6092470">
        <ele>459.6</ele>
        <time>2014-07-30T07:46:12Z</time>
      </trkpt>
      <trkpt lat="43.3185320" lon="-7.6094540">
        <ele>460.1</ele>
        <time>2014-07-30T07:46:24Z</time>
      </trkpt>
      <trkpt lat="43.3185320" lon="-7.6094540">
        <ele>460.1</ele>
        <time>2014-07-30T07:46:54Z</time>
      </trkpt>
      <trkpt lat="43.3185300" lon="-7.6095210">
        <ele>460.3</ele>
        <time>2014-07-30T07:47:05Z</time>
      </trkpt>
      <trkpt lat="43.3185200" lon="-7.6096660">
        <ele>460.8</ele>
        <time>2014-07-30T07:47:10Z</time>
      </trkpt>
      <trkpt lat="43.3185120" lon="-7.6096980">
        <ele>460.9</ele>
        <time>2014-07-30T07:47:11Z</time>
      </trkpt>
      <trkpt lat="43.3184520" lon="-7.6101310">
        <ele>462.6</ele>
        <time>2014-07-30T07:47:24Z</time>
      </trkpt>
      <trkpt lat="43.3183500" lon="-7.6105280">
        <ele>463.7</ele>
        <time>2014-07-30T07:47:34Z</time>
      </trkpt>
      <trkpt lat="43.3183280" lon="-7.6108620">
        <ele>464.6</ele>
        <time>2014-07-30T07:47:44Z</time>
      </trkpt>
      <trkpt lat="43.3182430" lon="-7.6114930">
        <ele>465.9</ele>
        <time>2014-07-30T07:47:58Z</time>
      </trkpt>
      <trkpt lat="43.3182030" lon="-7.6120810">
        <ele>466.6</ele>
        <time>2014-07-30T07:48:13Z</time>
      </trkpt>
      <trkpt lat="43.3180890" lon="-7.6125260">
        <ele>467.5</ele>
        <time>2014-07-30T07:48:25Z</time>
      </trkpt>
      <trkpt lat="43.3179330" lon="-7.6129880">
        <ele>468.5</ele>
        <time>2014-07-30T07:48:38Z</time>
      </trkpt>
      <trkpt lat="43.3179210" lon="-7.6130670">
        <ele>468.7</ele>
        <time>2014-07-30T07:48:49Z</time>
      </trkpt>
      <trkpt lat="43.3179210" lon="-7.6130670">
        <ele>468.7</ele>
        <time>2014-07-30T07:49:15Z</time>
      </trkpt>
      <trkpt lat="43.3179210" lon="-7.6130670">
        <ele>468.7</ele>
        <time>2014-07-30T07:49:40Z</time>
      </trkpt>
      <trkpt lat="43.3179260" lon="-7.6130910">
        <ele>468.8</ele>
        <time>2014-07-30T07:49:56Z</time>
      </trkpt>
      <trkpt lat="43.3179490" lon="-7.6134760">
        <ele>469.8</ele>
        <time>2014-07-30T07:50:09Z</time>
      </trkpt>
      <trkpt lat="43.3179830" lon="-7.6138390">
        <ele>470.9</ele>
        <time>2014-07-30T07:50:22Z</time>
      </trkpt>
      <trkpt lat="43.3180060" lon="-7.6139820">
        <ele>471.4</ele>
        <time>2014-07-30T07:50:28Z</time>
      </trkpt>
      <trkpt lat="43.3181090" lon="-7.6143730">
        <ele>471.7</ele>
        <time>2014-07-30T07:50:40Z</time>
      </trkpt>
      <trkpt lat="43.3182300" lon="-7.6147640">
        <ele>472.1</ele>
        <time>2014-07-30T07:50:50Z</time>
      </trkpt>
      <trkpt lat="43.3181670" lon="-7.6152940">
        <ele>473.1</ele>
        <time>2014-07-30T07:51:04Z</time>
      </trkpt>
      <trkpt lat="43.3179460" lon="-7.6157980">
        <ele>473.6</ele>
        <time>2014-07-30T07:51:21Z</time>
      </trkpt>
      <trkpt lat="43.3178760" lon="-7.6158730">
        <ele>473.8</ele>
        <time>2014-07-30T07:51:27Z</time>
      </trkpt>
      <trkpt lat="43.3178630" lon="-7.6158910">
        <ele>473.9</ele>
        <time>2014-07-30T07:51:28Z</time>
      </trkpt>
      <trkpt lat="43.3178470" lon="-7.6159080">
        <ele>473.9</ele>
        <time>2014-07-30T07:51:29Z</time>
      </trkpt>
      <trkpt lat="43.3176040" lon="-7.6163100">
        <ele>475.2</ele>
        <time>2014-07-30T07:51:44Z</time>
      </trkpt>
      <trkpt lat="43.3175390" lon="-7.6164470">
        <ele>475.5</ele>
        <time>2014-07-30T07:51:49Z</time>
      </trkpt>
      <trkpt lat="43.3175220" lon="-7.6164760">
        <ele>475.6</ele>
        <time>2014-07-30T07:51:50Z</time>
      </trkpt>
      <trkpt lat="43.3173860" lon="-7.6168100">
        <ele>476.6</ele>
        <time>2014-07-30T07:52:00Z</time>
      </trkpt>
      <trkpt lat="43.3173770" lon="-7.6168440">
        <ele>476.6</ele>
        <time>2014-07-30T07:52:01Z</time>
      </trkpt>
      <trkpt lat="43.3173620" lon="-7.6168800">
        <ele>476.7</ele>
        <time>2014-07-30T07:52:02Z</time>
      </trkpt>
      <trkpt lat="43.3173410" lon="-7.6169180">
        <ele>476.9</ele>
        <time>2014-07-30T07:52:03Z</time>
      </trkpt>
      <trkpt lat="43.3173250" lon="-7.6169510">
        <ele>477.0</ele>
        <time>2014-07-30T07:52:04Z</time>
      </trkpt>
      <trkpt lat="43.3173080" lon="-7.6169830">
        <ele>477.1</ele>
        <time>2014-07-30T07:52:05Z</time>
      </trkpt>
      <trkpt lat="43.3172920" lon="-7.6170100">
        <ele>477.2</ele>
        <time>2014-07-30T07:52:06Z</time>
      </trkpt>
      <trkpt lat="43.3172740" lon="-7.6170460">
        <ele>477.3</ele>
        <time>2014-07-30T07:52:07Z</time>
      </trkpt>
      <trkpt lat="43.3170720" lon="-7.6174490">
        <ele>478.9</ele>
        <time>2014-07-30T07:52:17Z</time>
      </trkpt>
      <trkpt lat="43.3169510" lon="-7.6180050">
        <ele>479.9</ele>
        <time>2014-07-30T07:52:29Z</time>
      </trkpt>
      <trkpt lat="43.3170660" lon="-7.6184490">
        <ele>480.5</ele>
        <time>2014-07-30T07:52:39Z</time>
      </trkpt>
      <trkpt lat="43.3172880" lon="-7.6188280">
        <ele>481.4</ele>
        <time>2014-07-30T07:52:51Z</time>
      </trkpt>
      <trkpt lat="43.3173230" lon="-7.6188790">
        <ele>481.7</ele>
        <time>2014-07-30T07:52:54Z</time>
      </trkpt>
      <trkpt lat="43.3173430" lon="-7.6188970">
        <ele>481.9</ele>
        <time>2014-07-30T07:52:55Z</time>
      </trkpt>
      <trkpt lat="43.3173560" lon="-7.6189090">
        <ele>482.0</ele>
        <time>2014-07-30T07:52:56Z</time>
      </trkpt>
      <trkpt lat="43.3173710" lon="-7.6189280">
        <ele>482.2</ele>
        <time>2014-07-30T07:52:57Z</time>
      </trkpt>
      <trkpt lat="43.3173900" lon="-7.6189560">
        <ele>482.4</ele>
        <time>2014-07-30T07:52:58Z</time>
      </trkpt>
      <trkpt lat="43.3174180" lon="-7.6189940">
        <ele>482.8</ele>
        <time>2014-07-30T07:52:59Z</time>
      </trkpt>
      <trkpt lat="43.3174410" lon="-7.6190140">
        <ele>483.0</ele>
        <time>2014-07-30T07:53:00Z</time>
      </trkpt>
      <trkpt lat="43.3177030" lon="-7.6192820">
        <ele>483.9</ele>
        <time>2014-07-30T07:53:12Z</time>
      </trkpt>
      <trkpt lat="43.3179200" lon="-7.6195650">
        <ele>484.3</ele>
        <time>2014-07-30T07:53:20Z</time>
      </trkpt>
      <trkpt lat="43.3179290" lon="-7.6196130">
        <ele>484.4</ele>
        <time>2014-07-30T07:53:21Z</time>
      </trkpt>
      <trkpt lat="43.3179280" lon="-7.6196530">
        <ele>484.6</ele>
        <time>2014-07-30T07:53:22Z</time>
      </trkpt>
      <trkpt lat="43.3177980" lon="-7.6200400">
        <ele>486.3</ele>
        <time>2014-07-30T07:53:34Z</time>
      </trkpt>
      <trkpt lat="43.3176490" lon="-7.6206250">
        <ele>487.8</ele>
        <time>2014-07-30T07:53:50Z</time>
      </trkpt>
      <trkpt lat="43.3175470" lon="-7.6211010">
        <ele>489.0</ele>
        <time>2014-07-30T07:54:03Z</time>
      </trkpt>
      <trkpt lat="43.3173360" lon="-7.6215390">
        <ele>490.5</ele>
        <time>2014-07-30T07:54:16Z</time>
      </trkpt>
      <trkpt lat="43.3171800" lon="-7.6221620">
        <ele>491.7</ele>
        <time>2014-07-30T07:54:33Z</time>
      </trkpt>
      <trkpt lat="43.3170230" lon="-7.6230200">
        <ele>492.3</ele>
        <time>2014-07-30T07:54:52Z</time>
      </trkpt>
      <trkpt lat="43.3168510" lon="-7.6235700">
        <ele>492.3</ele>
        <time>2014-07-30T07:55:06Z</time>
      </trkpt>
      <trkpt lat="43.3165100" lon="-7.6243620">
        <ele>492.0</ele>
        <time>2014-07-30T07:55:23Z</time>
      </trkpt>
      <trkpt lat="43.3164150" lon="-7.6246250">
        <ele>491.8</ele>
        <time>2014-07-30T07:55:28Z</time>
      </trkpt>
      <trkpt lat="43.3163830" lon="-7.6248580">
        <ele>491.6</ele>
        <time>2014-07-30T07:55:32Z</time>
      </trkpt>
      <trkpt lat="43.3163620" lon="-7.6249080">
        <ele>491.5</ele>
        <time>2014-07-30T07:55:33Z</time>
      </trkpt>
      <trkpt lat="43.3163330" lon="-7.6249500">
        <ele>491.5</ele>
        <time>2014-07-30T07:55:34Z</time>
      </trkpt>
      <trkpt lat="43.3163000" lon="-7.6249880">
        <ele>491.5</ele>
        <time>2014-07-30T07:55:35Z</time>
      </trkpt>
      <trkpt lat="43.3162680" lon="-7.6250260">
        <ele>491.4</ele>
        <time>2014-07-30T07:55:36Z</time>
      </trkpt>
      <trkpt lat="43.3162320" lon="-7.6250620">
        <ele>491.4</ele>
        <time>2014-07-30T07:55:37Z</time>
      </trkpt>
      <trkpt lat="43.3161960" lon="-7.6251060">
        <ele>491.4</ele>
        <time>2014-07-30T07:55:38Z</time>
      </trkpt>
      <trkpt lat="43.3161690" lon="-7.6251530">
        <ele>491.3</ele>
        <time>2014-07-30T07:55:39Z</time>
      </trkpt>
      <trkpt lat="43.3161460" lon="-7.6252010">
        <ele>491.3</ele>
        <time>2014-07-30T07:55:40Z</time>
      </trkpt>
      <trkpt lat="43.3161250" lon="-7.6252510">
        <ele>491.3</ele>
        <time>2014-07-30T07:55:41Z</time>
      </trkpt>
      <trkpt lat="43.3161080" lon="-7.6253030">
        <ele>491.3</ele>
        <time>2014-07-30T07:55:42Z</time>
      </trkpt>
      <trkpt lat="43.3160910" lon="-7.6253580">
        <ele>491.3</ele>
        <time>2014-07-30T07:55:43Z</time>
      </trkpt>
      <trkpt lat="43.3160750" lon="-7.6254150">
        <ele>491.2</ele>
        <time>2014-07-30T07:55:44Z</time>
      </trkpt>
      <trkpt lat="43.3160640" lon="-7.6254720">
        <ele>491.2</ele>
        <time>2014-07-30T07:55:45Z</time>
      </trkpt>
      <trkpt lat="43.3160520" lon="-7.6255330">
        <ele>491.1</ele>
        <time>2014-07-30T07:55:46Z</time>
      </trkpt>
      <trkpt lat="43.3160450" lon="-7.6255930">
        <ele>491.1</ele>
        <time>2014-07-30T07:55:47Z</time>
      </trkpt>
      <trkpt lat="43.3160410" lon="-7.6256540">
        <ele>491.0</ele>
        <time>2014-07-30T07:55:48Z</time>
      </trkpt>
      <trkpt lat="43.3160420" lon="-7.6257770">
        <ele>490.9</ele>
        <time>2014-07-30T07:55:50Z</time>
      </trkpt>
      <trkpt lat="43.3160520" lon="-7.6258370">
        <ele>490.7</ele>
        <time>2014-07-30T07:55:51Z</time>
      </trkpt>
      <trkpt lat="43.3160660" lon="-7.6258980">
        <ele>490.6</ele>
        <time>2014-07-30T07:55:52Z</time>
      </trkpt>
      <trkpt lat="43.3160810" lon="-7.6259650">
        <ele>490.4</ele>
        <time>2014-07-30T07:55:53Z</time>
      </trkpt>
      <trkpt lat="43.3160960" lon="-7.6260310">
        <ele>490.2</ele>
        <time>2014-07-30T07:55:54Z</time>
      </trkpt>
      <trkpt lat="43.3161130" lon="-7.6261010">
        <ele>490.1</ele>
        <time>2014-07-30T07:55:55Z</time>
      </trkpt>
      <trkpt lat="43.3161460" lon="-7.6262480">
        <ele>489.5</ele>
        <time>2014-07-30T07:55:57Z</time>
      </trkpt>
      <trkpt lat="43.3161580" lon="-7.6263240">
        <ele>489.3</ele>
        <time>2014-07-30T07:55:58Z</time>
      </trkpt>
      <trkpt lat="43.3161770" lon="-7.6264010">
        <ele>489.0</ele>
        <time>2014-07-30T07:55:59Z</time>
      </trkpt>
      <trkpt lat="43.3162440" lon="-7.6266440">
        <ele>488.2</ele>
        <time>2014-07-30T07:56:03Z</time>
      </trkpt>
      <trkpt lat="43.3162700" lon="-7.6266910">
        <ele>488.1</ele>
        <time>2014-07-30T07:56:04Z</time>
      </trkpt>
      <trkpt lat="43.3163350" lon="-7.6267830">
        <ele>487.7</ele>
        <time>2014-07-30T07:56:06Z</time>
      </trkpt>
      <trkpt lat="43.3164080" lon="-7.6268850">
        <ele>487.4</ele>
        <time>2014-07-30T07:56:08Z</time>
      </trkpt>
      <trkpt lat="43.3164530" lon="-7.6269280">
        <ele>487.3</ele>
        <time>2014-07-30T07:56:09Z</time>
      </trkpt>
      <trkpt lat="43.3164990" lon="-7.6269650">
        <ele>487.2</ele>
        <time>2014-07-30T07:56:10Z</time>
      </trkpt>
      <trkpt lat="43.3165480" lon="-7.6269910">
        <ele>487.1</ele>
        <time>2014-07-30T07:56:11Z</time>
      </trkpt>
      <trkpt lat="43.3165990" lon="-7.6269980">
        <ele>487.1</ele>
        <time>2014-07-30T07:56:12Z</time>
      </trkpt>
      <trkpt lat="43.3166470" lon="-7.6269920">
        <ele>487.1</ele>
        <time>2014-07-30T07:56:13Z</time>
      </trkpt>
      <trkpt lat="43.3166920" lon="-7.6269810">
        <ele>487.1</ele>
        <time>2014-07-30T07:56:14Z</time>
      </trkpt>
      <trkpt lat="43.3167320" lon="-7.6269690">
        <ele>487.2</ele>
        <time>2014-07-30T07:56:15Z</time>
      </trkpt>
      <trkpt lat="43.3168450" lon="-7.6269380">
        <ele>487.4</ele>
        <time>2014-07-30T07:56:19Z</time>
      </trkpt>
      <trkpt lat="43.3168620" lon="-7.6269450">
        <ele>487.4</ele>
        <time>2014-07-30T07:56:20Z</time>
      </trkpt>
      <trkpt lat="43.3169150" lon="-7.6270200">
        <ele>487.1</ele>
        <time>2014-07-30T07:56:32Z</time>
      </trkpt>
      <trkpt lat="43.3169110" lon="-7.6271630">
        <ele>486.5</ele>
        <time>2014-07-30T07:56:35Z</time>
      </trkpt>
      <trkpt lat="43.3166440" lon="-7.6281960">
        <ele>483.5</ele>
        <time>2014-07-30T07:56:49Z</time>
      </trkpt>
      <trkpt lat="43.3164680" lon="-7.6289670">
        <ele>484.0</ele>
        <time>2014-07-30T07:56:58Z</time>
      </trkpt>
      <trkpt lat="43.3164770" lon="-7.6290340">
        <ele>483.4</ele>
        <time>2014-07-30T07:56:59Z</time>
      </trkpt>
      <trkpt lat="43.3164930" lon="-7.6291010">
        <ele>483.0</ele>
        <time>2014-07-30T07:57:00Z</time>
      </trkpt>
      <trkpt lat="43.3165080" lon="-7.6291720">
        <ele>482.7</ele>
        <time>2014-07-30T07:57:01Z</time>
      </trkpt>
      <trkpt lat="43.3165140" lon="-7.6292490">
        <ele>482.2</ele>
        <time>2014-07-30T07:57:02Z</time>
      </trkpt>
      <trkpt lat="43.3165110" lon="-7.6293270">
        <ele>481.7</ele>
        <time>2014-07-30T07:57:03Z</time>
      </trkpt>
      <trkpt lat="43.3165080" lon="-7.6294050">
        <ele>481.3</ele>
        <time>2014-07-30T07:57:04Z</time>
      </trkpt>
      <trkpt lat="43.3165080" lon="-7.6294850">
        <ele>481.0</ele>
        <time>2014-07-30T07:57:05Z</time>
      </trkpt>
      <trkpt lat="43.3164850" lon="-7.6299830">
        <ele>479.3</ele>
        <time>2014-07-30T07:57:11Z</time>
      </trkpt>
      <trkpt lat="43.3164570" lon="-7.6302210">
        <ele>478.6</ele>
        <time>2014-07-30T07:57:14Z</time>
      </trkpt>
      <trkpt lat="43.3164380" lon="-7.6309630">
        <ele>477.4</ele>
        <time>2014-07-30T07:57:23Z</time>
      </trkpt>
      <trkpt lat="43.3163220" lon="-7.6314650">
        <ele>475.8</ele>
        <time>2014-07-30T07:57:29Z</time>
      </trkpt>
      <trkpt lat="43.3163090" lon="-7.6315660">
        <ele>475.5</ele>
        <time>2014-07-30T07:57:30Z</time>
      </trkpt>
      <trkpt lat="43.3163060" lon="-7.6316710">
        <ele>474.9</ele>
        <time>2014-07-30T07:57:31Z</time>
      </trkpt>
      <trkpt lat="43.3163100" lon="-7.6317790">
        <ele>473.6</ele>
        <time>2014-07-30T07:57:32Z</time>
      </trkpt>
      <trkpt lat="43.3163190" lon="-7.6318840">
        <ele>474.0</ele>
        <time>2014-07-30T07:57:33Z</time>
      </trkpt>
      <trkpt lat="43.3163390" lon="-7.6320830">
        <ele>474.6</ele>
        <time>2014-07-30T07:57:35Z</time>
      </trkpt>
      <trkpt lat="43.3163690" lon="-7.6327970">
        <ele>476.1</ele>
        <time>2014-07-30T07:57:46Z</time>
      </trkpt>
      <trkpt lat="43.3164600" lon="-7.6332510">
        <ele>476.7</ele>
        <time>2014-07-30T07:57:56Z</time>
      </trkpt>
      <trkpt lat="43.3166210" lon="-7.6338900">
        <ele>476.9</ele>
        <time>2014-07-30T07:58:10Z</time>
      </trkpt>
      <trkpt lat="43.3167930" lon="-7.6344070">
        <ele>476.7</ele>
        <time>2014-07-30T07:58:22Z</time>
      </trkpt>
      <trkpt lat="43.3169900" lon="-7.6351470">
        <ele>477.2</ele>
        <time>2014-07-30T07:58:34Z</time>
      </trkpt>
      <trkpt lat="43.3170090" lon="-7.6352150">
        <ele>477.3</ele>
        <time>2014-07-30T07:58:35Z</time>
      </trkpt>
      <trkpt lat="43.3173860" lon="-7.6365630">
        <ele>477.8</ele>
        <time>2014-07-30T07:58:53Z</time>
      </trkpt>
      <trkpt lat="43.3175410" lon="-7.6371970">
        <ele>477.9</ele>
        <time>2014-07-30T07:59:03Z</time>
      </trkpt>
      <trkpt lat="43.3175580" lon="-7.6372470">
        <ele>477.9</ele>
        <time>2014-07-30T07:59:04Z</time>
      </trkpt>
      <trkpt lat="43.3175760" lon="-7.6372890">
        <ele>477.9</ele>
        <time>2014-07-30T07:59:05Z</time>
      </trkpt>
      <trkpt lat="43.3175920" lon="-7.6373240">
        <ele>477.9</ele>
        <time>2014-07-30T07:59:06Z</time>
      </trkpt>
      <trkpt lat="43.3176010" lon="-7.6373580">
        <ele>477.9</ele>
        <time>2014-07-30T07:59:07Z</time>
      </trkpt>
      <trkpt lat="43.3176020" lon="-7.6373960">
        <ele>477.9</ele>
        <time>2014-07-30T07:59:08Z</time>
      </trkpt>
      <trkpt lat="43.3175980" lon="-7.6374380">
        <ele>477.8</ele>
        <time>2014-07-30T07:59:09Z</time>
      </trkpt>
      <trkpt lat="43.3175860" lon="-7.6374830">
        <ele>477.6</ele>
        <time>2014-07-30T07:59:10Z</time>
      </trkpt>
      <trkpt lat="43.3175710" lon="-7.6375330">
        <ele>477.5</ele>
        <time>2014-07-30T07:59:11Z</time>
      </trkpt>
      <trkpt lat="43.3175610" lon="-7.6375890">
        <ele>477.3</ele>
        <time>2014-07-30T07:59:12Z</time>
      </trkpt>
      <trkpt lat="43.3175570" lon="-7.6376430">
        <ele>477.2</ele>
        <time>2014-07-30T07:59:13Z</time>
      </trkpt>
      <trkpt lat="43.3175570" lon="-7.6376960">
        <ele>477.2</ele>
        <time>2014-07-30T07:59:14Z</time>
      </trkpt>
      <trkpt lat="43.3175580" lon="-7.6377510">
        <ele>477.1</ele>
        <time>2014-07-30T07:59:15Z</time>
      </trkpt>
      <trkpt lat="43.3175660" lon="-7.6378070">
        <ele>477.1</ele>
        <time>2014-07-30T07:59:16Z</time>
      </trkpt>
      <trkpt lat="43.3176040" lon="-7.6381540">
        <ele>476.5</ele>
        <time>2014-07-30T07:59:22Z</time>
      </trkpt>
      <trkpt lat="43.3176060" lon="-7.6382790">
        <ele>476.2</ele>
        <time>2014-07-30T07:59:24Z</time>
      </trkpt>
      <trkpt lat="43.3175390" lon="-7.6391920">
        <ele>474.1</ele>
        <time>2014-07-30T07:59:36Z</time>
      </trkpt>
      <trkpt lat="43.3175250" lon="-7.6392380">
        <ele>474.1</ele>
        <time>2014-07-30T07:59:37Z</time>
      </trkpt>
      <trkpt lat="43.3175140" lon="-7.6392690">
        <ele>474.1</ele>
        <time>2014-07-30T07:59:38Z</time>
      </trkpt>
      <trkpt lat="43.3175080" lon="-7.6392930">
        <ele>474.1</ele>
        <time>2014-07-30T07:59:39Z</time>
      </trkpt>
      <trkpt lat="43.3175040" lon="-7.6393200">
        <ele>474.1</ele>
        <time>2014-07-30T07:59:40Z</time>
      </trkpt>
      <trkpt lat="43.3174960" lon="-7.6393440">
        <ele>474.1</ele>
        <time>2014-07-30T07:59:41Z</time>
      </trkpt>
      <trkpt lat="43.3173960" lon="-7.6396560">
        <ele>474.4</ele>
        <time>2014-07-30T07:59:51Z</time>
      </trkpt>
      <trkpt lat="43.3172470" lon="-7.6403260">
        <ele>476.5</ele>
        <time>2014-07-30T08:00:07Z</time>
      </trkpt>
      <trkpt lat="43.3171580" lon="-7.6409320">
        <ele>478.8</ele>
        <time>2014-07-30T08:00:24Z</time>
      </trkpt>
      <trkpt lat="43.3171120" lon="-7.6414380">
        <ele>480.3</ele>
        <time>2014-07-30T08:00:38Z</time>
      </trkpt>
      <trkpt lat="43.3169540" lon="-7.6420570">
        <ele>481.2</ele>
        <time>2014-07-30T08:00:54Z</time>
      </trkpt>
      <trkpt lat="43.3168570" lon="-7.6425970">
        <ele>481.8</ele>
        <time>2014-07-30T08:01:08Z</time>
      </trkpt>
      <trkpt lat="43.3168290" lon="-7.6433670">
        <ele>484.0</ele>
        <time>2014-07-30T08:01:25Z</time>
      </trkpt>
      <trkpt lat="43.3168250" lon="-7.6441730">
        <ele>486.5</ele>
        <time>2014-07-30T08:01:41Z</time>
      </trkpt>
      <trkpt lat="43.3168630" lon="-7.6449250">
        <ele>487.3</ele>
        <time>2014-07-30T08:01:56Z</time>
      </trkpt>
      <trkpt lat="43.3169200" lon="-7.6455090">
        <ele>488.2</ele>
        <time>2014-07-30T08:02:08Z</time>
      </trkpt>
      <trkpt lat="43.3169780" lon="-7.6460670">
        <ele>489.4</ele>
        <time>2014-07-30T08:02:20Z</time>
      </trkpt>
      <trkpt lat="43.3170510" lon="-7.6465210">
        <ele>491.2</ele>
        <time>2014-07-30T08:02:33Z</time>
      </trkpt>
      <trkpt lat="43.3170600" lon="-7.6470860">
        <ele>492.8</ele>
        <time>2014-07-30T08:02:47Z</time>
      </trkpt>
      <trkpt lat="43.3166770" lon="-7.6475560">
        <ele>491.4</ele>
        <time>2014-07-30T08:03:01Z</time>
      </trkpt>
      <trkpt lat="43.3163990" lon="-7.6478330">
        <ele>490.7</ele>
        <time>2014-07-30T08:03:08Z</time>
      </trkpt>
      <trkpt lat="43.3163520" lon="-7.6478650">
        <ele>490.6</ele>
        <time>2014-07-30T08:03:09Z</time>
      </trkpt>
      <trkpt lat="43.3155680" lon="-7.6482020">
        <ele>489.2</ele>
        <time>2014-07-30T08:03:23Z</time>
      </trkpt>
      <trkpt lat="43.3155160" lon="-7.6482490">
        <ele>489.0</ele>
        <time>2014-07-30T08:03:24Z</time>
      </trkpt>
      <trkpt lat="43.3148780" lon="-7.6491030">
        <ele>486.3</ele>
        <time>2014-07-30T08:03:38Z</time>
      </trkpt>
      <trkpt lat="43.3140560" lon="-7.6501160">
        <ele>483.3</ele>
        <time>2014-07-30T08:03:55Z</time>
      </trkpt>
      <trkpt lat="43.3133000" lon="-7.6510120">
        <ele>481.3</ele>
        <time>2014-07-30T08:04:10Z</time>
      </trkpt>
      <trkpt lat="43.3125700" lon="-7.6518170">
        <ele>480.0</ele>
        <time>2014-07-30T08:04:25Z</time>
      </trkpt>
      <trkpt lat="43.3123060" lon="-7.6521130">
        <ele>478.9</ele>
        <time>2014-07-30T08:04:34Z</time>
      </trkpt>
      <trkpt lat="43.3117580" lon="-7.6528480">
        <ele>473.5</ele>
        <time>2014-07-30T08:04:49Z</time>
      </trkpt>
      <trkpt lat="43.3112390" lon="-7.6536940">
        <ele>470.1</ele>
        <time>2014-07-30T08:05:02Z</time>
      </trkpt>
      <trkpt lat="43.3105610" lon="-7.6549800">
        <ele>471.3</ele>
        <time>2014-07-30T08:05:18Z</time>
      </trkpt>
      <trkpt lat="43.3104560" lon="-7.6552170">
        <ele>470.7</ele>
        <time>2014-07-30T08:05:21Z</time>
      </trkpt>
      <trkpt lat="43.3104160" lon="-7.6552940">
        <ele>470.5</ele>
        <time>2014-07-30T08:05:22Z</time>
      </trkpt>
      <trkpt lat="43.3102780" lon="-7.6556190">
        <ele>469.6</ele>
        <time>2014-07-30T08:05:26Z</time>
      </trkpt>
      <trkpt lat="43.3102500" lon="-7.6556950">
        <ele>469.5</ele>
        <time>2014-07-30T08:05:27Z</time>
      </trkpt>
      <trkpt lat="43.3102170" lon="-7.6557740">
        <ele>469.3</ele>
        <time>2014-07-30T08:05:28Z</time>
      </trkpt>
      <trkpt lat="43.3101800" lon="-7.6558580">
        <ele>469.1</ele>
        <time>2014-07-30T08:05:29Z</time>
      </trkpt>
      <trkpt lat="43.3101420" lon="-7.6559430">
        <ele>469.0</ele>
        <time>2014-07-30T08:05:30Z</time>
      </trkpt>
      <trkpt lat="43.3099400" lon="-7.6564580">
        <ele>468.6</ele>
        <time>2014-07-30T08:05:36Z</time>
      </trkpt>
      <trkpt lat="43.3095450" lon="-7.6572400">
        <ele>465.8</ele>
        <time>2014-07-30T08:05:46Z</time>
      </trkpt>
      <trkpt lat="43.3094970" lon="-7.6572900">
        <ele>465.6</ele>
        <time>2014-07-30T08:05:47Z</time>
      </trkpt>
      <trkpt lat="43.3094080" lon="-7.6573720">
        <ele>465.2</ele>
        <time>2014-07-30T08:05:49Z</time>
      </trkpt>
      <trkpt lat="43.3093720" lon="-7.6574200">
        <ele>465.0</ele>
        <time>2014-07-30T08:05:50Z</time>
      </trkpt>
      <trkpt lat="43.3093370" lon="-7.6574650">
        <ele>464.8</ele>
        <time>2014-07-30T08:05:51Z</time>
      </trkpt>
      <trkpt lat="43.3093070" lon="-7.6575010">
        <ele>464.6</ele>
        <time>2014-07-30T08:05:52Z</time>
      </trkpt>
      <trkpt lat="43.3092800" lon="-7.6575310">
        <ele>464.6</ele>
        <time>2014-07-30T08:05:53Z</time>
      </trkpt>
      <trkpt lat="43.3092560" lon="-7.6575640">
        <ele>464.5</ele>
        <time>2014-07-30T08:05:54Z</time>
      </trkpt>
      <trkpt lat="43.3090550" lon="-7.6582230">
        <ele>465.3</ele>
        <time>2014-07-30T08:06:06Z</time>
      </trkpt>
      <trkpt lat="43.3086250" lon="-7.6593820">
        <ele>467.9</ele>
        <time>2014-07-30T08:06:24Z</time>
      </trkpt>
      <trkpt lat="43.3081170" lon="-7.6605560">
        <ele>472.9</ele>
        <time>2014-07-30T08:06:43Z</time>
      </trkpt>
      <trkpt lat="43.3080650" lon="-7.6607550">
        <ele>473.2</ele>
        <time>2014-07-30T08:06:52Z</time>
      </trkpt>
      <trkpt lat="43.3080670" lon="-7.6607610">
        <ele>473.2</ele>
        <time>2014-07-30T08:07:13Z</time>
      </trkpt>
      <trkpt lat="43.3080670" lon="-7.6607610">
        <ele>473.2</ele>
        <time>2014-07-30T08:07:17Z</time>
      </trkpt>
      <trkpt lat="43.3080670" lon="-7.6607610">
        <ele>473.2</ele>
        <time>2014-07-30T08:07:19Z</time>
      </trkpt>
      <trkpt lat="43.3080660" lon="-7.6607600">
        <ele>473.2</ele>
        <time>2014-07-30T08:07:48Z</time>
      </trkpt>
      <trkpt lat="43.3080670" lon="-7.6607610">
        <ele>473.2</ele>
        <time>2014-07-30T08:08:19Z</time>
      </trkpt>
      <trkpt lat="43.3080670" lon="-7.6607610">
        <ele>473.2</ele>
        <time>2014-07-30T08:08:49Z</time>
      </trkpt>
      <trkpt lat="43.3080590" lon="-7.6607800">
        <ele>473.2</ele>
        <time>2014-07-30T08:08:57Z</time>
      </trkpt>
      <trkpt lat="43.3080500" lon="-7.6607960">
        <ele>473.2</ele>
        <time>2014-07-30T08:08:58Z</time>
      </trkpt>
      <trkpt lat="43.3080430" lon="-7.6608170">
        <ele>473.2</ele>
        <time>2014-07-30T08:08:59Z</time>
      </trkpt>
      <trkpt lat="43.3080300" lon="-7.6608360">
        <ele>473.2</ele>
        <time>2014-07-30T08:09:00Z</time>
      </trkpt>
      <trkpt lat="43.3080180" lon="-7.6608560">
        <ele>473.2</ele>
        <time>2014-07-30T08:09:01Z</time>
      </trkpt>
      <trkpt lat="43.3080060" lon="-7.6608770">
        <ele>473.2</ele>
        <time>2014-07-30T08:09:02Z</time>
      </trkpt>
      <trkpt lat="43.3078380" lon="-7.6613540">
        <ele>474.2</ele>
        <time>2014-07-30T08:09:18Z</time>
      </trkpt>
      <trkpt lat="43.3078380" lon="-7.6614150">
        <ele>474.2</ele>
        <time>2014-07-30T08:09:21Z</time>
      </trkpt>
      <trkpt lat="43.3078290" lon="-7.6614360">
        <ele>474.2</ele>
        <time>2014-07-30T08:09:22Z</time>
      </trkpt>
      <trkpt lat="43.3078170" lon="-7.6614570">
        <ele>474.2</ele>
        <time>2014-07-30T08:09:23Z</time>
      </trkpt>
      <trkpt lat="43.3075240" lon="-7.6618600">
        <ele>473.3</ele>
        <time>2014-07-30T08:09:38Z</time>
      </trkpt>
      <trkpt lat="43.3071480" lon="-7.6625740">
        <ele>471.9</ele>
        <time>2014-07-30T08:09:53Z</time>
      </trkpt>
      <trkpt lat="43.3070720" lon="-7.6627380">
        <ele>471.5</ele>
        <time>2014-07-30T08:09:56Z</time>
      </trkpt>
      <trkpt lat="43.3070570" lon="-7.6628000">
        <ele>471.3</ele>
        <time>2014-07-30T08:09:57Z</time>
      </trkpt>
      <trkpt lat="43.3070350" lon="-7.6629320">
        <ele>471.1</ele>
        <time>2014-07-30T08:09:59Z</time>
      </trkpt>
      <trkpt lat="43.3070330" lon="-7.6630010">
        <ele>471.0</ele>
        <time>2014-07-30T08:10:00Z</time>
      </trkpt>
      <trkpt lat="43.3070400" lon="-7.6631410">
        <ele>470.7</ele>
        <time>2014-07-30T08:10:02Z</time>
      </trkpt>
      <trkpt lat="43.3070520" lon="-7.6632060">
        <ele>470.6</ele>
        <time>2014-07-30T08:10:03Z</time>
      </trkpt>
      <trkpt lat="43.3070720" lon="-7.6632650">
        <ele>470.4</ele>
        <time>2014-07-30T08:10:04Z</time>
      </trkpt>
      <trkpt lat="43.3070970" lon="-7.6633190">
        <ele>470.3</ele>
        <time>2014-07-30T08:10:05Z</time>
      </trkpt>
      <trkpt lat="43.3071260" lon="-7.6633670">
        <ele>470.3</ele>
        <time>2014-07-30T08:10:06Z</time>
      </trkpt>
      <trkpt lat="43.3071570" lon="-7.6634130">
        <ele>470.4</ele>
        <time>2014-07-30T08:10:07Z</time>
      </trkpt>
      <trkpt lat="43.3071920" lon="-7.6634570">
        <ele>470.5</ele>
        <time>2014-07-30T08:10:08Z</time>
      </trkpt>
      <trkpt lat="43.3072280" lon="-7.6635000">
        <ele>470.8</ele>
        <time>2014-07-30T08:10:09Z</time>
      </trkpt>
      <trkpt lat="43.3073160" lon="-7.6636450">
        <ele>471.6</ele>
        <time>2014-07-30T08:10:12Z</time>
      </trkpt>
      <trkpt lat="43.3073390" lon="-7.6637040">
        <ele>471.8</ele>
        <time>2014-07-30T08:10:13Z</time>
      </trkpt>
      <trkpt lat="43.3073580" lon="-7.6637640">
        <ele>472.0</ele>
        <time>2014-07-30T08:10:14Z</time>
      </trkpt>
      <trkpt lat="43.3073870" lon="-7.6638870">
        <ele>472.1</ele>
        <time>2014-07-30T08:10:16Z</time>
      </trkpt>
      <trkpt lat="43.3073970" lon="-7.6639510">
        <ele>472.1</ele>
        <time>2014-07-30T08:10:17Z</time>
      </trkpt>
      <trkpt lat="43.3074020" lon="-7.6640160">
        <ele>472.1</ele>
        <time>2014-07-30T08:10:18Z</time>
      </trkpt>
      <trkpt lat="43.3074020" lon="-7.6640820">
        <ele>472.1</ele>
        <time>2014-07-30T08:10:19Z</time>
      </trkpt>
      <trkpt lat="43.3073980" lon="-7.6641470">
        <ele>472.1</ele>
        <time>2014-07-30T08:10:20Z</time>
      </trkpt>
      <trkpt lat="43.3073900" lon="-7.6642130">
        <ele>472.2</ele>
        <time>2014-07-30T08:10:21Z</time>
      </trkpt>
      <trkpt lat="43.3073770" lon="-7.6642780">
        <ele>472.3</ele>
        <time>2014-07-30T08:10:22Z</time>
      </trkpt>
      <trkpt lat="43.3073610" lon="-7.6643410">
        <ele>472.4</ele>
        <time>2014-07-30T08:10:23Z</time>
      </trkpt>
      <trkpt lat="43.3073400" lon="-7.6644000">
        <ele>471.9</ele>
        <time>2014-07-30T08:10:24Z</time>
      </trkpt>
      <trkpt lat="43.3073130" lon="-7.6644600">
        <ele>471.5</ele>
        <time>2014-07-30T08:10:25Z</time>
      </trkpt>
      <trkpt lat="43.3072820" lon="-7.6645180">
        <ele>471.1</ele>
        <time>2014-07-30T08:10:26Z</time>
      </trkpt>
      <trkpt lat="43.3072460" lon="-7.6645700">
        <ele>470.9</ele>
        <time>2014-07-30T08:10:27Z</time>
      </trkpt>
      <trkpt lat="43.3072040" lon="-7.6646180">
        <ele>470.6</ele>
        <time>2014-07-30T08:10:28Z</time>
      </trkpt>
      <trkpt lat="43.3071600" lon="-7.6646600">
        <ele>470.3</ele>
        <time>2014-07-30T08:10:29Z</time>
      </trkpt>
      <trkpt lat="43.3071120" lon="-7.6646980">
        <ele>470.0</ele>
        <time>2014-07-30T08:10:30Z</time>
      </trkpt>
      <trkpt lat="43.3070600" lon="-7.6647280">
        <ele>469.6</ele>
        <time>2014-07-30T08:10:31Z</time>
      </trkpt>
      <trkpt lat="43.3070050" lon="-7.6647520">
        <ele>469.1</ele>
        <time>2014-07-30T08:10:32Z</time>
      </trkpt>
      <trkpt lat="43.3069460" lon="-7.6647670">
        <ele>468.7</ele>
        <time>2014-07-30T08:10:33Z</time>
      </trkpt>
      <trkpt lat="43.3068880" lon="-7.6647710">
        <ele>468.2</ele>
        <time>2014-07-30T08:10:34Z</time>
      </trkpt>
      <trkpt lat="43.3068290" lon="-7.6647660">
        <ele>467.7</ele>
        <time>2014-07-30T08:10:35Z</time>
      </trkpt>
      <trkpt lat="43.3067690" lon="-7.6647510">
        <ele>467.5</ele>
        <time>2014-07-30T08:10:36Z</time>
      </trkpt>
      <trkpt lat="43.3067090" lon="-7.6647260">
        <ele>467.1</ele>
        <time>2014-07-30T08:10:37Z</time>
      </trkpt>
      <trkpt lat="43.3066510" lon="-7.6646990">
        <ele>466.8</ele>
        <time>2014-07-30T08:10:38Z</time>
      </trkpt>
      <trkpt lat="43.3064080" lon="-7.6646380">
        <ele>466.7</ele>
        <time>2014-07-30T08:10:42Z</time>
      </trkpt>
      <trkpt lat="43.3063450" lon="-7.6646440">
        <ele>466.7</ele>
        <time>2014-07-30T08:10:43Z</time>
      </trkpt>
      <trkpt lat="43.3062800" lon="-7.6646590">
        <ele>466.9</ele>
        <time>2014-07-30T08:10:44Z</time>
      </trkpt>
      <trkpt lat="43.3062140" lon="-7.6646810">
        <ele>467.1</ele>
        <time>2014-07-30T08:10:45Z</time>
      </trkpt>
      <trkpt lat="43.3061480" lon="-7.6647160">
        <ele>467.3</ele>
        <time>2014-07-30T08:10:46Z</time>
      </trkpt>
      <trkpt lat="43.3060880" lon="-7.6647630">
        <ele>467.4</ele>
        <time>2014-07-30T08:10:47Z</time>
      </trkpt>
      <trkpt lat="43.3060360" lon="-7.6648250">
        <ele>467.5</ele>
        <time>2014-07-30T08:10:48Z</time>
      </trkpt>
      <trkpt lat="43.3059920" lon="-7.6649000">
        <ele>467.4</ele>
        <time>2014-07-30T08:10:49Z</time>
      </trkpt>
      <trkpt lat="43.3059560" lon="-7.6649810">
        <ele>467.1</ele>
        <time>2014-07-30T08:10:50Z</time>
      </trkpt>
      <trkpt lat="43.3059220" lon="-7.6650650">
        <ele>466.9</ele>
        <time>2014-07-30T08:10:51Z</time>
      </trkpt>
      <trkpt lat="43.3058900" lon="-7.6651500">
        <ele>466.6</ele>
        <time>2014-07-30T08:10:52Z</time>
      </trkpt>
      <trkpt lat="43.3052800" lon="-7.6664300">
        <ele>464.5</ele>
        <time>2014-07-30T08:11:08Z</time>
      </trkpt>
      <trkpt lat="43.3048400" lon="-7.6673530">
        <ele>465.0</ele>
        <time>2014-07-30T08:11:22Z</time>
      </trkpt>
      <trkpt lat="43.3043580" lon="-7.6683480">
        <ele>467.4</ele>
        <time>2014-07-30T08:11:40Z</time>
      </trkpt>
      <trkpt lat="43.3038590" lon="-7.6694350">
        <ele>469.5</ele>
        <time>2014-07-30T08:12:01Z</time>
      </trkpt>
      <trkpt lat="43.3033080" lon="-7.6705640">
        <ele>473.1</ele>
        <time>2014-07-30T08:12:24Z</time>
      </trkpt>
      <trkpt lat="43.3027980" lon="-7.6716240">
        <ele>475.0</ele>
        <time>2014-07-30T08:12:45Z</time>
      </trkpt>
      <trkpt lat="43.3025430" lon="-7.6721310">
        <ele>476.1</ele>
        <time>2014-07-30T08:12:56Z</time>
      </trkpt>
      <trkpt lat="43.3025180" lon="-7.6721730">
        <ele>476.4</ele>
        <time>2014-07-30T08:12:57Z</time>
      </trkpt>
      <trkpt lat="43.3021020" lon="-7.6730430">
        <ele>478.7</ele>
        <time>2014-07-30T08:13:16Z</time>
      </trkpt>
      <trkpt lat="43.3018760" lon="-7.6735690">
        <ele>479.7</ele>
        <time>2014-07-30T08:13:27Z</time>
      </trkpt>
      <trkpt lat="43.3018600" lon="-7.6736210">
        <ele>479.8</ele>
        <time>2014-07-30T08:13:28Z</time>
      </trkpt>
      <trkpt lat="43.3017800" lon="-7.6738030">
        <ele>480.2</ele>
        <time>2014-07-30T08:13:32Z</time>
      </trkpt>
      <trkpt lat="43.3017560" lon="-7.6738490">
        <ele>480.3</ele>
        <time>2014-07-30T08:13:33Z</time>
      </trkpt>
      <trkpt lat="43.3017300" lon="-7.6738960">
        <ele>480.4</ele>
        <time>2014-07-30T08:13:34Z</time>
      </trkpt>
      <trkpt lat="43.3017020" lon="-7.6739400">
        <ele>480.6</ele>
        <time>2014-07-30T08:13:35Z</time>
      </trkpt>
      <trkpt lat="43.3016780" lon="-7.6739870">
        <ele>480.7</ele>
        <time>2014-07-30T08:13:36Z</time>
      </trkpt>
      <trkpt lat="43.3012760" lon="-7.6748280">
        <ele>481.5</ele>
        <time>2014-07-30T08:13:53Z</time>
      </trkpt>
      <trkpt lat="43.3008910" lon="-7.6755840">
        <ele>481.6</ele>
        <time>2014-07-30T08:14:08Z</time>
      </trkpt>
      <trkpt lat="43.3007910" lon="-7.6758210">
        <ele>481.6</ele>
        <time>2014-07-30T08:14:12Z</time>
      </trkpt>
      <trkpt lat="43.3004880" lon="-7.6764170">
        <ele>481.3</ele>
        <time>2014-07-30T08:14:23Z</time>
      </trkpt>
      <trkpt lat="43.3003540" lon="-7.6767160">
        <ele>481.6</ele>
        <time>2014-07-30T08:14:28Z</time>
      </trkpt>
      <trkpt lat="43.3002490" lon="-7.6769590">
        <ele>482.0</ele>
        <time>2014-07-30T08:14:32Z</time>
      </trkpt>
      <trkpt lat="43.3000940" lon="-7.6772440">
        <ele>482.2</ele>
        <time>2014-07-30T08:14:37Z</time>
      </trkpt>
      <trkpt lat="43.2998330" lon="-7.6778070">
        <ele>481.4</ele>
        <time>2014-07-30T08:14:46Z</time>
      </trkpt>
      <trkpt lat="43.2998090" lon="-7.6778790">
        <ele>481.5</ele>
        <time>2014-07-30T08:14:47Z</time>
      </trkpt>
      <trkpt lat="43.2995040" lon="-7.6786040">
        <ele>483.9</ele>
        <time>2014-07-30T08:14:57Z</time>
      </trkpt>
      <trkpt lat="43.2993880" lon="-7.6788730">
        <ele>485.4</ele>
        <time>2014-07-30T08:15:01Z</time>
      </trkpt>
      <trkpt lat="43.2991600" lon="-7.6792780">
        <ele>485.8</ele>
        <time>2014-07-30T08:15:08Z</time>
      </trkpt>
      <trkpt lat="43.2989510" lon="-7.6796590">
        <ele>484.2</ele>
        <time>2014-07-30T08:15:14Z</time>
      </trkpt>
      <trkpt lat="43.2986540" lon="-7.6802640">
        <ele>483.1</ele>
        <time>2014-07-30T08:15:23Z</time>
      </trkpt>
      <trkpt lat="43.2985860" lon="-7.6803860">
        <ele>483.2</ele>
        <time>2014-07-30T08:15:25Z</time>
      </trkpt>
      <trkpt lat="43.2984480" lon="-7.6806340">
        <ele>483.0</ele>
        <time>2014-07-30T08:15:29Z</time>
      </trkpt>
      <trkpt lat="43.2983150" lon="-7.6809510">
        <ele>483.0</ele>
        <time>2014-07-30T08:15:34Z</time>
      </trkpt>
      <trkpt lat="43.2981880" lon="-7.6811970">
        <ele>482.9</ele>
        <time>2014-07-30T08:15:38Z</time>
      </trkpt>
      <trkpt lat="43.2980940" lon="-7.6813830">
        <ele>482.7</ele>
        <time>2014-07-30T08:15:41Z</time>
      </trkpt>
      <trkpt lat="43.2979590" lon="-7.6817550">
        <ele>482.0</ele>
        <time>2014-07-30T08:15:49Z</time>
      </trkpt>
      <trkpt lat="43.2979230" lon="-7.6818110">
        <ele>481.8</ele>
        <time>2014-07-30T08:16:02Z</time>
      </trkpt>
      <trkpt lat="43.2979230" lon="-7.6818160">
        <ele>481.8</ele>
        <time>2014-07-30T08:16:23Z</time>
      </trkpt>
      <trkpt lat="43.2980670" lon="-7.6818620">
        <ele>480.1</ele>
        <time>2014-07-30T08:16:32Z</time>
      </trkpt>
      <trkpt lat="43.2982270" lon="-7.6819350">
        <ele>478.5</ele>
        <time>2014-07-30T08:16:43Z</time>
      </trkpt>
      <trkpt lat="43.2981930" lon="-7.6822610">
        <ele>476.4</ele>
        <time>2014-07-30T08:16:55Z</time>
      </trkpt>
      <trkpt lat="43.2981950" lon="-7.6823930">
        <ele>475.7</ele>
        <time>2014-07-30T08:16:59Z</time>
      </trkpt>
      <trkpt lat="43.2980150" lon="-7.6824780">
        <ele>474.8</ele>
        <time>2014-07-30T08:17:07Z</time>
      </trkpt>
      <trkpt lat="43.2981510" lon="-7.6826570">
        <ele>474.0</ele>
        <time>2014-07-30T08:17:13Z</time>
      </trkpt>
      <trkpt lat="43.2981510" lon="-7.6826570">
        <ele>474.0</ele>
        <time>2014-07-30T08:17:41Z</time>
      </trkpt>
      <trkpt lat="43.2981760" lon="-7.6827400">
        <ele>473.8</ele>
        <time>2014-07-30T08:18:02Z</time>
      </trkpt>
      <trkpt lat="43.2981700" lon="-7.6827550">
        <ele>473.7</ele>
        <time>2014-07-30T08:18:12Z</time>
      </trkpt>
      <trkpt lat="43.2981270" lon="-7.6828420">
        <ele>473.8</ele>
        <time>2014-07-30T08:18:17Z</time>
      </trkpt>
      <trkpt lat="43.2978680" lon="-7.6829770">
        <ele>474.0</ele>
        <time>2014-07-30T08:18:30Z</time>
      </trkpt>
      <trkpt lat="43.2977410" lon="-7.6832140">
        <ele>471.2</ele>
        <time>2014-07-30T08:18:42Z</time>
      </trkpt>
      <trkpt lat="43.2976450" lon="-7.6833520">
        <ele>469.8</ele>
        <time>2014-07-30T08:18:47Z</time>
      </trkpt>
      <trkpt lat="43.2975300" lon="-7.6835220">
        <ele>468.1</ele>
        <time>2014-07-30T08:18:52Z</time>
      </trkpt>
      <trkpt lat="43.2974570" lon="-7.6835830">
        <ele>467.2</ele>
        <time>2014-07-30T08:18:55Z</time>
      </trkpt>
      <trkpt lat="43.2973740" lon="-7.6836450">
        <ele>467.4</ele>
        <time>2014-07-30T08:19:00Z</time>
      </trkpt>
      <trkpt lat="43.2973350" lon="-7.6837410">
        <ele>467.5</ele>
        <time>2014-07-30T08:19:04Z</time>
      </trkpt>
      <trkpt lat="43.2972550" lon="-7.6839190">
        <ele>464.9</ele>
        <time>2014-07-30T08:19:08Z</time>
      </trkpt>
      <trkpt lat="43.2972240" lon="-7.6839630">
        <ele>464.8</ele>
        <time>2014-07-30T08:19:09Z</time>
      </trkpt>
      <trkpt lat="43.2971820" lon="-7.6839980">
        <ele>464.6</ele>
        <time>2014-07-30T08:19:10Z</time>
      </trkpt>
      <trkpt lat="43.2971320" lon="-7.6840220">
        <ele>464.4</ele>
        <time>2014-07-30T08:19:11Z</time>
      </trkpt>
      <trkpt lat="43.2970810" lon="-7.6840430">
        <ele>464.3</ele>
        <time>2014-07-30T08:19:12Z</time>
      </trkpt>
      <trkpt lat="43.2969840" lon="-7.6840960">
        <ele>463.6</ele>
        <time>2014-07-30T08:19:15Z</time>
      </trkpt>
      <trkpt lat="43.2969800" lon="-7.6841130">
        <ele>463.4</ele>
        <time>2014-07-30T08:19:25Z</time>
      </trkpt>
      <trkpt lat="43.2969770" lon="-7.6841280">
        <ele>463.2</ele>
        <time>2014-07-30T08:19:27Z</time>
      </trkpt>
      <trkpt lat="43.2969750" lon="-7.6841580">
        <ele>462.8</ele>
        <time>2014-07-30T08:19:28Z</time>
      </trkpt>
      <trkpt lat="43.2969710" lon="-7.6842020">
        <ele>462.3</ele>
        <time>2014-07-30T08:19:29Z</time>
      </trkpt>
      <trkpt lat="43.2969600" lon="-7.6844130">
        <ele>459.9</ele>
        <time>2014-07-30T08:19:32Z</time>
      </trkpt>
      <trkpt lat="43.2969550" lon="-7.6844870">
        <ele>459.0</ele>
        <time>2014-07-30T08:19:33Z</time>
      </trkpt>
      <trkpt lat="43.2969380" lon="-7.6846460">
        <ele>457.2</ele>
        <time>2014-07-30T08:19:36Z</time>
      </trkpt>
      <trkpt lat="43.2969170" lon="-7.6846580">
        <ele>456.9</ele>
        <time>2014-07-30T08:19:37Z</time>
      </trkpt>
      <trkpt lat="43.2968920" lon="-7.6846610">
        <ele>456.5</ele>
        <time>2014-07-30T08:19:38Z</time>
      </trkpt>
      <trkpt lat="43.2968680" lon="-7.6846640">
        <ele>456.2</ele>
        <time>2014-07-30T08:19:39Z</time>
      </trkpt>
      <trkpt lat="43.2968430" lon="-7.6846680">
        <ele>455.9</ele>
        <time>2014-07-30T08:19:40Z</time>
      </trkpt>
      <trkpt lat="43.2968130" lon="-7.6846690">
        <ele>455.5</ele>
        <time>2014-07-30T08:19:41Z</time>
      </trkpt>
      <trkpt lat="43.2964040" lon="-7.6848210">
        <ele>453.4</ele>
        <time>2014-07-30T08:19:53Z</time>
      </trkpt>
      <trkpt lat="43.2961970" lon="-7.6848630">
        <ele>453.0</ele>
        <time>2014-07-30T08:19:58Z</time>
      </trkpt>
      <trkpt lat="43.2961600" lon="-7.6848680">
        <ele>453.0</ele>
        <time>2014-07-30T08:19:59Z</time>
      </trkpt>
      <trkpt lat="43.2961210" lon="-7.6848680">
        <ele>453.0</ele>
        <time>2014-07-30T08:20:00Z</time>
      </trkpt>
      <trkpt lat="43.2959910" lon="-7.6848280">
        <ele>452.8</ele>
        <time>2014-07-30T08:20:03Z</time>
      </trkpt>
      <trkpt lat="43.2959490" lon="-7.6848130">
        <ele>452.6</ele>
        <time>2014-07-30T08:20:04Z</time>
      </trkpt>
      <trkpt lat="43.2958130" lon="-7.6847750">
        <ele>452.0</ele>
        <time>2014-07-30T08:20:07Z</time>
      </trkpt>
      <trkpt lat="43.2954130" lon="-7.6848660">
        <ele>448.5</ele>
        <time>2014-07-30T08:20:17Z</time>
      </trkpt>
      <trkpt lat="43.2952820" lon="-7.6849110">
        <ele>446.2</ele>
        <time>2014-07-30T08:20:21Z</time>
      </trkpt>
      <trkpt lat="43.2951880" lon="-7.6848980">
        <ele>444.4</ele>
        <time>2014-07-30T08:20:25Z</time>
      </trkpt>
      <trkpt lat="43.2950140" lon="-7.6848140">
        <ele>441.6</ele>
        <time>2014-07-30T08:20:34Z</time>
      </trkpt>
      <trkpt lat="43.2948950" lon="-7.6847590">
        <ele>440.7</ele>
        <time>2014-07-30T08:20:37Z</time>
      </trkpt>
      <trkpt lat="43.2948530" lon="-7.6847410">
        <ele>440.5</ele>
        <time>2014-07-30T08:20:38Z</time>
      </trkpt>
      <trkpt lat="43.2948130" lon="-7.6847270">
        <ele>440.3</ele>
        <time>2014-07-30T08:20:39Z</time>
      </trkpt>
      <trkpt lat="43.2944510" lon="-7.6847120">
        <ele>439.0</ele>
        <time>2014-07-30T08:20:48Z</time>
      </trkpt>
      <trkpt lat="43.2944060" lon="-7.6847300">
        <ele>438.8</ele>
        <time>2014-07-30T08:20:49Z</time>
      </trkpt>
      <trkpt lat="43.2943150" lon="-7.6847890">
        <ele>438.7</ele>
        <time>2014-07-30T08:20:51Z</time>
      </trkpt>
      <trkpt lat="43.2941700" lon="-7.6849040">
        <ele>438.7</ele>
        <time>2014-07-30T08:20:54Z</time>
      </trkpt>
      <trkpt lat="43.2941140" lon="-7.6849410">
        <ele>438.7</ele>
        <time>2014-07-30T08:20:55Z</time>
      </trkpt>
      <trkpt lat="43.2940530" lon="-7.6849730">
        <ele>438.7</ele>
        <time>2014-07-30T08:20:56Z</time>
      </trkpt>
      <trkpt lat="43.2937040" lon="-7.6851470">
        <ele>439.0</ele>
        <time>2014-07-30T08:21:01Z</time>
      </trkpt>
      <trkpt lat="43.2934910" lon="-7.6852490">
        <ele>439.2</ele>
        <time>2014-07-30T08:21:04Z</time>
      </trkpt>
      <trkpt lat="43.2933690" lon="-7.6852860">
        <ele>439.3</ele>
        <time>2014-07-30T08:21:06Z</time>
      </trkpt>
      <trkpt lat="43.2933270" lon="-7.6853230">
        <ele>439.4</ele>
        <time>2014-07-30T08:21:07Z</time>
      </trkpt>
      <trkpt lat="43.2932910" lon="-7.6853840">
        <ele>438.9</ele>
        <time>2014-07-30T08:21:08Z</time>
      </trkpt>
      <trkpt lat="43.2932580" lon="-7.6854570">
        <ele>438.5</ele>
        <time>2014-07-30T08:21:09Z</time>
      </trkpt>
      <trkpt lat="43.2932290" lon="-7.6855320">
        <ele>438.2</ele>
        <time>2014-07-30T08:21:10Z</time>
      </trkpt>
      <trkpt lat="43.2931490" lon="-7.6857060">
        <ele>437.3</ele>
        <time>2014-07-30T08:21:12Z</time>
      </trkpt>
      <trkpt lat="43.2930440" lon="-7.6858900">
        <ele>435.6</ele>
        <time>2014-07-30T08:21:14Z</time>
      </trkpt>
      <trkpt lat="43.2926840" lon="-7.6863530">
        <ele>427.7</ele>
        <time>2014-07-30T08:21:19Z</time>
      </trkpt>
      <trkpt lat="43.2925960" lon="-7.6864250">
        <ele>425.8</ele>
        <time>2014-07-30T08:21:20Z</time>
      </trkpt>
      <trkpt lat="43.2925070" lon="-7.6864830">
        <ele>424.2</ele>
        <time>2014-07-30T08:21:21Z</time>
      </trkpt>
      <trkpt lat="43.2924180" lon="-7.6865310">
        <ele>422.8</ele>
        <time>2014-07-30T08:21:22Z</time>
      </trkpt>
      <trkpt lat="43.2919090" lon="-7.6867910">
        <ele>423.0</ele>
        <time>2014-07-30T08:21:28Z</time>
      </trkpt>
      <trkpt lat="43.2918300" lon="-7.6868340">
        <ele>423.0</ele>
        <time>2014-07-30T08:21:29Z</time>
      </trkpt>
      <trkpt lat="43.2913840" lon="-7.6870680">
        <ele>422.9</ele>
        <time>2014-07-30T08:21:35Z</time>
      </trkpt>
      <trkpt lat="43.2913290" lon="-7.6871140">
        <ele>422.9</ele>
        <time>2014-07-30T08:21:36Z</time>
      </trkpt>
      <trkpt lat="43.2912880" lon="-7.6871750">
        <ele>422.6</ele>
        <time>2014-07-30T08:21:37Z</time>
      </trkpt>
      <trkpt lat="43.2912630" lon="-7.6872490">
        <ele>422.3</ele>
        <time>2014-07-30T08:21:38Z</time>
      </trkpt>
      <trkpt lat="43.2912510" lon="-7.6873300">
        <ele>422.1</ele>
        <time>2014-07-30T08:21:39Z</time>
      </trkpt>
      <trkpt lat="43.2912470" lon="-7.6874100">
        <ele>422.0</ele>
        <time>2014-07-30T08:21:40Z</time>
      </trkpt>
      <trkpt lat="43.2912460" lon="-7.6874830">
        <ele>422.0</ele>
        <time>2014-07-30T08:21:41Z</time>
      </trkpt>
      <trkpt lat="43.2912450" lon="-7.6877440">
        <ele>422.2</ele>
        <time>2014-07-30T08:21:46Z</time>
      </trkpt>
      <trkpt lat="43.2912280" lon="-7.6877700">
        <ele>422.3</ele>
        <time>2014-07-30T08:21:47Z</time>
      </trkpt>
      <trkpt lat="43.2912060" lon="-7.6877850">
        <ele>422.3</ele>
        <time>2014-07-30T08:21:48Z</time>
      </trkpt>
      <trkpt lat="43.2910740" lon="-7.6877720">
        <ele>423.2</ele>
        <time>2014-07-30T08:21:56Z</time>
      </trkpt>
      <trkpt lat="43.2910720" lon="-7.6877370">
        <ele>423.2</ele>
        <time>2014-07-30T08:22:15Z</time>
      </trkpt>
      <trkpt lat="43.2910790" lon="-7.6877400">
        <ele>423.1</ele>
        <time>2014-07-30T08:22:17Z</time>
      </trkpt>
      <trkpt lat="43.2910940" lon="-7.6877430">
        <ele>423.1</ele>
        <time>2014-07-30T08:22:18Z</time>
      </trkpt>
      <trkpt lat="43.2911630" lon="-7.6877410">
        <ele>422.8</ele>
        <time>2014-07-30T08:22:25Z</time>
      </trkpt>
      <trkpt lat="43.2912420" lon="-7.6877500">
        <ele>422.2</ele>
        <time>2014-07-30T08:22:37Z</time>
      </trkpt>
      <trkpt lat="43.2912760" lon="-7.6877190">
        <ele>421.8</ele>
        <time>2014-07-30T08:22:52Z</time>
      </trkpt>
      <trkpt lat="43.2912760" lon="-7.6877190">
        <ele>421.8</ele>
        <time>2014-07-30T08:23:22Z</time>
      </trkpt>
      <trkpt lat="43.2912890" lon="-7.6877260">
        <ele>421.7</ele>
        <time>2014-07-30T08:23:50Z</time>
      </trkpt>
      <trkpt lat="43.2912890" lon="-7.6877260">
        <ele>421.7</ele>
        <time>2014-07-30T08:23:51Z</time>
      </trkpt>
      <trkpt lat="43.2912890" lon="-7.6877260">
        <ele>421.7</ele>
        <time>2014-07-30T08:23:52Z</time>
      </trkpt>
      <trkpt lat="43.2912900" lon="-7.6877280">
        <ele>421.7</ele>
        <time>2014-07-30T08:24:23Z</time>
      </trkpt>
      <trkpt lat="43.2912940" lon="-7.6877640">
        <ele>421.5</ele>
        <time>2014-07-30T08:24:34Z</time>
      </trkpt>
      <trkpt lat="43.2912990" lon="-7.6877720">
        <ele>421.5</ele>
        <time>2014-07-30T08:24:40Z</time>
      </trkpt>
      <trkpt lat="43.2913100" lon="-7.6878010">
        <ele>421.4</ele>
        <time>2014-07-30T08:24:42Z</time>
      </trkpt>
      <trkpt lat="43.2914020" lon="-7.6878750">
        <ele>420.8</ele>
        <time>2014-07-30T08:24:50Z</time>
      </trkpt>
      <trkpt lat="43.2914420" lon="-7.6880430">
        <ele>420.1</ele>
        <time>2014-07-30T08:25:00Z</time>
      </trkpt>
      <trkpt lat="43.2914330" lon="-7.6881450">
        <ele>419.9</ele>
        <time>2014-07-30T08:25:06Z</time>
      </trkpt>
      <trkpt lat="43.2914370" lon="-7.6882720">
        <ele>419.9</ele>
        <time>2014-07-30T08:25:14Z</time>
      </trkpt>
      <trkpt lat="43.2914030" lon="-7.6884420">
        <ele>421.1</ele>
        <time>2014-07-30T08:25:26Z</time>
      </trkpt>
      <trkpt lat="43.2913440" lon="-7.6887080">
        <ele>424.0</ele>
        <time>2014-07-30T08:25:43Z</time>
      </trkpt>
      <trkpt lat="43.2912790" lon="-7.6890250">
        <ele>426.9</ele>
        <time>2014-07-30T08:26:00Z</time>
      </trkpt>
      <trkpt lat="43.2912260" lon="-7.6893620">
        <ele>429.2</ele>
        <time>2014-07-30T08:26:18Z</time>
      </trkpt>
      <trkpt lat="43.2911990" lon="-7.6894650">
        <ele>430.0</ele>
        <time>2014-07-30T08:26:24Z</time>
      </trkpt>
      <trkpt lat="43.2911860" lon="-7.6895080">
        <ele>430.3</ele>
        <time>2014-07-30T08:26:27Z</time>
      </trkpt>
      <trkpt lat="43.2909970" lon="-7.6895680">
        <ele>433.9</ele>
        <time>2014-07-30T08:26:40Z</time>
      </trkpt>
      <trkpt lat="43.2909010" lon="-7.6897110">
        <ele>435.9</ele>
        <time>2014-07-30T08:26:49Z</time>
      </trkpt>
      <trkpt lat="43.2908420" lon="-7.6897470">
        <ele>436.6</ele>
        <time>2014-07-30T08:26:53Z</time>
      </trkpt>
      <trkpt lat="43.2907530" lon="-7.6898250">
        <ele>437.8</ele>
        <time>2014-07-30T08:26:59Z</time>
      </trkpt>
      <trkpt lat="43.2906240" lon="-7.6898790">
        <ele>439.4</ele>
        <time>2014-07-30T08:27:06Z</time>
      </trkpt>
      <trkpt lat="43.2905820" lon="-7.6899240">
        <ele>440.0</ele>
        <time>2014-07-30T08:27:09Z</time>
      </trkpt>
      <trkpt lat="43.2903920" lon="-7.6901070">
        <ele>442.1</ele>
        <time>2014-07-30T08:27:20Z</time>
      </trkpt>
      <trkpt lat="43.2902390" lon="-7.6902480">
        <ele>443.0</ele>
        <time>2014-07-30T08:27:30Z</time>
      </trkpt>
      <trkpt lat="43.2899890" lon="-7.6904740">
        <ele>443.4</ele>
        <time>2014-07-30T08:27:48Z</time>
      </trkpt>
      <trkpt lat="43.2897810" lon="-7.6906800">
        <ele>443.0</ele>
        <time>2014-07-30T08:28:06Z</time>
      </trkpt>
      <trkpt lat="43.2894800" lon="-7.6908930">
        <ele>441.9</ele>
        <time>2014-07-30T08:28:25Z</time>
      </trkpt>
      <trkpt lat="43.2894350" lon="-7.6909060">
        <ele>441.8</ele>
        <time>2014-07-30T08:28:27Z</time>
      </trkpt>
      <trkpt lat="43.2891940" lon="-7.6907950">
        <ele>441.7</ele>
        <time>2014-07-30T08:28:34Z</time>
      </trkpt>
      <trkpt lat="43.2891480" lon="-7.6907810">
        <ele>441.8</ele>
        <time>2014-07-30T08:28:35Z</time>
      </trkpt>
      <trkpt lat="43.2887390" lon="-7.6907290">
        <ele>444.3</ele>
        <time>2014-07-30T08:28:44Z</time>
      </trkpt>
      <trkpt lat="43.2884230" lon="-7.6908310">
        <ele>446.5</ele>
        <time>2014-07-30T08:28:52Z</time>
      </trkpt>
      <trkpt lat="43.2881120" lon="-7.6910970">
        <ele>448.4</ele>
        <time>2014-07-30T08:29:03Z</time>
      </trkpt>
      <trkpt lat="43.2879750" lon="-7.6915520">
        <ele>451.2</ele>
        <time>2014-07-30T08:29:18Z</time>
      </trkpt>
      <trkpt lat="43.2878190" lon="-7.6919970">
        <ele>453.6</ele>
        <time>2014-07-30T08:29:32Z</time>
      </trkpt>
      <trkpt lat="43.2876690" lon="-7.6924450">
        <ele>453.6</ele>
        <time>2014-07-30T08:29:42Z</time>
      </trkpt>
      <trkpt lat="43.2876450" lon="-7.6925040">
        <ele>453.5</ele>
        <time>2014-07-30T08:29:43Z</time>
      </trkpt>
      <trkpt lat="43.2876260" lon="-7.6925680">
        <ele>453.4</ele>
        <time>2014-07-30T08:29:44Z</time>
      </trkpt>
      <trkpt lat="43.2876060" lon="-7.6926360">
        <ele>453.3</ele>
        <time>2014-07-30T08:29:45Z</time>
      </trkpt>
      <trkpt lat="43.2875820" lon="-7.6927070">
        <ele>453.1</ele>
        <time>2014-07-30T08:29:46Z</time>
      </trkpt>
      <trkpt lat="43.2874850" lon="-7.6930400">
        <ele>452.0</ele>
        <time>2014-07-30T08:29:50Z</time>
      </trkpt>
      <trkpt lat="43.2874630" lon="-7.6931300">
        <ele>451.6</ele>
        <time>2014-07-30T08:29:51Z</time>
      </trkpt>
      <trkpt lat="43.2873000" lon="-7.6936210">
        <ele>449.0</ele>
        <time>2014-07-30T08:29:56Z</time>
      </trkpt>
      <trkpt lat="43.2871060" lon="-7.6940950">
        <ele>445.7</ele>
        <time>2014-07-30T08:30:00Z</time>
      </trkpt>
      <trkpt lat="43.2870550" lon="-7.6942180">
        <ele>444.9</ele>
        <time>2014-07-30T08:30:01Z</time>
      </trkpt>
      <trkpt lat="43.2868610" lon="-7.6946720">
        <ele>441.2</ele>
        <time>2014-07-30T08:30:05Z</time>
      </trkpt>
      <trkpt lat="43.2867330" lon="-7.6949760">
        <ele>437.8</ele>
        <time>2014-07-30T08:30:08Z</time>
      </trkpt>
      <trkpt lat="43.2865760" lon="-7.6953760">
        <ele>433.5</ele>
        <time>2014-07-30T08:30:13Z</time>
      </trkpt>
      <trkpt lat="43.2865300" lon="-7.6954790">
        <ele>433.0</ele>
        <time>2014-07-30T08:30:15Z</time>
      </trkpt>
      <trkpt lat="43.2864750" lon="-7.6955760">
        <ele>432.5</ele>
        <time>2014-07-30T08:30:17Z</time>
      </trkpt>
      <trkpt lat="43.2864410" lon="-7.6956250">
        <ele>432.2</ele>
        <time>2014-07-30T08:30:18Z</time>
      </trkpt>
      <trkpt lat="43.2860930" lon="-7.6960600">
        <ele>428.9</ele>
        <time>2014-07-30T08:30:26Z</time>
      </trkpt>
      <trkpt lat="43.2860140" lon="-7.6961930">
        <ele>427.9</ele>
        <time>2014-07-30T08:30:28Z</time>
      </trkpt>
      <trkpt lat="43.2857500" lon="-7.6970480">
        <ele>422.0</ele>
        <time>2014-07-30T08:30:39Z</time>
      </trkpt>
      <trkpt lat="43.2857440" lon="-7.6971190">
        <ele>421.7</ele>
        <time>2014-07-30T08:30:40Z</time>
      </trkpt>
      <trkpt lat="43.2857360" lon="-7.6971860">
        <ele>421.4</ele>
        <time>2014-07-30T08:30:41Z</time>
      </trkpt>
      <trkpt lat="43.2857240" lon="-7.6972500">
        <ele>421.2</ele>
        <time>2014-07-30T08:30:42Z</time>
      </trkpt>
      <trkpt lat="43.2857050" lon="-7.6973120">
        <ele>420.9</ele>
        <time>2014-07-30T08:30:43Z</time>
      </trkpt>
      <trkpt lat="43.2856790" lon="-7.6973750">
        <ele>420.6</ele>
        <time>2014-07-30T08:30:44Z</time>
      </trkpt>
      <trkpt lat="43.2856470" lon="-7.6974350">
        <ele>420.3</ele>
        <time>2014-07-30T08:30:45Z</time>
      </trkpt>
      <trkpt lat="43.2856140" lon="-7.6974940">
        <ele>420.0</ele>
        <time>2014-07-30T08:30:46Z</time>
      </trkpt>
      <trkpt lat="43.2853620" lon="-7.6981210">
        <ele>417.3</ele>
        <time>2014-07-30T08:30:55Z</time>
      </trkpt>
      <trkpt lat="43.2853500" lon="-7.6981870">
        <ele>416.8</ele>
        <time>2014-07-30T08:30:56Z</time>
      </trkpt>
      <trkpt lat="43.2853300" lon="-7.6984550">
        <ele>415.0</ele>
        <time>2014-07-30T08:31:00Z</time>
      </trkpt>
      <trkpt lat="43.2853300" lon="-7.6985120">
        <ele>414.6</ele>
        <time>2014-07-30T08:31:01Z</time>
      </trkpt>
      <trkpt lat="43.2853250" lon="-7.6985710">
        <ele>414.3</ele>
        <time>2014-07-30T08:31:02Z</time>
      </trkpt>
      <trkpt lat="43.2852780" lon="-7.6987710">
        <ele>413.6</ele>
        <time>2014-07-30T08:31:05Z</time>
      </trkpt>
      <trkpt lat="43.2852490" lon="-7.6988410">
        <ele>413.5</ele>
        <time>2014-07-30T08:31:06Z</time>
      </trkpt>
      <trkpt lat="43.2852110" lon="-7.6989090">
        <ele>413.5</ele>
        <time>2014-07-30T08:31:07Z</time>
      </trkpt>
      <trkpt lat="43.2851660" lon="-7.6989720">
        <ele>413.6</ele>
        <time>2014-07-30T08:31:08Z</time>
      </trkpt>
      <trkpt lat="43.2851180" lon="-7.6990260">
        <ele>413.8</ele>
        <time>2014-07-30T08:31:09Z</time>
      </trkpt>
      <trkpt lat="43.2850700" lon="-7.6990780">
        <ele>414.0</ele>
        <time>2014-07-30T08:31:10Z</time>
      </trkpt>
      <trkpt lat="43.2847190" lon="-7.6994510">
        <ele>416.0</ele>
        <time>2014-07-30T08:31:21Z</time>
      </trkpt>
      <trkpt lat="43.2845690" lon="-7.6996400">
        <ele>415.9</ele>
        <time>2014-07-30T08:31:29Z</time>
      </trkpt>
      <trkpt lat="43.2845450" lon="-7.6996540">
        <ele>415.9</ele>
        <time>2014-07-30T08:31:30Z</time>
      </trkpt>
      <trkpt lat="43.2845260" lon="-7.6996720">
        <ele>416.0</ele>
        <time>2014-07-30T08:31:31Z</time>
      </trkpt>
      <trkpt lat="43.2845140" lon="-7.6996890">
        <ele>416.1</ele>
        <time>2014-07-30T08:31:32Z</time>
      </trkpt>
      <trkpt lat="43.2845050" lon="-7.6997060">
        <ele>416.2</ele>
        <time>2014-07-30T08:31:33Z</time>
      </trkpt>
      <trkpt lat="43.2844970" lon="-7.6997240">
        <ele>416.2</ele>
        <time>2014-07-30T08:31:34Z</time>
      </trkpt>
      <trkpt lat="43.2844880" lon="-7.6997370">
        <ele>416.3</ele>
        <time>2014-07-30T08:31:35Z</time>
      </trkpt>
      <trkpt lat="43.2844810" lon="-7.6997540">
        <ele>416.3</ele>
        <time>2014-07-30T08:31:36Z</time>
      </trkpt>
      <trkpt lat="43.2844770" lon="-7.6997740">
        <ele>416.4</ele>
        <time>2014-07-30T08:31:37Z</time>
      </trkpt>
      <trkpt lat="43.2844670" lon="-7.6997920">
        <ele>416.8</ele>
        <time>2014-07-30T08:31:38Z</time>
      </trkpt>
      <trkpt lat="43.2844580" lon="-7.6998130">
        <ele>417.0</ele>
        <time>2014-07-30T08:31:39Z</time>
      </trkpt>
      <trkpt lat="43.2844500" lon="-7.6998360">
        <ele>417.2</ele>
        <time>2014-07-30T08:31:40Z</time>
      </trkpt>
      <trkpt lat="43.2844420" lon="-7.6998560">
        <ele>417.4</ele>
        <time>2014-07-30T08:31:41Z</time>
      </trkpt>
      <trkpt lat="43.2844320" lon="-7.6998760">
        <ele>417.6</ele>
        <time>2014-07-30T08:31:42Z</time>
      </trkpt>
      <trkpt lat="43.2844240" lon="-7.6998990">
        <ele>417.8</ele>
        <time>2014-07-30T08:31:43Z</time>
      </trkpt>
      <trkpt lat="43.2844200" lon="-7.6999220">
        <ele>418.0</ele>
        <time>2014-07-30T08:31:44Z</time>
      </trkpt>
      <trkpt lat="43.2843270" lon="-7.7001200">
        <ele>420.0</ele>
        <time>2014-07-30T08:31:54Z</time>
      </trkpt>
      <trkpt lat="43.2842030" lon="-7.7003020">
        <ele>422.0</ele>
        <time>2014-07-30T08:32:05Z</time>
      </trkpt>
      <trkpt lat="43.2841920" lon="-7.7003150">
        <ele>422.2</ele>
        <time>2014-07-30T08:32:06Z</time>
      </trkpt>
      <trkpt lat="43.2841830" lon="-7.7003270">
        <ele>422.3</ele>
        <time>2014-07-30T08:32:07Z</time>
      </trkpt>
      <trkpt lat="43.2841290" lon="-7.7003850">
        <ele>422.8</ele>
        <time>2014-07-30T08:32:12Z</time>
      </trkpt>
      <trkpt lat="43.2841160" lon="-7.7003950">
        <ele>422.9</ele>
        <time>2014-07-30T08:32:13Z</time>
      </trkpt>
      <trkpt lat="43.2841040" lon="-7.7004100">
        <ele>423.0</ele>
        <time>2014-07-30T08:32:14Z</time>
      </trkpt>
      <trkpt lat="43.2840920" lon="-7.7004200">
        <ele>423.2</ele>
        <time>2014-07-30T08:32:15Z</time>
      </trkpt>
      <trkpt lat="43.2839970" lon="-7.7005570">
        <ele>424.9</ele>
        <time>2014-07-30T08:32:28Z</time>
      </trkpt>
      <trkpt lat="43.2839080" lon="-7.7007480">
        <ele>426.5</ele>
        <time>2014-07-30T08:32:39Z</time>
      </trkpt>
      <trkpt lat="43.2838920" lon="-7.7007670">
        <ele>426.8</ele>
        <time>2014-07-30T08:32:41Z</time>
      </trkpt>
      <trkpt lat="43.2838840" lon="-7.7007780">
        <ele>426.9</ele>
        <time>2014-07-30T08:32:42Z</time>
      </trkpt>
      <trkpt lat="43.2838730" lon="-7.7007960">
        <ele>427.0</ele>
        <time>2014-07-30T08:32:43Z</time>
      </trkpt>
      <trkpt lat="43.2837740" lon="-7.7009140">
        <ele>428.1</ele>
        <time>2014-07-30T08:32:49Z</time>
      </trkpt>
      <trkpt lat="43.2837430" lon="-7.7009450">
        <ele>428.4</ele>
        <time>2014-07-30T08:32:51Z</time>
      </trkpt>
      <trkpt lat="43.2837330" lon="-7.7009640">
        <ele>428.5</ele>
        <time>2014-07-30T08:32:52Z</time>
      </trkpt>
      <trkpt lat="43.2837110" lon="-7.7009850">
        <ele>428.7</ele>
        <time>2014-07-30T08:32:53Z</time>
      </trkpt>
      <trkpt lat="43.2835460" lon="-7.7010450">
        <ele>429.4</ele>
        <time>2014-07-30T08:33:04Z</time>
      </trkpt>
      <trkpt lat="43.2834560" lon="-7.7010560">
        <ele>429.8</ele>
        <time>2014-07-30T08:33:10Z</time>
      </trkpt>
      <trkpt lat="43.2834410" lon="-7.7010580">
        <ele>429.9</ele>
        <time>2014-07-30T08:33:11Z</time>
      </trkpt>
      <trkpt lat="43.2834260" lon="-7.7010580">
        <ele>429.9</ele>
        <time>2014-07-30T08:33:12Z</time>
      </trkpt>
      <trkpt lat="43.2834100" lon="-7.7010630">
        <ele>430.0</ele>
        <time>2014-07-30T08:33:13Z</time>
      </trkpt>
      <trkpt lat="43.2833930" lon="-7.7010700">
        <ele>430.0</ele>
        <time>2014-07-30T08:33:14Z</time>
      </trkpt>
      <trkpt lat="43.2833780" lon="-7.7010780">
        <ele>430.1</ele>
        <time>2014-07-30T08:33:15Z</time>
      </trkpt>
      <trkpt lat="43.2833630" lon="-7.7010890">
        <ele>430.2</ele>
        <time>2014-07-30T08:33:16Z</time>
      </trkpt>
      <trkpt lat="43.2832710" lon="-7.7011510">
        <ele>430.7</ele>
        <time>2014-07-30T08:33:23Z</time>
      </trkpt>
      <trkpt lat="43.2831900" lon="-7.7012130">
        <ele>431.7</ele>
        <time>2014-07-30T08:33:29Z</time>
      </trkpt>
      <trkpt lat="43.2831770" lon="-7.7012130">
        <ele>431.9</ele>
        <time>2014-07-30T08:33:30Z</time>
      </trkpt>
      <trkpt lat="43.2830370" lon="-7.7012030">
        <ele>434.1</ele>
        <time>2014-07-30T08:33:41Z</time>
      </trkpt>
      <trkpt lat="43.2829730" lon="-7.7012330">
        <ele>435.3</ele>
        <time>2014-07-30T08:33:47Z</time>
      </trkpt>
      <trkpt lat="43.2829630" lon="-7.7012480">
        <ele>435.6</ele>
        <time>2014-07-30T08:33:48Z</time>
      </trkpt>
      <trkpt lat="43.2829400" lon="-7.7014470">
        <ele>437.6</ele>
        <time>2014-07-30T08:34:02Z</time>
      </trkpt>
      <trkpt lat="43.2829070" lon="-7.7014890">
        <ele>438.4</ele>
        <time>2014-07-30T08:34:14Z</time>
      </trkpt>
      <trkpt lat="43.2828210" lon="-7.7015790">
        <ele>440.3</ele>
        <time>2014-07-30T08:34:27Z</time>
      </trkpt>
      <trkpt lat="43.2828010" lon="-7.7016050">
        <ele>440.9</ele>
        <time>2014-07-30T08:34:31Z</time>
      </trkpt>
      <trkpt lat="43.2827540" lon="-7.7017380">
        <ele>443.1</ele>
        <time>2014-07-30T08:34:45Z</time>
      </trkpt>
      <trkpt lat="43.2827000" lon="-7.7018520">
        <ele>444.9</ele>
        <time>2014-07-30T08:34:56Z</time>
      </trkpt>
      <trkpt lat="43.2826200" lon="-7.7019940">
        <ele>447.1</ele>
        <time>2014-07-30T08:35:10Z</time>
      </trkpt>
      <trkpt lat="43.2825930" lon="-7.7020800">
        <ele>448.0</ele>
        <time>2014-07-30T08:35:23Z</time>
      </trkpt>
      <trkpt lat="43.2825760" lon="-7.7020990">
        <ele>448.2</ele>
        <time>2014-07-30T08:35:27Z</time>
      </trkpt>
      <trkpt lat="43.2824890" lon="-7.7021780">
        <ele>449.7</ele>
        <time>2014-07-30T08:35:34Z</time>
      </trkpt>
      <trkpt lat="43.2823820" lon="-7.7023800">
        <ele>451.8</ele>
        <time>2014-07-30T08:35:47Z</time>
      </trkpt>
      <trkpt lat="43.2823700" lon="-7.7024130">
        <ele>452.1</ele>
        <time>2014-07-30T08:35:49Z</time>
      </trkpt>
      <trkpt lat="43.2823600" lon="-7.7024350">
        <ele>452.4</ele>
        <time>2014-07-30T08:35:50Z</time>
      </trkpt>
      <trkpt lat="43.2823500" lon="-7.7024540">
        <ele>452.5</ele>
        <time>2014-07-30T08:35:51Z</time>
      </trkpt>
      <trkpt lat="43.2823400" lon="-7.7024740">
        <ele>452.7</ele>
        <time>2014-07-30T08:35:52Z</time>
      </trkpt>
      <trkpt lat="43.2823310" lon="-7.7024930">
        <ele>452.8</ele>
        <time>2014-07-30T08:35:53Z</time>
      </trkpt>
      <trkpt lat="43.2822690" lon="-7.7027410">
        <ele>454.8</ele>
        <time>2014-07-30T08:36:06Z</time>
      </trkpt>
      <trkpt lat="43.2822150" lon="-7.7028250">
        <ele>455.6</ele>
        <time>2014-07-30T08:36:12Z</time>
      </trkpt>
      <trkpt lat="43.2822050" lon="-7.7028420">
        <ele>455.7</ele>
        <time>2014-07-30T08:36:13Z</time>
      </trkpt>
      <trkpt lat="43.2821970" lon="-7.7028650">
        <ele>455.9</ele>
        <time>2014-07-30T08:36:14Z</time>
      </trkpt>
      <trkpt lat="43.2821610" lon="-7.7031210">
        <ele>457.1</ele>
        <time>2014-07-30T08:36:27Z</time>
      </trkpt>
      <trkpt lat="43.2821610" lon="-7.7034890">
        <ele>458.8</ele>
        <time>2014-07-30T08:36:44Z</time>
      </trkpt>
      <trkpt lat="43.2820740" lon="-7.7038200">
        <ele>460.2</ele>
        <time>2014-07-30T08:36:59Z</time>
      </trkpt>
      <trkpt lat="43.2818970" lon="-7.7042760">
        <ele>461.9</ele>
        <time>2014-07-30T08:37:17Z</time>
      </trkpt>
      <trkpt lat="43.2816470" lon="-7.7045070">
        <ele>463.5</ele>
        <time>2014-07-30T08:37:31Z</time>
      </trkpt>
      <trkpt lat="43.2813860" lon="-7.7047640">
        <ele>465.0</ele>
        <time>2014-07-30T08:37:48Z</time>
      </trkpt>
      <trkpt lat="43.2812680" lon="-7.7048590">
        <ele>465.3</ele>
        <time>2014-07-30T08:37:59Z</time>
      </trkpt>
      <trkpt lat="43.2811450" lon="-7.7050760">
        <ele>465.7</ele>
        <time>2014-07-30T08:38:12Z</time>
      </trkpt>
      <trkpt lat="43.2810910" lon="-7.7051620">
        <ele>465.7</ele>
        <time>2014-07-30T08:38:19Z</time>
      </trkpt>
      <trkpt lat="43.2810850" lon="-7.7051910">
        <ele>465.8</ele>
        <time>2014-07-30T08:38:21Z</time>
      </trkpt>
      <trkpt lat="43.2810530" lon="-7.7052580">
        <ele>465.8</ele>
        <time>2014-07-30T08:38:26Z</time>
      </trkpt>
      <trkpt lat="43.2809580" lon="-7.7052470">
        <ele>466.0</ele>
        <time>2014-07-30T08:38:33Z</time>
      </trkpt>
      <trkpt lat="43.2808030" lon="-7.7050410">
        <ele>467.0</ele>
        <time>2014-07-30T08:38:47Z</time>
      </trkpt>
      <trkpt lat="43.2806840" lon="-7.7048660">
        <ele>469.9</ele>
        <time>2014-07-30T08:38:55Z</time>
      </trkpt>
      <trkpt lat="43.2806350" lon="-7.7048890">
        <ele>471.1</ele>
        <time>2014-07-30T08:38:58Z</time>
      </trkpt>
      <trkpt lat="43.2805570" lon="-7.7049680">
        <ele>474.2</ele>
        <time>2014-07-30T08:39:04Z</time>
      </trkpt>
      <trkpt lat="43.2805050" lon="-7.7050290">
        <ele>475.5</ele>
        <time>2014-07-30T08:39:09Z</time>
      </trkpt>
      <trkpt lat="43.2804180" lon="-7.7051460">
        <ele>477.8</ele>
        <time>2014-07-30T08:39:23Z</time>
      </trkpt>
      <trkpt lat="43.2803390" lon="-7.7052450">
        <ele>479.6</ele>
        <time>2014-07-30T08:39:35Z</time>
      </trkpt>
      <trkpt lat="43.2802190" lon="-7.7053280">
        <ele>481.8</ele>
        <time>2014-07-30T08:39:48Z</time>
      </trkpt>
      <trkpt lat="43.2801030" lon="-7.7054230">
        <ele>483.1</ele>
        <time>2014-07-30T08:40:02Z</time>
      </trkpt>
      <trkpt lat="43.2800630" lon="-7.7054370">
        <ele>483.5</ele>
        <time>2014-07-30T08:40:18Z</time>
      </trkpt>
      <trkpt lat="43.2800630" lon="-7.7054370">
        <ele>483.5</ele>
        <time>2014-07-30T08:40:46Z</time>
      </trkpt>
      <trkpt lat="43.2800610" lon="-7.7054390">
        <ele>483.5</ele>
        <time>2014-07-30T08:41:10Z</time>
      </trkpt>
      <trkpt lat="43.2800610" lon="-7.7054390">
        <ele>483.5</ele>
        <time>2014-07-30T08:41:30Z</time>
      </trkpt>
      <trkpt lat="43.2799340" lon="-7.7055560">
        <ele>484.7</ele>
        <time>2014-07-30T08:41:49Z</time>
      </trkpt>
      <trkpt lat="43.2797760" lon="-7.7057530">
        <ele>485.5</ele>
        <time>2014-07-30T08:42:00Z</time>
      </trkpt>
      <trkpt lat="43.2796810" lon="-7.7060540">
        <ele>486.8</ele>
        <time>2014-07-30T08:42:12Z</time>
      </trkpt>
      <trkpt lat="43.2796210" lon="-7.7061560">
        <ele>487.2</ele>
        <time>2014-07-30T08:42:17Z</time>
      </trkpt>
      <trkpt lat="43.2795590" lon="-7.7061750">
        <ele>487.6</ele>
        <time>2014-07-30T08:42:20Z</time>
      </trkpt>
      <trkpt lat="43.2794420" lon="-7.7061610">
        <ele>488.4</ele>
        <time>2014-07-30T08:42:26Z</time>
      </trkpt>
      <trkpt lat="43.2791770" lon="-7.7061640">
        <ele>490.8</ele>
        <time>2014-07-30T08:42:39Z</time>
      </trkpt>
      <trkpt lat="43.2791680" lon="-7.7062680">
        <ele>491.6</ele>
        <time>2014-07-30T08:42:43Z</time>
      </trkpt>
      <trkpt lat="43.2791000" lon="-7.7065440">
        <ele>491.9</ele>
        <time>2014-07-30T08:42:58Z</time>
      </trkpt>
      <trkpt lat="43.2789450" lon="-7.7067740">
        <ele>494.4</ele>
        <time>2014-07-30T08:43:12Z</time>
      </trkpt>
      <trkpt lat="43.2788410" lon="-7.7071520">
        <ele>497.6</ele>
        <time>2014-07-30T08:43:29Z</time>
      </trkpt>
      <trkpt lat="43.2789050" lon="-7.7074800">
        <ele>500.2</ele>
        <time>2014-07-30T08:43:42Z</time>
      </trkpt>
      <trkpt lat="43.2788220" lon="-7.7078680">
        <ele>502.9</ele>
        <time>2014-07-30T08:43:53Z</time>
      </trkpt>
      <trkpt lat="43.2787050" lon="-7.7081350">
        <ele>505.3</ele>
        <time>2014-07-30T08:44:04Z</time>
      </trkpt>
      <trkpt lat="43.2785980" lon="-7.7084020">
        <ele>507.4</ele>
        <time>2014-07-30T08:44:16Z</time>
      </trkpt>
      <trkpt lat="43.2784860" lon="-7.7086460">
        <ele>509.6</ele>
        <time>2014-07-30T08:44:29Z</time>
      </trkpt>
      <trkpt lat="43.2782330" lon="-7.7087710">
        <ele>509.8</ele>
        <time>2014-07-30T08:44:42Z</time>
      </trkpt>
      <trkpt lat="43.2778890" lon="-7.7087260">
        <ele>507.3</ele>
        <time>2014-07-30T08:44:52Z</time>
      </trkpt>
      <trkpt lat="43.2776550" lon="-7.7090050">
        <ele>505.9</ele>
        <time>2014-07-30T08:45:01Z</time>
      </trkpt>
      <trkpt lat="43.2775950" lon="-7.7090840">
        <ele>505.5</ele>
        <time>2014-07-30T08:45:03Z</time>
      </trkpt>
      <trkpt lat="43.2775350" lon="-7.7091690">
        <ele>505.0</ele>
        <time>2014-07-30T08:45:05Z</time>
      </trkpt>
      <trkpt lat="43.2775090" lon="-7.7092120">
        <ele>504.8</ele>
        <time>2014-07-30T08:45:06Z</time>
      </trkpt>
      <trkpt lat="43.2774810" lon="-7.7092520">
        <ele>504.5</ele>
        <time>2014-07-30T08:45:07Z</time>
      </trkpt>
      <trkpt lat="43.2774520" lon="-7.7092920">
        <ele>504.3</ele>
        <time>2014-07-30T08:45:08Z</time>
      </trkpt>
      <trkpt lat="43.2774200" lon="-7.7093230">
        <ele>504.0</ele>
        <time>2014-07-30T08:45:09Z</time>
      </trkpt>
      <trkpt lat="43.2773900" lon="-7.7093470">
        <ele>503.7</ele>
        <time>2014-07-30T08:45:10Z</time>
      </trkpt>
      <trkpt lat="43.2773510" lon="-7.7093650">
        <ele>503.5</ele>
        <time>2014-07-30T08:45:11Z</time>
      </trkpt>
      <trkpt lat="43.2771580" lon="-7.7094030">
        <ele>502.4</ele>
        <time>2014-07-30T08:45:15Z</time>
      </trkpt>
      <trkpt lat="43.2771180" lon="-7.7094050">
        <ele>502.2</ele>
        <time>2014-07-30T08:45:16Z</time>
      </trkpt>
      <trkpt lat="43.2770840" lon="-7.7094030">
        <ele>502.0</ele>
        <time>2014-07-30T08:45:17Z</time>
      </trkpt>
      <trkpt lat="43.2768210" lon="-7.7092800">
        <ele>500.6</ele>
        <time>2014-07-30T08:45:28Z</time>
      </trkpt>
      <trkpt lat="43.2767480" lon="-7.7092450">
        <ele>500.4</ele>
        <time>2014-07-30T08:45:34Z</time>
      </trkpt>
      <trkpt lat="43.2767060" lon="-7.7092240">
        <ele>500.4</ele>
        <time>2014-07-30T08:45:37Z</time>
      </trkpt>
      <trkpt lat="43.2766850" lon="-7.7092150">
        <ele>500.4</ele>
        <time>2014-07-30T08:45:38Z</time>
      </trkpt>
      <trkpt lat="43.2766640" lon="-7.7092040">
        <ele>500.4</ele>
        <time>2014-07-30T08:45:39Z</time>
      </trkpt>
      <trkpt lat="43.2765960" lon="-7.7091830">
        <ele>500.4</ele>
        <time>2014-07-30T08:45:44Z</time>
      </trkpt>
      <trkpt lat="43.2765770" lon="-7.7091850">
        <ele>500.4</ele>
        <time>2014-07-30T08:45:45Z</time>
      </trkpt>
      <trkpt lat="43.2764380" lon="-7.7091720">
        <ele>500.5</ele>
        <time>2014-07-30T08:45:56Z</time>
      </trkpt>
      <trkpt lat="43.2763350" lon="-7.7091420">
        <ele>500.8</ele>
        <time>2014-07-30T08:46:03Z</time>
      </trkpt>
      <trkpt lat="43.2763240" lon="-7.7091310">
        <ele>500.9</ele>
        <time>2014-07-30T08:46:04Z</time>
      </trkpt>
      <trkpt lat="43.2762890" lon="-7.7090970">
        <ele>501.0</ele>
        <time>2014-07-30T08:46:08Z</time>
      </trkpt>
      <trkpt lat="43.2762510" lon="-7.7090540">
        <ele>501.2</ele>
        <time>2014-07-30T08:46:11Z</time>
      </trkpt>
      <trkpt lat="43.2760820" lon="-7.7088670">
        <ele>502.6</ele>
        <time>2014-07-30T08:46:23Z</time>
      </trkpt>
      <trkpt lat="43.2759570" lon="-7.7087700">
        <ele>503.7</ele>
        <time>2014-07-30T08:46:34Z</time>
      </trkpt>
      <trkpt lat="43.2759570" lon="-7.7087700">
        <ele>503.7</ele>
        <time>2014-07-30T08:46:36Z</time>
      </trkpt>
      <trkpt lat="43.2758410" lon="-7.7087930">
        <ele>504.6</ele>
        <time>2014-07-30T08:46:40Z</time>
      </trkpt>
      <trkpt lat="43.2755130" lon="-7.7088620">
        <ele>507.7</ele>
        <time>2014-07-30T08:46:55Z</time>
      </trkpt>
      <trkpt lat="43.2753000" lon="-7.7088640">
        <ele>509.3</ele>
        <time>2014-07-30T08:47:07Z</time>
      </trkpt>
      <trkpt lat="43.2750370" lon="-7.7088680">
        <ele>510.1</ele>
        <time>2014-07-30T08:47:22Z</time>
      </trkpt>
      <trkpt lat="43.2747690" lon="-7.7088150">
        <ele>510.3</ele>
        <time>2014-07-30T08:47:38Z</time>
      </trkpt>
      <trkpt lat="43.2747030" lon="-7.7088070">
        <ele>510.7</ele>
        <time>2014-07-30T08:47:42Z</time>
      </trkpt>
      <trkpt lat="43.2745040" lon="-7.7088280">
        <ele>511.5</ele>
        <time>2014-07-30T08:47:55Z</time>
      </trkpt>
      <trkpt lat="43.2742900" lon="-7.7087410">
        <ele>512.5</ele>
        <time>2014-07-30T08:48:08Z</time>
      </trkpt>
      <trkpt lat="43.2742540" lon="-7.7087030">
        <ele>512.8</ele>
        <time>2014-07-30T08:48:11Z</time>
      </trkpt>
      <trkpt lat="43.2739960" lon="-7.7084740">
        <ele>514.7</ele>
        <time>2014-07-30T08:48:24Z</time>
      </trkpt>
      <trkpt lat="43.2736630" lon="-7.7082110">
        <ele>516.5</ele>
        <time>2014-07-30T08:48:37Z</time>
      </trkpt>
      <trkpt lat="43.2732530" lon="-7.7080610">
        <ele>518.0</ele>
        <time>2014-07-30T08:48:50Z</time>
      </trkpt>
      <trkpt lat="43.2729760" lon="-7.7079900">
        <ele>517.4</ele>
        <time>2014-07-30T08:48:57Z</time>
      </trkpt>
      <trkpt lat="43.2729400" lon="-7.7079670">
        <ele>517.2</ele>
        <time>2014-07-30T08:48:58Z</time>
      </trkpt>
      <trkpt lat="43.2729080" lon="-7.7079400">
        <ele>516.9</ele>
        <time>2014-07-30T08:48:59Z</time>
      </trkpt>
      <trkpt lat="43.2727180" lon="-7.7078480">
        <ele>515.0</ele>
        <time>2014-07-30T08:49:05Z</time>
      </trkpt>
      <trkpt lat="43.2726780" lon="-7.7078590">
        <ele>514.5</ele>
        <time>2014-07-30T08:49:06Z</time>
      </trkpt>
      <trkpt lat="43.2724900" lon="-7.7079310">
        <ele>512.2</ele>
        <time>2014-07-30T08:49:11Z</time>
      </trkpt>
      <trkpt lat="43.2724480" lon="-7.7079470">
        <ele>511.9</ele>
        <time>2014-07-30T08:49:12Z</time>
      </trkpt>
      <trkpt lat="43.2724020" lon="-7.7079720">
        <ele>511.5</ele>
        <time>2014-07-30T08:49:13Z</time>
      </trkpt>
      <trkpt lat="43.2723570" lon="-7.7080030">
        <ele>511.2</ele>
        <time>2014-07-30T08:49:14Z</time>
      </trkpt>
      <trkpt lat="43.2723120" lon="-7.7080340">
        <ele>511.0</ele>
        <time>2014-07-30T08:49:15Z</time>
      </trkpt>
      <trkpt lat="43.2721370" lon="-7.7081450">
        <ele>510.7</ele>
        <time>2014-07-30T08:49:23Z</time>
      </trkpt>
      <trkpt lat="43.2720010" lon="-7.7081860">
        <ele>511.1</ele>
        <time>2014-07-30T08:49:33Z</time>
      </trkpt>
      <trkpt lat="43.2719860" lon="-7.7081930">
        <ele>511.2</ele>
        <time>2014-07-30T08:49:34Z</time>
      </trkpt>
      <trkpt lat="43.2719680" lon="-7.7082010">
        <ele>511.3</ele>
        <time>2014-07-30T08:49:35Z</time>
      </trkpt>
      <trkpt lat="43.2719470" lon="-7.7082030">
        <ele>511.4</ele>
        <time>2014-07-30T08:49:36Z</time>
      </trkpt>
      <trkpt lat="43.2719310" lon="-7.7082090">
        <ele>511.5</ele>
        <time>2014-07-30T08:49:37Z</time>
      </trkpt>
      <trkpt lat="43.2718600" lon="-7.7082340">
        <ele>512.1</ele>
        <time>2014-07-30T08:49:42Z</time>
      </trkpt>
      <trkpt lat="43.2718450" lon="-7.7082350">
        <ele>512.2</ele>
        <time>2014-07-30T08:49:43Z</time>
      </trkpt>
      <trkpt lat="43.2718140" lon="-7.7082410">
        <ele>512.5</ele>
        <time>2014-07-30T08:49:45Z</time>
      </trkpt>
      <trkpt lat="43.2717960" lon="-7.7082460">
        <ele>512.6</ele>
        <time>2014-07-30T08:49:46Z</time>
      </trkpt>
      <trkpt lat="43.2717800" lon="-7.7082510">
        <ele>512.8</ele>
        <time>2014-07-30T08:49:47Z</time>
      </trkpt>
      <trkpt lat="43.2717520" lon="-7.7082660">
        <ele>513.0</ele>
        <time>2014-07-30T08:49:49Z</time>
      </trkpt>
      <trkpt lat="43.2717330" lon="-7.7082790">
        <ele>513.1</ele>
        <time>2014-07-30T08:49:50Z</time>
      </trkpt>
      <trkpt lat="43.2717080" lon="-7.7082870">
        <ele>513.3</ele>
        <time>2014-07-30T08:49:51Z</time>
      </trkpt>
      <trkpt lat="43.2715980" lon="-7.7083110">
        <ele>513.9</ele>
        <time>2014-07-30T08:49:56Z</time>
      </trkpt>
      <trkpt lat="43.2715830" lon="-7.7083230">
        <ele>513.9</ele>
        <time>2014-07-30T08:49:57Z</time>
      </trkpt>
      <trkpt lat="43.2715620" lon="-7.7083310">
        <ele>514.0</ele>
        <time>2014-07-30T08:49:58Z</time>
      </trkpt>
      <trkpt lat="43.2715370" lon="-7.7083370">
        <ele>514.1</ele>
        <time>2014-07-30T08:49:59Z</time>
      </trkpt>
      <trkpt lat="43.2715100" lon="-7.7083480">
        <ele>514.3</ele>
        <time>2014-07-30T08:50:00Z</time>
      </trkpt>
      <trkpt lat="43.2714840" lon="-7.7083580">
        <ele>514.4</ele>
        <time>2014-07-30T08:50:01Z</time>
      </trkpt>
      <trkpt lat="43.2714630" lon="-7.7083670">
        <ele>514.5</ele>
        <time>2014-07-30T08:50:02Z</time>
      </trkpt>
      <trkpt lat="43.2714450" lon="-7.7083770">
        <ele>514.6</ele>
        <time>2014-07-30T08:50:03Z</time>
      </trkpt>
      <trkpt lat="43.2714230" lon="-7.7083860">
        <ele>514.7</ele>
        <time>2014-07-30T08:50:04Z</time>
      </trkpt>
      <trkpt lat="43.2714030" lon="-7.7083920">
        <ele>514.7</ele>
        <time>2014-07-30T08:50:05Z</time>
      </trkpt>
      <trkpt lat="43.2713880" lon="-7.7083970">
        <ele>514.8</ele>
        <time>2014-07-30T08:50:06Z</time>
      </trkpt>
      <trkpt lat="43.2713730" lon="-7.7084030">
        <ele>514.9</ele>
        <time>2014-07-30T08:50:07Z</time>
      </trkpt>
      <trkpt lat="43.2713580" lon="-7.7084140">
        <ele>514.9</ele>
        <time>2014-07-30T08:50:08Z</time>
      </trkpt>
      <trkpt lat="43.2713410" lon="-7.7084250">
        <ele>515.0</ele>
        <time>2014-07-30T08:50:09Z</time>
      </trkpt>
      <trkpt lat="43.2713250" lon="-7.7084380">
        <ele>515.1</ele>
        <time>2014-07-30T08:50:10Z</time>
      </trkpt>
      <trkpt lat="43.2713080" lon="-7.7084490">
        <ele>515.1</ele>
        <time>2014-07-30T08:50:11Z</time>
      </trkpt>
      <trkpt lat="43.2712890" lon="-7.7084630">
        <ele>515.2</ele>
        <time>2014-07-30T08:50:12Z</time>
      </trkpt>
      <trkpt lat="43.2712660" lon="-7.7084840">
        <ele>515.3</ele>
        <time>2014-07-30T08:50:13Z</time>
      </trkpt>
      <trkpt lat="43.2712420" lon="-7.7085140">
        <ele>515.4</ele>
        <time>2014-07-30T08:50:14Z</time>
      </trkpt>
      <trkpt lat="43.2712140" lon="-7.7085370">
        <ele>515.5</ele>
        <time>2014-07-30T08:50:15Z</time>
      </trkpt>
      <trkpt lat="43.2711830" lon="-7.7085560">
        <ele>515.6</ele>
        <time>2014-07-30T08:50:16Z</time>
      </trkpt>
      <trkpt lat="43.2711500" lon="-7.7085700">
        <ele>515.6</ele>
        <time>2014-07-30T08:50:17Z</time>
      </trkpt>
      <trkpt lat="43.2708120" lon="-7.7087800">
        <ele>517.1</ele>
        <time>2014-07-30T08:50:30Z</time>
      </trkpt>
      <trkpt lat="43.2706150" lon="-7.7091140">
        <ele>518.8</ele>
        <time>2014-07-30T08:50:42Z</time>
      </trkpt>
      <trkpt lat="43.2703390" lon="-7.7093930">
        <ele>519.4</ele>
        <time>2014-07-30T08:50:54Z</time>
      </trkpt>
      <trkpt lat="43.2699580" lon="-7.7095770">
        <ele>519.6</ele>
        <time>2014-07-30T08:51:05Z</time>
      </trkpt>
      <trkpt lat="43.2699140" lon="-7.7095800">
        <ele>519.6</ele>
        <time>2014-07-30T08:51:06Z</time>
      </trkpt>
      <trkpt lat="43.2694980" lon="-7.7096470">
        <ele>519.6</ele>
        <time>2014-07-30T08:51:17Z</time>
      </trkpt>
      <trkpt lat="43.2692210" lon="-7.7097850">
        <ele>519.6</ele>
        <time>2014-07-30T08:51:25Z</time>
      </trkpt>
      <trkpt lat="43.2691820" lon="-7.7098060">
        <ele>519.6</ele>
        <time>2014-07-30T08:51:26Z</time>
      </trkpt>
      <trkpt lat="43.2689840" lon="-7.7099040">
        <ele>519.4</ele>
        <time>2014-07-30T08:51:31Z</time>
      </trkpt>
      <trkpt lat="43.2689020" lon="-7.7099440">
        <ele>519.3</ele>
        <time>2014-07-30T08:51:33Z</time>
      </trkpt>
      <trkpt lat="43.2688570" lon="-7.7099500">
        <ele>519.3</ele>
        <time>2014-07-30T08:51:34Z</time>
      </trkpt>
      <trkpt lat="43.2688120" lon="-7.7099480">
        <ele>519.2</ele>
        <time>2014-07-30T08:51:35Z</time>
      </trkpt>
      <trkpt lat="43.2687700" lon="-7.7099520">
        <ele>519.1</ele>
        <time>2014-07-30T08:51:36Z</time>
      </trkpt>
      <trkpt lat="43.2687300" lon="-7.7099690">
        <ele>519.0</ele>
        <time>2014-07-30T08:51:37Z</time>
      </trkpt>
      <trkpt lat="43.2686890" lon="-7.7099840">
        <ele>518.8</ele>
        <time>2014-07-30T08:51:38Z</time>
      </trkpt>
      <trkpt lat="43.2683400" lon="-7.7100560">
        <ele>517.3</ele>
        <time>2014-07-30T08:51:46Z</time>
      </trkpt>
      <trkpt lat="43.2679330" lon="-7.7102350">
        <ele>515.5</ele>
        <time>2014-07-30T08:51:52Z</time>
      </trkpt>
      <trkpt lat="43.2677560" lon="-7.7102850">
        <ele>514.4</ele>
        <time>2014-07-30T08:51:54Z</time>
      </trkpt>
      <trkpt lat="43.2676650" lon="-7.7102880">
        <ele>513.9</ele>
        <time>2014-07-30T08:51:55Z</time>
      </trkpt>
      <trkpt lat="43.2675780" lon="-7.7102740">
        <ele>513.1</ele>
        <time>2014-07-30T08:51:56Z</time>
      </trkpt>
      <trkpt lat="43.2674930" lon="-7.7102530">
        <ele>513.3</ele>
        <time>2014-07-30T08:51:57Z</time>
      </trkpt>
      <trkpt lat="43.2674080" lon="-7.7102300">
        <ele>513.4</ele>
        <time>2014-07-30T08:51:58Z</time>
      </trkpt>
      <trkpt lat="43.2667750" lon="-7.7101670">
        <ele>514.0</ele>
        <time>2014-07-30T08:52:07Z</time>
      </trkpt>
      <trkpt lat="43.2667240" lon="-7.7101800">
        <ele>514.0</ele>
        <time>2014-07-30T08:52:08Z</time>
      </trkpt>
      <trkpt lat="43.2666760" lon="-7.7101970">
        <ele>514.0</ele>
        <time>2014-07-30T08:52:09Z</time>
      </trkpt>
      <trkpt lat="43.2666320" lon="-7.7102200">
        <ele>513.9</ele>
        <time>2014-07-30T08:52:10Z</time>
      </trkpt>
      <trkpt lat="43.2665950" lon="-7.7102500">
        <ele>513.8</ele>
        <time>2014-07-30T08:52:11Z</time>
      </trkpt>
      <trkpt lat="43.2665620" lon="-7.7102840">
        <ele>513.8</ele>
        <time>2014-07-30T08:52:12Z</time>
      </trkpt>
      <trkpt lat="43.2662910" lon="-7.7104180">
        <ele>513.5</ele>
        <time>2014-07-30T08:52:21Z</time>
      </trkpt>
      <trkpt lat="43.2661020" lon="-7.7105010">
        <ele>513.4</ele>
        <time>2014-07-30T08:52:26Z</time>
      </trkpt>
      <trkpt lat="43.2660670" lon="-7.7105370">
        <ele>513.4</ele>
        <time>2014-07-30T08:52:27Z</time>
      </trkpt>
      <trkpt lat="43.2657010" lon="-7.7109360">
        <ele>513.2</ele>
        <time>2014-07-30T08:52:41Z</time>
      </trkpt>
      <trkpt lat="43.2656800" lon="-7.7109430">
        <ele>513.2</ele>
        <time>2014-07-30T08:52:42Z</time>
      </trkpt>
      <trkpt lat="43.2656590" lon="-7.7109420">
        <ele>513.2</ele>
        <time>2014-07-30T08:52:43Z</time>
      </trkpt>
      <trkpt lat="43.2656380" lon="-7.7109290">
        <ele>513.2</ele>
        <time>2014-07-30T08:52:44Z</time>
      </trkpt>
      <trkpt lat="43.2656200" lon="-7.7109170">
        <ele>513.8</ele>
        <time>2014-07-30T08:52:45Z</time>
      </trkpt>
      <trkpt lat="43.2656000" lon="-7.7109030">
        <ele>513.9</ele>
        <time>2014-07-30T08:52:56Z</time>
      </trkpt>
      <trkpt lat="43.2655890" lon="-7.7108840">
        <ele>514.0</ele>
        <time>2014-07-30T08:52:57Z</time>
      </trkpt>
      <trkpt lat="43.2655750" lon="-7.7108620">
        <ele>514.1</ele>
        <time>2014-07-30T08:52:58Z</time>
      </trkpt>
      <trkpt lat="43.2652080" lon="-7.7103030">
        <ele>513.5</ele>
        <time>2014-07-30T08:53:14Z</time>
      </trkpt>
      <trkpt lat="43.2648430" lon="-7.7098780">
        <ele>512.7</ele>
        <time>2014-07-30T08:53:26Z</time>
      </trkpt>
      <trkpt lat="43.2644210" lon="-7.7101240">
        <ele>512.0</ele>
        <time>2014-07-30T08:53:38Z</time>
      </trkpt>
      <trkpt lat="43.2640310" lon="-7.7102660">
        <ele>511.2</ele>
        <time>2014-07-30T08:53:49Z</time>
      </trkpt>
      <trkpt lat="43.2635400" lon="-7.7102680">
        <ele>509.7</ele>
        <time>2014-07-30T08:54:01Z</time>
      </trkpt>
      <trkpt lat="43.2634480" lon="-7.7102540">
        <ele>509.4</ele>
        <time>2014-07-30T08:54:03Z</time>
      </trkpt>
      <trkpt lat="43.2633980" lon="-7.7102440">
        <ele>509.2</ele>
        <time>2014-07-30T08:54:04Z</time>
      </trkpt>
      <trkpt lat="43.2633480" lon="-7.7102400">
        <ele>509.0</ele>
        <time>2014-07-30T08:54:05Z</time>
      </trkpt>
      <trkpt lat="43.2633000" lon="-7.7102410">
        <ele>508.7</ele>
        <time>2014-07-30T08:54:06Z</time>
      </trkpt>
      <trkpt lat="43.2632480" lon="-7.7102560">
        <ele>508.5</ele>
        <time>2014-07-30T08:54:07Z</time>
      </trkpt>
      <trkpt lat="43.2631980" lon="-7.7102860">
        <ele>508.2</ele>
        <time>2014-07-30T08:54:08Z</time>
      </trkpt>
      <trkpt lat="43.2631510" lon="-7.7103240">
        <ele>508.0</ele>
        <time>2014-07-30T08:54:09Z</time>
      </trkpt>
      <trkpt lat="43.2630520" lon="-7.7103920">
        <ele>507.6</ele>
        <time>2014-07-30T08:54:11Z</time>
      </trkpt>
      <trkpt lat="43.2629980" lon="-7.7104150">
        <ele>507.3</ele>
        <time>2014-07-30T08:54:12Z</time>
      </trkpt>
      <trkpt lat="43.2629440" lon="-7.7104350">
        <ele>507.1</ele>
        <time>2014-07-30T08:54:13Z</time>
      </trkpt>
      <trkpt lat="43.2619520" lon="-7.7106660">
        <ele>504.6</ele>
        <time>2014-07-30T08:54:30Z</time>
      </trkpt>
      <trkpt lat="43.2618950" lon="-7.7106850">
        <ele>504.4</ele>
        <time>2014-07-30T08:54:31Z</time>
      </trkpt>
      <trkpt lat="43.2618460" lon="-7.7107200">
        <ele>504.1</ele>
        <time>2014-07-30T08:54:32Z</time>
      </trkpt>
      <trkpt lat="43.2617990" lon="-7.7107580">
        <ele>503.7</ele>
        <time>2014-07-30T08:54:33Z</time>
      </trkpt>
      <trkpt lat="43.2617510" lon="-7.7107970">
        <ele>503.3</ele>
        <time>2014-07-30T08:54:34Z</time>
      </trkpt>
      <trkpt lat="43.2615560" lon="-7.7109410">
        <ele>501.7</ele>
        <time>2014-07-30T08:54:38Z</time>
      </trkpt>
      <trkpt lat="43.2612510" lon="-7.7110360">
        <ele>500.9</ele>
        <time>2014-07-30T08:54:43Z</time>
      </trkpt>
      <trkpt lat="43.2611860" lon="-7.7110350">
        <ele>500.8</ele>
        <time>2014-07-30T08:54:44Z</time>
      </trkpt>
      <trkpt lat="43.2611200" lon="-7.7110210">
        <ele>500.7</ele>
        <time>2014-07-30T08:54:45Z</time>
      </trkpt>
      <trkpt lat="43.2610560" lon="-7.7110000">
        <ele>500.6</ele>
        <time>2014-07-30T08:54:46Z</time>
      </trkpt>
      <trkpt lat="43.2609970" lon="-7.7109730">
        <ele>500.4</ele>
        <time>2014-07-30T08:54:47Z</time>
      </trkpt>
      <trkpt lat="43.2609470" lon="-7.7109480">
        <ele>500.2</ele>
        <time>2014-07-30T08:54:48Z</time>
      </trkpt>
      <trkpt lat="43.2608980" lon="-7.7109350">
        <ele>500.0</ele>
        <time>2014-07-30T08:54:49Z</time>
      </trkpt>
      <trkpt lat="43.2608590" lon="-7.7109340">
        <ele>499.8</ele>
        <time>2014-07-30T08:54:50Z</time>
      </trkpt>
      <trkpt lat="43.2608290" lon="-7.7109430">
        <ele>499.7</ele>
        <time>2014-07-30T08:54:51Z</time>
      </trkpt>
      <trkpt lat="43.2608000" lon="-7.7109570">
        <ele>499.5</ele>
        <time>2014-07-30T08:54:52Z</time>
      </trkpt>
      <trkpt lat="43.2607720" lon="-7.7109740">
        <ele>499.4</ele>
        <time>2014-07-30T08:54:53Z</time>
      </trkpt>
      <trkpt lat="43.2607420" lon="-7.7109960">
        <ele>499.2</ele>
        <time>2014-07-30T08:54:54Z</time>
      </trkpt>
      <trkpt lat="43.2605730" lon="-7.7110740">
        <ele>498.7</ele>
        <time>2014-07-30T08:54:59Z</time>
      </trkpt>
      <trkpt lat="43.2605380" lon="-7.7110650">
        <ele>498.6</ele>
        <time>2014-07-30T08:55:00Z</time>
      </trkpt>
      <trkpt lat="43.2605030" lon="-7.7110440">
        <ele>498.6</ele>
        <time>2014-07-30T08:55:01Z</time>
      </trkpt>
      <trkpt lat="43.2604650" lon="-7.7110240">
        <ele>498.5</ele>
        <time>2014-07-30T08:55:02Z</time>
      </trkpt>
      <trkpt lat="43.2604270" lon="-7.7110060">
        <ele>498.6</ele>
        <time>2014-07-30T08:55:03Z</time>
      </trkpt>
      <trkpt lat="43.2603860" lon="-7.7109880">
        <ele>498.7</ele>
        <time>2014-07-30T08:55:04Z</time>
      </trkpt>
      <trkpt lat="43.2603460" lon="-7.7109740">
        <ele>498.5</ele>
        <time>2014-07-30T08:55:05Z</time>
      </trkpt>
      <trkpt lat="43.2603120" lon="-7.7109790">
        <ele>498.3</ele>
        <time>2014-07-30T08:55:06Z</time>
      </trkpt>
      <trkpt lat="43.2602870" lon="-7.7110040">
        <ele>498.2</ele>
        <time>2014-07-30T08:55:07Z</time>
      </trkpt>
      <trkpt lat="43.2602720" lon="-7.7110310">
        <ele>498.2</ele>
        <time>2014-07-30T08:55:08Z</time>
      </trkpt>
      <trkpt lat="43.2602630" lon="-7.7110560">
        <ele>498.1</ele>
        <time>2014-07-30T08:55:09Z</time>
      </trkpt>
      <trkpt lat="43.2602560" lon="-7.7110780">
        <ele>498.0</ele>
        <time>2014-07-30T08:55:10Z</time>
      </trkpt>
      <trkpt lat="43.2602510" lon="-7.7110870">
        <ele>498.0</ele>
        <time>2014-07-30T08:55:20Z</time>
      </trkpt>
      <trkpt lat="43.2602400" lon="-7.7110980">
        <ele>498.0</ele>
        <time>2014-07-30T08:55:29Z</time>
      </trkpt>
      <trkpt lat="43.2602270" lon="-7.7111110">
        <ele>497.9</ele>
        <time>2014-07-30T08:55:30Z</time>
      </trkpt>
      <trkpt lat="43.2602060" lon="-7.7111230">
        <ele>497.9</ele>
        <time>2014-07-30T08:55:31Z</time>
      </trkpt>
      <trkpt lat="43.2599920" lon="-7.7112360">
        <ele>497.2</ele>
        <time>2014-07-30T08:55:37Z</time>
      </trkpt>
      <trkpt lat="43.2595250" lon="-7.7115450">
        <ele>495.5</ele>
        <time>2014-07-30T08:55:47Z</time>
      </trkpt>
      <trkpt lat="43.2594960" lon="-7.7115780">
        <ele>495.3</ele>
        <time>2014-07-30T08:55:48Z</time>
      </trkpt>
      <trkpt lat="43.2594820" lon="-7.7116130">
        <ele>495.2</ele>
        <time>2014-07-30T08:55:49Z</time>
      </trkpt>
      <trkpt lat="43.2594730" lon="-7.7116440">
        <ele>495.1</ele>
        <time>2014-07-30T08:55:50Z</time>
      </trkpt>
      <trkpt lat="43.2594590" lon="-7.7116670">
        <ele>495.0</ele>
        <time>2014-07-30T08:55:51Z</time>
      </trkpt>
      <trkpt lat="43.2594380" lon="-7.7116830">
        <ele>494.9</ele>
        <time>2014-07-30T08:55:52Z</time>
      </trkpt>
      <trkpt lat="43.2594150" lon="-7.7116960">
        <ele>494.7</ele>
        <time>2014-07-30T08:55:53Z</time>
      </trkpt>
      <trkpt lat="43.2593490" lon="-7.7117460">
        <ele>494.3</ele>
        <time>2014-07-30T08:55:56Z</time>
      </trkpt>
      <trkpt lat="43.2593350" lon="-7.7117730">
        <ele>494.2</ele>
        <time>2014-07-30T08:55:57Z</time>
      </trkpt>
      <trkpt lat="43.2593230" lon="-7.7118050">
        <ele>493.9</ele>
        <time>2014-07-30T08:55:58Z</time>
      </trkpt>
      <trkpt lat="43.2593140" lon="-7.7118400">
        <ele>493.9</ele>
        <time>2014-07-30T08:55:59Z</time>
      </trkpt>
      <trkpt lat="43.2593050" lon="-7.7118810">
        <ele>493.8</ele>
        <time>2014-07-30T08:56:00Z</time>
      </trkpt>
      <trkpt lat="43.2592950" lon="-7.7119260">
        <ele>493.8</ele>
        <time>2014-07-30T08:56:01Z</time>
      </trkpt>
      <trkpt lat="43.2591680" lon="-7.7122470">
        <ele>494.4</ele>
        <time>2014-07-30T08:56:10Z</time>
      </trkpt>
      <trkpt lat="43.2588690" lon="-7.7125230">
        <ele>495.7</ele>
        <time>2014-07-30T08:56:19Z</time>
      </trkpt>
      <trkpt lat="43.2587010" lon="-7.7128160">
        <ele>496.8</ele>
        <time>2014-07-30T08:56:28Z</time>
      </trkpt>
      <trkpt lat="43.2584570" lon="-7.7130990">
        <ele>498.5</ele>
        <time>2014-07-30T08:56:41Z</time>
      </trkpt>
      <trkpt lat="43.2584360" lon="-7.7131210">
        <ele>498.6</ele>
        <time>2014-07-30T08:57:03Z</time>
      </trkpt>
      <trkpt lat="43.2583080" lon="-7.7132200">
        <ele>499.3</ele>
        <time>2014-07-30T08:57:15Z</time>
      </trkpt>
      <trkpt lat="43.2581250" lon="-7.7133990">
        <ele>498.2</ele>
        <time>2014-07-30T08:57:21Z</time>
      </trkpt>
      <trkpt lat="43.2579870" lon="-7.7135620">
        <ele>496.0</ele>
        <time>2014-07-30T08:57:24Z</time>
      </trkpt>
      <trkpt lat="43.2579370" lon="-7.7136060">
        <ele>495.3</ele>
        <time>2014-07-30T08:57:25Z</time>
      </trkpt>
      <trkpt lat="43.2578850" lon="-7.7136440">
        <ele>494.7</ele>
        <time>2014-07-30T08:57:26Z</time>
      </trkpt>
      <trkpt lat="43.2578360" lon="-7.7136760">
        <ele>494.1</ele>
        <time>2014-07-30T08:57:27Z</time>
      </trkpt>
      <trkpt lat="43.2576640" lon="-7.7138090">
        <ele>492.3</ele>
        <time>2014-07-30T08:57:32Z</time>
      </trkpt>
      <trkpt lat="43.2575200" lon="-7.7140640">
        <ele>489.5</ele>
        <time>2014-07-30T08:57:38Z</time>
      </trkpt>
      <trkpt lat="43.2575000" lon="-7.7141180">
        <ele>488.9</ele>
        <time>2014-07-30T08:57:39Z</time>
      </trkpt>
      <trkpt lat="43.2574190" lon="-7.7144310">
        <ele>485.7</ele>
        <time>2014-07-30T08:57:48Z</time>
      </trkpt>
      <trkpt lat="43.2573460" lon="-7.7149870">
        <ele>480.6</ele>
        <time>2014-07-30T08:57:59Z</time>
      </trkpt>
      <trkpt lat="43.2571650" lon="-7.7152040">
        <ele>478.4</ele>
        <time>2014-07-30T08:58:04Z</time>
      </trkpt>
      <trkpt lat="43.2564930" lon="-7.7156760">
        <ele>471.5</ele>
        <time>2014-07-30T08:58:19Z</time>
      </trkpt>
      <trkpt lat="43.2563050" lon="-7.7158060">
        <ele>469.8</ele>
        <time>2014-07-30T08:58:23Z</time>
      </trkpt>
      <trkpt lat="43.2562540" lon="-7.7158230">
        <ele>469.4</ele>
        <time>2014-07-30T08:58:24Z</time>
      </trkpt>
      <trkpt lat="43.2555960" lon="-7.7159210">
        <ele>465.0</ele>
        <time>2014-07-30T08:58:37Z</time>
      </trkpt>
      <trkpt lat="43.2555510" lon="-7.7159200">
        <ele>465.0</ele>
        <time>2014-07-30T08:58:38Z</time>
      </trkpt>
      <trkpt lat="43.2555080" lon="-7.7159200">
        <ele>464.9</ele>
        <time>2014-07-30T08:58:39Z</time>
      </trkpt>
      <trkpt lat="43.2553860" lon="-7.7159280">
        <ele>464.7</ele>
        <time>2014-07-30T08:58:42Z</time>
      </trkpt>
      <trkpt lat="43.2553460" lon="-7.7159310">
        <ele>464.7</ele>
        <time>2014-07-30T08:58:43Z</time>
      </trkpt>
      <trkpt lat="43.2553110" lon="-7.7159450">
        <ele>464.7</ele>
        <time>2014-07-30T08:58:44Z</time>
      </trkpt>
      <trkpt lat="43.2549190" lon="-7.7162510">
        <ele>464.4</ele>
        <time>2014-07-30T08:58:58Z</time>
      </trkpt>
      <trkpt lat="43.2546820" lon="-7.7164300">
        <ele>464.4</ele>
        <time>2014-07-30T08:59:07Z</time>
      </trkpt>
      <trkpt lat="43.2543750" lon="-7.7166080">
        <ele>464.4</ele>
        <time>2014-07-30T08:59:18Z</time>
      </trkpt>
      <trkpt lat="43.2540340" lon="-7.7167420">
        <ele>464.4</ele>
        <time>2014-07-30T08:59:28Z</time>
      </trkpt>
      <trkpt lat="43.2536230" lon="-7.7169360">
        <ele>464.4</ele>
        <time>2014-07-30T08:59:40Z</time>
      </trkpt>
      <trkpt lat="43.2536060" lon="-7.7169610">
        <ele>464.4</ele>
        <time>2014-07-30T08:59:41Z</time>
      </trkpt>
      <trkpt lat="43.2535910" lon="-7.7169810">
        <ele>464.4</ele>
        <time>2014-07-30T08:59:42Z</time>
      </trkpt>
      <trkpt lat="43.2533310" lon="-7.7172960">
        <ele>464.4</ele>
        <time>2014-07-30T08:59:54Z</time>
      </trkpt>
      <trkpt lat="43.2532050" lon="-7.7174820">
        <ele>464.5</ele>
        <time>2014-07-30T09:00:01Z</time>
      </trkpt>
      <trkpt lat="43.2531810" lon="-7.7175030">
        <ele>464.5</ele>
        <time>2014-07-30T09:00:02Z</time>
      </trkpt>
      <trkpt lat="43.2528640" lon="-7.7178500">
        <ele>464.8</ele>
        <time>2014-07-30T09:00:14Z</time>
      </trkpt>
      <trkpt lat="43.2525200" lon="-7.7181650">
        <ele>465.0</ele>
        <time>2014-07-30T09:00:26Z</time>
      </trkpt>
      <trkpt lat="43.2522160" lon="-7.7185390">
        <ele>465.0</ele>
        <time>2014-07-30T09:00:37Z</time>
      </trkpt>
      <trkpt lat="43.2519040" lon="-7.7189410">
        <ele>465.0</ele>
        <time>2014-07-30T09:00:48Z</time>
      </trkpt>
      <trkpt lat="43.2515360" lon="-7.7192970">
        <ele>465.4</ele>
        <time>2014-07-30T09:01:02Z</time>
      </trkpt>
      <trkpt lat="43.2511660" lon="-7.7195840">
        <ele>465.8</ele>
        <time>2014-07-30T09:01:14Z</time>
      </trkpt>
      <trkpt lat="43.2508140" lon="-7.7199680">
        <ele>466.2</ele>
        <time>2014-07-30T09:01:27Z</time>
      </trkpt>
      <trkpt lat="43.2504000" lon="-7.7203820">
        <ele>466.7</ele>
        <time>2014-07-30T09:01:41Z</time>
      </trkpt>
      <trkpt lat="43.2499910" lon="-7.7206530">
        <ele>467.1</ele>
        <time>2014-07-30T09:01:55Z</time>
      </trkpt>
      <trkpt lat="43.2495670" lon="-7.7208470">
        <ele>467.4</ele>
        <time>2014-07-30T09:02:08Z</time>
      </trkpt>
      <trkpt lat="43.2494600" lon="-7.7209090">
        <ele>467.4</ele>
        <time>2014-07-30T09:02:11Z</time>
      </trkpt>
      <trkpt lat="43.2494270" lon="-7.7209430">
        <ele>467.4</ele>
        <time>2014-07-30T09:02:12Z</time>
      </trkpt>
      <trkpt lat="43.2493970" lon="-7.7209830">
        <ele>467.4</ele>
        <time>2014-07-30T09:02:13Z</time>
      </trkpt>
      <trkpt lat="43.2493660" lon="-7.7210240">
        <ele>467.4</ele>
        <time>2014-07-30T09:02:14Z</time>
      </trkpt>
      <trkpt lat="43.2493330" lon="-7.7210640">
        <ele>467.4</ele>
        <time>2014-07-30T09:02:15Z</time>
      </trkpt>
      <trkpt lat="43.2492300" lon="-7.7211820">
        <ele>467.3</ele>
        <time>2014-07-30T09:02:18Z</time>
      </trkpt>
      <trkpt lat="43.2490800" lon="-7.7213860">
        <ele>464.5</ele>
        <time>2014-07-30T09:02:22Z</time>
      </trkpt>
      <trkpt lat="43.2490410" lon="-7.7214510">
        <ele>464.1</ele>
        <time>2014-07-30T09:02:23Z</time>
      </trkpt>
      <trkpt lat="43.2490050" lon="-7.7215240">
        <ele>464.0</ele>
        <time>2014-07-30T09:02:24Z</time>
      </trkpt>
      <trkpt lat="43.2489730" lon="-7.7216040">
        <ele>463.9</ele>
        <time>2014-07-30T09:02:25Z</time>
      </trkpt>
      <trkpt lat="43.2489430" lon="-7.7216900">
        <ele>463.8</ele>
        <time>2014-07-30T09:02:26Z</time>
      </trkpt>
      <trkpt lat="43.2489140" lon="-7.7217810">
        <ele>463.7</ele>
        <time>2014-07-30T09:02:27Z</time>
      </trkpt>
      <trkpt lat="43.2486780" lon="-7.7225310">
        <ele>460.8</ele>
        <time>2014-07-30T09:02:35Z</time>
      </trkpt>
      <trkpt lat="43.2485980" lon="-7.7228230">
        <ele>459.7</ele>
        <time>2014-07-30T09:02:39Z</time>
      </trkpt>
      <trkpt lat="43.2485870" lon="-7.7228910">
        <ele>459.4</ele>
        <time>2014-07-30T09:02:40Z</time>
      </trkpt>
      <trkpt lat="43.2485700" lon="-7.7229510">
        <ele>459.1</ele>
        <time>2014-07-30T09:02:41Z</time>
      </trkpt>
      <trkpt lat="43.2485490" lon="-7.7230030">
        <ele>458.7</ele>
        <time>2014-07-30T09:02:42Z</time>
      </trkpt>
      <trkpt lat="43.2485240" lon="-7.7230460">
        <ele>458.0</ele>
        <time>2014-07-30T09:02:43Z</time>
      </trkpt>
      <trkpt lat="43.2484960" lon="-7.7230840">
        <ele>458.1</ele>
        <time>2014-07-30T09:02:44Z</time>
      </trkpt>
      <trkpt lat="43.2484630" lon="-7.7231130">
        <ele>458.2</ele>
        <time>2014-07-30T09:02:45Z</time>
      </trkpt>
      <trkpt lat="43.2484340" lon="-7.7231250">
        <ele>458.3</ele>
        <time>2014-07-30T09:02:46Z</time>
      </trkpt>
      <trkpt lat="43.2484090" lon="-7.7231250">
        <ele>458.4</ele>
        <time>2014-07-30T09:02:47Z</time>
      </trkpt>
      <trkpt lat="43.2483880" lon="-7.7231170">
        <ele>458.4</ele>
        <time>2014-07-30T09:02:48Z</time>
      </trkpt>
      <trkpt lat="43.2483720" lon="-7.7231040">
        <ele>458.5</ele>
        <time>2014-07-30T09:02:49Z</time>
      </trkpt>
      <trkpt lat="43.2483550" lon="-7.7231070">
        <ele>458.5</ele>
        <time>2014-07-30T09:02:50Z</time>
      </trkpt>
      <trkpt lat="43.2483400" lon="-7.7231210">
        <ele>458.6</ele>
        <time>2014-07-30T09:02:51Z</time>
      </trkpt>
      <trkpt lat="43.2483310" lon="-7.7231440">
        <ele>458.7</ele>
        <time>2014-07-30T09:02:52Z</time>
      </trkpt>
      <trkpt lat="43.2483210" lon="-7.7231720">
        <ele>458.8</ele>
        <time>2014-07-30T09:02:53Z</time>
      </trkpt>
      <trkpt lat="43.2483040" lon="-7.7231940">
        <ele>459.0</ele>
        <time>2014-07-30T09:02:54Z</time>
      </trkpt>
      <trkpt lat="43.2482830" lon="-7.7232120">
        <ele>459.1</ele>
        <time>2014-07-30T09:02:55Z</time>
      </trkpt>
      <trkpt lat="43.2482620" lon="-7.7232330">
        <ele>459.3</ele>
        <time>2014-07-30T09:02:56Z</time>
      </trkpt>
      <trkpt lat="43.2480980" lon="-7.7233390">
        <ele>459.4</ele>
        <time>2014-07-30T09:03:02Z</time>
      </trkpt>
      <trkpt lat="43.2480540" lon="-7.7233630">
        <ele>459.3</ele>
        <time>2014-07-30T09:03:03Z</time>
      </trkpt>
      <trkpt lat="43.2480070" lon="-7.7233800">
        <ele>459.1</ele>
        <time>2014-07-30T09:03:04Z</time>
      </trkpt>
      <trkpt lat="43.2479580" lon="-7.7233890">
        <ele>459.0</ele>
        <time>2014-07-30T09:03:05Z</time>
      </trkpt>
      <trkpt lat="43.2479100" lon="-7.7234070">
        <ele>458.8</ele>
        <time>2014-07-30T09:03:06Z</time>
      </trkpt>
      <trkpt lat="43.2478600" lon="-7.7234260">
        <ele>458.7</ele>
        <time>2014-07-30T09:03:07Z</time>
      </trkpt>
      <trkpt lat="43.2478120" lon="-7.7234420">
        <ele>458.7</ele>
        <time>2014-07-30T09:03:08Z</time>
      </trkpt>
      <trkpt lat="43.2477630" lon="-7.7234460">
        <ele>458.6</ele>
        <time>2014-07-30T09:03:09Z</time>
      </trkpt>
      <trkpt lat="43.2475640" lon="-7.7234540">
        <ele>458.4</ele>
        <time>2014-07-30T09:03:13Z</time>
      </trkpt>
      <trkpt lat="43.2475170" lon="-7.7234550">
        <ele>458.4</ele>
        <time>2014-07-30T09:03:14Z</time>
      </trkpt>
      <trkpt lat="43.2474700" lon="-7.7234600">
        <ele>458.3</ele>
        <time>2014-07-30T09:03:15Z</time>
      </trkpt>
      <trkpt lat="43.2474240" lon="-7.7234600">
        <ele>458.3</ele>
        <time>2014-07-30T09:03:16Z</time>
      </trkpt>
      <trkpt lat="43.2473770" lon="-7.7234620">
        <ele>458.2</ele>
        <time>2014-07-30T09:03:17Z</time>
      </trkpt>
      <trkpt lat="43.2473330" lon="-7.7234590">
        <ele>458.2</ele>
        <time>2014-07-30T09:03:18Z</time>
      </trkpt>
      <trkpt lat="43.2468970" lon="-7.7233020">
        <ele>457.5</ele>
        <time>2014-07-30T09:03:29Z</time>
      </trkpt>
      <trkpt lat="43.2468590" lon="-7.7232610">
        <ele>457.4</ele>
        <time>2014-07-30T09:03:30Z</time>
      </trkpt>
      <trkpt lat="43.2468140" lon="-7.7232160">
        <ele>457.3</ele>
        <time>2014-07-30T09:03:31Z</time>
      </trkpt>
      <trkpt lat="43.2467660" lon="-7.7231780">
        <ele>457.2</ele>
        <time>2014-07-30T09:03:32Z</time>
      </trkpt>
      <trkpt lat="43.2463850" lon="-7.7230390">
        <ele>456.3</ele>
        <time>2014-07-30T09:03:41Z</time>
      </trkpt>
      <trkpt lat="43.2463120" lon="-7.7230170">
        <ele>456.2</ele>
        <time>2014-07-30T09:03:45Z</time>
      </trkpt>
      <trkpt lat="43.2462970" lon="-7.7230150">
        <ele>456.2</ele>
        <time>2014-07-30T09:03:46Z</time>
      </trkpt>
      <trkpt lat="43.2462820" lon="-7.7230190">
        <ele>456.1</ele>
        <time>2014-07-30T09:03:47Z</time>
      </trkpt>
      <trkpt lat="43.2462550" lon="-7.7230280">
        <ele>456.1</ele>
        <time>2014-07-30T09:03:48Z</time>
      </trkpt>
      <trkpt lat="43.2462220" lon="-7.7230340">
        <ele>456.0</ele>
        <time>2014-07-30T09:03:49Z</time>
      </trkpt>
      <trkpt lat="43.2461870" lon="-7.7230440">
        <ele>455.9</ele>
        <time>2014-07-30T09:03:50Z</time>
      </trkpt>
      <trkpt lat="43.2460140" lon="-7.7232310">
        <ele>455.5</ele>
        <time>2014-07-30T09:04:00Z</time>
      </trkpt>
      <trkpt lat="43.2458080" lon="-7.7235930">
        <ele>454.7</ele>
        <time>2014-07-30T09:04:10Z</time>
      </trkpt>
      <trkpt lat="43.2454140" lon="-7.7239200">
        <ele>453.7</ele>
        <time>2014-07-30T09:04:22Z</time>
      </trkpt>
      <trkpt lat="43.2453780" lon="-7.7239570">
        <ele>453.6</ele>
        <time>2014-07-30T09:04:23Z</time>
      </trkpt>
      <trkpt lat="43.2453200" lon="-7.7240340">
        <ele>453.4</ele>
        <time>2014-07-30T09:04:25Z</time>
      </trkpt>
      <trkpt lat="43.2453050" lon="-7.7240830">
        <ele>453.4</ele>
        <time>2014-07-30T09:04:26Z</time>
      </trkpt>
      <trkpt lat="43.2452910" lon="-7.7241340">
        <ele>453.3</ele>
        <time>2014-07-30T09:04:27Z</time>
      </trkpt>
      <trkpt lat="43.2452720" lon="-7.7241820">
        <ele>452.8</ele>
        <time>2014-07-30T09:04:28Z</time>
      </trkpt>
      <trkpt lat="43.2452470" lon="-7.7242210">
        <ele>452.3</ele>
        <time>2014-07-30T09:04:29Z</time>
      </trkpt>
      <trkpt lat="43.2452180" lon="-7.7242530">
        <ele>451.9</ele>
        <time>2014-07-30T09:04:30Z</time>
      </trkpt>
      <trkpt lat="43.2451870" lon="-7.7242810">
        <ele>451.4</ele>
        <time>2014-07-30T09:04:31Z</time>
      </trkpt>
      <trkpt lat="43.2451580" lon="-7.7243090">
        <ele>450.9</ele>
        <time>2014-07-30T09:04:32Z</time>
      </trkpt>
      <trkpt lat="43.2451270" lon="-7.7243390">
        <ele>450.4</ele>
        <time>2014-07-30T09:04:33Z</time>
      </trkpt>
      <trkpt lat="43.2448740" lon="-7.7246110">
        <ele>448.2</ele>
        <time>2014-07-30T09:04:40Z</time>
      </trkpt>
      <trkpt lat="43.2448390" lon="-7.7246310">
        <ele>447.9</ele>
        <time>2014-07-30T09:04:41Z</time>
      </trkpt>
      <trkpt lat="43.2448040" lon="-7.7246550">
        <ele>447.6</ele>
        <time>2014-07-30T09:04:42Z</time>
      </trkpt>
      <trkpt lat="43.2447150" lon="-7.7247230">
        <ele>446.6</ele>
        <time>2014-07-30T09:04:44Z</time>
      </trkpt>
      <trkpt lat="43.2446580" lon="-7.7247550">
        <ele>445.9</ele>
        <time>2014-07-30T09:04:45Z</time>
      </trkpt>
      <trkpt lat="43.2445990" lon="-7.7247740">
        <ele>445.8</ele>
        <time>2014-07-30T09:04:46Z</time>
      </trkpt>
      <trkpt lat="43.2439820" lon="-7.7248670">
        <ele>444.5</ele>
        <time>2014-07-30T09:04:59Z</time>
      </trkpt>
      <trkpt lat="43.2437410" lon="-7.7250050">
        <ele>443.9</ele>
        <time>2014-07-30T09:05:10Z</time>
      </trkpt>
      <trkpt lat="43.2435120" lon="-7.7251060">
        <ele>443.3</ele>
        <time>2014-07-30T09:05:22Z</time>
      </trkpt>
      <trkpt lat="43.2431640" lon="-7.7251690">
        <ele>442.6</ele>
        <time>2014-07-30T09:05:34Z</time>
      </trkpt>
      <trkpt lat="43.2427880" lon="-7.7252650">
        <ele>441.9</ele>
        <time>2014-07-30T09:05:44Z</time>
      </trkpt>
      <trkpt lat="43.2425480" lon="-7.7252690">
        <ele>441.4</ele>
        <time>2014-07-30T09:05:48Z</time>
      </trkpt>
      <trkpt lat="43.2423450" lon="-7.7252850">
        <ele>440.9</ele>
        <time>2014-07-30T09:05:52Z</time>
      </trkpt>
      <trkpt lat="43.2422840" lon="-7.7252870">
        <ele>440.8</ele>
        <time>2014-07-30T09:05:53Z</time>
      </trkpt>
      <trkpt lat="43.2422330" lon="-7.7252900">
        <ele>440.6</ele>
        <time>2014-07-30T09:05:54Z</time>
      </trkpt>
      <trkpt lat="43.2421810" lon="-7.7252920">
        <ele>440.5</ele>
        <time>2014-07-30T09:05:55Z</time>
      </trkpt>
      <trkpt lat="43.2421310" lon="-7.7252950">
        <ele>440.4</ele>
        <time>2014-07-30T09:05:56Z</time>
      </trkpt>
      <trkpt lat="43.2420810" lon="-7.7252980">
        <ele>440.3</ele>
        <time>2014-07-30T09:05:57Z</time>
      </trkpt>
      <trkpt lat="43.2420330" lon="-7.7252960">
        <ele>440.1</ele>
        <time>2014-07-30T09:05:58Z</time>
      </trkpt>
      <trkpt lat="43.2419920" lon="-7.7252850">
        <ele>440.0</ele>
        <time>2014-07-30T09:05:59Z</time>
      </trkpt>
      <trkpt lat="43.2418680" lon="-7.7252460">
        <ele>439.6</ele>
        <time>2014-07-30T09:06:03Z</time>
      </trkpt>
      <trkpt lat="43.2418350" lon="-7.7252490">
        <ele>439.5</ele>
        <time>2014-07-30T09:06:04Z</time>
      </trkpt>
      <trkpt lat="43.2418000" lon="-7.7252430">
        <ele>439.3</ele>
        <time>2014-07-30T09:06:05Z</time>
      </trkpt>
      <trkpt lat="43.2417640" lon="-7.7252360">
        <ele>439.0</ele>
        <time>2014-07-30T09:06:06Z</time>
      </trkpt>
      <trkpt lat="43.2417240" lon="-7.7252380">
        <ele>438.6</ele>
        <time>2014-07-30T09:06:07Z</time>
      </trkpt>
      <trkpt lat="43.2416810" lon="-7.7252440">
        <ele>438.3</ele>
        <time>2014-07-30T09:06:08Z</time>
      </trkpt>
      <trkpt lat="43.2416380" lon="-7.7252540">
        <ele>437.9</ele>
        <time>2014-07-30T09:06:09Z</time>
      </trkpt>
      <trkpt lat="43.2415980" lon="-7.7252660">
        <ele>437.5</ele>
        <time>2014-07-30T09:06:10Z</time>
      </trkpt>
      <trkpt lat="43.2413700" lon="-7.7251990">
        <ele>436.8</ele>
        <time>2014-07-30T09:06:18Z</time>
      </trkpt>
      <trkpt lat="43.2412980" lon="-7.7251810">
        <ele>436.9</ele>
        <time>2014-07-30T09:06:21Z</time>
      </trkpt>
      <trkpt lat="43.2412860" lon="-7.7251950">
        <ele>436.9</ele>
        <time>2014-07-30T09:06:22Z</time>
      </trkpt>
      <trkpt lat="43.2412790" lon="-7.7252120">
        <ele>436.9</ele>
        <time>2014-07-30T09:06:23Z</time>
      </trkpt>
      <trkpt lat="43.2412660" lon="-7.7252170">
        <ele>436.9</ele>
        <time>2014-07-30T09:06:24Z</time>
      </trkpt>
      <trkpt lat="43.2412460" lon="-7.7252180">
        <ele>436.9</ele>
        <time>2014-07-30T09:06:25Z</time>
      </trkpt>
      <trkpt lat="43.2411350" lon="-7.7252010">
        <ele>437.1</ele>
        <time>2014-07-30T09:06:31Z</time>
      </trkpt>
      <trkpt lat="43.2408620" lon="-7.7251090">
        <ele>437.4</ele>
        <time>2014-07-30T09:06:41Z</time>
      </trkpt>
      <trkpt lat="43.2405930" lon="-7.7250830">
        <ele>437.1</ele>
        <time>2014-07-30T09:06:52Z</time>
      </trkpt>
      <trkpt lat="43.2403470" lon="-7.7250890">
        <ele>436.7</ele>
        <time>2014-07-30T09:07:01Z</time>
      </trkpt>
      <trkpt lat="43.2401030" lon="-7.7251290">
        <ele>436.2</ele>
        <time>2014-07-30T09:07:09Z</time>
      </trkpt>
      <trkpt lat="43.2400710" lon="-7.7251280">
        <ele>436.1</ele>
        <time>2014-07-30T09:07:10Z</time>
      </trkpt>
      <trkpt lat="43.2397880" lon="-7.7251430">
        <ele>434.8</ele>
        <time>2014-07-30T09:07:19Z</time>
      </trkpt>
      <trkpt lat="43.2397390" lon="-7.7251450">
        <ele>434.7</ele>
        <time>2014-07-30T09:07:20Z</time>
      </trkpt>
      <trkpt lat="43.2396890" lon="-7.7251390">
        <ele>434.5</ele>
        <time>2014-07-30T09:07:21Z</time>
      </trkpt>
      <trkpt lat="43.2396470" lon="-7.7251380">
        <ele>434.5</ele>
        <time>2014-07-30T09:07:22Z</time>
      </trkpt>
      <trkpt lat="43.2395620" lon="-7.7251340">
        <ele>434.4</ele>
        <time>2014-07-30T09:07:24Z</time>
      </trkpt>
      <trkpt lat="43.2394740" lon="-7.7251000">
        <ele>434.5</ele>
        <time>2014-07-30T09:07:26Z</time>
      </trkpt>
      <trkpt lat="43.2391180" lon="-7.7249070">
        <ele>435.2</ele>
        <time>2014-07-30T09:07:36Z</time>
      </trkpt>
      <trkpt lat="43.2387440" lon="-7.7247310">
        <ele>434.5</ele>
        <time>2014-07-30T09:07:47Z</time>
      </trkpt>
      <trkpt lat="43.2387170" lon="-7.7247180">
        <ele>434.4</ele>
        <time>2014-07-30T09:07:48Z</time>
      </trkpt>
      <trkpt lat="43.2386760" lon="-7.7247080">
        <ele>434.2</ele>
        <time>2014-07-30T09:07:49Z</time>
      </trkpt>
      <trkpt lat="43.2383250" lon="-7.7246610">
        <ele>432.6</ele>
        <time>2014-07-30T09:07:59Z</time>
      </trkpt>
      <trkpt lat="43.2380370" lon="-7.7245870">
        <ele>431.8</ele>
        <time>2014-07-30T09:08:07Z</time>
      </trkpt>
      <trkpt lat="43.2380030" lon="-7.7245680">
        <ele>431.8</ele>
        <time>2014-07-30T09:08:08Z</time>
      </trkpt>
      <trkpt lat="43.2379680" lon="-7.7245510">
        <ele>431.9</ele>
        <time>2014-07-30T09:08:09Z</time>
      </trkpt>
      <trkpt lat="43.2379320" lon="-7.7245350">
        <ele>431.9</ele>
        <time>2014-07-30T09:08:10Z</time>
      </trkpt>
      <trkpt lat="43.2378920" lon="-7.7245190">
        <ele>432.0</ele>
        <time>2014-07-30T09:08:11Z</time>
      </trkpt>
      <trkpt lat="43.2377830" lon="-7.7244830">
        <ele>432.3</ele>
        <time>2014-07-30T09:08:14Z</time>
      </trkpt>
      <trkpt lat="43.2376530" lon="-7.7244000">
        <ele>432.7</ele>
        <time>2014-07-30T09:08:19Z</time>
      </trkpt>
      <trkpt lat="43.2376230" lon="-7.7243850">
        <ele>432.8</ele>
        <time>2014-07-30T09:08:20Z</time>
      </trkpt>
      <trkpt lat="43.2374850" lon="-7.7243210">
        <ele>433.6</ele>
        <time>2014-07-30T09:08:27Z</time>
      </trkpt>
      <trkpt lat="43.2374680" lon="-7.7243210">
        <ele>433.7</ele>
        <time>2014-07-30T09:08:28Z</time>
      </trkpt>
      <trkpt lat="43.2374490" lon="-7.7243230">
        <ele>433.8</ele>
        <time>2014-07-30T09:08:29Z</time>
      </trkpt>
      <trkpt lat="43.2374250" lon="-7.7243160">
        <ele>434.0</ele>
        <time>2014-07-30T09:08:30Z</time>
      </trkpt>
      <trkpt lat="43.2374040" lon="-7.7243100">
        <ele>434.1</ele>
        <time>2014-07-30T09:08:31Z</time>
      </trkpt>
      <trkpt lat="43.2373790" lon="-7.7243080">
        <ele>434.3</ele>
        <time>2014-07-30T09:08:32Z</time>
      </trkpt>
      <trkpt lat="43.2373520" lon="-7.7243090">
        <ele>434.5</ele>
        <time>2014-07-30T09:08:33Z</time>
      </trkpt>
      <trkpt lat="43.2373300" lon="-7.7243060">
        <ele>434.6</ele>
        <time>2014-07-30T09:08:34Z</time>
      </trkpt>
      <trkpt lat="43.2373060" lon="-7.7243060">
        <ele>434.8</ele>
        <time>2014-07-30T09:08:35Z</time>
      </trkpt>
      <trkpt lat="43.2372770" lon="-7.7243120">
        <ele>435.0</ele>
        <time>2014-07-30T09:08:36Z</time>
      </trkpt>
      <trkpt lat="43.2372460" lon="-7.7243120">
        <ele>435.3</ele>
        <time>2014-07-30T09:08:37Z</time>
      </trkpt>
      <trkpt lat="43.2368300" lon="-7.7243120">
        <ele>439.8</ele>
        <time>2014-07-30T09:08:50Z</time>
      </trkpt>
      <trkpt lat="43.2367880" lon="-7.7243190">
        <ele>440.3</ele>
        <time>2014-07-30T09:08:52Z</time>
      </trkpt>
      <trkpt lat="43.2367810" lon="-7.7243330">
        <ele>440.4</ele>
        <time>2014-07-30T09:08:53Z</time>
      </trkpt>
      <trkpt lat="43.2367990" lon="-7.7247410">
        <ele>437.7</ele>
        <time>2014-07-30T09:09:02Z</time>
      </trkpt>
      <trkpt lat="43.2367910" lon="-7.7250470">
        <ele>434.6</ele>
        <time>2014-07-30T09:09:07Z</time>
      </trkpt>
      <trkpt lat="43.2367520" lon="-7.7254660">
        <ele>430.9</ele>
        <time>2014-07-30T09:09:15Z</time>
      </trkpt>
      <trkpt lat="43.2365100" lon="-7.7257890">
        <ele>427.2</ele>
        <time>2014-07-30T09:09:25Z</time>
      </trkpt>
      <trkpt lat="43.2364130" lon="-7.7258660">
        <ele>425.9</ele>
        <time>2014-07-30T09:09:28Z</time>
      </trkpt>
      <trkpt lat="43.2363260" lon="-7.7259290">
        <ele>424.7</ele>
        <time>2014-07-30T09:09:31Z</time>
      </trkpt>
      <trkpt lat="43.2363060" lon="-7.7259370">
        <ele>424.5</ele>
        <time>2014-07-30T09:09:32Z</time>
      </trkpt>
      <trkpt lat="43.2362820" lon="-7.7259500">
        <ele>424.2</ele>
        <time>2014-07-30T09:09:33Z</time>
      </trkpt>
      <trkpt lat="43.2362570" lon="-7.7259720">
        <ele>424.0</ele>
        <time>2014-07-30T09:09:34Z</time>
      </trkpt>
      <trkpt lat="43.2362310" lon="-7.7260010">
        <ele>423.9</ele>
        <time>2014-07-30T09:09:35Z</time>
      </trkpt>
      <trkpt lat="43.2360540" lon="-7.7261850">
        <ele>422.9</ele>
        <time>2014-07-30T09:09:45Z</time>
      </trkpt>
      <trkpt lat="43.2360110" lon="-7.7262360">
        <ele>422.7</ele>
        <time>2014-07-30T09:09:48Z</time>
      </trkpt>
      <trkpt lat="43.2359990" lon="-7.7262550">
        <ele>422.7</ele>
        <time>2014-07-30T09:09:49Z</time>
      </trkpt>
      <trkpt lat="43.2359830" lon="-7.7262670">
        <ele>422.6</ele>
        <time>2014-07-30T09:09:50Z</time>
      </trkpt>
      <trkpt lat="43.2359670" lon="-7.7262810">
        <ele>422.5</ele>
        <time>2014-07-30T09:09:51Z</time>
      </trkpt>
      <trkpt lat="43.2359490" lon="-7.7263050">
        <ele>422.4</ele>
        <time>2014-07-30T09:09:52Z</time>
      </trkpt>
      <trkpt lat="43.2358170" lon="-7.7265540">
        <ele>421.4</ele>
        <time>2014-07-30T09:10:02Z</time>
      </trkpt>
      <trkpt lat="43.2357540" lon="-7.7269200">
        <ele>419.5</ele>
        <time>2014-07-30T09:10:10Z</time>
      </trkpt>
      <trkpt lat="43.2356330" lon="-7.7273740">
        <ele>416.6</ele>
        <time>2014-07-30T09:10:22Z</time>
      </trkpt>
      <trkpt lat="43.2356060" lon="-7.7274740">
        <ele>416.2</ele>
        <time>2014-07-30T09:10:27Z</time>
      </trkpt>
      <trkpt lat="43.2356020" lon="-7.7274950">
        <ele>416.1</ele>
        <time>2014-07-30T09:10:28Z</time>
      </trkpt>
      <trkpt lat="43.2355520" lon="-7.7276660">
        <ele>415.0</ele>
        <time>2014-07-30T09:10:34Z</time>
      </trkpt>
      <trkpt lat="43.2354420" lon="-7.7280790">
        <ele>412.1</ele>
        <time>2014-07-30T09:10:45Z</time>
      </trkpt>
      <trkpt lat="43.2353800" lon="-7.7281460">
        <ele>411.1</ele>
        <time>2014-07-30T09:10:54Z</time>
      </trkpt>
      <trkpt lat="43.2353800" lon="-7.7281460">
        <ele>411.1</ele>
        <time>2014-07-30T09:11:13Z</time>
      </trkpt>
      <trkpt lat="43.2353790" lon="-7.7281630">
        <ele>411.0</ele>
        <time>2014-07-30T09:11:30Z</time>
      </trkpt>
      <trkpt lat="43.2354710" lon="-7.7283510">
        <ele>410.6</ele>
        <time>2014-07-30T09:11:39Z</time>
      </trkpt>
      <trkpt lat="43.2357860" lon="-7.7286190">
        <ele>409.6</ele>
        <time>2014-07-30T09:11:55Z</time>
      </trkpt>
      <trkpt lat="43.2359300" lon="-7.7288010">
        <ele>409.3</ele>
        <time>2014-07-30T09:12:06Z</time>
      </trkpt>
      <trkpt lat="43.2359300" lon="-7.7288010">
        <ele>409.3</ele>
        <time>2014-07-30T09:12:08Z</time>
      </trkpt>
      <trkpt lat="43.2359300" lon="-7.7288010">
        <ele>409.3</ele>
        <time>2014-07-30T09:12:09Z</time>
      </trkpt>
      <trkpt lat="43.2359300" lon="-7.7288010">
        <ele>409.3</ele>
        <time>2014-07-30T09:12:10Z</time>
      </trkpt>
      <trkpt lat="43.2359300" lon="-7.7288010">
        <ele>409.3</ele>
        <time>2014-07-30T09:12:21Z</time>
      </trkpt>
      <trkpt lat="43.2359300" lon="-7.7288010">
        <ele>409.3</ele>
        <time>2014-07-30T09:12:22Z</time>
      </trkpt>
      <trkpt lat="43.2359300" lon="-7.7288010">
        <ele>409.3</ele>
        <time>2014-07-30T09:12:26Z</time>
      </trkpt>
      <trkpt lat="43.2359300" lon="-7.7288010">
        <ele>409.3</ele>
        <time>2014-07-30T09:12:27Z</time>
      </trkpt>
      <trkpt lat="43.2359740" lon="-7.7289460">
        <ele>409.2</ele>
        <time>2014-07-30T09:12:44Z</time>
      </trkpt>
      <trkpt lat="43.2360000" lon="-7.7289980">
        <ele>409.0</ele>
        <time>2014-07-30T09:12:56Z</time>
      </trkpt>
      <trkpt lat="43.2360000" lon="-7.7289980">
        <ele>409.0</ele>
        <time>2014-07-30T09:13:17Z</time>
      </trkpt>
      <trkpt lat="43.2359980" lon="-7.7290020">
        <ele>409.0</ele>
        <time>2014-07-30T09:13:44Z</time>
      </trkpt>
      <trkpt lat="43.2360010" lon="-7.7289980">
        <ele>409.0</ele>
        <time>2014-07-30T09:14:08Z</time>
      </trkpt>
      <trkpt lat="43.2360010" lon="-7.7289980">
        <ele>409.0</ele>
        <time>2014-07-30T09:14:31Z</time>
      </trkpt>
      <trkpt lat="43.2360280" lon="-7.7294480">
        <ele>408.2</ele>
        <time>2014-07-30T09:14:42Z</time>
      </trkpt>
      <trkpt lat="43.2360440" lon="-7.7298890">
        <ele>407.5</ele>
        <time>2014-07-30T09:14:53Z</time>
      </trkpt>
      <trkpt lat="43.2355100" lon="-7.7302180">
        <ele>406.8</ele>
        <time>2014-07-30T09:15:09Z</time>
      </trkpt>
      <trkpt lat="43.2351640" lon="-7.7304470">
        <ele>407.8</ele>
        <time>2014-07-30T09:15:18Z</time>
      </trkpt>
      <trkpt lat="43.2351300" lon="-7.7304830">
        <ele>407.8</ele>
        <time>2014-07-30T09:15:19Z</time>
      </trkpt>
      <trkpt lat="43.2350990" lon="-7.7305220">
        <ele>407.9</ele>
        <time>2014-07-30T09:15:20Z</time>
      </trkpt>
      <trkpt lat="43.2348610" lon="-7.7308060">
        <ele>408.5</ele>
        <time>2014-07-30T09:15:27Z</time>
      </trkpt>
      <trkpt lat="43.2348180" lon="-7.7308330">
        <ele>408.6</ele>
        <time>2014-07-30T09:15:28Z</time>
      </trkpt>
      <trkpt lat="43.2346510" lon="-7.7309290">
        <ele>408.8</ele>
        <time>2014-07-30T09:15:32Z</time>
      </trkpt>
      <trkpt lat="43.2346120" lon="-7.7309490">
        <ele>408.9</ele>
        <time>2014-07-30T09:15:33Z</time>
      </trkpt>
      <trkpt lat="43.2344370" lon="-7.7311100">
        <ele>409.3</ele>
        <time>2014-07-30T09:15:39Z</time>
      </trkpt>
      <trkpt lat="43.2344290" lon="-7.7315820">
        <ele>409.5</ele>
        <time>2014-07-30T09:15:50Z</time>
      </trkpt>
      <trkpt lat="43.2344200" lon="-7.7320280">
        <ele>409.1</ele>
        <time>2014-07-30T09:15:58Z</time>
      </trkpt>
      <trkpt lat="43.2344010" lon="-7.7325360">
        <ele>408.2</ele>
        <time>2014-07-30T09:16:08Z</time>
      </trkpt>
      <trkpt lat="43.2343440" lon="-7.7329920">
        <ele>407.1</ele>
        <time>2014-07-30T09:16:18Z</time>
      </trkpt>
      <trkpt lat="43.2343140" lon="-7.7330140">
        <ele>407.0</ele>
        <time>2014-07-30T09:16:19Z</time>
      </trkpt>
      <trkpt lat="43.2342840" lon="-7.7330280">
        <ele>407.0</ele>
        <time>2014-07-30T09:16:20Z</time>
      </trkpt>
      <trkpt lat="43.2342060" lon="-7.7330500">
        <ele>406.7</ele>
        <time>2014-07-30T09:16:28Z</time>
      </trkpt>
      <trkpt lat="43.2342130" lon="-7.7330620">
        <ele>406.6</ele>
        <time>2014-07-30T09:16:32Z</time>
      </trkpt>
      <trkpt lat="43.2342130" lon="-7.7330830">
        <ele>406.6</ele>
        <time>2014-07-30T09:16:33Z</time>
      </trkpt>
      <trkpt lat="43.2342070" lon="-7.7331090">
        <ele>406.5</ele>
        <time>2014-07-30T09:16:34Z</time>
      </trkpt>
      <trkpt lat="43.2340450" lon="-7.7335580">
        <ele>406.3</ele>
        <time>2014-07-30T09:16:48Z</time>
      </trkpt>
      <trkpt lat="43.2340190" lon="-7.7336050">
        <ele>406.3</ele>
        <time>2014-07-30T09:16:50Z</time>
      </trkpt>
      <trkpt lat="43.2339990" lon="-7.7336150">
        <ele>406.3</ele>
        <time>2014-07-30T09:16:51Z</time>
      </trkpt>
      <trkpt lat="43.2336820" lon="-7.7336820">
        <ele>406.9</ele>
        <time>2014-07-30T09:17:05Z</time>
      </trkpt>
      <trkpt lat="43.2336620" lon="-7.7336940">
        <ele>407.0</ele>
        <time>2014-07-30T09:17:06Z</time>
      </trkpt>
      <trkpt lat="43.2334730" lon="-7.7337850">
        <ele>407.4</ele>
        <time>2014-07-30T09:17:17Z</time>
      </trkpt>
      <trkpt lat="43.2332070" lon="-7.7338710">
        <ele>410.1</ele>
        <time>2014-07-30T09:17:31Z</time>
      </trkpt>
      <trkpt lat="43.2329460" lon="-7.7339630">
        <ele>411.7</ele>
        <time>2014-07-30T09:17:45Z</time>
      </trkpt>
      <trkpt lat="43.2325890" lon="-7.7339850">
        <ele>413.4</ele>
        <time>2014-07-30T09:17:58Z</time>
      </trkpt>
      <trkpt lat="43.2325450" lon="-7.7339960">
        <ele>413.5</ele>
        <time>2014-07-30T09:17:59Z</time>
      </trkpt>
      <trkpt lat="43.2322030" lon="-7.7341020">
        <ele>413.8</ele>
        <time>2014-07-30T09:18:09Z</time>
      </trkpt>
      <trkpt lat="43.2319460" lon="-7.7342450">
        <ele>414.6</ele>
        <time>2014-07-30T09:18:23Z</time>
      </trkpt>
      <trkpt lat="43.2319240" lon="-7.7342610">
        <ele>414.9</ele>
        <time>2014-07-30T09:18:25Z</time>
      </trkpt>
      <trkpt lat="43.2319090" lon="-7.7342710">
        <ele>415.0</ele>
        <time>2014-07-30T09:18:26Z</time>
      </trkpt>
      <trkpt lat="43.2318970" lon="-7.7342770">
        <ele>415.2</ele>
        <time>2014-07-30T09:18:27Z</time>
      </trkpt>
      <trkpt lat="43.2317300" lon="-7.7343700">
        <ele>417.2</ele>
        <time>2014-07-30T09:18:38Z</time>
      </trkpt>
      <trkpt lat="43.2316510" lon="-7.7344040">
        <ele>418.1</ele>
        <time>2014-07-30T09:18:43Z</time>
      </trkpt>
      <trkpt lat="43.2316380" lon="-7.7344080">
        <ele>418.2</ele>
        <time>2014-07-30T09:18:44Z</time>
      </trkpt>
      <trkpt lat="43.2314200" lon="-7.7344910">
        <ele>420.8</ele>
        <time>2014-07-30T09:18:57Z</time>
      </trkpt>
      <trkpt lat="43.2312010" lon="-7.7345480">
        <ele>423.4</ele>
        <time>2014-07-30T09:19:08Z</time>
      </trkpt>
      <trkpt lat="43.2311800" lon="-7.7345530">
        <ele>423.6</ele>
        <time>2014-07-30T09:19:09Z</time>
      </trkpt>
      <trkpt lat="43.2309870" lon="-7.7346300">
        <ele>425.6</ele>
        <time>2014-07-30T09:19:21Z</time>
      </trkpt>
      <trkpt lat="43.2308040" lon="-7.7346690">
        <ele>426.9</ele>
        <time>2014-07-30T09:19:32Z</time>
      </trkpt>
      <trkpt lat="43.2305090" lon="-7.7346280">
        <ele>428.4</ele>
        <time>2014-07-30T09:19:45Z</time>
      </trkpt>
      <trkpt lat="43.2302110" lon="-7.7347340">
        <ele>429.3</ele>
        <time>2014-07-30T09:19:57Z</time>
      </trkpt>
      <trkpt lat="43.2300260" lon="-7.7347230">
        <ele>429.5</ele>
        <time>2014-07-30T09:20:02Z</time>
      </trkpt>
      <trkpt lat="43.2298930" lon="-7.7346710">
        <ele>429.6</ele>
        <time>2014-07-30T09:20:05Z</time>
      </trkpt>
      <trkpt lat="43.2298470" lon="-7.7346750">
        <ele>429.6</ele>
        <time>2014-07-30T09:20:06Z</time>
      </trkpt>
      <trkpt lat="43.2298040" lon="-7.7346920">
        <ele>429.6</ele>
        <time>2014-07-30T09:20:07Z</time>
      </trkpt>
      <trkpt lat="43.2294430" lon="-7.7346510">
        <ele>427.6</ele>
        <time>2014-07-30T09:20:18Z</time>
      </trkpt>
      <trkpt lat="43.2294070" lon="-7.7346270">
        <ele>427.2</ele>
        <time>2014-07-30T09:20:19Z</time>
      </trkpt>
      <trkpt lat="43.2293630" lon="-7.7346040">
        <ele>426.7</ele>
        <time>2014-07-30T09:20:20Z</time>
      </trkpt>
      <trkpt lat="43.2293110" lon="-7.7345840">
        <ele>426.1</ele>
        <time>2014-07-30T09:20:21Z</time>
      </trkpt>
      <trkpt lat="43.2291270" lon="-7.7344990">
        <ele>423.9</ele>
        <time>2014-07-30T09:20:24Z</time>
      </trkpt>
      <trkpt lat="43.2290740" lon="-7.7344530">
        <ele>423.0</ele>
        <time>2014-07-30T09:20:25Z</time>
      </trkpt>
      <trkpt lat="43.2290320" lon="-7.7343900">
        <ele>422.3</ele>
        <time>2014-07-30T09:20:26Z</time>
      </trkpt>
      <trkpt lat="43.2290020" lon="-7.7343100">
        <ele>421.4</ele>
        <time>2014-07-30T09:20:27Z</time>
      </trkpt>
      <trkpt lat="43.2289800" lon="-7.7342170">
        <ele>420.6</ele>
        <time>2014-07-30T09:20:28Z</time>
      </trkpt>
      <trkpt lat="43.2289590" lon="-7.7341180">
        <ele>419.5</ele>
        <time>2014-07-30T09:20:29Z</time>
      </trkpt>
      <trkpt lat="43.2289000" lon="-7.7336140">
        <ele>414.9</ele>
        <time>2014-07-30T09:20:34Z</time>
      </trkpt>
      <trkpt lat="43.2288810" lon="-7.7335190">
        <ele>414.3</ele>
        <time>2014-07-30T09:20:35Z</time>
      </trkpt>
      <trkpt lat="43.2288630" lon="-7.7334240">
        <ele>413.9</ele>
        <time>2014-07-30T09:20:36Z</time>
      </trkpt>
      <trkpt lat="43.2287960" lon="-7.7328900">
        <ele>412.0</ele>
        <time>2014-07-30T09:20:42Z</time>
      </trkpt>
      <trkpt lat="43.2287960" lon="-7.7327810">
        <ele>411.9</ele>
        <time>2014-07-30T09:20:49Z</time>
      </trkpt>
      <trkpt lat="43.2287830" lon="-7.7325510">
        <ele>410.7</ele>
        <time>2014-07-30T09:20:59Z</time>
      </trkpt>
      <trkpt lat="43.2287900" lon="-7.7320990">
        <ele>409.7</ele>
        <time>2014-07-30T09:21:06Z</time>
      </trkpt>
      <trkpt lat="43.2288240" lon="-7.7318560">
        <ele>409.5</ele>
        <time>2014-07-30T09:21:10Z</time>
      </trkpt>
      <trkpt lat="43.2288250" lon="-7.7318010">
        <ele>409.5</ele>
        <time>2014-07-30T09:21:11Z</time>
      </trkpt>
      <trkpt lat="43.2288190" lon="-7.7317480">
        <ele>409.5</ele>
        <time>2014-07-30T09:21:12Z</time>
      </trkpt>
      <trkpt lat="43.2288010" lon="-7.7317040">
        <ele>409.5</ele>
        <time>2014-07-30T09:21:13Z</time>
      </trkpt>
      <trkpt lat="43.2287750" lon="-7.7316680">
        <ele>409.5</ele>
        <time>2014-07-30T09:21:14Z</time>
      </trkpt>
      <trkpt lat="43.2287470" lon="-7.7316390">
        <ele>409.5</ele>
        <time>2014-07-30T09:21:15Z</time>
      </trkpt>
      <trkpt lat="43.2287170" lon="-7.7316140">
        <ele>409.5</ele>
        <time>2014-07-30T09:21:16Z</time>
      </trkpt>
      <trkpt lat="43.2286870" lon="-7.7315870">
        <ele>409.5</ele>
        <time>2014-07-30T09:21:17Z</time>
      </trkpt>
      <trkpt lat="43.2286570" lon="-7.7315550">
        <ele>409.5</ele>
        <time>2014-07-30T09:21:18Z</time>
      </trkpt>
      <trkpt lat="43.2281050" lon="-7.7310340">
        <ele>409.4</ele>
        <time>2014-07-30T09:21:34Z</time>
      </trkpt>
      <trkpt lat="43.2279500" lon="-7.7309300">
        <ele>409.4</ele>
        <time>2014-07-30T09:21:38Z</time>
      </trkpt>
      <trkpt lat="43.2276110" lon="-7.7308020">
        <ele>409.4</ele>
        <time>2014-07-30T09:21:46Z</time>
      </trkpt>
      <trkpt lat="43.2275700" lon="-7.7308050">
        <ele>409.4</ele>
        <time>2014-07-30T09:21:47Z</time>
      </trkpt>
      <trkpt lat="43.2274850" lon="-7.7308150">
        <ele>409.4</ele>
        <time>2014-07-30T09:21:49Z</time>
      </trkpt>
      <trkpt lat="43.2270550" lon="-7.7307770">
        <ele>409.7</ele>
        <time>2014-07-30T09:22:00Z</time>
      </trkpt>
      <trkpt lat="43.2267580" lon="-7.7306280">
        <ele>410.5</ele>
        <time>2014-07-30T09:22:08Z</time>
      </trkpt>
      <trkpt lat="43.2260600" lon="-7.7303570">
        <ele>412.6</ele>
        <time>2014-07-30T09:22:26Z</time>
      </trkpt>
      <trkpt lat="43.2256330" lon="-7.7302880">
        <ele>413.6</ele>
        <time>2014-07-30T09:22:39Z</time>
      </trkpt>
      <trkpt lat="43.2251890" lon="-7.7300720">
        <ele>415.2</ele>
        <time>2014-07-30T09:22:54Z</time>
      </trkpt>
      <trkpt lat="43.2249010" lon="-7.7298830">
        <ele>416.8</ele>
        <time>2014-07-30T09:23:07Z</time>
      </trkpt>
      <trkpt lat="43.2246170" lon="-7.7298460">
        <ele>418.2</ele>
        <time>2014-07-30T09:23:19Z</time>
      </trkpt>
      <trkpt lat="43.2243460" lon="-7.7297670">
        <ele>418.6</ele>
        <time>2014-07-30T09:23:30Z</time>
      </trkpt>
      <trkpt lat="43.2239710" lon="-7.7296130">
        <ele>418.7</ele>
        <time>2014-07-30T09:23:41Z</time>
      </trkpt>
      <trkpt lat="43.2235230" lon="-7.7293860">
        <ele>417.7</ele>
        <time>2014-07-30T09:23:54Z</time>
      </trkpt>
      <trkpt lat="43.2227790" lon="-7.7291540">
        <ele>415.5</ele>
        <time>2014-07-30T09:24:09Z</time>
      </trkpt>
      <trkpt lat="43.2224380" lon="-7.7290060">
        <ele>415.0</ele>
        <time>2014-07-30T09:24:15Z</time>
      </trkpt>
      <trkpt lat="43.2220080" lon="-7.7288360">
        <ele>414.4</ele>
        <time>2014-07-30T09:24:22Z</time>
      </trkpt>
      <trkpt lat="43.2219400" lon="-7.7288460">
        <ele>414.3</ele>
        <time>2014-07-30T09:24:23Z</time>
      </trkpt>
      <trkpt lat="43.2218730" lon="-7.7288690">
        <ele>414.2</ele>
        <time>2014-07-30T09:24:24Z</time>
      </trkpt>
      <trkpt lat="43.2218080" lon="-7.7288980">
        <ele>414.1</ele>
        <time>2014-07-30T09:24:25Z</time>
      </trkpt>
      <trkpt lat="43.2217460" lon="-7.7289330">
        <ele>414.1</ele>
        <time>2014-07-30T09:24:26Z</time>
      </trkpt>
      <trkpt lat="43.2216870" lon="-7.7289730">
        <ele>414.1</ele>
        <time>2014-07-30T09:24:27Z</time>
      </trkpt>
      <trkpt lat="43.2215170" lon="-7.7290430">
        <ele>413.9</ele>
        <time>2014-07-30T09:24:30Z</time>
      </trkpt>
      <trkpt lat="43.2214590" lon="-7.7290440">
        <ele>413.8</ele>
        <time>2014-07-30T09:24:31Z</time>
      </trkpt>
      <trkpt lat="43.2214020" lon="-7.7290270">
        <ele>413.7</ele>
        <time>2014-07-30T09:24:32Z</time>
      </trkpt>
      <trkpt lat="43.2213470" lon="-7.7290000">
        <ele>413.6</ele>
        <time>2014-07-30T09:24:33Z</time>
      </trkpt>
      <trkpt lat="43.2212920" lon="-7.7289670">
        <ele>413.4</ele>
        <time>2014-07-30T09:24:34Z</time>
      </trkpt>
      <trkpt lat="43.2209620" lon="-7.7287460">
        <ele>412.8</ele>
        <time>2014-07-30T09:24:40Z</time>
      </trkpt>
      <trkpt lat="43.2208600" lon="-7.7286960">
        <ele>413.0</ele>
        <time>2014-07-30T09:24:42Z</time>
      </trkpt>
      <trkpt lat="43.2208190" lon="-7.7286630">
        <ele>413.2</ele>
        <time>2014-07-30T09:24:43Z</time>
      </trkpt>
      <trkpt lat="43.2207810" lon="-7.7286290">
        <ele>413.3</ele>
        <time>2014-07-30T09:24:44Z</time>
      </trkpt>
      <trkpt lat="43.2207430" lon="-7.7285980">
        <ele>413.5</ele>
        <time>2014-07-30T09:24:45Z</time>
      </trkpt>
      <trkpt lat="43.2207070" lon="-7.7285680">
        <ele>413.7</ele>
        <time>2014-07-30T09:24:46Z</time>
      </trkpt>
      <trkpt lat="43.2203680" lon="-7.7283320">
        <ele>416.4</ele>
        <time>2014-07-30T09:24:58Z</time>
      </trkpt>
      <trkpt lat="43.2201490" lon="-7.7283390">
        <ele>418.7</ele>
        <time>2014-07-30T09:25:10Z</time>
      </trkpt>
      <trkpt lat="43.2200690" lon="-7.7283670">
        <ele>419.7</ele>
        <time>2014-07-30T09:25:15Z</time>
      </trkpt>
      <trkpt lat="43.2198790" lon="-7.7285940">
        <ele>422.2</ele>
        <time>2014-07-30T09:25:30Z</time>
      </trkpt>
      <trkpt lat="43.2196530" lon="-7.7289090">
        <ele>424.2</ele>
        <time>2014-07-30T09:25:46Z</time>
      </trkpt>
      <trkpt lat="43.2194090" lon="-7.7292570">
        <ele>425.8</ele>
        <time>2014-07-30T09:26:00Z</time>
      </trkpt>
      <trkpt lat="43.2191190" lon="-7.7294670">
        <ele>426.8</ele>
        <time>2014-07-30T09:26:13Z</time>
      </trkpt>
      <trkpt lat="43.2187000" lon="-7.7297140">
        <ele>427.8</ele>
        <time>2014-07-30T09:26:28Z</time>
      </trkpt>
      <trkpt lat="43.2181880" lon="-7.7300220">
        <ele>428.0</ele>
        <time>2014-07-30T09:26:43Z</time>
      </trkpt>
      <trkpt lat="43.2181150" lon="-7.7300790">
        <ele>427.9</ele>
        <time>2014-07-30T09:26:45Z</time>
      </trkpt>
      <trkpt lat="43.2180780" lon="-7.7301060">
        <ele>427.9</ele>
        <time>2014-07-30T09:26:46Z</time>
      </trkpt>
      <trkpt lat="43.2180420" lon="-7.7301340">
        <ele>427.8</ele>
        <time>2014-07-30T09:26:47Z</time>
      </trkpt>
      <trkpt lat="43.2180050" lon="-7.7301600">
        <ele>427.7</ele>
        <time>2014-07-30T09:26:48Z</time>
      </trkpt>
      <trkpt lat="43.2179670" lon="-7.7301850">
        <ele>427.6</ele>
        <time>2014-07-30T09:26:49Z</time>
      </trkpt>
      <trkpt lat="43.2179280" lon="-7.7302100">
        <ele>427.6</ele>
        <time>2014-07-30T09:26:50Z</time>
      </trkpt>
      <trkpt lat="43.2175430" lon="-7.7302340">
        <ele>427.1</ele>
        <time>2014-07-30T09:27:01Z</time>
      </trkpt>
      <trkpt lat="43.2172080" lon="-7.7301400">
        <ele>427.1</ele>
        <time>2014-07-30T09:27:12Z</time>
      </trkpt>
      <trkpt lat="43.2168870" lon="-7.7304380">
        <ele>427.6</ele>
        <time>2014-07-30T09:27:23Z</time>
      </trkpt>
      <trkpt lat="43.2163370" lon="-7.7308910">
        <ele>428.4</ele>
        <time>2014-07-30T09:27:40Z</time>
      </trkpt>
      <trkpt lat="43.2158400" lon="-7.7309640">
        <ele>429.3</ele>
        <time>2014-07-30T09:27:53Z</time>
      </trkpt>
      <trkpt lat="43.2152430" lon="-7.7309470">
        <ele>428.9</ele>
        <time>2014-07-30T09:28:08Z</time>
      </trkpt>
      <trkpt lat="43.2145200" lon="-7.7310170">
        <ele>427.8</ele>
        <time>2014-07-30T09:28:24Z</time>
      </trkpt>
      <trkpt lat="43.2136810" lon="-7.7310430">
        <ele>426.1</ele>
        <time>2014-07-30T09:28:39Z</time>
      </trkpt>
      <trkpt lat="43.2125810" lon="-7.7310840">
        <ele>422.4</ele>
        <time>2014-07-30T09:28:55Z</time>
      </trkpt>
      <trkpt lat="43.2119420" lon="-7.7312220">
        <ele>421.9</ele>
        <time>2014-07-30T09:29:08Z</time>
      </trkpt>
      <trkpt lat="43.2117450" lon="-7.7312680">
        <ele>421.9</ele>
        <time>2014-07-30T09:29:13Z</time>
      </trkpt>
      <trkpt lat="43.2116190" lon="-7.7312550">
        <ele>421.9</ele>
        <time>2014-07-30T09:29:16Z</time>
      </trkpt>
      <trkpt lat="43.2114900" lon="-7.7312160">
        <ele>421.9</ele>
        <time>2014-07-30T09:29:19Z</time>
      </trkpt>
      <trkpt lat="43.2107980" lon="-7.7308460">
        <ele>422.4</ele>
        <time>2014-07-30T09:29:37Z</time>
      </trkpt>
      <trkpt lat="43.2104050" lon="-7.7306600">
        <ele>422.3</ele>
        <time>2014-07-30T09:29:53Z</time>
      </trkpt>
      <trkpt lat="43.2102010" lon="-7.7304750">
        <ele>422.3</ele>
        <time>2014-07-30T09:30:10Z</time>
      </trkpt>
      <trkpt lat="43.2101930" lon="-7.7304660">
        <ele>422.3</ele>
        <time>2014-07-30T09:30:20Z</time>
      </trkpt>
      <trkpt lat="43.2101810" lon="-7.7304510">
        <ele>422.3</ele>
        <time>2014-07-30T09:30:21Z</time>
      </trkpt>
      <trkpt lat="43.2101690" lon="-7.7304340">
        <ele>422.3</ele>
        <time>2014-07-30T09:30:22Z</time>
      </trkpt>
      <trkpt lat="43.2098050" lon="-7.7300720">
        <ele>423.2</ele>
        <time>2014-07-30T09:30:37Z</time>
      </trkpt>
      <trkpt lat="43.2094160" lon="-7.7298060">
        <ele>424.0</ele>
        <time>2014-07-30T09:30:50Z</time>
      </trkpt>
      <trkpt lat="43.2089200" lon="-7.7294420">
        <ele>424.6</ele>
        <time>2014-07-30T09:31:05Z</time>
      </trkpt>
      <trkpt lat="43.2084480" lon="-7.7289670">
        <ele>426.3</ele>
        <time>2014-07-30T09:31:21Z</time>
      </trkpt>
      <trkpt lat="43.2079290" lon="-7.7286110">
        <ele>426.8</ele>
        <time>2014-07-30T09:31:35Z</time>
      </trkpt>
      <trkpt lat="43.2078060" lon="-7.7285540">
        <ele>426.8</ele>
        <time>2014-07-30T09:31:38Z</time>
      </trkpt>
      <trkpt lat="43.2077180" lon="-7.7285300">
        <ele>426.8</ele>
        <time>2014-07-30T09:31:40Z</time>
      </trkpt>
      <trkpt lat="43.2076740" lon="-7.7285300">
        <ele>426.8</ele>
        <time>2014-07-30T09:31:41Z</time>
      </trkpt>
      <trkpt lat="43.2076390" lon="-7.7285500">
        <ele>426.8</ele>
        <time>2014-07-30T09:31:42Z</time>
      </trkpt>
      <trkpt lat="43.2076150" lon="-7.7285880">
        <ele>426.7</ele>
        <time>2014-07-30T09:31:43Z</time>
      </trkpt>
      <trkpt lat="43.2075970" lon="-7.7286360">
        <ele>426.5</ele>
        <time>2014-07-30T09:31:44Z</time>
      </trkpt>
      <trkpt lat="43.2075830" lon="-7.7286900">
        <ele>426.3</ele>
        <time>2014-07-30T09:31:45Z</time>
      </trkpt>
      <trkpt lat="43.2075710" lon="-7.7287460">
        <ele>426.1</ele>
        <time>2014-07-30T09:31:46Z</time>
      </trkpt>
      <trkpt lat="43.2074970" lon="-7.7293390">
        <ele>424.0</ele>
        <time>2014-07-30T09:31:56Z</time>
      </trkpt>
      <trkpt lat="43.2074930" lon="-7.7293930">
        <ele>423.9</ele>
        <time>2014-07-30T09:31:57Z</time>
      </trkpt>
      <trkpt lat="43.2075080" lon="-7.7296690">
        <ele>423.1</ele>
        <time>2014-07-30T09:32:02Z</time>
      </trkpt>
      <trkpt lat="43.2078000" lon="-7.7307550">
        <ele>419.4</ele>
        <time>2014-07-30T09:32:17Z</time>
      </trkpt>
      <trkpt lat="43.2081800" lon="-7.7316750">
        <ele>421.1</ele>
        <time>2014-07-30T09:32:30Z</time>
      </trkpt>
      <trkpt lat="43.2084150" lon="-7.7325220">
        <ele>423.0</ele>
        <time>2014-07-30T09:32:46Z</time>
      </trkpt>
      <trkpt lat="43.2086070" lon="-7.7331680">
        <ele>425.8</ele>
        <time>2014-07-30T09:33:01Z</time>
      </trkpt>
      <trkpt lat="43.2087690" lon="-7.7337020">
        <ele>427.7</ele>
        <time>2014-07-30T09:33:16Z</time>
      </trkpt>
      <trkpt lat="43.2089280" lon="-7.7341630">
        <ele>430.3</ele>
        <time>2014-07-30T09:33:32Z</time>
      </trkpt>
      <trkpt lat="43.2090140" lon="-7.7346390">
        <ele>432.6</ele>
        <time>2014-07-30T09:33:47Z</time>
      </trkpt>
      <trkpt lat="43.2089570" lon="-7.7351000">
        <ele>434.2</ele>
        <time>2014-07-30T09:34:01Z</time>
      </trkpt>
      <trkpt lat="43.2088520" lon="-7.7356470">
        <ele>435.5</ele>
        <time>2014-07-30T09:34:16Z</time>
      </trkpt>
      <trkpt lat="43.2088230" lon="-7.7358600">
        <ele>435.7</ele>
        <time>2014-07-30T09:34:22Z</time>
      </trkpt>
      <trkpt lat="43.2088050" lon="-7.7358860">
        <ele>435.7</ele>
        <time>2014-07-30T09:34:23Z</time>
      </trkpt>
      <trkpt lat="43.2087830" lon="-7.7359040">
        <ele>435.7</ele>
        <time>2014-07-30T09:34:24Z</time>
      </trkpt>
      <trkpt lat="43.2087610" lon="-7.7359220">
        <ele>436.1</ele>
        <time>2014-07-30T09:34:25Z</time>
      </trkpt>
      <trkpt lat="43.2087380" lon="-7.7359430">
        <ele>436.2</ele>
        <time>2014-07-30T09:34:26Z</time>
      </trkpt>
      <trkpt lat="43.2087110" lon="-7.7359640">
        <ele>436.2</ele>
        <time>2014-07-30T09:34:27Z</time>
      </trkpt>
      <trkpt lat="43.2084030" lon="-7.7364240">
        <ele>435.4</ele>
        <time>2014-07-30T09:34:40Z</time>
      </trkpt>
      <trkpt lat="43.2081730" lon="-7.7368510">
        <ele>436.1</ele>
        <time>2014-07-30T09:34:51Z</time>
      </trkpt>
      <trkpt lat="43.2080910" lon="-7.7373150">
        <ele>437.0</ele>
        <time>2014-07-30T09:35:02Z</time>
      </trkpt>
      <trkpt lat="43.2080730" lon="-7.7376940">
        <ele>437.8</ele>
        <time>2014-07-30T09:35:12Z</time>
      </trkpt>
      <trkpt lat="43.2081670" lon="-7.7382270">
        <ele>437.6</ele>
        <time>2014-07-30T09:35:23Z</time>
      </trkpt>
      <trkpt lat="43.2082100" lon="-7.7384730">
        <ele>437.4</ele>
        <time>2014-07-30T09:35:27Z</time>
      </trkpt>
      <trkpt lat="43.2082120" lon="-7.7385460">
        <ele>437.3</ele>
        <time>2014-07-30T09:35:28Z</time>
      </trkpt>
      <trkpt lat="43.2082110" lon="-7.7386180">
        <ele>437.2</ele>
        <time>2014-07-30T09:35:29Z</time>
      </trkpt>
      <trkpt lat="43.2082040" lon="-7.7388880">
        <ele>437.1</ele>
        <time>2014-07-30T09:35:33Z</time>
      </trkpt>
      <trkpt lat="43.2082040" lon="-7.7389610">
        <ele>437.1</ele>
        <time>2014-07-30T09:35:34Z</time>
      </trkpt>
      <trkpt lat="43.2081970" lon="-7.7390400">
        <ele>436.3</ele>
        <time>2014-07-30T09:35:35Z</time>
      </trkpt>
      <trkpt lat="43.2081760" lon="-7.7392000">
        <ele>435.2</ele>
        <time>2014-07-30T09:35:37Z</time>
      </trkpt>
      <trkpt lat="43.2081800" lon="-7.7392760">
        <ele>434.7</ele>
        <time>2014-07-30T09:35:38Z</time>
      </trkpt>
      <trkpt lat="43.2081920" lon="-7.7393520">
        <ele>434.2</ele>
        <time>2014-07-30T09:35:39Z</time>
      </trkpt>
      <trkpt lat="43.2081960" lon="-7.7394280">
        <ele>433.8</ele>
        <time>2014-07-30T09:35:40Z</time>
      </trkpt>
      <trkpt lat="43.2082090" lon="-7.7395010">
        <ele>433.4</ele>
        <time>2014-07-30T09:35:41Z</time>
      </trkpt>
      <trkpt lat="43.2082310" lon="-7.7395810">
        <ele>432.9</ele>
        <time>2014-07-30T09:35:42Z</time>
      </trkpt>
      <trkpt lat="43.2082420" lon="-7.7396610">
        <ele>432.6</ele>
        <time>2014-07-30T09:35:43Z</time>
      </trkpt>
      <trkpt lat="43.2082500" lon="-7.7397390">
        <ele>432.2</ele>
        <time>2014-07-30T09:35:44Z</time>
      </trkpt>
      <trkpt lat="43.2082470" lon="-7.7398170">
        <ele>431.9</ele>
        <time>2014-07-30T09:35:45Z</time>
      </trkpt>
      <trkpt lat="43.2082630" lon="-7.7398910">
        <ele>431.5</ele>
        <time>2014-07-30T09:35:46Z</time>
      </trkpt>
      <trkpt lat="43.2082330" lon="-7.7400590">
        <ele>430.7</ele>
        <time>2014-07-30T09:35:48Z</time>
      </trkpt>
      <trkpt lat="43.2081770" lon="-7.7401570">
        <ele>430.2</ele>
        <time>2014-07-30T09:35:49Z</time>
      </trkpt>
      <trkpt lat="43.2081150" lon="-7.7402540">
        <ele>429.6</ele>
        <time>2014-07-30T09:35:50Z</time>
      </trkpt>
      <trkpt lat="43.2080280" lon="-7.7404490">
        <ele>429.0</ele>
        <time>2014-07-30T09:35:52Z</time>
      </trkpt>
      <trkpt lat="43.2080040" lon="-7.7405500">
        <ele>428.8</ele>
        <time>2014-07-30T09:35:53Z</time>
      </trkpt>
      <trkpt lat="43.2079990" lon="-7.7406450">
        <ele>428.4</ele>
        <time>2014-07-30T09:35:54Z</time>
      </trkpt>
      <trkpt lat="43.2080670" lon="-7.7416340">
        <ele>426.3</ele>
        <time>2014-07-30T09:36:07Z</time>
      </trkpt>
      <trkpt lat="43.2078290" lon="-7.7419620">
        <ele>426.6</ele>
        <time>2014-07-30T09:36:16Z</time>
      </trkpt>
      <trkpt lat="43.2077450" lon="-7.7420050">
        <ele>426.8</ele>
        <time>2014-07-30T09:36:18Z</time>
      </trkpt>
      <trkpt lat="43.2077020" lon="-7.7420230">
        <ele>427.0</ele>
        <time>2014-07-30T09:36:19Z</time>
      </trkpt>
      <trkpt lat="43.2075040" lon="-7.7421270">
        <ele>427.7</ele>
        <time>2014-07-30T09:36:24Z</time>
      </trkpt>
      <trkpt lat="43.2073520" lon="-7.7422480">
        <ele>428.1</ele>
        <time>2014-07-30T09:36:28Z</time>
      </trkpt>
      <trkpt lat="43.2072320" lon="-7.7427360">
        <ele>429.4</ele>
        <time>2014-07-30T09:36:38Z</time>
      </trkpt>
      <trkpt lat="43.2072300" lon="-7.7435260">
        <ele>432.3</ele>
        <time>2014-07-30T09:36:52Z</time>
      </trkpt>
      <trkpt lat="43.2071400" lon="-7.7441240">
        <ele>433.6</ele>
        <time>2014-07-30T09:37:05Z</time>
      </trkpt>
      <trkpt lat="43.2069570" lon="-7.7444960">
        <ele>434.5</ele>
        <time>2014-07-30T09:37:16Z</time>
      </trkpt>
      <trkpt lat="43.2068180" lon="-7.7448200">
        <ele>434.8</ele>
        <time>2014-07-30T09:37:27Z</time>
      </trkpt>
      <trkpt lat="43.2065800" lon="-7.7452440">
        <ele>435.0</ele>
        <time>2014-07-30T09:37:41Z</time>
      </trkpt>
      <trkpt lat="43.2061550" lon="-7.7458210">
        <ele>435.3</ele>
        <time>2014-07-30T09:37:59Z</time>
      </trkpt>
      <trkpt lat="43.2058040" lon="-7.7464350">
        <ele>436.4</ele>
        <time>2014-07-30T09:38:15Z</time>
      </trkpt>
      <trkpt lat="43.2054720" lon="-7.7467860">
        <ele>436.6</ele>
        <time>2014-07-30T09:38:28Z</time>
      </trkpt>
      <trkpt lat="43.2048900" lon="-7.7471640">
        <ele>436.5</ele>
        <time>2014-07-30T09:38:43Z</time>
      </trkpt>
      <trkpt lat="43.2047620" lon="-7.7472390">
        <ele>436.3</ele>
        <time>2014-07-30T09:38:46Z</time>
      </trkpt>
      <trkpt lat="43.2046780" lon="-7.7472660">
        <ele>436.3</ele>
        <time>2014-07-30T09:38:48Z</time>
      </trkpt>
      <trkpt lat="43.2043370" lon="-7.7473080">
        <ele>435.8</ele>
        <time>2014-07-30T09:38:56Z</time>
      </trkpt>
      <trkpt lat="43.2042970" lon="-7.7473120">
        <ele>435.7</ele>
        <time>2014-07-30T09:38:57Z</time>
      </trkpt>
      <trkpt lat="43.2039200" lon="-7.7473450">
        <ele>434.4</ele>
        <time>2014-07-30T09:39:07Z</time>
      </trkpt>
      <trkpt lat="43.2038950" lon="-7.7473360">
        <ele>434.3</ele>
        <time>2014-07-30T09:39:08Z</time>
      </trkpt>
      <trkpt lat="43.2038710" lon="-7.7473210">
        <ele>434.1</ele>
        <time>2014-07-30T09:39:09Z</time>
      </trkpt>
      <trkpt lat="43.2038470" lon="-7.7473010">
        <ele>434.0</ele>
        <time>2014-07-30T09:39:10Z</time>
      </trkpt>
      <trkpt lat="43.2038180" lon="-7.7472840">
        <ele>433.9</ele>
        <time>2014-07-30T09:39:11Z</time>
      </trkpt>
      <trkpt lat="43.2037800" lon="-7.7472670">
        <ele>433.7</ele>
        <time>2014-07-30T09:39:12Z</time>
      </trkpt>
      <trkpt lat="43.2037400" lon="-7.7472550">
        <ele>433.6</ele>
        <time>2014-07-30T09:39:13Z</time>
      </trkpt>
      <trkpt lat="43.2036960" lon="-7.7472550">
        <ele>433.4</ele>
        <time>2014-07-30T09:39:14Z</time>
      </trkpt>
      <trkpt lat="43.2036490" lon="-7.7472620">
        <ele>433.3</ele>
        <time>2014-07-30T09:39:15Z</time>
      </trkpt>
      <trkpt lat="43.2034990" lon="-7.7472930">
        <ele>432.8</ele>
        <time>2014-07-30T09:39:18Z</time>
      </trkpt>
      <trkpt lat="43.2034460" lon="-7.7473100">
        <ele>432.7</ele>
        <time>2014-07-30T09:39:19Z</time>
      </trkpt>
      <trkpt lat="43.2029600" lon="-7.7475110">
        <ele>431.8</ele>
        <time>2014-07-30T09:39:30Z</time>
      </trkpt>
      <trkpt lat="43.2029550" lon="-7.7475070">
        <ele>431.8</ele>
        <time>2014-07-30T09:39:48Z</time>
      </trkpt>
      <trkpt lat="43.2027860" lon="-7.7475990">
        <ele>431.2</ele>
        <time>2014-07-30T09:40:04Z</time>
      </trkpt>
      <trkpt lat="43.2024280" lon="-7.7477610">
        <ele>429.2</ele>
        <time>2014-07-30T09:40:13Z</time>
      </trkpt>
      <trkpt lat="43.2023700" lon="-7.7477720">
        <ele>428.8</ele>
        <time>2014-07-30T09:40:14Z</time>
      </trkpt>
      <trkpt lat="43.2023180" lon="-7.7477910">
        <ele>428.5</ele>
        <time>2014-07-30T09:40:15Z</time>
      </trkpt>
      <trkpt lat="43.2020970" lon="-7.7478730">
        <ele>427.0</ele>
        <time>2014-07-30T09:40:19Z</time>
      </trkpt>
      <trkpt lat="43.2016640" lon="-7.7480000">
        <ele>424.1</ele>
        <time>2014-07-30T09:40:28Z</time>
      </trkpt>
      <trkpt lat="43.2015360" lon="-7.7483000">
        <ele>422.0</ele>
        <time>2014-07-30T09:40:36Z</time>
      </trkpt>
      <trkpt lat="43.2015330" lon="-7.7483270">
        <ele>421.9</ele>
        <time>2014-07-30T09:40:37Z</time>
      </trkpt>
      <trkpt lat="43.2015280" lon="-7.7483540">
        <ele>421.8</ele>
        <time>2014-07-30T09:40:38Z</time>
      </trkpt>
      <trkpt lat="43.2015190" lon="-7.7483790">
        <ele>421.7</ele>
        <time>2014-07-30T09:40:39Z</time>
      </trkpt>
      <trkpt lat="43.2015090" lon="-7.7484000">
        <ele>421.6</ele>
        <time>2014-07-30T09:40:40Z</time>
      </trkpt>
      <trkpt lat="43.2014780" lon="-7.7486250">
        <ele>421.8</ele>
        <time>2014-07-30T09:40:52Z</time>
      </trkpt>
      <trkpt lat="43.2014570" lon="-7.7487780">
        <ele>422.4</ele>
        <time>2014-07-30T09:40:59Z</time>
      </trkpt>
      <trkpt lat="43.2014490" lon="-7.7488170">
        <ele>422.6</ele>
        <time>2014-07-30T09:41:10Z</time>
      </trkpt>
      <trkpt lat="43.2014500" lon="-7.7488810">
        <ele>422.8</ele>
        <time>2014-07-30T09:41:30Z</time>
      </trkpt>
      <trkpt lat="43.2014520" lon="-7.7489060">
        <ele>422.9</ele>
        <time>2014-07-30T09:41:31Z</time>
      </trkpt>
      <trkpt lat="43.2014500" lon="-7.7489370">
        <ele>423.0</ele>
        <time>2014-07-30T09:41:32Z</time>
      </trkpt>
      <trkpt lat="43.2014470" lon="-7.7489650">
        <ele>423.1</ele>
        <time>2014-07-30T09:41:33Z</time>
      </trkpt>
      <trkpt lat="43.2014450" lon="-7.7489940">
        <ele>423.2</ele>
        <time>2014-07-30T09:41:34Z</time>
      </trkpt>
      <trkpt lat="43.2014430" lon="-7.7490170">
        <ele>423.3</ele>
        <time>2014-07-30T09:41:35Z</time>
      </trkpt>
      <trkpt lat="43.2014330" lon="-7.7490470">
        <ele>423.4</ele>
        <time>2014-07-30T09:41:49Z</time>
      </trkpt>
      <trkpt lat="43.2014330" lon="-7.7490470">
        <ele>423.4</ele>
        <time>2014-07-30T09:42:08Z</time>
      </trkpt>
      <trkpt lat="43.2014070" lon="-7.7492700">
        <ele>424.0</ele>
        <time>2014-07-30T09:42:20Z</time>
      </trkpt>
      <trkpt lat="43.2013400" lon="-7.7494920">
        <ele>424.5</ele>
        <time>2014-07-30T09:42:32Z</time>
      </trkpt>
      <trkpt lat="43.2011860" lon="-7.7497670">
        <ele>425.5</ele>
        <time>2014-07-30T09:42:43Z</time>
      </trkpt>
      <trkpt lat="43.2008390" lon="-7.7499590">
        <ele>427.6</ele>
        <time>2014-07-30T09:42:56Z</time>
      </trkpt>
      <trkpt lat="43.2004880" lon="-7.7502420">
        <ele>429.1</ele>
        <time>2014-07-30T09:43:10Z</time>
      </trkpt>
      <trkpt lat="43.2003500" lon="-7.7504430">
        <ele>429.4</ele>
        <time>2014-07-30T09:43:20Z</time>
      </trkpt>
      <trkpt lat="43.2001720" lon="-7.7507680">
        <ele>429.8</ele>
        <time>2014-07-30T09:43:32Z</time>
      </trkpt>
      <trkpt lat="43.1999110" lon="-7.7508490">
        <ele>430.0</ele>
        <time>2014-07-30T09:43:43Z</time>
      </trkpt>
      <trkpt lat="43.1996610" lon="-7.7507870">
        <ele>430.1</ele>
        <time>2014-07-30T09:43:52Z</time>
      </trkpt>
      <trkpt lat="43.1996330" lon="-7.7507900">
        <ele>430.1</ele>
        <time>2014-07-30T09:43:53Z</time>
      </trkpt>
      <trkpt lat="43.1996060" lon="-7.7507990">
        <ele>430.1</ele>
        <time>2014-07-30T09:43:54Z</time>
      </trkpt>
      <trkpt lat="43.1995800" lon="-7.7508060">
        <ele>430.1</ele>
        <time>2014-07-30T09:43:55Z</time>
      </trkpt>
      <trkpt lat="43.1995550" lon="-7.7508100">
        <ele>430.2</ele>
        <time>2014-07-30T09:43:56Z</time>
      </trkpt>
      <trkpt lat="43.1995250" lon="-7.7508080">
        <ele>430.2</ele>
        <time>2014-07-30T09:43:57Z</time>
      </trkpt>
      <trkpt lat="43.1994940" lon="-7.7508010">
        <ele>430.2</ele>
        <time>2014-07-30T09:43:58Z</time>
      </trkpt>
      <trkpt lat="43.1994580" lon="-7.7507970">
        <ele>430.3</ele>
        <time>2014-07-30T09:43:59Z</time>
      </trkpt>
      <trkpt lat="43.1989110" lon="-7.7506350">
        <ele>430.5</ele>
        <time>2014-07-30T09:44:13Z</time>
      </trkpt>
      <trkpt lat="43.1986940" lon="-7.7505620">
        <ele>430.4</ele>
        <time>2014-07-30T09:44:19Z</time>
      </trkpt>
      <trkpt lat="43.1986510" lon="-7.7505390">
        <ele>430.4</ele>
        <time>2014-07-30T09:44:20Z</time>
      </trkpt>
      <trkpt lat="43.1986070" lon="-7.7505200">
        <ele>430.3</ele>
        <time>2014-07-30T09:44:21Z</time>
      </trkpt>
      <trkpt lat="43.1983180" lon="-7.7504010">
        <ele>430.2</ele>
        <time>2014-07-30T09:44:27Z</time>
      </trkpt>
      <trkpt lat="43.1981180" lon="-7.7503000">
        <ele>430.1</ele>
        <time>2014-07-30T09:44:31Z</time>
      </trkpt>
      <trkpt lat="43.1976470" lon="-7.7500970">
        <ele>429.9</ele>
        <time>2014-07-30T09:44:40Z</time>
      </trkpt>
      <trkpt lat="43.1975360" lon="-7.7500280">
        <ele>429.8</ele>
        <time>2014-07-30T09:44:42Z</time>
      </trkpt>
      <trkpt lat="43.1974800" lon="-7.7499920">
        <ele>429.8</ele>
        <time>2014-07-30T09:44:43Z</time>
      </trkpt>
      <trkpt lat="43.1974310" lon="-7.7499480">
        <ele>429.8</ele>
        <time>2014-07-30T09:44:44Z</time>
      </trkpt>
      <trkpt lat="43.1973840" lon="-7.7499080">
        <ele>429.8</ele>
        <time>2014-07-30T09:44:45Z</time>
      </trkpt>
      <trkpt lat="43.1973370" lon="-7.7498730">
        <ele>429.8</ele>
        <time>2014-07-30T09:44:46Z</time>
      </trkpt>
      <trkpt lat="43.1967830" lon="-7.7494690">
        <ele>429.9</ele>
        <time>2014-07-30T09:44:56Z</time>
      </trkpt>
      <trkpt lat="43.1965610" lon="-7.7493450">
        <ele>429.9</ele>
        <time>2014-07-30T09:45:00Z</time>
      </trkpt>
      <trkpt lat="43.1963480" lon="-7.7492770">
        <ele>430.0</ele>
        <time>2014-07-30T09:45:04Z</time>
      </trkpt>
      <trkpt lat="43.1962010" lon="-7.7492490">
        <ele>430.1</ele>
        <time>2014-07-30T09:45:07Z</time>
      </trkpt>
      <trkpt lat="43.1961550" lon="-7.7492500">
        <ele>430.1</ele>
        <time>2014-07-30T09:45:08Z</time>
      </trkpt>
      <trkpt lat="43.1961070" lon="-7.7492520">
        <ele>430.1</ele>
        <time>2014-07-30T09:45:09Z</time>
      </trkpt>
      <trkpt lat="43.1960600" lon="-7.7492490">
        <ele>430.1</ele>
        <time>2014-07-30T09:45:10Z</time>
      </trkpt>
      <trkpt lat="43.1960150" lon="-7.7492390">
        <ele>430.1</ele>
        <time>2014-07-30T09:45:11Z</time>
      </trkpt>
      <trkpt lat="43.1959700" lon="-7.7492280">
        <ele>430.1</ele>
        <time>2014-07-30T09:45:12Z</time>
      </trkpt>
      <trkpt lat="43.1959250" lon="-7.7492110">
        <ele>430.1</ele>
        <time>2014-07-30T09:45:13Z</time>
      </trkpt>
      <trkpt lat="43.1958810" lon="-7.7491910">
        <ele>430.1</ele>
        <time>2014-07-30T09:45:14Z</time>
      </trkpt>
      <trkpt lat="43.1958370" lon="-7.7491660">
        <ele>430.1</ele>
        <time>2014-07-30T09:45:15Z</time>
      </trkpt>
      <trkpt lat="43.1957970" lon="-7.7491320">
        <ele>430.1</ele>
        <time>2014-07-30T09:45:16Z</time>
      </trkpt>
      <trkpt lat="43.1957610" lon="-7.7490850">
        <ele>430.5</ele>
        <time>2014-07-30T09:45:17Z</time>
      </trkpt>
      <trkpt lat="43.1956320" lon="-7.7488730">
        <ele>431.8</ele>
        <time>2014-07-30T09:45:21Z</time>
      </trkpt>
      <trkpt lat="43.1955830" lon="-7.7487510">
        <ele>432.4</ele>
        <time>2014-07-30T09:45:23Z</time>
      </trkpt>
      <trkpt lat="43.1955690" lon="-7.7486880">
        <ele>432.6</ele>
        <time>2014-07-30T09:45:24Z</time>
      </trkpt>
      <trkpt lat="43.1955640" lon="-7.7486280">
        <ele>432.8</ele>
        <time>2014-07-30T09:45:25Z</time>
      </trkpt>
      <trkpt lat="43.1955370" lon="-7.7483280">
        <ele>433.6</ele>
        <time>2014-07-30T09:45:34Z</time>
      </trkpt>
      <trkpt lat="43.1955210" lon="-7.7483150">
        <ele>433.6</ele>
        <time>2014-07-30T09:45:35Z</time>
      </trkpt>
      <trkpt lat="43.1955020" lon="-7.7483050">
        <ele>433.7</ele>
        <time>2014-07-30T09:45:36Z</time>
      </trkpt>
      <trkpt lat="43.1951580" lon="-7.7483330">
        <ele>434.6</ele>
        <time>2014-07-30T09:45:48Z</time>
      </trkpt>
      <trkpt lat="43.1946690" lon="-7.7486210">
        <ele>435.6</ele>
        <time>2014-07-30T09:46:03Z</time>
      </trkpt>
      <trkpt lat="43.1941850" lon="-7.7488450">
        <ele>436.8</ele>
        <time>2014-07-30T09:46:16Z</time>
      </trkpt>
      <trkpt lat="43.1935270" lon="-7.7491090">
        <ele>438.9</ele>
        <time>2014-07-30T09:46:32Z</time>
      </trkpt>
      <trkpt lat="43.1929040" lon="-7.7493540">
        <ele>441.3</ele>
        <time>2014-07-30T09:46:48Z</time>
      </trkpt>
      <trkpt lat="43.1921960" lon="-7.7496430">
        <ele>443.8</ele>
        <time>2014-07-30T09:47:07Z</time>
      </trkpt>
      <trkpt lat="43.1915380" lon="-7.7498970">
        <ele>445.7</ele>
        <time>2014-07-30T09:47:26Z</time>
      </trkpt>
      <trkpt lat="43.1910470" lon="-7.7501160">
        <ele>446.6</ele>
        <time>2014-07-30T09:47:40Z</time>
      </trkpt>
      <trkpt lat="43.1902530" lon="-7.7504150">
        <ele>445.9</ele>
        <time>2014-07-30T09:47:56Z</time>
      </trkpt>
      <trkpt lat="43.1893860" lon="-7.7507530">
        <ele>442.7</ele>
        <time>2014-07-30T09:48:08Z</time>
      </trkpt>
      <trkpt lat="43.1892230" lon="-7.7508120">
        <ele>442.1</ele>
        <time>2014-07-30T09:48:10Z</time>
      </trkpt>
      <trkpt lat="43.1879640" lon="-7.7513240">
        <ele>438.5</ele>
        <time>2014-07-30T09:48:25Z</time>
      </trkpt>
      <trkpt lat="43.1869120" lon="-7.7517460">
        <ele>432.7</ele>
        <time>2014-07-30T09:48:39Z</time>
      </trkpt>
      <trkpt lat="43.1865070" lon="-7.7518550">
        <ele>431.8</ele>
        <time>2014-07-30T09:48:46Z</time>
      </trkpt>
      <trkpt lat="43.1864640" lon="-7.7518510">
        <ele>431.7</ele>
        <time>2014-07-30T09:48:47Z</time>
      </trkpt>
      <trkpt lat="43.1864250" lon="-7.7518360">
        <ele>431.6</ele>
        <time>2014-07-30T09:48:48Z</time>
      </trkpt>
      <trkpt lat="43.1863870" lon="-7.7518090">
        <ele>431.5</ele>
        <time>2014-07-30T09:48:49Z</time>
      </trkpt>
      <trkpt lat="43.1863450" lon="-7.7517730">
        <ele>431.5</ele>
        <time>2014-07-30T09:48:50Z</time>
      </trkpt>
      <trkpt lat="43.1862010" lon="-7.7516240">
        <ele>431.2</ele>
        <time>2014-07-30T09:48:53Z</time>
      </trkpt>
      <trkpt lat="43.1861550" lon="-7.7515660">
        <ele>431.0</ele>
        <time>2014-07-30T09:48:54Z</time>
      </trkpt>
      <trkpt lat="43.1861110" lon="-7.7515040">
        <ele>430.9</ele>
        <time>2014-07-30T09:48:55Z</time>
      </trkpt>
      <trkpt lat="43.1860730" lon="-7.7514430">
        <ele>430.8</ele>
        <time>2014-07-30T09:48:56Z</time>
      </trkpt>
      <trkpt lat="43.1860430" lon="-7.7513880">
        <ele>430.7</ele>
        <time>2014-07-30T09:48:57Z</time>
      </trkpt>
      <trkpt lat="43.1860180" lon="-7.7513540">
        <ele>430.6</ele>
        <time>2014-07-30T09:48:58Z</time>
      </trkpt>
      <trkpt lat="43.1859940" lon="-7.7513460">
        <ele>430.5</ele>
        <time>2014-07-30T09:48:59Z</time>
      </trkpt>
      <trkpt lat="43.1859410" lon="-7.7513840">
        <ele>430.3</ele>
        <time>2014-07-30T09:49:01Z</time>
      </trkpt>
      <trkpt lat="43.1854840" lon="-7.7518100">
        <ele>429.2</ele>
        <time>2014-07-30T09:49:15Z</time>
      </trkpt>
      <trkpt lat="43.1851460" lon="-7.7520320">
        <ele>428.8</ele>
        <time>2014-07-30T09:49:26Z</time>
      </trkpt>
      <trkpt lat="43.1848080" lon="-7.7521290">
        <ele>428.7</ele>
        <time>2014-07-30T09:49:37Z</time>
      </trkpt>
      <trkpt lat="43.1844690" lon="-7.7522060">
        <ele>428.5</ele>
        <time>2014-07-30T09:49:48Z</time>
      </trkpt>
      <trkpt lat="43.1841550" lon="-7.7522600">
        <ele>428.4</ele>
        <time>2014-07-30T09:49:58Z</time>
      </trkpt>
      <trkpt lat="43.1837250" lon="-7.7523840">
        <ele>428.3</ele>
        <time>2014-07-30T09:50:10Z</time>
      </trkpt>
      <trkpt lat="43.1832820" lon="-7.7524780">
        <ele>427.8</ele>
        <time>2014-07-30T09:50:25Z</time>
      </trkpt>
      <trkpt lat="43.1827930" lon="-7.7524700">
        <ele>426.7</ele>
        <time>2014-07-30T09:50:38Z</time>
      </trkpt>
      <trkpt lat="43.1825160" lon="-7.7523510">
        <ele>425.5</ele>
        <time>2014-07-30T09:50:46Z</time>
      </trkpt>
      <trkpt lat="43.1824710" lon="-7.7523510">
        <ele>425.4</ele>
        <time>2014-07-30T09:50:47Z</time>
      </trkpt>
      <trkpt lat="43.1821490" lon="-7.7524230">
        <ele>424.7</ele>
        <time>2014-07-30T09:50:53Z</time>
      </trkpt>
      <trkpt lat="43.1821070" lon="-7.7524470">
        <ele>424.5</ele>
        <time>2014-07-30T09:50:54Z</time>
      </trkpt>
      <trkpt lat="43.1820680" lon="-7.7524760">
        <ele>424.2</ele>
        <time>2014-07-30T09:50:55Z</time>
      </trkpt>
      <trkpt lat="43.1820340" lon="-7.7525140">
        <ele>424.0</ele>
        <time>2014-07-30T09:50:56Z</time>
      </trkpt>
      <trkpt lat="43.1820040" lon="-7.7525610">
        <ele>423.8</ele>
        <time>2014-07-30T09:50:57Z</time>
      </trkpt>
      <trkpt lat="43.1819760" lon="-7.7526130">
        <ele>423.6</ele>
        <time>2014-07-30T09:50:58Z</time>
      </trkpt>
      <trkpt lat="43.1818520" lon="-7.7527720">
        <ele>422.6</ele>
        <time>2014-07-30T09:51:02Z</time>
      </trkpt>
      <trkpt lat="43.1818090" lon="-7.7527820">
        <ele>422.5</ele>
        <time>2014-07-30T09:51:03Z</time>
      </trkpt>
      <trkpt lat="43.1817640" lon="-7.7527770">
        <ele>422.4</ele>
        <time>2014-07-30T09:51:04Z</time>
      </trkpt>
      <trkpt lat="43.1817190" lon="-7.7527660">
        <ele>422.3</ele>
        <time>2014-07-30T09:51:05Z</time>
      </trkpt>
      <trkpt lat="43.1816720" lon="-7.7527490">
        <ele>422.2</ele>
        <time>2014-07-30T09:51:06Z</time>
      </trkpt>
      <trkpt lat="43.1814180" lon="-7.7526670">
        <ele>421.7</ele>
        <time>2014-07-30T09:51:11Z</time>
      </trkpt>
      <trkpt lat="43.1813650" lon="-7.7526370">
        <ele>421.6</ele>
        <time>2014-07-30T09:51:12Z</time>
      </trkpt>
      <trkpt lat="43.1812210" lon="-7.7525320">
        <ele>421.0</ele>
        <time>2014-07-30T09:51:15Z</time>
      </trkpt>
      <trkpt lat="43.1809090" lon="-7.7521330">
        <ele>419.3</ele>
        <time>2014-07-30T09:51:23Z</time>
      </trkpt>
      <trkpt lat="43.1808190" lon="-7.7518950">
        <ele>419.1</ele>
        <time>2014-07-30T09:51:26Z</time>
      </trkpt>
      <trkpt lat="43.1807980" lon="-7.7518110">
        <ele>419.0</ele>
        <time>2014-07-30T09:51:27Z</time>
      </trkpt>
      <trkpt lat="43.1806980" lon="-7.7507000">
        <ele>418.4</ele>
        <time>2014-07-30T09:51:41Z</time>
      </trkpt>
      <trkpt lat="43.1805590" lon="-7.7495420">
        <ele>418.6</ele>
        <time>2014-07-30T09:51:57Z</time>
      </trkpt>
      <trkpt lat="43.1803340" lon="-7.7490590">
        <ele>419.2</ele>
        <time>2014-07-30T09:52:08Z</time>
      </trkpt>
      <trkpt lat="43.1796690" lon="-7.7492600">
        <ele>417.8</ele>
        <time>2014-07-30T09:52:23Z</time>
      </trkpt>
      <trkpt lat="43.1796330" lon="-7.7493310">
        <ele>417.4</ele>
        <time>2014-07-30T09:52:24Z</time>
      </trkpt>
      <trkpt lat="43.1796190" lon="-7.7494120">
        <ele>417.1</ele>
        <time>2014-07-30T09:52:25Z</time>
      </trkpt>
      <trkpt lat="43.1796200" lon="-7.7494910">
        <ele>416.8</ele>
        <time>2014-07-30T09:52:26Z</time>
      </trkpt>
      <trkpt lat="43.1796300" lon="-7.7495710">
        <ele>416.6</ele>
        <time>2014-07-30T09:52:27Z</time>
      </trkpt>
      <trkpt lat="43.1796410" lon="-7.7496540">
        <ele>416.4</ele>
        <time>2014-07-30T09:52:28Z</time>
      </trkpt>
      <trkpt lat="43.1797860" lon="-7.7506760">
        <ele>415.9</ele>
        <time>2014-07-30T09:52:41Z</time>
      </trkpt>
      <trkpt lat="43.1798550" lon="-7.7513640">
        <ele>415.9</ele>
        <time>2014-07-30T09:52:50Z</time>
      </trkpt>
      <trkpt lat="43.1798540" lon="-7.7514350">
        <ele>415.9</ele>
        <time>2014-07-30T09:52:51Z</time>
      </trkpt>
      <trkpt lat="43.1797980" lon="-7.7517830">
        <ele>415.9</ele>
        <time>2014-07-30T09:52:56Z</time>
      </trkpt>
      <trkpt lat="43.1797690" lon="-7.7518540">
        <ele>415.8</ele>
        <time>2014-07-30T09:52:57Z</time>
      </trkpt>
      <trkpt lat="43.1797310" lon="-7.7519250">
        <ele>415.6</ele>
        <time>2014-07-30T09:52:58Z</time>
      </trkpt>
      <trkpt lat="43.1796820" lon="-7.7519950">
        <ele>415.4</ele>
        <time>2014-07-30T09:52:59Z</time>
      </trkpt>
      <trkpt lat="43.1796260" lon="-7.7520580">
        <ele>415.2</ele>
        <time>2014-07-30T09:53:00Z</time>
      </trkpt>
      <trkpt lat="43.1795670" lon="-7.7521150">
        <ele>414.8</ele>
        <time>2014-07-30T09:53:01Z</time>
      </trkpt>
      <trkpt lat="43.1795010" lon="-7.7521670">
        <ele>414.5</ele>
        <time>2014-07-30T09:53:02Z</time>
      </trkpt>
      <trkpt lat="43.1789140" lon="-7.7526680">
        <ele>413.2</ele>
        <time>2014-07-30T09:53:12Z</time>
      </trkpt>
      <trkpt lat="43.1788650" lon="-7.7527340">
        <ele>413.1</ele>
        <time>2014-07-30T09:53:13Z</time>
      </trkpt>
      <trkpt lat="43.1788220" lon="-7.7528100">
        <ele>413.1</ele>
        <time>2014-07-30T09:53:14Z</time>
      </trkpt>
      <trkpt lat="43.1787840" lon="-7.7528920">
        <ele>413.0</ele>
        <time>2014-07-30T09:53:15Z</time>
      </trkpt>
      <trkpt lat="43.1787500" lon="-7.7529730">
        <ele>412.8</ele>
        <time>2014-07-30T09:53:16Z</time>
      </trkpt>
      <trkpt lat="43.1783400" lon="-7.7539670">
        <ele>413.4</ele>
        <time>2014-07-30T09:53:31Z</time>
      </trkpt>
      <trkpt lat="43.1781190" lon="-7.7542130">
        <ele>414.0</ele>
        <time>2014-07-30T09:53:41Z</time>
      </trkpt>
      <trkpt lat="43.1780930" lon="-7.7541940">
        <ele>413.7</ele>
        <time>2014-07-30T09:53:42Z</time>
      </trkpt>
      <trkpt lat="43.1780640" lon="-7.7541680">
        <ele>413.5</ele>
        <time>2014-07-30T09:53:43Z</time>
      </trkpt>
      <trkpt lat="43.1775480" lon="-7.7539560">
        <ele>411.7</ele>
        <time>2014-07-30T09:53:57Z</time>
      </trkpt>
      <trkpt lat="43.1770340" lon="-7.7540290">
        <ele>411.3</ele>
        <time>2014-07-30T09:54:11Z</time>
      </trkpt>
      <trkpt lat="43.1765210" lon="-7.7540310">
        <ele>410.6</ele>
        <time>2014-07-30T09:54:25Z</time>
      </trkpt>
      <trkpt lat="43.1761450" lon="-7.7539950">
        <ele>409.2</ele>
        <time>2014-07-30T09:54:34Z</time>
      </trkpt>
      <trkpt lat="43.1752250" lon="-7.7538770">
        <ele>407.8</ele>
        <time>2014-07-30T09:54:51Z</time>
      </trkpt>
      <trkpt lat="43.1749980" lon="-7.7538610">
        <ele>407.0</ele>
        <time>2014-07-30T09:54:55Z</time>
      </trkpt>
      <trkpt lat="43.1749420" lon="-7.7538710">
        <ele>406.6</ele>
        <time>2014-07-30T09:54:56Z</time>
      </trkpt>
      <trkpt lat="43.1748840" lon="-7.7538870">
        <ele>406.1</ele>
        <time>2014-07-30T09:54:57Z</time>
      </trkpt>
      <trkpt lat="43.1748270" lon="-7.7539090">
        <ele>405.8</ele>
        <time>2014-07-30T09:54:58Z</time>
      </trkpt>
      <trkpt lat="43.1747690" lon="-7.7539320">
        <ele>405.4</ele>
        <time>2014-07-30T09:54:59Z</time>
      </trkpt>
      <trkpt lat="43.1742550" lon="-7.7541670">
        <ele>403.7</ele>
        <time>2014-07-30T09:55:09Z</time>
      </trkpt>
      <trkpt lat="43.1741250" lon="-7.7542510">
        <ele>403.3</ele>
        <time>2014-07-30T09:55:13Z</time>
      </trkpt>
      <trkpt lat="43.1741080" lon="-7.7542910">
        <ele>403.2</ele>
        <time>2014-07-30T09:55:14Z</time>
      </trkpt>
      <trkpt lat="43.1741020" lon="-7.7543370">
        <ele>403.3</ele>
        <time>2014-07-30T09:55:15Z</time>
      </trkpt>
      <trkpt lat="43.1741040" lon="-7.7543830">
        <ele>403.4</ele>
        <time>2014-07-30T09:55:16Z</time>
      </trkpt>
      <trkpt lat="43.1741100" lon="-7.7544290">
        <ele>403.4</ele>
        <time>2014-07-30T09:55:17Z</time>
      </trkpt>
      <trkpt lat="43.1741160" lon="-7.7544750">
        <ele>403.5</ele>
        <time>2014-07-30T09:55:18Z</time>
      </trkpt>
      <trkpt lat="43.1742140" lon="-7.7553400">
        <ele>404.6</ele>
        <time>2014-07-30T09:55:35Z</time>
      </trkpt>
      <trkpt lat="43.1742650" lon="-7.7560580">
        <ele>405.5</ele>
        <time>2014-07-30T09:55:51Z</time>
      </trkpt>
      <trkpt lat="43.1742280" lon="-7.7567100">
        <ele>406.9</ele>
        <time>2014-07-30T09:56:06Z</time>
      </trkpt>
      <trkpt lat="43.1742720" lon="-7.7571590">
        <ele>409.2</ele>
        <time>2014-07-30T09:56:18Z</time>
      </trkpt>
      <trkpt lat="43.1742460" lon="-7.7571900">
        <ele>409.4</ele>
        <time>2014-07-30T09:56:19Z</time>
      </trkpt>
      <trkpt lat="43.1742150" lon="-7.7572150">
        <ele>409.5</ele>
        <time>2014-07-30T09:56:20Z</time>
      </trkpt>
      <trkpt lat="43.1741800" lon="-7.7572370">
        <ele>409.3</ele>
        <time>2014-07-30T09:56:21Z</time>
      </trkpt>
      <trkpt lat="43.1741440" lon="-7.7572570">
        <ele>409.1</ele>
        <time>2014-07-30T09:56:22Z</time>
      </trkpt>
      <trkpt lat="43.1740850" lon="-7.7573180">
        <ele>409.2</ele>
        <time>2014-07-30T09:56:24Z</time>
      </trkpt>
      <trkpt lat="43.1740690" lon="-7.7573630">
        <ele>409.4</ele>
        <time>2014-07-30T09:56:25Z</time>
      </trkpt>
      <trkpt lat="43.1740600" lon="-7.7574110">
        <ele>409.6</ele>
        <time>2014-07-30T09:56:26Z</time>
      </trkpt>
      <trkpt lat="43.1739670" lon="-7.7580270">
        <ele>411.0</ele>
        <time>2014-07-30T09:56:41Z</time>
      </trkpt>
      <trkpt lat="43.1738420" lon="-7.7586560">
        <ele>411.5</ele>
        <time>2014-07-30T09:56:55Z</time>
      </trkpt>
      <trkpt lat="43.1737700" lon="-7.7591740">
        <ele>410.8</ele>
        <time>2014-07-30T09:57:08Z</time>
      </trkpt>
      <trkpt lat="43.1737700" lon="-7.7591740">
        <ele>410.8</ele>
        <time>2014-07-30T09:57:16Z</time>
      </trkpt>
      <trkpt lat="43.1737580" lon="-7.7591850">
        <ele>410.8</ele>
        <time>2014-07-30T09:57:17Z</time>
      </trkpt>
      <trkpt lat="43.1737440" lon="-7.7591990">
        <ele>410.8</ele>
        <time>2014-07-30T09:57:18Z</time>
      </trkpt>
      <trkpt lat="43.1737260" lon="-7.7592090">
        <ele>410.7</ele>
        <time>2014-07-30T09:57:19Z</time>
      </trkpt>
      <trkpt lat="43.1737070" lon="-7.7592170">
        <ele>410.7</ele>
        <time>2014-07-30T09:57:20Z</time>
      </trkpt>
      <trkpt lat="43.1736920" lon="-7.7592330">
        <ele>410.6</ele>
        <time>2014-07-30T09:57:21Z</time>
      </trkpt>
      <trkpt lat="43.1736840" lon="-7.7592550">
        <ele>410.6</ele>
        <time>2014-07-30T09:57:22Z</time>
      </trkpt>
      <trkpt lat="43.1736830" lon="-7.7592770">
        <ele>410.5</ele>
        <time>2014-07-30T09:57:23Z</time>
      </trkpt>
      <trkpt lat="43.1736910" lon="-7.7592930">
        <ele>410.5</ele>
        <time>2014-07-30T09:57:24Z</time>
      </trkpt>
      <trkpt lat="43.1737040" lon="-7.7592990">
        <ele>410.4</ele>
        <time>2014-07-30T09:57:25Z</time>
      </trkpt>
      <trkpt lat="43.1737190" lon="-7.7592960">
        <ele>410.4</ele>
        <time>2014-07-30T09:57:26Z</time>
      </trkpt>
      <trkpt lat="43.1737320" lon="-7.7592840">
        <ele>410.3</ele>
        <time>2014-07-30T09:57:27Z</time>
      </trkpt>
      <trkpt lat="43.1737410" lon="-7.7592630">
        <ele>410.3</ele>
        <time>2014-07-30T09:57:28Z</time>
      </trkpt>
      <trkpt lat="43.1737480" lon="-7.7592390">
        <ele>410.2</ele>
        <time>2014-07-30T09:57:29Z</time>
      </trkpt>
      <trkpt lat="43.1737570" lon="-7.7592130">
        <ele>410.2</ele>
        <time>2014-07-30T09:57:30Z</time>
      </trkpt>
      <trkpt lat="43.1737650" lon="-7.7591900">
        <ele>410.1</ele>
        <time>2014-07-30T09:57:31Z</time>
      </trkpt>
      <trkpt lat="43.1737720" lon="-7.7591690">
        <ele>410.1</ele>
        <time>2014-07-30T09:57:32Z</time>
      </trkpt>
      <trkpt lat="43.1737770" lon="-7.7591520">
        <ele>410.1</ele>
        <time>2014-07-30T09:57:33Z</time>
      </trkpt>
      <trkpt lat="43.1737810" lon="-7.7591360">
        <ele>410.0</ele>
        <time>2014-07-30T09:57:34Z</time>
      </trkpt>
      <trkpt lat="43.1737870" lon="-7.7591280">
        <ele>410.0</ele>
        <time>2014-07-30T09:57:45Z</time>
      </trkpt>
      <trkpt lat="43.1737950" lon="-7.7591220">
        <ele>410.0</ele>
        <time>2014-07-30T09:57:57Z</time>
      </trkpt>
      <trkpt lat="43.1737970" lon="-7.7591250">
        <ele>410.0</ele>
        <time>2014-07-30T09:58:14Z</time>
      </trkpt>
      <trkpt lat="43.1737970" lon="-7.7591240">
        <ele>410.0</ele>
        <time>2014-07-30T09:58:46Z</time>
      </trkpt>
      <trkpt lat="43.1737970" lon="-7.7591240">
        <ele>410.0</ele>
        <time>2014-07-30T09:59:15Z</time>
      </trkpt>
      <trkpt lat="43.1737970" lon="-7.7591250">
        <ele>410.0</ele>
        <time>2014-07-30T09:59:50Z</time>
      </trkpt>
      <trkpt lat="43.1737960" lon="-7.7591280">
        <ele>410.0</ele>
        <time>2014-07-30T10:00:30Z</time>
      </trkpt>
      <trkpt lat="43.1737960" lon="-7.7591280">
        <ele>410.0</ele>
        <time>2014-07-30T10:01:08Z</time>
      </trkpt>
      <trkpt lat="43.1737960" lon="-7.7591290">
        <ele>410.0</ele>
        <time>2014-07-30T10:01:44Z</time>
      </trkpt>
      <trkpt lat="43.1737960" lon="-7.7591270">
        <ele>410.0</ele>
        <time>2014-07-30T10:02:20Z</time>
      </trkpt>
      <trkpt lat="43.1737960" lon="-7.7591270">
        <ele>410.0</ele>
        <time>2014-07-30T10:02:54Z</time>
      </trkpt>
      <trkpt lat="43.1737970" lon="-7.7591310">
        <ele>410.0</ele>
        <time>2014-07-30T10:03:25Z</time>
      </trkpt>
      <trkpt lat="43.1737970" lon="-7.7591310">
        <ele>410.0</ele>
        <time>2014-07-30T10:04:00Z</time>
      </trkpt>
      <trkpt lat="43.1737990" lon="-7.7591330">
        <ele>410.0</ele>
        <time>2014-07-30T10:04:35Z</time>
      </trkpt>
      <trkpt lat="43.1738000" lon="-7.7591350">
        <ele>410.0</ele>
        <time>2014-07-30T10:05:07Z</time>
      </trkpt>
      <trkpt lat="43.1737980" lon="-7.7591350">
        <ele>410.0</ele>
        <time>2014-07-30T10:05:38Z</time>
      </trkpt>
      <trkpt lat="43.1737980" lon="-7.7591340">
        <ele>410.0</ele>
        <time>2014-07-30T10:06:13Z</time>
      </trkpt>
      <trkpt lat="43.1737980" lon="-7.7591350">
        <ele>409.9</ele>
        <time>2014-07-30T10:06:47Z</time>
      </trkpt>
      <trkpt lat="43.1737980" lon="-7.7591340">
        <ele>409.9</ele>
        <time>2014-07-30T10:07:25Z</time>
      </trkpt>
      <trkpt lat="43.1737980" lon="-7.7591330">
        <ele>409.9</ele>
        <time>2014-07-30T10:08:02Z</time>
      </trkpt>
      <trkpt lat="43.1737980" lon="-7.7591330">
        <ele>409.9</ele>
        <time>2014-07-30T10:08:35Z</time>
      </trkpt>
      <trkpt lat="43.1737990" lon="-7.7591320">
        <ele>409.9</ele>
        <time>2014-07-30T10:09:14Z</time>
      </trkpt>
      <trkpt lat="43.1737980" lon="-7.7591320">
        <ele>409.9</ele>
        <time>2014-07-30T10:09:48Z</time>
      </trkpt>
      <trkpt lat="43.1737990" lon="-7.7591340">
        <ele>409.9</ele>
        <time>2014-07-30T10:10:23Z</time>
      </trkpt>
      <trkpt lat="43.1738000" lon="-7.7591360">
        <ele>409.9</ele>
        <time>2014-07-30T10:11:00Z</time>
      </trkpt>
      <trkpt lat="43.1738030" lon="-7.7591340">
        <ele>409.9</ele>
        <time>2014-07-30T10:11:37Z</time>
      </trkpt>
      <trkpt lat="43.1738000" lon="-7.7591190">
        <ele>409.9</ele>
        <time>2014-07-30T10:12:11Z</time>
      </trkpt>
      <trkpt lat="43.1737920" lon="-7.7591200">
        <ele>409.9</ele>
        <time>2014-07-30T10:12:52Z</time>
      </trkpt>
      <trkpt lat="43.1737930" lon="-7.7591250">
        <ele>409.9</ele>
        <time>2014-07-30T10:13:25Z</time>
      </trkpt>
      <trkpt lat="43.1737930" lon="-7.7591250">
        <ele>409.9</ele>
        <time>2014-07-30T10:13:58Z</time>
      </trkpt>
      <trkpt lat="43.1737930" lon="-7.7591270">
        <ele>409.9</ele>
        <time>2014-07-30T10:14:37Z</time>
      </trkpt>
      <trkpt lat="43.1737930" lon="-7.7591300">
        <ele>409.9</ele>
        <time>2014-07-30T10:15:12Z</time>
      </trkpt>
      <trkpt lat="43.1737920" lon="-7.7591300">
        <ele>409.9</ele>
        <time>2014-07-30T10:15:49Z</time>
      </trkpt>
      <trkpt lat="43.1737950" lon="-7.7591290">
        <ele>409.9</ele>
        <time>2014-07-30T10:16:26Z</time>
      </trkpt>
      <trkpt lat="43.1737990" lon="-7.7591270">
        <ele>409.8</ele>
        <time>2014-07-30T10:17:00Z</time>
      </trkpt>
      <trkpt lat="43.1737950" lon="-7.7591360">
        <ele>409.8</ele>
        <time>2014-07-30T10:17:35Z</time>
      </trkpt>
      <trkpt lat="43.1737800" lon="-7.7591400">
        <ele>409.8</ele>
        <time>2014-07-30T10:18:12Z</time>
      </trkpt>
      <trkpt lat="43.1737780" lon="-7.7591460">
        <ele>409.8</ele>
        <time>2014-07-30T10:18:53Z</time>
      </trkpt>
      <trkpt lat="43.1737790" lon="-7.7591550">
        <ele>409.8</ele>
        <time>2014-07-30T10:19:31Z</time>
      </trkpt>
      <trkpt lat="43.1737760" lon="-7.7591530">
        <ele>409.8</ele>
        <time>2014-07-30T10:20:07Z</time>
      </trkpt>
      <trkpt lat="43.1737760" lon="-7.7591530">
        <ele>409.8</ele>
        <time>2014-07-30T10:20:33Z</time>
      </trkpt>
      <trkpt lat="43.1737730" lon="-7.7591510">
        <ele>409.8</ele>
        <time>2014-07-30T10:21:05Z</time>
      </trkpt>
      <trkpt lat="43.1737790" lon="-7.7591610">
        <ele>409.7</ele>
        <time>2014-07-30T10:21:36Z</time>
      </trkpt>
      <trkpt lat="43.1737750" lon="-7.7591600">
        <ele>409.7</ele>
        <time>2014-07-30T10:22:07Z</time>
      </trkpt>
      <trkpt lat="43.1737750" lon="-7.7591600">
        <ele>409.7</ele>
        <time>2014-07-30T10:22:40Z</time>
      </trkpt>
      <trkpt lat="43.1737660" lon="-7.7591560">
        <ele>409.7</ele>
        <time>2014-07-30T10:23:12Z</time>
      </trkpt>
      <trkpt lat="43.1737660" lon="-7.7591540">
        <ele>409.7</ele>
        <time>2014-07-30T10:23:44Z</time>
      </trkpt>
      <trkpt lat="43.1737680" lon="-7.7591540">
        <ele>409.7</ele>
        <time>2014-07-30T10:24:17Z</time>
      </trkpt>
      <trkpt lat="43.1737700" lon="-7.7591560">
        <ele>409.7</ele>
        <time>2014-07-30T10:24:45Z</time>
      </trkpt>
      <trkpt lat="43.1737700" lon="-7.7591560">
        <ele>409.7</ele>
        <time>2014-07-30T10:25:17Z</time>
      </trkpt>
      <trkpt lat="43.1737700" lon="-7.7591530">
        <ele>409.7</ele>
        <time>2014-07-30T10:25:52Z</time>
      </trkpt>
      <trkpt lat="43.1737720" lon="-7.7591510">
        <ele>409.7</ele>
        <time>2014-07-30T10:26:21Z</time>
      </trkpt>
      <trkpt lat="43.1737670" lon="-7.7591470">
        <ele>409.7</ele>
        <time>2014-07-30T10:26:49Z</time>
      </trkpt>
      <trkpt lat="43.1737670" lon="-7.7591470">
        <ele>409.7</ele>
        <time>2014-07-30T10:27:20Z</time>
      </trkpt>
      <trkpt lat="43.1737700" lon="-7.7591440">
        <ele>409.7</ele>
        <time>2014-07-30T10:27:53Z</time>
      </trkpt>
      <trkpt lat="43.1737750" lon="-7.7591470">
        <ele>409.7</ele>
        <time>2014-07-30T10:28:11Z</time>
      </trkpt>
      <trkpt lat="43.1737740" lon="-7.7591430">
        <ele>409.7</ele>
        <time>2014-07-30T10:28:40Z</time>
      </trkpt>
      <trkpt lat="43.1737670" lon="-7.7591550">
        <ele>409.6</ele>
        <time>2014-07-30T10:29:01Z</time>
      </trkpt>
      <trkpt lat="43.1737670" lon="-7.7591590">
        <ele>409.6</ele>
        <time>2014-07-30T10:29:13Z</time>
      </trkpt>
      <trkpt lat="43.1737670" lon="-7.7591590">
        <ele>409.6</ele>
        <time>2014-07-30T10:29:25Z</time>
      </trkpt>
      <trkpt lat="43.1737650" lon="-7.7591750">
        <ele>409.6</ele>
        <time>2014-07-30T10:29:26Z</time>
      </trkpt>
      <trkpt lat="43.1737610" lon="-7.7591960">
        <ele>409.6</ele>
        <time>2014-07-30T10:29:27Z</time>
      </trkpt>
      <trkpt lat="43.1737560" lon="-7.7592170">
        <ele>409.5</ele>
        <time>2014-07-30T10:29:28Z</time>
      </trkpt>
      <trkpt lat="43.1737520" lon="-7.7592420">
        <ele>409.5</ele>
        <time>2014-07-30T10:29:29Z</time>
      </trkpt>
      <trkpt lat="43.1737480" lon="-7.7592720">
        <ele>409.4</ele>
        <time>2014-07-30T10:29:30Z</time>
      </trkpt>
      <trkpt lat="43.1737400" lon="-7.7593040">
        <ele>409.4</ele>
        <time>2014-07-30T10:29:31Z</time>
      </trkpt>
      <trkpt lat="43.1737310" lon="-7.7593370">
        <ele>409.3</ele>
        <time>2014-07-30T10:29:32Z</time>
      </trkpt>
      <trkpt lat="43.1737230" lon="-7.7593730">
        <ele>409.3</ele>
        <time>2014-07-30T10:29:33Z</time>
      </trkpt>
      <trkpt lat="43.1737150" lon="-7.7594110">
        <ele>409.2</ele>
        <time>2014-07-30T10:29:34Z</time>
      </trkpt>
      <trkpt lat="43.1737720" lon="-7.7597900">
        <ele>408.3</ele>
        <time>2014-07-30T10:29:44Z</time>
      </trkpt>
      <trkpt lat="43.1737900" lon="-7.7597980">
        <ele>408.2</ele>
        <time>2014-07-30T10:29:45Z</time>
      </trkpt>
      <trkpt lat="43.1738080" lon="-7.7597980">
        <ele>408.2</ele>
        <time>2014-07-30T10:29:46Z</time>
      </trkpt>
      <trkpt lat="43.1738350" lon="-7.7597780">
        <ele>408.2</ele>
        <time>2014-07-30T10:29:56Z</time>
      </trkpt>
      <trkpt lat="43.1738490" lon="-7.7597870">
        <ele>408.1</ele>
        <time>2014-07-30T10:30:14Z</time>
      </trkpt>
      <trkpt lat="43.1738440" lon="-7.7597990">
        <ele>408.1</ele>
        <time>2014-07-30T10:30:30Z</time>
      </trkpt>
      <trkpt lat="43.1738440" lon="-7.7597990">
        <ele>408.1</ele>
        <time>2014-07-30T10:30:56Z</time>
      </trkpt>
      <trkpt lat="43.1738460" lon="-7.7597970">
        <ele>408.1</ele>
        <time>2014-07-30T10:31:32Z</time>
      </trkpt>
      <trkpt lat="43.1738350" lon="-7.7598030">
        <ele>408.1</ele>
        <time>2014-07-30T10:31:42Z</time>
      </trkpt>
      <trkpt lat="43.1738190" lon="-7.7597990">
        <ele>408.1</ele>
        <time>2014-07-30T10:31:43Z</time>
      </trkpt>
      <trkpt lat="43.1737990" lon="-7.7597860">
        <ele>408.1</ele>
        <time>2014-07-30T10:31:44Z</time>
      </trkpt>
      <trkpt lat="43.1736950" lon="-7.7597460">
        <ele>407.9</ele>
        <time>2014-07-30T10:31:48Z</time>
      </trkpt>
      <trkpt lat="43.1736770" lon="-7.7597680">
        <ele>407.9</ele>
        <time>2014-07-30T10:31:49Z</time>
      </trkpt>
      <trkpt lat="43.1736610" lon="-7.7597970">
        <ele>407.8</ele>
        <time>2014-07-30T10:31:50Z</time>
      </trkpt>
      <trkpt lat="43.1736490" lon="-7.7598320">
        <ele>407.8</ele>
        <time>2014-07-30T10:31:51Z</time>
      </trkpt>
      <trkpt lat="43.1736380" lon="-7.7598740">
        <ele>407.8</ele>
        <time>2014-07-30T10:31:52Z</time>
      </trkpt>
      <trkpt lat="43.1736290" lon="-7.7599200">
        <ele>407.7</ele>
        <time>2014-07-30T10:31:53Z</time>
      </trkpt>
      <trkpt lat="43.1736240" lon="-7.7599670">
        <ele>407.7</ele>
        <time>2014-07-30T10:31:54Z</time>
      </trkpt>
      <trkpt lat="43.1735790" lon="-7.7602660">
        <ele>407.1</ele>
        <time>2014-07-30T10:31:59Z</time>
      </trkpt>
      <trkpt lat="43.1735690" lon="-7.7603330">
        <ele>407.0</ele>
        <time>2014-07-30T10:32:00Z</time>
      </trkpt>
      <trkpt lat="43.1733370" lon="-7.7617590">
        <ele>406.3</ele>
        <time>2014-07-30T10:32:18Z</time>
      </trkpt>
      <trkpt lat="43.1731540" lon="-7.7628370">
        <ele>406.4</ele>
        <time>2014-07-30T10:32:32Z</time>
      </trkpt>
      <trkpt lat="43.1729240" lon="-7.7642180">
        <ele>405.5</ele>
        <time>2014-07-30T10:32:51Z</time>
      </trkpt>
      <trkpt lat="43.1726770" lon="-7.7657500">
        <ele>403.4</ele>
        <time>2014-07-30T10:33:11Z</time>
      </trkpt>
      <trkpt lat="43.1724550" lon="-7.7670780">
        <ele>403.5</ele>
        <time>2014-07-30T10:33:29Z</time>
      </trkpt>
      <trkpt lat="43.1722850" lon="-7.7680820">
        <ele>405.5</ele>
        <time>2014-07-30T10:33:46Z</time>
      </trkpt>
      <trkpt lat="43.1721250" lon="-7.7690370">
        <ele>407.5</ele>
        <time>2014-07-30T10:34:01Z</time>
      </trkpt>
      <trkpt lat="43.1719450" lon="-7.7701090">
        <ele>409.3</ele>
        <time>2014-07-30T10:34:19Z</time>
      </trkpt>
      <trkpt lat="43.1718390" lon="-7.7710210">
        <ele>409.8</ele>
        <time>2014-07-30T10:34:35Z</time>
      </trkpt>
      <trkpt lat="43.1717970" lon="-7.7721200">
        <ele>409.9</ele>
        <time>2014-07-30T10:34:52Z</time>
      </trkpt>
      <trkpt lat="43.1718240" lon="-7.7733630">
        <ele>406.9</ele>
        <time>2014-07-30T10:35:07Z</time>
      </trkpt>
      <trkpt lat="43.1720260" lon="-7.7743150">
        <ele>403.5</ele>
        <time>2014-07-30T10:35:16Z</time>
      </trkpt>
      <trkpt lat="43.1721890" lon="-7.7747480">
        <ele>402.8</ele>
        <time>2014-07-30T10:35:20Z</time>
      </trkpt>
      <trkpt lat="43.1726870" lon="-7.7757510">
        <ele>402.9</ele>
        <time>2014-07-30T10:35:32Z</time>
      </trkpt>
      <trkpt lat="43.1728230" lon="-7.7760730">
        <ele>403.0</ele>
        <time>2014-07-30T10:35:37Z</time>
      </trkpt>
      <trkpt lat="43.1731170" lon="-7.7772080">
        <ele>403.1</ele>
        <time>2014-07-30T10:35:54Z</time>
      </trkpt>
      <trkpt lat="43.1731470" lon="-7.7773900">
        <ele>402.8</ele>
        <time>2014-07-30T10:35:57Z</time>
      </trkpt>
      <trkpt lat="43.1731570" lon="-7.7787200">
        <ele>403.8</ele>
        <time>2014-07-30T10:36:17Z</time>
      </trkpt>
      <trkpt lat="43.1729450" lon="-7.7798040">
        <ele>405.8</ele>
        <time>2014-07-30T10:36:33Z</time>
      </trkpt>
      <trkpt lat="43.1729110" lon="-7.7799280">
        <ele>406.0</ele>
        <time>2014-07-30T10:36:35Z</time>
      </trkpt>
      <trkpt lat="43.1728940" lon="-7.7799930">
        <ele>406.1</ele>
        <time>2014-07-30T10:36:36Z</time>
      </trkpt>
      <trkpt lat="43.1726680" lon="-7.7807090">
        <ele>407.1</ele>
        <time>2014-07-30T10:36:47Z</time>
      </trkpt>
      <trkpt lat="43.1725540" lon="-7.7810820">
        <ele>407.1</ele>
        <time>2014-07-30T10:36:53Z</time>
      </trkpt>
      <trkpt lat="43.1725140" lon="-7.7811940">
        <ele>407.1</ele>
        <time>2014-07-30T10:36:55Z</time>
      </trkpt>
      <trkpt lat="43.1723880" lon="-7.7816700">
        <ele>407.3</ele>
        <time>2014-07-30T10:37:03Z</time>
      </trkpt>
      <trkpt lat="43.1723690" lon="-7.7817320">
        <ele>407.3</ele>
        <time>2014-07-30T10:37:04Z</time>
      </trkpt>
      <trkpt lat="43.1721700" lon="-7.7825290">
        <ele>407.5</ele>
        <time>2014-07-30T10:37:16Z</time>
      </trkpt>
      <trkpt lat="43.1720540" lon="-7.7835890">
        <ele>408.3</ele>
        <time>2014-07-30T10:37:32Z</time>
      </trkpt>
      <trkpt lat="43.1720680" lon="-7.7841990">
        <ele>409.4</ele>
        <time>2014-07-30T10:37:41Z</time>
      </trkpt>
      <trkpt lat="43.1720710" lon="-7.7842700">
        <ele>409.5</ele>
        <time>2014-07-30T10:37:42Z</time>
      </trkpt>
      <trkpt lat="43.1721340" lon="-7.7853980">
        <ele>411.7</ele>
        <time>2014-07-30T10:37:57Z</time>
      </trkpt>
      <trkpt lat="43.1722340" lon="-7.7868340">
        <ele>413.0</ele>
        <time>2014-07-30T10:38:13Z</time>
      </trkpt>
      <trkpt lat="43.1723200" lon="-7.7882130">
        <ele>415.2</ele>
        <time>2014-07-30T10:38:30Z</time>
      </trkpt>
      <trkpt lat="43.1724230" lon="-7.7894430">
        <ele>416.9</ele>
        <time>2014-07-30T10:38:46Z</time>
      </trkpt>
      <trkpt lat="43.1724330" lon="-7.7895180">
        <ele>417.0</ele>
        <time>2014-07-30T10:38:47Z</time>
      </trkpt>
      <trkpt lat="43.1724390" lon="-7.7895970">
        <ele>417.0</ele>
        <time>2014-07-30T10:38:48Z</time>
      </trkpt>
      <trkpt lat="43.1724880" lon="-7.7905750">
        <ele>417.5</ele>
        <time>2014-07-30T10:39:02Z</time>
      </trkpt>
      <trkpt lat="43.1725080" lon="-7.7908460">
        <ele>417.6</ele>
        <time>2014-07-30T10:39:06Z</time>
      </trkpt>
      <trkpt lat="43.1725130" lon="-7.7909150">
        <ele>417.6</ele>
        <time>2014-07-30T10:39:07Z</time>
      </trkpt>
      <trkpt lat="43.1725540" lon="-7.7914190">
        <ele>417.8</ele>
        <time>2014-07-30T10:39:14Z</time>
      </trkpt>
      <trkpt lat="43.1725670" lon="-7.7915600">
        <ele>417.8</ele>
        <time>2014-07-30T10:39:16Z</time>
      </trkpt>
      <trkpt lat="43.1725990" lon="-7.7920810">
        <ele>417.9</ele>
        <time>2014-07-30T10:39:24Z</time>
      </trkpt>
      <trkpt lat="43.1725970" lon="-7.7921380">
        <ele>418.0</ele>
        <time>2014-07-30T10:39:25Z</time>
      </trkpt>
      <trkpt lat="43.1725860" lon="-7.7921910">
        <ele>418.0</ele>
        <time>2014-07-30T10:39:26Z</time>
      </trkpt>
      <trkpt lat="43.1725310" lon="-7.7923830">
        <ele>418.2</ele>
        <time>2014-07-30T10:39:30Z</time>
      </trkpt>
      <trkpt lat="43.1725250" lon="-7.7924370">
        <ele>418.2</ele>
        <time>2014-07-30T10:39:31Z</time>
      </trkpt>
      <trkpt lat="43.1725250" lon="-7.7924940">
        <ele>418.3</ele>
        <time>2014-07-30T10:39:32Z</time>
      </trkpt>
      <trkpt lat="43.1724870" lon="-7.7929950">
        <ele>415.8</ele>
        <time>2014-07-30T10:39:43Z</time>
      </trkpt>
      <trkpt lat="43.1724620" lon="-7.7930170">
        <ele>415.4</ele>
        <time>2014-07-30T10:39:44Z</time>
      </trkpt>
      <trkpt lat="43.1724360" lon="-7.7930200">
        <ele>415.1</ele>
        <time>2014-07-30T10:39:45Z</time>
      </trkpt>
      <trkpt lat="43.1721850" lon="-7.7930160">
        <ele>412.5</ele>
        <time>2014-07-30T10:39:54Z</time>
      </trkpt>
      <trkpt lat="43.1718800" lon="-7.7929800">
        <ele>414.5</ele>
        <time>2014-07-30T10:40:07Z</time>
      </trkpt>
      <trkpt lat="43.1718350" lon="-7.7929810">
        <ele>415.1</ele>
        <time>2014-07-30T10:40:18Z</time>
      </trkpt>
      <trkpt lat="43.1718020" lon="-7.7929910">
        <ele>415.6</ele>
        <time>2014-07-30T10:40:39Z</time>
      </trkpt>
      <trkpt lat="43.1717920" lon="-7.7930030">
        <ele>415.5</ele>
        <time>2014-07-30T10:40:40Z</time>
      </trkpt>
      <trkpt lat="43.1717860" lon="-7.7930200">
        <ele>415.5</ele>
        <time>2014-07-30T10:40:41Z</time>
      </trkpt>
      <trkpt lat="43.1717380" lon="-7.7932740">
        <ele>414.6</ele>
        <time>2014-07-30T10:40:52Z</time>
      </trkpt>
      <trkpt lat="43.1717320" lon="-7.7933000">
        <ele>414.5</ele>
        <time>2014-07-30T10:40:53Z</time>
      </trkpt>
      <trkpt lat="43.1716910" lon="-7.7934200">
        <ele>414.0</ele>
        <time>2014-07-30T10:40:58Z</time>
      </trkpt>
      <trkpt lat="43.1716840" lon="-7.7934450">
        <ele>413.9</ele>
        <time>2014-07-30T10:40:59Z</time>
      </trkpt>
      <trkpt lat="43.1716810" lon="-7.7934690">
        <ele>413.9</ele>
        <time>2014-07-30T10:41:00Z</time>
      </trkpt>
      <trkpt lat="43.1716770" lon="-7.7934900">
        <ele>413.8</ele>
        <time>2014-07-30T10:41:01Z</time>
      </trkpt>
      <trkpt lat="43.1716730" lon="-7.7935100">
        <ele>413.7</ele>
        <time>2014-07-30T10:41:02Z</time>
      </trkpt>
      <trkpt lat="43.1716690" lon="-7.7935310">
        <ele>413.5</ele>
        <time>2014-07-30T10:41:03Z</time>
      </trkpt>
      <trkpt lat="43.1716350" lon="-7.7935910">
        <ele>413.6</ele>
        <time>2014-07-30T10:41:06Z</time>
      </trkpt>
      <trkpt lat="43.1716310" lon="-7.7936090">
        <ele>413.6</ele>
        <time>2014-07-30T10:41:07Z</time>
      </trkpt>
      <trkpt lat="43.1715620" lon="-7.7937420">
        <ele>413.8</ele>
        <time>2014-07-30T10:41:15Z</time>
      </trkpt>
      <trkpt lat="43.1715500" lon="-7.7937590">
        <ele>413.8</ele>
        <time>2014-07-30T10:41:16Z</time>
      </trkpt>
      <trkpt lat="43.1715380" lon="-7.7937710">
        <ele>413.8</ele>
        <time>2014-07-30T10:41:17Z</time>
      </trkpt>
      <trkpt lat="43.1715260" lon="-7.7937810">
        <ele>413.9</ele>
        <time>2014-07-30T10:41:18Z</time>
      </trkpt>
      <trkpt lat="43.1715130" lon="-7.7937930">
        <ele>413.8</ele>
        <time>2014-07-30T10:41:19Z</time>
      </trkpt>
      <trkpt lat="43.1715000" lon="-7.7938050">
        <ele>413.7</ele>
        <time>2014-07-30T10:41:20Z</time>
      </trkpt>
      <trkpt lat="43.1714910" lon="-7.7938150">
        <ele>413.7</ele>
        <time>2014-07-30T10:41:21Z</time>
      </trkpt>
      <trkpt lat="43.1714880" lon="-7.7938320">
        <ele>413.6</ele>
        <time>2014-07-30T10:41:22Z</time>
      </trkpt>
      <trkpt lat="43.1714790" lon="-7.7938990">
        <ele>413.5</ele>
        <time>2014-07-30T10:41:26Z</time>
      </trkpt>
      <trkpt lat="43.1714780" lon="-7.7939190">
        <ele>413.5</ele>
        <time>2014-07-30T10:41:27Z</time>
      </trkpt>
      <trkpt lat="43.1714730" lon="-7.7939380">
        <ele>413.4</ele>
        <time>2014-07-30T10:41:28Z</time>
      </trkpt>
      <trkpt lat="43.1714570" lon="-7.7939670">
        <ele>413.4</ele>
        <time>2014-07-30T10:41:30Z</time>
      </trkpt>
      <trkpt lat="43.1714510" lon="-7.7939810">
        <ele>413.4</ele>
        <time>2014-07-30T10:41:31Z</time>
      </trkpt>
      <trkpt lat="43.1714460" lon="-7.7939930">
        <ele>413.3</ele>
        <time>2014-07-30T10:41:32Z</time>
      </trkpt>
      <trkpt lat="43.1714390" lon="-7.7940130">
        <ele>413.3</ele>
        <time>2014-07-30T10:41:33Z</time>
      </trkpt>
      <trkpt lat="43.1714310" lon="-7.7940430">
        <ele>413.3</ele>
        <time>2014-07-30T10:41:34Z</time>
      </trkpt>
      <trkpt lat="43.1714180" lon="-7.7940780">
        <ele>413.3</ele>
        <time>2014-07-30T10:41:35Z</time>
      </trkpt>
      <trkpt lat="43.1714060" lon="-7.7941100">
        <ele>413.4</ele>
        <time>2014-07-30T10:41:36Z</time>
      </trkpt>
      <trkpt lat="43.1713430" lon="-7.7943380">
        <ele>414.0</ele>
        <time>2014-07-30T10:41:40Z</time>
      </trkpt>
      <trkpt lat="43.1713240" lon="-7.7944050">
        <ele>414.2</ele>
        <time>2014-07-30T10:41:41Z</time>
      </trkpt>
      <trkpt lat="43.1712990" lon="-7.7944750">
        <ele>414.8</ele>
        <time>2014-07-30T10:41:42Z</time>
      </trkpt>
      <trkpt lat="43.1712730" lon="-7.7945390">
        <ele>414.6</ele>
        <time>2014-07-30T10:41:43Z</time>
      </trkpt>
      <trkpt lat="43.1712470" lon="-7.7945830">
        <ele>414.5</ele>
        <time>2014-07-30T10:41:44Z</time>
      </trkpt>
      <trkpt lat="43.1712210" lon="-7.7946100">
        <ele>414.4</ele>
        <time>2014-07-30T10:41:45Z</time>
      </trkpt>
      <trkpt lat="43.1712010" lon="-7.7946270">
        <ele>414.3</ele>
        <time>2014-07-30T10:41:46Z</time>
      </trkpt>
      <trkpt lat="43.1711840" lon="-7.7946380">
        <ele>414.2</ele>
        <time>2014-07-30T10:41:47Z</time>
      </trkpt>
      <trkpt lat="43.1711680" lon="-7.7947090">
        <ele>414.1</ele>
        <time>2014-07-30T10:41:50Z</time>
      </trkpt>
      <trkpt lat="43.1711700" lon="-7.7947340">
        <ele>414.0</ele>
        <time>2014-07-30T10:41:51Z</time>
      </trkpt>
      <trkpt lat="43.1712020" lon="-7.7948010">
        <ele>413.6</ele>
        <time>2014-07-30T10:41:56Z</time>
      </trkpt>
      <trkpt lat="43.1712730" lon="-7.7947850">
        <ele>413.6</ele>
        <time>2014-07-30T10:42:06Z</time>
      </trkpt>
      <trkpt lat="43.1713520" lon="-7.7947880">
        <ele>413.6</ele>
        <time>2014-07-30T10:42:11Z</time>
      </trkpt>
      <trkpt lat="43.1712480" lon="-7.7948460">
        <ele>413.6</ele>
        <time>2014-07-30T10:42:20Z</time>
      </trkpt>
      <trkpt lat="43.1712010" lon="-7.7948510">
        <ele>413.6</ele>
        <time>2014-07-30T10:42:23Z</time>
      </trkpt>
      <trkpt lat="43.1710410" lon="-7.7948600">
        <ele>413.5</ele>
        <time>2014-07-30T10:42:30Z</time>
      </trkpt>
      <trkpt lat="43.1710320" lon="-7.7949060">
        <ele>413.5</ele>
        <time>2014-07-30T10:42:33Z</time>
      </trkpt>
      <trkpt lat="43.1710630" lon="-7.7949700">
        <ele>415.7</ele>
        <time>2014-07-30T10:42:37Z</time>
      </trkpt>
      <trkpt lat="43.1711060" lon="-7.7950560">
        <ele>417.8</ele>
        <time>2014-07-30T10:42:48Z</time>
      </trkpt>
      <trkpt lat="43.1711340" lon="-7.7951160">
        <ele>418.9</ele>
        <time>2014-07-30T10:43:00Z</time>
      </trkpt>
      <trkpt lat="43.1711650" lon="-7.7952170">
        <ele>420.0</ele>
        <time>2014-07-30T10:43:15Z</time>
      </trkpt>
      <trkpt lat="43.1711400" lon="-7.7952610">
        <ele>420.5</ele>
        <time>2014-07-30T10:43:29Z</time>
      </trkpt>
      <trkpt lat="43.1710910" lon="-7.7953740">
        <ele>421.8</ele>
        <time>2014-07-30T10:43:45Z</time>
      </trkpt>
      <trkpt lat="43.1710890" lon="-7.7953980">
        <ele>422.0</ele>
        <time>2014-07-30T10:43:59Z</time>
      </trkpt>
      <trkpt lat="43.1710880" lon="-7.7953950">
        <ele>422.0</ele>
        <time>2014-07-30T10:44:27Z</time>
      </trkpt>
      <trkpt lat="43.1710940" lon="-7.7954610">
        <ele>422.7</ele>
        <time>2014-07-30T10:44:45Z</time>
      </trkpt>
      <trkpt lat="43.1710780" lon="-7.7955080">
        <ele>423.2</ele>
        <time>2014-07-30T10:44:54Z</time>
      </trkpt>
      <trkpt lat="43.1710730" lon="-7.7955190">
        <ele>423.3</ele>
        <time>2014-07-30T10:45:12Z</time>
      </trkpt>
      <trkpt lat="43.1710760" lon="-7.7955800">
        <ele>424.5</ele>
        <time>2014-07-30T10:45:19Z</time>
      </trkpt>
      <trkpt lat="43.1710750" lon="-7.7957010">
        <ele>426.7</ele>
        <time>2014-07-30T10:45:30Z</time>
      </trkpt>
      <trkpt lat="43.1710830" lon="-7.7958730">
        <ele>428.8</ele>
        <time>2014-07-30T10:45:43Z</time>
      </trkpt>
      <trkpt lat="43.1710620" lon="-7.7959760">
        <ele>429.8</ele>
        <time>2014-07-30T10:45:56Z</time>
      </trkpt>
      <trkpt lat="43.1710800" lon="-7.7960410">
        <ele>430.4</ele>
        <time>2014-07-30T10:46:08Z</time>
      </trkpt>
      <trkpt lat="43.1710860" lon="-7.7961890">
        <ele>431.6</ele>
        <time>2014-07-30T10:46:13Z</time>
      </trkpt>
      <trkpt lat="43.1710910" lon="-7.7962900">
        <ele>432.4</ele>
        <time>2014-07-30T10:46:17Z</time>
      </trkpt>
      <trkpt lat="43.1711210" lon="-7.7964240">
        <ele>433.8</ele>
        <time>2014-07-30T10:46:23Z</time>
      </trkpt>
      <trkpt lat="43.1711540" lon="-7.7964900">
        <ele>434.4</ele>
        <time>2014-07-30T10:46:26Z</time>
      </trkpt>
      <trkpt lat="43.1712120" lon="-7.7967230">
        <ele>435.3</ele>
        <time>2014-07-30T10:46:41Z</time>
      </trkpt>
      <trkpt lat="43.1712470" lon="-7.7969410">
        <ele>436.0</ele>
        <time>2014-07-30T10:46:53Z</time>
      </trkpt>
      <trkpt lat="43.1713460" lon="-7.7971830">
        <ele>437.3</ele>
        <time>2014-07-30T10:47:02Z</time>
      </trkpt>
      <trkpt lat="43.1713790" lon="-7.7973020">
        <ele>438.2</ele>
        <time>2014-07-30T10:47:05Z</time>
      </trkpt>
      <trkpt lat="43.1713310" lon="-7.7974440">
        <ele>439.5</ele>
        <time>2014-07-30T10:47:12Z</time>
      </trkpt>
      <trkpt lat="43.1712550" lon="-7.7976230">
        <ele>440.8</ele>
        <time>2014-07-30T10:47:23Z</time>
      </trkpt>
      <trkpt lat="43.1712410" lon="-7.7978470">
        <ele>441.9</ele>
        <time>2014-07-30T10:47:36Z</time>
      </trkpt>
      <trkpt lat="43.1712310" lon="-7.7979080">
        <ele>442.2</ele>
        <time>2014-07-30T10:47:39Z</time>
      </trkpt>
      <trkpt lat="43.1712240" lon="-7.7980050">
        <ele>442.9</ele>
        <time>2014-07-30T10:47:45Z</time>
      </trkpt>
      <trkpt lat="43.1712170" lon="-7.7980300">
        <ele>443.1</ele>
        <time>2014-07-30T10:47:47Z</time>
      </trkpt>
      <trkpt lat="43.1711230" lon="-7.7982880">
        <ele>445.4</ele>
        <time>2014-07-30T10:47:59Z</time>
      </trkpt>
      <trkpt lat="43.1710640" lon="-7.7984820">
        <ele>446.9</ele>
        <time>2014-07-30T10:48:11Z</time>
      </trkpt>
      <trkpt lat="43.1710010" lon="-7.7986290">
        <ele>448.0</ele>
        <time>2014-07-30T10:48:20Z</time>
      </trkpt>
      <trkpt lat="43.1709410" lon="-7.7987660">
        <ele>448.8</ele>
        <time>2014-07-30T10:48:27Z</time>
      </trkpt>
      <trkpt lat="43.1708880" lon="-7.7989330">
        <ele>449.7</ele>
        <time>2014-07-30T10:48:37Z</time>
      </trkpt>
      <trkpt lat="43.1708160" lon="-7.7990770">
        <ele>450.5</ele>
        <time>2014-07-30T10:48:47Z</time>
      </trkpt>
      <trkpt lat="43.1707450" lon="-7.7990960">
        <ele>451.0</ele>
        <time>2014-07-30T10:48:52Z</time>
      </trkpt>
      <trkpt lat="43.1707130" lon="-7.7991080">
        <ele>451.2</ele>
        <time>2014-07-30T10:48:55Z</time>
      </trkpt>
      <trkpt lat="43.1706900" lon="-7.7991020">
        <ele>451.4</ele>
        <time>2014-07-30T10:48:57Z</time>
      </trkpt>
      <trkpt lat="43.1705800" lon="-7.7991320">
        <ele>452.0</ele>
        <time>2014-07-30T10:49:04Z</time>
      </trkpt>
      <trkpt lat="43.1705380" lon="-7.7991530">
        <ele>452.3</ele>
        <time>2014-07-30T10:49:07Z</time>
      </trkpt>
      <trkpt lat="43.1704540" lon="-7.7991740">
        <ele>452.7</ele>
        <time>2014-07-30T10:49:12Z</time>
      </trkpt>
      <trkpt lat="43.1702700" lon="-7.7992410">
        <ele>454.0</ele>
        <time>2014-07-30T10:49:22Z</time>
      </trkpt>
      <trkpt lat="43.1701590" lon="-7.7993430">
        <ele>454.8</ele>
        <time>2014-07-30T10:49:29Z</time>
      </trkpt>
      <trkpt lat="43.1701030" lon="-7.7993870">
        <ele>455.1</ele>
        <time>2014-07-30T10:49:32Z</time>
      </trkpt>
      <trkpt lat="43.1699660" lon="-7.7994550">
        <ele>456.1</ele>
        <time>2014-07-30T10:49:39Z</time>
      </trkpt>
      <trkpt lat="43.1698650" lon="-7.7994730">
        <ele>456.4</ele>
        <time>2014-07-30T10:49:44Z</time>
      </trkpt>
      <trkpt lat="43.1696140" lon="-7.7994880">
        <ele>456.5</ele>
        <time>2014-07-30T10:49:56Z</time>
      </trkpt>
      <trkpt lat="43.1694720" lon="-7.7994150">
        <ele>456.1</ele>
        <time>2014-07-30T10:50:03Z</time>
      </trkpt>
      <trkpt lat="43.1692990" lon="-7.7993810">
        <ele>455.5</ele>
        <time>2014-07-30T10:50:08Z</time>
      </trkpt>
      <trkpt lat="43.1692650" lon="-7.7994120">
        <ele>455.3</ele>
        <time>2014-07-30T10:50:09Z</time>
      </trkpt>
      <trkpt lat="43.1692010" lon="-7.7994840">
        <ele>455.0</ele>
        <time>2014-07-30T10:50:11Z</time>
      </trkpt>
      <trkpt lat="43.1691230" lon="-7.7995540">
        <ele>454.7</ele>
        <time>2014-07-30T10:50:13Z</time>
      </trkpt>
      <trkpt lat="43.1689970" lon="-7.7996590">
        <ele>454.0</ele>
        <time>2014-07-30T10:50:16Z</time>
      </trkpt>
      <trkpt lat="43.1689620" lon="-7.7996950">
        <ele>453.8</ele>
        <time>2014-07-30T10:50:17Z</time>
      </trkpt>
      <trkpt lat="43.1687190" lon="-7.7998800">
        <ele>452.6</ele>
        <time>2014-07-30T10:50:23Z</time>
      </trkpt>
      <trkpt lat="43.1686320" lon="-7.7999400">
        <ele>452.2</ele>
        <time>2014-07-30T10:50:25Z</time>
      </trkpt>
      <trkpt lat="43.1685910" lon="-7.7999800">
        <ele>452.1</ele>
        <time>2014-07-30T10:50:26Z</time>
      </trkpt>
      <trkpt lat="43.1685140" lon="-7.8000510">
        <ele>451.8</ele>
        <time>2014-07-30T10:50:28Z</time>
      </trkpt>
      <trkpt lat="43.1684240" lon="-7.8001890">
        <ele>451.3</ele>
        <time>2014-07-30T10:50:31Z</time>
      </trkpt>
      <trkpt lat="43.1683910" lon="-7.8002310">
        <ele>451.2</ele>
        <time>2014-07-30T10:50:32Z</time>
      </trkpt>
      <trkpt lat="43.1681550" lon="-7.8004970">
        <ele>449.7</ele>
        <time>2014-07-30T10:50:40Z</time>
      </trkpt>
      <trkpt lat="43.1679050" lon="-7.8008490">
        <ele>446.7</ele>
        <time>2014-07-30T10:50:47Z</time>
      </trkpt>
      <trkpt lat="43.1678740" lon="-7.8009050">
        <ele>446.7</ele>
        <time>2014-07-30T10:50:48Z</time>
      </trkpt>
      <trkpt lat="43.1678550" lon="-7.8009560">
        <ele>446.7</ele>
        <time>2014-07-30T10:50:49Z</time>
      </trkpt>
      <trkpt lat="43.1678410" lon="-7.8009940">
        <ele>446.6</ele>
        <time>2014-07-30T10:50:50Z</time>
      </trkpt>
      <trkpt lat="43.1678300" lon="-7.8010250">
        <ele>446.6</ele>
        <time>2014-07-30T10:50:51Z</time>
      </trkpt>
      <trkpt lat="43.1678190" lon="-7.8010550">
        <ele>446.6</ele>
        <time>2014-07-30T10:50:52Z</time>
      </trkpt>
      <trkpt lat="43.1678140" lon="-7.8012110">
        <ele>447.0</ele>
        <time>2014-07-30T10:50:58Z</time>
      </trkpt>
      <trkpt lat="43.1678190" lon="-7.8012380">
        <ele>447.1</ele>
        <time>2014-07-30T10:50:59Z</time>
      </trkpt>
      <trkpt lat="43.1678220" lon="-7.8012610">
        <ele>447.3</ele>
        <time>2014-07-30T10:51:00Z</time>
      </trkpt>
      <trkpt lat="43.1678760" lon="-7.8014810">
        <ele>449.1</ele>
        <time>2014-07-30T10:51:10Z</time>
      </trkpt>
      <trkpt lat="43.1679070" lon="-7.8016700">
        <ele>451.6</ele>
        <time>2014-07-30T10:51:17Z</time>
      </trkpt>
      <trkpt lat="43.1679120" lon="-7.8016940">
        <ele>451.9</ele>
        <time>2014-07-30T10:51:18Z</time>
      </trkpt>
      <trkpt lat="43.1679170" lon="-7.8017150">
        <ele>452.2</ele>
        <time>2014-07-30T10:51:19Z</time>
      </trkpt>
      <trkpt lat="43.1679460" lon="-7.8019710">
        <ele>456.3</ele>
        <time>2014-07-30T10:51:31Z</time>
      </trkpt>
      <trkpt lat="43.1679400" lon="-7.8020680">
        <ele>457.6</ele>
        <time>2014-07-30T10:51:35Z</time>
      </trkpt>
      <trkpt lat="43.1679400" lon="-7.8020880">
        <ele>457.8</ele>
        <time>2014-07-30T10:51:36Z</time>
      </trkpt>
      <trkpt lat="43.1679420" lon="-7.8021080">
        <ele>458.1</ele>
        <time>2014-07-30T10:51:37Z</time>
      </trkpt>
      <trkpt lat="43.1679140" lon="-7.8022830">
        <ele>459.9</ele>
        <time>2014-07-30T10:51:47Z</time>
      </trkpt>
      <trkpt lat="43.1679120" lon="-7.8023030">
        <ele>460.1</ele>
        <time>2014-07-30T10:51:48Z</time>
      </trkpt>
      <trkpt lat="43.1678480" lon="-7.8024760">
        <ele>461.9</ele>
        <time>2014-07-30T10:51:59Z</time>
      </trkpt>
      <trkpt lat="43.1678050" lon="-7.8025650">
        <ele>462.4</ele>
        <time>2014-07-30T10:52:05Z</time>
      </trkpt>
      <trkpt lat="43.1677930" lon="-7.8026330">
        <ele>462.5</ele>
        <time>2014-07-30T10:52:10Z</time>
      </trkpt>
      <trkpt lat="43.1677810" lon="-7.8026780">
        <ele>462.4</ele>
        <time>2014-07-30T10:52:13Z</time>
      </trkpt>
      <trkpt lat="43.1677700" lon="-7.8027010">
        <ele>462.4</ele>
        <time>2014-07-30T10:52:15Z</time>
      </trkpt>
      <trkpt lat="43.1677150" lon="-7.8029850">
        <ele>461.7</ele>
        <time>2014-07-30T10:52:27Z</time>
      </trkpt>
      <trkpt lat="43.1676590" lon="-7.8031860">
        <ele>461.3</ele>
        <time>2014-07-30T10:52:36Z</time>
      </trkpt>
      <trkpt lat="43.1676410" lon="-7.8032850">
        <ele>461.2</ele>
        <time>2014-07-30T10:52:40Z</time>
      </trkpt>
      <trkpt lat="43.1676290" lon="-7.8033170">
        <ele>461.2</ele>
        <time>2014-07-30T10:52:41Z</time>
      </trkpt>
      <trkpt lat="43.1676210" lon="-7.8033480">
        <ele>461.2</ele>
        <time>2014-07-30T10:52:42Z</time>
      </trkpt>
      <trkpt lat="43.1676120" lon="-7.8033840">
        <ele>461.2</ele>
        <time>2014-07-30T10:52:43Z</time>
      </trkpt>
      <trkpt lat="43.1676070" lon="-7.8034210">
        <ele>461.2</ele>
        <time>2014-07-30T10:52:44Z</time>
      </trkpt>
      <trkpt lat="43.1676080" lon="-7.8034550">
        <ele>461.1</ele>
        <time>2014-07-30T10:52:45Z</time>
      </trkpt>
      <trkpt lat="43.1676350" lon="-7.8036770">
        <ele>461.0</ele>
        <time>2014-07-30T10:52:52Z</time>
      </trkpt>
      <trkpt lat="43.1676400" lon="-7.8036970">
        <ele>461.0</ele>
        <time>2014-07-30T10:52:53Z</time>
      </trkpt>
      <trkpt lat="43.1676550" lon="-7.8037860">
        <ele>461.0</ele>
        <time>2014-07-30T10:52:56Z</time>
      </trkpt>
      <trkpt lat="43.1676850" lon="-7.8038950">
        <ele>461.0</ele>
        <time>2014-07-30T10:52:59Z</time>
      </trkpt>
      <trkpt lat="43.1677680" lon="-7.8042640">
        <ele>461.1</ele>
        <time>2014-07-30T10:53:10Z</time>
      </trkpt>
      <trkpt lat="43.1677740" lon="-7.8042930">
        <ele>461.2</ele>
        <time>2014-07-30T10:53:11Z</time>
      </trkpt>
      <trkpt lat="43.1677760" lon="-7.8043220">
        <ele>461.2</ele>
        <time>2014-07-30T10:53:12Z</time>
      </trkpt>
      <trkpt lat="43.1677810" lon="-7.8047250">
        <ele>462.0</ele>
        <time>2014-07-30T10:53:25Z</time>
      </trkpt>
      <trkpt lat="43.1676120" lon="-7.8052670">
        <ele>462.7</ele>
        <time>2014-07-30T10:53:41Z</time>
      </trkpt>
      <trkpt lat="43.1674980" lon="-7.8057970">
        <ele>462.6</ele>
        <time>2014-07-30T10:53:55Z</time>
      </trkpt>
      <trkpt lat="43.1673780" lon="-7.8063660">
        <ele>462.1</ele>
        <time>2014-07-30T10:54:08Z</time>
      </trkpt>
      <trkpt lat="43.1671790" lon="-7.8071150">
        <ele>462.4</ele>
        <time>2014-07-30T10:54:23Z</time>
      </trkpt>
      <trkpt lat="43.1669030" lon="-7.8075930">
        <ele>465.6</ele>
        <time>2014-07-30T10:54:37Z</time>
      </trkpt>
      <trkpt lat="43.1666320" lon="-7.8078800">
        <ele>468.7</ele>
        <time>2014-07-30T10:54:51Z</time>
      </trkpt>
      <trkpt lat="43.1665000" lon="-7.8081620">
        <ele>470.4</ele>
        <time>2014-07-30T10:55:02Z</time>
      </trkpt>
      <trkpt lat="43.1664140" lon="-7.8083740">
        <ele>471.3</ele>
        <time>2014-07-30T10:55:11Z</time>
      </trkpt>
      <trkpt lat="43.1662950" lon="-7.8086620">
        <ele>472.9</ele>
        <time>2014-07-30T10:55:22Z</time>
      </trkpt>
      <trkpt lat="43.1661720" lon="-7.8091690">
        <ele>473.5</ele>
        <time>2014-07-30T10:55:36Z</time>
      </trkpt>
      <trkpt lat="43.1660480" lon="-7.8098720">
        <ele>473.4</ele>
        <time>2014-07-30T10:55:52Z</time>
      </trkpt>
      <trkpt lat="43.1657900" lon="-7.8102870">
        <ele>473.9</ele>
        <time>2014-07-30T10:56:03Z</time>
      </trkpt>
      <trkpt lat="43.1654440" lon="-7.8106400">
        <ele>474.4</ele>
        <time>2014-07-30T10:56:15Z</time>
      </trkpt>
      <trkpt lat="43.1650780" lon="-7.8109980">
        <ele>475.9</ele>
        <time>2014-07-30T10:56:29Z</time>
      </trkpt>
      <trkpt lat="43.1648790" lon="-7.8111900">
        <ele>475.9</ele>
        <time>2014-07-30T10:56:37Z</time>
      </trkpt>
      <trkpt lat="43.1648430" lon="-7.8112190">
        <ele>475.8</ele>
        <time>2014-07-30T10:56:38Z</time>
      </trkpt>
      <trkpt lat="43.1648070" lon="-7.8112510">
        <ele>475.8</ele>
        <time>2014-07-30T10:56:39Z</time>
      </trkpt>
      <trkpt lat="43.1647720" lon="-7.8112830">
        <ele>475.7</ele>
        <time>2014-07-30T10:56:40Z</time>
      </trkpt>
      <trkpt lat="43.1647350" lon="-7.8113170">
        <ele>475.7</ele>
        <time>2014-07-30T10:56:41Z</time>
      </trkpt>
      <trkpt lat="43.1646960" lon="-7.8113540">
        <ele>475.6</ele>
        <time>2014-07-30T10:56:42Z</time>
      </trkpt>
      <trkpt lat="43.1644740" lon="-7.8115460">
        <ele>475.8</ele>
        <time>2014-07-30T10:56:47Z</time>
      </trkpt>
      <trkpt lat="43.1643360" lon="-7.8117410">
        <ele>476.4</ele>
        <time>2014-07-30T10:56:50Z</time>
      </trkpt>
      <trkpt lat="43.1642850" lon="-7.8117930">
        <ele>476.7</ele>
        <time>2014-07-30T10:56:51Z</time>
      </trkpt>
      <trkpt lat="43.1642330" lon="-7.8118280">
        <ele>476.8</ele>
        <time>2014-07-30T10:56:52Z</time>
      </trkpt>
      <trkpt lat="43.1640240" lon="-7.8118800">
        <ele>477.5</ele>
        <time>2014-07-30T10:56:59Z</time>
      </trkpt>
      <trkpt lat="43.1637790" lon="-7.8116760">
        <ele>479.8</ele>
        <time>2014-07-30T10:57:14Z</time>
      </trkpt>
      <trkpt lat="43.1636170" lon="-7.8115580">
        <ele>481.6</ele>
        <time>2014-07-30T10:57:25Z</time>
      </trkpt>
      <trkpt lat="43.1634530" lon="-7.8114660">
        <ele>483.1</ele>
        <time>2014-07-30T10:57:36Z</time>
      </trkpt>
      <trkpt lat="43.1633260" lon="-7.8114270">
        <ele>484.4</ele>
        <time>2014-07-30T10:57:44Z</time>
      </trkpt>
      <trkpt lat="43.1633120" lon="-7.8114090">
        <ele>484.6</ele>
        <time>2014-07-30T10:57:45Z</time>
      </trkpt>
      <trkpt lat="43.1632910" lon="-7.8114000">
        <ele>484.8</ele>
        <time>2014-07-30T10:57:46Z</time>
      </trkpt>
      <trkpt lat="43.1632730" lon="-7.8113960">
        <ele>485.2</ele>
        <time>2014-07-30T10:57:47Z</time>
      </trkpt>
      <trkpt lat="43.1632530" lon="-7.8113920">
        <ele>485.2</ele>
        <time>2014-07-30T10:57:48Z</time>
      </trkpt>
      <trkpt lat="43.1632360" lon="-7.8113870">
        <ele>485.3</ele>
        <time>2014-07-30T10:57:49Z</time>
      </trkpt>
      <trkpt lat="43.1630370" lon="-7.8113210">
        <ele>485.5</ele>
        <time>2014-07-30T10:58:01Z</time>
      </trkpt>
      <trkpt lat="43.1627490" lon="-7.8112480">
        <ele>485.9</ele>
        <time>2014-07-30T10:58:16Z</time>
      </trkpt>
      <trkpt lat="43.1625010" lon="-7.8111470">
        <ele>486.3</ele>
        <time>2014-07-30T10:58:27Z</time>
      </trkpt>
      <trkpt lat="43.1621430" lon="-7.8110280">
        <ele>486.7</ele>
        <time>2014-07-30T10:58:40Z</time>
      </trkpt>
      <trkpt lat="43.1617600" lon="-7.8108830">
        <ele>488.0</ele>
        <time>2014-07-30T10:58:53Z</time>
      </trkpt>
      <trkpt lat="43.1614750" lon="-7.8108900">
        <ele>487.8</ele>
        <time>2014-07-30T10:59:03Z</time>
      </trkpt>
      <trkpt lat="43.1613500" lon="-7.8109610">
        <ele>487.5</ele>
        <time>2014-07-30T10:59:06Z</time>
      </trkpt>
      <trkpt lat="43.1613110" lon="-7.8109920">
        <ele>487.4</ele>
        <time>2014-07-30T10:59:07Z</time>
      </trkpt>
      <trkpt lat="43.1612700" lon="-7.8110220">
        <ele>487.3</ele>
        <time>2014-07-30T10:59:08Z</time>
      </trkpt>
      <trkpt lat="43.1608630" lon="-7.8112610">
        <ele>486.0</ele>
        <time>2014-07-30T10:59:17Z</time>
      </trkpt>
      <trkpt lat="43.1608160" lon="-7.8112840">
        <ele>485.9</ele>
        <time>2014-07-30T10:59:18Z</time>
      </trkpt>
      <trkpt lat="43.1606830" lon="-7.8113540">
        <ele>485.6</ele>
        <time>2014-07-30T10:59:21Z</time>
      </trkpt>
      <trkpt lat="43.1606340" lon="-7.8113760">
        <ele>485.5</ele>
        <time>2014-07-30T10:59:22Z</time>
      </trkpt>
      <trkpt lat="43.1603970" lon="-7.8114830">
        <ele>484.4</ele>
        <time>2014-07-30T10:59:26Z</time>
      </trkpt>
      <trkpt lat="43.1603340" lon="-7.8114850">
        <ele>484.3</ele>
        <time>2014-07-30T10:59:27Z</time>
      </trkpt>
      <trkpt lat="43.1602710" lon="-7.8114710">
        <ele>484.2</ele>
        <time>2014-07-30T10:59:28Z</time>
      </trkpt>
      <trkpt lat="43.1597170" lon="-7.8112730">
        <ele>483.5</ele>
        <time>2014-07-30T10:59:38Z</time>
      </trkpt>
      <trkpt lat="43.1590770" lon="-7.8111030">
        <ele>484.7</ele>
        <time>2014-07-30T10:59:52Z</time>
      </trkpt>
      <trkpt lat="43.1586890" lon="-7.8111300">
        <ele>486.1</ele>
        <time>2014-07-30T11:00:04Z</time>
      </trkpt>
      <trkpt lat="43.1582040" lon="-7.8111700">
        <ele>487.2</ele>
        <time>2014-07-30T11:00:19Z</time>
      </trkpt>
      <trkpt lat="43.1581260" lon="-7.8111880">
        <ele>487.4</ele>
        <time>2014-07-30T11:00:22Z</time>
      </trkpt>
      <trkpt lat="43.1580950" lon="-7.8111890">
        <ele>487.5</ele>
        <time>2014-07-30T11:00:23Z</time>
      </trkpt>
      <trkpt lat="43.1580670" lon="-7.8112010">
        <ele>487.5</ele>
        <time>2014-07-30T11:00:24Z</time>
      </trkpt>
      <trkpt lat="43.1580410" lon="-7.8112140">
        <ele>487.6</ele>
        <time>2014-07-30T11:00:25Z</time>
      </trkpt>
      <trkpt lat="43.1580100" lon="-7.8112140">
        <ele>487.6</ele>
        <time>2014-07-30T11:00:26Z</time>
      </trkpt>
      <trkpt lat="43.1579740" lon="-7.8112120">
        <ele>487.6</ele>
        <time>2014-07-30T11:00:27Z</time>
      </trkpt>
      <trkpt lat="43.1579390" lon="-7.8112140">
        <ele>487.7</ele>
        <time>2014-07-30T11:00:28Z</time>
      </trkpt>
      <trkpt lat="43.1579050" lon="-7.8112160">
        <ele>487.7</ele>
        <time>2014-07-30T11:00:29Z</time>
      </trkpt>
      <trkpt lat="43.1578670" lon="-7.8112160">
        <ele>487.7</ele>
        <time>2014-07-30T11:00:30Z</time>
      </trkpt>
      <trkpt lat="43.1578310" lon="-7.8112200">
        <ele>487.8</ele>
        <time>2014-07-30T11:00:31Z</time>
      </trkpt>
      <trkpt lat="43.1577990" lon="-7.8112350">
        <ele>487.8</ele>
        <time>2014-07-30T11:00:32Z</time>
      </trkpt>
      <trkpt lat="43.1577680" lon="-7.8112510">
        <ele>487.8</ele>
        <time>2014-07-30T11:00:33Z</time>
      </trkpt>
      <trkpt lat="43.1577330" lon="-7.8112630">
        <ele>487.8</ele>
        <time>2014-07-30T11:00:34Z</time>
      </trkpt>
      <trkpt lat="43.1573640" lon="-7.8113830">
        <ele>488.0</ele>
        <time>2014-07-30T11:00:43Z</time>
      </trkpt>
      <trkpt lat="43.1569980" lon="-7.8114680">
        <ele>488.8</ele>
        <time>2014-07-30T11:00:53Z</time>
      </trkpt>
      <trkpt lat="43.1567290" lon="-7.8117480">
        <ele>488.8</ele>
        <time>2014-07-30T11:01:02Z</time>
      </trkpt>
      <trkpt lat="43.1566910" lon="-7.8117760">
        <ele>488.8</ele>
        <time>2014-07-30T11:01:03Z</time>
      </trkpt>
      <trkpt lat="43.1565780" lon="-7.8118450">
        <ele>488.8</ele>
        <time>2014-07-30T11:01:06Z</time>
      </trkpt>
      <trkpt lat="43.1562100" lon="-7.8120610">
        <ele>488.8</ele>
        <time>2014-07-30T11:01:17Z</time>
      </trkpt>
      <trkpt lat="43.1561780" lon="-7.8120750">
        <ele>488.8</ele>
        <time>2014-07-30T11:01:18Z</time>
      </trkpt>
      <trkpt lat="43.1561460" lon="-7.8120860">
        <ele>488.8</ele>
        <time>2014-07-30T11:01:19Z</time>
      </trkpt>
      <trkpt lat="43.1561140" lon="-7.8121030">
        <ele>488.8</ele>
        <time>2014-07-30T11:01:20Z</time>
      </trkpt>
      <trkpt lat="43.1560820" lon="-7.8121260">
        <ele>488.8</ele>
        <time>2014-07-30T11:01:21Z</time>
      </trkpt>
      <trkpt lat="43.1560480" lon="-7.8121500">
        <ele>488.8</ele>
        <time>2014-07-30T11:01:22Z</time>
      </trkpt>
      <trkpt lat="43.1560150" lon="-7.8121750">
        <ele>488.8</ele>
        <time>2014-07-30T11:01:23Z</time>
      </trkpt>
      <trkpt lat="43.1559860" lon="-7.8121930">
        <ele>488.8</ele>
        <time>2014-07-30T11:01:24Z</time>
      </trkpt>
      <trkpt lat="43.1559610" lon="-7.8122160">
        <ele>488.8</ele>
        <time>2014-07-30T11:01:25Z</time>
      </trkpt>
      <trkpt lat="43.1559320" lon="-7.8122490">
        <ele>488.8</ele>
        <time>2014-07-30T11:01:26Z</time>
      </trkpt>
      <trkpt lat="43.1558460" lon="-7.8123580">
        <ele>488.8</ele>
        <time>2014-07-30T11:01:29Z</time>
      </trkpt>
      <trkpt lat="43.1555320" lon="-7.8127150">
        <ele>488.5</ele>
        <time>2014-07-30T11:01:39Z</time>
      </trkpt>
      <trkpt lat="43.1554960" lon="-7.8127540">
        <ele>488.5</ele>
        <time>2014-07-30T11:01:40Z</time>
      </trkpt>
      <trkpt lat="43.1554650" lon="-7.8127910">
        <ele>488.4</ele>
        <time>2014-07-30T11:01:41Z</time>
      </trkpt>
      <trkpt lat="43.1554360" lon="-7.8128260">
        <ele>488.4</ele>
        <time>2014-07-30T11:01:42Z</time>
      </trkpt>
      <trkpt lat="43.1554080" lon="-7.8128590">
        <ele>488.3</ele>
        <time>2014-07-30T11:01:43Z</time>
      </trkpt>
      <trkpt lat="43.1553760" lon="-7.8128980">
        <ele>488.1</ele>
        <time>2014-07-30T11:01:44Z</time>
      </trkpt>
      <trkpt lat="43.1553400" lon="-7.8129370">
        <ele>487.9</ele>
        <time>2014-07-30T11:01:45Z</time>
      </trkpt>
      <trkpt lat="43.1553020" lon="-7.8129670">
        <ele>487.7</ele>
        <time>2014-07-30T11:01:46Z</time>
      </trkpt>
      <trkpt lat="43.1552700" lon="-7.8129980">
        <ele>487.5</ele>
        <time>2014-07-30T11:01:47Z</time>
      </trkpt>
      <trkpt lat="43.1552380" lon="-7.8130340">
        <ele>487.4</ele>
        <time>2014-07-30T11:01:48Z</time>
      </trkpt>
      <trkpt lat="43.1552080" lon="-7.8130660">
        <ele>487.2</ele>
        <time>2014-07-30T11:01:49Z</time>
      </trkpt>
      <trkpt lat="43.1551790" lon="-7.8131070">
        <ele>487.2</ele>
        <time>2014-07-30T11:01:50Z</time>
      </trkpt>
      <trkpt lat="43.1551460" lon="-7.8131320">
        <ele>487.1</ele>
        <time>2014-07-30T11:01:51Z</time>
      </trkpt>
      <trkpt lat="43.1551160" lon="-7.8131560">
        <ele>487.1</ele>
        <time>2014-07-30T11:01:52Z</time>
      </trkpt>
      <trkpt lat="43.1550870" lon="-7.8131880">
        <ele>487.0</ele>
        <time>2014-07-30T11:01:53Z</time>
      </trkpt>
      <trkpt lat="43.1548980" lon="-7.8133130">
        <ele>486.9</ele>
        <time>2014-07-30T11:01:58Z</time>
      </trkpt>
      <trkpt lat="43.1544140" lon="-7.8136710">
        <ele>487.5</ele>
        <time>2014-07-30T11:02:11Z</time>
      </trkpt>
      <trkpt lat="43.1541370" lon="-7.8140020">
        <ele>487.8</ele>
        <time>2014-07-30T11:02:20Z</time>
      </trkpt>
      <trkpt lat="43.1539570" lon="-7.8143100">
        <ele>488.0</ele>
        <time>2014-07-30T11:02:28Z</time>
      </trkpt>
      <trkpt lat="43.1537750" lon="-7.8147300">
        <ele>488.3</ele>
        <time>2014-07-30T11:02:38Z</time>
      </trkpt>
      <trkpt lat="43.1535860" lon="-7.8149780">
        <ele>488.5</ele>
        <time>2014-07-30T11:02:45Z</time>
      </trkpt>
      <trkpt lat="43.1533090" lon="-7.8150070">
        <ele>488.6</ele>
        <time>2014-07-30T11:02:53Z</time>
      </trkpt>
      <trkpt lat="43.1532630" lon="-7.8150130">
        <ele>488.6</ele>
        <time>2014-07-30T11:02:54Z</time>
      </trkpt>
      <trkpt lat="43.1532200" lon="-7.8150140">
        <ele>488.6</ele>
        <time>2014-07-30T11:02:55Z</time>
      </trkpt>
      <trkpt lat="43.1531790" lon="-7.8150030">
        <ele>488.6</ele>
        <time>2014-07-30T11:02:56Z</time>
      </trkpt>
      <trkpt lat="43.1531380" lon="-7.8149910">
        <ele>488.6</ele>
        <time>2014-07-30T11:02:57Z</time>
      </trkpt>
      <trkpt lat="43.1527360" lon="-7.8149380">
        <ele>488.7</ele>
        <time>2014-07-30T11:03:07Z</time>
      </trkpt>
      <trkpt lat="43.1523250" lon="-7.8149520">
        <ele>488.4</ele>
        <time>2014-07-30T11:03:16Z</time>
      </trkpt>
      <trkpt lat="43.1522830" lon="-7.8149690">
        <ele>488.4</ele>
        <time>2014-07-30T11:03:17Z</time>
      </trkpt>
      <trkpt lat="43.1522430" lon="-7.8149830">
        <ele>488.3</ele>
        <time>2014-07-30T11:03:18Z</time>
      </trkpt>
      <trkpt lat="43.1522020" lon="-7.8149930">
        <ele>488.3</ele>
        <time>2014-07-30T11:03:19Z</time>
      </trkpt>
      <trkpt lat="43.1521610" lon="-7.8150020">
        <ele>488.2</ele>
        <time>2014-07-30T11:03:20Z</time>
      </trkpt>
      <trkpt lat="43.1521200" lon="-7.8150130">
        <ele>488.1</ele>
        <time>2014-07-30T11:03:21Z</time>
      </trkpt>
      <trkpt lat="43.1517200" lon="-7.8152250">
        <ele>487.5</ele>
        <time>2014-07-30T11:03:32Z</time>
      </trkpt>
      <trkpt lat="43.1516800" lon="-7.8152420">
        <ele>487.4</ele>
        <time>2014-07-30T11:03:33Z</time>
      </trkpt>
      <trkpt lat="43.1516420" lon="-7.8152650">
        <ele>487.3</ele>
        <time>2014-07-30T11:03:34Z</time>
      </trkpt>
      <trkpt lat="43.1516070" lon="-7.8152890">
        <ele>487.2</ele>
        <time>2014-07-30T11:03:35Z</time>
      </trkpt>
      <trkpt lat="43.1515740" lon="-7.8153110">
        <ele>487.2</ele>
        <time>2014-07-30T11:03:36Z</time>
      </trkpt>
      <trkpt lat="43.1515430" lon="-7.8153310">
        <ele>487.0</ele>
        <time>2014-07-30T11:03:37Z</time>
      </trkpt>
      <trkpt lat="43.1512130" lon="-7.8154450">
        <ele>486.4</ele>
        <time>2014-07-30T11:03:46Z</time>
      </trkpt>
      <trkpt lat="43.1509320" lon="-7.8155190">
        <ele>485.8</ele>
        <time>2014-07-30T11:03:53Z</time>
      </trkpt>
      <trkpt lat="43.1508910" lon="-7.8155260">
        <ele>485.7</ele>
        <time>2014-07-30T11:03:54Z</time>
      </trkpt>
      <trkpt lat="43.1508030" lon="-7.8155380">
        <ele>485.6</ele>
        <time>2014-07-30T11:03:56Z</time>
      </trkpt>
      <trkpt lat="43.1504370" lon="-7.8156250">
        <ele>485.1</ele>
        <time>2014-07-30T11:04:06Z</time>
      </trkpt>
      <trkpt lat="43.1500430" lon="-7.8156860">
        <ele>484.7</ele>
        <time>2014-07-30T11:04:17Z</time>
      </trkpt>
      <trkpt lat="43.1496050" lon="-7.8156490">
        <ele>483.9</ele>
        <time>2014-07-30T11:04:30Z</time>
      </trkpt>
      <trkpt lat="43.1492940" lon="-7.8155460">
        <ele>483.3</ele>
        <time>2014-07-30T11:04:39Z</time>
      </trkpt>
      <trkpt lat="43.1489170" lon="-7.8155800">
        <ele>482.5</ele>
        <time>2014-07-30T11:04:49Z</time>
      </trkpt>
      <trkpt lat="43.1484780" lon="-7.8155970">
        <ele>481.9</ele>
        <time>2014-07-30T11:05:00Z</time>
      </trkpt>
      <trkpt lat="43.1484340" lon="-7.8155970">
        <ele>481.8</ele>
        <time>2014-07-30T11:05:01Z</time>
      </trkpt>
      <trkpt lat="43.1483930" lon="-7.8156040">
        <ele>481.7</ele>
        <time>2014-07-30T11:05:02Z</time>
      </trkpt>
      <trkpt lat="43.1483530" lon="-7.8156110">
        <ele>481.6</ele>
        <time>2014-07-30T11:05:03Z</time>
      </trkpt>
      <trkpt lat="43.1483100" lon="-7.8156130">
        <ele>481.5</ele>
        <time>2014-07-30T11:05:04Z</time>
      </trkpt>
      <trkpt lat="43.1481280" lon="-7.8156220">
        <ele>481.1</ele>
        <time>2014-07-30T11:05:08Z</time>
      </trkpt>
      <trkpt lat="43.1480850" lon="-7.8156390">
        <ele>481.0</ele>
        <time>2014-07-30T11:05:09Z</time>
      </trkpt>
      <trkpt lat="43.1480430" lon="-7.8156670">
        <ele>480.9</ele>
        <time>2014-07-30T11:05:10Z</time>
      </trkpt>
      <trkpt lat="43.1480040" lon="-7.8157070">
        <ele>480.5</ele>
        <time>2014-07-30T11:05:11Z</time>
      </trkpt>
      <trkpt lat="43.1479740" lon="-7.8157540">
        <ele>480.3</ele>
        <time>2014-07-30T11:05:12Z</time>
      </trkpt>
      <trkpt lat="43.1479430" lon="-7.8158010">
        <ele>480.2</ele>
        <time>2014-07-30T11:05:13Z</time>
      </trkpt>
      <trkpt lat="43.1479120" lon="-7.8158500">
        <ele>480.0</ele>
        <time>2014-07-30T11:05:14Z</time>
      </trkpt>
      <trkpt lat="43.1478080" lon="-7.8160020">
        <ele>479.5</ele>
        <time>2014-07-30T11:05:17Z</time>
      </trkpt>
      <trkpt lat="43.1477730" lon="-7.8160580">
        <ele>479.4</ele>
        <time>2014-07-30T11:05:18Z</time>
      </trkpt>
      <trkpt lat="43.1476960" lon="-7.8161610">
        <ele>479.1</ele>
        <time>2014-07-30T11:05:20Z</time>
      </trkpt>
      <trkpt lat="43.1476510" lon="-7.8162070">
        <ele>479.0</ele>
        <time>2014-07-30T11:05:21Z</time>
      </trkpt>
      <trkpt lat="43.1474440" lon="-7.8163820">
        <ele>478.3</ele>
        <time>2014-07-30T11:05:25Z</time>
      </trkpt>
      <trkpt lat="43.1473930" lon="-7.8164280">
        <ele>478.2</ele>
        <time>2014-07-30T11:05:26Z</time>
      </trkpt>
      <trkpt lat="43.1473440" lon="-7.8164720">
        <ele>478.0</ele>
        <time>2014-07-30T11:05:27Z</time>
      </trkpt>
      <trkpt lat="43.1472490" lon="-7.8165660">
        <ele>477.8</ele>
        <time>2014-07-30T11:05:29Z</time>
      </trkpt>
      <trkpt lat="43.1472110" lon="-7.8166190">
        <ele>477.6</ele>
        <time>2014-07-30T11:05:30Z</time>
      </trkpt>
      <trkpt lat="43.1471800" lon="-7.8166790">
        <ele>477.5</ele>
        <time>2014-07-30T11:05:31Z</time>
      </trkpt>
      <trkpt lat="43.1471560" lon="-7.8167460">
        <ele>477.3</ele>
        <time>2014-07-30T11:05:32Z</time>
      </trkpt>
      <trkpt lat="43.1471340" lon="-7.8168170">
        <ele>477.2</ele>
        <time>2014-07-30T11:05:33Z</time>
      </trkpt>
      <trkpt lat="43.1471080" lon="-7.8169580">
        <ele>476.9</ele>
        <time>2014-07-30T11:05:35Z</time>
      </trkpt>
      <trkpt lat="43.1471050" lon="-7.8170280">
        <ele>476.7</ele>
        <time>2014-07-30T11:05:36Z</time>
      </trkpt>
      <trkpt lat="43.1471040" lon="-7.8170970">
        <ele>476.6</ele>
        <time>2014-07-30T11:05:37Z</time>
      </trkpt>
      <trkpt lat="43.1471040" lon="-7.8171640">
        <ele>476.4</ele>
        <time>2014-07-30T11:05:38Z</time>
      </trkpt>
      <trkpt lat="43.1471040" lon="-7.8172290">
        <ele>476.3</ele>
        <time>2014-07-30T11:05:39Z</time>
      </trkpt>
      <trkpt lat="43.1471070" lon="-7.8172930">
        <ele>476.1</ele>
        <time>2014-07-30T11:05:40Z</time>
      </trkpt>
      <trkpt lat="43.1471110" lon="-7.8173600">
        <ele>476.0</ele>
        <time>2014-07-30T11:05:41Z</time>
      </trkpt>
      <trkpt lat="43.1471160" lon="-7.8174270">
        <ele>475.8</ele>
        <time>2014-07-30T11:05:42Z</time>
      </trkpt>
      <trkpt lat="43.1471360" lon="-7.8177020">
        <ele>475.0</ele>
        <time>2014-07-30T11:05:46Z</time>
      </trkpt>
      <trkpt lat="43.1472360" lon="-7.8181750">
        <ele>473.0</ele>
        <time>2014-07-30T11:05:53Z</time>
      </trkpt>
      <trkpt lat="43.1473140" lon="-7.8185280">
        <ele>471.0</ele>
        <time>2014-07-30T11:05:58Z</time>
      </trkpt>
      <trkpt lat="43.1473130" lon="-7.8186010">
        <ele>470.6</ele>
        <time>2014-07-30T11:05:59Z</time>
      </trkpt>
      <trkpt lat="43.1472980" lon="-7.8186700">
        <ele>470.3</ele>
        <time>2014-07-30T11:06:00Z</time>
      </trkpt>
      <trkpt lat="43.1472700" lon="-7.8187270">
        <ele>470.0</ele>
        <time>2014-07-30T11:06:01Z</time>
      </trkpt>
      <trkpt lat="43.1472340" lon="-7.8187690">
        <ele>469.7</ele>
        <time>2014-07-30T11:06:02Z</time>
      </trkpt>
      <trkpt lat="43.1471940" lon="-7.8188080">
        <ele>469.3</ele>
        <time>2014-07-30T11:06:03Z</time>
      </trkpt>
      <trkpt lat="43.1470290" lon="-7.8190540">
        <ele>466.8</ele>
        <time>2014-07-30T11:06:09Z</time>
      </trkpt>
      <trkpt lat="43.1470010" lon="-7.8191010">
        <ele>466.4</ele>
        <time>2014-07-30T11:06:10Z</time>
      </trkpt>
      <trkpt lat="43.1469350" lon="-7.8192000">
        <ele>465.5</ele>
        <time>2014-07-30T11:06:12Z</time>
      </trkpt>
      <trkpt lat="43.1469090" lon="-7.8192570">
        <ele>465.0</ele>
        <time>2014-07-30T11:06:13Z</time>
      </trkpt>
      <trkpt lat="43.1468890" lon="-7.8193170">
        <ele>464.5</ele>
        <time>2014-07-30T11:06:14Z</time>
      </trkpt>
      <trkpt lat="43.1468460" lon="-7.8194360">
        <ele>463.6</ele>
        <time>2014-07-30T11:06:16Z</time>
      </trkpt>
      <trkpt lat="43.1468180" lon="-7.8194920">
        <ele>463.1</ele>
        <time>2014-07-30T11:06:17Z</time>
      </trkpt>
      <trkpt lat="43.1467900" lon="-7.8195490">
        <ele>462.5</ele>
        <time>2014-07-30T11:06:18Z</time>
      </trkpt>
      <trkpt lat="43.1467620" lon="-7.8196100">
        <ele>462.1</ele>
        <time>2014-07-30T11:06:19Z</time>
      </trkpt>
      <trkpt lat="43.1467400" lon="-7.8196800">
        <ele>461.7</ele>
        <time>2014-07-30T11:06:20Z</time>
      </trkpt>
      <trkpt lat="43.1467190" lon="-7.8197560">
        <ele>461.3</ele>
        <time>2014-07-30T11:06:21Z</time>
      </trkpt>
      <trkpt lat="43.1467050" lon="-7.8198260">
        <ele>460.9</ele>
        <time>2014-07-30T11:06:22Z</time>
      </trkpt>
      <trkpt lat="43.1466880" lon="-7.8198870">
        <ele>460.6</ele>
        <time>2014-07-30T11:06:23Z</time>
      </trkpt>
      <trkpt lat="43.1466580" lon="-7.8199410">
        <ele>460.2</ele>
        <time>2014-07-30T11:06:24Z</time>
      </trkpt>
      <trkpt lat="43.1461110" lon="-7.8209040">
        <ele>454.4</ele>
        <time>2014-07-30T11:06:37Z</time>
      </trkpt>
      <trkpt lat="43.1460650" lon="-7.8209630">
        <ele>454.1</ele>
        <time>2014-07-30T11:06:38Z</time>
      </trkpt>
      <trkpt lat="43.1460190" lon="-7.8210180">
        <ele>453.8</ele>
        <time>2014-07-30T11:06:39Z</time>
      </trkpt>
      <trkpt lat="43.1458730" lon="-7.8211350">
        <ele>453.5</ele>
        <time>2014-07-30T11:06:42Z</time>
      </trkpt>
      <trkpt lat="43.1456490" lon="-7.8212190">
        <ele>452.2</ele>
        <time>2014-07-30T11:06:46Z</time>
      </trkpt>
      <trkpt lat="43.1454800" lon="-7.8212890">
        <ele>451.3</ele>
        <time>2014-07-30T11:06:49Z</time>
      </trkpt>
      <trkpt lat="43.1454330" lon="-7.8213230">
        <ele>451.0</ele>
        <time>2014-07-30T11:06:50Z</time>
      </trkpt>
      <trkpt lat="43.1453960" lon="-7.8213690">
        <ele>450.8</ele>
        <time>2014-07-30T11:06:51Z</time>
      </trkpt>
      <trkpt lat="43.1453670" lon="-7.8214270">
        <ele>450.6</ele>
        <time>2014-07-30T11:06:52Z</time>
      </trkpt>
      <trkpt lat="43.1453410" lon="-7.8214910">
        <ele>450.4</ele>
        <time>2014-07-30T11:06:53Z</time>
      </trkpt>
      <trkpt lat="43.1453150" lon="-7.8215530">
        <ele>450.1</ele>
        <time>2014-07-30T11:06:54Z</time>
      </trkpt>
      <trkpt lat="43.1452850" lon="-7.8216100">
        <ele>449.8</ele>
        <time>2014-07-30T11:06:55Z</time>
      </trkpt>
      <trkpt lat="43.1452490" lon="-7.8216650">
        <ele>449.5</ele>
        <time>2014-07-30T11:06:56Z</time>
      </trkpt>
      <trkpt lat="43.1452100" lon="-7.8217210">
        <ele>449.2</ele>
        <time>2014-07-30T11:06:57Z</time>
      </trkpt>
      <trkpt lat="43.1451690" lon="-7.8217870">
        <ele>448.9</ele>
        <time>2014-07-30T11:06:58Z</time>
      </trkpt>
      <trkpt lat="43.1451370" lon="-7.8218680">
        <ele>448.6</ele>
        <time>2014-07-30T11:06:59Z</time>
      </trkpt>
      <trkpt lat="43.1451130" lon="-7.8219630">
        <ele>448.2</ele>
        <time>2014-07-30T11:07:00Z</time>
      </trkpt>
      <trkpt lat="43.1450890" lon="-7.8220610">
        <ele>447.9</ele>
        <time>2014-07-30T11:07:01Z</time>
      </trkpt>
      <trkpt lat="43.1450590" lon="-7.8221560">
        <ele>447.6</ele>
        <time>2014-07-30T11:07:02Z</time>
      </trkpt>
      <trkpt lat="43.1450260" lon="-7.8222490">
        <ele>447.2</ele>
        <time>2014-07-30T11:07:03Z</time>
      </trkpt>
      <trkpt lat="43.1450000" lon="-7.8223490">
        <ele>446.9</ele>
        <time>2014-07-30T11:07:04Z</time>
      </trkpt>
      <trkpt lat="43.1449910" lon="-7.8224520">
        <ele>446.5</ele>
        <time>2014-07-30T11:07:05Z</time>
      </trkpt>
      <trkpt lat="43.1449990" lon="-7.8225530">
        <ele>446.1</ele>
        <time>2014-07-30T11:07:06Z</time>
      </trkpt>
      <trkpt lat="43.1450110" lon="-7.8226570">
        <ele>445.7</ele>
        <time>2014-07-30T11:07:07Z</time>
      </trkpt>
      <trkpt lat="43.1450310" lon="-7.8227630">
        <ele>445.3</ele>
        <time>2014-07-30T11:07:08Z</time>
      </trkpt>
      <trkpt lat="43.1450590" lon="-7.8228600">
        <ele>444.9</ele>
        <time>2014-07-30T11:07:09Z</time>
      </trkpt>
      <trkpt lat="43.1450920" lon="-7.8229500">
        <ele>444.6</ele>
        <time>2014-07-30T11:07:10Z</time>
      </trkpt>
      <trkpt lat="43.1451460" lon="-7.8231260">
        <ele>444.3</ele>
        <time>2014-07-30T11:07:12Z</time>
      </trkpt>
      <trkpt lat="43.1451610" lon="-7.8232130">
        <ele>444.2</ele>
        <time>2014-07-30T11:07:13Z</time>
      </trkpt>
      <trkpt lat="43.1451610" lon="-7.8232990">
        <ele>444.2</ele>
        <time>2014-07-30T11:07:14Z</time>
      </trkpt>
      <trkpt lat="43.1451570" lon="-7.8233790">
        <ele>444.3</ele>
        <time>2014-07-30T11:07:15Z</time>
      </trkpt>
      <trkpt lat="43.1451480" lon="-7.8234500">
        <ele>444.3</ele>
        <time>2014-07-30T11:07:16Z</time>
      </trkpt>
      <trkpt lat="43.1451240" lon="-7.8235720">
        <ele>444.5</ele>
        <time>2014-07-30T11:07:18Z</time>
      </trkpt>
      <trkpt lat="43.1451060" lon="-7.8236220">
        <ele>444.5</ele>
        <time>2014-07-30T11:07:19Z</time>
      </trkpt>
      <trkpt lat="43.1450840" lon="-7.8236640">
        <ele>444.7</ele>
        <time>2014-07-30T11:07:20Z</time>
      </trkpt>
      <trkpt lat="43.1450580" lon="-7.8236970">
        <ele>444.9</ele>
        <time>2014-07-30T11:07:21Z</time>
      </trkpt>
      <trkpt lat="43.1450290" lon="-7.8237260">
        <ele>445.1</ele>
        <time>2014-07-30T11:07:22Z</time>
      </trkpt>
      <trkpt lat="43.1450040" lon="-7.8237540">
        <ele>445.3</ele>
        <time>2014-07-30T11:07:23Z</time>
      </trkpt>
      <trkpt lat="43.1449810" lon="-7.8237830">
        <ele>445.5</ele>
        <time>2014-07-30T11:07:24Z</time>
      </trkpt>
      <trkpt lat="43.1449590" lon="-7.8238050">
        <ele>445.7</ele>
        <time>2014-07-30T11:07:25Z</time>
      </trkpt>
      <trkpt lat="43.1447100" lon="-7.8239720">
        <ele>447.7</ele>
        <time>2014-07-30T11:07:37Z</time>
      </trkpt>
      <trkpt lat="43.1443820" lon="-7.8243170">
        <ele>450.8</ele>
        <time>2014-07-30T11:07:56Z</time>
      </trkpt>
      <trkpt lat="43.1441090" lon="-7.8244840">
        <ele>452.2</ele>
        <time>2014-07-30T11:08:11Z</time>
      </trkpt>
      <trkpt lat="43.1438300" lon="-7.8245580">
        <ele>453.1</ele>
        <time>2014-07-30T11:08:24Z</time>
      </trkpt>
      <trkpt lat="43.1434060" lon="-7.8244950">
        <ele>454.0</ele>
        <time>2014-07-30T11:08:40Z</time>
      </trkpt>
      <trkpt lat="43.1430670" lon="-7.8243270">
        <ele>455.7</ele>
        <time>2014-07-30T11:08:53Z</time>
      </trkpt>
      <trkpt lat="43.1427770" lon="-7.8242350">
        <ele>456.0</ele>
        <time>2014-07-30T11:09:03Z</time>
      </trkpt>
      <trkpt lat="43.1425130" lon="-7.8240270">
        <ele>456.1</ele>
        <time>2014-07-30T11:09:13Z</time>
      </trkpt>
      <trkpt lat="43.1422370" lon="-7.8238150">
        <ele>456.2</ele>
        <time>2014-07-30T11:09:23Z</time>
      </trkpt>
      <trkpt lat="43.1419230" lon="-7.8235020">
        <ele>456.7</ele>
        <time>2014-07-30T11:09:35Z</time>
      </trkpt>
      <trkpt lat="43.1416830" lon="-7.8233000">
        <ele>458.0</ele>
        <time>2014-07-30T11:09:45Z</time>
      </trkpt>
      <trkpt lat="43.1414490" lon="-7.8231390">
        <ele>458.7</ele>
        <time>2014-07-30T11:09:55Z</time>
      </trkpt>
      <trkpt lat="43.1411240" lon="-7.8230210">
        <ele>460.1</ele>
        <time>2014-07-30T11:10:07Z</time>
      </trkpt>
      <trkpt lat="43.1408290" lon="-7.8230350">
        <ele>461.2</ele>
        <time>2014-07-30T11:10:20Z</time>
      </trkpt>
      <trkpt lat="43.1404530" lon="-7.8229500">
        <ele>461.9</ele>
        <time>2014-07-30T11:10:32Z</time>
      </trkpt>
      <trkpt lat="43.1402120" lon="-7.8229210">
        <ele>460.3</ele>
        <time>2014-07-30T11:10:39Z</time>
      </trkpt>
      <trkpt lat="43.1401780" lon="-7.8229390">
        <ele>460.0</ele>
        <time>2014-07-30T11:10:40Z</time>
      </trkpt>
      <trkpt lat="43.1401430" lon="-7.8229590">
        <ele>459.9</ele>
        <time>2014-07-30T11:10:41Z</time>
      </trkpt>
      <trkpt lat="43.1398030" lon="-7.8231630">
        <ele>458.9</ele>
        <time>2014-07-30T11:10:50Z</time>
      </trkpt>
      <trkpt lat="43.1397210" lon="-7.8232090">
        <ele>458.8</ele>
        <time>2014-07-30T11:10:53Z</time>
      </trkpt>
      <trkpt lat="43.1397110" lon="-7.8232250">
        <ele>458.8</ele>
        <time>2014-07-30T11:10:54Z</time>
      </trkpt>
      <trkpt lat="43.1397010" lon="-7.8232350">
        <ele>458.7</ele>
        <time>2014-07-30T11:10:55Z</time>
      </trkpt>
      <trkpt lat="43.1396880" lon="-7.8232470">
        <ele>458.7</ele>
        <time>2014-07-30T11:10:56Z</time>
      </trkpt>
      <trkpt lat="43.1396670" lon="-7.8232590">
        <ele>458.6</ele>
        <time>2014-07-30T11:10:57Z</time>
      </trkpt>
      <trkpt lat="43.1396420" lon="-7.8232740">
        <ele>458.5</ele>
        <time>2014-07-30T11:10:58Z</time>
      </trkpt>
      <trkpt lat="43.1396180" lon="-7.8232920">
        <ele>458.4</ele>
        <time>2014-07-30T11:10:59Z</time>
      </trkpt>
      <trkpt lat="43.1395940" lon="-7.8233090">
        <ele>458.3</ele>
        <time>2014-07-30T11:11:00Z</time>
      </trkpt>
      <trkpt lat="43.1395660" lon="-7.8233200">
        <ele>458.2</ele>
        <time>2014-07-30T11:11:01Z</time>
      </trkpt>
      <trkpt lat="43.1395420" lon="-7.8233340">
        <ele>458.1</ele>
        <time>2014-07-30T11:11:02Z</time>
      </trkpt>
      <trkpt lat="43.1395170" lon="-7.8233500">
        <ele>458.0</ele>
        <time>2014-07-30T11:11:03Z</time>
      </trkpt>
      <trkpt lat="43.1394900" lon="-7.8233630">
        <ele>457.9</ele>
        <time>2014-07-30T11:11:04Z</time>
      </trkpt>
      <trkpt lat="43.1391610" lon="-7.8235570">
        <ele>456.4</ele>
        <time>2014-07-30T11:11:16Z</time>
      </trkpt>
      <trkpt lat="43.1388980" lon="-7.8237440">
        <ele>454.5</ele>
        <time>2014-07-30T11:11:24Z</time>
      </trkpt>
      <trkpt lat="43.1387630" lon="-7.8238050">
        <ele>453.1</ele>
        <time>2014-07-30T11:11:27Z</time>
      </trkpt>
      <trkpt lat="43.1386170" lon="-7.8239140">
        <ele>451.8</ele>
        <time>2014-07-30T11:11:31Z</time>
      </trkpt>
      <trkpt lat="43.1385860" lon="-7.8239510">
        <ele>451.5</ele>
        <time>2014-07-30T11:11:32Z</time>
      </trkpt>
      <trkpt lat="43.1383530" lon="-7.8241350">
        <ele>449.7</ele>
        <time>2014-07-30T11:11:39Z</time>
      </trkpt>
      <trkpt lat="43.1380320" lon="-7.8243890">
        <ele>446.7</ele>
        <time>2014-07-30T11:11:49Z</time>
      </trkpt>
      <trkpt lat="43.1376530" lon="-7.8244840">
        <ele>445.4</ele>
        <time>2014-07-30T11:12:01Z</time>
      </trkpt>
      <trkpt lat="43.1372440" lon="-7.8245120">
        <ele>445.1</ele>
        <time>2014-07-30T11:12:12Z</time>
      </trkpt>
      <trkpt lat="43.1371110" lon="-7.8244930">
        <ele>445.0</ele>
        <time>2014-07-30T11:12:15Z</time>
      </trkpt>
      <trkpt lat="43.1367550" lon="-7.8243630">
        <ele>444.1</ele>
        <time>2014-07-30T11:12:23Z</time>
      </trkpt>
      <trkpt lat="43.1367060" lon="-7.8243530">
        <ele>444.1</ele>
        <time>2014-07-30T11:12:24Z</time>
      </trkpt>
      <trkpt lat="43.1366550" lon="-7.8243360">
        <ele>444.2</ele>
        <time>2014-07-30T11:12:25Z</time>
      </trkpt>
      <trkpt lat="43.1365990" lon="-7.8243090">
        <ele>444.4</ele>
        <time>2014-07-30T11:12:26Z</time>
      </trkpt>
      <trkpt lat="43.1365430" lon="-7.8242880">
        <ele>444.5</ele>
        <time>2014-07-30T11:12:27Z</time>
      </trkpt>
      <trkpt lat="43.1364310" lon="-7.8242480">
        <ele>444.8</ele>
        <time>2014-07-30T11:12:29Z</time>
      </trkpt>
      <trkpt lat="43.1363750" lon="-7.8242260">
        <ele>444.9</ele>
        <time>2014-07-30T11:12:30Z</time>
      </trkpt>
      <trkpt lat="43.1358380" lon="-7.8240300">
        <ele>441.4</ele>
        <time>2014-07-30T11:12:38Z</time>
      </trkpt>
      <trkpt lat="43.1351980" lon="-7.8236830">
        <ele>441.1</ele>
        <time>2014-07-30T11:12:48Z</time>
      </trkpt>
      <trkpt lat="43.1348240" lon="-7.8234360">
        <ele>442.1</ele>
        <time>2014-07-30T11:12:59Z</time>
      </trkpt>
      <trkpt lat="43.1345870" lon="-7.8233530">
        <ele>443.0</ele>
        <time>2014-07-30T11:13:08Z</time>
      </trkpt>
      <trkpt lat="43.1344420" lon="-7.8233340">
        <ele>443.6</ele>
        <time>2014-07-30T11:13:13Z</time>
      </trkpt>
      <trkpt lat="43.1344120" lon="-7.8233330">
        <ele>443.7</ele>
        <time>2014-07-30T11:13:14Z</time>
      </trkpt>
      <trkpt lat="43.1343830" lon="-7.8233310">
        <ele>443.8</ele>
        <time>2014-07-30T11:13:15Z</time>
      </trkpt>
      <trkpt lat="43.1343570" lon="-7.8233320">
        <ele>443.9</ele>
        <time>2014-07-30T11:13:16Z</time>
      </trkpt>
      <trkpt lat="43.1343270" lon="-7.8233250">
        <ele>444.0</ele>
        <time>2014-07-30T11:13:17Z</time>
      </trkpt>
      <trkpt lat="43.1343010" lon="-7.8233190">
        <ele>444.1</ele>
        <time>2014-07-30T11:13:18Z</time>
      </trkpt>
      <trkpt lat="43.1342760" lon="-7.8233120">
        <ele>444.1</ele>
        <time>2014-07-30T11:13:19Z</time>
      </trkpt>
      <trkpt lat="43.1342450" lon="-7.8233050">
        <ele>444.3</ele>
        <time>2014-07-30T11:13:20Z</time>
      </trkpt>
      <trkpt lat="43.1342150" lon="-7.8233000">
        <ele>444.4</ele>
        <time>2014-07-30T11:13:21Z</time>
      </trkpt>
      <trkpt lat="43.1341870" lon="-7.8232960">
        <ele>444.4</ele>
        <time>2014-07-30T11:13:22Z</time>
      </trkpt>
      <trkpt lat="43.1341570" lon="-7.8232860">
        <ele>444.5</ele>
        <time>2014-07-30T11:13:23Z</time>
      </trkpt>
      <trkpt lat="43.1341240" lon="-7.8232720">
        <ele>444.7</ele>
        <time>2014-07-30T11:13:24Z</time>
      </trkpt>
      <trkpt lat="43.1340950" lon="-7.8232650">
        <ele>444.7</ele>
        <time>2014-07-30T11:13:25Z</time>
      </trkpt>
      <trkpt lat="43.1340710" lon="-7.8232560">
        <ele>444.8</ele>
        <time>2014-07-30T11:13:26Z</time>
      </trkpt>
      <trkpt lat="43.1340440" lon="-7.8232470">
        <ele>444.9</ele>
        <time>2014-07-30T11:13:27Z</time>
      </trkpt>
      <trkpt lat="43.1340160" lon="-7.8232340">
        <ele>445.0</ele>
        <time>2014-07-30T11:13:28Z</time>
      </trkpt>
      <trkpt lat="43.1339840" lon="-7.8232200">
        <ele>445.2</ele>
        <time>2014-07-30T11:13:29Z</time>
      </trkpt>
      <trkpt lat="43.1338490" lon="-7.8231810">
        <ele>446.3</ele>
        <time>2014-07-30T11:13:34Z</time>
      </trkpt>
      <trkpt lat="43.1338280" lon="-7.8231790">
        <ele>446.4</ele>
        <time>2014-07-30T11:13:35Z</time>
      </trkpt>
      <trkpt lat="43.1338050" lon="-7.8231730">
        <ele>446.6</ele>
        <time>2014-07-30T11:13:36Z</time>
      </trkpt>
      <trkpt lat="43.1337800" lon="-7.8231640">
        <ele>446.8</ele>
        <time>2014-07-30T11:13:37Z</time>
      </trkpt>
      <trkpt lat="43.1337540" lon="-7.8231460">
        <ele>447.0</ele>
        <time>2014-07-30T11:13:38Z</time>
      </trkpt>
      <trkpt lat="43.1337260" lon="-7.8231230">
        <ele>447.2</ele>
        <time>2014-07-30T11:13:39Z</time>
      </trkpt>
      <trkpt lat="43.1336960" lon="-7.8231020">
        <ele>447.5</ele>
        <time>2014-07-30T11:13:40Z</time>
      </trkpt>
      <trkpt lat="43.1336680" lon="-7.8230880">
        <ele>447.8</ele>
        <time>2014-07-30T11:13:41Z</time>
      </trkpt>
      <trkpt lat="43.1335620" lon="-7.8230180">
        <ele>448.7</ele>
        <time>2014-07-30T11:13:45Z</time>
      </trkpt>
      <trkpt lat="43.1333230" lon="-7.8228240">
        <ele>449.9</ele>
        <time>2014-07-30T11:13:53Z</time>
      </trkpt>
      <trkpt lat="43.1332010" lon="-7.8227660">
        <ele>450.2</ele>
        <time>2014-07-30T11:13:58Z</time>
      </trkpt>
      <trkpt lat="43.1331830" lon="-7.8227620">
        <ele>450.3</ele>
        <time>2014-07-30T11:14:12Z</time>
      </trkpt>
      <trkpt lat="43.1331630" lon="-7.8227530">
        <ele>450.4</ele>
        <time>2014-07-30T11:14:34Z</time>
      </trkpt>
      <trkpt lat="43.1331630" lon="-7.8227530">
        <ele>450.4</ele>
        <time>2014-07-30T11:14:36Z</time>
      </trkpt>
      <trkpt lat="43.1331490" lon="-7.8227290">
        <ele>450.3</ele>
        <time>2014-07-30T11:14:37Z</time>
      </trkpt>
      <trkpt lat="43.1331330" lon="-7.8227050">
        <ele>450.3</ele>
        <time>2014-07-30T11:14:38Z</time>
      </trkpt>
      <trkpt lat="43.1331100" lon="-7.8226820">
        <ele>450.3</ele>
        <time>2014-07-30T11:14:39Z</time>
      </trkpt>
      <trkpt lat="43.1330880" lon="-7.8226710">
        <ele>450.3</ele>
        <time>2014-07-30T11:14:40Z</time>
      </trkpt>
      <trkpt lat="43.1330610" lon="-7.8226570">
        <ele>450.2</ele>
        <time>2014-07-30T11:14:41Z</time>
      </trkpt>
      <trkpt lat="43.1330320" lon="-7.8226380">
        <ele>450.2</ele>
        <time>2014-07-30T11:14:42Z</time>
      </trkpt>
      <trkpt lat="43.1330060" lon="-7.8226240">
        <ele>450.2</ele>
        <time>2014-07-30T11:14:43Z</time>
      </trkpt>
      <trkpt lat="43.1329810" lon="-7.8226140">
        <ele>450.1</ele>
        <time>2014-07-30T11:14:44Z</time>
      </trkpt>
      <trkpt lat="43.1329540" lon="-7.8226070">
        <ele>450.1</ele>
        <time>2014-07-30T11:14:45Z</time>
      </trkpt>
      <trkpt lat="43.1325630" lon="-7.8225190">
        <ele>449.8</ele>
        <time>2014-07-30T11:14:57Z</time>
      </trkpt>
      <trkpt lat="43.1322030" lon="-7.8223720">
        <ele>449.4</ele>
        <time>2014-07-30T11:15:08Z</time>
      </trkpt>
      <trkpt lat="43.1319110" lon="-7.8223190">
        <ele>449.3</ele>
        <time>2014-07-30T11:15:17Z</time>
      </trkpt>
      <trkpt lat="43.1317300" lon="-7.8223040">
        <ele>449.5</ele>
        <time>2014-07-30T11:15:23Z</time>
      </trkpt>
      <trkpt lat="43.1317020" lon="-7.8222810">
        <ele>449.5</ele>
        <time>2014-07-30T11:15:24Z</time>
      </trkpt>
      <trkpt lat="43.1316730" lon="-7.8222520">
        <ele>449.5</ele>
        <time>2014-07-30T11:15:25Z</time>
      </trkpt>
      <trkpt lat="43.1316470" lon="-7.8222210">
        <ele>449.5</ele>
        <time>2014-07-30T11:15:26Z</time>
      </trkpt>
      <trkpt lat="43.1316210" lon="-7.8221870">
        <ele>449.6</ele>
        <time>2014-07-30T11:15:27Z</time>
      </trkpt>
      <trkpt lat="43.1314220" lon="-7.8219620">
        <ele>450.1</ele>
        <time>2014-07-30T11:15:37Z</time>
      </trkpt>
      <trkpt lat="43.1313990" lon="-7.8219330">
        <ele>450.2</ele>
        <time>2014-07-30T11:15:38Z</time>
      </trkpt>
      <trkpt lat="43.1313800" lon="-7.8219130">
        <ele>450.4</ele>
        <time>2014-07-30T11:15:39Z</time>
      </trkpt>
      <trkpt lat="43.1313080" lon="-7.8217340">
        <ele>451.5</ele>
        <time>2014-07-30T11:15:46Z</time>
      </trkpt>
      <trkpt lat="43.1313130" lon="-7.8216770">
        <ele>451.8</ele>
        <time>2014-07-30T11:15:48Z</time>
      </trkpt>
      <trkpt lat="43.1313130" lon="-7.8216560">
        <ele>451.9</ele>
        <time>2014-07-30T11:15:49Z</time>
      </trkpt>
      <trkpt lat="43.1313120" lon="-7.8216370">
        <ele>452.0</ele>
        <time>2014-07-30T11:15:50Z</time>
      </trkpt>
      <trkpt lat="43.1313000" lon="-7.8216000">
        <ele>452.2</ele>
        <time>2014-07-30T11:15:51Z</time>
      </trkpt>
      <trkpt lat="43.1313020" lon="-7.8215710">
        <ele>452.3</ele>
        <time>2014-07-30T11:15:52Z</time>
      </trkpt>
      <trkpt lat="43.1313030" lon="-7.8215390">
        <ele>452.5</ele>
        <time>2014-07-30T11:15:53Z</time>
      </trkpt>
      <trkpt lat="43.1313070" lon="-7.8215120">
        <ele>452.6</ele>
        <time>2014-07-30T11:15:54Z</time>
      </trkpt>
      <trkpt lat="43.1313140" lon="-7.8214860">
        <ele>452.7</ele>
        <time>2014-07-30T11:15:55Z</time>
      </trkpt>
      <trkpt lat="43.1313470" lon="-7.8213770">
        <ele>453.3</ele>
        <time>2014-07-30T11:15:59Z</time>
      </trkpt>
      <trkpt lat="43.1313500" lon="-7.8213520">
        <ele>453.4</ele>
        <time>2014-07-30T11:16:00Z</time>
      </trkpt>
      <trkpt lat="43.1313560" lon="-7.8213290">
        <ele>453.5</ele>
        <time>2014-07-30T11:16:01Z</time>
      </trkpt>
      <trkpt lat="43.1313520" lon="-7.8213030">
        <ele>453.6</ele>
        <time>2014-07-30T11:16:02Z</time>
      </trkpt>
      <trkpt lat="43.1313450" lon="-7.8212760">
        <ele>453.7</ele>
        <time>2014-07-30T11:16:03Z</time>
      </trkpt>
      <trkpt lat="43.1314120" lon="-7.8209320">
        <ele>454.9</ele>
        <time>2014-07-30T11:16:15Z</time>
      </trkpt>
      <trkpt lat="43.1314690" lon="-7.8207720">
        <ele>455.5</ele>
        <time>2014-07-30T11:16:20Z</time>
      </trkpt>
      <trkpt lat="43.1316250" lon="-7.8202970">
        <ele>456.9</ele>
        <time>2014-07-30T11:16:36Z</time>
      </trkpt>
      <trkpt lat="43.1318800" lon="-7.8198710">
        <ele>457.7</ele>
        <time>2014-07-30T11:16:50Z</time>
      </trkpt>
      <trkpt lat="43.1319600" lon="-7.8194350">
        <ele>459.3</ele>
        <time>2014-07-30T11:17:03Z</time>
      </trkpt>
      <trkpt lat="43.1321950" lon="-7.8189050">
        <ele>460.0</ele>
        <time>2014-07-30T11:17:19Z</time>
      </trkpt>
      <trkpt lat="43.1323320" lon="-7.8183450">
        <ele>461.9</ele>
        <time>2014-07-30T11:17:33Z</time>
      </trkpt>
      <trkpt lat="43.1323470" lon="-7.8178820">
        <ele>462.6</ele>
        <time>2014-07-30T11:17:44Z</time>
      </trkpt>
      <trkpt lat="43.1323410" lon="-7.8172460">
        <ele>463.2</ele>
        <time>2014-07-30T11:17:56Z</time>
      </trkpt>
      <trkpt lat="43.1324100" lon="-7.8166090">
        <ele>464.5</ele>
        <time>2014-07-30T11:18:10Z</time>
      </trkpt>
      <trkpt lat="43.1323990" lon="-7.8159390">
        <ele>465.0</ele>
        <time>2014-07-30T11:18:24Z</time>
      </trkpt>
      <trkpt lat="43.1324760" lon="-7.8155900">
        <ele>465.4</ele>
        <time>2014-07-30T11:18:32Z</time>
      </trkpt>
      <trkpt lat="43.1326290" lon="-7.8151690">
        <ele>466.0</ele>
        <time>2014-07-30T11:18:41Z</time>
      </trkpt>
      <trkpt lat="43.1326630" lon="-7.8150510">
        <ele>466.2</ele>
        <time>2014-07-30T11:18:43Z</time>
      </trkpt>
      <trkpt lat="43.1326930" lon="-7.8148880">
        <ele>466.5</ele>
        <time>2014-07-30T11:18:46Z</time>
      </trkpt>
      <trkpt lat="43.1326720" lon="-7.8148450">
        <ele>466.6</ele>
        <time>2014-07-30T11:18:47Z</time>
      </trkpt>
      <trkpt lat="43.1326490" lon="-7.8148120">
        <ele>466.7</ele>
        <time>2014-07-30T11:18:48Z</time>
      </trkpt>
      <trkpt lat="43.1323200" lon="-7.8146440">
        <ele>467.6</ele>
        <time>2014-07-30T11:19:01Z</time>
      </trkpt>
      <trkpt lat="43.1322880" lon="-7.8146440">
        <ele>467.6</ele>
        <time>2014-07-30T11:19:13Z</time>
      </trkpt>
      <trkpt lat="43.1322880" lon="-7.8146440">
        <ele>467.6</ele>
        <time>2014-07-30T11:19:37Z</time>
      </trkpt>
      <trkpt lat="43.1322910" lon="-7.8146410">
        <ele>467.7</ele>
        <time>2014-07-30T11:20:08Z</time>
      </trkpt>
      <trkpt lat="43.1322840" lon="-7.8146300">
        <ele>467.7</ele>
        <time>2014-07-30T11:20:25Z</time>
      </trkpt>
      <trkpt lat="43.1322730" lon="-7.8146180">
        <ele>467.7</ele>
        <time>2014-07-30T11:20:26Z</time>
      </trkpt>
      <trkpt lat="43.1322590" lon="-7.8146110">
        <ele>467.7</ele>
        <time>2014-07-30T11:20:27Z</time>
      </trkpt>
      <trkpt lat="43.1322410" lon="-7.8146110">
        <ele>467.7</ele>
        <time>2014-07-30T11:20:28Z</time>
      </trkpt>
      <trkpt lat="43.1322210" lon="-7.8146080">
        <ele>467.8</ele>
        <time>2014-07-30T11:20:29Z</time>
      </trkpt>
      <trkpt lat="43.1322030" lon="-7.8146040">
        <ele>467.8</ele>
        <time>2014-07-30T11:20:30Z</time>
      </trkpt>
      <trkpt lat="43.1321830" lon="-7.8146030">
        <ele>467.8</ele>
        <time>2014-07-30T11:20:31Z</time>
      </trkpt>
      <trkpt lat="43.1318310" lon="-7.8144630">
        <ele>467.8</ele>
        <time>2014-07-30T11:20:44Z</time>
      </trkpt>
      <trkpt lat="43.1314420" lon="-7.8143870">
        <ele>466.6</ele>
        <time>2014-07-30T11:20:54Z</time>
      </trkpt>
      <trkpt lat="43.1311960" lon="-7.8142910">
        <ele>465.2</ele>
        <time>2014-07-30T11:20:58Z</time>
      </trkpt>
      <trkpt lat="43.1311420" lon="-7.8142500">
        <ele>464.9</ele>
        <time>2014-07-30T11:20:59Z</time>
      </trkpt>
      <trkpt lat="43.1310950" lon="-7.8141930">
        <ele>464.6</ele>
        <time>2014-07-30T11:21:00Z</time>
      </trkpt>
      <trkpt lat="43.1310570" lon="-7.8141220">
        <ele>464.3</ele>
        <time>2014-07-30T11:21:01Z</time>
      </trkpt>
      <trkpt lat="43.1310230" lon="-7.8140400">
        <ele>463.9</ele>
        <time>2014-07-30T11:21:02Z</time>
      </trkpt>
      <trkpt lat="43.1309930" lon="-7.8139520">
        <ele>463.6</ele>
        <time>2014-07-30T11:21:03Z</time>
      </trkpt>
      <trkpt lat="43.1309610" lon="-7.8138590">
        <ele>463.0</ele>
        <time>2014-07-30T11:21:04Z</time>
      </trkpt>
      <trkpt lat="43.1308640" lon="-7.8136150">
        <ele>461.5</ele>
        <time>2014-07-30T11:21:07Z</time>
      </trkpt>
      <trkpt lat="43.1307860" lon="-7.8134910">
        <ele>460.8</ele>
        <time>2014-07-30T11:21:09Z</time>
      </trkpt>
      <trkpt lat="43.1307460" lon="-7.8134560">
        <ele>460.6</ele>
        <time>2014-07-30T11:21:10Z</time>
      </trkpt>
      <trkpt lat="43.1307110" lon="-7.8134380">
        <ele>460.4</ele>
        <time>2014-07-30T11:21:11Z</time>
      </trkpt>
      <trkpt lat="43.1306670" lon="-7.8134130">
        <ele>460.1</ele>
        <time>2014-07-30T11:21:12Z</time>
      </trkpt>
      <trkpt lat="43.1306130" lon="-7.8133790">
        <ele>459.8</ele>
        <time>2014-07-30T11:21:13Z</time>
      </trkpt>
      <trkpt lat="43.1305590" lon="-7.8133500">
        <ele>459.6</ele>
        <time>2014-07-30T11:21:14Z</time>
      </trkpt>
      <trkpt lat="43.1304120" lon="-7.8132780">
        <ele>459.2</ele>
        <time>2014-07-30T11:21:17Z</time>
      </trkpt>
      <trkpt lat="43.1303660" lon="-7.8132500">
        <ele>459.1</ele>
        <time>2014-07-30T11:21:18Z</time>
      </trkpt>
      <trkpt lat="43.1303230" lon="-7.8132290">
        <ele>459.0</ele>
        <time>2014-07-30T11:21:19Z</time>
      </trkpt>
      <trkpt lat="43.1302800" lon="-7.8132110">
        <ele>458.9</ele>
        <time>2014-07-30T11:21:20Z</time>
      </trkpt>
      <trkpt lat="43.1302410" lon="-7.8131980">
        <ele>458.9</ele>
        <time>2014-07-30T11:21:21Z</time>
      </trkpt>
      <trkpt lat="43.1302050" lon="-7.8131860">
        <ele>458.9</ele>
        <time>2014-07-30T11:21:22Z</time>
      </trkpt>
      <trkpt lat="43.1301660" lon="-7.8131740">
        <ele>458.9</ele>
        <time>2014-07-30T11:21:23Z</time>
      </trkpt>
      <trkpt lat="43.1301290" lon="-7.8131650">
        <ele>458.9</ele>
        <time>2014-07-30T11:21:24Z</time>
      </trkpt>
      <trkpt lat="43.1300920" lon="-7.8131550">
        <ele>458.9</ele>
        <time>2014-07-30T11:21:25Z</time>
      </trkpt>
      <trkpt lat="43.1300460" lon="-7.8131380">
        <ele>458.9</ele>
        <time>2014-07-30T11:21:26Z</time>
      </trkpt>
      <trkpt lat="43.1298940" lon="-7.8131040">
        <ele>458.9</ele>
        <time>2014-07-30T11:21:30Z</time>
      </trkpt>
      <trkpt lat="43.1298750" lon="-7.8131120">
        <ele>459.0</ele>
        <time>2014-07-30T11:21:31Z</time>
      </trkpt>
      <trkpt lat="43.1298520" lon="-7.8131130">
        <ele>459.0</ele>
        <time>2014-07-30T11:21:32Z</time>
      </trkpt>
      <trkpt lat="43.1298290" lon="-7.8131160">
        <ele>459.1</ele>
        <time>2014-07-30T11:21:33Z</time>
      </trkpt>
      <trkpt lat="43.1298140" lon="-7.8131270">
        <ele>459.1</ele>
        <time>2014-07-30T11:21:34Z</time>
      </trkpt>
      <trkpt lat="43.1297920" lon="-7.8131250">
        <ele>459.2</ele>
        <time>2014-07-30T11:21:35Z</time>
      </trkpt>
      <trkpt lat="43.1297690" lon="-7.8131240">
        <ele>459.2</ele>
        <time>2014-07-30T11:21:36Z</time>
      </trkpt>
      <trkpt lat="43.1297490" lon="-7.8131250">
        <ele>459.3</ele>
        <time>2014-07-30T11:21:37Z</time>
      </trkpt>
      <trkpt lat="43.1296230" lon="-7.8131150">
        <ele>459.9</ele>
        <time>2014-07-30T11:21:43Z</time>
      </trkpt>
      <trkpt lat="43.1295540" lon="-7.8131160">
        <ele>460.3</ele>
        <time>2014-07-30T11:21:47Z</time>
      </trkpt>
      <trkpt lat="43.1293950" lon="-7.8130770">
        <ele>461.5</ele>
        <time>2014-07-30T11:21:56Z</time>
      </trkpt>
      <trkpt lat="43.1293160" lon="-7.8130710">
        <ele>462.1</ele>
        <time>2014-07-30T11:22:00Z</time>
      </trkpt>
      <trkpt lat="43.1292440" lon="-7.8130510">
        <ele>462.6</ele>
        <time>2014-07-30T11:22:04Z</time>
      </trkpt>
      <trkpt lat="43.1290400" lon="-7.8129870">
        <ele>463.5</ele>
        <time>2014-07-30T11:22:16Z</time>
      </trkpt>
      <trkpt lat="43.1290250" lon="-7.8129870">
        <ele>463.6</ele>
        <time>2014-07-30T11:22:17Z</time>
      </trkpt>
      <trkpt lat="43.1287170" lon="-7.8128560">
        <ele>464.3</ele>
        <time>2014-07-30T11:22:29Z</time>
      </trkpt>
      <trkpt lat="43.1286650" lon="-7.8128500">
        <ele>464.4</ele>
        <time>2014-07-30T11:22:31Z</time>
      </trkpt>
      <trkpt lat="43.1283150" lon="-7.8127680">
        <ele>464.5</ele>
        <time>2014-07-30T11:22:43Z</time>
      </trkpt>
      <trkpt lat="43.1279420" lon="-7.8127060">
        <ele>463.9</ele>
        <time>2014-07-30T11:22:55Z</time>
      </trkpt>
      <trkpt lat="43.1278730" lon="-7.8126750">
        <ele>463.8</ele>
        <time>2014-07-30T11:22:58Z</time>
      </trkpt>
      <trkpt lat="43.1277080" lon="-7.8127240">
        <ele>463.3</ele>
        <time>2014-07-30T11:23:04Z</time>
      </trkpt>
      <trkpt lat="43.1275220" lon="-7.8128830">
        <ele>462.0</ele>
        <time>2014-07-30T11:23:11Z</time>
      </trkpt>
      <trkpt lat="43.1274890" lon="-7.8129160">
        <ele>461.8</ele>
        <time>2014-07-30T11:23:12Z</time>
      </trkpt>
      <trkpt lat="43.1274190" lon="-7.8130190">
        <ele>461.1</ele>
        <time>2014-07-30T11:23:13Z</time>
      </trkpt>
      <trkpt lat="43.1272020" lon="-7.8135330">
        <ele>458.5</ele>
        <time>2014-07-30T11:23:20Z</time>
      </trkpt>
      <trkpt lat="43.1271700" lon="-7.8136140">
        <ele>458.0</ele>
        <time>2014-07-30T11:23:21Z</time>
      </trkpt>
      <trkpt lat="43.1271390" lon="-7.8136990">
        <ele>457.6</ele>
        <time>2014-07-30T11:23:22Z</time>
      </trkpt>
      <trkpt lat="43.1270780" lon="-7.8138660">
        <ele>456.6</ele>
        <time>2014-07-30T11:23:24Z</time>
      </trkpt>
      <trkpt lat="43.1269950" lon="-7.8140200">
        <ele>455.4</ele>
        <time>2014-07-30T11:23:26Z</time>
      </trkpt>
      <trkpt lat="43.1269500" lon="-7.8140960">
        <ele>455.0</ele>
        <time>2014-07-30T11:23:27Z</time>
      </trkpt>
      <trkpt lat="43.1268670" lon="-7.8142350">
        <ele>454.2</ele>
        <time>2014-07-30T11:23:29Z</time>
      </trkpt>
      <trkpt lat="43.1268200" lon="-7.8143070">
        <ele>453.8</ele>
        <time>2014-07-30T11:23:30Z</time>
      </trkpt>
      <trkpt lat="43.1267640" lon="-7.8143870">
        <ele>453.3</ele>
        <time>2014-07-30T11:23:31Z</time>
      </trkpt>
      <trkpt lat="43.1266980" lon="-7.8144770">
        <ele>452.8</ele>
        <time>2014-07-30T11:23:32Z</time>
      </trkpt>
      <trkpt lat="43.1266320" lon="-7.8145730">
        <ele>452.2</ele>
        <time>2014-07-30T11:23:33Z</time>
      </trkpt>
      <trkpt lat="43.1265720" lon="-7.8146700">
        <ele>451.7</ele>
        <time>2014-07-30T11:23:34Z</time>
      </trkpt>
      <trkpt lat="43.1264790" lon="-7.8148590">
        <ele>450.8</ele>
        <time>2014-07-30T11:23:36Z</time>
      </trkpt>
      <trkpt lat="43.1264300" lon="-7.8149370">
        <ele>450.4</ele>
        <time>2014-07-30T11:23:37Z</time>
      </trkpt>
      <trkpt lat="43.1263680" lon="-7.8149930">
        <ele>450.0</ele>
        <time>2014-07-30T11:23:38Z</time>
      </trkpt>
      <trkpt lat="43.1263010" lon="-7.8150450">
        <ele>449.6</ele>
        <time>2014-07-30T11:23:39Z</time>
      </trkpt>
      <trkpt lat="43.1262370" lon="-7.8151030">
        <ele>449.2</ele>
        <time>2014-07-30T11:23:40Z</time>
      </trkpt>
      <trkpt lat="43.1261750" lon="-7.8151510">
        <ele>448.9</ele>
        <time>2014-07-30T11:23:41Z</time>
      </trkpt>
      <trkpt lat="43.1261070" lon="-7.8151870">
        <ele>448.6</ele>
        <time>2014-07-30T11:23:42Z</time>
      </trkpt>
      <trkpt lat="43.1257580" lon="-7.8153180">
        <ele>447.3</ele>
        <time>2014-07-30T11:23:47Z</time>
      </trkpt>
      <trkpt lat="43.1257030" lon="-7.8153380">
        <ele>447.1</ele>
        <time>2014-07-30T11:23:48Z</time>
      </trkpt>
      <trkpt lat="43.1256500" lon="-7.8153610">
        <ele>446.9</ele>
        <time>2014-07-30T11:23:49Z</time>
      </trkpt>
      <trkpt lat="43.1255350" lon="-7.8153950">
        <ele>446.6</ele>
        <time>2014-07-30T11:23:51Z</time>
      </trkpt>
      <trkpt lat="43.1254680" lon="-7.8153980">
        <ele>446.4</ele>
        <time>2014-07-30T11:23:52Z</time>
      </trkpt>
      <trkpt lat="43.1254060" lon="-7.8154030">
        <ele>446.3</ele>
        <time>2014-07-30T11:23:53Z</time>
      </trkpt>
      <trkpt lat="43.1252950" lon="-7.8154200">
        <ele>446.0</ele>
        <time>2014-07-30T11:23:55Z</time>
      </trkpt>
      <trkpt lat="43.1252230" lon="-7.8154130">
        <ele>445.9</ele>
        <time>2014-07-30T11:23:56Z</time>
      </trkpt>
      <trkpt lat="43.1250660" lon="-7.8153710">
        <ele>445.7</ele>
        <time>2014-07-30T11:23:58Z</time>
      </trkpt>
      <trkpt lat="43.1244230" lon="-7.8153680">
        <ele>444.5</ele>
        <time>2014-07-30T11:24:07Z</time>
      </trkpt>
      <trkpt lat="43.1243620" lon="-7.8153740">
        <ele>444.3</ele>
        <time>2014-07-30T11:24:08Z</time>
      </trkpt>
      <trkpt lat="43.1241760" lon="-7.8154100">
        <ele>444.0</ele>
        <time>2014-07-30T11:24:11Z</time>
      </trkpt>
      <trkpt lat="43.1241150" lon="-7.8154220">
        <ele>443.9</ele>
        <time>2014-07-30T11:24:12Z</time>
      </trkpt>
      <trkpt lat="43.1240560" lon="-7.8154450">
        <ele>443.8</ele>
        <time>2014-07-30T11:24:13Z</time>
      </trkpt>
      <trkpt lat="43.1239980" lon="-7.8154730">
        <ele>443.7</ele>
        <time>2014-07-30T11:24:14Z</time>
      </trkpt>
      <trkpt lat="43.1239410" lon="-7.8154970">
        <ele>443.6</ele>
        <time>2014-07-30T11:24:15Z</time>
      </trkpt>
      <trkpt lat="43.1238850" lon="-7.8155240">
        <ele>443.6</ele>
        <time>2014-07-30T11:24:16Z</time>
      </trkpt>
      <trkpt lat="43.1238250" lon="-7.8155450">
        <ele>443.5</ele>
        <time>2014-07-30T11:24:17Z</time>
      </trkpt>
      <trkpt lat="43.1237630" lon="-7.8155640">
        <ele>443.4</ele>
        <time>2014-07-30T11:24:18Z</time>
      </trkpt>
      <trkpt lat="43.1235890" lon="-7.8156350">
        <ele>443.2</ele>
        <time>2014-07-30T11:24:21Z</time>
      </trkpt>
      <trkpt lat="43.1235350" lon="-7.8156660">
        <ele>443.1</ele>
        <time>2014-07-30T11:24:22Z</time>
      </trkpt>
      <trkpt lat="43.1234840" lon="-7.8157040">
        <ele>443.0</ele>
        <time>2014-07-30T11:24:23Z</time>
      </trkpt>
      <trkpt lat="43.1234400" lon="-7.8157540">
        <ele>442.7</ele>
        <time>2014-07-30T11:24:24Z</time>
      </trkpt>
      <trkpt lat="43.1234050" lon="-7.8158070">
        <ele>442.6</ele>
        <time>2014-07-30T11:24:25Z</time>
      </trkpt>
      <trkpt lat="43.1233670" lon="-7.8158640">
        <ele>442.4</ele>
        <time>2014-07-30T11:24:26Z</time>
      </trkpt>
      <trkpt lat="43.1233230" lon="-7.8159200">
        <ele>442.3</ele>
        <time>2014-07-30T11:24:27Z</time>
      </trkpt>
      <trkpt lat="43.1232800" lon="-7.8159720">
        <ele>442.3</ele>
        <time>2014-07-30T11:24:28Z</time>
      </trkpt>
      <trkpt lat="43.1232390" lon="-7.8160150">
        <ele>442.2</ele>
        <time>2014-07-30T11:24:29Z</time>
      </trkpt>
      <trkpt lat="43.1231970" lon="-7.8160440">
        <ele>442.2</ele>
        <time>2014-07-30T11:24:30Z</time>
      </trkpt>
      <trkpt lat="43.1231540" lon="-7.8160590">
        <ele>442.2</ele>
        <time>2014-07-30T11:24:31Z</time>
      </trkpt>
      <trkpt lat="43.1231100" lon="-7.8160670">
        <ele>442.2</ele>
        <time>2014-07-30T11:24:32Z</time>
      </trkpt>
      <trkpt lat="43.1230720" lon="-7.8160770">
        <ele>442.2</ele>
        <time>2014-07-30T11:24:33Z</time>
      </trkpt>
      <trkpt lat="43.1230360" lon="-7.8160860">
        <ele>442.2</ele>
        <time>2014-07-30T11:24:34Z</time>
      </trkpt>
      <trkpt lat="43.1230000" lon="-7.8160850">
        <ele>442.2</ele>
        <time>2014-07-30T11:24:35Z</time>
      </trkpt>
      <trkpt lat="43.1229660" lon="-7.8160890">
        <ele>442.2</ele>
        <time>2014-07-30T11:24:36Z</time>
      </trkpt>
      <trkpt lat="43.1229320" lon="-7.8160870">
        <ele>442.3</ele>
        <time>2014-07-30T11:24:37Z</time>
      </trkpt>
      <trkpt lat="43.1228940" lon="-7.8160730">
        <ele>442.3</ele>
        <time>2014-07-30T11:24:38Z</time>
      </trkpt>
      <trkpt lat="43.1228550" lon="-7.8160550">
        <ele>442.4</ele>
        <time>2014-07-30T11:24:39Z</time>
      </trkpt>
      <trkpt lat="43.1228130" lon="-7.8160400">
        <ele>442.4</ele>
        <time>2014-07-30T11:24:40Z</time>
      </trkpt>
      <trkpt lat="43.1227770" lon="-7.8160320">
        <ele>442.5</ele>
        <time>2014-07-30T11:24:41Z</time>
      </trkpt>
      <trkpt lat="43.1227500" lon="-7.8160330">
        <ele>442.5</ele>
        <time>2014-07-30T11:24:42Z</time>
      </trkpt>
      <trkpt lat="43.1227240" lon="-7.8160410">
        <ele>442.5</ele>
        <time>2014-07-30T11:24:43Z</time>
      </trkpt>
      <trkpt lat="43.1227010" lon="-7.8160520">
        <ele>442.6</ele>
        <time>2014-07-30T11:24:44Z</time>
      </trkpt>
      <trkpt lat="43.1226640" lon="-7.8160540">
        <ele>442.6</ele>
        <time>2014-07-30T11:24:45Z</time>
      </trkpt>
      <trkpt lat="43.1226190" lon="-7.8160520">
        <ele>442.7</ele>
        <time>2014-07-30T11:24:46Z</time>
      </trkpt>
      <trkpt lat="43.1225740" lon="-7.8160480">
        <ele>442.9</ele>
        <time>2014-07-30T11:24:47Z</time>
      </trkpt>
      <trkpt lat="43.1225340" lon="-7.8160450">
        <ele>443.0</ele>
        <time>2014-07-30T11:24:48Z</time>
      </trkpt>
      <trkpt lat="43.1224940" lon="-7.8160460">
        <ele>443.2</ele>
        <time>2014-07-30T11:24:49Z</time>
      </trkpt>
      <trkpt lat="43.1224570" lon="-7.8160420">
        <ele>443.4</ele>
        <time>2014-07-30T11:24:50Z</time>
      </trkpt>
      <trkpt lat="43.1221820" lon="-7.8160280">
        <ele>445.1</ele>
        <time>2014-07-30T11:25:02Z</time>
      </trkpt>
      <trkpt lat="43.1219710" lon="-7.8160690">
        <ele>447.2</ele>
        <time>2014-07-30T11:25:15Z</time>
      </trkpt>
      <trkpt lat="43.1219530" lon="-7.8160830">
        <ele>447.4</ele>
        <time>2014-07-30T11:25:16Z</time>
      </trkpt>
      <trkpt lat="43.1217100" lon="-7.8162300">
        <ele>448.7</ele>
        <time>2014-07-30T11:25:31Z</time>
      </trkpt>
      <trkpt lat="43.1216000" lon="-7.8162250">
        <ele>449.6</ele>
        <time>2014-07-30T11:25:39Z</time>
      </trkpt>
      <trkpt lat="43.1215840" lon="-7.8162240">
        <ele>449.7</ele>
        <time>2014-07-30T11:25:40Z</time>
      </trkpt>
      <trkpt lat="43.1215650" lon="-7.8162190">
        <ele>449.8</ele>
        <time>2014-07-30T11:25:41Z</time>
      </trkpt>
      <trkpt lat="43.1215500" lon="-7.8162140">
        <ele>449.9</ele>
        <time>2014-07-30T11:25:42Z</time>
      </trkpt>
      <trkpt lat="43.1215320" lon="-7.8162110">
        <ele>450.0</ele>
        <time>2014-07-30T11:25:43Z</time>
      </trkpt>
      <trkpt lat="43.1215150" lon="-7.8162050">
        <ele>450.2</ele>
        <time>2014-07-30T11:25:44Z</time>
      </trkpt>
      <trkpt lat="43.1214970" lon="-7.8161990">
        <ele>450.3</ele>
        <time>2014-07-30T11:25:45Z</time>
      </trkpt>
      <trkpt lat="43.1214810" lon="-7.8161960">
        <ele>450.4</ele>
        <time>2014-07-30T11:25:46Z</time>
      </trkpt>
      <trkpt lat="43.1214640" lon="-7.8161910">
        <ele>450.5</ele>
        <time>2014-07-30T11:25:47Z</time>
      </trkpt>
      <trkpt lat="43.1214460" lon="-7.8161880">
        <ele>450.6</ele>
        <time>2014-07-30T11:25:48Z</time>
      </trkpt>
      <trkpt lat="43.1214270" lon="-7.8161860">
        <ele>450.7</ele>
        <time>2014-07-30T11:25:49Z</time>
      </trkpt>
      <trkpt lat="43.1214100" lon="-7.8161840">
        <ele>450.7</ele>
        <time>2014-07-30T11:25:50Z</time>
      </trkpt>
      <trkpt lat="43.1213890" lon="-7.8161740">
        <ele>450.9</ele>
        <time>2014-07-30T11:25:51Z</time>
      </trkpt>
      <trkpt lat="43.1212660" lon="-7.8160940">
        <ele>451.4</ele>
        <time>2014-07-30T11:25:59Z</time>
      </trkpt>
      <trkpt lat="43.1212450" lon="-7.8160890">
        <ele>451.5</ele>
        <time>2014-07-30T11:26:00Z</time>
      </trkpt>
      <trkpt lat="43.1209410" lon="-7.8158960">
        <ele>452.4</ele>
        <time>2014-07-30T11:26:15Z</time>
      </trkpt>
      <trkpt lat="43.1207090" lon="-7.8157850">
        <ele>453.2</ele>
        <time>2014-07-30T11:26:27Z</time>
      </trkpt>
      <trkpt lat="43.1203930" lon="-7.8159470">
        <ele>454.6</ele>
        <time>2014-07-30T11:26:43Z</time>
      </trkpt>
      <trkpt lat="43.1201780" lon="-7.8160240">
        <ele>455.4</ele>
        <time>2014-07-30T11:26:56Z</time>
      </trkpt>
      <trkpt lat="43.1199270" lon="-7.8159670">
        <ele>456.3</ele>
        <time>2014-07-30T11:27:08Z</time>
      </trkpt>
      <trkpt lat="43.1196530" lon="-7.8159030">
        <ele>457.5</ele>
        <time>2014-07-30T11:27:20Z</time>
      </trkpt>
      <trkpt lat="43.1192530" lon="-7.8157950">
        <ele>458.7</ele>
        <time>2014-07-30T11:27:36Z</time>
      </trkpt>
      <trkpt lat="43.1188520" lon="-7.8157570">
        <ele>460.7</ele>
        <time>2014-07-30T11:27:52Z</time>
      </trkpt>
      <trkpt lat="43.1185300" lon="-7.8158030">
        <ele>461.9</ele>
        <time>2014-07-30T11:28:06Z</time>
      </trkpt>
      <trkpt lat="43.1182130" lon="-7.8158590">
        <ele>462.9</ele>
        <time>2014-07-30T11:28:18Z</time>
      </trkpt>
      <trkpt lat="43.1178660" lon="-7.8159720">
        <ele>464.1</ele>
        <time>2014-07-30T11:28:32Z</time>
      </trkpt>
      <trkpt lat="43.1174040" lon="-7.8160990">
        <ele>466.5</ele>
        <time>2014-07-30T11:28:51Z</time>
      </trkpt>
      <trkpt lat="43.1170960" lon="-7.8160900">
        <ele>468.9</ele>
        <time>2014-07-30T11:29:05Z</time>
      </trkpt>
      <trkpt lat="43.1168600" lon="-7.8159520">
        <ele>470.9</ele>
        <time>2014-07-30T11:29:19Z</time>
      </trkpt>
      <trkpt lat="43.1166450" lon="-7.8158260">
        <ele>472.1</ele>
        <time>2014-07-30T11:29:34Z</time>
      </trkpt>
      <trkpt lat="43.1163730" lon="-7.8157020">
        <ele>473.5</ele>
        <time>2014-07-30T11:29:48Z</time>
      </trkpt>
      <trkpt lat="43.1160970" lon="-7.8155810">
        <ele>474.9</ele>
        <time>2014-07-30T11:30:02Z</time>
      </trkpt>
      <trkpt lat="43.1158390" lon="-7.8156540">
        <ele>475.4</ele>
        <time>2014-07-30T11:30:15Z</time>
      </trkpt>
      <trkpt lat="43.1157630" lon="-7.8161600">
        <ele>473.8</ele>
        <time>2014-07-30T11:30:28Z</time>
      </trkpt>
      <trkpt lat="43.1157480" lon="-7.8167080">
        <ele>474.2</ele>
        <time>2014-07-30T11:30:38Z</time>
      </trkpt>
      <trkpt lat="43.1157340" lon="-7.8167590">
        <ele>474.3</ele>
        <time>2014-07-30T11:30:39Z</time>
      </trkpt>
      <trkpt lat="43.1157200" lon="-7.8168080">
        <ele>474.4</ele>
        <time>2014-07-30T11:30:40Z</time>
      </trkpt>
      <trkpt lat="43.1155320" lon="-7.8173940">
        <ele>475.4</ele>
        <time>2014-07-30T11:30:54Z</time>
      </trkpt>
      <trkpt lat="43.1154700" lon="-7.8178990">
        <ele>474.2</ele>
        <time>2014-07-30T11:31:05Z</time>
      </trkpt>
      <trkpt lat="43.1154800" lon="-7.8179630">
        <ele>474.0</ele>
        <time>2014-07-30T11:31:06Z</time>
      </trkpt>
      <trkpt lat="43.1154940" lon="-7.8180300">
        <ele>473.7</ele>
        <time>2014-07-30T11:31:07Z</time>
      </trkpt>
      <trkpt lat="43.1155350" lon="-7.8181840">
        <ele>473.1</ele>
        <time>2014-07-30T11:31:09Z</time>
      </trkpt>
      <trkpt lat="43.1156630" lon="-7.8185400">
        <ele>471.0</ele>
        <time>2014-07-30T11:31:13Z</time>
      </trkpt>
      <trkpt lat="43.1157480" lon="-7.8187420">
        <ele>469.9</ele>
        <time>2014-07-30T11:31:15Z</time>
      </trkpt>
      <trkpt lat="43.1158050" lon="-7.8188340">
        <ele>469.3</ele>
        <time>2014-07-30T11:31:16Z</time>
      </trkpt>
      <trkpt lat="43.1158650" lon="-7.8189290">
        <ele>468.9</ele>
        <time>2014-07-30T11:31:17Z</time>
      </trkpt>
      <trkpt lat="43.1159240" lon="-7.8190270">
        <ele>468.4</ele>
        <time>2014-07-30T11:31:18Z</time>
      </trkpt>
      <trkpt lat="43.1159780" lon="-7.8191310">
        <ele>467.8</ele>
        <time>2014-07-30T11:31:19Z</time>
      </trkpt>
      <trkpt lat="43.1160250" lon="-7.8192460">
        <ele>467.4</ele>
        <time>2014-07-30T11:31:20Z</time>
      </trkpt>
      <trkpt lat="43.1161890" lon="-7.8197430">
        <ele>465.0</ele>
        <time>2014-07-30T11:31:24Z</time>
      </trkpt>
      <trkpt lat="43.1164050" lon="-7.8203990">
        <ele>462.0</ele>
        <time>2014-07-30T11:31:29Z</time>
      </trkpt>
      <trkpt lat="43.1165370" lon="-7.8207990">
        <ele>460.1</ele>
        <time>2014-07-30T11:31:32Z</time>
      </trkpt>
      <trkpt lat="43.1167560" lon="-7.8216130">
        <ele>456.7</ele>
        <time>2014-07-30T11:31:38Z</time>
      </trkpt>
      <trkpt lat="43.1168450" lon="-7.8220230">
        <ele>455.0</ele>
        <time>2014-07-30T11:31:41Z</time>
      </trkpt>
      <trkpt lat="43.1170280" lon="-7.8227990">
        <ele>451.8</ele>
        <time>2014-07-30T11:31:47Z</time>
      </trkpt>
      <trkpt lat="43.1171060" lon="-7.8231280">
        <ele>450.3</ele>
        <time>2014-07-30T11:31:50Z</time>
      </trkpt>
      <trkpt lat="43.1171680" lon="-7.8233860">
        <ele>449.5</ele>
        <time>2014-07-30T11:31:53Z</time>
      </trkpt>
      <trkpt lat="43.1171760" lon="-7.8234640">
        <ele>449.1</ele>
        <time>2014-07-30T11:31:54Z</time>
      </trkpt>
      <trkpt lat="43.1171760" lon="-7.8235390">
        <ele>448.6</ele>
        <time>2014-07-30T11:31:55Z</time>
      </trkpt>
      <trkpt lat="43.1171680" lon="-7.8236100">
        <ele>448.2</ele>
        <time>2014-07-30T11:31:56Z</time>
      </trkpt>
      <trkpt lat="43.1171480" lon="-7.8236760">
        <ele>448.4</ele>
        <time>2014-07-30T11:31:57Z</time>
      </trkpt>
      <trkpt lat="43.1171180" lon="-7.8237340">
        <ele>448.6</ele>
        <time>2014-07-30T11:31:58Z</time>
      </trkpt>
      <trkpt lat="43.1170820" lon="-7.8237820">
        <ele>448.8</ele>
        <time>2014-07-30T11:31:59Z</time>
      </trkpt>
      <trkpt lat="43.1170500" lon="-7.8238190">
        <ele>449.0</ele>
        <time>2014-07-30T11:32:00Z</time>
      </trkpt>
      <trkpt lat="43.1169450" lon="-7.8239310">
        <ele>449.6</ele>
        <time>2014-07-30T11:32:03Z</time>
      </trkpt>
      <trkpt lat="43.1169180" lon="-7.8239640">
        <ele>449.8</ele>
        <time>2014-07-30T11:32:04Z</time>
      </trkpt>
      <trkpt lat="43.1168950" lon="-7.8239910">
        <ele>450.0</ele>
        <time>2014-07-30T11:32:05Z</time>
      </trkpt>
      <trkpt lat="43.1167120" lon="-7.8242500">
        <ele>450.8</ele>
        <time>2014-07-30T11:32:12Z</time>
      </trkpt>
      <trkpt lat="43.1166790" lon="-7.8242870">
        <ele>450.9</ele>
        <time>2014-07-30T11:32:13Z</time>
      </trkpt>
      <trkpt lat="43.1165000" lon="-7.8245450">
        <ele>452.0</ele>
        <time>2014-07-30T11:32:19Z</time>
      </trkpt>
      <trkpt lat="43.1164870" lon="-7.8246010">
        <ele>452.0</ele>
        <time>2014-07-30T11:32:20Z</time>
      </trkpt>
      <trkpt lat="43.1164200" lon="-7.8253980">
        <ele>451.1</ele>
        <time>2014-07-30T11:32:35Z</time>
      </trkpt>
      <trkpt lat="43.1163870" lon="-7.8261420">
        <ele>450.1</ele>
        <time>2014-07-30T11:32:48Z</time>
      </trkpt>
      <trkpt lat="43.1163850" lon="-7.8262620">
        <ele>450.0</ele>
        <time>2014-07-30T11:32:50Z</time>
      </trkpt>
      <trkpt lat="43.1163740" lon="-7.8264500">
        <ele>449.9</ele>
        <time>2014-07-30T11:32:53Z</time>
      </trkpt>
      <trkpt lat="43.1163910" lon="-7.8275440">
        <ele>448.6</ele>
        <time>2014-07-30T11:33:10Z</time>
      </trkpt>
      <trkpt lat="43.1164590" lon="-7.8279980">
        <ele>448.0</ele>
        <time>2014-07-30T11:33:17Z</time>
      </trkpt>
      <trkpt lat="43.1165130" lon="-7.8281920">
        <ele>447.7</ele>
        <time>2014-07-30T11:33:20Z</time>
      </trkpt>
      <trkpt lat="43.1165250" lon="-7.8282600">
        <ele>447.6</ele>
        <time>2014-07-30T11:33:21Z</time>
      </trkpt>
      <trkpt lat="43.1165410" lon="-7.8283310">
        <ele>447.5</ele>
        <time>2014-07-30T11:33:22Z</time>
      </trkpt>
      <trkpt lat="43.1166740" lon="-7.8289990">
        <ele>446.5</ele>
        <time>2014-07-30T11:33:31Z</time>
      </trkpt>
      <trkpt lat="43.1166950" lon="-7.8290670">
        <ele>446.4</ele>
        <time>2014-07-30T11:33:32Z</time>
      </trkpt>
      <trkpt lat="43.1167170" lon="-7.8291330">
        <ele>446.3</ele>
        <time>2014-07-30T11:33:33Z</time>
      </trkpt>
      <trkpt lat="43.1169310" lon="-7.8299200">
        <ele>444.7</ele>
        <time>2014-07-30T11:33:44Z</time>
      </trkpt>
      <trkpt lat="43.1169420" lon="-7.8299870">
        <ele>444.6</ele>
        <time>2014-07-30T11:33:45Z</time>
      </trkpt>
      <trkpt lat="43.1169580" lon="-7.8300590">
        <ele>444.5</ele>
        <time>2014-07-30T11:33:46Z</time>
      </trkpt>
      <trkpt lat="43.1171050" lon="-7.8305520">
        <ele>443.7</ele>
        <time>2014-07-30T11:33:53Z</time>
      </trkpt>
      <trkpt lat="43.1171260" lon="-7.8306280">
        <ele>443.4</ele>
        <time>2014-07-30T11:33:54Z</time>
      </trkpt>
      <trkpt lat="43.1171710" lon="-7.8307800">
        <ele>443.0</ele>
        <time>2014-07-30T11:33:56Z</time>
      </trkpt>
      <trkpt lat="43.1172070" lon="-7.8309410">
        <ele>442.4</ele>
        <time>2014-07-30T11:33:58Z</time>
      </trkpt>
      <trkpt lat="43.1172280" lon="-7.8310160">
        <ele>442.2</ele>
        <time>2014-07-30T11:33:59Z</time>
      </trkpt>
      <trkpt lat="43.1172480" lon="-7.8310890">
        <ele>442.0</ele>
        <time>2014-07-30T11:34:00Z</time>
      </trkpt>
      <trkpt lat="43.1172640" lon="-7.8311720">
        <ele>441.7</ele>
        <time>2014-07-30T11:34:01Z</time>
      </trkpt>
      <trkpt lat="43.1172830" lon="-7.8312640">
        <ele>441.5</ele>
        <time>2014-07-30T11:34:02Z</time>
      </trkpt>
      <trkpt lat="43.1173060" lon="-7.8313530">
        <ele>441.2</ele>
        <time>2014-07-30T11:34:03Z</time>
      </trkpt>
      <trkpt lat="43.1173600" lon="-7.8315340">
        <ele>440.6</ele>
        <time>2014-07-30T11:34:05Z</time>
      </trkpt>
      <trkpt lat="43.1173830" lon="-7.8316340">
        <ele>440.3</ele>
        <time>2014-07-30T11:34:06Z</time>
      </trkpt>
      <trkpt lat="43.1174000" lon="-7.8317420">
        <ele>439.9</ele>
        <time>2014-07-30T11:34:07Z</time>
      </trkpt>
      <trkpt lat="43.1174910" lon="-7.8326740">
        <ele>437.3</ele>
        <time>2014-07-30T11:34:15Z</time>
      </trkpt>
      <trkpt lat="43.1175510" lon="-7.8336120">
        <ele>435.8</ele>
        <time>2014-07-30T11:34:22Z</time>
      </trkpt>
      <trkpt lat="43.1175620" lon="-7.8338120">
        <ele>435.9</ele>
        <time>2014-07-30T11:34:24Z</time>
      </trkpt>
      <trkpt lat="43.1174210" lon="-7.8345860">
        <ele>436.1</ele>
        <time>2014-07-30T11:34:33Z</time>
      </trkpt>
      <trkpt lat="43.1174270" lon="-7.8346380">
        <ele>436.1</ele>
        <time>2014-07-30T11:34:34Z</time>
      </trkpt>
      <trkpt lat="43.1173880" lon="-7.8346880">
        <ele>436.1</ele>
        <time>2014-07-30T11:34:35Z</time>
      </trkpt>
      <trkpt lat="43.1173390" lon="-7.8347250">
        <ele>436.1</ele>
        <time>2014-07-30T11:34:36Z</time>
      </trkpt>
      <trkpt lat="43.1172880" lon="-7.8347460">
        <ele>436.1</ele>
        <time>2014-07-30T11:34:37Z</time>
      </trkpt>
      <trkpt lat="43.1172320" lon="-7.8347420">
        <ele>436.1</ele>
        <time>2014-07-30T11:34:38Z</time>
      </trkpt>
      <trkpt lat="43.1171770" lon="-7.8347310">
        <ele>436.1</ele>
        <time>2014-07-30T11:34:39Z</time>
      </trkpt>
      <trkpt lat="43.1167600" lon="-7.8346950">
        <ele>436.7</ele>
        <time>2014-07-30T11:34:47Z</time>
      </trkpt>
      <trkpt lat="43.1167080" lon="-7.8346910">
        <ele>436.9</ele>
        <time>2014-07-30T11:34:48Z</time>
      </trkpt>
      <trkpt lat="43.1166570" lon="-7.8346870">
        <ele>437.1</ele>
        <time>2014-07-30T11:34:49Z</time>
      </trkpt>
      <trkpt lat="43.1165460" lon="-7.8346730">
        <ele>437.5</ele>
        <time>2014-07-30T11:34:51Z</time>
      </trkpt>
      <trkpt lat="43.1164930" lon="-7.8346670">
        <ele>437.7</ele>
        <time>2014-07-30T11:34:52Z</time>
      </trkpt>
      <trkpt lat="43.1164510" lon="-7.8346710">
        <ele>437.8</ele>
        <time>2014-07-30T11:34:53Z</time>
      </trkpt>
      <trkpt lat="43.1164120" lon="-7.8346800">
        <ele>437.9</ele>
        <time>2014-07-30T11:34:54Z</time>
      </trkpt>
      <trkpt lat="43.1163670" lon="-7.8346940">
        <ele>438.0</ele>
        <time>2014-07-30T11:34:55Z</time>
      </trkpt>
      <trkpt lat="43.1163220" lon="-7.8347180">
        <ele>438.1</ele>
        <time>2014-07-30T11:34:56Z</time>
      </trkpt>
      <trkpt lat="43.1162800" lon="-7.8347490">
        <ele>438.3</ele>
        <time>2014-07-30T11:34:57Z</time>
      </trkpt>
      <trkpt lat="43.1162260" lon="-7.8347570">
        <ele>438.5</ele>
        <time>2014-07-30T11:34:58Z</time>
      </trkpt>
      <trkpt lat="43.1161900" lon="-7.8347970">
        <ele>438.7</ele>
        <time>2014-07-30T11:34:59Z</time>
      </trkpt>
      <trkpt lat="43.1161640" lon="-7.8348400">
        <ele>438.8</ele>
        <time>2014-07-30T11:35:00Z</time>
      </trkpt>
      <trkpt lat="43.1161400" lon="-7.8348850">
        <ele>439.0</ele>
        <time>2014-07-30T11:35:01Z</time>
      </trkpt>
      <trkpt lat="43.1161180" lon="-7.8349320">
        <ele>439.2</ele>
        <time>2014-07-30T11:35:02Z</time>
      </trkpt>
      <trkpt lat="43.1159340" lon="-7.8354370">
        <ele>440.0</ele>
        <time>2014-07-30T11:35:13Z</time>
      </trkpt>
      <trkpt lat="43.1159650" lon="-7.8362250">
        <ele>441.9</ele>
        <time>2014-07-30T11:35:29Z</time>
      </trkpt>
      <trkpt lat="43.1159030" lon="-7.8366230">
        <ele>443.0</ele>
        <time>2014-07-30T11:35:41Z</time>
      </trkpt>
      <trkpt lat="43.1159040" lon="-7.8366440">
        <ele>443.0</ele>
        <time>2014-07-30T11:35:42Z</time>
      </trkpt>
      <trkpt lat="43.1159070" lon="-7.8366640">
        <ele>443.1</ele>
        <time>2014-07-30T11:35:43Z</time>
      </trkpt>
      <trkpt lat="43.1159410" lon="-7.8368200">
        <ele>443.7</ele>
        <time>2014-07-30T11:35:52Z</time>
      </trkpt>
      <trkpt lat="43.1159720" lon="-7.8368780">
        <ele>443.9</ele>
        <time>2014-07-30T11:36:06Z</time>
      </trkpt>
      <trkpt lat="43.1159720" lon="-7.8368780">
        <ele>443.9</ele>
        <time>2014-07-30T11:36:27Z</time>
      </trkpt>
      <trkpt lat="43.1159720" lon="-7.8368780">
        <ele>443.9</ele>
        <time>2014-07-30T11:37:02Z</time>
      </trkpt>
      <trkpt lat="43.1159660" lon="-7.8368760">
        <ele>443.9</ele>
        <time>2014-07-30T11:37:26Z</time>
      </trkpt>
      <trkpt lat="43.1159660" lon="-7.8368760">
        <ele>443.9</ele>
        <time>2014-07-30T11:37:59Z</time>
      </trkpt>
      <trkpt lat="43.1159650" lon="-7.8368820">
        <ele>444.0</ele>
        <time>2014-07-30T11:38:30Z</time>
      </trkpt>
      <trkpt lat="43.1159650" lon="-7.8368810">
        <ele>444.0</ele>
        <time>2014-07-30T11:38:54Z</time>
      </trkpt>
      <trkpt lat="43.1159650" lon="-7.8368810">
        <ele>444.0</ele>
        <time>2014-07-30T11:39:18Z</time>
      </trkpt>
      <trkpt lat="43.1159660" lon="-7.8368810">
        <ele>444.0</ele>
        <time>2014-07-30T11:39:48Z</time>
      </trkpt>
      <trkpt lat="43.1159690" lon="-7.8368850">
        <ele>444.0</ele>
        <time>2014-07-30T11:40:13Z</time>
      </trkpt>
      <trkpt lat="43.1160110" lon="-7.8370090">
        <ele>444.2</ele>
        <time>2014-07-30T11:40:30Z</time>
      </trkpt>
      <trkpt lat="43.1160800" lon="-7.8373530">
        <ele>444.8</ele>
        <time>2014-07-30T11:40:42Z</time>
      </trkpt>
      <trkpt lat="43.1160750" lon="-7.8373770">
        <ele>444.9</ele>
        <time>2014-07-30T11:40:43Z</time>
      </trkpt>
      <trkpt lat="43.1160740" lon="-7.8373980">
        <ele>444.9</ele>
        <time>2014-07-30T11:40:44Z</time>
      </trkpt>
      <trkpt lat="43.1160710" lon="-7.8374210">
        <ele>445.0</ele>
        <time>2014-07-30T11:40:45Z</time>
      </trkpt>
      <trkpt lat="43.1160640" lon="-7.8374460">
        <ele>445.0</ele>
        <time>2014-07-30T11:40:46Z</time>
      </trkpt>
      <trkpt lat="43.1160630" lon="-7.8374700">
        <ele>445.0</ele>
        <time>2014-07-30T11:40:47Z</time>
      </trkpt>
      <trkpt lat="43.1160670" lon="-7.8375000">
        <ele>445.1</ele>
        <time>2014-07-30T11:40:48Z</time>
      </trkpt>
      <trkpt lat="43.1160660" lon="-7.8375300">
        <ele>445.1</ele>
        <time>2014-07-30T11:40:49Z</time>
      </trkpt>
      <trkpt lat="43.1160640" lon="-7.8375580">
        <ele>445.2</ele>
        <time>2014-07-30T11:40:50Z</time>
      </trkpt>
      <trkpt lat="43.1160650" lon="-7.8375880">
        <ele>445.3</ele>
        <time>2014-07-30T11:40:51Z</time>
      </trkpt>
      <trkpt lat="43.1161070" lon="-7.8378950">
        <ele>446.1</ele>
        <time>2014-07-30T11:41:02Z</time>
      </trkpt>
      <trkpt lat="43.1160950" lon="-7.8382990">
        <ele>446.4</ele>
        <time>2014-07-30T11:41:14Z</time>
      </trkpt>
      <trkpt lat="43.1159930" lon="-7.8387340">
        <ele>446.8</ele>
        <time>2014-07-30T11:41:28Z</time>
      </trkpt>
      <trkpt lat="43.1159060" lon="-7.8388950">
        <ele>447.3</ele>
        <time>2014-07-30T11:41:35Z</time>
      </trkpt>
      <trkpt lat="43.1158960" lon="-7.8389080">
        <ele>447.3</ele>
        <time>2014-07-30T11:41:36Z</time>
      </trkpt>
      <trkpt lat="43.1157940" lon="-7.8391790">
        <ele>448.1</ele>
        <time>2014-07-30T11:41:47Z</time>
      </trkpt>
      <trkpt lat="43.1157670" lon="-7.8396050">
        <ele>448.5</ele>
        <time>2014-07-30T11:41:59Z</time>
      </trkpt>
      <trkpt lat="43.1157640" lon="-7.8400230">
        <ele>448.6</ele>
        <time>2014-07-30T11:42:09Z</time>
      </trkpt>
      <trkpt lat="43.1157320" lon="-7.8404840">
        <ele>449.3</ele>
        <time>2014-07-30T11:42:21Z</time>
      </trkpt>
      <trkpt lat="43.1157260" lon="-7.8405120">
        <ele>449.4</ele>
        <time>2014-07-30T11:42:22Z</time>
      </trkpt>
      <trkpt lat="43.1157110" lon="-7.8405380">
        <ele>449.5</ele>
        <time>2014-07-30T11:42:23Z</time>
      </trkpt>
      <trkpt lat="43.1156910" lon="-7.8405540">
        <ele>449.6</ele>
        <time>2014-07-30T11:42:24Z</time>
      </trkpt>
      <trkpt lat="43.1156710" lon="-7.8405720">
        <ele>449.8</ele>
        <time>2014-07-30T11:42:25Z</time>
      </trkpt>
      <trkpt lat="43.1153100" lon="-7.8407550">
        <ele>450.1</ele>
        <time>2014-07-30T11:42:38Z</time>
      </trkpt>
      <trkpt lat="43.1149240" lon="-7.8410740">
        <ele>450.7</ele>
        <time>2014-07-30T11:42:53Z</time>
      </trkpt>
      <trkpt lat="43.1147830" lon="-7.8411640">
        <ele>451.1</ele>
        <time>2014-07-30T11:43:03Z</time>
      </trkpt>
      <trkpt lat="43.1147650" lon="-7.8411720">
        <ele>451.1</ele>
        <time>2014-07-30T11:43:04Z</time>
      </trkpt>
      <trkpt lat="43.1147490" lon="-7.8411860">
        <ele>451.2</ele>
        <time>2014-07-30T11:43:05Z</time>
      </trkpt>
      <trkpt lat="43.1144950" lon="-7.8414110">
        <ele>451.9</ele>
        <time>2014-07-30T11:43:17Z</time>
      </trkpt>
      <trkpt lat="43.1141860" lon="-7.8414610">
        <ele>452.2</ele>
        <time>2014-07-30T11:43:29Z</time>
      </trkpt>
      <trkpt lat="43.1139100" lon="-7.8412120">
        <ele>453.2</ele>
        <time>2014-07-30T11:43:42Z</time>
      </trkpt>
      <trkpt lat="43.1138120" lon="-7.8410390">
        <ele>454.4</ele>
        <time>2014-07-30T11:43:53Z</time>
      </trkpt>
      <trkpt lat="43.1138110" lon="-7.8410400">
        <ele>454.4</ele>
        <time>2014-07-30T11:44:18Z</time>
      </trkpt>
      <trkpt lat="43.1137940" lon="-7.8410400">
        <ele>454.4</ele>
        <time>2014-07-30T11:44:36Z</time>
      </trkpt>
      <trkpt lat="43.1137890" lon="-7.8410520">
        <ele>454.4</ele>
        <time>2014-07-30T11:45:02Z</time>
      </trkpt>
      <trkpt lat="43.1137870" lon="-7.8410770">
        <ele>454.5</ele>
        <time>2014-07-30T11:45:08Z</time>
      </trkpt>
      <trkpt lat="43.1137840" lon="-7.8410970">
        <ele>454.5</ele>
        <time>2014-07-30T11:45:09Z</time>
      </trkpt>
      <trkpt lat="43.1137840" lon="-7.8411160">
        <ele>454.6</ele>
        <time>2014-07-30T11:45:10Z</time>
      </trkpt>
      <trkpt lat="43.1137020" lon="-7.8414850">
        <ele>455.5</ele>
        <time>2014-07-30T11:45:24Z</time>
      </trkpt>
      <trkpt lat="43.1135560" lon="-7.8418440">
        <ele>456.6</ele>
        <time>2014-07-30T11:45:37Z</time>
      </trkpt>
      <trkpt lat="43.1135580" lon="-7.8418780">
        <ele>456.7</ele>
        <time>2014-07-30T11:45:38Z</time>
      </trkpt>
      <trkpt lat="43.1135630" lon="-7.8419130">
        <ele>456.8</ele>
        <time>2014-07-30T11:45:39Z</time>
      </trkpt>
      <trkpt lat="43.1135670" lon="-7.8419530">
        <ele>456.8</ele>
        <time>2014-07-30T11:45:40Z</time>
      </trkpt>
      <trkpt lat="43.1135700" lon="-7.8419980">
        <ele>456.9</ele>
        <time>2014-07-30T11:45:41Z</time>
      </trkpt>
      <trkpt lat="43.1136860" lon="-7.8428840">
        <ele>457.6</ele>
        <time>2014-07-30T11:46:00Z</time>
      </trkpt>
      <trkpt lat="43.1135630" lon="-7.8434070">
        <ele>458.5</ele>
        <time>2014-07-30T11:46:11Z</time>
      </trkpt>
      <trkpt lat="43.1133720" lon="-7.8440240">
        <ele>460.8</ele>
        <time>2014-07-30T11:46:27Z</time>
      </trkpt>
      <trkpt lat="43.1132780" lon="-7.8444230">
        <ele>462.5</ele>
        <time>2014-07-30T11:46:40Z</time>
      </trkpt>
      <trkpt lat="43.1131810" lon="-7.8446890">
        <ele>463.3</ele>
        <time>2014-07-30T11:46:50Z</time>
      </trkpt>
      <trkpt lat="43.1131540" lon="-7.8447030">
        <ele>463.4</ele>
        <time>2014-07-30T11:46:51Z</time>
      </trkpt>
      <trkpt lat="43.1128290" lon="-7.8449470">
        <ele>464.3</ele>
        <time>2014-07-30T11:47:04Z</time>
      </trkpt>
      <trkpt lat="43.1126840" lon="-7.8456380">
        <ele>465.3</ele>
        <time>2014-07-30T11:47:18Z</time>
      </trkpt>
      <trkpt lat="43.1125480" lon="-7.8463000">
        <ele>466.5</ele>
        <time>2014-07-30T11:47:30Z</time>
      </trkpt>
      <trkpt lat="43.1125960" lon="-7.8466960">
        <ele>467.0</ele>
        <time>2014-07-30T11:47:38Z</time>
      </trkpt>
      <trkpt lat="43.1125730" lon="-7.8467500">
        <ele>467.0</ele>
        <time>2014-07-30T11:47:39Z</time>
      </trkpt>
      <trkpt lat="43.1125500" lon="-7.8467980">
        <ele>467.0</ele>
        <time>2014-07-30T11:47:40Z</time>
      </trkpt>
      <trkpt lat="43.1125140" lon="-7.8468400">
        <ele>467.3</ele>
        <time>2014-07-30T11:47:41Z</time>
      </trkpt>
      <trkpt lat="43.1124650" lon="-7.8468780">
        <ele>467.7</ele>
        <time>2014-07-30T11:47:42Z</time>
      </trkpt>
      <trkpt lat="43.1124270" lon="-7.8469080">
        <ele>467.9</ele>
        <time>2014-07-30T11:47:43Z</time>
      </trkpt>
      <trkpt lat="43.1123950" lon="-7.8469380">
        <ele>468.0</ele>
        <time>2014-07-30T11:47:44Z</time>
      </trkpt>
      <trkpt lat="43.1123650" lon="-7.8469700">
        <ele>468.1</ele>
        <time>2014-07-30T11:47:45Z</time>
      </trkpt>
      <trkpt lat="43.1121760" lon="-7.8472480">
        <ele>468.8</ele>
        <time>2014-07-30T11:47:52Z</time>
      </trkpt>
      <trkpt lat="43.1118460" lon="-7.8477180">
        <ele>469.8</ele>
        <time>2014-07-30T11:48:04Z</time>
      </trkpt>
      <trkpt lat="43.1118140" lon="-7.8477610">
        <ele>469.9</ele>
        <time>2014-07-30T11:48:05Z</time>
      </trkpt>
      <trkpt lat="43.1117830" lon="-7.8477990">
        <ele>470.0</ele>
        <time>2014-07-30T11:48:06Z</time>
      </trkpt>
      <trkpt lat="43.1114500" lon="-7.8482920">
        <ele>471.0</ele>
        <time>2014-07-30T11:48:18Z</time>
      </trkpt>
      <trkpt lat="43.1114220" lon="-7.8483300">
        <ele>471.1</ele>
        <time>2014-07-30T11:48:19Z</time>
      </trkpt>
      <trkpt lat="43.1113950" lon="-7.8483690">
        <ele>471.2</ele>
        <time>2014-07-30T11:48:20Z</time>
      </trkpt>
      <trkpt lat="43.1110980" lon="-7.8487990">
        <ele>472.3</ele>
        <time>2014-07-30T11:48:31Z</time>
      </trkpt>
      <trkpt lat="43.1107560" lon="-7.8490960">
        <ele>473.5</ele>
        <time>2014-07-30T11:48:42Z</time>
      </trkpt>
      <trkpt lat="43.1104310" lon="-7.8492810">
        <ele>474.8</ele>
        <time>2014-07-30T11:48:52Z</time>
      </trkpt>
      <trkpt lat="43.1101260" lon="-7.8494760">
        <ele>476.1</ele>
        <time>2014-07-30T11:49:04Z</time>
      </trkpt>
      <trkpt lat="43.1098600" lon="-7.8496040">
        <ele>477.5</ele>
        <time>2014-07-30T11:49:15Z</time>
      </trkpt>
      <trkpt lat="43.1095740" lon="-7.8497040">
        <ele>479.3</ele>
        <time>2014-07-30T11:49:30Z</time>
      </trkpt>
      <trkpt lat="43.1093280" lon="-7.8497870">
        <ele>481.1</ele>
        <time>2014-07-30T11:49:43Z</time>
      </trkpt>
      <trkpt lat="43.1093160" lon="-7.8497990">
        <ele>481.2</ele>
        <time>2014-07-30T11:49:44Z</time>
      </trkpt>
      <trkpt lat="43.1092330" lon="-7.8498470">
        <ele>481.7</ele>
        <time>2014-07-30T11:49:49Z</time>
      </trkpt>
      <trkpt lat="43.1092170" lon="-7.8498510">
        <ele>481.8</ele>
        <time>2014-07-30T11:49:50Z</time>
      </trkpt>
      <trkpt lat="43.1092020" lon="-7.8498620">
        <ele>481.9</ele>
        <time>2014-07-30T11:49:51Z</time>
      </trkpt>
      <trkpt lat="43.1091880" lon="-7.8498700">
        <ele>482.0</ele>
        <time>2014-07-30T11:49:52Z</time>
      </trkpt>
      <trkpt lat="43.1091720" lon="-7.8498760">
        <ele>482.1</ele>
        <time>2014-07-30T11:49:53Z</time>
      </trkpt>
      <trkpt lat="43.1091550" lon="-7.8498780">
        <ele>482.1</ele>
        <time>2014-07-30T11:49:54Z</time>
      </trkpt>
      <trkpt lat="43.1088900" lon="-7.8499230">
        <ele>483.5</ele>
        <time>2014-07-30T11:50:09Z</time>
      </trkpt>
      <trkpt lat="43.1088440" lon="-7.8499080">
        <ele>483.7</ele>
        <time>2014-07-30T11:50:19Z</time>
      </trkpt>
      <trkpt lat="43.1088130" lon="-7.8499180">
        <ele>483.8</ele>
        <time>2014-07-30T11:50:30Z</time>
      </trkpt>
      <trkpt lat="43.1085550" lon="-7.8499540">
        <ele>484.8</ele>
        <time>2014-07-30T11:50:44Z</time>
      </trkpt>
      <trkpt lat="43.1082980" lon="-7.8500480">
        <ele>485.9</ele>
        <time>2014-07-30T11:50:57Z</time>
      </trkpt>
      <trkpt lat="43.1081110" lon="-7.8503710">
        <ele>487.3</ele>
        <time>2014-07-30T11:51:11Z</time>
      </trkpt>
      <trkpt lat="43.1078960" lon="-7.8507460">
        <ele>489.3</ele>
        <time>2014-07-30T11:51:26Z</time>
      </trkpt>
      <trkpt lat="43.1076690" lon="-7.8511680">
        <ele>491.0</ele>
        <time>2014-07-30T11:51:43Z</time>
      </trkpt>
      <trkpt lat="43.1074680" lon="-7.8514830">
        <ele>492.1</ele>
        <time>2014-07-30T11:51:57Z</time>
      </trkpt>
      <trkpt lat="43.1071220" lon="-7.8518970">
        <ele>493.0</ele>
        <time>2014-07-30T11:52:13Z</time>
      </trkpt>
      <trkpt lat="43.1068370" lon="-7.8522490">
        <ele>493.3</ele>
        <time>2014-07-30T11:52:25Z</time>
      </trkpt>
      <trkpt lat="43.1066020" lon="-7.8527980">
        <ele>493.6</ele>
        <time>2014-07-30T11:52:39Z</time>
      </trkpt>
      <trkpt lat="43.1064130" lon="-7.8533220">
        <ele>494.5</ele>
        <time>2014-07-30T11:52:55Z</time>
      </trkpt>
      <trkpt lat="43.1061300" lon="-7.8536100">
        <ele>495.4</ele>
        <time>2014-07-30T11:53:08Z</time>
      </trkpt>
      <trkpt lat="43.1057510" lon="-7.8538280">
        <ele>496.2</ele>
        <time>2014-07-30T11:53:21Z</time>
      </trkpt>
      <trkpt lat="43.1055700" lon="-7.8542380">
        <ele>496.8</ele>
        <time>2014-07-30T11:53:31Z</time>
      </trkpt>
      <trkpt lat="43.1052680" lon="-7.8547990">
        <ele>497.7</ele>
        <time>2014-07-30T11:53:44Z</time>
      </trkpt>
      <trkpt lat="43.1050070" lon="-7.8552270">
        <ele>498.5</ele>
        <time>2014-07-30T11:53:55Z</time>
      </trkpt>
      <trkpt lat="43.1050040" lon="-7.8552760">
        <ele>498.6</ele>
        <time>2014-07-30T11:53:56Z</time>
      </trkpt>
      <trkpt lat="43.1049970" lon="-7.8553270">
        <ele>498.6</ele>
        <time>2014-07-30T11:53:57Z</time>
      </trkpt>
      <trkpt lat="43.1049040" lon="-7.8559050">
        <ele>498.9</ele>
        <time>2014-07-30T11:54:09Z</time>
      </trkpt>
      <trkpt lat="43.1048490" lon="-7.8559860">
        <ele>498.9</ele>
        <time>2014-07-30T11:54:11Z</time>
      </trkpt>
      <trkpt lat="43.1044800" lon="-7.8566170">
        <ele>498.5</ele>
        <time>2014-07-30T11:54:26Z</time>
      </trkpt>
      <trkpt lat="43.1043370" lon="-7.8570900">
        <ele>498.5</ele>
        <time>2014-07-30T11:54:36Z</time>
      </trkpt>
      <trkpt lat="43.1042010" lon="-7.8575450">
        <ele>498.9</ele>
        <time>2014-07-30T11:54:47Z</time>
      </trkpt>
      <trkpt lat="43.1041080" lon="-7.8580840">
        <ele>499.9</ele>
        <time>2014-07-30T11:54:58Z</time>
      </trkpt>
      <trkpt lat="43.1039890" lon="-7.8587280">
        <ele>500.8</ele>
        <time>2014-07-30T11:55:12Z</time>
      </trkpt>
      <trkpt lat="43.1039370" lon="-7.8590380">
        <ele>501.3</ele>
        <time>2014-07-30T11:55:22Z</time>
      </trkpt>
      <trkpt lat="43.1039370" lon="-7.8590380">
        <ele>501.3</ele>
        <time>2014-07-30T11:55:47Z</time>
      </trkpt>
      <trkpt lat="43.1039350" lon="-7.8590570">
        <ele>501.3</ele>
        <time>2014-07-30T11:56:01Z</time>
      </trkpt>
      <trkpt lat="43.1039300" lon="-7.8590750">
        <ele>501.3</ele>
        <time>2014-07-30T11:56:02Z</time>
      </trkpt>
      <trkpt lat="43.1037630" lon="-7.8594810">
        <ele>501.9</ele>
        <time>2014-07-30T11:56:11Z</time>
      </trkpt>
      <trkpt lat="43.1035890" lon="-7.8598570">
        <ele>502.5</ele>
        <time>2014-07-30T11:56:20Z</time>
      </trkpt>
      <trkpt lat="43.1035360" lon="-7.8599120">
        <ele>502.6</ele>
        <time>2014-07-30T11:56:22Z</time>
      </trkpt>
      <trkpt lat="43.1035050" lon="-7.8599510">
        <ele>502.7</ele>
        <time>2014-07-30T11:56:23Z</time>
      </trkpt>
      <trkpt lat="43.1031490" lon="-7.8602940">
        <ele>503.8</ele>
        <time>2014-07-30T11:56:34Z</time>
      </trkpt>
      <trkpt lat="43.1031040" lon="-7.8603220">
        <ele>503.9</ele>
        <time>2014-07-30T11:56:35Z</time>
      </trkpt>
      <trkpt lat="43.1027950" lon="-7.8603430">
        <ele>504.1</ele>
        <time>2014-07-30T11:56:45Z</time>
      </trkpt>
      <trkpt lat="43.1024830" lon="-7.8605220">
        <ele>504.6</ele>
        <time>2014-07-30T11:56:56Z</time>
      </trkpt>
      <trkpt lat="43.1021700" lon="-7.8608020">
        <ele>505.2</ele>
        <time>2014-07-30T11:57:06Z</time>
      </trkpt>
      <trkpt lat="43.1019610" lon="-7.8612090">
        <ele>506.7</ele>
        <time>2014-07-30T11:57:19Z</time>
      </trkpt>
      <trkpt lat="43.1016830" lon="-7.8616650">
        <ele>508.0</ele>
        <time>2014-07-30T11:57:34Z</time>
      </trkpt>
      <trkpt lat="43.1014140" lon="-7.8620540">
        <ele>509.6</ele>
        <time>2014-07-30T11:57:49Z</time>
      </trkpt>
      <trkpt lat="43.1012870" lon="-7.8622540">
        <ele>510.7</ele>
        <time>2014-07-30T11:57:56Z</time>
      </trkpt>
      <trkpt lat="43.1010770" lon="-7.8624510">
        <ele>512.4</ele>
        <time>2014-07-30T11:58:09Z</time>
      </trkpt>
      <trkpt lat="43.1010500" lon="-7.8624790">
        <ele>512.6</ele>
        <time>2014-07-30T11:58:11Z</time>
      </trkpt>
      <trkpt lat="43.1007930" lon="-7.8628050">
        <ele>514.2</ele>
        <time>2014-07-30T11:58:29Z</time>
      </trkpt>
      <trkpt lat="43.1006010" lon="-7.8631580">
        <ele>514.8</ele>
        <time>2014-07-30T11:58:42Z</time>
      </trkpt>
      <trkpt lat="43.1004530" lon="-7.8635360">
        <ele>515.8</ele>
        <time>2014-07-30T11:58:54Z</time>
      </trkpt>
      <trkpt lat="43.1004270" lon="-7.8636000">
        <ele>516.2</ele>
        <time>2014-07-30T11:58:56Z</time>
      </trkpt>
      <trkpt lat="43.1003420" lon="-7.8640530">
        <ele>516.9</ele>
        <time>2014-07-30T11:59:10Z</time>
      </trkpt>
      <trkpt lat="43.1003010" lon="-7.8644730">
        <ele>516.9</ele>
        <time>2014-07-30T11:59:22Z</time>
      </trkpt>
      <trkpt lat="43.1001550" lon="-7.8650220">
        <ele>516.9</ele>
        <time>2014-07-30T11:59:35Z</time>
      </trkpt>
      <trkpt lat="43.1000040" lon="-7.8655020">
        <ele>516.9</ele>
        <time>2014-07-30T11:59:47Z</time>
      </trkpt>
      <trkpt lat="43.0999050" lon="-7.8659420">
        <ele>516.9</ele>
        <time>2014-07-30T11:59:59Z</time>
      </trkpt>
      <trkpt lat="43.0996920" lon="-7.8665480">
        <ele>516.9</ele>
        <time>2014-07-30T12:00:12Z</time>
      </trkpt>
      <trkpt lat="43.0996670" lon="-7.8665930">
        <ele>516.9</ele>
        <time>2014-07-30T12:00:13Z</time>
      </trkpt>
      <trkpt lat="43.0994100" lon="-7.8670580">
        <ele>516.9</ele>
        <time>2014-07-30T12:00:23Z</time>
      </trkpt>
      <trkpt lat="43.0992220" lon="-7.8675190">
        <ele>516.9</ele>
        <time>2014-07-30T12:00:34Z</time>
      </trkpt>
      <trkpt lat="43.0989860" lon="-7.8679120">
        <ele>517.1</ele>
        <time>2014-07-30T12:00:44Z</time>
      </trkpt>
      <trkpt lat="43.0986370" lon="-7.8683220">
        <ele>518.7</ele>
        <time>2014-07-30T12:00:56Z</time>
      </trkpt>
      <trkpt lat="43.0983280" lon="-7.8686450">
        <ele>520.2</ele>
        <time>2014-07-30T12:01:07Z</time>
      </trkpt>
      <trkpt lat="43.0983320" lon="-7.8686700">
        <ele>520.3</ele>
        <time>2014-07-30T12:01:08Z</time>
      </trkpt>
      <trkpt lat="43.0983400" lon="-7.8686980">
        <ele>520.4</ele>
        <time>2014-07-30T12:01:09Z</time>
      </trkpt>
      <trkpt lat="43.0983510" lon="-7.8687290">
        <ele>520.6</ele>
        <time>2014-07-30T12:01:10Z</time>
      </trkpt>
      <trkpt lat="43.0983560" lon="-7.8687590">
        <ele>520.8</ele>
        <time>2014-07-30T12:01:11Z</time>
      </trkpt>
      <trkpt lat="43.0983580" lon="-7.8687870">
        <ele>521.0</ele>
        <time>2014-07-30T12:01:12Z</time>
      </trkpt>
      <trkpt lat="43.0983580" lon="-7.8688160">
        <ele>521.1</ele>
        <time>2014-07-30T12:01:13Z</time>
      </trkpt>
      <trkpt lat="43.0983570" lon="-7.8688490">
        <ele>521.2</ele>
        <time>2014-07-30T12:01:14Z</time>
      </trkpt>
      <trkpt lat="43.0983550" lon="-7.8688850">
        <ele>521.3</ele>
        <time>2014-07-30T12:01:15Z</time>
      </trkpt>
      <trkpt lat="43.0983480" lon="-7.8689220">
        <ele>521.4</ele>
        <time>2014-07-30T12:01:16Z</time>
      </trkpt>
      <trkpt lat="43.0983400" lon="-7.8689580">
        <ele>521.5</ele>
        <time>2014-07-30T12:01:17Z</time>
      </trkpt>
      <trkpt lat="43.0983350" lon="-7.8689930">
        <ele>521.6</ele>
        <time>2014-07-30T12:01:18Z</time>
      </trkpt>
      <trkpt lat="43.0983330" lon="-7.8690290">
        <ele>521.7</ele>
        <time>2014-07-30T12:01:19Z</time>
      </trkpt>
      <trkpt lat="43.0982550" lon="-7.8695130">
        <ele>522.9</ele>
        <time>2014-07-30T12:01:32Z</time>
      </trkpt>
      <trkpt lat="43.0980940" lon="-7.8699780">
        <ele>523.7</ele>
        <time>2014-07-30T12:01:45Z</time>
      </trkpt>
      <trkpt lat="43.0979420" lon="-7.8704370">
        <ele>524.6</ele>
        <time>2014-07-30T12:01:57Z</time>
      </trkpt>
      <trkpt lat="43.0978890" lon="-7.8709060">
        <ele>526.5</ele>
        <time>2014-07-30T12:02:10Z</time>
      </trkpt>
      <trkpt lat="43.0978690" lon="-7.8712940">
        <ele>528.9</ele>
        <time>2014-07-30T12:02:23Z</time>
      </trkpt>
      <trkpt lat="43.0978370" lon="-7.8713950">
        <ele>529.2</ele>
        <time>2014-07-30T12:02:27Z</time>
      </trkpt>
      <trkpt lat="43.0978170" lon="-7.8714140">
        <ele>529.3</ele>
        <time>2014-07-30T12:02:28Z</time>
      </trkpt>
      <trkpt lat="43.0977970" lon="-7.8714360">
        <ele>529.3</ele>
        <time>2014-07-30T12:02:29Z</time>
      </trkpt>
      <trkpt lat="43.0977780" lon="-7.8714540">
        <ele>529.3</ele>
        <time>2014-07-30T12:02:30Z</time>
      </trkpt>
      <trkpt lat="43.0977560" lon="-7.8714660">
        <ele>529.3</ele>
        <time>2014-07-30T12:02:31Z</time>
      </trkpt>
      <trkpt lat="43.0977360" lon="-7.8714790">
        <ele>529.4</ele>
        <time>2014-07-30T12:02:32Z</time>
      </trkpt>
      <trkpt lat="43.0975230" lon="-7.8716050">
        <ele>529.6</ele>
        <time>2014-07-30T12:02:43Z</time>
      </trkpt>
      <trkpt lat="43.0974780" lon="-7.8716650">
        <ele>529.8</ele>
        <time>2014-07-30T12:02:46Z</time>
      </trkpt>
      <trkpt lat="43.0974640" lon="-7.8716860">
        <ele>529.9</ele>
        <time>2014-07-30T12:02:47Z</time>
      </trkpt>
      <trkpt lat="43.0974460" lon="-7.8717070">
        <ele>530.1</ele>
        <time>2014-07-30T12:02:48Z</time>
      </trkpt>
      <trkpt lat="43.0972890" lon="-7.8719970">
        <ele>531.9</ele>
        <time>2014-07-30T12:02:59Z</time>
      </trkpt>
      <trkpt lat="43.0971390" lon="-7.8722620">
        <ele>533.2</ele>
        <time>2014-07-30T12:03:12Z</time>
      </trkpt>
      <trkpt lat="43.0969560" lon="-7.8726920">
        <ele>534.1</ele>
        <time>2014-07-30T12:03:29Z</time>
      </trkpt>
      <trkpt lat="43.0968630" lon="-7.8733160">
        <ele>535.1</ele>
        <time>2014-07-30T12:03:44Z</time>
      </trkpt>
      <trkpt lat="43.0968210" lon="-7.8738150">
        <ele>535.9</ele>
        <time>2014-07-30T12:03:57Z</time>
      </trkpt>
      <trkpt lat="43.0967730" lon="-7.8742740">
        <ele>538.0</ele>
        <time>2014-07-30T12:04:10Z</time>
      </trkpt>
      <trkpt lat="43.0967540" lon="-7.8746250">
        <ele>540.2</ele>
        <time>2014-07-30T12:04:22Z</time>
      </trkpt>
      <trkpt lat="43.0966350" lon="-7.8749200">
        <ele>541.8</ele>
        <time>2014-07-30T12:04:35Z</time>
      </trkpt>
      <trkpt lat="43.0966370" lon="-7.8752430">
        <ele>544.4</ele>
        <time>2014-07-30T12:04:49Z</time>
      </trkpt>
      <trkpt lat="43.0966480" lon="-7.8755570">
        <ele>546.5</ele>
        <time>2014-07-30T12:05:04Z</time>
      </trkpt>
      <trkpt lat="43.0965770" lon="-7.8758840">
        <ele>548.8</ele>
        <time>2014-07-30T12:05:19Z</time>
      </trkpt>
      <trkpt lat="43.0964750" lon="-7.8762100">
        <ele>551.0</ele>
        <time>2014-07-30T12:05:34Z</time>
      </trkpt>
      <trkpt lat="43.0964540" lon="-7.8762440">
        <ele>551.3</ele>
        <time>2014-07-30T12:05:36Z</time>
      </trkpt>
      <trkpt lat="43.0964470" lon="-7.8762630">
        <ele>551.4</ele>
        <time>2014-07-30T12:05:37Z</time>
      </trkpt>
      <trkpt lat="43.0964420" lon="-7.8762820">
        <ele>551.5</ele>
        <time>2014-07-30T12:05:38Z</time>
      </trkpt>
      <trkpt lat="43.0964380" lon="-7.8763040">
        <ele>551.7</ele>
        <time>2014-07-30T12:05:39Z</time>
      </trkpt>
      <trkpt lat="43.0964330" lon="-7.8763250">
        <ele>551.8</ele>
        <time>2014-07-30T12:05:40Z</time>
      </trkpt>
      <trkpt lat="43.0964290" lon="-7.8763460">
        <ele>552.0</ele>
        <time>2014-07-30T12:05:41Z</time>
      </trkpt>
      <trkpt lat="43.0964230" lon="-7.8763680">
        <ele>552.2</ele>
        <time>2014-07-30T12:05:42Z</time>
      </trkpt>
      <trkpt lat="43.0963970" lon="-7.8765210">
        <ele>553.4</ele>
        <time>2014-07-30T12:05:54Z</time>
      </trkpt>
      <trkpt lat="43.0963970" lon="-7.8765210">
        <ele>553.4</ele>
        <time>2014-07-30T12:06:17Z</time>
      </trkpt>
      <trkpt lat="43.0963890" lon="-7.8765500">
        <ele>553.6</ele>
        <time>2014-07-30T12:06:42Z</time>
      </trkpt>
      <trkpt lat="43.0963860" lon="-7.8765710">
        <ele>553.8</ele>
        <time>2014-07-30T12:06:43Z</time>
      </trkpt>
      <trkpt lat="43.0963850" lon="-7.8765960">
        <ele>554.0</ele>
        <time>2014-07-30T12:06:44Z</time>
      </trkpt>
      <trkpt lat="43.0963650" lon="-7.8767670">
        <ele>555.2</ele>
        <time>2014-07-30T12:06:52Z</time>
      </trkpt>
      <trkpt lat="43.0963540" lon="-7.8767830">
        <ele>555.3</ele>
        <time>2014-07-30T12:06:53Z</time>
      </trkpt>
      <trkpt lat="43.0963450" lon="-7.8768050">
        <ele>555.5</ele>
        <time>2014-07-30T12:06:54Z</time>
      </trkpt>
      <trkpt lat="43.0963360" lon="-7.8768240">
        <ele>555.6</ele>
        <time>2014-07-30T12:06:55Z</time>
      </trkpt>
      <trkpt lat="43.0963320" lon="-7.8768440">
        <ele>555.6</ele>
        <time>2014-07-30T12:06:56Z</time>
      </trkpt>
      <trkpt lat="43.0963330" lon="-7.8768670">
        <ele>555.7</ele>
        <time>2014-07-30T12:06:57Z</time>
      </trkpt>
      <trkpt lat="43.0963330" lon="-7.8768940">
        <ele>555.9</ele>
        <time>2014-07-30T12:06:58Z</time>
      </trkpt>
      <trkpt lat="43.0963280" lon="-7.8769200">
        <ele>556.0</ele>
        <time>2014-07-30T12:06:59Z</time>
      </trkpt>
      <trkpt lat="43.0963250" lon="-7.8769450">
        <ele>556.1</ele>
        <time>2014-07-30T12:07:00Z</time>
      </trkpt>
      <trkpt lat="43.0963180" lon="-7.8769690">
        <ele>556.2</ele>
        <time>2014-07-30T12:07:01Z</time>
      </trkpt>
      <trkpt lat="43.0963120" lon="-7.8769940">
        <ele>556.3</ele>
        <time>2014-07-30T12:07:02Z</time>
      </trkpt>
      <trkpt lat="43.0963050" lon="-7.8770170">
        <ele>556.4</ele>
        <time>2014-07-30T12:07:03Z</time>
      </trkpt>
      <trkpt lat="43.0962940" lon="-7.8770410">
        <ele>556.6</ele>
        <time>2014-07-30T12:07:04Z</time>
      </trkpt>
      <trkpt lat="43.0962110" lon="-7.8773690">
        <ele>558.1</ele>
        <time>2014-07-30T12:07:17Z</time>
      </trkpt>
      <trkpt lat="43.0960470" lon="-7.8777440">
        <ele>559.9</ele>
        <time>2014-07-30T12:07:33Z</time>
      </trkpt>
      <trkpt lat="43.0959700" lon="-7.8781870">
        <ele>561.2</ele>
        <time>2014-07-30T12:07:48Z</time>
      </trkpt>
      <trkpt lat="43.0959330" lon="-7.8785870">
        <ele>562.0</ele>
        <time>2014-07-30T12:08:00Z</time>
      </trkpt>
      <trkpt lat="43.0957910" lon="-7.8789470">
        <ele>563.1</ele>
        <time>2014-07-30T12:08:13Z</time>
      </trkpt>
      <trkpt lat="43.0957760" lon="-7.8789700">
        <ele>563.2</ele>
        <time>2014-07-30T12:08:14Z</time>
      </trkpt>
      <trkpt lat="43.0957680" lon="-7.8789970">
        <ele>563.3</ele>
        <time>2014-07-30T12:08:15Z</time>
      </trkpt>
      <trkpt lat="43.0957740" lon="-7.8794660">
        <ele>565.3</ele>
        <time>2014-07-30T12:08:29Z</time>
      </trkpt>
      <trkpt lat="43.0958780" lon="-7.8798160">
        <ele>567.1</ele>
        <time>2014-07-30T12:08:41Z</time>
      </trkpt>
      <trkpt lat="43.0960830" lon="-7.8801660">
        <ele>568.5</ele>
        <time>2014-07-30T12:08:55Z</time>
      </trkpt>
      <trkpt lat="43.0962170" lon="-7.8803400">
        <ele>570.2</ele>
        <time>2014-07-30T12:09:05Z</time>
      </trkpt>
      <trkpt lat="43.0964090" lon="-7.8806910">
        <ele>571.8</ele>
        <time>2014-07-30T12:09:20Z</time>
      </trkpt>
      <trkpt lat="43.0964940" lon="-7.8810540">
        <ele>572.8</ele>
        <time>2014-07-30T12:09:31Z</time>
      </trkpt>
      <trkpt lat="43.0965820" lon="-7.8815000">
        <ele>573.6</ele>
        <time>2014-07-30T12:09:44Z</time>
      </trkpt>
      <trkpt lat="43.0966440" lon="-7.8817740">
        <ele>574.1</ele>
        <time>2014-07-30T12:09:52Z</time>
      </trkpt>
      <trkpt lat="43.0966460" lon="-7.8817980">
        <ele>574.2</ele>
        <time>2014-07-30T12:09:53Z</time>
      </trkpt>
      <trkpt lat="43.0966760" lon="-7.8820300">
        <ele>575.0</ele>
        <time>2014-07-30T12:10:01Z</time>
      </trkpt>
      <trkpt lat="43.0966740" lon="-7.8820570">
        <ele>575.1</ele>
        <time>2014-07-30T12:10:02Z</time>
      </trkpt>
      <trkpt lat="43.0966350" lon="-7.8825480">
        <ele>576.5</ele>
        <time>2014-07-30T12:10:16Z</time>
      </trkpt>
      <trkpt lat="43.0963480" lon="-7.8829260">
        <ele>574.9</ele>
        <time>2014-07-30T12:10:25Z</time>
      </trkpt>
      <trkpt lat="43.0957230" lon="-7.8835160">
        <ele>573.8</ele>
        <time>2014-07-30T12:10:37Z</time>
      </trkpt>
      <trkpt lat="43.0956700" lon="-7.8835590">
        <ele>573.9</ele>
        <time>2014-07-30T12:10:38Z</time>
      </trkpt>
      <trkpt lat="43.0955290" lon="-7.8836790">
        <ele>574.2</ele>
        <time>2014-07-30T12:10:41Z</time>
      </trkpt>
      <trkpt lat="43.0954850" lon="-7.8837090">
        <ele>574.0</ele>
        <time>2014-07-30T12:10:42Z</time>
      </trkpt>
      <trkpt lat="43.0953610" lon="-7.8837830">
        <ele>573.7</ele>
        <time>2014-07-30T12:10:45Z</time>
      </trkpt>
      <trkpt lat="43.0952620" lon="-7.8838140">
        <ele>573.5</ele>
        <time>2014-07-30T12:10:47Z</time>
      </trkpt>
      <trkpt lat="43.0952130" lon="-7.8838280">
        <ele>573.4</ele>
        <time>2014-07-30T12:10:48Z</time>
      </trkpt>
      <trkpt lat="43.0951630" lon="-7.8838410">
        <ele>573.2</ele>
        <time>2014-07-30T12:10:49Z</time>
      </trkpt>
      <trkpt lat="43.0950030" lon="-7.8838800">
        <ele>572.7</ele>
        <time>2014-07-30T12:10:52Z</time>
      </trkpt>
      <trkpt lat="43.0949490" lon="-7.8838980">
        <ele>572.5</ele>
        <time>2014-07-30T12:10:53Z</time>
      </trkpt>
      <trkpt lat="43.0940780" lon="-7.8838600">
        <ele>570.3</ele>
        <time>2014-07-30T12:11:08Z</time>
      </trkpt>
      <trkpt lat="43.0940220" lon="-7.8838310">
        <ele>570.2</ele>
        <time>2014-07-30T12:11:09Z</time>
      </trkpt>
      <trkpt lat="43.0939120" lon="-7.8837580">
        <ele>570.1</ele>
        <time>2014-07-30T12:11:11Z</time>
      </trkpt>
      <trkpt lat="43.0938610" lon="-7.8837210">
        <ele>570.1</ele>
        <time>2014-07-30T12:11:12Z</time>
      </trkpt>
      <trkpt lat="43.0937630" lon="-7.8836630">
        <ele>570.0</ele>
        <time>2014-07-30T12:11:14Z</time>
      </trkpt>
      <trkpt lat="43.0936310" lon="-7.8835880">
        <ele>569.9</ele>
        <time>2014-07-30T12:11:17Z</time>
      </trkpt>
      <trkpt lat="43.0935940" lon="-7.8835570">
        <ele>569.9</ele>
        <time>2014-07-30T12:11:18Z</time>
      </trkpt>
      <trkpt lat="43.0935610" lon="-7.8835290">
        <ele>569.9</ele>
        <time>2014-07-30T12:11:19Z</time>
      </trkpt>
      <trkpt lat="43.0933080" lon="-7.8833900">
        <ele>570.6</ele>
        <time>2014-07-30T12:11:25Z</time>
      </trkpt>
      <trkpt lat="43.0932550" lon="-7.8833710">
        <ele>570.4</ele>
        <time>2014-07-30T12:11:26Z</time>
      </trkpt>
      <trkpt lat="43.0930340" lon="-7.8832910">
        <ele>569.7</ele>
        <time>2014-07-30T12:11:30Z</time>
      </trkpt>
      <trkpt lat="43.0929800" lon="-7.8832840">
        <ele>569.7</ele>
        <time>2014-07-30T12:11:31Z</time>
      </trkpt>
      <trkpt lat="43.0929280" lon="-7.8832830">
        <ele>569.6</ele>
        <time>2014-07-30T12:11:32Z</time>
      </trkpt>
      <trkpt lat="43.0928290" lon="-7.8833050">
        <ele>569.8</ele>
        <time>2014-07-30T12:11:34Z</time>
      </trkpt>
      <trkpt lat="43.0924440" lon="-7.8834430">
        <ele>575.6</ele>
        <time>2014-07-30T12:11:45Z</time>
      </trkpt>
      <trkpt lat="43.0924190" lon="-7.8834510">
        <ele>576.2</ele>
        <time>2014-07-30T12:11:46Z</time>
      </trkpt>
      <trkpt lat="43.0923940" lon="-7.8834540">
        <ele>576.6</ele>
        <time>2014-07-30T12:11:47Z</time>
      </trkpt>
      <trkpt lat="43.0923630" lon="-7.8834640">
        <ele>577.0</ele>
        <time>2014-07-30T12:11:48Z</time>
      </trkpt>
      <trkpt lat="43.0920850" lon="-7.8835490">
        <ele>578.6</ele>
        <time>2014-07-30T12:11:58Z</time>
      </trkpt>
      <trkpt lat="43.0920630" lon="-7.8835450">
        <ele>578.6</ele>
        <time>2014-07-30T12:11:59Z</time>
      </trkpt>
      <trkpt lat="43.0920360" lon="-7.8835450">
        <ele>578.7</ele>
        <time>2014-07-30T12:12:00Z</time>
      </trkpt>
      <trkpt lat="43.0920110" lon="-7.8835490">
        <ele>578.7</ele>
        <time>2014-07-30T12:12:01Z</time>
      </trkpt>
      <trkpt lat="43.0919880" lon="-7.8835510">
        <ele>578.8</ele>
        <time>2014-07-30T12:12:02Z</time>
      </trkpt>
      <trkpt lat="43.0919640" lon="-7.8835540">
        <ele>578.8</ele>
        <time>2014-07-30T12:12:03Z</time>
      </trkpt>
      <trkpt lat="43.0919400" lon="-7.8835550">
        <ele>578.8</ele>
        <time>2014-07-30T12:12:04Z</time>
      </trkpt>
      <trkpt lat="43.0919150" lon="-7.8835530">
        <ele>578.9</ele>
        <time>2014-07-30T12:12:05Z</time>
      </trkpt>
      <trkpt lat="43.0918860" lon="-7.8835520">
        <ele>578.9</ele>
        <time>2014-07-30T12:12:06Z</time>
      </trkpt>
      <trkpt lat="43.0918600" lon="-7.8835500">
        <ele>578.9</ele>
        <time>2014-07-30T12:12:07Z</time>
      </trkpt>
      <trkpt lat="43.0918410" lon="-7.8835530">
        <ele>578.9</ele>
        <time>2014-07-30T12:12:08Z</time>
      </trkpt>
      <trkpt lat="43.0915960" lon="-7.8834990">
        <ele>578.7</ele>
        <time>2014-07-30T12:12:20Z</time>
      </trkpt>
      <trkpt lat="43.0915840" lon="-7.8835060">
        <ele>578.7</ele>
        <time>2014-07-30T12:12:40Z</time>
      </trkpt>
      <trkpt lat="43.0915840" lon="-7.8835110">
        <ele>578.7</ele>
        <time>2014-07-30T12:13:09Z</time>
      </trkpt>
      <trkpt lat="43.0915830" lon="-7.8834870">
        <ele>578.7</ele>
        <time>2014-07-30T12:13:27Z</time>
      </trkpt>
      <trkpt lat="43.0915730" lon="-7.8834750">
        <ele>578.7</ele>
        <time>2014-07-30T12:13:28Z</time>
      </trkpt>
      <trkpt lat="43.0915560" lon="-7.8834680">
        <ele>578.6</ele>
        <time>2014-07-30T12:13:29Z</time>
      </trkpt>
      <trkpt lat="43.0915420" lon="-7.8834640">
        <ele>578.6</ele>
        <time>2014-07-30T12:13:30Z</time>
      </trkpt>
      <trkpt lat="43.0915270" lon="-7.8834590">
        <ele>578.6</ele>
        <time>2014-07-30T12:13:31Z</time>
      </trkpt>
      <trkpt lat="43.0915080" lon="-7.8834530">
        <ele>578.6</ele>
        <time>2014-07-30T12:13:32Z</time>
      </trkpt>
      <trkpt lat="43.0914900" lon="-7.8834420">
        <ele>578.6</ele>
        <time>2014-07-30T12:13:33Z</time>
      </trkpt>
      <trkpt lat="43.0914750" lon="-7.8834320">
        <ele>578.6</ele>
        <time>2014-07-30T12:13:34Z</time>
      </trkpt>
      <trkpt lat="43.0914610" lon="-7.8834220">
        <ele>578.6</ele>
        <time>2014-07-30T12:13:35Z</time>
      </trkpt>
      <trkpt lat="43.0914500" lon="-7.8834090">
        <ele>578.7</ele>
        <time>2014-07-30T12:13:36Z</time>
      </trkpt>
      <trkpt lat="43.0914380" lon="-7.8833980">
        <ele>578.7</ele>
        <time>2014-07-30T12:13:37Z</time>
      </trkpt>
      <trkpt lat="43.0913940" lon="-7.8833400">
        <ele>578.7</ele>
        <time>2014-07-30T12:13:41Z</time>
      </trkpt>
      <trkpt lat="43.0911690" lon="-7.8830150">
        <ele>579.3</ele>
        <time>2014-07-30T12:13:54Z</time>
      </trkpt>
      <trkpt lat="43.0907970" lon="-7.8826400">
        <ele>579.2</ele>
        <time>2014-07-30T12:14:09Z</time>
      </trkpt>
      <trkpt lat="43.0904890" lon="-7.8823280">
        <ele>577.9</ele>
        <time>2014-07-30T12:14:21Z</time>
      </trkpt>
      <trkpt lat="43.0901930" lon="-7.8820850">
        <ele>575.1</ele>
        <time>2014-07-30T12:14:28Z</time>
      </trkpt>
      <trkpt lat="43.0893970" lon="-7.8813930">
        <ele>571.6</ele>
        <time>2014-07-30T12:14:42Z</time>
      </trkpt>
      <trkpt lat="43.0885220" lon="-7.8811250">
        <ele>569.4</ele>
        <time>2014-07-30T12:14:55Z</time>
      </trkpt>
      <trkpt lat="43.0882810" lon="-7.8810780">
        <ele>569.2</ele>
        <time>2014-07-30T12:14:59Z</time>
      </trkpt>
      <trkpt lat="43.0882320" lon="-7.8810670">
        <ele>569.1</ele>
        <time>2014-07-30T12:15:00Z</time>
      </trkpt>
      <trkpt lat="43.0881840" lon="-7.8810570">
        <ele>569.1</ele>
        <time>2014-07-30T12:15:01Z</time>
      </trkpt>
      <trkpt lat="43.0880940" lon="-7.8810400">
        <ele>569.1</ele>
        <time>2014-07-30T12:15:03Z</time>
      </trkpt>
      <trkpt lat="43.0877810" lon="-7.8810690">
        <ele>570.6</ele>
        <time>2014-07-30T12:15:14Z</time>
      </trkpt>
      <trkpt lat="43.0875340" lon="-7.8811680">
        <ele>573.7</ele>
        <time>2014-07-30T12:15:30Z</time>
      </trkpt>
      <trkpt lat="43.0873160" lon="-7.8812400">
        <ele>576.5</ele>
        <time>2014-07-30T12:15:44Z</time>
      </trkpt>
      <trkpt lat="43.0869890" lon="-7.8811720">
        <ele>579.0</ele>
        <time>2014-07-30T12:16:04Z</time>
      </trkpt>
      <trkpt lat="43.0866980" lon="-7.8809910">
        <ele>580.8</ele>
        <time>2014-07-30T12:16:23Z</time>
      </trkpt>
      <trkpt lat="43.0864120" lon="-7.8808390">
        <ele>582.4</ele>
        <time>2014-07-30T12:16:39Z</time>
      </trkpt>
      <trkpt lat="43.0861840" lon="-7.8807150">
        <ele>583.3</ele>
        <time>2014-07-30T12:16:52Z</time>
      </trkpt>
      <trkpt lat="43.0859560" lon="-7.8805570">
        <ele>583.7</ele>
        <time>2014-07-30T12:17:05Z</time>
      </trkpt>
      <trkpt lat="43.0855880" lon="-7.8803610">
        <ele>584.9</ele>
        <time>2014-07-30T12:17:18Z</time>
      </trkpt>
      <trkpt lat="43.0851730" lon="-7.8801850">
        <ele>587.4</ele>
        <time>2014-07-30T12:17:32Z</time>
      </trkpt>
      <trkpt lat="43.0848020" lon="-7.8800460">
        <ele>590.0</ele>
        <time>2014-07-30T12:17:47Z</time>
      </trkpt>
      <trkpt lat="43.0844690" lon="-7.8799500">
        <ele>592.4</ele>
        <time>2014-07-30T12:18:02Z</time>
      </trkpt>
      <trkpt lat="43.0841400" lon="-7.8798410">
        <ele>594.7</ele>
        <time>2014-07-30T12:18:18Z</time>
      </trkpt>
      <trkpt lat="43.0839180" lon="-7.8797130">
        <ele>596.3</ele>
        <time>2014-07-30T12:18:31Z</time>
      </trkpt>
      <trkpt lat="43.0835730" lon="-7.8794660">
        <ele>598.5</ele>
        <time>2014-07-30T12:18:50Z</time>
      </trkpt>
      <trkpt lat="43.0835180" lon="-7.8794390">
        <ele>598.7</ele>
        <time>2014-07-30T12:18:54Z</time>
      </trkpt>
      <trkpt lat="43.0835030" lon="-7.8794230">
        <ele>598.8</ele>
        <time>2014-07-30T12:18:55Z</time>
      </trkpt>
      <trkpt lat="43.0833150" lon="-7.8792860">
        <ele>599.7</ele>
        <time>2014-07-30T12:19:07Z</time>
      </trkpt>
      <trkpt lat="43.0830840" lon="-7.8791040">
        <ele>600.8</ele>
        <time>2014-07-30T12:19:18Z</time>
      </trkpt>
      <trkpt lat="43.0828230" lon="-7.8789100">
        <ele>602.2</ele>
        <time>2014-07-30T12:19:31Z</time>
      </trkpt>
      <trkpt lat="43.0825610" lon="-7.8787790">
        <ele>603.5</ele>
        <time>2014-07-30T12:19:43Z</time>
      </trkpt>
      <trkpt lat="43.0822860" lon="-7.8786680">
        <ele>605.0</ele>
        <time>2014-07-30T12:19:56Z</time>
      </trkpt>
      <trkpt lat="43.0819020" lon="-7.8785750">
        <ele>607.0</ele>
        <time>2014-07-30T12:20:10Z</time>
      </trkpt>
      <trkpt lat="43.0816880" lon="-7.8785410">
        <ele>608.1</ele>
        <time>2014-07-30T12:20:20Z</time>
      </trkpt>
      <trkpt lat="43.0814900" lon="-7.8785010">
        <ele>609.2</ele>
        <time>2014-07-30T12:20:30Z</time>
      </trkpt>
      <trkpt lat="43.0811250" lon="-7.8784830">
        <ele>611.4</ele>
        <time>2014-07-30T12:20:41Z</time>
      </trkpt>
      <trkpt lat="43.0806820" lon="-7.8783570">
        <ele>614.3</ele>
        <time>2014-07-30T12:20:57Z</time>
      </trkpt>
      <trkpt lat="43.0803070" lon="-7.8780400">
        <ele>616.6</ele>
        <time>2014-07-30T12:21:11Z</time>
      </trkpt>
      <trkpt lat="43.0802390" lon="-7.8780560">
        <ele>616.7</ele>
        <time>2014-07-30T12:21:13Z</time>
      </trkpt>
      <trkpt lat="43.0802130" lon="-7.8780870">
        <ele>616.7</ele>
        <time>2014-07-30T12:21:14Z</time>
      </trkpt>
      <trkpt lat="43.0798460" lon="-7.8788480">
        <ele>617.1</ele>
        <time>2014-07-30T12:21:28Z</time>
      </trkpt>
      <trkpt lat="43.0791670" lon="-7.8801140">
        <ele>617.5</ele>
        <time>2014-07-30T12:21:46Z</time>
      </trkpt>
      <trkpt lat="43.0783430" lon="-7.8813410">
        <ele>617.9</ele>
        <time>2014-07-30T12:22:06Z</time>
      </trkpt>
      <trkpt lat="43.0777810" lon="-7.8820960">
        <ele>618.1</ele>
        <time>2014-07-30T12:22:21Z</time>
      </trkpt>
      <trkpt lat="43.0777040" lon="-7.8821770">
        <ele>618.2</ele>
        <time>2014-07-30T12:22:23Z</time>
      </trkpt>
      <trkpt lat="43.0773560" lon="-7.8825160">
        <ele>619.1</ele>
        <time>2014-07-30T12:22:34Z</time>
      </trkpt>
      <trkpt lat="43.0770020" lon="-7.8828610">
        <ele>620.0</ele>
        <time>2014-07-30T12:22:45Z</time>
      </trkpt>
      <trkpt lat="43.0766950" lon="-7.8831470">
        <ele>621.2</ele>
        <time>2014-07-30T12:22:56Z</time>
      </trkpt>
      <trkpt lat="43.0764400" lon="-7.8835580">
        <ele>623.1</ele>
        <time>2014-07-30T12:23:10Z</time>
      </trkpt>
      <trkpt lat="43.0763520" lon="-7.8839500">
        <ele>625.5</ele>
        <time>2014-07-30T12:23:22Z</time>
      </trkpt>
      <trkpt lat="43.0762170" lon="-7.8843650">
        <ele>627.5</ele>
        <time>2014-07-30T12:23:35Z</time>
      </trkpt>
      <trkpt lat="43.0759550" lon="-7.8847350">
        <ele>628.9</ele>
        <time>2014-07-30T12:23:51Z</time>
      </trkpt>
      <trkpt lat="43.0757000" lon="-7.8851040">
        <ele>630.4</ele>
        <time>2014-07-30T12:24:05Z</time>
      </trkpt>
      <trkpt lat="43.0754110" lon="-7.8853490">
        <ele>631.8</ele>
        <time>2014-07-30T12:24:18Z</time>
      </trkpt>
      <trkpt lat="43.0750700" lon="-7.8855570">
        <ele>633.2</ele>
        <time>2014-07-30T12:24:32Z</time>
      </trkpt>
      <trkpt lat="43.0748000" lon="-7.8859800">
        <ele>633.9</ele>
        <time>2014-07-30T12:24:47Z</time>
      </trkpt>
      <trkpt lat="43.0744950" lon="-7.8865480">
        <ele>636.1</ele>
        <time>2014-07-30T12:25:03Z</time>
      </trkpt>
      <trkpt lat="43.0744290" lon="-7.8866690">
        <ele>636.6</ele>
        <time>2014-07-30T12:25:12Z</time>
      </trkpt>
      <trkpt lat="43.0744290" lon="-7.8866690">
        <ele>636.6</ele>
        <time>2014-07-30T12:25:13Z</time>
      </trkpt>
      <trkpt lat="43.0744290" lon="-7.8866690">
        <ele>636.6</ele>
        <time>2014-07-30T12:25:14Z</time>
      </trkpt>
      <trkpt lat="43.0744290" lon="-7.8866690">
        <ele>636.6</ele>
        <time>2014-07-30T12:25:15Z</time>
      </trkpt>
      <trkpt lat="43.0744290" lon="-7.8866690">
        <ele>636.6</ele>
        <time>2014-07-30T12:25:31Z</time>
      </trkpt>
      <trkpt lat="43.0744290" lon="-7.8866690">
        <ele>636.6</ele>
        <time>2014-07-30T12:25:33Z</time>
      </trkpt>
      <trkpt lat="43.0744290" lon="-7.8866690">
        <ele>636.6</ele>
        <time>2014-07-30T12:25:35Z</time>
      </trkpt>
      <trkpt lat="43.0744290" lon="-7.8866690">
        <ele>636.6</ele>
        <time>2014-07-30T12:25:36Z</time>
      </trkpt>
      <trkpt lat="43.0744290" lon="-7.8866690">
        <ele>636.6</ele>
        <time>2014-07-30T12:25:37Z</time>
      </trkpt>
      <trkpt lat="43.0744290" lon="-7.8866690">
        <ele>636.6</ele>
        <time>2014-07-30T12:25:42Z</time>
      </trkpt>
      <trkpt lat="43.0744290" lon="-7.8866690">
        <ele>636.6</ele>
        <time>2014-07-30T12:25:43Z</time>
      </trkpt>
      <trkpt lat="43.0743880" lon="-7.8867530">
        <ele>636.8</ele>
        <time>2014-07-30T12:25:58Z</time>
      </trkpt>
      <trkpt lat="43.0741340" lon="-7.8871900">
        <ele>639.0</ele>
        <time>2014-07-30T12:26:11Z</time>
      </trkpt>
      <trkpt lat="43.0738610" lon="-7.8877570">
        <ele>640.8</ele>
        <time>2014-07-30T12:26:25Z</time>
      </trkpt>
      <trkpt lat="43.0735350" lon="-7.8885500">
        <ele>643.8</ele>
        <time>2014-07-30T12:26:41Z</time>
      </trkpt>
      <trkpt lat="43.0732750" lon="-7.8892950">
        <ele>643.7</ele>
        <time>2014-07-30T12:26:55Z</time>
      </trkpt>
      <trkpt lat="43.0732600" lon="-7.8893530">
        <ele>643.6</ele>
        <time>2014-07-30T12:26:56Z</time>
      </trkpt>
      <trkpt lat="43.0731160" lon="-7.8899710">
        <ele>641.5</ele>
        <time>2014-07-30T12:27:05Z</time>
      </trkpt>
      <trkpt lat="43.0730100" lon="-7.8907120">
        <ele>638.8</ele>
        <time>2014-07-30T12:27:15Z</time>
      </trkpt>
      <trkpt lat="43.0729990" lon="-7.8907760">
        <ele>638.6</ele>
        <time>2014-07-30T12:27:16Z</time>
      </trkpt>
      <trkpt lat="43.0729880" lon="-7.8908420">
        <ele>638.4</ele>
        <time>2014-07-30T12:27:17Z</time>
      </trkpt>
      <trkpt lat="43.0729780" lon="-7.8909080">
        <ele>638.3</ele>
        <time>2014-07-30T12:27:18Z</time>
      </trkpt>
      <trkpt lat="43.0729690" lon="-7.8909770">
        <ele>638.1</ele>
        <time>2014-07-30T12:27:19Z</time>
      </trkpt>
      <trkpt lat="43.0729610" lon="-7.8910450">
        <ele>638.0</ele>
        <time>2014-07-30T12:27:20Z</time>
      </trkpt>
      <trkpt lat="43.0728820" lon="-7.8917040">
        <ele>636.6</ele>
        <time>2014-07-30T12:27:30Z</time>
      </trkpt>
      <trkpt lat="43.0728540" lon="-7.8920800">
        <ele>635.9</ele>
        <time>2014-07-30T12:27:35Z</time>
      </trkpt>
      <trkpt lat="43.0728940" lon="-7.8925270">
        <ele>635.7</ele>
        <time>2014-07-30T12:27:40Z</time>
      </trkpt>
      <trkpt lat="43.0729280" lon="-7.8927050">
        <ele>635.6</ele>
        <time>2014-07-30T12:27:42Z</time>
      </trkpt>
      <trkpt lat="43.0732850" lon="-7.8936870">
        <ele>633.0</ele>
        <time>2014-07-30T12:27:52Z</time>
      </trkpt>
      <trkpt lat="43.0733250" lon="-7.8938010">
        <ele>632.5</ele>
        <time>2014-07-30T12:27:53Z</time>
      </trkpt>
      <trkpt lat="43.0735010" lon="-7.8944230">
        <ele>629.9</ele>
        <time>2014-07-30T12:27:58Z</time>
      </trkpt>
      <trkpt lat="43.0736480" lon="-7.8949600">
        <ele>627.4</ele>
        <time>2014-07-30T12:28:02Z</time>
      </trkpt>
      <trkpt lat="43.0737890" lon="-7.8955280">
        <ele>624.7</ele>
        <time>2014-07-30T12:28:06Z</time>
      </trkpt>
      <trkpt lat="43.0739210" lon="-7.8960510">
        <ele>621.8</ele>
        <time>2014-07-30T12:28:10Z</time>
      </trkpt>
      <trkpt lat="43.0739490" lon="-7.8962900">
        <ele>620.2</ele>
        <time>2014-07-30T12:28:12Z</time>
      </trkpt>
      <trkpt lat="43.0739390" lon="-7.8964030">
        <ele>619.4</ele>
        <time>2014-07-30T12:28:13Z</time>
      </trkpt>
      <trkpt lat="43.0739140" lon="-7.8965170">
        <ele>618.5</ele>
        <time>2014-07-30T12:28:14Z</time>
      </trkpt>
      <trkpt lat="43.0738780" lon="-7.8966290">
        <ele>617.7</ele>
        <time>2014-07-30T12:28:15Z</time>
      </trkpt>
      <trkpt lat="43.0738330" lon="-7.8967380">
        <ele>617.0</ele>
        <time>2014-07-30T12:28:16Z</time>
      </trkpt>
      <trkpt lat="43.0737820" lon="-7.8968510">
        <ele>616.2</ele>
        <time>2014-07-30T12:28:17Z</time>
      </trkpt>
      <trkpt lat="43.0736670" lon="-7.8970930">
        <ele>614.6</ele>
        <time>2014-07-30T12:28:19Z</time>
      </trkpt>
      <trkpt lat="43.0735460" lon="-7.8973320">
        <ele>613.3</ele>
        <time>2014-07-30T12:28:21Z</time>
      </trkpt>
      <trkpt lat="43.0734960" lon="-7.8974440">
        <ele>613.8</ele>
        <time>2014-07-30T12:28:22Z</time>
      </trkpt>
      <trkpt lat="43.0733140" lon="-7.8979720">
        <ele>618.3</ele>
        <time>2014-07-30T12:28:28Z</time>
      </trkpt>
      <trkpt lat="43.0732970" lon="-7.8980430">
        <ele>618.9</ele>
        <time>2014-07-30T12:28:29Z</time>
      </trkpt>
      <trkpt lat="43.0732860" lon="-7.8981070">
        <ele>619.4</ele>
        <time>2014-07-30T12:28:30Z</time>
      </trkpt>
      <trkpt lat="43.0732160" lon="-7.8987400">
        <ele>622.1</ele>
        <time>2014-07-30T12:28:43Z</time>
      </trkpt>
      <trkpt lat="43.0730170" lon="-7.8990890">
        <ele>622.9</ele>
        <time>2014-07-30T12:28:54Z</time>
      </trkpt>
      <trkpt lat="43.0728290" lon="-7.8992490">
        <ele>623.6</ele>
        <time>2014-07-30T12:29:01Z</time>
      </trkpt>
      <trkpt lat="43.0723980" lon="-7.8995600">
        <ele>623.5</ele>
        <time>2014-07-30T12:29:15Z</time>
      </trkpt>
      <trkpt lat="43.0720000" lon="-7.8997870">
        <ele>623.9</ele>
        <time>2014-07-30T12:29:27Z</time>
      </trkpt>
      <trkpt lat="43.0715680" lon="-7.8996690">
        <ele>626.8</ele>
        <time>2014-07-30T12:29:39Z</time>
      </trkpt>
      <trkpt lat="43.0711970" lon="-7.8994950">
        <ele>629.8</ele>
        <time>2014-07-30T12:29:52Z</time>
      </trkpt>
      <trkpt lat="43.0709640" lon="-7.8993850">
        <ele>630.5</ele>
        <time>2014-07-30T12:30:00Z</time>
      </trkpt>
      <trkpt lat="43.0705010" lon="-7.8991670">
        <ele>629.7</ele>
        <time>2014-07-30T12:30:13Z</time>
      </trkpt>
      <trkpt lat="43.0703790" lon="-7.8991310">
        <ele>629.6</ele>
        <time>2014-07-30T12:30:16Z</time>
      </trkpt>
      <trkpt lat="43.0702840" lon="-7.8991240">
        <ele>629.4</ele>
        <time>2014-07-30T12:30:18Z</time>
      </trkpt>
      <trkpt lat="43.0702380" lon="-7.8991290">
        <ele>629.4</ele>
        <time>2014-07-30T12:30:19Z</time>
      </trkpt>
      <trkpt lat="43.0701920" lon="-7.8991420">
        <ele>629.3</ele>
        <time>2014-07-30T12:30:20Z</time>
      </trkpt>
      <trkpt lat="43.0701440" lon="-7.8991680">
        <ele>629.2</ele>
        <time>2014-07-30T12:30:21Z</time>
      </trkpt>
      <trkpt lat="43.0700970" lon="-7.8991980">
        <ele>629.1</ele>
        <time>2014-07-30T12:30:22Z</time>
      </trkpt>
      <trkpt lat="43.0700500" lon="-7.8992310">
        <ele>629.1</ele>
        <time>2014-07-30T12:30:23Z</time>
      </trkpt>
      <trkpt lat="43.0700030" lon="-7.8992650">
        <ele>629.0</ele>
        <time>2014-07-30T12:30:24Z</time>
      </trkpt>
      <trkpt lat="43.0699570" lon="-7.8993080">
        <ele>629.0</ele>
        <time>2014-07-30T12:30:25Z</time>
      </trkpt>
      <trkpt lat="43.0699170" lon="-7.8993600">
        <ele>629.0</ele>
        <time>2014-07-30T12:30:26Z</time>
      </trkpt>
      <trkpt lat="43.0698830" lon="-7.8994130">
        <ele>629.1</ele>
        <time>2014-07-30T12:30:27Z</time>
      </trkpt>
      <trkpt lat="43.0698240" lon="-7.8995360">
        <ele>629.1</ele>
        <time>2014-07-30T12:30:29Z</time>
      </trkpt>
      <trkpt lat="43.0697410" lon="-7.8997340">
        <ele>627.7</ele>
        <time>2014-07-30T12:30:32Z</time>
      </trkpt>
      <trkpt lat="43.0695710" lon="-7.9002190">
        <ele>625.5</ele>
        <time>2014-07-30T12:30:39Z</time>
      </trkpt>
      <trkpt lat="43.0694860" lon="-7.9004510">
        <ele>624.5</ele>
        <time>2014-07-30T12:30:42Z</time>
      </trkpt>
      <trkpt lat="43.0694470" lon="-7.9006080">
        <ele>623.9</ele>
        <time>2014-07-30T12:30:44Z</time>
      </trkpt>
      <trkpt lat="43.0693800" lon="-7.9008360">
        <ele>622.7</ele>
        <time>2014-07-30T12:30:47Z</time>
      </trkpt>
      <trkpt lat="43.0693460" lon="-7.9009040">
        <ele>622.3</ele>
        <time>2014-07-30T12:30:48Z</time>
      </trkpt>
      <trkpt lat="43.0692980" lon="-7.9009650">
        <ele>622.0</ele>
        <time>2014-07-30T12:30:49Z</time>
      </trkpt>
      <trkpt lat="43.0692400" lon="-7.9010150">
        <ele>621.6</ele>
        <time>2014-07-30T12:30:50Z</time>
      </trkpt>
      <trkpt lat="43.0691790" lon="-7.9010530">
        <ele>621.1</ele>
        <time>2014-07-30T12:30:51Z</time>
      </trkpt>
      <trkpt lat="43.0691150" lon="-7.9010820">
        <ele>620.8</ele>
        <time>2014-07-30T12:30:52Z</time>
      </trkpt>
      <trkpt lat="43.0690530" lon="-7.9011030">
        <ele>620.4</ele>
        <time>2014-07-30T12:30:53Z</time>
      </trkpt>
      <trkpt lat="43.0689900" lon="-7.9011190">
        <ele>620.1</ele>
        <time>2014-07-30T12:30:54Z</time>
      </trkpt>
      <trkpt lat="43.0688690" lon="-7.9011380">
        <ele>619.7</ele>
        <time>2014-07-30T12:30:56Z</time>
      </trkpt>
      <trkpt lat="43.0684190" lon="-7.9011680">
        <ele>616.8</ele>
        <time>2014-07-30T12:31:02Z</time>
      </trkpt>
      <trkpt lat="43.0679160" lon="-7.9012220">
        <ele>612.2</ele>
        <time>2014-07-30T12:31:08Z</time>
      </trkpt>
      <trkpt lat="43.0672370" lon="-7.9012130">
        <ele>608.5</ele>
        <time>2014-07-30T12:31:16Z</time>
      </trkpt>
      <trkpt lat="43.0670100" lon="-7.9012050">
        <ele>607.1</ele>
        <time>2014-07-30T12:31:18Z</time>
      </trkpt>
      <trkpt lat="43.0669150" lon="-7.9012200">
        <ele>606.4</ele>
        <time>2014-07-30T12:31:19Z</time>
      </trkpt>
      <trkpt lat="43.0668220" lon="-7.9012540">
        <ele>605.8</ele>
        <time>2014-07-30T12:31:20Z</time>
      </trkpt>
      <trkpt lat="43.0667330" lon="-7.9013000">
        <ele>604.9</ele>
        <time>2014-07-30T12:31:21Z</time>
      </trkpt>
      <trkpt lat="43.0666530" lon="-7.9013640">
        <ele>604.2</ele>
        <time>2014-07-30T12:31:22Z</time>
      </trkpt>
      <trkpt lat="43.0665780" lon="-7.9014410">
        <ele>603.5</ele>
        <time>2014-07-30T12:31:23Z</time>
      </trkpt>
      <trkpt lat="43.0665070" lon="-7.9015320">
        <ele>603.6</ele>
        <time>2014-07-30T12:31:24Z</time>
      </trkpt>
      <trkpt lat="43.0664410" lon="-7.9016320">
        <ele>603.7</ele>
        <time>2014-07-30T12:31:25Z</time>
      </trkpt>
      <trkpt lat="43.0663820" lon="-7.9017400">
        <ele>603.9</ele>
        <time>2014-07-30T12:31:26Z</time>
      </trkpt>
      <trkpt lat="43.0663330" lon="-7.9018520">
        <ele>604.0</ele>
        <time>2014-07-30T12:31:27Z</time>
      </trkpt>
      <trkpt lat="43.0662920" lon="-7.9019630">
        <ele>604.0</ele>
        <time>2014-07-30T12:31:28Z</time>
      </trkpt>
      <trkpt lat="43.0662550" lon="-7.9020700">
        <ele>604.1</ele>
        <time>2014-07-30T12:31:29Z</time>
      </trkpt>
      <trkpt lat="43.0662040" lon="-7.9022760">
        <ele>604.2</ele>
        <time>2014-07-30T12:31:31Z</time>
      </trkpt>
      <trkpt lat="43.0661930" lon="-7.9023730">
        <ele>604.2</ele>
        <time>2014-07-30T12:31:32Z</time>
      </trkpt>
      <trkpt lat="43.0661840" lon="-7.9024670">
        <ele>604.2</ele>
        <time>2014-07-30T12:31:33Z</time>
      </trkpt>
      <trkpt lat="43.0661780" lon="-7.9025540">
        <ele>604.2</ele>
        <time>2014-07-30T12:31:34Z</time>
      </trkpt>
      <trkpt lat="43.0661750" lon="-7.9026360">
        <ele>604.2</ele>
        <time>2014-07-30T12:31:35Z</time>
      </trkpt>
      <trkpt lat="43.0662350" lon="-7.9035680">
        <ele>603.6</ele>
        <time>2014-07-30T12:31:47Z</time>
      </trkpt>
      <trkpt lat="43.0662730" lon="-7.9037950">
        <ele>603.4</ele>
        <time>2014-07-30T12:31:50Z</time>
      </trkpt>
      <trkpt lat="43.0662930" lon="-7.9038630">
        <ele>603.3</ele>
        <time>2014-07-30T12:31:51Z</time>
      </trkpt>
      <trkpt lat="43.0663120" lon="-7.9039320">
        <ele>603.3</ele>
        <time>2014-07-30T12:31:52Z</time>
      </trkpt>
      <trkpt lat="43.0663560" lon="-7.9042760">
        <ele>603.0</ele>
        <time>2014-07-30T12:31:57Z</time>
      </trkpt>
      <trkpt lat="43.0664100" lon="-7.9045550">
        <ele>602.8</ele>
        <time>2014-07-30T12:32:01Z</time>
      </trkpt>
      <trkpt lat="43.0666620" lon="-7.9052860">
        <ele>602.3</ele>
        <time>2014-07-30T12:32:11Z</time>
      </trkpt>
      <trkpt lat="43.0667110" lon="-7.9055710">
        <ele>602.3</ele>
        <time>2014-07-30T12:32:15Z</time>
      </trkpt>
      <trkpt lat="43.0667030" lon="-7.9056320">
        <ele>602.3</ele>
        <time>2014-07-30T12:32:16Z</time>
      </trkpt>
      <trkpt lat="43.0666920" lon="-7.9056910">
        <ele>602.3</ele>
        <time>2014-07-30T12:32:17Z</time>
      </trkpt>
      <trkpt lat="43.0666440" lon="-7.9060050">
        <ele>602.0</ele>
        <time>2014-07-30T12:32:22Z</time>
      </trkpt>
      <trkpt lat="43.0666330" lon="-7.9060640">
        <ele>601.9</ele>
        <time>2014-07-30T12:32:23Z</time>
      </trkpt>
      <trkpt lat="43.0666280" lon="-7.9061230">
        <ele>601.9</ele>
        <time>2014-07-30T12:32:24Z</time>
      </trkpt>
      <trkpt lat="43.0666280" lon="-7.9061690">
        <ele>601.9</ele>
        <time>2014-07-30T12:32:25Z</time>
      </trkpt>
      <trkpt lat="43.0666330" lon="-7.9062100">
        <ele>601.9</ele>
        <time>2014-07-30T12:32:26Z</time>
      </trkpt>
      <trkpt lat="43.0666100" lon="-7.9066960">
        <ele>601.5</ele>
        <time>2014-07-30T12:32:35Z</time>
      </trkpt>
      <trkpt lat="43.0665290" lon="-7.9069740">
        <ele>601.2</ele>
        <time>2014-07-30T12:32:39Z</time>
      </trkpt>
      <trkpt lat="43.0664370" lon="-7.9072200">
        <ele>601.0</ele>
        <time>2014-07-30T12:32:42Z</time>
      </trkpt>
      <trkpt lat="43.0664100" lon="-7.9072970">
        <ele>600.9</ele>
        <time>2014-07-30T12:32:43Z</time>
      </trkpt>
      <trkpt lat="43.0663580" lon="-7.9074490">
        <ele>600.8</ele>
        <time>2014-07-30T12:32:45Z</time>
      </trkpt>
      <trkpt lat="43.0663320" lon="-7.9075380">
        <ele>600.9</ele>
        <time>2014-07-30T12:32:46Z</time>
      </trkpt>
      <trkpt lat="43.0663170" lon="-7.9076340">
        <ele>600.9</ele>
        <time>2014-07-30T12:32:47Z</time>
      </trkpt>
      <trkpt lat="43.0663070" lon="-7.9077260">
        <ele>601.1</ele>
        <time>2014-07-30T12:32:48Z</time>
      </trkpt>
      <trkpt lat="43.0663050" lon="-7.9078000">
        <ele>601.3</ele>
        <time>2014-07-30T12:32:49Z</time>
      </trkpt>
      <trkpt lat="43.0663070" lon="-7.9078680">
        <ele>601.5</ele>
        <time>2014-07-30T12:32:50Z</time>
      </trkpt>
      <trkpt lat="43.0663120" lon="-7.9079330">
        <ele>601.7</ele>
        <time>2014-07-30T12:32:51Z</time>
      </trkpt>
      <trkpt lat="43.0665090" lon="-7.9084950">
        <ele>603.5</ele>
        <time>2014-07-30T12:33:04Z</time>
      </trkpt>
      <trkpt lat="43.0667340" lon="-7.9089680">
        <ele>605.4</ele>
        <time>2014-07-30T12:33:18Z</time>
      </trkpt>
      <trkpt lat="43.0669750" lon="-7.9095140">
        <ele>607.7</ele>
        <time>2014-07-30T12:33:35Z</time>
      </trkpt>
      <trkpt lat="43.0670980" lon="-7.9097840">
        <ele>609.1</ele>
        <time>2014-07-30T12:33:47Z</time>
      </trkpt>
      <trkpt lat="43.0672060" lon="-7.9101120">
        <ele>611.7</ele>
        <time>2014-07-30T12:34:02Z</time>
      </trkpt>
      <trkpt lat="43.0672470" lon="-7.9104300">
        <ele>614.0</ele>
        <time>2014-07-30T12:34:17Z</time>
      </trkpt>
      <trkpt lat="43.0672070" lon="-7.9106860">
        <ele>615.7</ele>
        <time>2014-07-30T12:34:29Z</time>
      </trkpt>
      <trkpt lat="43.0671070" lon="-7.9110650">
        <ele>618.0</ele>
        <time>2014-07-30T12:34:46Z</time>
      </trkpt>
      <trkpt lat="43.0669650" lon="-7.9114320">
        <ele>620.8</ele>
        <time>2014-07-30T12:35:04Z</time>
      </trkpt>
      <trkpt lat="43.0667660" lon="-7.9117640">
        <ele>623.4</ele>
        <time>2014-07-30T12:35:20Z</time>
      </trkpt>
      <trkpt lat="43.0665160" lon="-7.9120850">
        <ele>624.5</ele>
        <time>2014-07-30T12:35:37Z</time>
      </trkpt>
      <trkpt lat="43.0664600" lon="-7.9121350">
        <ele>624.6</ele>
        <time>2014-07-30T12:35:48Z</time>
      </trkpt>
      <trkpt lat="43.0664450" lon="-7.9120690">
        <ele>624.6</ele>
        <time>2014-07-30T12:35:57Z</time>
      </trkpt>
      <trkpt lat="43.0663310" lon="-7.9119860">
        <ele>623.3</ele>
        <time>2014-07-30T12:36:11Z</time>
      </trkpt>
      <trkpt lat="43.0663310" lon="-7.9119860">
        <ele>623.3</ele>
        <time>2014-07-30T12:36:35Z</time>
      </trkpt>
      <trkpt lat="43.0663310" lon="-7.9119850">
        <ele>623.3</ele>
        <time>2014-07-30T12:37:09Z</time>
      </trkpt>
      <trkpt lat="43.0663290" lon="-7.9119880">
        <ele>623.3</ele>
        <time>2014-07-30T12:37:49Z</time>
      </trkpt>
      <trkpt lat="43.0663290" lon="-7.9119850">
        <ele>623.3</ele>
        <time>2014-07-30T12:38:29Z</time>
      </trkpt>
      <trkpt lat="43.0663280" lon="-7.9119940">
        <ele>623.3</ele>
        <time>2014-07-30T12:39:12Z</time>
      </trkpt>
      <trkpt lat="43.0663290" lon="-7.9119930">
        <ele>623.3</ele>
        <time>2014-07-30T12:39:56Z</time>
      </trkpt>
      <trkpt lat="43.0663280" lon="-7.9119960">
        <ele>623.3</ele>
        <time>2014-07-30T12:40:36Z</time>
      </trkpt>
      <trkpt lat="43.0663280" lon="-7.9119950">
        <ele>623.3</ele>
        <time>2014-07-30T12:41:21Z</time>
      </trkpt>
      <trkpt lat="43.0663310" lon="-7.9119950">
        <ele>623.3</ele>
        <time>2014-07-30T12:41:59Z</time>
      </trkpt>
      <trkpt lat="43.0663340" lon="-7.9120010">
        <ele>623.3</ele>
        <time>2014-07-30T12:42:37Z</time>
      </trkpt>
      <trkpt lat="43.0663300" lon="-7.9120000">
        <ele>623.3</ele>
        <time>2014-07-30T12:43:18Z</time>
      </trkpt>
      <trkpt lat="43.0663280" lon="-7.9119970">
        <ele>623.3</ele>
        <time>2014-07-30T12:43:55Z</time>
      </trkpt>
      <trkpt lat="43.0663300" lon="-7.9119890">
        <ele>623.3</ele>
        <time>2014-07-30T12:44:37Z</time>
      </trkpt>
      <trkpt lat="43.0663300" lon="-7.9119830">
        <ele>623.3</ele>
        <time>2014-07-30T12:45:17Z</time>
      </trkpt>
      <trkpt lat="43.0663290" lon="-7.9119810">
        <ele>623.3</ele>
        <time>2014-07-30T12:45:54Z</time>
      </trkpt>
      <trkpt lat="43.0663270" lon="-7.9119830">
        <ele>623.3</ele>
        <time>2014-07-30T12:46:36Z</time>
      </trkpt>
      <trkpt lat="43.0663200" lon="-7.9119870">
        <ele>623.3</ele>
        <time>2014-07-30T12:47:23Z</time>
      </trkpt>
      <trkpt lat="43.0663230" lon="-7.9119900">
        <ele>623.3</ele>
        <time>2014-07-30T12:48:04Z</time>
      </trkpt>
      <trkpt lat="43.0663250" lon="-7.9119910">
        <ele>623.3</ele>
        <time>2014-07-30T12:48:49Z</time>
      </trkpt>
      <trkpt lat="43.0663230" lon="-7.9120010">
        <ele>623.3</ele>
        <time>2014-07-30T12:49:26Z</time>
      </trkpt>
      <trkpt lat="43.0663290" lon="-7.9119980">
        <ele>623.3</ele>
        <time>2014-07-30T12:50:08Z</time>
      </trkpt>
      <trkpt lat="43.0663270" lon="-7.9120030">
        <ele>623.3</ele>
        <time>2014-07-30T12:50:47Z</time>
      </trkpt>
      <trkpt lat="43.0663320" lon="-7.9120100">
        <ele>623.3</ele>
        <time>2014-07-30T12:51:31Z</time>
      </trkpt>
      <trkpt lat="43.0663380" lon="-7.9120130">
        <ele>623.3</ele>
        <time>2014-07-30T12:52:11Z</time>
      </trkpt>
      <trkpt lat="43.0663350" lon="-7.9120150">
        <ele>623.3</ele>
        <time>2014-07-30T12:52:56Z</time>
      </trkpt>
      <trkpt lat="43.0663390" lon="-7.9120130">
        <ele>623.3</ele>
        <time>2014-07-30T12:53:41Z</time>
      </trkpt>
      <trkpt lat="43.0663360" lon="-7.9120160">
        <ele>623.3</ele>
        <time>2014-07-30T12:54:29Z</time>
      </trkpt>
      <trkpt lat="43.0663320" lon="-7.9120140">
        <ele>623.3</ele>
        <time>2014-07-30T12:55:14Z</time>
      </trkpt>
      <trkpt lat="43.0663340" lon="-7.9120130">
        <ele>623.3</ele>
        <time>2014-07-30T12:55:55Z</time>
      </trkpt>
      <trkpt lat="43.0663320" lon="-7.9120110">
        <ele>623.3</ele>
        <time>2014-07-30T12:56:29Z</time>
      </trkpt>
      <trkpt lat="43.0663330" lon="-7.9120110">
        <ele>623.3</ele>
        <time>2014-07-30T12:57:00Z</time>
      </trkpt>
      <trkpt lat="43.0663300" lon="-7.9120030">
        <ele>623.3</ele>
        <time>2014-07-30T12:57:38Z</time>
      </trkpt>
      <trkpt lat="43.0663320" lon="-7.9120020">
        <ele>623.3</ele>
        <time>2014-07-30T12:58:11Z</time>
      </trkpt>
      <trkpt lat="43.0663320" lon="-7.9120020">
        <ele>623.3</ele>
        <time>2014-07-30T12:58:47Z</time>
      </trkpt>
      <trkpt lat="43.0663320" lon="-7.9120020">
        <ele>623.3</ele>
        <time>2014-07-30T12:59:21Z</time>
      </trkpt>
      <trkpt lat="43.0663350" lon="-7.9120020">
        <ele>623.3</ele>
        <time>2014-07-30T13:00:01Z</time>
      </trkpt>
      <trkpt lat="43.0663370" lon="-7.9120050">
        <ele>623.3</ele>
        <time>2014-07-30T13:00:48Z</time>
      </trkpt>
      <trkpt lat="43.0663350" lon="-7.9120080">
        <ele>623.3</ele>
        <time>2014-07-30T13:01:29Z</time>
      </trkpt>
      <trkpt lat="43.0663450" lon="-7.9120000">
        <ele>623.4</ele>
        <time>2014-07-30T13:02:05Z</time>
      </trkpt>
      <trkpt lat="43.0663480" lon="-7.9119990">
        <ele>623.4</ele>
        <time>2014-07-30T13:02:48Z</time>
      </trkpt>
      <trkpt lat="43.0663490" lon="-7.9120030">
        <ele>623.4</ele>
        <time>2014-07-30T13:03:32Z</time>
      </trkpt>
      <trkpt lat="43.0663500" lon="-7.9120080">
        <ele>623.4</ele>
        <time>2014-07-30T13:04:16Z</time>
      </trkpt>
      <trkpt lat="43.0663500" lon="-7.9120080">
        <ele>623.4</ele>
        <time>2014-07-30T13:05:02Z</time>
      </trkpt>
      <trkpt lat="43.0662900" lon="-7.9119750">
        <ele>623.4</ele>
        <time>2014-07-30T14:12:09Z</time>
      </trkpt>
      <trkpt lat="43.0662760" lon="-7.9119750">
        <ele>623.4</ele>
        <time>2014-07-30T14:12:10Z</time>
      </trkpt>
      <trkpt lat="43.0663270" lon="-7.9120050">
        <ele>623.5</ele>
        <time>2014-07-30T14:12:37Z</time>
      </trkpt>
      <trkpt lat="43.0663180" lon="-7.9120060">
        <ele>623.5</ele>
        <time>2014-07-30T14:13:02Z</time>
      </trkpt>
      <trkpt lat="43.0663170" lon="-7.9120100">
        <ele>623.5</ele>
        <time>2014-07-30T14:13:03Z</time>
      </trkpt>
      <trkpt lat="43.0663180" lon="-7.9119980">
        <ele>623.5</ele>
        <time>2014-07-30T14:13:23Z</time>
      </trkpt>
      <trkpt lat="43.0663180" lon="-7.9119970">
        <ele>623.5</ele>
        <time>2014-07-30T14:13:24Z</time>
      </trkpt>
      <trkpt lat="43.0663340" lon="-7.9120030">
        <ele>623.5</ele>
        <time>2014-07-30T14:13:35Z</time>
      </trkpt>
      <trkpt lat="43.0663330" lon="-7.9120050">
        <ele>623.5</ele>
        <time>2014-07-30T14:13:36Z</time>
      </trkpt>
      <trkpt lat="43.0663060" lon="-7.9119970">
        <ele>623.5</ele>
        <time>2014-07-30T14:13:47Z</time>
      </trkpt>
      <trkpt lat="43.0663020" lon="-7.9119990">
        <ele>623.5</ele>
        <time>2014-07-30T14:14:18Z</time>
      </trkpt>
      <trkpt lat="43.0663570" lon="-7.9120120">
        <ele>623.5</ele>
        <time>2014-07-30T14:14:38Z</time>
      </trkpt>
      <trkpt lat="43.0663570" lon="-7.9120120">
        <ele>623.5</ele>
        <time>2014-07-30T14:15:02Z</time>
      </trkpt>
      <trkpt lat="43.0663560" lon="-7.9120120">
        <ele>623.5</ele>
        <time>2014-07-30T14:15:29Z</time>
      </trkpt>
      <trkpt lat="43.0663560" lon="-7.9120120">
        <ele>623.5</ele>
        <time>2014-07-30T14:15:54Z</time>
      </trkpt>
      <trkpt lat="43.0664030" lon="-7.9120060">
        <ele>623.6</ele>
        <time>2014-07-30T14:15:59Z</time>
      </trkpt>
      <trkpt lat="43.0664580" lon="-7.9121290">
        <ele>624.5</ele>
        <time>2014-07-30T14:16:08Z</time>
      </trkpt>
      <trkpt lat="43.0664590" lon="-7.9121720">
        <ele>624.6</ele>
        <time>2014-07-30T14:16:10Z</time>
      </trkpt>
      <trkpt lat="43.0663020" lon="-7.9124530">
        <ele>624.2</ele>
        <time>2014-07-30T14:16:26Z</time>
      </trkpt>
      <trkpt lat="43.0662750" lon="-7.9125340">
        <ele>624.0</ele>
        <time>2014-07-30T14:16:31Z</time>
      </trkpt>
      <trkpt lat="43.0661330" lon="-7.9127840">
        <ele>623.1</ele>
        <time>2014-07-30T14:16:44Z</time>
      </trkpt>
      <trkpt lat="43.0659740" lon="-7.9130760">
        <ele>622.8</ele>
        <time>2014-07-30T14:16:56Z</time>
      </trkpt>
      <trkpt lat="43.0657090" lon="-7.9136060">
        <ele>624.8</ele>
        <time>2014-07-30T14:17:09Z</time>
      </trkpt>
      <trkpt lat="43.0655860" lon="-7.9138690">
        <ele>625.4</ele>
        <time>2014-07-30T14:17:14Z</time>
      </trkpt>
      <trkpt lat="43.0655000" lon="-7.9140280">
        <ele>625.6</ele>
        <time>2014-07-30T14:17:17Z</time>
      </trkpt>
      <trkpt lat="43.0654760" lon="-7.9140870">
        <ele>625.5</ele>
        <time>2014-07-30T14:17:18Z</time>
      </trkpt>
      <trkpt lat="43.0654140" lon="-7.9142670">
        <ele>625.1</ele>
        <time>2014-07-30T14:17:21Z</time>
      </trkpt>
      <trkpt lat="43.0654010" lon="-7.9143290">
        <ele>625.0</ele>
        <time>2014-07-30T14:17:22Z</time>
      </trkpt>
      <trkpt lat="43.0653910" lon="-7.9143960">
        <ele>624.7</ele>
        <time>2014-07-30T14:17:23Z</time>
      </trkpt>
      <trkpt lat="43.0653100" lon="-7.9155240">
        <ele>619.0</ele>
        <time>2014-07-30T14:17:36Z</time>
      </trkpt>
      <trkpt lat="43.0652570" lon="-7.9162450">
        <ele>615.8</ele>
        <time>2014-07-30T14:17:42Z</time>
      </trkpt>
      <trkpt lat="43.0652470" lon="-7.9163740">
        <ele>615.2</ele>
        <time>2014-07-30T14:17:43Z</time>
      </trkpt>
      <trkpt lat="43.0652010" lon="-7.9170470">
        <ele>613.1</ele>
        <time>2014-07-30T14:17:48Z</time>
      </trkpt>
      <trkpt lat="43.0651760" lon="-7.9179760">
        <ele>614.1</ele>
        <time>2014-07-30T14:17:57Z</time>
      </trkpt>
      <trkpt lat="43.0651630" lon="-7.9185460">
        <ele>614.6</ele>
        <time>2014-07-30T14:18:08Z</time>
      </trkpt>
      <trkpt lat="43.0650650" lon="-7.9190330">
        <ele>615.2</ele>
        <time>2014-07-30T14:18:24Z</time>
      </trkpt>
      <trkpt lat="43.0647390" lon="-7.9193360">
        <ele>614.8</ele>
        <time>2014-07-30T14:18:39Z</time>
      </trkpt>
      <trkpt lat="43.0645080" lon="-7.9194470">
        <ele>615.4</ele>
        <time>2014-07-30T14:18:46Z</time>
      </trkpt>
      <trkpt lat="43.0642950" lon="-7.9195010">
        <ele>617.3</ele>
        <time>2014-07-30T14:18:51Z</time>
      </trkpt>
      <trkpt lat="43.0641950" lon="-7.9194990">
        <ele>618.3</ele>
        <time>2014-07-30T14:18:53Z</time>
      </trkpt>
      <trkpt lat="43.0641410" lon="-7.9194850">
        <ele>618.8</ele>
        <time>2014-07-30T14:18:54Z</time>
      </trkpt>
      <trkpt lat="43.0640880" lon="-7.9194620">
        <ele>619.2</ele>
        <time>2014-07-30T14:18:55Z</time>
      </trkpt>
      <trkpt lat="43.0640360" lon="-7.9194290">
        <ele>619.3</ele>
        <time>2014-07-30T14:18:56Z</time>
      </trkpt>
      <trkpt lat="43.0639880" lon="-7.9193920">
        <ele>619.4</ele>
        <time>2014-07-30T14:18:57Z</time>
      </trkpt>
      <trkpt lat="43.0638700" lon="-7.9192910">
        <ele>619.8</ele>
        <time>2014-07-30T14:19:00Z</time>
      </trkpt>
      <trkpt lat="43.0636040" lon="-7.9191020">
        <ele>621.0</ele>
        <time>2014-07-30T14:19:12Z</time>
      </trkpt>
      <trkpt lat="43.0633960" lon="-7.9189290">
        <ele>622.1</ele>
        <time>2014-07-30T14:19:28Z</time>
      </trkpt>
      <trkpt lat="43.0633340" lon="-7.9188980">
        <ele>622.4</ele>
        <time>2014-07-30T14:19:33Z</time>
      </trkpt>
      <trkpt lat="43.0633230" lon="-7.9189020">
        <ele>622.5</ele>
        <time>2014-07-30T14:19:34Z</time>
      </trkpt>
      <trkpt lat="43.0633120" lon="-7.9189090">
        <ele>622.6</ele>
        <time>2014-07-30T14:19:35Z</time>
      </trkpt>
      <trkpt lat="43.0633010" lon="-7.9189180">
        <ele>622.7</ele>
        <time>2014-07-30T14:19:36Z</time>
      </trkpt>
      <trkpt lat="43.0632920" lon="-7.9189300">
        <ele>622.8</ele>
        <time>2014-07-30T14:19:37Z</time>
      </trkpt>
      <trkpt lat="43.0632850" lon="-7.9189450">
        <ele>622.8</ele>
        <time>2014-07-30T14:19:38Z</time>
      </trkpt>
      <trkpt lat="43.0632740" lon="-7.9189540">
        <ele>622.9</ele>
        <time>2014-07-30T14:19:39Z</time>
      </trkpt>
      <trkpt lat="43.0632640" lon="-7.9189630">
        <ele>623.0</ele>
        <time>2014-07-30T14:19:40Z</time>
      </trkpt>
      <trkpt lat="43.0632560" lon="-7.9189890">
        <ele>623.2</ele>
        <time>2014-07-30T14:19:42Z</time>
      </trkpt>
      <trkpt lat="43.0632530" lon="-7.9190270">
        <ele>623.3</ele>
        <time>2014-07-30T14:19:45Z</time>
      </trkpt>
      <trkpt lat="43.0632610" lon="-7.9190680">
        <ele>623.6</ele>
        <time>2014-07-30T14:19:48Z</time>
      </trkpt>
      <trkpt lat="43.0632580" lon="-7.9190820">
        <ele>623.6</ele>
        <time>2014-07-30T14:19:49Z</time>
      </trkpt>
      <trkpt lat="43.0632450" lon="-7.9191070">
        <ele>623.8</ele>
        <time>2014-07-30T14:19:51Z</time>
      </trkpt>
      <trkpt lat="43.0632360" lon="-7.9191180">
        <ele>623.9</ele>
        <time>2014-07-30T14:19:52Z</time>
      </trkpt>
      <trkpt lat="43.0631790" lon="-7.9192070">
        <ele>624.7</ele>
        <time>2014-07-30T14:20:01Z</time>
      </trkpt>
      <trkpt lat="43.0630790" lon="-7.9192970">
        <ele>626.8</ele>
        <time>2014-07-30T14:20:14Z</time>
      </trkpt>
      <trkpt lat="43.0630400" lon="-7.9193110">
        <ele>627.4</ele>
        <time>2014-07-30T14:20:18Z</time>
      </trkpt>
      <trkpt lat="43.0630280" lon="-7.9193040">
        <ele>627.6</ele>
        <time>2014-07-30T14:20:19Z</time>
      </trkpt>
      <trkpt lat="43.0630010" lon="-7.9193010">
        <ele>628.0</ele>
        <time>2014-07-30T14:20:22Z</time>
      </trkpt>
      <trkpt lat="43.0629190" lon="-7.9192920">
        <ele>629.2</ele>
        <time>2014-07-30T14:20:32Z</time>
      </trkpt>
      <trkpt lat="43.0627820" lon="-7.9192490">
        <ele>630.8</ele>
        <time>2014-07-30T14:20:48Z</time>
      </trkpt>
      <trkpt lat="43.0627270" lon="-7.9192260">
        <ele>631.5</ele>
        <time>2014-07-30T14:20:54Z</time>
      </trkpt>
      <trkpt lat="43.0626870" lon="-7.9191910">
        <ele>631.9</ele>
        <time>2014-07-30T14:20:59Z</time>
      </trkpt>
      <trkpt lat="43.0625630" lon="-7.9191160">
        <ele>633.3</ele>
        <time>2014-07-30T14:21:12Z</time>
      </trkpt>
      <trkpt lat="43.0624060" lon="-7.9190100">
        <ele>635.3</ele>
        <time>2014-07-30T14:21:29Z</time>
      </trkpt>
      <trkpt lat="43.0622740" lon="-7.9189200">
        <ele>637.0</ele>
        <time>2014-07-30T14:21:44Z</time>
      </trkpt>
      <trkpt lat="43.0621270" lon="-7.9188760">
        <ele>638.9</ele>
        <time>2014-07-30T14:21:59Z</time>
      </trkpt>
      <trkpt lat="43.0619990" lon="-7.9188730">
        <ele>640.5</ele>
        <time>2014-07-30T14:22:11Z</time>
      </trkpt>
      <trkpt lat="43.0619400" lon="-7.9188960">
        <ele>641.3</ele>
        <time>2014-07-30T14:22:17Z</time>
      </trkpt>
      <trkpt lat="43.0617830" lon="-7.9189720">
        <ele>643.3</ele>
        <time>2014-07-30T14:22:33Z</time>
      </trkpt>
      <trkpt lat="43.0615950" lon="-7.9190780">
        <ele>645.6</ele>
        <time>2014-07-30T14:22:51Z</time>
      </trkpt>
      <trkpt lat="43.0615740" lon="-7.9190870">
        <ele>645.9</ele>
        <time>2014-07-30T14:22:53Z</time>
      </trkpt>
      <trkpt lat="43.0615480" lon="-7.9191050">
        <ele>646.2</ele>
        <time>2014-07-30T14:22:56Z</time>
      </trkpt>
      <trkpt lat="43.0615410" lon="-7.9191160">
        <ele>646.3</ele>
        <time>2014-07-30T14:22:57Z</time>
      </trkpt>
      <trkpt lat="43.0613750" lon="-7.9192010">
        <ele>647.9</ele>
        <time>2014-07-30T14:23:13Z</time>
      </trkpt>
      <trkpt lat="43.0611880" lon="-7.9192380">
        <ele>649.5</ele>
        <time>2014-07-30T14:23:28Z</time>
      </trkpt>
      <trkpt lat="43.0609930" lon="-7.9192330">
        <ele>651.1</ele>
        <time>2014-07-30T14:23:43Z</time>
      </trkpt>
      <trkpt lat="43.0608910" lon="-7.9192350">
        <ele>651.9</ele>
        <time>2014-07-30T14:23:50Z</time>
      </trkpt>
      <trkpt lat="43.0608770" lon="-7.9192380">
        <ele>652.0</ele>
        <time>2014-07-30T14:23:51Z</time>
      </trkpt>
      <trkpt lat="43.0606340" lon="-7.9192470">
        <ele>653.4</ele>
        <time>2014-07-30T14:24:06Z</time>
      </trkpt>
      <trkpt lat="43.0603720" lon="-7.9192730">
        <ele>654.8</ele>
        <time>2014-07-30T14:24:21Z</time>
      </trkpt>
      <trkpt lat="43.0601420" lon="-7.9193050">
        <ele>656.1</ele>
        <time>2014-07-30T14:24:35Z</time>
      </trkpt>
      <trkpt lat="43.0599130" lon="-7.9193210">
        <ele>657.1</ele>
        <time>2014-07-30T14:24:48Z</time>
      </trkpt>
      <trkpt lat="43.0596460" lon="-7.9193440">
        <ele>658.4</ele>
        <time>2014-07-30T14:25:02Z</time>
      </trkpt>
      <trkpt lat="43.0594380" lon="-7.9193570">
        <ele>659.7</ele>
        <time>2014-07-30T14:25:16Z</time>
      </trkpt>
      <trkpt lat="43.0591680" lon="-7.9193680">
        <ele>661.3</ele>
        <time>2014-07-30T14:25:34Z</time>
      </trkpt>
      <trkpt lat="43.0588980" lon="-7.9193840">
        <ele>663.1</ele>
        <time>2014-07-30T14:25:52Z</time>
      </trkpt>
      <trkpt lat="43.0586250" lon="-7.9194100">
        <ele>665.1</ele>
        <time>2014-07-30T14:26:10Z</time>
      </trkpt>
      <trkpt lat="43.0584320" lon="-7.9194220">
        <ele>666.5</ele>
        <time>2014-07-30T14:26:24Z</time>
      </trkpt>
      <trkpt lat="43.0583020" lon="-7.9194050">
        <ele>667.2</ele>
        <time>2014-07-30T14:26:34Z</time>
      </trkpt>
      <trkpt lat="43.0582900" lon="-7.9194120">
        <ele>667.3</ele>
        <time>2014-07-30T14:26:35Z</time>
      </trkpt>
      <trkpt lat="43.0582760" lon="-7.9194170">
        <ele>667.4</ele>
        <time>2014-07-30T14:26:36Z</time>
      </trkpt>
      <trkpt lat="43.0582630" lon="-7.9194210">
        <ele>667.4</ele>
        <time>2014-07-30T14:26:37Z</time>
      </trkpt>
      <trkpt lat="43.0582480" lon="-7.9194280">
        <ele>667.5</ele>
        <time>2014-07-30T14:26:38Z</time>
      </trkpt>
      <trkpt lat="43.0580620" lon="-7.9195210">
        <ele>668.8</ele>
        <time>2014-07-30T14:26:54Z</time>
      </trkpt>
      <trkpt lat="43.0578940" lon="-7.9195410">
        <ele>671.2</ele>
        <time>2014-07-30T14:27:07Z</time>
      </trkpt>
      <trkpt lat="43.0578680" lon="-7.9195410">
        <ele>671.6</ele>
        <time>2014-07-30T14:27:09Z</time>
      </trkpt>
      <trkpt lat="43.0578560" lon="-7.9195480">
        <ele>671.8</ele>
        <time>2014-07-30T14:27:10Z</time>
      </trkpt>
      <trkpt lat="43.0578440" lon="-7.9195530">
        <ele>672.0</ele>
        <time>2014-07-30T14:27:11Z</time>
      </trkpt>
      <trkpt lat="43.0577220" lon="-7.9195450">
        <ele>673.9</ele>
        <time>2014-07-30T14:27:26Z</time>
      </trkpt>
      <trkpt lat="43.0577220" lon="-7.9195450">
        <ele>673.9</ele>
        <time>2014-07-30T14:27:47Z</time>
      </trkpt>
      <trkpt lat="43.0577080" lon="-7.9195400">
        <ele>674.1</ele>
        <time>2014-07-30T14:27:48Z</time>
      </trkpt>
      <trkpt lat="43.0576930" lon="-7.9195410">
        <ele>674.3</ele>
        <time>2014-07-30T14:27:49Z</time>
      </trkpt>
      <trkpt lat="43.0576630" lon="-7.9195440">
        <ele>674.8</ele>
        <time>2014-07-30T14:27:51Z</time>
      </trkpt>
      <trkpt lat="43.0576340" lon="-7.9195450">
        <ele>675.1</ele>
        <time>2014-07-30T14:27:53Z</time>
      </trkpt>
      <trkpt lat="43.0575630" lon="-7.9195570">
        <ele>675.8</ele>
        <time>2014-07-30T14:27:58Z</time>
      </trkpt>
      <trkpt lat="43.0573110" lon="-7.9195730">
        <ele>676.8</ele>
        <time>2014-07-30T14:28:16Z</time>
      </trkpt>
      <trkpt lat="43.0570610" lon="-7.9195720">
        <ele>678.5</ele>
        <time>2014-07-30T14:28:31Z</time>
      </trkpt>
      <trkpt lat="43.0566760" lon="-7.9195880">
        <ele>681.0</ele>
        <time>2014-07-30T14:28:50Z</time>
      </trkpt>
      <trkpt lat="43.0563170" lon="-7.9195730">
        <ele>682.9</ele>
        <time>2014-07-30T14:29:05Z</time>
      </trkpt>
      <trkpt lat="43.0559490" lon="-7.9194690">
        <ele>684.8</ele>
        <time>2014-07-30T14:29:20Z</time>
      </trkpt>
      <trkpt lat="43.0555620" lon="-7.9192690">
        <ele>686.6</ele>
        <time>2014-07-30T14:29:37Z</time>
      </trkpt>
      <trkpt lat="43.0552480" lon="-7.9190350">
        <ele>689.0</ele>
        <time>2014-07-30T14:29:51Z</time>
      </trkpt>
      <trkpt lat="43.0551110" lon="-7.9188940">
        <ele>690.7</ele>
        <time>2014-07-30T14:29:59Z</time>
      </trkpt>
      <trkpt lat="43.0548850" lon="-7.9186550">
        <ele>693.6</ele>
        <time>2014-07-30T14:30:12Z</time>
      </trkpt>
      <trkpt lat="43.0545840" lon="-7.9183320">
        <ele>697.2</ele>
        <time>2014-07-30T14:30:28Z</time>
      </trkpt>
      <trkpt lat="43.0542920" lon="-7.9180730">
        <ele>697.4</ele>
        <time>2014-07-30T14:30:41Z</time>
      </trkpt>
      <trkpt lat="43.0538560" lon="-7.9177230">
        <ele>696.0</ele>
        <time>2014-07-30T14:30:55Z</time>
      </trkpt>
      <trkpt lat="43.0537760" lon="-7.9176520">
        <ele>695.6</ele>
        <time>2014-07-30T14:30:57Z</time>
      </trkpt>
      <trkpt lat="43.0537410" lon="-7.9176090">
        <ele>695.4</ele>
        <time>2014-07-30T14:30:58Z</time>
      </trkpt>
      <trkpt lat="43.0537080" lon="-7.9175620">
        <ele>695.3</ele>
        <time>2014-07-30T14:30:59Z</time>
      </trkpt>
      <trkpt lat="43.0534330" lon="-7.9170260">
        <ele>695.1</ele>
        <time>2014-07-30T14:31:09Z</time>
      </trkpt>
      <trkpt lat="43.0533340" lon="-7.9167830">
        <ele>694.8</ele>
        <time>2014-07-30T14:31:14Z</time>
      </trkpt>
      <trkpt lat="43.0532240" lon="-7.9164670">
        <ele>694.1</ele>
        <time>2014-07-30T14:31:20Z</time>
      </trkpt>
      <trkpt lat="43.0532070" lon="-7.9164180">
        <ele>694.0</ele>
        <time>2014-07-30T14:31:21Z</time>
      </trkpt>
      <trkpt lat="43.0529840" lon="-7.9159970">
        <ele>692.8</ele>
        <time>2014-07-30T14:31:31Z</time>
      </trkpt>
      <trkpt lat="43.0526620" lon="-7.9156300">
        <ele>692.3</ele>
        <time>2014-07-30T14:31:40Z</time>
      </trkpt>
      <trkpt lat="43.0526370" lon="-7.9155790">
        <ele>692.3</ele>
        <time>2014-07-30T14:31:41Z</time>
      </trkpt>
      <trkpt lat="43.0526110" lon="-7.9155290">
        <ele>692.3</ele>
        <time>2014-07-30T14:31:42Z</time>
      </trkpt>
      <trkpt lat="43.0525810" lon="-7.9154860">
        <ele>692.2</ele>
        <time>2014-07-30T14:31:43Z</time>
      </trkpt>
      <trkpt lat="43.0525470" lon="-7.9154540">
        <ele>692.1</ele>
        <time>2014-07-30T14:31:44Z</time>
      </trkpt>
      <trkpt lat="43.0525140" lon="-7.9154270">
        <ele>692.0</ele>
        <time>2014-07-30T14:31:45Z</time>
      </trkpt>
      <trkpt lat="43.0523510" lon="-7.9153210">
        <ele>691.4</ele>
        <time>2014-07-30T14:31:50Z</time>
      </trkpt>
      <trkpt lat="43.0523200" lon="-7.9152850">
        <ele>691.2</ele>
        <time>2014-07-30T14:31:51Z</time>
      </trkpt>
      <trkpt lat="43.0516940" lon="-7.9146310">
        <ele>688.4</ele>
        <time>2014-07-30T14:32:07Z</time>
      </trkpt>
      <trkpt lat="43.0508750" lon="-7.9141230">
        <ele>685.6</ele>
        <time>2014-07-30T14:32:22Z</time>
      </trkpt>
      <trkpt lat="43.0503240" lon="-7.9137530">
        <ele>682.9</ele>
        <time>2014-07-30T14:32:32Z</time>
      </trkpt>
      <trkpt lat="43.0502690" lon="-7.9137130">
        <ele>682.6</ele>
        <time>2014-07-30T14:32:33Z</time>
      </trkpt>
      <trkpt lat="43.0501590" lon="-7.9136230">
        <ele>682.1</ele>
        <time>2014-07-30T14:32:35Z</time>
      </trkpt>
      <trkpt lat="43.0493740" lon="-7.9128690">
        <ele>674.6</ele>
        <time>2014-07-30T14:32:48Z</time>
      </trkpt>
      <trkpt lat="43.0485050" lon="-7.9120560">
        <ele>667.3</ele>
        <time>2014-07-30T14:33:00Z</time>
      </trkpt>
      <trkpt lat="43.0478960" lon="-7.9114530">
        <ele>664.5</ele>
        <time>2014-07-30T14:33:08Z</time>
      </trkpt>
      <trkpt lat="43.0474730" lon="-7.9110790">
        <ele>664.4</ele>
        <time>2014-07-30T14:33:13Z</time>
      </trkpt>
      <trkpt lat="43.0470400" lon="-7.9106570">
        <ele>663.9</ele>
        <time>2014-07-30T14:33:18Z</time>
      </trkpt>
      <trkpt lat="43.0467740" lon="-7.9104050">
        <ele>663.4</ele>
        <time>2014-07-30T14:33:21Z</time>
      </trkpt>
      <trkpt lat="43.0464180" lon="-7.9100730">
        <ele>662.3</ele>
        <time>2014-07-30T14:33:25Z</time>
      </trkpt>
      <trkpt lat="43.0460790" lon="-7.9097630">
        <ele>660.8</ele>
        <time>2014-07-30T14:33:29Z</time>
      </trkpt>
      <trkpt lat="43.0457720" lon="-7.9095290">
        <ele>659.7</ele>
        <time>2014-07-30T14:33:33Z</time>
      </trkpt>
      <trkpt lat="43.0455990" lon="-7.9094180">
        <ele>658.6</ele>
        <time>2014-07-30T14:33:35Z</time>
      </trkpt>
      <trkpt lat="43.0452210" lon="-7.9091670">
        <ele>655.8</ele>
        <time>2014-07-30T14:33:39Z</time>
      </trkpt>
      <trkpt lat="43.0448110" lon="-7.9089070">
        <ele>653.3</ele>
        <time>2014-07-30T14:33:43Z</time>
      </trkpt>
      <trkpt lat="43.0443730" lon="-7.9086640">
        <ele>650.8</ele>
        <time>2014-07-30T14:33:47Z</time>
      </trkpt>
      <trkpt lat="43.0437900" lon="-7.9084080">
        <ele>648.0</ele>
        <time>2014-07-30T14:33:52Z</time>
      </trkpt>
      <trkpt lat="43.0436650" lon="-7.9083720">
        <ele>647.4</ele>
        <time>2014-07-30T14:33:53Z</time>
      </trkpt>
      <trkpt lat="43.0430610" lon="-7.9082730">
        <ele>645.2</ele>
        <time>2014-07-30T14:33:58Z</time>
      </trkpt>
      <trkpt lat="43.0429570" lon="-7.9082820">
        <ele>644.8</ele>
        <time>2014-07-30T14:33:59Z</time>
      </trkpt>
      <trkpt lat="43.0428560" lon="-7.9083110">
        <ele>644.2</ele>
        <time>2014-07-30T14:34:00Z</time>
      </trkpt>
      <trkpt lat="43.0427620" lon="-7.9083590">
        <ele>643.3</ele>
        <time>2014-07-30T14:34:01Z</time>
      </trkpt>
      <trkpt lat="43.0422820" lon="-7.9086630">
        <ele>639.6</ele>
        <time>2014-07-30T14:34:06Z</time>
      </trkpt>
      <trkpt lat="43.0419720" lon="-7.9088750">
        <ele>637.1</ele>
        <time>2014-07-30T14:34:09Z</time>
      </trkpt>
      <trkpt lat="43.0416660" lon="-7.9090880">
        <ele>634.5</ele>
        <time>2014-07-30T14:34:12Z</time>
      </trkpt>
      <trkpt lat="43.0413900" lon="-7.9092710">
        <ele>633.0</ele>
        <time>2014-07-30T14:34:15Z</time>
      </trkpt>
      <trkpt lat="43.0412960" lon="-7.9093080">
        <ele>632.6</ele>
        <time>2014-07-30T14:34:16Z</time>
      </trkpt>
      <trkpt lat="43.0412040" lon="-7.9093260">
        <ele>632.2</ele>
        <time>2014-07-30T14:34:17Z</time>
      </trkpt>
      <trkpt lat="43.0411170" lon="-7.9093300">
        <ele>631.9</ele>
        <time>2014-07-30T14:34:18Z</time>
      </trkpt>
      <trkpt lat="43.0410370" lon="-7.9093220">
        <ele>631.6</ele>
        <time>2014-07-30T14:34:19Z</time>
      </trkpt>
      <trkpt lat="43.0409660" lon="-7.9093060">
        <ele>631.3</ele>
        <time>2014-07-30T14:34:20Z</time>
      </trkpt>
      <trkpt lat="43.0409100" lon="-7.9092890">
        <ele>631.1</ele>
        <time>2014-07-30T14:34:21Z</time>
      </trkpt>
      <trkpt lat="43.0408620" lon="-7.9092700">
        <ele>631.0</ele>
        <time>2014-07-30T14:34:22Z</time>
      </trkpt>
      <trkpt lat="43.0407070" lon="-7.9092020">
        <ele>630.8</ele>
        <time>2014-07-30T14:34:25Z</time>
      </trkpt>
      <trkpt lat="43.0406640" lon="-7.9091930">
        <ele>630.9</ele>
        <time>2014-07-30T14:34:26Z</time>
      </trkpt>
      <trkpt lat="43.0406250" lon="-7.9092020">
        <ele>631.0</ele>
        <time>2014-07-30T14:34:27Z</time>
      </trkpt>
      <trkpt lat="43.0405960" lon="-7.9092280">
        <ele>631.1</ele>
        <time>2014-07-30T14:34:28Z</time>
      </trkpt>
      <trkpt lat="43.0405730" lon="-7.9092690">
        <ele>631.2</ele>
        <time>2014-07-30T14:34:29Z</time>
      </trkpt>
      <trkpt lat="43.0405530" lon="-7.9093110">
        <ele>631.4</ele>
        <time>2014-07-30T14:34:30Z</time>
      </trkpt>
      <trkpt lat="43.0405350" lon="-7.9093500">
        <ele>632.0</ele>
        <time>2014-07-30T14:34:31Z</time>
      </trkpt>
      <trkpt lat="43.0405160" lon="-7.9093870">
        <ele>632.2</ele>
        <time>2014-07-30T14:34:32Z</time>
      </trkpt>
      <trkpt lat="43.0404980" lon="-7.9094300">
        <ele>632.5</ele>
        <time>2014-07-30T14:34:33Z</time>
      </trkpt>
      <trkpt lat="43.0402040" lon="-7.9100080">
        <ele>635.2</ele>
        <time>2014-07-30T14:34:47Z</time>
      </trkpt>
      <trkpt lat="43.0400520" lon="-7.9103870">
        <ele>637.2</ele>
        <time>2014-07-30T14:34:58Z</time>
      </trkpt>
      <trkpt lat="43.0399100" lon="-7.9107230">
        <ele>639.2</ele>
        <time>2014-07-30T14:35:11Z</time>
      </trkpt>
      <trkpt lat="43.0399140" lon="-7.9108380">
        <ele>639.8</ele>
        <time>2014-07-30T14:35:16Z</time>
      </trkpt>
      <trkpt lat="43.0399210" lon="-7.9108570">
        <ele>639.9</ele>
        <time>2014-07-30T14:35:17Z</time>
      </trkpt>
      <trkpt lat="43.0399260" lon="-7.9108800">
        <ele>640.1</ele>
        <time>2014-07-30T14:35:18Z</time>
      </trkpt>
      <trkpt lat="43.0399330" lon="-7.9109020">
        <ele>640.2</ele>
        <time>2014-07-30T14:35:19Z</time>
      </trkpt>
      <trkpt lat="43.0399400" lon="-7.9109240">
        <ele>640.2</ele>
        <time>2014-07-30T14:35:20Z</time>
      </trkpt>
      <trkpt lat="43.0399490" lon="-7.9109440">
        <ele>640.3</ele>
        <time>2014-07-30T14:35:21Z</time>
      </trkpt>
      <trkpt lat="43.0399610" lon="-7.9109620">
        <ele>640.4</ele>
        <time>2014-07-30T14:35:22Z</time>
      </trkpt>
      <trkpt lat="43.0399740" lon="-7.9109800">
        <ele>640.4</ele>
        <time>2014-07-30T14:35:23Z</time>
      </trkpt>
      <trkpt lat="43.0399860" lon="-7.9109960">
        <ele>640.5</ele>
        <time>2014-07-30T14:35:24Z</time>
      </trkpt>
      <trkpt lat="43.0399950" lon="-7.9110120">
        <ele>640.6</ele>
        <time>2014-07-30T14:35:25Z</time>
      </trkpt>
      <trkpt lat="43.0400270" lon="-7.9111210">
        <ele>640.9</ele>
        <time>2014-07-30T14:35:31Z</time>
      </trkpt>
      <trkpt lat="43.0400280" lon="-7.9112150">
        <ele>641.2</ele>
        <time>2014-07-30T14:35:36Z</time>
      </trkpt>
      <trkpt lat="43.0400200" lon="-7.9112310">
        <ele>641.2</ele>
        <time>2014-07-30T14:35:37Z</time>
      </trkpt>
      <trkpt lat="43.0400100" lon="-7.9112400">
        <ele>641.3</ele>
        <time>2014-07-30T14:35:38Z</time>
      </trkpt>
      <trkpt lat="43.0399950" lon="-7.9112380">
        <ele>641.3</ele>
        <time>2014-07-30T14:35:39Z</time>
      </trkpt>
      <trkpt lat="43.0399820" lon="-7.9112250">
        <ele>641.4</ele>
        <time>2014-07-30T14:35:40Z</time>
      </trkpt>
      <trkpt lat="43.0399700" lon="-7.9112100">
        <ele>641.5</ele>
        <time>2014-07-30T14:35:41Z</time>
      </trkpt>
      <trkpt lat="43.0399580" lon="-7.9111960">
        <ele>641.6</ele>
        <time>2014-07-30T14:35:42Z</time>
      </trkpt>
      <trkpt lat="43.0399490" lon="-7.9111820">
        <ele>641.7</ele>
        <time>2014-07-30T14:35:43Z</time>
      </trkpt>
      <trkpt lat="43.0399400" lon="-7.9111650">
        <ele>641.8</ele>
        <time>2014-07-30T14:35:44Z</time>
      </trkpt>
      <trkpt lat="43.0399290" lon="-7.9111520">
        <ele>641.9</ele>
        <time>2014-07-30T14:35:45Z</time>
      </trkpt>
      <trkpt lat="43.0399170" lon="-7.9111410">
        <ele>641.9</ele>
        <time>2014-07-30T14:35:46Z</time>
      </trkpt>
      <trkpt lat="43.0399000" lon="-7.9111320">
        <ele>642.0</ele>
        <time>2014-07-30T14:35:47Z</time>
      </trkpt>
      <trkpt lat="43.0398810" lon="-7.9111260">
        <ele>642.0</ele>
        <time>2014-07-30T14:35:48Z</time>
      </trkpt>
      <trkpt lat="43.0395670" lon="-7.9111230">
        <ele>644.1</ele>
        <time>2014-07-30T14:36:00Z</time>
      </trkpt>
      <trkpt lat="43.0391580" lon="-7.9111940">
        <ele>645.8</ele>
        <time>2014-07-30T14:36:14Z</time>
      </trkpt>
      <trkpt lat="43.0388820" lon="-7.9113950">
        <ele>647.0</ele>
        <time>2014-07-30T14:36:30Z</time>
      </trkpt>
      <trkpt lat="43.0387890" lon="-7.9116810">
        <ele>648.6</ele>
        <time>2014-07-30T14:36:43Z</time>
      </trkpt>
      <trkpt lat="43.0387550" lon="-7.9117940">
        <ele>649.1</ele>
        <time>2014-07-30T14:36:49Z</time>
      </trkpt>
      <trkpt lat="43.0387310" lon="-7.9121150">
        <ele>650.4</ele>
        <time>2014-07-30T14:37:02Z</time>
      </trkpt>
      <trkpt lat="43.0387050" lon="-7.9125610">
        <ele>651.3</ele>
        <time>2014-07-30T14:37:14Z</time>
      </trkpt>
      <trkpt lat="43.0387170" lon="-7.9129710">
        <ele>651.6</ele>
        <time>2014-07-30T14:37:22Z</time>
      </trkpt>
      <trkpt lat="43.0387210" lon="-7.9130300">
        <ele>651.6</ele>
        <time>2014-07-30T14:37:23Z</time>
      </trkpt>
      <trkpt lat="43.0387250" lon="-7.9130900">
        <ele>651.6</ele>
        <time>2014-07-30T14:37:24Z</time>
      </trkpt>
      <trkpt lat="43.0387310" lon="-7.9131540">
        <ele>651.5</ele>
        <time>2014-07-30T14:37:25Z</time>
      </trkpt>
      <trkpt lat="43.0387330" lon="-7.9132210">
        <ele>651.5</ele>
        <time>2014-07-30T14:37:26Z</time>
      </trkpt>
      <trkpt lat="43.0387610" lon="-7.9137770">
        <ele>651.1</ele>
        <time>2014-07-30T14:37:33Z</time>
      </trkpt>
      <trkpt lat="43.0387460" lon="-7.9138620">
        <ele>650.9</ele>
        <time>2014-07-30T14:37:34Z</time>
      </trkpt>
      <trkpt lat="43.0387210" lon="-7.9139430">
        <ele>650.5</ele>
        <time>2014-07-30T14:37:35Z</time>
      </trkpt>
      <trkpt lat="43.0386900" lon="-7.9140200">
        <ele>650.0</ele>
        <time>2014-07-30T14:37:36Z</time>
      </trkpt>
      <trkpt lat="43.0386560" lon="-7.9140930">
        <ele>649.6</ele>
        <time>2014-07-30T14:37:37Z</time>
      </trkpt>
      <trkpt lat="43.0385820" lon="-7.9142310">
        <ele>649.0</ele>
        <time>2014-07-30T14:37:39Z</time>
      </trkpt>
      <trkpt lat="43.0385410" lon="-7.9142950">
        <ele>648.6</ele>
        <time>2014-07-30T14:37:40Z</time>
      </trkpt>
      <trkpt lat="43.0384940" lon="-7.9143490">
        <ele>648.4</ele>
        <time>2014-07-30T14:37:41Z</time>
      </trkpt>
      <trkpt lat="43.0384460" lon="-7.9143790">
        <ele>648.2</ele>
        <time>2014-07-30T14:37:42Z</time>
      </trkpt>
      <trkpt lat="43.0383990" lon="-7.9143980">
        <ele>648.0</ele>
        <time>2014-07-30T14:37:43Z</time>
      </trkpt>
      <trkpt lat="43.0383520" lon="-7.9144120">
        <ele>647.8</ele>
        <time>2014-07-30T14:37:44Z</time>
      </trkpt>
      <trkpt lat="43.0383060" lon="-7.9144190">
        <ele>647.7</ele>
        <time>2014-07-30T14:37:45Z</time>
      </trkpt>
      <trkpt lat="43.0380160" lon="-7.9143550">
        <ele>648.2</ele>
        <time>2014-07-30T14:37:52Z</time>
      </trkpt>
      <trkpt lat="43.0379800" lon="-7.9143280">
        <ele>648.3</ele>
        <time>2014-07-30T14:37:53Z</time>
      </trkpt>
      <trkpt lat="43.0379430" lon="-7.9142960">
        <ele>648.5</ele>
        <time>2014-07-30T14:37:54Z</time>
      </trkpt>
      <trkpt lat="43.0376330" lon="-7.9140190">
        <ele>649.9</ele>
        <time>2014-07-30T14:38:05Z</time>
      </trkpt>
      <trkpt lat="43.0374200" lon="-7.9136970">
        <ele>652.1</ele>
        <time>2014-07-30T14:38:17Z</time>
      </trkpt>
      <trkpt lat="43.0372090" lon="-7.9130470">
        <ele>654.2</ele>
        <time>2014-07-30T14:38:35Z</time>
      </trkpt>
      <trkpt lat="43.0370010" lon="-7.9125050">
        <ele>655.5</ele>
        <time>2014-07-30T14:38:50Z</time>
      </trkpt>
      <trkpt lat="43.0366400" lon="-7.9121240">
        <ele>656.8</ele>
        <time>2014-07-30T14:39:07Z</time>
      </trkpt>
      <trkpt lat="43.0363750" lon="-7.9117980">
        <ele>657.3</ele>
        <time>2014-07-30T14:39:18Z</time>
      </trkpt>
      <trkpt lat="43.0360970" lon="-7.9112550">
        <ele>658.4</ele>
        <time>2014-07-30T14:39:33Z</time>
      </trkpt>
      <trkpt lat="43.0359140" lon="-7.9109530">
        <ele>660.1</ele>
        <time>2014-07-30T14:39:48Z</time>
      </trkpt>
      <trkpt lat="43.0358680" lon="-7.9108660">
        <ele>660.7</ele>
        <time>2014-07-30T14:39:53Z</time>
      </trkpt>
      <trkpt lat="43.0358590" lon="-7.9108530">
        <ele>660.8</ele>
        <time>2014-07-30T14:39:54Z</time>
      </trkpt>
      <trkpt lat="43.0358490" lon="-7.9108370">
        <ele>660.9</ele>
        <time>2014-07-30T14:39:55Z</time>
      </trkpt>
      <trkpt lat="43.0358390" lon="-7.9108230">
        <ele>661.0</ele>
        <time>2014-07-30T14:39:56Z</time>
      </trkpt>
      <trkpt lat="43.0358290" lon="-7.9108080">
        <ele>661.2</ele>
        <time>2014-07-30T14:39:57Z</time>
      </trkpt>
      <trkpt lat="43.0358220" lon="-7.9107910">
        <ele>661.3</ele>
        <time>2014-07-30T14:39:58Z</time>
      </trkpt>
      <trkpt lat="43.0358150" lon="-7.9107750">
        <ele>661.4</ele>
        <time>2014-07-30T14:39:59Z</time>
      </trkpt>
      <trkpt lat="43.0358050" lon="-7.9107600">
        <ele>661.5</ele>
        <time>2014-07-30T14:40:00Z</time>
      </trkpt>
      <trkpt lat="43.0357940" lon="-7.9107450">
        <ele>661.7</ele>
        <time>2014-07-30T14:40:01Z</time>
      </trkpt>
      <trkpt lat="43.0357850" lon="-7.9107290">
        <ele>661.8</ele>
        <time>2014-07-30T14:40:02Z</time>
      </trkpt>
      <trkpt lat="43.0357770" lon="-7.9107120">
        <ele>661.9</ele>
        <time>2014-07-30T14:40:03Z</time>
      </trkpt>
      <trkpt lat="43.0356380" lon="-7.9105420">
        <ele>664.2</ele>
        <time>2014-07-30T14:40:17Z</time>
      </trkpt>
      <trkpt lat="43.0354410" lon="-7.9105550">
        <ele>667.0</ele>
        <time>2014-07-30T14:40:31Z</time>
      </trkpt>
      <trkpt lat="43.0353410" lon="-7.9105970">
        <ele>668.2</ele>
        <time>2014-07-30T14:40:38Z</time>
      </trkpt>
      <trkpt lat="43.0352000" lon="-7.9106330">
        <ele>669.7</ele>
        <time>2014-07-30T14:40:47Z</time>
      </trkpt>
      <trkpt lat="43.0349780" lon="-7.9106830">
        <ele>671.6</ele>
        <time>2014-07-30T14:41:03Z</time>
      </trkpt>
      <trkpt lat="43.0347900" lon="-7.9107370">
        <ele>673.5</ele>
        <time>2014-07-30T14:41:16Z</time>
      </trkpt>
      <trkpt lat="43.0345580" lon="-7.9107900">
        <ele>675.6</ele>
        <time>2014-07-30T14:41:30Z</time>
      </trkpt>
      <trkpt lat="43.0343110" lon="-7.9108450">
        <ele>676.9</ele>
        <time>2014-07-30T14:41:42Z</time>
      </trkpt>
      <trkpt lat="43.0340380" lon="-7.9108960">
        <ele>678.6</ele>
        <time>2014-07-30T14:41:56Z</time>
      </trkpt>
      <trkpt lat="43.0338890" lon="-7.9109810">
        <ele>680.1</ele>
        <time>2014-07-30T14:42:05Z</time>
      </trkpt>
      <trkpt lat="43.0338050" lon="-7.9110840">
        <ele>681.4</ele>
        <time>2014-07-30T14:42:14Z</time>
      </trkpt>
      <trkpt lat="43.0337570" lon="-7.9111390">
        <ele>682.2</ele>
        <time>2014-07-30T14:42:18Z</time>
      </trkpt>
      <trkpt lat="43.0337140" lon="-7.9111920">
        <ele>682.9</ele>
        <time>2014-07-30T14:42:21Z</time>
      </trkpt>
      <trkpt lat="43.0336600" lon="-7.9112680">
        <ele>683.9</ele>
        <time>2014-07-30T14:42:26Z</time>
      </trkpt>
      <trkpt lat="43.0335390" lon="-7.9112960">
        <ele>685.7</ele>
        <time>2014-07-30T14:42:33Z</time>
      </trkpt>
      <trkpt lat="43.0333940" lon="-7.9115600">
        <ele>688.1</ele>
        <time>2014-07-30T14:42:47Z</time>
      </trkpt>
      <trkpt lat="43.0331700" lon="-7.9117340">
        <ele>690.6</ele>
        <time>2014-07-30T14:43:01Z</time>
      </trkpt>
      <trkpt lat="43.0330570" lon="-7.9118220">
        <ele>691.9</ele>
        <time>2014-07-30T14:43:07Z</time>
      </trkpt>
      <trkpt lat="43.0329390" lon="-7.9123420">
        <ele>692.0</ele>
        <time>2014-07-30T14:43:22Z</time>
      </trkpt>
      <trkpt lat="43.0328060" lon="-7.9129960">
        <ele>692.6</ele>
        <time>2014-07-30T14:43:38Z</time>
      </trkpt>
      <trkpt lat="43.0327150" lon="-7.9135450">
        <ele>694.6</ele>
        <time>2014-07-30T14:43:51Z</time>
      </trkpt>
      <trkpt lat="43.0325820" lon="-7.9141530">
        <ele>697.2</ele>
        <time>2014-07-30T14:44:06Z</time>
      </trkpt>
      <trkpt lat="43.0324330" lon="-7.9146780">
        <ele>699.0</ele>
        <time>2014-07-30T14:44:20Z</time>
      </trkpt>
      <trkpt lat="43.0322840" lon="-7.9151050">
        <ele>700.9</ele>
        <time>2014-07-30T14:44:34Z</time>
      </trkpt>
      <trkpt lat="43.0321230" lon="-7.9155010">
        <ele>703.0</ele>
        <time>2014-07-30T14:44:49Z</time>
      </trkpt>
      <trkpt lat="43.0320770" lon="-7.9159050">
        <ele>705.0</ele>
        <time>2014-07-30T14:45:06Z</time>
      </trkpt>
      <trkpt lat="43.0321030" lon="-7.9162770">
        <ele>706.6</ele>
        <time>2014-07-30T14:45:20Z</time>
      </trkpt>
      <trkpt lat="43.0322190" lon="-7.9166580">
        <ele>708.2</ele>
        <time>2014-07-30T14:45:34Z</time>
      </trkpt>
      <trkpt lat="43.0323870" lon="-7.9171320">
        <ele>709.6</ele>
        <time>2014-07-30T14:45:50Z</time>
      </trkpt>
      <trkpt lat="43.0325530" lon="-7.9176870">
        <ele>710.7</ele>
        <time>2014-07-30T14:46:06Z</time>
      </trkpt>
      <trkpt lat="43.0326230" lon="-7.9184230">
        <ele>710.2</ele>
        <time>2014-07-30T14:46:21Z</time>
      </trkpt>
      <trkpt lat="43.0326070" lon="-7.9193770">
        <ele>708.0</ele>
        <time>2014-07-30T14:46:34Z</time>
      </trkpt>
      <trkpt lat="43.0325900" lon="-7.9206830">
        <ele>706.9</ele>
        <time>2014-07-30T14:46:50Z</time>
      </trkpt>
      <trkpt lat="43.0325920" lon="-7.9219560">
        <ele>706.4</ele>
        <time>2014-07-30T14:47:07Z</time>
      </trkpt>
      <trkpt lat="43.0325520" lon="-7.9233310">
        <ele>705.2</ele>
        <time>2014-07-30T14:47:24Z</time>
      </trkpt>
      <trkpt lat="43.0324990" lon="-7.9246610">
        <ele>704.2</ele>
        <time>2014-07-30T14:47:40Z</time>
      </trkpt>
      <trkpt lat="43.0324700" lon="-7.9257660">
        <ele>703.6</ele>
        <time>2014-07-30T14:47:53Z</time>
      </trkpt>
      <trkpt lat="43.0325000" lon="-7.9259800">
        <ele>703.6</ele>
        <time>2014-07-30T14:47:56Z</time>
      </trkpt>
      <trkpt lat="43.0325020" lon="-7.9260470">
        <ele>703.6</ele>
        <time>2014-07-30T14:47:57Z</time>
      </trkpt>
      <trkpt lat="43.0325010" lon="-7.9261160">
        <ele>703.5</ele>
        <time>2014-07-30T14:47:58Z</time>
      </trkpt>
      <trkpt lat="43.0324760" lon="-7.9267490">
        <ele>703.5</ele>
        <time>2014-07-30T14:48:07Z</time>
      </trkpt>
      <trkpt lat="43.0324600" lon="-7.9274280">
        <ele>703.6</ele>
        <time>2014-07-30T14:48:18Z</time>
      </trkpt>
      <trkpt lat="43.0324880" lon="-7.9280310">
        <ele>704.5</ele>
        <time>2014-07-30T14:48:29Z</time>
      </trkpt>
      <trkpt lat="43.0324550" lon="-7.9289460">
        <ele>706.4</ele>
        <time>2014-07-30T14:48:46Z</time>
      </trkpt>
      <trkpt lat="43.0324330" lon="-7.9293880">
        <ele>707.2</ele>
        <time>2014-07-30T14:48:54Z</time>
      </trkpt>
      <trkpt lat="43.0324080" lon="-7.9302600">
        <ele>706.4</ele>
        <time>2014-07-30T14:49:07Z</time>
      </trkpt>
      <trkpt lat="43.0324070" lon="-7.9303200">
        <ele>706.1</ele>
        <time>2014-07-30T14:49:08Z</time>
      </trkpt>
      <trkpt lat="43.0324060" lon="-7.9303780">
        <ele>705.7</ele>
        <time>2014-07-30T14:49:09Z</time>
      </trkpt>
      <trkpt lat="43.0324020" lon="-7.9304360">
        <ele>705.3</ele>
        <time>2014-07-30T14:49:10Z</time>
      </trkpt>
      <trkpt lat="43.0323930" lon="-7.9304980">
        <ele>705.2</ele>
        <time>2014-07-30T14:49:11Z</time>
      </trkpt>
      <trkpt lat="43.0323830" lon="-7.9305660">
        <ele>705.0</ele>
        <time>2014-07-30T14:49:12Z</time>
      </trkpt>
      <trkpt lat="43.0323750" lon="-7.9306360">
        <ele>704.8</ele>
        <time>2014-07-30T14:49:13Z</time>
      </trkpt>
      <trkpt lat="43.0323700" lon="-7.9307070">
        <ele>704.7</ele>
        <time>2014-07-30T14:49:14Z</time>
      </trkpt>
      <trkpt lat="43.0323440" lon="-7.9312720">
        <ele>702.4</ele>
        <time>2014-07-30T14:49:22Z</time>
      </trkpt>
      <trkpt lat="43.0323380" lon="-7.9318740">
        <ele>700.1</ele>
        <time>2014-07-30T14:49:30Z</time>
      </trkpt>
      <trkpt lat="43.0323360" lon="-7.9321710">
        <ele>699.1</ele>
        <time>2014-07-30T14:49:34Z</time>
      </trkpt>
      <trkpt lat="43.0323310" lon="-7.9327970">
        <ele>697.3</ele>
        <time>2014-07-30T14:49:44Z</time>
      </trkpt>
      <trkpt lat="43.0323330" lon="-7.9328700">
        <ele>697.1</ele>
        <time>2014-07-30T14:49:45Z</time>
      </trkpt>
      <trkpt lat="43.0323340" lon="-7.9332860">
        <ele>695.7</ele>
        <time>2014-07-30T14:49:50Z</time>
      </trkpt>
      <trkpt lat="43.0323140" lon="-7.9338230">
        <ele>693.9</ele>
        <time>2014-07-30T14:49:56Z</time>
      </trkpt>
      <trkpt lat="43.0323170" lon="-7.9339120">
        <ele>693.6</ele>
        <time>2014-07-30T14:49:57Z</time>
      </trkpt>
      <trkpt lat="43.0323210" lon="-7.9339990">
        <ele>693.3</ele>
        <time>2014-07-30T14:49:58Z</time>
      </trkpt>
      <trkpt lat="43.0324530" lon="-7.9346680">
        <ele>690.4</ele>
        <time>2014-07-30T14:50:08Z</time>
      </trkpt>
      <trkpt lat="43.0326170" lon="-7.9352910">
        <ele>687.8</ele>
        <time>2014-07-30T14:50:19Z</time>
      </trkpt>
      <trkpt lat="43.0326350" lon="-7.9353620">
        <ele>687.4</ele>
        <time>2014-07-30T14:50:20Z</time>
      </trkpt>
      <trkpt lat="43.0326510" lon="-7.9354360">
        <ele>686.9</ele>
        <time>2014-07-30T14:50:21Z</time>
      </trkpt>
      <trkpt lat="43.0328830" lon="-7.9362510">
        <ele>683.3</ele>
        <time>2014-07-30T14:50:32Z</time>
      </trkpt>
      <trkpt lat="43.0329210" lon="-7.9363230">
        <ele>683.0</ele>
        <time>2014-07-30T14:50:33Z</time>
      </trkpt>
      <trkpt lat="43.0330090" lon="-7.9364570">
        <ele>682.2</ele>
        <time>2014-07-30T14:50:35Z</time>
      </trkpt>
      <trkpt lat="43.0330600" lon="-7.9365170">
        <ele>681.8</ele>
        <time>2014-07-30T14:50:36Z</time>
      </trkpt>
      <trkpt lat="43.0331150" lon="-7.9365740">
        <ele>681.5</ele>
        <time>2014-07-30T14:50:37Z</time>
      </trkpt>
      <trkpt lat="43.0337060" lon="-7.9370370">
        <ele>677.5</ele>
        <time>2014-07-30T14:50:46Z</time>
      </trkpt>
      <trkpt lat="43.0341320" lon="-7.9375500">
        <ele>674.6</ele>
        <time>2014-07-30T14:50:53Z</time>
      </trkpt>
      <trkpt lat="43.0342280" lon="-7.9377490">
        <ele>673.8</ele>
        <time>2014-07-30T14:50:55Z</time>
      </trkpt>
      <trkpt lat="43.0342670" lon="-7.9378560">
        <ele>673.2</ele>
        <time>2014-07-30T14:50:56Z</time>
      </trkpt>
      <trkpt lat="43.0344250" lon="-7.9385540">
        <ele>670.7</ele>
        <time>2014-07-30T14:51:02Z</time>
      </trkpt>
      <trkpt lat="43.0344350" lon="-7.9388730">
        <ele>669.6</ele>
        <time>2014-07-30T14:51:05Z</time>
      </trkpt>
      <trkpt lat="43.0343850" lon="-7.9395330">
        <ele>669.0</ele>
        <time>2014-07-30T14:51:11Z</time>
      </trkpt>
      <trkpt lat="43.0343330" lon="-7.9401210">
        <ele>666.2</ele>
        <time>2014-07-30T14:51:16Z</time>
      </trkpt>
      <trkpt lat="43.0343270" lon="-7.9403690">
        <ele>665.1</ele>
        <time>2014-07-30T14:51:18Z</time>
      </trkpt>
      <trkpt lat="43.0343450" lon="-7.9406120">
        <ele>664.6</ele>
        <time>2014-07-30T14:51:20Z</time>
      </trkpt>
      <trkpt lat="43.0343670" lon="-7.9407320">
        <ele>664.2</ele>
        <time>2014-07-30T14:51:21Z</time>
      </trkpt>
      <trkpt lat="43.0344190" lon="-7.9409670">
        <ele>663.0</ele>
        <time>2014-07-30T14:51:23Z</time>
      </trkpt>
      <trkpt lat="43.0344550" lon="-7.9410800">
        <ele>662.3</ele>
        <time>2014-07-30T14:51:24Z</time>
      </trkpt>
      <trkpt lat="43.0344970" lon="-7.9411890">
        <ele>661.7</ele>
        <time>2014-07-30T14:51:25Z</time>
      </trkpt>
      <trkpt lat="43.0349630" lon="-7.9421350">
        <ele>657.0</ele>
        <time>2014-07-30T14:51:34Z</time>
      </trkpt>
      <trkpt lat="43.0350170" lon="-7.9422400">
        <ele>656.8</ele>
        <time>2014-07-30T14:51:35Z</time>
      </trkpt>
      <trkpt lat="43.0351920" lon="-7.9425490">
        <ele>655.0</ele>
        <time>2014-07-30T14:51:38Z</time>
      </trkpt>
      <trkpt lat="43.0354730" lon="-7.9429040">
        <ele>652.6</ele>
        <time>2014-07-30T14:51:42Z</time>
      </trkpt>
      <trkpt lat="43.0357960" lon="-7.9432310">
        <ele>650.4</ele>
        <time>2014-07-30T14:51:46Z</time>
      </trkpt>
      <trkpt lat="43.0362800" lon="-7.9437420">
        <ele>646.5</ele>
        <time>2014-07-30T14:51:52Z</time>
      </trkpt>
      <trkpt lat="43.0367730" lon="-7.9446060">
        <ele>641.8</ele>
        <time>2014-07-30T14:52:00Z</time>
      </trkpt>
      <trkpt lat="43.0368180" lon="-7.9447270">
        <ele>641.5</ele>
        <time>2014-07-30T14:52:01Z</time>
      </trkpt>
      <trkpt lat="43.0369190" lon="-7.9449620">
        <ele>640.3</ele>
        <time>2014-07-30T14:52:03Z</time>
      </trkpt>
      <trkpt lat="43.0369810" lon="-7.9450700">
        <ele>639.8</ele>
        <time>2014-07-30T14:52:04Z</time>
      </trkpt>
      <trkpt lat="43.0370510" lon="-7.9451700">
        <ele>639.3</ele>
        <time>2014-07-30T14:52:05Z</time>
      </trkpt>
      <trkpt lat="43.0371260" lon="-7.9452630">
        <ele>638.7</ele>
        <time>2014-07-30T14:52:06Z</time>
      </trkpt>
      <trkpt lat="43.0372060" lon="-7.9453480">
        <ele>638.0</ele>
        <time>2014-07-30T14:52:07Z</time>
      </trkpt>
      <trkpt lat="43.0372900" lon="-7.9454280">
        <ele>637.2</ele>
        <time>2014-07-30T14:52:08Z</time>
      </trkpt>
      <trkpt lat="43.0376220" lon="-7.9457370">
        <ele>634.2</ele>
        <time>2014-07-30T14:52:12Z</time>
      </trkpt>
      <trkpt lat="43.0378670" lon="-7.9459610">
        <ele>631.9</ele>
        <time>2014-07-30T14:52:15Z</time>
      </trkpt>
      <trkpt lat="43.0383800" lon="-7.9464270">
        <ele>627.5</ele>
        <time>2014-07-30T14:52:21Z</time>
      </trkpt>
      <trkpt lat="43.0389750" lon="-7.9469670">
        <ele>623.3</ele>
        <time>2014-07-30T14:52:28Z</time>
      </trkpt>
      <trkpt lat="43.0392130" lon="-7.9472210">
        <ele>621.6</ele>
        <time>2014-07-30T14:52:31Z</time>
      </trkpt>
      <trkpt lat="43.0395570" lon="-7.9477430">
        <ele>619.8</ele>
        <time>2014-07-30T14:52:36Z</time>
      </trkpt>
      <trkpt lat="43.0396150" lon="-7.9478620">
        <ele>619.4</ele>
        <time>2014-07-30T14:52:37Z</time>
      </trkpt>
      <trkpt lat="43.0396680" lon="-7.9479840">
        <ele>618.9</ele>
        <time>2014-07-30T14:52:38Z</time>
      </trkpt>
      <trkpt lat="43.0399400" lon="-7.9487210">
        <ele>615.7</ele>
        <time>2014-07-30T14:52:44Z</time>
      </trkpt>
      <trkpt lat="43.0399660" lon="-7.9488410">
        <ele>615.2</ele>
        <time>2014-07-30T14:52:45Z</time>
      </trkpt>
      <trkpt lat="43.0400020" lon="-7.9490810">
        <ele>614.3</ele>
        <time>2014-07-30T14:52:47Z</time>
      </trkpt>
      <trkpt lat="43.0400040" lon="-7.9492030">
        <ele>614.0</ele>
        <time>2014-07-30T14:52:48Z</time>
      </trkpt>
      <trkpt lat="43.0399920" lon="-7.9493230">
        <ele>613.7</ele>
        <time>2014-07-30T14:52:49Z</time>
      </trkpt>
      <trkpt lat="43.0399680" lon="-7.9494400">
        <ele>613.4</ele>
        <time>2014-07-30T14:52:50Z</time>
      </trkpt>
      <trkpt lat="43.0399390" lon="-7.9495560">
        <ele>613.1</ele>
        <time>2014-07-30T14:52:51Z</time>
      </trkpt>
      <trkpt lat="43.0398390" lon="-7.9499080">
        <ele>611.9</ele>
        <time>2014-07-30T14:52:54Z</time>
      </trkpt>
      <trkpt lat="43.0395240" lon="-7.9505570">
        <ele>609.8</ele>
        <time>2014-07-30T14:53:00Z</time>
      </trkpt>
      <trkpt lat="43.0391050" lon="-7.9511210">
        <ele>610.0</ele>
        <time>2014-07-30T14:53:06Z</time>
      </trkpt>
      <trkpt lat="43.0390420" lon="-7.9512170">
        <ele>610.1</ele>
        <time>2014-07-30T14:53:07Z</time>
      </trkpt>
      <trkpt lat="43.0388140" lon="-7.9515940">
        <ele>611.3</ele>
        <time>2014-07-30T14:53:11Z</time>
      </trkpt>
      <trkpt lat="43.0387850" lon="-7.9517000">
        <ele>610.7</ele>
        <time>2014-07-30T14:53:12Z</time>
      </trkpt>
      <trkpt lat="43.0387710" lon="-7.9518090">
        <ele>610.1</ele>
        <time>2014-07-30T14:53:13Z</time>
      </trkpt>
      <trkpt lat="43.0387470" lon="-7.9521270">
        <ele>608.8</ele>
        <time>2014-07-30T14:53:16Z</time>
      </trkpt>
      <trkpt lat="43.0387190" lon="-7.9531910">
        <ele>607.8</ele>
        <time>2014-07-30T14:53:27Z</time>
      </trkpt>
      <trkpt lat="43.0387580" lon="-7.9534290">
        <ele>608.0</ele>
        <time>2014-07-30T14:53:30Z</time>
      </trkpt>
      <trkpt lat="43.0387810" lon="-7.9534950">
        <ele>608.1</ele>
        <time>2014-07-30T14:53:31Z</time>
      </trkpt>
      <trkpt lat="43.0387980" lon="-7.9535540">
        <ele>608.2</ele>
        <time>2014-07-30T14:53:32Z</time>
      </trkpt>
      <trkpt lat="43.0388100" lon="-7.9536110">
        <ele>608.3</ele>
        <time>2014-07-30T14:53:33Z</time>
      </trkpt>
      <trkpt lat="43.0388220" lon="-7.9536640">
        <ele>608.4</ele>
        <time>2014-07-30T14:53:34Z</time>
      </trkpt>
      <trkpt lat="43.0388360" lon="-7.9537120">
        <ele>608.6</ele>
        <time>2014-07-30T14:53:35Z</time>
      </trkpt>
      <trkpt lat="43.0388280" lon="-7.9541770">
        <ele>610.8</ele>
        <time>2014-07-30T14:53:47Z</time>
      </trkpt>
      <trkpt lat="43.0387750" lon="-7.9544990">
        <ele>613.2</ele>
        <time>2014-07-30T14:53:57Z</time>
      </trkpt>
      <trkpt lat="43.0387670" lon="-7.9545280">
        <ele>613.4</ele>
        <time>2014-07-30T14:53:58Z</time>
      </trkpt>
      <trkpt lat="43.0386980" lon="-7.9548730">
        <ele>615.9</ele>
        <time>2014-07-30T14:54:11Z</time>
      </trkpt>
      <trkpt lat="43.0387040" lon="-7.9548990">
        <ele>616.1</ele>
        <time>2014-07-30T14:54:12Z</time>
      </trkpt>
      <trkpt lat="43.0387140" lon="-7.9549740">
        <ele>616.7</ele>
        <time>2014-07-30T14:54:15Z</time>
      </trkpt>
      <trkpt lat="43.0387130" lon="-7.9549990">
        <ele>616.9</ele>
        <time>2014-07-30T14:54:16Z</time>
      </trkpt>
      <trkpt lat="43.0387110" lon="-7.9550200">
        <ele>617.1</ele>
        <time>2014-07-30T14:54:17Z</time>
      </trkpt>
      <trkpt lat="43.0387000" lon="-7.9550410">
        <ele>617.3</ele>
        <time>2014-07-30T14:54:18Z</time>
      </trkpt>
      <trkpt lat="43.0386850" lon="-7.9550580">
        <ele>617.6</ele>
        <time>2014-07-30T14:54:19Z</time>
      </trkpt>
      <trkpt lat="43.0386710" lon="-7.9550750">
        <ele>617.8</ele>
        <time>2014-07-30T14:54:20Z</time>
      </trkpt>
      <trkpt lat="43.0386560" lon="-7.9550950">
        <ele>618.1</ele>
        <time>2014-07-30T14:54:21Z</time>
      </trkpt>
      <trkpt lat="43.0386490" lon="-7.9551170">
        <ele>618.3</ele>
        <time>2014-07-30T14:54:22Z</time>
      </trkpt>
      <trkpt lat="43.0386420" lon="-7.9551400">
        <ele>618.6</ele>
        <time>2014-07-30T14:54:23Z</time>
      </trkpt>
      <trkpt lat="43.0385720" lon="-7.9554170">
        <ele>620.9</ele>
        <time>2014-07-30T14:54:37Z</time>
      </trkpt>
      <trkpt lat="43.0385310" lon="-7.9555960">
        <ele>621.9</ele>
        <time>2014-07-30T14:54:47Z</time>
      </trkpt>
      <trkpt lat="43.0385280" lon="-7.9556150">
        <ele>622.0</ele>
        <time>2014-07-30T14:54:48Z</time>
      </trkpt>
      <trkpt lat="43.0384780" lon="-7.9558520">
        <ele>623.2</ele>
        <time>2014-07-30T14:55:00Z</time>
      </trkpt>
      <trkpt lat="43.0384400" lon="-7.9561440">
        <ele>624.4</ele>
        <time>2014-07-30T14:55:14Z</time>
      </trkpt>
      <trkpt lat="43.0384270" lon="-7.9562390">
        <ele>624.9</ele>
        <time>2014-07-30T14:55:18Z</time>
      </trkpt>
      <trkpt lat="43.0384230" lon="-7.9562630">
        <ele>625.0</ele>
        <time>2014-07-30T14:55:19Z</time>
      </trkpt>
      <trkpt lat="43.0384210" lon="-7.9562890">
        <ele>625.1</ele>
        <time>2014-07-30T14:55:20Z</time>
      </trkpt>
      <trkpt lat="43.0384150" lon="-7.9563130">
        <ele>625.3</ele>
        <time>2014-07-30T14:55:21Z</time>
      </trkpt>
      <trkpt lat="43.0384120" lon="-7.9563370">
        <ele>625.4</ele>
        <time>2014-07-30T14:55:22Z</time>
      </trkpt>
      <trkpt lat="43.0384120" lon="-7.9563580">
        <ele>625.6</ele>
        <time>2014-07-30T14:55:23Z</time>
      </trkpt>
      <trkpt lat="43.0384090" lon="-7.9563840">
        <ele>625.7</ele>
        <time>2014-07-30T14:55:24Z</time>
      </trkpt>
      <trkpt lat="43.0383960" lon="-7.9565210">
        <ele>626.8</ele>
        <time>2014-07-30T14:55:30Z</time>
      </trkpt>
      <trkpt lat="43.0383890" lon="-7.9565430">
        <ele>627.0</ele>
        <time>2014-07-30T14:55:31Z</time>
      </trkpt>
      <trkpt lat="43.0383820" lon="-7.9565630">
        <ele>627.1</ele>
        <time>2014-07-30T14:55:32Z</time>
      </trkpt>
      <trkpt lat="43.0383790" lon="-7.9565860">
        <ele>627.3</ele>
        <time>2014-07-30T14:55:33Z</time>
      </trkpt>
      <trkpt lat="43.0383760" lon="-7.9566080">
        <ele>627.4</ele>
        <time>2014-07-30T14:55:34Z</time>
      </trkpt>
      <trkpt lat="43.0383730" lon="-7.9566320">
        <ele>627.6</ele>
        <time>2014-07-30T14:55:35Z</time>
      </trkpt>
      <trkpt lat="43.0383680" lon="-7.9566620">
        <ele>627.7</ele>
        <time>2014-07-30T14:55:36Z</time>
      </trkpt>
      <trkpt lat="43.0383620" lon="-7.9566950">
        <ele>628.0</ele>
        <time>2014-07-30T14:55:37Z</time>
      </trkpt>
      <trkpt lat="43.0383570" lon="-7.9567250">
        <ele>628.1</ele>
        <time>2014-07-30T14:55:38Z</time>
      </trkpt>
      <trkpt lat="43.0383560" lon="-7.9567550">
        <ele>628.3</ele>
        <time>2014-07-30T14:55:39Z</time>
      </trkpt>
      <trkpt lat="43.0383540" lon="-7.9567830">
        <ele>628.5</ele>
        <time>2014-07-30T14:55:40Z</time>
      </trkpt>
      <trkpt lat="43.0383550" lon="-7.9568100">
        <ele>628.6</ele>
        <time>2014-07-30T14:55:41Z</time>
      </trkpt>
      <trkpt lat="43.0383600" lon="-7.9568360">
        <ele>628.8</ele>
        <time>2014-07-30T14:55:42Z</time>
      </trkpt>
      <trkpt lat="43.0383660" lon="-7.9568570">
        <ele>628.9</ele>
        <time>2014-07-30T14:55:43Z</time>
      </trkpt>
      <trkpt lat="43.0383720" lon="-7.9568800">
        <ele>629.1</ele>
        <time>2014-07-30T14:55:44Z</time>
      </trkpt>
      <trkpt lat="43.0383790" lon="-7.9569000">
        <ele>629.2</ele>
        <time>2014-07-30T14:55:45Z</time>
      </trkpt>
      <trkpt lat="43.0383820" lon="-7.9569260">
        <ele>629.4</ele>
        <time>2014-07-30T14:55:46Z</time>
      </trkpt>
      <trkpt lat="43.0383850" lon="-7.9569510">
        <ele>629.5</ele>
        <time>2014-07-30T14:55:47Z</time>
      </trkpt>
      <trkpt lat="43.0383660" lon="-7.9570310">
        <ele>630.0</ele>
        <time>2014-07-30T14:55:52Z</time>
      </trkpt>
      <trkpt lat="43.0383580" lon="-7.9570530">
        <ele>630.2</ele>
        <time>2014-07-30T14:55:53Z</time>
      </trkpt>
      <trkpt lat="43.0383250" lon="-7.9571200">
        <ele>630.7</ele>
        <time>2014-07-30T14:55:58Z</time>
      </trkpt>
      <trkpt lat="43.0381320" lon="-7.9574310">
        <ele>633.1</ele>
        <time>2014-07-30T14:56:13Z</time>
      </trkpt>
      <trkpt lat="43.0380140" lon="-7.9576840">
        <ele>634.7</ele>
        <time>2014-07-30T14:56:27Z</time>
      </trkpt>
      <trkpt lat="43.0378420" lon="-7.9580320">
        <ele>636.8</ele>
        <time>2014-07-30T14:56:42Z</time>
      </trkpt>
      <trkpt lat="43.0376370" lon="-7.9584290">
        <ele>637.2</ele>
        <time>2014-07-30T14:56:56Z</time>
      </trkpt>
      <trkpt lat="43.0374660" lon="-7.9590520">
        <ele>637.6</ele>
        <time>2014-07-30T14:57:11Z</time>
      </trkpt>
      <trkpt lat="43.0374630" lon="-7.9597000">
        <ele>637.9</ele>
        <time>2014-07-30T14:57:26Z</time>
      </trkpt>
      <trkpt lat="43.0375130" lon="-7.9602070">
        <ele>638.6</ele>
        <time>2014-07-30T14:57:38Z</time>
      </trkpt>
      <trkpt lat="43.0374880" lon="-7.9607920">
        <ele>639.4</ele>
        <time>2014-07-30T14:57:49Z</time>
      </trkpt>
      <trkpt lat="43.0375150" lon="-7.9619080">
        <ele>638.0</ele>
        <time>2014-07-30T14:58:05Z</time>
      </trkpt>
      <trkpt lat="43.0375420" lon="-7.9623570">
        <ele>637.9</ele>
        <time>2014-07-30T14:58:11Z</time>
      </trkpt>
      <trkpt lat="43.0375410" lon="-7.9624260">
        <ele>637.9</ele>
        <time>2014-07-30T14:58:12Z</time>
      </trkpt>
      <trkpt lat="43.0375350" lon="-7.9624950">
        <ele>637.9</ele>
        <time>2014-07-30T14:58:13Z</time>
      </trkpt>
      <trkpt lat="43.0375310" lon="-7.9625680">
        <ele>637.9</ele>
        <time>2014-07-30T14:58:14Z</time>
      </trkpt>
      <trkpt lat="43.0375330" lon="-7.9626430">
        <ele>638.0</ele>
        <time>2014-07-30T14:58:15Z</time>
      </trkpt>
      <trkpt lat="43.0375390" lon="-7.9627210">
        <ele>638.0</ele>
        <time>2014-07-30T14:58:16Z</time>
      </trkpt>
      <trkpt lat="43.0375560" lon="-7.9629460">
        <ele>638.0</ele>
        <time>2014-07-30T14:58:19Z</time>
      </trkpt>
      <trkpt lat="43.0375720" lon="-7.9630870">
        <ele>638.0</ele>
        <time>2014-07-30T14:58:21Z</time>
      </trkpt>
      <trkpt lat="43.0376380" lon="-7.9635710">
        <ele>637.8</ele>
        <time>2014-07-30T14:58:28Z</time>
      </trkpt>
      <trkpt lat="43.0376410" lon="-7.9636420">
        <ele>637.8</ele>
        <time>2014-07-30T14:58:29Z</time>
      </trkpt>
      <trkpt lat="43.0376450" lon="-7.9637100">
        <ele>637.8</ele>
        <time>2014-07-30T14:58:30Z</time>
      </trkpt>
      <trkpt lat="43.0376580" lon="-7.9639690">
        <ele>637.5</ele>
        <time>2014-07-30T14:58:34Z</time>
      </trkpt>
      <trkpt lat="43.0376690" lon="-7.9640290">
        <ele>637.5</ele>
        <time>2014-07-30T14:58:35Z</time>
      </trkpt>
      <trkpt lat="43.0376860" lon="-7.9640840">
        <ele>637.5</ele>
        <time>2014-07-30T14:58:36Z</time>
      </trkpt>
      <trkpt lat="43.0377160" lon="-7.9641310">
        <ele>637.7</ele>
        <time>2014-07-30T14:58:37Z</time>
      </trkpt>
      <trkpt lat="43.0377570" lon="-7.9641700">
        <ele>637.9</ele>
        <time>2014-07-30T14:58:38Z</time>
      </trkpt>
      <trkpt lat="43.0378030" lon="-7.9642070">
        <ele>638.1</ele>
        <time>2014-07-30T14:58:39Z</time>
      </trkpt>
      <trkpt lat="43.0378420" lon="-7.9642510">
        <ele>638.4</ele>
        <time>2014-07-30T14:58:40Z</time>
      </trkpt>
      <trkpt lat="43.0383520" lon="-7.9647920">
        <ele>639.3</ele>
        <time>2014-07-30T14:58:53Z</time>
      </trkpt>
      <trkpt lat="43.0383900" lon="-7.9648190">
        <ele>639.3</ele>
        <time>2014-07-30T14:58:54Z</time>
      </trkpt>
      <trkpt lat="43.0389230" lon="-7.9652110">
        <ele>639.6</ele>
        <time>2014-07-30T14:59:10Z</time>
      </trkpt>
      <trkpt lat="43.0393150" lon="-7.9656450">
        <ele>641.0</ele>
        <time>2014-07-30T14:59:24Z</time>
      </trkpt>
      <trkpt lat="43.0396990" lon="-7.9662730">
        <ele>642.4</ele>
        <time>2014-07-30T14:59:41Z</time>
      </trkpt>
      <trkpt lat="43.0399500" lon="-7.9666730">
        <ele>644.7</ele>
        <time>2014-07-30T14:59:53Z</time>
      </trkpt>
      <trkpt lat="43.0402530" lon="-7.9670010">
        <ele>645.9</ele>
        <time>2014-07-30T15:00:08Z</time>
      </trkpt>
      <trkpt lat="43.0402710" lon="-7.9670240">
        <ele>646.0</ele>
        <time>2014-07-30T15:00:09Z</time>
      </trkpt>
      <trkpt lat="43.0402890" lon="-7.9670510">
        <ele>646.0</ele>
        <time>2014-07-30T15:00:10Z</time>
      </trkpt>
      <trkpt lat="43.0405330" lon="-7.9674710">
        <ele>646.3</ele>
        <time>2014-07-30T15:00:23Z</time>
      </trkpt>
      <trkpt lat="43.0407130" lon="-7.9680070">
        <ele>647.8</ele>
        <time>2014-07-30T15:00:37Z</time>
      </trkpt>
      <trkpt lat="43.0408690" lon="-7.9683080">
        <ele>648.9</ele>
        <time>2014-07-30T15:00:49Z</time>
      </trkpt>
      <trkpt lat="43.0411090" lon="-7.9687440">
        <ele>649.0</ele>
        <time>2014-07-30T15:01:05Z</time>
      </trkpt>
      <trkpt lat="43.0413840" lon="-7.9692610">
        <ele>650.0</ele>
        <time>2014-07-30T15:01:19Z</time>
      </trkpt>
      <trkpt lat="43.0415650" lon="-7.9697160">
        <ele>650.8</ele>
        <time>2014-07-30T15:01:29Z</time>
      </trkpt>
      <trkpt lat="43.0415790" lon="-7.9697690">
        <ele>650.8</ele>
        <time>2014-07-30T15:01:30Z</time>
      </trkpt>
      <trkpt lat="43.0415950" lon="-7.9698200">
        <ele>650.9</ele>
        <time>2014-07-30T15:01:31Z</time>
      </trkpt>
      <trkpt lat="43.0416280" lon="-7.9699260">
        <ele>651.0</ele>
        <time>2014-07-30T15:01:33Z</time>
      </trkpt>
      <trkpt lat="43.0416460" lon="-7.9699780">
        <ele>651.1</ele>
        <time>2014-07-30T15:01:34Z</time>
      </trkpt>
      <trkpt lat="43.0418630" lon="-7.9706320">
        <ele>652.0</ele>
        <time>2014-07-30T15:01:48Z</time>
      </trkpt>
      <trkpt lat="43.0418460" lon="-7.9706520">
        <ele>652.1</ele>
        <time>2014-07-30T15:01:49Z</time>
      </trkpt>
      <trkpt lat="43.0417860" lon="-7.9707490">
        <ele>652.4</ele>
        <time>2014-07-30T15:01:52Z</time>
      </trkpt>
      <trkpt lat="43.0417880" lon="-7.9707970">
        <ele>652.5</ele>
        <time>2014-07-30T15:01:53Z</time>
      </trkpt>
      <trkpt lat="43.0417960" lon="-7.9708440">
        <ele>652.6</ele>
        <time>2014-07-30T15:01:54Z</time>
      </trkpt>
      <trkpt lat="43.0418100" lon="-7.9708900">
        <ele>652.7</ele>
        <time>2014-07-30T15:01:55Z</time>
      </trkpt>
      <trkpt lat="43.0418270" lon="-7.9709330">
        <ele>652.8</ele>
        <time>2014-07-30T15:01:56Z</time>
      </trkpt>
      <trkpt lat="43.0418460" lon="-7.9709680">
        <ele>652.9</ele>
        <time>2014-07-30T15:01:57Z</time>
      </trkpt>
      <trkpt lat="43.0418640" lon="-7.9710010">
        <ele>653.0</ele>
        <time>2014-07-30T15:01:58Z</time>
      </trkpt>
      <trkpt lat="43.0418780" lon="-7.9710370">
        <ele>653.2</ele>
        <time>2014-07-30T15:01:59Z</time>
      </trkpt>
      <trkpt lat="43.0418880" lon="-7.9710760">
        <ele>653.2</ele>
        <time>2014-07-30T15:02:00Z</time>
      </trkpt>
      <trkpt lat="43.0418950" lon="-7.9711200">
        <ele>653.3</ele>
        <time>2014-07-30T15:02:01Z</time>
      </trkpt>
      <trkpt lat="43.0418980" lon="-7.9711660">
        <ele>653.4</ele>
        <time>2014-07-30T15:02:02Z</time>
      </trkpt>
      <trkpt lat="43.0418980" lon="-7.9712100">
        <ele>653.4</ele>
        <time>2014-07-30T15:02:03Z</time>
      </trkpt>
      <trkpt lat="43.0418980" lon="-7.9716920">
        <ele>654.1</ele>
        <time>2014-07-30T15:02:14Z</time>
      </trkpt>
      <trkpt lat="43.0419260" lon="-7.9718940">
        <ele>654.3</ele>
        <time>2014-07-30T15:02:18Z</time>
      </trkpt>
      <trkpt lat="43.0419200" lon="-7.9719450">
        <ele>654.3</ele>
        <time>2014-07-30T15:02:19Z</time>
      </trkpt>
      <trkpt lat="43.0419130" lon="-7.9719970">
        <ele>654.4</ele>
        <time>2014-07-30T15:02:20Z</time>
      </trkpt>
      <trkpt lat="43.0419080" lon="-7.9720490">
        <ele>654.4</ele>
        <time>2014-07-30T15:02:21Z</time>
      </trkpt>
      <trkpt lat="43.0419050" lon="-7.9720980">
        <ele>654.4</ele>
        <time>2014-07-30T15:02:22Z</time>
      </trkpt>
      <trkpt lat="43.0419230" lon="-7.9724010">
        <ele>654.2</ele>
        <time>2014-07-30T15:02:29Z</time>
      </trkpt>
      <trkpt lat="43.0419660" lon="-7.9724730">
        <ele>654.1</ele>
        <time>2014-07-30T15:02:31Z</time>
      </trkpt>
      <trkpt lat="43.0420380" lon="-7.9726440">
        <ele>653.2</ele>
        <time>2014-07-30T15:02:34Z</time>
      </trkpt>
      <trkpt lat="43.0421190" lon="-7.9727840">
        <ele>652.5</ele>
        <time>2014-07-30T15:02:36Z</time>
      </trkpt>
      <trkpt lat="43.0421890" lon="-7.9729280">
        <ele>652.1</ele>
        <time>2014-07-30T15:02:38Z</time>
      </trkpt>
      <trkpt lat="43.0422170" lon="-7.9730010">
        <ele>652.1</ele>
        <time>2014-07-30T15:02:39Z</time>
      </trkpt>
      <trkpt lat="43.0422420" lon="-7.9730710">
        <ele>652.1</ele>
        <time>2014-07-30T15:02:40Z</time>
      </trkpt>
      <trkpt lat="43.0423480" lon="-7.9733440">
        <ele>653.4</ele>
        <time>2014-07-30T15:02:47Z</time>
      </trkpt>
      <trkpt lat="43.0423500" lon="-7.9733690">
        <ele>653.6</ele>
        <time>2014-07-30T15:02:48Z</time>
      </trkpt>
      <trkpt lat="43.0423520" lon="-7.9734100">
        <ele>653.9</ele>
        <time>2014-07-30T15:02:50Z</time>
      </trkpt>
      <trkpt lat="43.0423570" lon="-7.9734370">
        <ele>654.1</ele>
        <time>2014-07-30T15:02:51Z</time>
      </trkpt>
      <trkpt lat="43.0423570" lon="-7.9734650">
        <ele>654.4</ele>
        <time>2014-07-30T15:02:52Z</time>
      </trkpt>
      <trkpt lat="43.0423630" lon="-7.9734990">
        <ele>654.6</ele>
        <time>2014-07-30T15:02:53Z</time>
      </trkpt>
      <trkpt lat="43.0423640" lon="-7.9735320">
        <ele>654.9</ele>
        <time>2014-07-30T15:02:54Z</time>
      </trkpt>
      <trkpt lat="43.0423670" lon="-7.9735620">
        <ele>655.1</ele>
        <time>2014-07-30T15:02:55Z</time>
      </trkpt>
      <trkpt lat="43.0423800" lon="-7.9736480">
        <ele>655.5</ele>
        <time>2014-07-30T15:02:58Z</time>
      </trkpt>
      <trkpt lat="43.0423850" lon="-7.9736860">
        <ele>655.6</ele>
        <time>2014-07-30T15:02:59Z</time>
      </trkpt>
      <trkpt lat="43.0423900" lon="-7.9737360">
        <ele>655.7</ele>
        <time>2014-07-30T15:03:00Z</time>
      </trkpt>
      <trkpt lat="43.0424140" lon="-7.9738530">
        <ele>655.8</ele>
        <time>2014-07-30T15:03:02Z</time>
      </trkpt>
      <trkpt lat="43.0423860" lon="-7.9740970">
        <ele>655.5</ele>
        <time>2014-07-30T15:03:06Z</time>
      </trkpt>
      <trkpt lat="43.0423580" lon="-7.9741800">
        <ele>655.3</ele>
        <time>2014-07-30T15:03:08Z</time>
      </trkpt>
      <trkpt lat="43.0423390" lon="-7.9742190">
        <ele>655.2</ele>
        <time>2014-07-30T15:03:09Z</time>
      </trkpt>
      <trkpt lat="43.0423160" lon="-7.9742560">
        <ele>655.1</ele>
        <time>2014-07-30T15:03:10Z</time>
      </trkpt>
      <trkpt lat="43.0422940" lon="-7.9742930">
        <ele>654.9</ele>
        <time>2014-07-30T15:03:11Z</time>
      </trkpt>
      <trkpt lat="43.0422720" lon="-7.9743300">
        <ele>654.8</ele>
        <time>2014-07-30T15:03:12Z</time>
      </trkpt>
      <trkpt lat="43.0421280" lon="-7.9745400">
        <ele>653.8</ele>
        <time>2014-07-30T15:03:20Z</time>
      </trkpt>
      <trkpt lat="43.0420880" lon="-7.9746120">
        <ele>653.2</ele>
        <time>2014-07-30T15:03:23Z</time>
      </trkpt>
      <trkpt lat="43.0419760" lon="-7.9747910">
        <ele>651.3</ele>
        <time>2014-07-30T15:03:32Z</time>
      </trkpt>
      <trkpt lat="43.0419340" lon="-7.9748210">
        <ele>650.6</ele>
        <time>2014-07-30T15:03:33Z</time>
      </trkpt>
      <trkpt lat="43.0418840" lon="-7.9748430">
        <ele>649.9</ele>
        <time>2014-07-30T15:03:34Z</time>
      </trkpt>
      <trkpt lat="43.0418320" lon="-7.9748570">
        <ele>649.4</ele>
        <time>2014-07-30T15:03:35Z</time>
      </trkpt>
      <trkpt lat="43.0417720" lon="-7.9748710">
        <ele>648.7</ele>
        <time>2014-07-30T15:03:36Z</time>
      </trkpt>
      <trkpt lat="43.0416530" lon="-7.9749040">
        <ele>647.5</ele>
        <time>2014-07-30T15:03:38Z</time>
      </trkpt>
      <trkpt lat="43.0416010" lon="-7.9749360">
        <ele>647.1</ele>
        <time>2014-07-30T15:03:39Z</time>
      </trkpt>
      <trkpt lat="43.0415610" lon="-7.9749800">
        <ele>646.7</ele>
        <time>2014-07-30T15:03:40Z</time>
      </trkpt>
      <trkpt lat="43.0415340" lon="-7.9750360">
        <ele>646.2</ele>
        <time>2014-07-30T15:03:41Z</time>
      </trkpt>
      <trkpt lat="43.0415210" lon="-7.9751050">
        <ele>645.5</ele>
        <time>2014-07-30T15:03:42Z</time>
      </trkpt>
      <trkpt lat="43.0415120" lon="-7.9751830">
        <ele>644.6</ele>
        <time>2014-07-30T15:03:43Z</time>
      </trkpt>
      <trkpt lat="43.0414740" lon="-7.9753450">
        <ele>643.4</ele>
        <time>2014-07-30T15:03:45Z</time>
      </trkpt>
      <trkpt lat="43.0414440" lon="-7.9754150">
        <ele>642.8</ele>
        <time>2014-07-30T15:03:46Z</time>
      </trkpt>
      <trkpt lat="43.0413350" lon="-7.9756650">
        <ele>641.7</ele>
        <time>2014-07-30T15:03:50Z</time>
      </trkpt>
      <trkpt lat="43.0412870" lon="-7.9757970">
        <ele>641.1</ele>
        <time>2014-07-30T15:03:52Z</time>
      </trkpt>
      <trkpt lat="43.0408870" lon="-7.9765290">
        <ele>638.3</ele>
        <time>2014-07-30T15:04:04Z</time>
      </trkpt>
      <trkpt lat="43.0407150" lon="-7.9767230">
        <ele>637.3</ele>
        <time>2014-07-30T15:04:07Z</time>
      </trkpt>
      <trkpt lat="43.0402600" lon="-7.9773520">
        <ele>634.6</ele>
        <time>2014-07-30T15:04:16Z</time>
      </trkpt>
      <trkpt lat="43.0401280" lon="-7.9775000">
        <ele>634.2</ele>
        <time>2014-07-30T15:04:19Z</time>
      </trkpt>
      <trkpt lat="43.0400870" lon="-7.9775410">
        <ele>634.0</ele>
        <time>2014-07-30T15:04:20Z</time>
      </trkpt>
      <trkpt lat="43.0400170" lon="-7.9776300">
        <ele>633.8</ele>
        <time>2014-07-30T15:04:22Z</time>
      </trkpt>
      <trkpt lat="43.0398180" lon="-7.9779910">
        <ele>632.7</ele>
        <time>2014-07-30T15:04:29Z</time>
      </trkpt>
      <trkpt lat="43.0396910" lon="-7.9783090">
        <ele>631.0</ele>
        <time>2014-07-30T15:04:33Z</time>
      </trkpt>
      <trkpt lat="43.0396730" lon="-7.9783960">
        <ele>630.4</ele>
        <time>2014-07-30T15:04:34Z</time>
      </trkpt>
      <trkpt lat="43.0396680" lon="-7.9784800">
        <ele>630.0</ele>
        <time>2014-07-30T15:04:35Z</time>
      </trkpt>
      <trkpt lat="43.0396710" lon="-7.9785600">
        <ele>629.6</ele>
        <time>2014-07-30T15:04:36Z</time>
      </trkpt>
      <trkpt lat="43.0396880" lon="-7.9788140">
        <ele>628.2</ele>
        <time>2014-07-30T15:04:39Z</time>
      </trkpt>
      <trkpt lat="43.0397460" lon="-7.9793820">
        <ele>626.7</ele>
        <time>2014-07-30T15:04:46Z</time>
      </trkpt>
      <trkpt lat="43.0397550" lon="-7.9794610">
        <ele>626.4</ele>
        <time>2014-07-30T15:04:47Z</time>
      </trkpt>
      <trkpt lat="43.0397630" lon="-7.9795360">
        <ele>626.1</ele>
        <time>2014-07-30T15:04:48Z</time>
      </trkpt>
      <trkpt lat="43.0397720" lon="-7.9796110">
        <ele>625.9</ele>
        <time>2014-07-30T15:04:49Z</time>
      </trkpt>
      <trkpt lat="43.0397780" lon="-7.9796900">
        <ele>625.8</ele>
        <time>2014-07-30T15:04:50Z</time>
      </trkpt>
      <trkpt lat="43.0397870" lon="-7.9799260">
        <ele>625.5</ele>
        <time>2014-07-30T15:04:53Z</time>
      </trkpt>
      <trkpt lat="43.0398000" lon="-7.9801540">
        <ele>625.3</ele>
        <time>2014-07-30T15:04:56Z</time>
      </trkpt>
      <trkpt lat="43.0398050" lon="-7.9803330">
        <ele>625.3</ele>
        <time>2014-07-30T15:04:58Z</time>
      </trkpt>
      <trkpt lat="43.0397930" lon="-7.9805160">
        <ele>625.2</ele>
        <time>2014-07-30T15:05:00Z</time>
      </trkpt>
      <trkpt lat="43.0397740" lon="-7.9806100">
        <ele>625.2</ele>
        <time>2014-07-30T15:05:01Z</time>
      </trkpt>
      <trkpt lat="43.0397440" lon="-7.9807660">
        <ele>625.0</ele>
        <time>2014-07-30T15:05:03Z</time>
      </trkpt>
      <trkpt lat="43.0397220" lon="-7.9808320">
        <ele>625.0</ele>
        <time>2014-07-30T15:05:04Z</time>
      </trkpt>
      <trkpt lat="43.0396320" lon="-7.9810070">
        <ele>624.7</ele>
        <time>2014-07-30T15:05:07Z</time>
      </trkpt>
      <trkpt lat="43.0395580" lon="-7.9811110">
        <ele>624.6</ele>
        <time>2014-07-30T15:05:09Z</time>
      </trkpt>
      <trkpt lat="43.0395100" lon="-7.9811570">
        <ele>624.5</ele>
        <time>2014-07-30T15:05:10Z</time>
      </trkpt>
      <trkpt lat="43.0394590" lon="-7.9811940">
        <ele>624.5</ele>
        <time>2014-07-30T15:05:11Z</time>
      </trkpt>
      <trkpt lat="43.0394100" lon="-7.9812240">
        <ele>624.5</ele>
        <time>2014-07-30T15:05:12Z</time>
      </trkpt>
      <trkpt lat="43.0393600" lon="-7.9812470">
        <ele>624.4</ele>
        <time>2014-07-30T15:05:13Z</time>
      </trkpt>
      <trkpt lat="43.0393050" lon="-7.9812660">
        <ele>624.4</ele>
        <time>2014-07-30T15:05:14Z</time>
      </trkpt>
      <trkpt lat="43.0392520" lon="-7.9812820">
        <ele>624.3</ele>
        <time>2014-07-30T15:05:15Z</time>
      </trkpt>
      <trkpt lat="43.0390420" lon="-7.9813390">
        <ele>624.1</ele>
        <time>2014-07-30T15:05:19Z</time>
      </trkpt>
      <trkpt lat="43.0389250" lon="-7.9813530">
        <ele>624.0</ele>
        <time>2014-07-30T15:05:21Z</time>
      </trkpt>
      <trkpt lat="43.0388620" lon="-7.9813740">
        <ele>623.8</ele>
        <time>2014-07-30T15:05:22Z</time>
      </trkpt>
      <trkpt lat="43.0387270" lon="-7.9814380">
        <ele>623.5</ele>
        <time>2014-07-30T15:05:24Z</time>
      </trkpt>
      <trkpt lat="43.0384640" lon="-7.9815880">
        <ele>622.4</ele>
        <time>2014-07-30T15:05:28Z</time>
      </trkpt>
      <trkpt lat="43.0384040" lon="-7.9816370">
        <ele>622.3</ele>
        <time>2014-07-30T15:05:29Z</time>
      </trkpt>
      <trkpt lat="43.0383470" lon="-7.9816970">
        <ele>622.1</ele>
        <time>2014-07-30T15:05:30Z</time>
      </trkpt>
      <trkpt lat="43.0383060" lon="-7.9817640">
        <ele>622.0</ele>
        <time>2014-07-30T15:05:31Z</time>
      </trkpt>
      <trkpt lat="43.0382740" lon="-7.9818290">
        <ele>621.9</ele>
        <time>2014-07-30T15:05:32Z</time>
      </trkpt>
      <trkpt lat="43.0380460" lon="-7.9822810">
        <ele>620.8</ele>
        <time>2014-07-30T15:05:39Z</time>
      </trkpt>
      <trkpt lat="43.0380160" lon="-7.9823420">
        <ele>620.6</ele>
        <time>2014-07-30T15:05:40Z</time>
      </trkpt>
      <trkpt lat="43.0379930" lon="-7.9824070">
        <ele>620.5</ele>
        <time>2014-07-30T15:05:41Z</time>
      </trkpt>
      <trkpt lat="43.0379800" lon="-7.9824720">
        <ele>620.2</ele>
        <time>2014-07-30T15:05:42Z</time>
      </trkpt>
      <trkpt lat="43.0379740" lon="-7.9825340">
        <ele>619.9</ele>
        <time>2014-07-30T15:05:43Z</time>
      </trkpt>
      <trkpt lat="43.0379760" lon="-7.9825900">
        <ele>619.6</ele>
        <time>2014-07-30T15:05:44Z</time>
      </trkpt>
      <trkpt lat="43.0379650" lon="-7.9826560">
        <ele>619.3</ele>
        <time>2014-07-30T15:05:45Z</time>
      </trkpt>
      <trkpt lat="43.0379670" lon="-7.9827230">
        <ele>618.9</ele>
        <time>2014-07-30T15:05:46Z</time>
      </trkpt>
      <trkpt lat="43.0379680" lon="-7.9827960">
        <ele>618.5</ele>
        <time>2014-07-30T15:05:47Z</time>
      </trkpt>
      <trkpt lat="43.0379540" lon="-7.9828720">
        <ele>618.2</ele>
        <time>2014-07-30T15:05:48Z</time>
      </trkpt>
      <trkpt lat="43.0379340" lon="-7.9829400">
        <ele>617.8</ele>
        <time>2014-07-30T15:05:49Z</time>
      </trkpt>
      <trkpt lat="43.0379150" lon="-7.9830020">
        <ele>617.7</ele>
        <time>2014-07-30T15:05:50Z</time>
      </trkpt>
      <trkpt lat="43.0378940" lon="-7.9830640">
        <ele>617.5</ele>
        <time>2014-07-30T15:05:51Z</time>
      </trkpt>
      <trkpt lat="43.0378720" lon="-7.9831240">
        <ele>617.1</ele>
        <time>2014-07-30T15:05:52Z</time>
      </trkpt>
      <trkpt lat="43.0378540" lon="-7.9831840">
        <ele>616.7</ele>
        <time>2014-07-30T15:05:53Z</time>
      </trkpt>
      <trkpt lat="43.0378430" lon="-7.9832480">
        <ele>616.2</ele>
        <time>2014-07-30T15:05:54Z</time>
      </trkpt>
      <trkpt lat="43.0378380" lon="-7.9833130">
        <ele>615.6</ele>
        <time>2014-07-30T15:05:55Z</time>
      </trkpt>
      <trkpt lat="43.0378360" lon="-7.9833790">
        <ele>615.0</ele>
        <time>2014-07-30T15:05:56Z</time>
      </trkpt>
      <trkpt lat="43.0378350" lon="-7.9834510">
        <ele>614.4</ele>
        <time>2014-07-30T15:05:57Z</time>
      </trkpt>
      <trkpt lat="43.0378200" lon="-7.9836000">
        <ele>613.6</ele>
        <time>2014-07-30T15:05:59Z</time>
      </trkpt>
      <trkpt lat="43.0378290" lon="-7.9836710">
        <ele>613.2</ele>
        <time>2014-07-30T15:06:00Z</time>
      </trkpt>
      <trkpt lat="43.0378400" lon="-7.9838160">
        <ele>612.3</ele>
        <time>2014-07-30T15:06:02Z</time>
      </trkpt>
      <trkpt lat="43.0378850" lon="-7.9842260">
        <ele>610.3</ele>
        <time>2014-07-30T15:06:08Z</time>
      </trkpt>
      <trkpt lat="43.0379000" lon="-7.9843630">
        <ele>609.6</ele>
        <time>2014-07-30T15:06:10Z</time>
      </trkpt>
      <trkpt lat="43.0379000" lon="-7.9844280">
        <ele>609.3</ele>
        <time>2014-07-30T15:06:11Z</time>
      </trkpt>
      <trkpt lat="43.0379060" lon="-7.9844860">
        <ele>609.1</ele>
        <time>2014-07-30T15:06:12Z</time>
      </trkpt>
      <trkpt lat="43.0379140" lon="-7.9845390">
        <ele>609.0</ele>
        <time>2014-07-30T15:06:13Z</time>
      </trkpt>
      <trkpt lat="43.0379170" lon="-7.9845900">
        <ele>608.8</ele>
        <time>2014-07-30T15:06:14Z</time>
      </trkpt>
      <trkpt lat="43.0379140" lon="-7.9846380">
        <ele>608.7</ele>
        <time>2014-07-30T15:06:15Z</time>
      </trkpt>
      <trkpt lat="43.0379110" lon="-7.9846940">
        <ele>608.5</ele>
        <time>2014-07-30T15:06:16Z</time>
      </trkpt>
      <trkpt lat="43.0379130" lon="-7.9847550">
        <ele>608.2</ele>
        <time>2014-07-30T15:06:17Z</time>
      </trkpt>
      <trkpt lat="43.0379190" lon="-7.9848130">
        <ele>608.0</ele>
        <time>2014-07-30T15:06:18Z</time>
      </trkpt>
      <trkpt lat="43.0379310" lon="-7.9849450">
        <ele>607.4</ele>
        <time>2014-07-30T15:06:20Z</time>
      </trkpt>
      <trkpt lat="43.0379290" lon="-7.9850160">
        <ele>607.1</ele>
        <time>2014-07-30T15:06:21Z</time>
      </trkpt>
      <trkpt lat="43.0379300" lon="-7.9850830">
        <ele>606.8</ele>
        <time>2014-07-30T15:06:22Z</time>
      </trkpt>
      <trkpt lat="43.0379150" lon="-7.9853200">
        <ele>606.0</ele>
        <time>2014-07-30T15:06:25Z</time>
      </trkpt>
      <trkpt lat="43.0379140" lon="-7.9853960">
        <ele>605.9</ele>
        <time>2014-07-30T15:06:26Z</time>
      </trkpt>
      <trkpt lat="43.0379190" lon="-7.9856960">
        <ele>605.4</ele>
        <time>2014-07-30T15:06:30Z</time>
      </trkpt>
      <trkpt lat="43.0378590" lon="-7.9860840">
        <ele>604.8</ele>
        <time>2014-07-30T15:06:35Z</time>
      </trkpt>
      <trkpt lat="43.0378420" lon="-7.9861610">
        <ele>604.7</ele>
        <time>2014-07-30T15:06:36Z</time>
      </trkpt>
      <trkpt lat="43.0378310" lon="-7.9862310">
        <ele>604.6</ele>
        <time>2014-07-30T15:06:37Z</time>
      </trkpt>
      <trkpt lat="43.0378320" lon="-7.9863550">
        <ele>604.4</ele>
        <time>2014-07-30T15:06:39Z</time>
      </trkpt>
      <trkpt lat="43.0378510" lon="-7.9864840">
        <ele>604.1</ele>
        <time>2014-07-30T15:06:41Z</time>
      </trkpt>
      <trkpt lat="43.0378470" lon="-7.9865460">
        <ele>604.1</ele>
        <time>2014-07-30T15:06:42Z</time>
      </trkpt>
      <trkpt lat="43.0378410" lon="-7.9866070">
        <ele>604.1</ele>
        <time>2014-07-30T15:06:43Z</time>
      </trkpt>
      <trkpt lat="43.0378340" lon="-7.9866650">
        <ele>604.1</ele>
        <time>2014-07-30T15:06:44Z</time>
      </trkpt>
      <trkpt lat="43.0378190" lon="-7.9867230">
        <ele>604.1</ele>
        <time>2014-07-30T15:06:45Z</time>
      </trkpt>
      <trkpt lat="43.0378000" lon="-7.9867770">
        <ele>604.1</ele>
        <time>2014-07-30T15:06:46Z</time>
      </trkpt>
      <trkpt lat="43.0377720" lon="-7.9868330">
        <ele>604.1</ele>
        <time>2014-07-30T15:06:47Z</time>
      </trkpt>
      <trkpt lat="43.0377400" lon="-7.9868880">
        <ele>604.1</ele>
        <time>2014-07-30T15:06:48Z</time>
      </trkpt>
      <trkpt lat="43.0377200" lon="-7.9869410">
        <ele>604.1</ele>
        <time>2014-07-30T15:06:49Z</time>
      </trkpt>
      <trkpt lat="43.0377100" lon="-7.9869850">
        <ele>604.1</ele>
        <time>2014-07-30T15:06:50Z</time>
      </trkpt>
      <trkpt lat="43.0376710" lon="-7.9871750">
        <ele>604.3</ele>
        <time>2014-07-30T15:06:53Z</time>
      </trkpt>
      <trkpt lat="43.0376650" lon="-7.9872420">
        <ele>604.4</ele>
        <time>2014-07-30T15:06:54Z</time>
      </trkpt>
      <trkpt lat="43.0376760" lon="-7.9873050">
        <ele>604.6</ele>
        <time>2014-07-30T15:06:55Z</time>
      </trkpt>
      <trkpt lat="43.0376910" lon="-7.9873580">
        <ele>604.8</ele>
        <time>2014-07-30T15:06:56Z</time>
      </trkpt>
      <trkpt lat="43.0376960" lon="-7.9874230">
        <ele>605.1</ele>
        <time>2014-07-30T15:06:57Z</time>
      </trkpt>
      <trkpt lat="43.0376980" lon="-7.9874990">
        <ele>605.3</ele>
        <time>2014-07-30T15:06:58Z</time>
      </trkpt>
      <trkpt lat="43.0377000" lon="-7.9875760">
        <ele>605.4</ele>
        <time>2014-07-30T15:06:59Z</time>
      </trkpt>
      <trkpt lat="43.0376940" lon="-7.9876600">
        <ele>605.5</ele>
        <time>2014-07-30T15:07:00Z</time>
      </trkpt>
      <trkpt lat="43.0376850" lon="-7.9877480">
        <ele>605.6</ele>
        <time>2014-07-30T15:07:01Z</time>
      </trkpt>
      <trkpt lat="43.0376750" lon="-7.9878280">
        <ele>605.6</ele>
        <time>2014-07-30T15:07:02Z</time>
      </trkpt>
      <trkpt lat="43.0376560" lon="-7.9879640">
        <ele>605.6</ele>
        <time>2014-07-30T15:07:04Z</time>
      </trkpt>
      <trkpt lat="43.0376080" lon="-7.9882190">
        <ele>605.6</ele>
        <time>2014-07-30T15:07:08Z</time>
      </trkpt>
      <trkpt lat="43.0374540" lon="-7.9887780">
        <ele>605.0</ele>
        <time>2014-07-30T15:07:15Z</time>
      </trkpt>
      <trkpt lat="43.0374380" lon="-7.9888520">
        <ele>604.6</ele>
        <time>2014-07-30T15:07:16Z</time>
      </trkpt>
      <trkpt lat="43.0374240" lon="-7.9889280">
        <ele>604.1</ele>
        <time>2014-07-30T15:07:17Z</time>
      </trkpt>
      <trkpt lat="43.0373810" lon="-7.9891580">
        <ele>602.6</ele>
        <time>2014-07-30T15:07:20Z</time>
      </trkpt>
      <trkpt lat="43.0373730" lon="-7.9892260">
        <ele>602.1</ele>
        <time>2014-07-30T15:07:21Z</time>
      </trkpt>
      <trkpt lat="43.0373630" lon="-7.9892900">
        <ele>601.7</ele>
        <time>2014-07-30T15:07:22Z</time>
      </trkpt>
      <trkpt lat="43.0373310" lon="-7.9894150">
        <ele>600.7</ele>
        <time>2014-07-30T15:07:24Z</time>
      </trkpt>
      <trkpt lat="43.0372980" lon="-7.9895870">
        <ele>599.2</ele>
        <time>2014-07-30T15:07:27Z</time>
      </trkpt>
      <trkpt lat="43.0373020" lon="-7.9900030">
        <ele>595.8</ele>
        <time>2014-07-30T15:07:35Z</time>
      </trkpt>
      <trkpt lat="43.0372950" lon="-7.9900470">
        <ele>595.4</ele>
        <time>2014-07-30T15:07:36Z</time>
      </trkpt>
      <trkpt lat="43.0371980" lon="-7.9905150">
        <ele>591.2</ele>
        <time>2014-07-30T15:07:45Z</time>
      </trkpt>
      <trkpt lat="43.0371710" lon="-7.9905800">
        <ele>590.7</ele>
        <time>2014-07-30T15:07:46Z</time>
      </trkpt>
      <trkpt lat="43.0371440" lon="-7.9906410">
        <ele>590.3</ele>
        <time>2014-07-30T15:07:47Z</time>
      </trkpt>
      <trkpt lat="43.0371330" lon="-7.9907010">
        <ele>590.0</ele>
        <time>2014-07-30T15:07:48Z</time>
      </trkpt>
      <trkpt lat="43.0370920" lon="-7.9912880">
        <ele>587.3</ele>
        <time>2014-07-30T15:07:57Z</time>
      </trkpt>
      <trkpt lat="43.0370660" lon="-7.9914070">
        <ele>586.8</ele>
        <time>2014-07-30T15:07:59Z</time>
      </trkpt>
      <trkpt lat="43.0370510" lon="-7.9914530">
        <ele>586.6</ele>
        <time>2014-07-30T15:08:00Z</time>
      </trkpt>
      <trkpt lat="43.0370430" lon="-7.9915040">
        <ele>586.5</ele>
        <time>2014-07-30T15:08:01Z</time>
      </trkpt>
      <trkpt lat="43.0370600" lon="-7.9915840">
        <ele>586.2</ele>
        <time>2014-07-30T15:08:02Z</time>
      </trkpt>
      <trkpt lat="43.0370750" lon="-7.9916630">
        <ele>586.0</ele>
        <time>2014-07-30T15:08:03Z</time>
      </trkpt>
      <trkpt lat="43.0370900" lon="-7.9917330">
        <ele>585.7</ele>
        <time>2014-07-30T15:08:04Z</time>
      </trkpt>
      <trkpt lat="43.0371120" lon="-7.9918080">
        <ele>585.4</ele>
        <time>2014-07-30T15:08:05Z</time>
      </trkpt>
      <trkpt lat="43.0371300" lon="-7.9918730">
        <ele>585.0</ele>
        <time>2014-07-30T15:08:06Z</time>
      </trkpt>
      <trkpt lat="43.0371270" lon="-7.9919290">
        <ele>584.8</ele>
        <time>2014-07-30T15:08:07Z</time>
      </trkpt>
      <trkpt lat="43.0371230" lon="-7.9919880">
        <ele>584.5</ele>
        <time>2014-07-30T15:08:08Z</time>
      </trkpt>
      <trkpt lat="43.0371260" lon="-7.9920460">
        <ele>584.2</ele>
        <time>2014-07-30T15:08:09Z</time>
      </trkpt>
      <trkpt lat="43.0371320" lon="-7.9921120">
        <ele>583.9</ele>
        <time>2014-07-30T15:08:10Z</time>
      </trkpt>
      <trkpt lat="43.0371280" lon="-7.9921730">
        <ele>583.6</ele>
        <time>2014-07-30T15:08:11Z</time>
      </trkpt>
      <trkpt lat="43.0371290" lon="-7.9922350">
        <ele>583.3</ele>
        <time>2014-07-30T15:08:12Z</time>
      </trkpt>
      <trkpt lat="43.0371290" lon="-7.9922980">
        <ele>583.0</ele>
        <time>2014-07-30T15:08:13Z</time>
      </trkpt>
      <trkpt lat="43.0371470" lon="-7.9924970">
        <ele>582.1</ele>
        <time>2014-07-30T15:08:16Z</time>
      </trkpt>
      <trkpt lat="43.0371650" lon="-7.9929500">
        <ele>579.4</ele>
        <time>2014-07-30T15:08:23Z</time>
      </trkpt>
      <trkpt lat="43.0371750" lon="-7.9931250">
        <ele>577.8</ele>
        <time>2014-07-30T15:08:26Z</time>
      </trkpt>
      <trkpt lat="43.0372130" lon="-7.9933450">
        <ele>575.0</ele>
        <time>2014-07-30T15:08:30Z</time>
      </trkpt>
      <trkpt lat="43.0372310" lon="-7.9934010">
        <ele>574.3</ele>
        <time>2014-07-30T15:08:31Z</time>
      </trkpt>
      <trkpt lat="43.0372450" lon="-7.9934640">
        <ele>573.5</ele>
        <time>2014-07-30T15:08:32Z</time>
      </trkpt>
      <trkpt lat="43.0372490" lon="-7.9935310">
        <ele>572.7</ele>
        <time>2014-07-30T15:08:33Z</time>
      </trkpt>
      <trkpt lat="43.0372660" lon="-7.9936700">
        <ele>571.2</ele>
        <time>2014-07-30T15:08:35Z</time>
      </trkpt>
      <trkpt lat="43.0372730" lon="-7.9937430">
        <ele>570.5</ele>
        <time>2014-07-30T15:08:36Z</time>
      </trkpt>
      <trkpt lat="43.0372760" lon="-7.9938050">
        <ele>569.9</ele>
        <time>2014-07-30T15:08:37Z</time>
      </trkpt>
      <trkpt lat="43.0372670" lon="-7.9940630">
        <ele>567.7</ele>
        <time>2014-07-30T15:08:45Z</time>
      </trkpt>
      <trkpt lat="43.0372210" lon="-7.9940860">
        <ele>567.3</ele>
        <time>2014-07-30T15:09:09Z</time>
      </trkpt>
      <trkpt lat="43.0372170" lon="-7.9941050">
        <ele>567.2</ele>
        <time>2014-07-30T15:09:16Z</time>
      </trkpt>
      <trkpt lat="43.0372720" lon="-7.9943340">
        <ele>565.9</ele>
        <time>2014-07-30T15:09:22Z</time>
      </trkpt>
      <trkpt lat="43.0372840" lon="-7.9944880">
        <ele>565.2</ele>
        <time>2014-07-30T15:09:25Z</time>
      </trkpt>
      <trkpt lat="43.0373020" lon="-7.9945510">
        <ele>565.0</ele>
        <time>2014-07-30T15:09:26Z</time>
      </trkpt>
      <trkpt lat="43.0373250" lon="-7.9946200">
        <ele>564.3</ele>
        <time>2014-07-30T15:09:27Z</time>
      </trkpt>
      <trkpt lat="43.0374720" lon="-7.9950400">
        <ele>562.4</ele>
        <time>2014-07-30T15:09:32Z</time>
      </trkpt>
      <trkpt lat="43.0375420" lon="-7.9953280">
        <ele>561.5</ele>
        <time>2014-07-30T15:09:35Z</time>
      </trkpt>
      <trkpt lat="43.0375560" lon="-7.9954240">
        <ele>561.1</ele>
        <time>2014-07-30T15:09:36Z</time>
      </trkpt>
      <trkpt lat="43.0375720" lon="-7.9965270">
        <ele>562.8</ele>
        <time>2014-07-30T15:09:50Z</time>
      </trkpt>
      <trkpt lat="43.0374920" lon="-7.9970690">
        <ele>562.1</ele>
        <time>2014-07-30T15:09:58Z</time>
      </trkpt>
      <trkpt lat="43.0374180" lon="-7.9975960">
        <ele>561.6</ele>
        <time>2014-07-30T15:10:06Z</time>
      </trkpt>
      <trkpt lat="43.0374120" lon="-7.9976670">
        <ele>561.6</ele>
        <time>2014-07-30T15:10:07Z</time>
      </trkpt>
      <trkpt lat="43.0374080" lon="-7.9977310">
        <ele>561.7</ele>
        <time>2014-07-30T15:10:08Z</time>
      </trkpt>
      <trkpt lat="43.0373990" lon="-7.9977910">
        <ele>561.7</ele>
        <time>2014-07-30T15:10:09Z</time>
      </trkpt>
      <trkpt lat="43.0373880" lon="-7.9978510">
        <ele>561.8</ele>
        <time>2014-07-30T15:10:10Z</time>
      </trkpt>
      <trkpt lat="43.0372710" lon="-7.9985790">
        <ele>561.6</ele>
        <time>2014-07-30T15:10:21Z</time>
      </trkpt>
      <trkpt lat="43.0370870" lon="-7.9994170">
        <ele>559.3</ele>
        <time>2014-07-30T15:10:30Z</time>
      </trkpt>
      <trkpt lat="43.0370390" lon="-7.9996330">
        <ele>558.8</ele>
        <time>2014-07-30T15:10:32Z</time>
      </trkpt>
      <trkpt lat="43.0368750" lon="-8.0004600">
        <ele>555.1</ele>
        <time>2014-07-30T15:10:39Z</time>
      </trkpt>
      <trkpt lat="43.0367310" lon="-8.0012460">
        <ele>553.6</ele>
        <time>2014-07-30T15:10:45Z</time>
      </trkpt>
      <trkpt lat="43.0366280" lon="-8.0021520">
        <ele>549.3</ele>
        <time>2014-07-30T15:10:52Z</time>
      </trkpt>
      <trkpt lat="43.0366200" lon="-8.0024200">
        <ele>548.0</ele>
        <time>2014-07-30T15:10:55Z</time>
      </trkpt>
      <trkpt lat="43.0366200" lon="-8.0025000">
        <ele>547.7</ele>
        <time>2014-07-30T15:11:02Z</time>
      </trkpt>
      <trkpt lat="43.0366070" lon="-8.0025750">
        <ele>547.4</ele>
        <time>2014-07-30T15:11:15Z</time>
      </trkpt>
      <trkpt lat="43.0365640" lon="-8.0032490">
        <ele>544.7</ele>
        <time>2014-07-30T15:11:25Z</time>
      </trkpt>
      <trkpt lat="43.0365650" lon="-8.0033370">
        <ele>544.3</ele>
        <time>2014-07-30T15:11:26Z</time>
      </trkpt>
      <trkpt lat="43.0365670" lon="-8.0034240">
        <ele>543.9</ele>
        <time>2014-07-30T15:11:27Z</time>
      </trkpt>
      <trkpt lat="43.0366580" lon="-8.0043490">
        <ele>539.5</ele>
        <time>2014-07-30T15:11:36Z</time>
      </trkpt>
      <trkpt lat="43.0366610" lon="-8.0044620">
        <ele>538.9</ele>
        <time>2014-07-30T15:11:37Z</time>
      </trkpt>
      <trkpt lat="43.0366380" lon="-8.0047840">
        <ele>537.3</ele>
        <time>2014-07-30T15:11:40Z</time>
      </trkpt>
      <trkpt lat="43.0365820" lon="-8.0050650">
        <ele>535.2</ele>
        <time>2014-07-30T15:11:47Z</time>
      </trkpt>
      <trkpt lat="43.0365830" lon="-8.0050800">
        <ele>535.1</ele>
        <time>2014-07-30T15:11:56Z</time>
      </trkpt>
      <trkpt lat="43.0365780" lon="-8.0051970">
        <ele>534.3</ele>
        <time>2014-07-30T15:11:59Z</time>
      </trkpt>
      <trkpt lat="43.0365400" lon="-8.0054070">
        <ele>532.8</ele>
        <time>2014-07-30T15:12:02Z</time>
      </trkpt>
      <trkpt lat="43.0365300" lon="-8.0054720">
        <ele>532.4</ele>
        <time>2014-07-30T15:12:03Z</time>
      </trkpt>
      <trkpt lat="43.0365130" lon="-8.0056040">
        <ele>531.4</ele>
        <time>2014-07-30T15:12:05Z</time>
      </trkpt>
      <trkpt lat="43.0365230" lon="-8.0056680">
        <ele>530.9</ele>
        <time>2014-07-30T15:12:06Z</time>
      </trkpt>
      <trkpt lat="43.0365380" lon="-8.0057310">
        <ele>530.4</ele>
        <time>2014-07-30T15:12:07Z</time>
      </trkpt>
      <trkpt lat="43.0365470" lon="-8.0057940">
        <ele>529.9</ele>
        <time>2014-07-30T15:12:08Z</time>
      </trkpt>
      <trkpt lat="43.0365560" lon="-8.0058560">
        <ele>529.4</ele>
        <time>2014-07-30T15:12:09Z</time>
      </trkpt>
      <trkpt lat="43.0365660" lon="-8.0059190">
        <ele>528.9</ele>
        <time>2014-07-30T15:12:10Z</time>
      </trkpt>
      <trkpt lat="43.0365800" lon="-8.0059790">
        <ele>528.5</ele>
        <time>2014-07-30T15:12:11Z</time>
      </trkpt>
      <trkpt lat="43.0365940" lon="-8.0060370">
        <ele>528.0</ele>
        <time>2014-07-30T15:12:12Z</time>
      </trkpt>
      <trkpt lat="43.0365980" lon="-8.0060940">
        <ele>527.6</ele>
        <time>2014-07-30T15:12:13Z</time>
      </trkpt>
      <trkpt lat="43.0365990" lon="-8.0061550">
        <ele>527.2</ele>
        <time>2014-07-30T15:12:14Z</time>
      </trkpt>
      <trkpt lat="43.0365990" lon="-8.0062170">
        <ele>526.8</ele>
        <time>2014-07-30T15:12:15Z</time>
      </trkpt>
      <trkpt lat="43.0365930" lon="-8.0062800">
        <ele>526.4</ele>
        <time>2014-07-30T15:12:16Z</time>
      </trkpt>
      <trkpt lat="43.0365810" lon="-8.0063440">
        <ele>526.0</ele>
        <time>2014-07-30T15:12:17Z</time>
      </trkpt>
      <trkpt lat="43.0365550" lon="-8.0064100">
        <ele>525.6</ele>
        <time>2014-07-30T15:12:18Z</time>
      </trkpt>
      <trkpt lat="43.0365300" lon="-8.0064770">
        <ele>525.2</ele>
        <time>2014-07-30T15:12:19Z</time>
      </trkpt>
      <trkpt lat="43.0364710" lon="-8.0066070">
        <ele>524.5</ele>
        <time>2014-07-30T15:12:26Z</time>
      </trkpt>
      <trkpt lat="43.0364810" lon="-8.0066170">
        <ele>524.5</ele>
        <time>2014-07-30T15:12:46Z</time>
      </trkpt>
      <trkpt lat="43.0364810" lon="-8.0066170">
        <ele>524.5</ele>
        <time>2014-07-30T15:13:10Z</time>
      </trkpt>
      <trkpt lat="43.0364810" lon="-8.0066190">
        <ele>524.5</ele>
        <time>2014-07-30T15:13:39Z</time>
      </trkpt>
      <trkpt lat="43.0364810" lon="-8.0066390">
        <ele>524.4</ele>
        <time>2014-07-30T15:14:05Z</time>
      </trkpt>
      <trkpt lat="43.0364840" lon="-8.0066800">
        <ele>524.2</ele>
        <time>2014-07-30T15:14:14Z</time>
      </trkpt>
      <trkpt lat="43.0364790" lon="-8.0067090">
        <ele>524.0</ele>
        <time>2014-07-30T15:14:15Z</time>
      </trkpt>
      <trkpt lat="43.0364710" lon="-8.0067400">
        <ele>523.9</ele>
        <time>2014-07-30T15:14:16Z</time>
      </trkpt>
      <trkpt lat="43.0364620" lon="-8.0067690">
        <ele>523.8</ele>
        <time>2014-07-30T15:14:17Z</time>
      </trkpt>
      <trkpt lat="43.0364570" lon="-8.0067960">
        <ele>523.6</ele>
        <time>2014-07-30T15:14:18Z</time>
      </trkpt>
      <trkpt lat="43.0364480" lon="-8.0068240">
        <ele>523.5</ele>
        <time>2014-07-30T15:14:19Z</time>
      </trkpt>
      <trkpt lat="43.0364380" lon="-8.0068580">
        <ele>523.3</ele>
        <time>2014-07-30T15:14:20Z</time>
      </trkpt>
      <trkpt lat="43.0364300" lon="-8.0068990">
        <ele>523.1</ele>
        <time>2014-07-30T15:14:21Z</time>
      </trkpt>
      <trkpt lat="43.0364190" lon="-8.0069450">
        <ele>522.9</ele>
        <time>2014-07-30T15:14:22Z</time>
      </trkpt>
      <trkpt lat="43.0364050" lon="-8.0069960">
        <ele>522.6</ele>
        <time>2014-07-30T15:14:23Z</time>
      </trkpt>
      <trkpt lat="43.0363360" lon="-8.0073150">
        <ele>521.1</ele>
        <time>2014-07-30T15:14:28Z</time>
      </trkpt>
      <trkpt lat="43.0363340" lon="-8.0073820">
        <ele>520.9</ele>
        <time>2014-07-30T15:14:29Z</time>
      </trkpt>
      <trkpt lat="43.0363430" lon="-8.0074540">
        <ele>520.6</ele>
        <time>2014-07-30T15:14:30Z</time>
      </trkpt>
      <trkpt lat="43.0363600" lon="-8.0075220">
        <ele>520.3</ele>
        <time>2014-07-30T15:14:31Z</time>
      </trkpt>
      <trkpt lat="43.0363820" lon="-8.0075860">
        <ele>520.1</ele>
        <time>2014-07-30T15:14:32Z</time>
      </trkpt>
      <trkpt lat="43.0364070" lon="-8.0076410">
        <ele>519.9</ele>
        <time>2014-07-30T15:14:33Z</time>
      </trkpt>
      <trkpt lat="43.0364280" lon="-8.0076870">
        <ele>519.7</ele>
        <time>2014-07-30T15:14:34Z</time>
      </trkpt>
      <trkpt lat="43.0365150" lon="-8.0079880">
        <ele>518.3</ele>
        <time>2014-07-30T15:14:44Z</time>
      </trkpt>
      <trkpt lat="43.0365420" lon="-8.0080410">
        <ele>518.0</ele>
        <time>2014-07-30T15:14:47Z</time>
      </trkpt>
      <trkpt lat="43.0365600" lon="-8.0080550">
        <ele>517.8</ele>
        <time>2014-07-30T15:14:48Z</time>
      </trkpt>
      <trkpt lat="43.0365820" lon="-8.0080750">
        <ele>517.6</ele>
        <time>2014-07-30T15:14:49Z</time>
      </trkpt>
      <trkpt lat="43.0366050" lon="-8.0080990">
        <ele>517.4</ele>
        <time>2014-07-30T15:14:50Z</time>
      </trkpt>
      <trkpt lat="43.0366220" lon="-8.0081380">
        <ele>517.1</ele>
        <time>2014-07-30T15:14:51Z</time>
      </trkpt>
      <trkpt lat="43.0366300" lon="-8.0081930">
        <ele>516.8</ele>
        <time>2014-07-30T15:14:52Z</time>
      </trkpt>
      <trkpt lat="43.0366380" lon="-8.0082490">
        <ele>516.6</ele>
        <time>2014-07-30T15:14:53Z</time>
      </trkpt>
      <trkpt lat="43.0366460" lon="-8.0083100">
        <ele>516.4</ele>
        <time>2014-07-30T15:14:54Z</time>
      </trkpt>
      <trkpt lat="43.0366510" lon="-8.0083770">
        <ele>516.2</ele>
        <time>2014-07-30T15:14:55Z</time>
      </trkpt>
      <trkpt lat="43.0366540" lon="-8.0084420">
        <ele>516.0</ele>
        <time>2014-07-30T15:14:56Z</time>
      </trkpt>
      <trkpt lat="43.0366840" lon="-8.0091520">
        <ele>513.9</ele>
        <time>2014-07-30T15:15:06Z</time>
      </trkpt>
      <trkpt lat="43.0366680" lon="-8.0092970">
        <ele>513.5</ele>
        <time>2014-07-30T15:15:08Z</time>
      </trkpt>
      <trkpt lat="43.0366570" lon="-8.0093720">
        <ele>513.3</ele>
        <time>2014-07-30T15:15:09Z</time>
      </trkpt>
      <trkpt lat="43.0366410" lon="-8.0099460">
        <ele>512.3</ele>
        <time>2014-07-30T15:15:20Z</time>
      </trkpt>
      <trkpt lat="43.0368380" lon="-8.0102870">
        <ele>511.4</ele>
        <time>2014-07-30T15:15:31Z</time>
      </trkpt>
      <trkpt lat="43.0372040" lon="-8.0106870">
        <ele>510.0</ele>
        <time>2014-07-30T15:15:45Z</time>
      </trkpt>
      <trkpt lat="43.0375040" lon="-8.0110150">
        <ele>509.3</ele>
        <time>2014-07-30T15:15:54Z</time>
      </trkpt>
      <trkpt lat="43.0375350" lon="-8.0110670">
        <ele>509.3</ele>
        <time>2014-07-30T15:15:55Z</time>
      </trkpt>
      <trkpt lat="43.0376270" lon="-8.0112210">
        <ele>509.4</ele>
        <time>2014-07-30T15:15:58Z</time>
      </trkpt>
      <trkpt lat="43.0377220" lon="-8.0114410">
        <ele>509.5</ele>
        <time>2014-07-30T15:16:02Z</time>
      </trkpt>
      <trkpt lat="43.0378550" lon="-8.0124280">
        <ele>510.5</ele>
        <time>2014-07-30T15:16:17Z</time>
      </trkpt>
      <trkpt lat="43.0378770" lon="-8.0125630">
        <ele>510.7</ele>
        <time>2014-07-30T15:16:19Z</time>
      </trkpt>
      <trkpt lat="43.0379110" lon="-8.0127430">
        <ele>511.0</ele>
        <time>2014-07-30T15:16:22Z</time>
      </trkpt>
      <trkpt lat="43.0379500" lon="-8.0129130">
        <ele>511.3</ele>
        <time>2014-07-30T15:16:25Z</time>
      </trkpt>
      <trkpt lat="43.0379600" lon="-8.0129720">
        <ele>511.4</ele>
        <time>2014-07-30T15:16:26Z</time>
      </trkpt>
      <trkpt lat="43.0379740" lon="-8.0130310">
        <ele>511.5</ele>
        <time>2014-07-30T15:16:27Z</time>
      </trkpt>
      <trkpt lat="43.0382240" lon="-8.0139920">
        <ele>513.3</ele>
        <time>2014-07-30T15:16:43Z</time>
      </trkpt>
      <trkpt lat="43.0382410" lon="-8.0140570">
        <ele>513.4</ele>
        <time>2014-07-30T15:16:44Z</time>
      </trkpt>
      <trkpt lat="43.0384470" lon="-8.0148470">
        <ele>515.1</ele>
        <time>2014-07-30T15:16:58Z</time>
      </trkpt>
      <trkpt lat="43.0385110" lon="-8.0151620">
        <ele>515.6</ele>
        <time>2014-07-30T15:17:04Z</time>
      </trkpt>
      <trkpt lat="43.0385070" lon="-8.0157880">
        <ele>516.4</ele>
        <time>2014-07-30T15:17:16Z</time>
      </trkpt>
      <trkpt lat="43.0385560" lon="-8.0162830">
        <ele>517.0</ele>
        <time>2014-07-30T15:17:28Z</time>
      </trkpt>
      <trkpt lat="43.0385880" lon="-8.0166630">
        <ele>517.3</ele>
        <time>2014-07-30T15:17:35Z</time>
      </trkpt>
      <trkpt lat="43.0386020" lon="-8.0167300">
        <ele>517.4</ele>
        <time>2014-07-30T15:17:36Z</time>
      </trkpt>
      <trkpt lat="43.0389290" lon="-8.0177570">
        <ele>524.7</ele>
        <time>2014-07-30T15:17:49Z</time>
      </trkpt>
      <trkpt lat="43.0389350" lon="-8.0178390">
        <ele>524.5</ele>
        <time>2014-07-30T15:17:50Z</time>
      </trkpt>
      <trkpt lat="43.0389280" lon="-8.0179180">
        <ele>524.3</ele>
        <time>2014-07-30T15:17:51Z</time>
      </trkpt>
      <trkpt lat="43.0389170" lon="-8.0179930">
        <ele>524.0</ele>
        <time>2014-07-30T15:17:52Z</time>
      </trkpt>
      <trkpt lat="43.0389030" lon="-8.0180680">
        <ele>523.8</ele>
        <time>2014-07-30T15:17:53Z</time>
      </trkpt>
      <trkpt lat="43.0388690" lon="-8.0183570">
        <ele>523.0</ele>
        <time>2014-07-30T15:17:57Z</time>
      </trkpt>
      <trkpt lat="43.0388710" lon="-8.0184310">
        <ele>522.9</ele>
        <time>2014-07-30T15:17:58Z</time>
      </trkpt>
      <trkpt lat="43.0388870" lon="-8.0187200">
        <ele>522.1</ele>
        <time>2014-07-30T15:18:02Z</time>
      </trkpt>
      <trkpt lat="43.0389170" lon="-8.0189300">
        <ele>521.4</ele>
        <time>2014-07-30T15:18:05Z</time>
      </trkpt>
      <trkpt lat="43.0389330" lon="-8.0190670">
        <ele>521.1</ele>
        <time>2014-07-30T15:18:07Z</time>
      </trkpt>
      <trkpt lat="43.0389430" lon="-8.0191320">
        <ele>520.9</ele>
        <time>2014-07-30T15:18:08Z</time>
      </trkpt>
      <trkpt lat="43.0389590" lon="-8.0192540">
        <ele>520.6</ele>
        <time>2014-07-30T15:18:10Z</time>
      </trkpt>
      <trkpt lat="43.0389670" lon="-8.0193090">
        <ele>520.4</ele>
        <time>2014-07-30T15:18:11Z</time>
      </trkpt>
      <trkpt lat="43.0389700" lon="-8.0193670">
        <ele>520.3</ele>
        <time>2014-07-30T15:18:12Z</time>
      </trkpt>
      <trkpt lat="43.0389670" lon="-8.0194260">
        <ele>520.1</ele>
        <time>2014-07-30T15:18:13Z</time>
      </trkpt>
      <trkpt lat="43.0389620" lon="-8.0194840">
        <ele>520.0</ele>
        <time>2014-07-30T15:18:14Z</time>
      </trkpt>
      <trkpt lat="43.0389630" lon="-8.0195400">
        <ele>519.8</ele>
        <time>2014-07-30T15:18:15Z</time>
      </trkpt>
      <trkpt lat="43.0390430" lon="-8.0201780">
        <ele>518.2</ele>
        <time>2014-07-30T15:18:28Z</time>
      </trkpt>
      <trkpt lat="43.0390720" lon="-8.0203060">
        <ele>517.9</ele>
        <time>2014-07-30T15:18:31Z</time>
      </trkpt>
      <trkpt lat="43.0392030" lon="-8.0207150">
        <ele>517.1</ele>
        <time>2014-07-30T15:18:43Z</time>
      </trkpt>
      <trkpt lat="43.0394100" lon="-8.0212740">
        <ele>516.2</ele>
        <time>2014-07-30T15:18:59Z</time>
      </trkpt>
      <trkpt lat="43.0396660" lon="-8.0215930">
        <ele>515.2</ele>
        <time>2014-07-30T15:19:11Z</time>
      </trkpt>
      <trkpt lat="43.0398060" lon="-8.0218340">
        <ele>515.1</ele>
        <time>2014-07-30T15:19:19Z</time>
      </trkpt>
      <trkpt lat="43.0398300" lon="-8.0218740">
        <ele>515.1</ele>
        <time>2014-07-30T15:19:20Z</time>
      </trkpt>
      <trkpt lat="43.0398990" lon="-8.0219580">
        <ele>515.2</ele>
        <time>2014-07-30T15:19:22Z</time>
      </trkpt>
      <trkpt lat="43.0399430" lon="-8.0219900">
        <ele>515.3</ele>
        <time>2014-07-30T15:19:23Z</time>
      </trkpt>
      <trkpt lat="43.0399920" lon="-8.0220130">
        <ele>515.3</ele>
        <time>2014-07-30T15:19:24Z</time>
      </trkpt>
      <trkpt lat="43.0400370" lon="-8.0220370">
        <ele>515.2</ele>
        <time>2014-07-30T15:19:25Z</time>
      </trkpt>
      <trkpt lat="43.0400760" lon="-8.0220620">
        <ele>515.2</ele>
        <time>2014-07-30T15:19:26Z</time>
      </trkpt>
      <trkpt lat="43.0401130" lon="-8.0220910">
        <ele>515.1</ele>
        <time>2014-07-30T15:19:27Z</time>
      </trkpt>
      <trkpt lat="43.0401570" lon="-8.0221190">
        <ele>514.9</ele>
        <time>2014-07-30T15:19:28Z</time>
      </trkpt>
      <trkpt lat="43.0402550" lon="-8.0221670">
        <ele>514.4</ele>
        <time>2014-07-30T15:19:30Z</time>
      </trkpt>
      <trkpt lat="43.0403060" lon="-8.0221790">
        <ele>514.1</ele>
        <time>2014-07-30T15:19:31Z</time>
      </trkpt>
      <trkpt lat="43.0404550" lon="-8.0222050">
        <ele>513.1</ele>
        <time>2014-07-30T15:19:34Z</time>
      </trkpt>
      <trkpt lat="43.0404970" lon="-8.0222080">
        <ele>512.8</ele>
        <time>2014-07-30T15:19:35Z</time>
      </trkpt>
      <trkpt lat="43.0405910" lon="-8.0222320">
        <ele>512.0</ele>
        <time>2014-07-30T15:19:38Z</time>
      </trkpt>
      <trkpt lat="43.0406090" lon="-8.0222560">
        <ele>511.9</ele>
        <time>2014-07-30T15:19:39Z</time>
      </trkpt>
      <trkpt lat="43.0406210" lon="-8.0222760">
        <ele>511.7</ele>
        <time>2014-07-30T15:19:40Z</time>
      </trkpt>
      <trkpt lat="43.0406300" lon="-8.0222950">
        <ele>511.6</ele>
        <time>2014-07-30T15:19:41Z</time>
      </trkpt>
      <trkpt lat="43.0406360" lon="-8.0223150">
        <ele>511.5</ele>
        <time>2014-07-30T15:19:42Z</time>
      </trkpt>
      <trkpt lat="43.0406400" lon="-8.0223370">
        <ele>511.4</ele>
        <time>2014-07-30T15:19:43Z</time>
      </trkpt>
      <trkpt lat="43.0406480" lon="-8.0223590">
        <ele>509.7</ele>
        <time>2014-07-30T15:19:44Z</time>
      </trkpt>
      <trkpt lat="43.0406530" lon="-8.0223860">
        <ele>509.6</ele>
        <time>2014-07-30T15:19:56Z</time>
      </trkpt>
      <trkpt lat="43.0406520" lon="-8.0223920">
        <ele>509.6</ele>
        <time>2014-07-30T15:20:22Z</time>
      </trkpt>
      <trkpt lat="43.0406520" lon="-8.0223920">
        <ele>509.6</ele>
        <time>2014-07-30T15:20:44Z</time>
      </trkpt>
      <trkpt lat="43.0406460" lon="-8.0224070">
        <ele>509.5</ele>
        <time>2014-07-30T15:20:49Z</time>
      </trkpt>
      <trkpt lat="43.0406380" lon="-8.0224280">
        <ele>509.4</ele>
        <time>2014-07-30T15:20:50Z</time>
      </trkpt>
      <trkpt lat="43.0406310" lon="-8.0224550">
        <ele>509.3</ele>
        <time>2014-07-30T15:20:51Z</time>
      </trkpt>
      <trkpt lat="43.0405110" lon="-8.0226630">
        <ele>508.5</ele>
        <time>2014-07-30T15:20:57Z</time>
      </trkpt>
      <trkpt lat="43.0404700" lon="-8.0226720">
        <ele>508.4</ele>
        <time>2014-07-30T15:20:58Z</time>
      </trkpt>
      <trkpt lat="43.0404100" lon="-8.0226640">
        <ele>508.3</ele>
        <time>2014-07-30T15:20:59Z</time>
      </trkpt>
      <trkpt lat="43.0403630" lon="-8.0226460">
        <ele>508.4</ele>
        <time>2014-07-30T15:21:00Z</time>
      </trkpt>
      <trkpt lat="43.0403190" lon="-8.0226310">
        <ele>508.5</ele>
        <time>2014-07-30T15:21:01Z</time>
      </trkpt>
      <trkpt lat="43.0400380" lon="-8.0226530">
        <ele>507.9</ele>
        <time>2014-07-30T15:21:11Z</time>
      </trkpt>
      <trkpt lat="43.0397250" lon="-8.0228310">
        <ele>507.1</ele>
        <time>2014-07-30T15:21:24Z</time>
      </trkpt>
      <trkpt lat="43.0394430" lon="-8.0231400">
        <ele>506.6</ele>
        <time>2014-07-30T15:21:39Z</time>
      </trkpt>
      <trkpt lat="43.0392080" lon="-8.0233210">
        <ele>506.1</ele>
        <time>2014-07-30T15:21:50Z</time>
      </trkpt>
      <trkpt lat="43.0391860" lon="-8.0233090">
        <ele>506.1</ele>
        <time>2014-07-30T15:21:51Z</time>
      </trkpt>
      <trkpt lat="43.0391690" lon="-8.0232920">
        <ele>506.1</ele>
        <time>2014-07-30T15:21:52Z</time>
      </trkpt>
      <trkpt lat="43.0391540" lon="-8.0232750">
        <ele>506.1</ele>
        <time>2014-07-30T15:21:53Z</time>
      </trkpt>
      <trkpt lat="43.0391410" lon="-8.0232580">
        <ele>506.1</ele>
        <time>2014-07-30T15:21:54Z</time>
      </trkpt>
      <trkpt lat="43.0391280" lon="-8.0232440">
        <ele>506.1</ele>
        <time>2014-07-30T15:21:55Z</time>
      </trkpt>
      <trkpt lat="43.0389870" lon="-8.0232100">
        <ele>506.1</ele>
        <time>2014-07-30T15:22:07Z</time>
      </trkpt>
      <trkpt lat="43.0389890" lon="-8.0232000">
        <ele>506.1</ele>
        <time>2014-07-30T15:22:25Z</time>
      </trkpt>
      <trkpt lat="43.0389750" lon="-8.0231690">
        <ele>506.2</ele>
        <time>2014-07-30T15:22:43Z</time>
      </trkpt>
      <trkpt lat="43.0389800" lon="-8.0231320">
        <ele>506.2</ele>
        <time>2014-07-30T15:22:59Z</time>
      </trkpt>
      <trkpt lat="43.0389800" lon="-8.0231270">
        <ele>506.2</ele>
        <time>2014-07-30T15:23:30Z</time>
      </trkpt>
      <trkpt lat="43.0389800" lon="-8.0231270">
        <ele>506.2</ele>
        <time>2014-07-30T15:23:56Z</time>
      </trkpt>
      <trkpt lat="43.0389650" lon="-8.0231250">
        <ele>506.2</ele>
        <time>2014-07-30T15:24:27Z</time>
      </trkpt>
      <trkpt lat="43.0389620" lon="-8.0231270">
        <ele>506.2</ele>
        <time>2014-07-30T15:24:49Z</time>
      </trkpt>
      <trkpt lat="43.0389420" lon="-8.0231290">
        <ele>506.2</ele>
        <time>2014-07-30T15:25:10Z</time>
      </trkpt>
      <trkpt lat="43.0389420" lon="-8.0231290">
        <ele>506.2</ele>
        <time>2014-07-30T15:25:40Z</time>
      </trkpt>
      <trkpt lat="43.0389460" lon="-8.0231250">
        <ele>506.2</ele>
        <time>2014-07-30T15:26:11Z</time>
      </trkpt>
      <trkpt lat="43.0389420" lon="-8.0231300">
        <ele>506.2</ele>
        <time>2014-07-30T15:26:35Z</time>
      </trkpt>
      <trkpt lat="43.0389420" lon="-8.0231300">
        <ele>506.2</ele>
        <time>2014-07-30T15:27:01Z</time>
      </trkpt>
      <trkpt lat="43.0389430" lon="-8.0231290">
        <ele>506.2</ele>
        <time>2014-07-30T15:27:33Z</time>
      </trkpt>
      <trkpt lat="43.0389400" lon="-8.0231330">
        <ele>506.2</ele>
        <time>2014-07-30T15:27:59Z</time>
      </trkpt>
      <trkpt lat="43.0389310" lon="-8.0231360">
        <ele>506.2</ele>
        <time>2014-07-30T15:28:28Z</time>
      </trkpt>
      <trkpt lat="43.0389310" lon="-8.0231360">
        <ele>506.2</ele>
        <time>2014-07-30T15:28:53Z</time>
      </trkpt>
      <trkpt lat="43.0389360" lon="-8.0231240">
        <ele>506.2</ele>
        <time>2014-07-30T15:29:19Z</time>
      </trkpt>
      <trkpt lat="43.0389340" lon="-8.0231260">
        <ele>506.2</ele>
        <time>2014-07-30T15:29:44Z</time>
      </trkpt>
      <trkpt lat="43.0389340" lon="-8.0231260">
        <ele>506.2</ele>
        <time>2014-07-30T15:30:12Z</time>
      </trkpt>
      <trkpt lat="43.0389170" lon="-8.0231250">
        <ele>506.2</ele>
        <time>2014-07-30T15:30:26Z</time>
      </trkpt>
      <trkpt lat="43.0388430" lon="-8.0231970">
        <ele>506.2</ele>
        <time>2014-07-31T06:04:27Z</time>
      </trkpt>
      <trkpt lat="43.0388580" lon="-8.0231910">
        <ele>506.2</ele>
        <time>2014-07-31T06:04:28Z</time>
      </trkpt>
      <trkpt lat="43.0388910" lon="-8.0231170">
        <ele>506.2</ele>
        <time>2014-07-31T06:04:43Z</time>
      </trkpt>
      <trkpt lat="43.0404100" lon="-8.0227150">
        <ele>507.9</ele>
        <time>2014-07-31T06:18:26Z</time>
      </trkpt>
      <trkpt lat="43.0404100" lon="-8.0227150">
        <ele>507.8</ele>
        <time>2014-07-31T06:18:32Z</time>
      </trkpt>
      <trkpt lat="43.0404100" lon="-8.0227150">
        <ele>507.8</ele>
        <time>2014-07-31T06:18:39Z</time>
      </trkpt>
      <trkpt lat="43.0404290" lon="-8.0227260">
        <ele>507.8</ele>
        <time>2014-07-31T06:19:03Z</time>
      </trkpt>
      <trkpt lat="43.0404290" lon="-8.0227260">
        <ele>507.8</ele>
        <time>2014-07-31T06:19:31Z</time>
      </trkpt>
      <trkpt lat="43.0404610" lon="-8.0227530">
        <ele>507.8</ele>
        <time>2014-07-31T06:19:47Z</time>
      </trkpt>
      <trkpt lat="43.0404610" lon="-8.0227530">
        <ele>507.8</ele>
        <time>2014-07-31T06:19:55Z</time>
      </trkpt>
      <trkpt lat="43.0404610" lon="-8.0227530">
        <ele>507.8</ele>
        <time>2014-07-31T06:19:56Z</time>
      </trkpt>
      <trkpt lat="43.0404610" lon="-8.0227530">
        <ele>507.8</ele>
        <time>2014-07-31T06:20:05Z</time>
      </trkpt>
      <trkpt lat="43.0404610" lon="-8.0227530">
        <ele>507.8</ele>
        <time>2014-07-31T06:20:06Z</time>
      </trkpt>
      <trkpt lat="43.0404610" lon="-8.0227530">
        <ele>507.8</ele>
        <time>2014-07-31T06:20:11Z</time>
      </trkpt>
      <trkpt lat="43.0404600" lon="-8.0227530">
        <ele>507.8</ele>
        <time>2014-07-31T06:20:12Z</time>
      </trkpt>
      <trkpt lat="43.0404610" lon="-8.0227530">
        <ele>507.8</ele>
        <time>2014-07-31T06:20:15Z</time>
      </trkpt>
      <trkpt lat="43.0404620" lon="-8.0227530">
        <ele>507.8</ele>
        <time>2014-07-31T06:20:16Z</time>
      </trkpt>
      <trkpt lat="43.0404600" lon="-8.0227500">
        <ele>507.8</ele>
        <time>2014-07-31T06:20:26Z</time>
      </trkpt>
      <trkpt lat="43.0404600" lon="-8.0227500">
        <ele>507.8</ele>
        <time>2014-07-31T06:20:28Z</time>
      </trkpt>
      <trkpt lat="43.0404620" lon="-8.0227450">
        <ele>507.8</ele>
        <time>2014-07-31T06:20:42Z</time>
      </trkpt>
      <trkpt lat="43.0404620" lon="-8.0227450">
        <ele>507.8</ele>
        <time>2014-07-31T06:20:43Z</time>
      </trkpt>
      <trkpt lat="43.0404620" lon="-8.0227450">
        <ele>507.8</ele>
        <time>2014-07-31T06:21:10Z</time>
      </trkpt>
      <trkpt lat="43.0404650" lon="-8.0227420">
        <ele>507.8</ele>
        <time>2014-07-31T06:21:44Z</time>
      </trkpt>
      <trkpt lat="43.0404720" lon="-8.0227390">
        <ele>507.8</ele>
        <time>2014-07-31T06:22:03Z</time>
      </trkpt>
      <trkpt lat="43.0404960" lon="-8.0227480">
        <ele>507.7</ele>
        <time>2014-07-31T06:22:31Z</time>
      </trkpt>
      <trkpt lat="43.0404960" lon="-8.0227480">
        <ele>507.7</ele>
        <time>2014-07-31T06:22:59Z</time>
      </trkpt>
      <trkpt lat="43.0405120" lon="-8.0227570">
        <ele>507.7</ele>
        <time>2014-07-31T06:23:28Z</time>
      </trkpt>
      <trkpt lat="43.0405180" lon="-8.0227590">
        <ele>507.7</ele>
        <time>2014-07-31T06:24:00Z</time>
      </trkpt>
      <trkpt lat="43.0405290" lon="-8.0227670">
        <ele>507.7</ele>
        <time>2014-07-31T06:24:36Z</time>
      </trkpt>
      <trkpt lat="43.0405290" lon="-8.0227670">
        <ele>507.7</ele>
        <time>2014-07-31T06:25:05Z</time>
      </trkpt>
      <trkpt lat="43.0405430" lon="-8.0227660">
        <ele>507.7</ele>
        <time>2014-07-31T06:25:32Z</time>
      </trkpt>
      <trkpt lat="43.0405570" lon="-8.0227700">
        <ele>507.6</ele>
        <time>2014-07-31T06:26:03Z</time>
      </trkpt>
      <trkpt lat="43.0405610" lon="-8.0227730">
        <ele>507.6</ele>
        <time>2014-07-31T06:26:35Z</time>
      </trkpt>
      <trkpt lat="43.0405610" lon="-8.0227730">
        <ele>507.6</ele>
        <time>2014-07-31T06:27:03Z</time>
      </trkpt>
      <trkpt lat="43.0405610" lon="-8.0227750">
        <ele>507.6</ele>
        <time>2014-07-31T06:27:32Z</time>
      </trkpt>
      <trkpt lat="43.0405620" lon="-8.0227790">
        <ele>507.6</ele>
        <time>2014-07-31T06:28:05Z</time>
      </trkpt>
      <trkpt lat="43.0405690" lon="-8.0227830">
        <ele>507.6</ele>
        <time>2014-07-31T06:28:41Z</time>
      </trkpt>
      <trkpt lat="43.0405670" lon="-8.0227810">
        <ele>507.6</ele>
        <time>2014-07-31T06:29:10Z</time>
      </trkpt>
      <trkpt lat="43.0405670" lon="-8.0227810">
        <ele>507.6</ele>
        <time>2014-07-31T06:29:42Z</time>
      </trkpt>
      <trkpt lat="43.0405680" lon="-8.0227790">
        <ele>507.6</ele>
        <time>2014-07-31T06:30:07Z</time>
      </trkpt>
      <trkpt lat="43.0405670" lon="-8.0227760">
        <ele>507.6</ele>
        <time>2014-07-31T06:30:35Z</time>
      </trkpt>
      <trkpt lat="43.0405670" lon="-8.0227760">
        <ele>507.6</ele>
        <time>2014-07-31T06:31:00Z</time>
      </trkpt>
      <trkpt lat="43.0405660" lon="-8.0227760">
        <ele>507.6</ele>
        <time>2014-07-31T06:31:30Z</time>
      </trkpt>
      <trkpt lat="43.0405640" lon="-8.0227710">
        <ele>507.6</ele>
        <time>2014-07-31T06:31:56Z</time>
      </trkpt>
      <trkpt lat="43.0405640" lon="-8.0227710">
        <ele>507.6</ele>
        <time>2014-07-31T06:32:25Z</time>
      </trkpt>
      <trkpt lat="43.0405650" lon="-8.0227700">
        <ele>507.6</ele>
        <time>2014-07-31T06:32:55Z</time>
      </trkpt>
      <trkpt lat="43.0405660" lon="-8.0227690">
        <ele>507.6</ele>
        <time>2014-07-31T06:33:23Z</time>
      </trkpt>
      <trkpt lat="43.0405600" lon="-8.0227660">
        <ele>507.6</ele>
        <time>2014-07-31T06:33:50Z</time>
      </trkpt>
      <trkpt lat="43.0405600" lon="-8.0227660">
        <ele>507.6</ele>
        <time>2014-07-31T06:34:22Z</time>
      </trkpt>
      <trkpt lat="43.0405530" lon="-8.0227600">
        <ele>507.6</ele>
        <time>2014-07-31T06:34:53Z</time>
      </trkpt>
      <trkpt lat="43.0405530" lon="-8.0227650">
        <ele>507.6</ele>
        <time>2014-07-31T06:35:24Z</time>
      </trkpt>
      <trkpt lat="43.0405500" lon="-8.0227710">
        <ele>507.6</ele>
        <time>2014-07-31T06:36:00Z</time>
      </trkpt>
      <trkpt lat="43.0405450" lon="-8.0227740">
        <ele>507.5</ele>
        <time>2014-07-31T06:36:42Z</time>
      </trkpt>
      <trkpt lat="43.0405280" lon="-8.0227660">
        <ele>507.5</ele>
        <time>2014-07-31T06:37:15Z</time>
      </trkpt>
      <trkpt lat="43.0405280" lon="-8.0227660">
        <ele>507.5</ele>
        <time>2014-07-31T06:37:52Z</time>
      </trkpt>
      <trkpt lat="43.0405220" lon="-8.0227640">
        <ele>507.5</ele>
        <time>2014-07-31T06:38:32Z</time>
      </trkpt>
      <trkpt lat="43.0405060" lon="-8.0227790">
        <ele>507.4</ele>
        <time>2014-07-31T06:39:02Z</time>
      </trkpt>
      <trkpt lat="43.0404870" lon="-8.0228090">
        <ele>507.4</ele>
        <time>2014-07-31T06:39:04Z</time>
      </trkpt>
      <trkpt lat="43.0404780" lon="-8.0228390">
        <ele>507.3</ele>
        <time>2014-07-31T06:39:17Z</time>
      </trkpt>
      <trkpt lat="43.0404780" lon="-8.0228390">
        <ele>507.3</ele>
        <time>2014-07-31T06:39:43Z</time>
      </trkpt>
      <trkpt lat="43.0404870" lon="-8.0228440">
        <ele>507.3</ele>
        <time>2014-07-31T06:40:09Z</time>
      </trkpt>
      <trkpt lat="43.0404920" lon="-8.0228440">
        <ele>507.3</ele>
        <time>2014-07-31T06:40:32Z</time>
      </trkpt>
      <trkpt lat="43.0404880" lon="-8.0228510">
        <ele>507.3</ele>
        <time>2014-07-31T06:41:00Z</time>
      </trkpt>
      <trkpt lat="43.0404800" lon="-8.0228550">
        <ele>507.2</ele>
        <time>2014-07-31T06:41:11Z</time>
      </trkpt>
      <trkpt lat="43.0404800" lon="-8.0228550">
        <ele>507.2</ele>
        <time>2014-07-31T06:41:38Z</time>
      </trkpt>
      <trkpt lat="43.0404840" lon="-8.0228770">
        <ele>507.2</ele>
        <time>2014-07-31T06:42:10Z</time>
      </trkpt>
      <trkpt lat="43.0404800" lon="-8.0228730">
        <ele>507.2</ele>
        <time>2014-07-31T06:42:48Z</time>
      </trkpt>
      <trkpt lat="43.0404760" lon="-8.0228650">
        <ele>507.2</ele>
        <time>2014-07-31T06:43:26Z</time>
      </trkpt>
      <trkpt lat="43.0404720" lon="-8.0228730">
        <ele>507.1</ele>
        <time>2014-07-31T06:44:03Z</time>
      </trkpt>
      <trkpt lat="43.0404930" lon="-8.0228390">
        <ele>507.0</ele>
        <time>2014-07-31T06:44:31Z</time>
      </trkpt>
      <trkpt lat="43.0404890" lon="-8.0228390">
        <ele>507.0</ele>
        <time>2014-07-31T06:44:39Z</time>
      </trkpt>
      <trkpt lat="43.0404850" lon="-8.0228610">
        <ele>507.0</ele>
        <time>2014-07-31T06:44:53Z</time>
      </trkpt>
      <trkpt lat="43.0404610" lon="-8.0229860">
        <ele>506.7</ele>
        <time>2014-07-31T06:44:58Z</time>
      </trkpt>
      <trkpt lat="43.0403620" lon="-8.0234550">
        <ele>505.3</ele>
        <time>2014-07-31T06:45:10Z</time>
      </trkpt>
      <trkpt lat="43.0402470" lon="-8.0241090">
        <ele>505.5</ele>
        <time>2014-07-31T06:45:26Z</time>
      </trkpt>
      <trkpt lat="43.0401290" lon="-8.0247470">
        <ele>505.5</ele>
        <time>2014-07-31T06:45:42Z</time>
      </trkpt>
      <trkpt lat="43.0401260" lon="-8.0252990">
        <ele>506.0</ele>
        <time>2014-07-31T06:45:57Z</time>
      </trkpt>
      <trkpt lat="43.0401740" lon="-8.0257270">
        <ele>507.4</ele>
        <time>2014-07-31T06:46:11Z</time>
      </trkpt>
      <trkpt lat="43.0402330" lon="-8.0260630">
        <ele>508.6</ele>
        <time>2014-07-31T06:46:23Z</time>
      </trkpt>
      <trkpt lat="43.0403200" lon="-8.0265520">
        <ele>510.1</ele>
        <time>2014-07-31T06:46:39Z</time>
      </trkpt>
      <trkpt lat="43.0401420" lon="-8.0270420">
        <ele>510.8</ele>
        <time>2014-07-31T06:46:53Z</time>
      </trkpt>
      <trkpt lat="43.0398880" lon="-8.0277060">
        <ele>511.5</ele>
        <time>2014-07-31T06:47:10Z</time>
      </trkpt>
      <trkpt lat="43.0395240" lon="-8.0283100">
        <ele>511.9</ele>
        <time>2014-07-31T06:47:26Z</time>
      </trkpt>
      <trkpt lat="43.0388520" lon="-8.0289370">
        <ele>513.0</ele>
        <time>2014-07-31T06:47:42Z</time>
      </trkpt>
      <trkpt lat="43.0382130" lon="-8.0293110">
        <ele>514.7</ele>
        <time>2014-07-31T06:47:57Z</time>
      </trkpt>
      <trkpt lat="43.0381710" lon="-8.0293210">
        <ele>514.8</ele>
        <time>2014-07-31T06:47:58Z</time>
      </trkpt>
      <trkpt lat="43.0381280" lon="-8.0293190">
        <ele>514.8</ele>
        <time>2014-07-31T06:47:59Z</time>
      </trkpt>
      <trkpt lat="43.0380830" lon="-8.0293080">
        <ele>514.6</ele>
        <time>2014-07-31T06:48:00Z</time>
      </trkpt>
      <trkpt lat="43.0380390" lon="-8.0292910">
        <ele>514.5</ele>
        <time>2014-07-31T06:48:01Z</time>
      </trkpt>
      <trkpt lat="43.0379970" lon="-8.0292700">
        <ele>514.4</ele>
        <time>2014-07-31T06:48:02Z</time>
      </trkpt>
      <trkpt lat="43.0379540" lon="-8.0292470">
        <ele>514.3</ele>
        <time>2014-07-31T06:48:03Z</time>
      </trkpt>
      <trkpt lat="43.0376680" lon="-8.0290920">
        <ele>513.1</ele>
        <time>2014-07-31T06:48:10Z</time>
      </trkpt>
      <trkpt lat="43.0375350" lon="-8.0290320">
        <ele>512.4</ele>
        <time>2014-07-31T06:48:13Z</time>
      </trkpt>
      <trkpt lat="43.0374880" lon="-8.0290190">
        <ele>512.1</ele>
        <time>2014-07-31T06:48:14Z</time>
      </trkpt>
      <trkpt lat="43.0374420" lon="-8.0290060">
        <ele>511.8</ele>
        <time>2014-07-31T06:48:15Z</time>
      </trkpt>
      <trkpt lat="43.0372560" lon="-8.0289210">
        <ele>510.1</ele>
        <time>2014-07-31T06:48:19Z</time>
      </trkpt>
      <trkpt lat="43.0372040" lon="-8.0288910">
        <ele>509.6</ele>
        <time>2014-07-31T06:48:20Z</time>
      </trkpt>
      <trkpt lat="43.0371460" lon="-8.0288620">
        <ele>509.0</ele>
        <time>2014-07-31T06:48:21Z</time>
      </trkpt>
      <trkpt lat="43.0370210" lon="-8.0288140">
        <ele>508.0</ele>
        <time>2014-07-31T06:48:23Z</time>
      </trkpt>
      <trkpt lat="43.0369570" lon="-8.0288010">
        <ele>507.5</ele>
        <time>2014-07-31T06:48:24Z</time>
      </trkpt>
      <trkpt lat="43.0368940" lon="-8.0287970">
        <ele>507.1</ele>
        <time>2014-07-31T06:48:25Z</time>
      </trkpt>
      <trkpt lat="43.0367250" lon="-8.0287860">
        <ele>505.7</ele>
        <time>2014-07-31T06:48:28Z</time>
      </trkpt>
      <trkpt lat="43.0366750" lon="-8.0287730">
        <ele>505.1</ele>
        <time>2014-07-31T06:48:29Z</time>
      </trkpt>
      <trkpt lat="43.0366270" lon="-8.0287470">
        <ele>504.5</ele>
        <time>2014-07-31T06:48:30Z</time>
      </trkpt>
      <trkpt lat="43.0365860" lon="-8.0286980">
        <ele>503.6</ele>
        <time>2014-07-31T06:48:31Z</time>
      </trkpt>
      <trkpt lat="43.0365510" lon="-8.0286390">
        <ele>502.6</ele>
        <time>2014-07-31T06:48:32Z</time>
      </trkpt>
      <trkpt lat="43.0365180" lon="-8.0285790">
        <ele>501.9</ele>
        <time>2014-07-31T06:48:33Z</time>
      </trkpt>
      <trkpt lat="43.0364850" lon="-8.0285210">
        <ele>501.0</ele>
        <time>2014-07-31T06:48:34Z</time>
      </trkpt>
      <trkpt lat="43.0364520" lon="-8.0284710">
        <ele>500.3</ele>
        <time>2014-07-31T06:48:35Z</time>
      </trkpt>
      <trkpt lat="43.0364210" lon="-8.0284330">
        <ele>499.7</ele>
        <time>2014-07-31T06:48:36Z</time>
      </trkpt>
      <trkpt lat="43.0363930" lon="-8.0284180">
        <ele>499.3</ele>
        <time>2014-07-31T06:48:37Z</time>
      </trkpt>
      <trkpt lat="43.0363670" lon="-8.0284260">
        <ele>498.9</ele>
        <time>2014-07-31T06:48:38Z</time>
      </trkpt>
      <trkpt lat="43.0363470" lon="-8.0284490">
        <ele>498.3</ele>
        <time>2014-07-31T06:48:39Z</time>
      </trkpt>
      <trkpt lat="43.0363280" lon="-8.0284830">
        <ele>498.2</ele>
        <time>2014-07-31T06:48:40Z</time>
      </trkpt>
      <trkpt lat="43.0363100" lon="-8.0285230">
        <ele>498.1</ele>
        <time>2014-07-31T06:48:41Z</time>
      </trkpt>
      <trkpt lat="43.0361410" lon="-8.0290370">
        <ele>496.7</ele>
        <time>2014-07-31T06:48:51Z</time>
      </trkpt>
      <trkpt lat="43.0360340" lon="-8.0292150">
        <ele>496.2</ele>
        <time>2014-07-31T06:48:54Z</time>
      </trkpt>
      <trkpt lat="43.0356230" lon="-8.0297230">
        <ele>494.5</ele>
        <time>2014-07-31T06:49:02Z</time>
      </trkpt>
      <trkpt lat="43.0349680" lon="-8.0305290">
        <ele>490.9</ele>
        <time>2014-07-31T06:49:13Z</time>
      </trkpt>
      <trkpt lat="43.0346100" lon="-8.0309240">
        <ele>489.5</ele>
        <time>2014-07-31T06:49:20Z</time>
      </trkpt>
      <trkpt lat="43.0345750" lon="-8.0309740">
        <ele>489.5</ele>
        <time>2014-07-31T06:49:21Z</time>
      </trkpt>
      <trkpt lat="43.0345110" lon="-8.0310790">
        <ele>489.2</ele>
        <time>2014-07-31T06:49:24Z</time>
      </trkpt>
      <trkpt lat="43.0344880" lon="-8.0310950">
        <ele>489.2</ele>
        <time>2014-07-31T06:49:25Z</time>
      </trkpt>
      <trkpt lat="43.0344600" lon="-8.0311090">
        <ele>489.2</ele>
        <time>2014-07-31T06:49:26Z</time>
      </trkpt>
      <trkpt lat="43.0344280" lon="-8.0311190">
        <ele>488.9</ele>
        <time>2014-07-31T06:49:27Z</time>
      </trkpt>
      <trkpt lat="43.0343890" lon="-8.0311260">
        <ele>488.7</ele>
        <time>2014-07-31T06:49:28Z</time>
      </trkpt>
      <trkpt lat="43.0342280" lon="-8.0311510">
        <ele>487.9</ele>
        <time>2014-07-31T06:49:31Z</time>
      </trkpt>
      <trkpt lat="43.0341660" lon="-8.0311790">
        <ele>487.4</ele>
        <time>2014-07-31T06:49:32Z</time>
      </trkpt>
      <trkpt lat="43.0341070" lon="-8.0312250">
        <ele>487.2</ele>
        <time>2014-07-31T06:49:33Z</time>
      </trkpt>
      <trkpt lat="43.0340490" lon="-8.0312820">
        <ele>487.0</ele>
        <time>2014-07-31T06:49:34Z</time>
      </trkpt>
      <trkpt lat="43.0339920" lon="-8.0313430">
        <ele>486.8</ele>
        <time>2014-07-31T06:49:35Z</time>
      </trkpt>
      <trkpt lat="43.0336980" lon="-8.0316340">
        <ele>485.9</ele>
        <time>2014-07-31T06:49:40Z</time>
      </trkpt>
      <trkpt lat="43.0332320" lon="-8.0322230">
        <ele>487.1</ele>
        <time>2014-07-31T06:49:51Z</time>
      </trkpt>
      <trkpt lat="43.0329810" lon="-8.0325680">
        <ele>487.9</ele>
        <time>2014-07-31T06:50:02Z</time>
      </trkpt>
      <trkpt lat="43.0326580" lon="-8.0329630">
        <ele>488.9</ele>
        <time>2014-07-31T06:50:11Z</time>
      </trkpt>
      <trkpt lat="43.0326290" lon="-8.0330120">
        <ele>489.0</ele>
        <time>2014-07-31T06:50:12Z</time>
      </trkpt>
      <trkpt lat="43.0322200" lon="-8.0338390">
        <ele>490.8</ele>
        <time>2014-07-31T06:50:28Z</time>
      </trkpt>
      <trkpt lat="43.0319710" lon="-8.0343580">
        <ele>492.5</ele>
        <time>2014-07-31T06:50:40Z</time>
      </trkpt>
      <trkpt lat="43.0318550" lon="-8.0345570">
        <ele>493.1</ele>
        <time>2014-07-31T06:50:45Z</time>
      </trkpt>
      <trkpt lat="43.0318390" lon="-8.0345940">
        <ele>493.3</ele>
        <time>2014-07-31T06:50:46Z</time>
      </trkpt>
      <trkpt lat="43.0318160" lon="-8.0346350">
        <ele>493.6</ele>
        <time>2014-07-31T06:50:47Z</time>
      </trkpt>
      <trkpt lat="43.0315340" lon="-8.0351680">
        <ele>494.5</ele>
        <time>2014-07-31T06:51:00Z</time>
      </trkpt>
      <trkpt lat="43.0312640" lon="-8.0356780">
        <ele>495.5</ele>
        <time>2014-07-31T06:51:12Z</time>
      </trkpt>
      <trkpt lat="43.0308800" lon="-8.0363820">
        <ele>495.3</ele>
        <time>2014-07-31T06:51:26Z</time>
      </trkpt>
      <trkpt lat="43.0303430" lon="-8.0374540">
        <ele>492.6</ele>
        <time>2014-07-31T06:51:45Z</time>
      </trkpt>
      <trkpt lat="43.0300830" lon="-8.0379040">
        <ele>494.6</ele>
        <time>2014-07-31T06:51:57Z</time>
      </trkpt>
      <trkpt lat="43.0297950" lon="-8.0383140">
        <ele>494.4</ele>
        <time>2014-07-31T06:52:08Z</time>
      </trkpt>
      <trkpt lat="43.0292910" lon="-8.0389250">
        <ele>492.2</ele>
        <time>2014-07-31T06:52:22Z</time>
      </trkpt>
      <trkpt lat="43.0291170" lon="-8.0391210">
        <ele>491.5</ele>
        <time>2014-07-31T06:52:28Z</time>
      </trkpt>
      <trkpt lat="43.0290870" lon="-8.0391620">
        <ele>491.4</ele>
        <time>2014-07-31T06:52:29Z</time>
      </trkpt>
      <trkpt lat="43.0290560" lon="-8.0392100">
        <ele>491.2</ele>
        <time>2014-07-31T06:52:30Z</time>
      </trkpt>
      <trkpt lat="43.0287670" lon="-8.0395960">
        <ele>489.4</ele>
        <time>2014-07-31T06:52:37Z</time>
      </trkpt>
      <trkpt lat="43.0285210" lon="-8.0399450">
        <ele>487.6</ele>
        <time>2014-07-31T06:52:43Z</time>
      </trkpt>
      <trkpt lat="43.0284860" lon="-8.0400030">
        <ele>487.4</ele>
        <time>2014-07-31T06:52:44Z</time>
      </trkpt>
      <trkpt lat="43.0282910" lon="-8.0403290">
        <ele>487.2</ele>
        <time>2014-07-31T06:52:50Z</time>
      </trkpt>
      <trkpt lat="43.0282670" lon="-8.0403810">
        <ele>487.3</ele>
        <time>2014-07-31T06:52:51Z</time>
      </trkpt>
      <trkpt lat="43.0280150" lon="-8.0408550">
        <ele>489.3</ele>
        <time>2014-07-31T06:53:02Z</time>
      </trkpt>
      <trkpt lat="43.0279010" lon="-8.0410450">
        <ele>489.7</ele>
        <time>2014-07-31T06:53:07Z</time>
      </trkpt>
      <trkpt lat="43.0278760" lon="-8.0410800">
        <ele>489.7</ele>
        <time>2014-07-31T06:53:08Z</time>
      </trkpt>
      <trkpt lat="43.0278500" lon="-8.0411210">
        <ele>489.7</ele>
        <time>2014-07-31T06:53:09Z</time>
      </trkpt>
      <trkpt lat="43.0277820" lon="-8.0412000">
        <ele>489.7</ele>
        <time>2014-07-31T06:53:11Z</time>
      </trkpt>
      <trkpt lat="43.0277430" lon="-8.0412340">
        <ele>489.7</ele>
        <time>2014-07-31T06:53:12Z</time>
      </trkpt>
      <trkpt lat="43.0277080" lon="-8.0412730">
        <ele>489.7</ele>
        <time>2014-07-31T06:53:13Z</time>
      </trkpt>
      <trkpt lat="43.0276760" lon="-8.0413130">
        <ele>489.7</ele>
        <time>2014-07-31T06:53:14Z</time>
      </trkpt>
      <trkpt lat="43.0276360" lon="-8.0413510">
        <ele>489.7</ele>
        <time>2014-07-31T06:53:15Z</time>
      </trkpt>
      <trkpt lat="43.0275960" lon="-8.0413920">
        <ele>489.7</ele>
        <time>2014-07-31T06:53:16Z</time>
      </trkpt>
      <trkpt lat="43.0275550" lon="-8.0414310">
        <ele>489.7</ele>
        <time>2014-07-31T06:53:17Z</time>
      </trkpt>
      <trkpt lat="43.0275120" lon="-8.0414720">
        <ele>489.7</ele>
        <time>2014-07-31T06:53:18Z</time>
      </trkpt>
      <trkpt lat="43.0274730" lon="-8.0415160">
        <ele>489.8</ele>
        <time>2014-07-31T06:53:19Z</time>
      </trkpt>
      <trkpt lat="43.0274010" lon="-8.0415920">
        <ele>490.0</ele>
        <time>2014-07-31T06:53:21Z</time>
      </trkpt>
      <trkpt lat="43.0273590" lon="-8.0416380">
        <ele>490.1</ele>
        <time>2014-07-31T06:53:22Z</time>
      </trkpt>
      <trkpt lat="43.0273190" lon="-8.0416820">
        <ele>490.1</ele>
        <time>2014-07-31T06:53:23Z</time>
      </trkpt>
      <trkpt lat="43.0272800" lon="-8.0417240">
        <ele>490.2</ele>
        <time>2014-07-31T06:53:24Z</time>
      </trkpt>
      <trkpt lat="43.0272480" lon="-8.0417690">
        <ele>490.3</ele>
        <time>2014-07-31T06:53:25Z</time>
      </trkpt>
      <trkpt lat="43.0272220" lon="-8.0418130">
        <ele>490.4</ele>
        <time>2014-07-31T06:53:26Z</time>
      </trkpt>
      <trkpt lat="43.0270320" lon="-8.0420890">
        <ele>490.1</ele>
        <time>2014-07-31T06:53:32Z</time>
      </trkpt>
      <trkpt lat="43.0269880" lon="-8.0421250">
        <ele>490.0</ele>
        <time>2014-07-31T06:53:33Z</time>
      </trkpt>
      <trkpt lat="43.0266810" lon="-8.0424770">
        <ele>489.9</ele>
        <time>2014-07-31T06:53:43Z</time>
      </trkpt>
      <trkpt lat="43.0266040" lon="-8.0426520">
        <ele>490.2</ele>
        <time>2014-07-31T06:53:48Z</time>
      </trkpt>
      <trkpt lat="43.0266000" lon="-8.0426850">
        <ele>490.2</ele>
        <time>2014-07-31T06:53:49Z</time>
      </trkpt>
      <trkpt lat="43.0265930" lon="-8.0427110">
        <ele>490.3</ele>
        <time>2014-07-31T06:53:50Z</time>
      </trkpt>
      <trkpt lat="43.0265820" lon="-8.0427780">
        <ele>490.5</ele>
        <time>2014-07-31T06:53:54Z</time>
      </trkpt>
      <trkpt lat="43.0264990" lon="-8.0428920">
        <ele>491.2</ele>
        <time>2014-07-31T06:53:56Z</time>
      </trkpt>
      <trkpt lat="43.0264310" lon="-8.0429540">
        <ele>492.0</ele>
        <time>2014-07-31T06:53:59Z</time>
      </trkpt>
      <trkpt lat="43.0262690" lon="-8.0431200">
        <ele>494.5</ele>
        <time>2014-07-31T06:54:10Z</time>
      </trkpt>
      <trkpt lat="43.0262190" lon="-8.0431820">
        <ele>495.4</ele>
        <time>2014-07-31T06:54:17Z</time>
      </trkpt>
      <trkpt lat="43.0262090" lon="-8.0432000">
        <ele>495.6</ele>
        <time>2014-07-31T06:54:18Z</time>
      </trkpt>
      <trkpt lat="43.0261910" lon="-8.0432150">
        <ele>495.9</ele>
        <time>2014-07-31T06:54:19Z</time>
      </trkpt>
      <trkpt lat="43.0261060" lon="-8.0433180">
        <ele>497.5</ele>
        <time>2014-07-31T06:54:26Z</time>
      </trkpt>
      <trkpt lat="43.0260920" lon="-8.0433330">
        <ele>497.7</ele>
        <time>2014-07-31T06:54:27Z</time>
      </trkpt>
      <trkpt lat="43.0260720" lon="-8.0433530">
        <ele>498.0</ele>
        <time>2014-07-31T06:54:28Z</time>
      </trkpt>
      <trkpt lat="43.0259260" lon="-8.0435260">
        <ele>499.9</ele>
        <time>2014-07-31T06:54:37Z</time>
      </trkpt>
      <trkpt lat="43.0259120" lon="-8.0435290">
        <ele>500.1</ele>
        <time>2014-07-31T06:54:38Z</time>
      </trkpt>
      <trkpt lat="43.0257870" lon="-8.0437770">
        <ele>501.6</ele>
        <time>2014-07-31T06:54:49Z</time>
      </trkpt>
      <trkpt lat="43.0256060" lon="-8.0441010">
        <ele>503.9</ele>
        <time>2014-07-31T06:55:05Z</time>
      </trkpt>
      <trkpt lat="43.0254350" lon="-8.0443690">
        <ele>505.9</ele>
        <time>2014-07-31T06:55:19Z</time>
      </trkpt>
      <trkpt lat="43.0252770" lon="-8.0446280">
        <ele>507.6</ele>
        <time>2014-07-31T06:55:33Z</time>
      </trkpt>
      <trkpt lat="43.0251440" lon="-8.0448910">
        <ele>509.2</ele>
        <time>2014-07-31T06:55:46Z</time>
      </trkpt>
      <trkpt lat="43.0251370" lon="-8.0449120">
        <ele>509.4</ele>
        <time>2014-07-31T06:55:47Z</time>
      </trkpt>
      <trkpt lat="43.0251290" lon="-8.0449290">
        <ele>509.5</ele>
        <time>2014-07-31T06:55:48Z</time>
      </trkpt>
      <trkpt lat="43.0251190" lon="-8.0449470">
        <ele>509.7</ele>
        <time>2014-07-31T06:55:49Z</time>
      </trkpt>
      <trkpt lat="43.0251070" lon="-8.0449690">
        <ele>509.8</ele>
        <time>2014-07-31T06:55:50Z</time>
      </trkpt>
      <trkpt lat="43.0250960" lon="-8.0449900">
        <ele>510.0</ele>
        <time>2014-07-31T06:55:51Z</time>
      </trkpt>
      <trkpt lat="43.0250850" lon="-8.0450150">
        <ele>510.2</ele>
        <time>2014-07-31T06:55:52Z</time>
      </trkpt>
      <trkpt lat="43.0250760" lon="-8.0450400">
        <ele>510.4</ele>
        <time>2014-07-31T06:55:53Z</time>
      </trkpt>
      <trkpt lat="43.0249960" lon="-8.0452090">
        <ele>511.9</ele>
        <time>2014-07-31T06:56:01Z</time>
      </trkpt>
      <trkpt lat="43.0249880" lon="-8.0452310">
        <ele>512.0</ele>
        <time>2014-07-31T06:56:02Z</time>
      </trkpt>
      <trkpt lat="43.0249800" lon="-8.0452540">
        <ele>512.2</ele>
        <time>2014-07-31T06:56:03Z</time>
      </trkpt>
      <trkpt lat="43.0249270" lon="-8.0453960">
        <ele>513.3</ele>
        <time>2014-07-31T06:56:10Z</time>
      </trkpt>
      <trkpt lat="43.0249220" lon="-8.0454180">
        <ele>513.6</ele>
        <time>2014-07-31T06:56:11Z</time>
      </trkpt>
      <trkpt lat="43.0249120" lon="-8.0454370">
        <ele>513.8</ele>
        <time>2014-07-31T06:56:12Z</time>
      </trkpt>
      <trkpt lat="43.0249010" lon="-8.0454530">
        <ele>514.0</ele>
        <time>2014-07-31T06:56:13Z</time>
      </trkpt>
      <trkpt lat="43.0248920" lon="-8.0454710">
        <ele>514.2</ele>
        <time>2014-07-31T06:56:14Z</time>
      </trkpt>
      <trkpt lat="43.0247840" lon="-8.0457440">
        <ele>516.5</ele>
        <time>2014-07-31T06:56:29Z</time>
      </trkpt>
      <trkpt lat="43.0246960" lon="-8.0459910">
        <ele>518.8</ele>
        <time>2014-07-31T06:56:43Z</time>
      </trkpt>
      <trkpt lat="43.0246890" lon="-8.0460100">
        <ele>519.1</ele>
        <time>2014-07-31T06:56:44Z</time>
      </trkpt>
      <trkpt lat="43.0246850" lon="-8.0460270">
        <ele>519.2</ele>
        <time>2014-07-31T06:56:45Z</time>
      </trkpt>
      <trkpt lat="43.0246790" lon="-8.0460440">
        <ele>519.4</ele>
        <time>2014-07-31T06:56:46Z</time>
      </trkpt>
      <trkpt lat="43.0246750" lon="-8.0460590">
        <ele>519.6</ele>
        <time>2014-07-31T06:56:47Z</time>
      </trkpt>
      <trkpt lat="43.0246690" lon="-8.0460770">
        <ele>519.8</ele>
        <time>2014-07-31T06:56:48Z</time>
      </trkpt>
      <trkpt lat="43.0246590" lon="-8.0460950">
        <ele>520.0</ele>
        <time>2014-07-31T06:56:49Z</time>
      </trkpt>
      <trkpt lat="43.0246480" lon="-8.0461090">
        <ele>520.3</ele>
        <time>2014-07-31T06:56:50Z</time>
      </trkpt>
      <trkpt lat="43.0246130" lon="-8.0461920">
        <ele>521.2</ele>
        <time>2014-07-31T06:56:55Z</time>
      </trkpt>
      <trkpt lat="43.0246050" lon="-8.0462070">
        <ele>521.4</ele>
        <time>2014-07-31T06:56:56Z</time>
      </trkpt>
      <trkpt lat="43.0244990" lon="-8.0464730">
        <ele>524.5</ele>
        <time>2014-07-31T06:57:11Z</time>
      </trkpt>
      <trkpt lat="43.0244920" lon="-8.0464880">
        <ele>524.7</ele>
        <time>2014-07-31T06:57:12Z</time>
      </trkpt>
      <trkpt lat="43.0244890" lon="-8.0465030">
        <ele>524.9</ele>
        <time>2014-07-31T06:57:13Z</time>
      </trkpt>
      <trkpt lat="43.0244860" lon="-8.0465230">
        <ele>525.1</ele>
        <time>2014-07-31T06:57:14Z</time>
      </trkpt>
      <trkpt lat="43.0244840" lon="-8.0465420">
        <ele>525.2</ele>
        <time>2014-07-31T06:57:15Z</time>
      </trkpt>
      <trkpt lat="43.0244780" lon="-8.0465600">
        <ele>525.4</ele>
        <time>2014-07-31T06:57:16Z</time>
      </trkpt>
      <trkpt lat="43.0244690" lon="-8.0465770">
        <ele>525.6</ele>
        <time>2014-07-31T06:57:17Z</time>
      </trkpt>
      <trkpt lat="43.0244600" lon="-8.0465930">
        <ele>525.8</ele>
        <time>2014-07-31T06:57:18Z</time>
      </trkpt>
      <trkpt lat="43.0244510" lon="-8.0466090">
        <ele>526.0</ele>
        <time>2014-07-31T06:57:19Z</time>
      </trkpt>
      <trkpt lat="43.0244450" lon="-8.0466230">
        <ele>526.2</ele>
        <time>2014-07-31T06:57:20Z</time>
      </trkpt>
      <trkpt lat="43.0244380" lon="-8.0466360">
        <ele>526.3</ele>
        <time>2014-07-31T06:57:21Z</time>
      </trkpt>
      <trkpt lat="43.0244300" lon="-8.0466510">
        <ele>526.5</ele>
        <time>2014-07-31T06:57:22Z</time>
      </trkpt>
      <trkpt lat="43.0244190" lon="-8.0466670">
        <ele>526.7</ele>
        <time>2014-07-31T06:57:23Z</time>
      </trkpt>
      <trkpt lat="43.0244080" lon="-8.0466820">
        <ele>526.9</ele>
        <time>2014-07-31T06:57:24Z</time>
      </trkpt>
      <trkpt lat="43.0244030" lon="-8.0467030">
        <ele>527.1</ele>
        <time>2014-07-31T06:57:25Z</time>
      </trkpt>
      <trkpt lat="43.0244010" lon="-8.0467260">
        <ele>527.3</ele>
        <time>2014-07-31T06:57:26Z</time>
      </trkpt>
      <trkpt lat="43.0244020" lon="-8.0467530">
        <ele>527.6</ele>
        <time>2014-07-31T06:57:27Z</time>
      </trkpt>
      <trkpt lat="43.0244030" lon="-8.0467770">
        <ele>527.8</ele>
        <time>2014-07-31T06:57:28Z</time>
      </trkpt>
      <trkpt lat="43.0244000" lon="-8.0468530">
        <ele>528.6</ele>
        <time>2014-07-31T06:57:32Z</time>
      </trkpt>
      <trkpt lat="43.0244020" lon="-8.0468680">
        <ele>528.8</ele>
        <time>2014-07-31T06:57:33Z</time>
      </trkpt>
      <trkpt lat="43.0243980" lon="-8.0469230">
        <ele>529.3</ele>
        <time>2014-07-31T06:57:36Z</time>
      </trkpt>
      <trkpt lat="43.0244000" lon="-8.0469410">
        <ele>529.5</ele>
        <time>2014-07-31T06:57:37Z</time>
      </trkpt>
      <trkpt lat="43.0244000" lon="-8.0469590">
        <ele>529.7</ele>
        <time>2014-07-31T06:57:38Z</time>
      </trkpt>
      <trkpt lat="43.0243980" lon="-8.0469800">
        <ele>529.8</ele>
        <time>2014-07-31T06:57:39Z</time>
      </trkpt>
      <trkpt lat="43.0243960" lon="-8.0469990">
        <ele>530.0</ele>
        <time>2014-07-31T06:57:40Z</time>
      </trkpt>
      <trkpt lat="43.0243950" lon="-8.0470180">
        <ele>530.1</ele>
        <time>2014-07-31T06:57:41Z</time>
      </trkpt>
      <trkpt lat="43.0243960" lon="-8.0470350">
        <ele>530.3</ele>
        <time>2014-07-31T06:57:42Z</time>
      </trkpt>
      <trkpt lat="43.0243960" lon="-8.0470510">
        <ele>530.4</ele>
        <time>2014-07-31T06:57:43Z</time>
      </trkpt>
      <trkpt lat="43.0243930" lon="-8.0470690">
        <ele>530.6</ele>
        <time>2014-07-31T06:57:44Z</time>
      </trkpt>
      <trkpt lat="43.0243880" lon="-8.0470880">
        <ele>530.7</ele>
        <time>2014-07-31T06:57:45Z</time>
      </trkpt>
      <trkpt lat="43.0243820" lon="-8.0471110">
        <ele>530.9</ele>
        <time>2014-07-31T06:57:46Z</time>
      </trkpt>
      <trkpt lat="43.0243750" lon="-8.0471320">
        <ele>531.2</ele>
        <time>2014-07-31T06:57:47Z</time>
      </trkpt>
      <trkpt lat="43.0243660" lon="-8.0471500">
        <ele>531.3</ele>
        <time>2014-07-31T06:57:48Z</time>
      </trkpt>
      <trkpt lat="43.0243620" lon="-8.0471700">
        <ele>531.5</ele>
        <time>2014-07-31T06:57:49Z</time>
      </trkpt>
      <trkpt lat="43.0243580" lon="-8.0471870">
        <ele>531.7</ele>
        <time>2014-07-31T06:57:50Z</time>
      </trkpt>
      <trkpt lat="43.0243560" lon="-8.0472030">
        <ele>531.8</ele>
        <time>2014-07-31T06:57:51Z</time>
      </trkpt>
      <trkpt lat="43.0243540" lon="-8.0472230">
        <ele>532.0</ele>
        <time>2014-07-31T06:57:52Z</time>
      </trkpt>
      <trkpt lat="43.0243600" lon="-8.0473900">
        <ele>533.6</ele>
        <time>2014-07-31T06:58:02Z</time>
      </trkpt>
      <trkpt lat="43.0243590" lon="-8.0474070">
        <ele>533.8</ele>
        <time>2014-07-31T06:58:03Z</time>
      </trkpt>
      <trkpt lat="43.0243550" lon="-8.0474200">
        <ele>534.0</ele>
        <time>2014-07-31T06:58:04Z</time>
      </trkpt>
      <trkpt lat="43.0243520" lon="-8.0474360">
        <ele>534.2</ele>
        <time>2014-07-31T06:58:05Z</time>
      </trkpt>
      <trkpt lat="43.0243490" lon="-8.0474540">
        <ele>534.4</ele>
        <time>2014-07-31T06:58:06Z</time>
      </trkpt>
      <trkpt lat="43.0243500" lon="-8.0474710">
        <ele>534.6</ele>
        <time>2014-07-31T06:58:07Z</time>
      </trkpt>
      <trkpt lat="43.0243520" lon="-8.0474890">
        <ele>534.8</ele>
        <time>2014-07-31T06:58:08Z</time>
      </trkpt>
      <trkpt lat="43.0243490" lon="-8.0475080">
        <ele>535.0</ele>
        <time>2014-07-31T06:58:09Z</time>
      </trkpt>
      <trkpt lat="43.0243450" lon="-8.0475260">
        <ele>535.1</ele>
        <time>2014-07-31T06:58:10Z</time>
      </trkpt>
      <trkpt lat="43.0243450" lon="-8.0475430">
        <ele>535.3</ele>
        <time>2014-07-31T06:58:11Z</time>
      </trkpt>
      <trkpt lat="43.0243470" lon="-8.0475590">
        <ele>535.5</ele>
        <time>2014-07-31T06:58:12Z</time>
      </trkpt>
      <trkpt lat="43.0243480" lon="-8.0475740">
        <ele>535.6</ele>
        <time>2014-07-31T06:58:13Z</time>
      </trkpt>
      <trkpt lat="43.0243480" lon="-8.0475900">
        <ele>535.8</ele>
        <time>2014-07-31T06:58:14Z</time>
      </trkpt>
      <trkpt lat="43.0243460" lon="-8.0476060">
        <ele>535.9</ele>
        <time>2014-07-31T06:58:15Z</time>
      </trkpt>
      <trkpt lat="43.0243410" lon="-8.0476230">
        <ele>536.1</ele>
        <time>2014-07-31T06:58:16Z</time>
      </trkpt>
      <trkpt lat="43.0243390" lon="-8.0476390">
        <ele>536.3</ele>
        <time>2014-07-31T06:58:17Z</time>
      </trkpt>
      <trkpt lat="43.0243370" lon="-8.0476550">
        <ele>536.4</ele>
        <time>2014-07-31T06:58:18Z</time>
      </trkpt>
      <trkpt lat="43.0243360" lon="-8.0476730">
        <ele>536.6</ele>
        <time>2014-07-31T06:58:19Z</time>
      </trkpt>
      <trkpt lat="43.0243390" lon="-8.0476910">
        <ele>536.7</ele>
        <time>2014-07-31T06:58:20Z</time>
      </trkpt>
      <trkpt lat="43.0243410" lon="-8.0477100">
        <ele>536.9</ele>
        <time>2014-07-31T06:58:21Z</time>
      </trkpt>
      <trkpt lat="43.0243460" lon="-8.0477870">
        <ele>537.5</ele>
        <time>2014-07-31T06:58:25Z</time>
      </trkpt>
      <trkpt lat="43.0243480" lon="-8.0478040">
        <ele>537.6</ele>
        <time>2014-07-31T06:58:26Z</time>
      </trkpt>
      <trkpt lat="43.0243490" lon="-8.0478200">
        <ele>537.8</ele>
        <time>2014-07-31T06:58:27Z</time>
      </trkpt>
      <trkpt lat="43.0243500" lon="-8.0478370">
        <ele>537.9</ele>
        <time>2014-07-31T06:58:28Z</time>
      </trkpt>
      <trkpt lat="43.0243490" lon="-8.0478550">
        <ele>538.1</ele>
        <time>2014-07-31T06:58:29Z</time>
      </trkpt>
      <trkpt lat="43.0243480" lon="-8.0478740">
        <ele>538.3</ele>
        <time>2014-07-31T06:58:30Z</time>
      </trkpt>
      <trkpt lat="43.0243450" lon="-8.0478940">
        <ele>538.4</ele>
        <time>2014-07-31T06:58:31Z</time>
      </trkpt>
      <trkpt lat="43.0243470" lon="-8.0479150">
        <ele>538.6</ele>
        <time>2014-07-31T06:58:32Z</time>
      </trkpt>
      <trkpt lat="43.0243530" lon="-8.0479340">
        <ele>538.7</ele>
        <time>2014-07-31T06:58:33Z</time>
      </trkpt>
      <trkpt lat="43.0243540" lon="-8.0479550">
        <ele>538.9</ele>
        <time>2014-07-31T06:58:34Z</time>
      </trkpt>
      <trkpt lat="43.0243530" lon="-8.0479770">
        <ele>539.0</ele>
        <time>2014-07-31T06:58:35Z</time>
      </trkpt>
      <trkpt lat="43.0243510" lon="-8.0480000">
        <ele>539.2</ele>
        <time>2014-07-31T06:58:36Z</time>
      </trkpt>
      <trkpt lat="43.0243500" lon="-8.0480230">
        <ele>539.4</ele>
        <time>2014-07-31T06:58:37Z</time>
      </trkpt>
      <trkpt lat="43.0242610" lon="-8.0484310">
        <ele>541.5</ele>
        <time>2014-07-31T06:58:53Z</time>
      </trkpt>
      <trkpt lat="43.0239930" lon="-8.0490090">
        <ele>542.4</ele>
        <time>2014-07-31T06:59:08Z</time>
      </trkpt>
      <trkpt lat="43.0239660" lon="-8.0490490">
        <ele>542.5</ele>
        <time>2014-07-31T06:59:09Z</time>
      </trkpt>
      <trkpt lat="43.0235470" lon="-8.0495790">
        <ele>543.5</ele>
        <time>2014-07-31T06:59:22Z</time>
      </trkpt>
      <trkpt lat="43.0235150" lon="-8.0496240">
        <ele>543.5</ele>
        <time>2014-07-31T06:59:23Z</time>
      </trkpt>
      <trkpt lat="43.0234470" lon="-8.0497050">
        <ele>543.2</ele>
        <time>2014-07-31T06:59:25Z</time>
      </trkpt>
      <trkpt lat="43.0234150" lon="-8.0497470">
        <ele>543.0</ele>
        <time>2014-07-31T06:59:26Z</time>
      </trkpt>
      <trkpt lat="43.0233190" lon="-8.0498690">
        <ele>542.2</ele>
        <time>2014-07-31T06:59:29Z</time>
      </trkpt>
      <trkpt lat="43.0228780" lon="-8.0504570">
        <ele>540.3</ele>
        <time>2014-07-31T06:59:44Z</time>
      </trkpt>
      <trkpt lat="43.0226540" lon="-8.0506930">
        <ele>541.3</ele>
        <time>2014-07-31T06:59:56Z</time>
      </trkpt>
      <trkpt lat="43.0224770" lon="-8.0508910">
        <ele>543.6</ele>
        <time>2014-07-31T07:00:09Z</time>
      </trkpt>
      <trkpt lat="43.0223720" lon="-8.0510720">
        <ele>545.2</ele>
        <time>2014-07-31T07:00:19Z</time>
      </trkpt>
      <trkpt lat="43.0222410" lon="-8.0513110">
        <ele>547.6</ele>
        <time>2014-07-31T07:00:32Z</time>
      </trkpt>
      <trkpt lat="43.0220940" lon="-8.0516070">
        <ele>550.1</ele>
        <time>2014-07-31T07:00:48Z</time>
      </trkpt>
      <trkpt lat="43.0218780" lon="-8.0519770">
        <ele>553.0</ele>
        <time>2014-07-31T07:01:05Z</time>
      </trkpt>
      <trkpt lat="43.0215720" lon="-8.0524920">
        <ele>557.2</ele>
        <time>2014-07-31T07:01:21Z</time>
      </trkpt>
      <trkpt lat="43.0213130" lon="-8.0530660">
        <ele>558.9</ele>
        <time>2014-07-31T07:01:34Z</time>
      </trkpt>
      <trkpt lat="43.0212110" lon="-8.0532580">
        <ele>558.7</ele>
        <time>2014-07-31T07:01:38Z</time>
      </trkpt>
      <trkpt lat="43.0211520" lon="-8.0533380">
        <ele>558.6</ele>
        <time>2014-07-31T07:01:40Z</time>
      </trkpt>
      <trkpt lat="43.0210120" lon="-8.0535610">
        <ele>558.0</ele>
        <time>2014-07-31T07:01:45Z</time>
      </trkpt>
      <trkpt lat="43.0208460" lon="-8.0538560">
        <ele>555.9</ele>
        <time>2014-07-31T07:01:52Z</time>
      </trkpt>
      <trkpt lat="43.0206430" lon="-8.0541440">
        <ele>552.3</ele>
        <time>2014-07-31T07:02:02Z</time>
      </trkpt>
      <trkpt lat="43.0204380" lon="-8.0544200">
        <ele>549.7</ele>
        <time>2014-07-31T07:02:12Z</time>
      </trkpt>
      <trkpt lat="43.0203760" lon="-8.0545830">
        <ele>549.1</ele>
        <time>2014-07-31T07:02:16Z</time>
      </trkpt>
      <trkpt lat="43.0203610" lon="-8.0546440">
        <ele>548.8</ele>
        <time>2014-07-31T07:02:17Z</time>
      </trkpt>
      <trkpt lat="43.0203460" lon="-8.0547180">
        <ele>548.5</ele>
        <time>2014-07-31T07:02:18Z</time>
      </trkpt>
      <trkpt lat="43.0203340" lon="-8.0547980">
        <ele>548.2</ele>
        <time>2014-07-31T07:02:19Z</time>
      </trkpt>
      <trkpt lat="43.0203220" lon="-8.0548790">
        <ele>547.9</ele>
        <time>2014-07-31T07:02:20Z</time>
      </trkpt>
      <trkpt lat="43.0203110" lon="-8.0549630">
        <ele>547.6</ele>
        <time>2014-07-31T07:02:21Z</time>
      </trkpt>
      <trkpt lat="43.0202560" lon="-8.0553990">
        <ele>546.0</ele>
        <time>2014-07-31T07:02:27Z</time>
      </trkpt>
      <trkpt lat="43.0202210" lon="-8.0556780">
        <ele>544.8</ele>
        <time>2014-07-31T07:02:33Z</time>
      </trkpt>
      <trkpt lat="43.0201980" lon="-8.0557090">
        <ele>544.6</ele>
        <time>2014-07-31T07:02:34Z</time>
      </trkpt>
      <trkpt lat="43.0201750" lon="-8.0557410">
        <ele>544.3</ele>
        <time>2014-07-31T07:02:35Z</time>
      </trkpt>
      <trkpt lat="43.0199340" lon="-8.0561510">
        <ele>543.3</ele>
        <time>2014-07-31T07:02:46Z</time>
      </trkpt>
      <trkpt lat="43.0197690" lon="-8.0563360">
        <ele>542.9</ele>
        <time>2014-07-31T07:02:51Z</time>
      </trkpt>
      <trkpt lat="43.0197330" lon="-8.0563760">
        <ele>542.8</ele>
        <time>2014-07-31T07:02:52Z</time>
      </trkpt>
      <trkpt lat="43.0196970" lon="-8.0564130">
        <ele>542.6</ele>
        <time>2014-07-31T07:02:53Z</time>
      </trkpt>
      <trkpt lat="43.0195310" lon="-8.0566400">
        <ele>541.4</ele>
        <time>2014-07-31T07:02:58Z</time>
      </trkpt>
      <trkpt lat="43.0195040" lon="-8.0566890">
        <ele>541.2</ele>
        <time>2014-07-31T07:02:59Z</time>
      </trkpt>
      <trkpt lat="43.0194770" lon="-8.0567290">
        <ele>541.1</ele>
        <time>2014-07-31T07:03:00Z</time>
      </trkpt>
      <trkpt lat="43.0194490" lon="-8.0567610">
        <ele>540.9</ele>
        <time>2014-07-31T07:03:01Z</time>
      </trkpt>
      <trkpt lat="43.0194230" lon="-8.0567860">
        <ele>540.8</ele>
        <time>2014-07-31T07:03:02Z</time>
      </trkpt>
      <trkpt lat="43.0194000" lon="-8.0568030">
        <ele>540.8</ele>
        <time>2014-07-31T07:03:03Z</time>
      </trkpt>
      <trkpt lat="43.0193920" lon="-8.0568110">
        <ele>540.8</ele>
        <time>2014-07-31T07:03:15Z</time>
      </trkpt>
      <trkpt lat="43.0193880" lon="-8.0568280">
        <ele>540.8</ele>
        <time>2014-07-31T07:03:22Z</time>
      </trkpt>
      <trkpt lat="43.0193840" lon="-8.0568530">
        <ele>540.9</ele>
        <time>2014-07-31T07:03:23Z</time>
      </trkpt>
      <trkpt lat="43.0191480" lon="-8.0571680">
        <ele>541.4</ele>
        <time>2014-07-31T07:03:33Z</time>
      </trkpt>
      <trkpt lat="43.0186650" lon="-8.0577770">
        <ele>541.8</ele>
        <time>2014-07-31T07:03:46Z</time>
      </trkpt>
      <trkpt lat="43.0181120" lon="-8.0584720">
        <ele>543.1</ele>
        <time>2014-07-31T07:04:00Z</time>
      </trkpt>
      <trkpt lat="43.0177540" lon="-8.0589090">
        <ele>545.1</ele>
        <time>2014-07-31T07:04:10Z</time>
      </trkpt>
      <trkpt lat="43.0177500" lon="-8.0589440">
        <ele>545.1</ele>
        <time>2014-07-31T07:04:11Z</time>
      </trkpt>
      <trkpt lat="43.0177590" lon="-8.0589700">
        <ele>545.1</ele>
        <time>2014-07-31T07:04:12Z</time>
      </trkpt>
      <trkpt lat="43.0177720" lon="-8.0589870">
        <ele>545.1</ele>
        <time>2014-07-31T07:04:13Z</time>
      </trkpt>
      <trkpt lat="43.0177840" lon="-8.0590080">
        <ele>545.1</ele>
        <time>2014-07-31T07:04:14Z</time>
      </trkpt>
      <trkpt lat="43.0177930" lon="-8.0590360">
        <ele>545.1</ele>
        <time>2014-07-31T07:04:15Z</time>
      </trkpt>
      <trkpt lat="43.0177970" lon="-8.0590670">
        <ele>545.1</ele>
        <time>2014-07-31T07:04:16Z</time>
      </trkpt>
      <trkpt lat="43.0177970" lon="-8.0591020">
        <ele>545.1</ele>
        <time>2014-07-31T07:04:17Z</time>
      </trkpt>
      <trkpt lat="43.0177240" lon="-8.0594700">
        <ele>545.3</ele>
        <time>2014-07-31T07:04:26Z</time>
      </trkpt>
      <trkpt lat="43.0175870" lon="-8.0598020">
        <ele>545.8</ele>
        <time>2014-07-31T07:04:35Z</time>
      </trkpt>
      <trkpt lat="43.0175510" lon="-8.0599010">
        <ele>546.0</ele>
        <time>2014-07-31T07:04:38Z</time>
      </trkpt>
      <trkpt lat="43.0175520" lon="-8.0599570">
        <ele>546.1</ele>
        <time>2014-07-31T07:04:39Z</time>
      </trkpt>
      <trkpt lat="43.0175480" lon="-8.0600010">
        <ele>546.2</ele>
        <time>2014-07-31T07:04:40Z</time>
      </trkpt>
      <trkpt lat="43.0174590" lon="-8.0604610">
        <ele>547.8</ele>
        <time>2014-07-31T07:04:52Z</time>
      </trkpt>
      <trkpt lat="43.0173080" lon="-8.0610720">
        <ele>547.1</ele>
        <time>2014-07-31T07:05:08Z</time>
      </trkpt>
      <trkpt lat="43.0174630" lon="-8.0615030">
        <ele>548.6</ele>
        <time>2014-07-31T07:05:23Z</time>
      </trkpt>
      <trkpt lat="43.0176210" lon="-8.0618890">
        <ele>549.9</ele>
        <time>2014-07-31T07:05:36Z</time>
      </trkpt>
      <trkpt lat="43.0176380" lon="-8.0619150">
        <ele>549.9</ele>
        <time>2014-07-31T07:05:37Z</time>
      </trkpt>
      <trkpt lat="43.0176550" lon="-8.0619400">
        <ele>550.0</ele>
        <time>2014-07-31T07:05:38Z</time>
      </trkpt>
      <trkpt lat="43.0179160" lon="-8.0622790">
        <ele>551.0</ele>
        <time>2014-07-31T07:05:51Z</time>
      </trkpt>
      <trkpt lat="43.0181180" lon="-8.0627880">
        <ele>551.9</ele>
        <time>2014-07-31T07:06:05Z</time>
      </trkpt>
      <trkpt lat="43.0181970" lon="-8.0634420">
        <ele>552.2</ele>
        <time>2014-07-31T07:06:21Z</time>
      </trkpt>
      <trkpt lat="43.0183700" lon="-8.0639150">
        <ele>552.4</ele>
        <time>2014-07-31T07:06:33Z</time>
      </trkpt>
      <trkpt lat="43.0184580" lon="-8.0641650">
        <ele>552.0</ele>
        <time>2014-07-31T07:06:39Z</time>
      </trkpt>
      <trkpt lat="43.0184610" lon="-8.0642260">
        <ele>551.8</ele>
        <time>2014-07-31T07:06:40Z</time>
      </trkpt>
      <trkpt lat="43.0184520" lon="-8.0642920">
        <ele>551.5</ele>
        <time>2014-07-31T07:06:41Z</time>
      </trkpt>
      <trkpt lat="43.0184240" lon="-8.0643570">
        <ele>551.2</ele>
        <time>2014-07-31T07:06:42Z</time>
      </trkpt>
      <trkpt lat="43.0183800" lon="-8.0644200">
        <ele>550.8</ele>
        <time>2014-07-31T07:06:43Z</time>
      </trkpt>
      <trkpt lat="43.0183260" lon="-8.0644810">
        <ele>550.3</ele>
        <time>2014-07-31T07:06:44Z</time>
      </trkpt>
      <trkpt lat="43.0182640" lon="-8.0645410">
        <ele>549.7</ele>
        <time>2014-07-31T07:06:45Z</time>
      </trkpt>
      <trkpt lat="43.0181370" lon="-8.0646670">
        <ele>548.6</ele>
        <time>2014-07-31T07:06:47Z</time>
      </trkpt>
      <trkpt lat="43.0180910" lon="-8.0647410">
        <ele>547.9</ele>
        <time>2014-07-31T07:06:48Z</time>
      </trkpt>
      <trkpt lat="43.0180650" lon="-8.0648310">
        <ele>547.4</ele>
        <time>2014-07-31T07:06:49Z</time>
      </trkpt>
      <trkpt lat="43.0180590" lon="-8.0649320">
        <ele>546.7</ele>
        <time>2014-07-31T07:06:50Z</time>
      </trkpt>
      <trkpt lat="43.0180590" lon="-8.0650350">
        <ele>545.9</ele>
        <time>2014-07-31T07:06:51Z</time>
      </trkpt>
      <trkpt lat="43.0180690" lon="-8.0653160">
        <ele>544.0</ele>
        <time>2014-07-31T07:06:54Z</time>
      </trkpt>
      <trkpt lat="43.0180880" lon="-8.0653990">
        <ele>544.2</ele>
        <time>2014-07-31T07:06:55Z</time>
      </trkpt>
      <trkpt lat="43.0181160" lon="-8.0654760">
        <ele>544.5</ele>
        <time>2014-07-31T07:06:56Z</time>
      </trkpt>
      <trkpt lat="43.0183110" lon="-8.0661250">
        <ele>544.9</ele>
        <time>2014-07-31T07:07:04Z</time>
      </trkpt>
      <trkpt lat="43.0183640" lon="-8.0664250">
        <ele>546.0</ele>
        <time>2014-07-31T07:07:08Z</time>
      </trkpt>
      <trkpt lat="43.0183720" lon="-8.0664800">
        <ele>546.3</ele>
        <time>2014-07-31T07:07:09Z</time>
      </trkpt>
      <trkpt lat="43.0183770" lon="-8.0665310">
        <ele>546.6</ele>
        <time>2014-07-31T07:07:10Z</time>
      </trkpt>
      <trkpt lat="43.0183810" lon="-8.0665750">
        <ele>547.0</ele>
        <time>2014-07-31T07:07:11Z</time>
      </trkpt>
      <trkpt lat="43.0183870" lon="-8.0666180">
        <ele>547.4</ele>
        <time>2014-07-31T07:07:12Z</time>
      </trkpt>
      <trkpt lat="43.0183730" lon="-8.0669090">
        <ele>550.6</ele>
        <time>2014-07-31T07:07:22Z</time>
      </trkpt>
      <trkpt lat="43.0183770" lon="-8.0669280">
        <ele>550.8</ele>
        <time>2014-07-31T07:07:23Z</time>
      </trkpt>
      <trkpt lat="43.0183830" lon="-8.0669440">
        <ele>551.0</ele>
        <time>2014-07-31T07:07:24Z</time>
      </trkpt>
      <trkpt lat="43.0183880" lon="-8.0669610">
        <ele>551.2</ele>
        <time>2014-07-31T07:07:25Z</time>
      </trkpt>
      <trkpt lat="43.0183950" lon="-8.0669770">
        <ele>551.4</ele>
        <time>2014-07-31T07:07:26Z</time>
      </trkpt>
      <trkpt lat="43.0184020" lon="-8.0669950">
        <ele>551.6</ele>
        <time>2014-07-31T07:07:27Z</time>
      </trkpt>
      <trkpt lat="43.0184060" lon="-8.0670160">
        <ele>551.8</ele>
        <time>2014-07-31T07:07:28Z</time>
      </trkpt>
      <trkpt lat="43.0184090" lon="-8.0670390">
        <ele>552.0</ele>
        <time>2014-07-31T07:07:29Z</time>
      </trkpt>
      <trkpt lat="43.0184090" lon="-8.0670620">
        <ele>552.1</ele>
        <time>2014-07-31T07:07:30Z</time>
      </trkpt>
      <trkpt lat="43.0184040" lon="-8.0670840">
        <ele>552.3</ele>
        <time>2014-07-31T07:07:31Z</time>
      </trkpt>
      <trkpt lat="43.0184010" lon="-8.0671070">
        <ele>552.5</ele>
        <time>2014-07-31T07:07:32Z</time>
      </trkpt>
      <trkpt lat="43.0184000" lon="-8.0671310">
        <ele>552.7</ele>
        <time>2014-07-31T07:07:33Z</time>
      </trkpt>
      <trkpt lat="43.0183970" lon="-8.0671530">
        <ele>552.8</ele>
        <time>2014-07-31T07:07:34Z</time>
      </trkpt>
      <trkpt lat="43.0183960" lon="-8.0673090">
        <ele>554.0</ele>
        <time>2014-07-31T07:07:41Z</time>
      </trkpt>
      <trkpt lat="43.0183950" lon="-8.0673320">
        <ele>554.1</ele>
        <time>2014-07-31T07:07:42Z</time>
      </trkpt>
      <trkpt lat="43.0183950" lon="-8.0673560">
        <ele>554.2</ele>
        <time>2014-07-31T07:07:43Z</time>
      </trkpt>
      <trkpt lat="43.0183940" lon="-8.0673790">
        <ele>554.3</ele>
        <time>2014-07-31T07:07:44Z</time>
      </trkpt>
      <trkpt lat="43.0183930" lon="-8.0674040">
        <ele>554.4</ele>
        <time>2014-07-31T07:07:45Z</time>
      </trkpt>
      <trkpt lat="43.0183920" lon="-8.0674280">
        <ele>554.6</ele>
        <time>2014-07-31T07:07:46Z</time>
      </trkpt>
      <trkpt lat="43.0183860" lon="-8.0678180">
        <ele>556.1</ele>
        <time>2014-07-31T07:08:01Z</time>
      </trkpt>
      <trkpt lat="43.0183410" lon="-8.0682570">
        <ele>556.2</ele>
        <time>2014-07-31T07:08:13Z</time>
      </trkpt>
      <trkpt lat="43.0183190" lon="-8.0686750">
        <ele>556.3</ele>
        <time>2014-07-31T07:08:22Z</time>
      </trkpt>
      <trkpt lat="43.0182330" lon="-8.0692830">
        <ele>555.0</ele>
        <time>2014-07-31T07:08:34Z</time>
      </trkpt>
      <trkpt lat="43.0182240" lon="-8.0693380">
        <ele>554.7</ele>
        <time>2014-07-31T07:08:35Z</time>
      </trkpt>
      <trkpt lat="43.0182160" lon="-8.0693970">
        <ele>554.5</ele>
        <time>2014-07-31T07:08:36Z</time>
      </trkpt>
      <trkpt lat="43.0181680" lon="-8.0698240">
        <ele>553.0</ele>
        <time>2014-07-31T07:08:42Z</time>
      </trkpt>
      <trkpt lat="43.0181600" lon="-8.0699000">
        <ele>552.8</ele>
        <time>2014-07-31T07:08:43Z</time>
      </trkpt>
      <trkpt lat="43.0179320" lon="-8.0709190">
        <ele>549.4</ele>
        <time>2014-07-31T07:08:55Z</time>
      </trkpt>
      <trkpt lat="43.0177830" lon="-8.0712920">
        <ele>547.3</ele>
        <time>2014-07-31T07:09:00Z</time>
      </trkpt>
      <trkpt lat="43.0177300" lon="-8.0713500">
        <ele>546.8</ele>
        <time>2014-07-31T07:09:01Z</time>
      </trkpt>
      <trkpt lat="43.0176720" lon="-8.0714010">
        <ele>546.3</ele>
        <time>2014-07-31T07:09:02Z</time>
      </trkpt>
      <trkpt lat="43.0172490" lon="-8.0717180">
        <ele>541.9</ele>
        <time>2014-07-31T07:09:08Z</time>
      </trkpt>
      <trkpt lat="43.0171840" lon="-8.0717750">
        <ele>541.3</ele>
        <time>2014-07-31T07:09:09Z</time>
      </trkpt>
      <trkpt lat="43.0170170" lon="-8.0719440">
        <ele>539.2</ele>
        <time>2014-07-31T07:09:12Z</time>
      </trkpt>
      <trkpt lat="43.0169660" lon="-8.0720010">
        <ele>538.4</ele>
        <time>2014-07-31T07:09:13Z</time>
      </trkpt>
      <trkpt lat="43.0169130" lon="-8.0720540">
        <ele>537.6</ele>
        <time>2014-07-31T07:09:14Z</time>
      </trkpt>
      <trkpt lat="43.0167620" lon="-8.0721790">
        <ele>535.7</ele>
        <time>2014-07-31T07:09:17Z</time>
      </trkpt>
      <trkpt lat="43.0167110" lon="-8.0722350">
        <ele>535.2</ele>
        <time>2014-07-31T07:09:18Z</time>
      </trkpt>
      <trkpt lat="43.0166650" lon="-8.0723040">
        <ele>534.6</ele>
        <time>2014-07-31T07:09:19Z</time>
      </trkpt>
      <trkpt lat="43.0166270" lon="-8.0723830">
        <ele>534.1</ele>
        <time>2014-07-31T07:09:20Z</time>
      </trkpt>
      <trkpt lat="43.0165960" lon="-8.0724680">
        <ele>533.5</ele>
        <time>2014-07-31T07:09:21Z</time>
      </trkpt>
      <trkpt lat="43.0165740" lon="-8.0725540">
        <ele>533.0</ele>
        <time>2014-07-31T07:09:22Z</time>
      </trkpt>
      <trkpt lat="43.0165590" lon="-8.0726320">
        <ele>532.6</ele>
        <time>2014-07-31T07:09:23Z</time>
      </trkpt>
      <trkpt lat="43.0165480" lon="-8.0727100">
        <ele>532.2</ele>
        <time>2014-07-31T07:09:24Z</time>
      </trkpt>
      <trkpt lat="43.0164500" lon="-8.0732820">
        <ele>529.8</ele>
        <time>2014-07-31T07:09:31Z</time>
      </trkpt>
      <trkpt lat="43.0164360" lon="-8.0733620">
        <ele>529.4</ele>
        <time>2014-07-31T07:09:32Z</time>
      </trkpt>
      <trkpt lat="43.0163360" lon="-8.0740360">
        <ele>526.0</ele>
        <time>2014-07-31T07:09:40Z</time>
      </trkpt>
      <trkpt lat="43.0163030" lon="-8.0742080">
        <ele>525.2</ele>
        <time>2014-07-31T07:09:42Z</time>
      </trkpt>
      <trkpt lat="43.0162560" lon="-8.0744630">
        <ele>524.0</ele>
        <time>2014-07-31T07:09:45Z</time>
      </trkpt>
      <trkpt lat="43.0162490" lon="-8.0745510">
        <ele>523.5</ele>
        <time>2014-07-31T07:09:46Z</time>
      </trkpt>
      <trkpt lat="43.0162230" lon="-8.0747280">
        <ele>522.5</ele>
        <time>2014-07-31T07:09:48Z</time>
      </trkpt>
      <trkpt lat="43.0161530" lon="-8.0751270">
        <ele>519.8</ele>
        <time>2014-07-31T07:09:53Z</time>
      </trkpt>
      <trkpt lat="43.0161500" lon="-8.0752060">
        <ele>519.1</ele>
        <time>2014-07-31T07:09:54Z</time>
      </trkpt>
      <trkpt lat="43.0161540" lon="-8.0752940">
        <ele>518.4</ele>
        <time>2014-07-31T07:09:55Z</time>
      </trkpt>
      <trkpt lat="43.0161680" lon="-8.0753890">
        <ele>517.5</ele>
        <time>2014-07-31T07:09:56Z</time>
      </trkpt>
      <trkpt lat="43.0161890" lon="-8.0754790">
        <ele>516.7</ele>
        <time>2014-07-31T07:09:57Z</time>
      </trkpt>
      <trkpt lat="43.0162120" lon="-8.0755580">
        <ele>516.1</ele>
        <time>2014-07-31T07:09:58Z</time>
      </trkpt>
      <trkpt lat="43.0162360" lon="-8.0756300">
        <ele>515.6</ele>
        <time>2014-07-31T07:09:59Z</time>
      </trkpt>
      <trkpt lat="43.0162620" lon="-8.0756980">
        <ele>515.0</ele>
        <time>2014-07-31T07:10:00Z</time>
      </trkpt>
      <trkpt lat="43.0162780" lon="-8.0757730">
        <ele>514.5</ele>
        <time>2014-07-31T07:10:01Z</time>
      </trkpt>
      <trkpt lat="43.0163010" lon="-8.0759510">
        <ele>513.3</ele>
        <time>2014-07-31T07:10:03Z</time>
      </trkpt>
      <trkpt lat="43.0163130" lon="-8.0761400">
        <ele>511.9</ele>
        <time>2014-07-31T07:10:05Z</time>
      </trkpt>
      <trkpt lat="43.0163100" lon="-8.0762210">
        <ele>511.4</ele>
        <time>2014-07-31T07:10:06Z</time>
      </trkpt>
      <trkpt lat="43.0163010" lon="-8.0762910">
        <ele>510.9</ele>
        <time>2014-07-31T07:10:07Z</time>
      </trkpt>
      <trkpt lat="43.0162910" lon="-8.0763510">
        <ele>510.5</ele>
        <time>2014-07-31T07:10:08Z</time>
      </trkpt>
      <trkpt lat="43.0162580" lon="-8.0764940">
        <ele>509.6</ele>
        <time>2014-07-31T07:10:11Z</time>
      </trkpt>
      <trkpt lat="43.0162470" lon="-8.0767220">
        <ele>508.4</ele>
        <time>2014-07-31T07:10:15Z</time>
      </trkpt>
      <trkpt lat="43.0162510" lon="-8.0767930">
        <ele>507.9</ele>
        <time>2014-07-31T07:10:16Z</time>
      </trkpt>
      <trkpt lat="43.0162560" lon="-8.0768650">
        <ele>507.5</ele>
        <time>2014-07-31T07:10:17Z</time>
      </trkpt>
      <trkpt lat="43.0162670" lon="-8.0769350">
        <ele>507.2</ele>
        <time>2014-07-31T07:10:18Z</time>
      </trkpt>
      <trkpt lat="43.0162840" lon="-8.0769960">
        <ele>506.9</ele>
        <time>2014-07-31T07:10:19Z</time>
      </trkpt>
      <trkpt lat="43.0163100" lon="-8.0770470">
        <ele>506.3</ele>
        <time>2014-07-31T07:10:20Z</time>
      </trkpt>
      <trkpt lat="43.0163490" lon="-8.0770810">
        <ele>506.2</ele>
        <time>2014-07-31T07:10:21Z</time>
      </trkpt>
      <trkpt lat="43.0163950" lon="-8.0771060">
        <ele>506.2</ele>
        <time>2014-07-31T07:10:22Z</time>
      </trkpt>
      <trkpt lat="43.0166230" lon="-8.0772540">
        <ele>506.2</ele>
        <time>2014-07-31T07:10:27Z</time>
      </trkpt>
      <trkpt lat="43.0167420" lon="-8.0773670">
        <ele>506.2</ele>
        <time>2014-07-31T07:10:30Z</time>
      </trkpt>
      <trkpt lat="43.0167830" lon="-8.0774120">
        <ele>506.2</ele>
        <time>2014-07-31T07:10:31Z</time>
      </trkpt>
      <trkpt lat="43.0168160" lon="-8.0774650">
        <ele>506.2</ele>
        <time>2014-07-31T07:10:32Z</time>
      </trkpt>
      <trkpt lat="43.0168460" lon="-8.0775250">
        <ele>506.2</ele>
        <time>2014-07-31T07:10:33Z</time>
      </trkpt>
      <trkpt lat="43.0168670" lon="-8.0775980">
        <ele>506.1</ele>
        <time>2014-07-31T07:10:34Z</time>
      </trkpt>
      <trkpt lat="43.0168810" lon="-8.0776770">
        <ele>506.1</ele>
        <time>2014-07-31T07:10:35Z</time>
      </trkpt>
      <trkpt lat="43.0168900" lon="-8.0777600">
        <ele>506.1</ele>
        <time>2014-07-31T07:10:36Z</time>
      </trkpt>
      <trkpt lat="43.0168600" lon="-8.0788730">
        <ele>505.6</ele>
        <time>2014-07-31T07:10:49Z</time>
      </trkpt>
      <trkpt lat="43.0168420" lon="-8.0789480">
        <ele>505.6</ele>
        <time>2014-07-31T07:10:50Z</time>
      </trkpt>
      <trkpt lat="43.0167780" lon="-8.0791530">
        <ele>505.5</ele>
        <time>2014-07-31T07:10:53Z</time>
      </trkpt>
      <trkpt lat="43.0167490" lon="-8.0792010">
        <ele>505.5</ele>
        <time>2014-07-31T07:10:54Z</time>
      </trkpt>
      <trkpt lat="43.0167100" lon="-8.0792310">
        <ele>505.1</ele>
        <time>2014-07-31T07:10:55Z</time>
      </trkpt>
      <trkpt lat="43.0166660" lon="-8.0792460">
        <ele>504.7</ele>
        <time>2014-07-31T07:10:56Z</time>
      </trkpt>
      <trkpt lat="43.0166190" lon="-8.0792540">
        <ele>504.4</ele>
        <time>2014-07-31T07:10:57Z</time>
      </trkpt>
      <trkpt lat="43.0165750" lon="-8.0792630">
        <ele>504.0</ele>
        <time>2014-07-31T07:10:58Z</time>
      </trkpt>
      <trkpt lat="43.0165310" lon="-8.0792810">
        <ele>503.6</ele>
        <time>2014-07-31T07:10:59Z</time>
      </trkpt>
      <trkpt lat="43.0163970" lon="-8.0793470">
        <ele>502.5</ele>
        <time>2014-07-31T07:11:02Z</time>
      </trkpt>
      <trkpt lat="43.0163480" lon="-8.0793610">
        <ele>502.1</ele>
        <time>2014-07-31T07:11:03Z</time>
      </trkpt>
      <trkpt lat="43.0161930" lon="-8.0794230">
        <ele>500.7</ele>
        <time>2014-07-31T07:11:06Z</time>
      </trkpt>
      <trkpt lat="43.0161490" lon="-8.0794540">
        <ele>500.0</ele>
        <time>2014-07-31T07:11:07Z</time>
      </trkpt>
      <trkpt lat="43.0161120" lon="-8.0794880">
        <ele>499.4</ele>
        <time>2014-07-31T07:11:08Z</time>
      </trkpt>
      <trkpt lat="43.0160830" lon="-8.0795270">
        <ele>498.9</ele>
        <time>2014-07-31T07:11:09Z</time>
      </trkpt>
      <trkpt lat="43.0160570" lon="-8.0795640">
        <ele>498.5</ele>
        <time>2014-07-31T07:11:10Z</time>
      </trkpt>
      <trkpt lat="43.0160330" lon="-8.0795910">
        <ele>498.2</ele>
        <time>2014-07-31T07:11:11Z</time>
      </trkpt>
      <trkpt lat="43.0160120" lon="-8.0796150">
        <ele>497.9</ele>
        <time>2014-07-31T07:11:12Z</time>
      </trkpt>
      <trkpt lat="43.0159970" lon="-8.0796440">
        <ele>497.6</ele>
        <time>2014-07-31T07:11:13Z</time>
      </trkpt>
      <trkpt lat="43.0159820" lon="-8.0796780">
        <ele>497.2</ele>
        <time>2014-07-31T07:11:14Z</time>
      </trkpt>
      <trkpt lat="43.0159690" lon="-8.0797230">
        <ele>497.0</ele>
        <time>2014-07-31T07:11:15Z</time>
      </trkpt>
      <trkpt lat="43.0159630" lon="-8.0797730">
        <ele>496.8</ele>
        <time>2014-07-31T07:11:16Z</time>
      </trkpt>
      <trkpt lat="43.0159620" lon="-8.0798240">
        <ele>496.6</ele>
        <time>2014-07-31T07:11:17Z</time>
      </trkpt>
      <trkpt lat="43.0159550" lon="-8.0800220">
        <ele>495.8</ele>
        <time>2014-07-31T07:11:21Z</time>
      </trkpt>
      <trkpt lat="43.0160080" lon="-8.0802830">
        <ele>495.0</ele>
        <time>2014-07-31T07:11:26Z</time>
      </trkpt>
      <trkpt lat="43.0160620" lon="-8.0803820">
        <ele>494.7</ele>
        <time>2014-07-31T07:11:28Z</time>
      </trkpt>
      <trkpt lat="43.0161860" lon="-8.0806080">
        <ele>493.9</ele>
        <time>2014-07-31T07:11:32Z</time>
      </trkpt>
      <trkpt lat="43.0162170" lon="-8.0806720">
        <ele>493.7</ele>
        <time>2014-07-31T07:11:33Z</time>
      </trkpt>
      <trkpt lat="43.0162450" lon="-8.0807360">
        <ele>493.5</ele>
        <time>2014-07-31T07:11:34Z</time>
      </trkpt>
      <trkpt lat="43.0163770" lon="-8.0812530">
        <ele>491.8</ele>
        <time>2014-07-31T07:11:41Z</time>
      </trkpt>
      <trkpt lat="43.0164690" lon="-8.0819430">
        <ele>490.7</ele>
        <time>2014-07-31T07:11:50Z</time>
      </trkpt>
      <trkpt lat="43.0164860" lon="-8.0821900">
        <ele>490.6</ele>
        <time>2014-07-31T07:11:53Z</time>
      </trkpt>
      <trkpt lat="43.0164620" lon="-8.0826120">
        <ele>490.7</ele>
        <time>2014-07-31T07:12:01Z</time>
      </trkpt>
      <trkpt lat="43.0164060" lon="-8.0828830">
        <ele>491.3</ele>
        <time>2014-07-31T07:12:12Z</time>
      </trkpt>
      <trkpt lat="43.0163950" lon="-8.0830350">
        <ele>491.6</ele>
        <time>2014-07-31T07:12:19Z</time>
      </trkpt>
      <trkpt lat="43.0163950" lon="-8.0830580">
        <ele>491.7</ele>
        <time>2014-07-31T07:12:20Z</time>
      </trkpt>
      <trkpt lat="43.0163970" lon="-8.0830810">
        <ele>491.7</ele>
        <time>2014-07-31T07:12:21Z</time>
      </trkpt>
      <trkpt lat="43.0163980" lon="-8.0831050">
        <ele>491.8</ele>
        <time>2014-07-31T07:12:22Z</time>
      </trkpt>
      <trkpt lat="43.0164000" lon="-8.0831320">
        <ele>491.8</ele>
        <time>2014-07-31T07:12:23Z</time>
      </trkpt>
      <trkpt lat="43.0163920" lon="-8.0831610">
        <ele>491.9</ele>
        <time>2014-07-31T07:12:24Z</time>
      </trkpt>
      <trkpt lat="43.0163850" lon="-8.0831980">
        <ele>492.0</ele>
        <time>2014-07-31T07:12:25Z</time>
      </trkpt>
      <trkpt lat="43.0163790" lon="-8.0832400">
        <ele>492.1</ele>
        <time>2014-07-31T07:12:26Z</time>
      </trkpt>
      <trkpt lat="43.0163730" lon="-8.0832810">
        <ele>492.2</ele>
        <time>2014-07-31T07:12:27Z</time>
      </trkpt>
      <trkpt lat="43.0163540" lon="-8.0837990">
        <ele>493.8</ele>
        <time>2014-07-31T07:12:38Z</time>
      </trkpt>
      <trkpt lat="43.0164100" lon="-8.0840590">
        <ele>494.8</ele>
        <time>2014-07-31T07:12:46Z</time>
      </trkpt>
      <trkpt lat="43.0164050" lon="-8.0840840">
        <ele>494.9</ele>
        <time>2014-07-31T07:12:47Z</time>
      </trkpt>
      <trkpt lat="43.0163990" lon="-8.0841150">
        <ele>495.1</ele>
        <time>2014-07-31T07:12:48Z</time>
      </trkpt>
      <trkpt lat="43.0163960" lon="-8.0841480">
        <ele>495.2</ele>
        <time>2014-07-31T07:12:49Z</time>
      </trkpt>
      <trkpt lat="43.0163950" lon="-8.0841780">
        <ele>495.4</ele>
        <time>2014-07-31T07:12:50Z</time>
      </trkpt>
      <trkpt lat="43.0163950" lon="-8.0842090">
        <ele>495.5</ele>
        <time>2014-07-31T07:12:51Z</time>
      </trkpt>
      <trkpt lat="43.0163930" lon="-8.0842350">
        <ele>495.6</ele>
        <time>2014-07-31T07:12:52Z</time>
      </trkpt>
      <trkpt lat="43.0163890" lon="-8.0842640">
        <ele>495.8</ele>
        <time>2014-07-31T07:12:53Z</time>
      </trkpt>
      <trkpt lat="43.0163900" lon="-8.0842990">
        <ele>495.9</ele>
        <time>2014-07-31T07:12:54Z</time>
      </trkpt>
      <trkpt lat="43.0163570" lon="-8.0847320">
        <ele>494.7</ele>
        <time>2014-07-31T07:13:06Z</time>
      </trkpt>
      <trkpt lat="43.0163370" lon="-8.0850790">
        <ele>492.4</ele>
        <time>2014-07-31T07:13:13Z</time>
      </trkpt>
      <trkpt lat="43.0163330" lon="-8.0851410">
        <ele>492.0</ele>
        <time>2014-07-31T07:13:14Z</time>
      </trkpt>
      <trkpt lat="43.0163300" lon="-8.0852140">
        <ele>491.5</ele>
        <time>2014-07-31T07:13:15Z</time>
      </trkpt>
      <trkpt lat="43.0163200" lon="-8.0855430">
        <ele>489.3</ele>
        <time>2014-07-31T07:13:19Z</time>
      </trkpt>
      <trkpt lat="43.0163250" lon="-8.0856290">
        <ele>488.6</ele>
        <time>2014-07-31T07:13:20Z</time>
      </trkpt>
      <trkpt lat="43.0163350" lon="-8.0857180">
        <ele>487.9</ele>
        <time>2014-07-31T07:13:21Z</time>
      </trkpt>
      <trkpt lat="43.0163490" lon="-8.0858000">
        <ele>487.3</ele>
        <time>2014-07-31T07:13:22Z</time>
      </trkpt>
      <trkpt lat="43.0163660" lon="-8.0858750">
        <ele>486.7</ele>
        <time>2014-07-31T07:13:23Z</time>
      </trkpt>
      <trkpt lat="43.0163890" lon="-8.0859440">
        <ele>486.2</ele>
        <time>2014-07-31T07:13:24Z</time>
      </trkpt>
      <trkpt lat="43.0164120" lon="-8.0860160">
        <ele>485.5</ele>
        <time>2014-07-31T07:13:25Z</time>
      </trkpt>
      <trkpt lat="43.0164340" lon="-8.0860920">
        <ele>484.8</ele>
        <time>2014-07-31T07:13:26Z</time>
      </trkpt>
      <trkpt lat="43.0165210" lon="-8.0863950">
        <ele>482.4</ele>
        <time>2014-07-31T07:13:30Z</time>
      </trkpt>
      <trkpt lat="43.0165630" lon="-8.0865480">
        <ele>481.4</ele>
        <time>2014-07-31T07:13:32Z</time>
      </trkpt>
      <trkpt lat="43.0166100" lon="-8.0866970">
        <ele>480.6</ele>
        <time>2014-07-31T07:13:34Z</time>
      </trkpt>
      <trkpt lat="43.0166270" lon="-8.0867770">
        <ele>480.3</ele>
        <time>2014-07-31T07:13:35Z</time>
      </trkpt>
      <trkpt lat="43.0166400" lon="-8.0868600">
        <ele>480.0</ele>
        <time>2014-07-31T07:13:36Z</time>
      </trkpt>
      <trkpt lat="43.0167030" lon="-8.0874930">
        <ele>478.0</ele>
        <time>2014-07-31T07:13:42Z</time>
      </trkpt>
      <trkpt lat="43.0167210" lon="-8.0878630">
        <ele>475.1</ele>
        <time>2014-07-31T07:13:45Z</time>
      </trkpt>
      <trkpt lat="43.0167720" lon="-8.0883830">
        <ele>470.0</ele>
        <time>2014-07-31T07:13:49Z</time>
      </trkpt>
      <trkpt lat="43.0167870" lon="-8.0885200">
        <ele>468.8</ele>
        <time>2014-07-31T07:13:50Z</time>
      </trkpt>
      <trkpt lat="43.0168290" lon="-8.0889110">
        <ele>466.1</ele>
        <time>2014-07-31T07:13:53Z</time>
      </trkpt>
      <trkpt lat="43.0169550" lon="-8.0902470">
        <ele>465.7</ele>
        <time>2014-07-31T07:14:05Z</time>
      </trkpt>
      <trkpt lat="43.0169570" lon="-8.0903280">
        <ele>466.0</ele>
        <time>2014-07-31T07:14:06Z</time>
      </trkpt>
      <trkpt lat="43.0169440" lon="-8.0903990">
        <ele>466.3</ele>
        <time>2014-07-31T07:14:07Z</time>
      </trkpt>
      <trkpt lat="43.0169200" lon="-8.0904530">
        <ele>466.6</ele>
        <time>2014-07-31T07:14:08Z</time>
      </trkpt>
      <trkpt lat="43.0168850" lon="-8.0904880">
        <ele>466.8</ele>
        <time>2014-07-31T07:14:09Z</time>
      </trkpt>
      <trkpt lat="43.0168480" lon="-8.0905070">
        <ele>466.8</ele>
        <time>2014-07-31T07:14:10Z</time>
      </trkpt>
      <trkpt lat="43.0168090" lon="-8.0905150">
        <ele>466.8</ele>
        <time>2014-07-31T07:14:11Z</time>
      </trkpt>
      <trkpt lat="43.0167650" lon="-8.0905260">
        <ele>466.7</ele>
        <time>2014-07-31T07:14:12Z</time>
      </trkpt>
      <trkpt lat="43.0167240" lon="-8.0905370">
        <ele>466.6</ele>
        <time>2014-07-31T07:14:13Z</time>
      </trkpt>
      <trkpt lat="43.0166850" lon="-8.0905470">
        <ele>466.5</ele>
        <time>2014-07-31T07:14:14Z</time>
      </trkpt>
      <trkpt lat="43.0166430" lon="-8.0905610">
        <ele>466.4</ele>
        <time>2014-07-31T07:14:15Z</time>
      </trkpt>
      <trkpt lat="43.0165870" lon="-8.0905670">
        <ele>466.1</ele>
        <time>2014-07-31T07:14:16Z</time>
      </trkpt>
      <trkpt lat="43.0159600" lon="-8.0906740">
        <ele>465.1</ele>
        <time>2014-07-31T07:14:26Z</time>
      </trkpt>
      <trkpt lat="43.0154150" lon="-8.0907900">
        <ele>464.8</ele>
        <time>2014-07-31T07:14:36Z</time>
      </trkpt>
      <trkpt lat="43.0153610" lon="-8.0908030">
        <ele>464.7</ele>
        <time>2014-07-31T07:14:37Z</time>
      </trkpt>
      <trkpt lat="43.0150230" lon="-8.0908600">
        <ele>464.8</ele>
        <time>2014-07-31T07:14:44Z</time>
      </trkpt>
      <trkpt lat="43.0149720" lon="-8.0908690">
        <ele>464.9</ele>
        <time>2014-07-31T07:14:45Z</time>
      </trkpt>
      <trkpt lat="43.0146360" lon="-8.0909360">
        <ele>465.7</ele>
        <time>2014-07-31T07:14:52Z</time>
      </trkpt>
      <trkpt lat="43.0145870" lon="-8.0909430">
        <ele>465.9</ele>
        <time>2014-07-31T07:14:53Z</time>
      </trkpt>
      <trkpt lat="43.0140650" lon="-8.0911300">
        <ele>467.1</ele>
        <time>2014-07-31T07:15:05Z</time>
      </trkpt>
      <trkpt lat="43.0140510" lon="-8.0911730">
        <ele>467.0</ele>
        <time>2014-07-31T07:15:06Z</time>
      </trkpt>
      <trkpt lat="43.0140530" lon="-8.0912230">
        <ele>466.9</ele>
        <time>2014-07-31T07:15:07Z</time>
      </trkpt>
      <trkpt lat="43.0140600" lon="-8.0912770">
        <ele>466.8</ele>
        <time>2014-07-31T07:15:08Z</time>
      </trkpt>
      <trkpt lat="43.0141750" lon="-8.0923360">
        <ele>465.0</ele>
        <time>2014-07-31T07:15:23Z</time>
      </trkpt>
      <trkpt lat="43.0143330" lon="-8.0936840">
        <ele>466.0</ele>
        <time>2014-07-31T07:15:39Z</time>
      </trkpt>
      <trkpt lat="43.0144980" lon="-8.0950040">
        <ele>464.8</ele>
        <time>2014-07-31T07:15:55Z</time>
      </trkpt>
      <trkpt lat="43.0147380" lon="-8.0970140">
        <ele>462.5</ele>
        <time>2014-07-31T07:16:17Z</time>
      </trkpt>
      <trkpt lat="43.0149160" lon="-8.0985120">
        <ele>462.1</ele>
        <time>2014-07-31T07:16:34Z</time>
      </trkpt>
      <trkpt lat="43.0150030" lon="-8.0992700">
        <ele>464.4</ele>
        <time>2014-07-31T07:16:45Z</time>
      </trkpt>
      <trkpt lat="43.0150970" lon="-8.1001230">
        <ele>465.4</ele>
        <time>2014-07-31T07:16:57Z</time>
      </trkpt>
      <trkpt lat="43.0151010" lon="-8.1002010">
        <ele>465.5</ele>
        <time>2014-07-31T07:16:58Z</time>
      </trkpt>
      <trkpt lat="43.0152350" lon="-8.1012310">
        <ele>465.8</ele>
        <time>2014-07-31T07:17:15Z</time>
      </trkpt>
      <trkpt lat="43.0152910" lon="-8.1017710">
        <ele>465.7</ele>
        <time>2014-07-31T07:17:28Z</time>
      </trkpt>
      <trkpt lat="43.0153880" lon="-8.1025430">
        <ele>465.3</ele>
        <time>2014-07-31T07:17:42Z</time>
      </trkpt>
      <trkpt lat="43.0154820" lon="-8.1033510">
        <ele>464.7</ele>
        <time>2014-07-31T07:17:51Z</time>
      </trkpt>
      <trkpt lat="43.0156030" lon="-8.1046580">
        <ele>464.2</ele>
        <time>2014-07-31T07:18:05Z</time>
      </trkpt>
      <trkpt lat="43.0156000" lon="-8.1054500">
        <ele>466.7</ele>
        <time>2014-07-31T07:18:18Z</time>
      </trkpt>
      <trkpt lat="43.0156250" lon="-8.1055460">
        <ele>467.1</ele>
        <time>2014-07-31T07:18:28Z</time>
      </trkpt>
      <trkpt lat="43.0155660" lon="-8.1059550">
        <ele>467.9</ele>
        <time>2014-07-31T07:18:38Z</time>
      </trkpt>
      <trkpt lat="43.0155930" lon="-8.1062430">
        <ele>468.1</ele>
        <time>2014-07-31T07:18:43Z</time>
      </trkpt>
      <trkpt lat="43.0158430" lon="-8.1068640">
        <ele>467.5</ele>
        <time>2014-07-31T07:18:54Z</time>
      </trkpt>
      <trkpt lat="43.0158760" lon="-8.1069130">
        <ele>467.4</ele>
        <time>2014-07-31T07:18:55Z</time>
      </trkpt>
      <trkpt lat="43.0161810" lon="-8.1078890">
        <ele>467.2</ele>
        <time>2014-07-31T07:19:10Z</time>
      </trkpt>
      <trkpt lat="43.0162100" lon="-8.1086290">
        <ele>467.3</ele>
        <time>2014-07-31T07:19:21Z</time>
      </trkpt>
      <trkpt lat="43.0162600" lon="-8.1095040">
        <ele>469.3</ele>
        <time>2014-07-31T07:19:36Z</time>
      </trkpt>
      <trkpt lat="43.0162950" lon="-8.1104540">
        <ele>471.1</ele>
        <time>2014-07-31T07:19:50Z</time>
      </trkpt>
      <trkpt lat="43.0163760" lon="-8.1116890">
        <ele>471.2</ele>
        <time>2014-07-31T07:20:07Z</time>
      </trkpt>
      <trkpt lat="43.0164120" lon="-8.1125140">
        <ele>472.1</ele>
        <time>2014-07-31T07:20:19Z</time>
      </trkpt>
      <trkpt lat="43.0164670" lon="-8.1139130">
        <ele>467.6</ele>
        <time>2014-07-31T07:20:38Z</time>
      </trkpt>
      <trkpt lat="43.0165440" lon="-8.1151520">
        <ele>467.9</ele>
        <time>2014-07-31T07:20:52Z</time>
      </trkpt>
      <trkpt lat="43.0166030" lon="-8.1161020">
        <ele>470.6</ele>
        <time>2014-07-31T07:21:06Z</time>
      </trkpt>
      <trkpt lat="43.0166880" lon="-8.1173710">
        <ele>471.9</ele>
        <time>2014-07-31T07:21:25Z</time>
      </trkpt>
      <trkpt lat="43.0167200" lon="-8.1178680">
        <ele>473.2</ele>
        <time>2014-07-31T07:21:33Z</time>
      </trkpt>
      <trkpt lat="43.0167140" lon="-8.1179270">
        <ele>473.3</ele>
        <time>2014-07-31T07:21:34Z</time>
      </trkpt>
      <trkpt lat="43.0167060" lon="-8.1179900">
        <ele>473.4</ele>
        <time>2014-07-31T07:21:35Z</time>
      </trkpt>
      <trkpt lat="43.0166940" lon="-8.1180540">
        <ele>473.6</ele>
        <time>2014-07-31T07:21:36Z</time>
      </trkpt>
      <trkpt lat="43.0166770" lon="-8.1181170">
        <ele>473.8</ele>
        <time>2014-07-31T07:21:37Z</time>
      </trkpt>
      <trkpt lat="43.0166510" lon="-8.1181700">
        <ele>474.0</ele>
        <time>2014-07-31T07:21:38Z</time>
      </trkpt>
      <trkpt lat="43.0166190" lon="-8.1182150">
        <ele>474.2</ele>
        <time>2014-07-31T07:21:39Z</time>
      </trkpt>
      <trkpt lat="43.0165840" lon="-8.1182550">
        <ele>474.5</ele>
        <time>2014-07-31T07:21:40Z</time>
      </trkpt>
      <trkpt lat="43.0165460" lon="-8.1182910">
        <ele>474.8</ele>
        <time>2014-07-31T07:21:41Z</time>
      </trkpt>
      <trkpt lat="43.0165080" lon="-8.1183200">
        <ele>475.1</ele>
        <time>2014-07-31T07:21:42Z</time>
      </trkpt>
      <trkpt lat="43.0160560" lon="-8.1186860">
        <ele>478.2</ele>
        <time>2014-07-31T07:21:55Z</time>
      </trkpt>
      <trkpt lat="43.0156620" lon="-8.1190490">
        <ele>479.0</ele>
        <time>2014-07-31T07:22:08Z</time>
      </trkpt>
      <trkpt lat="43.0155840" lon="-8.1191850">
        <ele>478.9</ele>
        <time>2014-07-31T07:22:11Z</time>
      </trkpt>
      <trkpt lat="43.0153680" lon="-8.1195980">
        <ele>477.7</ele>
        <time>2014-07-31T07:22:18Z</time>
      </trkpt>
      <trkpt lat="43.0147890" lon="-8.1208930">
        <ele>475.5</ele>
        <time>2014-07-31T07:22:36Z</time>
      </trkpt>
      <trkpt lat="43.0140570" lon="-8.1222280">
        <ele>475.8</ele>
        <time>2014-07-31T07:22:55Z</time>
      </trkpt>
      <trkpt lat="43.0132050" lon="-8.1235570">
        <ele>475.8</ele>
        <time>2014-07-31T07:23:16Z</time>
      </trkpt>
      <trkpt lat="43.0123280" lon="-8.1244010">
        <ele>471.4</ele>
        <time>2014-07-31T07:23:33Z</time>
      </trkpt>
      <trkpt lat="43.0113090" lon="-8.1249500">
        <ele>472.3</ele>
        <time>2014-07-31T07:23:50Z</time>
      </trkpt>
      <trkpt lat="43.0101740" lon="-8.1253910">
        <ele>475.5</ele>
        <time>2014-07-31T07:24:10Z</time>
      </trkpt>
      <trkpt lat="43.0092060" lon="-8.1258010">
        <ele>480.3</ele>
        <time>2014-07-31T07:24:32Z</time>
      </trkpt>
      <trkpt lat="43.0086640" lon="-8.1260210">
        <ele>482.9</ele>
        <time>2014-07-31T07:24:45Z</time>
      </trkpt>
      <trkpt lat="43.0084850" lon="-8.1260940">
        <ele>483.8</ele>
        <time>2014-07-31T07:24:49Z</time>
      </trkpt>
      <trkpt lat="43.0078810" lon="-8.1266370">
        <ele>486.9</ele>
        <time>2014-07-31T07:25:05Z</time>
      </trkpt>
      <trkpt lat="43.0077590" lon="-8.1267200">
        <ele>487.4</ele>
        <time>2014-07-31T07:25:08Z</time>
      </trkpt>
      <trkpt lat="43.0077250" lon="-8.1267560">
        <ele>487.6</ele>
        <time>2014-07-31T07:25:09Z</time>
      </trkpt>
      <trkpt lat="43.0075950" lon="-8.1269120">
        <ele>488.1</ele>
        <time>2014-07-31T07:25:13Z</time>
      </trkpt>
      <trkpt lat="43.0070480" lon="-8.1274300">
        <ele>489.0</ele>
        <time>2014-07-31T07:25:28Z</time>
      </trkpt>
      <trkpt lat="43.0063090" lon="-8.1281650">
        <ele>488.1</ele>
        <time>2014-07-31T07:25:44Z</time>
      </trkpt>
      <trkpt lat="43.0054910" lon="-8.1289010">
        <ele>488.2</ele>
        <time>2014-07-31T07:25:59Z</time>
      </trkpt>
      <trkpt lat="43.0046010" lon="-8.1297350">
        <ele>486.8</ele>
        <time>2014-07-31T07:26:16Z</time>
      </trkpt>
      <trkpt lat="43.0036330" lon="-8.1309110">
        <ele>483.2</ele>
        <time>2014-07-31T07:26:34Z</time>
      </trkpt>
      <trkpt lat="43.0025670" lon="-8.1322170">
        <ele>481.1</ele>
        <time>2014-07-31T07:26:55Z</time>
      </trkpt>
      <trkpt lat="43.0023380" lon="-8.1325110">
        <ele>481.5</ele>
        <time>2014-07-31T07:27:01Z</time>
      </trkpt>
      <trkpt lat="43.0023120" lon="-8.1325630">
        <ele>481.9</ele>
        <time>2014-07-31T07:27:02Z</time>
      </trkpt>
      <trkpt lat="43.0022920" lon="-8.1326170">
        <ele>482.3</ele>
        <time>2014-07-31T07:27:03Z</time>
      </trkpt>
      <trkpt lat="43.0022770" lon="-8.1326750">
        <ele>482.8</ele>
        <time>2014-07-31T07:27:04Z</time>
      </trkpt>
      <trkpt lat="43.0022650" lon="-8.1327320">
        <ele>483.4</ele>
        <time>2014-07-31T07:27:05Z</time>
      </trkpt>
      <trkpt lat="43.0021990" lon="-8.1330380">
        <ele>484.9</ele>
        <time>2014-07-31T07:27:11Z</time>
      </trkpt>
      <trkpt lat="43.0021620" lon="-8.1331410">
        <ele>485.1</ele>
        <time>2014-07-31T07:27:13Z</time>
      </trkpt>
      <trkpt lat="43.0019420" lon="-8.1334620">
        <ele>485.1</ele>
        <time>2014-07-31T07:27:20Z</time>
      </trkpt>
      <trkpt lat="43.0018960" lon="-8.1334950">
        <ele>485.0</ele>
        <time>2014-07-31T07:27:21Z</time>
      </trkpt>
      <trkpt lat="43.0010290" lon="-8.1339580">
        <ele>481.5</ele>
        <time>2014-07-31T07:27:35Z</time>
      </trkpt>
      <trkpt lat="43.0006810" lon="-8.1341310">
        <ele>478.8</ele>
        <time>2014-07-31T07:27:39Z</time>
      </trkpt>
      <trkpt lat="43.0003200" lon="-8.1343190">
        <ele>476.2</ele>
        <time>2014-07-31T07:27:43Z</time>
      </trkpt>
      <trkpt lat="42.9998750" lon="-8.1346240">
        <ele>474.1</ele>
        <time>2014-07-31T07:27:48Z</time>
      </trkpt>
      <trkpt lat="42.9994890" lon="-8.1349110">
        <ele>471.6</ele>
        <time>2014-07-31T07:27:54Z</time>
      </trkpt>
      <trkpt lat="42.9994440" lon="-8.1349290">
        <ele>471.2</ele>
        <time>2014-07-31T07:27:55Z</time>
      </trkpt>
      <trkpt lat="42.9994040" lon="-8.1349490">
        <ele>470.7</ele>
        <time>2014-07-31T07:27:56Z</time>
      </trkpt>
      <trkpt lat="42.9993680" lon="-8.1349860">
        <ele>470.5</ele>
        <time>2014-07-31T07:27:57Z</time>
      </trkpt>
      <trkpt lat="42.9993370" lon="-8.1350390">
        <ele>470.3</ele>
        <time>2014-07-31T07:27:58Z</time>
      </trkpt>
      <trkpt lat="42.9993080" lon="-8.1351000">
        <ele>470.1</ele>
        <time>2014-07-31T07:27:59Z</time>
      </trkpt>
      <trkpt lat="42.9988730" lon="-8.1360270">
        <ele>467.6</ele>
        <time>2014-07-31T07:28:12Z</time>
      </trkpt>
      <trkpt lat="42.9988340" lon="-8.1360550">
        <ele>467.6</ele>
        <time>2014-07-31T07:28:13Z</time>
      </trkpt>
      <trkpt lat="42.9987970" lon="-8.1360640">
        <ele>467.6</ele>
        <time>2014-07-31T07:28:14Z</time>
      </trkpt>
      <trkpt lat="42.9986160" lon="-8.1361050">
        <ele>468.0</ele>
        <time>2014-07-31T07:28:19Z</time>
      </trkpt>
      <trkpt lat="42.9984200" lon="-8.1361290">
        <ele>468.1</ele>
        <time>2014-07-31T07:28:25Z</time>
      </trkpt>
      <trkpt lat="42.9984010" lon="-8.1361020">
        <ele>468.1</ele>
        <time>2014-07-31T07:28:26Z</time>
      </trkpt>
      <trkpt lat="42.9983940" lon="-8.1360620">
        <ele>468.1</ele>
        <time>2014-07-31T07:28:27Z</time>
      </trkpt>
      <trkpt lat="42.9984070" lon="-8.1360320">
        <ele>468.1</ele>
        <time>2014-07-31T07:28:28Z</time>
      </trkpt>
      <trkpt lat="42.9984340" lon="-8.1360240">
        <ele>468.1</ele>
        <time>2014-07-31T07:28:29Z</time>
      </trkpt>
      <trkpt lat="42.9984620" lon="-8.1360340">
        <ele>468.1</ele>
        <time>2014-07-31T07:28:30Z</time>
      </trkpt>
      <trkpt lat="42.9984900" lon="-8.1360490">
        <ele>468.1</ele>
        <time>2014-07-31T07:28:31Z</time>
      </trkpt>
      <trkpt lat="42.9985160" lon="-8.1360580">
        <ele>468.1</ele>
        <time>2014-07-31T07:28:32Z</time>
      </trkpt>
      <trkpt lat="42.9985420" lon="-8.1360580">
        <ele>468.1</ele>
        <time>2014-07-31T07:28:33Z</time>
      </trkpt>
      <trkpt lat="42.9985720" lon="-8.1360490">
        <ele>468.1</ele>
        <time>2014-07-31T07:28:34Z</time>
      </trkpt>
      <trkpt lat="42.9986000" lon="-8.1360390">
        <ele>468.1</ele>
        <time>2014-07-31T07:28:35Z</time>
      </trkpt>
      <trkpt lat="42.9986290" lon="-8.1360320">
        <ele>468.1</ele>
        <time>2014-07-31T07:28:36Z</time>
      </trkpt>
      <trkpt lat="42.9986590" lon="-8.1360260">
        <ele>468.1</ele>
        <time>2014-07-31T07:28:37Z</time>
      </trkpt>
      <trkpt lat="42.9988050" lon="-8.1360770">
        <ele>468.1</ele>
        <time>2014-07-31T07:28:42Z</time>
      </trkpt>
      <trkpt lat="42.9988130" lon="-8.1361120">
        <ele>468.1</ele>
        <time>2014-07-31T07:28:43Z</time>
      </trkpt>
      <trkpt lat="42.9988080" lon="-8.1361550">
        <ele>468.1</ele>
        <time>2014-07-31T07:28:44Z</time>
      </trkpt>
      <trkpt lat="42.9987970" lon="-8.1361930">
        <ele>468.1</ele>
        <time>2014-07-31T07:28:45Z</time>
      </trkpt>
      <trkpt lat="42.9987950" lon="-8.1360900">
        <ele>468.1</ele>
        <time>2014-07-31T07:29:46Z</time>
      </trkpt>
      <trkpt lat="42.9986110" lon="-8.1360640">
        <ele>468.1</ele>
        <time>2014-07-31T07:29:52Z</time>
      </trkpt>
      <trkpt lat="42.9985290" lon="-8.1360880">
        <ele>468.2</ele>
        <time>2014-07-31T07:29:54Z</time>
      </trkpt>
      <trkpt lat="42.9979260" lon="-8.1362040">
        <ele>467.2</ele>
        <time>2014-07-31T07:30:06Z</time>
      </trkpt>
      <trkpt lat="42.9971480" lon="-8.1363460">
        <ele>465.8</ele>
        <time>2014-07-31T07:30:17Z</time>
      </trkpt>
      <trkpt lat="42.9969930" lon="-8.1363720">
        <ele>465.5</ele>
        <time>2014-07-31T07:30:19Z</time>
      </trkpt>
      <trkpt lat="42.9969140" lon="-8.1363840">
        <ele>465.3</ele>
        <time>2014-07-31T07:30:20Z</time>
      </trkpt>
      <trkpt lat="42.9963660" lon="-8.1364910">
        <ele>464.0</ele>
        <time>2014-07-31T07:30:27Z</time>
      </trkpt>
      <trkpt lat="42.9962880" lon="-8.1365100">
        <ele>463.8</ele>
        <time>2014-07-31T07:30:28Z</time>
      </trkpt>
      <trkpt lat="42.9961460" lon="-8.1365400">
        <ele>463.5</ele>
        <time>2014-07-31T07:30:30Z</time>
      </trkpt>
      <trkpt lat="42.9960710" lon="-8.1365560">
        <ele>463.4</ele>
        <time>2014-07-31T07:30:31Z</time>
      </trkpt>
      <trkpt lat="42.9958480" lon="-8.1365980">
        <ele>463.0</ele>
        <time>2014-07-31T07:30:34Z</time>
      </trkpt>
      <trkpt lat="42.9957770" lon="-8.1366180">
        <ele>463.0</ele>
        <time>2014-07-31T07:30:35Z</time>
      </trkpt>
      <trkpt lat="42.9952550" lon="-8.1367000">
        <ele>462.4</ele>
        <time>2014-07-31T07:30:42Z</time>
      </trkpt>
      <trkpt lat="42.9951860" lon="-8.1367100">
        <ele>462.3</ele>
        <time>2014-07-31T07:30:43Z</time>
      </trkpt>
      <trkpt lat="42.9951200" lon="-8.1367300">
        <ele>462.1</ele>
        <time>2014-07-31T07:30:44Z</time>
      </trkpt>
      <trkpt lat="42.9950530" lon="-8.1367480">
        <ele>462.0</ele>
        <time>2014-07-31T07:30:45Z</time>
      </trkpt>
      <trkpt lat="42.9949800" lon="-8.1367620">
        <ele>461.8</ele>
        <time>2014-07-31T07:30:46Z</time>
      </trkpt>
      <trkpt lat="42.9940670" lon="-8.1370500">
        <ele>460.6</ele>
        <time>2014-07-31T07:30:59Z</time>
      </trkpt>
      <trkpt lat="42.9936900" lon="-8.1372810">
        <ele>460.5</ele>
        <time>2014-07-31T07:31:05Z</time>
      </trkpt>
      <trkpt lat="42.9936310" lon="-8.1373320">
        <ele>460.4</ele>
        <time>2014-07-31T07:31:06Z</time>
      </trkpt>
      <trkpt lat="42.9934000" lon="-8.1376070">
        <ele>459.9</ele>
        <time>2014-07-31T07:31:11Z</time>
      </trkpt>
      <trkpt lat="42.9932270" lon="-8.1379320">
        <ele>458.3</ele>
        <time>2014-07-31T07:31:16Z</time>
      </trkpt>
      <trkpt lat="42.9929340" lon="-8.1388360">
        <ele>454.6</ele>
        <time>2014-07-31T07:31:27Z</time>
      </trkpt>
      <trkpt lat="42.9925760" lon="-8.1398440">
        <ele>451.3</ele>
        <time>2014-07-31T07:31:38Z</time>
      </trkpt>
      <trkpt lat="42.9925080" lon="-8.1400440">
        <ele>450.6</ele>
        <time>2014-07-31T07:31:40Z</time>
      </trkpt>
      <trkpt lat="42.9922680" lon="-8.1407300">
        <ele>447.4</ele>
        <time>2014-07-31T07:31:47Z</time>
      </trkpt>
      <trkpt lat="42.9922330" lon="-8.1408350">
        <ele>446.7</ele>
        <time>2014-07-31T07:31:48Z</time>
      </trkpt>
      <trkpt lat="42.9920860" lon="-8.1412650">
        <ele>444.0</ele>
        <time>2014-07-31T07:31:52Z</time>
      </trkpt>
      <trkpt lat="42.9920490" lon="-8.1413750">
        <ele>443.5</ele>
        <time>2014-07-31T07:31:53Z</time>
      </trkpt>
      <trkpt lat="42.9918960" lon="-8.1418350">
        <ele>441.3</ele>
        <time>2014-07-31T07:31:57Z</time>
      </trkpt>
      <trkpt lat="42.9917390" lon="-8.1423110">
        <ele>439.2</ele>
        <time>2014-07-31T07:32:01Z</time>
      </trkpt>
      <trkpt lat="42.9915730" lon="-8.1427990">
        <ele>436.0</ele>
        <time>2014-07-31T07:32:05Z</time>
      </trkpt>
      <trkpt lat="42.9914540" lon="-8.1431650">
        <ele>433.3</ele>
        <time>2014-07-31T07:32:08Z</time>
      </trkpt>
      <trkpt lat="42.9913380" lon="-8.1435250">
        <ele>430.6</ele>
        <time>2014-07-31T07:32:11Z</time>
      </trkpt>
      <trkpt lat="42.9911610" lon="-8.1439750">
        <ele>428.3</ele>
        <time>2014-07-31T07:32:15Z</time>
      </trkpt>
      <trkpt lat="42.9911030" lon="-8.1440730">
        <ele>427.5</ele>
        <time>2014-07-31T07:32:16Z</time>
      </trkpt>
      <trkpt lat="42.9910360" lon="-8.1441640">
        <ele>426.8</ele>
        <time>2014-07-31T07:32:17Z</time>
      </trkpt>
      <trkpt lat="42.9907030" lon="-8.1444990">
        <ele>423.3</ele>
        <time>2014-07-31T07:32:21Z</time>
      </trkpt>
      <trkpt lat="42.9903450" lon="-8.1448440">
        <ele>419.8</ele>
        <time>2014-07-31T07:32:25Z</time>
      </trkpt>
      <trkpt lat="42.9899610" lon="-8.1451920">
        <ele>416.7</ele>
        <time>2014-07-31T07:32:29Z</time>
      </trkpt>
      <trkpt lat="42.9896030" lon="-8.1455440">
        <ele>413.5</ele>
        <time>2014-07-31T07:32:33Z</time>
      </trkpt>
      <trkpt lat="42.9892300" lon="-8.1459040">
        <ele>410.1</ele>
        <time>2014-07-31T07:32:37Z</time>
      </trkpt>
      <trkpt lat="42.9890380" lon="-8.1460840">
        <ele>408.3</ele>
        <time>2014-07-31T07:32:39Z</time>
      </trkpt>
      <trkpt lat="42.9887640" lon="-8.1463600">
        <ele>405.5</ele>
        <time>2014-07-31T07:32:42Z</time>
      </trkpt>
      <trkpt lat="42.9884770" lon="-8.1466240">
        <ele>402.5</ele>
        <time>2014-07-31T07:32:45Z</time>
      </trkpt>
      <trkpt lat="42.9880820" lon="-8.1469520">
        <ele>399.0</ele>
        <time>2014-07-31T07:32:49Z</time>
      </trkpt>
      <trkpt lat="42.9876780" lon="-8.1472440">
        <ele>395.4</ele>
        <time>2014-07-31T07:32:53Z</time>
      </trkpt>
      <trkpt lat="42.9873210" lon="-8.1474770">
        <ele>392.3</ele>
        <time>2014-07-31T07:32:57Z</time>
      </trkpt>
      <trkpt lat="42.9872380" lon="-8.1475420">
        <ele>391.5</ele>
        <time>2014-07-31T07:32:58Z</time>
      </trkpt>
      <trkpt lat="42.9871610" lon="-8.1476180">
        <ele>390.8</ele>
        <time>2014-07-31T07:32:59Z</time>
      </trkpt>
      <trkpt lat="42.9870880" lon="-8.1477060">
        <ele>390.0</ele>
        <time>2014-07-31T07:33:00Z</time>
      </trkpt>
      <trkpt lat="42.9867990" lon="-8.1480990">
        <ele>387.0</ele>
        <time>2014-07-31T07:33:04Z</time>
      </trkpt>
      <trkpt lat="42.9865700" lon="-8.1485210">
        <ele>383.6</ele>
        <time>2014-07-31T07:33:08Z</time>
      </trkpt>
      <trkpt lat="42.9865410" lon="-8.1486530">
        <ele>382.7</ele>
        <time>2014-07-31T07:33:09Z</time>
      </trkpt>
      <trkpt lat="42.9865320" lon="-8.1487910">
        <ele>381.9</ele>
        <time>2014-07-31T07:33:10Z</time>
      </trkpt>
      <trkpt lat="42.9865210" lon="-8.1493870">
        <ele>380.2</ele>
        <time>2014-07-31T07:33:15Z</time>
      </trkpt>
      <trkpt lat="42.9865150" lon="-8.1499140">
        <ele>381.1</ele>
        <time>2014-07-31T07:33:22Z</time>
      </trkpt>
      <trkpt lat="42.9865070" lon="-8.1505550">
        <ele>384.9</ele>
        <time>2014-07-31T07:33:35Z</time>
      </trkpt>
      <trkpt lat="42.9864800" lon="-8.1512740">
        <ele>388.2</ele>
        <time>2014-07-31T07:33:51Z</time>
      </trkpt>
      <trkpt lat="42.9864540" lon="-8.1519260">
        <ele>389.2</ele>
        <time>2014-07-31T07:34:06Z</time>
      </trkpt>
      <trkpt lat="42.9862750" lon="-8.1524950">
        <ele>389.7</ele>
        <time>2014-07-31T07:34:21Z</time>
      </trkpt>
      <trkpt lat="42.9859220" lon="-8.1530000">
        <ele>388.8</ele>
        <time>2014-07-31T07:34:34Z</time>
      </trkpt>
      <trkpt lat="42.9854180" lon="-8.1535990">
        <ele>385.5</ele>
        <time>2014-07-31T07:34:46Z</time>
      </trkpt>
      <trkpt lat="42.9852420" lon="-8.1537910">
        <ele>384.0</ele>
        <time>2014-07-31T07:34:49Z</time>
      </trkpt>
      <trkpt lat="42.9851890" lon="-8.1538720">
        <ele>383.4</ele>
        <time>2014-07-31T07:34:50Z</time>
      </trkpt>
      <trkpt lat="42.9851450" lon="-8.1539630">
        <ele>382.7</ele>
        <time>2014-07-31T07:34:51Z</time>
      </trkpt>
      <trkpt lat="42.9851130" lon="-8.1540580">
        <ele>382.0</ele>
        <time>2014-07-31T07:34:52Z</time>
      </trkpt>
      <trkpt lat="42.9850950" lon="-8.1541620">
        <ele>381.3</ele>
        <time>2014-07-31T07:34:53Z</time>
      </trkpt>
      <trkpt lat="42.9850820" lon="-8.1542690">
        <ele>380.6</ele>
        <time>2014-07-31T07:34:54Z</time>
      </trkpt>
      <trkpt lat="42.9850720" lon="-8.1543780">
        <ele>380.0</ele>
        <time>2014-07-31T07:34:55Z</time>
      </trkpt>
      <trkpt lat="42.9850310" lon="-8.1549640">
        <ele>377.3</ele>
        <time>2014-07-31T07:35:00Z</time>
      </trkpt>
      <trkpt lat="42.9850160" lon="-8.1550750">
        <ele>376.9</ele>
        <time>2014-07-31T07:35:01Z</time>
      </trkpt>
      <trkpt lat="42.9849910" lon="-8.1551800">
        <ele>376.4</ele>
        <time>2014-07-31T07:35:02Z</time>
      </trkpt>
      <trkpt lat="42.9849540" lon="-8.1552810">
        <ele>375.7</ele>
        <time>2014-07-31T07:35:03Z</time>
      </trkpt>
      <trkpt lat="42.9849070" lon="-8.1553790">
        <ele>375.1</ele>
        <time>2014-07-31T07:35:04Z</time>
      </trkpt>
      <trkpt lat="42.9848500" lon="-8.1554740">
        <ele>374.7</ele>
        <time>2014-07-31T07:35:05Z</time>
      </trkpt>
      <trkpt lat="42.9847870" lon="-8.1555660">
        <ele>374.3</ele>
        <time>2014-07-31T07:35:06Z</time>
      </trkpt>
      <trkpt lat="42.9847160" lon="-8.1556540">
        <ele>373.8</ele>
        <time>2014-07-31T07:35:07Z</time>
      </trkpt>
      <trkpt lat="42.9843510" lon="-8.1561140">
        <ele>371.8</ele>
        <time>2014-07-31T07:35:12Z</time>
      </trkpt>
      <trkpt lat="42.9837850" lon="-8.1567860">
        <ele>372.9</ele>
        <time>2014-07-31T07:35:21Z</time>
      </trkpt>
      <trkpt lat="42.9837280" lon="-8.1568280">
        <ele>373.4</ele>
        <time>2014-07-31T07:35:22Z</time>
      </trkpt>
      <trkpt lat="42.9835840" lon="-8.1569090">
        <ele>374.8</ele>
        <time>2014-07-31T07:35:25Z</time>
      </trkpt>
      <trkpt lat="42.9835030" lon="-8.1569410">
        <ele>375.7</ele>
        <time>2014-07-31T07:35:27Z</time>
      </trkpt>
      <trkpt lat="42.9834630" lon="-8.1569520">
        <ele>376.1</ele>
        <time>2014-07-31T07:35:28Z</time>
      </trkpt>
      <trkpt lat="42.9830450" lon="-8.1570900">
        <ele>379.4</ele>
        <time>2014-07-31T07:35:42Z</time>
      </trkpt>
      <trkpt lat="42.9826010" lon="-8.1572350">
        <ele>381.3</ele>
        <time>2014-07-31T07:35:58Z</time>
      </trkpt>
      <trkpt lat="42.9819160" lon="-8.1573450">
        <ele>380.7</ele>
        <time>2014-07-31T07:36:15Z</time>
      </trkpt>
      <trkpt lat="42.9815870" lon="-8.1574070">
        <ele>380.9</ele>
        <time>2014-07-31T07:36:22Z</time>
      </trkpt>
      <trkpt lat="42.9807620" lon="-8.1578770">
        <ele>380.9</ele>
        <time>2014-07-31T07:36:40Z</time>
      </trkpt>
      <trkpt lat="42.9807190" lon="-8.1579060">
        <ele>380.9</ele>
        <time>2014-07-31T07:36:41Z</time>
      </trkpt>
      <trkpt lat="42.9800390" lon="-8.1584980">
        <ele>381.2</ele>
        <time>2014-07-31T07:36:58Z</time>
      </trkpt>
      <trkpt lat="42.9794230" lon="-8.1592400">
        <ele>384.4</ele>
        <time>2014-07-31T07:37:16Z</time>
      </trkpt>
      <trkpt lat="42.9788930" lon="-8.1598220">
        <ele>387.4</ele>
        <time>2014-07-31T07:37:33Z</time>
      </trkpt>
      <trkpt lat="42.9787800" lon="-8.1597640">
        <ele>386.8</ele>
        <time>2014-07-31T07:37:36Z</time>
      </trkpt>
      <trkpt lat="42.9787390" lon="-8.1597320">
        <ele>386.5</ele>
        <time>2014-07-31T07:37:37Z</time>
      </trkpt>
      <trkpt lat="42.9782840" lon="-8.1593020">
        <ele>383.5</ele>
        <time>2014-07-31T07:37:46Z</time>
      </trkpt>
      <trkpt lat="42.9776860" lon="-8.1588070">
        <ele>381.1</ele>
        <time>2014-07-31T07:37:56Z</time>
      </trkpt>
      <trkpt lat="42.9776200" lon="-8.1587830">
        <ele>381.0</ele>
        <time>2014-07-31T07:37:57Z</time>
      </trkpt>
      <trkpt lat="42.9775530" lon="-8.1587700">
        <ele>381.0</ele>
        <time>2014-07-31T07:37:58Z</time>
      </trkpt>
      <trkpt lat="42.9766670" lon="-8.1587180">
        <ele>379.2</ele>
        <time>2014-07-31T07:38:12Z</time>
      </trkpt>
      <trkpt lat="42.9759830" lon="-8.1585680">
        <ele>378.0</ele>
        <time>2014-07-31T07:38:21Z</time>
      </trkpt>
      <trkpt lat="42.9759220" lon="-8.1585220">
        <ele>378.0</ele>
        <time>2014-07-31T07:38:22Z</time>
      </trkpt>
      <trkpt lat="42.9754970" lon="-8.1581030">
        <ele>377.5</ele>
        <time>2014-07-31T07:38:30Z</time>
      </trkpt>
      <trkpt lat="42.9753160" lon="-8.1578610">
        <ele>377.4</ele>
        <time>2014-07-31T07:38:34Z</time>
      </trkpt>
      <trkpt lat="42.9752730" lon="-8.1578020">
        <ele>377.4</ele>
        <time>2014-07-31T07:38:35Z</time>
      </trkpt>
      <trkpt lat="42.9751060" lon="-8.1575610">
        <ele>377.2</ele>
        <time>2014-07-31T07:38:39Z</time>
      </trkpt>
      <trkpt lat="42.9750510" lon="-8.1575170">
        <ele>377.2</ele>
        <time>2014-07-31T07:38:40Z</time>
      </trkpt>
      <trkpt lat="42.9749920" lon="-8.1574950">
        <ele>377.3</ele>
        <time>2014-07-31T07:38:41Z</time>
      </trkpt>
      <trkpt lat="42.9749300" lon="-8.1574950">
        <ele>377.4</ele>
        <time>2014-07-31T07:38:42Z</time>
      </trkpt>
      <trkpt lat="42.9748720" lon="-8.1575130">
        <ele>377.5</ele>
        <time>2014-07-31T07:38:43Z</time>
      </trkpt>
      <trkpt lat="42.9748170" lon="-8.1575400">
        <ele>377.6</ele>
        <time>2014-07-31T07:38:44Z</time>
      </trkpt>
      <trkpt lat="42.9747650" lon="-8.1575700">
        <ele>377.7</ele>
        <time>2014-07-31T07:38:45Z</time>
      </trkpt>
      <trkpt lat="42.9747170" lon="-8.1576050">
        <ele>377.7</ele>
        <time>2014-07-31T07:38:46Z</time>
      </trkpt>
      <trkpt lat="42.9746720" lon="-8.1576450">
        <ele>377.8</ele>
        <time>2014-07-31T07:38:47Z</time>
      </trkpt>
      <trkpt lat="42.9746290" lon="-8.1576880">
        <ele>377.9</ele>
        <time>2014-07-31T07:38:48Z</time>
      </trkpt>
      <trkpt lat="42.9744670" lon="-8.1578380">
        <ele>378.0</ele>
        <time>2014-07-31T07:38:52Z</time>
      </trkpt>
      <trkpt lat="42.9741190" lon="-8.1581780">
        <ele>378.1</ele>
        <time>2014-07-31T07:39:01Z</time>
      </trkpt>
      <trkpt lat="42.9740730" lon="-8.1581980">
        <ele>378.1</ele>
        <time>2014-07-31T07:39:02Z</time>
      </trkpt>
      <trkpt lat="42.9740230" lon="-8.1582100">
        <ele>378.1</ele>
        <time>2014-07-31T07:39:03Z</time>
      </trkpt>
      <trkpt lat="42.9739710" lon="-8.1582120">
        <ele>378.1</ele>
        <time>2014-07-31T07:39:04Z</time>
      </trkpt>
      <trkpt lat="42.9739190" lon="-8.1582080">
        <ele>378.1</ele>
        <time>2014-07-31T07:39:05Z</time>
      </trkpt>
      <trkpt lat="42.9738660" lon="-8.1582050">
        <ele>378.2</ele>
        <time>2014-07-31T07:39:06Z</time>
      </trkpt>
      <trkpt lat="42.9738130" lon="-8.1582010">
        <ele>378.3</ele>
        <time>2014-07-31T07:39:07Z</time>
      </trkpt>
      <trkpt lat="42.9732460" lon="-8.1581120">
        <ele>378.4</ele>
        <time>2014-07-31T07:39:18Z</time>
      </trkpt>
      <trkpt lat="42.9728040" lon="-8.1580800">
        <ele>378.4</ele>
        <time>2014-07-31T07:39:26Z</time>
      </trkpt>
      <trkpt lat="42.9727470" lon="-8.1580900">
        <ele>378.4</ele>
        <time>2014-07-31T07:39:27Z</time>
      </trkpt>
      <trkpt lat="42.9726900" lon="-8.1581070">
        <ele>378.3</ele>
        <time>2014-07-31T07:39:28Z</time>
      </trkpt>
      <trkpt lat="42.9723760" lon="-8.1582470">
        <ele>377.7</ele>
        <time>2014-07-31T07:39:34Z</time>
      </trkpt>
      <trkpt lat="42.9722780" lon="-8.1582730">
        <ele>377.4</ele>
        <time>2014-07-31T07:39:36Z</time>
      </trkpt>
      <trkpt lat="42.9722240" lon="-8.1582700">
        <ele>377.3</ele>
        <time>2014-07-31T07:39:37Z</time>
      </trkpt>
      <trkpt lat="42.9721680" lon="-8.1582490">
        <ele>377.3</ele>
        <time>2014-07-31T07:39:38Z</time>
      </trkpt>
      <trkpt lat="42.9721170" lon="-8.1582140">
        <ele>377.3</ele>
        <time>2014-07-31T07:39:39Z</time>
      </trkpt>
      <trkpt lat="42.9720730" lon="-8.1581690">
        <ele>377.4</ele>
        <time>2014-07-31T07:39:40Z</time>
      </trkpt>
      <trkpt lat="42.9720400" lon="-8.1581190">
        <ele>377.5</ele>
        <time>2014-07-31T07:39:41Z</time>
      </trkpt>
      <trkpt lat="42.9720100" lon="-8.1580620">
        <ele>377.5</ele>
        <time>2014-07-31T07:39:42Z</time>
      </trkpt>
      <trkpt lat="42.9719060" lon="-8.1578930">
        <ele>377.6</ele>
        <time>2014-07-31T07:39:45Z</time>
      </trkpt>
      <trkpt lat="42.9718620" lon="-8.1578490">
        <ele>377.6</ele>
        <time>2014-07-31T07:39:46Z</time>
      </trkpt>
      <trkpt lat="42.9718110" lon="-8.1578130">
        <ele>377.6</ele>
        <time>2014-07-31T07:39:47Z</time>
      </trkpt>
      <trkpt lat="42.9717030" lon="-8.1577540">
        <ele>377.7</ele>
        <time>2014-07-31T07:39:49Z</time>
      </trkpt>
      <trkpt lat="42.9712410" lon="-8.1575630">
        <ele>378.1</ele>
        <time>2014-07-31T07:39:57Z</time>
      </trkpt>
      <trkpt lat="42.9711200" lon="-8.1575310">
        <ele>378.1</ele>
        <time>2014-07-31T07:40:04Z</time>
      </trkpt>
      <trkpt lat="42.9711200" lon="-8.1575310">
        <ele>378.1</ele>
        <time>2014-07-31T07:40:35Z</time>
      </trkpt>
      <trkpt lat="42.9709350" lon="-8.1574640">
        <ele>378.0</ele>
        <time>2014-07-31T07:40:46Z</time>
      </trkpt>
      <trkpt lat="42.9701770" lon="-8.1571520">
        <ele>374.0</ele>
        <time>2014-07-31T07:41:00Z</time>
      </trkpt>
      <trkpt lat="42.9693330" lon="-8.1568240">
        <ele>370.0</ele>
        <time>2014-07-31T07:41:13Z</time>
      </trkpt>
      <trkpt lat="42.9687020" lon="-8.1566450">
        <ele>367.1</ele>
        <time>2014-07-31T07:41:22Z</time>
      </trkpt>
      <trkpt lat="42.9675110" lon="-8.1562160">
        <ele>361.5</ele>
        <time>2014-07-31T07:41:38Z</time>
      </trkpt>
      <trkpt lat="42.9665990" lon="-8.1557880">
        <ele>359.9</ele>
        <time>2014-07-31T07:41:52Z</time>
      </trkpt>
      <trkpt lat="42.9657160" lon="-8.1551300">
        <ele>357.3</ele>
        <time>2014-07-31T07:42:06Z</time>
      </trkpt>
      <trkpt lat="42.9650130" lon="-8.1545850">
        <ele>355.3</ele>
        <time>2014-07-31T07:42:16Z</time>
      </trkpt>
      <trkpt lat="42.9642680" lon="-8.1539820">
        <ele>354.2</ele>
        <time>2014-07-31T07:42:27Z</time>
      </trkpt>
      <trkpt lat="42.9642150" lon="-8.1539070">
        <ele>354.1</ele>
        <time>2014-07-31T07:42:28Z</time>
      </trkpt>
      <trkpt lat="42.9641660" lon="-8.1538260">
        <ele>354.1</ele>
        <time>2014-07-31T07:42:29Z</time>
      </trkpt>
      <trkpt lat="42.9641250" lon="-8.1537380">
        <ele>354.1</ele>
        <time>2014-07-31T07:42:30Z</time>
      </trkpt>
      <trkpt lat="42.9640890" lon="-8.1536510">
        <ele>354.1</ele>
        <time>2014-07-31T07:42:31Z</time>
      </trkpt>
      <trkpt lat="42.9636010" lon="-8.1525000">
        <ele>351.4</ele>
        <time>2014-07-31T07:42:45Z</time>
      </trkpt>
      <trkpt lat="42.9633700" lon="-8.1521940">
        <ele>349.7</ele>
        <time>2014-07-31T07:42:49Z</time>
      </trkpt>
      <trkpt lat="42.9629110" lon="-8.1515880">
        <ele>346.6</ele>
        <time>2014-07-31T07:42:56Z</time>
      </trkpt>
      <trkpt lat="42.9627720" lon="-8.1514040">
        <ele>345.5</ele>
        <time>2014-07-31T07:42:58Z</time>
      </trkpt>
      <trkpt lat="42.9625530" lon="-8.1511240">
        <ele>344.0</ele>
        <time>2014-07-31T07:43:01Z</time>
      </trkpt>
      <trkpt lat="42.9624080" lon="-8.1509320">
        <ele>342.9</ele>
        <time>2014-07-31T07:43:03Z</time>
      </trkpt>
      <trkpt lat="42.9621370" lon="-8.1506070">
        <ele>340.9</ele>
        <time>2014-07-31T07:43:07Z</time>
      </trkpt>
      <trkpt lat="42.9620600" lon="-8.1505580">
        <ele>340.3</ele>
        <time>2014-07-31T07:43:08Z</time>
      </trkpt>
      <trkpt lat="42.9619740" lon="-8.1505340">
        <ele>339.9</ele>
        <time>2014-07-31T07:43:09Z</time>
      </trkpt>
      <trkpt lat="42.9618850" lon="-8.1505360">
        <ele>339.7</ele>
        <time>2014-07-31T07:43:10Z</time>
      </trkpt>
      <trkpt lat="42.9617940" lon="-8.1505560">
        <ele>339.6</ele>
        <time>2014-07-31T07:43:11Z</time>
      </trkpt>
      <trkpt lat="42.9617050" lon="-8.1505820">
        <ele>339.5</ele>
        <time>2014-07-31T07:43:12Z</time>
      </trkpt>
      <trkpt lat="42.9616150" lon="-8.1506040">
        <ele>339.4</ele>
        <time>2014-07-31T07:43:13Z</time>
      </trkpt>
      <trkpt lat="42.9615230" lon="-8.1506270">
        <ele>339.3</ele>
        <time>2014-07-31T07:43:14Z</time>
      </trkpt>
      <trkpt lat="42.9609380" lon="-8.1507840">
        <ele>337.9</ele>
        <time>2014-07-31T07:43:20Z</time>
      </trkpt>
      <trkpt lat="42.9607420" lon="-8.1508200">
        <ele>337.3</ele>
        <time>2014-07-31T07:43:22Z</time>
      </trkpt>
      <trkpt lat="42.9605540" lon="-8.1508140">
        <ele>337.2</ele>
        <time>2014-07-31T07:43:24Z</time>
      </trkpt>
      <trkpt lat="42.9604690" lon="-8.1507870">
        <ele>337.3</ele>
        <time>2014-07-31T07:43:25Z</time>
      </trkpt>
      <trkpt lat="42.9603960" lon="-8.1507420">
        <ele>337.1</ele>
        <time>2014-07-31T07:43:26Z</time>
      </trkpt>
      <trkpt lat="42.9603360" lon="-8.1506820">
        <ele>337.1</ele>
        <time>2014-07-31T07:43:27Z</time>
      </trkpt>
      <trkpt lat="42.9602880" lon="-8.1506130">
        <ele>337.0</ele>
        <time>2014-07-31T07:43:28Z</time>
      </trkpt>
      <trkpt lat="42.9602470" lon="-8.1505450">
        <ele>337.0</ele>
        <time>2014-07-31T07:43:29Z</time>
      </trkpt>
      <trkpt lat="42.9600590" lon="-8.1502000">
        <ele>337.5</ele>
        <time>2014-07-31T07:43:36Z</time>
      </trkpt>
      <trkpt lat="42.9599760" lon="-8.1499100">
        <ele>338.6</ele>
        <time>2014-07-31T07:43:47Z</time>
      </trkpt>
      <trkpt lat="42.9599630" lon="-8.1498980">
        <ele>338.7</ele>
        <time>2014-07-31T07:43:48Z</time>
      </trkpt>
      <trkpt lat="42.9599450" lon="-8.1498940">
        <ele>338.8</ele>
        <time>2014-07-31T07:43:49Z</time>
      </trkpt>
      <trkpt lat="42.9599250" lon="-8.1498940">
        <ele>338.9</ele>
        <time>2014-07-31T07:43:50Z</time>
      </trkpt>
      <trkpt lat="42.9599090" lon="-8.1498950">
        <ele>339.0</ele>
        <time>2014-07-31T07:43:51Z</time>
      </trkpt>
      <trkpt lat="42.9598930" lon="-8.1499030">
        <ele>340.4</ele>
        <time>2014-07-31T07:43:52Z</time>
      </trkpt>
      <trkpt lat="42.9598170" lon="-8.1499670">
        <ele>340.8</ele>
        <time>2014-07-31T07:43:57Z</time>
      </trkpt>
      <trkpt lat="42.9597950" lon="-8.1499700">
        <ele>340.9</ele>
        <time>2014-07-31T07:43:58Z</time>
      </trkpt>
      <trkpt lat="42.9597720" lon="-8.1499710">
        <ele>341.0</ele>
        <time>2014-07-31T07:43:59Z</time>
      </trkpt>
      <trkpt lat="42.9597490" lon="-8.1499780">
        <ele>341.2</ele>
        <time>2014-07-31T07:44:00Z</time>
      </trkpt>
      <trkpt lat="42.9597290" lon="-8.1499990">
        <ele>341.3</ele>
        <time>2014-07-31T07:44:01Z</time>
      </trkpt>
      <trkpt lat="42.9597080" lon="-8.1500220">
        <ele>341.4</ele>
        <time>2014-07-31T07:44:02Z</time>
      </trkpt>
      <trkpt lat="42.9596860" lon="-8.1500370">
        <ele>341.5</ele>
        <time>2014-07-31T07:44:03Z</time>
      </trkpt>
      <trkpt lat="42.9596600" lon="-8.1500400">
        <ele>341.6</ele>
        <time>2014-07-31T07:44:04Z</time>
      </trkpt>
      <trkpt lat="42.9596370" lon="-8.1500370">
        <ele>341.8</ele>
        <time>2014-07-31T07:44:05Z</time>
      </trkpt>
      <trkpt lat="42.9596130" lon="-8.1500360">
        <ele>341.9</ele>
        <time>2014-07-31T07:44:06Z</time>
      </trkpt>
      <trkpt lat="42.9595900" lon="-8.1500390">
        <ele>342.6</ele>
        <time>2014-07-31T07:44:07Z</time>
      </trkpt>
      <trkpt lat="42.9595680" lon="-8.1500440">
        <ele>342.8</ele>
        <time>2014-07-31T07:44:08Z</time>
      </trkpt>
      <trkpt lat="42.9595460" lon="-8.1500410">
        <ele>343.0</ele>
        <time>2014-07-31T07:44:09Z</time>
      </trkpt>
      <trkpt lat="42.9595230" lon="-8.1500310">
        <ele>343.1</ele>
        <time>2014-07-31T07:44:10Z</time>
      </trkpt>
      <trkpt lat="42.9595020" lon="-8.1500150">
        <ele>343.3</ele>
        <time>2014-07-31T07:44:11Z</time>
      </trkpt>
      <trkpt lat="42.9594790" lon="-8.1500000">
        <ele>343.4</ele>
        <time>2014-07-31T07:44:12Z</time>
      </trkpt>
      <trkpt lat="42.9594540" lon="-8.1499860">
        <ele>343.6</ele>
        <time>2014-07-31T07:44:13Z</time>
      </trkpt>
      <trkpt lat="42.9591970" lon="-8.1497780">
        <ele>345.2</ele>
        <time>2014-07-31T07:44:25Z</time>
      </trkpt>
      <trkpt lat="42.9587080" lon="-8.1493840">
        <ele>346.1</ele>
        <time>2014-07-31T07:44:40Z</time>
      </trkpt>
      <trkpt lat="42.9585450" lon="-8.1492530">
        <ele>346.0</ele>
        <time>2014-07-31T07:44:44Z</time>
      </trkpt>
      <trkpt lat="42.9584970" lon="-8.1492160">
        <ele>346.0</ele>
        <time>2014-07-31T07:44:45Z</time>
      </trkpt>
      <trkpt lat="42.9582000" lon="-8.1489960">
        <ele>345.0</ele>
        <time>2014-07-31T07:44:50Z</time>
      </trkpt>
      <trkpt lat="42.9580590" lon="-8.1489250">
        <ele>344.1</ele>
        <time>2014-07-31T07:44:52Z</time>
      </trkpt>
      <trkpt lat="42.9579800" lon="-8.1489160">
        <ele>343.6</ele>
        <time>2014-07-31T07:44:53Z</time>
      </trkpt>
      <trkpt lat="42.9578960" lon="-8.1489300">
        <ele>343.1</ele>
        <time>2014-07-31T07:44:54Z</time>
      </trkpt>
      <trkpt lat="42.9578120" lon="-8.1489600">
        <ele>342.5</ele>
        <time>2014-07-31T07:44:55Z</time>
      </trkpt>
      <trkpt lat="42.9577280" lon="-8.1489990">
        <ele>341.9</ele>
        <time>2014-07-31T07:44:56Z</time>
      </trkpt>
      <trkpt lat="42.9576440" lon="-8.1490470">
        <ele>341.3</ele>
        <time>2014-07-31T07:44:57Z</time>
      </trkpt>
      <trkpt lat="42.9575590" lon="-8.1490980">
        <ele>340.7</ele>
        <time>2014-07-31T07:44:58Z</time>
      </trkpt>
      <trkpt lat="42.9564390" lon="-8.1497270">
        <ele>337.9</ele>
        <time>2014-07-31T07:45:12Z</time>
      </trkpt>
      <trkpt lat="42.9559030" lon="-8.1500360">
        <ele>339.5</ele>
        <time>2014-07-31T07:45:22Z</time>
      </trkpt>
      <trkpt lat="42.9553140" lon="-8.1502680">
        <ele>342.4</ele>
        <time>2014-07-31T07:45:36Z</time>
      </trkpt>
      <trkpt lat="42.9545880" lon="-8.1503570">
        <ele>343.7</ele>
        <time>2014-07-31T07:45:54Z</time>
      </trkpt>
      <trkpt lat="42.9536600" lon="-8.1504460">
        <ele>343.5</ele>
        <time>2014-07-31T07:46:12Z</time>
      </trkpt>
      <trkpt lat="42.9529620" lon="-8.1505330">
        <ele>343.4</ele>
        <time>2014-07-31T07:46:25Z</time>
      </trkpt>
      <trkpt lat="42.9520370" lon="-8.1509410">
        <ele>341.9</ele>
        <time>2014-07-31T07:46:42Z</time>
      </trkpt>
      <trkpt lat="42.9510290" lon="-8.1513410">
        <ele>338.0</ele>
        <time>2014-07-31T07:46:58Z</time>
      </trkpt>
      <trkpt lat="42.9508120" lon="-8.1513920">
        <ele>336.8</ele>
        <time>2014-07-31T07:47:01Z</time>
      </trkpt>
      <trkpt lat="42.9502610" lon="-8.1515300">
        <ele>332.8</ele>
        <time>2014-07-31T07:47:08Z</time>
      </trkpt>
      <trkpt lat="42.9500880" lon="-8.1515660">
        <ele>331.7</ele>
        <time>2014-07-31T07:47:10Z</time>
      </trkpt>
      <trkpt lat="42.9497340" lon="-8.1516560">
        <ele>328.3</ele>
        <time>2014-07-31T07:47:14Z</time>
      </trkpt>
      <trkpt lat="42.9494160" lon="-8.1517310">
        <ele>325.8</ele>
        <time>2014-07-31T07:47:17Z</time>
      </trkpt>
      <trkpt lat="42.9482730" lon="-8.1520130">
        <ele>327.5</ele>
        <time>2014-07-31T07:47:29Z</time>
      </trkpt>
      <trkpt lat="42.9474090" lon="-8.1522510">
        <ele>326.9</ele>
        <time>2014-07-31T07:47:41Z</time>
      </trkpt>
      <trkpt lat="42.9471030" lon="-8.1523440">
        <ele>327.6</ele>
        <time>2014-07-31T07:47:46Z</time>
      </trkpt>
      <trkpt lat="42.9462210" lon="-8.1525240">
        <ele>328.5</ele>
        <time>2014-07-31T07:48:02Z</time>
      </trkpt>
      <trkpt lat="42.9456860" lon="-8.1525680">
        <ele>324.8</ele>
        <time>2014-07-31T07:48:10Z</time>
      </trkpt>
      <trkpt lat="42.9443970" lon="-8.1526560">
        <ele>322.2</ele>
        <time>2014-07-31T07:48:27Z</time>
      </trkpt>
      <trkpt lat="42.9435600" lon="-8.1527250">
        <ele>328.9</ele>
        <time>2014-07-31T07:48:41Z</time>
      </trkpt>
      <trkpt lat="42.9429420" lon="-8.1527750">
        <ele>329.4</ele>
        <time>2014-07-31T07:48:58Z</time>
      </trkpt>
      <trkpt lat="42.9426020" lon="-8.1528140">
        <ele>329.7</ele>
        <time>2014-07-31T07:49:10Z</time>
      </trkpt>
      <trkpt lat="42.9423320" lon="-8.1528170">
        <ele>330.7</ele>
        <time>2014-07-31T07:49:23Z</time>
      </trkpt>
      <trkpt lat="42.9419970" lon="-8.1528480">
        <ele>333.5</ele>
        <time>2014-07-31T07:49:37Z</time>
      </trkpt>
      <trkpt lat="42.9414020" lon="-8.1528960">
        <ele>333.7</ele>
        <time>2014-07-31T07:49:52Z</time>
      </trkpt>
      <trkpt lat="42.9412010" lon="-8.1529270">
        <ele>333.7</ele>
        <time>2014-07-31T07:49:59Z</time>
      </trkpt>
      <trkpt lat="42.9411790" lon="-8.1529260">
        <ele>333.8</ele>
        <time>2014-07-31T07:50:00Z</time>
      </trkpt>
      <trkpt lat="42.9409080" lon="-8.1529500">
        <ele>335.9</ele>
        <time>2014-07-31T07:50:13Z</time>
      </trkpt>
      <trkpt lat="42.9405070" lon="-8.1529840">
        <ele>340.4</ele>
        <time>2014-07-31T07:50:31Z</time>
      </trkpt>
      <trkpt lat="42.9399830" lon="-8.1530280">
        <ele>343.0</ele>
        <time>2014-07-31T07:50:46Z</time>
      </trkpt>
      <trkpt lat="42.9396170" lon="-8.1530600">
        <ele>346.6</ele>
        <time>2014-07-31T07:51:00Z</time>
      </trkpt>
      <trkpt lat="42.9391740" lon="-8.1530990">
        <ele>350.6</ele>
        <time>2014-07-31T07:51:18Z</time>
      </trkpt>
      <trkpt lat="42.9388300" lon="-8.1531200">
        <ele>353.2</ele>
        <time>2014-07-31T07:51:32Z</time>
      </trkpt>
      <trkpt lat="42.9383350" lon="-8.1530890">
        <ele>354.4</ele>
        <time>2014-07-31T07:51:47Z</time>
      </trkpt>
      <trkpt lat="42.9381630" lon="-8.1531220">
        <ele>354.8</ele>
        <time>2014-07-31T07:51:51Z</time>
      </trkpt>
      <trkpt lat="42.9381250" lon="-8.1531410">
        <ele>354.9</ele>
        <time>2014-07-31T07:51:52Z</time>
      </trkpt>
      <trkpt lat="42.9377320" lon="-8.1533590">
        <ele>356.1</ele>
        <time>2014-07-31T07:52:04Z</time>
      </trkpt>
      <trkpt lat="42.9375260" lon="-8.1536860">
        <ele>357.7</ele>
        <time>2014-07-31T07:52:14Z</time>
      </trkpt>
      <trkpt lat="42.9374960" lon="-8.1536900">
        <ele>357.8</ele>
        <time>2014-07-31T07:52:15Z</time>
      </trkpt>
      <trkpt lat="42.9374650" lon="-8.1536830">
        <ele>358.3</ele>
        <time>2014-07-31T07:52:16Z</time>
      </trkpt>
      <trkpt lat="42.9374370" lon="-8.1536660">
        <ele>358.5</ele>
        <time>2014-07-31T07:52:17Z</time>
      </trkpt>
      <trkpt lat="42.9374140" lon="-8.1536460">
        <ele>358.6</ele>
        <time>2014-07-31T07:52:18Z</time>
      </trkpt>
      <trkpt lat="42.9372750" lon="-8.1535390">
        <ele>359.4</ele>
        <time>2014-07-31T07:52:25Z</time>
      </trkpt>
      <trkpt lat="42.9372580" lon="-8.1535320">
        <ele>359.5</ele>
        <time>2014-07-31T07:52:26Z</time>
      </trkpt>
      <trkpt lat="42.9372410" lon="-8.1535180">
        <ele>359.6</ele>
        <time>2014-07-31T07:52:27Z</time>
      </trkpt>
      <trkpt lat="42.9372280" lon="-8.1535020">
        <ele>359.7</ele>
        <time>2014-07-31T07:52:28Z</time>
      </trkpt>
      <trkpt lat="42.9372170" lon="-8.1534860">
        <ele>359.8</ele>
        <time>2014-07-31T07:52:29Z</time>
      </trkpt>
      <trkpt lat="42.9370370" lon="-8.1533460">
        <ele>361.3</ele>
        <time>2014-07-31T07:52:40Z</time>
      </trkpt>
      <trkpt lat="42.9370130" lon="-8.1533310">
        <ele>361.5</ele>
        <time>2014-07-31T07:52:41Z</time>
      </trkpt>
      <trkpt lat="42.9367880" lon="-8.1532250">
        <ele>363.6</ele>
        <time>2014-07-31T07:52:53Z</time>
      </trkpt>
      <trkpt lat="42.9365230" lon="-8.1531610">
        <ele>366.7</ele>
        <time>2014-07-31T07:53:10Z</time>
      </trkpt>
      <trkpt lat="42.9363730" lon="-8.1531540">
        <ele>368.3</ele>
        <time>2014-07-31T07:53:20Z</time>
      </trkpt>
      <trkpt lat="42.9362850" lon="-8.1531320">
        <ele>369.1</ele>
        <time>2014-07-31T07:53:26Z</time>
      </trkpt>
      <trkpt lat="42.9362720" lon="-8.1531380">
        <ele>369.2</ele>
        <time>2014-07-31T07:53:27Z</time>
      </trkpt>
      <trkpt lat="42.9362540" lon="-8.1531430">
        <ele>369.4</ele>
        <time>2014-07-31T07:53:28Z</time>
      </trkpt>
      <trkpt lat="42.9362370" lon="-8.1531520">
        <ele>369.6</ele>
        <time>2014-07-31T07:53:29Z</time>
      </trkpt>
      <trkpt lat="42.9362230" lon="-8.1531630">
        <ele>369.8</ele>
        <time>2014-07-31T07:53:30Z</time>
      </trkpt>
      <trkpt lat="42.9362120" lon="-8.1531730">
        <ele>369.9</ele>
        <time>2014-07-31T07:53:31Z</time>
      </trkpt>
      <trkpt lat="42.9361980" lon="-8.1531880">
        <ele>370.1</ele>
        <time>2014-07-31T07:53:32Z</time>
      </trkpt>
      <trkpt lat="42.9361870" lon="-8.1531940">
        <ele>370.2</ele>
        <time>2014-07-31T07:53:33Z</time>
      </trkpt>
      <trkpt lat="42.9360560" lon="-8.1533810">
        <ele>372.5</ele>
        <time>2014-07-31T07:53:46Z</time>
      </trkpt>
      <trkpt lat="42.9359540" lon="-8.1535360">
        <ele>374.9</ele>
        <time>2014-07-31T07:53:58Z</time>
      </trkpt>
      <trkpt lat="42.9358320" lon="-8.1536450">
        <ele>376.6</ele>
        <time>2014-07-31T07:54:09Z</time>
      </trkpt>
      <trkpt lat="42.9356570" lon="-8.1537450">
        <ele>378.5</ele>
        <time>2014-07-31T07:54:23Z</time>
      </trkpt>
      <trkpt lat="42.9354650" lon="-8.1538150">
        <ele>380.9</ele>
        <time>2014-07-31T07:54:37Z</time>
      </trkpt>
      <trkpt lat="42.9352770" lon="-8.1539250">
        <ele>383.8</ele>
        <time>2014-07-31T07:54:50Z</time>
      </trkpt>
      <trkpt lat="42.9352620" lon="-8.1539290">
        <ele>384.0</ele>
        <time>2014-07-31T07:54:51Z</time>
      </trkpt>
      <trkpt lat="42.9350800" lon="-8.1540190">
        <ele>386.1</ele>
        <time>2014-07-31T07:55:04Z</time>
      </trkpt>
      <trkpt lat="42.9349360" lon="-8.1540730">
        <ele>387.7</ele>
        <time>2014-07-31T07:55:15Z</time>
      </trkpt>
      <trkpt lat="42.9349200" lon="-8.1540670">
        <ele>387.8</ele>
        <time>2014-07-31T07:55:16Z</time>
      </trkpt>
      <trkpt lat="42.9349050" lon="-8.1540660">
        <ele>388.0</ele>
        <time>2014-07-31T07:55:17Z</time>
      </trkpt>
      <trkpt lat="42.9348900" lon="-8.1540720">
        <ele>388.1</ele>
        <time>2014-07-31T07:55:18Z</time>
      </trkpt>
      <trkpt lat="42.9347240" lon="-8.1541570">
        <ele>390.2</ele>
        <time>2014-07-31T07:55:30Z</time>
      </trkpt>
      <trkpt lat="42.9345420" lon="-8.1542090">
        <ele>392.8</ele>
        <time>2014-07-31T07:55:44Z</time>
      </trkpt>
      <trkpt lat="42.9344760" lon="-8.1542270">
        <ele>393.7</ele>
        <time>2014-07-31T07:55:49Z</time>
      </trkpt>
      <trkpt lat="42.9342950" lon="-8.1542620">
        <ele>395.2</ele>
        <time>2014-07-31T07:56:01Z</time>
      </trkpt>
      <trkpt lat="42.9342840" lon="-8.1542520">
        <ele>395.3</ele>
        <time>2014-07-31T07:56:02Z</time>
      </trkpt>
      <trkpt lat="42.9342720" lon="-8.1542450">
        <ele>395.4</ele>
        <time>2014-07-31T07:56:03Z</time>
      </trkpt>
      <trkpt lat="42.9342590" lon="-8.1542480">
        <ele>395.5</ele>
        <time>2014-07-31T07:56:04Z</time>
      </trkpt>
      <trkpt lat="42.9342460" lon="-8.1542570">
        <ele>395.6</ele>
        <time>2014-07-31T07:56:05Z</time>
      </trkpt>
      <trkpt lat="42.9342340" lon="-8.1542690">
        <ele>395.7</ele>
        <time>2014-07-31T07:56:06Z</time>
      </trkpt>
      <trkpt lat="42.9342220" lon="-8.1542840">
        <ele>395.9</ele>
        <time>2014-07-31T07:56:07Z</time>
      </trkpt>
      <trkpt lat="42.9342080" lon="-8.1542960">
        <ele>396.0</ele>
        <time>2014-07-31T07:56:08Z</time>
      </trkpt>
      <trkpt lat="42.9341920" lon="-8.1543020">
        <ele>396.2</ele>
        <time>2014-07-31T07:56:09Z</time>
      </trkpt>
      <trkpt lat="42.9341770" lon="-8.1543060">
        <ele>396.3</ele>
        <time>2014-07-31T07:56:10Z</time>
      </trkpt>
      <trkpt lat="42.9339470" lon="-8.1543850">
        <ele>398.4</ele>
        <time>2014-07-31T07:56:26Z</time>
      </trkpt>
      <trkpt lat="42.9337680" lon="-8.1544440">
        <ele>400.0</ele>
        <time>2014-07-31T07:56:39Z</time>
      </trkpt>
      <trkpt lat="42.9335740" lon="-8.1545500">
        <ele>401.7</ele>
        <time>2014-07-31T07:56:53Z</time>
      </trkpt>
      <trkpt lat="42.9333650" lon="-8.1546930">
        <ele>403.6</ele>
        <time>2014-07-31T07:57:07Z</time>
      </trkpt>
      <trkpt lat="42.9330840" lon="-8.1549180">
        <ele>405.8</ele>
        <time>2014-07-31T07:57:24Z</time>
      </trkpt>
      <trkpt lat="42.9327870" lon="-8.1552390">
        <ele>407.5</ele>
        <time>2014-07-31T07:57:39Z</time>
      </trkpt>
      <trkpt lat="42.9325580" lon="-8.1554260">
        <ele>408.7</ele>
        <time>2014-07-31T07:57:50Z</time>
      </trkpt>
      <trkpt lat="42.9322350" lon="-8.1556890">
        <ele>410.0</ele>
        <time>2014-07-31T07:58:05Z</time>
      </trkpt>
      <trkpt lat="42.9319760" lon="-8.1560170">
        <ele>410.9</ele>
        <time>2014-07-31T07:58:18Z</time>
      </trkpt>
      <trkpt lat="42.9317150" lon="-8.1565020">
        <ele>411.5</ele>
        <time>2014-07-31T07:58:32Z</time>
      </trkpt>
      <trkpt lat="42.9314770" lon="-8.1570970">
        <ele>411.9</ele>
        <time>2014-07-31T07:58:47Z</time>
      </trkpt>
      <trkpt lat="42.9312530" lon="-8.1575580">
        <ele>411.1</ele>
        <time>2014-07-31T07:58:59Z</time>
      </trkpt>
      <trkpt lat="42.9312270" lon="-8.1576030">
        <ele>411.0</ele>
        <time>2014-07-31T07:59:00Z</time>
      </trkpt>
      <trkpt lat="42.9307720" lon="-8.1583330">
        <ele>408.5</ele>
        <time>2014-07-31T07:59:12Z</time>
      </trkpt>
      <trkpt lat="42.9305930" lon="-8.1586080">
        <ele>407.2</ele>
        <time>2014-07-31T07:59:16Z</time>
      </trkpt>
      <trkpt lat="42.9303720" lon="-8.1589460">
        <ele>405.0</ele>
        <time>2014-07-31T07:59:21Z</time>
      </trkpt>
      <trkpt lat="42.9295130" lon="-8.1598430">
        <ele>402.0</ele>
        <time>2014-07-31T07:59:36Z</time>
      </trkpt>
      <trkpt lat="42.9288450" lon="-8.1605460">
        <ele>399.9</ele>
        <time>2014-07-31T07:59:49Z</time>
      </trkpt>
      <trkpt lat="42.9286470" lon="-8.1607350">
        <ele>398.3</ele>
        <time>2014-07-31T07:59:57Z</time>
      </trkpt>
      <trkpt lat="42.9285680" lon="-8.1608150">
        <ele>398.0</ele>
        <time>2014-07-31T08:00:01Z</time>
      </trkpt>
      <trkpt lat="42.9282050" lon="-8.1608430">
        <ele>397.1</ele>
        <time>2014-07-31T08:00:11Z</time>
      </trkpt>
      <trkpt lat="42.9279820" lon="-8.1608490">
        <ele>395.6</ele>
        <time>2014-07-31T08:00:17Z</time>
      </trkpt>
      <trkpt lat="42.9277860" lon="-8.1608540">
        <ele>394.6</ele>
        <time>2014-07-31T08:00:27Z</time>
      </trkpt>
      <trkpt lat="42.9277860" lon="-8.1608540">
        <ele>394.6</ele>
        <time>2014-07-31T08:00:49Z</time>
      </trkpt>
      <trkpt lat="42.9277820" lon="-8.1608660">
        <ele>394.6</ele>
        <time>2014-07-31T08:00:50Z</time>
      </trkpt>
      <trkpt lat="42.9275380" lon="-8.1606070">
        <ele>393.3</ele>
        <time>2014-07-31T08:01:02Z</time>
      </trkpt>
      <trkpt lat="42.9273280" lon="-8.1605280">
        <ele>391.6</ele>
        <time>2014-07-31T08:01:08Z</time>
      </trkpt>
      <trkpt lat="42.9273150" lon="-8.1605410">
        <ele>391.4</ele>
        <time>2014-07-31T08:01:22Z</time>
      </trkpt>
      <trkpt lat="42.9273150" lon="-8.1605410">
        <ele>391.4</ele>
        <time>2014-07-31T08:01:45Z</time>
      </trkpt>
      <trkpt lat="42.9273040" lon="-8.1605410">
        <ele>391.3</ele>
        <time>2014-07-31T08:01:46Z</time>
      </trkpt>
      <trkpt lat="42.9272900" lon="-8.1605400">
        <ele>391.2</ele>
        <time>2014-07-31T08:01:47Z</time>
      </trkpt>
      <trkpt lat="42.9272770" lon="-8.1605380">
        <ele>391.1</ele>
        <time>2014-07-31T08:01:48Z</time>
      </trkpt>
      <trkpt lat="42.9272640" lon="-8.1605320">
        <ele>391.0</ele>
        <time>2014-07-31T08:01:49Z</time>
      </trkpt>
      <trkpt lat="42.9272020" lon="-8.1604740">
        <ele>390.4</ele>
        <time>2014-07-31T08:01:58Z</time>
      </trkpt>
      <trkpt lat="42.9271890" lon="-8.1604700">
        <ele>390.5</ele>
        <time>2014-07-31T08:01:59Z</time>
      </trkpt>
      <trkpt lat="42.9271750" lon="-8.1604840">
        <ele>390.5</ele>
        <time>2014-07-31T08:02:00Z</time>
      </trkpt>
      <trkpt lat="42.9271610" lon="-8.1605090">
        <ele>390.5</ele>
        <time>2014-07-31T08:02:01Z</time>
      </trkpt>
      <trkpt lat="42.9270590" lon="-8.1607340">
        <ele>388.1</ele>
        <time>2014-07-31T08:02:07Z</time>
      </trkpt>
      <trkpt lat="42.9268620" lon="-8.1612000">
        <ele>387.3</ele>
        <time>2014-07-31T08:02:18Z</time>
      </trkpt>
      <trkpt lat="42.9268440" lon="-8.1612330">
        <ele>387.3</ele>
        <time>2014-07-31T08:02:19Z</time>
      </trkpt>
      <trkpt lat="42.9268190" lon="-8.1612580">
        <ele>387.3</ele>
        <time>2014-07-31T08:02:20Z</time>
      </trkpt>
      <trkpt lat="42.9268020" lon="-8.1612870">
        <ele>387.3</ele>
        <time>2014-07-31T08:02:21Z</time>
      </trkpt>
      <trkpt lat="42.9267880" lon="-8.1613190">
        <ele>387.3</ele>
        <time>2014-07-31T08:02:22Z</time>
      </trkpt>
      <trkpt lat="42.9267740" lon="-8.1613510">
        <ele>387.3</ele>
        <time>2014-07-31T08:02:23Z</time>
      </trkpt>
      <trkpt lat="42.9266800" lon="-8.1615810">
        <ele>387.5</ele>
        <time>2014-07-31T08:02:30Z</time>
      </trkpt>
      <trkpt lat="42.9266720" lon="-8.1616190">
        <ele>387.6</ele>
        <time>2014-07-31T08:02:31Z</time>
      </trkpt>
      <trkpt lat="42.9266590" lon="-8.1616520">
        <ele>387.6</ele>
        <time>2014-07-31T08:02:32Z</time>
      </trkpt>
      <trkpt lat="42.9266470" lon="-8.1616830">
        <ele>387.7</ele>
        <time>2014-07-31T08:02:33Z</time>
      </trkpt>
      <trkpt lat="42.9266360" lon="-8.1617130">
        <ele>387.7</ele>
        <time>2014-07-31T08:02:34Z</time>
      </trkpt>
      <trkpt lat="42.9266340" lon="-8.1617550">
        <ele>387.8</ele>
        <time>2014-07-31T08:02:35Z</time>
      </trkpt>
      <trkpt lat="42.9266270" lon="-8.1617910">
        <ele>387.8</ele>
        <time>2014-07-31T08:02:36Z</time>
      </trkpt>
      <trkpt lat="42.9264770" lon="-8.1622470">
        <ele>388.2</ele>
        <time>2014-07-31T08:02:50Z</time>
      </trkpt>
      <trkpt lat="42.9263870" lon="-8.1626220">
        <ele>387.8</ele>
        <time>2014-07-31T08:03:02Z</time>
      </trkpt>
      <trkpt lat="42.9262850" lon="-8.1630010">
        <ele>387.0</ele>
        <time>2014-07-31T08:03:14Z</time>
      </trkpt>
      <trkpt lat="42.9262540" lon="-8.1630460">
        <ele>386.9</ele>
        <time>2014-07-31T08:03:16Z</time>
      </trkpt>
      <trkpt lat="42.9262340" lon="-8.1630610">
        <ele>386.8</ele>
        <time>2014-07-31T08:03:17Z</time>
      </trkpt>
      <trkpt lat="42.9261930" lon="-8.1631220">
        <ele>386.7</ele>
        <time>2014-07-31T08:03:20Z</time>
      </trkpt>
      <trkpt lat="42.9261990" lon="-8.1631650">
        <ele>386.6</ele>
        <time>2014-07-31T08:03:21Z</time>
      </trkpt>
      <trkpt lat="42.9262330" lon="-8.1636920">
        <ele>384.9</ele>
        <time>2014-07-31T08:03:35Z</time>
      </trkpt>
      <trkpt lat="42.9262330" lon="-8.1637990">
        <ele>384.8</ele>
        <time>2014-07-31T08:03:45Z</time>
      </trkpt>
      <trkpt lat="42.9262510" lon="-8.1639510">
        <ele>384.3</ele>
        <time>2014-07-31T08:04:06Z</time>
      </trkpt>
      <trkpt lat="42.9262640" lon="-8.1640310">
        <ele>383.9</ele>
        <time>2014-07-31T08:04:08Z</time>
      </trkpt>
      <trkpt lat="42.9262580" lon="-8.1645440">
        <ele>381.8</ele>
        <time>2014-07-31T08:04:20Z</time>
      </trkpt>
      <trkpt lat="42.9263660" lon="-8.1649070">
        <ele>378.2</ele>
        <time>2014-07-31T08:04:29Z</time>
      </trkpt>
      <trkpt lat="42.9263430" lon="-8.1650720">
        <ele>377.5</ele>
        <time>2014-07-31T08:04:33Z</time>
      </trkpt>
      <trkpt lat="42.9263530" lon="-8.1655710">
        <ele>373.4</ele>
        <time>2014-07-31T08:04:44Z</time>
      </trkpt>
      <trkpt lat="42.9264460" lon="-8.1658820">
        <ele>371.0</ele>
        <time>2014-07-31T08:04:51Z</time>
      </trkpt>
      <trkpt lat="42.9264750" lon="-8.1659530">
        <ele>370.6</ele>
        <time>2014-07-31T08:04:53Z</time>
      </trkpt>
      <trkpt lat="42.9266350" lon="-8.1663030">
        <ele>368.5</ele>
        <time>2014-07-31T08:05:04Z</time>
      </trkpt>
      <trkpt lat="42.9267980" lon="-8.1668630">
        <ele>365.5</ele>
        <time>2014-07-31T08:05:15Z</time>
      </trkpt>
      <trkpt lat="42.9268020" lon="-8.1674020">
        <ele>362.2</ele>
        <time>2014-07-31T08:05:26Z</time>
      </trkpt>
      <trkpt lat="42.9267940" lon="-8.1677290">
        <ele>359.3</ele>
        <time>2014-07-31T08:05:31Z</time>
      </trkpt>
      <trkpt lat="42.9268020" lon="-8.1680030">
        <ele>357.0</ele>
        <time>2014-07-31T08:05:36Z</time>
      </trkpt>
      <trkpt lat="42.9268560" lon="-8.1682840">
        <ele>354.1</ele>
        <time>2014-07-31T08:05:43Z</time>
      </trkpt>
      <trkpt lat="42.9268770" lon="-8.1683720">
        <ele>353.3</ele>
        <time>2014-07-31T08:05:45Z</time>
      </trkpt>
      <trkpt lat="42.9269530" lon="-8.1687660">
        <ele>350.1</ele>
        <time>2014-07-31T08:05:50Z</time>
      </trkpt>
      <trkpt lat="42.9270290" lon="-8.1691950">
        <ele>347.1</ele>
        <time>2014-07-31T08:05:54Z</time>
      </trkpt>
      <trkpt lat="42.9270800" lon="-8.1694340">
        <ele>345.6</ele>
        <time>2014-07-31T08:05:56Z</time>
      </trkpt>
      <trkpt lat="42.9271300" lon="-8.1696570">
        <ele>344.6</ele>
        <time>2014-07-31T08:05:58Z</time>
      </trkpt>
      <trkpt lat="42.9271670" lon="-8.1698600">
        <ele>343.4</ele>
        <time>2014-07-31T08:06:00Z</time>
      </trkpt>
      <trkpt lat="42.9271730" lon="-8.1699590">
        <ele>343.0</ele>
        <time>2014-07-31T08:06:01Z</time>
      </trkpt>
      <trkpt lat="42.9271700" lon="-8.1700540">
        <ele>342.7</ele>
        <time>2014-07-31T08:06:02Z</time>
      </trkpt>
      <trkpt lat="42.9271580" lon="-8.1701500">
        <ele>342.4</ele>
        <time>2014-07-31T08:06:03Z</time>
      </trkpt>
      <trkpt lat="42.9271370" lon="-8.1702450">
        <ele>342.2</ele>
        <time>2014-07-31T08:06:04Z</time>
      </trkpt>
      <trkpt lat="42.9271130" lon="-8.1703420">
        <ele>342.0</ele>
        <time>2014-07-31T08:06:05Z</time>
      </trkpt>
      <trkpt lat="42.9270320" lon="-8.1710570">
        <ele>343.3</ele>
        <time>2014-07-31T08:06:13Z</time>
      </trkpt>
      <trkpt lat="42.9270340" lon="-8.1711130">
        <ele>343.5</ele>
        <time>2014-07-31T08:06:14Z</time>
      </trkpt>
      <trkpt lat="42.9270300" lon="-8.1714240">
        <ele>345.3</ele>
        <time>2014-07-31T08:06:22Z</time>
      </trkpt>
      <trkpt lat="42.9270300" lon="-8.1714520">
        <ele>345.5</ele>
        <time>2014-07-31T08:06:23Z</time>
      </trkpt>
      <trkpt lat="42.9270330" lon="-8.1714810">
        <ele>345.6</ele>
        <time>2014-07-31T08:06:24Z</time>
      </trkpt>
      <trkpt lat="42.9270340" lon="-8.1715080">
        <ele>345.8</ele>
        <time>2014-07-31T08:06:25Z</time>
      </trkpt>
      <trkpt lat="42.9270370" lon="-8.1715320">
        <ele>346.0</ele>
        <time>2014-07-31T08:06:26Z</time>
      </trkpt>
      <trkpt lat="42.9270400" lon="-8.1715560">
        <ele>346.2</ele>
        <time>2014-07-31T08:06:27Z</time>
      </trkpt>
      <trkpt lat="42.9270390" lon="-8.1715790">
        <ele>346.3</ele>
        <time>2014-07-31T08:06:28Z</time>
      </trkpt>
      <trkpt lat="42.9270420" lon="-8.1716010">
        <ele>346.5</ele>
        <time>2014-07-31T08:06:29Z</time>
      </trkpt>
      <trkpt lat="42.9270450" lon="-8.1716250">
        <ele>346.6</ele>
        <time>2014-07-31T08:06:30Z</time>
      </trkpt>
      <trkpt lat="42.9270480" lon="-8.1716470">
        <ele>346.8</ele>
        <time>2014-07-31T08:06:31Z</time>
      </trkpt>
      <trkpt lat="42.9270500" lon="-8.1716640">
        <ele>346.9</ele>
        <time>2014-07-31T08:06:32Z</time>
      </trkpt>
      <trkpt lat="42.9270500" lon="-8.1716810">
        <ele>347.0</ele>
        <time>2014-07-31T08:06:33Z</time>
      </trkpt>
      <trkpt lat="42.9270830" lon="-8.1718660">
        <ele>348.7</ele>
        <time>2014-07-31T08:06:44Z</time>
      </trkpt>
      <trkpt lat="42.9271440" lon="-8.1720680">
        <ele>350.8</ele>
        <time>2014-07-31T08:06:56Z</time>
      </trkpt>
      <trkpt lat="42.9271730" lon="-8.1721320">
        <ele>351.6</ele>
        <time>2014-07-31T08:06:59Z</time>
      </trkpt>
      <trkpt lat="42.9272170" lon="-8.1722270">
        <ele>352.7</ele>
        <time>2014-07-31T08:07:03Z</time>
      </trkpt>
      <trkpt lat="42.9272350" lon="-8.1722520">
        <ele>353.1</ele>
        <time>2014-07-31T08:07:04Z</time>
      </trkpt>
      <trkpt lat="42.9272500" lon="-8.1722800">
        <ele>353.3</ele>
        <time>2014-07-31T08:07:05Z</time>
      </trkpt>
      <trkpt lat="42.9272730" lon="-8.1723310">
        <ele>353.7</ele>
        <time>2014-07-31T08:07:07Z</time>
      </trkpt>
      <trkpt lat="42.9272860" lon="-8.1723570">
        <ele>353.9</ele>
        <time>2014-07-31T08:07:08Z</time>
      </trkpt>
      <trkpt lat="42.9272930" lon="-8.1723820">
        <ele>354.1</ele>
        <time>2014-07-31T08:07:09Z</time>
      </trkpt>
      <trkpt lat="42.9273010" lon="-8.1724060">
        <ele>354.3</ele>
        <time>2014-07-31T08:07:10Z</time>
      </trkpt>
      <trkpt lat="42.9273100" lon="-8.1724310">
        <ele>354.5</ele>
        <time>2014-07-31T08:07:11Z</time>
      </trkpt>
      <trkpt lat="42.9273140" lon="-8.1724550">
        <ele>354.7</ele>
        <time>2014-07-31T08:07:12Z</time>
      </trkpt>
      <trkpt lat="42.9273190" lon="-8.1724780">
        <ele>354.9</ele>
        <time>2014-07-31T08:07:13Z</time>
      </trkpt>
      <trkpt lat="42.9273230" lon="-8.1724990">
        <ele>355.0</ele>
        <time>2014-07-31T08:07:14Z</time>
      </trkpt>
      <trkpt lat="42.9273250" lon="-8.1725240">
        <ele>355.2</ele>
        <time>2014-07-31T08:07:15Z</time>
      </trkpt>
      <trkpt lat="42.9273460" lon="-8.1726970">
        <ele>355.4</ele>
        <time>2014-07-31T08:07:22Z</time>
      </trkpt>
      <trkpt lat="42.9274130" lon="-8.1729210">
        <ele>355.1</ele>
        <time>2014-07-31T08:07:33Z</time>
      </trkpt>
      <trkpt lat="42.9274800" lon="-8.1732160">
        <ele>354.8</ele>
        <time>2014-07-31T08:07:45Z</time>
      </trkpt>
      <trkpt lat="42.9274950" lon="-8.1735990">
        <ele>354.3</ele>
        <time>2014-07-31T08:07:59Z</time>
      </trkpt>
      <trkpt lat="42.9273080" lon="-8.1738990">
        <ele>353.2</ele>
        <time>2014-07-31T08:08:06Z</time>
      </trkpt>
      <trkpt lat="42.9272690" lon="-8.1739420">
        <ele>353.1</ele>
        <time>2014-07-31T08:08:07Z</time>
      </trkpt>
      <trkpt lat="42.9272310" lon="-8.1739780">
        <ele>353.0</ele>
        <time>2014-07-31T08:08:08Z</time>
      </trkpt>
      <trkpt lat="42.9271890" lon="-8.1740090">
        <ele>352.9</ele>
        <time>2014-07-31T08:08:09Z</time>
      </trkpt>
      <trkpt lat="42.9271460" lon="-8.1740340">
        <ele>352.8</ele>
        <time>2014-07-31T08:08:10Z</time>
      </trkpt>
      <trkpt lat="42.9271070" lon="-8.1740580">
        <ele>352.7</ele>
        <time>2014-07-31T08:08:11Z</time>
      </trkpt>
      <trkpt lat="42.9270720" lon="-8.1740800">
        <ele>352.6</ele>
        <time>2014-07-31T08:08:12Z</time>
      </trkpt>
      <trkpt lat="42.9270410" lon="-8.1740890">
        <ele>352.5</ele>
        <time>2014-07-31T08:08:13Z</time>
      </trkpt>
      <trkpt lat="42.9270130" lon="-8.1740920">
        <ele>352.5</ele>
        <time>2014-07-31T08:08:14Z</time>
      </trkpt>
      <trkpt lat="42.9267710" lon="-8.1741470">
        <ele>352.1</ele>
        <time>2014-07-31T08:08:25Z</time>
      </trkpt>
      <trkpt lat="42.9266360" lon="-8.1742030">
        <ele>352.0</ele>
        <time>2014-07-31T08:08:30Z</time>
      </trkpt>
      <trkpt lat="42.9266120" lon="-8.1742230">
        <ele>352.0</ele>
        <time>2014-07-31T08:08:31Z</time>
      </trkpt>
      <trkpt lat="42.9265880" lon="-8.1742420">
        <ele>352.0</ele>
        <time>2014-07-31T08:08:32Z</time>
      </trkpt>
      <trkpt lat="42.9264840" lon="-8.1743700">
        <ele>352.0</ele>
        <time>2014-07-31T08:08:39Z</time>
      </trkpt>
      <trkpt lat="42.9264700" lon="-8.1743970">
        <ele>352.0</ele>
        <time>2014-07-31T08:08:40Z</time>
      </trkpt>
      <trkpt lat="42.9264520" lon="-8.1744210">
        <ele>351.9</ele>
        <time>2014-07-31T08:08:41Z</time>
      </trkpt>
      <trkpt lat="42.9264320" lon="-8.1744450">
        <ele>351.9</ele>
        <time>2014-07-31T08:08:42Z</time>
      </trkpt>
      <trkpt lat="42.9264160" lon="-8.1744750">
        <ele>351.9</ele>
        <time>2014-07-31T08:08:43Z</time>
      </trkpt>
      <trkpt lat="42.9264040" lon="-8.1745020">
        <ele>351.9</ele>
        <time>2014-07-31T08:08:44Z</time>
      </trkpt>
      <trkpt lat="42.9263910" lon="-8.1745280">
        <ele>351.9</ele>
        <time>2014-07-31T08:08:45Z</time>
      </trkpt>
      <trkpt lat="42.9263680" lon="-8.1745660">
        <ele>351.9</ele>
        <time>2014-07-31T08:08:46Z</time>
      </trkpt>
      <trkpt lat="42.9263440" lon="-8.1745970">
        <ele>351.9</ele>
        <time>2014-07-31T08:08:47Z</time>
      </trkpt>
      <trkpt lat="42.9263250" lon="-8.1746300">
        <ele>351.8</ele>
        <time>2014-07-31T08:08:48Z</time>
      </trkpt>
      <trkpt lat="42.9261150" lon="-8.1750580">
        <ele>351.2</ele>
        <time>2014-07-31T08:09:00Z</time>
      </trkpt>
      <trkpt lat="42.9260480" lon="-8.1752030">
        <ele>351.0</ele>
        <time>2014-07-31T08:09:15Z</time>
      </trkpt>
      <trkpt lat="42.9259000" lon="-8.1755910">
        <ele>349.9</ele>
        <time>2014-07-31T08:09:22Z</time>
      </trkpt>
      <trkpt lat="42.9258730" lon="-8.1756420">
        <ele>349.7</ele>
        <time>2014-07-31T08:09:23Z</time>
      </trkpt>
      <trkpt lat="42.9258460" lon="-8.1757010">
        <ele>349.6</ele>
        <time>2014-07-31T08:09:24Z</time>
      </trkpt>
      <trkpt lat="42.9258170" lon="-8.1757640">
        <ele>349.4</ele>
        <time>2014-07-31T08:09:25Z</time>
      </trkpt>
      <trkpt lat="42.9257820" lon="-8.1758260">
        <ele>349.2</ele>
        <time>2014-07-31T08:09:26Z</time>
      </trkpt>
      <trkpt lat="42.9257510" lon="-8.1758990">
        <ele>348.9</ele>
        <time>2014-07-31T08:09:27Z</time>
      </trkpt>
      <trkpt lat="42.9257290" lon="-8.1759810">
        <ele>348.5</ele>
        <time>2014-07-31T08:09:28Z</time>
      </trkpt>
      <trkpt lat="42.9257060" lon="-8.1760680">
        <ele>348.1</ele>
        <time>2014-07-31T08:09:29Z</time>
      </trkpt>
      <trkpt lat="42.9255420" lon="-8.1765530">
        <ele>345.7</ele>
        <time>2014-07-31T08:09:34Z</time>
      </trkpt>
      <trkpt lat="42.9253580" lon="-8.1771590">
        <ele>342.0</ele>
        <time>2014-07-31T08:09:39Z</time>
      </trkpt>
      <trkpt lat="42.9252980" lon="-8.1775280">
        <ele>340.1</ele>
        <time>2014-07-31T08:09:42Z</time>
      </trkpt>
      <trkpt lat="42.9252690" lon="-8.1780030">
        <ele>337.4</ele>
        <time>2014-07-31T08:09:46Z</time>
      </trkpt>
      <trkpt lat="42.9252720" lon="-8.1783910">
        <ele>335.1</ele>
        <time>2014-07-31T08:09:50Z</time>
      </trkpt>
      <trkpt lat="42.9252660" lon="-8.1787420">
        <ele>331.9</ele>
        <time>2014-07-31T08:09:54Z</time>
      </trkpt>
      <trkpt lat="42.9252670" lon="-8.1788340">
        <ele>331.0</ele>
        <time>2014-07-31T08:09:55Z</time>
      </trkpt>
      <trkpt lat="42.9252740" lon="-8.1789250">
        <ele>330.0</ele>
        <time>2014-07-31T08:09:56Z</time>
      </trkpt>
      <trkpt lat="42.9253140" lon="-8.1792090">
        <ele>327.7</ele>
        <time>2014-07-31T08:09:59Z</time>
      </trkpt>
      <trkpt lat="42.9253590" lon="-8.1793850">
        <ele>326.3</ele>
        <time>2014-07-31T08:10:01Z</time>
      </trkpt>
      <trkpt lat="42.9254720" lon="-8.1796860">
        <ele>324.0</ele>
        <time>2014-07-31T08:10:05Z</time>
      </trkpt>
      <trkpt lat="42.9256000" lon="-8.1799760">
        <ele>321.9</ele>
        <time>2014-07-31T08:10:09Z</time>
      </trkpt>
      <trkpt lat="42.9256250" lon="-8.1800420">
        <ele>321.3</ele>
        <time>2014-07-31T08:10:10Z</time>
      </trkpt>
      <trkpt lat="42.9256360" lon="-8.1801140">
        <ele>320.6</ele>
        <time>2014-07-31T08:10:11Z</time>
      </trkpt>
      <trkpt lat="42.9256330" lon="-8.1801780">
        <ele>320.0</ele>
        <time>2014-07-31T08:10:12Z</time>
      </trkpt>
      <trkpt lat="42.9256150" lon="-8.1802350">
        <ele>319.3</ele>
        <time>2014-07-31T08:10:13Z</time>
      </trkpt>
      <trkpt lat="42.9255830" lon="-8.1802830">
        <ele>318.7</ele>
        <time>2014-07-31T08:10:14Z</time>
      </trkpt>
      <trkpt lat="42.9255400" lon="-8.1803170">
        <ele>318.2</ele>
        <time>2014-07-31T08:10:15Z</time>
      </trkpt>
      <trkpt lat="42.9254920" lon="-8.1803350">
        <ele>317.8</ele>
        <time>2014-07-31T08:10:16Z</time>
      </trkpt>
      <trkpt lat="42.9254470" lon="-8.1803460">
        <ele>317.5</ele>
        <time>2014-07-31T08:10:17Z</time>
      </trkpt>
      <trkpt lat="42.9254110" lon="-8.1803560">
        <ele>317.2</ele>
        <time>2014-07-31T08:10:18Z</time>
      </trkpt>
      <trkpt lat="42.9253850" lon="-8.1803640">
        <ele>317.1</ele>
        <time>2014-07-31T08:10:19Z</time>
      </trkpt>
      <trkpt lat="42.9253910" lon="-8.1803700">
        <ele>317.0</ele>
        <time>2014-07-31T08:10:28Z</time>
      </trkpt>
      <trkpt lat="42.9252340" lon="-8.1803980">
        <ele>316.3</ele>
        <time>2014-07-31T08:10:49Z</time>
      </trkpt>
      <trkpt lat="42.9249510" lon="-8.1805310">
        <ele>314.9</ele>
        <time>2014-07-31T08:10:57Z</time>
      </trkpt>
      <trkpt lat="42.9249150" lon="-8.1805820">
        <ele>314.8</ele>
        <time>2014-07-31T08:10:58Z</time>
      </trkpt>
      <trkpt lat="42.9247540" lon="-8.1810510">
        <ele>313.6</ele>
        <time>2014-07-31T08:11:07Z</time>
      </trkpt>
      <trkpt lat="42.9246920" lon="-8.1815090">
        <ele>313.7</ele>
        <time>2014-07-31T08:11:17Z</time>
      </trkpt>
      <trkpt lat="42.9246050" lon="-8.1819070">
        <ele>314.4</ele>
        <time>2014-07-31T08:11:26Z</time>
      </trkpt>
      <trkpt lat="42.9246050" lon="-8.1820620">
        <ele>315.0</ele>
        <time>2014-07-31T08:11:30Z</time>
      </trkpt>
      <trkpt lat="42.9245850" lon="-8.1821490">
        <ele>315.5</ele>
        <time>2014-07-31T08:11:33Z</time>
      </trkpt>
      <trkpt lat="42.9245830" lon="-8.1821770">
        <ele>315.6</ele>
        <time>2014-07-31T08:11:34Z</time>
      </trkpt>
      <trkpt lat="42.9245780" lon="-8.1822320">
        <ele>315.9</ele>
        <time>2014-07-31T08:11:36Z</time>
      </trkpt>
      <trkpt lat="42.9245740" lon="-8.1822550">
        <ele>316.1</ele>
        <time>2014-07-31T08:11:37Z</time>
      </trkpt>
      <trkpt lat="42.9245740" lon="-8.1822770">
        <ele>316.2</ele>
        <time>2014-07-31T08:11:38Z</time>
      </trkpt>
      <trkpt lat="42.9245810" lon="-8.1824300">
        <ele>317.6</ele>
        <time>2014-07-31T08:11:44Z</time>
      </trkpt>
      <trkpt lat="42.9245850" lon="-8.1824480">
        <ele>317.8</ele>
        <time>2014-07-31T08:11:45Z</time>
      </trkpt>
      <trkpt lat="42.9245770" lon="-8.1825780">
        <ele>319.2</ele>
        <time>2014-07-31T08:11:51Z</time>
      </trkpt>
      <trkpt lat="42.9245750" lon="-8.1825990">
        <ele>319.4</ele>
        <time>2014-07-31T08:11:52Z</time>
      </trkpt>
      <trkpt lat="42.9245740" lon="-8.1826210">
        <ele>319.6</ele>
        <time>2014-07-31T08:11:53Z</time>
      </trkpt>
      <trkpt lat="42.9245740" lon="-8.1826420">
        <ele>319.8</ele>
        <time>2014-07-31T08:11:54Z</time>
      </trkpt>
      <trkpt lat="42.9245430" lon="-8.1827120">
        <ele>320.5</ele>
        <time>2014-07-31T08:11:59Z</time>
      </trkpt>
      <trkpt lat="42.9245380" lon="-8.1827320">
        <ele>320.6</ele>
        <time>2014-07-31T08:12:00Z</time>
      </trkpt>
      <trkpt lat="42.9245090" lon="-8.1827890">
        <ele>321.2</ele>
        <time>2014-07-31T08:12:03Z</time>
      </trkpt>
      <trkpt lat="42.9244970" lon="-8.1828080">
        <ele>321.4</ele>
        <time>2014-07-31T08:12:04Z</time>
      </trkpt>
      <trkpt lat="42.9244870" lon="-8.1828260">
        <ele>321.7</ele>
        <time>2014-07-31T08:12:05Z</time>
      </trkpt>
      <trkpt lat="42.9244240" lon="-8.1829810">
        <ele>323.2</ele>
        <time>2014-07-31T08:12:12Z</time>
      </trkpt>
      <trkpt lat="42.9244140" lon="-8.1830060">
        <ele>323.5</ele>
        <time>2014-07-31T08:12:13Z</time>
      </trkpt>
      <trkpt lat="42.9244040" lon="-8.1830270">
        <ele>323.7</ele>
        <time>2014-07-31T08:12:14Z</time>
      </trkpt>
      <trkpt lat="42.9243900" lon="-8.1830530">
        <ele>323.9</ele>
        <time>2014-07-31T08:12:15Z</time>
      </trkpt>
      <trkpt lat="42.9243750" lon="-8.1830730">
        <ele>324.1</ele>
        <time>2014-07-31T08:12:16Z</time>
      </trkpt>
      <trkpt lat="42.9243670" lon="-8.1830920">
        <ele>324.3</ele>
        <time>2014-07-31T08:12:17Z</time>
      </trkpt>
      <trkpt lat="42.9243360" lon="-8.1831370">
        <ele>324.8</ele>
        <time>2014-07-31T08:12:27Z</time>
      </trkpt>
      <trkpt lat="42.9243270" lon="-8.1831610">
        <ele>325.0</ele>
        <time>2014-07-31T08:12:31Z</time>
      </trkpt>
      <trkpt lat="42.9243160" lon="-8.1831770">
        <ele>325.2</ele>
        <time>2014-07-31T08:12:32Z</time>
      </trkpt>
      <trkpt lat="42.9243020" lon="-8.1831960">
        <ele>325.4</ele>
        <time>2014-07-31T08:12:33Z</time>
      </trkpt>
      <trkpt lat="42.9242910" lon="-8.1832150">
        <ele>325.7</ele>
        <time>2014-07-31T08:12:34Z</time>
      </trkpt>
      <trkpt lat="42.9242830" lon="-8.1832400">
        <ele>325.9</ele>
        <time>2014-07-31T08:12:35Z</time>
      </trkpt>
      <trkpt lat="42.9242390" lon="-8.1834460">
        <ele>327.7</ele>
        <time>2014-07-31T08:12:46Z</time>
      </trkpt>
      <trkpt lat="42.9242420" lon="-8.1835530">
        <ele>328.4</ele>
        <time>2014-07-31T08:12:51Z</time>
      </trkpt>
      <trkpt lat="42.9242510" lon="-8.1835960">
        <ele>328.7</ele>
        <time>2014-07-31T08:12:54Z</time>
      </trkpt>
      <trkpt lat="42.9242450" lon="-8.1836450">
        <ele>329.0</ele>
        <time>2014-07-31T08:12:56Z</time>
      </trkpt>
      <trkpt lat="42.9242410" lon="-8.1836710">
        <ele>329.2</ele>
        <time>2014-07-31T08:12:57Z</time>
      </trkpt>
      <trkpt lat="42.9242320" lon="-8.1839580">
        <ele>330.4</ele>
        <time>2014-07-31T08:13:11Z</time>
      </trkpt>
      <trkpt lat="42.9242420" lon="-8.1839870">
        <ele>330.5</ele>
        <time>2014-07-31T08:13:13Z</time>
      </trkpt>
      <trkpt lat="42.9242370" lon="-8.1840130">
        <ele>330.6</ele>
        <time>2014-07-31T08:13:14Z</time>
      </trkpt>
      <trkpt lat="42.9242310" lon="-8.1840320">
        <ele>330.6</ele>
        <time>2014-07-31T08:13:15Z</time>
      </trkpt>
      <trkpt lat="42.9242250" lon="-8.1840510">
        <ele>330.6</ele>
        <time>2014-07-31T08:13:16Z</time>
      </trkpt>
      <trkpt lat="42.9242120" lon="-8.1841410">
        <ele>330.8</ele>
        <time>2014-07-31T08:13:20Z</time>
      </trkpt>
      <trkpt lat="42.9242070" lon="-8.1841600">
        <ele>330.9</ele>
        <time>2014-07-31T08:13:21Z</time>
      </trkpt>
      <trkpt lat="42.9242030" lon="-8.1841860">
        <ele>330.9</ele>
        <time>2014-07-31T08:13:22Z</time>
      </trkpt>
      <trkpt lat="42.9241970" lon="-8.1842080">
        <ele>330.9</ele>
        <time>2014-07-31T08:13:23Z</time>
      </trkpt>
      <trkpt lat="42.9241880" lon="-8.1842340">
        <ele>331.0</ele>
        <time>2014-07-31T08:13:24Z</time>
      </trkpt>
      <trkpt lat="42.9241750" lon="-8.1843360">
        <ele>331.2</ele>
        <time>2014-07-31T08:13:28Z</time>
      </trkpt>
      <trkpt lat="42.9241620" lon="-8.1843620">
        <ele>331.2</ele>
        <time>2014-07-31T08:13:29Z</time>
      </trkpt>
      <trkpt lat="42.9239370" lon="-8.1846790">
        <ele>331.6</ele>
        <time>2014-07-31T08:13:44Z</time>
      </trkpt>
      <trkpt lat="42.9235790" lon="-8.1848300">
        <ele>331.6</ele>
        <time>2014-07-31T08:13:56Z</time>
      </trkpt>
      <trkpt lat="42.9231070" lon="-8.1849870">
        <ele>332.9</ele>
        <time>2014-07-31T08:14:08Z</time>
      </trkpt>
      <trkpt lat="42.9229810" lon="-8.1850560">
        <ele>332.9</ele>
        <time>2014-07-31T08:14:11Z</time>
      </trkpt>
      <trkpt lat="42.9228090" lon="-8.1852050">
        <ele>332.9</ele>
        <time>2014-07-31T08:14:15Z</time>
      </trkpt>
      <trkpt lat="42.9227750" lon="-8.1852590">
        <ele>332.9</ele>
        <time>2014-07-31T08:14:16Z</time>
      </trkpt>
      <trkpt lat="42.9226940" lon="-8.1854300">
        <ele>334.1</ele>
        <time>2014-07-31T08:14:19Z</time>
      </trkpt>
      <trkpt lat="42.9226390" lon="-8.1855450">
        <ele>334.9</ele>
        <time>2014-07-31T08:14:21Z</time>
      </trkpt>
      <trkpt lat="42.9226250" lon="-8.1856070">
        <ele>335.3</ele>
        <time>2014-07-31T08:14:22Z</time>
      </trkpt>
      <trkpt lat="42.9226230" lon="-8.1856710">
        <ele>335.4</ele>
        <time>2014-07-31T08:14:23Z</time>
      </trkpt>
      <trkpt lat="42.9226290" lon="-8.1857310">
        <ele>335.5</ele>
        <time>2014-07-31T08:14:24Z</time>
      </trkpt>
      <trkpt lat="42.9226380" lon="-8.1857880">
        <ele>335.5</ele>
        <time>2014-07-31T08:14:25Z</time>
      </trkpt>
      <trkpt lat="42.9226500" lon="-8.1858420">
        <ele>335.6</ele>
        <time>2014-07-31T08:14:26Z</time>
      </trkpt>
      <trkpt lat="42.9226820" lon="-8.1863640">
        <ele>337.7</ele>
        <time>2014-07-31T08:14:39Z</time>
      </trkpt>
      <trkpt lat="42.9226080" lon="-8.1867860">
        <ele>340.3</ele>
        <time>2014-07-31T08:14:53Z</time>
      </trkpt>
      <trkpt lat="42.9226930" lon="-8.1870860">
        <ele>343.9</ele>
        <time>2014-07-31T08:15:06Z</time>
      </trkpt>
      <trkpt lat="42.9227580" lon="-8.1872680">
        <ele>346.8</ele>
        <time>2014-07-31T08:15:13Z</time>
      </trkpt>
      <trkpt lat="42.9227570" lon="-8.1872970">
        <ele>347.2</ele>
        <time>2014-07-31T08:15:14Z</time>
      </trkpt>
      <trkpt lat="42.9227620" lon="-8.1873260">
        <ele>347.7</ele>
        <time>2014-07-31T08:15:15Z</time>
      </trkpt>
      <trkpt lat="42.9227690" lon="-8.1873520">
        <ele>348.2</ele>
        <time>2014-07-31T08:15:16Z</time>
      </trkpt>
      <trkpt lat="42.9227850" lon="-8.1876180">
        <ele>352.2</ele>
        <time>2014-07-31T08:15:28Z</time>
      </trkpt>
      <trkpt lat="42.9228570" lon="-8.1878470">
        <ele>354.3</ele>
        <time>2014-07-31T08:15:41Z</time>
      </trkpt>
      <trkpt lat="42.9230200" lon="-8.1879600">
        <ele>356.5</ele>
        <time>2014-07-31T08:15:54Z</time>
      </trkpt>
      <trkpt lat="42.9230330" lon="-8.1879750">
        <ele>356.7</ele>
        <time>2014-07-31T08:15:55Z</time>
      </trkpt>
      <trkpt lat="42.9231660" lon="-8.1882270">
        <ele>359.3</ele>
        <time>2014-07-31T08:16:08Z</time>
      </trkpt>
      <trkpt lat="42.9231210" lon="-8.1883090">
        <ele>359.8</ele>
        <time>2014-07-31T08:16:13Z</time>
      </trkpt>
      <trkpt lat="42.9230970" lon="-8.1883730">
        <ele>361.2</ele>
        <time>2014-07-31T08:16:16Z</time>
      </trkpt>
      <trkpt lat="42.9230050" lon="-8.1885240">
        <ele>363.0</ele>
        <time>2014-07-31T08:16:26Z</time>
      </trkpt>
      <trkpt lat="42.9230770" lon="-8.1885850">
        <ele>364.1</ele>
        <time>2014-07-31T08:16:33Z</time>
      </trkpt>
      <trkpt lat="42.9232940" lon="-8.1886920">
        <ele>366.6</ele>
        <time>2014-07-31T08:16:51Z</time>
      </trkpt>
      <trkpt lat="42.9233060" lon="-8.1887000">
        <ele>366.7</ele>
        <time>2014-07-31T08:16:52Z</time>
      </trkpt>
      <trkpt lat="42.9234090" lon="-8.1887550">
        <ele>367.1</ele>
        <time>2014-07-31T08:17:01Z</time>
      </trkpt>
      <trkpt lat="42.9236990" lon="-8.1888880">
        <ele>367.8</ele>
        <time>2014-07-31T08:17:16Z</time>
      </trkpt>
      <trkpt lat="42.9240580" lon="-8.1890530">
        <ele>368.2</ele>
        <time>2014-07-31T08:17:31Z</time>
      </trkpt>
      <trkpt lat="42.9244660" lon="-8.1892310">
        <ele>368.9</ele>
        <time>2014-07-31T08:17:45Z</time>
      </trkpt>
      <trkpt lat="42.9247970" lon="-8.1893860">
        <ele>369.9</ele>
        <time>2014-07-31T08:17:57Z</time>
      </trkpt>
      <trkpt lat="42.9252960" lon="-8.1895940">
        <ele>371.4</ele>
        <time>2014-07-31T08:18:14Z</time>
      </trkpt>
      <trkpt lat="42.9257890" lon="-8.1898180">
        <ele>372.9</ele>
        <time>2014-07-31T08:18:29Z</time>
      </trkpt>
      <trkpt lat="42.9261300" lon="-8.1900730">
        <ele>374.1</ele>
        <time>2014-07-31T08:18:40Z</time>
      </trkpt>
      <trkpt lat="42.9261790" lon="-8.1905530">
        <ele>375.4</ele>
        <time>2014-07-31T08:18:50Z</time>
      </trkpt>
      <trkpt lat="42.9261620" lon="-8.1910810">
        <ele>377.1</ele>
        <time>2014-07-31T08:19:03Z</time>
      </trkpt>
      <trkpt lat="42.9261650" lon="-8.1915610">
        <ele>378.8</ele>
        <time>2014-07-31T08:19:15Z</time>
      </trkpt>
      <trkpt lat="42.9261580" lon="-8.1919960">
        <ele>380.0</ele>
        <time>2014-07-31T08:19:26Z</time>
      </trkpt>
      <trkpt lat="42.9261600" lon="-8.1926680">
        <ele>381.6</ele>
        <time>2014-07-31T08:19:41Z</time>
      </trkpt>
      <trkpt lat="42.9262420" lon="-8.1932430">
        <ele>384.7</ele>
        <time>2014-07-31T08:19:54Z</time>
      </trkpt>
      <trkpt lat="42.9264010" lon="-8.1937790">
        <ele>386.6</ele>
        <time>2014-07-31T08:20:07Z</time>
      </trkpt>
      <trkpt lat="42.9265470" lon="-8.1944400">
        <ele>389.1</ele>
        <time>2014-07-31T08:20:21Z</time>
      </trkpt>
      <trkpt lat="42.9266720" lon="-8.1950490">
        <ele>391.4</ele>
        <time>2014-07-31T08:20:33Z</time>
      </trkpt>
      <trkpt lat="42.9266060" lon="-8.1957450">
        <ele>392.9</ele>
        <time>2014-07-31T08:20:46Z</time>
      </trkpt>
      <trkpt lat="42.9266090" lon="-8.1958040">
        <ele>393.0</ele>
        <time>2014-07-31T08:20:47Z</time>
      </trkpt>
      <trkpt lat="42.9266180" lon="-8.1958600">
        <ele>393.1</ele>
        <time>2014-07-31T08:20:48Z</time>
      </trkpt>
      <trkpt lat="42.9266210" lon="-8.1959150">
        <ele>393.2</ele>
        <time>2014-07-31T08:20:49Z</time>
      </trkpt>
      <trkpt lat="42.9266140" lon="-8.1959680">
        <ele>393.2</ele>
        <time>2014-07-31T08:20:50Z</time>
      </trkpt>
      <trkpt lat="42.9265970" lon="-8.1960180">
        <ele>393.3</ele>
        <time>2014-07-31T08:20:51Z</time>
      </trkpt>
      <trkpt lat="42.9265720" lon="-8.1960670">
        <ele>393.1</ele>
        <time>2014-07-31T08:20:52Z</time>
      </trkpt>
      <trkpt lat="42.9265450" lon="-8.1961150">
        <ele>393.0</ele>
        <time>2014-07-31T08:20:53Z</time>
      </trkpt>
      <trkpt lat="42.9265160" lon="-8.1961610">
        <ele>392.8</ele>
        <time>2014-07-31T08:20:54Z</time>
      </trkpt>
      <trkpt lat="42.9264190" lon="-8.1963060">
        <ele>392.3</ele>
        <time>2014-07-31T08:20:57Z</time>
      </trkpt>
      <trkpt lat="42.9263870" lon="-8.1963440">
        <ele>392.1</ele>
        <time>2014-07-31T08:20:58Z</time>
      </trkpt>
      <trkpt lat="42.9263560" lon="-8.1963840">
        <ele>391.9</ele>
        <time>2014-07-31T08:20:59Z</time>
      </trkpt>
      <trkpt lat="42.9263290" lon="-8.1964270">
        <ele>391.6</ele>
        <time>2014-07-31T08:21:00Z</time>
      </trkpt>
      <trkpt lat="42.9263040" lon="-8.1964720">
        <ele>391.4</ele>
        <time>2014-07-31T08:21:01Z</time>
      </trkpt>
      <trkpt lat="42.9262460" lon="-8.1965860">
        <ele>390.8</ele>
        <time>2014-07-31T08:21:03Z</time>
      </trkpt>
      <trkpt lat="42.9262220" lon="-8.1966470">
        <ele>390.6</ele>
        <time>2014-07-31T08:21:04Z</time>
      </trkpt>
      <trkpt lat="42.9261960" lon="-8.1967150">
        <ele>390.3</ele>
        <time>2014-07-31T08:21:05Z</time>
      </trkpt>
      <trkpt lat="42.9260560" lon="-8.1970810">
        <ele>388.6</ele>
        <time>2014-07-31T08:21:11Z</time>
      </trkpt>
      <trkpt lat="42.9260390" lon="-8.1971470">
        <ele>388.2</ele>
        <time>2014-07-31T08:21:12Z</time>
      </trkpt>
      <trkpt lat="42.9260180" lon="-8.1972160">
        <ele>387.7</ele>
        <time>2014-07-31T08:21:13Z</time>
      </trkpt>
      <trkpt lat="42.9259960" lon="-8.1972820">
        <ele>387.1</ele>
        <time>2014-07-31T08:21:14Z</time>
      </trkpt>
      <trkpt lat="42.9259790" lon="-8.1973440">
        <ele>386.7</ele>
        <time>2014-07-31T08:21:15Z</time>
      </trkpt>
      <trkpt lat="42.9259590" lon="-8.1974100">
        <ele>386.2</ele>
        <time>2014-07-31T08:21:16Z</time>
      </trkpt>
      <trkpt lat="42.9258760" lon="-8.1977980">
        <ele>384.0</ele>
        <time>2014-07-31T08:21:24Z</time>
      </trkpt>
      <trkpt lat="42.9258810" lon="-8.1978200">
        <ele>383.8</ele>
        <time>2014-07-31T08:21:25Z</time>
      </trkpt>
      <trkpt lat="42.9259100" lon="-8.1978740">
        <ele>383.1</ele>
        <time>2014-07-31T08:21:27Z</time>
      </trkpt>
      <trkpt lat="42.9259410" lon="-8.1979020">
        <ele>382.6</ele>
        <time>2014-07-31T08:21:28Z</time>
      </trkpt>
      <trkpt lat="42.9259810" lon="-8.1979310">
        <ele>381.9</ele>
        <time>2014-07-31T08:21:29Z</time>
      </trkpt>
      <trkpt lat="42.9260040" lon="-8.1979650">
        <ele>381.4</ele>
        <time>2014-07-31T08:21:30Z</time>
      </trkpt>
      <trkpt lat="42.9260320" lon="-8.1980000">
        <ele>380.8</ele>
        <time>2014-07-31T08:21:31Z</time>
      </trkpt>
      <trkpt lat="42.9260690" lon="-8.1980340">
        <ele>380.1</ele>
        <time>2014-07-31T08:21:32Z</time>
      </trkpt>
      <trkpt lat="42.9261110" lon="-8.1980730">
        <ele>379.4</ele>
        <time>2014-07-31T08:21:33Z</time>
      </trkpt>
      <trkpt lat="42.9261930" lon="-8.1981680">
        <ele>378.2</ele>
        <time>2014-07-31T08:21:35Z</time>
      </trkpt>
      <trkpt lat="42.9262360" lon="-8.1982190">
        <ele>377.5</ele>
        <time>2014-07-31T08:21:36Z</time>
      </trkpt>
      <trkpt lat="42.9263620" lon="-8.1983610">
        <ele>375.4</ele>
        <time>2014-07-31T08:21:39Z</time>
      </trkpt>
      <trkpt lat="42.9263960" lon="-8.1984020">
        <ele>374.9</ele>
        <time>2014-07-31T08:21:40Z</time>
      </trkpt>
      <trkpt lat="42.9264310" lon="-8.1984420">
        <ele>374.4</ele>
        <time>2014-07-31T08:21:41Z</time>
      </trkpt>
      <trkpt lat="42.9265300" lon="-8.1985670">
        <ele>372.7</ele>
        <time>2014-07-31T08:21:44Z</time>
      </trkpt>
      <trkpt lat="42.9265640" lon="-8.1986050">
        <ele>372.1</ele>
        <time>2014-07-31T08:21:45Z</time>
      </trkpt>
      <trkpt lat="42.9265990" lon="-8.1986460">
        <ele>371.5</ele>
        <time>2014-07-31T08:21:46Z</time>
      </trkpt>
      <trkpt lat="42.9268580" lon="-8.1989170">
        <ele>367.7</ele>
        <time>2014-07-31T08:21:53Z</time>
      </trkpt>
      <trkpt lat="42.9269720" lon="-8.1990420">
        <ele>366.2</ele>
        <time>2014-07-31T08:21:56Z</time>
      </trkpt>
      <trkpt lat="42.9270050" lon="-8.1990980">
        <ele>365.8</ele>
        <time>2014-07-31T08:21:57Z</time>
      </trkpt>
      <trkpt lat="42.9270430" lon="-8.1991550">
        <ele>365.5</ele>
        <time>2014-07-31T08:21:58Z</time>
      </trkpt>
      <trkpt lat="42.9270810" lon="-8.1992100">
        <ele>365.2</ele>
        <time>2014-07-31T08:21:59Z</time>
      </trkpt>
      <trkpt lat="42.9271130" lon="-8.1992740">
        <ele>365.0</ele>
        <time>2014-07-31T08:22:00Z</time>
      </trkpt>
      <trkpt lat="42.9271430" lon="-8.1993340">
        <ele>364.8</ele>
        <time>2014-07-31T08:22:01Z</time>
      </trkpt>
      <trkpt lat="42.9271760" lon="-8.1993920">
        <ele>364.6</ele>
        <time>2014-07-31T08:22:02Z</time>
      </trkpt>
      <trkpt lat="42.9273140" lon="-8.1996820">
        <ele>363.4</ele>
        <time>2014-07-31T08:22:07Z</time>
      </trkpt>
      <trkpt lat="42.9274050" lon="-8.1998960">
        <ele>362.5</ele>
        <time>2014-07-31T08:22:10Z</time>
      </trkpt>
      <trkpt lat="42.9276670" lon="-8.2006130">
        <ele>360.9</ele>
        <time>2014-07-31T08:22:21Z</time>
      </trkpt>
      <trkpt lat="42.9276770" lon="-8.2006390">
        <ele>360.9</ele>
        <time>2014-07-31T08:22:22Z</time>
      </trkpt>
      <trkpt lat="42.9276850" lon="-8.2006700">
        <ele>360.9</ele>
        <time>2014-07-31T08:22:35Z</time>
      </trkpt>
      <trkpt lat="42.9276850" lon="-8.2006700">
        <ele>360.9</ele>
        <time>2014-07-31T08:23:01Z</time>
      </trkpt>
      <trkpt lat="42.9276650" lon="-8.2008670">
        <ele>360.8</ele>
        <time>2014-07-31T08:23:14Z</time>
      </trkpt>
      <trkpt lat="42.9276640" lon="-8.2008880">
        <ele>360.9</ele>
        <time>2014-07-31T08:23:15Z</time>
      </trkpt>
      <trkpt lat="42.9276520" lon="-8.2009910">
        <ele>361.3</ele>
        <time>2014-07-31T08:23:20Z</time>
      </trkpt>
      <trkpt lat="42.9276400" lon="-8.2010190">
        <ele>361.5</ele>
        <time>2014-07-31T08:23:21Z</time>
      </trkpt>
      <trkpt lat="42.9276330" lon="-8.2010540">
        <ele>361.7</ele>
        <time>2014-07-31T08:23:22Z</time>
      </trkpt>
      <trkpt lat="42.9276340" lon="-8.2010870">
        <ele>361.9</ele>
        <time>2014-07-31T08:23:23Z</time>
      </trkpt>
      <trkpt lat="42.9276340" lon="-8.2011090">
        <ele>362.1</ele>
        <time>2014-07-31T08:23:24Z</time>
      </trkpt>
      <trkpt lat="42.9276310" lon="-8.2011310">
        <ele>362.2</ele>
        <time>2014-07-31T08:23:25Z</time>
      </trkpt>
      <trkpt lat="42.9276320" lon="-8.2011810">
        <ele>362.6</ele>
        <time>2014-07-31T08:23:27Z</time>
      </trkpt>
      <trkpt lat="42.9276420" lon="-8.2012250">
        <ele>362.9</ele>
        <time>2014-07-31T08:23:29Z</time>
      </trkpt>
      <trkpt lat="42.9276660" lon="-8.2012570">
        <ele>363.2</ele>
        <time>2014-07-31T08:23:31Z</time>
      </trkpt>
      <trkpt lat="42.9276940" lon="-8.2013450">
        <ele>363.8</ele>
        <time>2014-07-31T08:23:35Z</time>
      </trkpt>
      <trkpt lat="42.9276990" lon="-8.2013770">
        <ele>364.0</ele>
        <time>2014-07-31T08:23:36Z</time>
      </trkpt>
      <trkpt lat="42.9277030" lon="-8.2013990">
        <ele>364.2</ele>
        <time>2014-07-31T08:23:37Z</time>
      </trkpt>
      <trkpt lat="42.9277140" lon="-8.2014460">
        <ele>364.5</ele>
        <time>2014-07-31T08:23:39Z</time>
      </trkpt>
      <trkpt lat="42.9277200" lon="-8.2014610">
        <ele>364.7</ele>
        <time>2014-07-31T08:23:40Z</time>
      </trkpt>
      <trkpt lat="42.9277210" lon="-8.2014860">
        <ele>364.9</ele>
        <time>2014-07-31T08:23:41Z</time>
      </trkpt>
      <trkpt lat="42.9278170" lon="-8.2017530">
        <ele>367.7</ele>
        <time>2014-07-31T08:23:52Z</time>
      </trkpt>
      <trkpt lat="42.9278320" lon="-8.2018530">
        <ele>368.9</ele>
        <time>2014-07-31T08:23:57Z</time>
      </trkpt>
      <trkpt lat="42.9278340" lon="-8.2018780">
        <ele>369.2</ele>
        <time>2014-07-31T08:23:58Z</time>
      </trkpt>
      <trkpt lat="42.9278440" lon="-8.2020060">
        <ele>370.8</ele>
        <time>2014-07-31T08:24:04Z</time>
      </trkpt>
      <trkpt lat="42.9278490" lon="-8.2020260">
        <ele>371.1</ele>
        <time>2014-07-31T08:24:05Z</time>
      </trkpt>
      <trkpt lat="42.9278480" lon="-8.2020430">
        <ele>371.2</ele>
        <time>2014-07-31T08:24:06Z</time>
      </trkpt>
      <trkpt lat="42.9278390" lon="-8.2020580">
        <ele>371.5</ele>
        <time>2014-07-31T08:24:07Z</time>
      </trkpt>
      <trkpt lat="42.9278370" lon="-8.2021060">
        <ele>372.0</ele>
        <time>2014-07-31T08:24:10Z</time>
      </trkpt>
      <trkpt lat="42.9278330" lon="-8.2021300">
        <ele>372.3</ele>
        <time>2014-07-31T08:24:11Z</time>
      </trkpt>
      <trkpt lat="42.9278240" lon="-8.2022250">
        <ele>373.3</ele>
        <time>2014-07-31T08:24:15Z</time>
      </trkpt>
      <trkpt lat="42.9278190" lon="-8.2022510">
        <ele>373.5</ele>
        <time>2014-07-31T08:24:16Z</time>
      </trkpt>
      <trkpt lat="42.9278130" lon="-8.2022720">
        <ele>373.7</ele>
        <time>2014-07-31T08:24:17Z</time>
      </trkpt>
      <trkpt lat="42.9278080" lon="-8.2022910">
        <ele>373.9</ele>
        <time>2014-07-31T08:24:18Z</time>
      </trkpt>
      <trkpt lat="42.9278020" lon="-8.2023060">
        <ele>374.0</ele>
        <time>2014-07-31T08:24:19Z</time>
      </trkpt>
      <trkpt lat="42.9277950" lon="-8.2023230">
        <ele>374.2</ele>
        <time>2014-07-31T08:24:20Z</time>
      </trkpt>
      <trkpt lat="42.9277910" lon="-8.2023430">
        <ele>374.4</ele>
        <time>2014-07-31T08:24:21Z</time>
      </trkpt>
      <trkpt lat="42.9277880" lon="-8.2023590">
        <ele>374.6</ele>
        <time>2014-07-31T08:24:22Z</time>
      </trkpt>
      <trkpt lat="42.9277880" lon="-8.2024260">
        <ele>375.2</ele>
        <time>2014-07-31T08:24:26Z</time>
      </trkpt>
      <trkpt lat="42.9277840" lon="-8.2024400">
        <ele>375.3</ele>
        <time>2014-07-31T08:24:27Z</time>
      </trkpt>
      <trkpt lat="42.9277830" lon="-8.2024540">
        <ele>375.4</ele>
        <time>2014-07-31T08:24:28Z</time>
      </trkpt>
      <trkpt lat="42.9277810" lon="-8.2024930">
        <ele>375.8</ele>
        <time>2014-07-31T08:24:40Z</time>
      </trkpt>
      <trkpt lat="42.9277350" lon="-8.2027050">
        <ele>377.6</ele>
        <time>2014-07-31T08:24:52Z</time>
      </trkpt>
      <trkpt lat="42.9277370" lon="-8.2027200">
        <ele>377.7</ele>
        <time>2014-07-31T08:24:53Z</time>
      </trkpt>
      <trkpt lat="42.9277390" lon="-8.2027360">
        <ele>377.8</ele>
        <time>2014-07-31T08:24:54Z</time>
      </trkpt>
      <trkpt lat="42.9277420" lon="-8.2027540">
        <ele>377.9</ele>
        <time>2014-07-31T08:24:55Z</time>
      </trkpt>
      <trkpt lat="42.9277420" lon="-8.2027740">
        <ele>378.1</ele>
        <time>2014-07-31T08:24:56Z</time>
      </trkpt>
      <trkpt lat="42.9277390" lon="-8.2027940">
        <ele>378.2</ele>
        <time>2014-07-31T08:24:57Z</time>
      </trkpt>
      <trkpt lat="42.9277360" lon="-8.2028820">
        <ele>378.8</ele>
        <time>2014-07-31T08:25:01Z</time>
      </trkpt>
      <trkpt lat="42.9277300" lon="-8.2029060">
        <ele>378.9</ele>
        <time>2014-07-31T08:25:02Z</time>
      </trkpt>
      <trkpt lat="42.9277200" lon="-8.2029710">
        <ele>379.4</ele>
        <time>2014-07-31T08:25:05Z</time>
      </trkpt>
      <trkpt lat="42.9277180" lon="-8.2030520">
        <ele>379.9</ele>
        <time>2014-07-31T08:25:10Z</time>
      </trkpt>
      <trkpt lat="42.9277110" lon="-8.2030790">
        <ele>380.1</ele>
        <time>2014-07-31T08:25:11Z</time>
      </trkpt>
      <trkpt lat="42.9276630" lon="-8.2032460">
        <ele>381.4</ele>
        <time>2014-07-31T08:25:18Z</time>
      </trkpt>
      <trkpt lat="42.9276540" lon="-8.2032740">
        <ele>381.6</ele>
        <time>2014-07-31T08:25:19Z</time>
      </trkpt>
      <trkpt lat="42.9276410" lon="-8.2033200">
        <ele>381.9</ele>
        <time>2014-07-31T08:25:21Z</time>
      </trkpt>
      <trkpt lat="42.9276310" lon="-8.2033470">
        <ele>382.1</ele>
        <time>2014-07-31T08:25:22Z</time>
      </trkpt>
      <trkpt lat="42.9276250" lon="-8.2033740">
        <ele>382.3</ele>
        <time>2014-07-31T08:25:23Z</time>
      </trkpt>
      <trkpt lat="42.9276220" lon="-8.2033990">
        <ele>382.4</ele>
        <time>2014-07-31T08:25:24Z</time>
      </trkpt>
      <trkpt lat="42.9276150" lon="-8.2034280">
        <ele>382.6</ele>
        <time>2014-07-31T08:25:25Z</time>
      </trkpt>
      <trkpt lat="42.9275490" lon="-8.2037680">
        <ele>384.5</ele>
        <time>2014-07-31T08:25:39Z</time>
      </trkpt>
      <trkpt lat="42.9275300" lon="-8.2039900">
        <ele>385.8</ele>
        <time>2014-07-31T08:25:49Z</time>
      </trkpt>
      <trkpt lat="42.9275210" lon="-8.2040280">
        <ele>386.1</ele>
        <time>2014-07-31T08:25:51Z</time>
      </trkpt>
      <trkpt lat="42.9275230" lon="-8.2040610">
        <ele>386.3</ele>
        <time>2014-07-31T08:25:53Z</time>
      </trkpt>
      <trkpt lat="42.9274790" lon="-8.2043620">
        <ele>387.8</ele>
        <time>2014-07-31T08:26:05Z</time>
      </trkpt>
      <trkpt lat="42.9274710" lon="-8.2047050">
        <ele>389.5</ele>
        <time>2014-07-31T08:26:17Z</time>
      </trkpt>
      <trkpt lat="42.9274740" lon="-8.2047310">
        <ele>389.6</ele>
        <time>2014-07-31T08:26:18Z</time>
      </trkpt>
      <trkpt lat="42.9274750" lon="-8.2047560">
        <ele>389.7</ele>
        <time>2014-07-31T08:26:19Z</time>
      </trkpt>
      <trkpt lat="42.9274720" lon="-8.2047830">
        <ele>389.8</ele>
        <time>2014-07-31T08:26:20Z</time>
      </trkpt>
      <trkpt lat="42.9274700" lon="-8.2050370">
        <ele>390.7</ele>
        <time>2014-07-31T08:26:29Z</time>
      </trkpt>
      <trkpt lat="42.9274670" lon="-8.2053480">
        <ele>392.2</ele>
        <time>2014-07-31T08:26:40Z</time>
      </trkpt>
      <trkpt lat="42.9274560" lon="-8.2053790">
        <ele>392.3</ele>
        <time>2014-07-31T08:26:41Z</time>
      </trkpt>
      <trkpt lat="42.9274380" lon="-8.2057310">
        <ele>393.5</ele>
        <time>2014-07-31T08:26:52Z</time>
      </trkpt>
      <trkpt lat="42.9274850" lon="-8.2061740">
        <ele>394.6</ele>
        <time>2014-07-31T08:27:05Z</time>
      </trkpt>
      <trkpt lat="42.9275020" lon="-8.2064910">
        <ele>395.5</ele>
        <time>2014-07-31T08:27:16Z</time>
      </trkpt>
      <trkpt lat="42.9275080" lon="-8.2065130">
        <ele>395.5</ele>
        <time>2014-07-31T08:27:17Z</time>
      </trkpt>
      <trkpt lat="42.9275150" lon="-8.2065380">
        <ele>395.6</ele>
        <time>2014-07-31T08:27:18Z</time>
      </trkpt>
      <trkpt lat="42.9275200" lon="-8.2065630">
        <ele>395.6</ele>
        <time>2014-07-31T08:27:19Z</time>
      </trkpt>
      <trkpt lat="42.9275210" lon="-8.2065920">
        <ele>395.7</ele>
        <time>2014-07-31T08:27:20Z</time>
      </trkpt>
      <trkpt lat="42.9275210" lon="-8.2066200">
        <ele>395.7</ele>
        <time>2014-07-31T08:27:21Z</time>
      </trkpt>
      <trkpt lat="42.9275320" lon="-8.2066560">
        <ele>395.8</ele>
        <time>2014-07-31T08:27:22Z</time>
      </trkpt>
      <trkpt lat="42.9275420" lon="-8.2066860">
        <ele>395.9</ele>
        <time>2014-07-31T08:27:23Z</time>
      </trkpt>
      <trkpt lat="42.9275600" lon="-8.2067250">
        <ele>395.9</ele>
        <time>2014-07-31T08:27:24Z</time>
      </trkpt>
      <trkpt lat="42.9275740" lon="-8.2067650">
        <ele>396.0</ele>
        <time>2014-07-31T08:27:25Z</time>
      </trkpt>
      <trkpt lat="42.9275830" lon="-8.2068150">
        <ele>396.1</ele>
        <time>2014-07-31T08:27:26Z</time>
      </trkpt>
      <trkpt lat="42.9275950" lon="-8.2068590">
        <ele>396.1</ele>
        <time>2014-07-31T08:27:27Z</time>
      </trkpt>
      <trkpt lat="42.9275980" lon="-8.2069120">
        <ele>396.2</ele>
        <time>2014-07-31T08:27:28Z</time>
      </trkpt>
      <trkpt lat="42.9275960" lon="-8.2069660">
        <ele>396.2</ele>
        <time>2014-07-31T08:27:29Z</time>
      </trkpt>
      <trkpt lat="42.9275980" lon="-8.2070130">
        <ele>396.2</ele>
        <time>2014-07-31T08:27:30Z</time>
      </trkpt>
      <trkpt lat="42.9276320" lon="-8.2074710">
        <ele>396.3</ele>
        <time>2014-07-31T08:27:41Z</time>
      </trkpt>
      <trkpt lat="42.9276440" lon="-8.2075570">
        <ele>396.3</ele>
        <time>2014-07-31T08:27:44Z</time>
      </trkpt>
      <trkpt lat="42.9276400" lon="-8.2075890">
        <ele>396.3</ele>
        <time>2014-07-31T08:27:45Z</time>
      </trkpt>
      <trkpt lat="42.9276280" lon="-8.2076210">
        <ele>396.3</ele>
        <time>2014-07-31T08:27:46Z</time>
      </trkpt>
      <trkpt lat="42.9276120" lon="-8.2076520">
        <ele>396.3</ele>
        <time>2014-07-31T08:27:47Z</time>
      </trkpt>
      <trkpt lat="42.9275980" lon="-8.2076810">
        <ele>396.3</ele>
        <time>2014-07-31T08:27:48Z</time>
      </trkpt>
      <trkpt lat="42.9275860" lon="-8.2077110">
        <ele>396.3</ele>
        <time>2014-07-31T08:27:49Z</time>
      </trkpt>
      <trkpt lat="42.9275770" lon="-8.2077450">
        <ele>396.3</ele>
        <time>2014-07-31T08:27:50Z</time>
      </trkpt>
      <trkpt lat="42.9275790" lon="-8.2077770">
        <ele>396.3</ele>
        <time>2014-07-31T08:27:51Z</time>
      </trkpt>
      <trkpt lat="42.9275920" lon="-8.2078090">
        <ele>396.3</ele>
        <time>2014-07-31T08:27:52Z</time>
      </trkpt>
      <trkpt lat="42.9277400" lon="-8.2082480">
        <ele>397.6</ele>
        <time>2014-07-31T08:28:04Z</time>
      </trkpt>
      <trkpt lat="42.9279640" lon="-8.2087530">
        <ele>400.2</ele>
        <time>2014-07-31T08:28:19Z</time>
      </trkpt>
      <trkpt lat="42.9281450" lon="-8.2090520">
        <ele>401.8</ele>
        <time>2014-07-31T08:28:31Z</time>
      </trkpt>
      <trkpt lat="42.9281540" lon="-8.2090890">
        <ele>402.0</ele>
        <time>2014-07-31T08:28:32Z</time>
      </trkpt>
      <trkpt lat="42.9281630" lon="-8.2091210">
        <ele>402.1</ele>
        <time>2014-07-31T08:28:33Z</time>
      </trkpt>
      <trkpt lat="42.9281690" lon="-8.2091490">
        <ele>402.2</ele>
        <time>2014-07-31T08:28:34Z</time>
      </trkpt>
      <trkpt lat="42.9282390" lon="-8.2093420">
        <ele>402.8</ele>
        <time>2014-07-31T08:28:43Z</time>
      </trkpt>
      <trkpt lat="42.9283670" lon="-8.2096770">
        <ele>403.6</ele>
        <time>2014-07-31T08:28:55Z</time>
      </trkpt>
      <trkpt lat="42.9284680" lon="-8.2100160">
        <ele>404.0</ele>
        <time>2014-07-31T08:29:06Z</time>
      </trkpt>
      <trkpt lat="42.9285150" lon="-8.2101410">
        <ele>404.0</ele>
        <time>2014-07-31T08:29:18Z</time>
      </trkpt>
      <trkpt lat="42.9285300" lon="-8.2101810">
        <ele>403.9</ele>
        <time>2014-07-31T08:29:35Z</time>
      </trkpt>
      <trkpt lat="42.9285230" lon="-8.2102350">
        <ele>403.9</ele>
        <time>2014-07-31T08:29:48Z</time>
      </trkpt>
      <trkpt lat="42.9285230" lon="-8.2102350">
        <ele>403.9</ele>
        <time>2014-07-31T08:30:11Z</time>
      </trkpt>
      <trkpt lat="42.9285200" lon="-8.2102450">
        <ele>403.9</ele>
        <time>2014-07-31T08:30:41Z</time>
      </trkpt>
      <trkpt lat="42.9285210" lon="-8.2102530">
        <ele>403.9</ele>
        <time>2014-07-31T08:31:14Z</time>
      </trkpt>
      <trkpt lat="42.9285210" lon="-8.2102510">
        <ele>403.9</ele>
        <time>2014-07-31T08:31:53Z</time>
      </trkpt>
      <trkpt lat="42.9285220" lon="-8.2102550">
        <ele>403.9</ele>
        <time>2014-07-31T08:32:26Z</time>
      </trkpt>
      <trkpt lat="42.9285260" lon="-8.2102640">
        <ele>403.9</ele>
        <time>2014-07-31T08:33:04Z</time>
      </trkpt>
      <trkpt lat="42.9285260" lon="-8.2102640">
        <ele>403.9</ele>
        <time>2014-07-31T08:33:39Z</time>
      </trkpt>
      <trkpt lat="42.9285240" lon="-8.2102800">
        <ele>403.9</ele>
        <time>2014-07-31T08:34:20Z</time>
      </trkpt>
      <trkpt lat="42.9285360" lon="-8.2103070">
        <ele>403.8</ele>
        <time>2014-07-31T08:34:47Z</time>
      </trkpt>
      <trkpt lat="42.9285480" lon="-8.2103960">
        <ele>403.6</ele>
        <time>2014-07-31T08:35:04Z</time>
      </trkpt>
      <trkpt lat="42.9286220" lon="-8.2107990">
        <ele>402.6</ele>
        <time>2014-07-31T08:35:14Z</time>
      </trkpt>
      <trkpt lat="42.9286240" lon="-8.2108630">
        <ele>402.3</ele>
        <time>2014-07-31T08:35:15Z</time>
      </trkpt>
      <trkpt lat="42.9286240" lon="-8.2109270">
        <ele>402.1</ele>
        <time>2014-07-31T08:35:16Z</time>
      </trkpt>
      <trkpt lat="42.9286210" lon="-8.2109810">
        <ele>401.8</ele>
        <time>2014-07-31T08:35:17Z</time>
      </trkpt>
      <trkpt lat="42.9286170" lon="-8.2110350">
        <ele>401.6</ele>
        <time>2014-07-31T08:35:18Z</time>
      </trkpt>
      <trkpt lat="42.9286210" lon="-8.2111050">
        <ele>401.4</ele>
        <time>2014-07-31T08:35:19Z</time>
      </trkpt>
      <trkpt lat="42.9286320" lon="-8.2111850">
        <ele>401.1</ele>
        <time>2014-07-31T08:35:20Z</time>
      </trkpt>
      <trkpt lat="42.9286420" lon="-8.2112670">
        <ele>400.9</ele>
        <time>2014-07-31T08:35:21Z</time>
      </trkpt>
      <trkpt lat="42.9286480" lon="-8.2113480">
        <ele>400.7</ele>
        <time>2014-07-31T08:35:22Z</time>
      </trkpt>
      <trkpt lat="42.9286540" lon="-8.2114260">
        <ele>400.5</ele>
        <time>2014-07-31T08:35:23Z</time>
      </trkpt>
      <trkpt lat="42.9286530" lon="-8.2114990">
        <ele>400.3</ele>
        <time>2014-07-31T08:35:24Z</time>
      </trkpt>
      <trkpt lat="42.9286560" lon="-8.2115750">
        <ele>400.1</ele>
        <time>2014-07-31T08:35:25Z</time>
      </trkpt>
      <trkpt lat="42.9286950" lon="-8.2118590">
        <ele>399.6</ele>
        <time>2014-07-31T08:35:29Z</time>
      </trkpt>
      <trkpt lat="42.9287010" lon="-8.2119290">
        <ele>399.5</ele>
        <time>2014-07-31T08:35:30Z</time>
      </trkpt>
      <trkpt lat="42.9287060" lon="-8.2119950">
        <ele>399.4</ele>
        <time>2014-07-31T08:35:31Z</time>
      </trkpt>
      <trkpt lat="42.9287260" lon="-8.2123150">
        <ele>399.0</ele>
        <time>2014-07-31T08:35:36Z</time>
      </trkpt>
      <trkpt lat="42.9287340" lon="-8.2123920">
        <ele>398.9</ele>
        <time>2014-07-31T08:35:37Z</time>
      </trkpt>
      <trkpt lat="42.9287530" lon="-8.2129170">
        <ele>398.8</ele>
        <time>2014-07-31T08:35:46Z</time>
      </trkpt>
      <trkpt lat="42.9287960" lon="-8.2133870">
        <ele>399.0</ele>
        <time>2014-07-31T08:35:54Z</time>
      </trkpt>
      <trkpt lat="42.9288100" lon="-8.2134510">
        <ele>399.0</ele>
        <time>2014-07-31T08:35:55Z</time>
      </trkpt>
      <trkpt lat="42.9288130" lon="-8.2135140">
        <ele>399.1</ele>
        <time>2014-07-31T08:35:56Z</time>
      </trkpt>
      <trkpt lat="42.9288100" lon="-8.2135770">
        <ele>399.1</ele>
        <time>2014-07-31T08:35:57Z</time>
      </trkpt>
      <trkpt lat="42.9288070" lon="-8.2136480">
        <ele>399.1</ele>
        <time>2014-07-31T08:35:58Z</time>
      </trkpt>
      <trkpt lat="42.9288050" lon="-8.2137170">
        <ele>399.2</ele>
        <time>2014-07-31T08:35:59Z</time>
      </trkpt>
      <trkpt lat="42.9287990" lon="-8.2137800">
        <ele>399.3</ele>
        <time>2014-07-31T08:36:00Z</time>
      </trkpt>
      <trkpt lat="42.9287630" lon="-8.2139790">
        <ele>399.5</ele>
        <time>2014-07-31T08:36:03Z</time>
      </trkpt>
      <trkpt lat="42.9287520" lon="-8.2140480">
        <ele>399.5</ele>
        <time>2014-07-31T08:36:04Z</time>
      </trkpt>
      <trkpt lat="42.9287340" lon="-8.2141130">
        <ele>399.6</ele>
        <time>2014-07-31T08:36:05Z</time>
      </trkpt>
      <trkpt lat="42.9287140" lon="-8.2141720">
        <ele>399.7</ele>
        <time>2014-07-31T08:36:06Z</time>
      </trkpt>
      <trkpt lat="42.9286890" lon="-8.2142300">
        <ele>399.8</ele>
        <time>2014-07-31T08:36:07Z</time>
      </trkpt>
      <trkpt lat="42.9286610" lon="-8.2142850">
        <ele>399.9</ele>
        <time>2014-07-31T08:36:08Z</time>
      </trkpt>
      <trkpt lat="42.9286320" lon="-8.2143340">
        <ele>400.0</ele>
        <time>2014-07-31T08:36:09Z</time>
      </trkpt>
      <trkpt lat="42.9285450" lon="-8.2144840">
        <ele>400.4</ele>
        <time>2014-07-31T08:36:12Z</time>
      </trkpt>
      <trkpt lat="42.9285110" lon="-8.2145310">
        <ele>400.6</ele>
        <time>2014-07-31T08:36:13Z</time>
      </trkpt>
      <trkpt lat="42.9284830" lon="-8.2145820">
        <ele>400.7</ele>
        <time>2014-07-31T08:36:14Z</time>
      </trkpt>
      <trkpt lat="42.9283850" lon="-8.2148000">
        <ele>401.5</ele>
        <time>2014-07-31T08:36:18Z</time>
      </trkpt>
      <trkpt lat="42.9283690" lon="-8.2148550">
        <ele>401.6</ele>
        <time>2014-07-31T08:36:19Z</time>
      </trkpt>
      <trkpt lat="42.9283550" lon="-8.2149020">
        <ele>401.9</ele>
        <time>2014-07-31T08:36:20Z</time>
      </trkpt>
      <trkpt lat="42.9283410" lon="-8.2149450">
        <ele>402.1</ele>
        <time>2014-07-31T08:36:21Z</time>
      </trkpt>
      <trkpt lat="42.9283250" lon="-8.2149890">
        <ele>402.3</ele>
        <time>2014-07-31T08:36:22Z</time>
      </trkpt>
      <trkpt lat="42.9283060" lon="-8.2150360">
        <ele>402.6</ele>
        <time>2014-07-31T08:36:23Z</time>
      </trkpt>
      <trkpt lat="42.9281770" lon="-8.2152950">
        <ele>404.4</ele>
        <time>2014-07-31T08:36:28Z</time>
      </trkpt>
      <trkpt lat="42.9277920" lon="-8.2163610">
        <ele>405.8</ele>
        <time>2014-07-31T08:36:45Z</time>
      </trkpt>
      <trkpt lat="42.9274780" lon="-8.2172000">
        <ele>403.8</ele>
        <time>2014-07-31T08:36:55Z</time>
      </trkpt>
      <trkpt lat="42.9274150" lon="-8.2173760">
        <ele>402.9</ele>
        <time>2014-07-31T08:36:57Z</time>
      </trkpt>
      <trkpt lat="42.9271930" lon="-8.2178720">
        <ele>398.0</ele>
        <time>2014-07-31T08:37:03Z</time>
      </trkpt>
      <trkpt lat="42.9271510" lon="-8.2179320">
        <ele>397.1</ele>
        <time>2014-07-31T08:37:04Z</time>
      </trkpt>
      <trkpt lat="42.9271100" lon="-8.2179810">
        <ele>396.2</ele>
        <time>2014-07-31T08:37:05Z</time>
      </trkpt>
      <trkpt lat="42.9270700" lon="-8.2180190">
        <ele>395.5</ele>
        <time>2014-07-31T08:37:06Z</time>
      </trkpt>
      <trkpt lat="42.9270350" lon="-8.2180550">
        <ele>394.5</ele>
        <time>2014-07-31T08:37:07Z</time>
      </trkpt>
      <trkpt lat="42.9270080" lon="-8.2181030">
        <ele>394.0</ele>
        <time>2014-07-31T08:37:08Z</time>
      </trkpt>
      <trkpt lat="42.9269850" lon="-8.2181620">
        <ele>393.5</ele>
        <time>2014-07-31T08:37:09Z</time>
      </trkpt>
      <trkpt lat="42.9269590" lon="-8.2182310">
        <ele>392.9</ele>
        <time>2014-07-31T08:37:10Z</time>
      </trkpt>
      <trkpt lat="42.9268850" lon="-8.2184860">
        <ele>390.0</ele>
        <time>2014-07-31T08:37:13Z</time>
      </trkpt>
      <trkpt lat="42.9267370" lon="-8.2190440">
        <ele>386.1</ele>
        <time>2014-07-31T08:37:19Z</time>
      </trkpt>
      <trkpt lat="42.9266850" lon="-8.2192320">
        <ele>385.7</ele>
        <time>2014-07-31T08:37:21Z</time>
      </trkpt>
      <trkpt lat="42.9266640" lon="-8.2193220">
        <ele>385.5</ele>
        <time>2014-07-31T08:37:22Z</time>
      </trkpt>
      <trkpt lat="42.9265830" lon="-8.2196350">
        <ele>385.1</ele>
        <time>2014-07-31T08:37:26Z</time>
      </trkpt>
      <trkpt lat="42.9265690" lon="-8.2197020">
        <ele>385.0</ele>
        <time>2014-07-31T08:37:27Z</time>
      </trkpt>
      <trkpt lat="42.9264270" lon="-8.2202360">
        <ele>384.9</ele>
        <time>2014-07-31T08:37:34Z</time>
      </trkpt>
      <trkpt lat="42.9264050" lon="-8.2203140">
        <ele>384.9</ele>
        <time>2014-07-31T08:37:35Z</time>
      </trkpt>
      <trkpt lat="42.9262820" lon="-8.2208470">
        <ele>384.9</ele>
        <time>2014-07-31T08:37:43Z</time>
      </trkpt>
      <trkpt lat="42.9262690" lon="-8.2209070">
        <ele>384.9</ele>
        <time>2014-07-31T08:37:44Z</time>
      </trkpt>
      <trkpt lat="42.9260740" lon="-8.2214810">
        <ele>385.3</ele>
        <time>2014-07-31T08:37:55Z</time>
      </trkpt>
      <trkpt lat="42.9259170" lon="-8.2221700">
        <ele>386.4</ele>
        <time>2014-07-31T08:38:09Z</time>
      </trkpt>
      <trkpt lat="42.9259290" lon="-8.2228170">
        <ele>387.1</ele>
        <time>2014-07-31T08:38:22Z</time>
      </trkpt>
      <trkpt lat="42.9259000" lon="-8.2229740">
        <ele>387.1</ele>
        <time>2014-07-31T08:38:25Z</time>
      </trkpt>
      <trkpt lat="42.9258830" lon="-8.2230250">
        <ele>387.1</ele>
        <time>2014-07-31T08:38:26Z</time>
      </trkpt>
      <trkpt lat="42.9255720" lon="-8.2239110">
        <ele>388.6</ele>
        <time>2014-07-31T08:38:43Z</time>
      </trkpt>
      <trkpt lat="42.9254030" lon="-8.2242800">
        <ele>388.7</ele>
        <time>2014-07-31T08:38:51Z</time>
      </trkpt>
      <trkpt lat="42.9253760" lon="-8.2243300">
        <ele>388.7</ele>
        <time>2014-07-31T08:38:52Z</time>
      </trkpt>
      <trkpt lat="42.9253460" lon="-8.2243760">
        <ele>388.6</ele>
        <time>2014-07-31T08:38:53Z</time>
      </trkpt>
      <trkpt lat="42.9252400" lon="-8.2245810">
        <ele>388.3</ele>
        <time>2014-07-31T08:38:57Z</time>
      </trkpt>
      <trkpt lat="42.9250860" lon="-8.2249780">
        <ele>388.2</ele>
        <time>2014-07-31T08:39:04Z</time>
      </trkpt>
      <trkpt lat="42.9250630" lon="-8.2250310">
        <ele>388.2</ele>
        <time>2014-07-31T08:39:05Z</time>
      </trkpt>
      <trkpt lat="42.9250390" lon="-8.2250880">
        <ele>388.1</ele>
        <time>2014-07-31T08:39:06Z</time>
      </trkpt>
      <trkpt lat="42.9249940" lon="-8.2252010">
        <ele>388.1</ele>
        <time>2014-07-31T08:39:08Z</time>
      </trkpt>
      <trkpt lat="42.9249710" lon="-8.2252590">
        <ele>388.1</ele>
        <time>2014-07-31T08:39:09Z</time>
      </trkpt>
      <trkpt lat="42.9247740" lon="-8.2258070">
        <ele>387.9</ele>
        <time>2014-07-31T08:39:19Z</time>
      </trkpt>
      <trkpt lat="42.9246750" lon="-8.2260240">
        <ele>387.2</ele>
        <time>2014-07-31T08:39:23Z</time>
      </trkpt>
      <trkpt lat="42.9246100" lon="-8.2262070">
        <ele>386.8</ele>
        <time>2014-07-31T08:39:26Z</time>
      </trkpt>
      <trkpt lat="42.9245220" lon="-8.2263810">
        <ele>386.3</ele>
        <time>2014-07-31T08:39:29Z</time>
      </trkpt>
      <trkpt lat="42.9244840" lon="-8.2264350">
        <ele>386.2</ele>
        <time>2014-07-31T08:39:30Z</time>
      </trkpt>
      <trkpt lat="42.9244440" lon="-8.2264800">
        <ele>386.0</ele>
        <time>2014-07-31T08:39:31Z</time>
      </trkpt>
      <trkpt lat="42.9242490" lon="-8.2266680">
        <ele>385.6</ele>
        <time>2014-07-31T08:39:36Z</time>
      </trkpt>
      <trkpt lat="42.9242120" lon="-8.2267070">
        <ele>385.6</ele>
        <time>2014-07-31T08:39:37Z</time>
      </trkpt>
      <trkpt lat="42.9241790" lon="-8.2267440">
        <ele>385.5</ele>
        <time>2014-07-31T08:39:38Z</time>
      </trkpt>
      <trkpt lat="42.9240510" lon="-8.2269080">
        <ele>385.3</ele>
        <time>2014-07-31T08:39:42Z</time>
      </trkpt>
      <trkpt lat="42.9238610" lon="-8.2273080">
        <ele>385.2</ele>
        <time>2014-07-31T08:39:49Z</time>
      </trkpt>
      <trkpt lat="42.9235950" lon="-8.2278020">
        <ele>385.4</ele>
        <time>2014-07-31T08:39:59Z</time>
      </trkpt>
      <trkpt lat="42.9234550" lon="-8.2281610">
        <ele>387.3</ele>
        <time>2014-07-31T08:40:09Z</time>
      </trkpt>
      <trkpt lat="42.9232740" lon="-8.2283480">
        <ele>389.7</ele>
        <time>2014-07-31T08:40:21Z</time>
      </trkpt>
      <trkpt lat="42.9232620" lon="-8.2283660">
        <ele>389.9</ele>
        <time>2014-07-31T08:40:22Z</time>
      </trkpt>
      <trkpt lat="42.9232520" lon="-8.2283870">
        <ele>390.1</ele>
        <time>2014-07-31T08:40:23Z</time>
      </trkpt>
      <trkpt lat="42.9232440" lon="-8.2284090">
        <ele>390.2</ele>
        <time>2014-07-31T08:40:24Z</time>
      </trkpt>
      <trkpt lat="42.9232390" lon="-8.2284260">
        <ele>390.4</ele>
        <time>2014-07-31T08:40:25Z</time>
      </trkpt>
      <trkpt lat="42.9232310" lon="-8.2284410">
        <ele>390.5</ele>
        <time>2014-07-31T08:40:26Z</time>
      </trkpt>
      <trkpt lat="42.9232180" lon="-8.2284510">
        <ele>390.6</ele>
        <time>2014-07-31T08:40:27Z</time>
      </trkpt>
      <trkpt lat="42.9232040" lon="-8.2284630">
        <ele>390.8</ele>
        <time>2014-07-31T08:40:28Z</time>
      </trkpt>
      <trkpt lat="42.9231920" lon="-8.2284810">
        <ele>390.9</ele>
        <time>2014-07-31T08:40:29Z</time>
      </trkpt>
      <trkpt lat="42.9231810" lon="-8.2284970">
        <ele>391.1</ele>
        <time>2014-07-31T08:40:30Z</time>
      </trkpt>
      <trkpt lat="42.9229890" lon="-8.2287900">
        <ele>393.3</ele>
        <time>2014-07-31T08:40:43Z</time>
      </trkpt>
      <trkpt lat="42.9228760" lon="-8.2290140">
        <ele>394.6</ele>
        <time>2014-07-31T08:40:53Z</time>
      </trkpt>
      <trkpt lat="42.9228650" lon="-8.2290360">
        <ele>394.8</ele>
        <time>2014-07-31T08:40:54Z</time>
      </trkpt>
      <trkpt lat="42.9228510" lon="-8.2290600">
        <ele>394.9</ele>
        <time>2014-07-31T08:40:55Z</time>
      </trkpt>
      <trkpt lat="42.9227010" lon="-8.2294290">
        <ele>396.5</ele>
        <time>2014-07-31T08:41:07Z</time>
      </trkpt>
      <trkpt lat="42.9225150" lon="-8.2299210">
        <ele>397.4</ele>
        <time>2014-07-31T08:41:19Z</time>
      </trkpt>
      <trkpt lat="42.9223670" lon="-8.2303170">
        <ele>397.3</ele>
        <time>2014-07-31T08:41:29Z</time>
      </trkpt>
      <trkpt lat="42.9223250" lon="-8.2304540">
        <ele>397.1</ele>
        <time>2014-07-31T08:41:32Z</time>
      </trkpt>
      <trkpt lat="42.9222050" lon="-8.2308110">
        <ele>395.8</ele>
        <time>2014-07-31T08:41:37Z</time>
      </trkpt>
      <trkpt lat="42.9221110" lon="-8.2311500">
        <ele>394.4</ele>
        <time>2014-07-31T08:41:41Z</time>
      </trkpt>
      <trkpt lat="42.9220370" lon="-8.2313790">
        <ele>393.4</ele>
        <time>2014-07-31T08:41:45Z</time>
      </trkpt>
      <trkpt lat="42.9220140" lon="-8.2314310">
        <ele>393.2</ele>
        <time>2014-07-31T08:41:46Z</time>
      </trkpt>
      <trkpt lat="42.9219910" lon="-8.2314880">
        <ele>393.0</ele>
        <time>2014-07-31T08:41:47Z</time>
      </trkpt>
      <trkpt lat="42.9219450" lon="-8.2316080">
        <ele>392.7</ele>
        <time>2014-07-31T08:41:49Z</time>
      </trkpt>
      <trkpt lat="42.9218230" lon="-8.2318680">
        <ele>392.1</ele>
        <time>2014-07-31T08:41:53Z</time>
      </trkpt>
      <trkpt lat="42.9217970" lon="-8.2319400">
        <ele>392.0</ele>
        <time>2014-07-31T08:41:54Z</time>
      </trkpt>
      <trkpt lat="42.9215060" lon="-8.2325270">
        <ele>390.9</ele>
        <time>2014-07-31T08:42:03Z</time>
      </trkpt>
      <trkpt lat="42.9213250" lon="-8.2329090">
        <ele>390.7</ele>
        <time>2014-07-31T08:42:09Z</time>
      </trkpt>
      <trkpt lat="42.9212980" lon="-8.2329620">
        <ele>390.7</ele>
        <time>2014-07-31T08:42:10Z</time>
      </trkpt>
      <trkpt lat="42.9212760" lon="-8.2330150">
        <ele>390.6</ele>
        <time>2014-07-31T08:42:11Z</time>
      </trkpt>
      <trkpt lat="42.9212570" lon="-8.2330630">
        <ele>390.6</ele>
        <time>2014-07-31T08:42:12Z</time>
      </trkpt>
      <trkpt lat="42.9212380" lon="-8.2331040">
        <ele>390.6</ele>
        <time>2014-07-31T08:42:13Z</time>
      </trkpt>
      <trkpt lat="42.9212200" lon="-8.2331400">
        <ele>390.6</ele>
        <time>2014-07-31T08:42:14Z</time>
      </trkpt>
      <trkpt lat="42.9212050" lon="-8.2331860">
        <ele>390.6</ele>
        <time>2014-07-31T08:42:15Z</time>
      </trkpt>
      <trkpt lat="42.9211930" lon="-8.2332380">
        <ele>390.6</ele>
        <time>2014-07-31T08:42:16Z</time>
      </trkpt>
      <trkpt lat="42.9211740" lon="-8.2332860">
        <ele>390.5</ele>
        <time>2014-07-31T08:42:17Z</time>
      </trkpt>
      <trkpt lat="42.9211470" lon="-8.2333270">
        <ele>390.5</ele>
        <time>2014-07-31T08:42:18Z</time>
      </trkpt>
      <trkpt lat="42.9211170" lon="-8.2333660">
        <ele>390.5</ele>
        <time>2014-07-31T08:42:19Z</time>
      </trkpt>
      <trkpt lat="42.9210890" lon="-8.2334080">
        <ele>390.5</ele>
        <time>2014-07-31T08:42:20Z</time>
      </trkpt>
      <trkpt lat="42.9210290" lon="-8.2335180">
        <ele>390.2</ele>
        <time>2014-07-31T08:42:22Z</time>
      </trkpt>
      <trkpt lat="42.9210040" lon="-8.2335810">
        <ele>390.0</ele>
        <time>2014-07-31T08:42:23Z</time>
      </trkpt>
      <trkpt lat="42.9208880" lon="-8.2339290">
        <ele>389.1</ele>
        <time>2014-07-31T08:42:28Z</time>
      </trkpt>
      <trkpt lat="42.9208730" lon="-8.2340090">
        <ele>388.9</ele>
        <time>2014-07-31T08:42:29Z</time>
      </trkpt>
      <trkpt lat="42.9208640" lon="-8.2340900">
        <ele>388.7</ele>
        <time>2014-07-31T08:42:30Z</time>
      </trkpt>
      <trkpt lat="42.9208600" lon="-8.2341700">
        <ele>388.5</ele>
        <time>2014-07-31T08:42:31Z</time>
      </trkpt>
      <trkpt lat="42.9208570" lon="-8.2342510">
        <ele>388.4</ele>
        <time>2014-07-31T08:42:32Z</time>
      </trkpt>
      <trkpt lat="42.9208290" lon="-8.2345510">
        <ele>387.9</ele>
        <time>2014-07-31T08:42:36Z</time>
      </trkpt>
      <trkpt lat="42.9208140" lon="-8.2346230">
        <ele>387.9</ele>
        <time>2014-07-31T08:42:37Z</time>
      </trkpt>
      <trkpt lat="42.9207930" lon="-8.2346980">
        <ele>387.9</ele>
        <time>2014-07-31T08:42:38Z</time>
      </trkpt>
      <trkpt lat="42.9207220" lon="-8.2348920">
        <ele>388.0</ele>
        <time>2014-07-31T08:42:41Z</time>
      </trkpt>
      <trkpt lat="42.9205750" lon="-8.2352150">
        <ele>388.8</ele>
        <time>2014-07-31T08:42:46Z</time>
      </trkpt>
      <trkpt lat="42.9204480" lon="-8.2354980">
        <ele>389.1</ele>
        <time>2014-07-31T08:42:51Z</time>
      </trkpt>
      <trkpt lat="42.9204180" lon="-8.2356450">
        <ele>389.0</ele>
        <time>2014-07-31T08:42:53Z</time>
      </trkpt>
      <trkpt lat="42.9204080" lon="-8.2360330">
        <ele>387.7</ele>
        <time>2014-07-31T08:42:58Z</time>
      </trkpt>
      <trkpt lat="42.9204060" lon="-8.2361210">
        <ele>387.1</ele>
        <time>2014-07-31T08:42:59Z</time>
      </trkpt>
      <trkpt lat="42.9204060" lon="-8.2363730">
        <ele>385.4</ele>
        <time>2014-07-31T08:43:02Z</time>
      </trkpt>
      <trkpt lat="42.9204000" lon="-8.2368680">
        <ele>382.6</ele>
        <time>2014-07-31T08:43:11Z</time>
      </trkpt>
      <trkpt lat="42.9203750" lon="-8.2369660">
        <ele>382.0</ele>
        <time>2014-07-31T08:43:13Z</time>
      </trkpt>
      <trkpt lat="42.9202970" lon="-8.2371500">
        <ele>380.3</ele>
        <time>2014-07-31T08:43:16Z</time>
      </trkpt>
      <trkpt lat="42.9202520" lon="-8.2372050">
        <ele>379.6</ele>
        <time>2014-07-31T08:43:17Z</time>
      </trkpt>
      <trkpt lat="42.9201350" lon="-8.2373050">
        <ele>378.2</ele>
        <time>2014-07-31T08:43:19Z</time>
      </trkpt>
      <trkpt lat="42.9198960" lon="-8.2374960">
        <ele>376.7</ele>
        <time>2014-07-31T08:43:23Z</time>
      </trkpt>
      <trkpt lat="42.9198580" lon="-8.2375510">
        <ele>376.4</ele>
        <time>2014-07-31T08:43:24Z</time>
      </trkpt>
      <trkpt lat="42.9198310" lon="-8.2376080">
        <ele>376.1</ele>
        <time>2014-07-31T08:43:25Z</time>
      </trkpt>
      <trkpt lat="42.9198150" lon="-8.2376620">
        <ele>376.0</ele>
        <time>2014-07-31T08:43:26Z</time>
      </trkpt>
      <trkpt lat="42.9198010" lon="-8.2377050">
        <ele>375.8</ele>
        <time>2014-07-31T08:43:27Z</time>
      </trkpt>
      <trkpt lat="42.9197900" lon="-8.2377380">
        <ele>375.7</ele>
        <time>2014-07-31T08:43:28Z</time>
      </trkpt>
      <trkpt lat="42.9196360" lon="-8.2381110">
        <ele>375.0</ele>
        <time>2014-07-31T08:43:39Z</time>
      </trkpt>
      <trkpt lat="42.9194370" lon="-8.2385690">
        <ele>374.2</ele>
        <time>2014-07-31T08:43:48Z</time>
      </trkpt>
      <trkpt lat="42.9193570" lon="-8.2387370">
        <ele>373.9</ele>
        <time>2014-07-31T08:43:51Z</time>
      </trkpt>
      <trkpt lat="42.9193060" lon="-8.2388610">
        <ele>373.6</ele>
        <time>2014-07-31T08:43:53Z</time>
      </trkpt>
      <trkpt lat="42.9192760" lon="-8.2389260">
        <ele>373.4</ele>
        <time>2014-07-31T08:43:54Z</time>
      </trkpt>
      <trkpt lat="42.9191950" lon="-8.2391130">
        <ele>372.7</ele>
        <time>2014-07-31T08:43:57Z</time>
      </trkpt>
      <trkpt lat="42.9190260" lon="-8.2394610">
        <ele>370.8</ele>
        <time>2014-07-31T08:44:08Z</time>
      </trkpt>
      <trkpt lat="42.9189050" lon="-8.2396540">
        <ele>369.2</ele>
        <time>2014-07-31T08:44:16Z</time>
      </trkpt>
      <trkpt lat="42.9188820" lon="-8.2396990">
        <ele>368.8</ele>
        <time>2014-07-31T08:44:17Z</time>
      </trkpt>
      <trkpt lat="42.9188580" lon="-8.2397450">
        <ele>368.5</ele>
        <time>2014-07-31T08:44:18Z</time>
      </trkpt>
      <trkpt lat="42.9185810" lon="-8.2400590">
        <ele>365.4</ele>
        <time>2014-07-31T08:44:26Z</time>
      </trkpt>
      <trkpt lat="42.9185410" lon="-8.2401190">
        <ele>364.8</ele>
        <time>2014-07-31T08:44:27Z</time>
      </trkpt>
      <trkpt lat="42.9185020" lon="-8.2401790">
        <ele>364.2</ele>
        <time>2014-07-31T08:44:28Z</time>
      </trkpt>
      <trkpt lat="42.9184580" lon="-8.2402300">
        <ele>363.6</ele>
        <time>2014-07-31T08:44:29Z</time>
      </trkpt>
      <trkpt lat="42.9184140" lon="-8.2402750">
        <ele>363.1</ele>
        <time>2014-07-31T08:44:30Z</time>
      </trkpt>
      <trkpt lat="42.9183750" lon="-8.2403090">
        <ele>362.6</ele>
        <time>2014-07-31T08:44:31Z</time>
      </trkpt>
      <trkpt lat="42.9183400" lon="-8.2403350">
        <ele>362.1</ele>
        <time>2014-07-31T08:44:32Z</time>
      </trkpt>
      <trkpt lat="42.9183100" lon="-8.2403550">
        <ele>361.9</ele>
        <time>2014-07-31T08:44:33Z</time>
      </trkpt>
      <trkpt lat="42.9182830" lon="-8.2403780">
        <ele>361.7</ele>
        <time>2014-07-31T08:44:34Z</time>
      </trkpt>
      <trkpt lat="42.9181200" lon="-8.2406760">
        <ele>359.6</ele>
        <time>2014-07-31T08:44:44Z</time>
      </trkpt>
      <trkpt lat="42.9179870" lon="-8.2410360">
        <ele>355.5</ele>
        <time>2014-07-31T08:44:53Z</time>
      </trkpt>
      <trkpt lat="42.9179550" lon="-8.2411350">
        <ele>354.7</ele>
        <time>2014-07-31T08:44:55Z</time>
      </trkpt>
      <trkpt lat="42.9177400" lon="-8.2415620">
        <ele>350.5</ele>
        <time>2014-07-31T08:45:04Z</time>
      </trkpt>
      <trkpt lat="42.9177400" lon="-8.2416050">
        <ele>350.1</ele>
        <time>2014-07-31T08:45:05Z</time>
      </trkpt>
      <trkpt lat="42.9177430" lon="-8.2416490">
        <ele>349.6</ele>
        <time>2014-07-31T08:45:06Z</time>
      </trkpt>
      <trkpt lat="42.9178480" lon="-8.2419940">
        <ele>346.8</ele>
        <time>2014-07-31T08:45:14Z</time>
      </trkpt>
      <trkpt lat="42.9178780" lon="-8.2421130">
        <ele>346.1</ele>
        <time>2014-07-31T08:45:17Z</time>
      </trkpt>
      <trkpt lat="42.9178740" lon="-8.2421490">
        <ele>345.9</ele>
        <time>2014-07-31T08:45:18Z</time>
      </trkpt>
      <trkpt lat="42.9178730" lon="-8.2421810">
        <ele>345.7</ele>
        <time>2014-07-31T08:45:19Z</time>
      </trkpt>
      <trkpt lat="42.9178770" lon="-8.2422120">
        <ele>345.6</ele>
        <time>2014-07-31T08:45:20Z</time>
      </trkpt>
      <trkpt lat="42.9178820" lon="-8.2422400">
        <ele>345.4</ele>
        <time>2014-07-31T08:45:21Z</time>
      </trkpt>
      <trkpt lat="42.9178900" lon="-8.2422700">
        <ele>345.3</ele>
        <time>2014-07-31T08:45:22Z</time>
      </trkpt>
      <trkpt lat="42.9178980" lon="-8.2423070">
        <ele>345.1</ele>
        <time>2014-07-31T08:45:23Z</time>
      </trkpt>
      <trkpt lat="42.9179090" lon="-8.2423440">
        <ele>345.0</ele>
        <time>2014-07-31T08:45:24Z</time>
      </trkpt>
      <trkpt lat="42.9179230" lon="-8.2423800">
        <ele>344.8</ele>
        <time>2014-07-31T08:45:25Z</time>
      </trkpt>
      <trkpt lat="42.9180800" lon="-8.2428480">
        <ele>342.2</ele>
        <time>2014-07-31T08:45:37Z</time>
      </trkpt>
      <trkpt lat="42.9180940" lon="-8.2428890">
        <ele>342.0</ele>
        <time>2014-07-31T08:45:38Z</time>
      </trkpt>
      <trkpt lat="42.9181240" lon="-8.2429290">
        <ele>341.8</ele>
        <time>2014-07-31T08:45:39Z</time>
      </trkpt>
      <trkpt lat="42.9181590" lon="-8.2429680">
        <ele>341.7</ele>
        <time>2014-07-31T08:45:40Z</time>
      </trkpt>
      <trkpt lat="42.9181930" lon="-8.2430210">
        <ele>341.6</ele>
        <time>2014-07-31T08:45:41Z</time>
      </trkpt>
      <trkpt lat="42.9182180" lon="-8.2430830">
        <ele>341.5</ele>
        <time>2014-07-31T08:45:42Z</time>
      </trkpt>
      <trkpt lat="42.9182410" lon="-8.2431390">
        <ele>341.4</ele>
        <time>2014-07-31T08:45:43Z</time>
      </trkpt>
      <trkpt lat="42.9182550" lon="-8.2431850">
        <ele>341.3</ele>
        <time>2014-07-31T08:45:44Z</time>
      </trkpt>
      <trkpt lat="42.9182570" lon="-8.2432190">
        <ele>341.2</ele>
        <time>2014-07-31T08:45:45Z</time>
      </trkpt>
      <trkpt lat="42.9181450" lon="-8.2433510">
        <ele>340.7</ele>
        <time>2014-07-31T08:45:53Z</time>
      </trkpt>
      <trkpt lat="42.9181290" lon="-8.2433600">
        <ele>340.6</ele>
        <time>2014-07-31T08:45:54Z</time>
      </trkpt>
      <trkpt lat="42.9178780" lon="-8.2435660">
        <ele>339.3</ele>
        <time>2014-07-31T08:46:06Z</time>
      </trkpt>
      <trkpt lat="42.9178410" lon="-8.2435940">
        <ele>339.1</ele>
        <time>2014-07-31T08:46:07Z</time>
      </trkpt>
      <trkpt lat="42.9178040" lon="-8.2436130">
        <ele>338.9</ele>
        <time>2014-07-31T08:46:08Z</time>
      </trkpt>
      <trkpt lat="42.9177740" lon="-8.2436290">
        <ele>338.7</ele>
        <time>2014-07-31T08:46:09Z</time>
      </trkpt>
      <trkpt lat="42.9177460" lon="-8.2436400">
        <ele>338.6</ele>
        <time>2014-07-31T08:46:10Z</time>
      </trkpt>
      <trkpt lat="42.9177200" lon="-8.2436510">
        <ele>338.4</ele>
        <time>2014-07-31T08:46:11Z</time>
      </trkpt>
      <trkpt lat="42.9176940" lon="-8.2436690">
        <ele>338.1</ele>
        <time>2014-07-31T08:46:12Z</time>
      </trkpt>
      <trkpt lat="42.9176780" lon="-8.2436980">
        <ele>338.0</ele>
        <time>2014-07-31T08:46:13Z</time>
      </trkpt>
      <trkpt lat="42.9176700" lon="-8.2437330">
        <ele>337.9</ele>
        <time>2014-07-31T08:46:14Z</time>
      </trkpt>
      <trkpt lat="42.9176670" lon="-8.2437670">
        <ele>337.9</ele>
        <time>2014-07-31T08:46:15Z</time>
      </trkpt>
      <trkpt lat="42.9176310" lon="-8.2441780">
        <ele>337.5</ele>
        <time>2014-07-31T08:46:25Z</time>
      </trkpt>
      <trkpt lat="42.9176170" lon="-8.2445250">
        <ele>337.3</ele>
        <time>2014-07-31T08:46:36Z</time>
      </trkpt>
      <trkpt lat="42.9176330" lon="-8.2445500">
        <ele>337.3</ele>
        <time>2014-07-31T08:46:37Z</time>
      </trkpt>
      <trkpt lat="42.9176560" lon="-8.2445690">
        <ele>337.3</ele>
        <time>2014-07-31T08:46:38Z</time>
      </trkpt>
      <trkpt lat="42.9176820" lon="-8.2445820">
        <ele>337.3</ele>
        <time>2014-07-31T08:46:39Z</time>
      </trkpt>
      <trkpt lat="42.9177100" lon="-8.2445910">
        <ele>337.4</ele>
        <time>2014-07-31T08:46:40Z</time>
      </trkpt>
      <trkpt lat="42.9177330" lon="-8.2445990">
        <ele>337.4</ele>
        <time>2014-07-31T08:46:41Z</time>
      </trkpt>
      <trkpt lat="42.9177580" lon="-8.2446080">
        <ele>337.4</ele>
        <time>2014-07-31T08:46:42Z</time>
      </trkpt>
      <trkpt lat="42.9178090" lon="-8.2446380">
        <ele>337.4</ele>
        <time>2014-07-31T08:46:44Z</time>
      </trkpt>
      <trkpt lat="42.9178270" lon="-8.2446600">
        <ele>337.4</ele>
        <time>2014-07-31T08:46:45Z</time>
      </trkpt>
      <trkpt lat="42.9178310" lon="-8.2446890">
        <ele>337.4</ele>
        <time>2014-07-31T08:46:46Z</time>
      </trkpt>
      <trkpt lat="42.9178190" lon="-8.2451070">
        <ele>338.4</ele>
        <time>2014-07-31T08:46:59Z</time>
      </trkpt>
      <trkpt lat="42.9177850" lon="-8.2455050">
        <ele>339.4</ele>
        <time>2014-07-31T08:47:13Z</time>
      </trkpt>
      <trkpt lat="42.9177860" lon="-8.2456220">
        <ele>339.7</ele>
        <time>2014-07-31T08:47:19Z</time>
      </trkpt>
      <trkpt lat="42.9177850" lon="-8.2456420">
        <ele>339.8</ele>
        <time>2014-07-31T08:47:20Z</time>
      </trkpt>
      <trkpt lat="42.9177900" lon="-8.2457920">
        <ele>340.4</ele>
        <time>2014-07-31T08:47:25Z</time>
      </trkpt>
      <trkpt lat="42.9179650" lon="-8.2462930">
        <ele>342.1</ele>
        <time>2014-07-31T08:47:39Z</time>
      </trkpt>
      <trkpt lat="42.9180440" lon="-8.2467880">
        <ele>343.4</ele>
        <time>2014-07-31T08:47:54Z</time>
      </trkpt>
      <trkpt lat="42.9180510" lon="-8.2468060">
        <ele>343.5</ele>
        <time>2014-07-31T08:47:55Z</time>
      </trkpt>
      <trkpt lat="42.9180540" lon="-8.2468270">
        <ele>343.6</ele>
        <time>2014-07-31T08:47:56Z</time>
      </trkpt>
      <trkpt lat="42.9180600" lon="-8.2468500">
        <ele>343.6</ele>
        <time>2014-07-31T08:47:57Z</time>
      </trkpt>
      <trkpt lat="42.9180690" lon="-8.2468740">
        <ele>343.7</ele>
        <time>2014-07-31T08:47:58Z</time>
      </trkpt>
      <trkpt lat="42.9180790" lon="-8.2469080">
        <ele>343.9</ele>
        <time>2014-07-31T08:47:59Z</time>
      </trkpt>
      <trkpt lat="42.9180850" lon="-8.2469560">
        <ele>344.0</ele>
        <time>2014-07-31T08:48:00Z</time>
      </trkpt>
      <trkpt lat="42.9181520" lon="-8.2473420">
        <ele>345.2</ele>
        <time>2014-07-31T08:48:09Z</time>
      </trkpt>
      <trkpt lat="42.9181550" lon="-8.2473680">
        <ele>345.3</ele>
        <time>2014-07-31T08:48:10Z</time>
      </trkpt>
      <trkpt lat="42.9181590" lon="-8.2473900">
        <ele>345.3</ele>
        <time>2014-07-31T08:48:11Z</time>
      </trkpt>
      <trkpt lat="42.9181630" lon="-8.2474170">
        <ele>345.4</ele>
        <time>2014-07-31T08:48:12Z</time>
      </trkpt>
      <trkpt lat="42.9181670" lon="-8.2474440">
        <ele>345.5</ele>
        <time>2014-07-31T08:48:13Z</time>
      </trkpt>
      <trkpt lat="42.9181730" lon="-8.2474790">
        <ele>345.7</ele>
        <time>2014-07-31T08:48:14Z</time>
      </trkpt>
      <trkpt lat="42.9181820" lon="-8.2475160">
        <ele>345.9</ele>
        <time>2014-07-31T08:48:15Z</time>
      </trkpt>
      <trkpt lat="42.9182140" lon="-8.2478960">
        <ele>348.4</ele>
        <time>2014-07-31T08:48:26Z</time>
      </trkpt>
      <trkpt lat="42.9182200" lon="-8.2480550">
        <ele>349.2</ele>
        <time>2014-07-31T08:48:30Z</time>
      </trkpt>
      <trkpt lat="42.9183490" lon="-8.2486040">
        <ele>350.7</ele>
        <time>2014-07-31T08:48:43Z</time>
      </trkpt>
      <trkpt lat="42.9184880" lon="-8.2491580">
        <ele>353.0</ele>
        <time>2014-07-31T08:48:56Z</time>
      </trkpt>
      <trkpt lat="42.9185290" lon="-8.2495680">
        <ele>354.4</ele>
        <time>2014-07-31T08:49:07Z</time>
      </trkpt>
      <trkpt lat="42.9185890" lon="-8.2498970">
        <ele>355.5</ele>
        <time>2014-07-31T08:49:19Z</time>
      </trkpt>
      <trkpt lat="42.9187100" lon="-8.2502760">
        <ele>356.8</ele>
        <time>2014-07-31T08:49:31Z</time>
      </trkpt>
      <trkpt lat="42.9187860" lon="-8.2506360">
        <ele>358.1</ele>
        <time>2014-07-31T08:49:41Z</time>
      </trkpt>
      <trkpt lat="42.9187900" lon="-8.2506850">
        <ele>358.3</ele>
        <time>2014-07-31T08:49:43Z</time>
      </trkpt>
      <trkpt lat="42.9188480" lon="-8.2509770">
        <ele>359.6</ele>
        <time>2014-07-31T08:49:53Z</time>
      </trkpt>
      <trkpt lat="42.9190500" lon="-8.2514250">
        <ele>362.2</ele>
        <time>2014-07-31T08:50:07Z</time>
      </trkpt>
      <trkpt lat="42.9192330" lon="-8.2517600">
        <ele>363.9</ele>
        <time>2014-07-31T08:50:20Z</time>
      </trkpt>
      <trkpt lat="42.9193300" lon="-8.2518700">
        <ele>364.7</ele>
        <time>2014-07-31T08:50:25Z</time>
      </trkpt>
      <trkpt lat="42.9194650" lon="-8.2521990">
        <ele>366.1</ele>
        <time>2014-07-31T08:50:36Z</time>
      </trkpt>
      <trkpt lat="42.9194910" lon="-8.2522390">
        <ele>366.4</ele>
        <time>2014-07-31T08:50:38Z</time>
      </trkpt>
      <trkpt lat="42.9195060" lon="-8.2522660">
        <ele>366.5</ele>
        <time>2014-07-31T08:50:39Z</time>
      </trkpt>
      <trkpt lat="42.9195250" lon="-8.2522970">
        <ele>366.7</ele>
        <time>2014-07-31T08:50:40Z</time>
      </trkpt>
      <trkpt lat="42.9195400" lon="-8.2523240">
        <ele>366.9</ele>
        <time>2014-07-31T08:50:41Z</time>
      </trkpt>
      <trkpt lat="42.9195500" lon="-8.2523550">
        <ele>367.1</ele>
        <time>2014-07-31T08:50:42Z</time>
      </trkpt>
      <trkpt lat="42.9195650" lon="-8.2523890">
        <ele>367.3</ele>
        <time>2014-07-31T08:50:43Z</time>
      </trkpt>
      <trkpt lat="42.9195830" lon="-8.2524240">
        <ele>367.6</ele>
        <time>2014-07-31T08:50:44Z</time>
      </trkpt>
      <trkpt lat="42.9195970" lon="-8.2524570">
        <ele>367.8</ele>
        <time>2014-07-31T08:50:45Z</time>
      </trkpt>
      <trkpt lat="42.9196110" lon="-8.2524910">
        <ele>367.9</ele>
        <time>2014-07-31T08:50:46Z</time>
      </trkpt>
      <trkpt lat="42.9196240" lon="-8.2525160">
        <ele>368.1</ele>
        <time>2014-07-31T08:50:47Z</time>
      </trkpt>
      <trkpt lat="42.9196400" lon="-8.2525400">
        <ele>368.2</ele>
        <time>2014-07-31T08:50:48Z</time>
      </trkpt>
      <trkpt lat="42.9196520" lon="-8.2525690">
        <ele>368.3</ele>
        <time>2014-07-31T08:50:49Z</time>
      </trkpt>
      <trkpt lat="42.9196720" lon="-8.2525950">
        <ele>368.5</ele>
        <time>2014-07-31T08:50:50Z</time>
      </trkpt>
      <trkpt lat="42.9196910" lon="-8.2526260">
        <ele>368.6</ele>
        <time>2014-07-31T08:50:51Z</time>
      </trkpt>
      <trkpt lat="42.9197130" lon="-8.2526550">
        <ele>368.8</ele>
        <time>2014-07-31T08:50:52Z</time>
      </trkpt>
      <trkpt lat="42.9197310" lon="-8.2526830">
        <ele>369.0</ele>
        <time>2014-07-31T08:50:53Z</time>
      </trkpt>
      <trkpt lat="42.9197540" lon="-8.2526950">
        <ele>369.1</ele>
        <time>2014-07-31T08:50:54Z</time>
      </trkpt>
      <trkpt lat="42.9197800" lon="-8.2527110">
        <ele>369.3</ele>
        <time>2014-07-31T08:50:55Z</time>
      </trkpt>
      <trkpt lat="42.9198080" lon="-8.2527320">
        <ele>369.6</ele>
        <time>2014-07-31T08:50:56Z</time>
      </trkpt>
      <trkpt lat="42.9198250" lon="-8.2527560">
        <ele>369.7</ele>
        <time>2014-07-31T08:50:57Z</time>
      </trkpt>
      <trkpt lat="42.9200460" lon="-8.2530000">
        <ele>371.9</ele>
        <time>2014-07-31T08:51:10Z</time>
      </trkpt>
      <trkpt lat="42.9203070" lon="-8.2531010">
        <ele>373.1</ele>
        <time>2014-07-31T08:51:21Z</time>
      </trkpt>
      <trkpt lat="42.9205900" lon="-8.2533290">
        <ele>374.1</ele>
        <time>2014-07-31T08:51:32Z</time>
      </trkpt>
      <trkpt lat="42.9208800" lon="-8.2537120">
        <ele>375.3</ele>
        <time>2014-07-31T08:51:45Z</time>
      </trkpt>
      <trkpt lat="42.9211620" lon="-8.2540160">
        <ele>375.7</ele>
        <time>2014-07-31T08:51:55Z</time>
      </trkpt>
      <trkpt lat="42.9212710" lon="-8.2544130">
        <ele>375.2</ele>
        <time>2014-07-31T08:52:05Z</time>
      </trkpt>
      <trkpt lat="42.9214710" lon="-8.2548940">
        <ele>377.3</ele>
        <time>2014-07-31T08:52:19Z</time>
      </trkpt>
      <trkpt lat="42.9216260" lon="-8.2553340">
        <ele>379.6</ele>
        <time>2014-07-31T08:52:30Z</time>
      </trkpt>
      <trkpt lat="42.9219280" lon="-8.2561220">
        <ele>376.4</ele>
        <time>2014-07-31T08:52:43Z</time>
      </trkpt>
      <trkpt lat="42.9220160" lon="-8.2562930">
        <ele>376.0</ele>
        <time>2014-07-31T08:52:45Z</time>
      </trkpt>
      <trkpt lat="42.9222760" lon="-8.2568500">
        <ele>375.2</ele>
        <time>2014-07-31T08:52:52Z</time>
      </trkpt>
      <trkpt lat="42.9223250" lon="-8.2571050">
        <ele>375.3</ele>
        <time>2014-07-31T08:52:55Z</time>
      </trkpt>
      <trkpt lat="42.9223790" lon="-8.2575480">
        <ele>375.6</ele>
        <time>2014-07-31T08:53:00Z</time>
      </trkpt>
      <trkpt lat="42.9223920" lon="-8.2577960">
        <ele>375.7</ele>
        <time>2014-07-31T08:53:03Z</time>
      </trkpt>
      <trkpt lat="42.9224280" lon="-8.2582770">
        <ele>376.4</ele>
        <time>2014-07-31T08:53:09Z</time>
      </trkpt>
      <trkpt lat="42.9224290" lon="-8.2583520">
        <ele>376.6</ele>
        <time>2014-07-31T08:53:10Z</time>
      </trkpt>
      <trkpt lat="42.9224340" lon="-8.2586240">
        <ele>377.1</ele>
        <time>2014-07-31T08:53:14Z</time>
      </trkpt>
      <trkpt lat="42.9224250" lon="-8.2587760">
        <ele>377.4</ele>
        <time>2014-07-31T08:53:17Z</time>
      </trkpt>
      <trkpt lat="42.9223940" lon="-8.2588050">
        <ele>377.5</ele>
        <time>2014-07-31T08:53:18Z</time>
      </trkpt>
      <trkpt lat="42.9223580" lon="-8.2588270">
        <ele>377.7</ele>
        <time>2014-07-31T08:53:19Z</time>
      </trkpt>
      <trkpt lat="42.9223280" lon="-8.2588620">
        <ele>377.7</ele>
        <time>2014-07-31T08:53:20Z</time>
      </trkpt>
      <trkpt lat="42.9223120" lon="-8.2589090">
        <ele>377.7</ele>
        <time>2014-07-31T08:53:21Z</time>
      </trkpt>
      <trkpt lat="42.9223040" lon="-8.2589620">
        <ele>377.2</ele>
        <time>2014-07-31T08:53:22Z</time>
      </trkpt>
      <trkpt lat="42.9222850" lon="-8.2590740">
        <ele>376.8</ele>
        <time>2014-07-31T08:53:24Z</time>
      </trkpt>
      <trkpt lat="42.9222820" lon="-8.2591380">
        <ele>376.6</ele>
        <time>2014-07-31T08:53:25Z</time>
      </trkpt>
      <trkpt lat="42.9222820" lon="-8.2592030">
        <ele>376.4</ele>
        <time>2014-07-31T08:53:26Z</time>
      </trkpt>
      <trkpt lat="42.9222800" lon="-8.2592680">
        <ele>376.1</ele>
        <time>2014-07-31T08:53:27Z</time>
      </trkpt>
      <trkpt lat="42.9222790" lon="-8.2593370">
        <ele>376.0</ele>
        <time>2014-07-31T08:53:28Z</time>
      </trkpt>
      <trkpt lat="42.9222810" lon="-8.2594050">
        <ele>375.8</ele>
        <time>2014-07-31T08:53:29Z</time>
      </trkpt>
      <trkpt lat="42.9222880" lon="-8.2597010">
        <ele>375.4</ele>
        <time>2014-07-31T08:53:33Z</time>
      </trkpt>
      <trkpt lat="42.9222950" lon="-8.2597630">
        <ele>375.4</ele>
        <time>2014-07-31T08:53:34Z</time>
      </trkpt>
      <trkpt lat="42.9222940" lon="-8.2598110">
        <ele>375.3</ele>
        <time>2014-07-31T08:53:35Z</time>
      </trkpt>
      <trkpt lat="42.9222950" lon="-8.2598460">
        <ele>375.2</ele>
        <time>2014-07-31T08:53:36Z</time>
      </trkpt>
      <trkpt lat="42.9222970" lon="-8.2598750">
        <ele>375.2</ele>
        <time>2014-07-31T08:53:37Z</time>
      </trkpt>
      <trkpt lat="42.9222980" lon="-8.2599070">
        <ele>375.1</ele>
        <time>2014-07-31T08:53:38Z</time>
      </trkpt>
      <trkpt lat="42.9223000" lon="-8.2599380">
        <ele>375.1</ele>
        <time>2014-07-31T08:53:39Z</time>
      </trkpt>
      <trkpt lat="42.9223030" lon="-8.2599650">
        <ele>375.0</ele>
        <time>2014-07-31T08:53:40Z</time>
      </trkpt>
      <trkpt lat="42.9223090" lon="-8.2599950">
        <ele>375.0</ele>
        <time>2014-07-31T08:53:41Z</time>
      </trkpt>
      <trkpt lat="42.9223160" lon="-8.2600370">
        <ele>374.9</ele>
        <time>2014-07-31T08:53:42Z</time>
      </trkpt>
      <trkpt lat="42.9223280" lon="-8.2600850">
        <ele>374.8</ele>
        <time>2014-07-31T08:53:43Z</time>
      </trkpt>
      <trkpt lat="42.9223750" lon="-8.2603030">
        <ele>374.1</ele>
        <time>2014-07-31T08:53:47Z</time>
      </trkpt>
      <trkpt lat="42.9223800" lon="-8.2603680">
        <ele>373.9</ele>
        <time>2014-07-31T08:53:48Z</time>
      </trkpt>
      <trkpt lat="42.9223860" lon="-8.2604960">
        <ele>373.4</ele>
        <time>2014-07-31T08:53:50Z</time>
      </trkpt>
      <trkpt lat="42.9224570" lon="-8.2608900">
        <ele>371.9</ele>
        <time>2014-07-31T08:53:58Z</time>
      </trkpt>
      <trkpt lat="42.9224980" lon="-8.2610290">
        <ele>371.3</ele>
        <time>2014-07-31T08:54:09Z</time>
      </trkpt>
      <trkpt lat="42.9225280" lon="-8.2612650">
        <ele>370.1</ele>
        <time>2014-07-31T08:54:27Z</time>
      </trkpt>
      <trkpt lat="42.9225300" lon="-8.2614050">
        <ele>369.6</ele>
        <time>2014-07-31T08:54:29Z</time>
      </trkpt>
      <trkpt lat="42.9225570" lon="-8.2615250">
        <ele>369.2</ele>
        <time>2014-07-31T08:54:31Z</time>
      </trkpt>
      <trkpt lat="42.9225740" lon="-8.2615640">
        <ele>369.1</ele>
        <time>2014-07-31T08:54:32Z</time>
      </trkpt>
      <trkpt lat="42.9225910" lon="-8.2616030">
        <ele>369.0</ele>
        <time>2014-07-31T08:54:33Z</time>
      </trkpt>
      <trkpt lat="42.9228250" lon="-8.2620390">
        <ele>367.1</ele>
        <time>2014-07-31T08:54:44Z</time>
      </trkpt>
      <trkpt lat="42.9228810" lon="-8.2622610">
        <ele>366.0</ele>
        <time>2014-07-31T08:54:47Z</time>
      </trkpt>
      <trkpt lat="42.9228960" lon="-8.2623290">
        <ele>365.7</ele>
        <time>2014-07-31T08:54:48Z</time>
      </trkpt>
      <trkpt lat="42.9229130" lon="-8.2623890">
        <ele>365.4</ele>
        <time>2014-07-31T08:54:49Z</time>
      </trkpt>
      <trkpt lat="42.9229340" lon="-8.2624550">
        <ele>365.0</ele>
        <time>2014-07-31T08:54:50Z</time>
      </trkpt>
      <trkpt lat="42.9229560" lon="-8.2625310">
        <ele>364.6</ele>
        <time>2014-07-31T08:54:51Z</time>
      </trkpt>
      <trkpt lat="42.9229840" lon="-8.2626150">
        <ele>364.1</ele>
        <time>2014-07-31T08:54:52Z</time>
      </trkpt>
      <trkpt lat="42.9232600" lon="-8.2637000">
        <ele>363.0</ele>
        <time>2014-07-31T08:55:03Z</time>
      </trkpt>
      <trkpt lat="42.9232790" lon="-8.2637810">
        <ele>363.0</ele>
        <time>2014-07-31T08:55:04Z</time>
      </trkpt>
      <trkpt lat="42.9232990" lon="-8.2638590">
        <ele>363.0</ele>
        <time>2014-07-31T08:55:05Z</time>
      </trkpt>
      <trkpt lat="42.9233160" lon="-8.2639320">
        <ele>363.0</ele>
        <time>2014-07-31T08:55:06Z</time>
      </trkpt>
      <trkpt lat="42.9233330" lon="-8.2640000">
        <ele>363.0</ele>
        <time>2014-07-31T08:55:07Z</time>
      </trkpt>
      <trkpt lat="42.9233620" lon="-8.2641420">
        <ele>363.2</ele>
        <time>2014-07-31T08:55:09Z</time>
      </trkpt>
      <trkpt lat="42.9233750" lon="-8.2642090">
        <ele>363.3</ele>
        <time>2014-07-31T08:55:10Z</time>
      </trkpt>
      <trkpt lat="42.9236030" lon="-8.2650150">
        <ele>365.4</ele>
        <time>2014-07-31T08:55:23Z</time>
      </trkpt>
      <trkpt lat="42.9236020" lon="-8.2652670">
        <ele>366.1</ele>
        <time>2014-07-31T08:55:28Z</time>
      </trkpt>
      <trkpt lat="42.9235980" lon="-8.2653870">
        <ele>366.7</ele>
        <time>2014-07-31T08:55:30Z</time>
      </trkpt>
      <trkpt lat="42.9235930" lon="-8.2654430">
        <ele>366.9</ele>
        <time>2014-07-31T08:55:31Z</time>
      </trkpt>
      <trkpt lat="42.9235390" lon="-8.2660250">
        <ele>369.0</ele>
        <time>2014-07-31T08:55:42Z</time>
      </trkpt>
      <trkpt lat="42.9235230" lon="-8.2660650">
        <ele>369.1</ele>
        <time>2014-07-31T08:55:43Z</time>
      </trkpt>
      <trkpt lat="42.9235110" lon="-8.2661020">
        <ele>369.2</ele>
        <time>2014-07-31T08:55:44Z</time>
      </trkpt>
      <trkpt lat="42.9235050" lon="-8.2661320">
        <ele>369.2</ele>
        <time>2014-07-31T08:55:45Z</time>
      </trkpt>
      <trkpt lat="42.9235050" lon="-8.2661650">
        <ele>369.3</ele>
        <time>2014-07-31T08:55:46Z</time>
      </trkpt>
      <trkpt lat="42.9235010" lon="-8.2662080">
        <ele>369.4</ele>
        <time>2014-07-31T08:55:47Z</time>
      </trkpt>
      <trkpt lat="42.9234960" lon="-8.2662920">
        <ele>369.7</ele>
        <time>2014-07-31T08:55:49Z</time>
      </trkpt>
      <trkpt lat="42.9235010" lon="-8.2663250">
        <ele>369.8</ele>
        <time>2014-07-31T08:55:50Z</time>
      </trkpt>
      <trkpt lat="42.9235040" lon="-8.2663550">
        <ele>369.9</ele>
        <time>2014-07-31T08:55:51Z</time>
      </trkpt>
      <trkpt lat="42.9235090" lon="-8.2663860">
        <ele>369.9</ele>
        <time>2014-07-31T08:55:52Z</time>
      </trkpt>
      <trkpt lat="42.9235150" lon="-8.2664200">
        <ele>370.0</ele>
        <time>2014-07-31T08:55:53Z</time>
      </trkpt>
      <trkpt lat="42.9235220" lon="-8.2664520">
        <ele>370.1</ele>
        <time>2014-07-31T08:55:54Z</time>
      </trkpt>
      <trkpt lat="42.9235290" lon="-8.2664770">
        <ele>370.2</ele>
        <time>2014-07-31T08:55:55Z</time>
      </trkpt>
      <trkpt lat="42.9235280" lon="-8.2665100">
        <ele>370.3</ele>
        <time>2014-07-31T08:55:56Z</time>
      </trkpt>
      <trkpt lat="42.9235260" lon="-8.2665550">
        <ele>370.4</ele>
        <time>2014-07-31T08:55:57Z</time>
      </trkpt>
      <trkpt lat="42.9235230" lon="-8.2665880">
        <ele>370.4</ele>
        <time>2014-07-31T08:55:58Z</time>
      </trkpt>
      <trkpt lat="42.9235160" lon="-8.2666300">
        <ele>370.5</ele>
        <time>2014-07-31T08:55:59Z</time>
      </trkpt>
      <trkpt lat="42.9235120" lon="-8.2666680">
        <ele>370.6</ele>
        <time>2014-07-31T08:56:00Z</time>
      </trkpt>
      <trkpt lat="42.9235130" lon="-8.2667060">
        <ele>370.7</ele>
        <time>2014-07-31T08:56:01Z</time>
      </trkpt>
      <trkpt lat="42.9235190" lon="-8.2667430">
        <ele>370.8</ele>
        <time>2014-07-31T08:56:02Z</time>
      </trkpt>
      <trkpt lat="42.9235310" lon="-8.2667790">
        <ele>370.9</ele>
        <time>2014-07-31T08:56:03Z</time>
      </trkpt>
      <trkpt lat="42.9235480" lon="-8.2668190">
        <ele>371.1</ele>
        <time>2014-07-31T08:56:04Z</time>
      </trkpt>
      <trkpt lat="42.9235550" lon="-8.2668510">
        <ele>371.2</ele>
        <time>2014-07-31T08:56:05Z</time>
      </trkpt>
      <trkpt lat="42.9235630" lon="-8.2668810">
        <ele>371.3</ele>
        <time>2014-07-31T08:56:06Z</time>
      </trkpt>
      <trkpt lat="42.9235780" lon="-8.2669450">
        <ele>371.4</ele>
        <time>2014-07-31T08:56:08Z</time>
      </trkpt>
      <trkpt lat="42.9235880" lon="-8.2669900">
        <ele>371.5</ele>
        <time>2014-07-31T08:56:09Z</time>
      </trkpt>
      <trkpt lat="42.9236000" lon="-8.2670260">
        <ele>371.6</ele>
        <time>2014-07-31T08:56:10Z</time>
      </trkpt>
      <trkpt lat="42.9236030" lon="-8.2670600">
        <ele>371.7</ele>
        <time>2014-07-31T08:56:11Z</time>
      </trkpt>
      <trkpt lat="42.9236050" lon="-8.2670900">
        <ele>371.7</ele>
        <time>2014-07-31T08:56:12Z</time>
      </trkpt>
      <trkpt lat="42.9236120" lon="-8.2671190">
        <ele>371.8</ele>
        <time>2014-07-31T08:56:13Z</time>
      </trkpt>
      <trkpt lat="42.9237010" lon="-8.2673090">
        <ele>372.5</ele>
        <time>2014-07-31T08:56:19Z</time>
      </trkpt>
      <trkpt lat="42.9237200" lon="-8.2673470">
        <ele>372.6</ele>
        <time>2014-07-31T08:56:20Z</time>
      </trkpt>
      <trkpt lat="42.9237550" lon="-8.2673810">
        <ele>372.9</ele>
        <time>2014-07-31T08:56:21Z</time>
      </trkpt>
      <trkpt lat="42.9238310" lon="-8.2674950">
        <ele>373.3</ele>
        <time>2014-07-31T08:56:24Z</time>
      </trkpt>
      <trkpt lat="42.9238280" lon="-8.2675290">
        <ele>373.4</ele>
        <time>2014-07-31T08:56:25Z</time>
      </trkpt>
      <trkpt lat="42.9238440" lon="-8.2675610">
        <ele>373.4</ele>
        <time>2014-07-31T08:56:26Z</time>
      </trkpt>
      <trkpt lat="42.9238640" lon="-8.2675870">
        <ele>373.5</ele>
        <time>2014-07-31T08:56:27Z</time>
      </trkpt>
      <trkpt lat="42.9238890" lon="-8.2676140">
        <ele>373.6</ele>
        <time>2014-07-31T08:56:28Z</time>
      </trkpt>
      <trkpt lat="42.9241880" lon="-8.2679550">
        <ele>374.7</ele>
        <time>2014-07-31T08:56:38Z</time>
      </trkpt>
      <trkpt lat="42.9243850" lon="-8.2681940">
        <ele>375.7</ele>
        <time>2014-07-31T08:56:46Z</time>
      </trkpt>
      <trkpt lat="42.9246390" lon="-8.2684350">
        <ele>376.8</ele>
        <time>2014-07-31T08:56:56Z</time>
      </trkpt>
      <trkpt lat="42.9247850" lon="-8.2685360">
        <ele>377.2</ele>
        <time>2014-07-31T08:57:02Z</time>
      </trkpt>
      <trkpt lat="42.9249380" lon="-8.2688660">
        <ele>377.3</ele>
        <time>2014-07-31T08:57:12Z</time>
      </trkpt>
      <trkpt lat="42.9249430" lon="-8.2690140">
        <ele>377.1</ele>
        <time>2014-07-31T08:57:16Z</time>
      </trkpt>
      <trkpt lat="42.9249580" lon="-8.2690580">
        <ele>377.1</ele>
        <time>2014-07-31T08:57:17Z</time>
      </trkpt>
      <trkpt lat="42.9249690" lon="-8.2691020">
        <ele>377.0</ele>
        <time>2014-07-31T08:57:18Z</time>
      </trkpt>
      <trkpt lat="42.9249760" lon="-8.2691510">
        <ele>376.9</ele>
        <time>2014-07-31T08:57:19Z</time>
      </trkpt>
      <trkpt lat="42.9249850" lon="-8.2692080">
        <ele>376.8</ele>
        <time>2014-07-31T08:57:20Z</time>
      </trkpt>
      <trkpt lat="42.9249950" lon="-8.2692760">
        <ele>376.6</ele>
        <time>2014-07-31T08:57:21Z</time>
      </trkpt>
      <trkpt lat="42.9251210" lon="-8.2698630">
        <ele>374.9</ele>
        <time>2014-07-31T08:57:30Z</time>
      </trkpt>
      <trkpt lat="42.9251390" lon="-8.2699270">
        <ele>374.8</ele>
        <time>2014-07-31T08:57:31Z</time>
      </trkpt>
      <trkpt lat="42.9253350" lon="-8.2706440">
        <ele>373.9</ele>
        <time>2014-07-31T08:57:42Z</time>
      </trkpt>
      <trkpt lat="42.9253430" lon="-8.2707120">
        <ele>373.8</ele>
        <time>2014-07-31T08:57:43Z</time>
      </trkpt>
      <trkpt lat="42.9253520" lon="-8.2707730">
        <ele>373.8</ele>
        <time>2014-07-31T08:57:44Z</time>
      </trkpt>
      <trkpt lat="42.9253620" lon="-8.2708400">
        <ele>373.8</ele>
        <time>2014-07-31T08:57:45Z</time>
      </trkpt>
      <trkpt lat="42.9253700" lon="-8.2709140">
        <ele>373.7</ele>
        <time>2014-07-31T08:57:46Z</time>
      </trkpt>
      <trkpt lat="42.9253750" lon="-8.2709800">
        <ele>373.7</ele>
        <time>2014-07-31T08:57:47Z</time>
      </trkpt>
      <trkpt lat="42.9253800" lon="-8.2710380">
        <ele>373.7</ele>
        <time>2014-07-31T08:57:48Z</time>
      </trkpt>
      <trkpt lat="42.9254600" lon="-8.2716690">
        <ele>373.9</ele>
        <time>2014-07-31T08:57:58Z</time>
      </trkpt>
      <trkpt lat="42.9255330" lon="-8.2721870">
        <ele>373.9</ele>
        <time>2014-07-31T08:58:08Z</time>
      </trkpt>
      <trkpt lat="42.9255460" lon="-8.2723350">
        <ele>373.9</ele>
        <time>2014-07-31T08:58:10Z</time>
      </trkpt>
      <trkpt lat="42.9255520" lon="-8.2724130">
        <ele>373.8</ele>
        <time>2014-07-31T08:58:11Z</time>
      </trkpt>
      <trkpt lat="42.9256680" lon="-8.2731280">
        <ele>372.7</ele>
        <time>2014-07-31T08:58:21Z</time>
      </trkpt>
      <trkpt lat="42.9257100" lon="-8.2733600">
        <ele>372.2</ele>
        <time>2014-07-31T08:58:25Z</time>
      </trkpt>
      <trkpt lat="42.9258090" lon="-8.2737250">
        <ele>371.6</ele>
        <time>2014-07-31T08:58:30Z</time>
      </trkpt>
      <trkpt lat="42.9258310" lon="-8.2737760">
        <ele>371.5</ele>
        <time>2014-07-31T08:58:31Z</time>
      </trkpt>
      <trkpt lat="42.9258590" lon="-8.2738250">
        <ele>371.4</ele>
        <time>2014-07-31T08:58:32Z</time>
      </trkpt>
      <trkpt lat="42.9260020" lon="-8.2740740">
        <ele>370.7</ele>
        <time>2014-07-31T08:58:39Z</time>
      </trkpt>
      <trkpt lat="42.9260250" lon="-8.2740860">
        <ele>370.6</ele>
        <time>2014-07-31T08:58:40Z</time>
      </trkpt>
      <trkpt lat="42.9260500" lon="-8.2740920">
        <ele>370.5</ele>
        <time>2014-07-31T08:58:41Z</time>
      </trkpt>
      <trkpt lat="42.9261110" lon="-8.2741280">
        <ele>370.4</ele>
        <time>2014-07-31T08:58:44Z</time>
      </trkpt>
      <trkpt lat="42.9261280" lon="-8.2741530">
        <ele>370.3</ele>
        <time>2014-07-31T08:58:45Z</time>
      </trkpt>
      <trkpt lat="42.9261390" lon="-8.2741880">
        <ele>370.1</ele>
        <time>2014-07-31T08:58:46Z</time>
      </trkpt>
      <trkpt lat="42.9261450" lon="-8.2742290">
        <ele>370.0</ele>
        <time>2014-07-31T08:58:47Z</time>
      </trkpt>
      <trkpt lat="42.9261530" lon="-8.2742760">
        <ele>369.9</ele>
        <time>2014-07-31T08:58:48Z</time>
      </trkpt>
      <trkpt lat="42.9261660" lon="-8.2743240">
        <ele>369.7</ele>
        <time>2014-07-31T08:58:49Z</time>
      </trkpt>
      <trkpt lat="42.9262370" lon="-8.2745500">
        <ele>369.2</ele>
        <time>2014-07-31T08:58:53Z</time>
      </trkpt>
      <trkpt lat="42.9262950" lon="-8.2748020">
        <ele>368.8</ele>
        <time>2014-07-31T08:58:57Z</time>
      </trkpt>
      <trkpt lat="42.9263180" lon="-8.2749280">
        <ele>368.6</ele>
        <time>2014-07-31T08:58:59Z</time>
      </trkpt>
      <trkpt lat="42.9263310" lon="-8.2749870">
        <ele>368.5</ele>
        <time>2014-07-31T08:59:00Z</time>
      </trkpt>
      <trkpt lat="42.9263420" lon="-8.2750410">
        <ele>368.5</ele>
        <time>2014-07-31T08:59:01Z</time>
      </trkpt>
      <trkpt lat="42.9263580" lon="-8.2750920">
        <ele>368.4</ele>
        <time>2014-07-31T08:59:02Z</time>
      </trkpt>
      <trkpt lat="42.9263770" lon="-8.2751430">
        <ele>368.4</ele>
        <time>2014-07-31T08:59:03Z</time>
      </trkpt>
      <trkpt lat="42.9263940" lon="-8.2751940">
        <ele>368.3</ele>
        <time>2014-07-31T08:59:04Z</time>
      </trkpt>
      <trkpt lat="42.9264070" lon="-8.2752500">
        <ele>368.5</ele>
        <time>2014-07-31T08:59:05Z</time>
      </trkpt>
      <trkpt lat="42.9264490" lon="-8.2755580">
        <ele>368.9</ele>
        <time>2014-07-31T08:59:10Z</time>
      </trkpt>
      <trkpt lat="42.9264910" lon="-8.2761530">
        <ele>367.9</ele>
        <time>2014-07-31T08:59:21Z</time>
      </trkpt>
      <trkpt lat="42.9265120" lon="-8.2768010">
        <ele>366.3</ele>
        <time>2014-07-31T08:59:34Z</time>
      </trkpt>
      <trkpt lat="42.9264480" lon="-8.2770910">
        <ele>365.2</ele>
        <time>2014-07-31T08:59:41Z</time>
      </trkpt>
      <trkpt lat="42.9264410" lon="-8.2771090">
        <ele>365.1</ele>
        <time>2014-07-31T08:59:42Z</time>
      </trkpt>
      <trkpt lat="42.9264350" lon="-8.2771340">
        <ele>365.0</ele>
        <time>2014-07-31T08:59:43Z</time>
      </trkpt>
      <trkpt lat="42.9264270" lon="-8.2771650">
        <ele>364.9</ele>
        <time>2014-07-31T08:59:44Z</time>
      </trkpt>
      <trkpt lat="42.9264210" lon="-8.2772030">
        <ele>364.7</ele>
        <time>2014-07-31T08:59:45Z</time>
      </trkpt>
      <trkpt lat="42.9264150" lon="-8.2772480">
        <ele>364.4</ele>
        <time>2014-07-31T08:59:46Z</time>
      </trkpt>
      <trkpt lat="42.9264070" lon="-8.2773000">
        <ele>364.1</ele>
        <time>2014-07-31T08:59:47Z</time>
      </trkpt>
      <trkpt lat="42.9264020" lon="-8.2773570">
        <ele>363.8</ele>
        <time>2014-07-31T08:59:48Z</time>
      </trkpt>
      <trkpt lat="42.9263930" lon="-8.2774120">
        <ele>363.5</ele>
        <time>2014-07-31T08:59:49Z</time>
      </trkpt>
      <trkpt lat="42.9263740" lon="-8.2774630">
        <ele>363.1</ele>
        <time>2014-07-31T08:59:50Z</time>
      </trkpt>
      <trkpt lat="42.9263470" lon="-8.2774990">
        <ele>362.8</ele>
        <time>2014-07-31T08:59:51Z</time>
      </trkpt>
      <trkpt lat="42.9263220" lon="-8.2775250">
        <ele>362.5</ele>
        <time>2014-07-31T08:59:52Z</time>
      </trkpt>
      <trkpt lat="42.9263020" lon="-8.2775520">
        <ele>362.2</ele>
        <time>2014-07-31T08:59:53Z</time>
      </trkpt>
      <trkpt lat="42.9262910" lon="-8.2775910">
        <ele>361.9</ele>
        <time>2014-07-31T08:59:54Z</time>
      </trkpt>
      <trkpt lat="42.9262870" lon="-8.2776350">
        <ele>361.0</ele>
        <time>2014-07-31T08:59:55Z</time>
      </trkpt>
      <trkpt lat="42.9262880" lon="-8.2776840">
        <ele>360.9</ele>
        <time>2014-07-31T08:59:56Z</time>
      </trkpt>
      <trkpt lat="42.9262900" lon="-8.2777300">
        <ele>360.8</ele>
        <time>2014-07-31T08:59:57Z</time>
      </trkpt>
      <trkpt lat="42.9262920" lon="-8.2777710">
        <ele>360.6</ele>
        <time>2014-07-31T08:59:58Z</time>
      </trkpt>
      <trkpt lat="42.9262960" lon="-8.2778020">
        <ele>360.5</ele>
        <time>2014-07-31T08:59:59Z</time>
      </trkpt>
      <trkpt lat="42.9262810" lon="-8.2781410">
        <ele>360.0</ele>
        <time>2014-07-31T09:00:11Z</time>
      </trkpt>
      <trkpt lat="42.9263750" lon="-8.2790410">
        <ele>360.0</ele>
        <time>2014-07-31T09:00:24Z</time>
      </trkpt>
      <trkpt lat="42.9264090" lon="-8.2793400">
        <ele>360.2</ele>
        <time>2014-07-31T09:00:32Z</time>
      </trkpt>
      <trkpt lat="42.9264330" lon="-8.2793640">
        <ele>360.2</ele>
        <time>2014-07-31T09:00:37Z</time>
      </trkpt>
      <trkpt lat="42.9264430" lon="-8.2793740">
        <ele>360.2</ele>
        <time>2014-07-31T09:00:38Z</time>
      </trkpt>
      <trkpt lat="42.9264630" lon="-8.2794140">
        <ele>360.2</ele>
        <time>2014-07-31T09:00:52Z</time>
      </trkpt>
      <trkpt lat="42.9264490" lon="-8.2794900">
        <ele>360.3</ele>
        <time>2014-07-31T09:01:09Z</time>
      </trkpt>
      <trkpt lat="42.9264520" lon="-8.2795110">
        <ele>360.3</ele>
        <time>2014-07-31T09:01:27Z</time>
      </trkpt>
      <trkpt lat="42.9264650" lon="-8.2795360">
        <ele>360.3</ele>
        <time>2014-07-31T09:01:44Z</time>
      </trkpt>
      <trkpt lat="42.9264660" lon="-8.2795380">
        <ele>360.3</ele>
        <time>2014-07-31T09:02:11Z</time>
      </trkpt>
      <trkpt lat="42.9264650" lon="-8.2795380">
        <ele>360.3</ele>
        <time>2014-07-31T09:02:39Z</time>
      </trkpt>
      <trkpt lat="42.9264660" lon="-8.2795370">
        <ele>360.3</ele>
        <time>2014-07-31T09:03:09Z</time>
      </trkpt>
      <trkpt lat="42.9264660" lon="-8.2795370">
        <ele>360.3</ele>
        <time>2014-07-31T09:03:42Z</time>
      </trkpt>
      <trkpt lat="42.9264610" lon="-8.2795430">
        <ele>360.3</ele>
        <time>2014-07-31T09:04:14Z</time>
      </trkpt>
      <trkpt lat="42.9264600" lon="-8.2795420">
        <ele>360.3</ele>
        <time>2014-07-31T09:04:48Z</time>
      </trkpt>
      <trkpt lat="42.9264600" lon="-8.2795420">
        <ele>360.3</ele>
        <time>2014-07-31T09:05:23Z</time>
      </trkpt>
      <trkpt lat="42.9264600" lon="-8.2795450">
        <ele>360.3</ele>
        <time>2014-07-31T09:05:53Z</time>
      </trkpt>
      <trkpt lat="42.9264580" lon="-8.2795390">
        <ele>360.3</ele>
        <time>2014-07-31T09:06:32Z</time>
      </trkpt>
      <trkpt lat="42.9264600" lon="-8.2795400">
        <ele>360.3</ele>
        <time>2014-07-31T09:07:06Z</time>
      </trkpt>
      <trkpt lat="42.9264600" lon="-8.2795400">
        <ele>360.3</ele>
        <time>2014-07-31T09:07:40Z</time>
      </trkpt>
      <trkpt lat="42.9264660" lon="-8.2795450">
        <ele>360.3</ele>
        <time>2014-07-31T09:08:14Z</time>
      </trkpt>
      <trkpt lat="42.9264680" lon="-8.2795460">
        <ele>360.3</ele>
        <time>2014-07-31T09:08:57Z</time>
      </trkpt>
      <trkpt lat="42.9264690" lon="-8.2795500">
        <ele>360.3</ele>
        <time>2014-07-31T09:09:38Z</time>
      </trkpt>
      <trkpt lat="42.9264670" lon="-8.2795510">
        <ele>360.3</ele>
        <time>2014-07-31T09:10:17Z</time>
      </trkpt>
      <trkpt lat="42.9264670" lon="-8.2795480">
        <ele>360.3</ele>
        <time>2014-07-31T09:10:56Z</time>
      </trkpt>
      <trkpt lat="42.9264670" lon="-8.2795370">
        <ele>360.3</ele>
        <time>2014-07-31T09:11:34Z</time>
      </trkpt>
      <trkpt lat="42.9264650" lon="-8.2795400">
        <ele>360.3</ele>
        <time>2014-07-31T09:12:18Z</time>
      </trkpt>
      <trkpt lat="42.9264630" lon="-8.2795420">
        <ele>360.3</ele>
        <time>2014-07-31T09:12:57Z</time>
      </trkpt>
      <trkpt lat="42.9264600" lon="-8.2795460">
        <ele>360.3</ele>
        <time>2014-07-31T09:13:32Z</time>
      </trkpt>
      <trkpt lat="42.9264570" lon="-8.2795460">
        <ele>360.3</ele>
        <time>2014-07-31T09:14:03Z</time>
      </trkpt>
      <trkpt lat="42.9264560" lon="-8.2795470">
        <ele>360.3</ele>
        <time>2014-07-31T09:14:42Z</time>
      </trkpt>
      <trkpt lat="42.9264550" lon="-8.2795520">
        <ele>360.3</ele>
        <time>2014-07-31T09:15:16Z</time>
      </trkpt>
      <trkpt lat="42.9264550" lon="-8.2795510">
        <ele>360.3</ele>
        <time>2014-07-31T09:15:55Z</time>
      </trkpt>
      <trkpt lat="42.9264570" lon="-8.2795550">
        <ele>360.3</ele>
        <time>2014-07-31T09:16:30Z</time>
      </trkpt>
      <trkpt lat="42.9264550" lon="-8.2795550">
        <ele>360.3</ele>
        <time>2014-07-31T09:17:07Z</time>
      </trkpt>
      <trkpt lat="42.9264550" lon="-8.2795550">
        <ele>360.3</ele>
        <time>2014-07-31T09:17:44Z</time>
      </trkpt>
      <trkpt lat="42.9264560" lon="-8.2795520">
        <ele>360.3</ele>
        <time>2014-07-31T09:18:21Z</time>
      </trkpt>
      <trkpt lat="42.9264550" lon="-8.2795560">
        <ele>360.3</ele>
        <time>2014-07-31T09:18:50Z</time>
      </trkpt>
      <trkpt lat="42.9264510" lon="-8.2795540">
        <ele>360.3</ele>
        <time>2014-07-31T09:19:25Z</time>
      </trkpt>
      <trkpt lat="42.9264450" lon="-8.2795540">
        <ele>360.3</ele>
        <time>2014-07-31T09:20:03Z</time>
      </trkpt>
      <trkpt lat="42.9264490" lon="-8.2795490">
        <ele>360.3</ele>
        <time>2014-07-31T09:20:41Z</time>
      </trkpt>
      <trkpt lat="42.9264470" lon="-8.2795480">
        <ele>360.3</ele>
        <time>2014-07-31T09:21:21Z</time>
      </trkpt>
      <trkpt lat="42.9264450" lon="-8.2795460">
        <ele>360.3</ele>
        <time>2014-07-31T09:22:00Z</time>
      </trkpt>
      <trkpt lat="42.9264450" lon="-8.2795510">
        <ele>360.3</ele>
        <time>2014-07-31T09:22:37Z</time>
      </trkpt>
      <trkpt lat="42.9264440" lon="-8.2795520">
        <ele>360.3</ele>
        <time>2014-07-31T09:23:13Z</time>
      </trkpt>
      <trkpt lat="42.9264450" lon="-8.2795530">
        <ele>360.4</ele>
        <time>2014-07-31T09:23:54Z</time>
      </trkpt>
      <trkpt lat="42.9264450" lon="-8.2795550">
        <ele>360.4</ele>
        <time>2014-07-31T09:24:33Z</time>
      </trkpt>
      <trkpt lat="42.9264450" lon="-8.2795590">
        <ele>360.4</ele>
        <time>2014-07-31T09:25:09Z</time>
      </trkpt>
      <trkpt lat="42.9264330" lon="-8.2795640">
        <ele>360.4</ele>
        <time>2014-07-31T09:25:24Z</time>
      </trkpt>
      <trkpt lat="42.9264330" lon="-8.2795640">
        <ele>360.4</ele>
        <time>2014-07-31T09:25:51Z</time>
      </trkpt>
      <trkpt lat="42.9264330" lon="-8.2795630">
        <ele>360.4</ele>
        <time>2014-07-31T09:26:16Z</time>
      </trkpt>
      <trkpt lat="42.9264320" lon="-8.2795630">
        <ele>360.4</ele>
        <time>2014-07-31T09:26:38Z</time>
      </trkpt>
      <trkpt lat="42.9264320" lon="-8.2795630">
        <ele>360.4</ele>
        <time>2014-07-31T09:27:08Z</time>
      </trkpt>
      <trkpt lat="42.9264330" lon="-8.2795620">
        <ele>360.4</ele>
        <time>2014-07-31T09:27:35Z</time>
      </trkpt>
      <trkpt lat="42.9264130" lon="-8.2796150">
        <ele>360.4</ele>
        <time>2014-07-31T09:27:49Z</time>
      </trkpt>
      <trkpt lat="42.9264130" lon="-8.2796340">
        <ele>360.4</ele>
        <time>2014-07-31T09:27:53Z</time>
      </trkpt>
      <trkpt lat="42.9264130" lon="-8.2796560">
        <ele>360.4</ele>
        <time>2014-07-31T09:27:54Z</time>
      </trkpt>
      <trkpt lat="42.9264310" lon="-8.2801150">
        <ele>360.9</ele>
        <time>2014-07-31T09:28:08Z</time>
      </trkpt>
      <trkpt lat="42.9264160" lon="-8.2804000">
        <ele>361.1</ele>
        <time>2014-07-31T09:28:18Z</time>
      </trkpt>
      <trkpt lat="42.9263880" lon="-8.2806310">
        <ele>360.8</ele>
        <time>2014-07-31T09:28:27Z</time>
      </trkpt>
      <trkpt lat="42.9263290" lon="-8.2809030">
        <ele>360.6</ele>
        <time>2014-07-31T09:28:41Z</time>
      </trkpt>
      <trkpt lat="42.9262930" lon="-8.2811110">
        <ele>360.7</ele>
        <time>2014-07-31T09:28:53Z</time>
      </trkpt>
      <trkpt lat="42.9261510" lon="-8.2815440">
        <ele>361.8</ele>
        <time>2014-07-31T09:29:04Z</time>
      </trkpt>
      <trkpt lat="42.9259460" lon="-8.2820290">
        <ele>365.0</ele>
        <time>2014-07-31T09:29:17Z</time>
      </trkpt>
      <trkpt lat="42.9257730" lon="-8.2824010">
        <ele>368.8</ele>
        <time>2014-07-31T09:29:29Z</time>
      </trkpt>
      <trkpt lat="42.9256540" lon="-8.2827230">
        <ele>371.9</ele>
        <time>2014-07-31T09:29:40Z</time>
      </trkpt>
      <trkpt lat="42.9255530" lon="-8.2831100">
        <ele>374.1</ele>
        <time>2014-07-31T09:29:53Z</time>
      </trkpt>
      <trkpt lat="42.9254730" lon="-8.2835750">
        <ele>376.6</ele>
        <time>2014-07-31T09:30:09Z</time>
      </trkpt>
      <trkpt lat="42.9254310" lon="-8.2839430">
        <ele>378.7</ele>
        <time>2014-07-31T09:30:23Z</time>
      </trkpt>
      <trkpt lat="42.9254900" lon="-8.2843650">
        <ele>380.9</ele>
        <time>2014-07-31T09:30:39Z</time>
      </trkpt>
      <trkpt lat="42.9254550" lon="-8.2847370">
        <ele>382.5</ele>
        <time>2014-07-31T09:30:53Z</time>
      </trkpt>
      <trkpt lat="42.9254030" lon="-8.2850670">
        <ele>384.4</ele>
        <time>2014-07-31T09:31:06Z</time>
      </trkpt>
      <trkpt lat="42.9253650" lon="-8.2851610">
        <ele>385.2</ele>
        <time>2014-07-31T09:31:10Z</time>
      </trkpt>
      <trkpt lat="42.9253620" lon="-8.2851850">
        <ele>385.4</ele>
        <time>2014-07-31T09:31:11Z</time>
      </trkpt>
      <trkpt lat="42.9253560" lon="-8.2852070">
        <ele>385.5</ele>
        <time>2014-07-31T09:31:12Z</time>
      </trkpt>
      <trkpt lat="42.9252930" lon="-8.2854820">
        <ele>386.9</ele>
        <time>2014-07-31T09:31:23Z</time>
      </trkpt>
      <trkpt lat="42.9252860" lon="-8.2855150">
        <ele>387.1</ele>
        <time>2014-07-31T09:31:24Z</time>
      </trkpt>
      <trkpt lat="42.9251860" lon="-8.2860370">
        <ele>389.0</ele>
        <time>2014-07-31T09:31:38Z</time>
      </trkpt>
      <trkpt lat="42.9251730" lon="-8.2861040">
        <ele>389.2</ele>
        <time>2014-07-31T09:31:40Z</time>
      </trkpt>
      <trkpt lat="42.9251710" lon="-8.2861380">
        <ele>389.2</ele>
        <time>2014-07-31T09:31:41Z</time>
      </trkpt>
      <trkpt lat="42.9251660" lon="-8.2861750">
        <ele>389.3</ele>
        <time>2014-07-31T09:31:42Z</time>
      </trkpt>
      <trkpt lat="42.9251560" lon="-8.2867250">
        <ele>390.2</ele>
        <time>2014-07-31T09:31:54Z</time>
      </trkpt>
      <trkpt lat="42.9251780" lon="-8.2867930">
        <ele>390.3</ele>
        <time>2014-07-31T09:31:56Z</time>
      </trkpt>
      <trkpt lat="42.9251870" lon="-8.2868300">
        <ele>390.3</ele>
        <time>2014-07-31T09:31:57Z</time>
      </trkpt>
      <trkpt lat="42.9251970" lon="-8.2868780">
        <ele>390.4</ele>
        <time>2014-07-31T09:31:58Z</time>
      </trkpt>
      <trkpt lat="42.9252000" lon="-8.2869340">
        <ele>390.4</ele>
        <time>2014-07-31T09:31:59Z</time>
      </trkpt>
      <trkpt lat="42.9251960" lon="-8.2869950">
        <ele>390.5</ele>
        <time>2014-07-31T09:32:00Z</time>
      </trkpt>
      <trkpt lat="42.9251850" lon="-8.2870550">
        <ele>390.5</ele>
        <time>2014-07-31T09:32:01Z</time>
      </trkpt>
      <trkpt lat="42.9251760" lon="-8.2871130">
        <ele>390.6</ele>
        <time>2014-07-31T09:32:02Z</time>
      </trkpt>
      <trkpt lat="42.9251660" lon="-8.2871700">
        <ele>390.6</ele>
        <time>2014-07-31T09:32:03Z</time>
      </trkpt>
      <trkpt lat="42.9251300" lon="-8.2874020">
        <ele>390.4</ele>
        <time>2014-07-31T09:32:07Z</time>
      </trkpt>
      <trkpt lat="42.9251250" lon="-8.2874630">
        <ele>390.4</ele>
        <time>2014-07-31T09:32:08Z</time>
      </trkpt>
      <trkpt lat="42.9251140" lon="-8.2875240">
        <ele>390.4</ele>
        <time>2014-07-31T09:32:09Z</time>
      </trkpt>
      <trkpt lat="42.9251010" lon="-8.2875790">
        <ele>390.3</ele>
        <time>2014-07-31T09:32:10Z</time>
      </trkpt>
      <trkpt lat="42.9250920" lon="-8.2876290">
        <ele>390.3</ele>
        <time>2014-07-31T09:32:11Z</time>
      </trkpt>
      <trkpt lat="42.9250900" lon="-8.2876730">
        <ele>390.3</ele>
        <time>2014-07-31T09:32:12Z</time>
      </trkpt>
      <trkpt lat="42.9250790" lon="-8.2877220">
        <ele>390.2</ele>
        <time>2014-07-31T09:32:13Z</time>
      </trkpt>
      <trkpt lat="42.9250690" lon="-8.2877740">
        <ele>390.2</ele>
        <time>2014-07-31T09:32:14Z</time>
      </trkpt>
      <trkpt lat="42.9250630" lon="-8.2878250">
        <ele>390.2</ele>
        <time>2014-07-31T09:32:15Z</time>
      </trkpt>
      <trkpt lat="42.9250450" lon="-8.2878880">
        <ele>390.1</ele>
        <time>2014-07-31T09:32:16Z</time>
      </trkpt>
      <trkpt lat="42.9250200" lon="-8.2879560">
        <ele>390.1</ele>
        <time>2014-07-31T09:32:17Z</time>
      </trkpt>
      <trkpt lat="42.9249430" lon="-8.2881550">
        <ele>390.0</ele>
        <time>2014-07-31T09:32:20Z</time>
      </trkpt>
      <trkpt lat="42.9248770" lon="-8.2883720">
        <ele>389.9</ele>
        <time>2014-07-31T09:32:23Z</time>
      </trkpt>
      <trkpt lat="42.9247820" lon="-8.2885740">
        <ele>389.7</ele>
        <time>2014-07-31T09:32:26Z</time>
      </trkpt>
      <trkpt lat="42.9247470" lon="-8.2886340">
        <ele>389.7</ele>
        <time>2014-07-31T09:32:27Z</time>
      </trkpt>
      <trkpt lat="42.9245950" lon="-8.2888950">
        <ele>389.4</ele>
        <time>2014-07-31T09:32:32Z</time>
      </trkpt>
      <trkpt lat="42.9245010" lon="-8.2891520">
        <ele>388.1</ele>
        <time>2014-07-31T09:32:36Z</time>
      </trkpt>
      <trkpt lat="42.9244850" lon="-8.2892160">
        <ele>387.7</ele>
        <time>2014-07-31T09:32:37Z</time>
      </trkpt>
      <trkpt lat="42.9244750" lon="-8.2892820">
        <ele>388.1</ele>
        <time>2014-07-31T09:32:38Z</time>
      </trkpt>
      <trkpt lat="42.9244590" lon="-8.2894100">
        <ele>388.7</ele>
        <time>2014-07-31T09:32:40Z</time>
      </trkpt>
      <trkpt lat="42.9244460" lon="-8.2894700">
        <ele>388.9</ele>
        <time>2014-07-31T09:32:41Z</time>
      </trkpt>
      <trkpt lat="42.9243860" lon="-8.2897040">
        <ele>389.7</ele>
        <time>2014-07-31T09:32:45Z</time>
      </trkpt>
      <trkpt lat="42.9243750" lon="-8.2897590">
        <ele>389.8</ele>
        <time>2014-07-31T09:32:46Z</time>
      </trkpt>
      <trkpt lat="42.9242170" lon="-8.2902790">
        <ele>390.6</ele>
        <time>2014-07-31T09:32:59Z</time>
      </trkpt>
      <trkpt lat="42.9239070" lon="-8.2906040">
        <ele>392.2</ele>
        <time>2014-07-31T09:33:11Z</time>
      </trkpt>
      <trkpt lat="42.9235970" lon="-8.2911190">
        <ele>395.0</ele>
        <time>2014-07-31T09:33:23Z</time>
      </trkpt>
      <trkpt lat="42.9235510" lon="-8.2912130">
        <ele>395.5</ele>
        <time>2014-07-31T09:33:26Z</time>
      </trkpt>
      <trkpt lat="42.9235380" lon="-8.2912510">
        <ele>395.7</ele>
        <time>2014-07-31T09:33:27Z</time>
      </trkpt>
      <trkpt lat="42.9235150" lon="-8.2912960">
        <ele>395.9</ele>
        <time>2014-07-31T09:33:28Z</time>
      </trkpt>
      <trkpt lat="42.9234850" lon="-8.2913430">
        <ele>396.2</ele>
        <time>2014-07-31T09:33:29Z</time>
      </trkpt>
      <trkpt lat="42.9234620" lon="-8.2913840">
        <ele>396.4</ele>
        <time>2014-07-31T09:33:30Z</time>
      </trkpt>
      <trkpt lat="42.9234460" lon="-8.2914240">
        <ele>396.6</ele>
        <time>2014-07-31T09:33:31Z</time>
      </trkpt>
      <trkpt lat="42.9234250" lon="-8.2914620">
        <ele>396.8</ele>
        <time>2014-07-31T09:33:32Z</time>
      </trkpt>
      <trkpt lat="42.9234080" lon="-8.2914930">
        <ele>397.0</ele>
        <time>2014-07-31T09:33:33Z</time>
      </trkpt>
      <trkpt lat="42.9233940" lon="-8.2915180">
        <ele>397.2</ele>
        <time>2014-07-31T09:33:34Z</time>
      </trkpt>
      <trkpt lat="42.9233100" lon="-8.2916870">
        <ele>397.6</ele>
        <time>2014-07-31T09:33:41Z</time>
      </trkpt>
      <trkpt lat="42.9232710" lon="-8.2917990">
        <ele>397.8</ele>
        <time>2014-07-31T09:33:49Z</time>
      </trkpt>
      <trkpt lat="42.9232430" lon="-8.2919340">
        <ele>397.8</ele>
        <time>2014-07-31T09:33:52Z</time>
      </trkpt>
      <trkpt lat="42.9232280" lon="-8.2919540">
        <ele>397.8</ele>
        <time>2014-07-31T09:33:53Z</time>
      </trkpt>
      <trkpt lat="42.9232110" lon="-8.2919810">
        <ele>397.8</ele>
        <time>2014-07-31T09:33:54Z</time>
      </trkpt>
      <trkpt lat="42.9230930" lon="-8.2922760">
        <ele>399.3</ele>
        <time>2014-07-31T09:34:04Z</time>
      </trkpt>
      <trkpt lat="42.9230700" lon="-8.2923470">
        <ele>400.3</ele>
        <time>2014-07-31T09:34:06Z</time>
      </trkpt>
      <trkpt lat="42.9230530" lon="-8.2923830">
        <ele>401.0</ele>
        <time>2014-07-31T09:34:07Z</time>
      </trkpt>
      <trkpt lat="42.9229090" lon="-8.2926850">
        <ele>403.1</ele>
        <time>2014-07-31T09:34:17Z</time>
      </trkpt>
      <trkpt lat="42.9227550" lon="-8.2930250">
        <ele>402.7</ele>
        <time>2014-07-31T09:34:28Z</time>
      </trkpt>
      <trkpt lat="42.9227470" lon="-8.2930680">
        <ele>402.7</ele>
        <time>2014-07-31T09:34:29Z</time>
      </trkpt>
      <trkpt lat="42.9227330" lon="-8.2931200">
        <ele>402.5</ele>
        <time>2014-07-31T09:34:30Z</time>
      </trkpt>
      <trkpt lat="42.9226150" lon="-8.2934660">
        <ele>401.8</ele>
        <time>2014-07-31T09:34:41Z</time>
      </trkpt>
      <trkpt lat="42.9224920" lon="-8.2937300">
        <ele>401.3</ele>
        <time>2014-07-31T09:34:51Z</time>
      </trkpt>
      <trkpt lat="42.9221820" lon="-8.2943480">
        <ele>401.3</ele>
        <time>2014-07-31T09:35:05Z</time>
      </trkpt>
      <trkpt lat="42.9218150" lon="-8.2950070">
        <ele>399.4</ele>
        <time>2014-07-31T09:35:18Z</time>
      </trkpt>
      <trkpt lat="42.9217430" lon="-8.2951350">
        <ele>398.6</ele>
        <time>2014-07-31T09:35:20Z</time>
      </trkpt>
      <trkpt lat="42.9216200" lon="-8.2954000">
        <ele>397.4</ele>
        <time>2014-07-31T09:35:24Z</time>
      </trkpt>
      <trkpt lat="42.9216010" lon="-8.2954620">
        <ele>397.2</ele>
        <time>2014-07-31T09:35:25Z</time>
      </trkpt>
      <trkpt lat="42.9215540" lon="-8.2956330">
        <ele>396.4</ele>
        <time>2014-07-31T09:35:28Z</time>
      </trkpt>
      <trkpt lat="42.9215120" lon="-8.2957440">
        <ele>396.0</ele>
        <time>2014-07-31T09:35:30Z</time>
      </trkpt>
      <trkpt lat="42.9214810" lon="-8.2958060">
        <ele>395.8</ele>
        <time>2014-07-31T09:35:31Z</time>
      </trkpt>
      <trkpt lat="42.9213780" lon="-8.2960070">
        <ele>394.7</ele>
        <time>2014-07-31T09:35:34Z</time>
      </trkpt>
      <trkpt lat="42.9212720" lon="-8.2961610">
        <ele>394.0</ele>
        <time>2014-07-31T09:35:37Z</time>
      </trkpt>
      <trkpt lat="42.9211200" lon="-8.2963390">
        <ele>393.0</ele>
        <time>2014-07-31T09:35:41Z</time>
      </trkpt>
      <trkpt lat="42.9210430" lon="-8.2964260">
        <ele>392.6</ele>
        <time>2014-07-31T09:35:43Z</time>
      </trkpt>
      <trkpt lat="42.9207990" lon="-8.2967020">
        <ele>391.1</ele>
        <time>2014-07-31T09:35:49Z</time>
      </trkpt>
      <trkpt lat="42.9207620" lon="-8.2967460">
        <ele>390.8</ele>
        <time>2014-07-31T09:35:50Z</time>
      </trkpt>
      <trkpt lat="42.9207280" lon="-8.2967910">
        <ele>390.4</ele>
        <time>2014-07-31T09:35:51Z</time>
      </trkpt>
      <trkpt lat="42.9206960" lon="-8.2968490">
        <ele>389.9</ele>
        <time>2014-07-31T09:35:52Z</time>
      </trkpt>
      <trkpt lat="42.9206610" lon="-8.2969160">
        <ele>389.5</ele>
        <time>2014-07-31T09:35:53Z</time>
      </trkpt>
      <trkpt lat="42.9205620" lon="-8.2970880">
        <ele>388.4</ele>
        <time>2014-07-31T09:35:56Z</time>
      </trkpt>
      <trkpt lat="42.9205300" lon="-8.2971400">
        <ele>388.0</ele>
        <time>2014-07-31T09:35:57Z</time>
      </trkpt>
      <trkpt lat="42.9205060" lon="-8.2971950">
        <ele>387.6</ele>
        <time>2014-07-31T09:35:58Z</time>
      </trkpt>
      <trkpt lat="42.9204840" lon="-8.2972560">
        <ele>387.2</ele>
        <time>2014-07-31T09:35:59Z</time>
      </trkpt>
      <trkpt lat="42.9204690" lon="-8.2973210">
        <ele>386.8</ele>
        <time>2014-07-31T09:36:00Z</time>
      </trkpt>
      <trkpt lat="42.9204560" lon="-8.2973880">
        <ele>386.4</ele>
        <time>2014-07-31T09:36:01Z</time>
      </trkpt>
      <trkpt lat="42.9204060" lon="-8.2976540">
        <ele>384.3</ele>
        <time>2014-07-31T09:36:06Z</time>
      </trkpt>
      <trkpt lat="42.9203380" lon="-8.2979830">
        <ele>381.6</ele>
        <time>2014-07-31T09:36:13Z</time>
      </trkpt>
      <trkpt lat="42.9203040" lon="-8.2980890">
        <ele>380.8</ele>
        <time>2014-07-31T09:36:15Z</time>
      </trkpt>
      <trkpt lat="42.9202990" lon="-8.2981610">
        <ele>380.2</ele>
        <time>2014-07-31T09:36:16Z</time>
      </trkpt>
      <trkpt lat="42.9203030" lon="-8.2984230">
        <ele>376.7</ele>
        <time>2014-07-31T09:36:19Z</time>
      </trkpt>
      <trkpt lat="42.9202980" lon="-8.2985040">
        <ele>376.0</ele>
        <time>2014-07-31T09:36:20Z</time>
      </trkpt>
      <trkpt lat="42.9202910" lon="-8.2985770">
        <ele>375.5</ele>
        <time>2014-07-31T09:36:21Z</time>
      </trkpt>
      <trkpt lat="42.9202760" lon="-8.2986500">
        <ele>375.0</ele>
        <time>2014-07-31T09:36:22Z</time>
      </trkpt>
      <trkpt lat="42.9202230" lon="-8.2988440">
        <ele>374.3</ele>
        <time>2014-07-31T09:36:25Z</time>
      </trkpt>
      <trkpt lat="42.9201920" lon="-8.2988880">
        <ele>374.2</ele>
        <time>2014-07-31T09:36:26Z</time>
      </trkpt>
      <trkpt lat="42.9201530" lon="-8.2989250">
        <ele>374.1</ele>
        <time>2014-07-31T09:36:27Z</time>
      </trkpt>
      <trkpt lat="42.9199720" lon="-8.2991150">
        <ele>373.9</ele>
        <time>2014-07-31T09:36:32Z</time>
      </trkpt>
      <trkpt lat="42.9199400" lon="-8.2991680">
        <ele>374.0</ele>
        <time>2014-07-31T09:36:33Z</time>
      </trkpt>
      <trkpt lat="42.9199070" lon="-8.2992190">
        <ele>374.0</ele>
        <time>2014-07-31T09:36:34Z</time>
      </trkpt>
      <trkpt lat="42.9198770" lon="-8.2992520">
        <ele>374.0</ele>
        <time>2014-07-31T09:36:35Z</time>
      </trkpt>
      <trkpt lat="42.9198460" lon="-8.2992820">
        <ele>374.1</ele>
        <time>2014-07-31T09:36:36Z</time>
      </trkpt>
      <trkpt lat="42.9197040" lon="-8.2994370">
        <ele>374.3</ele>
        <time>2014-07-31T09:36:40Z</time>
      </trkpt>
      <trkpt lat="42.9196660" lon="-8.2994670">
        <ele>374.3</ele>
        <time>2014-07-31T09:36:41Z</time>
      </trkpt>
      <trkpt lat="42.9195910" lon="-8.2995480">
        <ele>374.4</ele>
        <time>2014-07-31T09:36:43Z</time>
      </trkpt>
      <trkpt lat="42.9195560" lon="-8.2996000">
        <ele>374.4</ele>
        <time>2014-07-31T09:36:44Z</time>
      </trkpt>
      <trkpt lat="42.9193850" lon="-8.2998770">
        <ele>374.8</ele>
        <time>2014-07-31T09:36:50Z</time>
      </trkpt>
      <trkpt lat="42.9193610" lon="-8.2999230">
        <ele>374.9</ele>
        <time>2014-07-31T09:36:51Z</time>
      </trkpt>
      <trkpt lat="42.9192100" lon="-8.3004790">
        <ele>375.7</ele>
        <time>2014-07-31T09:37:02Z</time>
      </trkpt>
      <trkpt lat="42.9191420" lon="-8.3007710">
        <ele>376.6</ele>
        <time>2014-07-31T09:37:11Z</time>
      </trkpt>
      <trkpt lat="42.9191210" lon="-8.3007780">
        <ele>376.7</ele>
        <time>2014-07-31T09:37:12Z</time>
      </trkpt>
      <trkpt lat="42.9190880" lon="-8.3008060">
        <ele>376.9</ele>
        <time>2014-07-31T09:37:15Z</time>
      </trkpt>
      <trkpt lat="42.9190620" lon="-8.3008230">
        <ele>376.9</ele>
        <time>2014-07-31T09:37:16Z</time>
      </trkpt>
      <trkpt lat="42.9190340" lon="-8.3008530">
        <ele>376.9</ele>
        <time>2014-07-31T09:37:17Z</time>
      </trkpt>
      <trkpt lat="42.9190050" lon="-8.3008910">
        <ele>376.9</ele>
        <time>2014-07-31T09:37:18Z</time>
      </trkpt>
      <trkpt lat="42.9189740" lon="-8.3009350">
        <ele>376.9</ele>
        <time>2014-07-31T09:37:19Z</time>
      </trkpt>
      <trkpt lat="42.9188600" lon="-8.3010980">
        <ele>376.9</ele>
        <time>2014-07-31T09:37:23Z</time>
      </trkpt>
      <trkpt lat="42.9188650" lon="-8.3011350">
        <ele>376.9</ele>
        <time>2014-07-31T09:37:24Z</time>
      </trkpt>
      <trkpt lat="42.9188790" lon="-8.3011670">
        <ele>377.0</ele>
        <time>2014-07-31T09:37:25Z</time>
      </trkpt>
      <trkpt lat="42.9188960" lon="-8.3011960">
        <ele>377.2</ele>
        <time>2014-07-31T09:37:26Z</time>
      </trkpt>
      <trkpt lat="42.9189110" lon="-8.3012220">
        <ele>377.3</ele>
        <time>2014-07-31T09:37:27Z</time>
      </trkpt>
      <trkpt lat="42.9189390" lon="-8.3012720">
        <ele>377.5</ele>
        <time>2014-07-31T09:37:29Z</time>
      </trkpt>
      <trkpt lat="42.9189530" lon="-8.3013110">
        <ele>377.7</ele>
        <time>2014-07-31T09:37:30Z</time>
      </trkpt>
      <trkpt lat="42.9189680" lon="-8.3013520">
        <ele>377.6</ele>
        <time>2014-07-31T09:37:31Z</time>
      </trkpt>
      <trkpt lat="42.9189790" lon="-8.3014010">
        <ele>377.6</ele>
        <time>2014-07-31T09:37:32Z</time>
      </trkpt>
      <trkpt lat="42.9189850" lon="-8.3014390">
        <ele>377.6</ele>
        <time>2014-07-31T09:37:33Z</time>
      </trkpt>
      <trkpt lat="42.9189880" lon="-8.3014750">
        <ele>377.6</ele>
        <time>2014-07-31T09:37:34Z</time>
      </trkpt>
      <trkpt lat="42.9189990" lon="-8.3015770">
        <ele>377.5</ele>
        <time>2014-07-31T09:37:37Z</time>
      </trkpt>
      <trkpt lat="42.9190090" lon="-8.3016040">
        <ele>377.5</ele>
        <time>2014-07-31T09:37:38Z</time>
      </trkpt>
      <trkpt lat="42.9190190" lon="-8.3016250">
        <ele>377.5</ele>
        <time>2014-07-31T09:37:39Z</time>
      </trkpt>
      <trkpt lat="42.9190280" lon="-8.3016440">
        <ele>377.5</ele>
        <time>2014-07-31T09:37:40Z</time>
      </trkpt>
      <trkpt lat="42.9190390" lon="-8.3016620">
        <ele>377.4</ele>
        <time>2014-07-31T09:37:41Z</time>
      </trkpt>
      <trkpt lat="42.9190480" lon="-8.3016900">
        <ele>377.5</ele>
        <time>2014-07-31T09:37:42Z</time>
      </trkpt>
      <trkpt lat="42.9190560" lon="-8.3017180">
        <ele>377.5</ele>
        <time>2014-07-31T09:37:43Z</time>
      </trkpt>
      <trkpt lat="42.9191530" lon="-8.3021040">
        <ele>378.0</ele>
        <time>2014-07-31T09:37:55Z</time>
      </trkpt>
      <trkpt lat="42.9191760" lon="-8.3025870">
        <ele>379.0</ele>
        <time>2014-07-31T09:38:06Z</time>
      </trkpt>
      <trkpt lat="42.9192640" lon="-8.3032160">
        <ele>379.9</ele>
        <time>2014-07-31T09:38:20Z</time>
      </trkpt>
      <trkpt lat="42.9192710" lon="-8.3037850">
        <ele>380.8</ele>
        <time>2014-07-31T09:38:33Z</time>
      </trkpt>
      <trkpt lat="42.9192410" lon="-8.3040300">
        <ele>380.6</ele>
        <time>2014-07-31T09:38:38Z</time>
      </trkpt>
      <trkpt lat="42.9192350" lon="-8.3040830">
        <ele>380.5</ele>
        <time>2014-07-31T09:38:39Z</time>
      </trkpt>
      <trkpt lat="42.9192290" lon="-8.3041330">
        <ele>380.4</ele>
        <time>2014-07-31T09:38:40Z</time>
      </trkpt>
      <trkpt lat="42.9191600" lon="-8.3046320">
        <ele>378.6</ele>
        <time>2014-07-31T09:38:49Z</time>
      </trkpt>
      <trkpt lat="42.9191470" lon="-8.3046930">
        <ele>378.4</ele>
        <time>2014-07-31T09:38:50Z</time>
      </trkpt>
      <trkpt lat="42.9191340" lon="-8.3047520">
        <ele>378.2</ele>
        <time>2014-07-31T09:38:51Z</time>
      </trkpt>
      <trkpt lat="42.9191240" lon="-8.3047990">
        <ele>378.1</ele>
        <time>2014-07-31T09:38:52Z</time>
      </trkpt>
      <trkpt lat="42.9191190" lon="-8.3048420">
        <ele>378.0</ele>
        <time>2014-07-31T09:38:53Z</time>
      </trkpt>
      <trkpt lat="42.9190980" lon="-8.3049830">
        <ele>377.7</ele>
        <time>2014-07-31T09:38:57Z</time>
      </trkpt>
      <trkpt lat="42.9191020" lon="-8.3050080">
        <ele>377.6</ele>
        <time>2014-07-31T09:38:58Z</time>
      </trkpt>
      <trkpt lat="42.9191110" lon="-8.3050410">
        <ele>377.5</ele>
        <time>2014-07-31T09:38:59Z</time>
      </trkpt>
      <trkpt lat="42.9191090" lon="-8.3050800">
        <ele>377.4</ele>
        <time>2014-07-31T09:39:00Z</time>
      </trkpt>
      <trkpt lat="42.9190910" lon="-8.3051180">
        <ele>377.3</ele>
        <time>2014-07-31T09:39:01Z</time>
      </trkpt>
      <trkpt lat="42.9190560" lon="-8.3051450">
        <ele>377.2</ele>
        <time>2014-07-31T09:39:02Z</time>
      </trkpt>
      <trkpt lat="42.9190150" lon="-8.3051700">
        <ele>377.1</ele>
        <time>2014-07-31T09:39:03Z</time>
      </trkpt>
      <trkpt lat="42.9188880" lon="-8.3052410">
        <ele>376.5</ele>
        <time>2014-07-31T09:39:06Z</time>
      </trkpt>
      <trkpt lat="42.9188550" lon="-8.3052700">
        <ele>376.3</ele>
        <time>2014-07-31T09:39:07Z</time>
      </trkpt>
      <trkpt lat="42.9188340" lon="-8.3053090">
        <ele>376.1</ele>
        <time>2014-07-31T09:39:08Z</time>
      </trkpt>
      <trkpt lat="42.9188250" lon="-8.3053580">
        <ele>376.0</ele>
        <time>2014-07-31T09:39:09Z</time>
      </trkpt>
      <trkpt lat="42.9188260" lon="-8.3054130">
        <ele>375.9</ele>
        <time>2014-07-31T09:39:10Z</time>
      </trkpt>
      <trkpt lat="42.9188300" lon="-8.3054730">
        <ele>375.7</ele>
        <time>2014-07-31T09:39:11Z</time>
      </trkpt>
      <trkpt lat="42.9188400" lon="-8.3055300">
        <ele>375.6</ele>
        <time>2014-07-31T09:39:12Z</time>
      </trkpt>
      <trkpt lat="42.9188580" lon="-8.3055730">
        <ele>375.5</ele>
        <time>2014-07-31T09:39:13Z</time>
      </trkpt>
      <trkpt lat="42.9188910" lon="-8.3056060">
        <ele>375.4</ele>
        <time>2014-07-31T09:39:14Z</time>
      </trkpt>
      <trkpt lat="42.9189330" lon="-8.3056410">
        <ele>375.2</ele>
        <time>2014-07-31T09:39:15Z</time>
      </trkpt>
      <trkpt lat="42.9189670" lon="-8.3056870">
        <ele>374.9</ele>
        <time>2014-07-31T09:39:16Z</time>
      </trkpt>
      <trkpt lat="42.9189970" lon="-8.3057460">
        <ele>374.5</ele>
        <time>2014-07-31T09:39:17Z</time>
      </trkpt>
      <trkpt lat="42.9190110" lon="-8.3058140">
        <ele>374.3</ele>
        <time>2014-07-31T09:39:18Z</time>
      </trkpt>
      <trkpt lat="42.9190100" lon="-8.3058810">
        <ele>374.1</ele>
        <time>2014-07-31T09:39:19Z</time>
      </trkpt>
      <trkpt lat="42.9190050" lon="-8.3059470">
        <ele>373.9</ele>
        <time>2014-07-31T09:39:20Z</time>
      </trkpt>
      <trkpt lat="42.9189980" lon="-8.3060190">
        <ele>373.6</ele>
        <time>2014-07-31T09:39:21Z</time>
      </trkpt>
      <trkpt lat="42.9189940" lon="-8.3060980">
        <ele>373.4</ele>
        <time>2014-07-31T09:39:22Z</time>
      </trkpt>
      <trkpt lat="42.9189930" lon="-8.3061790">
        <ele>373.1</ele>
        <time>2014-07-31T09:39:23Z</time>
      </trkpt>
      <trkpt lat="42.9189930" lon="-8.3062620">
        <ele>372.8</ele>
        <time>2014-07-31T09:39:24Z</time>
      </trkpt>
      <trkpt lat="42.9189970" lon="-8.3063380">
        <ele>372.4</ele>
        <time>2014-07-31T09:39:25Z</time>
      </trkpt>
      <trkpt lat="42.9190030" lon="-8.3064120">
        <ele>372.0</ele>
        <time>2014-07-31T09:39:26Z</time>
      </trkpt>
      <trkpt lat="42.9190080" lon="-8.3064910">
        <ele>371.5</ele>
        <time>2014-07-31T09:39:27Z</time>
      </trkpt>
      <trkpt lat="42.9190110" lon="-8.3066630">
        <ele>370.6</ele>
        <time>2014-07-31T09:39:29Z</time>
      </trkpt>
      <trkpt lat="42.9190040" lon="-8.3067530">
        <ele>370.0</ele>
        <time>2014-07-31T09:39:30Z</time>
      </trkpt>
      <trkpt lat="42.9189910" lon="-8.3068370">
        <ele>369.4</ele>
        <time>2014-07-31T09:39:31Z</time>
      </trkpt>
      <trkpt lat="42.9189680" lon="-8.3069180">
        <ele>368.9</ele>
        <time>2014-07-31T09:39:32Z</time>
      </trkpt>
      <trkpt lat="42.9189380" lon="-8.3069940">
        <ele>368.6</ele>
        <time>2014-07-31T09:39:33Z</time>
      </trkpt>
      <trkpt lat="42.9189060" lon="-8.3070640">
        <ele>368.4</ele>
        <time>2014-07-31T09:39:34Z</time>
      </trkpt>
      <trkpt lat="42.9188690" lon="-8.3071330">
        <ele>368.0</ele>
        <time>2014-07-31T09:39:35Z</time>
      </trkpt>
      <trkpt lat="42.9187490" lon="-8.3073780">
        <ele>367.1</ele>
        <time>2014-07-31T09:39:39Z</time>
      </trkpt>
      <trkpt lat="42.9185910" lon="-8.3076270">
        <ele>366.8</ele>
        <time>2014-07-31T09:39:44Z</time>
      </trkpt>
      <trkpt lat="42.9185670" lon="-8.3076920">
        <ele>366.8</ele>
        <time>2014-07-31T09:39:45Z</time>
      </trkpt>
      <trkpt lat="42.9185300" lon="-8.3078250">
        <ele>366.8</ele>
        <time>2014-07-31T09:39:47Z</time>
      </trkpt>
      <trkpt lat="42.9185210" lon="-8.3078880">
        <ele>366.8</ele>
        <time>2014-07-31T09:39:48Z</time>
      </trkpt>
      <trkpt lat="42.9184800" lon="-8.3081320">
        <ele>366.8</ele>
        <time>2014-07-31T09:39:52Z</time>
      </trkpt>
      <trkpt lat="42.9184760" lon="-8.3081990">
        <ele>366.8</ele>
        <time>2014-07-31T09:39:53Z</time>
      </trkpt>
      <trkpt lat="42.9184750" lon="-8.3082640">
        <ele>366.8</ele>
        <time>2014-07-31T09:39:54Z</time>
      </trkpt>
      <trkpt lat="42.9184800" lon="-8.3084950">
        <ele>366.9</ele>
        <time>2014-07-31T09:39:57Z</time>
      </trkpt>
      <trkpt lat="42.9184880" lon="-8.3085740">
        <ele>366.9</ele>
        <time>2014-07-31T09:39:58Z</time>
      </trkpt>
      <trkpt lat="42.9185060" lon="-8.3087210">
        <ele>366.9</ele>
        <time>2014-07-31T09:40:00Z</time>
      </trkpt>
      <trkpt lat="42.9185000" lon="-8.3087870">
        <ele>366.9</ele>
        <time>2014-07-31T09:40:01Z</time>
      </trkpt>
      <trkpt lat="42.9184860" lon="-8.3088500">
        <ele>367.0</ele>
        <time>2014-07-31T09:40:02Z</time>
      </trkpt>
      <trkpt lat="42.9184670" lon="-8.3089100">
        <ele>367.2</ele>
        <time>2014-07-31T09:40:03Z</time>
      </trkpt>
      <trkpt lat="42.9184450" lon="-8.3089650">
        <ele>367.4</ele>
        <time>2014-07-31T09:40:04Z</time>
      </trkpt>
      <trkpt lat="42.9184250" lon="-8.3090190">
        <ele>367.5</ele>
        <time>2014-07-31T09:40:05Z</time>
      </trkpt>
      <trkpt lat="42.9183750" lon="-8.3095630">
        <ele>369.1</ele>
        <time>2014-07-31T09:40:16Z</time>
      </trkpt>
      <trkpt lat="42.9183870" lon="-8.3099720">
        <ele>370.6</ele>
        <time>2014-07-31T09:40:25Z</time>
      </trkpt>
      <trkpt lat="42.9183460" lon="-8.3105770">
        <ele>372.1</ele>
        <time>2014-07-31T09:40:38Z</time>
      </trkpt>
      <trkpt lat="42.9182670" lon="-8.3106630">
        <ele>372.0</ele>
        <time>2014-07-31T09:40:41Z</time>
      </trkpt>
      <trkpt lat="42.9182300" lon="-8.3106700">
        <ele>371.8</ele>
        <time>2014-07-31T09:40:42Z</time>
      </trkpt>
      <trkpt lat="42.9181920" lon="-8.3106700">
        <ele>371.6</ele>
        <time>2014-07-31T09:40:43Z</time>
      </trkpt>
      <trkpt lat="42.9181530" lon="-8.3106630">
        <ele>371.4</ele>
        <time>2014-07-31T09:40:44Z</time>
      </trkpt>
      <trkpt lat="42.9181150" lon="-8.3106510">
        <ele>371.3</ele>
        <time>2014-07-31T09:40:45Z</time>
      </trkpt>
      <trkpt lat="42.9180800" lon="-8.3106330">
        <ele>371.1</ele>
        <time>2014-07-31T09:40:46Z</time>
      </trkpt>
      <trkpt lat="42.9180030" lon="-8.3106000">
        <ele>370.9</ele>
        <time>2014-07-31T09:40:48Z</time>
      </trkpt>
      <trkpt lat="42.9179640" lon="-8.3105820">
        <ele>370.8</ele>
        <time>2014-07-31T09:40:49Z</time>
      </trkpt>
      <trkpt lat="42.9177240" lon="-8.3105120">
        <ele>369.8</ele>
        <time>2014-07-31T09:40:54Z</time>
      </trkpt>
      <trkpt lat="42.9176160" lon="-8.3104740">
        <ele>369.5</ele>
        <time>2014-07-31T09:40:56Z</time>
      </trkpt>
      <trkpt lat="42.9175610" lon="-8.3104740">
        <ele>369.4</ele>
        <time>2014-07-31T09:40:57Z</time>
      </trkpt>
      <trkpt lat="42.9175150" lon="-8.3104970">
        <ele>369.3</ele>
        <time>2014-07-31T09:40:58Z</time>
      </trkpt>
      <trkpt lat="42.9174880" lon="-8.3105430">
        <ele>369.4</ele>
        <time>2014-07-31T09:40:59Z</time>
      </trkpt>
      <trkpt lat="42.9174790" lon="-8.3105960">
        <ele>369.4</ele>
        <time>2014-07-31T09:41:00Z</time>
      </trkpt>
      <trkpt lat="42.9174750" lon="-8.3106470">
        <ele>369.4</ele>
        <time>2014-07-31T09:41:01Z</time>
      </trkpt>
      <trkpt lat="42.9174750" lon="-8.3106900">
        <ele>369.4</ele>
        <time>2014-07-31T09:41:02Z</time>
      </trkpt>
      <trkpt lat="42.9174740" lon="-8.3107280">
        <ele>369.4</ele>
        <time>2014-07-31T09:41:03Z</time>
      </trkpt>
      <trkpt lat="42.9174700" lon="-8.3107670">
        <ele>369.4</ele>
        <time>2014-07-31T09:41:04Z</time>
      </trkpt>
      <trkpt lat="42.9174320" lon="-8.3110700">
        <ele>370.1</ele>
        <time>2014-07-31T09:41:15Z</time>
      </trkpt>
      <trkpt lat="42.9173820" lon="-8.3115390">
        <ele>372.6</ele>
        <time>2014-07-31T09:41:26Z</time>
      </trkpt>
      <trkpt lat="42.9173010" lon="-8.3119730">
        <ele>373.8</ele>
        <time>2014-07-31T09:41:36Z</time>
      </trkpt>
      <trkpt lat="42.9172620" lon="-8.3127620">
        <ele>375.9</ele>
        <time>2014-07-31T09:41:52Z</time>
      </trkpt>
      <trkpt lat="42.9171910" lon="-8.3134810">
        <ele>377.6</ele>
        <time>2014-07-31T09:42:06Z</time>
      </trkpt>
      <trkpt lat="42.9171090" lon="-8.3142210">
        <ele>379.2</ele>
        <time>2014-07-31T09:42:21Z</time>
      </trkpt>
      <trkpt lat="42.9170320" lon="-8.3149210">
        <ele>380.2</ele>
        <time>2014-07-31T09:42:35Z</time>
      </trkpt>
      <trkpt lat="42.9169990" lon="-8.3154060">
        <ele>382.3</ele>
        <time>2014-07-31T09:42:45Z</time>
      </trkpt>
      <trkpt lat="42.9169660" lon="-8.3154870">
        <ele>382.4</ele>
        <time>2014-07-31T09:42:47Z</time>
      </trkpt>
      <trkpt lat="42.9169400" lon="-8.3155100">
        <ele>382.4</ele>
        <time>2014-07-31T09:42:48Z</time>
      </trkpt>
      <trkpt lat="42.9169140" lon="-8.3155220">
        <ele>382.5</ele>
        <time>2014-07-31T09:42:49Z</time>
      </trkpt>
      <trkpt lat="42.9168860" lon="-8.3155330">
        <ele>382.6</ele>
        <time>2014-07-31T09:42:50Z</time>
      </trkpt>
      <trkpt lat="42.9168580" lon="-8.3155510">
        <ele>382.7</ele>
        <time>2014-07-31T09:42:51Z</time>
      </trkpt>
      <trkpt lat="42.9168330" lon="-8.3155840">
        <ele>382.8</ele>
        <time>2014-07-31T09:42:52Z</time>
      </trkpt>
      <trkpt lat="42.9168180" lon="-8.3156220">
        <ele>382.8</ele>
        <time>2014-07-31T09:42:53Z</time>
      </trkpt>
      <trkpt lat="42.9168040" lon="-8.3156620">
        <ele>382.9</ele>
        <time>2014-07-31T09:42:54Z</time>
      </trkpt>
      <trkpt lat="42.9166810" lon="-8.3163460">
        <ele>384.0</ele>
        <time>2014-07-31T09:43:09Z</time>
      </trkpt>
      <trkpt lat="42.9165270" lon="-8.3172300">
        <ele>385.8</ele>
        <time>2014-07-31T09:43:28Z</time>
      </trkpt>
      <trkpt lat="42.9164140" lon="-8.3179090">
        <ele>388.1</ele>
        <time>2014-07-31T09:43:44Z</time>
      </trkpt>
      <trkpt lat="42.9163120" lon="-8.3183590">
        <ele>389.8</ele>
        <time>2014-07-31T09:43:57Z</time>
      </trkpt>
      <trkpt lat="42.9161590" lon="-8.3189300">
        <ele>391.6</ele>
        <time>2014-07-31T09:44:13Z</time>
      </trkpt>
      <trkpt lat="42.9159280" lon="-8.3195200">
        <ele>394.4</ele>
        <time>2014-07-31T09:44:29Z</time>
      </trkpt>
      <trkpt lat="42.9157350" lon="-8.3199590">
        <ele>396.8</ele>
        <time>2014-07-31T09:44:41Z</time>
      </trkpt>
      <trkpt lat="42.9155630" lon="-8.3205120">
        <ele>399.3</ele>
        <time>2014-07-31T09:44:56Z</time>
      </trkpt>
      <trkpt lat="42.9154540" lon="-8.3210690">
        <ele>400.2</ele>
        <time>2014-07-31T09:45:10Z</time>
      </trkpt>
      <trkpt lat="42.9153280" lon="-8.3219750">
        <ele>402.5</ele>
        <time>2014-07-31T09:45:29Z</time>
      </trkpt>
      <trkpt lat="42.9152900" lon="-8.3226290">
        <ele>404.5</ele>
        <time>2014-07-31T09:45:42Z</time>
      </trkpt>
      <trkpt lat="42.9153200" lon="-8.3232730">
        <ele>406.3</ele>
        <time>2014-07-31T09:45:57Z</time>
      </trkpt>
      <trkpt lat="42.9153950" lon="-8.3235910">
        <ele>407.6</ele>
        <time>2014-07-31T09:46:07Z</time>
      </trkpt>
      <trkpt lat="42.9154870" lon="-8.3237170">
        <ele>409.5</ele>
        <time>2014-07-31T09:46:11Z</time>
      </trkpt>
      <trkpt lat="42.9155150" lon="-8.3237240">
        <ele>410.0</ele>
        <time>2014-07-31T09:46:12Z</time>
      </trkpt>
      <trkpt lat="42.9155430" lon="-8.3237130">
        <ele>410.5</ele>
        <time>2014-07-31T09:46:13Z</time>
      </trkpt>
      <trkpt lat="42.9155730" lon="-8.3236930">
        <ele>411.1</ele>
        <time>2014-07-31T09:46:14Z</time>
      </trkpt>
      <trkpt lat="42.9156050" lon="-8.3236690">
        <ele>411.6</ele>
        <time>2014-07-31T09:46:15Z</time>
      </trkpt>
      <trkpt lat="42.9156340" lon="-8.3236440">
        <ele>412.2</ele>
        <time>2014-07-31T09:46:16Z</time>
      </trkpt>
      <trkpt lat="42.9156630" lon="-8.3236180">
        <ele>412.7</ele>
        <time>2014-07-31T09:46:17Z</time>
      </trkpt>
      <trkpt lat="42.9156950" lon="-8.3235940">
        <ele>413.2</ele>
        <time>2014-07-31T09:46:18Z</time>
      </trkpt>
      <trkpt lat="42.9160690" lon="-8.3234010">
        <ele>418.4</ele>
        <time>2014-07-31T09:46:30Z</time>
      </trkpt>
      <trkpt lat="42.9164780" lon="-8.3234160">
        <ele>422.4</ele>
        <time>2014-07-31T09:46:43Z</time>
      </trkpt>
      <trkpt lat="42.9165420" lon="-8.3234310">
        <ele>422.9</ele>
        <time>2014-07-31T09:46:47Z</time>
      </trkpt>
      <trkpt lat="42.9165510" lon="-8.3234560">
        <ele>422.8</ele>
        <time>2014-07-31T09:46:48Z</time>
      </trkpt>
      <trkpt lat="42.9165500" lon="-8.3234930">
        <ele>422.8</ele>
        <time>2014-07-31T09:46:49Z</time>
      </trkpt>
      <trkpt lat="42.9164580" lon="-8.3241110">
        <ele>421.9</ele>
        <time>2014-07-31T09:47:00Z</time>
      </trkpt>
      <trkpt lat="42.9164310" lon="-8.3242850">
        <ele>421.3</ele>
        <time>2014-07-31T09:47:03Z</time>
      </trkpt>
      <trkpt lat="42.9164210" lon="-8.3243430">
        <ele>421.0</ele>
        <time>2014-07-31T09:47:04Z</time>
      </trkpt>
      <trkpt lat="42.9164120" lon="-8.3244660">
        <ele>420.4</ele>
        <time>2014-07-31T09:47:06Z</time>
      </trkpt>
      <trkpt lat="42.9164090" lon="-8.3245280">
        <ele>420.1</ele>
        <time>2014-07-31T09:47:07Z</time>
      </trkpt>
      <trkpt lat="42.9163840" lon="-8.3247250">
        <ele>419.3</ele>
        <time>2014-07-31T09:47:10Z</time>
      </trkpt>
      <trkpt lat="42.9163930" lon="-8.3254810">
        <ele>415.8</ele>
        <time>2014-07-31T09:47:21Z</time>
      </trkpt>
      <trkpt lat="42.9164080" lon="-8.3255470">
        <ele>415.4</ele>
        <time>2014-07-31T09:47:22Z</time>
      </trkpt>
      <trkpt lat="42.9164180" lon="-8.3256220">
        <ele>414.9</ele>
        <time>2014-07-31T09:47:23Z</time>
      </trkpt>
      <trkpt lat="42.9164220" lon="-8.3257000">
        <ele>414.5</ele>
        <time>2014-07-31T09:47:24Z</time>
      </trkpt>
      <trkpt lat="42.9164320" lon="-8.3257790">
        <ele>414.1</ele>
        <time>2014-07-31T09:47:25Z</time>
      </trkpt>
      <trkpt lat="42.9164490" lon="-8.3258510">
        <ele>413.7</ele>
        <time>2014-07-31T09:47:26Z</time>
      </trkpt>
      <trkpt lat="42.9164660" lon="-8.3259220">
        <ele>413.2</ele>
        <time>2014-07-31T09:47:27Z</time>
      </trkpt>
      <trkpt lat="42.9164780" lon="-8.3259900">
        <ele>412.8</ele>
        <time>2014-07-31T09:47:28Z</time>
      </trkpt>
      <trkpt lat="42.9164860" lon="-8.3260520">
        <ele>412.4</ele>
        <time>2014-07-31T09:47:29Z</time>
      </trkpt>
      <trkpt lat="42.9165190" lon="-8.3262540">
        <ele>411.4</ele>
        <time>2014-07-31T09:47:32Z</time>
      </trkpt>
      <trkpt lat="42.9165920" lon="-8.3267520">
        <ele>408.4</ele>
        <time>2014-07-31T09:47:39Z</time>
      </trkpt>
      <trkpt lat="42.9166010" lon="-8.3268270">
        <ele>407.9</ele>
        <time>2014-07-31T09:47:40Z</time>
      </trkpt>
      <trkpt lat="42.9166510" lon="-8.3270130">
        <ele>406.8</ele>
        <time>2014-07-31T09:47:43Z</time>
      </trkpt>
      <trkpt lat="42.9167090" lon="-8.3271920">
        <ele>405.7</ele>
        <time>2014-07-31T09:47:46Z</time>
      </trkpt>
      <trkpt lat="42.9167260" lon="-8.3272530">
        <ele>405.3</ele>
        <time>2014-07-31T09:47:47Z</time>
      </trkpt>
      <trkpt lat="42.9167360" lon="-8.3273070">
        <ele>404.9</ele>
        <time>2014-07-31T09:47:48Z</time>
      </trkpt>
      <trkpt lat="42.9168460" lon="-8.3277740">
        <ele>401.5</ele>
        <time>2014-07-31T09:47:57Z</time>
      </trkpt>
      <trkpt lat="42.9169270" lon="-8.3280500">
        <ele>399.0</ele>
        <time>2014-07-31T09:48:02Z</time>
      </trkpt>
      <trkpt lat="42.9169890" lon="-8.3284070">
        <ele>394.6</ele>
        <time>2014-07-31T09:48:10Z</time>
      </trkpt>
      <trkpt lat="42.9170000" lon="-8.3284860">
        <ele>393.6</ele>
        <time>2014-07-31T09:48:11Z</time>
      </trkpt>
      <trkpt lat="42.9170200" lon="-8.3285680">
        <ele>392.5</ele>
        <time>2014-07-31T09:48:12Z</time>
      </trkpt>
      <trkpt lat="42.9171320" lon="-8.3289610">
        <ele>387.5</ele>
        <time>2014-07-31T09:48:17Z</time>
      </trkpt>
      <trkpt lat="42.9172070" lon="-8.3292270">
        <ele>384.5</ele>
        <time>2014-07-31T09:48:20Z</time>
      </trkpt>
      <trkpt lat="42.9173330" lon="-8.3297390">
        <ele>380.0</ele>
        <time>2014-07-31T09:48:27Z</time>
      </trkpt>
      <trkpt lat="42.9173540" lon="-8.3298030">
        <ele>379.5</ele>
        <time>2014-07-31T09:48:28Z</time>
      </trkpt>
      <trkpt lat="42.9174050" lon="-8.3300360">
        <ele>377.7</ele>
        <time>2014-07-31T09:48:31Z</time>
      </trkpt>
      <trkpt lat="42.9174510" lon="-8.3303650">
        <ele>374.4</ele>
        <time>2014-07-31T09:48:35Z</time>
      </trkpt>
      <trkpt lat="42.9174590" lon="-8.3304420">
        <ele>372.8</ele>
        <time>2014-07-31T09:48:36Z</time>
      </trkpt>
      <trkpt lat="42.9174680" lon="-8.3305150">
        <ele>372.7</ele>
        <time>2014-07-31T09:48:37Z</time>
      </trkpt>
      <trkpt lat="42.9174850" lon="-8.3305800">
        <ele>372.6</ele>
        <time>2014-07-31T09:48:38Z</time>
      </trkpt>
      <trkpt lat="42.9175060" lon="-8.3306490">
        <ele>372.5</ele>
        <time>2014-07-31T09:48:39Z</time>
      </trkpt>
      <trkpt lat="42.9175230" lon="-8.3307250">
        <ele>372.4</ele>
        <time>2014-07-31T09:48:40Z</time>
      </trkpt>
      <trkpt lat="42.9175330" lon="-8.3308030">
        <ele>372.4</ele>
        <time>2014-07-31T09:48:41Z</time>
      </trkpt>
      <trkpt lat="42.9175390" lon="-8.3308690">
        <ele>372.3</ele>
        <time>2014-07-31T09:48:42Z</time>
      </trkpt>
      <trkpt lat="42.9176150" lon="-8.3313100">
        <ele>372.0</ele>
        <time>2014-07-31T09:48:50Z</time>
      </trkpt>
      <trkpt lat="42.9176430" lon="-8.3317490">
        <ele>372.0</ele>
        <time>2014-07-31T09:48:57Z</time>
      </trkpt>
      <trkpt lat="42.9176520" lon="-8.3318060">
        <ele>372.0</ele>
        <time>2014-07-31T09:48:58Z</time>
      </trkpt>
      <trkpt lat="42.9176560" lon="-8.3318710">
        <ele>371.9</ele>
        <time>2014-07-31T09:48:59Z</time>
      </trkpt>
      <trkpt lat="42.9176640" lon="-8.3319290">
        <ele>371.9</ele>
        <time>2014-07-31T09:49:00Z</time>
      </trkpt>
      <trkpt lat="42.9176690" lon="-8.3319860">
        <ele>371.9</ele>
        <time>2014-07-31T09:49:01Z</time>
      </trkpt>
      <trkpt lat="42.9176730" lon="-8.3320480">
        <ele>371.8</ele>
        <time>2014-07-31T09:49:02Z</time>
      </trkpt>
      <trkpt lat="42.9176760" lon="-8.3321150">
        <ele>371.7</ele>
        <time>2014-07-31T09:49:03Z</time>
      </trkpt>
      <trkpt lat="42.9177080" lon="-8.3325630">
        <ele>371.2</ele>
        <time>2014-07-31T09:49:10Z</time>
      </trkpt>
      <trkpt lat="42.9178210" lon="-8.3332550">
        <ele>369.1</ele>
        <time>2014-07-31T09:49:21Z</time>
      </trkpt>
      <trkpt lat="42.9178270" lon="-8.3333240">
        <ele>368.9</ele>
        <time>2014-07-31T09:49:22Z</time>
      </trkpt>
      <trkpt lat="42.9179610" lon="-8.3338450">
        <ele>368.2</ele>
        <time>2014-07-31T09:49:32Z</time>
      </trkpt>
      <trkpt lat="42.9180610" lon="-8.3340690">
        <ele>367.9</ele>
        <time>2014-07-31T09:49:36Z</time>
      </trkpt>
      <trkpt lat="42.9181620" lon="-8.3344490">
        <ele>366.4</ele>
        <time>2014-07-31T09:49:42Z</time>
      </trkpt>
      <trkpt lat="42.9182100" lon="-8.3349300">
        <ele>362.4</ele>
        <time>2014-07-31T09:49:49Z</time>
      </trkpt>
      <trkpt lat="42.9182190" lon="-8.3349930">
        <ele>361.7</ele>
        <time>2014-07-31T09:49:50Z</time>
      </trkpt>
      <trkpt lat="42.9182270" lon="-8.3350580">
        <ele>361.1</ele>
        <time>2014-07-31T09:49:51Z</time>
      </trkpt>
      <trkpt lat="42.9182740" lon="-8.3355630">
        <ele>355.9</ele>
        <time>2014-07-31T09:49:58Z</time>
      </trkpt>
      <trkpt lat="42.9182770" lon="-8.3357120">
        <ele>354.4</ele>
        <time>2014-07-31T09:50:00Z</time>
      </trkpt>
      <trkpt lat="42.9182760" lon="-8.3357830">
        <ele>353.7</ele>
        <time>2014-07-31T09:50:01Z</time>
      </trkpt>
      <trkpt lat="42.9183260" lon="-8.3361080">
        <ele>351.1</ele>
        <time>2014-07-31T09:50:07Z</time>
      </trkpt>
      <trkpt lat="42.9183300" lon="-8.3361700">
        <ele>350.8</ele>
        <time>2014-07-31T09:50:08Z</time>
      </trkpt>
      <trkpt lat="42.9183720" lon="-8.3367840">
        <ele>348.7</ele>
        <time>2014-07-31T09:50:16Z</time>
      </trkpt>
      <trkpt lat="42.9184400" lon="-8.3374440">
        <ele>345.8</ele>
        <time>2014-07-31T09:50:23Z</time>
      </trkpt>
      <trkpt lat="42.9184700" lon="-8.3377660">
        <ele>344.7</ele>
        <time>2014-07-31T09:50:27Z</time>
      </trkpt>
      <trkpt lat="42.9184910" lon="-8.3381710">
        <ele>343.4</ele>
        <time>2014-07-31T09:50:32Z</time>
      </trkpt>
      <trkpt lat="42.9184660" lon="-8.3385430">
        <ele>342.6</ele>
        <time>2014-07-31T09:50:36Z</time>
      </trkpt>
      <trkpt lat="42.9182610" lon="-8.3393740">
        <ele>340.7</ele>
        <time>2014-07-31T09:50:46Z</time>
      </trkpt>
      <trkpt lat="42.9182270" lon="-8.3396110">
        <ele>340.4</ele>
        <time>2014-07-31T09:50:49Z</time>
      </trkpt>
      <trkpt lat="42.9181730" lon="-8.3398020">
        <ele>340.1</ele>
        <time>2014-07-31T09:50:52Z</time>
      </trkpt>
      <trkpt lat="42.9181580" lon="-8.3398650">
        <ele>340.0</ele>
        <time>2014-07-31T09:50:53Z</time>
      </trkpt>
      <trkpt lat="42.9181170" lon="-8.3400300">
        <ele>339.8</ele>
        <time>2014-07-31T09:50:56Z</time>
      </trkpt>
      <trkpt lat="42.9181100" lon="-8.3400980">
        <ele>339.7</ele>
        <time>2014-07-31T09:50:57Z</time>
      </trkpt>
      <trkpt lat="42.9180960" lon="-8.3401740">
        <ele>339.6</ele>
        <time>2014-07-31T09:50:58Z</time>
      </trkpt>
      <trkpt lat="42.9180580" lon="-8.3403260">
        <ele>339.4</ele>
        <time>2014-07-31T09:51:00Z</time>
      </trkpt>
      <trkpt lat="42.9180330" lon="-8.3403970">
        <ele>339.2</ele>
        <time>2014-07-31T09:51:01Z</time>
      </trkpt>
      <trkpt lat="42.9178860" lon="-8.3408070">
        <ele>338.2</ele>
        <time>2014-07-31T09:51:08Z</time>
      </trkpt>
      <trkpt lat="42.9178520" lon="-8.3409400">
        <ele>337.7</ele>
        <time>2014-07-31T09:51:10Z</time>
      </trkpt>
      <trkpt lat="42.9177660" lon="-8.3412750">
        <ele>336.2</ele>
        <time>2014-07-31T09:51:17Z</time>
      </trkpt>
      <trkpt lat="42.9177350" lon="-8.3413940">
        <ele>335.8</ele>
        <time>2014-07-31T09:51:19Z</time>
      </trkpt>
      <trkpt lat="42.9176480" lon="-8.3416650">
        <ele>334.9</ele>
        <time>2014-07-31T09:51:23Z</time>
      </trkpt>
      <trkpt lat="42.9174030" lon="-8.3423980">
        <ele>332.6</ele>
        <time>2014-07-31T09:51:32Z</time>
      </trkpt>
      <trkpt lat="42.9173420" lon="-8.3425900">
        <ele>332.1</ele>
        <time>2014-07-31T09:51:34Z</time>
      </trkpt>
      <trkpt lat="42.9172720" lon="-8.3427910">
        <ele>331.7</ele>
        <time>2014-07-31T09:51:36Z</time>
      </trkpt>
      <trkpt lat="42.9170490" lon="-8.3431460">
        <ele>331.5</ele>
        <time>2014-07-31T09:51:41Z</time>
      </trkpt>
      <trkpt lat="42.9169260" lon="-8.3432060">
        <ele>331.5</ele>
        <time>2014-07-31T09:51:43Z</time>
      </trkpt>
      <trkpt lat="42.9168760" lon="-8.3432250">
        <ele>331.6</ele>
        <time>2014-07-31T09:51:44Z</time>
      </trkpt>
      <trkpt lat="42.9168330" lon="-8.3432180">
        <ele>331.7</ele>
        <time>2014-07-31T09:51:45Z</time>
      </trkpt>
      <trkpt lat="42.9167920" lon="-8.3431970">
        <ele>331.8</ele>
        <time>2014-07-31T09:51:46Z</time>
      </trkpt>
      <trkpt lat="42.9167490" lon="-8.3431550">
        <ele>332.0</ele>
        <time>2014-07-31T09:51:47Z</time>
      </trkpt>
      <trkpt lat="42.9167030" lon="-8.3431380">
        <ele>332.1</ele>
        <time>2014-07-31T09:51:48Z</time>
      </trkpt>
      <trkpt lat="42.9166060" lon="-8.3432260">
        <ele>332.4</ele>
        <time>2014-07-31T09:51:52Z</time>
      </trkpt>
      <trkpt lat="42.9165720" lon="-8.3434790">
        <ele>330.3</ele>
        <time>2014-07-31T09:51:57Z</time>
      </trkpt>
      <trkpt lat="42.9165730" lon="-8.3435340">
        <ele>329.9</ele>
        <time>2014-07-31T09:51:58Z</time>
      </trkpt>
      <trkpt lat="42.9165740" lon="-8.3435830">
        <ele>329.4</ele>
        <time>2014-07-31T09:51:59Z</time>
      </trkpt>
      <trkpt lat="42.9165730" lon="-8.3436310">
        <ele>328.9</ele>
        <time>2014-07-31T09:52:00Z</time>
      </trkpt>
      <trkpt lat="42.9165740" lon="-8.3436800">
        <ele>328.3</ele>
        <time>2014-07-31T09:52:01Z</time>
      </trkpt>
      <trkpt lat="42.9165550" lon="-8.3438200">
        <ele>326.5</ele>
        <time>2014-07-31T09:52:04Z</time>
      </trkpt>
      <trkpt lat="42.9165410" lon="-8.3438500">
        <ele>326.0</ele>
        <time>2014-07-31T09:52:05Z</time>
      </trkpt>
      <trkpt lat="42.9165270" lon="-8.3438810">
        <ele>325.5</ele>
        <time>2014-07-31T09:52:06Z</time>
      </trkpt>
      <trkpt lat="42.9164490" lon="-8.3439800">
        <ele>325.3</ele>
        <time>2014-07-31T09:52:10Z</time>
      </trkpt>
      <trkpt lat="42.9164210" lon="-8.3439750">
        <ele>325.2</ele>
        <time>2014-07-31T09:52:11Z</time>
      </trkpt>
      <trkpt lat="42.9163880" lon="-8.3439930">
        <ele>325.2</ele>
        <time>2014-07-31T09:52:12Z</time>
      </trkpt>
      <trkpt lat="42.9163170" lon="-8.3443470">
        <ele>321.7</ele>
        <time>2014-07-31T09:52:20Z</time>
      </trkpt>
      <trkpt lat="42.9163050" lon="-8.3444120">
        <ele>321.2</ele>
        <time>2014-07-31T09:52:21Z</time>
      </trkpt>
      <trkpt lat="42.9162840" lon="-8.3444850">
        <ele>320.6</ele>
        <time>2014-07-31T09:52:22Z</time>
      </trkpt>
      <trkpt lat="42.9161470" lon="-8.3449180">
        <ele>317.5</ele>
        <time>2014-07-31T09:52:27Z</time>
      </trkpt>
      <trkpt lat="42.9160700" lon="-8.3451580">
        <ele>316.2</ele>
        <time>2014-07-31T09:52:30Z</time>
      </trkpt>
      <trkpt lat="42.9159850" lon="-8.3454110">
        <ele>314.6</ele>
        <time>2014-07-31T09:52:33Z</time>
      </trkpt>
      <trkpt lat="42.9157120" lon="-8.3459030">
        <ele>310.9</ele>
        <time>2014-07-31T09:52:39Z</time>
      </trkpt>
      <trkpt lat="42.9156840" lon="-8.3459660">
        <ele>309.9</ele>
        <time>2014-07-31T09:52:40Z</time>
      </trkpt>
      <trkpt lat="42.9156670" lon="-8.3460220">
        <ele>309.0</ele>
        <time>2014-07-31T09:52:41Z</time>
      </trkpt>
      <trkpt lat="42.9156380" lon="-8.3461390">
        <ele>307.6</ele>
        <time>2014-07-31T09:52:43Z</time>
      </trkpt>
      <trkpt lat="42.9156180" lon="-8.3461920">
        <ele>307.1</ele>
        <time>2014-07-31T09:52:44Z</time>
      </trkpt>
      <trkpt lat="42.9155920" lon="-8.3462460">
        <ele>306.7</ele>
        <time>2014-07-31T09:52:45Z</time>
      </trkpt>
      <trkpt lat="42.9155580" lon="-8.3462990">
        <ele>306.4</ele>
        <time>2014-07-31T09:52:46Z</time>
      </trkpt>
      <trkpt lat="42.9155270" lon="-8.3463550">
        <ele>306.1</ele>
        <time>2014-07-31T09:52:47Z</time>
      </trkpt>
      <trkpt lat="42.9155020" lon="-8.3464150">
        <ele>305.9</ele>
        <time>2014-07-31T09:52:48Z</time>
      </trkpt>
      <trkpt lat="42.9154720" lon="-8.3464710">
        <ele>305.7</ele>
        <time>2014-07-31T09:52:49Z</time>
      </trkpt>
      <trkpt lat="42.9154400" lon="-8.3465250">
        <ele>305.5</ele>
        <time>2014-07-31T09:52:50Z</time>
      </trkpt>
      <trkpt lat="42.9153720" lon="-8.3466310">
        <ele>305.2</ele>
        <time>2014-07-31T09:52:52Z</time>
      </trkpt>
      <trkpt lat="42.9152980" lon="-8.3467220">
        <ele>304.8</ele>
        <time>2014-07-31T09:52:54Z</time>
      </trkpt>
      <trkpt lat="42.9152590" lon="-8.3467670">
        <ele>304.6</ele>
        <time>2014-07-31T09:52:55Z</time>
      </trkpt>
      <trkpt lat="42.9151890" lon="-8.3468660">
        <ele>304.3</ele>
        <time>2014-07-31T09:52:57Z</time>
      </trkpt>
      <trkpt lat="42.9151570" lon="-8.3469250">
        <ele>304.2</ele>
        <time>2014-07-31T09:52:58Z</time>
      </trkpt>
      <trkpt lat="42.9151270" lon="-8.3469830">
        <ele>304.0</ele>
        <time>2014-07-31T09:52:59Z</time>
      </trkpt>
      <trkpt lat="42.9150670" lon="-8.3470770">
        <ele>303.7</ele>
        <time>2014-07-31T09:53:01Z</time>
      </trkpt>
      <trkpt lat="42.9150310" lon="-8.3471060">
        <ele>303.6</ele>
        <time>2014-07-31T09:53:02Z</time>
      </trkpt>
      <trkpt lat="42.9149900" lon="-8.3471390">
        <ele>303.4</ele>
        <time>2014-07-31T09:53:03Z</time>
      </trkpt>
      <trkpt lat="42.9149470" lon="-8.3471850">
        <ele>303.1</ele>
        <time>2014-07-31T09:53:04Z</time>
      </trkpt>
      <trkpt lat="42.9149060" lon="-8.3472330">
        <ele>302.8</ele>
        <time>2014-07-31T09:53:05Z</time>
      </trkpt>
      <trkpt lat="42.9148680" lon="-8.3472860">
        <ele>302.5</ele>
        <time>2014-07-31T09:53:06Z</time>
      </trkpt>
      <trkpt lat="42.9148360" lon="-8.3473450">
        <ele>302.1</ele>
        <time>2014-07-31T09:53:07Z</time>
      </trkpt>
      <trkpt lat="42.9148080" lon="-8.3474200">
        <ele>301.7</ele>
        <time>2014-07-31T09:53:08Z</time>
      </trkpt>
      <trkpt lat="42.9147820" lon="-8.3475020">
        <ele>301.2</ele>
        <time>2014-07-31T09:53:09Z</time>
      </trkpt>
      <trkpt lat="42.9147590" lon="-8.3475900">
        <ele>300.7</ele>
        <time>2014-07-31T09:53:10Z</time>
      </trkpt>
      <trkpt lat="42.9147400" lon="-8.3476850">
        <ele>300.2</ele>
        <time>2014-07-31T09:53:11Z</time>
      </trkpt>
      <trkpt lat="42.9147250" lon="-8.3477810">
        <ele>299.6</ele>
        <time>2014-07-31T09:53:12Z</time>
      </trkpt>
      <trkpt lat="42.9147110" lon="-8.3478840">
        <ele>298.8</ele>
        <time>2014-07-31T09:53:13Z</time>
      </trkpt>
      <trkpt lat="42.9146830" lon="-8.3479940">
        <ele>298.0</ele>
        <time>2014-07-31T09:53:14Z</time>
      </trkpt>
      <trkpt lat="42.9146480" lon="-8.3480930">
        <ele>297.1</ele>
        <time>2014-07-31T09:53:15Z</time>
      </trkpt>
      <trkpt lat="42.9146060" lon="-8.3481940">
        <ele>296.4</ele>
        <time>2014-07-31T09:53:16Z</time>
      </trkpt>
      <trkpt lat="42.9145030" lon="-8.3484370">
        <ele>295.0</ele>
        <time>2014-07-31T09:53:19Z</time>
      </trkpt>
      <trkpt lat="42.9144730" lon="-8.3485340">
        <ele>294.6</ele>
        <time>2014-07-31T09:53:20Z</time>
      </trkpt>
      <trkpt lat="42.9144180" lon="-8.3487090">
        <ele>294.1</ele>
        <time>2014-07-31T09:53:22Z</time>
      </trkpt>
      <trkpt lat="42.9143930" lon="-8.3487870">
        <ele>294.0</ele>
        <time>2014-07-31T09:53:23Z</time>
      </trkpt>
      <trkpt lat="42.9144020" lon="-8.3491160">
        <ele>293.4</ele>
        <time>2014-07-31T09:53:30Z</time>
      </trkpt>
      <trkpt lat="42.9145670" lon="-8.3492880">
        <ele>292.6</ele>
        <time>2014-07-31T09:53:35Z</time>
      </trkpt>
      <trkpt lat="42.9146490" lon="-8.3493950">
        <ele>291.1</ele>
        <time>2014-07-31T09:53:37Z</time>
      </trkpt>
      <trkpt lat="42.9146820" lon="-8.3494540">
        <ele>290.2</ele>
        <time>2014-07-31T09:53:38Z</time>
      </trkpt>
      <trkpt lat="42.9147030" lon="-8.3495180">
        <ele>289.4</ele>
        <time>2014-07-31T09:53:39Z</time>
      </trkpt>
      <trkpt lat="42.9147030" lon="-8.3495850">
        <ele>288.6</ele>
        <time>2014-07-31T09:53:40Z</time>
      </trkpt>
      <trkpt lat="42.9146960" lon="-8.3496520">
        <ele>287.7</ele>
        <time>2014-07-31T09:53:41Z</time>
      </trkpt>
      <trkpt lat="42.9146930" lon="-8.3497240">
        <ele>286.7</ele>
        <time>2014-07-31T09:53:42Z</time>
      </trkpt>
      <trkpt lat="42.9146890" lon="-8.3497990">
        <ele>285.6</ele>
        <time>2014-07-31T09:53:43Z</time>
      </trkpt>
      <trkpt lat="42.9146810" lon="-8.3498710">
        <ele>284.8</ele>
        <time>2014-07-31T09:53:44Z</time>
      </trkpt>
      <trkpt lat="42.9146690" lon="-8.3499420">
        <ele>283.9</ele>
        <time>2014-07-31T09:53:45Z</time>
      </trkpt>
      <trkpt lat="42.9146600" lon="-8.3500050">
        <ele>283.2</ele>
        <time>2014-07-31T09:53:46Z</time>
      </trkpt>
      <trkpt lat="42.9146430" lon="-8.3500690">
        <ele>282.4</ele>
        <time>2014-07-31T09:53:47Z</time>
      </trkpt>
      <trkpt lat="42.9146210" lon="-8.3501390">
        <ele>281.4</ele>
        <time>2014-07-31T09:53:48Z</time>
      </trkpt>
      <trkpt lat="42.9145940" lon="-8.3502200">
        <ele>280.7</ele>
        <time>2014-07-31T09:53:49Z</time>
      </trkpt>
      <trkpt lat="42.9144020" lon="-8.3508850">
        <ele>276.4</ele>
        <time>2014-07-31T09:53:57Z</time>
      </trkpt>
      <trkpt lat="42.9143760" lon="-8.3509600">
        <ele>276.1</ele>
        <time>2014-07-31T09:53:58Z</time>
      </trkpt>
      <trkpt lat="42.9140150" lon="-8.3520860">
        <ele>273.9</ele>
        <time>2014-07-31T09:54:12Z</time>
      </trkpt>
      <trkpt lat="42.9136340" lon="-8.3529390">
        <ele>271.8</ele>
        <time>2014-07-31T09:54:23Z</time>
      </trkpt>
      <trkpt lat="42.9135930" lon="-8.3530010">
        <ele>271.7</ele>
        <time>2014-07-31T09:54:24Z</time>
      </trkpt>
      <trkpt lat="42.9135490" lon="-8.3530560">
        <ele>271.6</ele>
        <time>2014-07-31T09:54:25Z</time>
      </trkpt>
      <trkpt lat="42.9134370" lon="-8.3531870">
        <ele>271.1</ele>
        <time>2014-07-31T09:54:28Z</time>
      </trkpt>
      <trkpt lat="42.9130540" lon="-8.3536000">
        <ele>269.2</ele>
        <time>2014-07-31T09:54:39Z</time>
      </trkpt>
      <trkpt lat="42.9130210" lon="-8.3536440">
        <ele>269.2</ele>
        <time>2014-07-31T09:54:40Z</time>
      </trkpt>
      <trkpt lat="42.9129930" lon="-8.3536940">
        <ele>269.1</ele>
        <time>2014-07-31T09:54:41Z</time>
      </trkpt>
      <trkpt lat="42.9129670" lon="-8.3537530">
        <ele>268.9</ele>
        <time>2014-07-31T09:54:42Z</time>
      </trkpt>
      <trkpt lat="42.9129420" lon="-8.3538200">
        <ele>268.6</ele>
        <time>2014-07-31T09:54:43Z</time>
      </trkpt>
      <trkpt lat="42.9129180" lon="-8.3538920">
        <ele>268.2</ele>
        <time>2014-07-31T09:54:44Z</time>
      </trkpt>
      <trkpt lat="42.9127760" lon="-8.3543180">
        <ele>265.8</ele>
        <time>2014-07-31T09:54:49Z</time>
      </trkpt>
      <trkpt lat="42.9126850" lon="-8.3546880">
        <ele>263.8</ele>
        <time>2014-07-31T09:54:53Z</time>
      </trkpt>
      <trkpt lat="42.9125300" lon="-8.3552690">
        <ele>260.5</ele>
        <time>2014-07-31T09:55:00Z</time>
      </trkpt>
      <trkpt lat="42.9124890" lon="-8.3554190">
        <ele>259.8</ele>
        <time>2014-07-31T09:55:02Z</time>
      </trkpt>
      <trkpt lat="42.9124720" lon="-8.3554990">
        <ele>259.5</ele>
        <time>2014-07-31T09:55:03Z</time>
      </trkpt>
      <trkpt lat="42.9124630" lon="-8.3555910">
        <ele>259.3</ele>
        <time>2014-07-31T09:55:04Z</time>
      </trkpt>
      <trkpt lat="42.9124600" lon="-8.3556910">
        <ele>259.0</ele>
        <time>2014-07-31T09:55:05Z</time>
      </trkpt>
      <trkpt lat="42.9124590" lon="-8.3557990">
        <ele>258.4</ele>
        <time>2014-07-31T09:55:06Z</time>
      </trkpt>
      <trkpt lat="42.9124670" lon="-8.3562880">
        <ele>255.9</ele>
        <time>2014-07-31T09:55:10Z</time>
      </trkpt>
      <trkpt lat="42.9124590" lon="-8.3565510">
        <ele>254.8</ele>
        <time>2014-07-31T09:55:12Z</time>
      </trkpt>
      <trkpt lat="42.9124490" lon="-8.3566600">
        <ele>254.7</ele>
        <time>2014-07-31T09:55:13Z</time>
      </trkpt>
      <trkpt lat="42.9123900" lon="-8.3570160">
        <ele>255.0</ele>
        <time>2014-07-31T09:55:17Z</time>
      </trkpt>
      <trkpt lat="42.9123700" lon="-8.3570810">
        <ele>255.2</ele>
        <time>2014-07-31T09:55:18Z</time>
      </trkpt>
      <trkpt lat="42.9123560" lon="-8.3571370">
        <ele>255.5</ele>
        <time>2014-07-31T09:55:19Z</time>
      </trkpt>
      <trkpt lat="42.9123500" lon="-8.3571850">
        <ele>255.9</ele>
        <time>2014-07-31T09:55:20Z</time>
      </trkpt>
      <trkpt lat="42.9123450" lon="-8.3572330">
        <ele>256.4</ele>
        <time>2014-07-31T09:55:21Z</time>
      </trkpt>
      <trkpt lat="42.9122740" lon="-8.3574460">
        <ele>258.2</ele>
        <time>2014-07-31T09:55:31Z</time>
      </trkpt>
      <trkpt lat="42.9122370" lon="-8.3574840">
        <ele>258.3</ele>
        <time>2014-07-31T09:55:43Z</time>
      </trkpt>
      <trkpt lat="42.9120310" lon="-8.3576670">
        <ele>260.6</ele>
        <time>2014-07-31T09:55:55Z</time>
      </trkpt>
      <trkpt lat="42.9119850" lon="-8.3577580">
        <ele>261.1</ele>
        <time>2014-07-31T09:56:00Z</time>
      </trkpt>
      <trkpt lat="42.9119740" lon="-8.3577740">
        <ele>261.3</ele>
        <time>2014-07-31T09:56:01Z</time>
      </trkpt>
      <trkpt lat="42.9119590" lon="-8.3577960">
        <ele>261.5</ele>
        <time>2014-07-31T09:56:02Z</time>
      </trkpt>
      <trkpt lat="42.9117000" lon="-8.3582160">
        <ele>264.1</ele>
        <time>2014-07-31T09:56:18Z</time>
      </trkpt>
      <trkpt lat="42.9114880" lon="-8.3585230">
        <ele>265.8</ele>
        <time>2014-07-31T09:56:32Z</time>
      </trkpt>
      <trkpt lat="42.9112950" lon="-8.3588490">
        <ele>267.5</ele>
        <time>2014-07-31T09:56:45Z</time>
      </trkpt>
      <trkpt lat="42.9110020" lon="-8.3593450">
        <ele>270.9</ele>
        <time>2014-07-31T09:57:03Z</time>
      </trkpt>
      <trkpt lat="42.9108030" lon="-8.3596230">
        <ele>272.6</ele>
        <time>2014-07-31T09:57:14Z</time>
      </trkpt>
      <trkpt lat="42.9106090" lon="-8.3599450">
        <ele>274.4</ele>
        <time>2014-07-31T09:57:26Z</time>
      </trkpt>
      <trkpt lat="42.9105630" lon="-8.3600540">
        <ele>274.8</ele>
        <time>2014-07-31T09:57:30Z</time>
      </trkpt>
      <trkpt lat="42.9105450" lon="-8.3600880">
        <ele>275.0</ele>
        <time>2014-07-31T09:57:31Z</time>
      </trkpt>
      <trkpt lat="42.9104040" lon="-8.3604430">
        <ele>277.3</ele>
        <time>2014-07-31T09:57:42Z</time>
      </trkpt>
      <trkpt lat="42.9102270" lon="-8.3608510">
        <ele>280.2</ele>
        <time>2014-07-31T09:57:54Z</time>
      </trkpt>
      <trkpt lat="42.9102110" lon="-8.3608870">
        <ele>280.4</ele>
        <time>2014-07-31T09:57:55Z</time>
      </trkpt>
      <trkpt lat="42.9101960" lon="-8.3609240">
        <ele>280.7</ele>
        <time>2014-07-31T09:57:56Z</time>
      </trkpt>
      <trkpt lat="42.9100470" lon="-8.3612790">
        <ele>282.9</ele>
        <time>2014-07-31T09:58:07Z</time>
      </trkpt>
      <trkpt lat="42.9100130" lon="-8.3615020">
        <ele>284.5</ele>
        <time>2014-07-31T09:58:15Z</time>
      </trkpt>
      <trkpt lat="42.9100140" lon="-8.3615380">
        <ele>284.7</ele>
        <time>2014-07-31T09:58:16Z</time>
      </trkpt>
      <trkpt lat="42.9100100" lon="-8.3615670">
        <ele>284.9</ele>
        <time>2014-07-31T09:58:17Z</time>
      </trkpt>
      <trkpt lat="42.9100020" lon="-8.3615950">
        <ele>285.1</ele>
        <time>2014-07-31T09:58:18Z</time>
      </trkpt>
      <trkpt lat="42.9099950" lon="-8.3616230">
        <ele>285.3</ele>
        <time>2014-07-31T09:58:19Z</time>
      </trkpt>
      <trkpt lat="42.9099870" lon="-8.3616490">
        <ele>285.5</ele>
        <time>2014-07-31T09:58:20Z</time>
      </trkpt>
      <trkpt lat="42.9099790" lon="-8.3616760">
        <ele>285.8</ele>
        <time>2014-07-31T09:58:21Z</time>
      </trkpt>
      <trkpt lat="42.9099700" lon="-8.3617020">
        <ele>286.1</ele>
        <time>2014-07-31T09:58:22Z</time>
      </trkpt>
      <trkpt lat="42.9099650" lon="-8.3617280">
        <ele>286.3</ele>
        <time>2014-07-31T09:58:23Z</time>
      </trkpt>
      <trkpt lat="42.9098610" lon="-8.3620510">
        <ele>289.1</ele>
        <time>2014-07-31T09:58:35Z</time>
      </trkpt>
      <trkpt lat="42.9098450" lon="-8.3620960">
        <ele>289.4</ele>
        <time>2014-07-31T09:58:37Z</time>
      </trkpt>
      <trkpt lat="42.9098380" lon="-8.3621240">
        <ele>289.7</ele>
        <time>2014-07-31T09:58:38Z</time>
      </trkpt>
      <trkpt lat="42.9098300" lon="-8.3621510">
        <ele>289.9</ele>
        <time>2014-07-31T09:58:39Z</time>
      </trkpt>
      <trkpt lat="42.9098220" lon="-8.3621780">
        <ele>290.2</ele>
        <time>2014-07-31T09:58:40Z</time>
      </trkpt>
      <trkpt lat="42.9098150" lon="-8.3622070">
        <ele>290.5</ele>
        <time>2014-07-31T09:58:41Z</time>
      </trkpt>
      <trkpt lat="42.9097050" lon="-8.3625160">
        <ele>293.7</ele>
        <time>2014-07-31T09:58:53Z</time>
      </trkpt>
      <trkpt lat="42.9096860" lon="-8.3625510">
        <ele>293.8</ele>
        <time>2014-07-31T09:58:55Z</time>
      </trkpt>
      <trkpt lat="42.9096490" lon="-8.3625900">
        <ele>294.0</ele>
        <time>2014-07-31T09:58:58Z</time>
      </trkpt>
      <trkpt lat="42.9095850" lon="-8.3627210">
        <ele>294.2</ele>
        <time>2014-07-31T09:59:03Z</time>
      </trkpt>
      <trkpt lat="42.9095770" lon="-8.3627550">
        <ele>294.3</ele>
        <time>2014-07-31T09:59:04Z</time>
      </trkpt>
      <trkpt lat="42.9095650" lon="-8.3627850">
        <ele>294.4</ele>
        <time>2014-07-31T09:59:05Z</time>
      </trkpt>
      <trkpt lat="42.9095560" lon="-8.3628230">
        <ele>294.5</ele>
        <time>2014-07-31T09:59:06Z</time>
      </trkpt>
      <trkpt lat="42.9095430" lon="-8.3628620">
        <ele>294.5</ele>
        <time>2014-07-31T09:59:07Z</time>
      </trkpt>
      <trkpt lat="42.9095310" lon="-8.3628960">
        <ele>294.6</ele>
        <time>2014-07-31T09:59:08Z</time>
      </trkpt>
      <trkpt lat="42.9095140" lon="-8.3629250">
        <ele>294.6</ele>
        <time>2014-07-31T09:59:09Z</time>
      </trkpt>
      <trkpt lat="42.9093360" lon="-8.3632370">
        <ele>295.2</ele>
        <time>2014-07-31T09:59:20Z</time>
      </trkpt>
      <trkpt lat="42.9091180" lon="-8.3636110">
        <ele>295.9</ele>
        <time>2014-07-31T09:59:33Z</time>
      </trkpt>
      <trkpt lat="42.9090580" lon="-8.3636930">
        <ele>296.1</ele>
        <time>2014-07-31T09:59:36Z</time>
      </trkpt>
      <trkpt lat="42.9087680" lon="-8.3634400">
        <ele>297.0</ele>
        <time>2014-07-31T09:59:51Z</time>
      </trkpt>
      <trkpt lat="42.9086830" lon="-8.3632240">
        <ele>297.6</ele>
        <time>2014-07-31T09:59:58Z</time>
      </trkpt>
      <trkpt lat="42.9083650" lon="-8.3633210">
        <ele>295.9</ele>
        <time>2014-07-31T10:00:09Z</time>
      </trkpt>
      <trkpt lat="42.9080120" lon="-8.3634750">
        <ele>294.2</ele>
        <time>2014-07-31T10:00:23Z</time>
      </trkpt>
      <trkpt lat="42.9076490" lon="-8.3636410">
        <ele>291.9</ele>
        <time>2014-07-31T10:00:37Z</time>
      </trkpt>
      <trkpt lat="42.9072710" lon="-8.3640290">
        <ele>289.7</ele>
        <time>2014-07-31T10:00:49Z</time>
      </trkpt>
      <trkpt lat="42.9072750" lon="-8.3640620">
        <ele>289.7</ele>
        <time>2014-07-31T10:00:50Z</time>
      </trkpt>
      <trkpt lat="42.9072940" lon="-8.3640880">
        <ele>289.7</ele>
        <time>2014-07-31T10:00:51Z</time>
      </trkpt>
      <trkpt lat="42.9073200" lon="-8.3641140">
        <ele>289.7</ele>
        <time>2014-07-31T10:00:52Z</time>
      </trkpt>
      <trkpt lat="42.9073470" lon="-8.3641360">
        <ele>289.7</ele>
        <time>2014-07-31T10:00:53Z</time>
      </trkpt>
      <trkpt lat="42.9073750" lon="-8.3641570">
        <ele>289.7</ele>
        <time>2014-07-31T10:00:54Z</time>
      </trkpt>
      <trkpt lat="42.9077320" lon="-8.3646590">
        <ele>292.4</ele>
        <time>2014-07-31T10:01:09Z</time>
      </trkpt>
      <trkpt lat="42.9080300" lon="-8.3651500">
        <ele>295.9</ele>
        <time>2014-07-31T10:01:22Z</time>
      </trkpt>
      <trkpt lat="42.9082470" lon="-8.3655180">
        <ele>300.0</ele>
        <time>2014-07-31T10:01:32Z</time>
      </trkpt>
      <trkpt lat="42.9082980" lon="-8.3656820">
        <ele>301.0</ele>
        <time>2014-07-31T10:01:36Z</time>
      </trkpt>
      <trkpt lat="42.9082820" lon="-8.3657540">
        <ele>300.9</ele>
        <time>2014-07-31T10:01:38Z</time>
      </trkpt>
      <trkpt lat="42.9082360" lon="-8.3658360">
        <ele>300.8</ele>
        <time>2014-07-31T10:01:42Z</time>
      </trkpt>
      <trkpt lat="42.9081360" lon="-8.3662700">
        <ele>300.1</ele>
        <time>2014-07-31T10:01:54Z</time>
      </trkpt>
      <trkpt lat="42.9080400" lon="-8.3665610">
        <ele>299.8</ele>
        <time>2014-07-31T10:02:03Z</time>
      </trkpt>
      <trkpt lat="42.9079360" lon="-8.3667770">
        <ele>299.3</ele>
        <time>2014-07-31T10:02:07Z</time>
      </trkpt>
      <trkpt lat="42.9078800" lon="-8.3669650">
        <ele>299.0</ele>
        <time>2014-07-31T10:02:11Z</time>
      </trkpt>
      <trkpt lat="42.9078210" lon="-8.3671500">
        <ele>298.4</ele>
        <time>2014-07-31T10:02:21Z</time>
      </trkpt>
      <trkpt lat="42.9078210" lon="-8.3671500">
        <ele>298.4</ele>
        <time>2014-07-31T10:02:54Z</time>
      </trkpt>
      <trkpt lat="42.9078420" lon="-8.3671440">
        <ele>298.4</ele>
        <time>2014-07-31T10:03:22Z</time>
      </trkpt>
      <trkpt lat="42.9077780" lon="-8.3672630">
        <ele>297.9</ele>
        <time>2014-07-31T10:03:32Z</time>
      </trkpt>
      <trkpt lat="42.9077330" lon="-8.3673840">
        <ele>297.5</ele>
        <time>2014-07-31T10:03:36Z</time>
      </trkpt>
      <trkpt lat="42.9076880" lon="-8.3674470">
        <ele>297.3</ele>
        <time>2014-07-31T10:03:48Z</time>
      </trkpt>
      <trkpt lat="42.9076880" lon="-8.3674470">
        <ele>297.3</ele>
        <time>2014-07-31T10:04:13Z</time>
      </trkpt>
      <trkpt lat="42.9076970" lon="-8.3674470">
        <ele>297.3</ele>
        <time>2014-07-31T10:04:40Z</time>
      </trkpt>
      <trkpt lat="42.9076740" lon="-8.3674830">
        <ele>297.1</ele>
        <time>2014-07-31T10:04:50Z</time>
      </trkpt>
      <trkpt lat="42.9074350" lon="-8.3680400">
        <ele>295.5</ele>
        <time>2014-07-31T10:05:04Z</time>
      </trkpt>
      <trkpt lat="42.9072590" lon="-8.3685200">
        <ele>294.5</ele>
        <time>2014-07-31T10:05:12Z</time>
      </trkpt>
      <trkpt lat="42.9070870" lon="-8.3690640">
        <ele>293.4</ele>
        <time>2014-07-31T10:05:23Z</time>
      </trkpt>
      <trkpt lat="42.9069690" lon="-8.3692270">
        <ele>292.7</ele>
        <time>2014-07-31T10:05:27Z</time>
      </trkpt>
      <trkpt lat="42.9068730" lon="-8.3694730">
        <ele>291.5</ele>
        <time>2014-07-31T10:05:31Z</time>
      </trkpt>
      <trkpt lat="42.9067890" lon="-8.3697030">
        <ele>290.5</ele>
        <time>2014-07-31T10:05:34Z</time>
      </trkpt>
      <trkpt lat="42.9066040" lon="-8.3701730">
        <ele>286.1</ele>
        <time>2014-07-31T10:05:43Z</time>
      </trkpt>
      <trkpt lat="42.9065790" lon="-8.3702120">
        <ele>285.5</ele>
        <time>2014-07-31T10:05:44Z</time>
      </trkpt>
      <trkpt lat="42.9064770" lon="-8.3702640">
        <ele>283.9</ele>
        <time>2014-07-31T10:05:47Z</time>
      </trkpt>
      <trkpt lat="42.9063510" lon="-8.3703350">
        <ele>281.9</ele>
        <time>2014-07-31T10:05:50Z</time>
      </trkpt>
      <trkpt lat="42.9063160" lon="-8.3705520">
        <ele>279.1</ele>
        <time>2014-07-31T10:05:54Z</time>
      </trkpt>
      <trkpt lat="42.9063370" lon="-8.3706150">
        <ele>278.7</ele>
        <time>2014-07-31T10:05:55Z</time>
      </trkpt>
      <trkpt lat="42.9064670" lon="-8.3709510">
        <ele>276.4</ele>
        <time>2014-07-31T10:06:01Z</time>
      </trkpt>
      <trkpt lat="42.9064520" lon="-8.3710060">
        <ele>276.1</ele>
        <time>2014-07-31T10:06:02Z</time>
      </trkpt>
      <trkpt lat="42.9064230" lon="-8.3710570">
        <ele>274.8</ele>
        <time>2014-07-31T10:06:03Z</time>
      </trkpt>
      <trkpt lat="42.9063850" lon="-8.3711080">
        <ele>273.8</ele>
        <time>2014-07-31T10:06:04Z</time>
      </trkpt>
      <trkpt lat="42.9063390" lon="-8.3711640">
        <ele>272.7</ele>
        <time>2014-07-31T10:06:05Z</time>
      </trkpt>
      <trkpt lat="42.9061800" lon="-8.3713600">
        <ele>268.9</ele>
        <time>2014-07-31T10:06:08Z</time>
      </trkpt>
      <trkpt lat="42.9060160" lon="-8.3715870">
        <ele>268.4</ele>
        <time>2014-07-31T10:06:11Z</time>
      </trkpt>
      <trkpt lat="42.9059530" lon="-8.3716440">
        <ele>268.3</ele>
        <time>2014-07-31T10:06:12Z</time>
      </trkpt>
      <trkpt lat="42.9058910" lon="-8.3716800">
        <ele>268.3</ele>
        <time>2014-07-31T10:06:13Z</time>
      </trkpt>
      <trkpt lat="42.9058370" lon="-8.3717160">
        <ele>268.3</ele>
        <time>2014-07-31T10:06:14Z</time>
      </trkpt>
      <trkpt lat="42.9058010" lon="-8.3717780">
        <ele>268.3</ele>
        <time>2014-07-31T10:06:15Z</time>
      </trkpt>
      <trkpt lat="42.9057880" lon="-8.3718510">
        <ele>268.3</ele>
        <time>2014-07-31T10:06:16Z</time>
      </trkpt>
      <trkpt lat="42.9057950" lon="-8.3719230">
        <ele>268.3</ele>
        <time>2014-07-31T10:06:17Z</time>
      </trkpt>
      <trkpt lat="42.9058170" lon="-8.3719800">
        <ele>268.3</ele>
        <time>2014-07-31T10:06:18Z</time>
      </trkpt>
      <trkpt lat="42.9058480" lon="-8.3720230">
        <ele>268.4</ele>
        <time>2014-07-31T10:06:19Z</time>
      </trkpt>
      <trkpt lat="42.9058820" lon="-8.3720600">
        <ele>268.4</ele>
        <time>2014-07-31T10:06:20Z</time>
      </trkpt>
      <trkpt lat="42.9059140" lon="-8.3720960">
        <ele>268.4</ele>
        <time>2014-07-31T10:06:21Z</time>
      </trkpt>
      <trkpt lat="42.9059460" lon="-8.3721300">
        <ele>268.5</ele>
        <time>2014-07-31T10:06:22Z</time>
      </trkpt>
      <trkpt lat="42.9059820" lon="-8.3721650">
        <ele>268.5</ele>
        <time>2014-07-31T10:06:23Z</time>
      </trkpt>
      <trkpt lat="42.9060180" lon="-8.3722050">
        <ele>268.6</ele>
        <time>2014-07-31T10:06:24Z</time>
      </trkpt>
      <trkpt lat="42.9060530" lon="-8.3722480">
        <ele>268.7</ele>
        <time>2014-07-31T10:06:25Z</time>
      </trkpt>
      <trkpt lat="42.9060810" lon="-8.3722950">
        <ele>268.7</ele>
        <time>2014-07-31T10:06:26Z</time>
      </trkpt>
      <trkpt lat="42.9061020" lon="-8.3723470">
        <ele>268.8</ele>
        <time>2014-07-31T10:06:27Z</time>
      </trkpt>
      <trkpt lat="42.9061130" lon="-8.3724080">
        <ele>268.9</ele>
        <time>2014-07-31T10:06:28Z</time>
      </trkpt>
      <trkpt lat="42.9061140" lon="-8.3724770">
        <ele>269.0</ele>
        <time>2014-07-31T10:06:29Z</time>
      </trkpt>
      <trkpt lat="42.9061050" lon="-8.3725440">
        <ele>269.1</ele>
        <time>2014-07-31T10:06:30Z</time>
      </trkpt>
      <trkpt lat="42.9060910" lon="-8.3726080">
        <ele>269.1</ele>
        <time>2014-07-31T10:06:31Z</time>
      </trkpt>
      <trkpt lat="42.9059780" lon="-8.3732150">
        <ele>271.2</ele>
        <time>2014-07-31T10:06:43Z</time>
      </trkpt>
      <trkpt lat="42.9058460" lon="-8.3735870">
        <ele>272.9</ele>
        <time>2014-07-31T10:06:52Z</time>
      </trkpt>
      <trkpt lat="42.9056770" lon="-8.3740340">
        <ele>276.1</ele>
        <time>2014-07-31T10:07:02Z</time>
      </trkpt>
      <trkpt lat="42.9056460" lon="-8.3741010">
        <ele>276.6</ele>
        <time>2014-07-31T10:07:04Z</time>
      </trkpt>
      <trkpt lat="42.9056310" lon="-8.3741420">
        <ele>276.9</ele>
        <time>2014-07-31T10:07:05Z</time>
      </trkpt>
      <trkpt lat="42.9056170" lon="-8.3741860">
        <ele>277.2</ele>
        <time>2014-07-31T10:07:06Z</time>
      </trkpt>
      <trkpt lat="42.9056050" lon="-8.3742290">
        <ele>277.5</ele>
        <time>2014-07-31T10:07:07Z</time>
      </trkpt>
      <trkpt lat="42.9055910" lon="-8.3742650">
        <ele>277.7</ele>
        <time>2014-07-31T10:07:08Z</time>
      </trkpt>
      <trkpt lat="42.9055780" lon="-8.3743000">
        <ele>277.9</ele>
        <time>2014-07-31T10:07:09Z</time>
      </trkpt>
      <trkpt lat="42.9055650" lon="-8.3743420">
        <ele>278.2</ele>
        <time>2014-07-31T10:07:10Z</time>
      </trkpt>
      <trkpt lat="42.9054340" lon="-8.3745720">
        <ele>280.2</ele>
        <time>2014-07-31T10:07:17Z</time>
      </trkpt>
      <trkpt lat="42.9054130" lon="-8.3745950">
        <ele>280.5</ele>
        <time>2014-07-31T10:07:18Z</time>
      </trkpt>
      <trkpt lat="42.9053970" lon="-8.3746410">
        <ele>280.9</ele>
        <time>2014-07-31T10:07:19Z</time>
      </trkpt>
      <trkpt lat="42.9051470" lon="-8.3749660">
        <ele>284.5</ele>
        <time>2014-07-31T10:07:29Z</time>
      </trkpt>
      <trkpt lat="42.9048470" lon="-8.3753080">
        <ele>286.3</ele>
        <time>2014-07-31T10:07:39Z</time>
      </trkpt>
      <trkpt lat="42.9045390" lon="-8.3757210">
        <ele>286.7</ele>
        <time>2014-07-31T10:07:50Z</time>
      </trkpt>
      <trkpt lat="42.9042680" lon="-8.3760410">
        <ele>287.2</ele>
        <time>2014-07-31T10:08:00Z</time>
      </trkpt>
      <trkpt lat="42.9042210" lon="-8.3761230">
        <ele>287.3</ele>
        <time>2014-07-31T10:08:02Z</time>
      </trkpt>
      <trkpt lat="42.9041970" lon="-8.3761650">
        <ele>287.3</ele>
        <time>2014-07-31T10:08:03Z</time>
      </trkpt>
      <trkpt lat="42.9040710" lon="-8.3763680">
        <ele>287.6</ele>
        <time>2014-07-31T10:08:10Z</time>
      </trkpt>
      <trkpt lat="42.9040570" lon="-8.3764130">
        <ele>287.6</ele>
        <time>2014-07-31T10:08:11Z</time>
      </trkpt>
      <trkpt lat="42.9040390" lon="-8.3764550">
        <ele>287.7</ele>
        <time>2014-07-31T10:08:12Z</time>
      </trkpt>
      <trkpt lat="42.9040170" lon="-8.3764960">
        <ele>287.7</ele>
        <time>2014-07-31T10:08:13Z</time>
      </trkpt>
      <trkpt lat="42.9039950" lon="-8.3765370">
        <ele>287.8</ele>
        <time>2014-07-31T10:08:14Z</time>
      </trkpt>
      <trkpt lat="42.9039770" lon="-8.3765820">
        <ele>287.9</ele>
        <time>2014-07-31T10:08:15Z</time>
      </trkpt>
      <trkpt lat="42.9039650" lon="-8.3766300">
        <ele>287.9</ele>
        <time>2014-07-31T10:08:16Z</time>
      </trkpt>
      <trkpt lat="42.9039550" lon="-8.3766730">
        <ele>288.0</ele>
        <time>2014-07-31T10:08:17Z</time>
      </trkpt>
      <trkpt lat="42.9039430" lon="-8.3767150">
        <ele>288.1</ele>
        <time>2014-07-31T10:08:18Z</time>
      </trkpt>
      <trkpt lat="42.9039280" lon="-8.3767640">
        <ele>288.1</ele>
        <time>2014-07-31T10:08:19Z</time>
      </trkpt>
      <trkpt lat="42.9039110" lon="-8.3768110">
        <ele>288.2</ele>
        <time>2014-07-31T10:08:20Z</time>
      </trkpt>
      <trkpt lat="42.9037900" lon="-8.3771810">
        <ele>288.8</ele>
        <time>2014-07-31T10:08:30Z</time>
      </trkpt>
      <trkpt lat="42.9037720" lon="-8.3772500">
        <ele>288.9</ele>
        <time>2014-07-31T10:08:32Z</time>
      </trkpt>
      <trkpt lat="42.9037650" lon="-8.3775270">
        <ele>289.3</ele>
        <time>2014-07-31T10:08:38Z</time>
      </trkpt>
      <trkpt lat="42.9037610" lon="-8.3775560">
        <ele>289.4</ele>
        <time>2014-07-31T10:08:39Z</time>
      </trkpt>
      <trkpt lat="42.9037630" lon="-8.3775810">
        <ele>289.4</ele>
        <time>2014-07-31T10:08:40Z</time>
      </trkpt>
      <trkpt lat="42.9037600" lon="-8.3776170">
        <ele>289.5</ele>
        <time>2014-07-31T10:08:41Z</time>
      </trkpt>
      <trkpt lat="42.9037580" lon="-8.3776620">
        <ele>289.6</ele>
        <time>2014-07-31T10:08:42Z</time>
      </trkpt>
      <trkpt lat="42.9037620" lon="-8.3777080">
        <ele>289.7</ele>
        <time>2014-07-31T10:08:43Z</time>
      </trkpt>
      <trkpt lat="42.9037620" lon="-8.3777510">
        <ele>289.8</ele>
        <time>2014-07-31T10:08:44Z</time>
      </trkpt>
      <trkpt lat="42.9037280" lon="-8.3781720">
        <ele>290.1</ele>
        <time>2014-07-31T10:08:54Z</time>
      </trkpt>
      <trkpt lat="42.9036790" lon="-8.3785460">
        <ele>290.0</ele>
        <time>2014-07-31T10:09:03Z</time>
      </trkpt>
      <trkpt lat="42.9036260" lon="-8.3789860">
        <ele>290.2</ele>
        <time>2014-07-31T10:09:13Z</time>
      </trkpt>
      <trkpt lat="42.9036200" lon="-8.3794840">
        <ele>291.2</ele>
        <time>2014-07-31T10:09:23Z</time>
      </trkpt>
      <trkpt lat="42.9036320" lon="-8.3795450">
        <ele>291.4</ele>
        <time>2014-07-31T10:09:25Z</time>
      </trkpt>
      <trkpt lat="42.9036870" lon="-8.3799590">
        <ele>291.8</ele>
        <time>2014-07-31T10:09:34Z</time>
      </trkpt>
      <trkpt lat="42.9037270" lon="-8.3803980">
        <ele>291.3</ele>
        <time>2014-07-31T10:09:44Z</time>
      </trkpt>
      <trkpt lat="42.9037450" lon="-8.3807650">
        <ele>290.0</ele>
        <time>2014-07-31T10:09:51Z</time>
      </trkpt>
      <trkpt lat="42.9037470" lon="-8.3808970">
        <ele>289.3</ele>
        <time>2014-07-31T10:09:53Z</time>
      </trkpt>
      <trkpt lat="42.9037220" lon="-8.3813470">
        <ele>287.3</ele>
        <time>2014-07-31T10:10:01Z</time>
      </trkpt>
      <trkpt lat="42.9037090" lon="-8.3813920">
        <ele>287.1</ele>
        <time>2014-07-31T10:10:02Z</time>
      </trkpt>
      <trkpt lat="42.9036890" lon="-8.3814260">
        <ele>286.8</ele>
        <time>2014-07-31T10:10:03Z</time>
      </trkpt>
      <trkpt lat="42.9036650" lon="-8.3814530">
        <ele>286.6</ele>
        <time>2014-07-31T10:10:04Z</time>
      </trkpt>
      <trkpt lat="42.9036030" lon="-8.3818180">
        <ele>284.2</ele>
        <time>2014-07-31T10:10:12Z</time>
      </trkpt>
      <trkpt lat="42.9037490" lon="-8.3823920">
        <ele>284.9</ele>
        <time>2014-07-31T10:10:25Z</time>
      </trkpt>
      <trkpt lat="42.9039290" lon="-8.3830220">
        <ele>285.2</ele>
        <time>2014-07-31T10:10:39Z</time>
      </trkpt>
      <trkpt lat="42.9040710" lon="-8.3835280">
        <ele>285.7</ele>
        <time>2014-07-31T10:10:50Z</time>
      </trkpt>
      <trkpt lat="42.9042410" lon="-8.3840410">
        <ele>286.7</ele>
        <time>2014-07-31T10:11:03Z</time>
      </trkpt>
      <trkpt lat="42.9043370" lon="-8.3843630">
        <ele>287.4</ele>
        <time>2014-07-31T10:11:10Z</time>
      </trkpt>
      <trkpt lat="42.9043760" lon="-8.3845220">
        <ele>287.7</ele>
        <time>2014-07-31T10:11:14Z</time>
      </trkpt>
      <trkpt lat="42.9044940" lon="-8.3847430">
        <ele>288.4</ele>
        <time>2014-07-31T10:11:20Z</time>
      </trkpt>
      <trkpt lat="42.9045390" lon="-8.3849430">
        <ele>289.0</ele>
        <time>2014-07-31T10:11:27Z</time>
      </trkpt>
      <trkpt lat="42.9045050" lon="-8.3849970">
        <ele>289.3</ele>
        <time>2014-07-31T10:11:29Z</time>
      </trkpt>
      <trkpt lat="42.9046130" lon="-8.3851930">
        <ele>290.2</ele>
        <time>2014-07-31T10:11:33Z</time>
      </trkpt>
      <trkpt lat="42.9046640" lon="-8.3853120">
        <ele>290.7</ele>
        <time>2014-07-31T10:11:37Z</time>
      </trkpt>
      <trkpt lat="42.9048390" lon="-8.3859250">
        <ele>291.3</ele>
        <time>2014-07-31T10:11:49Z</time>
      </trkpt>
      <trkpt lat="42.9048460" lon="-8.3860740">
        <ele>291.0</ele>
        <time>2014-07-31T10:11:52Z</time>
      </trkpt>
      <trkpt lat="42.9048460" lon="-8.3861940">
        <ele>290.6</ele>
        <time>2014-07-31T10:11:56Z</time>
      </trkpt>
      <trkpt lat="42.9046750" lon="-8.3863450">
        <ele>289.2</ele>
        <time>2014-07-31T10:11:59Z</time>
      </trkpt>
      <trkpt lat="42.9046250" lon="-8.3863840">
        <ele>288.5</ele>
        <time>2014-07-31T10:12:00Z</time>
      </trkpt>
      <trkpt lat="42.9045680" lon="-8.3864300">
        <ele>287.7</ele>
        <time>2014-07-31T10:12:01Z</time>
      </trkpt>
      <trkpt lat="42.9045170" lon="-8.3864590">
        <ele>287.2</ele>
        <time>2014-07-31T10:12:02Z</time>
      </trkpt>
      <trkpt lat="42.9044650" lon="-8.3864820">
        <ele>286.7</ele>
        <time>2014-07-31T10:12:03Z</time>
      </trkpt>
      <trkpt lat="42.9042400" lon="-8.3865760">
        <ele>283.5</ele>
        <time>2014-07-31T10:12:07Z</time>
      </trkpt>
      <trkpt lat="42.9040770" lon="-8.3866330">
        <ele>280.5</ele>
        <time>2014-07-31T10:12:10Z</time>
      </trkpt>
      <trkpt lat="42.9038820" lon="-8.3867230">
        <ele>277.8</ele>
        <time>2014-07-31T10:12:13Z</time>
      </trkpt>
      <trkpt lat="42.9035850" lon="-8.3868770">
        <ele>274.8</ele>
        <time>2014-07-31T10:12:17Z</time>
      </trkpt>
      <trkpt lat="42.9033130" lon="-8.3870430">
        <ele>271.4</ele>
        <time>2014-07-31T10:12:21Z</time>
      </trkpt>
      <trkpt lat="42.9032760" lon="-8.3870950">
        <ele>270.7</ele>
        <time>2014-07-31T10:12:22Z</time>
      </trkpt>
      <trkpt lat="42.9032590" lon="-8.3871600">
        <ele>269.9</ele>
        <time>2014-07-31T10:12:23Z</time>
      </trkpt>
      <trkpt lat="42.9032610" lon="-8.3872320">
        <ele>269.8</ele>
        <time>2014-07-31T10:12:24Z</time>
      </trkpt>
      <trkpt lat="42.9032740" lon="-8.3873030">
        <ele>269.7</ele>
        <time>2014-07-31T10:12:25Z</time>
      </trkpt>
      <trkpt lat="42.9032900" lon="-8.3873770">
        <ele>269.6</ele>
        <time>2014-07-31T10:12:26Z</time>
      </trkpt>
      <trkpt lat="42.9036250" lon="-8.3886200">
        <ele>266.7</ele>
        <time>2014-07-31T10:12:43Z</time>
      </trkpt>
      <trkpt lat="42.9037380" lon="-8.3889720">
        <ele>264.9</ele>
        <time>2014-07-31T10:12:47Z</time>
      </trkpt>
      <trkpt lat="42.9038710" lon="-8.3892350">
        <ele>263.2</ele>
        <time>2014-07-31T10:12:50Z</time>
      </trkpt>
      <trkpt lat="42.9041240" lon="-8.3895350">
        <ele>260.5</ele>
        <time>2014-07-31T10:12:54Z</time>
      </trkpt>
      <trkpt lat="42.9041910" lon="-8.3896060">
        <ele>260.0</ele>
        <time>2014-07-31T10:12:55Z</time>
      </trkpt>
      <trkpt lat="42.9042520" lon="-8.3896840">
        <ele>259.6</ele>
        <time>2014-07-31T10:12:56Z</time>
      </trkpt>
      <trkpt lat="42.9043000" lon="-8.3897750">
        <ele>259.1</ele>
        <time>2014-07-31T10:12:57Z</time>
      </trkpt>
      <trkpt lat="42.9043400" lon="-8.3898750">
        <ele>258.6</ele>
        <time>2014-07-31T10:12:58Z</time>
      </trkpt>
      <trkpt lat="42.9043700" lon="-8.3899840">
        <ele>258.1</ele>
        <time>2014-07-31T10:12:59Z</time>
      </trkpt>
      <trkpt lat="42.9043900" lon="-8.3900980">
        <ele>257.6</ele>
        <time>2014-07-31T10:13:00Z</time>
      </trkpt>
      <trkpt lat="42.9044010" lon="-8.3902160">
        <ele>257.1</ele>
        <time>2014-07-31T10:13:01Z</time>
      </trkpt>
      <trkpt lat="42.9044030" lon="-8.3903330">
        <ele>256.7</ele>
        <time>2014-07-31T10:13:02Z</time>
      </trkpt>
      <trkpt lat="42.9044040" lon="-8.3904470">
        <ele>256.3</ele>
        <time>2014-07-31T10:13:03Z</time>
      </trkpt>
      <trkpt lat="42.9044050" lon="-8.3906650">
        <ele>255.3</ele>
        <time>2014-07-31T10:13:05Z</time>
      </trkpt>
      <trkpt lat="42.9044230" lon="-8.3908660">
        <ele>254.2</ele>
        <time>2014-07-31T10:13:07Z</time>
      </trkpt>
      <trkpt lat="42.9044420" lon="-8.3909510">
        <ele>253.6</ele>
        <time>2014-07-31T10:13:08Z</time>
      </trkpt>
      <trkpt lat="42.9044690" lon="-8.3910230">
        <ele>253.0</ele>
        <time>2014-07-31T10:13:09Z</time>
      </trkpt>
      <trkpt lat="42.9044990" lon="-8.3910800">
        <ele>252.5</ele>
        <time>2014-07-31T10:13:10Z</time>
      </trkpt>
      <trkpt lat="42.9045360" lon="-8.3911230">
        <ele>252.1</ele>
        <time>2014-07-31T10:13:11Z</time>
      </trkpt>
      <trkpt lat="42.9045790" lon="-8.3911480">
        <ele>251.7</ele>
        <time>2014-07-31T10:13:12Z</time>
      </trkpt>
      <trkpt lat="42.9046290" lon="-8.3911530">
        <ele>250.9</ele>
        <time>2014-07-31T10:13:13Z</time>
      </trkpt>
      <trkpt lat="42.9046830" lon="-8.3911430">
        <ele>250.7</ele>
        <time>2014-07-31T10:13:14Z</time>
      </trkpt>
      <trkpt lat="42.9047380" lon="-8.3911390">
        <ele>250.6</ele>
        <time>2014-07-31T10:13:15Z</time>
      </trkpt>
      <trkpt lat="42.9047960" lon="-8.3911490">
        <ele>250.4</ele>
        <time>2014-07-31T10:13:16Z</time>
      </trkpt>
      <trkpt lat="42.9048530" lon="-8.3911730">
        <ele>250.3</ele>
        <time>2014-07-31T10:13:17Z</time>
      </trkpt>
      <trkpt lat="42.9049120" lon="-8.3912010">
        <ele>250.1</ele>
        <time>2014-07-31T10:13:18Z</time>
      </trkpt>
      <trkpt lat="42.9049650" lon="-8.3912470">
        <ele>250.0</ele>
        <time>2014-07-31T10:13:19Z</time>
      </trkpt>
      <trkpt lat="42.9050140" lon="-8.3912990">
        <ele>250.0</ele>
        <time>2014-07-31T10:13:20Z</time>
      </trkpt>
      <trkpt lat="42.9050620" lon="-8.3913550">
        <ele>249.9</ele>
        <time>2014-07-31T10:13:21Z</time>
      </trkpt>
      <trkpt lat="42.9052600" lon="-8.3915620">
        <ele>249.9</ele>
        <time>2014-07-31T10:13:25Z</time>
      </trkpt>
      <trkpt lat="42.9053020" lon="-8.3916240">
        <ele>249.8</ele>
        <time>2014-07-31T10:13:26Z</time>
      </trkpt>
      <trkpt lat="42.9053390" lon="-8.3916890">
        <ele>249.7</ele>
        <time>2014-07-31T10:13:27Z</time>
      </trkpt>
      <trkpt lat="42.9055880" lon="-8.3923940">
        <ele>249.3</ele>
        <time>2014-07-31T10:13:37Z</time>
      </trkpt>
      <trkpt lat="42.9057070" lon="-8.3926800">
        <ele>249.2</ele>
        <time>2014-07-31T10:13:42Z</time>
      </trkpt>
      <trkpt lat="42.9057210" lon="-8.3927410">
        <ele>249.1</ele>
        <time>2014-07-31T10:13:43Z</time>
      </trkpt>
      <trkpt lat="42.9057340" lon="-8.3928050">
        <ele>249.1</ele>
        <time>2014-07-31T10:13:44Z</time>
      </trkpt>
      <trkpt lat="42.9059400" lon="-8.3933850">
        <ele>249.1</ele>
        <time>2014-07-31T10:13:53Z</time>
      </trkpt>
      <trkpt lat="42.9059480" lon="-8.3934460">
        <ele>249.1</ele>
        <time>2014-07-31T10:13:54Z</time>
      </trkpt>
      <trkpt lat="42.9059450" lon="-8.3934980">
        <ele>249.4</ele>
        <time>2014-07-31T10:13:55Z</time>
      </trkpt>
      <trkpt lat="42.9059330" lon="-8.3935370">
        <ele>249.6</ele>
        <time>2014-07-31T10:13:56Z</time>
      </trkpt>
      <trkpt lat="42.9059170" lon="-8.3935740">
        <ele>249.7</ele>
        <time>2014-07-31T10:13:57Z</time>
      </trkpt>
      <trkpt lat="42.9059040" lon="-8.3936220">
        <ele>249.9</ele>
        <time>2014-07-31T10:13:58Z</time>
      </trkpt>
      <trkpt lat="42.9058910" lon="-8.3936800">
        <ele>250.1</ele>
        <time>2014-07-31T10:13:59Z</time>
      </trkpt>
      <trkpt lat="42.9058750" lon="-8.3937390">
        <ele>250.3</ele>
        <time>2014-07-31T10:14:00Z</time>
      </trkpt>
      <trkpt lat="42.9058610" lon="-8.3937940">
        <ele>250.8</ele>
        <time>2014-07-31T10:14:01Z</time>
      </trkpt>
      <trkpt lat="42.9058510" lon="-8.3938540">
        <ele>251.2</ele>
        <time>2014-07-31T10:14:02Z</time>
      </trkpt>
      <trkpt lat="42.9058560" lon="-8.3939280">
        <ele>251.7</ele>
        <time>2014-07-31T10:14:03Z</time>
      </trkpt>
      <trkpt lat="42.9058740" lon="-8.3939920">
        <ele>252.1</ele>
        <time>2014-07-31T10:14:04Z</time>
      </trkpt>
      <trkpt lat="42.9058950" lon="-8.3940430">
        <ele>252.4</ele>
        <time>2014-07-31T10:14:05Z</time>
      </trkpt>
      <trkpt lat="42.9059280" lon="-8.3941780">
        <ele>253.2</ele>
        <time>2014-07-31T10:14:08Z</time>
      </trkpt>
      <trkpt lat="42.9058960" lon="-8.3945660">
        <ele>256.0</ele>
        <time>2014-07-31T10:14:21Z</time>
      </trkpt>
      <trkpt lat="42.9058020" lon="-8.3948650">
        <ele>258.1</ele>
        <time>2014-07-31T10:14:32Z</time>
      </trkpt>
      <trkpt lat="42.9057680" lon="-8.3950230">
        <ele>258.7</ele>
        <time>2014-07-31T10:14:37Z</time>
      </trkpt>
      <trkpt lat="42.9057600" lon="-8.3950540">
        <ele>258.8</ele>
        <time>2014-07-31T10:14:38Z</time>
      </trkpt>
      <trkpt lat="42.9057490" lon="-8.3950820">
        <ele>258.9</ele>
        <time>2014-07-31T10:14:39Z</time>
      </trkpt>
      <trkpt lat="42.9057290" lon="-8.3951180">
        <ele>259.1</ele>
        <time>2014-07-31T10:14:41Z</time>
      </trkpt>
      <trkpt lat="42.9057270" lon="-8.3951440">
        <ele>259.1</ele>
        <time>2014-07-31T10:14:42Z</time>
      </trkpt>
      <trkpt lat="42.9057270" lon="-8.3951720">
        <ele>259.2</ele>
        <time>2014-07-31T10:14:43Z</time>
      </trkpt>
      <trkpt lat="42.9057210" lon="-8.3952020">
        <ele>259.4</ele>
        <time>2014-07-31T10:14:44Z</time>
      </trkpt>
      <trkpt lat="42.9057130" lon="-8.3952370">
        <ele>259.5</ele>
        <time>2014-07-31T10:14:45Z</time>
      </trkpt>
      <trkpt lat="42.9056930" lon="-8.3953540">
        <ele>260.1</ele>
        <time>2014-07-31T10:14:49Z</time>
      </trkpt>
      <trkpt lat="42.9057040" lon="-8.3954840">
        <ele>260.7</ele>
        <time>2014-07-31T10:14:58Z</time>
      </trkpt>
      <trkpt lat="42.9057020" lon="-8.3954890">
        <ele>260.7</ele>
        <time>2014-07-31T10:15:10Z</time>
      </trkpt>
      <trkpt lat="42.9057020" lon="-8.3954890">
        <ele>260.7</ele>
        <time>2014-07-31T10:15:11Z</time>
      </trkpt>
      <trkpt lat="42.9057020" lon="-8.3954890">
        <ele>260.7</ele>
        <time>2014-07-31T10:15:24Z</time>
      </trkpt>
      <trkpt lat="42.9057020" lon="-8.3954890">
        <ele>260.7</ele>
        <time>2014-07-31T10:15:25Z</time>
      </trkpt>
      <trkpt lat="42.9057050" lon="-8.3954950">
        <ele>260.7</ele>
        <time>2014-07-31T10:15:48Z</time>
      </trkpt>
      <trkpt lat="42.9057050" lon="-8.3954950">
        <ele>260.7</ele>
        <time>2014-07-31T10:15:49Z</time>
      </trkpt>
      <trkpt lat="42.9057040" lon="-8.3955040">
        <ele>260.7</ele>
        <time>2014-07-31T10:16:21Z</time>
      </trkpt>
      <trkpt lat="42.9056600" lon="-8.3957520">
        <ele>262.1</ele>
        <time>2014-07-31T10:16:32Z</time>
      </trkpt>
      <trkpt lat="42.9056360" lon="-8.3960470">
        <ele>263.9</ele>
        <time>2014-07-31T10:16:42Z</time>
      </trkpt>
      <trkpt lat="42.9056240" lon="-8.3961730">
        <ele>264.7</ele>
        <time>2014-07-31T10:16:47Z</time>
      </trkpt>
      <trkpt lat="42.9056060" lon="-8.3964160">
        <ele>265.8</ele>
        <time>2014-07-31T10:16:56Z</time>
      </trkpt>
      <trkpt lat="42.9055540" lon="-8.3967720">
        <ele>267.3</ele>
        <time>2014-07-31T10:17:08Z</time>
      </trkpt>
      <trkpt lat="42.9055430" lon="-8.3970440">
        <ele>268.6</ele>
        <time>2014-07-31T10:17:20Z</time>
      </trkpt>
      <trkpt lat="42.9055270" lon="-8.3971460">
        <ele>269.4</ele>
        <time>2014-07-31T10:17:24Z</time>
      </trkpt>
      <trkpt lat="42.9055160" lon="-8.3971580">
        <ele>269.5</ele>
        <time>2014-07-31T10:17:25Z</time>
      </trkpt>
      <trkpt lat="42.9054930" lon="-8.3972270">
        <ele>270.2</ele>
        <time>2014-07-31T10:17:29Z</time>
      </trkpt>
      <trkpt lat="42.9054730" lon="-8.3974410">
        <ele>272.7</ele>
        <time>2014-07-31T10:17:39Z</time>
      </trkpt>
      <trkpt lat="42.9054760" lon="-8.3974760">
        <ele>273.1</ele>
        <time>2014-07-31T10:17:41Z</time>
      </trkpt>
      <trkpt lat="42.9054560" lon="-8.3976800">
        <ele>275.8</ele>
        <time>2014-07-31T10:17:52Z</time>
      </trkpt>
      <trkpt lat="42.9054840" lon="-8.3977950">
        <ele>277.4</ele>
        <time>2014-07-31T10:18:03Z</time>
      </trkpt>
      <trkpt lat="42.9055040" lon="-8.3978670">
        <ele>278.3</ele>
        <time>2014-07-31T10:18:06Z</time>
      </trkpt>
      <trkpt lat="42.9055150" lon="-8.3978840">
        <ele>278.6</ele>
        <time>2014-07-31T10:18:07Z</time>
      </trkpt>
      <trkpt lat="42.9056720" lon="-8.3980460">
        <ele>281.8</ele>
        <time>2014-07-31T10:18:20Z</time>
      </trkpt>
      <trkpt lat="42.9057350" lon="-8.3980660">
        <ele>282.9</ele>
        <time>2014-07-31T10:18:25Z</time>
      </trkpt>
      <trkpt lat="42.9057480" lon="-8.3980680">
        <ele>283.1</ele>
        <time>2014-07-31T10:18:26Z</time>
      </trkpt>
      <trkpt lat="42.9058240" lon="-8.3981050">
        <ele>284.3</ele>
        <time>2014-07-31T10:18:31Z</time>
      </trkpt>
      <trkpt lat="42.9058340" lon="-8.3981150">
        <ele>284.5</ele>
        <time>2014-07-31T10:18:32Z</time>
      </trkpt>
      <trkpt lat="42.9058390" lon="-8.3981300">
        <ele>284.8</ele>
        <time>2014-07-31T10:18:33Z</time>
      </trkpt>
      <trkpt lat="42.9058450" lon="-8.3981480">
        <ele>285.1</ele>
        <time>2014-07-31T10:18:34Z</time>
      </trkpt>
      <trkpt lat="42.9058510" lon="-8.3981640">
        <ele>285.3</ele>
        <time>2014-07-31T10:18:35Z</time>
      </trkpt>
      <trkpt lat="42.9058830" lon="-8.3982630">
        <ele>286.3</ele>
        <time>2014-07-31T10:18:41Z</time>
      </trkpt>
      <trkpt lat="42.9058930" lon="-8.3982780">
        <ele>286.5</ele>
        <time>2014-07-31T10:18:42Z</time>
      </trkpt>
      <trkpt lat="42.9059040" lon="-8.3982880">
        <ele>286.7</ele>
        <time>2014-07-31T10:18:43Z</time>
      </trkpt>
      <trkpt lat="42.9059130" lon="-8.3982970">
        <ele>286.9</ele>
        <time>2014-07-31T10:18:44Z</time>
      </trkpt>
      <trkpt lat="42.9059170" lon="-8.3983110">
        <ele>287.0</ele>
        <time>2014-07-31T10:18:45Z</time>
      </trkpt>
      <trkpt lat="42.9059640" lon="-8.3984130">
        <ele>288.2</ele>
        <time>2014-07-31T10:18:52Z</time>
      </trkpt>
      <trkpt lat="42.9060100" lon="-8.3985230">
        <ele>289.3</ele>
        <time>2014-07-31T10:19:00Z</time>
      </trkpt>
      <trkpt lat="42.9060210" lon="-8.3985380">
        <ele>289.5</ele>
        <time>2014-07-31T10:19:01Z</time>
      </trkpt>
      <trkpt lat="42.9060320" lon="-8.3985500">
        <ele>289.7</ele>
        <time>2014-07-31T10:19:02Z</time>
      </trkpt>
      <trkpt lat="42.9060390" lon="-8.3985650">
        <ele>289.8</ele>
        <time>2014-07-31T10:19:03Z</time>
      </trkpt>
      <trkpt lat="42.9060460" lon="-8.3985830">
        <ele>290.0</ele>
        <time>2014-07-31T10:19:04Z</time>
      </trkpt>
      <trkpt lat="42.9060870" lon="-8.3986790">
        <ele>291.0</ele>
        <time>2014-07-31T10:19:10Z</time>
      </trkpt>
      <trkpt lat="42.9061830" lon="-8.3989350">
        <ele>293.1</ele>
        <time>2014-07-31T10:19:25Z</time>
      </trkpt>
      <trkpt lat="42.9062950" lon="-8.3992320">
        <ele>294.7</ele>
        <time>2014-07-31T10:19:37Z</time>
      </trkpt>
      <trkpt lat="42.9063850" lon="-8.3996340">
        <ele>297.0</ele>
        <time>2014-07-31T10:19:51Z</time>
      </trkpt>
      <trkpt lat="42.9063280" lon="-8.4000190">
        <ele>298.4</ele>
        <time>2014-07-31T10:20:03Z</time>
      </trkpt>
      <trkpt lat="42.9062940" lon="-8.4001710">
        <ele>298.9</ele>
        <time>2014-07-31T10:20:08Z</time>
      </trkpt>
      <trkpt lat="42.9062850" lon="-8.4002040">
        <ele>299.0</ele>
        <time>2014-07-31T10:20:09Z</time>
      </trkpt>
      <trkpt lat="42.9062220" lon="-8.4003400">
        <ele>299.5</ele>
        <time>2014-07-31T10:20:14Z</time>
      </trkpt>
      <trkpt lat="42.9062150" lon="-8.4003690">
        <ele>299.6</ele>
        <time>2014-07-31T10:20:15Z</time>
      </trkpt>
      <trkpt lat="42.9062140" lon="-8.4004040">
        <ele>299.7</ele>
        <time>2014-07-31T10:20:16Z</time>
      </trkpt>
      <trkpt lat="42.9062140" lon="-8.4004360">
        <ele>299.8</ele>
        <time>2014-07-31T10:20:17Z</time>
      </trkpt>
      <trkpt lat="42.9062120" lon="-8.4004700">
        <ele>299.9</ele>
        <time>2014-07-31T10:20:18Z</time>
      </trkpt>
      <trkpt lat="42.9062080" lon="-8.4004960">
        <ele>300.0</ele>
        <time>2014-07-31T10:20:19Z</time>
      </trkpt>
      <trkpt lat="42.9062050" lon="-8.4005260">
        <ele>300.1</ele>
        <time>2014-07-31T10:20:20Z</time>
      </trkpt>
      <trkpt lat="42.9062020" lon="-8.4005530">
        <ele>300.2</ele>
        <time>2014-07-31T10:20:21Z</time>
      </trkpt>
      <trkpt lat="42.9061970" lon="-8.4005790">
        <ele>300.3</ele>
        <time>2014-07-31T10:20:22Z</time>
      </trkpt>
      <trkpt lat="42.9061950" lon="-8.4006080">
        <ele>300.4</ele>
        <time>2014-07-31T10:20:23Z</time>
      </trkpt>
      <trkpt lat="42.9061760" lon="-8.4007460">
        <ele>300.9</ele>
        <time>2014-07-31T10:20:27Z</time>
      </trkpt>
      <trkpt lat="42.9061680" lon="-8.4007670">
        <ele>301.0</ele>
        <time>2014-07-31T10:20:28Z</time>
      </trkpt>
      <trkpt lat="42.9061630" lon="-8.4007900">
        <ele>301.1</ele>
        <time>2014-07-31T10:20:29Z</time>
      </trkpt>
      <trkpt lat="42.9061610" lon="-8.4008200">
        <ele>301.2</ele>
        <time>2014-07-31T10:20:30Z</time>
      </trkpt>
      <trkpt lat="42.9061520" lon="-8.4008530">
        <ele>301.3</ele>
        <time>2014-07-31T10:20:31Z</time>
      </trkpt>
      <trkpt lat="42.9061450" lon="-8.4008920">
        <ele>301.4</ele>
        <time>2014-07-31T10:20:32Z</time>
      </trkpt>
      <trkpt lat="42.9060620" lon="-8.4012720">
        <ele>302.3</ele>
        <time>2014-07-31T10:20:43Z</time>
      </trkpt>
      <trkpt lat="42.9060490" lon="-8.4016080">
        <ele>302.7</ele>
        <time>2014-07-31T10:20:52Z</time>
      </trkpt>
      <trkpt lat="42.9061240" lon="-8.4019510">
        <ele>303.5</ele>
        <time>2014-07-31T10:21:01Z</time>
      </trkpt>
      <trkpt lat="42.9061690" lon="-8.4022520">
        <ele>304.8</ele>
        <time>2014-07-31T10:21:13Z</time>
      </trkpt>
      <trkpt lat="42.9060790" lon="-8.4025020">
        <ele>305.5</ele>
        <time>2014-07-31T10:21:21Z</time>
      </trkpt>
      <trkpt lat="42.9058670" lon="-8.4027180">
        <ele>307.5</ele>
        <time>2014-07-31T10:21:34Z</time>
      </trkpt>
      <trkpt lat="42.9057770" lon="-8.4029600">
        <ele>309.8</ele>
        <time>2014-07-31T10:21:45Z</time>
      </trkpt>
      <trkpt lat="42.9057810" lon="-8.4029760">
        <ele>309.9</ele>
        <time>2014-07-31T10:21:46Z</time>
      </trkpt>
      <trkpt lat="42.9057680" lon="-8.4032490">
        <ele>312.0</ele>
        <time>2014-07-31T10:21:57Z</time>
      </trkpt>
      <trkpt lat="42.9057390" lon="-8.4035720">
        <ele>314.0</ele>
        <time>2014-07-31T10:22:09Z</time>
      </trkpt>
      <trkpt lat="42.9057510" lon="-8.4039210">
        <ele>315.4</ele>
        <time>2014-07-31T10:22:23Z</time>
      </trkpt>
      <trkpt lat="42.9058890" lon="-8.4043540">
        <ele>318.0</ele>
        <time>2014-07-31T10:22:40Z</time>
      </trkpt>
      <trkpt lat="42.9059130" lon="-8.4046620">
        <ele>320.1</ele>
        <time>2014-07-31T10:22:51Z</time>
      </trkpt>
      <trkpt lat="42.9058900" lon="-8.4050920">
        <ele>322.0</ele>
        <time>2014-07-31T10:23:08Z</time>
      </trkpt>
      <trkpt lat="42.9058810" lon="-8.4055140">
        <ele>324.1</ele>
        <time>2014-07-31T10:23:24Z</time>
      </trkpt>
      <trkpt lat="42.9058750" lon="-8.4059270">
        <ele>326.5</ele>
        <time>2014-07-31T10:23:41Z</time>
      </trkpt>
      <trkpt lat="42.9058760" lon="-8.4062130">
        <ele>328.3</ele>
        <time>2014-07-31T10:23:53Z</time>
      </trkpt>
      <trkpt lat="42.9058650" lon="-8.4065440">
        <ele>330.8</ele>
        <time>2014-07-31T10:24:07Z</time>
      </trkpt>
      <trkpt lat="42.9058400" lon="-8.4068990">
        <ele>333.2</ele>
        <time>2014-07-31T10:24:22Z</time>
      </trkpt>
      <trkpt lat="42.9058540" lon="-8.4071870">
        <ele>335.2</ele>
        <time>2014-07-31T10:24:35Z</time>
      </trkpt>
      <trkpt lat="42.9058810" lon="-8.4074430">
        <ele>337.5</ele>
        <time>2014-07-31T10:24:48Z</time>
      </trkpt>
      <trkpt lat="42.9058720" lon="-8.4077540">
        <ele>340.1</ele>
        <time>2014-07-31T10:25:03Z</time>
      </trkpt>
      <trkpt lat="42.9058270" lon="-8.4080560">
        <ele>342.1</ele>
        <time>2014-07-31T10:25:15Z</time>
      </trkpt>
      <trkpt lat="42.9057350" lon="-8.4084450">
        <ele>343.3</ele>
        <time>2014-07-31T10:25:28Z</time>
      </trkpt>
      <trkpt lat="42.9058240" lon="-8.4088430">
        <ele>344.5</ele>
        <time>2014-07-31T10:25:40Z</time>
      </trkpt>
      <trkpt lat="42.9059810" lon="-8.4093460">
        <ele>346.6</ele>
        <time>2014-07-31T10:25:55Z</time>
      </trkpt>
      <trkpt lat="42.9061580" lon="-8.4096750">
        <ele>348.6</ele>
        <time>2014-07-31T10:26:07Z</time>
      </trkpt>
      <trkpt lat="42.9061990" lon="-8.4100600">
        <ele>350.8</ele>
        <time>2014-07-31T10:26:20Z</time>
      </trkpt>
      <trkpt lat="42.9062570" lon="-8.4101750">
        <ele>351.5</ele>
        <time>2014-07-31T10:26:25Z</time>
      </trkpt>
      <trkpt lat="42.9063170" lon="-8.4102620">
        <ele>352.3</ele>
        <time>2014-07-31T10:26:30Z</time>
      </trkpt>
      <trkpt lat="42.9065150" lon="-8.4105360">
        <ele>355.1</ele>
        <time>2014-07-31T10:26:43Z</time>
      </trkpt>
      <trkpt lat="42.9067830" lon="-8.4107010">
        <ele>356.9</ele>
        <time>2014-07-31T10:26:56Z</time>
      </trkpt>
      <trkpt lat="42.9071640" lon="-8.4108860">
        <ele>358.5</ele>
        <time>2014-07-31T10:27:10Z</time>
      </trkpt>
      <trkpt lat="42.9074520" lon="-8.4112890">
        <ele>360.1</ele>
        <time>2014-07-31T10:27:25Z</time>
      </trkpt>
      <trkpt lat="42.9075680" lon="-8.4118140">
        <ele>362.4</ele>
        <time>2014-07-31T10:27:39Z</time>
      </trkpt>
      <trkpt lat="42.9077150" lon="-8.4123080">
        <ele>364.7</ele>
        <time>2014-07-31T10:27:55Z</time>
      </trkpt>
      <trkpt lat="42.9077880" lon="-8.4127250">
        <ele>367.5</ele>
        <time>2014-07-31T10:28:09Z</time>
      </trkpt>
      <trkpt lat="42.9078890" lon="-8.4130420">
        <ele>369.1</ele>
        <time>2014-07-31T10:28:21Z</time>
      </trkpt>
      <trkpt lat="42.9080050" lon="-8.4135040">
        <ele>370.1</ele>
        <time>2014-07-31T10:28:36Z</time>
      </trkpt>
      <trkpt lat="42.9081400" lon="-8.4140070">
        <ele>370.5</ele>
        <time>2014-07-31T10:28:50Z</time>
      </trkpt>
      <trkpt lat="42.9082550" lon="-8.4144360">
        <ele>371.4</ele>
        <time>2014-07-31T10:29:01Z</time>
      </trkpt>
      <trkpt lat="42.9084560" lon="-8.4147920">
        <ele>371.3</ele>
        <time>2014-07-31T10:29:11Z</time>
      </trkpt>
      <trkpt lat="42.9086440" lon="-8.4148050">
        <ele>370.9</ele>
        <time>2014-07-31T10:29:16Z</time>
      </trkpt>
      <trkpt lat="42.9087290" lon="-8.4148070">
        <ele>370.7</ele>
        <time>2014-07-31T10:29:18Z</time>
      </trkpt>
      <trkpt lat="42.9088600" lon="-8.4148150">
        <ele>370.6</ele>
        <time>2014-07-31T10:29:21Z</time>
      </trkpt>
      <trkpt lat="42.9094410" lon="-8.4146700">
        <ele>370.5</ele>
        <time>2014-07-31T10:29:35Z</time>
      </trkpt>
      <trkpt lat="42.9097880" lon="-8.4145780">
        <ele>370.4</ele>
        <time>2014-07-31T10:29:44Z</time>
      </trkpt>
      <trkpt lat="42.9098290" lon="-8.4145620">
        <ele>370.3</ele>
        <time>2014-07-31T10:29:45Z</time>
      </trkpt>
      <trkpt lat="42.9099120" lon="-8.4145340">
        <ele>370.2</ele>
        <time>2014-07-31T10:29:47Z</time>
      </trkpt>
      <trkpt lat="42.9100350" lon="-8.4145190">
        <ele>370.0</ele>
        <time>2014-07-31T10:29:50Z</time>
      </trkpt>
      <trkpt lat="42.9100800" lon="-8.4145160">
        <ele>370.0</ele>
        <time>2014-07-31T10:29:51Z</time>
      </trkpt>
      <trkpt lat="42.9101210" lon="-8.4145060">
        <ele>369.9</ele>
        <time>2014-07-31T10:29:52Z</time>
      </trkpt>
      <trkpt lat="42.9101590" lon="-8.4144980">
        <ele>369.8</ele>
        <time>2014-07-31T10:29:53Z</time>
      </trkpt>
      <trkpt lat="42.9101990" lon="-8.4145000">
        <ele>369.7</ele>
        <time>2014-07-31T10:29:54Z</time>
      </trkpt>
      <trkpt lat="42.9102390" lon="-8.4145040">
        <ele>369.6</ele>
        <time>2014-07-31T10:29:55Z</time>
      </trkpt>
      <trkpt lat="42.9102770" lon="-8.4145030">
        <ele>369.5</ele>
        <time>2014-07-31T10:29:56Z</time>
      </trkpt>
      <trkpt lat="42.9103120" lon="-8.4144990">
        <ele>369.4</ele>
        <time>2014-07-31T10:29:57Z</time>
      </trkpt>
      <trkpt lat="42.9103920" lon="-8.4144900">
        <ele>369.2</ele>
        <time>2014-07-31T10:29:59Z</time>
      </trkpt>
      <trkpt lat="42.9104370" lon="-8.4144870">
        <ele>369.0</ele>
        <time>2014-07-31T10:30:00Z</time>
      </trkpt>
      <trkpt lat="42.9104830" lon="-8.4144800">
        <ele>368.9</ele>
        <time>2014-07-31T10:30:01Z</time>
      </trkpt>
      <trkpt lat="42.9105310" lon="-8.4144690">
        <ele>368.8</ele>
        <time>2014-07-31T10:30:02Z</time>
      </trkpt>
      <trkpt lat="42.9105800" lon="-8.4144600">
        <ele>368.6</ele>
        <time>2014-07-31T10:30:03Z</time>
      </trkpt>
      <trkpt lat="42.9106330" lon="-8.4144560">
        <ele>368.5</ele>
        <time>2014-07-31T10:30:04Z</time>
      </trkpt>
      <trkpt lat="42.9106900" lon="-8.4144540">
        <ele>368.3</ele>
        <time>2014-07-31T10:30:05Z</time>
      </trkpt>
      <trkpt lat="42.9110330" lon="-8.4144120">
        <ele>367.7</ele>
        <time>2014-07-31T10:30:11Z</time>
      </trkpt>
      <trkpt lat="42.9110830" lon="-8.4144000">
        <ele>367.6</ele>
        <time>2014-07-31T10:30:12Z</time>
      </trkpt>
      <trkpt lat="42.9111330" lon="-8.4143950">
        <ele>367.6</ele>
        <time>2014-07-31T10:30:13Z</time>
      </trkpt>
      <trkpt lat="42.9111850" lon="-8.4143930">
        <ele>367.5</ele>
        <time>2014-07-31T10:30:14Z</time>
      </trkpt>
      <trkpt lat="42.9112390" lon="-8.4143890">
        <ele>367.5</ele>
        <time>2014-07-31T10:30:15Z</time>
      </trkpt>
      <trkpt lat="42.9112940" lon="-8.4143810">
        <ele>367.4</ele>
        <time>2014-07-31T10:30:16Z</time>
      </trkpt>
      <trkpt lat="42.9113520" lon="-8.4143680">
        <ele>367.3</ele>
        <time>2014-07-31T10:30:17Z</time>
      </trkpt>
      <trkpt lat="42.9122330" lon="-8.4141780">
        <ele>365.3</ele>
        <time>2014-07-31T10:30:33Z</time>
      </trkpt>
      <trkpt lat="42.9125980" lon="-8.4141280">
        <ele>364.5</ele>
        <time>2014-07-31T10:30:40Z</time>
      </trkpt>
      <trkpt lat="42.9126940" lon="-8.4141270">
        <ele>364.3</ele>
        <time>2014-07-31T10:30:42Z</time>
      </trkpt>
      <trkpt lat="42.9127380" lon="-8.4141200">
        <ele>364.2</ele>
        <time>2014-07-31T10:30:43Z</time>
      </trkpt>
      <trkpt lat="42.9127810" lon="-8.4141130">
        <ele>364.2</ele>
        <time>2014-07-31T10:30:44Z</time>
      </trkpt>
      <trkpt lat="42.9133450" lon="-8.4140800">
        <ele>363.4</ele>
        <time>2014-07-31T10:30:56Z</time>
      </trkpt>
      <trkpt lat="42.9133860" lon="-8.4140750">
        <ele>363.3</ele>
        <time>2014-07-31T10:30:57Z</time>
      </trkpt>
      <trkpt lat="42.9135070" lon="-8.4140700">
        <ele>363.1</ele>
        <time>2014-07-31T10:31:00Z</time>
      </trkpt>
      <trkpt lat="42.9135510" lon="-8.4140710">
        <ele>363.1</ele>
        <time>2014-07-31T10:31:01Z</time>
      </trkpt>
      <trkpt lat="42.9135950" lon="-8.4140720">
        <ele>363.0</ele>
        <time>2014-07-31T10:31:02Z</time>
      </trkpt>
      <trkpt lat="42.9136370" lon="-8.4140820">
        <ele>362.9</ele>
        <time>2014-07-31T10:31:03Z</time>
      </trkpt>
      <trkpt lat="42.9136780" lon="-8.4141080">
        <ele>362.8</ele>
        <time>2014-07-31T10:31:04Z</time>
      </trkpt>
      <trkpt lat="42.9137110" lon="-8.4141490">
        <ele>362.5</ele>
        <time>2014-07-31T10:31:05Z</time>
      </trkpt>
      <trkpt lat="42.9137280" lon="-8.4142020">
        <ele>362.5</ele>
        <time>2014-07-31T10:31:06Z</time>
      </trkpt>
      <trkpt lat="42.9137350" lon="-8.4142620">
        <ele>362.5</ele>
        <time>2014-07-31T10:31:07Z</time>
      </trkpt>
      <trkpt lat="42.9137440" lon="-8.4143160">
        <ele>362.5</ele>
        <time>2014-07-31T10:31:08Z</time>
      </trkpt>
      <trkpt lat="42.9137530" lon="-8.4143680">
        <ele>362.5</ele>
        <time>2014-07-31T10:31:09Z</time>
      </trkpt>
      <trkpt lat="42.9138370" lon="-8.4148680">
        <ele>361.6</ele>
        <time>2014-07-31T10:31:18Z</time>
      </trkpt>
      <trkpt lat="42.9138360" lon="-8.4149320">
        <ele>361.5</ele>
        <time>2014-07-31T10:31:19Z</time>
      </trkpt>
      <trkpt lat="42.9138120" lon="-8.4155960">
        <ele>359.6</ele>
        <time>2014-07-31T10:31:28Z</time>
      </trkpt>
      <trkpt lat="42.9138210" lon="-8.4159960">
        <ele>357.9</ele>
        <time>2014-07-31T10:31:35Z</time>
      </trkpt>
      <trkpt lat="42.9138150" lon="-8.4161130">
        <ele>357.3</ele>
        <time>2014-07-31T10:31:37Z</time>
      </trkpt>
      <trkpt lat="42.9138000" lon="-8.4166630">
        <ele>355.2</ele>
        <time>2014-07-31T10:31:44Z</time>
      </trkpt>
      <trkpt lat="42.9137950" lon="-8.4167460">
        <ele>354.8</ele>
        <time>2014-07-31T10:31:45Z</time>
      </trkpt>
      <trkpt lat="42.9137900" lon="-8.4168310">
        <ele>354.4</ele>
        <time>2014-07-31T10:31:46Z</time>
      </trkpt>
      <trkpt lat="42.9137840" lon="-8.4170070">
        <ele>353.6</ele>
        <time>2014-07-31T10:31:48Z</time>
      </trkpt>
      <trkpt lat="42.9137650" lon="-8.4175590">
        <ele>351.3</ele>
        <time>2014-07-31T10:31:55Z</time>
      </trkpt>
      <trkpt lat="42.9137690" lon="-8.4176230">
        <ele>351.0</ele>
        <time>2014-07-31T10:31:56Z</time>
      </trkpt>
      <trkpt lat="42.9137170" lon="-8.4179520">
        <ele>349.4</ele>
        <time>2014-07-31T10:32:02Z</time>
      </trkpt>
      <trkpt lat="42.9136220" lon="-8.4181790">
        <ele>348.2</ele>
        <time>2014-07-31T10:32:06Z</time>
      </trkpt>
      <trkpt lat="42.9136090" lon="-8.4182360">
        <ele>348.1</ele>
        <time>2014-07-31T10:32:07Z</time>
      </trkpt>
      <trkpt lat="42.9135920" lon="-8.4184080">
        <ele>347.6</ele>
        <time>2014-07-31T10:32:10Z</time>
      </trkpt>
      <trkpt lat="42.9136040" lon="-8.4184610">
        <ele>347.5</ele>
        <time>2014-07-31T10:32:11Z</time>
      </trkpt>
      <trkpt lat="42.9136390" lon="-8.4185790">
        <ele>347.1</ele>
        <time>2014-07-31T10:32:13Z</time>
      </trkpt>
      <trkpt lat="42.9136430" lon="-8.4186480">
        <ele>346.9</ele>
        <time>2014-07-31T10:32:14Z</time>
      </trkpt>
      <trkpt lat="42.9136420" lon="-8.4187230">
        <ele>346.6</ele>
        <time>2014-07-31T10:32:15Z</time>
      </trkpt>
      <trkpt lat="42.9136420" lon="-8.4188020">
        <ele>346.4</ele>
        <time>2014-07-31T10:32:16Z</time>
      </trkpt>
      <trkpt lat="42.9136440" lon="-8.4188800">
        <ele>346.2</ele>
        <time>2014-07-31T10:32:17Z</time>
      </trkpt>
      <trkpt lat="42.9136480" lon="-8.4189580">
        <ele>346.0</ele>
        <time>2014-07-31T10:32:18Z</time>
      </trkpt>
      <trkpt lat="42.9136710" lon="-8.4193270">
        <ele>344.8</ele>
        <time>2014-07-31T10:32:23Z</time>
      </trkpt>
      <trkpt lat="42.9136740" lon="-8.4194020">
        <ele>344.6</ele>
        <time>2014-07-31T10:32:24Z</time>
      </trkpt>
      <trkpt lat="42.9136740" lon="-8.4194880">
        <ele>344.4</ele>
        <time>2014-07-31T10:32:25Z</time>
      </trkpt>
      <trkpt lat="42.9136400" lon="-8.4198320">
        <ele>343.7</ele>
        <time>2014-07-31T10:32:29Z</time>
      </trkpt>
      <trkpt lat="42.9136170" lon="-8.4199070">
        <ele>343.5</ele>
        <time>2014-07-31T10:32:30Z</time>
      </trkpt>
      <trkpt lat="42.9135850" lon="-8.4199690">
        <ele>343.3</ele>
        <time>2014-07-31T10:32:31Z</time>
      </trkpt>
      <trkpt lat="42.9135550" lon="-8.4200200">
        <ele>343.2</ele>
        <time>2014-07-31T10:32:32Z</time>
      </trkpt>
      <trkpt lat="42.9135310" lon="-8.4200660">
        <ele>343.1</ele>
        <time>2014-07-31T10:32:33Z</time>
      </trkpt>
      <trkpt lat="42.9135100" lon="-8.4201050">
        <ele>343.0</ele>
        <time>2014-07-31T10:32:34Z</time>
      </trkpt>
      <trkpt lat="42.9134910" lon="-8.4201360">
        <ele>342.9</ele>
        <time>2014-07-31T10:32:35Z</time>
      </trkpt>
      <trkpt lat="42.9134770" lon="-8.4201640">
        <ele>342.9</ele>
        <time>2014-07-31T10:32:36Z</time>
      </trkpt>
      <trkpt lat="42.9134660" lon="-8.4202000">
        <ele>342.7</ele>
        <time>2014-07-31T10:32:37Z</time>
      </trkpt>
      <trkpt lat="42.9134560" lon="-8.4202550">
        <ele>342.2</ele>
        <time>2014-07-31T10:32:38Z</time>
      </trkpt>
      <trkpt lat="42.9134510" lon="-8.4203300">
        <ele>341.5</ele>
        <time>2014-07-31T10:32:39Z</time>
      </trkpt>
      <trkpt lat="42.9134510" lon="-8.4204180">
        <ele>340.7</ele>
        <time>2014-07-31T10:32:40Z</time>
      </trkpt>
      <trkpt lat="42.9134600" lon="-8.4205110">
        <ele>339.7</ele>
        <time>2014-07-31T10:32:41Z</time>
      </trkpt>
      <trkpt lat="42.9134700" lon="-8.4206080">
        <ele>338.6</ele>
        <time>2014-07-31T10:32:42Z</time>
      </trkpt>
      <trkpt lat="42.9134770" lon="-8.4208240">
        <ele>336.4</ele>
        <time>2014-07-31T10:32:44Z</time>
      </trkpt>
      <trkpt lat="42.9134700" lon="-8.4212200">
        <ele>334.0</ele>
        <time>2014-07-31T10:32:48Z</time>
      </trkpt>
      <trkpt lat="42.9134510" lon="-8.4216390">
        <ele>331.6</ele>
        <time>2014-07-31T10:32:54Z</time>
      </trkpt>
      <trkpt lat="42.9134700" lon="-8.4219180">
        <ele>330.2</ele>
        <time>2014-07-31T10:32:58Z</time>
      </trkpt>
      <trkpt lat="42.9133940" lon="-8.4223130">
        <ele>329.8</ele>
        <time>2014-07-31T10:33:06Z</time>
      </trkpt>
      <trkpt lat="42.9133000" lon="-8.4225180">
        <ele>329.3</ele>
        <time>2014-07-31T10:33:10Z</time>
      </trkpt>
      <trkpt lat="42.9132320" lon="-8.4226330">
        <ele>328.9</ele>
        <time>2014-07-31T10:33:12Z</time>
      </trkpt>
      <trkpt lat="42.9131900" lon="-8.4226860">
        <ele>328.6</ele>
        <time>2014-07-31T10:33:13Z</time>
      </trkpt>
      <trkpt lat="42.9131500" lon="-8.4227430">
        <ele>328.3</ele>
        <time>2014-07-31T10:33:14Z</time>
      </trkpt>
      <trkpt lat="42.9131170" lon="-8.4228020">
        <ele>328.1</ele>
        <time>2014-07-31T10:33:15Z</time>
      </trkpt>
      <trkpt lat="42.9130870" lon="-8.4228600">
        <ele>327.9</ele>
        <time>2014-07-31T10:33:16Z</time>
      </trkpt>
      <trkpt lat="42.9130270" lon="-8.4229780">
        <ele>327.5</ele>
        <time>2014-07-31T10:33:18Z</time>
      </trkpt>
      <trkpt lat="42.9129200" lon="-8.4231570">
        <ele>326.8</ele>
        <time>2014-07-31T10:33:21Z</time>
      </trkpt>
      <trkpt lat="42.9128900" lon="-8.4232110">
        <ele>326.6</ele>
        <time>2014-07-31T10:33:22Z</time>
      </trkpt>
      <trkpt lat="42.9128520" lon="-8.4232590">
        <ele>326.3</ele>
        <time>2014-07-31T10:33:23Z</time>
      </trkpt>
      <trkpt lat="42.9123600" lon="-8.4237480">
        <ele>324.9</ele>
        <time>2014-07-31T10:33:33Z</time>
      </trkpt>
      <trkpt lat="42.9122640" lon="-8.4238220">
        <ele>325.4</ele>
        <time>2014-07-31T10:33:36Z</time>
      </trkpt>
      <trkpt lat="42.9122330" lon="-8.4238510">
        <ele>325.7</ele>
        <time>2014-07-31T10:33:37Z</time>
      </trkpt>
      <trkpt lat="42.9122040" lon="-8.4238820">
        <ele>325.8</ele>
        <time>2014-07-31T10:33:38Z</time>
      </trkpt>
      <trkpt lat="42.9121850" lon="-8.4238980">
        <ele>326.0</ele>
        <time>2014-07-31T10:33:39Z</time>
      </trkpt>
      <trkpt lat="42.9121670" lon="-8.4239160">
        <ele>326.1</ele>
        <time>2014-07-31T10:33:40Z</time>
      </trkpt>
      <trkpt lat="42.9121470" lon="-8.4239270">
        <ele>326.2</ele>
        <time>2014-07-31T10:33:41Z</time>
      </trkpt>
      <trkpt lat="42.9121280" lon="-8.4239350">
        <ele>326.3</ele>
        <time>2014-07-31T10:33:42Z</time>
      </trkpt>
      <trkpt lat="42.9121030" lon="-8.4239330">
        <ele>326.5</ele>
        <time>2014-07-31T10:33:43Z</time>
      </trkpt>
      <trkpt lat="42.9120760" lon="-8.4239480">
        <ele>326.8</ele>
        <time>2014-07-31T10:33:45Z</time>
      </trkpt>
      <trkpt lat="42.9120600" lon="-8.4239610">
        <ele>327.0</ele>
        <time>2014-07-31T10:33:46Z</time>
      </trkpt>
      <trkpt lat="42.9120420" lon="-8.4239730">
        <ele>327.2</ele>
        <time>2014-07-31T10:33:47Z</time>
      </trkpt>
      <trkpt lat="42.9120240" lon="-8.4239840">
        <ele>327.5</ele>
        <time>2014-07-31T10:33:48Z</time>
      </trkpt>
      <trkpt lat="42.9120090" lon="-8.4239910">
        <ele>327.6</ele>
        <time>2014-07-31T10:33:49Z</time>
      </trkpt>
      <trkpt lat="42.9119930" lon="-8.4239970">
        <ele>327.9</ele>
        <time>2014-07-31T10:33:50Z</time>
      </trkpt>
      <trkpt lat="42.9119760" lon="-8.4240050">
        <ele>328.2</ele>
        <time>2014-07-31T10:33:51Z</time>
      </trkpt>
      <trkpt lat="42.9119490" lon="-8.4240190">
        <ele>328.7</ele>
        <time>2014-07-31T10:33:53Z</time>
      </trkpt>
      <trkpt lat="42.9119350" lon="-8.4240270">
        <ele>328.9</ele>
        <time>2014-07-31T10:33:54Z</time>
      </trkpt>
      <trkpt lat="42.9117940" lon="-8.4241190">
        <ele>331.7</ele>
        <time>2014-07-31T10:34:05Z</time>
      </trkpt>
      <trkpt lat="42.9117290" lon="-8.4241480">
        <ele>332.9</ele>
        <time>2014-07-31T10:34:10Z</time>
      </trkpt>
      <trkpt lat="42.9117170" lon="-8.4241570">
        <ele>333.1</ele>
        <time>2014-07-31T10:34:11Z</time>
      </trkpt>
      <trkpt lat="42.9117060" lon="-8.4241670">
        <ele>333.3</ele>
        <time>2014-07-31T10:34:12Z</time>
      </trkpt>
      <trkpt lat="42.9116940" lon="-8.4241740">
        <ele>333.5</ele>
        <time>2014-07-31T10:34:13Z</time>
      </trkpt>
      <trkpt lat="42.9116820" lon="-8.4241780">
        <ele>333.6</ele>
        <time>2014-07-31T10:34:14Z</time>
      </trkpt>
      <trkpt lat="42.9116500" lon="-8.4241850">
        <ele>334.1</ele>
        <time>2014-07-31T10:34:17Z</time>
      </trkpt>
      <trkpt lat="42.9114470" lon="-8.4241950">
        <ele>336.5</ele>
        <time>2014-07-31T10:34:32Z</time>
      </trkpt>
      <trkpt lat="42.9111930" lon="-8.4241610">
        <ele>338.0</ele>
        <time>2014-07-31T10:34:45Z</time>
      </trkpt>
      <trkpt lat="42.9111010" lon="-8.4241850">
        <ele>338.3</ele>
        <time>2014-07-31T10:34:49Z</time>
      </trkpt>
      <trkpt lat="42.9110850" lon="-8.4242050">
        <ele>338.4</ele>
        <time>2014-07-31T10:34:50Z</time>
      </trkpt>
      <trkpt lat="42.9110720" lon="-8.4242300">
        <ele>338.4</ele>
        <time>2014-07-31T10:34:51Z</time>
      </trkpt>
      <trkpt lat="42.9109920" lon="-8.4244080">
        <ele>338.6</ele>
        <time>2014-07-31T10:34:58Z</time>
      </trkpt>
      <trkpt lat="42.9106350" lon="-8.4243100">
        <ele>338.8</ele>
        <time>2014-07-31T10:35:09Z</time>
      </trkpt>
      <trkpt lat="42.9105990" lon="-8.4242930">
        <ele>338.9</ele>
        <time>2014-07-31T10:35:10Z</time>
      </trkpt>
      <trkpt lat="42.9105650" lon="-8.4242780">
        <ele>338.9</ele>
        <time>2014-07-31T10:35:11Z</time>
      </trkpt>
      <trkpt lat="42.9100500" lon="-8.4240920">
        <ele>338.9</ele>
        <time>2014-07-31T10:35:25Z</time>
      </trkpt>
      <trkpt lat="42.9097930" lon="-8.4239750">
        <ele>338.6</ele>
        <time>2014-07-31T10:35:31Z</time>
      </trkpt>
      <trkpt lat="42.9091020" lon="-8.4237470">
        <ele>337.2</ele>
        <time>2014-07-31T10:35:44Z</time>
      </trkpt>
      <trkpt lat="42.9090090" lon="-8.4237080">
        <ele>337.2</ele>
        <time>2014-07-31T10:35:46Z</time>
      </trkpt>
      <trkpt lat="42.9089660" lon="-8.4236980">
        <ele>337.2</ele>
        <time>2014-07-31T10:35:47Z</time>
      </trkpt>
      <trkpt lat="42.9089310" lon="-8.4236970">
        <ele>337.2</ele>
        <time>2014-07-31T10:35:48Z</time>
      </trkpt>
      <trkpt lat="42.9089050" lon="-8.4237160">
        <ele>337.2</ele>
        <time>2014-07-31T10:35:49Z</time>
      </trkpt>
      <trkpt lat="42.9088860" lon="-8.4237470">
        <ele>337.2</ele>
        <time>2014-07-31T10:35:50Z</time>
      </trkpt>
      <trkpt lat="42.9088690" lon="-8.4237830">
        <ele>337.2</ele>
        <time>2014-07-31T10:35:51Z</time>
      </trkpt>
      <trkpt lat="42.9088550" lon="-8.4238180">
        <ele>337.2</ele>
        <time>2014-07-31T10:35:52Z</time>
      </trkpt>
      <trkpt lat="42.9088430" lon="-8.4238460">
        <ele>337.2</ele>
        <time>2014-07-31T10:35:53Z</time>
      </trkpt>
      <trkpt lat="42.9088280" lon="-8.4238760">
        <ele>337.0</ele>
        <time>2014-07-31T10:35:54Z</time>
      </trkpt>
      <trkpt lat="42.9088020" lon="-8.4239100">
        <ele>336.8</ele>
        <time>2014-07-31T10:35:55Z</time>
      </trkpt>
      <trkpt lat="42.9087810" lon="-8.4239590">
        <ele>336.7</ele>
        <time>2014-07-31T10:35:56Z</time>
      </trkpt>
      <trkpt lat="42.9087690" lon="-8.4240200">
        <ele>336.6</ele>
        <time>2014-07-31T10:35:57Z</time>
      </trkpt>
      <trkpt lat="42.9087690" lon="-8.4240930">
        <ele>336.5</ele>
        <time>2014-07-31T10:35:58Z</time>
      </trkpt>
      <trkpt lat="42.9087720" lon="-8.4241810">
        <ele>336.4</ele>
        <time>2014-07-31T10:35:59Z</time>
      </trkpt>
      <trkpt lat="42.9087770" lon="-8.4242690">
        <ele>336.2</ele>
        <time>2014-07-31T10:36:00Z</time>
      </trkpt>
      <trkpt lat="42.9087800" lon="-8.4243520">
        <ele>335.9</ele>
        <time>2014-07-31T10:36:01Z</time>
      </trkpt>
      <trkpt lat="42.9088510" lon="-8.4249180">
        <ele>334.3</ele>
        <time>2014-07-31T10:36:07Z</time>
      </trkpt>
      <trkpt lat="42.9088730" lon="-8.4250160">
        <ele>334.0</ele>
        <time>2014-07-31T10:36:08Z</time>
      </trkpt>
      <trkpt lat="42.9089800" lon="-8.4253990">
        <ele>332.6</ele>
        <time>2014-07-31T10:36:12Z</time>
      </trkpt>
      <trkpt lat="42.9090090" lon="-8.4255780">
        <ele>332.4</ele>
        <time>2014-07-31T10:36:14Z</time>
      </trkpt>
      <trkpt lat="42.9089980" lon="-8.4256770">
        <ele>332.2</ele>
        <time>2014-07-31T10:36:15Z</time>
      </trkpt>
      <trkpt lat="42.9089540" lon="-8.4259520">
        <ele>331.8</ele>
        <time>2014-07-31T10:36:18Z</time>
      </trkpt>
      <trkpt lat="42.9089240" lon="-8.4260280">
        <ele>331.9</ele>
        <time>2014-07-31T10:36:19Z</time>
      </trkpt>
      <trkpt lat="42.9088810" lon="-8.4260920">
        <ele>332.1</ele>
        <time>2014-07-31T10:36:20Z</time>
      </trkpt>
      <trkpt lat="42.9088330" lon="-8.4261400">
        <ele>332.3</ele>
        <time>2014-07-31T10:36:21Z</time>
      </trkpt>
      <trkpt lat="42.9087800" lon="-8.4261710">
        <ele>332.6</ele>
        <time>2014-07-31T10:36:22Z</time>
      </trkpt>
      <trkpt lat="42.9087310" lon="-8.4261910">
        <ele>333.1</ele>
        <time>2014-07-31T10:36:23Z</time>
      </trkpt>
      <trkpt lat="42.9086870" lon="-8.4262040">
        <ele>333.6</ele>
        <time>2014-07-31T10:36:24Z</time>
      </trkpt>
      <trkpt lat="42.9084360" lon="-8.4263590">
        <ele>336.1</ele>
        <time>2014-07-31T10:36:33Z</time>
      </trkpt>
      <trkpt lat="42.9084040" lon="-8.4264460">
        <ele>336.5</ele>
        <time>2014-07-31T10:36:36Z</time>
      </trkpt>
      <trkpt lat="42.9083980" lon="-8.4264800">
        <ele>336.6</ele>
        <time>2014-07-31T10:36:37Z</time>
      </trkpt>
      <trkpt lat="42.9083880" lon="-8.4265170">
        <ele>336.8</ele>
        <time>2014-07-31T10:36:38Z</time>
      </trkpt>
      <trkpt lat="42.9083750" lon="-8.4265540">
        <ele>337.3</ele>
        <time>2014-07-31T10:36:39Z</time>
      </trkpt>
      <trkpt lat="42.9083660" lon="-8.4265850">
        <ele>337.7</ele>
        <time>2014-07-31T10:36:40Z</time>
      </trkpt>
      <trkpt lat="42.9083550" lon="-8.4266110">
        <ele>338.1</ele>
        <time>2014-07-31T10:36:41Z</time>
      </trkpt>
      <trkpt lat="42.9082680" lon="-8.4267950">
        <ele>340.6</ele>
        <time>2014-07-31T10:36:50Z</time>
      </trkpt>
      <trkpt lat="42.9082600" lon="-8.4268100">
        <ele>340.8</ele>
        <time>2014-07-31T10:36:51Z</time>
      </trkpt>
      <trkpt lat="42.9082510" lon="-8.4268240">
        <ele>341.0</ele>
        <time>2014-07-31T10:36:52Z</time>
      </trkpt>
      <trkpt lat="42.9082410" lon="-8.4268400">
        <ele>341.3</ele>
        <time>2014-07-31T10:36:53Z</time>
      </trkpt>
      <trkpt lat="42.9082300" lon="-8.4268580">
        <ele>341.5</ele>
        <time>2014-07-31T10:36:54Z</time>
      </trkpt>
      <trkpt lat="42.9082190" lon="-8.4268720">
        <ele>341.7</ele>
        <time>2014-07-31T10:36:55Z</time>
      </trkpt>
      <trkpt lat="42.9081880" lon="-8.4269340">
        <ele>342.5</ele>
        <time>2014-07-31T10:36:59Z</time>
      </trkpt>
      <trkpt lat="42.9081020" lon="-8.4270850">
        <ele>344.3</ele>
        <time>2014-07-31T10:37:10Z</time>
      </trkpt>
      <trkpt lat="42.9080930" lon="-8.4271000">
        <ele>344.5</ele>
        <time>2014-07-31T10:37:11Z</time>
      </trkpt>
      <trkpt lat="42.9079640" lon="-8.4272470">
        <ele>346.2</ele>
        <time>2014-07-31T10:37:24Z</time>
      </trkpt>
      <trkpt lat="42.9079540" lon="-8.4272550">
        <ele>346.3</ele>
        <time>2014-07-31T10:37:25Z</time>
      </trkpt>
      <trkpt lat="42.9079420" lon="-8.4272620">
        <ele>346.5</ele>
        <time>2014-07-31T10:37:26Z</time>
      </trkpt>
      <trkpt lat="42.9079320" lon="-8.4272700">
        <ele>346.6</ele>
        <time>2014-07-31T10:37:27Z</time>
      </trkpt>
      <trkpt lat="42.9079190" lon="-8.4272800">
        <ele>346.7</ele>
        <time>2014-07-31T10:37:28Z</time>
      </trkpt>
      <trkpt lat="42.9079070" lon="-8.4272940">
        <ele>346.8</ele>
        <time>2014-07-31T10:37:29Z</time>
      </trkpt>
      <trkpt lat="42.9078920" lon="-8.4273020">
        <ele>347.0</ele>
        <time>2014-07-31T10:37:30Z</time>
      </trkpt>
      <trkpt lat="42.9078770" lon="-8.4273110">
        <ele>347.1</ele>
        <time>2014-07-31T10:37:31Z</time>
      </trkpt>
      <trkpt lat="42.9078130" lon="-8.4273430">
        <ele>347.6</ele>
        <time>2014-07-31T10:37:36Z</time>
      </trkpt>
      <trkpt lat="42.9077540" lon="-8.4273870">
        <ele>347.9</ele>
        <time>2014-07-31T10:37:41Z</time>
      </trkpt>
      <trkpt lat="42.9077410" lon="-8.4273910">
        <ele>348.0</ele>
        <time>2014-07-31T10:37:42Z</time>
      </trkpt>
      <trkpt lat="42.9077260" lon="-8.4273860">
        <ele>348.1</ele>
        <time>2014-07-31T10:37:43Z</time>
      </trkpt>
      <trkpt lat="42.9077110" lon="-8.4273850">
        <ele>348.2</ele>
        <time>2014-07-31T10:37:44Z</time>
      </trkpt>
      <trkpt lat="42.9076990" lon="-8.4273900">
        <ele>348.3</ele>
        <time>2014-07-31T10:37:45Z</time>
      </trkpt>
      <trkpt lat="42.9076890" lon="-8.4274010">
        <ele>348.4</ele>
        <time>2014-07-31T10:37:46Z</time>
      </trkpt>
      <trkpt lat="42.9076780" lon="-8.4274080">
        <ele>348.4</ele>
        <time>2014-07-31T10:37:47Z</time>
      </trkpt>
      <trkpt lat="42.9076660" lon="-8.4274190">
        <ele>348.5</ele>
        <time>2014-07-31T10:37:48Z</time>
      </trkpt>
      <trkpt lat="42.9076560" lon="-8.4274350">
        <ele>348.6</ele>
        <time>2014-07-31T10:37:49Z</time>
      </trkpt>
      <trkpt lat="42.9076460" lon="-8.4274450">
        <ele>348.6</ele>
        <time>2014-07-31T10:37:50Z</time>
      </trkpt>
      <trkpt lat="42.9075760" lon="-8.4274910">
        <ele>349.0</ele>
        <time>2014-07-31T10:37:56Z</time>
      </trkpt>
      <trkpt lat="42.9075640" lon="-8.4274980">
        <ele>349.0</ele>
        <time>2014-07-31T10:37:57Z</time>
      </trkpt>
      <trkpt lat="42.9075560" lon="-8.4275090">
        <ele>349.1</ele>
        <time>2014-07-31T10:38:11Z</time>
      </trkpt>
      <trkpt lat="42.9075560" lon="-8.4275090">
        <ele>349.1</ele>
        <time>2014-07-31T10:38:34Z</time>
      </trkpt>
      <trkpt lat="42.9075500" lon="-8.4275290">
        <ele>349.1</ele>
        <time>2014-07-31T10:38:37Z</time>
      </trkpt>
      <trkpt lat="42.9075380" lon="-8.4275390">
        <ele>349.2</ele>
        <time>2014-07-31T10:38:38Z</time>
      </trkpt>
      <trkpt lat="42.9075260" lon="-8.4275490">
        <ele>349.3</ele>
        <time>2014-07-31T10:38:39Z</time>
      </trkpt>
      <trkpt lat="42.9073570" lon="-8.4276970">
        <ele>350.1</ele>
        <time>2014-07-31T10:38:51Z</time>
      </trkpt>
      <trkpt lat="42.9073380" lon="-8.4277050">
        <ele>350.1</ele>
        <time>2014-07-31T10:38:52Z</time>
      </trkpt>
      <trkpt lat="42.9072380" lon="-8.4278090">
        <ele>350.5</ele>
        <time>2014-07-31T10:38:58Z</time>
      </trkpt>
      <trkpt lat="42.9072230" lon="-8.4278300">
        <ele>350.5</ele>
        <time>2014-07-31T10:38:59Z</time>
      </trkpt>
      <trkpt lat="42.9072090" lon="-8.4278470">
        <ele>350.5</ele>
        <time>2014-07-31T10:39:00Z</time>
      </trkpt>
      <trkpt lat="42.9071920" lon="-8.4278660">
        <ele>350.6</ele>
        <time>2014-07-31T10:39:01Z</time>
      </trkpt>
      <trkpt lat="42.9071750" lon="-8.4278860">
        <ele>350.6</ele>
        <time>2014-07-31T10:39:02Z</time>
      </trkpt>
      <trkpt lat="42.9071580" lon="-8.4279020">
        <ele>350.6</ele>
        <time>2014-07-31T10:39:03Z</time>
      </trkpt>
      <trkpt lat="42.9071400" lon="-8.4279180">
        <ele>350.7</ele>
        <time>2014-07-31T10:39:04Z</time>
      </trkpt>
      <trkpt lat="42.9071190" lon="-8.4279340">
        <ele>350.7</ele>
        <time>2014-07-31T10:39:05Z</time>
      </trkpt>
      <trkpt lat="42.9071010" lon="-8.4279510">
        <ele>350.7</ele>
        <time>2014-07-31T10:39:06Z</time>
      </trkpt>
      <trkpt lat="42.9070810" lon="-8.4279800">
        <ele>350.8</ele>
        <time>2014-07-31T10:39:07Z</time>
      </trkpt>
      <trkpt lat="42.9070590" lon="-8.4280210">
        <ele>350.8</ele>
        <time>2014-07-31T10:39:08Z</time>
      </trkpt>
      <trkpt lat="42.9068520" lon="-8.4285290">
        <ele>350.6</ele>
        <time>2014-07-31T10:39:16Z</time>
      </trkpt>
      <trkpt lat="42.9067860" lon="-8.4286890">
        <ele>350.3</ele>
        <time>2014-07-31T10:39:18Z</time>
      </trkpt>
      <trkpt lat="42.9066290" lon="-8.4291260">
        <ele>348.9</ele>
        <time>2014-07-31T10:39:23Z</time>
      </trkpt>
      <trkpt lat="42.9064650" lon="-8.4294760">
        <ele>346.9</ele>
        <time>2014-07-31T10:39:27Z</time>
      </trkpt>
      <trkpt lat="42.9062770" lon="-8.4297800">
        <ele>345.2</ele>
        <time>2014-07-31T10:39:31Z</time>
      </trkpt>
      <trkpt lat="42.9062080" lon="-8.4298300">
        <ele>345.2</ele>
        <time>2014-07-31T10:39:32Z</time>
      </trkpt>
      <trkpt lat="42.9060230" lon="-8.4299660">
        <ele>343.1</ele>
        <time>2014-07-31T10:39:35Z</time>
      </trkpt>
      <trkpt lat="42.9059580" lon="-8.4300730">
        <ele>342.8</ele>
        <time>2014-07-31T10:39:37Z</time>
      </trkpt>
      <trkpt lat="42.9057960" lon="-8.4302480">
        <ele>342.6</ele>
        <time>2014-07-31T10:39:41Z</time>
      </trkpt>
      <trkpt lat="42.9057590" lon="-8.4302870">
        <ele>342.6</ele>
        <time>2014-07-31T10:39:42Z</time>
      </trkpt>
      <trkpt lat="42.9054860" lon="-8.4307650">
        <ele>342.3</ele>
        <time>2014-07-31T10:39:55Z</time>
      </trkpt>
      <trkpt lat="42.9054390" lon="-8.4308730">
        <ele>342.2</ele>
        <time>2014-07-31T10:39:58Z</time>
      </trkpt>
      <trkpt lat="42.9053940" lon="-8.4313740">
        <ele>341.9</ele>
        <time>2014-07-31T10:40:08Z</time>
      </trkpt>
      <trkpt lat="42.9053370" lon="-8.4317320">
        <ele>340.5</ele>
        <time>2014-07-31T10:40:14Z</time>
      </trkpt>
      <trkpt lat="42.9053020" lon="-8.4318480">
        <ele>339.4</ele>
        <time>2014-07-31T10:40:16Z</time>
      </trkpt>
      <trkpt lat="42.9052760" lon="-8.4319100">
        <ele>338.8</ele>
        <time>2014-07-31T10:40:17Z</time>
      </trkpt>
      <trkpt lat="42.9052440" lon="-8.4319760">
        <ele>338.2</ele>
        <time>2014-07-31T10:40:18Z</time>
      </trkpt>
      <trkpt lat="42.9052090" lon="-8.4320470">
        <ele>337.6</ele>
        <time>2014-07-31T10:40:19Z</time>
      </trkpt>
      <trkpt lat="42.9050630" lon="-8.4323370">
        <ele>335.6</ele>
        <time>2014-07-31T10:40:23Z</time>
      </trkpt>
      <trkpt lat="42.9049110" lon="-8.4325800">
        <ele>334.2</ele>
        <time>2014-07-31T10:40:27Z</time>
      </trkpt>
      <trkpt lat="42.9048660" lon="-8.4326340">
        <ele>333.9</ele>
        <time>2014-07-31T10:40:28Z</time>
      </trkpt>
      <trkpt lat="42.9047860" lon="-8.4327580">
        <ele>333.2</ele>
        <time>2014-07-31T10:40:30Z</time>
      </trkpt>
      <trkpt lat="42.9047500" lon="-8.4328190">
        <ele>333.0</ele>
        <time>2014-07-31T10:40:31Z</time>
      </trkpt>
      <trkpt lat="42.9047100" lon="-8.4328740">
        <ele>332.7</ele>
        <time>2014-07-31T10:40:32Z</time>
      </trkpt>
      <trkpt lat="42.9046660" lon="-8.4329260">
        <ele>332.4</ele>
        <time>2014-07-31T10:40:33Z</time>
      </trkpt>
      <trkpt lat="42.9046220" lon="-8.4329800">
        <ele>332.1</ele>
        <time>2014-07-31T10:40:34Z</time>
      </trkpt>
      <trkpt lat="42.9045850" lon="-8.4330400">
        <ele>331.8</ele>
        <time>2014-07-31T10:40:35Z</time>
      </trkpt>
      <trkpt lat="42.9045540" lon="-8.4331040">
        <ele>331.5</ele>
        <time>2014-07-31T10:40:36Z</time>
      </trkpt>
      <trkpt lat="42.9045280" lon="-8.4331710">
        <ele>331.3</ele>
        <time>2014-07-31T10:40:37Z</time>
      </trkpt>
      <trkpt lat="42.9044280" lon="-8.4334340">
        <ele>330.6</ele>
        <time>2014-07-31T10:40:41Z</time>
      </trkpt>
      <trkpt lat="42.9044070" lon="-8.4335040">
        <ele>330.4</ele>
        <time>2014-07-31T10:40:42Z</time>
      </trkpt>
      <trkpt lat="42.9043820" lon="-8.4335810">
        <ele>330.0</ele>
        <time>2014-07-31T10:40:43Z</time>
      </trkpt>
      <trkpt lat="42.9043570" lon="-8.4336630">
        <ele>329.7</ele>
        <time>2014-07-31T10:40:44Z</time>
      </trkpt>
      <trkpt lat="42.9043370" lon="-8.4337470">
        <ele>329.5</ele>
        <time>2014-07-31T10:40:45Z</time>
      </trkpt>
      <trkpt lat="42.9043200" lon="-8.4338310">
        <ele>329.3</ele>
        <time>2014-07-31T10:40:46Z</time>
      </trkpt>
      <trkpt lat="42.9042850" lon="-8.4339860">
        <ele>329.1</ele>
        <time>2014-07-31T10:40:48Z</time>
      </trkpt>
      <trkpt lat="42.9042510" lon="-8.4341870">
        <ele>328.9</ele>
        <time>2014-07-31T10:40:51Z</time>
      </trkpt>
      <trkpt lat="42.9042330" lon="-8.4342520">
        <ele>328.9</ele>
        <time>2014-07-31T10:40:52Z</time>
      </trkpt>
      <trkpt lat="42.9041720" lon="-8.4344510">
        <ele>328.7</ele>
        <time>2014-07-31T10:40:55Z</time>
      </trkpt>
      <trkpt lat="42.9041630" lon="-8.4345210">
        <ele>328.6</ele>
        <time>2014-07-31T10:40:56Z</time>
      </trkpt>
      <trkpt lat="42.9041580" lon="-8.4345960">
        <ele>328.5</ele>
        <time>2014-07-31T10:40:57Z</time>
      </trkpt>
      <trkpt lat="42.9041620" lon="-8.4350720">
        <ele>327.1</ele>
        <time>2014-07-31T10:41:06Z</time>
      </trkpt>
      <trkpt lat="42.9041450" lon="-8.4351110">
        <ele>326.9</ele>
        <time>2014-07-31T10:41:07Z</time>
      </trkpt>
      <trkpt lat="42.9041180" lon="-8.4351390">
        <ele>326.7</ele>
        <time>2014-07-31T10:41:08Z</time>
      </trkpt>
      <trkpt lat="42.9040860" lon="-8.4351730">
        <ele>326.6</ele>
        <time>2014-07-31T10:41:09Z</time>
      </trkpt>
      <trkpt lat="42.9040530" lon="-8.4352120">
        <ele>326.5</ele>
        <time>2014-07-31T10:41:10Z</time>
      </trkpt>
      <trkpt lat="42.9039370" lon="-8.4353450">
        <ele>326.1</ele>
        <time>2014-07-31T10:41:14Z</time>
      </trkpt>
      <trkpt lat="42.9039040" lon="-8.4353840">
        <ele>325.9</ele>
        <time>2014-07-31T10:41:15Z</time>
      </trkpt>
      <trkpt lat="42.9036820" lon="-8.4356600">
        <ele>324.8</ele>
        <time>2014-07-31T10:41:21Z</time>
      </trkpt>
      <trkpt lat="42.9036410" lon="-8.4357160">
        <ele>324.6</ele>
        <time>2014-07-31T10:41:22Z</time>
      </trkpt>
      <trkpt lat="42.9034520" lon="-8.4359430">
        <ele>323.8</ele>
        <time>2014-07-31T10:41:27Z</time>
      </trkpt>
      <trkpt lat="42.9028800" lon="-8.4368400">
        <ele>320.9</ele>
        <time>2014-07-31T10:41:38Z</time>
      </trkpt>
      <trkpt lat="42.9026650" lon="-8.4372380">
        <ele>319.5</ele>
        <time>2014-07-31T10:41:42Z</time>
      </trkpt>
      <trkpt lat="42.9023280" lon="-8.4377020">
        <ele>317.0</ele>
        <time>2014-07-31T10:41:48Z</time>
      </trkpt>
      <trkpt lat="42.9020050" lon="-8.4383490">
        <ele>315.8</ele>
        <time>2014-07-31T10:41:56Z</time>
      </trkpt>
      <trkpt lat="42.9019790" lon="-8.4384300">
        <ele>315.8</ele>
        <time>2014-07-31T10:41:57Z</time>
      </trkpt>
      <trkpt lat="42.9019580" lon="-8.4385180">
        <ele>315.6</ele>
        <time>2014-07-31T10:41:58Z</time>
      </trkpt>
      <trkpt lat="42.9019460" lon="-8.4386030">
        <ele>315.4</ele>
        <time>2014-07-31T10:41:59Z</time>
      </trkpt>
      <trkpt lat="42.9019400" lon="-8.4386920">
        <ele>315.2</ele>
        <time>2014-07-31T10:42:00Z</time>
      </trkpt>
      <trkpt lat="42.9019360" lon="-8.4387790">
        <ele>315.1</ele>
        <time>2014-07-31T10:42:01Z</time>
      </trkpt>
      <trkpt lat="42.9018470" lon="-8.4398430">
        <ele>314.1</ele>
        <time>2014-07-31T10:42:16Z</time>
      </trkpt>
      <trkpt lat="42.9017450" lon="-8.4406810">
        <ele>311.1</ele>
        <time>2014-07-31T10:42:30Z</time>
      </trkpt>
      <trkpt lat="42.9017390" lon="-8.4407420">
        <ele>310.8</ele>
        <time>2014-07-31T10:42:31Z</time>
      </trkpt>
      <trkpt lat="42.9017200" lon="-8.4409270">
        <ele>310.3</ele>
        <time>2014-07-31T10:42:34Z</time>
      </trkpt>
      <trkpt lat="42.9016350" lon="-8.4416270">
        <ele>307.9</ele>
        <time>2014-07-31T10:42:43Z</time>
      </trkpt>
      <trkpt lat="42.9016110" lon="-8.4418520">
        <ele>306.9</ele>
        <time>2014-07-31T10:42:45Z</time>
      </trkpt>
      <trkpt lat="42.9015600" lon="-8.4422320">
        <ele>305.3</ele>
        <time>2014-07-31T10:42:48Z</time>
      </trkpt>
      <trkpt lat="42.9015370" lon="-8.4423670">
        <ele>304.8</ele>
        <time>2014-07-31T10:42:49Z</time>
      </trkpt>
      <trkpt lat="42.9014260" lon="-8.4427530">
        <ele>302.9</ele>
        <time>2014-07-31T10:42:52Z</time>
      </trkpt>
      <trkpt lat="42.9013710" lon="-8.4428670">
        <ele>302.3</ele>
        <time>2014-07-31T10:42:53Z</time>
      </trkpt>
      <trkpt lat="42.9011070" lon="-8.4433540">
        <ele>300.9</ele>
        <time>2014-07-31T10:42:58Z</time>
      </trkpt>
      <trkpt lat="42.9009110" lon="-8.4439820">
        <ele>300.3</ele>
        <time>2014-07-31T10:43:05Z</time>
      </trkpt>
      <trkpt lat="42.9006630" lon="-8.4451970">
        <ele>299.2</ele>
        <time>2014-07-31T10:43:20Z</time>
      </trkpt>
      <trkpt lat="42.9005090" lon="-8.4460160">
        <ele>298.2</ele>
        <time>2014-07-31T10:43:31Z</time>
      </trkpt>
      <trkpt lat="42.9003460" lon="-8.4466740">
        <ele>297.5</ele>
        <time>2014-07-31T10:43:41Z</time>
      </trkpt>
      <trkpt lat="42.9003210" lon="-8.4467260">
        <ele>297.4</ele>
        <time>2014-07-31T10:43:42Z</time>
      </trkpt>
      <trkpt lat="42.9002910" lon="-8.4467710">
        <ele>297.4</ele>
        <time>2014-07-31T10:43:43Z</time>
      </trkpt>
      <trkpt lat="42.9002560" lon="-8.4468130">
        <ele>297.3</ele>
        <time>2014-07-31T10:43:44Z</time>
      </trkpt>
      <trkpt lat="42.9002090" lon="-8.4468470">
        <ele>297.2</ele>
        <time>2014-07-31T10:43:45Z</time>
      </trkpt>
      <trkpt lat="42.9001530" lon="-8.4468690">
        <ele>297.1</ele>
        <time>2014-07-31T10:43:46Z</time>
      </trkpt>
      <trkpt lat="42.9000960" lon="-8.4468840">
        <ele>297.1</ele>
        <time>2014-07-31T10:43:47Z</time>
      </trkpt>
      <trkpt lat="42.9000390" lon="-8.4468850">
        <ele>297.1</ele>
        <time>2014-07-31T10:43:48Z</time>
      </trkpt>
      <trkpt lat="42.8999790" lon="-8.4468750">
        <ele>297.2</ele>
        <time>2014-07-31T10:43:49Z</time>
      </trkpt>
      <trkpt lat="42.8998440" lon="-8.4468270">
        <ele>297.5</ele>
        <time>2014-07-31T10:43:52Z</time>
      </trkpt>
      <trkpt lat="42.8998220" lon="-8.4467930">
        <ele>297.7</ele>
        <time>2014-07-31T10:43:53Z</time>
      </trkpt>
      <trkpt lat="42.8998130" lon="-8.4467610">
        <ele>297.8</ele>
        <time>2014-07-31T10:43:54Z</time>
      </trkpt>
      <trkpt lat="42.8998110" lon="-8.4467380">
        <ele>297.9</ele>
        <time>2014-07-31T10:43:55Z</time>
      </trkpt>
      <trkpt lat="42.8998160" lon="-8.4467170">
        <ele>298.0</ele>
        <time>2014-07-31T10:43:56Z</time>
      </trkpt>
      <trkpt lat="42.8998190" lon="-8.4466960">
        <ele>298.1</ele>
        <time>2014-07-31T10:43:57Z</time>
      </trkpt>
      <trkpt lat="42.8998170" lon="-8.4466800">
        <ele>298.2</ele>
        <time>2014-07-31T10:43:58Z</time>
      </trkpt>
      <trkpt lat="42.8998080" lon="-8.4466640">
        <ele>298.3</ele>
        <time>2014-07-31T10:43:59Z</time>
      </trkpt>
      <trkpt lat="42.8997940" lon="-8.4466530">
        <ele>298.4</ele>
        <time>2014-07-31T10:44:00Z</time>
      </trkpt>
      <trkpt lat="42.8997770" lon="-8.4466460">
        <ele>298.4</ele>
        <time>2014-07-31T10:44:01Z</time>
      </trkpt>
      <trkpt lat="42.8997570" lon="-8.4466390">
        <ele>298.5</ele>
        <time>2014-07-31T10:44:02Z</time>
      </trkpt>
      <trkpt lat="42.8997400" lon="-8.4466390">
        <ele>298.6</ele>
        <time>2014-07-31T10:44:13Z</time>
      </trkpt>
      <trkpt lat="42.8997370" lon="-8.4466010">
        <ele>298.6</ele>
        <time>2014-07-31T10:44:26Z</time>
      </trkpt>
      <trkpt lat="42.8997370" lon="-8.4466010">
        <ele>298.6</ele>
        <time>2014-07-31T10:44:50Z</time>
      </trkpt>
      <trkpt lat="42.8997270" lon="-8.4465680">
        <ele>298.7</ele>
        <time>2014-07-31T10:45:14Z</time>
      </trkpt>
      <trkpt lat="42.8997250" lon="-8.4465430">
        <ele>298.7</ele>
        <time>2014-07-31T10:45:36Z</time>
      </trkpt>
      <trkpt lat="42.8996530" lon="-8.4465490">
        <ele>298.9</ele>
        <time>2014-07-31T10:45:48Z</time>
      </trkpt>
      <trkpt lat="42.8994910" lon="-8.4462560">
        <ele>299.5</ele>
        <time>2014-07-31T10:45:58Z</time>
      </trkpt>
      <trkpt lat="42.8994100" lon="-8.4456490">
        <ele>300.8</ele>
        <time>2014-07-31T10:46:13Z</time>
      </trkpt>
      <trkpt lat="42.8993470" lon="-8.4452570">
        <ele>300.8</ele>
        <time>2014-07-31T10:46:24Z</time>
      </trkpt>
      <trkpt lat="42.8993100" lon="-8.4450930">
        <ele>300.7</ele>
        <time>2014-07-31T10:46:27Z</time>
      </trkpt>
      <trkpt lat="42.8989710" lon="-8.4446940">
        <ele>299.8</ele>
        <time>2014-07-31T10:46:39Z</time>
      </trkpt>
      <trkpt lat="42.8989230" lon="-8.4446820">
        <ele>299.5</ele>
        <time>2014-07-31T10:46:40Z</time>
      </trkpt>
      <trkpt lat="42.8988620" lon="-8.4446650">
        <ele>299.2</ele>
        <time>2014-07-31T10:46:41Z</time>
      </trkpt>
      <trkpt lat="42.8986590" lon="-8.4445800">
        <ele>298.3</ele>
        <time>2014-07-31T10:46:44Z</time>
      </trkpt>
      <trkpt lat="42.8986050" lon="-8.4445420">
        <ele>298.0</ele>
        <time>2014-07-31T10:46:45Z</time>
      </trkpt>
      <trkpt lat="42.8985630" lon="-8.4445010">
        <ele>297.9</ele>
        <time>2014-07-31T10:46:46Z</time>
      </trkpt>
      <trkpt lat="42.8985320" lon="-8.4444550">
        <ele>297.8</ele>
        <time>2014-07-31T10:46:47Z</time>
      </trkpt>
      <trkpt lat="42.8985080" lon="-8.4444030">
        <ele>297.7</ele>
        <time>2014-07-31T10:46:48Z</time>
      </trkpt>
      <trkpt lat="42.8984840" lon="-8.4443500">
        <ele>297.6</ele>
        <time>2014-07-31T10:46:49Z</time>
      </trkpt>
      <trkpt lat="42.8984540" lon="-8.4443000">
        <ele>297.5</ele>
        <time>2014-07-31T10:46:50Z</time>
      </trkpt>
      <trkpt lat="42.8984220" lon="-8.4442570">
        <ele>297.4</ele>
        <time>2014-07-31T10:46:51Z</time>
      </trkpt>
      <trkpt lat="42.8983990" lon="-8.4442370">
        <ele>297.3</ele>
        <time>2014-07-31T10:46:52Z</time>
      </trkpt>
      <trkpt lat="42.8983780" lon="-8.4442400">
        <ele>296.7</ele>
        <time>2014-07-31T10:46:53Z</time>
      </trkpt>
      <trkpt lat="42.8983690" lon="-8.4442640">
        <ele>296.6</ele>
        <time>2014-07-31T10:46:54Z</time>
      </trkpt>
      <trkpt lat="42.8983670" lon="-8.4442880">
        <ele>296.5</ele>
        <time>2014-07-31T10:46:55Z</time>
      </trkpt>
      <trkpt lat="42.8983670" lon="-8.4443130">
        <ele>296.5</ele>
        <time>2014-07-31T10:46:56Z</time>
      </trkpt>
      <trkpt lat="42.8983660" lon="-8.4443350">
        <ele>296.4</ele>
        <time>2014-07-31T10:46:57Z</time>
      </trkpt>
      <trkpt lat="42.8983670" lon="-8.4443520">
        <ele>296.4</ele>
        <time>2014-07-31T10:46:58Z</time>
      </trkpt>
      <trkpt lat="42.8983670" lon="-8.4443660">
        <ele>296.3</ele>
        <time>2014-07-31T10:46:59Z</time>
      </trkpt>
      <trkpt lat="42.8983600" lon="-8.4444280">
        <ele>296.0</ele>
        <time>2014-07-31T10:47:05Z</time>
      </trkpt>
      <trkpt lat="42.8983520" lon="-8.4444430">
        <ele>295.9</ele>
        <time>2014-07-31T10:47:06Z</time>
      </trkpt>
      <trkpt lat="42.8983320" lon="-8.4444610">
        <ele>295.9</ele>
        <time>2014-07-31T10:47:08Z</time>
      </trkpt>
      <trkpt lat="42.8983110" lon="-8.4444660">
        <ele>295.9</ele>
        <time>2014-07-31T10:47:09Z</time>
      </trkpt>
      <trkpt lat="42.8982840" lon="-8.4444770">
        <ele>295.8</ele>
        <time>2014-07-31T10:47:10Z</time>
      </trkpt>
      <trkpt lat="42.8982560" lon="-8.4444980">
        <ele>295.7</ele>
        <time>2014-07-31T10:47:11Z</time>
      </trkpt>
      <trkpt lat="42.8982310" lon="-8.4445220">
        <ele>295.6</ele>
        <time>2014-07-31T10:47:12Z</time>
      </trkpt>
      <trkpt lat="42.8982120" lon="-8.4445520">
        <ele>295.5</ele>
        <time>2014-07-31T10:47:13Z</time>
      </trkpt>
      <trkpt lat="42.8981980" lon="-8.4445890">
        <ele>295.4</ele>
        <time>2014-07-31T10:47:14Z</time>
      </trkpt>
      <trkpt lat="42.8981280" lon="-8.4450430">
        <ele>294.9</ele>
        <time>2014-07-31T10:47:23Z</time>
      </trkpt>
      <trkpt lat="42.8979110" lon="-8.4454030">
        <ele>296.5</ele>
        <time>2014-07-31T10:47:35Z</time>
      </trkpt>
      <trkpt lat="42.8977480" lon="-8.4456890">
        <ele>298.8</ele>
        <time>2014-07-31T10:47:48Z</time>
      </trkpt>
      <trkpt lat="42.8976300" lon="-8.4459920">
        <ele>301.5</ele>
        <time>2014-07-31T10:48:03Z</time>
      </trkpt>
      <trkpt lat="42.8975240" lon="-8.4462630">
        <ele>304.3</ele>
        <time>2014-07-31T10:48:18Z</time>
      </trkpt>
      <trkpt lat="42.8974250" lon="-8.4465450">
        <ele>306.8</ele>
        <time>2014-07-31T10:48:34Z</time>
      </trkpt>
      <trkpt lat="42.8973930" lon="-8.4466060">
        <ele>307.3</ele>
        <time>2014-07-31T10:48:38Z</time>
      </trkpt>
      <trkpt lat="42.8973910" lon="-8.4466250">
        <ele>307.4</ele>
        <time>2014-07-31T10:48:39Z</time>
      </trkpt>
      <trkpt lat="42.8973880" lon="-8.4466460">
        <ele>307.6</ele>
        <time>2014-07-31T10:48:40Z</time>
      </trkpt>
      <trkpt lat="42.8973820" lon="-8.4466660">
        <ele>307.8</ele>
        <time>2014-07-31T10:48:41Z</time>
      </trkpt>
      <trkpt lat="42.8973770" lon="-8.4466830">
        <ele>307.9</ele>
        <time>2014-07-31T10:48:42Z</time>
      </trkpt>
      <trkpt lat="42.8973710" lon="-8.4467010">
        <ele>308.1</ele>
        <time>2014-07-31T10:48:43Z</time>
      </trkpt>
      <trkpt lat="42.8973010" lon="-8.4469200">
        <ele>310.1</ele>
        <time>2014-07-31T10:48:56Z</time>
      </trkpt>
      <trkpt lat="42.8972580" lon="-8.4471120">
        <ele>312.0</ele>
        <time>2014-07-31T10:49:08Z</time>
      </trkpt>
      <trkpt lat="42.8972160" lon="-8.4472880">
        <ele>314.3</ele>
        <time>2014-07-31T10:49:20Z</time>
      </trkpt>
      <trkpt lat="42.8971990" lon="-8.4473730">
        <ele>315.4</ele>
        <time>2014-07-31T10:49:26Z</time>
      </trkpt>
      <trkpt lat="42.8971940" lon="-8.4473800">
        <ele>315.5</ele>
        <time>2014-07-31T10:49:27Z</time>
      </trkpt>
      <trkpt lat="42.8971740" lon="-8.4474420">
        <ele>316.5</ele>
        <time>2014-07-31T10:49:31Z</time>
      </trkpt>
      <trkpt lat="42.8971630" lon="-8.4474570">
        <ele>316.7</ele>
        <time>2014-07-31T10:49:32Z</time>
      </trkpt>
      <trkpt lat="42.8971560" lon="-8.4474700">
        <ele>316.9</ele>
        <time>2014-07-31T10:49:33Z</time>
      </trkpt>
      <trkpt lat="42.8970970" lon="-8.4475390">
        <ele>318.0</ele>
        <time>2014-07-31T10:49:39Z</time>
      </trkpt>
      <trkpt lat="42.8970870" lon="-8.4475490">
        <ele>318.1</ele>
        <time>2014-07-31T10:49:40Z</time>
      </trkpt>
      <trkpt lat="42.8970750" lon="-8.4475540">
        <ele>318.2</ele>
        <time>2014-07-31T10:49:41Z</time>
      </trkpt>
      <trkpt lat="42.8970630" lon="-8.4475580">
        <ele>318.3</ele>
        <time>2014-07-31T10:49:42Z</time>
      </trkpt>
      <trkpt lat="42.8970500" lon="-8.4475650">
        <ele>318.4</ele>
        <time>2014-07-31T10:49:43Z</time>
      </trkpt>
      <trkpt lat="42.8970380" lon="-8.4475740">
        <ele>318.5</ele>
        <time>2014-07-31T10:49:44Z</time>
      </trkpt>
      <trkpt lat="42.8970260" lon="-8.4475800">
        <ele>318.6</ele>
        <time>2014-07-31T10:49:45Z</time>
      </trkpt>
      <trkpt lat="42.8970140" lon="-8.4475820">
        <ele>318.7</ele>
        <time>2014-07-31T10:49:46Z</time>
      </trkpt>
      <trkpt lat="42.8970010" lon="-8.4475870">
        <ele>318.8</ele>
        <time>2014-07-31T10:49:47Z</time>
      </trkpt>
      <trkpt lat="42.8969570" lon="-8.4476010">
        <ele>319.2</ele>
        <time>2014-07-31T10:49:51Z</time>
      </trkpt>
      <trkpt lat="42.8969480" lon="-8.4476100">
        <ele>319.3</ele>
        <time>2014-07-31T10:49:52Z</time>
      </trkpt>
      <trkpt lat="42.8969380" lon="-8.4476170">
        <ele>319.4</ele>
        <time>2014-07-31T10:49:53Z</time>
      </trkpt>
      <trkpt lat="42.8969220" lon="-8.4476190">
        <ele>319.5</ele>
        <time>2014-07-31T10:49:54Z</time>
      </trkpt>
      <trkpt lat="42.8969080" lon="-8.4476210">
        <ele>319.6</ele>
        <time>2014-07-31T10:49:55Z</time>
      </trkpt>
      <trkpt lat="42.8968680" lon="-8.4476220">
        <ele>319.9</ele>
        <time>2014-07-31T10:49:58Z</time>
      </trkpt>
      <trkpt lat="42.8968550" lon="-8.4476260">
        <ele>320.0</ele>
        <time>2014-07-31T10:49:59Z</time>
      </trkpt>
      <trkpt lat="42.8968360" lon="-8.4476210">
        <ele>320.1</ele>
        <time>2014-07-31T10:50:00Z</time>
      </trkpt>
      <trkpt lat="42.8967890" lon="-8.4476120">
        <ele>320.5</ele>
        <time>2014-07-31T10:50:03Z</time>
      </trkpt>
      <trkpt lat="42.8967740" lon="-8.4476150">
        <ele>320.5</ele>
        <time>2014-07-31T10:50:04Z</time>
      </trkpt>
      <trkpt lat="42.8967580" lon="-8.4476160">
        <ele>320.6</ele>
        <time>2014-07-31T10:50:05Z</time>
      </trkpt>
      <trkpt lat="42.8966300" lon="-8.4476330">
        <ele>321.3</ele>
        <time>2014-07-31T10:50:13Z</time>
      </trkpt>
      <trkpt lat="42.8963770" lon="-8.4475930">
        <ele>322.7</ele>
        <time>2014-07-31T10:50:24Z</time>
      </trkpt>
      <trkpt lat="42.8961850" lon="-8.4475560">
        <ele>323.3</ele>
        <time>2014-07-31T10:50:29Z</time>
      </trkpt>
      <trkpt lat="42.8960930" lon="-8.4475490">
        <ele>323.6</ele>
        <time>2014-07-31T10:50:31Z</time>
      </trkpt>
      <trkpt lat="42.8960440" lon="-8.4475470">
        <ele>323.7</ele>
        <time>2014-07-31T10:50:32Z</time>
      </trkpt>
      <trkpt lat="42.8959970" lon="-8.4475470">
        <ele>323.8</ele>
        <time>2014-07-31T10:50:33Z</time>
      </trkpt>
      <trkpt lat="42.8959530" lon="-8.4475660">
        <ele>323.9</ele>
        <time>2014-07-31T10:50:34Z</time>
      </trkpt>
      <trkpt lat="42.8959080" lon="-8.4476060">
        <ele>324.1</ele>
        <time>2014-07-31T10:50:35Z</time>
      </trkpt>
      <trkpt lat="42.8958620" lon="-8.4476490">
        <ele>324.2</ele>
        <time>2014-07-31T10:50:36Z</time>
      </trkpt>
      <trkpt lat="42.8957160" lon="-8.4477610">
        <ele>324.6</ele>
        <time>2014-07-31T10:50:39Z</time>
      </trkpt>
      <trkpt lat="42.8956680" lon="-8.4477870">
        <ele>324.7</ele>
        <time>2014-07-31T10:50:40Z</time>
      </trkpt>
      <trkpt lat="42.8956220" lon="-8.4478040">
        <ele>324.8</ele>
        <time>2014-07-31T10:50:41Z</time>
      </trkpt>
      <trkpt lat="42.8955740" lon="-8.4478160">
        <ele>324.9</ele>
        <time>2014-07-31T10:50:42Z</time>
      </trkpt>
      <trkpt lat="42.8955250" lon="-8.4478230">
        <ele>325.0</ele>
        <time>2014-07-31T10:50:43Z</time>
      </trkpt>
      <trkpt lat="42.8954740" lon="-8.4478230">
        <ele>325.2</ele>
        <time>2014-07-31T10:50:44Z</time>
      </trkpt>
      <trkpt lat="42.8954230" lon="-8.4478190">
        <ele>325.4</ele>
        <time>2014-07-31T10:50:45Z</time>
      </trkpt>
      <trkpt lat="42.8952740" lon="-8.4478080">
        <ele>325.8</ele>
        <time>2014-07-31T10:50:48Z</time>
      </trkpt>
      <trkpt lat="42.8952370" lon="-8.4478050">
        <ele>325.9</ele>
        <time>2014-07-31T10:50:49Z</time>
      </trkpt>
      <trkpt lat="42.8950010" lon="-8.4476280">
        <ele>326.7</ele>
        <time>2014-07-31T10:50:58Z</time>
      </trkpt>
      <trkpt lat="42.8948560" lon="-8.4473610">
        <ele>327.9</ele>
        <time>2014-07-31T10:51:11Z</time>
      </trkpt>
      <trkpt lat="42.8946550" lon="-8.4471120">
        <ele>329.6</ele>
        <time>2014-07-31T10:51:26Z</time>
      </trkpt>
      <trkpt lat="42.8944340" lon="-8.4471320">
        <ele>331.3</ele>
        <time>2014-07-31T10:51:38Z</time>
      </trkpt>
      <trkpt lat="42.8942650" lon="-8.4472900">
        <ele>332.6</ele>
        <time>2014-07-31T10:51:50Z</time>
      </trkpt>
      <trkpt lat="42.8941370" lon="-8.4475800">
        <ele>334.2</ele>
        <time>2014-07-31T10:52:05Z</time>
      </trkpt>
      <trkpt lat="42.8939700" lon="-8.4478150">
        <ele>335.7</ele>
        <time>2014-07-31T10:52:20Z</time>
      </trkpt>
      <trkpt lat="42.8938840" lon="-8.4478850">
        <ele>336.5</ele>
        <time>2014-07-31T10:52:27Z</time>
      </trkpt>
      <trkpt lat="42.8938700" lon="-8.4478870">
        <ele>336.6</ele>
        <time>2014-07-31T10:52:28Z</time>
      </trkpt>
      <trkpt lat="42.8938580" lon="-8.4478900">
        <ele>336.7</ele>
        <time>2014-07-31T10:52:29Z</time>
      </trkpt>
      <trkpt lat="42.8938440" lon="-8.4478910">
        <ele>336.8</ele>
        <time>2014-07-31T10:52:30Z</time>
      </trkpt>
      <trkpt lat="42.8938280" lon="-8.4478960">
        <ele>336.9</ele>
        <time>2014-07-31T10:52:31Z</time>
      </trkpt>
      <trkpt lat="42.8938120" lon="-8.4479030">
        <ele>337.1</ele>
        <time>2014-07-31T10:52:32Z</time>
      </trkpt>
      <trkpt lat="42.8936240" lon="-8.4480050">
        <ele>339.0</ele>
        <time>2014-07-31T10:52:46Z</time>
      </trkpt>
      <trkpt lat="42.8934090" lon="-8.4481350">
        <ele>341.6</ele>
        <time>2014-07-31T10:53:02Z</time>
      </trkpt>
      <trkpt lat="42.8931800" lon="-8.4483780">
        <ele>344.2</ele>
        <time>2014-07-31T10:53:15Z</time>
      </trkpt>
      <trkpt lat="42.8929530" lon="-8.4486500">
        <ele>346.0</ele>
        <time>2014-07-31T10:53:23Z</time>
      </trkpt>
      <trkpt lat="42.8929210" lon="-8.4486970">
        <ele>346.2</ele>
        <time>2014-07-31T10:53:24Z</time>
      </trkpt>
      <trkpt lat="42.8925900" lon="-8.4491020">
        <ele>347.9</ele>
        <time>2014-07-31T10:53:33Z</time>
      </trkpt>
      <trkpt lat="42.8925570" lon="-8.4491520">
        <ele>348.1</ele>
        <time>2014-07-31T10:53:34Z</time>
      </trkpt>
      <trkpt lat="42.8925280" lon="-8.4492080">
        <ele>348.4</ele>
        <time>2014-07-31T10:53:35Z</time>
      </trkpt>
      <trkpt lat="42.8924420" lon="-8.4493710">
        <ele>349.2</ele>
        <time>2014-07-31T10:53:38Z</time>
      </trkpt>
      <trkpt lat="42.8923400" lon="-8.4495040">
        <ele>349.9</ele>
        <time>2014-07-31T10:53:41Z</time>
      </trkpt>
      <trkpt lat="42.8923100" lon="-8.4495540">
        <ele>350.1</ele>
        <time>2014-07-31T10:53:42Z</time>
      </trkpt>
      <trkpt lat="42.8922800" lon="-8.4496060">
        <ele>350.3</ele>
        <time>2014-07-31T10:53:43Z</time>
      </trkpt>
      <trkpt lat="42.8922480" lon="-8.4496590">
        <ele>350.6</ele>
        <time>2014-07-31T10:53:44Z</time>
      </trkpt>
      <trkpt lat="42.8922190" lon="-8.4497140">
        <ele>350.8</ele>
        <time>2014-07-31T10:53:45Z</time>
      </trkpt>
      <trkpt lat="42.8921880" lon="-8.4497660">
        <ele>351.0</ele>
        <time>2014-07-31T10:53:46Z</time>
      </trkpt>
      <trkpt lat="42.8921510" lon="-8.4498100">
        <ele>351.2</ele>
        <time>2014-07-31T10:53:47Z</time>
      </trkpt>
      <trkpt lat="42.8921100" lon="-8.4498450">
        <ele>351.4</ele>
        <time>2014-07-31T10:53:48Z</time>
      </trkpt>
      <trkpt lat="42.8920720" lon="-8.4498700">
        <ele>351.6</ele>
        <time>2014-07-31T10:53:49Z</time>
      </trkpt>
      <trkpt lat="42.8920390" lon="-8.4498790">
        <ele>351.7</ele>
        <time>2014-07-31T10:53:50Z</time>
      </trkpt>
      <trkpt lat="42.8920100" lon="-8.4498740">
        <ele>351.7</ele>
        <time>2014-07-31T10:53:51Z</time>
      </trkpt>
      <trkpt lat="42.8919850" lon="-8.4498650">
        <ele>351.8</ele>
        <time>2014-07-31T10:53:52Z</time>
      </trkpt>
      <trkpt lat="42.8919450" lon="-8.4498560">
        <ele>351.9</ele>
        <time>2014-07-31T10:53:54Z</time>
      </trkpt>
      <trkpt lat="42.8917930" lon="-8.4497820">
        <ele>352.3</ele>
        <time>2014-07-31T10:54:02Z</time>
      </trkpt>
      <trkpt lat="42.8916120" lon="-8.4496980">
        <ele>353.0</ele>
        <time>2014-07-31T10:54:11Z</time>
      </trkpt>
      <trkpt lat="42.8915890" lon="-8.4497050">
        <ele>353.1</ele>
        <time>2014-07-31T10:54:12Z</time>
      </trkpt>
      <trkpt lat="42.8915710" lon="-8.4497230">
        <ele>353.2</ele>
        <time>2014-07-31T10:54:13Z</time>
      </trkpt>
      <trkpt lat="42.8915630" lon="-8.4497540">
        <ele>353.3</ele>
        <time>2014-07-31T10:54:14Z</time>
      </trkpt>
      <trkpt lat="42.8915590" lon="-8.4497890">
        <ele>353.3</ele>
        <time>2014-07-31T10:54:15Z</time>
      </trkpt>
      <trkpt lat="42.8915520" lon="-8.4498240">
        <ele>353.3</ele>
        <time>2014-07-31T10:54:16Z</time>
      </trkpt>
      <trkpt lat="42.8914460" lon="-8.4504330">
        <ele>353.0</ele>
        <time>2014-07-31T10:54:30Z</time>
      </trkpt>
      <trkpt lat="42.8914410" lon="-8.4509460">
        <ele>352.1</ele>
        <time>2014-07-31T10:54:41Z</time>
      </trkpt>
      <trkpt lat="42.8914440" lon="-8.4509670">
        <ele>352.1</ele>
        <time>2014-07-31T10:54:46Z</time>
      </trkpt>
      <trkpt lat="42.8914400" lon="-8.4513090">
        <ele>352.1</ele>
        <time>2014-07-31T10:54:52Z</time>
      </trkpt>
      <trkpt lat="42.8914040" lon="-8.4519950">
        <ele>354.7</ele>
        <time>2014-07-31T10:55:03Z</time>
      </trkpt>
      <trkpt lat="42.8913980" lon="-8.4523590">
        <ele>357.5</ele>
        <time>2014-07-31T10:55:17Z</time>
      </trkpt>
      <trkpt lat="42.8912360" lon="-8.4527590">
        <ele>360.3</ele>
        <time>2014-07-31T10:55:36Z</time>
      </trkpt>
      <trkpt lat="42.8910080" lon="-8.4530810">
        <ele>361.6</ele>
        <time>2014-07-31T10:55:52Z</time>
      </trkpt>
      <trkpt lat="42.8909600" lon="-8.4534190">
        <ele>364.3</ele>
        <time>2014-07-31T10:56:04Z</time>
      </trkpt>
      <trkpt lat="42.8909290" lon="-8.4538490">
        <ele>367.5</ele>
        <time>2014-07-31T10:56:19Z</time>
      </trkpt>
      <trkpt lat="42.8908990" lon="-8.4543580">
        <ele>370.5</ele>
        <time>2014-07-31T10:56:34Z</time>
      </trkpt>
      <trkpt lat="42.8908720" lon="-8.4546700">
        <ele>372.0</ele>
        <time>2014-07-31T10:56:46Z</time>
      </trkpt>
      <trkpt lat="42.8908700" lon="-8.4547200">
        <ele>372.4</ele>
        <time>2014-07-31T10:56:48Z</time>
      </trkpt>
      <trkpt lat="42.8906950" lon="-8.4550940">
        <ele>374.8</ele>
        <time>2014-07-31T10:57:01Z</time>
      </trkpt>
      <trkpt lat="42.8904970" lon="-8.4554250">
        <ele>376.5</ele>
        <time>2014-07-31T10:57:13Z</time>
      </trkpt>
      <trkpt lat="42.8902920" lon="-8.4559300">
        <ele>378.5</ele>
        <time>2014-07-31T10:57:27Z</time>
      </trkpt>
      <trkpt lat="42.8901530" lon="-8.4565140">
        <ele>381.2</ele>
        <time>2014-07-31T10:57:42Z</time>
      </trkpt>
      <trkpt lat="42.8901280" lon="-8.4571270">
        <ele>380.5</ele>
        <time>2014-07-31T10:57:56Z</time>
      </trkpt>
      <trkpt lat="42.8901880" lon="-8.4577870">
        <ele>381.0</ele>
        <time>2014-07-31T10:58:11Z</time>
      </trkpt>
      <trkpt lat="42.8902880" lon="-8.4581040">
        <ele>382.2</ele>
        <time>2014-07-31T10:58:22Z</time>
      </trkpt>
      <trkpt lat="42.8903810" lon="-8.4585260">
        <ele>383.6</ele>
        <time>2014-07-31T10:58:36Z</time>
      </trkpt>
      <trkpt lat="42.8903920" lon="-8.4589080">
        <ele>384.9</ele>
        <time>2014-07-31T10:58:47Z</time>
      </trkpt>
      <trkpt lat="42.8904630" lon="-8.4592780">
        <ele>385.7</ele>
        <time>2014-07-31T10:58:58Z</time>
      </trkpt>
      <trkpt lat="42.8905650" lon="-8.4596880">
        <ele>384.2</ele>
        <time>2014-07-31T10:59:09Z</time>
      </trkpt>
      <trkpt lat="42.8905570" lon="-8.4602170">
        <ele>384.9</ele>
        <time>2014-07-31T10:59:21Z</time>
      </trkpt>
      <trkpt lat="42.8905380" lon="-8.4604120">
        <ele>385.0</ele>
        <time>2014-07-31T10:59:26Z</time>
      </trkpt>
      <trkpt lat="42.8905370" lon="-8.4604520">
        <ele>385.0</ele>
        <time>2014-07-31T10:59:27Z</time>
      </trkpt>
      <trkpt lat="42.8905140" lon="-8.4606070">
        <ele>385.0</ele>
        <time>2014-07-31T10:59:31Z</time>
      </trkpt>
      <trkpt lat="42.8905110" lon="-8.4606380">
        <ele>385.0</ele>
        <time>2014-07-31T10:59:32Z</time>
      </trkpt>
      <trkpt lat="42.8905120" lon="-8.4606770">
        <ele>385.0</ele>
        <time>2014-07-31T10:59:33Z</time>
      </trkpt>
      <trkpt lat="42.8905140" lon="-8.4607270">
        <ele>385.0</ele>
        <time>2014-07-31T10:59:34Z</time>
      </trkpt>
      <trkpt lat="42.8905060" lon="-8.4607660">
        <ele>385.0</ele>
        <time>2014-07-31T10:59:35Z</time>
      </trkpt>
      <trkpt lat="42.8905000" lon="-8.4608120">
        <ele>385.1</ele>
        <time>2014-07-31T10:59:36Z</time>
      </trkpt>
      <trkpt lat="42.8904910" lon="-8.4608660">
        <ele>385.2</ele>
        <time>2014-07-31T10:59:37Z</time>
      </trkpt>
      <trkpt lat="42.8904790" lon="-8.4609100">
        <ele>385.3</ele>
        <time>2014-07-31T10:59:38Z</time>
      </trkpt>
      <trkpt lat="42.8904750" lon="-8.4609560">
        <ele>385.4</ele>
        <time>2014-07-31T10:59:39Z</time>
      </trkpt>
      <trkpt lat="42.8904670" lon="-8.4610050">
        <ele>385.5</ele>
        <time>2014-07-31T10:59:40Z</time>
      </trkpt>
      <trkpt lat="42.8904500" lon="-8.4610490">
        <ele>385.7</ele>
        <time>2014-07-31T10:59:41Z</time>
      </trkpt>
      <trkpt lat="42.8904370" lon="-8.4610980">
        <ele>385.8</ele>
        <time>2014-07-31T10:59:42Z</time>
      </trkpt>
      <trkpt lat="42.8903810" lon="-8.4615160">
        <ele>386.3</ele>
        <time>2014-07-31T10:59:50Z</time>
      </trkpt>
      <trkpt lat="42.8903740" lon="-8.4616900">
        <ele>386.2</ele>
        <time>2014-07-31T10:59:53Z</time>
      </trkpt>
      <trkpt lat="42.8903700" lon="-8.4617560">
        <ele>386.2</ele>
        <time>2014-07-31T10:59:54Z</time>
      </trkpt>
      <trkpt lat="42.8903720" lon="-8.4618140">
        <ele>386.2</ele>
        <time>2014-07-31T10:59:55Z</time>
      </trkpt>
      <trkpt lat="42.8903750" lon="-8.4618670">
        <ele>386.2</ele>
        <time>2014-07-31T10:59:56Z</time>
      </trkpt>
      <trkpt lat="42.8903810" lon="-8.4619260">
        <ele>386.2</ele>
        <time>2014-07-31T10:59:57Z</time>
      </trkpt>
      <trkpt lat="42.8903800" lon="-8.4625600">
        <ele>386.4</ele>
        <time>2014-07-31T11:00:08Z</time>
      </trkpt>
      <trkpt lat="42.8903790" lon="-8.4626190">
        <ele>386.5</ele>
        <time>2014-07-31T11:00:09Z</time>
      </trkpt>
      <trkpt lat="42.8903770" lon="-8.4626760">
        <ele>386.5</ele>
        <time>2014-07-31T11:00:10Z</time>
      </trkpt>
      <trkpt lat="42.8903760" lon="-8.4627330">
        <ele>386.5</ele>
        <time>2014-07-31T11:00:11Z</time>
      </trkpt>
      <trkpt lat="42.8903790" lon="-8.4627910">
        <ele>386.5</ele>
        <time>2014-07-31T11:00:12Z</time>
      </trkpt>
      <trkpt lat="42.8903820" lon="-8.4629070">
        <ele>386.5</ele>
        <time>2014-07-31T11:00:14Z</time>
      </trkpt>
      <trkpt lat="42.8903920" lon="-8.4630260">
        <ele>386.6</ele>
        <time>2014-07-31T11:00:16Z</time>
      </trkpt>
      <trkpt lat="42.8904670" lon="-8.4637960">
        <ele>386.9</ele>
        <time>2014-07-31T11:00:30Z</time>
      </trkpt>
      <trkpt lat="42.8906030" lon="-8.4646400">
        <ele>387.7</ele>
        <time>2014-07-31T11:00:47Z</time>
      </trkpt>
      <trkpt lat="42.8906150" lon="-8.4647530">
        <ele>387.8</ele>
        <time>2014-07-31T11:00:49Z</time>
      </trkpt>
      <trkpt lat="42.8906220" lon="-8.4648120">
        <ele>387.8</ele>
        <time>2014-07-31T11:00:50Z</time>
      </trkpt>
      <trkpt lat="42.8906340" lon="-8.4648750">
        <ele>387.9</ele>
        <time>2014-07-31T11:00:51Z</time>
      </trkpt>
      <trkpt lat="42.8906460" lon="-8.4649380">
        <ele>387.9</ele>
        <time>2014-07-31T11:00:52Z</time>
      </trkpt>
      <trkpt lat="42.8906530" lon="-8.4650000">
        <ele>387.9</ele>
        <time>2014-07-31T11:00:53Z</time>
      </trkpt>
      <trkpt lat="42.8906590" lon="-8.4650580">
        <ele>387.9</ele>
        <time>2014-07-31T11:00:54Z</time>
      </trkpt>
      <trkpt lat="42.8906660" lon="-8.4651140">
        <ele>388.0</ele>
        <time>2014-07-31T11:00:55Z</time>
      </trkpt>
      <trkpt lat="42.8907460" lon="-8.4656900">
        <ele>388.2</ele>
        <time>2014-07-31T11:01:05Z</time>
      </trkpt>
      <trkpt lat="42.8907500" lon="-8.4657530">
        <ele>388.2</ele>
        <time>2014-07-31T11:01:06Z</time>
      </trkpt>
      <trkpt lat="42.8907600" lon="-8.4658130">
        <ele>388.2</ele>
        <time>2014-07-31T11:01:07Z</time>
      </trkpt>
      <trkpt lat="42.8908310" lon="-8.4662930">
        <ele>388.2</ele>
        <time>2014-07-31T11:01:15Z</time>
      </trkpt>
      <trkpt lat="42.8909730" lon="-8.4672840">
        <ele>388.9</ele>
        <time>2014-07-31T11:01:32Z</time>
      </trkpt>
      <trkpt lat="42.8910810" lon="-8.4682480">
        <ele>390.1</ele>
        <time>2014-07-31T11:01:50Z</time>
      </trkpt>
      <trkpt lat="42.8912000" lon="-8.4689890">
        <ele>391.7</ele>
        <time>2014-07-31T11:02:05Z</time>
      </trkpt>
      <trkpt lat="42.8912720" lon="-8.4695560">
        <ele>391.2</ele>
        <time>2014-07-31T11:02:17Z</time>
      </trkpt>
      <trkpt lat="42.8913630" lon="-8.4701440">
        <ele>391.1</ele>
        <time>2014-07-31T11:02:30Z</time>
      </trkpt>
      <trkpt lat="42.8914050" lon="-8.4704550">
        <ele>392.1</ele>
        <time>2014-07-31T11:02:36Z</time>
      </trkpt>
      <trkpt lat="42.8915460" lon="-8.4715040">
        <ele>385.5</ele>
        <time>2014-07-31T11:02:51Z</time>
      </trkpt>
      <trkpt lat="42.8915980" lon="-8.4718610">
        <ele>383.2</ele>
        <time>2014-07-31T11:02:55Z</time>
      </trkpt>
      <trkpt lat="42.8916350" lon="-8.4721410">
        <ele>382.2</ele>
        <time>2014-07-31T11:02:58Z</time>
      </trkpt>
      <trkpt lat="42.8916490" lon="-8.4722350">
        <ele>382.1</ele>
        <time>2014-07-31T11:02:59Z</time>
      </trkpt>
      <trkpt lat="42.8918190" lon="-8.4737020">
        <ele>380.5</ele>
        <time>2014-07-31T11:03:14Z</time>
      </trkpt>
      <trkpt lat="42.8919400" lon="-8.4747510">
        <ele>381.0</ele>
        <time>2014-07-31T11:03:27Z</time>
      </trkpt>
      <trkpt lat="42.8920870" lon="-8.4758780">
        <ele>379.6</ele>
        <time>2014-07-31T11:03:42Z</time>
      </trkpt>
      <trkpt lat="42.8920990" lon="-8.4759440">
        <ele>379.6</ele>
        <time>2014-07-31T11:03:43Z</time>
      </trkpt>
      <trkpt lat="42.8921450" lon="-8.4761400">
        <ele>379.6</ele>
        <time>2014-07-31T11:03:46Z</time>
      </trkpt>
      <trkpt lat="42.8921680" lon="-8.4762000">
        <ele>379.6</ele>
        <time>2014-07-31T11:03:47Z</time>
      </trkpt>
      <trkpt lat="42.8921930" lon="-8.4762570">
        <ele>379.6</ele>
        <time>2014-07-31T11:03:48Z</time>
      </trkpt>
      <trkpt lat="42.8922450" lon="-8.4763620">
        <ele>379.5</ele>
        <time>2014-07-31T11:03:50Z</time>
      </trkpt>
      <trkpt lat="42.8922700" lon="-8.4764110">
        <ele>379.4</ele>
        <time>2014-07-31T11:03:51Z</time>
      </trkpt>
      <trkpt lat="42.8922890" lon="-8.4764580">
        <ele>379.4</ele>
        <time>2014-07-31T11:03:52Z</time>
      </trkpt>
      <trkpt lat="42.8922960" lon="-8.4765030">
        <ele>379.3</ele>
        <time>2014-07-31T11:03:53Z</time>
      </trkpt>
      <trkpt lat="42.8922820" lon="-8.4765450">
        <ele>379.2</ele>
        <time>2014-07-31T11:03:54Z</time>
      </trkpt>
      <trkpt lat="42.8922550" lon="-8.4765680">
        <ele>378.8</ele>
        <time>2014-07-31T11:03:55Z</time>
      </trkpt>
      <trkpt lat="42.8922240" lon="-8.4765770">
        <ele>378.9</ele>
        <time>2014-07-31T11:03:56Z</time>
      </trkpt>
      <trkpt lat="42.8921920" lon="-8.4765780">
        <ele>378.9</ele>
        <time>2014-07-31T11:03:57Z</time>
      </trkpt>
      <trkpt lat="42.8921540" lon="-8.4765670">
        <ele>378.9</ele>
        <time>2014-07-31T11:03:58Z</time>
      </trkpt>
      <trkpt lat="42.8921150" lon="-8.4765540">
        <ele>378.9</ele>
        <time>2014-07-31T11:03:59Z</time>
      </trkpt>
      <trkpt lat="42.8916200" lon="-8.4764310">
        <ele>379.5</ele>
        <time>2014-07-31T11:04:12Z</time>
      </trkpt>
      <trkpt lat="42.8913150" lon="-8.4763650">
        <ele>380.0</ele>
        <time>2014-07-31T11:04:19Z</time>
      </trkpt>
      <trkpt lat="42.8912690" lon="-8.4763530">
        <ele>380.1</ele>
        <time>2014-07-31T11:04:20Z</time>
      </trkpt>
      <trkpt lat="42.8910450" lon="-8.4762920">
        <ele>380.4</ele>
        <time>2014-07-31T11:04:25Z</time>
      </trkpt>
      <trkpt lat="42.8909130" lon="-8.4762540">
        <ele>380.5</ele>
        <time>2014-07-31T11:04:28Z</time>
      </trkpt>
      <trkpt lat="42.8908700" lon="-8.4762400">
        <ele>380.6</ele>
        <time>2014-07-31T11:04:29Z</time>
      </trkpt>
      <trkpt lat="42.8906220" lon="-8.4761910">
        <ele>381.1</ele>
        <time>2014-07-31T11:04:35Z</time>
      </trkpt>
      <trkpt lat="42.8905810" lon="-8.4762030">
        <ele>381.2</ele>
        <time>2014-07-31T11:04:36Z</time>
      </trkpt>
      <trkpt lat="42.8905420" lon="-8.4762340">
        <ele>381.1</ele>
        <time>2014-07-31T11:04:37Z</time>
      </trkpt>
      <trkpt lat="42.8905210" lon="-8.4762900">
        <ele>380.8</ele>
        <time>2014-07-31T11:04:38Z</time>
      </trkpt>
      <trkpt lat="42.8905110" lon="-8.4763590">
        <ele>380.5</ele>
        <time>2014-07-31T11:04:39Z</time>
      </trkpt>
      <trkpt lat="42.8905100" lon="-8.4764310">
        <ele>380.2</ele>
        <time>2014-07-31T11:04:40Z</time>
      </trkpt>
      <trkpt lat="42.8905100" lon="-8.4765060">
        <ele>379.9</ele>
        <time>2014-07-31T11:04:41Z</time>
      </trkpt>
      <trkpt lat="42.8905390" lon="-8.4776620">
        <ele>376.5</ele>
        <time>2014-07-31T11:04:53Z</time>
      </trkpt>
      <trkpt lat="42.8905450" lon="-8.4779050">
        <ele>375.9</ele>
        <time>2014-07-31T11:04:55Z</time>
      </trkpt>
      <trkpt lat="42.8905460" lon="-8.4780340">
        <ele>375.4</ele>
        <time>2014-07-31T11:04:56Z</time>
      </trkpt>
      <trkpt lat="42.8906100" lon="-8.4800570">
        <ele>378.1</ele>
        <time>2014-07-31T11:05:13Z</time>
      </trkpt>
      <trkpt lat="42.8906260" lon="-8.4804920">
        <ele>379.9</ele>
        <time>2014-07-31T11:05:21Z</time>
      </trkpt>
      <trkpt lat="42.8906390" lon="-8.4809580">
        <ele>381.6</ele>
        <time>2014-07-31T11:05:37Z</time>
      </trkpt>
      <trkpt lat="42.8906590" lon="-8.4814440">
        <ele>383.1</ele>
        <time>2014-07-31T11:05:53Z</time>
      </trkpt>
      <trkpt lat="42.8906770" lon="-8.4820120">
        <ele>384.0</ele>
        <time>2014-07-31T11:06:09Z</time>
      </trkpt>
      <trkpt lat="42.8906980" lon="-8.4828900">
        <ele>383.0</ele>
        <time>2014-07-31T11:06:24Z</time>
      </trkpt>
      <trkpt lat="42.8907130" lon="-8.4832490">
        <ele>382.5</ele>
        <time>2014-07-31T11:06:29Z</time>
      </trkpt>
      <trkpt lat="42.8907420" lon="-8.4843770">
        <ele>377.9</ele>
        <time>2014-07-31T11:06:44Z</time>
      </trkpt>
      <trkpt lat="42.8907700" lon="-8.4854250">
        <ele>374.6</ele>
        <time>2014-07-31T11:06:53Z</time>
      </trkpt>
      <trkpt lat="42.8907800" lon="-8.4858340">
        <ele>373.1</ele>
        <time>2014-07-31T11:06:57Z</time>
      </trkpt>
      <trkpt lat="42.8907610" lon="-8.4859160">
        <ele>372.7</ele>
        <time>2014-07-31T11:06:58Z</time>
      </trkpt>
      <trkpt lat="42.8907200" lon="-8.4859790">
        <ele>372.4</ele>
        <time>2014-07-31T11:06:59Z</time>
      </trkpt>
      <trkpt lat="42.8906280" lon="-8.4860910">
        <ele>371.3</ele>
        <time>2014-07-31T11:07:01Z</time>
      </trkpt>
      <trkpt lat="42.8906060" lon="-8.4861680">
        <ele>370.6</ele>
        <time>2014-07-31T11:07:02Z</time>
      </trkpt>
      <trkpt lat="42.8906070" lon="-8.4862570">
        <ele>369.8</ele>
        <time>2014-07-31T11:07:03Z</time>
      </trkpt>
      <trkpt lat="42.8906220" lon="-8.4863500">
        <ele>369.0</ele>
        <time>2014-07-31T11:07:04Z</time>
      </trkpt>
      <trkpt lat="42.8906420" lon="-8.4864510">
        <ele>368.2</ele>
        <time>2014-07-31T11:07:05Z</time>
      </trkpt>
      <trkpt lat="42.8906610" lon="-8.4865600">
        <ele>367.3</ele>
        <time>2014-07-31T11:07:06Z</time>
      </trkpt>
      <trkpt lat="42.8907460" lon="-8.4870350">
        <ele>364.2</ele>
        <time>2014-07-31T11:07:10Z</time>
      </trkpt>
      <trkpt lat="42.8908180" lon="-8.4873020">
        <ele>362.6</ele>
        <time>2014-07-31T11:07:13Z</time>
      </trkpt>
      <trkpt lat="42.8908560" lon="-8.4873540">
        <ele>362.0</ele>
        <time>2014-07-31T11:07:14Z</time>
      </trkpt>
      <trkpt lat="42.8909030" lon="-8.4873760">
        <ele>361.7</ele>
        <time>2014-07-31T11:07:15Z</time>
      </trkpt>
      <trkpt lat="42.8911710" lon="-8.4874430">
        <ele>360.5</ele>
        <time>2014-07-31T11:07:20Z</time>
      </trkpt>
      <trkpt lat="42.8912230" lon="-8.4874700">
        <ele>360.3</ele>
        <time>2014-07-31T11:07:21Z</time>
      </trkpt>
      <trkpt lat="42.8912710" lon="-8.4875040">
        <ele>360.2</ele>
        <time>2014-07-31T11:07:22Z</time>
      </trkpt>
      <trkpt lat="42.8915520" lon="-8.4878110">
        <ele>359.6</ele>
        <time>2014-07-31T11:07:31Z</time>
      </trkpt>
      <trkpt lat="42.8915500" lon="-8.4878540">
        <ele>359.5</ele>
        <time>2014-07-31T11:07:32Z</time>
      </trkpt>
      <trkpt lat="42.8915390" lon="-8.4878940">
        <ele>359.5</ele>
        <time>2014-07-31T11:07:33Z</time>
      </trkpt>
      <trkpt lat="42.8915260" lon="-8.4879280">
        <ele>359.5</ele>
        <time>2014-07-31T11:07:34Z</time>
      </trkpt>
      <trkpt lat="42.8915120" lon="-8.4879700">
        <ele>359.5</ele>
        <time>2014-07-31T11:07:35Z</time>
      </trkpt>
      <trkpt lat="42.8915040" lon="-8.4880140">
        <ele>359.4</ele>
        <time>2014-07-31T11:07:36Z</time>
      </trkpt>
      <trkpt lat="42.8914990" lon="-8.4880610">
        <ele>359.4</ele>
        <time>2014-07-31T11:07:37Z</time>
      </trkpt>
      <trkpt lat="42.8914320" lon="-8.4885020">
        <ele>359.3</ele>
        <time>2014-07-31T11:07:45Z</time>
      </trkpt>
      <trkpt lat="42.8914210" lon="-8.4885600">
        <ele>359.3</ele>
        <time>2014-07-31T11:07:46Z</time>
      </trkpt>
      <trkpt lat="42.8914100" lon="-8.4886160">
        <ele>359.3</ele>
        <time>2014-07-31T11:07:47Z</time>
      </trkpt>
      <trkpt lat="42.8913770" lon="-8.4887880">
        <ele>359.2</ele>
        <time>2014-07-31T11:07:50Z</time>
      </trkpt>
      <trkpt lat="42.8913680" lon="-8.4889100">
        <ele>359.2</ele>
        <time>2014-07-31T11:07:52Z</time>
      </trkpt>
      <trkpt lat="42.8913560" lon="-8.4889710">
        <ele>359.2</ele>
        <time>2014-07-31T11:07:53Z</time>
      </trkpt>
      <trkpt lat="42.8913400" lon="-8.4890300">
        <ele>359.2</ele>
        <time>2014-07-31T11:07:54Z</time>
      </trkpt>
      <trkpt lat="42.8912660" lon="-8.4892900">
        <ele>359.2</ele>
        <time>2014-07-31T11:07:58Z</time>
      </trkpt>
      <trkpt lat="42.8910970" lon="-8.4897800">
        <ele>359.7</ele>
        <time>2014-07-31T11:08:07Z</time>
      </trkpt>
      <trkpt lat="42.8909580" lon="-8.4904920">
        <ele>362.2</ele>
        <time>2014-07-31T11:08:21Z</time>
      </trkpt>
      <trkpt lat="42.8908690" lon="-8.4909350">
        <ele>364.5</ele>
        <time>2014-07-31T11:08:33Z</time>
      </trkpt>
      <trkpt lat="42.8907200" lon="-8.4914950">
        <ele>365.2</ele>
        <time>2014-07-31T11:08:47Z</time>
      </trkpt>
      <trkpt lat="42.8907020" lon="-8.4915440">
        <ele>365.3</ele>
        <time>2014-07-31T11:08:48Z</time>
      </trkpt>
      <trkpt lat="42.8906850" lon="-8.4915930">
        <ele>365.3</ele>
        <time>2014-07-31T11:08:49Z</time>
      </trkpt>
      <trkpt lat="42.8906650" lon="-8.4916420">
        <ele>365.4</ele>
        <time>2014-07-31T11:08:50Z</time>
      </trkpt>
      <trkpt lat="42.8906450" lon="-8.4916890">
        <ele>365.5</ele>
        <time>2014-07-31T11:08:51Z</time>
      </trkpt>
      <trkpt lat="42.8903320" lon="-8.4924230">
        <ele>366.7</ele>
        <time>2014-07-31T11:09:07Z</time>
      </trkpt>
      <trkpt lat="42.8900940" lon="-8.4929120">
        <ele>366.7</ele>
        <time>2014-07-31T11:09:19Z</time>
      </trkpt>
      <trkpt lat="42.8899720" lon="-8.4933750">
        <ele>366.9</ele>
        <time>2014-07-31T11:09:31Z</time>
      </trkpt>
      <trkpt lat="42.8897350" lon="-8.4940580">
        <ele>366.1</ele>
        <time>2014-07-31T11:09:49Z</time>
      </trkpt>
      <trkpt lat="42.8896730" lon="-8.4941740">
        <ele>366.2</ele>
        <time>2014-07-31T11:09:55Z</time>
      </trkpt>
      <trkpt lat="42.8896590" lon="-8.4941810">
        <ele>366.3</ele>
        <time>2014-07-31T11:09:56Z</time>
      </trkpt>
      <trkpt lat="42.8896460" lon="-8.4941870">
        <ele>366.4</ele>
        <time>2014-07-31T11:09:57Z</time>
      </trkpt>
      <trkpt lat="42.8896330" lon="-8.4941870">
        <ele>366.5</ele>
        <time>2014-07-31T11:09:58Z</time>
      </trkpt>
      <trkpt lat="42.8896230" lon="-8.4941800">
        <ele>366.6</ele>
        <time>2014-07-31T11:09:59Z</time>
      </trkpt>
      <trkpt lat="42.8896130" lon="-8.4941630">
        <ele>366.7</ele>
        <time>2014-07-31T11:10:00Z</time>
      </trkpt>
      <trkpt lat="42.8895980" lon="-8.4941430">
        <ele>366.8</ele>
        <time>2014-07-31T11:10:01Z</time>
      </trkpt>
      <trkpt lat="42.8894190" lon="-8.4939290">
        <ele>368.4</ele>
        <time>2014-07-31T11:10:14Z</time>
      </trkpt>
      <trkpt lat="42.8894030" lon="-8.4939260">
        <ele>368.5</ele>
        <time>2014-07-31T11:10:15Z</time>
      </trkpt>
      <trkpt lat="42.8893360" lon="-8.4939090">
        <ele>368.9</ele>
        <time>2014-07-31T11:10:20Z</time>
      </trkpt>
      <trkpt lat="42.8893210" lon="-8.4939140">
        <ele>369.0</ele>
        <time>2014-07-31T11:10:21Z</time>
      </trkpt>
      <trkpt lat="42.8893070" lon="-8.4939200">
        <ele>369.1</ele>
        <time>2014-07-31T11:10:22Z</time>
      </trkpt>
      <trkpt lat="42.8892600" lon="-8.4939040">
        <ele>369.4</ele>
        <time>2014-07-31T11:10:25Z</time>
      </trkpt>
      <trkpt lat="42.8892460" lon="-8.4938870">
        <ele>369.5</ele>
        <time>2014-07-31T11:10:26Z</time>
      </trkpt>
      <trkpt lat="42.8892140" lon="-8.4938610">
        <ele>369.8</ele>
        <time>2014-07-31T11:10:36Z</time>
      </trkpt>
      <trkpt lat="42.8892140" lon="-8.4938610">
        <ele>369.8</ele>
        <time>2014-07-31T11:10:37Z</time>
      </trkpt>
      <trkpt lat="42.8892140" lon="-8.4938610">
        <ele>369.8</ele>
        <time>2014-07-31T11:10:39Z</time>
      </trkpt>
      <trkpt lat="42.8892140" lon="-8.4938610">
        <ele>369.8</ele>
        <time>2014-07-31T11:10:40Z</time>
      </trkpt>
      <trkpt lat="42.8892140" lon="-8.4938610">
        <ele>369.8</ele>
        <time>2014-07-31T11:11:04Z</time>
      </trkpt>
      <trkpt lat="42.8892080" lon="-8.4938950">
        <ele>369.9</ele>
        <time>2014-07-31T11:11:24Z</time>
      </trkpt>
      <trkpt lat="42.8892080" lon="-8.4938950">
        <ele>369.9</ele>
        <time>2014-07-31T11:11:48Z</time>
      </trkpt>
      <trkpt lat="42.8892050" lon="-8.4938960">
        <ele>369.9</ele>
        <time>2014-07-31T11:12:09Z</time>
      </trkpt>
      <trkpt lat="42.8892040" lon="-8.4938920">
        <ele>370.0</ele>
        <time>2014-07-31T11:12:43Z</time>
      </trkpt>
      <trkpt lat="42.8892040" lon="-8.4938920">
        <ele>370.0</ele>
        <time>2014-07-31T11:13:19Z</time>
      </trkpt>
      <trkpt lat="42.8892040" lon="-8.4938920">
        <ele>370.0</ele>
        <time>2014-07-31T11:13:20Z</time>
      </trkpt>
      <trkpt lat="42.8892040" lon="-8.4938910">
        <ele>370.0</ele>
        <time>2014-07-31T11:13:54Z</time>
      </trkpt>
      <trkpt lat="42.8892050" lon="-8.4939050">
        <ele>370.0</ele>
        <time>2014-07-31T11:14:06Z</time>
      </trkpt>
      <trkpt lat="42.8892040" lon="-8.4939340">
        <ele>370.2</ele>
        <time>2014-07-31T11:14:07Z</time>
      </trkpt>
      <trkpt lat="42.8892040" lon="-8.4939660">
        <ele>370.3</ele>
        <time>2014-07-31T11:14:08Z</time>
      </trkpt>
      <trkpt lat="42.8892090" lon="-8.4940030">
        <ele>370.5</ele>
        <time>2014-07-31T11:14:09Z</time>
      </trkpt>
      <trkpt lat="42.8892190" lon="-8.4940340">
        <ele>370.7</ele>
        <time>2014-07-31T11:14:10Z</time>
      </trkpt>
      <trkpt lat="42.8892350" lon="-8.4940580">
        <ele>370.8</ele>
        <time>2014-07-31T11:14:11Z</time>
      </trkpt>
      <trkpt lat="42.8892530" lon="-8.4940790">
        <ele>370.5</ele>
        <time>2014-07-31T11:14:12Z</time>
      </trkpt>
      <trkpt lat="42.8892710" lon="-8.4941040">
        <ele>370.4</ele>
        <time>2014-07-31T11:14:13Z</time>
      </trkpt>
      <trkpt lat="42.8892950" lon="-8.4941280">
        <ele>370.2</ele>
        <time>2014-07-31T11:14:14Z</time>
      </trkpt>
      <trkpt lat="42.8893180" lon="-8.4941540">
        <ele>370.0</ele>
        <time>2014-07-31T11:14:15Z</time>
      </trkpt>
      <trkpt lat="42.8895040" lon="-8.4942200">
        <ele>368.9</ele>
        <time>2014-07-31T11:14:24Z</time>
      </trkpt>
      <trkpt lat="42.8895580" lon="-8.4941960">
        <ele>368.5</ele>
        <time>2014-07-31T11:14:28Z</time>
      </trkpt>
      <trkpt lat="42.8895640" lon="-8.4942100">
        <ele>368.4</ele>
        <time>2014-07-31T11:14:39Z</time>
      </trkpt>
      <trkpt lat="42.8895540" lon="-8.4942780">
        <ele>368.1</ele>
        <time>2014-07-31T11:14:47Z</time>
      </trkpt>
      <trkpt lat="42.8896040" lon="-8.4943490">
        <ele>367.7</ele>
        <time>2014-07-31T11:15:01Z</time>
      </trkpt>
      <trkpt lat="42.8896040" lon="-8.4943490">
        <ele>367.7</ele>
        <time>2014-07-31T11:15:34Z</time>
      </trkpt>
      <trkpt lat="42.8896070" lon="-8.4943500">
        <ele>367.7</ele>
        <time>2014-07-31T11:16:09Z</time>
      </trkpt>
      <trkpt lat="42.8896110" lon="-8.4943510">
        <ele>367.7</ele>
        <time>2014-07-31T11:16:45Z</time>
      </trkpt>
      <trkpt lat="42.8896130" lon="-8.4943510">
        <ele>367.7</ele>
        <time>2014-07-31T11:17:20Z</time>
      </trkpt>
      <trkpt lat="42.8896160" lon="-8.4943530">
        <ele>367.6</ele>
        <time>2014-07-31T11:17:53Z</time>
      </trkpt>
      <trkpt lat="42.8896160" lon="-8.4943530">
        <ele>367.6</ele>
        <time>2014-07-31T11:18:29Z</time>
      </trkpt>
      <trkpt lat="42.8896170" lon="-8.4943520">
        <ele>367.6</ele>
        <time>2014-07-31T11:19:12Z</time>
      </trkpt>
      <trkpt lat="42.8896210" lon="-8.4943520">
        <ele>367.6</ele>
        <time>2014-07-31T11:19:44Z</time>
      </trkpt>
      <trkpt lat="42.8896200" lon="-8.4943550">
        <ele>367.6</ele>
        <time>2014-07-31T11:20:22Z</time>
      </trkpt>
      <trkpt lat="42.8896200" lon="-8.4943550">
        <ele>367.6</ele>
        <time>2014-07-31T11:20:59Z</time>
      </trkpt>
      <trkpt lat="42.8896230" lon="-8.4943520">
        <ele>367.6</ele>
        <time>2014-07-31T11:21:36Z</time>
      </trkpt>
      <trkpt lat="42.8896260" lon="-8.4943480">
        <ele>367.5</ele>
        <time>2014-07-31T11:22:19Z</time>
      </trkpt>
      <trkpt lat="42.8896280" lon="-8.4943490">
        <ele>367.5</ele>
        <time>2014-07-31T11:22:53Z</time>
      </trkpt>
      <trkpt lat="42.8896240" lon="-8.4943640">
        <ele>367.5</ele>
        <time>2014-07-31T11:23:18Z</time>
      </trkpt>
      <trkpt lat="42.8896240" lon="-8.4943640">
        <ele>367.5</ele>
        <time>2014-07-31T11:23:50Z</time>
      </trkpt>
      <trkpt lat="42.8896240" lon="-8.4943640">
        <ele>367.5</ele>
        <time>2014-07-31T11:24:18Z</time>
      </trkpt>
      <trkpt lat="42.8896220" lon="-8.4943500">
        <ele>367.4</ele>
        <time>2014-07-31T11:24:36Z</time>
      </trkpt>
      <trkpt lat="42.8895740" lon="-8.4942390">
        <ele>366.8</ele>
        <time>2014-07-31T11:24:51Z</time>
      </trkpt>
      <trkpt lat="42.8896320" lon="-8.4941910">
        <ele>366.4</ele>
        <time>2014-07-31T11:25:04Z</time>
      </trkpt>
      <trkpt lat="42.8896430" lon="-8.4941810">
        <ele>366.3</ele>
        <time>2014-07-31T11:25:15Z</time>
      </trkpt>
      <trkpt lat="42.8896700" lon="-8.4941890">
        <ele>366.2</ele>
        <time>2014-07-31T11:25:17Z</time>
      </trkpt>
      <trkpt lat="42.8896790" lon="-8.4942040">
        <ele>366.0</ele>
        <time>2014-07-31T11:25:18Z</time>
      </trkpt>
      <trkpt lat="42.8896890" lon="-8.4942180">
        <ele>366.0</ele>
        <time>2014-07-31T11:25:19Z</time>
      </trkpt>
      <trkpt lat="42.8896980" lon="-8.4942340">
        <ele>365.9</ele>
        <time>2014-07-31T11:25:20Z</time>
      </trkpt>
      <trkpt lat="42.8897060" lon="-8.4942510">
        <ele>365.9</ele>
        <time>2014-07-31T11:25:21Z</time>
      </trkpt>
      <trkpt lat="42.8897070" lon="-8.4942730">
        <ele>365.9</ele>
        <time>2014-07-31T11:25:22Z</time>
      </trkpt>
      <trkpt lat="42.8897010" lon="-8.4943010">
        <ele>365.8</ele>
        <time>2014-07-31T11:25:23Z</time>
      </trkpt>
      <trkpt lat="42.8896890" lon="-8.4943250">
        <ele>365.8</ele>
        <time>2014-07-31T11:25:24Z</time>
      </trkpt>
      <trkpt lat="42.8896790" lon="-8.4943470">
        <ele>365.7</ele>
        <time>2014-07-31T11:25:25Z</time>
      </trkpt>
      <trkpt lat="42.8896700" lon="-8.4943710">
        <ele>365.7</ele>
        <time>2014-07-31T11:25:26Z</time>
      </trkpt>
      <trkpt lat="42.8894830" lon="-8.4948340">
        <ele>365.0</ele>
        <time>2014-07-31T11:25:39Z</time>
      </trkpt>
      <trkpt lat="42.8894630" lon="-8.4948850">
        <ele>364.9</ele>
        <time>2014-07-31T11:25:40Z</time>
      </trkpt>
      <trkpt lat="42.8891370" lon="-8.4957430">
        <ele>362.0</ele>
        <time>2014-07-31T11:25:53Z</time>
      </trkpt>
      <trkpt lat="42.8889760" lon="-8.4962210">
        <ele>359.8</ele>
        <time>2014-07-31T11:26:02Z</time>
      </trkpt>
      <trkpt lat="42.8889590" lon="-8.4962800">
        <ele>359.5</ele>
        <time>2014-07-31T11:26:03Z</time>
      </trkpt>
      <trkpt lat="42.8889180" lon="-8.4964130">
        <ele>358.7</ele>
        <time>2014-07-31T11:26:05Z</time>
      </trkpt>
      <trkpt lat="42.8888930" lon="-8.4964920">
        <ele>358.3</ele>
        <time>2014-07-31T11:26:06Z</time>
      </trkpt>
      <trkpt lat="42.8887120" lon="-8.4969550">
        <ele>354.9</ele>
        <time>2014-07-31T11:26:11Z</time>
      </trkpt>
      <trkpt lat="42.8886700" lon="-8.4970550">
        <ele>354.2</ele>
        <time>2014-07-31T11:26:12Z</time>
      </trkpt>
      <trkpt lat="42.8885160" lon="-8.4974870">
        <ele>351.3</ele>
        <time>2014-07-31T11:26:16Z</time>
      </trkpt>
      <trkpt lat="42.8883940" lon="-8.4978500">
        <ele>349.1</ele>
        <time>2014-07-31T11:26:19Z</time>
      </trkpt>
      <trkpt lat="42.8882700" lon="-8.4982590">
        <ele>346.2</ele>
        <time>2014-07-31T11:26:22Z</time>
      </trkpt>
      <trkpt lat="42.8881590" lon="-8.4987280">
        <ele>342.5</ele>
        <time>2014-07-31T11:26:25Z</time>
      </trkpt>
      <trkpt lat="42.8880500" lon="-8.4991780">
        <ele>338.2</ele>
        <time>2014-07-31T11:26:28Z</time>
      </trkpt>
      <trkpt lat="42.8879450" lon="-8.4996050">
        <ele>334.2</ele>
        <time>2014-07-31T11:26:31Z</time>
      </trkpt>
      <trkpt lat="42.8878290" lon="-8.5000910">
        <ele>329.6</ele>
        <time>2014-07-31T11:26:35Z</time>
      </trkpt>
      <trkpt lat="42.8878170" lon="-8.5002030">
        <ele>328.5</ele>
        <time>2014-07-31T11:26:36Z</time>
      </trkpt>
      <trkpt lat="42.8878110" lon="-8.5003150">
        <ele>327.1</ele>
        <time>2014-07-31T11:26:37Z</time>
      </trkpt>
      <trkpt lat="42.8878160" lon="-8.5004300">
        <ele>325.5</ele>
        <time>2014-07-31T11:26:38Z</time>
      </trkpt>
      <trkpt lat="42.8878280" lon="-8.5005480">
        <ele>324.1</ele>
        <time>2014-07-31T11:26:39Z</time>
      </trkpt>
      <trkpt lat="42.8878470" lon="-8.5006650">
        <ele>322.9</ele>
        <time>2014-07-31T11:26:40Z</time>
      </trkpt>
      <trkpt lat="42.8878670" lon="-8.5007800">
        <ele>321.5</ele>
        <time>2014-07-31T11:26:41Z</time>
      </trkpt>
      <trkpt lat="42.8879210" lon="-8.5011190">
        <ele>317.1</ele>
        <time>2014-07-31T11:26:44Z</time>
      </trkpt>
      <trkpt lat="42.8879840" lon="-8.5014270">
        <ele>313.2</ele>
        <time>2014-07-31T11:26:47Z</time>
      </trkpt>
      <trkpt lat="42.8880240" lon="-8.5017140">
        <ele>309.9</ele>
        <time>2014-07-31T11:26:50Z</time>
      </trkpt>
      <trkpt lat="42.8880180" lon="-8.5018160">
        <ele>308.8</ele>
        <time>2014-07-31T11:26:51Z</time>
      </trkpt>
      <trkpt lat="42.8879990" lon="-8.5019290">
        <ele>307.9</ele>
        <time>2014-07-31T11:26:52Z</time>
      </trkpt>
      <trkpt lat="42.8879670" lon="-8.5020490">
        <ele>306.8</ele>
        <time>2014-07-31T11:26:53Z</time>
      </trkpt>
      <trkpt lat="42.8879280" lon="-8.5021720">
        <ele>306.4</ele>
        <time>2014-07-31T11:26:54Z</time>
      </trkpt>
      <trkpt lat="42.8875380" lon="-8.5033370">
        <ele>301.1</ele>
        <time>2014-07-31T11:27:05Z</time>
      </trkpt>
      <trkpt lat="42.8874540" lon="-8.5036710">
        <ele>299.0</ele>
        <time>2014-07-31T11:27:09Z</time>
      </trkpt>
      <trkpt lat="42.8873990" lon="-8.5038830">
        <ele>297.3</ele>
        <time>2014-07-31T11:27:13Z</time>
      </trkpt>
      <trkpt lat="42.8873050" lon="-8.5043080">
        <ele>294.2</ele>
        <time>2014-07-31T11:27:23Z</time>
      </trkpt>
      <trkpt lat="42.8872820" lon="-8.5044120">
        <ele>293.6</ele>
        <time>2014-07-31T11:27:31Z</time>
      </trkpt>
      <trkpt lat="42.8872620" lon="-8.5044490">
        <ele>293.2</ele>
        <time>2014-07-31T11:27:45Z</time>
      </trkpt>
      <trkpt lat="42.8872550" lon="-8.5044530">
        <ele>293.1</ele>
        <time>2014-07-31T11:27:47Z</time>
      </trkpt>
      <trkpt lat="42.8872450" lon="-8.5044630">
        <ele>293.0</ele>
        <time>2014-07-31T11:27:48Z</time>
      </trkpt>
      <trkpt lat="42.8871800" lon="-8.5045160">
        <ele>292.1</ele>
        <time>2014-07-31T11:28:01Z</time>
      </trkpt>
      <trkpt lat="42.8870960" lon="-8.5046160">
        <ele>291.0</ele>
        <time>2014-07-31T11:28:14Z</time>
      </trkpt>
      <trkpt lat="42.8870270" lon="-8.5047270">
        <ele>290.2</ele>
        <time>2014-07-31T11:28:27Z</time>
      </trkpt>
      <trkpt lat="42.8869890" lon="-8.5047930">
        <ele>290.0</ele>
        <time>2014-07-31T11:28:39Z</time>
      </trkpt>
      <trkpt lat="42.8869630" lon="-8.5048410">
        <ele>289.3</ele>
        <time>2014-07-31T11:28:41Z</time>
      </trkpt>
      <trkpt lat="42.8869500" lon="-8.5048730">
        <ele>289.3</ele>
        <time>2014-07-31T11:28:42Z</time>
      </trkpt>
      <trkpt lat="42.8867570" lon="-8.5053510">
        <ele>284.0</ele>
        <time>2014-07-31T11:28:55Z</time>
      </trkpt>
      <trkpt lat="42.8867280" lon="-8.5055820">
        <ele>281.8</ele>
        <time>2014-07-31T11:29:05Z</time>
      </trkpt>
      <trkpt lat="42.8866620" lon="-8.5061350">
        <ele>277.2</ele>
        <time>2014-07-31T11:29:15Z</time>
      </trkpt>
      <trkpt lat="42.8866180" lon="-8.5065780">
        <ele>274.5</ele>
        <time>2014-07-31T11:29:23Z</time>
      </trkpt>
      <trkpt lat="42.8865980" lon="-8.5068080">
        <ele>273.3</ele>
        <time>2014-07-31T11:29:29Z</time>
      </trkpt>
      <trkpt lat="42.8866200" lon="-8.5068970">
        <ele>273.1</ele>
        <time>2014-07-31T11:29:42Z</time>
      </trkpt>
      <trkpt lat="42.8866410" lon="-8.5069370">
        <ele>273.0</ele>
        <time>2014-07-31T11:29:43Z</time>
      </trkpt>
      <trkpt lat="42.8866600" lon="-8.5069890">
        <ele>272.8</ele>
        <time>2014-07-31T11:29:44Z</time>
      </trkpt>
      <trkpt lat="42.8866650" lon="-8.5070520">
        <ele>272.6</ele>
        <time>2014-07-31T11:29:45Z</time>
      </trkpt>
      <trkpt lat="42.8866610" lon="-8.5071210">
        <ele>272.4</ele>
        <time>2014-07-31T11:29:46Z</time>
      </trkpt>
      <trkpt lat="42.8866550" lon="-8.5071930">
        <ele>272.1</ele>
        <time>2014-07-31T11:29:47Z</time>
      </trkpt>
      <trkpt lat="42.8866320" lon="-8.5076260">
        <ele>271.5</ele>
        <time>2014-07-31T11:29:52Z</time>
      </trkpt>
      <trkpt lat="42.8866030" lon="-8.5089840">
        <ele>273.2</ele>
        <time>2014-07-31T11:30:07Z</time>
      </trkpt>
      <trkpt lat="42.8865880" lon="-8.5093980">
        <ele>273.5</ele>
        <time>2014-07-31T11:30:17Z</time>
      </trkpt>
      <trkpt lat="42.8865700" lon="-8.5093960">
        <ele>273.5</ele>
        <time>2014-07-31T11:30:30Z</time>
      </trkpt>
      <trkpt lat="42.8865520" lon="-8.5094050">
        <ele>273.6</ele>
        <time>2014-07-31T11:30:31Z</time>
      </trkpt>
      <trkpt lat="42.8865360" lon="-8.5094190">
        <ele>273.6</ele>
        <time>2014-07-31T11:30:32Z</time>
      </trkpt>
      <trkpt lat="42.8865260" lon="-8.5094470">
        <ele>273.6</ele>
        <time>2014-07-31T11:30:33Z</time>
      </trkpt>
      <trkpt lat="42.8865240" lon="-8.5094860">
        <ele>273.6</ele>
        <time>2014-07-31T11:30:34Z</time>
      </trkpt>
      <trkpt lat="42.8865240" lon="-8.5095250">
        <ele>273.7</ele>
        <time>2014-07-31T11:30:35Z</time>
      </trkpt>
      <trkpt lat="42.8865240" lon="-8.5095640">
        <ele>273.7</ele>
        <time>2014-07-31T11:30:36Z</time>
      </trkpt>
      <trkpt lat="42.8865240" lon="-8.5096060">
        <ele>273.7</ele>
        <time>2014-07-31T11:30:37Z</time>
      </trkpt>
      <trkpt lat="42.8865230" lon="-8.5096500">
        <ele>273.7</ele>
        <time>2014-07-31T11:30:38Z</time>
      </trkpt>
      <trkpt lat="42.8865230" lon="-8.5096970">
        <ele>273.8</ele>
        <time>2014-07-31T11:30:39Z</time>
      </trkpt>
      <trkpt lat="42.8864740" lon="-8.5100230">
        <ele>273.9</ele>
        <time>2014-07-31T11:30:46Z</time>
      </trkpt>
      <trkpt lat="42.8864410" lon="-8.5100390">
        <ele>273.9</ele>
        <time>2014-07-31T11:30:47Z</time>
      </trkpt>
      <trkpt lat="42.8864070" lon="-8.5100510">
        <ele>273.9</ele>
        <time>2014-07-31T11:30:48Z</time>
      </trkpt>
      <trkpt lat="42.8863640" lon="-8.5100870">
        <ele>274.0</ele>
        <time>2014-07-31T11:30:50Z</time>
      </trkpt>
      <trkpt lat="42.8863640" lon="-8.5101170">
        <ele>274.0</ele>
        <time>2014-07-31T11:30:51Z</time>
      </trkpt>
      <trkpt lat="42.8863700" lon="-8.5102330">
        <ele>274.0</ele>
        <time>2014-07-31T11:30:54Z</time>
      </trkpt>
      <trkpt lat="42.8863520" lon="-8.5102670">
        <ele>274.1</ele>
        <time>2014-07-31T11:30:55Z</time>
      </trkpt>
      <trkpt lat="42.8863400" lon="-8.5102980">
        <ele>274.1</ele>
        <time>2014-07-31T11:30:56Z</time>
      </trkpt>
      <trkpt lat="42.8863270" lon="-8.5103310">
        <ele>274.1</ele>
        <time>2014-07-31T11:30:57Z</time>
      </trkpt>
      <trkpt lat="42.8863090" lon="-8.5103560">
        <ele>274.2</ele>
        <time>2014-07-31T11:30:58Z</time>
      </trkpt>
      <trkpt lat="42.8862930" lon="-8.5103770">
        <ele>274.2</ele>
        <time>2014-07-31T11:30:59Z</time>
      </trkpt>
      <trkpt lat="42.8862820" lon="-8.5103970">
        <ele>274.2</ele>
        <time>2014-07-31T11:31:00Z</time>
      </trkpt>
      <trkpt lat="42.8862280" lon="-8.5104730">
        <ele>274.3</ele>
        <time>2014-07-31T11:31:04Z</time>
      </trkpt>
      <trkpt lat="42.8862210" lon="-8.5105050">
        <ele>274.3</ele>
        <time>2014-07-31T11:31:05Z</time>
      </trkpt>
      <trkpt lat="42.8862160" lon="-8.5105360">
        <ele>274.2</ele>
        <time>2014-07-31T11:31:06Z</time>
      </trkpt>
      <trkpt lat="42.8861690" lon="-8.5109290">
        <ele>274.6</ele>
        <time>2014-07-31T11:31:18Z</time>
      </trkpt>
      <trkpt lat="42.8861680" lon="-8.5109610">
        <ele>274.8</ele>
        <time>2014-07-31T11:31:19Z</time>
      </trkpt>
      <trkpt lat="42.8861760" lon="-8.5109860">
        <ele>274.8</ele>
        <time>2014-07-31T11:31:20Z</time>
      </trkpt>
      <trkpt lat="42.8861890" lon="-8.5109980">
        <ele>274.8</ele>
        <time>2014-07-31T11:31:21Z</time>
      </trkpt>
      <trkpt lat="42.8862040" lon="-8.5110050">
        <ele>274.8</ele>
        <time>2014-07-31T11:31:22Z</time>
      </trkpt>
      <trkpt lat="42.8862200" lon="-8.5110150">
        <ele>274.8</ele>
        <time>2014-07-31T11:31:23Z</time>
      </trkpt>
      <trkpt lat="42.8862400" lon="-8.5110280">
        <ele>274.8</ele>
        <time>2014-07-31T11:31:24Z</time>
      </trkpt>
      <trkpt lat="42.8862620" lon="-8.5110490">
        <ele>274.8</ele>
        <time>2014-07-31T11:31:25Z</time>
      </trkpt>
      <trkpt lat="42.8862830" lon="-8.5110730">
        <ele>274.8</ele>
        <time>2014-07-31T11:31:26Z</time>
      </trkpt>
      <trkpt lat="42.8864050" lon="-8.5113110">
        <ele>276.1</ele>
        <time>2014-07-31T11:31:34Z</time>
      </trkpt>
      <trkpt lat="42.8864060" lon="-8.5113420">
        <ele>276.1</ele>
        <time>2014-07-31T11:31:35Z</time>
      </trkpt>
      <trkpt lat="42.8864170" lon="-8.5118290">
        <ele>276.8</ele>
        <time>2014-07-31T11:31:49Z</time>
      </trkpt>
      <trkpt lat="42.8864020" lon="-8.5125680">
        <ele>278.0</ele>
        <time>2014-07-31T11:32:06Z</time>
      </trkpt>
      <trkpt lat="42.8863740" lon="-8.5128740">
        <ele>277.9</ele>
        <time>2014-07-31T11:32:13Z</time>
      </trkpt>
      <trkpt lat="42.8863570" lon="-8.5129110">
        <ele>277.9</ele>
        <time>2014-07-31T11:32:14Z</time>
      </trkpt>
      <trkpt lat="42.8863510" lon="-8.5129560">
        <ele>277.9</ele>
        <time>2014-07-31T11:32:15Z</time>
      </trkpt>
      <trkpt lat="42.8863180" lon="-8.5135520">
        <ele>279.5</ele>
        <time>2014-07-31T11:32:28Z</time>
      </trkpt>
      <trkpt lat="42.8863020" lon="-8.5142380">
        <ele>282.0</ele>
        <time>2014-07-31T11:32:44Z</time>
      </trkpt>
      <trkpt lat="42.8862990" lon="-8.5147130">
        <ele>283.0</ele>
        <time>2014-07-31T11:32:55Z</time>
      </trkpt>
      <trkpt lat="42.8863010" lon="-8.5147540">
        <ele>283.1</ele>
        <time>2014-07-31T11:32:56Z</time>
      </trkpt>
      <trkpt lat="42.8862970" lon="-8.5147960">
        <ele>283.3</ele>
        <time>2014-07-31T11:32:57Z</time>
      </trkpt>
      <trkpt lat="42.8862900" lon="-8.5148350">
        <ele>283.5</ele>
        <time>2014-07-31T11:32:58Z</time>
      </trkpt>
      <trkpt lat="42.8862840" lon="-8.5148750">
        <ele>283.7</ele>
        <time>2014-07-31T11:32:59Z</time>
      </trkpt>
      <trkpt lat="42.8862830" lon="-8.5149200">
        <ele>283.8</ele>
        <time>2014-07-31T11:33:00Z</time>
      </trkpt>
      <trkpt lat="42.8862670" lon="-8.5154470">
        <ele>284.9</ele>
        <time>2014-07-31T11:33:12Z</time>
      </trkpt>
      <trkpt lat="42.8863130" lon="-8.5158700">
        <ele>286.3</ele>
        <time>2014-07-31T11:33:23Z</time>
      </trkpt>
      <trkpt lat="42.8862970" lon="-8.5163550">
        <ele>287.8</ele>
        <time>2014-07-31T11:33:36Z</time>
      </trkpt>
      <trkpt lat="42.8862500" lon="-8.5167970">
        <ele>288.9</ele>
        <time>2014-07-31T11:33:47Z</time>
      </trkpt>
      <trkpt lat="42.8862460" lon="-8.5169380">
        <ele>289.2</ele>
        <time>2014-07-31T11:33:57Z</time>
      </trkpt>
      <trkpt lat="42.8862460" lon="-8.5169380">
        <ele>289.2</ele>
        <time>2014-07-31T11:34:23Z</time>
      </trkpt>
      <trkpt lat="42.8862410" lon="-8.5170950">
        <ele>289.4</ele>
        <time>2014-07-31T11:34:39Z</time>
      </trkpt>
      <trkpt lat="42.8864110" lon="-8.5174160">
        <ele>289.8</ele>
        <time>2014-07-31T11:34:48Z</time>
      </trkpt>
      <trkpt lat="42.8864990" lon="-8.5180780">
        <ele>290.3</ele>
        <time>2014-07-31T11:35:02Z</time>
      </trkpt>
      <trkpt lat="42.8865780" lon="-8.5184810">
        <ele>290.7</ele>
        <time>2014-07-31T11:35:12Z</time>
      </trkpt>
      <trkpt lat="42.8866320" lon="-8.5190300">
        <ele>291.4</ele>
        <time>2014-07-31T11:35:25Z</time>
      </trkpt>
      <trkpt lat="42.8866520" lon="-8.5193250">
        <ele>291.6</ele>
        <time>2014-07-31T11:35:34Z</time>
      </trkpt>
      <trkpt lat="42.8866570" lon="-8.5193430">
        <ele>291.6</ele>
        <time>2014-07-31T11:35:35Z</time>
      </trkpt>
      <trkpt lat="42.8866620" lon="-8.5193650">
        <ele>291.6</ele>
        <time>2014-07-31T11:35:36Z</time>
      </trkpt>
      <trkpt lat="42.8866750" lon="-8.5194280">
        <ele>291.6</ele>
        <time>2014-07-31T11:35:48Z</time>
      </trkpt>
      <trkpt lat="42.8866760" lon="-8.5194210">
        <ele>291.6</ele>
        <time>2014-07-31T11:36:04Z</time>
      </trkpt>
      <trkpt lat="42.8866870" lon="-8.5194200">
        <ele>291.6</ele>
        <time>2014-07-31T11:36:28Z</time>
      </trkpt>
      <trkpt lat="42.8866940" lon="-8.5194330">
        <ele>291.6</ele>
        <time>2014-07-31T11:36:37Z</time>
      </trkpt>
      <trkpt lat="42.8866970" lon="-8.5195000">
        <ele>291.6</ele>
        <time>2014-07-31T11:36:39Z</time>
      </trkpt>
      <trkpt lat="42.8867280" lon="-8.5196500">
        <ele>291.6</ele>
        <time>2014-07-31T11:36:42Z</time>
      </trkpt>
      <trkpt lat="42.8867560" lon="-8.5197610">
        <ele>291.5</ele>
        <time>2014-07-31T11:36:44Z</time>
      </trkpt>
      <trkpt lat="42.8867920" lon="-8.5198710">
        <ele>291.5</ele>
        <time>2014-07-31T11:36:46Z</time>
      </trkpt>
      <trkpt lat="42.8867990" lon="-8.5199330">
        <ele>291.4</ele>
        <time>2014-07-31T11:36:47Z</time>
      </trkpt>
      <trkpt lat="42.8868030" lon="-8.5199970">
        <ele>291.4</ele>
        <time>2014-07-31T11:36:48Z</time>
      </trkpt>
      <trkpt lat="42.8868180" lon="-8.5201850">
        <ele>291.1</ele>
        <time>2014-07-31T11:36:51Z</time>
      </trkpt>
      <trkpt lat="42.8868290" lon="-8.5202370">
        <ele>291.0</ele>
        <time>2014-07-31T11:36:52Z</time>
      </trkpt>
      <trkpt lat="42.8869440" lon="-8.5208410">
        <ele>289.8</ele>
        <time>2014-07-31T11:37:05Z</time>
      </trkpt>
      <trkpt lat="42.8870270" lon="-8.5212270">
        <ele>289.0</ele>
        <time>2014-07-31T11:37:16Z</time>
      </trkpt>
      <trkpt lat="42.8870870" lon="-8.5215060">
        <ele>288.8</ele>
        <time>2014-07-31T11:37:21Z</time>
      </trkpt>
      <trkpt lat="42.8871700" lon="-8.5219310">
        <ele>289.2</ele>
        <time>2014-07-31T11:37:28Z</time>
      </trkpt>
      <trkpt lat="42.8871960" lon="-8.5222120">
        <ele>289.4</ele>
        <time>2014-07-31T11:37:32Z</time>
      </trkpt>
      <trkpt lat="42.8874510" lon="-8.5233600">
        <ele>291.9</ele>
        <time>2014-07-31T11:37:48Z</time>
      </trkpt>
      <trkpt lat="42.8874550" lon="-8.5234240">
        <ele>291.9</ele>
        <time>2014-07-31T11:37:49Z</time>
      </trkpt>
      <trkpt lat="42.8874520" lon="-8.5234910">
        <ele>291.8</ele>
        <time>2014-07-31T11:37:50Z</time>
      </trkpt>
      <trkpt lat="42.8874350" lon="-8.5235560">
        <ele>291.8</ele>
        <time>2014-07-31T11:37:51Z</time>
      </trkpt>
      <trkpt lat="42.8874100" lon="-8.5236140">
        <ele>290.9</ele>
        <time>2014-07-31T11:37:52Z</time>
      </trkpt>
      <trkpt lat="42.8873710" lon="-8.5236680">
        <ele>289.8</ele>
        <time>2014-07-31T11:37:53Z</time>
      </trkpt>
      <trkpt lat="42.8873420" lon="-8.5237220">
        <ele>289.2</ele>
        <time>2014-07-31T11:37:54Z</time>
      </trkpt>
      <trkpt lat="42.8873240" lon="-8.5237850">
        <ele>288.1</ele>
        <time>2014-07-31T11:37:55Z</time>
      </trkpt>
      <trkpt lat="42.8873110" lon="-8.5238600">
        <ele>287.2</ele>
        <time>2014-07-31T11:37:56Z</time>
      </trkpt>
      <trkpt lat="42.8873020" lon="-8.5239370">
        <ele>286.9</ele>
        <time>2014-07-31T11:37:57Z</time>
      </trkpt>
      <trkpt lat="42.8872970" lon="-8.5240170">
        <ele>286.6</ele>
        <time>2014-07-31T11:37:58Z</time>
      </trkpt>
      <trkpt lat="42.8872930" lon="-8.5240980">
        <ele>286.3</ele>
        <time>2014-07-31T11:37:59Z</time>
      </trkpt>
      <trkpt lat="42.8872690" lon="-8.5251710">
        <ele>284.9</ele>
        <time>2014-07-31T11:38:12Z</time>
      </trkpt>
      <trkpt lat="42.8872620" lon="-8.5252460">
        <ele>284.8</ele>
        <time>2014-07-31T11:38:13Z</time>
      </trkpt>
      <trkpt lat="42.8871580" lon="-8.5256000">
        <ele>284.6</ele>
        <time>2014-07-31T11:38:18Z</time>
      </trkpt>
      <trkpt lat="42.8868920" lon="-8.5264410">
        <ele>285.5</ele>
        <time>2014-07-31T11:38:30Z</time>
      </trkpt>
      <trkpt lat="42.8865850" lon="-8.5271130">
        <ele>285.3</ele>
        <time>2014-07-31T11:38:40Z</time>
      </trkpt>
      <trkpt lat="42.8862800" lon="-8.5278570">
        <ele>283.4</ele>
        <time>2014-07-31T11:38:53Z</time>
      </trkpt>
      <trkpt lat="42.8861790" lon="-8.5288280">
        <ele>282.8</ele>
        <time>2014-07-31T11:39:05Z</time>
      </trkpt>
      <trkpt lat="42.8861360" lon="-8.5292510">
        <ele>279.3</ele>
        <time>2014-07-31T11:39:09Z</time>
      </trkpt>
      <trkpt lat="42.8858670" lon="-8.5304400">
        <ele>277.1</ele>
        <time>2014-07-31T11:39:22Z</time>
      </trkpt>
      <trkpt lat="42.8852880" lon="-8.5313780">
        <ele>274.5</ele>
        <time>2014-07-31T11:39:36Z</time>
      </trkpt>
      <trkpt lat="42.8851200" lon="-8.5317860">
        <ele>273.7</ele>
        <time>2014-07-31T11:39:41Z</time>
      </trkpt>
      <trkpt lat="42.8850980" lon="-8.5318770">
        <ele>273.6</ele>
        <time>2014-07-31T11:39:42Z</time>
      </trkpt>
      <trkpt lat="42.8851100" lon="-8.5321760">
        <ele>274.5</ele>
        <time>2014-07-31T11:39:45Z</time>
      </trkpt>
      <trkpt lat="42.8852660" lon="-8.5326780">
        <ele>276.4</ele>
        <time>2014-07-31T11:39:50Z</time>
      </trkpt>
      <trkpt lat="42.8852740" lon="-8.5328670">
        <ele>277.4</ele>
        <time>2014-07-31T11:39:52Z</time>
      </trkpt>
      <trkpt lat="42.8851700" lon="-8.5331460">
        <ele>278.7</ele>
        <time>2014-07-31T11:39:56Z</time>
      </trkpt>
      <trkpt lat="42.8850210" lon="-8.5333440">
        <ele>280.6</ele>
        <time>2014-07-31T11:40:04Z</time>
      </trkpt>
      <trkpt lat="42.8850210" lon="-8.5333440">
        <ele>280.6</ele>
        <time>2014-07-31T11:40:32Z</time>
      </trkpt>
      <trkpt lat="42.8850210" lon="-8.5333430">
        <ele>280.6</ele>
        <time>2014-07-31T11:41:01Z</time>
      </trkpt>
      <trkpt lat="42.8849670" lon="-8.5335200">
        <ele>281.8</ele>
        <time>2014-07-31T11:41:09Z</time>
      </trkpt>
      <trkpt lat="42.8847650" lon="-8.5337130">
        <ele>282.0</ele>
        <time>2014-07-31T11:41:18Z</time>
      </trkpt>
      <trkpt lat="42.8846290" lon="-8.5337750">
        <ele>281.3</ele>
        <time>2014-07-31T11:41:21Z</time>
      </trkpt>
      <trkpt lat="42.8845420" lon="-8.5338230">
        <ele>281.3</ele>
        <time>2014-07-31T11:41:23Z</time>
      </trkpt>
      <trkpt lat="42.8843790" lon="-8.5339280">
        <ele>281.6</ele>
        <time>2014-07-31T11:41:27Z</time>
      </trkpt>
      <trkpt lat="42.8843040" lon="-8.5339830">
        <ele>281.7</ele>
        <time>2014-07-31T11:41:29Z</time>
      </trkpt>
      <trkpt lat="42.8839350" lon="-8.5341740">
        <ele>280.8</ele>
        <time>2014-07-31T11:41:39Z</time>
      </trkpt>
      <trkpt lat="42.8834350" lon="-8.5342290">
        <ele>280.1</ele>
        <time>2014-07-31T11:41:52Z</time>
      </trkpt>
      <trkpt lat="42.8830100" lon="-8.5342890">
        <ele>279.2</ele>
        <time>2014-07-31T11:42:03Z</time>
      </trkpt>
      <trkpt lat="42.8824260" lon="-8.5345180">
        <ele>279.5</ele>
        <time>2014-07-31T11:42:17Z</time>
      </trkpt>
      <trkpt lat="42.8819130" lon="-8.5349790">
        <ele>281.1</ele>
        <time>2014-07-31T11:42:34Z</time>
      </trkpt>
      <trkpt lat="42.8818210" lon="-8.5353170">
        <ele>281.6</ele>
        <time>2014-07-31T11:42:46Z</time>
      </trkpt>
      <trkpt lat="42.8818240" lon="-8.5353270">
        <ele>281.7</ele>
        <time>2014-07-31T11:42:54Z</time>
      </trkpt>
      <trkpt lat="42.8818200" lon="-8.5354170">
        <ele>282.0</ele>
        <time>2014-07-31T11:42:58Z</time>
      </trkpt>
      <trkpt lat="42.8817680" lon="-8.5357520">
        <ele>281.9</ele>
        <time>2014-07-31T11:43:05Z</time>
      </trkpt>
      <trkpt lat="42.8816320" lon="-8.5364950">
        <ele>280.0</ele>
        <time>2014-07-31T11:43:15Z</time>
      </trkpt>
      <trkpt lat="42.8815680" lon="-8.5366930">
        <ele>278.5</ele>
        <time>2014-07-31T11:43:19Z</time>
      </trkpt>
      <trkpt lat="42.8815350" lon="-8.5368980">
        <ele>277.6</ele>
        <time>2014-07-31T11:43:26Z</time>
      </trkpt>
      <trkpt lat="42.8815100" lon="-8.5370630">
        <ele>277.1</ele>
        <time>2014-07-31T11:43:31Z</time>
      </trkpt>
      <trkpt lat="42.8814240" lon="-8.5375850">
        <ele>274.0</ele>
        <time>2014-07-31T11:43:41Z</time>
      </trkpt>
      <trkpt lat="42.8813770" lon="-8.5378370">
        <ele>272.5</ele>
        <time>2014-07-31T11:43:45Z</time>
      </trkpt>
      <trkpt lat="42.8813570" lon="-8.5380240">
        <ele>270.9</ele>
        <time>2014-07-31T11:43:48Z</time>
      </trkpt>
      <trkpt lat="42.8814020" lon="-8.5382900">
        <ele>270.3</ele>
        <time>2014-07-31T11:43:52Z</time>
      </trkpt>
      <trkpt lat="42.8814540" lon="-8.5384340">
        <ele>270.2</ele>
        <time>2014-07-31T11:43:54Z</time>
      </trkpt>
      <trkpt lat="42.8816030" lon="-8.5387270">
        <ele>269.9</ele>
        <time>2014-07-31T11:43:58Z</time>
      </trkpt>
      <trkpt lat="42.8817560" lon="-8.5390890">
        <ele>269.6</ele>
        <time>2014-07-31T11:44:03Z</time>
      </trkpt>
      <trkpt lat="42.8818810" lon="-8.5392800">
        <ele>269.4</ele>
        <time>2014-07-31T11:44:06Z</time>
      </trkpt>
      <trkpt lat="42.8819520" lon="-8.5394950">
        <ele>269.3</ele>
        <time>2014-07-31T11:44:09Z</time>
      </trkpt>
      <trkpt lat="42.8820170" lon="-8.5397700">
        <ele>269.3</ele>
        <time>2014-07-31T11:44:14Z</time>
      </trkpt>
      <trkpt lat="42.8819080" lon="-8.5400810">
        <ele>269.9</ele>
        <time>2014-07-31T11:44:26Z</time>
      </trkpt>
      <trkpt lat="42.8819250" lon="-8.5401980">
        <ele>270.1</ele>
        <time>2014-07-31T11:44:40Z</time>
      </trkpt>
      <trkpt lat="42.8819180" lon="-8.5403430">
        <ele>270.6</ele>
        <time>2014-07-31T11:44:44Z</time>
      </trkpt>
      <trkpt lat="42.8819170" lon="-8.5405420">
        <ele>271.6</ele>
        <time>2014-07-31T11:44:49Z</time>
      </trkpt>
      <trkpt lat="42.8819450" lon="-8.5406900">
        <ele>272.6</ele>
        <time>2014-07-31T11:44:54Z</time>
      </trkpt>
      <trkpt lat="42.8819160" lon="-8.5409590">
        <ele>274.3</ele>
        <time>2014-07-31T11:45:02Z</time>
      </trkpt>
      <trkpt lat="42.8819290" lon="-8.5410810">
        <ele>275.1</ele>
        <time>2014-07-31T11:45:06Z</time>
      </trkpt>
      <trkpt lat="42.8819130" lon="-8.5411470">
        <ele>275.5</ele>
        <time>2014-07-31T11:45:09Z</time>
      </trkpt>
      <trkpt lat="42.8819280" lon="-8.5412490">
        <ele>276.1</ele>
        <time>2014-07-31T11:45:15Z</time>
      </trkpt>
      <trkpt lat="42.8819060" lon="-8.5413070">
        <ele>276.6</ele>
        <time>2014-07-31T11:45:17Z</time>
      </trkpt>
      <trkpt lat="42.8816540" lon="-8.5416520">
        <ele>279.0</ele>
        <time>2014-07-31T11:45:32Z</time>
      </trkpt>
      <trkpt lat="42.8816540" lon="-8.5418290">
        <ele>279.5</ele>
        <time>2014-07-31T11:45:40Z</time>
      </trkpt>
      <trkpt lat="42.8815980" lon="-8.5421580">
        <ele>280.1</ele>
        <time>2014-07-31T11:45:51Z</time>
      </trkpt>
      <trkpt lat="42.8816080" lon="-8.5422220">
        <ele>280.1</ele>
        <time>2014-07-31T11:45:54Z</time>
      </trkpt>
      <trkpt lat="42.8816820" lon="-8.5422370">
        <ele>280.3</ele>
        <time>2014-07-31T11:45:57Z</time>
      </trkpt>
      <trkpt lat="42.8816820" lon="-8.5422830">
        <ele>280.3</ele>
        <time>2014-07-31T11:46:02Z</time>
      </trkpt>
      <trkpt lat="42.8815170" lon="-8.5425260">
        <ele>278.7</ele>
        <time>2014-07-31T11:46:09Z</time>
      </trkpt>
      <trkpt lat="42.8815240" lon="-8.5426500">
        <ele>278.4</ele>
        <time>2014-07-31T11:46:13Z</time>
      </trkpt>
      <trkpt lat="42.8814740" lon="-8.5428630">
        <ele>278.0</ele>
        <time>2014-07-31T11:46:27Z</time>
      </trkpt>
      <trkpt lat="42.8814740" lon="-8.5428740">
        <ele>278.0</ele>
        <time>2014-07-31T11:46:28Z</time>
      </trkpt>
      <trkpt lat="42.8814940" lon="-8.5429440">
        <ele>278.0</ele>
        <time>2014-07-31T11:46:34Z</time>
      </trkpt>
      <trkpt lat="42.8814850" lon="-8.5433300">
        <ele>278.1</ele>
        <time>2014-07-31T11:46:46Z</time>
      </trkpt>
      <trkpt lat="42.8815260" lon="-8.5434650">
        <ele>278.0</ele>
        <time>2014-07-31T11:46:50Z</time>
      </trkpt>
      <trkpt lat="42.8818700" lon="-8.5437120">
        <ele>276.7</ele>
        <time>2014-07-31T11:47:00Z</time>
      </trkpt>
      <trkpt lat="42.8819750" lon="-8.5438220">
        <ele>276.6</ele>
        <time>2014-07-31T11:47:07Z</time>
      </trkpt>
      <trkpt lat="42.8817320" lon="-8.5442540">
        <ele>272.8</ele>
        <time>2014-07-31T11:47:19Z</time>
      </trkpt>
      <trkpt lat="42.8816710" lon="-8.5444460">
        <ele>271.1</ele>
        <time>2014-07-31T11:47:29Z</time>
      </trkpt>
      <trkpt lat="42.8816830" lon="-8.5444600">
        <ele>271.3</ele>
        <time>2014-07-31T11:47:30Z</time>
      </trkpt>
      <trkpt lat="42.8817540" lon="-8.5444910">
        <ele>271.2</ele>
        <time>2014-07-31T11:47:35Z</time>
      </trkpt>
      <trkpt lat="42.8817250" lon="-8.5447450">
        <ele>269.6</ele>
        <time>2014-07-31T11:47:43Z</time>
      </trkpt>
      <trkpt lat="42.8817280" lon="-8.5447650">
        <ele>269.4</ele>
        <time>2014-07-31T11:47:44Z</time>
      </trkpt>
      <trkpt lat="42.8817150" lon="-8.5449630">
        <ele>267.8</ele>
        <time>2014-07-31T11:47:55Z</time>
      </trkpt>
      <trkpt lat="42.8817150" lon="-8.5449800">
        <ele>268.0</ele>
        <time>2014-07-31T11:47:56Z</time>
      </trkpt>
      <trkpt lat="42.8821020" lon="-8.5452640">
        <ele>264.4</ele>
        <time>2014-07-31T11:48:17Z</time>
      </trkpt>
      <trkpt lat="42.8819360" lon="-8.5452310">
        <ele>264.4</ele>
        <time>2014-07-31T11:48:26Z</time>
      </trkpt>
      <trkpt lat="42.8818170" lon="-8.5451650">
        <ele>264.4</ele>
        <time>2014-07-31T11:48:28Z</time>
      </trkpt>
      <trkpt lat="42.8818190" lon="-8.5451490">
        <ele>264.4</ele>
        <time>2014-07-31T11:48:29Z</time>
      </trkpt>
      <trkpt lat="42.8816820" lon="-8.5451930">
        <ele>264.3</ele>
        <time>2014-07-31T11:48:31Z</time>
      </trkpt>
      <trkpt lat="42.8808860" lon="-8.5454900">
        <ele>260.9</ele>
        <time>2014-07-31T11:48:35Z</time>
      </trkpt>
      <trkpt lat="42.8805540" lon="-8.5456710">
        <ele>256.0</ele>
        <time>2014-07-31T11:48:50Z</time>
      </trkpt>
      <trkpt lat="42.8805190" lon="-8.5457200">
        <ele>255.6</ele>
        <time>2014-07-31T11:49:00Z</time>
      </trkpt>
      <trkpt lat="42.8805190" lon="-8.5457200">
        <ele>255.6</ele>
        <time>2014-07-31T11:49:24Z</time>
      </trkpt>
      <trkpt lat="42.8804730" lon="-8.5458390">
        <ele>254.0</ele>
        <time>2014-07-31T11:49:37Z</time>
      </trkpt>
      <trkpt lat="42.8804740" lon="-8.5458460">
        <ele>253.9</ele>
        <time>2014-07-31T11:49:57Z</time>
      </trkpt>
    </trkseg>
  </trk>
</gpx>
